<?xml version="1.0" encoding="UTF-8" standalone="no" ?>
<gpx xmlns="http://www.topografix.com/GPX/1/1" xmlns:xsi="http://www.w3.org/2001/XMLSchema-instance" xsi:schemaLocation="http://www.topografix.com/GPX/1/1 http://www.topografix.com/GPX/1/1/gpx.xsd" version="1.1" creator="VisuGPX - https://www.visugpx.com">
  <metadata>
    <name>St Jean d'Arves- Le Monêtier-les-Bains </name>
  </metadata>
  <trk>
    <name><![CDATA[St Jean d’Arves- Le Monêtier-les-Bains ]]></name>
    <trkseg>
      <trkpt lat="45.18856" lon="6.28388">
        <ele>1264.2</ele>
        <time>2021-02-28T04:42:50Z</time>
      </trkpt>
      <trkpt lat="45.18854" lon="6.2839">
        <ele>1264.2</ele>
        <time>2021-02-28T04:42:51Z</time>
      </trkpt>
      <trkpt lat="45.18852" lon="6.28392">
        <ele>1264.2</ele>
        <time>2021-02-28T04:42:59Z</time>
      </trkpt>
      <trkpt lat="45.1885" lon="6.28393">
        <ele>1264.4</ele>
        <time>2021-02-28T04:43:00Z</time>
      </trkpt>
      <trkpt lat="45.18848" lon="6.28395">
        <ele>1264.6</ele>
        <time>2021-02-28T04:43:01Z</time>
      </trkpt>
      <trkpt lat="45.18847" lon="6.28396">
        <ele>1264.8</ele>
        <time>2021-02-28T04:43:02Z</time>
      </trkpt>
      <trkpt lat="45.18846" lon="6.28396">
        <ele>1264.8</ele>
        <time>2021-02-28T04:43:03Z</time>
      </trkpt>
      <trkpt lat="45.18845" lon="6.28397">
        <ele>1264.8</ele>
        <time>2021-02-28T04:43:04Z</time>
      </trkpt>
      <trkpt lat="45.18844" lon="6.28397">
        <ele>1264.8</ele>
        <time>2021-02-28T04:43:05Z</time>
      </trkpt>
      <trkpt lat="45.18842" lon="6.28398">
        <ele>1264.8</ele>
        <time>2021-02-28T04:43:06Z</time>
      </trkpt>
      <trkpt lat="45.18841" lon="6.28399">
        <ele>1264.6</ele>
        <time>2021-02-28T04:43:07Z</time>
      </trkpt>
      <trkpt lat="45.1884" lon="6.28399">
        <ele>1264.4</ele>
        <time>2021-02-28T04:43:08Z</time>
      </trkpt>
      <trkpt lat="45.18839" lon="6.284">
        <ele>1264.4</ele>
        <time>2021-02-28T04:43:09Z</time>
      </trkpt>
      <trkpt lat="45.18838" lon="6.28401">
        <ele>1264</ele>
        <time>2021-02-28T04:43:10Z</time>
      </trkpt>
      <trkpt lat="45.18836" lon="6.28402">
        <ele>1264</ele>
        <time>2021-02-28T04:43:11Z</time>
      </trkpt>
      <trkpt lat="45.18835" lon="6.28403">
        <ele>1263.8</ele>
        <time>2021-02-28T04:43:12Z</time>
      </trkpt>
      <trkpt lat="45.18833" lon="6.28404">
        <ele>1263.6</ele>
        <time>2021-02-28T04:43:13Z</time>
      </trkpt>
      <trkpt lat="45.18832" lon="6.28404">
        <ele>1263.6</ele>
        <time>2021-02-28T04:43:14Z</time>
      </trkpt>
      <trkpt lat="45.18831" lon="6.28405">
        <ele>1263.6</ele>
        <time>2021-02-28T04:43:15Z</time>
      </trkpt>
      <trkpt lat="45.1883" lon="6.28406">
        <ele>1263.8</ele>
        <time>2021-02-28T04:43:16Z</time>
      </trkpt>
      <trkpt lat="45.18829" lon="6.28407">
        <ele>1263.6</ele>
        <time>2021-02-28T04:43:17Z</time>
      </trkpt>
      <trkpt lat="45.18828" lon="6.28408">
        <ele>1263.8</ele>
        <time>2021-02-28T04:43:18Z</time>
      </trkpt>
      <trkpt lat="45.18827" lon="6.28409">
        <ele>1263.4</ele>
        <time>2021-02-28T04:43:19Z</time>
      </trkpt>
      <trkpt lat="45.18826" lon="6.28409">
        <ele>1263.6</ele>
        <time>2021-02-28T04:43:20Z</time>
      </trkpt>
      <trkpt lat="45.18825" lon="6.2841">
        <ele>1263.6</ele>
        <time>2021-02-28T04:43:21Z</time>
      </trkpt>
      <trkpt lat="45.18823" lon="6.28411">
        <ele>1263.6</ele>
        <time>2021-02-28T04:43:22Z</time>
      </trkpt>
      <trkpt lat="45.18822" lon="6.28412">
        <ele>1263.4</ele>
        <time>2021-02-28T04:43:23Z</time>
      </trkpt>
      <trkpt lat="45.18821" lon="6.28412">
        <ele>1263.2</ele>
        <time>2021-02-28T04:43:25Z</time>
      </trkpt>
      <trkpt lat="45.18821" lon="6.28413">
        <ele>1263.4</ele>
        <time>2021-02-28T04:43:26Z</time>
      </trkpt>
      <trkpt lat="45.1882" lon="6.28413">
        <ele>1263.8</ele>
        <time>2021-02-28T04:43:27Z</time>
      </trkpt>
      <trkpt lat="45.18819" lon="6.28414">
        <ele>1264</ele>
        <time>2021-02-28T04:43:28Z</time>
      </trkpt>
      <trkpt lat="45.18818" lon="6.28414">
        <ele>1264.4</ele>
        <time>2021-02-28T04:43:29Z</time>
      </trkpt>
      <trkpt lat="45.18817" lon="6.28415">
        <ele>1264.6</ele>
        <time>2021-02-28T04:43:30Z</time>
      </trkpt>
      <trkpt lat="45.18816" lon="6.28415">
        <ele>1264.8</ele>
        <time>2021-02-28T04:43:31Z</time>
      </trkpt>
      <trkpt lat="45.18815" lon="6.28416">
        <ele>1264.6</ele>
        <time>2021-02-28T04:43:32Z</time>
      </trkpt>
      <trkpt lat="45.18814" lon="6.28416">
        <ele>1265</ele>
        <time>2021-02-28T04:43:33Z</time>
      </trkpt>
      <trkpt lat="45.18813" lon="6.28417">
        <ele>1265</ele>
        <time>2021-02-28T04:43:34Z</time>
      </trkpt>
      <trkpt lat="45.18812" lon="6.28418">
        <ele>1265</ele>
        <time>2021-02-28T04:43:35Z</time>
      </trkpt>
      <trkpt lat="45.1881" lon="6.28418">
        <ele>1265</ele>
        <time>2021-02-28T04:43:36Z</time>
      </trkpt>
      <trkpt lat="45.18809" lon="6.28419">
        <ele>1265</ele>
        <time>2021-02-28T04:43:37Z</time>
      </trkpt>
      <trkpt lat="45.18808" lon="6.2842">
        <ele>1265.2</ele>
        <time>2021-02-28T04:43:38Z</time>
      </trkpt>
      <trkpt lat="45.18806" lon="6.28421">
        <ele>1265</ele>
        <time>2021-02-28T04:43:39Z</time>
      </trkpt>
      <trkpt lat="45.18805" lon="6.28422">
        <ele>1265.4</ele>
        <time>2021-02-28T04:43:40Z</time>
      </trkpt>
      <trkpt lat="45.18804" lon="6.28422">
        <ele>1265.4</ele>
        <time>2021-02-28T04:43:41Z</time>
      </trkpt>
      <trkpt lat="45.18803" lon="6.28423">
        <ele>1265.6</ele>
        <time>2021-02-28T04:43:42Z</time>
      </trkpt>
      <trkpt lat="45.18802" lon="6.28424">
        <ele>1265.6</ele>
        <time>2021-02-28T04:43:43Z</time>
      </trkpt>
      <trkpt lat="45.188" lon="6.28425">
        <ele>1265.8</ele>
        <time>2021-02-28T04:43:44Z</time>
      </trkpt>
      <trkpt lat="45.18799" lon="6.28426">
        <ele>1265.8</ele>
        <time>2021-02-28T04:43:45Z</time>
      </trkpt>
      <trkpt lat="45.18798" lon="6.28427">
        <ele>1266</ele>
        <time>2021-02-28T04:43:46Z</time>
      </trkpt>
      <trkpt lat="45.18797" lon="6.28428">
        <ele>1266</ele>
        <time>2021-02-28T04:43:47Z</time>
      </trkpt>
      <trkpt lat="45.18796" lon="6.28429">
        <ele>1265.8</ele>
        <time>2021-02-28T04:43:48Z</time>
      </trkpt>
      <trkpt lat="45.18795" lon="6.2843">
        <ele>1266.2</ele>
        <time>2021-02-28T04:43:49Z</time>
      </trkpt>
      <trkpt lat="45.18794" lon="6.28431">
        <ele>1266.2</ele>
        <time>2021-02-28T04:43:50Z</time>
      </trkpt>
      <trkpt lat="45.18793" lon="6.28432">
        <ele>1266.6</ele>
        <time>2021-02-28T04:43:51Z</time>
      </trkpt>
      <trkpt lat="45.18792" lon="6.28433">
        <ele>1266.6</ele>
        <time>2021-02-28T04:43:52Z</time>
      </trkpt>
      <trkpt lat="45.18791" lon="6.28433">
        <ele>1266.6</ele>
        <time>2021-02-28T04:43:53Z</time>
      </trkpt>
      <trkpt lat="45.1879" lon="6.28434">
        <ele>1266.4</ele>
        <time>2021-02-28T04:43:54Z</time>
      </trkpt>
      <trkpt lat="45.18789" lon="6.28435">
        <ele>1267</ele>
        <time>2021-02-28T04:43:55Z</time>
      </trkpt>
      <trkpt lat="45.18788" lon="6.28436">
        <ele>1266.8</ele>
        <time>2021-02-28T04:43:56Z</time>
      </trkpt>
      <trkpt lat="45.18787" lon="6.28437">
        <ele>1267.2</ele>
        <time>2021-02-28T04:43:57Z</time>
      </trkpt>
      <trkpt lat="45.18785" lon="6.28439">
        <ele>1267.2</ele>
        <time>2021-02-28T04:43:58Z</time>
      </trkpt>
      <trkpt lat="45.18784" lon="6.2844">
        <ele>1267.2</ele>
        <time>2021-02-28T04:43:59Z</time>
      </trkpt>
      <trkpt lat="45.18783" lon="6.28441">
        <ele>1267.2</ele>
        <time>2021-02-28T04:44:00Z</time>
      </trkpt>
      <trkpt lat="45.18782" lon="6.28443">
        <ele>1267.4</ele>
        <time>2021-02-28T04:44:01Z</time>
      </trkpt>
      <trkpt lat="45.1878" lon="6.28444">
        <ele>1267.6</ele>
        <time>2021-02-28T04:44:02Z</time>
      </trkpt>
      <trkpt lat="45.18779" lon="6.28445">
        <ele>1267.4</ele>
        <time>2021-02-28T04:44:03Z</time>
      </trkpt>
      <trkpt lat="45.18778" lon="6.28445">
        <ele>1267.8</ele>
        <time>2021-02-28T04:44:04Z</time>
      </trkpt>
      <trkpt lat="45.18777" lon="6.28446">
        <ele>1267.6</ele>
        <time>2021-02-28T04:44:05Z</time>
      </trkpt>
      <trkpt lat="45.18776" lon="6.28446">
        <ele>1268.2</ele>
        <time>2021-02-28T04:44:06Z</time>
      </trkpt>
      <trkpt lat="45.18775" lon="6.28447">
        <ele>1268.2</ele>
        <time>2021-02-28T04:44:07Z</time>
      </trkpt>
      <trkpt lat="45.18774" lon="6.28447">
        <ele>1268</ele>
        <time>2021-02-28T04:44:08Z</time>
      </trkpt>
      <trkpt lat="45.18774" lon="6.28448">
        <ele>1268</ele>
        <time>2021-02-28T04:44:09Z</time>
      </trkpt>
      <trkpt lat="45.18773" lon="6.28449">
        <ele>1268.2</ele>
        <time>2021-02-28T04:44:10Z</time>
      </trkpt>
      <trkpt lat="45.18772" lon="6.28449">
        <ele>1268.4</ele>
        <time>2021-02-28T04:44:11Z</time>
      </trkpt>
      <trkpt lat="45.18771" lon="6.2845">
        <ele>1268.4</ele>
        <time>2021-02-28T04:44:12Z</time>
      </trkpt>
      <trkpt lat="45.1877" lon="6.2845">
        <ele>1268.6</ele>
        <time>2021-02-28T04:44:13Z</time>
      </trkpt>
      <trkpt lat="45.18769" lon="6.28451">
        <ele>1268.8</ele>
        <time>2021-02-28T04:44:14Z</time>
      </trkpt>
      <trkpt lat="45.18767" lon="6.28452">
        <ele>1269.2</ele>
        <time>2021-02-28T04:44:15Z</time>
      </trkpt>
      <trkpt lat="45.18766" lon="6.28452">
        <ele>1269.4</ele>
        <time>2021-02-28T04:44:16Z</time>
      </trkpt>
      <trkpt lat="45.18765" lon="6.28453">
        <ele>1269.4</ele>
        <time>2021-02-28T04:44:17Z</time>
      </trkpt>
      <trkpt lat="45.18764" lon="6.28454">
        <ele>1269.4</ele>
        <time>2021-02-28T04:44:18Z</time>
      </trkpt>
      <trkpt lat="45.18763" lon="6.28454">
        <ele>1269.6</ele>
        <time>2021-02-28T04:44:19Z</time>
      </trkpt>
      <trkpt lat="45.18762" lon="6.28455">
        <ele>1269.6</ele>
        <time>2021-02-28T04:44:20Z</time>
      </trkpt>
      <trkpt lat="45.18761" lon="6.28456">
        <ele>1269.8</ele>
        <time>2021-02-28T04:44:21Z</time>
      </trkpt>
      <trkpt lat="45.1876" lon="6.28456">
        <ele>1270</ele>
        <time>2021-02-28T04:44:22Z</time>
      </trkpt>
      <trkpt lat="45.18759" lon="6.28456">
        <ele>1270.2</ele>
        <time>2021-02-28T04:44:23Z</time>
      </trkpt>
      <trkpt lat="45.18758" lon="6.28457">
        <ele>1270.4</ele>
        <time>2021-02-28T04:44:24Z</time>
      </trkpt>
      <trkpt lat="45.18757" lon="6.28457">
        <ele>1270.4</ele>
        <time>2021-02-28T04:44:25Z</time>
      </trkpt>
      <trkpt lat="45.18756" lon="6.28457">
        <ele>1270.8</ele>
        <time>2021-02-28T04:44:26Z</time>
      </trkpt>
      <trkpt lat="45.18756" lon="6.28458">
        <ele>1271</ele>
        <time>2021-02-28T04:44:27Z</time>
      </trkpt>
      <trkpt lat="45.18755" lon="6.28458">
        <ele>1271</ele>
        <time>2021-02-28T04:44:28Z</time>
      </trkpt>
      <trkpt lat="45.18754" lon="6.28458">
        <ele>1271.2</ele>
        <time>2021-02-28T04:44:29Z</time>
      </trkpt>
      <trkpt lat="45.18753" lon="6.28459">
        <ele>1271.2</ele>
        <time>2021-02-28T04:44:30Z</time>
      </trkpt>
      <trkpt lat="45.18752" lon="6.28459">
        <ele>1271.4</ele>
        <time>2021-02-28T04:44:31Z</time>
      </trkpt>
      <trkpt lat="45.18751" lon="6.28459">
        <ele>1271.4</ele>
        <time>2021-02-28T04:44:32Z</time>
      </trkpt>
      <trkpt lat="45.18749" lon="6.2846">
        <ele>1271.8</ele>
        <time>2021-02-28T04:44:33Z</time>
      </trkpt>
      <trkpt lat="45.18748" lon="6.2846">
        <ele>1271.6</ele>
        <time>2021-02-28T04:44:34Z</time>
      </trkpt>
      <trkpt lat="45.18747" lon="6.2846">
        <ele>1272</ele>
        <time>2021-02-28T04:44:35Z</time>
      </trkpt>
      <trkpt lat="45.18746" lon="6.28461">
        <ele>1271.8</ele>
        <time>2021-02-28T04:44:36Z</time>
      </trkpt>
      <trkpt lat="45.18745" lon="6.28461">
        <ele>1271.8</ele>
        <time>2021-02-28T04:44:37Z</time>
      </trkpt>
      <trkpt lat="45.18744" lon="6.28461">
        <ele>1272</ele>
        <time>2021-02-28T04:44:38Z</time>
      </trkpt>
      <trkpt lat="45.18743" lon="6.28462">
        <ele>1271.8</ele>
        <time>2021-02-28T04:44:39Z</time>
      </trkpt>
      <trkpt lat="45.18741" lon="6.28462">
        <ele>1272.2</ele>
        <time>2021-02-28T04:44:40Z</time>
      </trkpt>
      <trkpt lat="45.1874" lon="6.28462">
        <ele>1272.2</ele>
        <time>2021-02-28T04:44:41Z</time>
      </trkpt>
      <trkpt lat="45.18739" lon="6.28463">
        <ele>1272.2</ele>
        <time>2021-02-28T04:44:42Z</time>
      </trkpt>
      <trkpt lat="45.18737" lon="6.28463">
        <ele>1272.4</ele>
        <time>2021-02-28T04:44:43Z</time>
      </trkpt>
      <trkpt lat="45.18736" lon="6.28464">
        <ele>1272.6</ele>
        <time>2021-02-28T04:44:44Z</time>
      </trkpt>
      <trkpt lat="45.18735" lon="6.28464">
        <ele>1272.8</ele>
        <time>2021-02-28T04:44:45Z</time>
      </trkpt>
      <trkpt lat="45.18733" lon="6.28464">
        <ele>1272.4</ele>
        <time>2021-02-28T04:44:46Z</time>
      </trkpt>
      <trkpt lat="45.18732" lon="6.28465">
        <ele>1272.8</ele>
        <time>2021-02-28T04:44:47Z</time>
      </trkpt>
      <trkpt lat="45.18731" lon="6.28465">
        <ele>1272.8</ele>
        <time>2021-02-28T04:44:48Z</time>
      </trkpt>
      <trkpt lat="45.1873" lon="6.28465">
        <ele>1272.8</ele>
        <time>2021-02-28T04:44:49Z</time>
      </trkpt>
      <trkpt lat="45.18729" lon="6.28465">
        <ele>1273</ele>
        <time>2021-02-28T04:44:50Z</time>
      </trkpt>
      <trkpt lat="45.18728" lon="6.28465">
        <ele>1272.8</ele>
        <time>2021-02-28T04:44:51Z</time>
      </trkpt>
      <trkpt lat="45.18726" lon="6.28465">
        <ele>1273.2</ele>
        <time>2021-02-28T04:44:52Z</time>
      </trkpt>
      <trkpt lat="45.18725" lon="6.28466">
        <ele>1273</ele>
        <time>2021-02-28T04:44:53Z</time>
      </trkpt>
      <trkpt lat="45.18724" lon="6.28465">
        <ele>1272.8</ele>
        <time>2021-02-28T04:44:54Z</time>
      </trkpt>
      <trkpt lat="45.18723" lon="6.28465">
        <ele>1272.8</ele>
        <time>2021-02-28T04:44:55Z</time>
      </trkpt>
      <trkpt lat="45.18721" lon="6.28465">
        <ele>1272.8</ele>
        <time>2021-02-28T04:44:56Z</time>
      </trkpt>
      <trkpt lat="45.1872" lon="6.28465">
        <ele>1273.2</ele>
        <time>2021-02-28T04:44:57Z</time>
      </trkpt>
      <trkpt lat="45.18719" lon="6.28465">
        <ele>1273</ele>
        <time>2021-02-28T04:44:58Z</time>
      </trkpt>
      <trkpt lat="45.18718" lon="6.28464">
        <ele>1273</ele>
        <time>2021-02-28T04:44:59Z</time>
      </trkpt>
      <trkpt lat="45.18717" lon="6.28464">
        <ele>1273.2</ele>
        <time>2021-02-28T04:45:00Z</time>
      </trkpt>
      <trkpt lat="45.18715" lon="6.28464">
        <ele>1273.4</ele>
        <time>2021-02-28T04:45:01Z</time>
      </trkpt>
      <trkpt lat="45.18714" lon="6.28464">
        <ele>1273.6</ele>
        <time>2021-02-28T04:45:02Z</time>
      </trkpt>
      <trkpt lat="45.18713" lon="6.28464">
        <ele>1273.6</ele>
        <time>2021-02-28T04:45:03Z</time>
      </trkpt>
      <trkpt lat="45.18712" lon="6.28464">
        <ele>1273.8</ele>
        <time>2021-02-28T04:45:04Z</time>
      </trkpt>
      <trkpt lat="45.18711" lon="6.28464">
        <ele>1273.8</ele>
        <time>2021-02-28T04:45:05Z</time>
      </trkpt>
      <trkpt lat="45.1871" lon="6.28464">
        <ele>1274</ele>
        <time>2021-02-28T04:45:06Z</time>
      </trkpt>
      <trkpt lat="45.18709" lon="6.28464">
        <ele>1274</ele>
        <time>2021-02-28T04:45:07Z</time>
      </trkpt>
      <trkpt lat="45.18708" lon="6.28464">
        <ele>1274.2</ele>
        <time>2021-02-28T04:45:08Z</time>
      </trkpt>
      <trkpt lat="45.18707" lon="6.28465">
        <ele>1274.2</ele>
        <time>2021-02-28T04:45:09Z</time>
      </trkpt>
      <trkpt lat="45.18706" lon="6.28465">
        <ele>1274.2</ele>
        <time>2021-02-28T04:45:10Z</time>
      </trkpt>
      <trkpt lat="45.18705" lon="6.28466">
        <ele>1274.4</ele>
        <time>2021-02-28T04:45:11Z</time>
      </trkpt>
      <trkpt lat="45.18704" lon="6.28467">
        <ele>1274.4</ele>
        <time>2021-02-28T04:45:12Z</time>
      </trkpt>
      <trkpt lat="45.18702" lon="6.28468">
        <ele>1274.8</ele>
        <time>2021-02-28T04:45:13Z</time>
      </trkpt>
      <trkpt lat="45.18701" lon="6.28469">
        <ele>1274.8</ele>
        <time>2021-02-28T04:45:14Z</time>
      </trkpt>
      <trkpt lat="45.187" lon="6.2847">
        <ele>1274.6</ele>
        <time>2021-02-28T04:45:15Z</time>
      </trkpt>
      <trkpt lat="45.18699" lon="6.28471">
        <ele>1274.8</ele>
        <time>2021-02-28T04:45:16Z</time>
      </trkpt>
      <trkpt lat="45.18698" lon="6.28472">
        <ele>1274.8</ele>
        <time>2021-02-28T04:45:17Z</time>
      </trkpt>
      <trkpt lat="45.18696" lon="6.28472">
        <ele>1275.2</ele>
        <time>2021-02-28T04:45:18Z</time>
      </trkpt>
      <trkpt lat="45.18695" lon="6.28473">
        <ele>1275.2</ele>
        <time>2021-02-28T04:45:19Z</time>
      </trkpt>
      <trkpt lat="45.18694" lon="6.28474">
        <ele>1275.6</ele>
        <time>2021-02-28T04:45:20Z</time>
      </trkpt>
      <trkpt lat="45.18693" lon="6.28474">
        <ele>1275.6</ele>
        <time>2021-02-28T04:45:21Z</time>
      </trkpt>
      <trkpt lat="45.18691" lon="6.28475">
        <ele>1275.8</ele>
        <time>2021-02-28T04:45:22Z</time>
      </trkpt>
      <trkpt lat="45.1869" lon="6.28476">
        <ele>1275.6</ele>
        <time>2021-02-28T04:45:23Z</time>
      </trkpt>
      <trkpt lat="45.18689" lon="6.28476">
        <ele>1275.6</ele>
        <time>2021-02-28T04:45:24Z</time>
      </trkpt>
      <trkpt lat="45.18688" lon="6.28476">
        <ele>1276</ele>
        <time>2021-02-28T04:45:25Z</time>
      </trkpt>
      <trkpt lat="45.18687" lon="6.28476">
        <ele>1276</ele>
        <time>2021-02-28T04:45:26Z</time>
      </trkpt>
      <trkpt lat="45.18686" lon="6.28476">
        <ele>1276.6</ele>
        <time>2021-02-28T04:45:27Z</time>
      </trkpt>
      <trkpt lat="45.18685" lon="6.28476">
        <ele>1276.6</ele>
        <time>2021-02-28T04:45:28Z</time>
      </trkpt>
      <trkpt lat="45.18684" lon="6.28476">
        <ele>1276.4</ele>
        <time>2021-02-28T04:45:29Z</time>
      </trkpt>
      <trkpt lat="45.18683" lon="6.28476">
        <ele>1276.2</ele>
        <time>2021-02-28T04:45:30Z</time>
      </trkpt>
      <trkpt lat="45.18682" lon="6.28476">
        <ele>1276.2</ele>
        <time>2021-02-28T04:45:31Z</time>
      </trkpt>
      <trkpt lat="45.18681" lon="6.28476">
        <ele>1276.2</ele>
        <time>2021-02-28T04:45:32Z</time>
      </trkpt>
      <trkpt lat="45.1868" lon="6.28476">
        <ele>1276.2</ele>
        <time>2021-02-28T04:45:33Z</time>
      </trkpt>
      <trkpt lat="45.18678" lon="6.28477">
        <ele>1276.8</ele>
        <time>2021-02-28T04:45:34Z</time>
      </trkpt>
      <trkpt lat="45.18677" lon="6.28478">
        <ele>1277</ele>
        <time>2021-02-28T04:45:35Z</time>
      </trkpt>
      <trkpt lat="45.18676" lon="6.28479">
        <ele>1277.2</ele>
        <time>2021-02-28T04:45:36Z</time>
      </trkpt>
      <trkpt lat="45.18675" lon="6.2848">
        <ele>1277.2</ele>
        <time>2021-02-28T04:45:37Z</time>
      </trkpt>
      <trkpt lat="45.18674" lon="6.28481">
        <ele>1277.6</ele>
        <time>2021-02-28T04:45:38Z</time>
      </trkpt>
      <trkpt lat="45.18673" lon="6.28483">
        <ele>1277.6</ele>
        <time>2021-02-28T04:45:39Z</time>
      </trkpt>
      <trkpt lat="45.18672" lon="6.28484">
        <ele>1277.6</ele>
        <time>2021-02-28T04:45:40Z</time>
      </trkpt>
      <trkpt lat="45.18671" lon="6.28484">
        <ele>1277.8</ele>
        <time>2021-02-28T04:45:41Z</time>
      </trkpt>
      <trkpt lat="45.18671" lon="6.28485">
        <ele>1278</ele>
        <time>2021-02-28T04:45:42Z</time>
      </trkpt>
      <trkpt lat="45.1867" lon="6.28485">
        <ele>1278.2</ele>
        <time>2021-02-28T04:45:43Z</time>
      </trkpt>
      <trkpt lat="45.18669" lon="6.28486">
        <ele>1278.2</ele>
        <time>2021-02-28T04:45:44Z</time>
      </trkpt>
      <trkpt lat="45.18668" lon="6.28486">
        <ele>1278.6</ele>
        <time>2021-02-28T04:45:45Z</time>
      </trkpt>
      <trkpt lat="45.18668" lon="6.28487">
        <ele>1278.8</ele>
        <time>2021-02-28T04:45:46Z</time>
      </trkpt>
      <trkpt lat="45.18667" lon="6.28487">
        <ele>1279.2</ele>
        <time>2021-02-28T04:45:47Z</time>
      </trkpt>
      <trkpt lat="45.18666" lon="6.28488">
        <ele>1279.4</ele>
        <time>2021-02-28T04:45:48Z</time>
      </trkpt>
      <trkpt lat="45.18666" lon="6.28488">
        <ele>1279.2</ele>
        <time>2021-02-28T04:45:49Z</time>
      </trkpt>
      <trkpt lat="45.18665" lon="6.28489">
        <ele>1279.6</ele>
        <time>2021-02-28T04:45:50Z</time>
      </trkpt>
      <trkpt lat="45.18664" lon="6.28489">
        <ele>1279.6</ele>
        <time>2021-02-28T04:45:51Z</time>
      </trkpt>
      <trkpt lat="45.18664" lon="6.2849">
        <ele>1280</ele>
        <time>2021-02-28T04:45:52Z</time>
      </trkpt>
      <trkpt lat="45.18663" lon="6.2849">
        <ele>1279.8</ele>
        <time>2021-02-28T04:45:53Z</time>
      </trkpt>
      <trkpt lat="45.18662" lon="6.28491">
        <ele>1280</ele>
        <time>2021-02-28T04:45:54Z</time>
      </trkpt>
      <trkpt lat="45.18661" lon="6.28491">
        <ele>1280.4</ele>
        <time>2021-02-28T04:45:55Z</time>
      </trkpt>
      <trkpt lat="45.1866" lon="6.28492">
        <ele>1280.4</ele>
        <time>2021-02-28T04:45:56Z</time>
      </trkpt>
      <trkpt lat="45.18658" lon="6.28492">
        <ele>1280.4</ele>
        <time>2021-02-28T04:45:57Z</time>
      </trkpt>
      <trkpt lat="45.18657" lon="6.28493">
        <ele>1280.4</ele>
        <time>2021-02-28T04:45:58Z</time>
      </trkpt>
      <trkpt lat="45.18656" lon="6.28494">
        <ele>1280.6</ele>
        <time>2021-02-28T04:45:59Z</time>
      </trkpt>
      <trkpt lat="45.18655" lon="6.28494">
        <ele>1280.6</ele>
        <time>2021-02-28T04:46:00Z</time>
      </trkpt>
      <trkpt lat="45.18654" lon="6.28495">
        <ele>1280.6</ele>
        <time>2021-02-28T04:46:01Z</time>
      </trkpt>
      <trkpt lat="45.18653" lon="6.28495">
        <ele>1280.6</ele>
        <time>2021-02-28T04:46:02Z</time>
      </trkpt>
      <trkpt lat="45.18652" lon="6.28496">
        <ele>1281</ele>
        <time>2021-02-28T04:46:03Z</time>
      </trkpt>
      <trkpt lat="45.1865" lon="6.28496">
        <ele>1281.2</ele>
        <time>2021-02-28T04:46:04Z</time>
      </trkpt>
      <trkpt lat="45.18649" lon="6.28497">
        <ele>1281</ele>
        <time>2021-02-28T04:46:05Z</time>
      </trkpt>
      <trkpt lat="45.18648" lon="6.28497">
        <ele>1281</ele>
        <time>2021-02-28T04:46:06Z</time>
      </trkpt>
      <trkpt lat="45.18647" lon="6.28497">
        <ele>1281.2</ele>
        <time>2021-02-28T04:46:07Z</time>
      </trkpt>
      <trkpt lat="45.18645" lon="6.28498">
        <ele>1281.2</ele>
        <time>2021-02-28T04:46:08Z</time>
      </trkpt>
      <trkpt lat="45.18644" lon="6.28498">
        <ele>1281.4</ele>
        <time>2021-02-28T04:46:09Z</time>
      </trkpt>
      <trkpt lat="45.18643" lon="6.28498">
        <ele>1281.4</ele>
        <time>2021-02-28T04:46:10Z</time>
      </trkpt>
      <trkpt lat="45.18642" lon="6.28498">
        <ele>1281.4</ele>
        <time>2021-02-28T04:46:11Z</time>
      </trkpt>
      <trkpt lat="45.18641" lon="6.28497">
        <ele>1281.6</ele>
        <time>2021-02-28T04:46:12Z</time>
      </trkpt>
      <trkpt lat="45.1864" lon="6.28497">
        <ele>1281.6</ele>
        <time>2021-02-28T04:46:13Z</time>
      </trkpt>
      <trkpt lat="45.18639" lon="6.28497">
        <ele>1282.2</ele>
        <time>2021-02-28T04:46:14Z</time>
      </trkpt>
      <trkpt lat="45.18638" lon="6.28497">
        <ele>1282.2</ele>
        <time>2021-02-28T04:46:15Z</time>
      </trkpt>
      <trkpt lat="45.18637" lon="6.28497">
        <ele>1282.6</ele>
        <time>2021-02-28T04:46:16Z</time>
      </trkpt>
      <trkpt lat="45.18636" lon="6.28497">
        <ele>1282.4</ele>
        <time>2021-02-28T04:46:17Z</time>
      </trkpt>
      <trkpt lat="45.18635" lon="6.28497">
        <ele>1282.6</ele>
        <time>2021-02-28T04:46:18Z</time>
      </trkpt>
      <trkpt lat="45.18634" lon="6.28497">
        <ele>1282.8</ele>
        <time>2021-02-28T04:46:19Z</time>
      </trkpt>
      <trkpt lat="45.18633" lon="6.28496">
        <ele>1282.8</ele>
        <time>2021-02-28T04:46:20Z</time>
      </trkpt>
      <trkpt lat="45.18632" lon="6.28496">
        <ele>1283.2</ele>
        <time>2021-02-28T04:46:21Z</time>
      </trkpt>
      <trkpt lat="45.18631" lon="6.28496">
        <ele>1283.2</ele>
        <time>2021-02-28T04:46:22Z</time>
      </trkpt>
      <trkpt lat="45.1863" lon="6.28496">
        <ele>1283.2</ele>
        <time>2021-02-28T04:46:23Z</time>
      </trkpt>
      <trkpt lat="45.18629" lon="6.28496">
        <ele>1283.6</ele>
        <time>2021-02-28T04:46:24Z</time>
      </trkpt>
      <trkpt lat="45.18628" lon="6.28496">
        <ele>1283.6</ele>
        <time>2021-02-28T04:46:25Z</time>
      </trkpt>
      <trkpt lat="45.18627" lon="6.28495">
        <ele>1284</ele>
        <time>2021-02-28T04:46:26Z</time>
      </trkpt>
      <trkpt lat="45.18626" lon="6.28495">
        <ele>1284</ele>
        <time>2021-02-28T04:46:27Z</time>
      </trkpt>
      <trkpt lat="45.18625" lon="6.28495">
        <ele>1284</ele>
        <time>2021-02-28T04:46:28Z</time>
      </trkpt>
      <trkpt lat="45.18624" lon="6.28495">
        <ele>1284.4</ele>
        <time>2021-02-28T04:46:29Z</time>
      </trkpt>
      <trkpt lat="45.18623" lon="6.28495">
        <ele>1284.4</ele>
        <time>2021-02-28T04:46:30Z</time>
      </trkpt>
      <trkpt lat="45.18622" lon="6.28495">
        <ele>1284.8</ele>
        <time>2021-02-28T04:46:31Z</time>
      </trkpt>
      <trkpt lat="45.18621" lon="6.28495">
        <ele>1284.8</ele>
        <time>2021-02-28T04:46:32Z</time>
      </trkpt>
      <trkpt lat="45.1862" lon="6.28496">
        <ele>1284.8</ele>
        <time>2021-02-28T04:46:33Z</time>
      </trkpt>
      <trkpt lat="45.18619" lon="6.28496">
        <ele>1285.2</ele>
        <time>2021-02-28T04:46:34Z</time>
      </trkpt>
      <trkpt lat="45.18619" lon="6.28496">
        <ele>1285.4</ele>
        <time>2021-02-28T04:46:35Z</time>
      </trkpt>
      <trkpt lat="45.18618" lon="6.28496">
        <ele>1285.6</ele>
        <time>2021-02-28T04:46:36Z</time>
      </trkpt>
      <trkpt lat="45.18617" lon="6.28496">
        <ele>1285.6</ele>
        <time>2021-02-28T04:46:37Z</time>
      </trkpt>
      <trkpt lat="45.18615" lon="6.28496">
        <ele>1285.8</ele>
        <time>2021-02-28T04:46:38Z</time>
      </trkpt>
      <trkpt lat="45.18614" lon="6.28496">
        <ele>1286</ele>
        <time>2021-02-28T04:46:39Z</time>
      </trkpt>
      <trkpt lat="45.18613" lon="6.28497">
        <ele>1285.8</ele>
        <time>2021-02-28T04:46:40Z</time>
      </trkpt>
      <trkpt lat="45.18612" lon="6.28497">
        <ele>1286.2</ele>
        <time>2021-02-28T04:46:41Z</time>
      </trkpt>
      <trkpt lat="45.18611" lon="6.28497">
        <ele>1285.8</ele>
        <time>2021-02-28T04:46:42Z</time>
      </trkpt>
      <trkpt lat="45.18609" lon="6.28497">
        <ele>1286.2</ele>
        <time>2021-02-28T04:46:43Z</time>
      </trkpt>
      <trkpt lat="45.18608" lon="6.28498">
        <ele>1286.2</ele>
        <time>2021-02-28T04:46:44Z</time>
      </trkpt>
      <trkpt lat="45.18607" lon="6.28498">
        <ele>1286.4</ele>
        <time>2021-02-28T04:46:45Z</time>
      </trkpt>
      <trkpt lat="45.18606" lon="6.28498">
        <ele>1286.8</ele>
        <time>2021-02-28T04:46:46Z</time>
      </trkpt>
      <trkpt lat="45.18605" lon="6.28498">
        <ele>1286.8</ele>
        <time>2021-02-28T04:46:47Z</time>
      </trkpt>
      <trkpt lat="45.18604" lon="6.28498">
        <ele>1287.4</ele>
        <time>2021-02-28T04:46:48Z</time>
      </trkpt>
      <trkpt lat="45.18603" lon="6.28498">
        <ele>1287.4</ele>
        <time>2021-02-28T04:46:49Z</time>
      </trkpt>
      <trkpt lat="45.18602" lon="6.28498">
        <ele>1287.8</ele>
        <time>2021-02-28T04:46:50Z</time>
      </trkpt>
      <trkpt lat="45.18601" lon="6.28498">
        <ele>1287.8</ele>
        <time>2021-02-28T04:46:51Z</time>
      </trkpt>
      <trkpt lat="45.186" lon="6.28498">
        <ele>1288</ele>
        <time>2021-02-28T04:46:52Z</time>
      </trkpt>
      <trkpt lat="45.186" lon="6.28498">
        <ele>1288.4</ele>
        <time>2021-02-28T04:46:53Z</time>
      </trkpt>
      <trkpt lat="45.18599" lon="6.28498">
        <ele>1288.6</ele>
        <time>2021-02-28T04:46:54Z</time>
      </trkpt>
      <trkpt lat="45.18598" lon="6.28498">
        <ele>1288.8</ele>
        <time>2021-02-28T04:46:55Z</time>
      </trkpt>
      <trkpt lat="45.18597" lon="6.28498">
        <ele>1289</ele>
        <time>2021-02-28T04:46:56Z</time>
      </trkpt>
      <trkpt lat="45.18596" lon="6.28498">
        <ele>1289</ele>
        <time>2021-02-28T04:46:57Z</time>
      </trkpt>
      <trkpt lat="45.18595" lon="6.28498">
        <ele>1289.6</ele>
        <time>2021-02-28T04:46:58Z</time>
      </trkpt>
      <trkpt lat="45.18594" lon="6.28497">
        <ele>1289.6</ele>
        <time>2021-02-28T04:46:59Z</time>
      </trkpt>
      <trkpt lat="45.18594" lon="6.28497">
        <ele>1289.8</ele>
        <time>2021-02-28T04:47:00Z</time>
      </trkpt>
      <trkpt lat="45.18593" lon="6.28497">
        <ele>1290.2</ele>
        <time>2021-02-28T04:47:01Z</time>
      </trkpt>
      <trkpt lat="45.18592" lon="6.28497">
        <ele>1290.2</ele>
        <time>2021-02-28T04:47:02Z</time>
      </trkpt>
      <trkpt lat="45.18591" lon="6.28497">
        <ele>1290.4</ele>
        <time>2021-02-28T04:47:03Z</time>
      </trkpt>
      <trkpt lat="45.1859" lon="6.28496">
        <ele>1290.6</ele>
        <time>2021-02-28T04:47:04Z</time>
      </trkpt>
      <trkpt lat="45.18589" lon="6.28496">
        <ele>1290.6</ele>
        <time>2021-02-28T04:47:05Z</time>
      </trkpt>
      <trkpt lat="45.18589" lon="6.28496">
        <ele>1290.8</ele>
        <time>2021-02-28T04:47:06Z</time>
      </trkpt>
      <trkpt lat="45.18588" lon="6.28495">
        <ele>1290.8</ele>
        <time>2021-02-28T04:47:07Z</time>
      </trkpt>
      <trkpt lat="45.18587" lon="6.28495">
        <ele>1291.4</ele>
        <time>2021-02-28T04:47:08Z</time>
      </trkpt>
      <trkpt lat="45.18586" lon="6.28495">
        <ele>1291.4</ele>
        <time>2021-02-28T04:47:09Z</time>
      </trkpt>
      <trkpt lat="45.18585" lon="6.28494">
        <ele>1291.6</ele>
        <time>2021-02-28T04:47:10Z</time>
      </trkpt>
      <trkpt lat="45.18584" lon="6.28494">
        <ele>1292</ele>
        <time>2021-02-28T04:47:11Z</time>
      </trkpt>
      <trkpt lat="45.18583" lon="6.28494">
        <ele>1292</ele>
        <time>2021-02-28T04:47:12Z</time>
      </trkpt>
      <trkpt lat="45.18583" lon="6.28493">
        <ele>1292.4</ele>
        <time>2021-02-28T04:47:13Z</time>
      </trkpt>
      <trkpt lat="45.18582" lon="6.28493">
        <ele>1292.4</ele>
        <time>2021-02-28T04:47:14Z</time>
      </trkpt>
      <trkpt lat="45.18581" lon="6.28492">
        <ele>1293</ele>
        <time>2021-02-28T04:47:15Z</time>
      </trkpt>
      <trkpt lat="45.1858" lon="6.28492">
        <ele>1293</ele>
        <time>2021-02-28T04:47:16Z</time>
      </trkpt>
      <trkpt lat="45.18579" lon="6.28492">
        <ele>1293.2</ele>
        <time>2021-02-28T04:47:17Z</time>
      </trkpt>
      <trkpt lat="45.18578" lon="6.28491">
        <ele>1293.4</ele>
        <time>2021-02-28T04:47:18Z</time>
      </trkpt>
      <trkpt lat="45.18577" lon="6.28491">
        <ele>1293.2</ele>
        <time>2021-02-28T04:47:19Z</time>
      </trkpt>
      <trkpt lat="45.18575" lon="6.28491">
        <ele>1293.6</ele>
        <time>2021-02-28T04:47:20Z</time>
      </trkpt>
      <trkpt lat="45.18574" lon="6.28491">
        <ele>1293.8</ele>
        <time>2021-02-28T04:47:21Z</time>
      </trkpt>
      <trkpt lat="45.18573" lon="6.28491">
        <ele>1294</ele>
        <time>2021-02-28T04:47:22Z</time>
      </trkpt>
      <trkpt lat="45.18571" lon="6.2849">
        <ele>1293.8</ele>
        <time>2021-02-28T04:47:23Z</time>
      </trkpt>
      <trkpt lat="45.1857" lon="6.2849">
        <ele>1293.8</ele>
        <time>2021-02-28T04:47:24Z</time>
      </trkpt>
      <trkpt lat="45.18569" lon="6.28489">
        <ele>1293.8</ele>
        <time>2021-02-28T04:47:25Z</time>
      </trkpt>
      <trkpt lat="45.18569" lon="6.28487">
        <ele>1293.8</ele>
        <time>2021-02-28T04:47:26Z</time>
      </trkpt>
      <trkpt lat="45.18568" lon="6.28486">
        <ele>1294</ele>
        <time>2021-02-28T04:47:27Z</time>
      </trkpt>
      <trkpt lat="45.18567" lon="6.28484">
        <ele>1294</ele>
        <time>2021-02-28T04:47:28Z</time>
      </trkpt>
      <trkpt lat="45.18567" lon="6.28482">
        <ele>1294.2</ele>
        <time>2021-02-28T04:47:29Z</time>
      </trkpt>
      <trkpt lat="45.18566" lon="6.28481">
        <ele>1294.4</ele>
        <time>2021-02-28T04:47:30Z</time>
      </trkpt>
      <trkpt lat="45.18566" lon="6.28479">
        <ele>1294.6</ele>
        <time>2021-02-28T04:47:31Z</time>
      </trkpt>
      <trkpt lat="45.18565" lon="6.28478">
        <ele>1294.6</ele>
        <time>2021-02-28T04:47:32Z</time>
      </trkpt>
      <trkpt lat="45.18564" lon="6.28477">
        <ele>1294.6</ele>
        <time>2021-02-28T04:47:33Z</time>
      </trkpt>
      <trkpt lat="45.18563" lon="6.28475">
        <ele>1295</ele>
        <time>2021-02-28T04:47:34Z</time>
      </trkpt>
      <trkpt lat="45.18562" lon="6.28474">
        <ele>1295.4</ele>
        <time>2021-02-28T04:47:35Z</time>
      </trkpt>
      <trkpt lat="45.18562" lon="6.28473">
        <ele>1295.4</ele>
        <time>2021-02-28T04:47:36Z</time>
      </trkpt>
      <trkpt lat="45.18561" lon="6.28471">
        <ele>1295.6</ele>
        <time>2021-02-28T04:47:37Z</time>
      </trkpt>
      <trkpt lat="45.1856" lon="6.2847">
        <ele>1295.6</ele>
        <time>2021-02-28T04:47:38Z</time>
      </trkpt>
      <trkpt lat="45.18559" lon="6.28469">
        <ele>1295.8</ele>
        <time>2021-02-28T04:47:39Z</time>
      </trkpt>
      <trkpt lat="45.18558" lon="6.28467">
        <ele>1295.8</ele>
        <time>2021-02-28T04:47:40Z</time>
      </trkpt>
      <trkpt lat="45.18557" lon="6.28466">
        <ele>1295.6</ele>
        <time>2021-02-28T04:47:41Z</time>
      </trkpt>
      <trkpt lat="45.18556" lon="6.28465">
        <ele>1295.8</ele>
        <time>2021-02-28T04:47:42Z</time>
      </trkpt>
      <trkpt lat="45.18555" lon="6.28464">
        <ele>1295.8</ele>
        <time>2021-02-28T04:47:43Z</time>
      </trkpt>
      <trkpt lat="45.18554" lon="6.28463">
        <ele>1295.6</ele>
        <time>2021-02-28T04:47:44Z</time>
      </trkpt>
      <trkpt lat="45.18553" lon="6.28461">
        <ele>1295.6</ele>
        <time>2021-02-28T04:47:45Z</time>
      </trkpt>
      <trkpt lat="45.18552" lon="6.2846">
        <ele>1295.2</ele>
        <time>2021-02-28T04:47:46Z</time>
      </trkpt>
      <trkpt lat="45.18551" lon="6.28459">
        <ele>1295.4</ele>
        <time>2021-02-28T04:47:47Z</time>
      </trkpt>
      <trkpt lat="45.18551" lon="6.28457">
        <ele>1295.6</ele>
        <time>2021-02-28T04:47:48Z</time>
      </trkpt>
      <trkpt lat="45.1855" lon="6.28455">
        <ele>1295.8</ele>
        <time>2021-02-28T04:47:49Z</time>
      </trkpt>
      <trkpt lat="45.1855" lon="6.28454">
        <ele>1295.8</ele>
        <time>2021-02-28T04:47:50Z</time>
      </trkpt>
      <trkpt lat="45.18549" lon="6.28452">
        <ele>1295.8</ele>
        <time>2021-02-28T04:47:51Z</time>
      </trkpt>
      <trkpt lat="45.18549" lon="6.2845">
        <ele>1296</ele>
        <time>2021-02-28T04:47:52Z</time>
      </trkpt>
      <trkpt lat="45.18548" lon="6.28448">
        <ele>1295.8</ele>
        <time>2021-02-28T04:47:53Z</time>
      </trkpt>
      <trkpt lat="45.18548" lon="6.28447">
        <ele>1296</ele>
        <time>2021-02-28T04:47:54Z</time>
      </trkpt>
      <trkpt lat="45.18548" lon="6.28445">
        <ele>1296</ele>
        <time>2021-02-28T04:47:55Z</time>
      </trkpt>
      <trkpt lat="45.18548" lon="6.28443">
        <ele>1296.2</ele>
        <time>2021-02-28T04:47:56Z</time>
      </trkpt>
      <trkpt lat="45.18548" lon="6.28441">
        <ele>1296.2</ele>
        <time>2021-02-28T04:47:57Z</time>
      </trkpt>
      <trkpt lat="45.18548" lon="6.28439">
        <ele>1296.6</ele>
        <time>2021-02-28T04:47:58Z</time>
      </trkpt>
      <trkpt lat="45.18548" lon="6.28437">
        <ele>1296.4</ele>
        <time>2021-02-28T04:47:59Z</time>
      </trkpt>
      <trkpt lat="45.18547" lon="6.28435">
        <ele>1296.8</ele>
        <time>2021-02-28T04:48:00Z</time>
      </trkpt>
      <trkpt lat="45.18547" lon="6.28433">
        <ele>1296.8</ele>
        <time>2021-02-28T04:48:01Z</time>
      </trkpt>
      <trkpt lat="45.18547" lon="6.28431">
        <ele>1296.8</ele>
        <time>2021-02-28T04:48:02Z</time>
      </trkpt>
      <trkpt lat="45.18546" lon="6.2843">
        <ele>1297</ele>
        <time>2021-02-28T04:48:03Z</time>
      </trkpt>
      <trkpt lat="45.18546" lon="6.28428">
        <ele>1297.2</ele>
        <time>2021-02-28T04:48:04Z</time>
      </trkpt>
      <trkpt lat="45.18545" lon="6.28426">
        <ele>1297.4</ele>
        <time>2021-02-28T04:48:05Z</time>
      </trkpt>
      <trkpt lat="45.18545" lon="6.28425">
        <ele>1297.2</ele>
        <time>2021-02-28T04:48:06Z</time>
      </trkpt>
      <trkpt lat="45.18544" lon="6.28423">
        <ele>1297.6</ele>
        <time>2021-02-28T04:48:07Z</time>
      </trkpt>
      <trkpt lat="45.18543" lon="6.28422">
        <ele>1297.6</ele>
        <time>2021-02-28T04:48:08Z</time>
      </trkpt>
      <trkpt lat="45.18543" lon="6.2842">
        <ele>1297.8</ele>
        <time>2021-02-28T04:48:09Z</time>
      </trkpt>
      <trkpt lat="45.18542" lon="6.2842">
        <ele>1297.8</ele>
        <time>2021-02-28T04:48:10Z</time>
      </trkpt>
      <trkpt lat="45.18541" lon="6.28419">
        <ele>1297.8</ele>
        <time>2021-02-28T04:48:11Z</time>
      </trkpt>
      <trkpt lat="45.1854" lon="6.28418">
        <ele>1298.2</ele>
        <time>2021-02-28T04:48:12Z</time>
      </trkpt>
      <trkpt lat="45.18539" lon="6.28418">
        <ele>1298.4</ele>
        <time>2021-02-28T04:48:13Z</time>
      </trkpt>
      <trkpt lat="45.18538" lon="6.28417">
        <ele>1298.8</ele>
        <time>2021-02-28T04:48:14Z</time>
      </trkpt>
      <trkpt lat="45.18537" lon="6.28417">
        <ele>1298.8</ele>
        <time>2021-02-28T04:48:15Z</time>
      </trkpt>
      <trkpt lat="45.18536" lon="6.28416">
        <ele>1299</ele>
        <time>2021-02-28T04:48:16Z</time>
      </trkpt>
      <trkpt lat="45.18534" lon="6.28416">
        <ele>1299.2</ele>
        <time>2021-02-28T04:48:17Z</time>
      </trkpt>
      <trkpt lat="45.18533" lon="6.28415">
        <ele>1299.4</ele>
        <time>2021-02-28T04:48:18Z</time>
      </trkpt>
      <trkpt lat="45.18533" lon="6.28414">
        <ele>1299.6</ele>
        <time>2021-02-28T04:48:19Z</time>
      </trkpt>
      <trkpt lat="45.18532" lon="6.28413">
        <ele>1299.8</ele>
        <time>2021-02-28T04:48:20Z</time>
      </trkpt>
      <trkpt lat="45.18532" lon="6.28412">
        <ele>1299.8</ele>
        <time>2021-02-28T04:48:21Z</time>
      </trkpt>
      <trkpt lat="45.18531" lon="6.28411">
        <ele>1300.2</ele>
        <time>2021-02-28T04:48:22Z</time>
      </trkpt>
      <trkpt lat="45.18531" lon="6.2841">
        <ele>1300.2</ele>
        <time>2021-02-28T04:48:23Z</time>
      </trkpt>
      <trkpt lat="45.18531" lon="6.28409">
        <ele>1300.6</ele>
        <time>2021-02-28T04:48:24Z</time>
      </trkpt>
      <trkpt lat="45.1853" lon="6.28408">
        <ele>1300.8</ele>
        <time>2021-02-28T04:48:25Z</time>
      </trkpt>
      <trkpt lat="45.1853" lon="6.28406">
        <ele>1301</ele>
        <time>2021-02-28T04:48:26Z</time>
      </trkpt>
      <trkpt lat="45.18529" lon="6.28405">
        <ele>1301.4</ele>
        <time>2021-02-28T04:48:27Z</time>
      </trkpt>
      <trkpt lat="45.18529" lon="6.28404">
        <ele>1301.6</ele>
        <time>2021-02-28T04:48:28Z</time>
      </trkpt>
      <trkpt lat="45.18528" lon="6.28403">
        <ele>1302</ele>
        <time>2021-02-28T04:48:29Z</time>
      </trkpt>
      <trkpt lat="45.18528" lon="6.28403">
        <ele>1302</ele>
        <time>2021-02-28T04:48:30Z</time>
      </trkpt>
      <trkpt lat="45.18528" lon="6.28402">
        <ele>1302.4</ele>
        <time>2021-02-28T04:48:31Z</time>
      </trkpt>
      <trkpt lat="45.18527" lon="6.28401">
        <ele>1302.4</ele>
        <time>2021-02-28T04:48:32Z</time>
      </trkpt>
      <trkpt lat="45.18527" lon="6.28401">
        <ele>1302.8</ele>
        <time>2021-02-28T04:48:33Z</time>
      </trkpt>
      <trkpt lat="45.18527" lon="6.284">
        <ele>1303.2</ele>
        <time>2021-02-28T04:48:34Z</time>
      </trkpt>
      <trkpt lat="45.18527" lon="6.28399">
        <ele>1303.2</ele>
        <time>2021-02-28T04:48:35Z</time>
      </trkpt>
      <trkpt lat="45.18526" lon="6.28399">
        <ele>1303.6</ele>
        <time>2021-02-28T04:48:36Z</time>
      </trkpt>
      <trkpt lat="45.18526" lon="6.28398">
        <ele>1303.8</ele>
        <time>2021-02-28T04:48:37Z</time>
      </trkpt>
      <trkpt lat="45.18526" lon="6.28397">
        <ele>1304.2</ele>
        <time>2021-02-28T04:48:38Z</time>
      </trkpt>
      <trkpt lat="45.18526" lon="6.28397">
        <ele>1304.4</ele>
        <time>2021-02-28T04:48:39Z</time>
      </trkpt>
      <trkpt lat="45.18525" lon="6.28396">
        <ele>1304.6</ele>
        <time>2021-02-28T04:48:40Z</time>
      </trkpt>
      <trkpt lat="45.18525" lon="6.28395">
        <ele>1305</ele>
        <time>2021-02-28T04:48:41Z</time>
      </trkpt>
      <trkpt lat="45.18525" lon="6.28395">
        <ele>1304.8</ele>
        <time>2021-02-28T04:48:42Z</time>
      </trkpt>
      <trkpt lat="45.18525" lon="6.28394">
        <ele>1305.4</ele>
        <time>2021-02-28T04:48:43Z</time>
      </trkpt>
      <trkpt lat="45.18524" lon="6.28393">
        <ele>1305.6</ele>
        <time>2021-02-28T04:48:44Z</time>
      </trkpt>
      <trkpt lat="45.18524" lon="6.28393">
        <ele>1305.6</ele>
        <time>2021-02-28T04:48:45Z</time>
      </trkpt>
      <trkpt lat="45.18524" lon="6.28392">
        <ele>1305.8</ele>
        <time>2021-02-28T04:48:46Z</time>
      </trkpt>
      <trkpt lat="45.18524" lon="6.28391">
        <ele>1305.6</ele>
        <time>2021-02-28T04:48:47Z</time>
      </trkpt>
      <trkpt lat="45.18523" lon="6.2839">
        <ele>1306.2</ele>
        <time>2021-02-28T04:48:48Z</time>
      </trkpt>
      <trkpt lat="45.18523" lon="6.28388">
        <ele>1306.2</ele>
        <time>2021-02-28T04:48:49Z</time>
      </trkpt>
      <trkpt lat="45.18523" lon="6.28386">
        <ele>1306.4</ele>
        <time>2021-02-28T04:48:50Z</time>
      </trkpt>
      <trkpt lat="45.18522" lon="6.28384">
        <ele>1306.6</ele>
        <time>2021-02-28T04:48:51Z</time>
      </trkpt>
      <trkpt lat="45.18522" lon="6.28382">
        <ele>1306.8</ele>
        <time>2021-02-28T04:48:52Z</time>
      </trkpt>
      <trkpt lat="45.18522" lon="6.2838">
        <ele>1307.2</ele>
        <time>2021-02-28T04:48:53Z</time>
      </trkpt>
      <trkpt lat="45.18521" lon="6.28379">
        <ele>1307.4</ele>
        <time>2021-02-28T04:48:54Z</time>
      </trkpt>
      <trkpt lat="45.18521" lon="6.28376">
        <ele>1307.6</ele>
        <time>2021-02-28T04:48:55Z</time>
      </trkpt>
      <trkpt lat="45.18521" lon="6.28374">
        <ele>1307.8</ele>
        <time>2021-02-28T04:48:56Z</time>
      </trkpt>
      <trkpt lat="45.18521" lon="6.28372">
        <ele>1308</ele>
        <time>2021-02-28T04:48:57Z</time>
      </trkpt>
      <trkpt lat="45.18521" lon="6.2837">
        <ele>1308.4</ele>
        <time>2021-02-28T04:48:58Z</time>
      </trkpt>
      <trkpt lat="45.1852" lon="6.28368">
        <ele>1308.4</ele>
        <time>2021-02-28T04:48:59Z</time>
      </trkpt>
      <trkpt lat="45.1852" lon="6.28366">
        <ele>1308.6</ele>
        <time>2021-02-28T04:49:00Z</time>
      </trkpt>
      <trkpt lat="45.1852" lon="6.28364">
        <ele>1309</ele>
        <time>2021-02-28T04:49:01Z</time>
      </trkpt>
      <trkpt lat="45.1852" lon="6.28363">
        <ele>1309</ele>
        <time>2021-02-28T04:49:02Z</time>
      </trkpt>
      <trkpt lat="45.18519" lon="6.28362">
        <ele>1309.4</ele>
        <time>2021-02-28T04:49:03Z</time>
      </trkpt>
      <trkpt lat="45.18519" lon="6.28361">
        <ele>1309.6</ele>
        <time>2021-02-28T04:49:04Z</time>
      </trkpt>
      <trkpt lat="45.18519" lon="6.2836">
        <ele>1310</ele>
        <time>2021-02-28T04:49:05Z</time>
      </trkpt>
      <trkpt lat="45.18519" lon="6.28359">
        <ele>1310.2</ele>
        <time>2021-02-28T04:49:06Z</time>
      </trkpt>
      <trkpt lat="45.18518" lon="6.28358">
        <ele>1310.4</ele>
        <time>2021-02-28T04:49:07Z</time>
      </trkpt>
      <trkpt lat="45.18518" lon="6.28356">
        <ele>1310.6</ele>
        <time>2021-02-28T04:49:08Z</time>
      </trkpt>
      <trkpt lat="45.18518" lon="6.28355">
        <ele>1310.6</ele>
        <time>2021-02-28T04:49:09Z</time>
      </trkpt>
      <trkpt lat="45.18518" lon="6.28354">
        <ele>1311.2</ele>
        <time>2021-02-28T04:49:10Z</time>
      </trkpt>
      <trkpt lat="45.18517" lon="6.28353">
        <ele>1311.2</ele>
        <time>2021-02-28T04:49:11Z</time>
      </trkpt>
      <trkpt lat="45.18517" lon="6.28352">
        <ele>1311.2</ele>
        <time>2021-02-28T04:49:12Z</time>
      </trkpt>
      <trkpt lat="45.18517" lon="6.28351">
        <ele>1311.6</ele>
        <time>2021-02-28T04:49:13Z</time>
      </trkpt>
      <trkpt lat="45.18517" lon="6.2835">
        <ele>1311.8</ele>
        <time>2021-02-28T04:49:14Z</time>
      </trkpt>
      <trkpt lat="45.18517" lon="6.28349">
        <ele>1312.2</ele>
        <time>2021-02-28T04:49:15Z</time>
      </trkpt>
      <trkpt lat="45.18517" lon="6.28347">
        <ele>1312.4</ele>
        <time>2021-02-28T04:49:16Z</time>
      </trkpt>
      <trkpt lat="45.18517" lon="6.28346">
        <ele>1312.6</ele>
        <time>2021-02-28T04:49:17Z</time>
      </trkpt>
      <trkpt lat="45.18517" lon="6.28345">
        <ele>1313</ele>
        <time>2021-02-28T04:49:18Z</time>
      </trkpt>
      <trkpt lat="45.18517" lon="6.28344">
        <ele>1313</ele>
        <time>2021-02-28T04:49:19Z</time>
      </trkpt>
      <trkpt lat="45.18517" lon="6.28342">
        <ele>1313.4</ele>
        <time>2021-02-28T04:49:20Z</time>
      </trkpt>
      <trkpt lat="45.18517" lon="6.28341">
        <ele>1313.4</ele>
        <time>2021-02-28T04:49:21Z</time>
      </trkpt>
      <trkpt lat="45.18517" lon="6.2834">
        <ele>1313.4</ele>
        <time>2021-02-28T04:49:22Z</time>
      </trkpt>
      <trkpt lat="45.18517" lon="6.28339">
        <ele>1313.6</ele>
        <time>2021-02-28T04:49:23Z</time>
      </trkpt>
      <trkpt lat="45.18517" lon="6.28337">
        <ele>1313.8</ele>
        <time>2021-02-28T04:49:24Z</time>
      </trkpt>
      <trkpt lat="45.18516" lon="6.28336">
        <ele>1314</ele>
        <time>2021-02-28T04:49:25Z</time>
      </trkpt>
      <trkpt lat="45.18515" lon="6.28335">
        <ele>1314</ele>
        <time>2021-02-28T04:49:26Z</time>
      </trkpt>
      <trkpt lat="45.18515" lon="6.28335">
        <ele>1314.4</ele>
        <time>2021-02-28T04:49:27Z</time>
      </trkpt>
      <trkpt lat="45.18514" lon="6.28334">
        <ele>1314.4</ele>
        <time>2021-02-28T04:49:28Z</time>
      </trkpt>
      <trkpt lat="45.18513" lon="6.28333">
        <ele>1315</ele>
        <time>2021-02-28T04:49:29Z</time>
      </trkpt>
      <trkpt lat="45.18513" lon="6.28332">
        <ele>1315</ele>
        <time>2021-02-28T04:49:30Z</time>
      </trkpt>
      <trkpt lat="45.18512" lon="6.28331">
        <ele>1315.4</ele>
        <time>2021-02-28T04:49:31Z</time>
      </trkpt>
      <trkpt lat="45.18511" lon="6.2833">
        <ele>1315.6</ele>
        <time>2021-02-28T04:49:32Z</time>
      </trkpt>
      <trkpt lat="45.18511" lon="6.28329">
        <ele>1315.8</ele>
        <time>2021-02-28T04:49:33Z</time>
      </trkpt>
      <trkpt lat="45.1851" lon="6.28328">
        <ele>1316.2</ele>
        <time>2021-02-28T04:49:34Z</time>
      </trkpt>
      <trkpt lat="45.18509" lon="6.28327">
        <ele>1316.4</ele>
        <time>2021-02-28T04:49:35Z</time>
      </trkpt>
      <trkpt lat="45.18509" lon="6.28326">
        <ele>1316.8</ele>
        <time>2021-02-28T04:49:36Z</time>
      </trkpt>
      <trkpt lat="45.18509" lon="6.28326">
        <ele>1317</ele>
        <time>2021-02-28T04:49:37Z</time>
      </trkpt>
      <trkpt lat="45.18509" lon="6.28326">
        <ele>1317</ele>
        <time>2021-02-28T04:49:38Z</time>
      </trkpt>
      <trkpt lat="45.18507" lon="6.28325">
        <ele>1317.2</ele>
        <time>2021-02-28T04:49:39Z</time>
      </trkpt>
      <trkpt lat="45.18507" lon="6.28325">
        <ele>1317.2</ele>
        <time>2021-02-28T04:49:40Z</time>
      </trkpt>
      <trkpt lat="45.18507" lon="6.28325">
        <ele>1317.8</ele>
        <time>2021-02-28T04:49:41Z</time>
      </trkpt>
      <trkpt lat="45.18504" lon="6.28325">
        <ele>1317.8</ele>
        <time>2021-02-28T04:49:42Z</time>
      </trkpt>
      <trkpt lat="45.18504" lon="6.28325">
        <ele>1317.8</ele>
        <time>2021-02-28T04:49:43Z</time>
      </trkpt>
      <trkpt lat="45.18502" lon="6.28325">
        <ele>1318.2</ele>
        <time>2021-02-28T04:49:44Z</time>
      </trkpt>
      <trkpt lat="45.18502" lon="6.28325">
        <ele>1318.2</ele>
        <time>2021-02-28T04:49:45Z</time>
      </trkpt>
      <trkpt lat="45.18502" lon="6.28325">
        <ele>1318.6</ele>
        <time>2021-02-28T04:49:46Z</time>
      </trkpt>
      <trkpt lat="45.18499" lon="6.28326">
        <ele>1318.6</ele>
        <time>2021-02-28T04:49:47Z</time>
      </trkpt>
      <trkpt lat="45.18499" lon="6.28326">
        <ele>1318.8</ele>
        <time>2021-02-28T04:49:48Z</time>
      </trkpt>
      <trkpt lat="45.18499" lon="6.28326">
        <ele>1319</ele>
        <time>2021-02-28T04:49:49Z</time>
      </trkpt>
      <trkpt lat="45.18497" lon="6.28327">
        <ele>1319.2</ele>
        <time>2021-02-28T04:49:50Z</time>
      </trkpt>
      <trkpt lat="45.18497" lon="6.28327">
        <ele>1319.6</ele>
        <time>2021-02-28T04:49:51Z</time>
      </trkpt>
      <trkpt lat="45.18497" lon="6.28327">
        <ele>1319.6</ele>
        <time>2021-02-28T04:49:52Z</time>
      </trkpt>
      <trkpt lat="45.18495" lon="6.28329">
        <ele>1320</ele>
        <time>2021-02-28T04:49:53Z</time>
      </trkpt>
      <trkpt lat="45.18495" lon="6.28329">
        <ele>1320.4</ele>
        <time>2021-02-28T04:49:54Z</time>
      </trkpt>
      <trkpt lat="45.18493" lon="6.28331">
        <ele>1320.2</ele>
        <time>2021-02-28T04:49:55Z</time>
      </trkpt>
      <trkpt lat="45.18493" lon="6.28331">
        <ele>1320.6</ele>
        <time>2021-02-28T04:49:56Z</time>
      </trkpt>
      <trkpt lat="45.18493" lon="6.28331">
        <ele>1320.6</ele>
        <time>2021-02-28T04:49:57Z</time>
      </trkpt>
      <trkpt lat="45.18492" lon="6.28332">
        <ele>1320.8</ele>
        <time>2021-02-28T04:49:58Z</time>
      </trkpt>
      <trkpt lat="45.18491" lon="6.28333">
        <ele>1321.2</ele>
        <time>2021-02-28T04:49:59Z</time>
      </trkpt>
      <trkpt lat="45.1849" lon="6.28334">
        <ele>1321.2</ele>
        <time>2021-02-28T04:50:00Z</time>
      </trkpt>
      <trkpt lat="45.18489" lon="6.28335">
        <ele>1321.6</ele>
        <time>2021-02-28T04:50:01Z</time>
      </trkpt>
      <trkpt lat="45.18489" lon="6.28336">
        <ele>1321.6</ele>
        <time>2021-02-28T04:50:02Z</time>
      </trkpt>
      <trkpt lat="45.18488" lon="6.28337">
        <ele>1322</ele>
        <time>2021-02-28T04:50:03Z</time>
      </trkpt>
      <trkpt lat="45.18487" lon="6.28338">
        <ele>1322.2</ele>
        <time>2021-02-28T04:50:04Z</time>
      </trkpt>
      <trkpt lat="45.18486" lon="6.28339">
        <ele>1322.6</ele>
        <time>2021-02-28T04:50:05Z</time>
      </trkpt>
      <trkpt lat="45.18485" lon="6.2834">
        <ele>1322.8</ele>
        <time>2021-02-28T04:50:06Z</time>
      </trkpt>
      <trkpt lat="45.18484" lon="6.2834">
        <ele>1323</ele>
        <time>2021-02-28T04:50:07Z</time>
      </trkpt>
      <trkpt lat="45.18483" lon="6.2834">
        <ele>1323.2</ele>
        <time>2021-02-28T04:50:08Z</time>
      </trkpt>
      <trkpt lat="45.18482" lon="6.2834">
        <ele>1323.2</ele>
        <time>2021-02-28T04:50:09Z</time>
      </trkpt>
      <trkpt lat="45.18481" lon="6.2834">
        <ele>1323.6</ele>
        <time>2021-02-28T04:50:10Z</time>
      </trkpt>
      <trkpt lat="45.1848" lon="6.2834">
        <ele>1323.6</ele>
        <time>2021-02-28T04:50:11Z</time>
      </trkpt>
      <trkpt lat="45.18479" lon="6.2834">
        <ele>1324.2</ele>
        <time>2021-02-28T04:50:12Z</time>
      </trkpt>
      <trkpt lat="45.18478" lon="6.2834">
        <ele>1324.4</ele>
        <time>2021-02-28T04:50:13Z</time>
      </trkpt>
      <trkpt lat="45.18477" lon="6.28341">
        <ele>1324.4</ele>
        <time>2021-02-28T04:50:14Z</time>
      </trkpt>
      <trkpt lat="45.18476" lon="6.28341">
        <ele>1324.6</ele>
        <time>2021-02-28T04:50:15Z</time>
      </trkpt>
      <trkpt lat="45.18475" lon="6.28341">
        <ele>1324.6</ele>
        <time>2021-02-28T04:50:16Z</time>
      </trkpt>
      <trkpt lat="45.18473" lon="6.28341">
        <ele>1325.2</ele>
        <time>2021-02-28T04:50:17Z</time>
      </trkpt>
      <trkpt lat="45.18472" lon="6.28342">
        <ele>1325</ele>
        <time>2021-02-28T04:50:18Z</time>
      </trkpt>
      <trkpt lat="45.18471" lon="6.28342">
        <ele>1325.2</ele>
        <time>2021-02-28T04:50:19Z</time>
      </trkpt>
      <trkpt lat="45.18469" lon="6.28342">
        <ele>1325.2</ele>
        <time>2021-02-28T04:50:20Z</time>
      </trkpt>
      <trkpt lat="45.18468" lon="6.28343">
        <ele>1325.4</ele>
        <time>2021-02-28T04:50:21Z</time>
      </trkpt>
      <trkpt lat="45.18466" lon="6.28343">
        <ele>1325.8</ele>
        <time>2021-02-28T04:50:22Z</time>
      </trkpt>
      <trkpt lat="45.18465" lon="6.28341">
        <ele>1325.8</ele>
        <time>2021-02-28T04:50:23Z</time>
      </trkpt>
      <trkpt lat="45.18464" lon="6.2834">
        <ele>1326.2</ele>
        <time>2021-02-28T04:50:24Z</time>
      </trkpt>
      <trkpt lat="45.18464" lon="6.28338">
        <ele>1326.2</ele>
        <time>2021-02-28T04:50:25Z</time>
      </trkpt>
      <trkpt lat="45.18463" lon="6.28337">
        <ele>1326.4</ele>
        <time>2021-02-28T04:50:26Z</time>
      </trkpt>
      <trkpt lat="45.18462" lon="6.28335">
        <ele>1326.8</ele>
        <time>2021-02-28T04:50:27Z</time>
      </trkpt>
      <trkpt lat="45.18461" lon="6.28333">
        <ele>1326.8</ele>
        <time>2021-02-28T04:50:28Z</time>
      </trkpt>
      <trkpt lat="45.18461" lon="6.28333">
        <ele>1327.4</ele>
        <time>2021-02-28T04:50:29Z</time>
      </trkpt>
      <trkpt lat="45.18461" lon="6.28333">
        <ele>1327.2</ele>
        <time>2021-02-28T04:50:30Z</time>
      </trkpt>
      <trkpt lat="45.1846" lon="6.28332">
        <ele>1327.6</ele>
        <time>2021-02-28T04:50:31Z</time>
      </trkpt>
      <trkpt lat="45.1846" lon="6.28331">
        <ele>1327.8</ele>
        <time>2021-02-28T04:50:32Z</time>
      </trkpt>
      <trkpt lat="45.18459" lon="6.28331">
        <ele>1327.8</ele>
        <time>2021-02-28T04:50:33Z</time>
      </trkpt>
      <trkpt lat="45.18458" lon="6.2833">
        <ele>1328</ele>
        <time>2021-02-28T04:50:34Z</time>
      </trkpt>
      <trkpt lat="45.18458" lon="6.28329">
        <ele>1328.2</ele>
        <time>2021-02-28T04:50:35Z</time>
      </trkpt>
      <trkpt lat="45.18457" lon="6.28328">
        <ele>1328.4</ele>
        <time>2021-02-28T04:50:36Z</time>
      </trkpt>
      <trkpt lat="45.18457" lon="6.28327">
        <ele>1328.4</ele>
        <time>2021-02-28T04:50:37Z</time>
      </trkpt>
      <trkpt lat="45.18456" lon="6.28326">
        <ele>1328.8</ele>
        <time>2021-02-28T04:50:38Z</time>
      </trkpt>
      <trkpt lat="45.18456" lon="6.28325">
        <ele>1329</ele>
        <time>2021-02-28T04:50:39Z</time>
      </trkpt>
      <trkpt lat="45.18455" lon="6.28324">
        <ele>1329.2</ele>
        <time>2021-02-28T04:50:40Z</time>
      </trkpt>
      <trkpt lat="45.18454" lon="6.28323">
        <ele>1329.8</ele>
        <time>2021-02-28T04:50:41Z</time>
      </trkpt>
      <trkpt lat="45.18453" lon="6.28323">
        <ele>1329.8</ele>
        <time>2021-02-28T04:50:42Z</time>
      </trkpt>
      <trkpt lat="45.18452" lon="6.28324">
        <ele>1330</ele>
        <time>2021-02-28T04:50:43Z</time>
      </trkpt>
      <trkpt lat="45.18451" lon="6.28324">
        <ele>1330</ele>
        <time>2021-02-28T04:50:44Z</time>
      </trkpt>
      <trkpt lat="45.1845" lon="6.28324">
        <ele>1330.2</ele>
        <time>2021-02-28T04:50:45Z</time>
      </trkpt>
      <trkpt lat="45.18449" lon="6.28324">
        <ele>1330.8</ele>
        <time>2021-02-28T04:50:47Z</time>
      </trkpt>
      <trkpt lat="45.18448" lon="6.28324">
        <ele>1330.8</ele>
        <time>2021-02-28T04:50:48Z</time>
      </trkpt>
      <trkpt lat="45.18447" lon="6.28324">
        <ele>1331</ele>
        <time>2021-02-28T04:50:49Z</time>
      </trkpt>
      <trkpt lat="45.18446" lon="6.28325">
        <ele>1331.2</ele>
        <time>2021-02-28T04:50:50Z</time>
      </trkpt>
      <trkpt lat="45.18445" lon="6.28325">
        <ele>1331.4</ele>
        <time>2021-02-28T04:50:51Z</time>
      </trkpt>
      <trkpt lat="45.18444" lon="6.28324">
        <ele>1331.6</ele>
        <time>2021-02-28T04:50:52Z</time>
      </trkpt>
      <trkpt lat="45.18442" lon="6.28324">
        <ele>1331.6</ele>
        <time>2021-02-28T04:50:53Z</time>
      </trkpt>
      <trkpt lat="45.18441" lon="6.28323">
        <ele>1331.8</ele>
        <time>2021-02-28T04:50:54Z</time>
      </trkpt>
      <trkpt lat="45.1844" lon="6.28323">
        <ele>1332</ele>
        <time>2021-02-28T04:50:55Z</time>
      </trkpt>
      <trkpt lat="45.18439" lon="6.28322">
        <ele>1332</ele>
        <time>2021-02-28T04:50:56Z</time>
      </trkpt>
      <trkpt lat="45.18438" lon="6.28322">
        <ele>1332.4</ele>
        <time>2021-02-28T04:50:57Z</time>
      </trkpt>
      <trkpt lat="45.18437" lon="6.28321">
        <ele>1332.4</ele>
        <time>2021-02-28T04:50:58Z</time>
      </trkpt>
      <trkpt lat="45.18436" lon="6.2832">
        <ele>1332.4</ele>
        <time>2021-02-28T04:50:59Z</time>
      </trkpt>
      <trkpt lat="45.18435" lon="6.2832">
        <ele>1332.8</ele>
        <time>2021-02-28T04:51:00Z</time>
      </trkpt>
      <trkpt lat="45.18434" lon="6.28318">
        <ele>1332.8</ele>
        <time>2021-02-28T04:51:01Z</time>
      </trkpt>
      <trkpt lat="45.18433" lon="6.28317">
        <ele>1333.4</ele>
        <time>2021-02-28T04:51:02Z</time>
      </trkpt>
      <trkpt lat="45.18432" lon="6.28315">
        <ele>1333.6</ele>
        <time>2021-02-28T04:51:03Z</time>
      </trkpt>
      <trkpt lat="45.18431" lon="6.28314">
        <ele>1333.6</ele>
        <time>2021-02-28T04:51:04Z</time>
      </trkpt>
      <trkpt lat="45.1843" lon="6.28312">
        <ele>1333.6</ele>
        <time>2021-02-28T04:51:05Z</time>
      </trkpt>
      <trkpt lat="45.18429" lon="6.28311">
        <ele>1333.8</ele>
        <time>2021-02-28T04:51:06Z</time>
      </trkpt>
      <trkpt lat="45.18428" lon="6.28309">
        <ele>1334</ele>
        <time>2021-02-28T04:51:07Z</time>
      </trkpt>
      <trkpt lat="45.18427" lon="6.28308">
        <ele>1334.2</ele>
        <time>2021-02-28T04:51:08Z</time>
      </trkpt>
      <trkpt lat="45.18427" lon="6.28308">
        <ele>1334.4</ele>
        <time>2021-02-28T04:51:09Z</time>
      </trkpt>
      <trkpt lat="45.18426" lon="6.28304">
        <ele>1334.2</ele>
        <time>2021-02-28T04:51:10Z</time>
      </trkpt>
      <trkpt lat="45.18426" lon="6.28304">
        <ele>1334.6</ele>
        <time>2021-02-28T04:51:11Z</time>
      </trkpt>
      <trkpt lat="45.18426" lon="6.28299">
        <ele>1334.4</ele>
        <time>2021-02-28T04:51:12Z</time>
      </trkpt>
      <trkpt lat="45.18426" lon="6.28299">
        <ele>1334.6</ele>
        <time>2021-02-28T04:51:13Z</time>
      </trkpt>
      <trkpt lat="45.18426" lon="6.28295">
        <ele>1334.8</ele>
        <time>2021-02-28T04:51:14Z</time>
      </trkpt>
      <trkpt lat="45.18426" lon="6.28295">
        <ele>1335</ele>
        <time>2021-02-28T04:51:15Z</time>
      </trkpt>
      <trkpt lat="45.18427" lon="6.28291">
        <ele>1335.2</ele>
        <time>2021-02-28T04:51:16Z</time>
      </trkpt>
      <trkpt lat="45.18427" lon="6.28291">
        <ele>1335</ele>
        <time>2021-02-28T04:51:17Z</time>
      </trkpt>
      <trkpt lat="45.18428" lon="6.28288">
        <ele>1335.4</ele>
        <time>2021-02-28T04:51:18Z</time>
      </trkpt>
      <trkpt lat="45.18428" lon="6.28288">
        <ele>1335.4</ele>
        <time>2021-02-28T04:51:19Z</time>
      </trkpt>
      <trkpt lat="45.18428" lon="6.28288">
        <ele>1335.4</ele>
        <time>2021-02-28T04:51:20Z</time>
      </trkpt>
      <trkpt lat="45.18428" lon="6.28287">
        <ele>1335.6</ele>
        <time>2021-02-28T04:51:21Z</time>
      </trkpt>
      <trkpt lat="45.18428" lon="6.28285">
        <ele>1335.6</ele>
        <time>2021-02-28T04:51:22Z</time>
      </trkpt>
      <trkpt lat="45.18428" lon="6.28284">
        <ele>1335.8</ele>
        <time>2021-02-28T04:51:23Z</time>
      </trkpt>
      <trkpt lat="45.18428" lon="6.28282">
        <ele>1335.8</ele>
        <time>2021-02-28T04:51:24Z</time>
      </trkpt>
      <trkpt lat="45.18428" lon="6.28281">
        <ele>1336</ele>
        <time>2021-02-28T04:51:25Z</time>
      </trkpt>
      <trkpt lat="45.18428" lon="6.28279">
        <ele>1336</ele>
        <time>2021-02-28T04:51:26Z</time>
      </trkpt>
      <trkpt lat="45.18428" lon="6.28278">
        <ele>1336.2</ele>
        <time>2021-02-28T04:51:27Z</time>
      </trkpt>
      <trkpt lat="45.18428" lon="6.28276">
        <ele>1336.4</ele>
        <time>2021-02-28T04:51:28Z</time>
      </trkpt>
      <trkpt lat="45.18428" lon="6.28275">
        <ele>1336.2</ele>
        <time>2021-02-28T04:51:29Z</time>
      </trkpt>
      <trkpt lat="45.18428" lon="6.28273">
        <ele>1336.8</ele>
        <time>2021-02-28T04:51:30Z</time>
      </trkpt>
      <trkpt lat="45.18427" lon="6.28272">
        <ele>1337</ele>
        <time>2021-02-28T04:51:31Z</time>
      </trkpt>
      <trkpt lat="45.18427" lon="6.28271">
        <ele>1337.2</ele>
        <time>2021-02-28T04:51:32Z</time>
      </trkpt>
      <trkpt lat="45.18426" lon="6.28269">
        <ele>1337.6</ele>
        <time>2021-02-28T04:51:33Z</time>
      </trkpt>
      <trkpt lat="45.18425" lon="6.28268">
        <ele>1337.4</ele>
        <time>2021-02-28T04:51:34Z</time>
      </trkpt>
      <trkpt lat="45.18425" lon="6.28266">
        <ele>1337.8</ele>
        <time>2021-02-28T04:51:35Z</time>
      </trkpt>
      <trkpt lat="45.18424" lon="6.28265">
        <ele>1337.8</ele>
        <time>2021-02-28T04:51:36Z</time>
      </trkpt>
      <trkpt lat="45.18424" lon="6.28264">
        <ele>1338</ele>
        <time>2021-02-28T04:51:37Z</time>
      </trkpt>
      <trkpt lat="45.18423" lon="6.28262">
        <ele>1338.4</ele>
        <time>2021-02-28T04:51:38Z</time>
      </trkpt>
      <trkpt lat="45.18423" lon="6.28261">
        <ele>1338.4</ele>
        <time>2021-02-28T04:51:39Z</time>
      </trkpt>
      <trkpt lat="45.18423" lon="6.28261">
        <ele>1338.6</ele>
        <time>2021-02-28T04:51:40Z</time>
      </trkpt>
      <trkpt lat="45.18421" lon="6.28259">
        <ele>1338.4</ele>
        <time>2021-02-28T04:51:41Z</time>
      </trkpt>
      <trkpt lat="45.18421" lon="6.28259">
        <ele>1338.8</ele>
        <time>2021-02-28T04:51:42Z</time>
      </trkpt>
      <trkpt lat="45.18419" lon="6.28258">
        <ele>1339.2</ele>
        <time>2021-02-28T04:51:43Z</time>
      </trkpt>
      <trkpt lat="45.18419" lon="6.28258">
        <ele>1339</ele>
        <time>2021-02-28T04:51:44Z</time>
      </trkpt>
      <trkpt lat="45.18419" lon="6.28258">
        <ele>1339.4</ele>
        <time>2021-02-28T04:51:45Z</time>
      </trkpt>
      <trkpt lat="45.18418" lon="6.28257">
        <ele>1339.6</ele>
        <time>2021-02-28T04:51:46Z</time>
      </trkpt>
      <trkpt lat="45.18417" lon="6.28257">
        <ele>1339.8</ele>
        <time>2021-02-28T04:51:47Z</time>
      </trkpt>
      <trkpt lat="45.18416" lon="6.28256">
        <ele>1340.2</ele>
        <time>2021-02-28T04:51:48Z</time>
      </trkpt>
      <trkpt lat="45.18415" lon="6.28256">
        <ele>1340.6</ele>
        <time>2021-02-28T04:51:49Z</time>
      </trkpt>
      <trkpt lat="45.18414" lon="6.28255">
        <ele>1340.4</ele>
        <time>2021-02-28T04:51:50Z</time>
      </trkpt>
      <trkpt lat="45.18413" lon="6.28255">
        <ele>1341</ele>
        <time>2021-02-28T04:51:51Z</time>
      </trkpt>
      <trkpt lat="45.18412" lon="6.28254">
        <ele>1341</ele>
        <time>2021-02-28T04:51:52Z</time>
      </trkpt>
      <trkpt lat="45.18411" lon="6.28254">
        <ele>1341.2</ele>
        <time>2021-02-28T04:51:53Z</time>
      </trkpt>
      <trkpt lat="45.1841" lon="6.28254">
        <ele>1341.4</ele>
        <time>2021-02-28T04:51:54Z</time>
      </trkpt>
      <trkpt lat="45.18409" lon="6.28253">
        <ele>1341.4</ele>
        <time>2021-02-28T04:51:55Z</time>
      </trkpt>
      <trkpt lat="45.18409" lon="6.28253">
        <ele>1341.8</ele>
        <time>2021-02-28T04:51:56Z</time>
      </trkpt>
      <trkpt lat="45.18409" lon="6.28253">
        <ele>1341.8</ele>
        <time>2021-02-28T04:51:57Z</time>
      </trkpt>
      <trkpt lat="45.18407" lon="6.28253">
        <ele>1342</ele>
        <time>2021-02-28T04:51:58Z</time>
      </trkpt>
      <trkpt lat="45.18406" lon="6.28253">
        <ele>1342</ele>
        <time>2021-02-28T04:51:59Z</time>
      </trkpt>
      <trkpt lat="45.18405" lon="6.28253">
        <ele>1342.2</ele>
        <time>2021-02-28T04:52:00Z</time>
      </trkpt>
      <trkpt lat="45.18403" lon="6.28252">
        <ele>1342.4</ele>
        <time>2021-02-28T04:52:01Z</time>
      </trkpt>
      <trkpt lat="45.18402" lon="6.28252">
        <ele>1342.6</ele>
        <time>2021-02-28T04:52:02Z</time>
      </trkpt>
      <trkpt lat="45.18401" lon="6.28252">
        <ele>1342.8</ele>
        <time>2021-02-28T04:52:03Z</time>
      </trkpt>
      <trkpt lat="45.18399" lon="6.28252">
        <ele>1343</ele>
        <time>2021-02-28T04:52:04Z</time>
      </trkpt>
      <trkpt lat="45.18398" lon="6.28252">
        <ele>1343</ele>
        <time>2021-02-28T04:52:05Z</time>
      </trkpt>
      <trkpt lat="45.18397" lon="6.28252">
        <ele>1343.4</ele>
        <time>2021-02-28T04:52:06Z</time>
      </trkpt>
      <trkpt lat="45.18397" lon="6.28252">
        <ele>1343.4</ele>
        <time>2021-02-28T04:52:07Z</time>
      </trkpt>
      <trkpt lat="45.18395" lon="6.28251">
        <ele>1343.6</ele>
        <time>2021-02-28T04:52:08Z</time>
      </trkpt>
      <trkpt lat="45.18395" lon="6.28251">
        <ele>1343.6</ele>
        <time>2021-02-28T04:52:09Z</time>
      </trkpt>
      <trkpt lat="45.18393" lon="6.2825">
        <ele>1343.8</ele>
        <time>2021-02-28T04:52:10Z</time>
      </trkpt>
      <trkpt lat="45.18393" lon="6.2825">
        <ele>1343.8</ele>
        <time>2021-02-28T04:52:11Z</time>
      </trkpt>
      <trkpt lat="45.18393" lon="6.2825">
        <ele>1343.8</ele>
        <time>2021-02-28T04:52:12Z</time>
      </trkpt>
      <trkpt lat="45.18392" lon="6.2825">
        <ele>1344.2</ele>
        <time>2021-02-28T04:52:13Z</time>
      </trkpt>
      <trkpt lat="45.18391" lon="6.2825">
        <ele>1344.2</ele>
        <time>2021-02-28T04:52:14Z</time>
      </trkpt>
      <trkpt lat="45.18389" lon="6.2825">
        <ele>1344.4</ele>
        <time>2021-02-28T04:52:15Z</time>
      </trkpt>
      <trkpt lat="45.18388" lon="6.28249">
        <ele>1344.8</ele>
        <time>2021-02-28T04:52:16Z</time>
      </trkpt>
      <trkpt lat="45.18386" lon="6.28249">
        <ele>1345</ele>
        <time>2021-02-28T04:52:17Z</time>
      </trkpt>
      <trkpt lat="45.18386" lon="6.28249">
        <ele>1345.2</ele>
        <time>2021-02-28T04:52:18Z</time>
      </trkpt>
      <trkpt lat="45.18384" lon="6.2825">
        <ele>1345.2</ele>
        <time>2021-02-28T04:52:19Z</time>
      </trkpt>
      <trkpt lat="45.18384" lon="6.2825">
        <ele>1345.2</ele>
        <time>2021-02-28T04:52:20Z</time>
      </trkpt>
      <trkpt lat="45.18382" lon="6.28251">
        <ele>1345.4</ele>
        <time>2021-02-28T04:52:21Z</time>
      </trkpt>
      <trkpt lat="45.18382" lon="6.28251">
        <ele>1345.8</ele>
        <time>2021-02-28T04:52:22Z</time>
      </trkpt>
      <trkpt lat="45.1838" lon="6.28252">
        <ele>1345.6</ele>
        <time>2021-02-28T04:52:23Z</time>
      </trkpt>
      <trkpt lat="45.1838" lon="6.28252">
        <ele>1346</ele>
        <time>2021-02-28T04:52:24Z</time>
      </trkpt>
      <trkpt lat="45.18378" lon="6.28252">
        <ele>1346.2</ele>
        <time>2021-02-28T04:52:25Z</time>
      </trkpt>
      <trkpt lat="45.18378" lon="6.28252">
        <ele>1346.2</ele>
        <time>2021-02-28T04:52:26Z</time>
      </trkpt>
      <trkpt lat="45.18375" lon="6.28253">
        <ele>1346.6</ele>
        <time>2021-02-28T04:52:27Z</time>
      </trkpt>
      <trkpt lat="45.18375" lon="6.28253">
        <ele>1346.6</ele>
        <time>2021-02-28T04:52:28Z</time>
      </trkpt>
      <trkpt lat="45.18373" lon="6.28253">
        <ele>1346.8</ele>
        <time>2021-02-28T04:52:29Z</time>
      </trkpt>
      <trkpt lat="45.18373" lon="6.28253">
        <ele>1347</ele>
        <time>2021-02-28T04:52:30Z</time>
      </trkpt>
      <trkpt lat="45.1837" lon="6.28253">
        <ele>1347.4</ele>
        <time>2021-02-28T04:52:31Z</time>
      </trkpt>
      <trkpt lat="45.1837" lon="6.28253">
        <ele>1347.4</ele>
        <time>2021-02-28T04:52:32Z</time>
      </trkpt>
      <trkpt lat="45.1837" lon="6.28253">
        <ele>1347.6</ele>
        <time>2021-02-28T04:52:33Z</time>
      </trkpt>
      <trkpt lat="45.18368" lon="6.28253">
        <ele>1347.4</ele>
        <time>2021-02-28T04:52:34Z</time>
      </trkpt>
      <trkpt lat="45.18368" lon="6.28253">
        <ele>1347.8</ele>
        <time>2021-02-28T04:52:35Z</time>
      </trkpt>
      <trkpt lat="45.18368" lon="6.28253">
        <ele>1347.8</ele>
        <time>2021-02-28T04:52:36Z</time>
      </trkpt>
      <trkpt lat="45.18367" lon="6.28253">
        <ele>1348</ele>
        <time>2021-02-28T04:52:37Z</time>
      </trkpt>
      <trkpt lat="45.18365" lon="6.28254">
        <ele>1348</ele>
        <time>2021-02-28T04:52:38Z</time>
      </trkpt>
      <trkpt lat="45.18364" lon="6.28254">
        <ele>1348</ele>
        <time>2021-02-28T04:52:39Z</time>
      </trkpt>
      <trkpt lat="45.18363" lon="6.28254">
        <ele>1348.2</ele>
        <time>2021-02-28T04:52:40Z</time>
      </trkpt>
      <trkpt lat="45.18361" lon="6.28255">
        <ele>1348.2</ele>
        <time>2021-02-28T04:52:41Z</time>
      </trkpt>
      <trkpt lat="45.1836" lon="6.28255">
        <ele>1348.4</ele>
        <time>2021-02-28T04:52:42Z</time>
      </trkpt>
      <trkpt lat="45.18359" lon="6.28255">
        <ele>1348.2</ele>
        <time>2021-02-28T04:52:43Z</time>
      </trkpt>
      <trkpt lat="45.18358" lon="6.28256">
        <ele>1348.6</ele>
        <time>2021-02-28T04:52:44Z</time>
      </trkpt>
      <trkpt lat="45.18357" lon="6.28256">
        <ele>1348.6</ele>
        <time>2021-02-28T04:52:45Z</time>
      </trkpt>
      <trkpt lat="45.18356" lon="6.28256">
        <ele>1348.6</ele>
        <time>2021-02-28T04:52:46Z</time>
      </trkpt>
      <trkpt lat="45.18355" lon="6.28257">
        <ele>1349</ele>
        <time>2021-02-28T04:52:47Z</time>
      </trkpt>
      <trkpt lat="45.18354" lon="6.28257">
        <ele>1349.2</ele>
        <time>2021-02-28T04:52:48Z</time>
      </trkpt>
      <trkpt lat="45.18352" lon="6.28257">
        <ele>1349.6</ele>
        <time>2021-02-28T04:52:49Z</time>
      </trkpt>
      <trkpt lat="45.18351" lon="6.28257">
        <ele>1349.6</ele>
        <time>2021-02-28T04:52:50Z</time>
      </trkpt>
      <trkpt lat="45.1835" lon="6.28258">
        <ele>1349.8</ele>
        <time>2021-02-28T04:52:51Z</time>
      </trkpt>
      <trkpt lat="45.18349" lon="6.28258">
        <ele>1350</ele>
        <time>2021-02-28T04:52:52Z</time>
      </trkpt>
      <trkpt lat="45.18348" lon="6.28259">
        <ele>1350.2</ele>
        <time>2021-02-28T04:52:53Z</time>
      </trkpt>
      <trkpt lat="45.18347" lon="6.2826">
        <ele>1350.2</ele>
        <time>2021-02-28T04:52:54Z</time>
      </trkpt>
      <trkpt lat="45.18346" lon="6.28262">
        <ele>1350</ele>
        <time>2021-02-28T04:52:55Z</time>
      </trkpt>
      <trkpt lat="45.18344" lon="6.28263">
        <ele>1350.2</ele>
        <time>2021-02-28T04:52:56Z</time>
      </trkpt>
      <trkpt lat="45.18343" lon="6.28264">
        <ele>1350.2</ele>
        <time>2021-02-28T04:52:57Z</time>
      </trkpt>
      <trkpt lat="45.18342" lon="6.28265">
        <ele>1350</ele>
        <time>2021-02-28T04:52:58Z</time>
      </trkpt>
      <trkpt lat="45.18341" lon="6.28266">
        <ele>1350</ele>
        <time>2021-02-28T04:52:59Z</time>
      </trkpt>
      <trkpt lat="45.1834" lon="6.28267">
        <ele>1350</ele>
        <time>2021-02-28T04:53:00Z</time>
      </trkpt>
      <trkpt lat="45.18339" lon="6.28269">
        <ele>1350</ele>
        <time>2021-02-28T04:53:01Z</time>
      </trkpt>
      <trkpt lat="45.18339" lon="6.2827">
        <ele>1349.8</ele>
        <time>2021-02-28T04:53:02Z</time>
      </trkpt>
      <trkpt lat="45.18338" lon="6.28271">
        <ele>1349.8</ele>
        <time>2021-02-28T04:53:03Z</time>
      </trkpt>
      <trkpt lat="45.18337" lon="6.28272">
        <ele>1349.4</ele>
        <time>2021-02-28T04:53:04Z</time>
      </trkpt>
      <trkpt lat="45.18336" lon="6.28273">
        <ele>1349.4</ele>
        <time>2021-02-28T04:53:05Z</time>
      </trkpt>
      <trkpt lat="45.18335" lon="6.28274">
        <ele>1349.4</ele>
        <time>2021-02-28T04:53:06Z</time>
      </trkpt>
      <trkpt lat="45.18335" lon="6.28275">
        <ele>1349.2</ele>
        <time>2021-02-28T04:53:07Z</time>
      </trkpt>
      <trkpt lat="45.18334" lon="6.28276">
        <ele>1349.2</ele>
        <time>2021-02-28T04:53:08Z</time>
      </trkpt>
      <trkpt lat="45.18334" lon="6.28278">
        <ele>1349</ele>
        <time>2021-02-28T04:53:09Z</time>
      </trkpt>
      <trkpt lat="45.18333" lon="6.28279">
        <ele>1348.6</ele>
        <time>2021-02-28T04:53:10Z</time>
      </trkpt>
      <trkpt lat="45.18333" lon="6.2828">
        <ele>1348.6</ele>
        <time>2021-02-28T04:53:11Z</time>
      </trkpt>
      <trkpt lat="45.18332" lon="6.28281">
        <ele>1348.4</ele>
        <time>2021-02-28T04:53:12Z</time>
      </trkpt>
      <trkpt lat="45.18332" lon="6.28282">
        <ele>1348.2</ele>
        <time>2021-02-28T04:53:13Z</time>
      </trkpt>
      <trkpt lat="45.18331" lon="6.28284">
        <ele>1348</ele>
        <time>2021-02-28T04:53:14Z</time>
      </trkpt>
      <trkpt lat="45.18331" lon="6.28285">
        <ele>1348</ele>
        <time>2021-02-28T04:53:15Z</time>
      </trkpt>
      <trkpt lat="45.1833" lon="6.28286">
        <ele>1347.8</ele>
        <time>2021-02-28T04:53:16Z</time>
      </trkpt>
      <trkpt lat="45.1833" lon="6.28287">
        <ele>1347.8</ele>
        <time>2021-02-28T04:53:17Z</time>
      </trkpt>
      <trkpt lat="45.18329" lon="6.28288">
        <ele>1347.6</ele>
        <time>2021-02-28T04:53:18Z</time>
      </trkpt>
      <trkpt lat="45.18328" lon="6.2829">
        <ele>1347.6</ele>
        <time>2021-02-28T04:53:19Z</time>
      </trkpt>
      <trkpt lat="45.18327" lon="6.28291">
        <ele>1347.6</ele>
        <time>2021-02-28T04:53:20Z</time>
      </trkpt>
      <trkpt lat="45.18326" lon="6.28292">
        <ele>1347.4</ele>
        <time>2021-02-28T04:53:21Z</time>
      </trkpt>
      <trkpt lat="45.18326" lon="6.28293">
        <ele>1347.6</ele>
        <time>2021-02-28T04:53:22Z</time>
      </trkpt>
      <trkpt lat="45.18325" lon="6.28294">
        <ele>1347.4</ele>
        <time>2021-02-28T04:53:23Z</time>
      </trkpt>
      <trkpt lat="45.18324" lon="6.28295">
        <ele>1347</ele>
        <time>2021-02-28T04:53:24Z</time>
      </trkpt>
      <trkpt lat="45.18323" lon="6.28296">
        <ele>1347</ele>
        <time>2021-02-28T04:53:25Z</time>
      </trkpt>
      <trkpt lat="45.18322" lon="6.28297">
        <ele>1347</ele>
        <time>2021-02-28T04:53:26Z</time>
      </trkpt>
      <trkpt lat="45.18322" lon="6.28297">
        <ele>1346.8</ele>
        <time>2021-02-28T04:53:27Z</time>
      </trkpt>
      <trkpt lat="45.18321" lon="6.28297">
        <ele>1346.8</ele>
        <time>2021-02-28T04:53:28Z</time>
      </trkpt>
      <trkpt lat="45.1832" lon="6.28298">
        <ele>1346.8</ele>
        <time>2021-02-28T04:53:29Z</time>
      </trkpt>
      <trkpt lat="45.1832" lon="6.28298">
        <ele>1346.6</ele>
        <time>2021-02-28T04:53:30Z</time>
      </trkpt>
      <trkpt lat="45.18319" lon="6.28299">
        <ele>1346.6</ele>
        <time>2021-02-28T04:53:31Z</time>
      </trkpt>
      <trkpt lat="45.18318" lon="6.28299">
        <ele>1346.8</ele>
        <time>2021-02-28T04:53:32Z</time>
      </trkpt>
      <trkpt lat="45.18318" lon="6.283">
        <ele>1346.8</ele>
        <time>2021-02-28T04:53:33Z</time>
      </trkpt>
      <trkpt lat="45.18317" lon="6.283">
        <ele>1346.6</ele>
        <time>2021-02-28T04:53:34Z</time>
      </trkpt>
      <trkpt lat="45.18316" lon="6.28301">
        <ele>1346.8</ele>
        <time>2021-02-28T04:53:35Z</time>
      </trkpt>
      <trkpt lat="45.18315" lon="6.28301">
        <ele>1347.2</ele>
        <time>2021-02-28T04:53:36Z</time>
      </trkpt>
      <trkpt lat="45.18315" lon="6.28302">
        <ele>1347.4</ele>
        <time>2021-02-28T04:53:37Z</time>
      </trkpt>
      <trkpt lat="45.18314" lon="6.28302">
        <ele>1347.6</ele>
        <time>2021-02-28T04:53:38Z</time>
      </trkpt>
      <trkpt lat="45.18314" lon="6.28302">
        <ele>1347.6</ele>
        <time>2021-02-28T04:53:39Z</time>
      </trkpt>
      <trkpt lat="45.18314" lon="6.28302">
        <ele>1347.4</ele>
        <time>2021-02-28T04:53:40Z</time>
      </trkpt>
      <trkpt lat="45.18314" lon="6.28302">
        <ele>1347</ele>
        <time>2021-02-28T04:53:41Z</time>
      </trkpt>
      <trkpt lat="45.18313" lon="6.28302">
        <ele>1346.8</ele>
        <time>2021-02-28T04:53:42Z</time>
      </trkpt>
      <trkpt lat="45.18313" lon="6.28302">
        <ele>1346.6</ele>
        <time>2021-02-28T04:53:43Z</time>
      </trkpt>
      <trkpt lat="45.18313" lon="6.28302">
        <ele>1347</ele>
        <time>2021-02-28T04:53:44Z</time>
      </trkpt>
      <trkpt lat="45.18313" lon="6.28302">
        <ele>1347</ele>
        <time>2021-02-28T04:53:45Z</time>
      </trkpt>
      <trkpt lat="45.18312" lon="6.28302">
        <ele>1347.2</ele>
        <time>2021-02-28T04:53:46Z</time>
      </trkpt>
      <trkpt lat="45.18312" lon="6.28302">
        <ele>1347.6</ele>
        <time>2021-02-28T04:53:47Z</time>
      </trkpt>
      <trkpt lat="45.18312" lon="6.28302">
        <ele>1347.8</ele>
        <time>2021-02-28T04:53:48Z</time>
      </trkpt>
      <trkpt lat="45.18311" lon="6.28302">
        <ele>1348</ele>
        <time>2021-02-28T04:53:49Z</time>
      </trkpt>
      <trkpt lat="45.18311" lon="6.28302">
        <ele>1348</ele>
        <time>2021-02-28T04:53:50Z</time>
      </trkpt>
      <trkpt lat="45.18311" lon="6.28302">
        <ele>1348</ele>
        <time>2021-02-28T04:53:51Z</time>
      </trkpt>
      <trkpt lat="45.18311" lon="6.28303">
        <ele>1348.2</ele>
        <time>2021-02-28T04:53:52Z</time>
      </trkpt>
      <trkpt lat="45.1831" lon="6.28303">
        <ele>1348.2</ele>
        <time>2021-02-28T04:53:53Z</time>
      </trkpt>
      <trkpt lat="45.1831" lon="6.28303">
        <ele>1348.4</ele>
        <time>2021-02-28T04:53:54Z</time>
      </trkpt>
      <trkpt lat="45.1831" lon="6.28303">
        <ele>1348.2</ele>
        <time>2021-02-28T04:53:55Z</time>
      </trkpt>
      <trkpt lat="45.18309" lon="6.28303">
        <ele>1348</ele>
        <time>2021-02-28T04:53:56Z</time>
      </trkpt>
      <trkpt lat="45.18309" lon="6.28303">
        <ele>1348</ele>
        <time>2021-02-28T04:53:57Z</time>
      </trkpt>
      <trkpt lat="45.18309" lon="6.28303">
        <ele>1348</ele>
        <time>2021-02-28T04:53:58Z</time>
      </trkpt>
      <trkpt lat="45.18309" lon="6.28303">
        <ele>1347.8</ele>
        <time>2021-02-28T04:53:59Z</time>
      </trkpt>
      <trkpt lat="45.18308" lon="6.28303">
        <ele>1347.6</ele>
        <time>2021-02-28T04:54:00Z</time>
      </trkpt>
      <trkpt lat="45.18308" lon="6.28303">
        <ele>1347.6</ele>
        <time>2021-02-28T04:54:01Z</time>
      </trkpt>
      <trkpt lat="45.18308" lon="6.28303">
        <ele>1347.4</ele>
        <time>2021-02-28T04:54:02Z</time>
      </trkpt>
      <trkpt lat="45.18307" lon="6.28303">
        <ele>1347.4</ele>
        <time>2021-02-28T04:54:03Z</time>
      </trkpt>
      <trkpt lat="45.18307" lon="6.28303">
        <ele>1347.2</ele>
        <time>2021-02-28T04:54:04Z</time>
      </trkpt>
      <trkpt lat="45.18307" lon="6.28303">
        <ele>1347.2</ele>
        <time>2021-02-28T04:54:05Z</time>
      </trkpt>
      <trkpt lat="45.18307" lon="6.28303">
        <ele>1347.4</ele>
        <time>2021-02-28T04:54:06Z</time>
      </trkpt>
      <trkpt lat="45.18306" lon="6.28304">
        <ele>1347.6</ele>
        <time>2021-02-28T04:54:07Z</time>
      </trkpt>
      <trkpt lat="45.18306" lon="6.28304">
        <ele>1347.6</ele>
        <time>2021-02-28T04:54:08Z</time>
      </trkpt>
      <trkpt lat="45.18306" lon="6.28304">
        <ele>1347.4</ele>
        <time>2021-02-28T04:54:09Z</time>
      </trkpt>
      <trkpt lat="45.18306" lon="6.28304">
        <ele>1347.4</ele>
        <time>2021-02-28T04:54:10Z</time>
      </trkpt>
      <trkpt lat="45.18305" lon="6.28304">
        <ele>1347.2</ele>
        <time>2021-02-28T04:54:11Z</time>
      </trkpt>
      <trkpt lat="45.18305" lon="6.28304">
        <ele>1347.2</ele>
        <time>2021-02-28T04:54:12Z</time>
      </trkpt>
      <trkpt lat="45.18304" lon="6.28304">
        <ele>1347.2</ele>
        <time>2021-02-28T04:54:13Z</time>
      </trkpt>
      <trkpt lat="45.18303" lon="6.28305">
        <ele>1347.2</ele>
        <time>2021-02-28T04:54:14Z</time>
      </trkpt>
      <trkpt lat="45.18302" lon="6.28305">
        <ele>1347</ele>
        <time>2021-02-28T04:54:15Z</time>
      </trkpt>
      <trkpt lat="45.18301" lon="6.28305">
        <ele>1346.8</ele>
        <time>2021-02-28T04:54:16Z</time>
      </trkpt>
      <trkpt lat="45.183" lon="6.28306">
        <ele>1347.2</ele>
        <time>2021-02-28T04:54:17Z</time>
      </trkpt>
      <trkpt lat="45.18299" lon="6.28306">
        <ele>1347.2</ele>
        <time>2021-02-28T04:54:18Z</time>
      </trkpt>
      <trkpt lat="45.18297" lon="6.28307">
        <ele>1347.2</ele>
        <time>2021-02-28T04:54:19Z</time>
      </trkpt>
      <trkpt lat="45.18296" lon="6.28307">
        <ele>1347.2</ele>
        <time>2021-02-28T04:54:20Z</time>
      </trkpt>
      <trkpt lat="45.18295" lon="6.28307">
        <ele>1347.2</ele>
        <time>2021-02-28T04:54:21Z</time>
      </trkpt>
      <trkpt lat="45.18294" lon="6.28308">
        <ele>1347.4</ele>
        <time>2021-02-28T04:54:22Z</time>
      </trkpt>
      <trkpt lat="45.18293" lon="6.28309">
        <ele>1347.2</ele>
        <time>2021-02-28T04:54:23Z</time>
      </trkpt>
      <trkpt lat="45.18292" lon="6.2831">
        <ele>1347</ele>
        <time>2021-02-28T04:54:24Z</time>
      </trkpt>
      <trkpt lat="45.18291" lon="6.2831">
        <ele>1347</ele>
        <time>2021-02-28T04:54:25Z</time>
      </trkpt>
      <trkpt lat="45.18289" lon="6.28311">
        <ele>1347</ele>
        <time>2021-02-28T04:54:26Z</time>
      </trkpt>
      <trkpt lat="45.18288" lon="6.28312">
        <ele>1347.4</ele>
        <time>2021-02-28T04:54:27Z</time>
      </trkpt>
      <trkpt lat="45.18287" lon="6.28312">
        <ele>1347.6</ele>
        <time>2021-02-28T04:54:28Z</time>
      </trkpt>
      <trkpt lat="45.18286" lon="6.28313">
        <ele>1347.4</ele>
        <time>2021-02-28T04:54:29Z</time>
      </trkpt>
      <trkpt lat="45.18285" lon="6.28314">
        <ele>1347.6</ele>
        <time>2021-02-28T04:54:30Z</time>
      </trkpt>
      <trkpt lat="45.18284" lon="6.28314">
        <ele>1347.4</ele>
        <time>2021-02-28T04:54:31Z</time>
      </trkpt>
      <trkpt lat="45.18282" lon="6.28315">
        <ele>1347.6</ele>
        <time>2021-02-28T04:54:32Z</time>
      </trkpt>
      <trkpt lat="45.18281" lon="6.28315">
        <ele>1347.8</ele>
        <time>2021-02-28T04:54:33Z</time>
      </trkpt>
      <trkpt lat="45.1828" lon="6.28315">
        <ele>1347.8</ele>
        <time>2021-02-28T04:54:34Z</time>
      </trkpt>
      <trkpt lat="45.18279" lon="6.28316">
        <ele>1347.8</ele>
        <time>2021-02-28T04:54:35Z</time>
      </trkpt>
      <trkpt lat="45.18278" lon="6.28316">
        <ele>1347.8</ele>
        <time>2021-02-28T04:54:36Z</time>
      </trkpt>
      <trkpt lat="45.18277" lon="6.28317">
        <ele>1347.8</ele>
        <time>2021-02-28T04:54:37Z</time>
      </trkpt>
      <trkpt lat="45.18276" lon="6.28318">
        <ele>1348</ele>
        <time>2021-02-28T04:54:38Z</time>
      </trkpt>
      <trkpt lat="45.18276" lon="6.28319">
        <ele>1348</ele>
        <time>2021-02-28T04:54:39Z</time>
      </trkpt>
      <trkpt lat="45.18276" lon="6.2832">
        <ele>1348.2</ele>
        <time>2021-02-28T04:54:40Z</time>
      </trkpt>
      <trkpt lat="45.18276" lon="6.28321">
        <ele>1348.2</ele>
        <time>2021-02-28T04:54:41Z</time>
      </trkpt>
      <trkpt lat="45.18275" lon="6.28322">
        <ele>1348.2</ele>
        <time>2021-02-28T04:54:42Z</time>
      </trkpt>
      <trkpt lat="45.18275" lon="6.28323">
        <ele>1348.6</ele>
        <time>2021-02-28T04:54:43Z</time>
      </trkpt>
      <trkpt lat="45.18275" lon="6.28324">
        <ele>1348.6</ele>
        <time>2021-02-28T04:54:44Z</time>
      </trkpt>
      <trkpt lat="45.18274" lon="6.28325">
        <ele>1348.8</ele>
        <time>2021-02-28T04:54:45Z</time>
      </trkpt>
      <trkpt lat="45.18274" lon="6.28326">
        <ele>1349.2</ele>
        <time>2021-02-28T04:54:46Z</time>
      </trkpt>
      <trkpt lat="45.18274" lon="6.28327">
        <ele>1349.6</ele>
        <time>2021-02-28T04:54:47Z</time>
      </trkpt>
      <trkpt lat="45.18274" lon="6.28328">
        <ele>1349.6</ele>
        <time>2021-02-28T04:54:48Z</time>
      </trkpt>
      <trkpt lat="45.18273" lon="6.28329">
        <ele>1349.6</ele>
        <time>2021-02-28T04:54:49Z</time>
      </trkpt>
      <trkpt lat="45.18273" lon="6.28331">
        <ele>1349.8</ele>
        <time>2021-02-28T04:54:50Z</time>
      </trkpt>
      <trkpt lat="45.18273" lon="6.28333">
        <ele>1349.8</ele>
        <time>2021-02-28T04:54:51Z</time>
      </trkpt>
      <trkpt lat="45.18273" lon="6.28334">
        <ele>1349.8</ele>
        <time>2021-02-28T04:54:52Z</time>
      </trkpt>
      <trkpt lat="45.18273" lon="6.28336">
        <ele>1350</ele>
        <time>2021-02-28T04:54:53Z</time>
      </trkpt>
      <trkpt lat="45.18273" lon="6.28338">
        <ele>1350</ele>
        <time>2021-02-28T04:54:54Z</time>
      </trkpt>
      <trkpt lat="45.18273" lon="6.2834">
        <ele>1350.4</ele>
        <time>2021-02-28T04:54:55Z</time>
      </trkpt>
      <trkpt lat="45.18272" lon="6.28341">
        <ele>1350.4</ele>
        <time>2021-02-28T04:54:56Z</time>
      </trkpt>
      <trkpt lat="45.18272" lon="6.28343">
        <ele>1350.6</ele>
        <time>2021-02-28T04:54:57Z</time>
      </trkpt>
      <trkpt lat="45.18272" lon="6.28345">
        <ele>1350.6</ele>
        <time>2021-02-28T04:54:58Z</time>
      </trkpt>
      <trkpt lat="45.18271" lon="6.28346">
        <ele>1350.8</ele>
        <time>2021-02-28T04:54:59Z</time>
      </trkpt>
      <trkpt lat="45.1827" lon="6.28348">
        <ele>1351</ele>
        <time>2021-02-28T04:55:00Z</time>
      </trkpt>
      <trkpt lat="45.1827" lon="6.28349">
        <ele>1351.2</ele>
        <time>2021-02-28T04:55:01Z</time>
      </trkpt>
      <trkpt lat="45.18269" lon="6.28351">
        <ele>1351.2</ele>
        <time>2021-02-28T04:55:02Z</time>
      </trkpt>
      <trkpt lat="45.18268" lon="6.28353">
        <ele>1351.2</ele>
        <time>2021-02-28T04:55:03Z</time>
      </trkpt>
      <trkpt lat="45.18268" lon="6.28354">
        <ele>1351.4</ele>
        <time>2021-02-28T04:55:04Z</time>
      </trkpt>
      <trkpt lat="45.18267" lon="6.28355">
        <ele>1351.4</ele>
        <time>2021-02-28T04:55:05Z</time>
      </trkpt>
      <trkpt lat="45.18267" lon="6.28356">
        <ele>1351.2</ele>
        <time>2021-02-28T04:55:06Z</time>
      </trkpt>
      <trkpt lat="45.18266" lon="6.28357">
        <ele>1351.4</ele>
        <time>2021-02-28T04:55:07Z</time>
      </trkpt>
      <trkpt lat="45.18266" lon="6.28358">
        <ele>1351.6</ele>
        <time>2021-02-28T04:55:08Z</time>
      </trkpt>
      <trkpt lat="45.18265" lon="6.28359">
        <ele>1351.6</ele>
        <time>2021-02-28T04:55:09Z</time>
      </trkpt>
      <trkpt lat="45.18264" lon="6.2836">
        <ele>1351.6</ele>
        <time>2021-02-28T04:55:10Z</time>
      </trkpt>
      <trkpt lat="45.18264" lon="6.28361">
        <ele>1351.6</ele>
        <time>2021-02-28T04:55:11Z</time>
      </trkpt>
      <trkpt lat="45.18263" lon="6.28362">
        <ele>1351.8</ele>
        <time>2021-02-28T04:55:12Z</time>
      </trkpt>
      <trkpt lat="45.18263" lon="6.28363">
        <ele>1351.6</ele>
        <time>2021-02-28T04:55:13Z</time>
      </trkpt>
      <trkpt lat="45.18262" lon="6.28363">
        <ele>1352</ele>
        <time>2021-02-28T04:55:14Z</time>
      </trkpt>
      <trkpt lat="45.18262" lon="6.28364">
        <ele>1352</ele>
        <time>2021-02-28T04:55:15Z</time>
      </trkpt>
      <trkpt lat="45.18261" lon="6.28366">
        <ele>1352</ele>
        <time>2021-02-28T04:55:16Z</time>
      </trkpt>
      <trkpt lat="45.18259" lon="6.28367">
        <ele>1352</ele>
        <time>2021-02-28T04:55:17Z</time>
      </trkpt>
      <trkpt lat="45.18258" lon="6.28369">
        <ele>1352</ele>
        <time>2021-02-28T04:55:18Z</time>
      </trkpt>
      <trkpt lat="45.18257" lon="6.2837">
        <ele>1352.2</ele>
        <time>2021-02-28T04:55:19Z</time>
      </trkpt>
      <trkpt lat="45.18256" lon="6.28372">
        <ele>1352.2</ele>
        <time>2021-02-28T04:55:20Z</time>
      </trkpt>
      <trkpt lat="45.18254" lon="6.28373">
        <ele>1352.4</ele>
        <time>2021-02-28T04:55:21Z</time>
      </trkpt>
      <trkpt lat="45.18253" lon="6.28374">
        <ele>1352.4</ele>
        <time>2021-02-28T04:55:22Z</time>
      </trkpt>
      <trkpt lat="45.18251" lon="6.28375">
        <ele>1352.2</ele>
        <time>2021-02-28T04:55:23Z</time>
      </trkpt>
      <trkpt lat="45.18249" lon="6.28375">
        <ele>1351.8</ele>
        <time>2021-02-28T04:55:24Z</time>
      </trkpt>
      <trkpt lat="45.18248" lon="6.28376">
        <ele>1351.6</ele>
        <time>2021-02-28T04:55:25Z</time>
      </trkpt>
      <trkpt lat="45.18246" lon="6.28376">
        <ele>1351.4</ele>
        <time>2021-02-28T04:55:26Z</time>
      </trkpt>
      <trkpt lat="45.18244" lon="6.28377">
        <ele>1351.2</ele>
        <time>2021-02-28T04:55:27Z</time>
      </trkpt>
      <trkpt lat="45.18242" lon="6.28377">
        <ele>1351.2</ele>
        <time>2021-02-28T04:55:28Z</time>
      </trkpt>
      <trkpt lat="45.1824" lon="6.28378">
        <ele>1351</ele>
        <time>2021-02-28T04:55:29Z</time>
      </trkpt>
      <trkpt lat="45.18238" lon="6.28378">
        <ele>1351.2</ele>
        <time>2021-02-28T04:55:30Z</time>
      </trkpt>
      <trkpt lat="45.18236" lon="6.28378">
        <ele>1351</ele>
        <time>2021-02-28T04:55:31Z</time>
      </trkpt>
      <trkpt lat="45.18234" lon="6.28379">
        <ele>1351</ele>
        <time>2021-02-28T04:55:32Z</time>
      </trkpt>
      <trkpt lat="45.18233" lon="6.2838">
        <ele>1350.8</ele>
        <time>2021-02-28T04:55:33Z</time>
      </trkpt>
      <trkpt lat="45.18231" lon="6.28381">
        <ele>1350.6</ele>
        <time>2021-02-28T04:55:34Z</time>
      </trkpt>
      <trkpt lat="45.1823" lon="6.28382">
        <ele>1350.8</ele>
        <time>2021-02-28T04:55:35Z</time>
      </trkpt>
      <trkpt lat="45.18229" lon="6.28383">
        <ele>1350.4</ele>
        <time>2021-02-28T04:55:36Z</time>
      </trkpt>
      <trkpt lat="45.18227" lon="6.28385">
        <ele>1350.4</ele>
        <time>2021-02-28T04:55:37Z</time>
      </trkpt>
      <trkpt lat="45.18226" lon="6.28386">
        <ele>1350.4</ele>
        <time>2021-02-28T04:55:38Z</time>
      </trkpt>
      <trkpt lat="45.18224" lon="6.28386">
        <ele>1350.4</ele>
        <time>2021-02-28T04:55:39Z</time>
      </trkpt>
      <trkpt lat="45.18223" lon="6.28387">
        <ele>1350.2</ele>
        <time>2021-02-28T04:55:40Z</time>
      </trkpt>
      <trkpt lat="45.18221" lon="6.28388">
        <ele>1350.2</ele>
        <time>2021-02-28T04:55:41Z</time>
      </trkpt>
      <trkpt lat="45.1822" lon="6.28389">
        <ele>1350.2</ele>
        <time>2021-02-28T04:55:42Z</time>
      </trkpt>
      <trkpt lat="45.18218" lon="6.28389">
        <ele>1350.2</ele>
        <time>2021-02-28T04:55:43Z</time>
      </trkpt>
      <trkpt lat="45.18217" lon="6.2839">
        <ele>1350.2</ele>
        <time>2021-02-28T04:55:44Z</time>
      </trkpt>
      <trkpt lat="45.18215" lon="6.28391">
        <ele>1350</ele>
        <time>2021-02-28T04:55:45Z</time>
      </trkpt>
      <trkpt lat="45.18214" lon="6.28392">
        <ele>1350.2</ele>
        <time>2021-02-28T04:55:46Z</time>
      </trkpt>
      <trkpt lat="45.18213" lon="6.28393">
        <ele>1350.2</ele>
        <time>2021-02-28T04:55:47Z</time>
      </trkpt>
      <trkpt lat="45.18211" lon="6.28394">
        <ele>1350.4</ele>
        <time>2021-02-28T04:55:48Z</time>
      </trkpt>
      <trkpt lat="45.1821" lon="6.28395">
        <ele>1350.2</ele>
        <time>2021-02-28T04:55:49Z</time>
      </trkpt>
      <trkpt lat="45.18208" lon="6.28395">
        <ele>1350.2</ele>
        <time>2021-02-28T04:55:50Z</time>
      </trkpt>
      <trkpt lat="45.18207" lon="6.28395">
        <ele>1350</ele>
        <time>2021-02-28T04:55:51Z</time>
      </trkpt>
      <trkpt lat="45.18206" lon="6.28394">
        <ele>1350.2</ele>
        <time>2021-02-28T04:55:52Z</time>
      </trkpt>
      <trkpt lat="45.18205" lon="6.28394">
        <ele>1349.8</ele>
        <time>2021-02-28T04:55:53Z</time>
      </trkpt>
      <trkpt lat="45.18203" lon="6.28393">
        <ele>1350</ele>
        <time>2021-02-28T04:55:54Z</time>
      </trkpt>
      <trkpt lat="45.18202" lon="6.28393">
        <ele>1349.8</ele>
        <time>2021-02-28T04:55:55Z</time>
      </trkpt>
      <trkpt lat="45.18201" lon="6.28392">
        <ele>1349.8</ele>
        <time>2021-02-28T04:55:56Z</time>
      </trkpt>
      <trkpt lat="45.18199" lon="6.28392">
        <ele>1349.8</ele>
        <time>2021-02-28T04:55:57Z</time>
      </trkpt>
      <trkpt lat="45.18198" lon="6.28391">
        <ele>1349.6</ele>
        <time>2021-02-28T04:55:58Z</time>
      </trkpt>
      <trkpt lat="45.18196" lon="6.28391">
        <ele>1349.8</ele>
        <time>2021-02-28T04:55:59Z</time>
      </trkpt>
      <trkpt lat="45.18195" lon="6.28391">
        <ele>1349.6</ele>
        <time>2021-02-28T04:56:00Z</time>
      </trkpt>
      <trkpt lat="45.18193" lon="6.28391">
        <ele>1349.6</ele>
        <time>2021-02-28T04:56:01Z</time>
      </trkpt>
      <trkpt lat="45.18192" lon="6.28391">
        <ele>1349.8</ele>
        <time>2021-02-28T04:56:02Z</time>
      </trkpt>
      <trkpt lat="45.1819" lon="6.2839">
        <ele>1349.8</ele>
        <time>2021-02-28T04:56:03Z</time>
      </trkpt>
      <trkpt lat="45.18189" lon="6.2839">
        <ele>1350.2</ele>
        <time>2021-02-28T04:56:04Z</time>
      </trkpt>
      <trkpt lat="45.18188" lon="6.28391">
        <ele>1350.2</ele>
        <time>2021-02-28T04:56:05Z</time>
      </trkpt>
      <trkpt lat="45.18187" lon="6.28391">
        <ele>1350.4</ele>
        <time>2021-02-28T04:56:06Z</time>
      </trkpt>
      <trkpt lat="45.18186" lon="6.28392">
        <ele>1350.4</ele>
        <time>2021-02-28T04:56:07Z</time>
      </trkpt>
      <trkpt lat="45.18186" lon="6.28393">
        <ele>1350.6</ele>
        <time>2021-02-28T04:56:08Z</time>
      </trkpt>
      <trkpt lat="45.18185" lon="6.28394">
        <ele>1350.4</ele>
        <time>2021-02-28T04:56:09Z</time>
      </trkpt>
      <trkpt lat="45.18184" lon="6.28394">
        <ele>1350.6</ele>
        <time>2021-02-28T04:56:10Z</time>
      </trkpt>
      <trkpt lat="45.18183" lon="6.28395">
        <ele>1350.6</ele>
        <time>2021-02-28T04:56:11Z</time>
      </trkpt>
      <trkpt lat="45.18182" lon="6.28396">
        <ele>1350.6</ele>
        <time>2021-02-28T04:56:12Z</time>
      </trkpt>
      <trkpt lat="45.18181" lon="6.28397">
        <ele>1351</ele>
        <time>2021-02-28T04:56:13Z</time>
      </trkpt>
      <trkpt lat="45.18181" lon="6.28397">
        <ele>1350.8</ele>
        <time>2021-02-28T04:56:14Z</time>
      </trkpt>
      <trkpt lat="45.1818" lon="6.28399">
        <ele>1351.2</ele>
        <time>2021-02-28T04:56:15Z</time>
      </trkpt>
      <trkpt lat="45.18179" lon="6.284">
        <ele>1351.2</ele>
        <time>2021-02-28T04:56:16Z</time>
      </trkpt>
      <trkpt lat="45.18179" lon="6.28401">
        <ele>1351.2</ele>
        <time>2021-02-28T04:56:17Z</time>
      </trkpt>
      <trkpt lat="45.18178" lon="6.28402">
        <ele>1351.6</ele>
        <time>2021-02-28T04:56:18Z</time>
      </trkpt>
      <trkpt lat="45.18178" lon="6.28404">
        <ele>1351.8</ele>
        <time>2021-02-28T04:56:19Z</time>
      </trkpt>
      <trkpt lat="45.18177" lon="6.28405">
        <ele>1351.8</ele>
        <time>2021-02-28T04:56:20Z</time>
      </trkpt>
      <trkpt lat="45.18176" lon="6.28406">
        <ele>1351.6</ele>
        <time>2021-02-28T04:56:21Z</time>
      </trkpt>
      <trkpt lat="45.18176" lon="6.28408">
        <ele>1351.8</ele>
        <time>2021-02-28T04:56:22Z</time>
      </trkpt>
      <trkpt lat="45.18175" lon="6.28409">
        <ele>1352</ele>
        <time>2021-02-28T04:56:23Z</time>
      </trkpt>
      <trkpt lat="45.18174" lon="6.2841">
        <ele>1352</ele>
        <time>2021-02-28T04:56:24Z</time>
      </trkpt>
      <trkpt lat="45.18173" lon="6.28411">
        <ele>1352.2</ele>
        <time>2021-02-28T04:56:25Z</time>
      </trkpt>
      <trkpt lat="45.18172" lon="6.28411">
        <ele>1352.2</ele>
        <time>2021-02-28T04:56:26Z</time>
      </trkpt>
      <trkpt lat="45.18171" lon="6.28412">
        <ele>1352.4</ele>
        <time>2021-02-28T04:56:27Z</time>
      </trkpt>
      <trkpt lat="45.1817" lon="6.28413">
        <ele>1352.6</ele>
        <time>2021-02-28T04:56:28Z</time>
      </trkpt>
      <trkpt lat="45.18169" lon="6.28414">
        <ele>1352.8</ele>
        <time>2021-02-28T04:56:29Z</time>
      </trkpt>
      <trkpt lat="45.18168" lon="6.28415">
        <ele>1352.8</ele>
        <time>2021-02-28T04:56:30Z</time>
      </trkpt>
      <trkpt lat="45.18167" lon="6.28416">
        <ele>1353</ele>
        <time>2021-02-28T04:56:31Z</time>
      </trkpt>
      <trkpt lat="45.18167" lon="6.28416">
        <ele>1353.2</ele>
        <time>2021-02-28T04:56:32Z</time>
      </trkpt>
      <trkpt lat="45.18166" lon="6.28417">
        <ele>1353.2</ele>
        <time>2021-02-28T04:56:33Z</time>
      </trkpt>
      <trkpt lat="45.18164" lon="6.28418">
        <ele>1353.4</ele>
        <time>2021-02-28T04:56:34Z</time>
      </trkpt>
      <trkpt lat="45.18163" lon="6.2842">
        <ele>1353.4</ele>
        <time>2021-02-28T04:56:35Z</time>
      </trkpt>
      <trkpt lat="45.18162" lon="6.28421">
        <ele>1353.6</ele>
        <time>2021-02-28T04:56:36Z</time>
      </trkpt>
      <trkpt lat="45.18161" lon="6.28422">
        <ele>1353.4</ele>
        <time>2021-02-28T04:56:37Z</time>
      </trkpt>
      <trkpt lat="45.18159" lon="6.28423">
        <ele>1353.4</ele>
        <time>2021-02-28T04:56:38Z</time>
      </trkpt>
      <trkpt lat="45.18158" lon="6.28424">
        <ele>1353.6</ele>
        <time>2021-02-28T04:56:39Z</time>
      </trkpt>
      <trkpt lat="45.18157" lon="6.28425">
        <ele>1353.8</ele>
        <time>2021-02-28T04:56:40Z</time>
      </trkpt>
      <trkpt lat="45.18156" lon="6.28426">
        <ele>1354</ele>
        <time>2021-02-28T04:56:41Z</time>
      </trkpt>
      <trkpt lat="45.18155" lon="6.28426">
        <ele>1354</ele>
        <time>2021-02-28T04:56:42Z</time>
      </trkpt>
      <trkpt lat="45.18154" lon="6.28427">
        <ele>1354.2</ele>
        <time>2021-02-28T04:56:43Z</time>
      </trkpt>
      <trkpt lat="45.18153" lon="6.28428">
        <ele>1354.4</ele>
        <time>2021-02-28T04:56:44Z</time>
      </trkpt>
      <trkpt lat="45.18152" lon="6.28428">
        <ele>1354.4</ele>
        <time>2021-02-28T04:56:45Z</time>
      </trkpt>
      <trkpt lat="45.18151" lon="6.28429">
        <ele>1354.6</ele>
        <time>2021-02-28T04:56:46Z</time>
      </trkpt>
      <trkpt lat="45.1815" lon="6.28429">
        <ele>1354.6</ele>
        <time>2021-02-28T04:56:47Z</time>
      </trkpt>
      <trkpt lat="45.18148" lon="6.2843">
        <ele>1354.8</ele>
        <time>2021-02-28T04:56:48Z</time>
      </trkpt>
      <trkpt lat="45.18147" lon="6.28431">
        <ele>1354.6</ele>
        <time>2021-02-28T04:56:49Z</time>
      </trkpt>
      <trkpt lat="45.18146" lon="6.28431">
        <ele>1355</ele>
        <time>2021-02-28T04:56:50Z</time>
      </trkpt>
      <trkpt lat="45.18145" lon="6.28432">
        <ele>1355</ele>
        <time>2021-02-28T04:56:51Z</time>
      </trkpt>
      <trkpt lat="45.18143" lon="6.28433">
        <ele>1355</ele>
        <time>2021-02-28T04:56:52Z</time>
      </trkpt>
      <trkpt lat="45.18142" lon="6.28433">
        <ele>1355.6</ele>
        <time>2021-02-28T04:56:53Z</time>
      </trkpt>
      <trkpt lat="45.18141" lon="6.28434">
        <ele>1355.8</ele>
        <time>2021-02-28T04:56:54Z</time>
      </trkpt>
      <trkpt lat="45.18139" lon="6.28435">
        <ele>1356</ele>
        <time>2021-02-28T04:56:55Z</time>
      </trkpt>
      <trkpt lat="45.18138" lon="6.28436">
        <ele>1356</ele>
        <time>2021-02-28T04:56:56Z</time>
      </trkpt>
      <trkpt lat="45.18137" lon="6.28436">
        <ele>1355.8</ele>
        <time>2021-02-28T04:56:57Z</time>
      </trkpt>
      <trkpt lat="45.18135" lon="6.28437">
        <ele>1356.2</ele>
        <time>2021-02-28T04:56:58Z</time>
      </trkpt>
      <trkpt lat="45.18134" lon="6.28438">
        <ele>1356.2</ele>
        <time>2021-02-28T04:56:59Z</time>
      </trkpt>
      <trkpt lat="45.18132" lon="6.28439">
        <ele>1356.2</ele>
        <time>2021-02-28T04:57:00Z</time>
      </trkpt>
      <trkpt lat="45.18131" lon="6.2844">
        <ele>1356.2</ele>
        <time>2021-02-28T04:57:01Z</time>
      </trkpt>
      <trkpt lat="45.1813" lon="6.28441">
        <ele>1356.4</ele>
        <time>2021-02-28T04:57:02Z</time>
      </trkpt>
      <trkpt lat="45.18129" lon="6.28442">
        <ele>1356.6</ele>
        <time>2021-02-28T04:57:03Z</time>
      </trkpt>
      <trkpt lat="45.18128" lon="6.28443">
        <ele>1356.4</ele>
        <time>2021-02-28T04:57:04Z</time>
      </trkpt>
      <trkpt lat="45.18127" lon="6.28443">
        <ele>1356.8</ele>
        <time>2021-02-28T04:57:05Z</time>
      </trkpt>
      <trkpt lat="45.18126" lon="6.28444">
        <ele>1356.8</ele>
        <time>2021-02-28T04:57:06Z</time>
      </trkpt>
      <trkpt lat="45.18125" lon="6.28445">
        <ele>1357</ele>
        <time>2021-02-28T04:57:07Z</time>
      </trkpt>
      <trkpt lat="45.18124" lon="6.28446">
        <ele>1357.4</ele>
        <time>2021-02-28T04:57:08Z</time>
      </trkpt>
      <trkpt lat="45.18123" lon="6.28447">
        <ele>1357.2</ele>
        <time>2021-02-28T04:57:09Z</time>
      </trkpt>
      <trkpt lat="45.18122" lon="6.28448">
        <ele>1357.6</ele>
        <time>2021-02-28T04:57:10Z</time>
      </trkpt>
      <trkpt lat="45.18122" lon="6.28449">
        <ele>1357.8</ele>
        <time>2021-02-28T04:57:11Z</time>
      </trkpt>
      <trkpt lat="45.18121" lon="6.2845">
        <ele>1357.8</ele>
        <time>2021-02-28T04:57:12Z</time>
      </trkpt>
      <trkpt lat="45.1812" lon="6.28452">
        <ele>1357.8</ele>
        <time>2021-02-28T04:57:13Z</time>
      </trkpt>
      <trkpt lat="45.18119" lon="6.28453">
        <ele>1357.8</ele>
        <time>2021-02-28T04:57:14Z</time>
      </trkpt>
      <trkpt lat="45.18118" lon="6.28454">
        <ele>1358</ele>
        <time>2021-02-28T04:57:15Z</time>
      </trkpt>
      <trkpt lat="45.18117" lon="6.28455">
        <ele>1358</ele>
        <time>2021-02-28T04:57:16Z</time>
      </trkpt>
      <trkpt lat="45.18117" lon="6.28456">
        <ele>1358.4</ele>
        <time>2021-02-28T04:57:17Z</time>
      </trkpt>
      <trkpt lat="45.18115" lon="6.28455">
        <ele>1358.2</ele>
        <time>2021-02-28T04:57:18Z</time>
      </trkpt>
      <trkpt lat="45.18114" lon="6.28455">
        <ele>1358.2</ele>
        <time>2021-02-28T04:57:19Z</time>
      </trkpt>
      <trkpt lat="45.18113" lon="6.28455">
        <ele>1358.2</ele>
        <time>2021-02-28T04:57:20Z</time>
      </trkpt>
      <trkpt lat="45.18111" lon="6.28455">
        <ele>1358.2</ele>
        <time>2021-02-28T04:57:21Z</time>
      </trkpt>
      <trkpt lat="45.1811" lon="6.28455">
        <ele>1358.2</ele>
        <time>2021-02-28T04:57:22Z</time>
      </trkpt>
      <trkpt lat="45.18109" lon="6.28455">
        <ele>1358.2</ele>
        <time>2021-02-28T04:57:23Z</time>
      </trkpt>
      <trkpt lat="45.18108" lon="6.28455">
        <ele>1358.2</ele>
        <time>2021-02-28T04:57:24Z</time>
      </trkpt>
      <trkpt lat="45.18106" lon="6.28454">
        <ele>1358.2</ele>
        <time>2021-02-28T04:57:25Z</time>
      </trkpt>
      <trkpt lat="45.18105" lon="6.28454">
        <ele>1358</ele>
        <time>2021-02-28T04:57:26Z</time>
      </trkpt>
      <trkpt lat="45.18103" lon="6.28453">
        <ele>1358</ele>
        <time>2021-02-28T04:57:27Z</time>
      </trkpt>
      <trkpt lat="45.18102" lon="6.28453">
        <ele>1358</ele>
        <time>2021-02-28T04:57:28Z</time>
      </trkpt>
      <trkpt lat="45.181" lon="6.28452">
        <ele>1358.4</ele>
        <time>2021-02-28T04:57:29Z</time>
      </trkpt>
      <trkpt lat="45.18099" lon="6.28452">
        <ele>1358.2</ele>
        <time>2021-02-28T04:57:30Z</time>
      </trkpt>
      <trkpt lat="45.18098" lon="6.28451">
        <ele>1358.4</ele>
        <time>2021-02-28T04:57:31Z</time>
      </trkpt>
      <trkpt lat="45.18096" lon="6.28452">
        <ele>1358.4</ele>
        <time>2021-02-28T04:57:32Z</time>
      </trkpt>
      <trkpt lat="45.18095" lon="6.28452">
        <ele>1358.2</ele>
        <time>2021-02-28T04:57:33Z</time>
      </trkpt>
      <trkpt lat="45.18094" lon="6.28453">
        <ele>1358.2</ele>
        <time>2021-02-28T04:57:34Z</time>
      </trkpt>
      <trkpt lat="45.18093" lon="6.28453">
        <ele>1358.2</ele>
        <time>2021-02-28T04:57:35Z</time>
      </trkpt>
      <trkpt lat="45.18091" lon="6.28453">
        <ele>1358.4</ele>
        <time>2021-02-28T04:57:36Z</time>
      </trkpt>
      <trkpt lat="45.1809" lon="6.28454">
        <ele>1358.6</ele>
        <time>2021-02-28T04:57:37Z</time>
      </trkpt>
      <trkpt lat="45.18089" lon="6.28454">
        <ele>1358.8</ele>
        <time>2021-02-28T04:57:38Z</time>
      </trkpt>
      <trkpt lat="45.18088" lon="6.28455">
        <ele>1358.8</ele>
        <time>2021-02-28T04:57:39Z</time>
      </trkpt>
      <trkpt lat="45.18087" lon="6.28455">
        <ele>1358.6</ele>
        <time>2021-02-28T04:57:40Z</time>
      </trkpt>
      <trkpt lat="45.18085" lon="6.28456">
        <ele>1358.6</ele>
        <time>2021-02-28T04:57:41Z</time>
      </trkpt>
      <trkpt lat="45.18084" lon="6.28456">
        <ele>1358.8</ele>
        <time>2021-02-28T04:57:42Z</time>
      </trkpt>
      <trkpt lat="45.18083" lon="6.28457">
        <ele>1358.4</ele>
        <time>2021-02-28T04:57:43Z</time>
      </trkpt>
      <trkpt lat="45.18082" lon="6.28457">
        <ele>1358.6</ele>
        <time>2021-02-28T04:57:44Z</time>
      </trkpt>
      <trkpt lat="45.18081" lon="6.28458">
        <ele>1358.6</ele>
        <time>2021-02-28T04:57:45Z</time>
      </trkpt>
      <trkpt lat="45.1808" lon="6.28458">
        <ele>1358.8</ele>
        <time>2021-02-28T04:57:46Z</time>
      </trkpt>
      <trkpt lat="45.18079" lon="6.28459">
        <ele>1359</ele>
        <time>2021-02-28T04:57:47Z</time>
      </trkpt>
      <trkpt lat="45.18078" lon="6.28459">
        <ele>1359.2</ele>
        <time>2021-02-28T04:57:48Z</time>
      </trkpt>
      <trkpt lat="45.18076" lon="6.28459">
        <ele>1359</ele>
        <time>2021-02-28T04:57:49Z</time>
      </trkpt>
      <trkpt lat="45.18075" lon="6.28458">
        <ele>1359</ele>
        <time>2021-02-28T04:57:50Z</time>
      </trkpt>
      <trkpt lat="45.18074" lon="6.28458">
        <ele>1358.8</ele>
        <time>2021-02-28T04:57:51Z</time>
      </trkpt>
      <trkpt lat="45.18073" lon="6.28458">
        <ele>1359</ele>
        <time>2021-02-28T04:57:52Z</time>
      </trkpt>
      <trkpt lat="45.18072" lon="6.28458">
        <ele>1359.2</ele>
        <time>2021-02-28T04:57:53Z</time>
      </trkpt>
      <trkpt lat="45.1807" lon="6.28458">
        <ele>1359</ele>
        <time>2021-02-28T04:57:54Z</time>
      </trkpt>
      <trkpt lat="45.18069" lon="6.28458">
        <ele>1359.2</ele>
        <time>2021-02-28T04:57:55Z</time>
      </trkpt>
      <trkpt lat="45.18068" lon="6.28459">
        <ele>1359</ele>
        <time>2021-02-28T04:57:56Z</time>
      </trkpt>
      <trkpt lat="45.18068" lon="6.28459">
        <ele>1359.2</ele>
        <time>2021-02-28T04:57:57Z</time>
      </trkpt>
      <trkpt lat="45.18067" lon="6.2846">
        <ele>1359</ele>
        <time>2021-02-28T04:57:58Z</time>
      </trkpt>
      <trkpt lat="45.18066" lon="6.28461">
        <ele>1359.4</ele>
        <time>2021-02-28T04:57:59Z</time>
      </trkpt>
      <trkpt lat="45.18066" lon="6.28462">
        <ele>1359.4</ele>
        <time>2021-02-28T04:58:00Z</time>
      </trkpt>
      <trkpt lat="45.18065" lon="6.28463">
        <ele>1359.2</ele>
        <time>2021-02-28T04:58:01Z</time>
      </trkpt>
      <trkpt lat="45.18064" lon="6.28464">
        <ele>1359.4</ele>
        <time>2021-02-28T04:58:02Z</time>
      </trkpt>
      <trkpt lat="45.18064" lon="6.28464">
        <ele>1359.2</ele>
        <time>2021-02-28T04:58:03Z</time>
      </trkpt>
      <trkpt lat="45.18063" lon="6.28465">
        <ele>1359.4</ele>
        <time>2021-02-28T04:58:04Z</time>
      </trkpt>
      <trkpt lat="45.18062" lon="6.28466">
        <ele>1359.4</ele>
        <time>2021-02-28T04:58:05Z</time>
      </trkpt>
      <trkpt lat="45.18062" lon="6.28467">
        <ele>1359.6</ele>
        <time>2021-02-28T04:58:06Z</time>
      </trkpt>
      <trkpt lat="45.1806" lon="6.28468">
        <ele>1359.6</ele>
        <time>2021-02-28T04:58:07Z</time>
      </trkpt>
      <trkpt lat="45.18059" lon="6.28469">
        <ele>1359.6</ele>
        <time>2021-02-28T04:58:08Z</time>
      </trkpt>
      <trkpt lat="45.18057" lon="6.2847">
        <ele>1359.6</ele>
        <time>2021-02-28T04:58:09Z</time>
      </trkpt>
      <trkpt lat="45.18056" lon="6.2847">
        <ele>1359.6</ele>
        <time>2021-02-28T04:58:10Z</time>
      </trkpt>
      <trkpt lat="45.18054" lon="6.28471">
        <ele>1359.8</ele>
        <time>2021-02-28T04:58:11Z</time>
      </trkpt>
      <trkpt lat="45.18053" lon="6.28472">
        <ele>1360</ele>
        <time>2021-02-28T04:58:12Z</time>
      </trkpt>
      <trkpt lat="45.18052" lon="6.28473">
        <ele>1360.2</ele>
        <time>2021-02-28T04:58:13Z</time>
      </trkpt>
      <trkpt lat="45.18051" lon="6.28473">
        <ele>1360.2</ele>
        <time>2021-02-28T04:58:14Z</time>
      </trkpt>
      <trkpt lat="45.18051" lon="6.28473">
        <ele>1360.2</ele>
        <time>2021-02-28T04:58:15Z</time>
      </trkpt>
      <trkpt lat="45.1805" lon="6.28474">
        <ele>1360.6</ele>
        <time>2021-02-28T04:58:16Z</time>
      </trkpt>
      <trkpt lat="45.18049" lon="6.28474">
        <ele>1360.6</ele>
        <time>2021-02-28T04:58:17Z</time>
      </trkpt>
      <trkpt lat="45.18048" lon="6.28474">
        <ele>1360.8</ele>
        <time>2021-02-28T04:58:18Z</time>
      </trkpt>
      <trkpt lat="45.18047" lon="6.28474">
        <ele>1361</ele>
        <time>2021-02-28T04:58:19Z</time>
      </trkpt>
      <trkpt lat="45.18047" lon="6.28475">
        <ele>1361.4</ele>
        <time>2021-02-28T04:58:20Z</time>
      </trkpt>
      <trkpt lat="45.18046" lon="6.28475">
        <ele>1361.6</ele>
        <time>2021-02-28T04:58:21Z</time>
      </trkpt>
      <trkpt lat="45.18045" lon="6.28475">
        <ele>1361.2</ele>
        <time>2021-02-28T04:58:22Z</time>
      </trkpt>
      <trkpt lat="45.18045" lon="6.28475">
        <ele>1361</ele>
        <time>2021-02-28T04:58:23Z</time>
      </trkpt>
      <trkpt lat="45.18044" lon="6.28475">
        <ele>1360.8</ele>
        <time>2021-02-28T04:58:24Z</time>
      </trkpt>
      <trkpt lat="45.18044" lon="6.28475">
        <ele>1360.8</ele>
        <time>2021-02-28T04:58:25Z</time>
      </trkpt>
      <trkpt lat="45.18043" lon="6.28475">
        <ele>1360.8</ele>
        <time>2021-02-28T04:58:26Z</time>
      </trkpt>
      <trkpt lat="45.18043" lon="6.28475">
        <ele>1360.8</ele>
        <time>2021-02-28T04:58:27Z</time>
      </trkpt>
      <trkpt lat="45.18043" lon="6.28475">
        <ele>1360.8</ele>
        <time>2021-02-28T04:58:28Z</time>
      </trkpt>
      <trkpt lat="45.18042" lon="6.28475">
        <ele>1360.8</ele>
        <time>2021-02-28T04:58:29Z</time>
      </trkpt>
      <trkpt lat="45.18042" lon="6.28474">
        <ele>1360.8</ele>
        <time>2021-02-28T04:58:30Z</time>
      </trkpt>
      <trkpt lat="45.18041" lon="6.28474">
        <ele>1360.8</ele>
        <time>2021-02-28T04:58:31Z</time>
      </trkpt>
      <trkpt lat="45.18041" lon="6.28474">
        <ele>1360.8</ele>
        <time>2021-02-28T04:58:32Z</time>
      </trkpt>
      <trkpt lat="45.18041" lon="6.28474">
        <ele>1360.8</ele>
        <time>2021-02-28T04:58:33Z</time>
      </trkpt>
      <trkpt lat="45.1804" lon="6.28474">
        <ele>1360.6</ele>
        <time>2021-02-28T04:58:34Z</time>
      </trkpt>
      <trkpt lat="45.1804" lon="6.28474">
        <ele>1360.8</ele>
        <time>2021-02-28T04:58:35Z</time>
      </trkpt>
      <trkpt lat="45.1804" lon="6.28474">
        <ele>1360.6</ele>
        <time>2021-02-28T04:58:36Z</time>
      </trkpt>
      <trkpt lat="45.18039" lon="6.28474">
        <ele>1361</ele>
        <time>2021-02-28T04:58:37Z</time>
      </trkpt>
      <trkpt lat="45.18039" lon="6.28473">
        <ele>1361.4</ele>
        <time>2021-02-28T04:58:38Z</time>
      </trkpt>
      <trkpt lat="45.18038" lon="6.28473">
        <ele>1361.6</ele>
        <time>2021-02-28T04:58:39Z</time>
      </trkpt>
      <trkpt lat="45.18038" lon="6.28473">
        <ele>1361.8</ele>
        <time>2021-02-28T04:58:40Z</time>
      </trkpt>
      <trkpt lat="45.18038" lon="6.28473">
        <ele>1362.2</ele>
        <time>2021-02-28T04:58:41Z</time>
      </trkpt>
      <trkpt lat="45.18037" lon="6.28473">
        <ele>1362</ele>
        <time>2021-02-28T04:58:42Z</time>
      </trkpt>
      <trkpt lat="45.18037" lon="6.28473">
        <ele>1361.8</ele>
        <time>2021-02-28T04:58:43Z</time>
      </trkpt>
      <trkpt lat="45.18037" lon="6.28473">
        <ele>1362</ele>
        <time>2021-02-28T04:58:44Z</time>
      </trkpt>
      <trkpt lat="45.18037" lon="6.28473">
        <ele>1361.6</ele>
        <time>2021-02-28T04:58:45Z</time>
      </trkpt>
      <trkpt lat="45.18036" lon="6.28473">
        <ele>1361.2</ele>
        <time>2021-02-28T04:58:46Z</time>
      </trkpt>
      <trkpt lat="45.18036" lon="6.28473">
        <ele>1360.8</ele>
        <time>2021-02-28T04:58:47Z</time>
      </trkpt>
      <trkpt lat="45.18036" lon="6.28474">
        <ele>1360.8</ele>
        <time>2021-02-28T04:58:48Z</time>
      </trkpt>
      <trkpt lat="45.18035" lon="6.28474">
        <ele>1361.4</ele>
        <time>2021-02-28T04:58:49Z</time>
      </trkpt>
      <trkpt lat="45.18035" lon="6.28474">
        <ele>1361.4</ele>
        <time>2021-02-28T04:58:50Z</time>
      </trkpt>
      <trkpt lat="45.18035" lon="6.28475">
        <ele>1361.2</ele>
        <time>2021-02-28T04:58:51Z</time>
      </trkpt>
      <trkpt lat="45.18034" lon="6.28475">
        <ele>1361</ele>
        <time>2021-02-28T04:58:52Z</time>
      </trkpt>
      <trkpt lat="45.18034" lon="6.28475">
        <ele>1361</ele>
        <time>2021-02-28T04:58:53Z</time>
      </trkpt>
      <trkpt lat="45.18034" lon="6.28476">
        <ele>1361.2</ele>
        <time>2021-02-28T04:58:54Z</time>
      </trkpt>
      <trkpt lat="45.18033" lon="6.28476">
        <ele>1361.6</ele>
        <time>2021-02-28T04:58:55Z</time>
      </trkpt>
      <trkpt lat="45.18033" lon="6.28476">
        <ele>1361.8</ele>
        <time>2021-02-28T04:58:56Z</time>
      </trkpt>
      <trkpt lat="45.18033" lon="6.28477">
        <ele>1362</ele>
        <time>2021-02-28T04:58:57Z</time>
      </trkpt>
      <trkpt lat="45.18032" lon="6.28477">
        <ele>1362.2</ele>
        <time>2021-02-28T04:58:58Z</time>
      </trkpt>
      <trkpt lat="45.18031" lon="6.28479">
        <ele>1362.4</ele>
        <time>2021-02-28T04:58:59Z</time>
      </trkpt>
      <trkpt lat="45.18031" lon="6.28479">
        <ele>1362.2</ele>
        <time>2021-02-28T04:59:00Z</time>
      </trkpt>
      <trkpt lat="45.18029" lon="6.2848">
        <ele>1362.2</ele>
        <time>2021-02-28T04:59:01Z</time>
      </trkpt>
      <trkpt lat="45.18029" lon="6.2848">
        <ele>1362.4</ele>
        <time>2021-02-28T04:59:02Z</time>
      </trkpt>
      <trkpt lat="45.18029" lon="6.2848">
        <ele>1362.6</ele>
        <time>2021-02-28T04:59:03Z</time>
      </trkpt>
      <trkpt lat="45.18029" lon="6.2848">
        <ele>1363</ele>
        <time>2021-02-28T04:59:04Z</time>
      </trkpt>
      <trkpt lat="45.18027" lon="6.28481">
        <ele>1363</ele>
        <time>2021-02-28T04:59:05Z</time>
      </trkpt>
      <trkpt lat="45.18027" lon="6.28481">
        <ele>1363</ele>
        <time>2021-02-28T04:59:06Z</time>
      </trkpt>
      <trkpt lat="45.18027" lon="6.28481">
        <ele>1362.8</ele>
        <time>2021-02-28T04:59:07Z</time>
      </trkpt>
      <trkpt lat="45.18025" lon="6.28481">
        <ele>1363</ele>
        <time>2021-02-28T04:59:08Z</time>
      </trkpt>
      <trkpt lat="45.18025" lon="6.28481">
        <ele>1363</ele>
        <time>2021-02-28T04:59:09Z</time>
      </trkpt>
      <trkpt lat="45.18025" lon="6.28481">
        <ele>1363</ele>
        <time>2021-02-28T04:59:10Z</time>
      </trkpt>
      <trkpt lat="45.18024" lon="6.28481">
        <ele>1362.8</ele>
        <time>2021-02-28T04:59:11Z</time>
      </trkpt>
      <trkpt lat="45.18024" lon="6.28482">
        <ele>1362.8</ele>
        <time>2021-02-28T04:59:12Z</time>
      </trkpt>
      <trkpt lat="45.18023" lon="6.28482">
        <ele>1363</ele>
        <time>2021-02-28T04:59:13Z</time>
      </trkpt>
      <trkpt lat="45.18022" lon="6.28483">
        <ele>1362.8</ele>
        <time>2021-02-28T04:59:14Z</time>
      </trkpt>
      <trkpt lat="45.18022" lon="6.28483">
        <ele>1362.8</ele>
        <time>2021-02-28T04:59:15Z</time>
      </trkpt>
      <trkpt lat="45.18021" lon="6.28483">
        <ele>1362.4</ele>
        <time>2021-02-28T04:59:16Z</time>
      </trkpt>
      <trkpt lat="45.18021" lon="6.28484">
        <ele>1362.2</ele>
        <time>2021-02-28T04:59:17Z</time>
      </trkpt>
      <trkpt lat="45.18019" lon="6.28483">
        <ele>1362.2</ele>
        <time>2021-02-28T04:59:18Z</time>
      </trkpt>
      <trkpt lat="45.18019" lon="6.28483">
        <ele>1362</ele>
        <time>2021-02-28T04:59:19Z</time>
      </trkpt>
      <trkpt lat="45.18019" lon="6.28483">
        <ele>1362</ele>
        <time>2021-02-28T04:59:20Z</time>
      </trkpt>
      <trkpt lat="45.18017" lon="6.28484">
        <ele>1362</ele>
        <time>2021-02-28T04:59:21Z</time>
      </trkpt>
      <trkpt lat="45.18017" lon="6.28484">
        <ele>1361.8</ele>
        <time>2021-02-28T04:59:22Z</time>
      </trkpt>
      <trkpt lat="45.18015" lon="6.28487">
        <ele>1362</ele>
        <time>2021-02-28T04:59:23Z</time>
      </trkpt>
      <trkpt lat="45.18015" lon="6.28487">
        <ele>1361.8</ele>
        <time>2021-02-28T04:59:24Z</time>
      </trkpt>
      <trkpt lat="45.18015" lon="6.28487">
        <ele>1361.8</ele>
        <time>2021-02-28T04:59:25Z</time>
      </trkpt>
      <trkpt lat="45.18015" lon="6.28487">
        <ele>1361.4</ele>
        <time>2021-02-28T04:59:26Z</time>
      </trkpt>
      <trkpt lat="45.18014" lon="6.28489">
        <ele>1361.6</ele>
        <time>2021-02-28T04:59:27Z</time>
      </trkpt>
      <trkpt lat="45.18014" lon="6.28489">
        <ele>1361.4</ele>
        <time>2021-02-28T04:59:28Z</time>
      </trkpt>
      <trkpt lat="45.18012" lon="6.28488">
        <ele>1361.2</ele>
        <time>2021-02-28T04:59:29Z</time>
      </trkpt>
      <trkpt lat="45.18012" lon="6.28488">
        <ele>1361.4</ele>
        <time>2021-02-28T04:59:30Z</time>
      </trkpt>
      <trkpt lat="45.1801" lon="6.28488">
        <ele>1361.4</ele>
        <time>2021-02-28T04:59:31Z</time>
      </trkpt>
      <trkpt lat="45.1801" lon="6.28488">
        <ele>1361.2</ele>
        <time>2021-02-28T04:59:32Z</time>
      </trkpt>
      <trkpt lat="45.18007" lon="6.28488">
        <ele>1361.2</ele>
        <time>2021-02-28T04:59:33Z</time>
      </trkpt>
      <trkpt lat="45.18007" lon="6.28488">
        <ele>1361.2</ele>
        <time>2021-02-28T04:59:34Z</time>
      </trkpt>
      <trkpt lat="45.18005" lon="6.28486">
        <ele>1360.8</ele>
        <time>2021-02-28T04:59:35Z</time>
      </trkpt>
      <trkpt lat="45.18005" lon="6.28486">
        <ele>1361.2</ele>
        <time>2021-02-28T04:59:36Z</time>
      </trkpt>
      <trkpt lat="45.18003" lon="6.28485">
        <ele>1361.2</ele>
        <time>2021-02-28T04:59:37Z</time>
      </trkpt>
      <trkpt lat="45.18003" lon="6.28485">
        <ele>1361.2</ele>
        <time>2021-02-28T04:59:38Z</time>
      </trkpt>
      <trkpt lat="45.18003" lon="6.28485">
        <ele>1361.2</ele>
        <time>2021-02-28T04:59:39Z</time>
      </trkpt>
      <trkpt lat="45.18001" lon="6.28485">
        <ele>1361</ele>
        <time>2021-02-28T04:59:40Z</time>
      </trkpt>
      <trkpt lat="45.17999" lon="6.28484">
        <ele>1361.4</ele>
        <time>2021-02-28T04:59:41Z</time>
      </trkpt>
      <trkpt lat="45.17998" lon="6.28484">
        <ele>1361.2</ele>
        <time>2021-02-28T04:59:42Z</time>
      </trkpt>
      <trkpt lat="45.17996" lon="6.28484">
        <ele>1361.4</ele>
        <time>2021-02-28T04:59:43Z</time>
      </trkpt>
      <trkpt lat="45.17995" lon="6.28484">
        <ele>1361.4</ele>
        <time>2021-02-28T04:59:44Z</time>
      </trkpt>
      <trkpt lat="45.17993" lon="6.28483">
        <ele>1361.4</ele>
        <time>2021-02-28T04:59:45Z</time>
      </trkpt>
      <trkpt lat="45.17991" lon="6.28483">
        <ele>1361.2</ele>
        <time>2021-02-28T04:59:46Z</time>
      </trkpt>
      <trkpt lat="45.1799" lon="6.28483">
        <ele>1361.2</ele>
        <time>2021-02-28T04:59:47Z</time>
      </trkpt>
      <trkpt lat="45.17989" lon="6.28483">
        <ele>1361</ele>
        <time>2021-02-28T04:59:48Z</time>
      </trkpt>
      <trkpt lat="45.17987" lon="6.28483">
        <ele>1361</ele>
        <time>2021-02-28T04:59:49Z</time>
      </trkpt>
      <trkpt lat="45.17986" lon="6.28483">
        <ele>1361.4</ele>
        <time>2021-02-28T04:59:50Z</time>
      </trkpt>
      <trkpt lat="45.17984" lon="6.28483">
        <ele>1361.2</ele>
        <time>2021-02-28T04:59:51Z</time>
      </trkpt>
      <trkpt lat="45.17983" lon="6.28483">
        <ele>1361</ele>
        <time>2021-02-28T04:59:52Z</time>
      </trkpt>
      <trkpt lat="45.17982" lon="6.28483">
        <ele>1361</ele>
        <time>2021-02-28T04:59:53Z</time>
      </trkpt>
      <trkpt lat="45.1798" lon="6.28483">
        <ele>1361</ele>
        <time>2021-02-28T04:59:54Z</time>
      </trkpt>
      <trkpt lat="45.17979" lon="6.28484">
        <ele>1361</ele>
        <time>2021-02-28T04:59:55Z</time>
      </trkpt>
      <trkpt lat="45.17977" lon="6.28484">
        <ele>1361</ele>
        <time>2021-02-28T04:59:56Z</time>
      </trkpt>
      <trkpt lat="45.17976" lon="6.28484">
        <ele>1361</ele>
        <time>2021-02-28T04:59:57Z</time>
      </trkpt>
      <trkpt lat="45.17975" lon="6.28484">
        <ele>1361.2</ele>
        <time>2021-02-28T04:59:58Z</time>
      </trkpt>
      <trkpt lat="45.17973" lon="6.28485">
        <ele>1361.2</ele>
        <time>2021-02-28T04:59:59Z</time>
      </trkpt>
      <trkpt lat="45.17972" lon="6.28485">
        <ele>1361.2</ele>
        <time>2021-02-28T05:00:00Z</time>
      </trkpt>
      <trkpt lat="45.17971" lon="6.28485">
        <ele>1361</ele>
        <time>2021-02-28T05:00:01Z</time>
      </trkpt>
      <trkpt lat="45.1797" lon="6.28485">
        <ele>1361.4</ele>
        <time>2021-02-28T05:00:02Z</time>
      </trkpt>
      <trkpt lat="45.17969" lon="6.28486">
        <ele>1361.6</ele>
        <time>2021-02-28T05:00:03Z</time>
      </trkpt>
      <trkpt lat="45.17968" lon="6.28486">
        <ele>1361.8</ele>
        <time>2021-02-28T05:00:04Z</time>
      </trkpt>
      <trkpt lat="45.17967" lon="6.28486">
        <ele>1362</ele>
        <time>2021-02-28T05:00:05Z</time>
      </trkpt>
      <trkpt lat="45.17966" lon="6.28486">
        <ele>1362</ele>
        <time>2021-02-28T05:00:06Z</time>
      </trkpt>
      <trkpt lat="45.17964" lon="6.28486">
        <ele>1362.2</ele>
        <time>2021-02-28T05:00:07Z</time>
      </trkpt>
      <trkpt lat="45.17964" lon="6.28486">
        <ele>1362.4</ele>
        <time>2021-02-28T05:00:08Z</time>
      </trkpt>
      <trkpt lat="45.17964" lon="6.28485">
        <ele>1362.4</ele>
        <time>2021-02-28T05:00:09Z</time>
      </trkpt>
      <trkpt lat="45.17963" lon="6.28484">
        <ele>1362.6</ele>
        <time>2021-02-28T05:00:10Z</time>
      </trkpt>
      <trkpt lat="45.17963" lon="6.28484">
        <ele>1363</ele>
        <time>2021-02-28T05:00:11Z</time>
      </trkpt>
      <trkpt lat="45.17963" lon="6.28483">
        <ele>1363</ele>
        <time>2021-02-28T05:00:12Z</time>
      </trkpt>
      <trkpt lat="45.17962" lon="6.28482">
        <ele>1363.2</ele>
        <time>2021-02-28T05:00:13Z</time>
      </trkpt>
      <trkpt lat="45.17962" lon="6.28482">
        <ele>1363.6</ele>
        <time>2021-02-28T05:00:14Z</time>
      </trkpt>
      <trkpt lat="45.17961" lon="6.28481">
        <ele>1363.8</ele>
        <time>2021-02-28T05:00:15Z</time>
      </trkpt>
      <trkpt lat="45.17961" lon="6.2848">
        <ele>1363.8</ele>
        <time>2021-02-28T05:00:16Z</time>
      </trkpt>
      <trkpt lat="45.17961" lon="6.2848">
        <ele>1363.8</ele>
        <time>2021-02-28T05:00:17Z</time>
      </trkpt>
      <trkpt lat="45.1796" lon="6.28479">
        <ele>1364</ele>
        <time>2021-02-28T05:00:18Z</time>
      </trkpt>
      <trkpt lat="45.1796" lon="6.28478">
        <ele>1364.2</ele>
        <time>2021-02-28T05:00:19Z</time>
      </trkpt>
      <trkpt lat="45.1796" lon="6.28478">
        <ele>1364.4</ele>
        <time>2021-02-28T05:00:20Z</time>
      </trkpt>
      <trkpt lat="45.17959" lon="6.28477">
        <ele>1364.6</ele>
        <time>2021-02-28T05:00:21Z</time>
      </trkpt>
      <trkpt lat="45.17959" lon="6.28476">
        <ele>1364.4</ele>
        <time>2021-02-28T05:00:22Z</time>
      </trkpt>
      <trkpt lat="45.17958" lon="6.28476">
        <ele>1364.2</ele>
        <time>2021-02-28T05:00:23Z</time>
      </trkpt>
      <trkpt lat="45.17958" lon="6.28475">
        <ele>1363.6</ele>
        <time>2021-02-28T05:00:24Z</time>
      </trkpt>
      <trkpt lat="45.17958" lon="6.28474">
        <ele>1363.2</ele>
        <time>2021-02-28T05:00:25Z</time>
      </trkpt>
      <trkpt lat="45.17957" lon="6.28474">
        <ele>1363</ele>
        <time>2021-02-28T05:00:26Z</time>
      </trkpt>
      <trkpt lat="45.17956" lon="6.28473">
        <ele>1362.6</ele>
        <time>2021-02-28T05:00:27Z</time>
      </trkpt>
      <trkpt lat="45.17953" lon="6.2847">
        <ele>1362.4</ele>
        <time>2021-02-28T05:00:28Z</time>
      </trkpt>
      <trkpt lat="45.17953" lon="6.2847">
        <ele>1362.4</ele>
        <time>2021-02-28T05:00:29Z</time>
      </trkpt>
      <trkpt lat="45.17951" lon="6.28468">
        <ele>1362.2</ele>
        <time>2021-02-28T05:00:30Z</time>
      </trkpt>
      <trkpt lat="45.17951" lon="6.28468">
        <ele>1362.6</ele>
        <time>2021-02-28T05:00:31Z</time>
      </trkpt>
      <trkpt lat="45.17951" lon="6.28468">
        <ele>1362.8</ele>
        <time>2021-02-28T05:00:32Z</time>
      </trkpt>
      <trkpt lat="45.1795" lon="6.28467">
        <ele>1363</ele>
        <time>2021-02-28T05:00:33Z</time>
      </trkpt>
      <trkpt lat="45.17949" lon="6.28466">
        <ele>1363</ele>
        <time>2021-02-28T05:00:34Z</time>
      </trkpt>
      <trkpt lat="45.17947" lon="6.28465">
        <ele>1362.6</ele>
        <time>2021-02-28T05:00:35Z</time>
      </trkpt>
      <trkpt lat="45.17946" lon="6.28464">
        <ele>1362.4</ele>
        <time>2021-02-28T05:00:36Z</time>
      </trkpt>
      <trkpt lat="45.17945" lon="6.28463">
        <ele>1362.4</ele>
        <time>2021-02-28T05:00:37Z</time>
      </trkpt>
      <trkpt lat="45.17944" lon="6.28462">
        <ele>1362.2</ele>
        <time>2021-02-28T05:00:38Z</time>
      </trkpt>
      <trkpt lat="45.17942" lon="6.28461">
        <ele>1362.2</ele>
        <time>2021-02-28T05:00:39Z</time>
      </trkpt>
      <trkpt lat="45.17941" lon="6.2846">
        <ele>1362.2</ele>
        <time>2021-02-28T05:00:40Z</time>
      </trkpt>
      <trkpt lat="45.1794" lon="6.2846">
        <ele>1362.6</ele>
        <time>2021-02-28T05:00:41Z</time>
      </trkpt>
      <trkpt lat="45.17938" lon="6.2846">
        <ele>1362.6</ele>
        <time>2021-02-28T05:00:42Z</time>
      </trkpt>
      <trkpt lat="45.17937" lon="6.2846">
        <ele>1362.6</ele>
        <time>2021-02-28T05:00:43Z</time>
      </trkpt>
      <trkpt lat="45.17936" lon="6.28459">
        <ele>1363</ele>
        <time>2021-02-28T05:00:44Z</time>
      </trkpt>
      <trkpt lat="45.17934" lon="6.28459">
        <ele>1362.6</ele>
        <time>2021-02-28T05:00:45Z</time>
      </trkpt>
      <trkpt lat="45.17933" lon="6.28459">
        <ele>1363</ele>
        <time>2021-02-28T05:00:46Z</time>
      </trkpt>
      <trkpt lat="45.17932" lon="6.28459">
        <ele>1363</ele>
        <time>2021-02-28T05:00:47Z</time>
      </trkpt>
      <trkpt lat="45.1793" lon="6.2846">
        <ele>1363</ele>
        <time>2021-02-28T05:00:48Z</time>
      </trkpt>
      <trkpt lat="45.17929" lon="6.2846">
        <ele>1363.2</ele>
        <time>2021-02-28T05:00:49Z</time>
      </trkpt>
      <trkpt lat="45.17928" lon="6.2846">
        <ele>1363</ele>
        <time>2021-02-28T05:00:50Z</time>
      </trkpt>
      <trkpt lat="45.17926" lon="6.28461">
        <ele>1363.2</ele>
        <time>2021-02-28T05:00:51Z</time>
      </trkpt>
      <trkpt lat="45.17925" lon="6.28461">
        <ele>1363.2</ele>
        <time>2021-02-28T05:00:52Z</time>
      </trkpt>
      <trkpt lat="45.17923" lon="6.28462">
        <ele>1363.2</ele>
        <time>2021-02-28T05:00:53Z</time>
      </trkpt>
      <trkpt lat="45.17922" lon="6.28461">
        <ele>1363</ele>
        <time>2021-02-28T05:00:54Z</time>
      </trkpt>
      <trkpt lat="45.17921" lon="6.28461">
        <ele>1362.8</ele>
        <time>2021-02-28T05:00:55Z</time>
      </trkpt>
      <trkpt lat="45.1792" lon="6.2846">
        <ele>1363.2</ele>
        <time>2021-02-28T05:00:56Z</time>
      </trkpt>
      <trkpt lat="45.17919" lon="6.2846">
        <ele>1363</ele>
        <time>2021-02-28T05:00:57Z</time>
      </trkpt>
      <trkpt lat="45.17918" lon="6.28459">
        <ele>1363.2</ele>
        <time>2021-02-28T05:00:58Z</time>
      </trkpt>
      <trkpt lat="45.17917" lon="6.28459">
        <ele>1363.4</ele>
        <time>2021-02-28T05:00:59Z</time>
      </trkpt>
      <trkpt lat="45.17916" lon="6.28458">
        <ele>1363.2</ele>
        <time>2021-02-28T05:01:00Z</time>
      </trkpt>
      <trkpt lat="45.17915" lon="6.28458">
        <ele>1363.4</ele>
        <time>2021-02-28T05:01:01Z</time>
      </trkpt>
      <trkpt lat="45.17914" lon="6.28457">
        <ele>1363.4</ele>
        <time>2021-02-28T05:01:02Z</time>
      </trkpt>
      <trkpt lat="45.17913" lon="6.28457">
        <ele>1363.4</ele>
        <time>2021-02-28T05:01:03Z</time>
      </trkpt>
      <trkpt lat="45.17912" lon="6.28457">
        <ele>1363</ele>
        <time>2021-02-28T05:01:04Z</time>
      </trkpt>
      <trkpt lat="45.1791" lon="6.28456">
        <ele>1363.4</ele>
        <time>2021-02-28T05:01:05Z</time>
      </trkpt>
      <trkpt lat="45.17909" lon="6.28456">
        <ele>1363.2</ele>
        <time>2021-02-28T05:01:06Z</time>
      </trkpt>
      <trkpt lat="45.17908" lon="6.28456">
        <ele>1363.2</ele>
        <time>2021-02-28T05:01:07Z</time>
      </trkpt>
      <trkpt lat="45.17907" lon="6.28455">
        <ele>1363.2</ele>
        <time>2021-02-28T05:01:08Z</time>
      </trkpt>
      <trkpt lat="45.17906" lon="6.28455">
        <ele>1363.2</ele>
        <time>2021-02-28T05:01:09Z</time>
      </trkpt>
      <trkpt lat="45.17904" lon="6.28455">
        <ele>1363.6</ele>
        <time>2021-02-28T05:01:10Z</time>
      </trkpt>
      <trkpt lat="45.17903" lon="6.28454">
        <ele>1363.2</ele>
        <time>2021-02-28T05:01:11Z</time>
      </trkpt>
      <trkpt lat="45.17903" lon="6.28453">
        <ele>1363.4</ele>
        <time>2021-02-28T05:01:12Z</time>
      </trkpt>
      <trkpt lat="45.17902" lon="6.28452">
        <ele>1363.6</ele>
        <time>2021-02-28T05:01:13Z</time>
      </trkpt>
      <trkpt lat="45.17901" lon="6.28451">
        <ele>1363.8</ele>
        <time>2021-02-28T05:01:14Z</time>
      </trkpt>
      <trkpt lat="45.179" lon="6.2845">
        <ele>1364</ele>
        <time>2021-02-28T05:01:15Z</time>
      </trkpt>
      <trkpt lat="45.17899" lon="6.28449">
        <ele>1364.2</ele>
        <time>2021-02-28T05:01:16Z</time>
      </trkpt>
      <trkpt lat="45.17898" lon="6.28448">
        <ele>1363.8</ele>
        <time>2021-02-28T05:01:17Z</time>
      </trkpt>
      <trkpt lat="45.17897" lon="6.28447">
        <ele>1363.8</ele>
        <time>2021-02-28T05:01:18Z</time>
      </trkpt>
      <trkpt lat="45.17896" lon="6.28446">
        <ele>1363.8</ele>
        <time>2021-02-28T05:01:19Z</time>
      </trkpt>
      <trkpt lat="45.17895" lon="6.28445">
        <ele>1363.6</ele>
        <time>2021-02-28T05:01:20Z</time>
      </trkpt>
      <trkpt lat="45.17894" lon="6.28444">
        <ele>1363.8</ele>
        <time>2021-02-28T05:01:21Z</time>
      </trkpt>
      <trkpt lat="45.17893" lon="6.28443">
        <ele>1364</ele>
        <time>2021-02-28T05:01:22Z</time>
      </trkpt>
      <trkpt lat="45.17892" lon="6.28443">
        <ele>1364</ele>
        <time>2021-02-28T05:01:23Z</time>
      </trkpt>
      <trkpt lat="45.17891" lon="6.28442">
        <ele>1364.2</ele>
        <time>2021-02-28T05:01:24Z</time>
      </trkpt>
      <trkpt lat="45.1789" lon="6.28441">
        <ele>1364</ele>
        <time>2021-02-28T05:01:25Z</time>
      </trkpt>
      <trkpt lat="45.17889" lon="6.2844">
        <ele>1364.2</ele>
        <time>2021-02-28T05:01:26Z</time>
      </trkpt>
      <trkpt lat="45.17888" lon="6.2844">
        <ele>1364</ele>
        <time>2021-02-28T05:01:27Z</time>
      </trkpt>
      <trkpt lat="45.17886" lon="6.28441">
        <ele>1364</ele>
        <time>2021-02-28T05:01:28Z</time>
      </trkpt>
      <trkpt lat="45.17885" lon="6.28441">
        <ele>1364.4</ele>
        <time>2021-02-28T05:01:29Z</time>
      </trkpt>
      <trkpt lat="45.17884" lon="6.28441">
        <ele>1364.2</ele>
        <time>2021-02-28T05:01:30Z</time>
      </trkpt>
      <trkpt lat="45.17883" lon="6.28441">
        <ele>1364.2</ele>
        <time>2021-02-28T05:01:31Z</time>
      </trkpt>
      <trkpt lat="45.17881" lon="6.28441">
        <ele>1364.6</ele>
        <time>2021-02-28T05:01:32Z</time>
      </trkpt>
      <trkpt lat="45.1788" lon="6.28441">
        <ele>1364.6</ele>
        <time>2021-02-28T05:01:33Z</time>
      </trkpt>
      <trkpt lat="45.17879" lon="6.28441">
        <ele>1364.8</ele>
        <time>2021-02-28T05:01:34Z</time>
      </trkpt>
      <trkpt lat="45.17878" lon="6.28441">
        <ele>1364.6</ele>
        <time>2021-02-28T05:01:35Z</time>
      </trkpt>
      <trkpt lat="45.17877" lon="6.28441">
        <ele>1365</ele>
        <time>2021-02-28T05:01:36Z</time>
      </trkpt>
      <trkpt lat="45.17876" lon="6.28441">
        <ele>1364.8</ele>
        <time>2021-02-28T05:01:37Z</time>
      </trkpt>
      <trkpt lat="45.17875" lon="6.28441">
        <ele>1364.8</ele>
        <time>2021-02-28T05:01:38Z</time>
      </trkpt>
      <trkpt lat="45.17874" lon="6.2844">
        <ele>1365.2</ele>
        <time>2021-02-28T05:01:39Z</time>
      </trkpt>
      <trkpt lat="45.17873" lon="6.2844">
        <ele>1365.4</ele>
        <time>2021-02-28T05:01:40Z</time>
      </trkpt>
      <trkpt lat="45.17872" lon="6.2844">
        <ele>1365.8</ele>
        <time>2021-02-28T05:01:41Z</time>
      </trkpt>
      <trkpt lat="45.17871" lon="6.2844">
        <ele>1365.6</ele>
        <time>2021-02-28T05:01:42Z</time>
      </trkpt>
      <trkpt lat="45.1787" lon="6.28439">
        <ele>1366</ele>
        <time>2021-02-28T05:01:43Z</time>
      </trkpt>
      <trkpt lat="45.17869" lon="6.28439">
        <ele>1366.2</ele>
        <time>2021-02-28T05:01:44Z</time>
      </trkpt>
      <trkpt lat="45.17868" lon="6.28438">
        <ele>1366.2</ele>
        <time>2021-02-28T05:01:45Z</time>
      </trkpt>
      <trkpt lat="45.17867" lon="6.28437">
        <ele>1366.6</ele>
        <time>2021-02-28T05:01:46Z</time>
      </trkpt>
      <trkpt lat="45.17866" lon="6.28437">
        <ele>1366.4</ele>
        <time>2021-02-28T05:01:47Z</time>
      </trkpt>
      <trkpt lat="45.17865" lon="6.28436">
        <ele>1366.6</ele>
        <time>2021-02-28T05:01:48Z</time>
      </trkpt>
      <trkpt lat="45.17864" lon="6.28435">
        <ele>1366.6</ele>
        <time>2021-02-28T05:01:49Z</time>
      </trkpt>
      <trkpt lat="45.17863" lon="6.28434">
        <ele>1366.6</ele>
        <time>2021-02-28T05:01:50Z</time>
      </trkpt>
      <trkpt lat="45.17862" lon="6.28434">
        <ele>1366.8</ele>
        <time>2021-02-28T05:01:51Z</time>
      </trkpt>
      <trkpt lat="45.17862" lon="6.28433">
        <ele>1366.6</ele>
        <time>2021-02-28T05:01:52Z</time>
      </trkpt>
      <trkpt lat="45.17861" lon="6.28432">
        <ele>1367</ele>
        <time>2021-02-28T05:01:53Z</time>
      </trkpt>
      <trkpt lat="45.1786" lon="6.28431">
        <ele>1367.2</ele>
        <time>2021-02-28T05:01:54Z</time>
      </trkpt>
      <trkpt lat="45.17859" lon="6.2843">
        <ele>1367.2</ele>
        <time>2021-02-28T05:01:55Z</time>
      </trkpt>
      <trkpt lat="45.17858" lon="6.28429">
        <ele>1367.2</ele>
        <time>2021-02-28T05:01:56Z</time>
      </trkpt>
      <trkpt lat="45.17857" lon="6.28429">
        <ele>1367.2</ele>
        <time>2021-02-28T05:01:57Z</time>
      </trkpt>
      <trkpt lat="45.17856" lon="6.28428">
        <ele>1367</ele>
        <time>2021-02-28T05:01:58Z</time>
      </trkpt>
      <trkpt lat="45.17855" lon="6.28427">
        <ele>1367</ele>
        <time>2021-02-28T05:01:59Z</time>
      </trkpt>
      <trkpt lat="45.17854" lon="6.28426">
        <ele>1367</ele>
        <time>2021-02-28T05:02:00Z</time>
      </trkpt>
      <trkpt lat="45.17853" lon="6.28425">
        <ele>1367.2</ele>
        <time>2021-02-28T05:02:01Z</time>
      </trkpt>
      <trkpt lat="45.17852" lon="6.28423">
        <ele>1367</ele>
        <time>2021-02-28T05:02:02Z</time>
      </trkpt>
      <trkpt lat="45.17851" lon="6.28422">
        <ele>1366.8</ele>
        <time>2021-02-28T05:02:03Z</time>
      </trkpt>
      <trkpt lat="45.1785" lon="6.28421">
        <ele>1366.8</ele>
        <time>2021-02-28T05:02:04Z</time>
      </trkpt>
      <trkpt lat="45.17849" lon="6.2842">
        <ele>1366.8</ele>
        <time>2021-02-28T05:02:05Z</time>
      </trkpt>
      <trkpt lat="45.17848" lon="6.28419">
        <ele>1366.6</ele>
        <time>2021-02-28T05:02:06Z</time>
      </trkpt>
      <trkpt lat="45.17847" lon="6.28417">
        <ele>1366.4</ele>
        <time>2021-02-28T05:02:07Z</time>
      </trkpt>
      <trkpt lat="45.17846" lon="6.28416">
        <ele>1366.2</ele>
        <time>2021-02-28T05:02:08Z</time>
      </trkpt>
      <trkpt lat="45.17845" lon="6.28416">
        <ele>1366.2</ele>
        <time>2021-02-28T05:02:09Z</time>
      </trkpt>
      <trkpt lat="45.17844" lon="6.28415">
        <ele>1366</ele>
        <time>2021-02-28T05:02:10Z</time>
      </trkpt>
      <trkpt lat="45.17843" lon="6.28414">
        <ele>1365.8</ele>
        <time>2021-02-28T05:02:11Z</time>
      </trkpt>
      <trkpt lat="45.17842" lon="6.28413">
        <ele>1365.8</ele>
        <time>2021-02-28T05:02:12Z</time>
      </trkpt>
      <trkpt lat="45.1784" lon="6.28412">
        <ele>1365.8</ele>
        <time>2021-02-28T05:02:13Z</time>
      </trkpt>
      <trkpt lat="45.17839" lon="6.28411">
        <ele>1366</ele>
        <time>2021-02-28T05:02:14Z</time>
      </trkpt>
      <trkpt lat="45.17838" lon="6.2841">
        <ele>1366</ele>
        <time>2021-02-28T05:02:15Z</time>
      </trkpt>
      <trkpt lat="45.17837" lon="6.2841">
        <ele>1366</ele>
        <time>2021-02-28T05:02:16Z</time>
      </trkpt>
      <trkpt lat="45.17836" lon="6.28409">
        <ele>1365.8</ele>
        <time>2021-02-28T05:02:17Z</time>
      </trkpt>
      <trkpt lat="45.17835" lon="6.28409">
        <ele>1365.8</ele>
        <time>2021-02-28T05:02:18Z</time>
      </trkpt>
      <trkpt lat="45.17833" lon="6.28409">
        <ele>1365.8</ele>
        <time>2021-02-28T05:02:19Z</time>
      </trkpt>
      <trkpt lat="45.17832" lon="6.28408">
        <ele>1365.8</ele>
        <time>2021-02-28T05:02:20Z</time>
      </trkpt>
      <trkpt lat="45.17831" lon="6.28408">
        <ele>1366</ele>
        <time>2021-02-28T05:02:21Z</time>
      </trkpt>
      <trkpt lat="45.1783" lon="6.28407">
        <ele>1365.8</ele>
        <time>2021-02-28T05:02:22Z</time>
      </trkpt>
      <trkpt lat="45.17828" lon="6.28407">
        <ele>1366</ele>
        <time>2021-02-28T05:02:23Z</time>
      </trkpt>
      <trkpt lat="45.17827" lon="6.28406">
        <ele>1366</ele>
        <time>2021-02-28T05:02:24Z</time>
      </trkpt>
      <trkpt lat="45.17826" lon="6.28406">
        <ele>1366</ele>
        <time>2021-02-28T05:02:25Z</time>
      </trkpt>
      <trkpt lat="45.17825" lon="6.28406">
        <ele>1366.2</ele>
        <time>2021-02-28T05:02:26Z</time>
      </trkpt>
      <trkpt lat="45.17823" lon="6.28405">
        <ele>1366</ele>
        <time>2021-02-28T05:02:27Z</time>
      </trkpt>
      <trkpt lat="45.17822" lon="6.28405">
        <ele>1366.2</ele>
        <time>2021-02-28T05:02:28Z</time>
      </trkpt>
      <trkpt lat="45.17821" lon="6.28404">
        <ele>1366</ele>
        <time>2021-02-28T05:02:29Z</time>
      </trkpt>
      <trkpt lat="45.1782" lon="6.28404">
        <ele>1366.2</ele>
        <time>2021-02-28T05:02:30Z</time>
      </trkpt>
      <trkpt lat="45.17819" lon="6.28403">
        <ele>1366.2</ele>
        <time>2021-02-28T05:02:31Z</time>
      </trkpt>
      <trkpt lat="45.17818" lon="6.28402">
        <ele>1366.2</ele>
        <time>2021-02-28T05:02:32Z</time>
      </trkpt>
      <trkpt lat="45.17817" lon="6.28401">
        <ele>1366</ele>
        <time>2021-02-28T05:02:33Z</time>
      </trkpt>
      <trkpt lat="45.17815" lon="6.284">
        <ele>1365.8</ele>
        <time>2021-02-28T05:02:34Z</time>
      </trkpt>
      <trkpt lat="45.17814" lon="6.28399">
        <ele>1366</ele>
        <time>2021-02-28T05:02:35Z</time>
      </trkpt>
      <trkpt lat="45.17813" lon="6.28398">
        <ele>1366</ele>
        <time>2021-02-28T05:02:36Z</time>
      </trkpt>
      <trkpt lat="45.17812" lon="6.28398">
        <ele>1366</ele>
        <time>2021-02-28T05:02:37Z</time>
      </trkpt>
      <trkpt lat="45.17811" lon="6.28397">
        <ele>1366</ele>
        <time>2021-02-28T05:02:38Z</time>
      </trkpt>
      <trkpt lat="45.1781" lon="6.28396">
        <ele>1365.8</ele>
        <time>2021-02-28T05:02:39Z</time>
      </trkpt>
      <trkpt lat="45.17809" lon="6.28395">
        <ele>1365.8</ele>
        <time>2021-02-28T05:02:40Z</time>
      </trkpt>
      <trkpt lat="45.17808" lon="6.28394">
        <ele>1365.6</ele>
        <time>2021-02-28T05:02:41Z</time>
      </trkpt>
      <trkpt lat="45.17806" lon="6.28393">
        <ele>1366</ele>
        <time>2021-02-28T05:02:42Z</time>
      </trkpt>
      <trkpt lat="45.17805" lon="6.28392">
        <ele>1366</ele>
        <time>2021-02-28T05:02:43Z</time>
      </trkpt>
      <trkpt lat="45.17804" lon="6.28391">
        <ele>1366.2</ele>
        <time>2021-02-28T05:02:44Z</time>
      </trkpt>
      <trkpt lat="45.17803" lon="6.2839">
        <ele>1366.2</ele>
        <time>2021-02-28T05:02:45Z</time>
      </trkpt>
      <trkpt lat="45.17802" lon="6.28389">
        <ele>1366</ele>
        <time>2021-02-28T05:02:46Z</time>
      </trkpt>
      <trkpt lat="45.17801" lon="6.28388">
        <ele>1366.2</ele>
        <time>2021-02-28T05:02:47Z</time>
      </trkpt>
      <trkpt lat="45.178" lon="6.28387">
        <ele>1366.2</ele>
        <time>2021-02-28T05:02:48Z</time>
      </trkpt>
      <trkpt lat="45.17799" lon="6.28386">
        <ele>1366.4</ele>
        <time>2021-02-28T05:02:49Z</time>
      </trkpt>
      <trkpt lat="45.17798" lon="6.28385">
        <ele>1366.4</ele>
        <time>2021-02-28T05:02:50Z</time>
      </trkpt>
      <trkpt lat="45.17797" lon="6.28384">
        <ele>1366.6</ele>
        <time>2021-02-28T05:02:51Z</time>
      </trkpt>
      <trkpt lat="45.17796" lon="6.28383">
        <ele>1366.8</ele>
        <time>2021-02-28T05:02:52Z</time>
      </trkpt>
      <trkpt lat="45.17796" lon="6.28382">
        <ele>1367</ele>
        <time>2021-02-28T05:02:53Z</time>
      </trkpt>
      <trkpt lat="45.17795" lon="6.28381">
        <ele>1366.6</ele>
        <time>2021-02-28T05:02:54Z</time>
      </trkpt>
      <trkpt lat="45.17794" lon="6.2838">
        <ele>1367</ele>
        <time>2021-02-28T05:02:55Z</time>
      </trkpt>
      <trkpt lat="45.17793" lon="6.28379">
        <ele>1367</ele>
        <time>2021-02-28T05:02:56Z</time>
      </trkpt>
      <trkpt lat="45.17793" lon="6.28378">
        <ele>1366.8</ele>
        <time>2021-02-28T05:02:57Z</time>
      </trkpt>
      <trkpt lat="45.17792" lon="6.28377">
        <ele>1367</ele>
        <time>2021-02-28T05:02:58Z</time>
      </trkpt>
      <trkpt lat="45.17791" lon="6.28376">
        <ele>1366.8</ele>
        <time>2021-02-28T05:02:59Z</time>
      </trkpt>
      <trkpt lat="45.17791" lon="6.28375">
        <ele>1367</ele>
        <time>2021-02-28T05:03:00Z</time>
      </trkpt>
      <trkpt lat="45.1779" lon="6.28374">
        <ele>1367.2</ele>
        <time>2021-02-28T05:03:01Z</time>
      </trkpt>
      <trkpt lat="45.17789" lon="6.28373">
        <ele>1367.4</ele>
        <time>2021-02-28T05:03:02Z</time>
      </trkpt>
      <trkpt lat="45.17788" lon="6.28372">
        <ele>1367.4</ele>
        <time>2021-02-28T05:03:03Z</time>
      </trkpt>
      <trkpt lat="45.17787" lon="6.28371">
        <ele>1367.2</ele>
        <time>2021-02-28T05:03:04Z</time>
      </trkpt>
      <trkpt lat="45.17786" lon="6.2837">
        <ele>1367.6</ele>
        <time>2021-02-28T05:03:05Z</time>
      </trkpt>
      <trkpt lat="45.17785" lon="6.28369">
        <ele>1367.6</ele>
        <time>2021-02-28T05:03:06Z</time>
      </trkpt>
      <trkpt lat="45.17784" lon="6.28368">
        <ele>1367.6</ele>
        <time>2021-02-28T05:03:07Z</time>
      </trkpt>
      <trkpt lat="45.17783" lon="6.28367">
        <ele>1367.4</ele>
        <time>2021-02-28T05:03:08Z</time>
      </trkpt>
      <trkpt lat="45.17782" lon="6.28366">
        <ele>1367.8</ele>
        <time>2021-02-28T05:03:09Z</time>
      </trkpt>
      <trkpt lat="45.17781" lon="6.28365">
        <ele>1367.4</ele>
        <time>2021-02-28T05:03:10Z</time>
      </trkpt>
      <trkpt lat="45.1778" lon="6.28364">
        <ele>1367.6</ele>
        <time>2021-02-28T05:03:11Z</time>
      </trkpt>
      <trkpt lat="45.17779" lon="6.28364">
        <ele>1367.6</ele>
        <time>2021-02-28T05:03:12Z</time>
      </trkpt>
      <trkpt lat="45.17778" lon="6.28363">
        <ele>1367.6</ele>
        <time>2021-02-28T05:03:13Z</time>
      </trkpt>
      <trkpt lat="45.17777" lon="6.28363">
        <ele>1367.8</ele>
        <time>2021-02-28T05:03:14Z</time>
      </trkpt>
      <trkpt lat="45.17776" lon="6.28363">
        <ele>1368.2</ele>
        <time>2021-02-28T05:03:15Z</time>
      </trkpt>
      <trkpt lat="45.17774" lon="6.28362">
        <ele>1368.4</ele>
        <time>2021-02-28T05:03:16Z</time>
      </trkpt>
      <trkpt lat="45.17773" lon="6.28362">
        <ele>1368.2</ele>
        <time>2021-02-28T05:03:17Z</time>
      </trkpt>
      <trkpt lat="45.17772" lon="6.28361">
        <ele>1368.4</ele>
        <time>2021-02-28T05:03:18Z</time>
      </trkpt>
      <trkpt lat="45.17771" lon="6.28361">
        <ele>1368.4</ele>
        <time>2021-02-28T05:03:19Z</time>
      </trkpt>
      <trkpt lat="45.17769" lon="6.2836">
        <ele>1368.2</ele>
        <time>2021-02-28T05:03:20Z</time>
      </trkpt>
      <trkpt lat="45.17768" lon="6.28359">
        <ele>1367.6</ele>
        <time>2021-02-28T05:03:21Z</time>
      </trkpt>
      <trkpt lat="45.17767" lon="6.28359">
        <ele>1367.6</ele>
        <time>2021-02-28T05:03:22Z</time>
      </trkpt>
      <trkpt lat="45.17765" lon="6.28358">
        <ele>1367.6</ele>
        <time>2021-02-28T05:03:23Z</time>
      </trkpt>
      <trkpt lat="45.17764" lon="6.28357">
        <ele>1367.4</ele>
        <time>2021-02-28T05:03:24Z</time>
      </trkpt>
      <trkpt lat="45.17762" lon="6.28356">
        <ele>1367.6</ele>
        <time>2021-02-28T05:03:25Z</time>
      </trkpt>
      <trkpt lat="45.17761" lon="6.28355">
        <ele>1367.4</ele>
        <time>2021-02-28T05:03:26Z</time>
      </trkpt>
      <trkpt lat="45.1776" lon="6.28354">
        <ele>1367.6</ele>
        <time>2021-02-28T05:03:27Z</time>
      </trkpt>
      <trkpt lat="45.17759" lon="6.28353">
        <ele>1367.8</ele>
        <time>2021-02-28T05:03:28Z</time>
      </trkpt>
      <trkpt lat="45.17758" lon="6.28352">
        <ele>1367.6</ele>
        <time>2021-02-28T05:03:29Z</time>
      </trkpt>
      <trkpt lat="45.17757" lon="6.28351">
        <ele>1367.8</ele>
        <time>2021-02-28T05:03:30Z</time>
      </trkpt>
      <trkpt lat="45.17756" lon="6.2835">
        <ele>1367.6</ele>
        <time>2021-02-28T05:03:31Z</time>
      </trkpt>
      <trkpt lat="45.17755" lon="6.28349">
        <ele>1367.8</ele>
        <time>2021-02-28T05:03:32Z</time>
      </trkpt>
      <trkpt lat="45.17754" lon="6.28348">
        <ele>1367.6</ele>
        <time>2021-02-28T05:03:33Z</time>
      </trkpt>
      <trkpt lat="45.17753" lon="6.28347">
        <ele>1368</ele>
        <time>2021-02-28T05:03:34Z</time>
      </trkpt>
      <trkpt lat="45.17752" lon="6.28346">
        <ele>1368.2</ele>
        <time>2021-02-28T05:03:35Z</time>
      </trkpt>
      <trkpt lat="45.17751" lon="6.28344">
        <ele>1367.8</ele>
        <time>2021-02-28T05:03:36Z</time>
      </trkpt>
      <trkpt lat="45.1775" lon="6.28343">
        <ele>1368</ele>
        <time>2021-02-28T05:03:37Z</time>
      </trkpt>
      <trkpt lat="45.1775" lon="6.28342">
        <ele>1367.8</ele>
        <time>2021-02-28T05:03:38Z</time>
      </trkpt>
      <trkpt lat="45.17749" lon="6.28341">
        <ele>1368</ele>
        <time>2021-02-28T05:03:39Z</time>
      </trkpt>
      <trkpt lat="45.17748" lon="6.2834">
        <ele>1368</ele>
        <time>2021-02-28T05:03:40Z</time>
      </trkpt>
      <trkpt lat="45.17747" lon="6.28338">
        <ele>1367.8</ele>
        <time>2021-02-28T05:03:41Z</time>
      </trkpt>
      <trkpt lat="45.17747" lon="6.28337">
        <ele>1368</ele>
        <time>2021-02-28T05:03:42Z</time>
      </trkpt>
      <trkpt lat="45.17746" lon="6.28336">
        <ele>1367.8</ele>
        <time>2021-02-28T05:03:43Z</time>
      </trkpt>
      <trkpt lat="45.17745" lon="6.28334">
        <ele>1368</ele>
        <time>2021-02-28T05:03:44Z</time>
      </trkpt>
      <trkpt lat="45.17745" lon="6.28333">
        <ele>1368</ele>
        <time>2021-02-28T05:03:45Z</time>
      </trkpt>
      <trkpt lat="45.17744" lon="6.28331">
        <ele>1368.2</ele>
        <time>2021-02-28T05:03:46Z</time>
      </trkpt>
      <trkpt lat="45.17743" lon="6.2833">
        <ele>1368.2</ele>
        <time>2021-02-28T05:03:47Z</time>
      </trkpt>
      <trkpt lat="45.17743" lon="6.28329">
        <ele>1368.4</ele>
        <time>2021-02-28T05:03:48Z</time>
      </trkpt>
      <trkpt lat="45.17742" lon="6.28327">
        <ele>1368.4</ele>
        <time>2021-02-28T05:03:49Z</time>
      </trkpt>
      <trkpt lat="45.17741" lon="6.28326">
        <ele>1368.4</ele>
        <time>2021-02-28T05:03:50Z</time>
      </trkpt>
      <trkpt lat="45.1774" lon="6.28325">
        <ele>1368.4</ele>
        <time>2021-02-28T05:03:51Z</time>
      </trkpt>
      <trkpt lat="45.17739" lon="6.28324">
        <ele>1368.2</ele>
        <time>2021-02-28T05:03:52Z</time>
      </trkpt>
      <trkpt lat="45.17739" lon="6.28322">
        <ele>1368.6</ele>
        <time>2021-02-28T05:03:53Z</time>
      </trkpt>
      <trkpt lat="45.17738" lon="6.28321">
        <ele>1368.2</ele>
        <time>2021-02-28T05:03:54Z</time>
      </trkpt>
      <trkpt lat="45.17737" lon="6.2832">
        <ele>1368.2</ele>
        <time>2021-02-28T05:03:55Z</time>
      </trkpt>
      <trkpt lat="45.17736" lon="6.28319">
        <ele>1368.6</ele>
        <time>2021-02-28T05:03:56Z</time>
      </trkpt>
      <trkpt lat="45.17735" lon="6.28318">
        <ele>1368.6</ele>
        <time>2021-02-28T05:03:57Z</time>
      </trkpt>
      <trkpt lat="45.17734" lon="6.28317">
        <ele>1369</ele>
        <time>2021-02-28T05:03:58Z</time>
      </trkpt>
      <trkpt lat="45.17733" lon="6.28317">
        <ele>1369.2</ele>
        <time>2021-02-28T05:03:59Z</time>
      </trkpt>
      <trkpt lat="45.17732" lon="6.28316">
        <ele>1369.4</ele>
        <time>2021-02-28T05:04:00Z</time>
      </trkpt>
      <trkpt lat="45.17731" lon="6.28315">
        <ele>1369.4</ele>
        <time>2021-02-28T05:04:01Z</time>
      </trkpt>
      <trkpt lat="45.1773" lon="6.28315">
        <ele>1369</ele>
        <time>2021-02-28T05:04:02Z</time>
      </trkpt>
      <trkpt lat="45.17729" lon="6.28314">
        <ele>1369.2</ele>
        <time>2021-02-28T05:04:03Z</time>
      </trkpt>
      <trkpt lat="45.17728" lon="6.28314">
        <ele>1369.2</ele>
        <time>2021-02-28T05:04:04Z</time>
      </trkpt>
      <trkpt lat="45.17727" lon="6.28313">
        <ele>1369.2</ele>
        <time>2021-02-28T05:04:05Z</time>
      </trkpt>
      <trkpt lat="45.17726" lon="6.28313">
        <ele>1369.4</ele>
        <time>2021-02-28T05:04:06Z</time>
      </trkpt>
      <trkpt lat="45.17725" lon="6.28312">
        <ele>1369</ele>
        <time>2021-02-28T05:04:07Z</time>
      </trkpt>
      <trkpt lat="45.17724" lon="6.28311">
        <ele>1369.4</ele>
        <time>2021-02-28T05:04:08Z</time>
      </trkpt>
      <trkpt lat="45.17723" lon="6.2831">
        <ele>1369.2</ele>
        <time>2021-02-28T05:04:09Z</time>
      </trkpt>
      <trkpt lat="45.17721" lon="6.2831">
        <ele>1368.8</ele>
        <time>2021-02-28T05:04:10Z</time>
      </trkpt>
      <trkpt lat="45.1772" lon="6.28309">
        <ele>1369</ele>
        <time>2021-02-28T05:04:11Z</time>
      </trkpt>
      <trkpt lat="45.17719" lon="6.28308">
        <ele>1369.2</ele>
        <time>2021-02-28T05:04:12Z</time>
      </trkpt>
      <trkpt lat="45.17718" lon="6.28308">
        <ele>1369</ele>
        <time>2021-02-28T05:04:13Z</time>
      </trkpt>
      <trkpt lat="45.17717" lon="6.28307">
        <ele>1369.2</ele>
        <time>2021-02-28T05:04:14Z</time>
      </trkpt>
      <trkpt lat="45.17716" lon="6.28306">
        <ele>1369.2</ele>
        <time>2021-02-28T05:04:15Z</time>
      </trkpt>
      <trkpt lat="45.17715" lon="6.28305">
        <ele>1369.6</ele>
        <time>2021-02-28T05:04:16Z</time>
      </trkpt>
      <trkpt lat="45.17714" lon="6.28304">
        <ele>1369.4</ele>
        <time>2021-02-28T05:04:17Z</time>
      </trkpt>
      <trkpt lat="45.17714" lon="6.28303">
        <ele>1369.2</ele>
        <time>2021-02-28T05:04:18Z</time>
      </trkpt>
      <trkpt lat="45.17713" lon="6.28302">
        <ele>1369.4</ele>
        <time>2021-02-28T05:04:19Z</time>
      </trkpt>
      <trkpt lat="45.17712" lon="6.28301">
        <ele>1369.6</ele>
        <time>2021-02-28T05:04:20Z</time>
      </trkpt>
      <trkpt lat="45.17711" lon="6.283">
        <ele>1369.6</ele>
        <time>2021-02-28T05:04:21Z</time>
      </trkpt>
      <trkpt lat="45.1771" lon="6.283">
        <ele>1369.6</ele>
        <time>2021-02-28T05:04:22Z</time>
      </trkpt>
      <trkpt lat="45.17709" lon="6.28299">
        <ele>1369.4</ele>
        <time>2021-02-28T05:04:23Z</time>
      </trkpt>
      <trkpt lat="45.17709" lon="6.28298">
        <ele>1369.6</ele>
        <time>2021-02-28T05:04:24Z</time>
      </trkpt>
      <trkpt lat="45.17708" lon="6.28297">
        <ele>1369.6</ele>
        <time>2021-02-28T05:04:25Z</time>
      </trkpt>
      <trkpt lat="45.17708" lon="6.28296">
        <ele>1369.6</ele>
        <time>2021-02-28T05:04:26Z</time>
      </trkpt>
      <trkpt lat="45.17707" lon="6.28295">
        <ele>1369.6</ele>
        <time>2021-02-28T05:04:27Z</time>
      </trkpt>
      <trkpt lat="45.17706" lon="6.28294">
        <ele>1369.6</ele>
        <time>2021-02-28T05:04:28Z</time>
      </trkpt>
      <trkpt lat="45.17706" lon="6.28294">
        <ele>1370</ele>
        <time>2021-02-28T05:04:29Z</time>
      </trkpt>
      <trkpt lat="45.17705" lon="6.28293">
        <ele>1370</ele>
        <time>2021-02-28T05:04:30Z</time>
      </trkpt>
      <trkpt lat="45.17704" lon="6.28292">
        <ele>1370.4</ele>
        <time>2021-02-28T05:04:31Z</time>
      </trkpt>
      <trkpt lat="45.17704" lon="6.28291">
        <ele>1370.2</ele>
        <time>2021-02-28T05:04:32Z</time>
      </trkpt>
      <trkpt lat="45.17703" lon="6.28291">
        <ele>1370.6</ele>
        <time>2021-02-28T05:04:33Z</time>
      </trkpt>
      <trkpt lat="45.17701" lon="6.28291">
        <ele>1370.6</ele>
        <time>2021-02-28T05:04:34Z</time>
      </trkpt>
      <trkpt lat="45.177" lon="6.2829">
        <ele>1370.6</ele>
        <time>2021-02-28T05:04:35Z</time>
      </trkpt>
      <trkpt lat="45.17699" lon="6.2829">
        <ele>1371</ele>
        <time>2021-02-28T05:04:36Z</time>
      </trkpt>
      <trkpt lat="45.17698" lon="6.2829">
        <ele>1370.8</ele>
        <time>2021-02-28T05:04:37Z</time>
      </trkpt>
      <trkpt lat="45.17697" lon="6.2829">
        <ele>1371.4</ele>
        <time>2021-02-28T05:04:38Z</time>
      </trkpt>
      <trkpt lat="45.17696" lon="6.2829">
        <ele>1371.4</ele>
        <time>2021-02-28T05:04:39Z</time>
      </trkpt>
      <trkpt lat="45.17695" lon="6.28289">
        <ele>1371.4</ele>
        <time>2021-02-28T05:04:40Z</time>
      </trkpt>
      <trkpt lat="45.17694" lon="6.28288">
        <ele>1371.4</ele>
        <time>2021-02-28T05:04:41Z</time>
      </trkpt>
      <trkpt lat="45.17693" lon="6.28288">
        <ele>1371.6</ele>
        <time>2021-02-28T05:04:42Z</time>
      </trkpt>
      <trkpt lat="45.17691" lon="6.28287">
        <ele>1371.8</ele>
        <time>2021-02-28T05:04:43Z</time>
      </trkpt>
      <trkpt lat="45.1769" lon="6.28286">
        <ele>1372</ele>
        <time>2021-02-28T05:04:44Z</time>
      </trkpt>
      <trkpt lat="45.17689" lon="6.28285">
        <ele>1371.8</ele>
        <time>2021-02-28T05:04:45Z</time>
      </trkpt>
      <trkpt lat="45.17688" lon="6.28284">
        <ele>1372</ele>
        <time>2021-02-28T05:04:46Z</time>
      </trkpt>
      <trkpt lat="45.17687" lon="6.28283">
        <ele>1372</ele>
        <time>2021-02-28T05:04:47Z</time>
      </trkpt>
      <trkpt lat="45.17686" lon="6.28283">
        <ele>1372</ele>
        <time>2021-02-28T05:04:48Z</time>
      </trkpt>
      <trkpt lat="45.17685" lon="6.28281">
        <ele>1372</ele>
        <time>2021-02-28T05:04:49Z</time>
      </trkpt>
      <trkpt lat="45.17684" lon="6.2828">
        <ele>1372</ele>
        <time>2021-02-28T05:04:50Z</time>
      </trkpt>
      <trkpt lat="45.17683" lon="6.28279">
        <ele>1371.8</ele>
        <time>2021-02-28T05:04:51Z</time>
      </trkpt>
      <trkpt lat="45.17682" lon="6.28278">
        <ele>1371.8</ele>
        <time>2021-02-28T05:04:52Z</time>
      </trkpt>
      <trkpt lat="45.17681" lon="6.28276">
        <ele>1371.8</ele>
        <time>2021-02-28T05:04:53Z</time>
      </trkpt>
      <trkpt lat="45.1768" lon="6.28275">
        <ele>1371.8</ele>
        <time>2021-02-28T05:04:54Z</time>
      </trkpt>
      <trkpt lat="45.17679" lon="6.28274">
        <ele>1371.8</ele>
        <time>2021-02-28T05:04:55Z</time>
      </trkpt>
      <trkpt lat="45.17678" lon="6.28273">
        <ele>1371.4</ele>
        <time>2021-02-28T05:04:56Z</time>
      </trkpt>
      <trkpt lat="45.17677" lon="6.28273">
        <ele>1371.6</ele>
        <time>2021-02-28T05:04:57Z</time>
      </trkpt>
      <trkpt lat="45.17676" lon="6.28272">
        <ele>1371.2</ele>
        <time>2021-02-28T05:04:58Z</time>
      </trkpt>
      <trkpt lat="45.17675" lon="6.28271">
        <ele>1371.4</ele>
        <time>2021-02-28T05:04:59Z</time>
      </trkpt>
      <trkpt lat="45.17673" lon="6.28271">
        <ele>1371.4</ele>
        <time>2021-02-28T05:05:00Z</time>
      </trkpt>
      <trkpt lat="45.17672" lon="6.2827">
        <ele>1371.2</ele>
        <time>2021-02-28T05:05:01Z</time>
      </trkpt>
      <trkpt lat="45.17671" lon="6.28269">
        <ele>1371.2</ele>
        <time>2021-02-28T05:05:02Z</time>
      </trkpt>
      <trkpt lat="45.1767" lon="6.28269">
        <ele>1371.4</ele>
        <time>2021-02-28T05:05:03Z</time>
      </trkpt>
      <trkpt lat="45.17668" lon="6.28269">
        <ele>1371.4</ele>
        <time>2021-02-28T05:05:04Z</time>
      </trkpt>
      <trkpt lat="45.17667" lon="6.28268">
        <ele>1371.2</ele>
        <time>2021-02-28T05:05:05Z</time>
      </trkpt>
      <trkpt lat="45.17665" lon="6.28268">
        <ele>1371.2</ele>
        <time>2021-02-28T05:05:06Z</time>
      </trkpt>
      <trkpt lat="45.17663" lon="6.28268">
        <ele>1371</ele>
        <time>2021-02-28T05:05:07Z</time>
      </trkpt>
      <trkpt lat="45.17662" lon="6.28267">
        <ele>1371.2</ele>
        <time>2021-02-28T05:05:08Z</time>
      </trkpt>
      <trkpt lat="45.1766" lon="6.28267">
        <ele>1371.4</ele>
        <time>2021-02-28T05:05:09Z</time>
      </trkpt>
      <trkpt lat="45.17659" lon="6.28266">
        <ele>1371.6</ele>
        <time>2021-02-28T05:05:10Z</time>
      </trkpt>
      <trkpt lat="45.17658" lon="6.28266">
        <ele>1371.4</ele>
        <time>2021-02-28T05:05:11Z</time>
      </trkpt>
      <trkpt lat="45.17657" lon="6.28265">
        <ele>1371.2</ele>
        <time>2021-02-28T05:05:12Z</time>
      </trkpt>
      <trkpt lat="45.17656" lon="6.28264">
        <ele>1371.4</ele>
        <time>2021-02-28T05:05:13Z</time>
      </trkpt>
      <trkpt lat="45.17656" lon="6.28263">
        <ele>1371</ele>
        <time>2021-02-28T05:05:14Z</time>
      </trkpt>
      <trkpt lat="45.17655" lon="6.28262">
        <ele>1371.4</ele>
        <time>2021-02-28T05:05:15Z</time>
      </trkpt>
      <trkpt lat="45.17654" lon="6.28262">
        <ele>1371.2</ele>
        <time>2021-02-28T05:05:16Z</time>
      </trkpt>
      <trkpt lat="45.17653" lon="6.28261">
        <ele>1371.4</ele>
        <time>2021-02-28T05:05:17Z</time>
      </trkpt>
      <trkpt lat="45.17652" lon="6.2826">
        <ele>1371</ele>
        <time>2021-02-28T05:05:18Z</time>
      </trkpt>
      <trkpt lat="45.17651" lon="6.2826">
        <ele>1371.2</ele>
        <time>2021-02-28T05:05:19Z</time>
      </trkpt>
      <trkpt lat="45.1765" lon="6.28259">
        <ele>1371.2</ele>
        <time>2021-02-28T05:05:20Z</time>
      </trkpt>
      <trkpt lat="45.17649" lon="6.28258">
        <ele>1371.2</ele>
        <time>2021-02-28T05:05:21Z</time>
      </trkpt>
      <trkpt lat="45.17647" lon="6.28258">
        <ele>1371.2</ele>
        <time>2021-02-28T05:05:22Z</time>
      </trkpt>
      <trkpt lat="45.17646" lon="6.28257">
        <ele>1371</ele>
        <time>2021-02-28T05:05:23Z</time>
      </trkpt>
      <trkpt lat="45.17645" lon="6.28257">
        <ele>1371.2</ele>
        <time>2021-02-28T05:05:24Z</time>
      </trkpt>
      <trkpt lat="45.17644" lon="6.28256">
        <ele>1371.2</ele>
        <time>2021-02-28T05:05:25Z</time>
      </trkpt>
      <trkpt lat="45.17643" lon="6.28256">
        <ele>1371.4</ele>
        <time>2021-02-28T05:05:26Z</time>
      </trkpt>
      <trkpt lat="45.17642" lon="6.28255">
        <ele>1371.4</ele>
        <time>2021-02-28T05:05:27Z</time>
      </trkpt>
      <trkpt lat="45.17641" lon="6.28254">
        <ele>1371.2</ele>
        <time>2021-02-28T05:05:28Z</time>
      </trkpt>
      <trkpt lat="45.1764" lon="6.28253">
        <ele>1370.8</ele>
        <time>2021-02-28T05:05:29Z</time>
      </trkpt>
      <trkpt lat="45.17639" lon="6.28252">
        <ele>1371.2</ele>
        <time>2021-02-28T05:05:30Z</time>
      </trkpt>
      <trkpt lat="45.17638" lon="6.2825">
        <ele>1371.4</ele>
        <time>2021-02-28T05:05:31Z</time>
      </trkpt>
      <trkpt lat="45.17637" lon="6.28249">
        <ele>1371.4</ele>
        <time>2021-02-28T05:05:32Z</time>
      </trkpt>
      <trkpt lat="45.17636" lon="6.28248">
        <ele>1371.4</ele>
        <time>2021-02-28T05:05:33Z</time>
      </trkpt>
      <trkpt lat="45.17635" lon="6.28247">
        <ele>1371.2</ele>
        <time>2021-02-28T05:05:34Z</time>
      </trkpt>
      <trkpt lat="45.17634" lon="6.28247">
        <ele>1371.2</ele>
        <time>2021-02-28T05:05:35Z</time>
      </trkpt>
      <trkpt lat="45.17633" lon="6.28246">
        <ele>1371.2</ele>
        <time>2021-02-28T05:05:36Z</time>
      </trkpt>
      <trkpt lat="45.17631" lon="6.28245">
        <ele>1371.2</ele>
        <time>2021-02-28T05:05:37Z</time>
      </trkpt>
      <trkpt lat="45.1763" lon="6.28245">
        <ele>1371</ele>
        <time>2021-02-28T05:05:38Z</time>
      </trkpt>
      <trkpt lat="45.17628" lon="6.28244">
        <ele>1371</ele>
        <time>2021-02-28T05:05:39Z</time>
      </trkpt>
      <trkpt lat="45.17627" lon="6.28243">
        <ele>1371</ele>
        <time>2021-02-28T05:05:40Z</time>
      </trkpt>
      <trkpt lat="45.17625" lon="6.28243">
        <ele>1371.2</ele>
        <time>2021-02-28T05:05:41Z</time>
      </trkpt>
      <trkpt lat="45.17624" lon="6.28242">
        <ele>1371.2</ele>
        <time>2021-02-28T05:05:42Z</time>
      </trkpt>
      <trkpt lat="45.17623" lon="6.28242">
        <ele>1371.2</ele>
        <time>2021-02-28T05:05:43Z</time>
      </trkpt>
      <trkpt lat="45.17621" lon="6.28242">
        <ele>1371.2</ele>
        <time>2021-02-28T05:05:44Z</time>
      </trkpt>
      <trkpt lat="45.1762" lon="6.28241">
        <ele>1371.2</ele>
        <time>2021-02-28T05:05:45Z</time>
      </trkpt>
      <trkpt lat="45.17618" lon="6.28241">
        <ele>1371.2</ele>
        <time>2021-02-28T05:05:46Z</time>
      </trkpt>
      <trkpt lat="45.17617" lon="6.2824">
        <ele>1371.2</ele>
        <time>2021-02-28T05:05:47Z</time>
      </trkpt>
      <trkpt lat="45.17616" lon="6.28241">
        <ele>1371.2</ele>
        <time>2021-02-28T05:05:48Z</time>
      </trkpt>
      <trkpt lat="45.17615" lon="6.28242">
        <ele>1371.2</ele>
        <time>2021-02-28T05:05:49Z</time>
      </trkpt>
      <trkpt lat="45.17614" lon="6.28243">
        <ele>1371.2</ele>
        <time>2021-02-28T05:05:50Z</time>
      </trkpt>
      <trkpt lat="45.17613" lon="6.28244">
        <ele>1371.4</ele>
        <time>2021-02-28T05:05:51Z</time>
      </trkpt>
      <trkpt lat="45.17612" lon="6.28245">
        <ele>1371.6</ele>
        <time>2021-02-28T05:05:52Z</time>
      </trkpt>
      <trkpt lat="45.17611" lon="6.28246">
        <ele>1371.8</ele>
        <time>2021-02-28T05:05:53Z</time>
      </trkpt>
      <trkpt lat="45.1761" lon="6.28246">
        <ele>1372</ele>
        <time>2021-02-28T05:05:54Z</time>
      </trkpt>
      <trkpt lat="45.17609" lon="6.28247">
        <ele>1372.2</ele>
        <time>2021-02-28T05:05:55Z</time>
      </trkpt>
      <trkpt lat="45.17608" lon="6.28248">
        <ele>1372.4</ele>
        <time>2021-02-28T05:05:56Z</time>
      </trkpt>
      <trkpt lat="45.17606" lon="6.28249">
        <ele>1372.2</ele>
        <time>2021-02-28T05:05:57Z</time>
      </trkpt>
      <trkpt lat="45.17605" lon="6.28249">
        <ele>1372.4</ele>
        <time>2021-02-28T05:05:58Z</time>
      </trkpt>
      <trkpt lat="45.17604" lon="6.2825">
        <ele>1372.4</ele>
        <time>2021-02-28T05:05:59Z</time>
      </trkpt>
      <trkpt lat="45.17602" lon="6.28251">
        <ele>1372.4</ele>
        <time>2021-02-28T05:06:00Z</time>
      </trkpt>
      <trkpt lat="45.17601" lon="6.28251">
        <ele>1372.4</ele>
        <time>2021-02-28T05:06:01Z</time>
      </trkpt>
      <trkpt lat="45.176" lon="6.28252">
        <ele>1372</ele>
        <time>2021-02-28T05:06:02Z</time>
      </trkpt>
      <trkpt lat="45.17598" lon="6.28253">
        <ele>1371.8</ele>
        <time>2021-02-28T05:06:03Z</time>
      </trkpt>
      <trkpt lat="45.17596" lon="6.28254">
        <ele>1371.6</ele>
        <time>2021-02-28T05:06:04Z</time>
      </trkpt>
      <trkpt lat="45.17594" lon="6.28255">
        <ele>1371.8</ele>
        <time>2021-02-28T05:06:05Z</time>
      </trkpt>
      <trkpt lat="45.17592" lon="6.28256">
        <ele>1371.8</ele>
        <time>2021-02-28T05:06:06Z</time>
      </trkpt>
      <trkpt lat="45.1759" lon="6.28257">
        <ele>1371.8</ele>
        <time>2021-02-28T05:06:07Z</time>
      </trkpt>
      <trkpt lat="45.17588" lon="6.28257">
        <ele>1371.6</ele>
        <time>2021-02-28T05:06:08Z</time>
      </trkpt>
      <trkpt lat="45.17587" lon="6.28257">
        <ele>1371.8</ele>
        <time>2021-02-28T05:06:09Z</time>
      </trkpt>
      <trkpt lat="45.17586" lon="6.28257">
        <ele>1371.8</ele>
        <time>2021-02-28T05:06:10Z</time>
      </trkpt>
      <trkpt lat="45.17584" lon="6.28256">
        <ele>1371.6</ele>
        <time>2021-02-28T05:06:11Z</time>
      </trkpt>
      <trkpt lat="45.17583" lon="6.28256">
        <ele>1371.4</ele>
        <time>2021-02-28T05:06:12Z</time>
      </trkpt>
      <trkpt lat="45.17581" lon="6.28256">
        <ele>1371.6</ele>
        <time>2021-02-28T05:06:13Z</time>
      </trkpt>
      <trkpt lat="45.1758" lon="6.28256">
        <ele>1371.6</ele>
        <time>2021-02-28T05:06:14Z</time>
      </trkpt>
      <trkpt lat="45.17579" lon="6.28256">
        <ele>1371.4</ele>
        <time>2021-02-28T05:06:15Z</time>
      </trkpt>
      <trkpt lat="45.17578" lon="6.28255">
        <ele>1371.6</ele>
        <time>2021-02-28T05:06:16Z</time>
      </trkpt>
      <trkpt lat="45.17577" lon="6.28255">
        <ele>1371.8</ele>
        <time>2021-02-28T05:06:17Z</time>
      </trkpt>
      <trkpt lat="45.17576" lon="6.28255">
        <ele>1372</ele>
        <time>2021-02-28T05:06:18Z</time>
      </trkpt>
      <trkpt lat="45.17575" lon="6.28254">
        <ele>1372</ele>
        <time>2021-02-28T05:06:19Z</time>
      </trkpt>
      <trkpt lat="45.17574" lon="6.28254">
        <ele>1372.2</ele>
        <time>2021-02-28T05:06:20Z</time>
      </trkpt>
      <trkpt lat="45.17574" lon="6.28253">
        <ele>1372.2</ele>
        <time>2021-02-28T05:06:21Z</time>
      </trkpt>
      <trkpt lat="45.17573" lon="6.28253">
        <ele>1371.8</ele>
        <time>2021-02-28T05:06:22Z</time>
      </trkpt>
      <trkpt lat="45.17572" lon="6.28252">
        <ele>1372.2</ele>
        <time>2021-02-28T05:06:23Z</time>
      </trkpt>
      <trkpt lat="45.17571" lon="6.28252">
        <ele>1372</ele>
        <time>2021-02-28T05:06:24Z</time>
      </trkpt>
      <trkpt lat="45.1757" lon="6.28251">
        <ele>1372.2</ele>
        <time>2021-02-28T05:06:25Z</time>
      </trkpt>
      <trkpt lat="45.17568" lon="6.28251">
        <ele>1372.2</ele>
        <time>2021-02-28T05:06:26Z</time>
      </trkpt>
      <trkpt lat="45.17567" lon="6.2825">
        <ele>1372</ele>
        <time>2021-02-28T05:06:27Z</time>
      </trkpt>
      <trkpt lat="45.17566" lon="6.2825">
        <ele>1372.2</ele>
        <time>2021-02-28T05:06:28Z</time>
      </trkpt>
      <trkpt lat="45.17565" lon="6.28249">
        <ele>1372</ele>
        <time>2021-02-28T05:06:29Z</time>
      </trkpt>
      <trkpt lat="45.17563" lon="6.28248">
        <ele>1372.2</ele>
        <time>2021-02-28T05:06:30Z</time>
      </trkpt>
      <trkpt lat="45.17562" lon="6.28248">
        <ele>1372</ele>
        <time>2021-02-28T05:06:31Z</time>
      </trkpt>
      <trkpt lat="45.17561" lon="6.28247">
        <ele>1372.2</ele>
        <time>2021-02-28T05:06:32Z</time>
      </trkpt>
      <trkpt lat="45.1756" lon="6.28247">
        <ele>1372.2</ele>
        <time>2021-02-28T05:06:33Z</time>
      </trkpt>
      <trkpt lat="45.17559" lon="6.28246">
        <ele>1372.2</ele>
        <time>2021-02-28T05:06:34Z</time>
      </trkpt>
      <trkpt lat="45.17558" lon="6.28245">
        <ele>1372.2</ele>
        <time>2021-02-28T05:06:35Z</time>
      </trkpt>
      <trkpt lat="45.17557" lon="6.28245">
        <ele>1372.2</ele>
        <time>2021-02-28T05:06:36Z</time>
      </trkpt>
      <trkpt lat="45.17556" lon="6.28244">
        <ele>1372.2</ele>
        <time>2021-02-28T05:06:37Z</time>
      </trkpt>
      <trkpt lat="45.17555" lon="6.28244">
        <ele>1372.2</ele>
        <time>2021-02-28T05:06:38Z</time>
      </trkpt>
      <trkpt lat="45.17554" lon="6.28243">
        <ele>1372.4</ele>
        <time>2021-02-28T05:06:39Z</time>
      </trkpt>
      <trkpt lat="45.17553" lon="6.28243">
        <ele>1372.2</ele>
        <time>2021-02-28T05:06:40Z</time>
      </trkpt>
      <trkpt lat="45.17552" lon="6.28244">
        <ele>1372</ele>
        <time>2021-02-28T05:06:41Z</time>
      </trkpt>
      <trkpt lat="45.17552" lon="6.28244">
        <ele>1372.2</ele>
        <time>2021-02-28T05:06:42Z</time>
      </trkpt>
      <trkpt lat="45.17551" lon="6.28245">
        <ele>1372</ele>
        <time>2021-02-28T05:06:43Z</time>
      </trkpt>
      <trkpt lat="45.1755" lon="6.28245">
        <ele>1372.2</ele>
        <time>2021-02-28T05:06:44Z</time>
      </trkpt>
      <trkpt lat="45.1755" lon="6.28246">
        <ele>1372.4</ele>
        <time>2021-02-28T05:06:45Z</time>
      </trkpt>
      <trkpt lat="45.17549" lon="6.28246">
        <ele>1372</ele>
        <time>2021-02-28T05:06:46Z</time>
      </trkpt>
      <trkpt lat="45.17548" lon="6.28247">
        <ele>1372.2</ele>
        <time>2021-02-28T05:06:47Z</time>
      </trkpt>
      <trkpt lat="45.17547" lon="6.28247">
        <ele>1372.6</ele>
        <time>2021-02-28T05:06:48Z</time>
      </trkpt>
      <trkpt lat="45.17547" lon="6.28247">
        <ele>1372.4</ele>
        <time>2021-02-28T05:06:49Z</time>
      </trkpt>
      <trkpt lat="45.17546" lon="6.28248">
        <ele>1372.2</ele>
        <time>2021-02-28T05:06:50Z</time>
      </trkpt>
      <trkpt lat="45.17545" lon="6.28248">
        <ele>1372.2</ele>
        <time>2021-02-28T05:06:51Z</time>
      </trkpt>
      <trkpt lat="45.17545" lon="6.28248">
        <ele>1372.2</ele>
        <time>2021-02-28T05:06:52Z</time>
      </trkpt>
      <trkpt lat="45.17545" lon="6.28248">
        <ele>1372</ele>
        <time>2021-02-28T05:06:53Z</time>
      </trkpt>
      <trkpt lat="45.17545" lon="6.28248">
        <ele>1372</ele>
        <time>2021-02-28T05:06:54Z</time>
      </trkpt>
      <trkpt lat="45.17545" lon="6.28248">
        <ele>1372.2</ele>
        <time>2021-02-28T05:06:55Z</time>
      </trkpt>
      <trkpt lat="45.17545" lon="6.28248">
        <ele>1372</ele>
        <time>2021-02-28T05:06:56Z</time>
      </trkpt>
      <trkpt lat="45.17545" lon="6.28248">
        <ele>1372.2</ele>
        <time>2021-02-28T05:06:57Z</time>
      </trkpt>
      <trkpt lat="45.17545" lon="6.28248">
        <ele>1372.2</ele>
        <time>2021-02-28T05:06:58Z</time>
      </trkpt>
      <trkpt lat="45.17545" lon="6.28248">
        <ele>1372.2</ele>
        <time>2021-02-28T05:06:59Z</time>
      </trkpt>
      <trkpt lat="45.17545" lon="6.28248">
        <ele>1372.2</ele>
        <time>2021-02-28T05:07:00Z</time>
      </trkpt>
      <trkpt lat="45.17545" lon="6.28248">
        <ele>1372.2</ele>
        <time>2021-02-28T05:07:01Z</time>
      </trkpt>
      <trkpt lat="45.17545" lon="6.28248">
        <ele>1372.4</ele>
        <time>2021-02-28T05:07:02Z</time>
      </trkpt>
      <trkpt lat="45.17545" lon="6.28248">
        <ele>1372.2</ele>
        <time>2021-02-28T05:07:03Z</time>
      </trkpt>
      <trkpt lat="45.17545" lon="6.28248">
        <ele>1372</ele>
        <time>2021-02-28T05:07:04Z</time>
      </trkpt>
      <trkpt lat="45.17545" lon="6.28248">
        <ele>1372</ele>
        <time>2021-02-28T05:07:05Z</time>
      </trkpt>
      <trkpt lat="45.17545" lon="6.28248">
        <ele>1372.2</ele>
        <time>2021-02-28T05:07:06Z</time>
      </trkpt>
      <trkpt lat="45.17545" lon="6.28248">
        <ele>1372.2</ele>
        <time>2021-02-28T05:07:07Z</time>
      </trkpt>
      <trkpt lat="45.17545" lon="6.28248">
        <ele>1372</ele>
        <time>2021-02-28T05:07:08Z</time>
      </trkpt>
      <trkpt lat="45.17545" lon="6.28248">
        <ele>1372</ele>
        <time>2021-02-28T05:07:09Z</time>
      </trkpt>
      <trkpt lat="45.17545" lon="6.28248">
        <ele>1372</ele>
        <time>2021-02-28T05:07:10Z</time>
      </trkpt>
      <trkpt lat="45.17545" lon="6.28248">
        <ele>1372</ele>
        <time>2021-02-28T05:07:11Z</time>
      </trkpt>
      <trkpt lat="45.17545" lon="6.28248">
        <ele>1372</ele>
        <time>2021-02-28T05:07:12Z</time>
      </trkpt>
      <trkpt lat="45.17545" lon="6.28248">
        <ele>1372</ele>
        <time>2021-02-28T05:07:13Z</time>
      </trkpt>
      <trkpt lat="45.17545" lon="6.28248">
        <ele>1372</ele>
        <time>2021-02-28T05:07:14Z</time>
      </trkpt>
      <trkpt lat="45.17545" lon="6.28248">
        <ele>1372</ele>
        <time>2021-02-28T05:07:15Z</time>
      </trkpt>
      <trkpt lat="45.17545" lon="6.28248">
        <ele>1372.2</ele>
        <time>2021-02-28T05:07:16Z</time>
      </trkpt>
      <trkpt lat="45.17545" lon="6.28248">
        <ele>1372.2</ele>
        <time>2021-02-28T05:07:17Z</time>
      </trkpt>
      <trkpt lat="45.17545" lon="6.28248">
        <ele>1372</ele>
        <time>2021-02-28T05:07:18Z</time>
      </trkpt>
      <trkpt lat="45.17545" lon="6.28248">
        <ele>1372.2</ele>
        <time>2021-02-28T05:07:19Z</time>
      </trkpt>
      <trkpt lat="45.17545" lon="6.28248">
        <ele>1372.2</ele>
        <time>2021-02-28T05:07:20Z</time>
      </trkpt>
      <trkpt lat="45.17545" lon="6.28248">
        <ele>1372.2</ele>
        <time>2021-02-28T05:07:21Z</time>
      </trkpt>
      <trkpt lat="45.17545" lon="6.28248">
        <ele>1372.2</ele>
        <time>2021-02-28T05:07:22Z</time>
      </trkpt>
      <trkpt lat="45.17545" lon="6.28248">
        <ele>1372.2</ele>
        <time>2021-02-28T05:07:23Z</time>
      </trkpt>
      <trkpt lat="45.17545" lon="6.28248">
        <ele>1372.2</ele>
        <time>2021-02-28T05:07:24Z</time>
      </trkpt>
      <trkpt lat="45.17545" lon="6.28248">
        <ele>1372.2</ele>
        <time>2021-02-28T05:07:25Z</time>
      </trkpt>
      <trkpt lat="45.17545" lon="6.28248">
        <ele>1371.8</ele>
        <time>2021-02-28T05:07:26Z</time>
      </trkpt>
      <trkpt lat="45.17545" lon="6.28248">
        <ele>1371.6</ele>
        <time>2021-02-28T05:07:27Z</time>
      </trkpt>
      <trkpt lat="45.17545" lon="6.28248">
        <ele>1371.4</ele>
        <time>2021-02-28T05:07:28Z</time>
      </trkpt>
      <trkpt lat="45.17545" lon="6.28248">
        <ele>1371.4</ele>
        <time>2021-02-28T05:07:29Z</time>
      </trkpt>
      <trkpt lat="45.17545" lon="6.28248">
        <ele>1371.2</ele>
        <time>2021-02-28T05:07:30Z</time>
      </trkpt>
      <trkpt lat="45.17545" lon="6.28248">
        <ele>1371.2</ele>
        <time>2021-02-28T05:07:31Z</time>
      </trkpt>
      <trkpt lat="45.17545" lon="6.28248">
        <ele>1371.2</ele>
        <time>2021-02-28T05:07:32Z</time>
      </trkpt>
      <trkpt lat="45.17545" lon="6.28248">
        <ele>1371.4</ele>
        <time>2021-02-28T05:07:33Z</time>
      </trkpt>
      <trkpt lat="45.17545" lon="6.28248">
        <ele>1371.8</ele>
        <time>2021-02-28T05:07:34Z</time>
      </trkpt>
      <trkpt lat="45.17545" lon="6.28248">
        <ele>1372</ele>
        <time>2021-02-28T05:07:35Z</time>
      </trkpt>
      <trkpt lat="45.17545" lon="6.28248">
        <ele>1372</ele>
        <time>2021-02-28T05:07:36Z</time>
      </trkpt>
      <trkpt lat="45.17545" lon="6.28248">
        <ele>1372.2</ele>
        <time>2021-02-28T05:07:37Z</time>
      </trkpt>
      <trkpt lat="45.17545" lon="6.28248">
        <ele>1372.2</ele>
        <time>2021-02-28T05:07:38Z</time>
      </trkpt>
      <trkpt lat="45.17545" lon="6.28248">
        <ele>1372.4</ele>
        <time>2021-02-28T05:07:39Z</time>
      </trkpt>
      <trkpt lat="45.17545" lon="6.28248">
        <ele>1372</ele>
        <time>2021-02-28T05:07:40Z</time>
      </trkpt>
      <trkpt lat="45.17545" lon="6.28248">
        <ele>1372</ele>
        <time>2021-02-28T05:07:41Z</time>
      </trkpt>
      <trkpt lat="45.17545" lon="6.28248">
        <ele>1372</ele>
        <time>2021-02-28T05:07:42Z</time>
      </trkpt>
      <trkpt lat="45.17545" lon="6.28248">
        <ele>1372.2</ele>
        <time>2021-02-28T05:07:43Z</time>
      </trkpt>
      <trkpt lat="45.17545" lon="6.28248">
        <ele>1372</ele>
        <time>2021-02-28T05:07:44Z</time>
      </trkpt>
      <trkpt lat="45.17545" lon="6.28248">
        <ele>1372</ele>
        <time>2021-02-28T05:07:45Z</time>
      </trkpt>
      <trkpt lat="45.17545" lon="6.28248">
        <ele>1371.8</ele>
        <time>2021-02-28T05:07:46Z</time>
      </trkpt>
      <trkpt lat="45.17545" lon="6.28248">
        <ele>1372</ele>
        <time>2021-02-28T05:07:47Z</time>
      </trkpt>
      <trkpt lat="45.17545" lon="6.28248">
        <ele>1371.8</ele>
        <time>2021-02-28T05:07:48Z</time>
      </trkpt>
      <trkpt lat="45.17545" lon="6.28248">
        <ele>1371.6</ele>
        <time>2021-02-28T05:07:49Z</time>
      </trkpt>
      <trkpt lat="45.17545" lon="6.28248">
        <ele>1371.4</ele>
        <time>2021-02-28T05:07:50Z</time>
      </trkpt>
      <trkpt lat="45.17545" lon="6.28248">
        <ele>1371.4</ele>
        <time>2021-02-28T05:07:51Z</time>
      </trkpt>
      <trkpt lat="45.17545" lon="6.28248">
        <ele>1371.4</ele>
        <time>2021-02-28T05:07:52Z</time>
      </trkpt>
      <trkpt lat="45.17545" lon="6.28248">
        <ele>1371.6</ele>
        <time>2021-02-28T05:07:53Z</time>
      </trkpt>
      <trkpt lat="45.17545" lon="6.28248">
        <ele>1371.8</ele>
        <time>2021-02-28T05:07:54Z</time>
      </trkpt>
      <trkpt lat="45.17545" lon="6.28248">
        <ele>1372</ele>
        <time>2021-02-28T05:07:55Z</time>
      </trkpt>
      <trkpt lat="45.17545" lon="6.28248">
        <ele>1371.6</ele>
        <time>2021-02-28T05:07:56Z</time>
      </trkpt>
      <trkpt lat="45.17545" lon="6.28248">
        <ele>1371.6</ele>
        <time>2021-02-28T05:07:57Z</time>
      </trkpt>
      <trkpt lat="45.17545" lon="6.28248">
        <ele>1371.6</ele>
        <time>2021-02-28T05:07:58Z</time>
      </trkpt>
      <trkpt lat="45.17545" lon="6.28248">
        <ele>1371.8</ele>
        <time>2021-02-28T05:07:59Z</time>
      </trkpt>
      <trkpt lat="45.17545" lon="6.28248">
        <ele>1371.8</ele>
        <time>2021-02-28T05:08:00Z</time>
      </trkpt>
      <trkpt lat="45.17545" lon="6.28248">
        <ele>1371.8</ele>
        <time>2021-02-28T05:08:01Z</time>
      </trkpt>
      <trkpt lat="45.17545" lon="6.28248">
        <ele>1371.6</ele>
        <time>2021-02-28T05:08:02Z</time>
      </trkpt>
      <trkpt lat="45.17545" lon="6.28248">
        <ele>1371.2</ele>
        <time>2021-02-28T05:08:03Z</time>
      </trkpt>
      <trkpt lat="45.17545" lon="6.28248">
        <ele>1371.2</ele>
        <time>2021-02-28T05:08:04Z</time>
      </trkpt>
      <trkpt lat="45.17545" lon="6.28248">
        <ele>1371.4</ele>
        <time>2021-02-28T05:08:05Z</time>
      </trkpt>
      <trkpt lat="45.17545" lon="6.28248">
        <ele>1371.8</ele>
        <time>2021-02-28T05:08:06Z</time>
      </trkpt>
      <trkpt lat="45.17548" lon="6.28249">
        <ele>1372.2</ele>
        <time>2021-02-28T05:08:07Z</time>
      </trkpt>
      <trkpt lat="45.17548" lon="6.28249">
        <ele>1372.4</ele>
        <time>2021-02-28T05:08:08Z</time>
      </trkpt>
      <trkpt lat="45.17548" lon="6.28249">
        <ele>1372.4</ele>
        <time>2021-02-28T05:08:09Z</time>
      </trkpt>
      <trkpt lat="45.17548" lon="6.28249">
        <ele>1372.2</ele>
        <time>2021-02-28T05:08:10Z</time>
      </trkpt>
      <trkpt lat="45.17548" lon="6.28249">
        <ele>1371.8</ele>
        <time>2021-02-28T05:08:11Z</time>
      </trkpt>
      <trkpt lat="45.17547" lon="6.2825">
        <ele>1371.6</ele>
        <time>2021-02-28T05:08:12Z</time>
      </trkpt>
      <trkpt lat="45.17547" lon="6.2825">
        <ele>1371.6</ele>
        <time>2021-02-28T05:08:13Z</time>
      </trkpt>
      <trkpt lat="45.17547" lon="6.2825">
        <ele>1371.6</ele>
        <time>2021-02-28T05:08:14Z</time>
      </trkpt>
      <trkpt lat="45.17547" lon="6.2825">
        <ele>1371.6</ele>
        <time>2021-02-28T05:08:15Z</time>
      </trkpt>
      <trkpt lat="45.17547" lon="6.28251">
        <ele>1371.4</ele>
        <time>2021-02-28T05:08:16Z</time>
      </trkpt>
      <trkpt lat="45.17547" lon="6.28251">
        <ele>1371.2</ele>
        <time>2021-02-28T05:08:17Z</time>
      </trkpt>
      <trkpt lat="45.17547" lon="6.28251">
        <ele>1371</ele>
        <time>2021-02-28T05:08:18Z</time>
      </trkpt>
      <trkpt lat="45.17547" lon="6.28252">
        <ele>1371</ele>
        <time>2021-02-28T05:08:19Z</time>
      </trkpt>
      <trkpt lat="45.17547" lon="6.28252">
        <ele>1371.2</ele>
        <time>2021-02-28T05:08:20Z</time>
      </trkpt>
      <trkpt lat="45.17547" lon="6.28252">
        <ele>1371</ele>
        <time>2021-02-28T05:08:21Z</time>
      </trkpt>
      <trkpt lat="45.17547" lon="6.28253">
        <ele>1370.8</ele>
        <time>2021-02-28T05:08:22Z</time>
      </trkpt>
      <trkpt lat="45.17547" lon="6.28253">
        <ele>1370.8</ele>
        <time>2021-02-28T05:08:23Z</time>
      </trkpt>
      <trkpt lat="45.17547" lon="6.28253">
        <ele>1370.8</ele>
        <time>2021-02-28T05:08:24Z</time>
      </trkpt>
      <trkpt lat="45.17547" lon="6.28253">
        <ele>1371</ele>
        <time>2021-02-28T05:08:25Z</time>
      </trkpt>
      <trkpt lat="45.17547" lon="6.28254">
        <ele>1371.4</ele>
        <time>2021-02-28T05:08:26Z</time>
      </trkpt>
      <trkpt lat="45.17546" lon="6.28254">
        <ele>1371.6</ele>
        <time>2021-02-28T05:08:27Z</time>
      </trkpt>
      <trkpt lat="45.17546" lon="6.28254">
        <ele>1372</ele>
        <time>2021-02-28T05:08:28Z</time>
      </trkpt>
      <trkpt lat="45.17546" lon="6.28255">
        <ele>1372</ele>
        <time>2021-02-28T05:08:29Z</time>
      </trkpt>
      <trkpt lat="45.17546" lon="6.28255">
        <ele>1372</ele>
        <time>2021-02-28T05:08:30Z</time>
      </trkpt>
      <trkpt lat="45.17546" lon="6.28255">
        <ele>1372</ele>
        <time>2021-02-28T05:08:31Z</time>
      </trkpt>
      <trkpt lat="45.17546" lon="6.28256">
        <ele>1371.8</ele>
        <time>2021-02-28T05:08:32Z</time>
      </trkpt>
      <trkpt lat="45.17546" lon="6.28256">
        <ele>1371.8</ele>
        <time>2021-02-28T05:08:33Z</time>
      </trkpt>
      <trkpt lat="45.17546" lon="6.28256">
        <ele>1371.6</ele>
        <time>2021-02-28T05:08:34Z</time>
      </trkpt>
      <trkpt lat="45.17546" lon="6.28256">
        <ele>1371.6</ele>
        <time>2021-02-28T05:08:35Z</time>
      </trkpt>
      <trkpt lat="45.17546" lon="6.28257">
        <ele>1372</ele>
        <time>2021-02-28T05:08:36Z</time>
      </trkpt>
      <trkpt lat="45.17546" lon="6.28257">
        <ele>1372.2</ele>
        <time>2021-02-28T05:08:37Z</time>
      </trkpt>
      <trkpt lat="45.17546" lon="6.28257">
        <ele>1372.4</ele>
        <time>2021-02-28T05:08:38Z</time>
      </trkpt>
      <trkpt lat="45.17546" lon="6.28258">
        <ele>1372.4</ele>
        <time>2021-02-28T05:08:39Z</time>
      </trkpt>
      <trkpt lat="45.17546" lon="6.28258">
        <ele>1372.4</ele>
        <time>2021-02-28T05:08:40Z</time>
      </trkpt>
      <trkpt lat="45.17546" lon="6.28258">
        <ele>1372.2</ele>
        <time>2021-02-28T05:08:41Z</time>
      </trkpt>
      <trkpt lat="45.17545" lon="6.28258">
        <ele>1372.2</ele>
        <time>2021-02-28T05:08:42Z</time>
      </trkpt>
      <trkpt lat="45.17545" lon="6.28259">
        <ele>1372.4</ele>
        <time>2021-02-28T05:08:43Z</time>
      </trkpt>
      <trkpt lat="45.17545" lon="6.28259">
        <ele>1372</ele>
        <time>2021-02-28T05:08:44Z</time>
      </trkpt>
      <trkpt lat="45.17545" lon="6.28259">
        <ele>1371.8</ele>
        <time>2021-02-28T05:08:45Z</time>
      </trkpt>
      <trkpt lat="45.17545" lon="6.2826">
        <ele>1372</ele>
        <time>2021-02-28T05:08:46Z</time>
      </trkpt>
      <trkpt lat="45.17545" lon="6.2826">
        <ele>1371.8</ele>
        <time>2021-02-28T05:08:47Z</time>
      </trkpt>
      <trkpt lat="45.17545" lon="6.2826">
        <ele>1371.8</ele>
        <time>2021-02-28T05:08:48Z</time>
      </trkpt>
      <trkpt lat="45.17545" lon="6.28261">
        <ele>1371.8</ele>
        <time>2021-02-28T05:08:49Z</time>
      </trkpt>
      <trkpt lat="45.17545" lon="6.28261">
        <ele>1371.8</ele>
        <time>2021-02-28T05:08:50Z</time>
      </trkpt>
      <trkpt lat="45.17545" lon="6.28261">
        <ele>1371.8</ele>
        <time>2021-02-28T05:08:51Z</time>
      </trkpt>
      <trkpt lat="45.17545" lon="6.28261">
        <ele>1371.6</ele>
        <time>2021-02-28T05:08:52Z</time>
      </trkpt>
      <trkpt lat="45.17545" lon="6.28262">
        <ele>1371.8</ele>
        <time>2021-02-28T05:08:53Z</time>
      </trkpt>
      <trkpt lat="45.17545" lon="6.28262">
        <ele>1372.2</ele>
        <time>2021-02-28T05:08:54Z</time>
      </trkpt>
      <trkpt lat="45.17545" lon="6.28262">
        <ele>1372.2</ele>
        <time>2021-02-28T05:08:55Z</time>
      </trkpt>
      <trkpt lat="45.17545" lon="6.28263">
        <ele>1372.2</ele>
        <time>2021-02-28T05:08:56Z</time>
      </trkpt>
      <trkpt lat="45.17544" lon="6.28264">
        <ele>1372.2</ele>
        <time>2021-02-28T05:08:57Z</time>
      </trkpt>
      <trkpt lat="45.17543" lon="6.28264">
        <ele>1372.2</ele>
        <time>2021-02-28T05:08:58Z</time>
      </trkpt>
      <trkpt lat="45.17542" lon="6.28265">
        <ele>1372.4</ele>
        <time>2021-02-28T05:08:59Z</time>
      </trkpt>
      <trkpt lat="45.17541" lon="6.28266">
        <ele>1372.4</ele>
        <time>2021-02-28T05:09:00Z</time>
      </trkpt>
      <trkpt lat="45.1754" lon="6.28267">
        <ele>1372.6</ele>
        <time>2021-02-28T05:09:01Z</time>
      </trkpt>
      <trkpt lat="45.1754" lon="6.28268">
        <ele>1372.8</ele>
        <time>2021-02-28T05:09:02Z</time>
      </trkpt>
      <trkpt lat="45.17539" lon="6.28269">
        <ele>1373</ele>
        <time>2021-02-28T05:09:03Z</time>
      </trkpt>
      <trkpt lat="45.17538" lon="6.2827">
        <ele>1372.8</ele>
        <time>2021-02-28T05:09:04Z</time>
      </trkpt>
      <trkpt lat="45.17537" lon="6.28271">
        <ele>1372.6</ele>
        <time>2021-02-28T05:09:05Z</time>
      </trkpt>
      <trkpt lat="45.17536" lon="6.2827">
        <ele>1372.2</ele>
        <time>2021-02-28T05:09:06Z</time>
      </trkpt>
      <trkpt lat="45.17535" lon="6.2827">
        <ele>1372</ele>
        <time>2021-02-28T05:09:07Z</time>
      </trkpt>
      <trkpt lat="45.17534" lon="6.28269">
        <ele>1371.6</ele>
        <time>2021-02-28T05:09:08Z</time>
      </trkpt>
      <trkpt lat="45.17533" lon="6.28269">
        <ele>1371.8</ele>
        <time>2021-02-28T05:09:09Z</time>
      </trkpt>
      <trkpt lat="45.17532" lon="6.28269">
        <ele>1371.6</ele>
        <time>2021-02-28T05:09:10Z</time>
      </trkpt>
      <trkpt lat="45.17531" lon="6.28268">
        <ele>1371.2</ele>
        <time>2021-02-28T05:09:11Z</time>
      </trkpt>
      <trkpt lat="45.1753" lon="6.28268">
        <ele>1371.6</ele>
        <time>2021-02-28T05:09:12Z</time>
      </trkpt>
      <trkpt lat="45.17529" lon="6.28267">
        <ele>1371.4</ele>
        <time>2021-02-28T05:09:13Z</time>
      </trkpt>
      <trkpt lat="45.17528" lon="6.28267">
        <ele>1371.6</ele>
        <time>2021-02-28T05:09:14Z</time>
      </trkpt>
      <trkpt lat="45.17528" lon="6.28265">
        <ele>1371.6</ele>
        <time>2021-02-28T05:09:15Z</time>
      </trkpt>
      <trkpt lat="45.17528" lon="6.28264">
        <ele>1371.6</ele>
        <time>2021-02-28T05:09:16Z</time>
      </trkpt>
      <trkpt lat="45.17528" lon="6.28263">
        <ele>1371.6</ele>
        <time>2021-02-28T05:09:17Z</time>
      </trkpt>
      <trkpt lat="45.17528" lon="6.28261">
        <ele>1371.2</ele>
        <time>2021-02-28T05:09:18Z</time>
      </trkpt>
      <trkpt lat="45.17527" lon="6.2826">
        <ele>1371.4</ele>
        <time>2021-02-28T05:09:19Z</time>
      </trkpt>
      <trkpt lat="45.17527" lon="6.28258">
        <ele>1371</ele>
        <time>2021-02-28T05:09:20Z</time>
      </trkpt>
      <trkpt lat="45.17527" lon="6.28257">
        <ele>1371</ele>
        <time>2021-02-28T05:09:21Z</time>
      </trkpt>
      <trkpt lat="45.17527" lon="6.28255">
        <ele>1371</ele>
        <time>2021-02-28T05:09:22Z</time>
      </trkpt>
      <trkpt lat="45.17527" lon="6.28254">
        <ele>1371</ele>
        <time>2021-02-28T05:09:23Z</time>
      </trkpt>
      <trkpt lat="45.17526" lon="6.28252">
        <ele>1371</ele>
        <time>2021-02-28T05:09:24Z</time>
      </trkpt>
      <trkpt lat="45.17526" lon="6.28251">
        <ele>1371.2</ele>
        <time>2021-02-28T05:09:25Z</time>
      </trkpt>
      <trkpt lat="45.17525" lon="6.28249">
        <ele>1371.4</ele>
        <time>2021-02-28T05:09:26Z</time>
      </trkpt>
      <trkpt lat="45.17524" lon="6.28247">
        <ele>1371.4</ele>
        <time>2021-02-28T05:09:27Z</time>
      </trkpt>
      <trkpt lat="45.17524" lon="6.28246">
        <ele>1371.6</ele>
        <time>2021-02-28T05:09:28Z</time>
      </trkpt>
      <trkpt lat="45.17524" lon="6.28246">
        <ele>1372</ele>
        <time>2021-02-28T05:09:29Z</time>
      </trkpt>
      <trkpt lat="45.17524" lon="6.28246">
        <ele>1372</ele>
        <time>2021-02-28T05:09:30Z</time>
      </trkpt>
      <trkpt lat="45.17523" lon="6.28243">
        <ele>1372.4</ele>
        <time>2021-02-28T05:09:31Z</time>
      </trkpt>
      <trkpt lat="45.17523" lon="6.28243">
        <ele>1372.6</ele>
        <time>2021-02-28T05:09:32Z</time>
      </trkpt>
      <trkpt lat="45.17523" lon="6.28243">
        <ele>1372.6</ele>
        <time>2021-02-28T05:09:33Z</time>
      </trkpt>
      <trkpt lat="45.17522" lon="6.28241">
        <ele>1372.8</ele>
        <time>2021-02-28T05:09:34Z</time>
      </trkpt>
      <trkpt lat="45.17522" lon="6.28241">
        <ele>1372.8</ele>
        <time>2021-02-28T05:09:35Z</time>
      </trkpt>
      <trkpt lat="45.17522" lon="6.28241">
        <ele>1373.2</ele>
        <time>2021-02-28T05:09:36Z</time>
      </trkpt>
      <trkpt lat="45.1752" lon="6.28239">
        <ele>1373.4</ele>
        <time>2021-02-28T05:09:37Z</time>
      </trkpt>
      <trkpt lat="45.1752" lon="6.28239">
        <ele>1373.8</ele>
        <time>2021-02-28T05:09:38Z</time>
      </trkpt>
      <trkpt lat="45.17518" lon="6.28239">
        <ele>1373.8</ele>
        <time>2021-02-28T05:09:39Z</time>
      </trkpt>
      <trkpt lat="45.17518" lon="6.28239">
        <ele>1374</ele>
        <time>2021-02-28T05:09:40Z</time>
      </trkpt>
      <trkpt lat="45.17516" lon="6.28239">
        <ele>1374</ele>
        <time>2021-02-28T05:09:41Z</time>
      </trkpt>
      <trkpt lat="45.17516" lon="6.28239">
        <ele>1374.2</ele>
        <time>2021-02-28T05:09:42Z</time>
      </trkpt>
      <trkpt lat="45.17514" lon="6.28239">
        <ele>1374.4</ele>
        <time>2021-02-28T05:09:43Z</time>
      </trkpt>
      <trkpt lat="45.17514" lon="6.28239">
        <ele>1374.6</ele>
        <time>2021-02-28T05:09:44Z</time>
      </trkpt>
      <trkpt lat="45.17512" lon="6.28239">
        <ele>1374.6</ele>
        <time>2021-02-28T05:09:45Z</time>
      </trkpt>
      <trkpt lat="45.17512" lon="6.28239">
        <ele>1375</ele>
        <time>2021-02-28T05:09:46Z</time>
      </trkpt>
      <trkpt lat="45.1751" lon="6.2824">
        <ele>1375.2</ele>
        <time>2021-02-28T05:09:47Z</time>
      </trkpt>
      <trkpt lat="45.1751" lon="6.2824">
        <ele>1375.4</ele>
        <time>2021-02-28T05:09:48Z</time>
      </trkpt>
      <trkpt lat="45.17508" lon="6.2824">
        <ele>1375.6</ele>
        <time>2021-02-28T05:09:49Z</time>
      </trkpt>
      <trkpt lat="45.17508" lon="6.2824">
        <ele>1375.6</ele>
        <time>2021-02-28T05:09:50Z</time>
      </trkpt>
      <trkpt lat="45.17506" lon="6.28241">
        <ele>1375.8</ele>
        <time>2021-02-28T05:09:51Z</time>
      </trkpt>
      <trkpt lat="45.17506" lon="6.28241">
        <ele>1375.8</ele>
        <time>2021-02-28T05:09:52Z</time>
      </trkpt>
      <trkpt lat="45.17504" lon="6.2824">
        <ele>1375.8</ele>
        <time>2021-02-28T05:09:53Z</time>
      </trkpt>
      <trkpt lat="45.17504" lon="6.2824">
        <ele>1376.2</ele>
        <time>2021-02-28T05:09:54Z</time>
      </trkpt>
      <trkpt lat="45.17504" lon="6.2824">
        <ele>1376.2</ele>
        <time>2021-02-28T05:09:55Z</time>
      </trkpt>
      <trkpt lat="45.17502" lon="6.2824">
        <ele>1376.6</ele>
        <time>2021-02-28T05:09:56Z</time>
      </trkpt>
      <trkpt lat="45.17502" lon="6.2824">
        <ele>1376.6</ele>
        <time>2021-02-28T05:09:57Z</time>
      </trkpt>
      <trkpt lat="45.17502" lon="6.2824">
        <ele>1377</ele>
        <time>2021-02-28T05:09:58Z</time>
      </trkpt>
      <trkpt lat="45.17501" lon="6.2824">
        <ele>1377.2</ele>
        <time>2021-02-28T05:09:59Z</time>
      </trkpt>
      <trkpt lat="45.175" lon="6.2824">
        <ele>1377.4</ele>
        <time>2021-02-28T05:10:00Z</time>
      </trkpt>
      <trkpt lat="45.17499" lon="6.2824">
        <ele>1377.4</ele>
        <time>2021-02-28T05:10:01Z</time>
      </trkpt>
      <trkpt lat="45.17498" lon="6.2824">
        <ele>1377.8</ele>
        <time>2021-02-28T05:10:02Z</time>
      </trkpt>
      <trkpt lat="45.17498" lon="6.2824">
        <ele>1378</ele>
        <time>2021-02-28T05:10:03Z</time>
      </trkpt>
      <trkpt lat="45.17497" lon="6.2824">
        <ele>1378.2</ele>
        <time>2021-02-28T05:10:04Z</time>
      </trkpt>
      <trkpt lat="45.17496" lon="6.2824">
        <ele>1378.4</ele>
        <time>2021-02-28T05:10:05Z</time>
      </trkpt>
      <trkpt lat="45.17495" lon="6.2824">
        <ele>1378.6</ele>
        <time>2021-02-28T05:10:06Z</time>
      </trkpt>
      <trkpt lat="45.17494" lon="6.2824">
        <ele>1378.8</ele>
        <time>2021-02-28T05:10:07Z</time>
      </trkpt>
      <trkpt lat="45.17494" lon="6.2824">
        <ele>1379.2</ele>
        <time>2021-02-28T05:10:08Z</time>
      </trkpt>
      <trkpt lat="45.17493" lon="6.2824">
        <ele>1378.8</ele>
        <time>2021-02-28T05:10:09Z</time>
      </trkpt>
      <trkpt lat="45.17492" lon="6.2824">
        <ele>1379.2</ele>
        <time>2021-02-28T05:10:10Z</time>
      </trkpt>
      <trkpt lat="45.17489" lon="6.28241">
        <ele>1379.8</ele>
        <time>2021-02-28T05:10:11Z</time>
      </trkpt>
      <trkpt lat="45.17489" lon="6.28241">
        <ele>1380.4</ele>
        <time>2021-02-28T05:10:12Z</time>
      </trkpt>
      <trkpt lat="45.17489" lon="6.28241">
        <ele>1380.2</ele>
        <time>2021-02-28T05:10:13Z</time>
      </trkpt>
      <trkpt lat="45.17489" lon="6.28241">
        <ele>1380.4</ele>
        <time>2021-02-28T05:10:14Z</time>
      </trkpt>
      <trkpt lat="45.17486" lon="6.28241">
        <ele>1380.4</ele>
        <time>2021-02-28T05:10:15Z</time>
      </trkpt>
      <trkpt lat="45.17486" lon="6.28241">
        <ele>1380.8</ele>
        <time>2021-02-28T05:10:16Z</time>
      </trkpt>
      <trkpt lat="45.17486" lon="6.28241">
        <ele>1381</ele>
        <time>2021-02-28T05:10:17Z</time>
      </trkpt>
      <trkpt lat="45.17485" lon="6.28241">
        <ele>1381</ele>
        <time>2021-02-28T05:10:18Z</time>
      </trkpt>
      <trkpt lat="45.17483" lon="6.28241">
        <ele>1381.2</ele>
        <time>2021-02-28T05:10:19Z</time>
      </trkpt>
      <trkpt lat="45.17482" lon="6.28241">
        <ele>1381.2</ele>
        <time>2021-02-28T05:10:20Z</time>
      </trkpt>
      <trkpt lat="45.1748" lon="6.28241">
        <ele>1381.6</ele>
        <time>2021-02-28T05:10:21Z</time>
      </trkpt>
      <trkpt lat="45.1748" lon="6.28241">
        <ele>1382</ele>
        <time>2021-02-28T05:10:22Z</time>
      </trkpt>
      <trkpt lat="45.1748" lon="6.28241">
        <ele>1382.2</ele>
        <time>2021-02-28T05:10:23Z</time>
      </trkpt>
      <trkpt lat="45.17479" lon="6.28242">
        <ele>1382.2</ele>
        <time>2021-02-28T05:10:24Z</time>
      </trkpt>
      <trkpt lat="45.17479" lon="6.28242">
        <ele>1382.6</ele>
        <time>2021-02-28T05:10:25Z</time>
      </trkpt>
      <trkpt lat="45.17478" lon="6.28242">
        <ele>1382.8</ele>
        <time>2021-02-28T05:10:26Z</time>
      </trkpt>
      <trkpt lat="45.17477" lon="6.28242">
        <ele>1383</ele>
        <time>2021-02-28T05:10:27Z</time>
      </trkpt>
      <trkpt lat="45.17477" lon="6.28243">
        <ele>1382.8</ele>
        <time>2021-02-28T05:10:28Z</time>
      </trkpt>
      <trkpt lat="45.17476" lon="6.28243">
        <ele>1382.8</ele>
        <time>2021-02-28T05:10:29Z</time>
      </trkpt>
      <trkpt lat="45.17475" lon="6.28243">
        <ele>1383.2</ele>
        <time>2021-02-28T05:10:30Z</time>
      </trkpt>
      <trkpt lat="45.17474" lon="6.28243">
        <ele>1383.4</ele>
        <time>2021-02-28T05:10:31Z</time>
      </trkpt>
      <trkpt lat="45.17474" lon="6.28243">
        <ele>1383.2</ele>
        <time>2021-02-28T05:10:32Z</time>
      </trkpt>
      <trkpt lat="45.17473" lon="6.28244">
        <ele>1383.6</ele>
        <time>2021-02-28T05:10:33Z</time>
      </trkpt>
      <trkpt lat="45.17472" lon="6.28244">
        <ele>1384.2</ele>
        <time>2021-02-28T05:10:34Z</time>
      </trkpt>
      <trkpt lat="45.17472" lon="6.28244">
        <ele>1384.2</ele>
        <time>2021-02-28T05:10:35Z</time>
      </trkpt>
      <trkpt lat="45.17471" lon="6.28244">
        <ele>1384.6</ele>
        <time>2021-02-28T05:10:36Z</time>
      </trkpt>
      <trkpt lat="45.1747" lon="6.28244">
        <ele>1384.8</ele>
        <time>2021-02-28T05:10:37Z</time>
      </trkpt>
      <trkpt lat="45.1747" lon="6.28244">
        <ele>1385</ele>
        <time>2021-02-28T05:10:38Z</time>
      </trkpt>
      <trkpt lat="45.17469" lon="6.28244">
        <ele>1385.4</ele>
        <time>2021-02-28T05:10:39Z</time>
      </trkpt>
      <trkpt lat="45.17468" lon="6.28244">
        <ele>1385.8</ele>
        <time>2021-02-28T05:10:40Z</time>
      </trkpt>
      <trkpt lat="45.17468" lon="6.28244">
        <ele>1386</ele>
        <time>2021-02-28T05:10:41Z</time>
      </trkpt>
      <trkpt lat="45.17467" lon="6.28244">
        <ele>1386.2</ele>
        <time>2021-02-28T05:10:42Z</time>
      </trkpt>
      <trkpt lat="45.17466" lon="6.28245">
        <ele>1386</ele>
        <time>2021-02-28T05:10:43Z</time>
      </trkpt>
      <trkpt lat="45.17466" lon="6.28245">
        <ele>1386.4</ele>
        <time>2021-02-28T05:10:44Z</time>
      </trkpt>
      <trkpt lat="45.17465" lon="6.28245">
        <ele>1386.6</ele>
        <time>2021-02-28T05:10:45Z</time>
      </trkpt>
      <trkpt lat="45.17464" lon="6.28245">
        <ele>1386.6</ele>
        <time>2021-02-28T05:10:46Z</time>
      </trkpt>
      <trkpt lat="45.17464" lon="6.28245">
        <ele>1386.8</ele>
        <time>2021-02-28T05:10:47Z</time>
      </trkpt>
      <trkpt lat="45.17463" lon="6.28245">
        <ele>1386.8</ele>
        <time>2021-02-28T05:10:48Z</time>
      </trkpt>
      <trkpt lat="45.17463" lon="6.28245">
        <ele>1387</ele>
        <time>2021-02-28T05:10:49Z</time>
      </trkpt>
      <trkpt lat="45.17463" lon="6.28245">
        <ele>1387.4</ele>
        <time>2021-02-28T05:10:50Z</time>
      </trkpt>
      <trkpt lat="45.17463" lon="6.28246">
        <ele>1387.6</ele>
        <time>2021-02-28T05:10:51Z</time>
      </trkpt>
      <trkpt lat="45.17463" lon="6.28246">
        <ele>1387.4</ele>
        <time>2021-02-28T05:10:52Z</time>
      </trkpt>
      <trkpt lat="45.17462" lon="6.28246">
        <ele>1387.6</ele>
        <time>2021-02-28T05:10:53Z</time>
      </trkpt>
      <trkpt lat="45.17462" lon="6.28246">
        <ele>1388</ele>
        <time>2021-02-28T05:10:54Z</time>
      </trkpt>
      <trkpt lat="45.17462" lon="6.28246">
        <ele>1388.2</ele>
        <time>2021-02-28T05:10:55Z</time>
      </trkpt>
      <trkpt lat="45.17462" lon="6.28247">
        <ele>1388.6</ele>
        <time>2021-02-28T05:10:56Z</time>
      </trkpt>
      <trkpt lat="45.17462" lon="6.28247">
        <ele>1388.6</ele>
        <time>2021-02-28T05:10:57Z</time>
      </trkpt>
      <trkpt lat="45.17461" lon="6.28247">
        <ele>1388.6</ele>
        <time>2021-02-28T05:10:58Z</time>
      </trkpt>
      <trkpt lat="45.17461" lon="6.28247">
        <ele>1388.6</ele>
        <time>2021-02-28T05:10:59Z</time>
      </trkpt>
      <trkpt lat="45.17461" lon="6.28247">
        <ele>1388.2</ele>
        <time>2021-02-28T05:11:00Z</time>
      </trkpt>
      <trkpt lat="45.17461" lon="6.28247">
        <ele>1388.4</ele>
        <time>2021-02-28T05:11:01Z</time>
      </trkpt>
      <trkpt lat="45.17461" lon="6.28248">
        <ele>1388.6</ele>
        <time>2021-02-28T05:11:02Z</time>
      </trkpt>
      <trkpt lat="45.1746" lon="6.28248">
        <ele>1388.8</ele>
        <time>2021-02-28T05:11:03Z</time>
      </trkpt>
      <trkpt lat="45.1746" lon="6.28248">
        <ele>1389</ele>
        <time>2021-02-28T05:11:04Z</time>
      </trkpt>
      <trkpt lat="45.1746" lon="6.28248">
        <ele>1389</ele>
        <time>2021-02-28T05:11:05Z</time>
      </trkpt>
      <trkpt lat="45.1746" lon="6.28248">
        <ele>1388.8</ele>
        <time>2021-02-28T05:11:06Z</time>
      </trkpt>
      <trkpt lat="45.1746" lon="6.28249">
        <ele>1388.8</ele>
        <time>2021-02-28T05:11:07Z</time>
      </trkpt>
      <trkpt lat="45.17459" lon="6.28249">
        <ele>1389.2</ele>
        <time>2021-02-28T05:11:08Z</time>
      </trkpt>
      <trkpt lat="45.17459" lon="6.28249">
        <ele>1389.2</ele>
        <time>2021-02-28T05:11:09Z</time>
      </trkpt>
      <trkpt lat="45.17459" lon="6.28249">
        <ele>1389.2</ele>
        <time>2021-02-28T05:11:10Z</time>
      </trkpt>
      <trkpt lat="45.17459" lon="6.28249">
        <ele>1389.2</ele>
        <time>2021-02-28T05:11:11Z</time>
      </trkpt>
      <trkpt lat="45.17459" lon="6.28249">
        <ele>1389.2</ele>
        <time>2021-02-28T05:11:12Z</time>
      </trkpt>
      <trkpt lat="45.17459" lon="6.2825">
        <ele>1389.2</ele>
        <time>2021-02-28T05:11:13Z</time>
      </trkpt>
      <trkpt lat="45.17458" lon="6.2825">
        <ele>1389.2</ele>
        <time>2021-02-28T05:11:14Z</time>
      </trkpt>
      <trkpt lat="45.17458" lon="6.2825">
        <ele>1389</ele>
        <time>2021-02-28T05:11:15Z</time>
      </trkpt>
      <trkpt lat="45.17458" lon="6.2825">
        <ele>1389.2</ele>
        <time>2021-02-28T05:11:16Z</time>
      </trkpt>
      <trkpt lat="45.17458" lon="6.2825">
        <ele>1389.2</ele>
        <time>2021-02-28T05:11:17Z</time>
      </trkpt>
      <trkpt lat="45.17458" lon="6.28251">
        <ele>1389.2</ele>
        <time>2021-02-28T05:11:18Z</time>
      </trkpt>
      <trkpt lat="45.17457" lon="6.28251">
        <ele>1389.2</ele>
        <time>2021-02-28T05:11:19Z</time>
      </trkpt>
      <trkpt lat="45.17457" lon="6.28251">
        <ele>1389.4</ele>
        <time>2021-02-28T05:11:20Z</time>
      </trkpt>
      <trkpt lat="45.17457" lon="6.28251">
        <ele>1388.8</ele>
        <time>2021-02-28T05:11:21Z</time>
      </trkpt>
      <trkpt lat="45.17456" lon="6.28252">
        <ele>1388.6</ele>
        <time>2021-02-28T05:11:22Z</time>
      </trkpt>
      <trkpt lat="45.17455" lon="6.28252">
        <ele>1388.8</ele>
        <time>2021-02-28T05:11:23Z</time>
      </trkpt>
      <trkpt lat="45.17455" lon="6.28253">
        <ele>1389</ele>
        <time>2021-02-28T05:11:24Z</time>
      </trkpt>
      <trkpt lat="45.17454" lon="6.28253">
        <ele>1389</ele>
        <time>2021-02-28T05:11:25Z</time>
      </trkpt>
      <trkpt lat="45.17453" lon="6.28253">
        <ele>1389.2</ele>
        <time>2021-02-28T05:11:26Z</time>
      </trkpt>
      <trkpt lat="45.17452" lon="6.28254">
        <ele>1389.2</ele>
        <time>2021-02-28T05:11:27Z</time>
      </trkpt>
      <trkpt lat="45.17451" lon="6.28254">
        <ele>1389.2</ele>
        <time>2021-02-28T05:11:28Z</time>
      </trkpt>
      <trkpt lat="45.1745" lon="6.28255">
        <ele>1389.2</ele>
        <time>2021-02-28T05:11:29Z</time>
      </trkpt>
      <trkpt lat="45.1745" lon="6.28255">
        <ele>1389.2</ele>
        <time>2021-02-28T05:11:30Z</time>
      </trkpt>
      <trkpt lat="45.17449" lon="6.28256">
        <ele>1389.4</ele>
        <time>2021-02-28T05:11:31Z</time>
      </trkpt>
      <trkpt lat="45.17448" lon="6.28256">
        <ele>1389.6</ele>
        <time>2021-02-28T05:11:32Z</time>
      </trkpt>
      <trkpt lat="45.17447" lon="6.28257">
        <ele>1389.4</ele>
        <time>2021-02-28T05:11:33Z</time>
      </trkpt>
      <trkpt lat="45.17446" lon="6.28258">
        <ele>1389.6</ele>
        <time>2021-02-28T05:11:34Z</time>
      </trkpt>
      <trkpt lat="45.17445" lon="6.28259">
        <ele>1389.8</ele>
        <time>2021-02-28T05:11:35Z</time>
      </trkpt>
      <trkpt lat="45.17444" lon="6.2826">
        <ele>1390</ele>
        <time>2021-02-28T05:11:36Z</time>
      </trkpt>
      <trkpt lat="45.17443" lon="6.28262">
        <ele>1390</ele>
        <time>2021-02-28T05:11:37Z</time>
      </trkpt>
      <trkpt lat="45.17442" lon="6.28263">
        <ele>1390.2</ele>
        <time>2021-02-28T05:11:38Z</time>
      </trkpt>
      <trkpt lat="45.17441" lon="6.28264">
        <ele>1390.4</ele>
        <time>2021-02-28T05:11:39Z</time>
      </trkpt>
      <trkpt lat="45.1744" lon="6.28265">
        <ele>1390.6</ele>
        <time>2021-02-28T05:11:40Z</time>
      </trkpt>
      <trkpt lat="45.17439" lon="6.28266">
        <ele>1390.8</ele>
        <time>2021-02-28T05:11:41Z</time>
      </trkpt>
      <trkpt lat="45.17438" lon="6.28267">
        <ele>1391</ele>
        <time>2021-02-28T05:11:42Z</time>
      </trkpt>
      <trkpt lat="45.17437" lon="6.28268">
        <ele>1391.2</ele>
        <time>2021-02-28T05:11:43Z</time>
      </trkpt>
      <trkpt lat="45.17436" lon="6.28269">
        <ele>1391.4</ele>
        <time>2021-02-28T05:11:44Z</time>
      </trkpt>
      <trkpt lat="45.17435" lon="6.28269">
        <ele>1391.6</ele>
        <time>2021-02-28T05:11:45Z</time>
      </trkpt>
      <trkpt lat="45.17434" lon="6.2827">
        <ele>1391.6</ele>
        <time>2021-02-28T05:11:46Z</time>
      </trkpt>
      <trkpt lat="45.17433" lon="6.28271">
        <ele>1392</ele>
        <time>2021-02-28T05:11:47Z</time>
      </trkpt>
      <trkpt lat="45.17432" lon="6.28272">
        <ele>1392.2</ele>
        <time>2021-02-28T05:11:48Z</time>
      </trkpt>
      <trkpt lat="45.17431" lon="6.28272">
        <ele>1392.4</ele>
        <time>2021-02-28T05:11:49Z</time>
      </trkpt>
      <trkpt lat="45.17431" lon="6.28272">
        <ele>1392.6</ele>
        <time>2021-02-28T05:11:50Z</time>
      </trkpt>
      <trkpt lat="45.1743" lon="6.28273">
        <ele>1392.6</ele>
        <time>2021-02-28T05:11:51Z</time>
      </trkpt>
      <trkpt lat="45.1743" lon="6.28273">
        <ele>1393</ele>
        <time>2021-02-28T05:11:52Z</time>
      </trkpt>
      <trkpt lat="45.1743" lon="6.28274">
        <ele>1393</ele>
        <time>2021-02-28T05:11:53Z</time>
      </trkpt>
      <trkpt lat="45.17429" lon="6.28274">
        <ele>1393.2</ele>
        <time>2021-02-28T05:11:54Z</time>
      </trkpt>
      <trkpt lat="45.17429" lon="6.28274">
        <ele>1393.6</ele>
        <time>2021-02-28T05:11:55Z</time>
      </trkpt>
      <trkpt lat="45.17428" lon="6.28275">
        <ele>1393.6</ele>
        <time>2021-02-28T05:11:56Z</time>
      </trkpt>
      <trkpt lat="45.17428" lon="6.28275">
        <ele>1393.6</ele>
        <time>2021-02-28T05:11:57Z</time>
      </trkpt>
      <trkpt lat="45.17428" lon="6.28276">
        <ele>1393.6</ele>
        <time>2021-02-28T05:11:58Z</time>
      </trkpt>
      <trkpt lat="45.17427" lon="6.28276">
        <ele>1393.8</ele>
        <time>2021-02-28T05:11:59Z</time>
      </trkpt>
      <trkpt lat="45.17427" lon="6.28276">
        <ele>1393.6</ele>
        <time>2021-02-28T05:12:00Z</time>
      </trkpt>
      <trkpt lat="45.17426" lon="6.28277">
        <ele>1393.4</ele>
        <time>2021-02-28T05:12:01Z</time>
      </trkpt>
      <trkpt lat="45.17426" lon="6.28277">
        <ele>1393.4</ele>
        <time>2021-02-28T05:12:02Z</time>
      </trkpt>
      <trkpt lat="45.17426" lon="6.28278">
        <ele>1393.8</ele>
        <time>2021-02-28T05:12:03Z</time>
      </trkpt>
      <trkpt lat="45.17425" lon="6.28278">
        <ele>1394</ele>
        <time>2021-02-28T05:12:04Z</time>
      </trkpt>
      <trkpt lat="45.17425" lon="6.28278">
        <ele>1394</ele>
        <time>2021-02-28T05:12:05Z</time>
      </trkpt>
      <trkpt lat="45.17425" lon="6.28279">
        <ele>1394.2</ele>
        <time>2021-02-28T05:12:06Z</time>
      </trkpt>
      <trkpt lat="45.17424" lon="6.28279">
        <ele>1394.2</ele>
        <time>2021-02-28T05:12:07Z</time>
      </trkpt>
      <trkpt lat="45.17424" lon="6.2828">
        <ele>1394.4</ele>
        <time>2021-02-28T05:12:08Z</time>
      </trkpt>
      <trkpt lat="45.17422" lon="6.28281">
        <ele>1394.8</ele>
        <time>2021-02-28T05:12:09Z</time>
      </trkpt>
      <trkpt lat="45.17421" lon="6.28281">
        <ele>1395</ele>
        <time>2021-02-28T05:12:10Z</time>
      </trkpt>
      <trkpt lat="45.1742" lon="6.28282">
        <ele>1395.2</ele>
        <time>2021-02-28T05:12:11Z</time>
      </trkpt>
      <trkpt lat="45.17418" lon="6.28283">
        <ele>1395.8</ele>
        <time>2021-02-28T05:12:12Z</time>
      </trkpt>
      <trkpt lat="45.17417" lon="6.28284">
        <ele>1395.8</ele>
        <time>2021-02-28T05:12:13Z</time>
      </trkpt>
      <trkpt lat="45.17416" lon="6.28285">
        <ele>1396</ele>
        <time>2021-02-28T05:12:14Z</time>
      </trkpt>
      <trkpt lat="45.17414" lon="6.28286">
        <ele>1396.4</ele>
        <time>2021-02-28T05:12:15Z</time>
      </trkpt>
      <trkpt lat="45.17414" lon="6.28287">
        <ele>1396.4</ele>
        <time>2021-02-28T05:12:16Z</time>
      </trkpt>
      <trkpt lat="45.17413" lon="6.28288">
        <ele>1396.8</ele>
        <time>2021-02-28T05:12:17Z</time>
      </trkpt>
      <trkpt lat="45.17412" lon="6.28289">
        <ele>1397.2</ele>
        <time>2021-02-28T05:12:18Z</time>
      </trkpt>
      <trkpt lat="45.17411" lon="6.2829">
        <ele>1397.2</ele>
        <time>2021-02-28T05:12:19Z</time>
      </trkpt>
      <trkpt lat="45.1741" lon="6.28291">
        <ele>1397.6</ele>
        <time>2021-02-28T05:12:20Z</time>
      </trkpt>
      <trkpt lat="45.17409" lon="6.28292">
        <ele>1397.8</ele>
        <time>2021-02-28T05:12:21Z</time>
      </trkpt>
      <trkpt lat="45.17408" lon="6.28293">
        <ele>1397.6</ele>
        <time>2021-02-28T05:12:22Z</time>
      </trkpt>
      <trkpt lat="45.17407" lon="6.28294">
        <ele>1398</ele>
        <time>2021-02-28T05:12:23Z</time>
      </trkpt>
      <trkpt lat="45.17406" lon="6.28294">
        <ele>1398.2</ele>
        <time>2021-02-28T05:12:24Z</time>
      </trkpt>
      <trkpt lat="45.17405" lon="6.28294">
        <ele>1398.2</ele>
        <time>2021-02-28T05:12:25Z</time>
      </trkpt>
      <trkpt lat="45.17404" lon="6.28294">
        <ele>1398.6</ele>
        <time>2021-02-28T05:12:26Z</time>
      </trkpt>
      <trkpt lat="45.17403" lon="6.28294">
        <ele>1398.8</ele>
        <time>2021-02-28T05:12:27Z</time>
      </trkpt>
      <trkpt lat="45.17402" lon="6.28294">
        <ele>1399</ele>
        <time>2021-02-28T05:12:28Z</time>
      </trkpt>
      <trkpt lat="45.17402" lon="6.28294">
        <ele>1399.2</ele>
        <time>2021-02-28T05:12:29Z</time>
      </trkpt>
      <trkpt lat="45.17401" lon="6.28294">
        <ele>1399.2</ele>
        <time>2021-02-28T05:12:30Z</time>
      </trkpt>
      <trkpt lat="45.174" lon="6.28293">
        <ele>1399.4</ele>
        <time>2021-02-28T05:12:31Z</time>
      </trkpt>
      <trkpt lat="45.17399" lon="6.28293">
        <ele>1399.6</ele>
        <time>2021-02-28T05:12:32Z</time>
      </trkpt>
      <trkpt lat="45.17398" lon="6.28293">
        <ele>1399.8</ele>
        <time>2021-02-28T05:12:33Z</time>
      </trkpt>
      <trkpt lat="45.17397" lon="6.28293">
        <ele>1399.8</ele>
        <time>2021-02-28T05:12:34Z</time>
      </trkpt>
      <trkpt lat="45.17396" lon="6.28293">
        <ele>1400</ele>
        <time>2021-02-28T05:12:35Z</time>
      </trkpt>
      <trkpt lat="45.17395" lon="6.28292">
        <ele>1400.4</ele>
        <time>2021-02-28T05:12:36Z</time>
      </trkpt>
      <trkpt lat="45.17393" lon="6.28292">
        <ele>1400.6</ele>
        <time>2021-02-28T05:12:37Z</time>
      </trkpt>
      <trkpt lat="45.17392" lon="6.28292">
        <ele>1401</ele>
        <time>2021-02-28T05:12:38Z</time>
      </trkpt>
      <trkpt lat="45.17391" lon="6.28291">
        <ele>1401.4</ele>
        <time>2021-02-28T05:12:39Z</time>
      </trkpt>
      <trkpt lat="45.1739" lon="6.28291">
        <ele>1401.4</ele>
        <time>2021-02-28T05:12:40Z</time>
      </trkpt>
      <trkpt lat="45.17389" lon="6.28291">
        <ele>1401.6</ele>
        <time>2021-02-28T05:12:41Z</time>
      </trkpt>
      <trkpt lat="45.17385" lon="6.28291">
        <ele>1402</ele>
        <time>2021-02-28T05:12:42Z</time>
      </trkpt>
      <trkpt lat="45.17385" lon="6.28291">
        <ele>1402</ele>
        <time>2021-02-28T05:12:43Z</time>
      </trkpt>
      <trkpt lat="45.17385" lon="6.28291">
        <ele>1402.2</ele>
        <time>2021-02-28T05:12:44Z</time>
      </trkpt>
      <trkpt lat="45.17385" lon="6.28292">
        <ele>1402.6</ele>
        <time>2021-02-28T05:12:45Z</time>
      </trkpt>
      <trkpt lat="45.17384" lon="6.28293">
        <ele>1402.6</ele>
        <time>2021-02-28T05:12:46Z</time>
      </trkpt>
      <trkpt lat="45.17383" lon="6.28293">
        <ele>1402.8</ele>
        <time>2021-02-28T05:12:47Z</time>
      </trkpt>
      <trkpt lat="45.17383" lon="6.28294">
        <ele>1403</ele>
        <time>2021-02-28T05:12:48Z</time>
      </trkpt>
      <trkpt lat="45.17382" lon="6.28295">
        <ele>1403.4</ele>
        <time>2021-02-28T05:12:49Z</time>
      </trkpt>
      <trkpt lat="45.17381" lon="6.28296">
        <ele>1403.6</ele>
        <time>2021-02-28T05:12:50Z</time>
      </trkpt>
      <trkpt lat="45.17381" lon="6.28296">
        <ele>1403.8</ele>
        <time>2021-02-28T05:12:51Z</time>
      </trkpt>
      <trkpt lat="45.1738" lon="6.28297">
        <ele>1403.8</ele>
        <time>2021-02-28T05:12:52Z</time>
      </trkpt>
      <trkpt lat="45.17379" lon="6.28298">
        <ele>1404.4</ele>
        <time>2021-02-28T05:12:53Z</time>
      </trkpt>
      <trkpt lat="45.17379" lon="6.28299">
        <ele>1404.4</ele>
        <time>2021-02-28T05:12:54Z</time>
      </trkpt>
      <trkpt lat="45.17378" lon="6.28299">
        <ele>1404.8</ele>
        <time>2021-02-28T05:12:55Z</time>
      </trkpt>
      <trkpt lat="45.17377" lon="6.283">
        <ele>1404.8</ele>
        <time>2021-02-28T05:12:56Z</time>
      </trkpt>
      <trkpt lat="45.17377" lon="6.28301">
        <ele>1405.2</ele>
        <time>2021-02-28T05:12:57Z</time>
      </trkpt>
      <trkpt lat="45.17376" lon="6.28302">
        <ele>1405.4</ele>
        <time>2021-02-28T05:12:58Z</time>
      </trkpt>
      <trkpt lat="45.17375" lon="6.28303">
        <ele>1405.6</ele>
        <time>2021-02-28T05:12:59Z</time>
      </trkpt>
      <trkpt lat="45.17374" lon="6.28304">
        <ele>1405.8</ele>
        <time>2021-02-28T05:13:00Z</time>
      </trkpt>
      <trkpt lat="45.17373" lon="6.28305">
        <ele>1406.4</ele>
        <time>2021-02-28T05:13:01Z</time>
      </trkpt>
      <trkpt lat="45.17373" lon="6.28306">
        <ele>1406.6</ele>
        <time>2021-02-28T05:13:02Z</time>
      </trkpt>
      <trkpt lat="45.17372" lon="6.28307">
        <ele>1406.8</ele>
        <time>2021-02-28T05:13:03Z</time>
      </trkpt>
      <trkpt lat="45.17371" lon="6.28308">
        <ele>1407</ele>
        <time>2021-02-28T05:13:04Z</time>
      </trkpt>
      <trkpt lat="45.1737" lon="6.28309">
        <ele>1407.2</ele>
        <time>2021-02-28T05:13:05Z</time>
      </trkpt>
      <trkpt lat="45.17369" lon="6.28309">
        <ele>1407.6</ele>
        <time>2021-02-28T05:13:06Z</time>
      </trkpt>
      <trkpt lat="45.17368" lon="6.2831">
        <ele>1407.8</ele>
        <time>2021-02-28T05:13:07Z</time>
      </trkpt>
      <trkpt lat="45.17367" lon="6.28311">
        <ele>1408</ele>
        <time>2021-02-28T05:13:08Z</time>
      </trkpt>
      <trkpt lat="45.17366" lon="6.28311">
        <ele>1408.2</ele>
        <time>2021-02-28T05:13:09Z</time>
      </trkpt>
      <trkpt lat="45.17365" lon="6.28312">
        <ele>1408.4</ele>
        <time>2021-02-28T05:13:10Z</time>
      </trkpt>
      <trkpt lat="45.17364" lon="6.28313">
        <ele>1408.6</ele>
        <time>2021-02-28T05:13:11Z</time>
      </trkpt>
      <trkpt lat="45.17363" lon="6.28313">
        <ele>1408.8</ele>
        <time>2021-02-28T05:13:12Z</time>
      </trkpt>
      <trkpt lat="45.17362" lon="6.28314">
        <ele>1409.2</ele>
        <time>2021-02-28T05:13:13Z</time>
      </trkpt>
      <trkpt lat="45.17361" lon="6.28315">
        <ele>1409.4</ele>
        <time>2021-02-28T05:13:14Z</time>
      </trkpt>
      <trkpt lat="45.1736" lon="6.28316">
        <ele>1409.8</ele>
        <time>2021-02-28T05:13:15Z</time>
      </trkpt>
      <trkpt lat="45.17359" lon="6.28317">
        <ele>1409.8</ele>
        <time>2021-02-28T05:13:16Z</time>
      </trkpt>
      <trkpt lat="45.17358" lon="6.28318">
        <ele>1410</ele>
        <time>2021-02-28T05:13:17Z</time>
      </trkpt>
      <trkpt lat="45.17357" lon="6.28319">
        <ele>1410.2</ele>
        <time>2021-02-28T05:13:18Z</time>
      </trkpt>
      <trkpt lat="45.17357" lon="6.2832">
        <ele>1410.4</ele>
        <time>2021-02-28T05:13:19Z</time>
      </trkpt>
      <trkpt lat="45.17356" lon="6.28321">
        <ele>1410.8</ele>
        <time>2021-02-28T05:13:20Z</time>
      </trkpt>
      <trkpt lat="45.17355" lon="6.28322">
        <ele>1411</ele>
        <time>2021-02-28T05:13:21Z</time>
      </trkpt>
      <trkpt lat="45.17354" lon="6.28323">
        <ele>1411.4</ele>
        <time>2021-02-28T05:13:22Z</time>
      </trkpt>
      <trkpt lat="45.17354" lon="6.28323">
        <ele>1411.6</ele>
        <time>2021-02-28T05:13:23Z</time>
      </trkpt>
      <trkpt lat="45.17353" lon="6.28324">
        <ele>1412</ele>
        <time>2021-02-28T05:13:24Z</time>
      </trkpt>
      <trkpt lat="45.17353" lon="6.28325">
        <ele>1412</ele>
        <time>2021-02-28T05:13:25Z</time>
      </trkpt>
      <trkpt lat="45.17352" lon="6.28326">
        <ele>1412.4</ele>
        <time>2021-02-28T05:13:26Z</time>
      </trkpt>
      <trkpt lat="45.17351" lon="6.28326">
        <ele>1412.6</ele>
        <time>2021-02-28T05:13:27Z</time>
      </trkpt>
      <trkpt lat="45.17351" lon="6.28327">
        <ele>1412.8</ele>
        <time>2021-02-28T05:13:28Z</time>
      </trkpt>
      <trkpt lat="45.1735" lon="6.28328">
        <ele>1412.8</ele>
        <time>2021-02-28T05:13:29Z</time>
      </trkpt>
      <trkpt lat="45.17349" lon="6.28329">
        <ele>1413.4</ele>
        <time>2021-02-28T05:13:30Z</time>
      </trkpt>
      <trkpt lat="45.17349" lon="6.28329">
        <ele>1413.6</ele>
        <time>2021-02-28T05:13:31Z</time>
      </trkpt>
      <trkpt lat="45.17348" lon="6.2833">
        <ele>1414.2</ele>
        <time>2021-02-28T05:13:32Z</time>
      </trkpt>
      <trkpt lat="45.17346" lon="6.28331">
        <ele>1414</ele>
        <time>2021-02-28T05:13:33Z</time>
      </trkpt>
      <trkpt lat="45.17345" lon="6.28331">
        <ele>1414.4</ele>
        <time>2021-02-28T05:13:34Z</time>
      </trkpt>
      <trkpt lat="45.17343" lon="6.28332">
        <ele>1414.8</ele>
        <time>2021-02-28T05:13:35Z</time>
      </trkpt>
      <trkpt lat="45.17341" lon="6.28333">
        <ele>1415</ele>
        <time>2021-02-28T05:13:36Z</time>
      </trkpt>
      <trkpt lat="45.17339" lon="6.28334">
        <ele>1415.2</ele>
        <time>2021-02-28T05:13:37Z</time>
      </trkpt>
      <trkpt lat="45.17339" lon="6.28334">
        <ele>1415.4</ele>
        <time>2021-02-28T05:13:38Z</time>
      </trkpt>
      <trkpt lat="45.17339" lon="6.28335">
        <ele>1415.8</ele>
        <time>2021-02-28T05:13:39Z</time>
      </trkpt>
      <trkpt lat="45.17338" lon="6.28336">
        <ele>1415.8</ele>
        <time>2021-02-28T05:13:40Z</time>
      </trkpt>
      <trkpt lat="45.17338" lon="6.28336">
        <ele>1416.6</ele>
        <time>2021-02-28T05:13:41Z</time>
      </trkpt>
      <trkpt lat="45.17338" lon="6.28337">
        <ele>1416.6</ele>
        <time>2021-02-28T05:13:42Z</time>
      </trkpt>
      <trkpt lat="45.17338" lon="6.28338">
        <ele>1417</ele>
        <time>2021-02-28T05:13:43Z</time>
      </trkpt>
      <trkpt lat="45.17337" lon="6.28338">
        <ele>1417.2</ele>
        <time>2021-02-28T05:13:44Z</time>
      </trkpt>
      <trkpt lat="45.17337" lon="6.28339">
        <ele>1417.4</ele>
        <time>2021-02-28T05:13:45Z</time>
      </trkpt>
      <trkpt lat="45.17337" lon="6.2834">
        <ele>1417.6</ele>
        <time>2021-02-28T05:13:46Z</time>
      </trkpt>
      <trkpt lat="45.17337" lon="6.2834">
        <ele>1417.8</ele>
        <time>2021-02-28T05:13:47Z</time>
      </trkpt>
      <trkpt lat="45.17336" lon="6.28341">
        <ele>1418.2</ele>
        <time>2021-02-28T05:13:48Z</time>
      </trkpt>
      <trkpt lat="45.17339" lon="6.28341">
        <ele>1418.2</ele>
        <time>2021-02-28T05:13:49Z</time>
      </trkpt>
      <trkpt lat="45.17339" lon="6.28341">
        <ele>1418.2</ele>
        <time>2021-02-28T05:13:50Z</time>
      </trkpt>
      <trkpt lat="45.17339" lon="6.28341">
        <ele>1418</ele>
        <time>2021-02-28T05:13:51Z</time>
      </trkpt>
      <trkpt lat="45.17341" lon="6.28339">
        <ele>1418</ele>
        <time>2021-02-28T05:13:52Z</time>
      </trkpt>
      <trkpt lat="45.17341" lon="6.28339">
        <ele>1418</ele>
        <time>2021-02-28T05:13:53Z</time>
      </trkpt>
      <trkpt lat="45.17342" lon="6.28338">
        <ele>1418.4</ele>
        <time>2021-02-28T05:13:54Z</time>
      </trkpt>
      <trkpt lat="45.17342" lon="6.28338">
        <ele>1418.6</ele>
        <time>2021-02-28T05:13:55Z</time>
      </trkpt>
      <trkpt lat="45.17344" lon="6.28336">
        <ele>1418.6</ele>
        <time>2021-02-28T05:13:56Z</time>
      </trkpt>
      <trkpt lat="45.17344" lon="6.28336">
        <ele>1418.8</ele>
        <time>2021-02-28T05:13:57Z</time>
      </trkpt>
      <trkpt lat="45.17346" lon="6.28335">
        <ele>1418.8</ele>
        <time>2021-02-28T05:13:58Z</time>
      </trkpt>
      <trkpt lat="45.17346" lon="6.28335">
        <ele>1418.4</ele>
        <time>2021-02-28T05:13:59Z</time>
      </trkpt>
      <trkpt lat="45.17348" lon="6.28335">
        <ele>1418.6</ele>
        <time>2021-02-28T05:14:00Z</time>
      </trkpt>
      <trkpt lat="45.17348" lon="6.28335">
        <ele>1418.8</ele>
        <time>2021-02-28T05:14:01Z</time>
      </trkpt>
      <trkpt lat="45.17348" lon="6.28335">
        <ele>1419</ele>
        <time>2021-02-28T05:14:02Z</time>
      </trkpt>
      <trkpt lat="45.1735" lon="6.28335">
        <ele>1419</ele>
        <time>2021-02-28T05:14:03Z</time>
      </trkpt>
      <trkpt lat="45.1735" lon="6.28335">
        <ele>1419.4</ele>
        <time>2021-02-28T05:14:04Z</time>
      </trkpt>
      <trkpt lat="45.17352" lon="6.28334">
        <ele>1419.4</ele>
        <time>2021-02-28T05:14:05Z</time>
      </trkpt>
      <trkpt lat="45.17352" lon="6.28334">
        <ele>1419.6</ele>
        <time>2021-02-28T05:14:06Z</time>
      </trkpt>
      <trkpt lat="45.17354" lon="6.28333">
        <ele>1419.6</ele>
        <time>2021-02-28T05:14:07Z</time>
      </trkpt>
      <trkpt lat="45.17354" lon="6.28333">
        <ele>1419.6</ele>
        <time>2021-02-28T05:14:08Z</time>
      </trkpt>
      <trkpt lat="45.17356" lon="6.28332">
        <ele>1419.6</ele>
        <time>2021-02-28T05:14:09Z</time>
      </trkpt>
      <trkpt lat="45.17356" lon="6.28332">
        <ele>1420.2</ele>
        <time>2021-02-28T05:14:10Z</time>
      </trkpt>
      <trkpt lat="45.17356" lon="6.28332">
        <ele>1420.2</ele>
        <time>2021-02-28T05:14:11Z</time>
      </trkpt>
      <trkpt lat="45.17356" lon="6.28332">
        <ele>1420</ele>
        <time>2021-02-28T05:14:12Z</time>
      </trkpt>
      <trkpt lat="45.17356" lon="6.28332">
        <ele>1419.8</ele>
        <time>2021-02-28T05:14:13Z</time>
      </trkpt>
      <trkpt lat="45.17357" lon="6.28329">
        <ele>1419.6</ele>
        <time>2021-02-28T05:14:14Z</time>
      </trkpt>
      <trkpt lat="45.17357" lon="6.28329">
        <ele>1419.8</ele>
        <time>2021-02-28T05:14:15Z</time>
      </trkpt>
      <trkpt lat="45.17357" lon="6.28329">
        <ele>1419.8</ele>
        <time>2021-02-28T05:14:16Z</time>
      </trkpt>
      <trkpt lat="45.17358" lon="6.28329">
        <ele>1420.2</ele>
        <time>2021-02-28T05:14:17Z</time>
      </trkpt>
      <trkpt lat="45.17359" lon="6.28329">
        <ele>1420.2</ele>
        <time>2021-02-28T05:14:18Z</time>
      </trkpt>
      <trkpt lat="45.1736" lon="6.28329">
        <ele>1420.4</ele>
        <time>2021-02-28T05:14:19Z</time>
      </trkpt>
      <trkpt lat="45.1736" lon="6.28329">
        <ele>1420.8</ele>
        <time>2021-02-28T05:14:20Z</time>
      </trkpt>
      <trkpt lat="45.17361" lon="6.28329">
        <ele>1421.2</ele>
        <time>2021-02-28T05:14:21Z</time>
      </trkpt>
      <trkpt lat="45.17362" lon="6.28329">
        <ele>1421.8</ele>
        <time>2021-02-28T05:14:22Z</time>
      </trkpt>
      <trkpt lat="45.17363" lon="6.28329">
        <ele>1422.2</ele>
        <time>2021-02-28T05:14:23Z</time>
      </trkpt>
      <trkpt lat="45.17363" lon="6.28329">
        <ele>1422.6</ele>
        <time>2021-02-28T05:14:24Z</time>
      </trkpt>
      <trkpt lat="45.17364" lon="6.28329">
        <ele>1422.8</ele>
        <time>2021-02-28T05:14:25Z</time>
      </trkpt>
      <trkpt lat="45.17365" lon="6.28329">
        <ele>1423</ele>
        <time>2021-02-28T05:14:26Z</time>
      </trkpt>
      <trkpt lat="45.17366" lon="6.28329">
        <ele>1423</ele>
        <time>2021-02-28T05:14:27Z</time>
      </trkpt>
      <trkpt lat="45.17367" lon="6.28329">
        <ele>1423.2</ele>
        <time>2021-02-28T05:14:28Z</time>
      </trkpt>
      <trkpt lat="45.17367" lon="6.28329">
        <ele>1423.2</ele>
        <time>2021-02-28T05:14:29Z</time>
      </trkpt>
      <trkpt lat="45.17368" lon="6.28329">
        <ele>1423.4</ele>
        <time>2021-02-28T05:14:30Z</time>
      </trkpt>
      <trkpt lat="45.17369" lon="6.28329">
        <ele>1423.4</ele>
        <time>2021-02-28T05:14:31Z</time>
      </trkpt>
      <trkpt lat="45.1737" lon="6.28329">
        <ele>1423.8</ele>
        <time>2021-02-28T05:14:32Z</time>
      </trkpt>
      <trkpt lat="45.1737" lon="6.28329">
        <ele>1424</ele>
        <time>2021-02-28T05:14:33Z</time>
      </trkpt>
      <trkpt lat="45.17371" lon="6.2833">
        <ele>1424.6</ele>
        <time>2021-02-28T05:14:34Z</time>
      </trkpt>
      <trkpt lat="45.17372" lon="6.2833">
        <ele>1425</ele>
        <time>2021-02-28T05:14:35Z</time>
      </trkpt>
      <trkpt lat="45.17373" lon="6.2833">
        <ele>1425</ele>
        <time>2021-02-28T05:14:36Z</time>
      </trkpt>
      <trkpt lat="45.17373" lon="6.2833">
        <ele>1425.4</ele>
        <time>2021-02-28T05:14:37Z</time>
      </trkpt>
      <trkpt lat="45.17374" lon="6.28331">
        <ele>1425.8</ele>
        <time>2021-02-28T05:14:38Z</time>
      </trkpt>
      <trkpt lat="45.17375" lon="6.28331">
        <ele>1426.2</ele>
        <time>2021-02-28T05:14:39Z</time>
      </trkpt>
      <trkpt lat="45.17375" lon="6.28331">
        <ele>1426.4</ele>
        <time>2021-02-28T05:14:40Z</time>
      </trkpt>
      <trkpt lat="45.17376" lon="6.28331">
        <ele>1426.6</ele>
        <time>2021-02-28T05:14:41Z</time>
      </trkpt>
      <trkpt lat="45.17377" lon="6.28331">
        <ele>1426.6</ele>
        <time>2021-02-28T05:14:42Z</time>
      </trkpt>
      <trkpt lat="45.17378" lon="6.28332">
        <ele>1426.6</ele>
        <time>2021-02-28T05:14:43Z</time>
      </trkpt>
      <trkpt lat="45.17378" lon="6.28332">
        <ele>1427</ele>
        <time>2021-02-28T05:14:44Z</time>
      </trkpt>
      <trkpt lat="45.17379" lon="6.28332">
        <ele>1427.2</ele>
        <time>2021-02-28T05:14:45Z</time>
      </trkpt>
      <trkpt lat="45.17382" lon="6.28332">
        <ele>1427.4</ele>
        <time>2021-02-28T05:14:46Z</time>
      </trkpt>
      <trkpt lat="45.17382" lon="6.28332">
        <ele>1427.6</ele>
        <time>2021-02-28T05:14:47Z</time>
      </trkpt>
      <trkpt lat="45.17382" lon="6.28332">
        <ele>1428</ele>
        <time>2021-02-28T05:14:48Z</time>
      </trkpt>
      <trkpt lat="45.17383" lon="6.28332">
        <ele>1428</ele>
        <time>2021-02-28T05:14:49Z</time>
      </trkpt>
      <trkpt lat="45.17383" lon="6.28332">
        <ele>1428.2</ele>
        <time>2021-02-28T05:14:50Z</time>
      </trkpt>
      <trkpt lat="45.17384" lon="6.28332">
        <ele>1428.4</ele>
        <time>2021-02-28T05:14:51Z</time>
      </trkpt>
      <trkpt lat="45.17385" lon="6.28332">
        <ele>1428.4</ele>
        <time>2021-02-28T05:14:52Z</time>
      </trkpt>
      <trkpt lat="45.17386" lon="6.28332">
        <ele>1428.8</ele>
        <time>2021-02-28T05:14:53Z</time>
      </trkpt>
      <trkpt lat="45.17386" lon="6.28332">
        <ele>1429.4</ele>
        <time>2021-02-28T05:14:54Z</time>
      </trkpt>
      <trkpt lat="45.17387" lon="6.28333">
        <ele>1429.4</ele>
        <time>2021-02-28T05:14:55Z</time>
      </trkpt>
      <trkpt lat="45.17387" lon="6.28333">
        <ele>1429.4</ele>
        <time>2021-02-28T05:14:56Z</time>
      </trkpt>
      <trkpt lat="45.17388" lon="6.28334">
        <ele>1429.4</ele>
        <time>2021-02-28T05:14:57Z</time>
      </trkpt>
      <trkpt lat="45.17389" lon="6.28334">
        <ele>1429.6</ele>
        <time>2021-02-28T05:14:58Z</time>
      </trkpt>
      <trkpt lat="45.17389" lon="6.28335">
        <ele>1429.6</ele>
        <time>2021-02-28T05:14:59Z</time>
      </trkpt>
      <trkpt lat="45.1739" lon="6.28335">
        <ele>1429.8</ele>
        <time>2021-02-28T05:15:00Z</time>
      </trkpt>
      <trkpt lat="45.1739" lon="6.28336">
        <ele>1430.2</ele>
        <time>2021-02-28T05:15:01Z</time>
      </trkpt>
      <trkpt lat="45.17391" lon="6.28337">
        <ele>1430.2</ele>
        <time>2021-02-28T05:15:02Z</time>
      </trkpt>
      <trkpt lat="45.17391" lon="6.28337">
        <ele>1430.4</ele>
        <time>2021-02-28T05:15:03Z</time>
      </trkpt>
      <trkpt lat="45.17392" lon="6.28338">
        <ele>1430.8</ele>
        <time>2021-02-28T05:15:04Z</time>
      </trkpt>
      <trkpt lat="45.17394" lon="6.28339">
        <ele>1430.8</ele>
        <time>2021-02-28T05:15:05Z</time>
      </trkpt>
      <trkpt lat="45.17394" lon="6.28339">
        <ele>1430.8</ele>
        <time>2021-02-28T05:15:06Z</time>
      </trkpt>
      <trkpt lat="45.17394" lon="6.28339">
        <ele>1430.8</ele>
        <time>2021-02-28T05:15:07Z</time>
      </trkpt>
      <trkpt lat="45.17394" lon="6.28339">
        <ele>1430.8</ele>
        <time>2021-02-28T05:15:08Z</time>
      </trkpt>
      <trkpt lat="45.17394" lon="6.28339">
        <ele>1431</ele>
        <time>2021-02-28T05:15:09Z</time>
      </trkpt>
      <trkpt lat="45.17394" lon="6.28339">
        <ele>1431</ele>
        <time>2021-02-28T05:15:10Z</time>
      </trkpt>
      <trkpt lat="45.17394" lon="6.28339">
        <ele>1431</ele>
        <time>2021-02-28T05:15:11Z</time>
      </trkpt>
      <trkpt lat="45.17394" lon="6.28339">
        <ele>1430.8</ele>
        <time>2021-02-28T05:15:12Z</time>
      </trkpt>
      <trkpt lat="45.17394" lon="6.28339">
        <ele>1431</ele>
        <time>2021-02-28T05:15:13Z</time>
      </trkpt>
      <trkpt lat="45.17394" lon="6.28339">
        <ele>1431</ele>
        <time>2021-02-28T05:15:14Z</time>
      </trkpt>
      <trkpt lat="45.17394" lon="6.28339">
        <ele>1430.8</ele>
        <time>2021-02-28T05:15:15Z</time>
      </trkpt>
      <trkpt lat="45.17396" lon="6.28341">
        <ele>1430.8</ele>
        <time>2021-02-28T05:15:16Z</time>
      </trkpt>
      <trkpt lat="45.17396" lon="6.28341">
        <ele>1431</ele>
        <time>2021-02-28T05:15:17Z</time>
      </trkpt>
      <trkpt lat="45.17398" lon="6.2834">
        <ele>1430.8</ele>
        <time>2021-02-28T05:15:18Z</time>
      </trkpt>
      <trkpt lat="45.17398" lon="6.2834">
        <ele>1431</ele>
        <time>2021-02-28T05:15:19Z</time>
      </trkpt>
      <trkpt lat="45.17398" lon="6.2834">
        <ele>1431</ele>
        <time>2021-02-28T05:15:20Z</time>
      </trkpt>
      <trkpt lat="45.174" lon="6.2834">
        <ele>1431.4</ele>
        <time>2021-02-28T05:15:21Z</time>
      </trkpt>
      <trkpt lat="45.17401" lon="6.2834">
        <ele>1431.4</ele>
        <time>2021-02-28T05:15:22Z</time>
      </trkpt>
      <trkpt lat="45.17403" lon="6.28339">
        <ele>1431.4</ele>
        <time>2021-02-28T05:15:23Z</time>
      </trkpt>
      <trkpt lat="45.17405" lon="6.28339">
        <ele>1431.8</ele>
        <time>2021-02-28T05:15:24Z</time>
      </trkpt>
      <trkpt lat="45.17406" lon="6.28338">
        <ele>1431.8</ele>
        <time>2021-02-28T05:15:25Z</time>
      </trkpt>
      <trkpt lat="45.17406" lon="6.28338">
        <ele>1432</ele>
        <time>2021-02-28T05:15:26Z</time>
      </trkpt>
      <trkpt lat="45.17406" lon="6.28338">
        <ele>1432</ele>
        <time>2021-02-28T05:15:27Z</time>
      </trkpt>
      <trkpt lat="45.17407" lon="6.28338">
        <ele>1432.2</ele>
        <time>2021-02-28T05:15:28Z</time>
      </trkpt>
      <trkpt lat="45.17408" lon="6.28338">
        <ele>1432.4</ele>
        <time>2021-02-28T05:15:29Z</time>
      </trkpt>
      <trkpt lat="45.17409" lon="6.28338">
        <ele>1432.4</ele>
        <time>2021-02-28T05:15:30Z</time>
      </trkpt>
      <trkpt lat="45.1741" lon="6.28339">
        <ele>1432.8</ele>
        <time>2021-02-28T05:15:31Z</time>
      </trkpt>
      <trkpt lat="45.17411" lon="6.28339">
        <ele>1432.8</ele>
        <time>2021-02-28T05:15:32Z</time>
      </trkpt>
      <trkpt lat="45.17412" lon="6.28339">
        <ele>1433</ele>
        <time>2021-02-28T05:15:33Z</time>
      </trkpt>
      <trkpt lat="45.17413" lon="6.28339">
        <ele>1433.4</ele>
        <time>2021-02-28T05:15:34Z</time>
      </trkpt>
      <trkpt lat="45.17413" lon="6.28339">
        <ele>1433.4</ele>
        <time>2021-02-28T05:15:35Z</time>
      </trkpt>
      <trkpt lat="45.17413" lon="6.28339">
        <ele>1433.4</ele>
        <time>2021-02-28T05:15:36Z</time>
      </trkpt>
      <trkpt lat="45.17417" lon="6.28339">
        <ele>1433.6</ele>
        <time>2021-02-28T05:15:37Z</time>
      </trkpt>
      <trkpt lat="45.17417" lon="6.28339">
        <ele>1434</ele>
        <time>2021-02-28T05:15:38Z</time>
      </trkpt>
      <trkpt lat="45.17419" lon="6.28339">
        <ele>1434</ele>
        <time>2021-02-28T05:15:39Z</time>
      </trkpt>
      <trkpt lat="45.17419" lon="6.28339">
        <ele>1434.4</ele>
        <time>2021-02-28T05:15:40Z</time>
      </trkpt>
      <trkpt lat="45.17419" lon="6.28339">
        <ele>1434.6</ele>
        <time>2021-02-28T05:15:41Z</time>
      </trkpt>
      <trkpt lat="45.17419" lon="6.28339">
        <ele>1435</ele>
        <time>2021-02-28T05:15:42Z</time>
      </trkpt>
      <trkpt lat="45.17422" lon="6.2834">
        <ele>1435.2</ele>
        <time>2021-02-28T05:15:43Z</time>
      </trkpt>
      <trkpt lat="45.17422" lon="6.2834">
        <ele>1435.4</ele>
        <time>2021-02-28T05:15:44Z</time>
      </trkpt>
      <trkpt lat="45.17422" lon="6.2834">
        <ele>1435.6</ele>
        <time>2021-02-28T05:15:45Z</time>
      </trkpt>
      <trkpt lat="45.17423" lon="6.2834">
        <ele>1435.8</ele>
        <time>2021-02-28T05:15:46Z</time>
      </trkpt>
      <trkpt lat="45.17425" lon="6.2834">
        <ele>1436.2</ele>
        <time>2021-02-28T05:15:47Z</time>
      </trkpt>
      <trkpt lat="45.17426" lon="6.2834">
        <ele>1436.8</ele>
        <time>2021-02-28T05:15:48Z</time>
      </trkpt>
      <trkpt lat="45.17427" lon="6.2834">
        <ele>1436.8</ele>
        <time>2021-02-28T05:15:49Z</time>
      </trkpt>
      <trkpt lat="45.17429" lon="6.28341">
        <ele>1437.4</ele>
        <time>2021-02-28T05:15:50Z</time>
      </trkpt>
      <trkpt lat="45.1743" lon="6.28341">
        <ele>1437.2</ele>
        <time>2021-02-28T05:15:51Z</time>
      </trkpt>
      <trkpt lat="45.17431" lon="6.28341">
        <ele>1437.4</ele>
        <time>2021-02-28T05:15:52Z</time>
      </trkpt>
      <trkpt lat="45.17432" lon="6.28341">
        <ele>1437.8</ele>
        <time>2021-02-28T05:15:53Z</time>
      </trkpt>
      <trkpt lat="45.17434" lon="6.28342">
        <ele>1437.8</ele>
        <time>2021-02-28T05:15:54Z</time>
      </trkpt>
      <trkpt lat="45.17435" lon="6.28343">
        <ele>1438.2</ele>
        <time>2021-02-28T05:15:55Z</time>
      </trkpt>
      <trkpt lat="45.17436" lon="6.28343">
        <ele>1438.6</ele>
        <time>2021-02-28T05:15:56Z</time>
      </trkpt>
      <trkpt lat="45.17438" lon="6.28344">
        <ele>1438.4</ele>
        <time>2021-02-28T05:15:57Z</time>
      </trkpt>
      <trkpt lat="45.17439" lon="6.28345">
        <ele>1438.6</ele>
        <time>2021-02-28T05:15:58Z</time>
      </trkpt>
      <trkpt lat="45.1744" lon="6.28347">
        <ele>1438.8</ele>
        <time>2021-02-28T05:15:59Z</time>
      </trkpt>
      <trkpt lat="45.1744" lon="6.28348">
        <ele>1439</ele>
        <time>2021-02-28T05:16:00Z</time>
      </trkpt>
      <trkpt lat="45.17441" lon="6.2835">
        <ele>1439.4</ele>
        <time>2021-02-28T05:16:01Z</time>
      </trkpt>
      <trkpt lat="45.17442" lon="6.28352">
        <ele>1439.2</ele>
        <time>2021-02-28T05:16:02Z</time>
      </trkpt>
      <trkpt lat="45.17442" lon="6.28354">
        <ele>1439.4</ele>
        <time>2021-02-28T05:16:03Z</time>
      </trkpt>
      <trkpt lat="45.17443" lon="6.28355">
        <ele>1439.6</ele>
        <time>2021-02-28T05:16:04Z</time>
      </trkpt>
      <trkpt lat="45.17443" lon="6.28357">
        <ele>1439.6</ele>
        <time>2021-02-28T05:16:05Z</time>
      </trkpt>
      <trkpt lat="45.17444" lon="6.28359">
        <ele>1440.2</ele>
        <time>2021-02-28T05:16:06Z</time>
      </trkpt>
      <trkpt lat="45.17444" lon="6.28361">
        <ele>1440.2</ele>
        <time>2021-02-28T05:16:07Z</time>
      </trkpt>
      <trkpt lat="45.17444" lon="6.28363">
        <ele>1440.8</ele>
        <time>2021-02-28T05:16:08Z</time>
      </trkpt>
      <trkpt lat="45.17445" lon="6.28365">
        <ele>1441</ele>
        <time>2021-02-28T05:16:09Z</time>
      </trkpt>
      <trkpt lat="45.17445" lon="6.28367">
        <ele>1441.2</ele>
        <time>2021-02-28T05:16:10Z</time>
      </trkpt>
      <trkpt lat="45.17445" lon="6.28369">
        <ele>1441.2</ele>
        <time>2021-02-28T05:16:11Z</time>
      </trkpt>
      <trkpt lat="45.17445" lon="6.28371">
        <ele>1441.8</ele>
        <time>2021-02-28T05:16:12Z</time>
      </trkpt>
      <trkpt lat="45.17445" lon="6.28372">
        <ele>1442</ele>
        <time>2021-02-28T05:16:13Z</time>
      </trkpt>
      <trkpt lat="45.17444" lon="6.28373">
        <ele>1442.2</ele>
        <time>2021-02-28T05:16:14Z</time>
      </trkpt>
      <trkpt lat="45.17443" lon="6.28375">
        <ele>1442.6</ele>
        <time>2021-02-28T05:16:15Z</time>
      </trkpt>
      <trkpt lat="45.17443" lon="6.28376">
        <ele>1442.6</ele>
        <time>2021-02-28T05:16:16Z</time>
      </trkpt>
      <trkpt lat="45.17442" lon="6.28377">
        <ele>1443.2</ele>
        <time>2021-02-28T05:16:17Z</time>
      </trkpt>
      <trkpt lat="45.17442" lon="6.28379">
        <ele>1443.4</ele>
        <time>2021-02-28T05:16:18Z</time>
      </trkpt>
      <trkpt lat="45.17441" lon="6.2838">
        <ele>1444</ele>
        <time>2021-02-28T05:16:19Z</time>
      </trkpt>
      <trkpt lat="45.17439" lon="6.28384">
        <ele>1444</ele>
        <time>2021-02-28T05:16:20Z</time>
      </trkpt>
      <trkpt lat="45.17439" lon="6.28384">
        <ele>1444.2</ele>
        <time>2021-02-28T05:16:21Z</time>
      </trkpt>
      <trkpt lat="45.17439" lon="6.28384">
        <ele>1444.6</ele>
        <time>2021-02-28T05:16:22Z</time>
      </trkpt>
      <trkpt lat="45.17439" lon="6.28385">
        <ele>1444.8</ele>
        <time>2021-02-28T05:16:23Z</time>
      </trkpt>
      <trkpt lat="45.17439" lon="6.28387">
        <ele>1445</ele>
        <time>2021-02-28T05:16:24Z</time>
      </trkpt>
      <trkpt lat="45.17438" lon="6.28388">
        <ele>1445.4</ele>
        <time>2021-02-28T05:16:25Z</time>
      </trkpt>
      <trkpt lat="45.17438" lon="6.2839">
        <ele>1445.4</ele>
        <time>2021-02-28T05:16:26Z</time>
      </trkpt>
      <trkpt lat="45.17438" lon="6.28391">
        <ele>1445.6</ele>
        <time>2021-02-28T05:16:27Z</time>
      </trkpt>
      <trkpt lat="45.17437" lon="6.28393">
        <ele>1445.8</ele>
        <time>2021-02-28T05:16:28Z</time>
      </trkpt>
      <trkpt lat="45.17437" lon="6.28394">
        <ele>1445.8</ele>
        <time>2021-02-28T05:16:29Z</time>
      </trkpt>
      <trkpt lat="45.17437" lon="6.28396">
        <ele>1446.2</ele>
        <time>2021-02-28T05:16:30Z</time>
      </trkpt>
      <trkpt lat="45.17437" lon="6.28397">
        <ele>1446.4</ele>
        <time>2021-02-28T05:16:31Z</time>
      </trkpt>
      <trkpt lat="45.17437" lon="6.28399">
        <ele>1446.4</ele>
        <time>2021-02-28T05:16:32Z</time>
      </trkpt>
      <trkpt lat="45.17436" lon="6.284">
        <ele>1447</ele>
        <time>2021-02-28T05:16:33Z</time>
      </trkpt>
      <trkpt lat="45.17436" lon="6.28402">
        <ele>1447.2</ele>
        <time>2021-02-28T05:16:34Z</time>
      </trkpt>
      <trkpt lat="45.17436" lon="6.28403">
        <ele>1447.6</ele>
        <time>2021-02-28T05:16:35Z</time>
      </trkpt>
      <trkpt lat="45.17436" lon="6.28404">
        <ele>1447.8</ele>
        <time>2021-02-28T05:16:36Z</time>
      </trkpt>
      <trkpt lat="45.17436" lon="6.28406">
        <ele>1448.2</ele>
        <time>2021-02-28T05:16:37Z</time>
      </trkpt>
      <trkpt lat="45.17436" lon="6.28407">
        <ele>1448.2</ele>
        <time>2021-02-28T05:16:38Z</time>
      </trkpt>
      <trkpt lat="45.17436" lon="6.28409">
        <ele>1448.4</ele>
        <time>2021-02-28T05:16:39Z</time>
      </trkpt>
      <trkpt lat="45.17435" lon="6.2841">
        <ele>1448.4</ele>
        <time>2021-02-28T05:16:40Z</time>
      </trkpt>
      <trkpt lat="45.17435" lon="6.28412">
        <ele>1448.6</ele>
        <time>2021-02-28T05:16:41Z</time>
      </trkpt>
      <trkpt lat="45.17434" lon="6.28413">
        <ele>1448.8</ele>
        <time>2021-02-28T05:16:42Z</time>
      </trkpt>
      <trkpt lat="45.17434" lon="6.28414">
        <ele>1449</ele>
        <time>2021-02-28T05:16:43Z</time>
      </trkpt>
      <trkpt lat="45.17433" lon="6.28416">
        <ele>1449.2</ele>
        <time>2021-02-28T05:16:44Z</time>
      </trkpt>
      <trkpt lat="45.17432" lon="6.28417">
        <ele>1449.4</ele>
        <time>2021-02-28T05:16:45Z</time>
      </trkpt>
      <trkpt lat="45.17432" lon="6.28419">
        <ele>1449.4</ele>
        <time>2021-02-28T05:16:46Z</time>
      </trkpt>
      <trkpt lat="45.17431" lon="6.2842">
        <ele>1450</ele>
        <time>2021-02-28T05:16:47Z</time>
      </trkpt>
      <trkpt lat="45.17431" lon="6.28422">
        <ele>1450</ele>
        <time>2021-02-28T05:16:48Z</time>
      </trkpt>
      <trkpt lat="45.17431" lon="6.28424">
        <ele>1450.4</ele>
        <time>2021-02-28T05:16:49Z</time>
      </trkpt>
      <trkpt lat="45.1743" lon="6.28426">
        <ele>1450.4</ele>
        <time>2021-02-28T05:16:50Z</time>
      </trkpt>
      <trkpt lat="45.1743" lon="6.28428">
        <ele>1450.8</ele>
        <time>2021-02-28T05:16:51Z</time>
      </trkpt>
      <trkpt lat="45.1743" lon="6.2843">
        <ele>1451</ele>
        <time>2021-02-28T05:16:52Z</time>
      </trkpt>
      <trkpt lat="45.1743" lon="6.28431">
        <ele>1451.4</ele>
        <time>2021-02-28T05:16:53Z</time>
      </trkpt>
      <trkpt lat="45.17429" lon="6.28433">
        <ele>1451.6</ele>
        <time>2021-02-28T05:16:54Z</time>
      </trkpt>
      <trkpt lat="45.17429" lon="6.28436">
        <ele>1451.6</ele>
        <time>2021-02-28T05:16:55Z</time>
      </trkpt>
      <trkpt lat="45.17429" lon="6.28438">
        <ele>1451.8</ele>
        <time>2021-02-28T05:16:56Z</time>
      </trkpt>
      <trkpt lat="45.17428" lon="6.2844">
        <ele>1451.8</ele>
        <time>2021-02-28T05:16:57Z</time>
      </trkpt>
      <trkpt lat="45.17428" lon="6.28443">
        <ele>1452</ele>
        <time>2021-02-28T05:16:58Z</time>
      </trkpt>
      <trkpt lat="45.17428" lon="6.28445">
        <ele>1452.4</ele>
        <time>2021-02-28T05:16:59Z</time>
      </trkpt>
      <trkpt lat="45.17427" lon="6.28447">
        <ele>1452.6</ele>
        <time>2021-02-28T05:17:00Z</time>
      </trkpt>
      <trkpt lat="45.17427" lon="6.28448">
        <ele>1452.8</ele>
        <time>2021-02-28T05:17:01Z</time>
      </trkpt>
      <trkpt lat="45.17427" lon="6.28449">
        <ele>1453.2</ele>
        <time>2021-02-28T05:17:02Z</time>
      </trkpt>
      <trkpt lat="45.17427" lon="6.28451">
        <ele>1453.4</ele>
        <time>2021-02-28T05:17:03Z</time>
      </trkpt>
      <trkpt lat="45.17427" lon="6.28452">
        <ele>1453.8</ele>
        <time>2021-02-28T05:17:04Z</time>
      </trkpt>
      <trkpt lat="45.17427" lon="6.28453">
        <ele>1453.8</ele>
        <time>2021-02-28T05:17:05Z</time>
      </trkpt>
      <trkpt lat="45.17426" lon="6.28454">
        <ele>1454</ele>
        <time>2021-02-28T05:17:06Z</time>
      </trkpt>
      <trkpt lat="45.17426" lon="6.28455">
        <ele>1454.6</ele>
        <time>2021-02-28T05:17:07Z</time>
      </trkpt>
      <trkpt lat="45.17426" lon="6.28456">
        <ele>1454.8</ele>
        <time>2021-02-28T05:17:08Z</time>
      </trkpt>
      <trkpt lat="45.17426" lon="6.28457">
        <ele>1455</ele>
        <time>2021-02-28T05:17:09Z</time>
      </trkpt>
      <trkpt lat="45.17426" lon="6.28458">
        <ele>1455.2</ele>
        <time>2021-02-28T05:17:10Z</time>
      </trkpt>
      <trkpt lat="45.17426" lon="6.28459">
        <ele>1455.2</ele>
        <time>2021-02-28T05:17:11Z</time>
      </trkpt>
      <trkpt lat="45.17426" lon="6.2846">
        <ele>1455.6</ele>
        <time>2021-02-28T05:17:12Z</time>
      </trkpt>
      <trkpt lat="45.17426" lon="6.28461">
        <ele>1456</ele>
        <time>2021-02-28T05:17:13Z</time>
      </trkpt>
      <trkpt lat="45.17426" lon="6.28463">
        <ele>1456.4</ele>
        <time>2021-02-28T05:17:14Z</time>
      </trkpt>
      <trkpt lat="45.17426" lon="6.28464">
        <ele>1456.4</ele>
        <time>2021-02-28T05:17:15Z</time>
      </trkpt>
      <trkpt lat="45.17427" lon="6.28465">
        <ele>1457</ele>
        <time>2021-02-28T05:17:16Z</time>
      </trkpt>
      <trkpt lat="45.17427" lon="6.28466">
        <ele>1457.4</ele>
        <time>2021-02-28T05:17:17Z</time>
      </trkpt>
      <trkpt lat="45.17427" lon="6.28467">
        <ele>1457.8</ele>
        <time>2021-02-28T05:17:18Z</time>
      </trkpt>
      <trkpt lat="45.17427" lon="6.28468">
        <ele>1458</ele>
        <time>2021-02-28T05:17:19Z</time>
      </trkpt>
      <trkpt lat="45.17428" lon="6.28469">
        <ele>1458.4</ele>
        <time>2021-02-28T05:17:20Z</time>
      </trkpt>
      <trkpt lat="45.17428" lon="6.2847">
        <ele>1458.4</ele>
        <time>2021-02-28T05:17:21Z</time>
      </trkpt>
      <trkpt lat="45.17428" lon="6.28471">
        <ele>1458.8</ele>
        <time>2021-02-28T05:17:22Z</time>
      </trkpt>
      <trkpt lat="45.17428" lon="6.28473">
        <ele>1458.6</ele>
        <time>2021-02-28T05:17:23Z</time>
      </trkpt>
      <trkpt lat="45.17429" lon="6.28474">
        <ele>1459</ele>
        <time>2021-02-28T05:17:24Z</time>
      </trkpt>
      <trkpt lat="45.17428" lon="6.28473">
        <ele>1459.2</ele>
        <time>2021-02-28T05:17:25Z</time>
      </trkpt>
      <trkpt lat="45.17426" lon="6.28472">
        <ele>1459.4</ele>
        <time>2021-02-28T05:17:26Z</time>
      </trkpt>
      <trkpt lat="45.17425" lon="6.28471">
        <ele>1459.8</ele>
        <time>2021-02-28T05:17:27Z</time>
      </trkpt>
      <trkpt lat="45.17424" lon="6.2847">
        <ele>1459.8</ele>
        <time>2021-02-28T05:17:28Z</time>
      </trkpt>
      <trkpt lat="45.17423" lon="6.2847">
        <ele>1459.8</ele>
        <time>2021-02-28T05:17:29Z</time>
      </trkpt>
      <trkpt lat="45.17422" lon="6.28469">
        <ele>1460.4</ele>
        <time>2021-02-28T05:17:30Z</time>
      </trkpt>
      <trkpt lat="45.17421" lon="6.28468">
        <ele>1460.4</ele>
        <time>2021-02-28T05:17:31Z</time>
      </trkpt>
      <trkpt lat="45.1742" lon="6.28467">
        <ele>1460.8</ele>
        <time>2021-02-28T05:17:32Z</time>
      </trkpt>
      <trkpt lat="45.17419" lon="6.28465">
        <ele>1460.8</ele>
        <time>2021-02-28T05:17:33Z</time>
      </trkpt>
      <trkpt lat="45.17419" lon="6.28463">
        <ele>1461</ele>
        <time>2021-02-28T05:17:34Z</time>
      </trkpt>
      <trkpt lat="45.17418" lon="6.28461">
        <ele>1461.2</ele>
        <time>2021-02-28T05:17:35Z</time>
      </trkpt>
      <trkpt lat="45.17418" lon="6.28459">
        <ele>1461.4</ele>
        <time>2021-02-28T05:17:36Z</time>
      </trkpt>
      <trkpt lat="45.17418" lon="6.28459">
        <ele>1461.4</ele>
        <time>2021-02-28T05:17:37Z</time>
      </trkpt>
      <trkpt lat="45.17418" lon="6.28459">
        <ele>1461.8</ele>
        <time>2021-02-28T05:17:38Z</time>
      </trkpt>
      <trkpt lat="45.17417" lon="6.28457">
        <ele>1462.2</ele>
        <time>2021-02-28T05:17:39Z</time>
      </trkpt>
      <trkpt lat="45.17417" lon="6.28456">
        <ele>1462.6</ele>
        <time>2021-02-28T05:17:40Z</time>
      </trkpt>
      <trkpt lat="45.17417" lon="6.28454">
        <ele>1462.4</ele>
        <time>2021-02-28T05:17:41Z</time>
      </trkpt>
      <trkpt lat="45.17416" lon="6.28453">
        <ele>1462.8</ele>
        <time>2021-02-28T05:17:42Z</time>
      </trkpt>
      <trkpt lat="45.17416" lon="6.28451">
        <ele>1463.2</ele>
        <time>2021-02-28T05:17:43Z</time>
      </trkpt>
      <trkpt lat="45.17416" lon="6.2845">
        <ele>1463</ele>
        <time>2021-02-28T05:17:44Z</time>
      </trkpt>
      <trkpt lat="45.17415" lon="6.28448">
        <ele>1463.6</ele>
        <time>2021-02-28T05:17:45Z</time>
      </trkpt>
      <trkpt lat="45.17415" lon="6.28446">
        <ele>1463.8</ele>
        <time>2021-02-28T05:17:46Z</time>
      </trkpt>
      <trkpt lat="45.17414" lon="6.28445">
        <ele>1463.6</ele>
        <time>2021-02-28T05:17:47Z</time>
      </trkpt>
      <trkpt lat="45.17414" lon="6.28445">
        <ele>1463.8</ele>
        <time>2021-02-28T05:17:48Z</time>
      </trkpt>
      <trkpt lat="45.17413" lon="6.28442">
        <ele>1463.8</ele>
        <time>2021-02-28T05:17:49Z</time>
      </trkpt>
      <trkpt lat="45.17413" lon="6.28442">
        <ele>1464.2</ele>
        <time>2021-02-28T05:17:50Z</time>
      </trkpt>
      <trkpt lat="45.17413" lon="6.28439">
        <ele>1464.4</ele>
        <time>2021-02-28T05:17:51Z</time>
      </trkpt>
      <trkpt lat="45.17413" lon="6.28439">
        <ele>1464.4</ele>
        <time>2021-02-28T05:17:52Z</time>
      </trkpt>
      <trkpt lat="45.17412" lon="6.28436">
        <ele>1464.8</ele>
        <time>2021-02-28T05:17:53Z</time>
      </trkpt>
      <trkpt lat="45.17412" lon="6.28436">
        <ele>1465</ele>
        <time>2021-02-28T05:17:54Z</time>
      </trkpt>
      <trkpt lat="45.17412" lon="6.28436">
        <ele>1465</ele>
        <time>2021-02-28T05:17:55Z</time>
      </trkpt>
      <trkpt lat="45.17412" lon="6.28434">
        <ele>1465.4</ele>
        <time>2021-02-28T05:17:56Z</time>
      </trkpt>
      <trkpt lat="45.17412" lon="6.28433">
        <ele>1465.6</ele>
        <time>2021-02-28T05:17:57Z</time>
      </trkpt>
      <trkpt lat="45.17412" lon="6.28431">
        <ele>1465.8</ele>
        <time>2021-02-28T05:17:58Z</time>
      </trkpt>
      <trkpt lat="45.17412" lon="6.28429">
        <ele>1466.2</ele>
        <time>2021-02-28T05:17:59Z</time>
      </trkpt>
      <trkpt lat="45.17412" lon="6.28427">
        <ele>1466.2</ele>
        <time>2021-02-28T05:18:00Z</time>
      </trkpt>
      <trkpt lat="45.17413" lon="6.28425">
        <ele>1466.4</ele>
        <time>2021-02-28T05:18:01Z</time>
      </trkpt>
      <trkpt lat="45.17413" lon="6.28424">
        <ele>1466.4</ele>
        <time>2021-02-28T05:18:02Z</time>
      </trkpt>
      <trkpt lat="45.17413" lon="6.28422">
        <ele>1466.8</ele>
        <time>2021-02-28T05:18:03Z</time>
      </trkpt>
      <trkpt lat="45.17413" lon="6.2842">
        <ele>1466.8</ele>
        <time>2021-02-28T05:18:04Z</time>
      </trkpt>
      <trkpt lat="45.17413" lon="6.2842">
        <ele>1467.4</ele>
        <time>2021-02-28T05:18:05Z</time>
      </trkpt>
      <trkpt lat="45.17412" lon="6.28418">
        <ele>1467.8</ele>
        <time>2021-02-28T05:18:06Z</time>
      </trkpt>
      <trkpt lat="45.17412" lon="6.28418">
        <ele>1467.6</ele>
        <time>2021-02-28T05:18:07Z</time>
      </trkpt>
      <trkpt lat="45.17412" lon="6.28418">
        <ele>1467.8</ele>
        <time>2021-02-28T05:18:08Z</time>
      </trkpt>
      <trkpt lat="45.1741" lon="6.28417">
        <ele>1468.2</ele>
        <time>2021-02-28T05:18:09Z</time>
      </trkpt>
      <trkpt lat="45.17408" lon="6.28416">
        <ele>1468.2</ele>
        <time>2021-02-28T05:18:10Z</time>
      </trkpt>
      <trkpt lat="45.17407" lon="6.28415">
        <ele>1468.2</ele>
        <time>2021-02-28T05:18:11Z</time>
      </trkpt>
      <trkpt lat="45.17405" lon="6.28414">
        <ele>1468.4</ele>
        <time>2021-02-28T05:18:12Z</time>
      </trkpt>
      <trkpt lat="45.17405" lon="6.28414">
        <ele>1468.6</ele>
        <time>2021-02-28T05:18:13Z</time>
      </trkpt>
      <trkpt lat="45.17405" lon="6.28414">
        <ele>1468.8</ele>
        <time>2021-02-28T05:18:14Z</time>
      </trkpt>
      <trkpt lat="45.17404" lon="6.28415">
        <ele>1469.2</ele>
        <time>2021-02-28T05:18:15Z</time>
      </trkpt>
      <trkpt lat="45.17404" lon="6.28415">
        <ele>1469.4</ele>
        <time>2021-02-28T05:18:16Z</time>
      </trkpt>
      <trkpt lat="45.17403" lon="6.28415">
        <ele>1469.8</ele>
        <time>2021-02-28T05:18:17Z</time>
      </trkpt>
      <trkpt lat="45.17402" lon="6.28416">
        <ele>1469.8</ele>
        <time>2021-02-28T05:18:18Z</time>
      </trkpt>
      <trkpt lat="45.17401" lon="6.28416">
        <ele>1470.4</ele>
        <time>2021-02-28T05:18:19Z</time>
      </trkpt>
      <trkpt lat="45.174" lon="6.28417">
        <ele>1470.6</ele>
        <time>2021-02-28T05:18:20Z</time>
      </trkpt>
      <trkpt lat="45.17399" lon="6.28417">
        <ele>1470.6</ele>
        <time>2021-02-28T05:18:21Z</time>
      </trkpt>
      <trkpt lat="45.17398" lon="6.28417">
        <ele>1470.8</ele>
        <time>2021-02-28T05:18:22Z</time>
      </trkpt>
      <trkpt lat="45.17398" lon="6.28418">
        <ele>1471</ele>
        <time>2021-02-28T05:18:23Z</time>
      </trkpt>
      <trkpt lat="45.17397" lon="6.28418">
        <ele>1471.2</ele>
        <time>2021-02-28T05:18:24Z</time>
      </trkpt>
      <trkpt lat="45.17396" lon="6.28419">
        <ele>1471.2</ele>
        <time>2021-02-28T05:18:25Z</time>
      </trkpt>
      <trkpt lat="45.17395" lon="6.28418">
        <ele>1471.6</ele>
        <time>2021-02-28T05:18:26Z</time>
      </trkpt>
      <trkpt lat="45.17394" lon="6.28418">
        <ele>1471.6</ele>
        <time>2021-02-28T05:18:27Z</time>
      </trkpt>
      <trkpt lat="45.17392" lon="6.28418">
        <ele>1472.2</ele>
        <time>2021-02-28T05:18:28Z</time>
      </trkpt>
      <trkpt lat="45.17391" lon="6.28418">
        <ele>1472.4</ele>
        <time>2021-02-28T05:18:29Z</time>
      </trkpt>
      <trkpt lat="45.1739" lon="6.28418">
        <ele>1472.6</ele>
        <time>2021-02-28T05:18:30Z</time>
      </trkpt>
      <trkpt lat="45.17389" lon="6.28418">
        <ele>1473</ele>
        <time>2021-02-28T05:18:31Z</time>
      </trkpt>
      <trkpt lat="45.17388" lon="6.28418">
        <ele>1473.2</ele>
        <time>2021-02-28T05:18:32Z</time>
      </trkpt>
      <trkpt lat="45.17387" lon="6.28418">
        <ele>1473.2</ele>
        <time>2021-02-28T05:18:33Z</time>
      </trkpt>
      <trkpt lat="45.17386" lon="6.28418">
        <ele>1473.4</ele>
        <time>2021-02-28T05:18:34Z</time>
      </trkpt>
      <trkpt lat="45.17385" lon="6.28418">
        <ele>1473.8</ele>
        <time>2021-02-28T05:18:35Z</time>
      </trkpt>
      <trkpt lat="45.17383" lon="6.28419">
        <ele>1473.8</ele>
        <time>2021-02-28T05:18:36Z</time>
      </trkpt>
      <trkpt lat="45.17382" lon="6.28419">
        <ele>1474</ele>
        <time>2021-02-28T05:18:37Z</time>
      </trkpt>
      <trkpt lat="45.17381" lon="6.2842">
        <ele>1474.2</ele>
        <time>2021-02-28T05:18:38Z</time>
      </trkpt>
      <trkpt lat="45.1738" lon="6.28421">
        <ele>1474.6</ele>
        <time>2021-02-28T05:18:39Z</time>
      </trkpt>
      <trkpt lat="45.17379" lon="6.28421">
        <ele>1474.6</ele>
        <time>2021-02-28T05:18:40Z</time>
      </trkpt>
      <trkpt lat="45.17377" lon="6.28422">
        <ele>1474.8</ele>
        <time>2021-02-28T05:18:41Z</time>
      </trkpt>
      <trkpt lat="45.17376" lon="6.28422">
        <ele>1474.8</ele>
        <time>2021-02-28T05:18:42Z</time>
      </trkpt>
      <trkpt lat="45.17376" lon="6.28423">
        <ele>1475</ele>
        <time>2021-02-28T05:18:43Z</time>
      </trkpt>
      <trkpt lat="45.17375" lon="6.28424">
        <ele>1475.4</ele>
        <time>2021-02-28T05:18:44Z</time>
      </trkpt>
      <trkpt lat="45.17374" lon="6.28425">
        <ele>1475.4</ele>
        <time>2021-02-28T05:18:45Z</time>
      </trkpt>
      <trkpt lat="45.17373" lon="6.28426">
        <ele>1475.6</ele>
        <time>2021-02-28T05:18:46Z</time>
      </trkpt>
      <trkpt lat="45.17373" lon="6.28427">
        <ele>1475.6</ele>
        <time>2021-02-28T05:18:47Z</time>
      </trkpt>
      <trkpt lat="45.17372" lon="6.28428">
        <ele>1475.8</ele>
        <time>2021-02-28T05:18:48Z</time>
      </trkpt>
      <trkpt lat="45.17371" lon="6.28428">
        <ele>1476.2</ele>
        <time>2021-02-28T05:18:49Z</time>
      </trkpt>
      <trkpt lat="45.1737" lon="6.28429">
        <ele>1476.2</ele>
        <time>2021-02-28T05:18:50Z</time>
      </trkpt>
      <trkpt lat="45.1737" lon="6.2843">
        <ele>1476.6</ele>
        <time>2021-02-28T05:18:51Z</time>
      </trkpt>
      <trkpt lat="45.17369" lon="6.28431">
        <ele>1476.6</ele>
        <time>2021-02-28T05:18:52Z</time>
      </trkpt>
      <trkpt lat="45.17368" lon="6.28432">
        <ele>1476.8</ele>
        <time>2021-02-28T05:18:53Z</time>
      </trkpt>
      <trkpt lat="45.17366" lon="6.28433">
        <ele>1477.2</ele>
        <time>2021-02-28T05:18:54Z</time>
      </trkpt>
      <trkpt lat="45.17365" lon="6.28434">
        <ele>1477.8</ele>
        <time>2021-02-28T05:18:55Z</time>
      </trkpt>
      <trkpt lat="45.17364" lon="6.28435">
        <ele>1478</ele>
        <time>2021-02-28T05:18:56Z</time>
      </trkpt>
      <trkpt lat="45.17363" lon="6.28436">
        <ele>1478</ele>
        <time>2021-02-28T05:18:57Z</time>
      </trkpt>
      <trkpt lat="45.17362" lon="6.28437">
        <ele>1478.6</ele>
        <time>2021-02-28T05:18:58Z</time>
      </trkpt>
      <trkpt lat="45.17361" lon="6.28438">
        <ele>1478.6</ele>
        <time>2021-02-28T05:18:59Z</time>
      </trkpt>
      <trkpt lat="45.17361" lon="6.28438">
        <ele>1479</ele>
        <time>2021-02-28T05:19:00Z</time>
      </trkpt>
      <trkpt lat="45.17361" lon="6.28438">
        <ele>1479.4</ele>
        <time>2021-02-28T05:19:01Z</time>
      </trkpt>
      <trkpt lat="45.17359" lon="6.2844">
        <ele>1479.8</ele>
        <time>2021-02-28T05:19:02Z</time>
      </trkpt>
      <trkpt lat="45.17359" lon="6.2844">
        <ele>1480</ele>
        <time>2021-02-28T05:19:03Z</time>
      </trkpt>
      <trkpt lat="45.17359" lon="6.2844">
        <ele>1480.4</ele>
        <time>2021-02-28T05:19:04Z</time>
      </trkpt>
      <trkpt lat="45.17359" lon="6.2844">
        <ele>1480.4</ele>
        <time>2021-02-28T05:19:05Z</time>
      </trkpt>
      <trkpt lat="45.17361" lon="6.28444">
        <ele>1480.8</ele>
        <time>2021-02-28T05:19:06Z</time>
      </trkpt>
      <trkpt lat="45.17361" lon="6.28444">
        <ele>1481.2</ele>
        <time>2021-02-28T05:19:07Z</time>
      </trkpt>
      <trkpt lat="45.17364" lon="6.28444">
        <ele>1481.4</ele>
        <time>2021-02-28T05:19:08Z</time>
      </trkpt>
      <trkpt lat="45.17364" lon="6.28444">
        <ele>1481.8</ele>
        <time>2021-02-28T05:19:09Z</time>
      </trkpt>
      <trkpt lat="45.17364" lon="6.28444">
        <ele>1481.8</ele>
        <time>2021-02-28T05:19:10Z</time>
      </trkpt>
      <trkpt lat="45.17365" lon="6.28443">
        <ele>1482.2</ele>
        <time>2021-02-28T05:19:11Z</time>
      </trkpt>
      <trkpt lat="45.17367" lon="6.28441">
        <ele>1482.4</ele>
        <time>2021-02-28T05:19:12Z</time>
      </trkpt>
      <trkpt lat="45.17369" lon="6.2844">
        <ele>1482.2</ele>
        <time>2021-02-28T05:19:13Z</time>
      </trkpt>
      <trkpt lat="45.1737" lon="6.28438">
        <ele>1482.6</ele>
        <time>2021-02-28T05:19:14Z</time>
      </trkpt>
      <trkpt lat="45.1737" lon="6.28438">
        <ele>1482.8</ele>
        <time>2021-02-28T05:19:15Z</time>
      </trkpt>
      <trkpt lat="45.17372" lon="6.28438">
        <ele>1483</ele>
        <time>2021-02-28T05:19:16Z</time>
      </trkpt>
      <trkpt lat="45.17372" lon="6.28438">
        <ele>1483.6</ele>
        <time>2021-02-28T05:19:17Z</time>
      </trkpt>
      <trkpt lat="45.17374" lon="6.28438">
        <ele>1483.6</ele>
        <time>2021-02-28T05:19:18Z</time>
      </trkpt>
      <trkpt lat="45.17374" lon="6.28438">
        <ele>1483.6</ele>
        <time>2021-02-28T05:19:19Z</time>
      </trkpt>
      <trkpt lat="45.17374" lon="6.28438">
        <ele>1484</ele>
        <time>2021-02-28T05:19:20Z</time>
      </trkpt>
      <trkpt lat="45.17376" lon="6.28439">
        <ele>1484.4</ele>
        <time>2021-02-28T05:19:21Z</time>
      </trkpt>
      <trkpt lat="45.17376" lon="6.28439">
        <ele>1484.8</ele>
        <time>2021-02-28T05:19:22Z</time>
      </trkpt>
      <trkpt lat="45.17376" lon="6.28439">
        <ele>1485</ele>
        <time>2021-02-28T05:19:23Z</time>
      </trkpt>
      <trkpt lat="45.17378" lon="6.28437">
        <ele>1484.8</ele>
        <time>2021-02-28T05:19:24Z</time>
      </trkpt>
      <trkpt lat="45.17378" lon="6.28437">
        <ele>1485.2</ele>
        <time>2021-02-28T05:19:25Z</time>
      </trkpt>
      <trkpt lat="45.1738" lon="6.28439">
        <ele>1485.2</ele>
        <time>2021-02-28T05:19:26Z</time>
      </trkpt>
      <trkpt lat="45.1738" lon="6.28439">
        <ele>1485.4</ele>
        <time>2021-02-28T05:19:27Z</time>
      </trkpt>
      <trkpt lat="45.17382" lon="6.2844">
        <ele>1485.4</ele>
        <time>2021-02-28T05:19:28Z</time>
      </trkpt>
      <trkpt lat="45.17382" lon="6.2844">
        <ele>1485.6</ele>
        <time>2021-02-28T05:19:29Z</time>
      </trkpt>
      <trkpt lat="45.17384" lon="6.28442">
        <ele>1485.6</ele>
        <time>2021-02-28T05:19:30Z</time>
      </trkpt>
      <trkpt lat="45.17384" lon="6.28442">
        <ele>1486</ele>
        <time>2021-02-28T05:19:31Z</time>
      </trkpt>
      <trkpt lat="45.17386" lon="6.28443">
        <ele>1486</ele>
        <time>2021-02-28T05:19:32Z</time>
      </trkpt>
      <trkpt lat="45.17386" lon="6.28443">
        <ele>1486</ele>
        <time>2021-02-28T05:19:33Z</time>
      </trkpt>
      <trkpt lat="45.17386" lon="6.28443">
        <ele>1486.4</ele>
        <time>2021-02-28T05:19:34Z</time>
      </trkpt>
      <trkpt lat="45.17386" lon="6.28445">
        <ele>1486.6</ele>
        <time>2021-02-28T05:19:35Z</time>
      </trkpt>
      <trkpt lat="45.17386" lon="6.28447">
        <ele>1486.8</ele>
        <time>2021-02-28T05:19:36Z</time>
      </trkpt>
      <trkpt lat="45.17386" lon="6.28448">
        <ele>1487.2</ele>
        <time>2021-02-28T05:19:37Z</time>
      </trkpt>
      <trkpt lat="45.17387" lon="6.2845">
        <ele>1487</ele>
        <time>2021-02-28T05:19:38Z</time>
      </trkpt>
      <trkpt lat="45.17387" lon="6.28451">
        <ele>1487.4</ele>
        <time>2021-02-28T05:19:39Z</time>
      </trkpt>
      <trkpt lat="45.17387" lon="6.28453">
        <ele>1487.4</ele>
        <time>2021-02-28T05:19:40Z</time>
      </trkpt>
      <trkpt lat="45.17387" lon="6.28455">
        <ele>1487.8</ele>
        <time>2021-02-28T05:19:41Z</time>
      </trkpt>
      <trkpt lat="45.17387" lon="6.28456">
        <ele>1488</ele>
        <time>2021-02-28T05:19:42Z</time>
      </trkpt>
      <trkpt lat="45.17387" lon="6.28458">
        <ele>1488</ele>
        <time>2021-02-28T05:19:43Z</time>
      </trkpt>
      <trkpt lat="45.17388" lon="6.2846">
        <ele>1488.6</ele>
        <time>2021-02-28T05:19:44Z</time>
      </trkpt>
      <trkpt lat="45.17388" lon="6.2846">
        <ele>1488.6</ele>
        <time>2021-02-28T05:19:45Z</time>
      </trkpt>
      <trkpt lat="45.17388" lon="6.28463">
        <ele>1488.8</ele>
        <time>2021-02-28T05:19:46Z</time>
      </trkpt>
      <trkpt lat="45.17388" lon="6.28463">
        <ele>1489.2</ele>
        <time>2021-02-28T05:19:47Z</time>
      </trkpt>
      <trkpt lat="45.17388" lon="6.28463">
        <ele>1489.6</ele>
        <time>2021-02-28T05:19:48Z</time>
      </trkpt>
      <trkpt lat="45.17388" lon="6.28464">
        <ele>1489.6</ele>
        <time>2021-02-28T05:19:49Z</time>
      </trkpt>
      <trkpt lat="45.17388" lon="6.28465">
        <ele>1490.2</ele>
        <time>2021-02-28T05:19:50Z</time>
      </trkpt>
      <trkpt lat="45.17388" lon="6.28466">
        <ele>1490.2</ele>
        <time>2021-02-28T05:19:51Z</time>
      </trkpt>
      <trkpt lat="45.17388" lon="6.28467">
        <ele>1490.4</ele>
        <time>2021-02-28T05:19:52Z</time>
      </trkpt>
      <trkpt lat="45.17388" lon="6.28469">
        <ele>1490.8</ele>
        <time>2021-02-28T05:19:53Z</time>
      </trkpt>
      <trkpt lat="45.17388" lon="6.2847">
        <ele>1490.6</ele>
        <time>2021-02-28T05:19:54Z</time>
      </trkpt>
      <trkpt lat="45.17388" lon="6.28471">
        <ele>1491</ele>
        <time>2021-02-28T05:19:55Z</time>
      </trkpt>
      <trkpt lat="45.17388" lon="6.28472">
        <ele>1491.2</ele>
        <time>2021-02-28T05:19:56Z</time>
      </trkpt>
      <trkpt lat="45.17389" lon="6.28474">
        <ele>1491.4</ele>
        <time>2021-02-28T05:19:57Z</time>
      </trkpt>
      <trkpt lat="45.1739" lon="6.28475">
        <ele>1491.6</ele>
        <time>2021-02-28T05:19:58Z</time>
      </trkpt>
      <trkpt lat="45.1739" lon="6.28476">
        <ele>1492.4</ele>
        <time>2021-02-28T05:19:59Z</time>
      </trkpt>
      <trkpt lat="45.1739" lon="6.28479">
        <ele>1492.4</ele>
        <time>2021-02-28T05:20:00Z</time>
      </trkpt>
      <trkpt lat="45.1739" lon="6.28479">
        <ele>1492.4</ele>
        <time>2021-02-28T05:20:01Z</time>
      </trkpt>
      <trkpt lat="45.1739" lon="6.28479">
        <ele>1493</ele>
        <time>2021-02-28T05:20:02Z</time>
      </trkpt>
      <trkpt lat="45.17391" lon="6.28482">
        <ele>1493.2</ele>
        <time>2021-02-28T05:20:03Z</time>
      </trkpt>
      <trkpt lat="45.17391" lon="6.28482">
        <ele>1493.4</ele>
        <time>2021-02-28T05:20:04Z</time>
      </trkpt>
      <trkpt lat="45.17391" lon="6.28482">
        <ele>1493.6</ele>
        <time>2021-02-28T05:20:05Z</time>
      </trkpt>
      <trkpt lat="45.17392" lon="6.28485">
        <ele>1494</ele>
        <time>2021-02-28T05:20:06Z</time>
      </trkpt>
      <trkpt lat="45.17392" lon="6.28485">
        <ele>1494.4</ele>
        <time>2021-02-28T05:20:07Z</time>
      </trkpt>
      <trkpt lat="45.17392" lon="6.28485">
        <ele>1494.8</ele>
        <time>2021-02-28T05:20:08Z</time>
      </trkpt>
      <trkpt lat="45.17392" lon="6.28487">
        <ele>1495.4</ele>
        <time>2021-02-28T05:20:09Z</time>
      </trkpt>
      <trkpt lat="45.17392" lon="6.28488">
        <ele>1495.6</ele>
        <time>2021-02-28T05:20:10Z</time>
      </trkpt>
      <trkpt lat="45.17392" lon="6.28489">
        <ele>1495.6</ele>
        <time>2021-02-28T05:20:11Z</time>
      </trkpt>
      <trkpt lat="45.17392" lon="6.2849">
        <ele>1495.8</ele>
        <time>2021-02-28T05:20:12Z</time>
      </trkpt>
      <trkpt lat="45.17392" lon="6.28491">
        <ele>1496.2</ele>
        <time>2021-02-28T05:20:13Z</time>
      </trkpt>
      <trkpt lat="45.17392" lon="6.28492">
        <ele>1496.6</ele>
        <time>2021-02-28T05:20:14Z</time>
      </trkpt>
      <trkpt lat="45.17392" lon="6.28493">
        <ele>1496.6</ele>
        <time>2021-02-28T05:20:15Z</time>
      </trkpt>
      <trkpt lat="45.17392" lon="6.28494">
        <ele>1497.2</ele>
        <time>2021-02-28T05:20:16Z</time>
      </trkpt>
      <trkpt lat="45.17392" lon="6.28495">
        <ele>1497.2</ele>
        <time>2021-02-28T05:20:17Z</time>
      </trkpt>
      <trkpt lat="45.17393" lon="6.28499">
        <ele>1497.6</ele>
        <time>2021-02-28T05:20:18Z</time>
      </trkpt>
      <trkpt lat="45.17393" lon="6.28499">
        <ele>1497.8</ele>
        <time>2021-02-28T05:20:19Z</time>
      </trkpt>
      <trkpt lat="45.17393" lon="6.28499">
        <ele>1498</ele>
        <time>2021-02-28T05:20:20Z</time>
      </trkpt>
      <trkpt lat="45.17393" lon="6.28499">
        <ele>1498.4</ele>
        <time>2021-02-28T05:20:21Z</time>
      </trkpt>
      <trkpt lat="45.17394" lon="6.28504">
        <ele>1498.6</ele>
        <time>2021-02-28T05:20:22Z</time>
      </trkpt>
      <trkpt lat="45.17394" lon="6.28504">
        <ele>1498.8</ele>
        <time>2021-02-28T05:20:23Z</time>
      </trkpt>
      <trkpt lat="45.17394" lon="6.28504">
        <ele>1499</ele>
        <time>2021-02-28T05:20:24Z</time>
      </trkpt>
      <trkpt lat="45.17394" lon="6.28504">
        <ele>1499.4</ele>
        <time>2021-02-28T05:20:25Z</time>
      </trkpt>
      <trkpt lat="45.17393" lon="6.28509">
        <ele>1499.6</ele>
        <time>2021-02-28T05:20:26Z</time>
      </trkpt>
      <trkpt lat="45.17393" lon="6.28509">
        <ele>1500</ele>
        <time>2021-02-28T05:20:27Z</time>
      </trkpt>
      <trkpt lat="45.17393" lon="6.28509">
        <ele>1500</ele>
        <time>2021-02-28T05:20:28Z</time>
      </trkpt>
      <trkpt lat="45.17394" lon="6.2851">
        <ele>1500.4</ele>
        <time>2021-02-28T05:20:29Z</time>
      </trkpt>
      <trkpt lat="45.17395" lon="6.28511">
        <ele>1500.8</ele>
        <time>2021-02-28T05:20:30Z</time>
      </trkpt>
      <trkpt lat="45.17396" lon="6.28513">
        <ele>1500.8</ele>
        <time>2021-02-28T05:20:31Z</time>
      </trkpt>
      <trkpt lat="45.17397" lon="6.28514">
        <ele>1501</ele>
        <time>2021-02-28T05:20:32Z</time>
      </trkpt>
      <trkpt lat="45.17397" lon="6.28515">
        <ele>1501</ele>
        <time>2021-02-28T05:20:33Z</time>
      </trkpt>
      <trkpt lat="45.17398" lon="6.28516">
        <ele>1501</ele>
        <time>2021-02-28T05:20:34Z</time>
      </trkpt>
      <trkpt lat="45.17399" lon="6.28517">
        <ele>1501</ele>
        <time>2021-02-28T05:20:35Z</time>
      </trkpt>
      <trkpt lat="45.174" lon="6.28519">
        <ele>1501</ele>
        <time>2021-02-28T05:20:36Z</time>
      </trkpt>
      <trkpt lat="45.17401" lon="6.28521">
        <ele>1501.2</ele>
        <time>2021-02-28T05:20:37Z</time>
      </trkpt>
      <trkpt lat="45.17401" lon="6.28522">
        <ele>1501.2</ele>
        <time>2021-02-28T05:20:38Z</time>
      </trkpt>
      <trkpt lat="45.17402" lon="6.28524">
        <ele>1501.2</ele>
        <time>2021-02-28T05:20:39Z</time>
      </trkpt>
      <trkpt lat="45.17403" lon="6.28526">
        <ele>1501</ele>
        <time>2021-02-28T05:20:40Z</time>
      </trkpt>
      <trkpt lat="45.17404" lon="6.28528">
        <ele>1501</ele>
        <time>2021-02-28T05:20:41Z</time>
      </trkpt>
      <trkpt lat="45.17405" lon="6.2853">
        <ele>1501</ele>
        <time>2021-02-28T05:20:42Z</time>
      </trkpt>
      <trkpt lat="45.17405" lon="6.28532">
        <ele>1501</ele>
        <time>2021-02-28T05:20:43Z</time>
      </trkpt>
      <trkpt lat="45.17405" lon="6.28534">
        <ele>1501.2</ele>
        <time>2021-02-28T05:20:44Z</time>
      </trkpt>
      <trkpt lat="45.17404" lon="6.28535">
        <ele>1501.4</ele>
        <time>2021-02-28T05:20:45Z</time>
      </trkpt>
      <trkpt lat="45.17404" lon="6.28537">
        <ele>1501.6</ele>
        <time>2021-02-28T05:20:46Z</time>
      </trkpt>
      <trkpt lat="45.17404" lon="6.28539">
        <ele>1501.6</ele>
        <time>2021-02-28T05:20:47Z</time>
      </trkpt>
      <trkpt lat="45.17403" lon="6.2854">
        <ele>1501.6</ele>
        <time>2021-02-28T05:20:48Z</time>
      </trkpt>
      <trkpt lat="45.17403" lon="6.28542">
        <ele>1501.8</ele>
        <time>2021-02-28T05:20:49Z</time>
      </trkpt>
      <trkpt lat="45.17403" lon="6.28544">
        <ele>1502.2</ele>
        <time>2021-02-28T05:20:50Z</time>
      </trkpt>
      <trkpt lat="45.17402" lon="6.28543">
        <ele>1502.6</ele>
        <time>2021-02-28T05:20:51Z</time>
      </trkpt>
      <trkpt lat="45.17401" lon="6.28542">
        <ele>1502.4</ele>
        <time>2021-02-28T05:20:52Z</time>
      </trkpt>
      <trkpt lat="45.174" lon="6.28542">
        <ele>1503</ele>
        <time>2021-02-28T05:20:53Z</time>
      </trkpt>
      <trkpt lat="45.174" lon="6.28541">
        <ele>1503</ele>
        <time>2021-02-28T05:20:54Z</time>
      </trkpt>
      <trkpt lat="45.17399" lon="6.28541">
        <ele>1503.8</ele>
        <time>2021-02-28T05:20:55Z</time>
      </trkpt>
      <trkpt lat="45.17398" lon="6.2854">
        <ele>1504</ele>
        <time>2021-02-28T05:20:56Z</time>
      </trkpt>
      <trkpt lat="45.17398" lon="6.2854">
        <ele>1504.2</ele>
        <time>2021-02-28T05:20:57Z</time>
      </trkpt>
      <trkpt lat="45.17397" lon="6.28539">
        <ele>1504.6</ele>
        <time>2021-02-28T05:20:58Z</time>
      </trkpt>
      <trkpt lat="45.17396" lon="6.28538">
        <ele>1504.8</ele>
        <time>2021-02-28T05:20:59Z</time>
      </trkpt>
      <trkpt lat="45.17395" lon="6.28538">
        <ele>1504.8</ele>
        <time>2021-02-28T05:21:00Z</time>
      </trkpt>
      <trkpt lat="45.17395" lon="6.28537">
        <ele>1505</ele>
        <time>2021-02-28T05:21:01Z</time>
      </trkpt>
      <trkpt lat="45.17394" lon="6.28536">
        <ele>1505.4</ele>
        <time>2021-02-28T05:21:02Z</time>
      </trkpt>
      <trkpt lat="45.17394" lon="6.28535">
        <ele>1505.4</ele>
        <time>2021-02-28T05:21:03Z</time>
      </trkpt>
      <trkpt lat="45.17394" lon="6.28534">
        <ele>1505.8</ele>
        <time>2021-02-28T05:21:04Z</time>
      </trkpt>
      <trkpt lat="45.17394" lon="6.28533">
        <ele>1506.2</ele>
        <time>2021-02-28T05:21:05Z</time>
      </trkpt>
      <trkpt lat="45.17393" lon="6.28532">
        <ele>1506.6</ele>
        <time>2021-02-28T05:21:06Z</time>
      </trkpt>
      <trkpt lat="45.17393" lon="6.28532">
        <ele>1507</ele>
        <time>2021-02-28T05:21:07Z</time>
      </trkpt>
      <trkpt lat="45.17393" lon="6.28531">
        <ele>1507.2</ele>
        <time>2021-02-28T05:21:08Z</time>
      </trkpt>
      <trkpt lat="45.17393" lon="6.28531">
        <ele>1507.4</ele>
        <time>2021-02-28T05:21:09Z</time>
      </trkpt>
      <trkpt lat="45.17393" lon="6.28531">
        <ele>1507.8</ele>
        <time>2021-02-28T05:21:10Z</time>
      </trkpt>
      <trkpt lat="45.17393" lon="6.28531">
        <ele>1508</ele>
        <time>2021-02-28T05:21:11Z</time>
      </trkpt>
      <trkpt lat="45.17393" lon="6.28531">
        <ele>1508.2</ele>
        <time>2021-02-28T05:21:12Z</time>
      </trkpt>
      <trkpt lat="45.17393" lon="6.28531">
        <ele>1508.4</ele>
        <time>2021-02-28T05:21:13Z</time>
      </trkpt>
      <trkpt lat="45.17391" lon="6.28529">
        <ele>1508.4</ele>
        <time>2021-02-28T05:21:14Z</time>
      </trkpt>
      <trkpt lat="45.17391" lon="6.28529">
        <ele>1508.4</ele>
        <time>2021-02-28T05:21:15Z</time>
      </trkpt>
      <trkpt lat="45.17391" lon="6.28529">
        <ele>1508.6</ele>
        <time>2021-02-28T05:21:16Z</time>
      </trkpt>
      <trkpt lat="45.17389" lon="6.28527">
        <ele>1508.8</ele>
        <time>2021-02-28T05:21:17Z</time>
      </trkpt>
      <trkpt lat="45.17389" lon="6.28527">
        <ele>1508.6</ele>
        <time>2021-02-28T05:21:18Z</time>
      </trkpt>
      <trkpt lat="45.17389" lon="6.28527">
        <ele>1508.8</ele>
        <time>2021-02-28T05:21:19Z</time>
      </trkpt>
      <trkpt lat="45.17387" lon="6.28526">
        <ele>1509</ele>
        <time>2021-02-28T05:21:20Z</time>
      </trkpt>
      <trkpt lat="45.17387" lon="6.28526">
        <ele>1508.8</ele>
        <time>2021-02-28T05:21:21Z</time>
      </trkpt>
      <trkpt lat="45.17386" lon="6.28523">
        <ele>1509.2</ele>
        <time>2021-02-28T05:21:22Z</time>
      </trkpt>
      <trkpt lat="45.17386" lon="6.28523">
        <ele>1509</ele>
        <time>2021-02-28T05:21:23Z</time>
      </trkpt>
      <trkpt lat="45.17386" lon="6.28523">
        <ele>1509</ele>
        <time>2021-02-28T05:21:24Z</time>
      </trkpt>
      <trkpt lat="45.17385" lon="6.28521">
        <ele>1509.4</ele>
        <time>2021-02-28T05:21:25Z</time>
      </trkpt>
      <trkpt lat="45.17384" lon="6.28519">
        <ele>1509.6</ele>
        <time>2021-02-28T05:21:26Z</time>
      </trkpt>
      <trkpt lat="45.17382" lon="6.28517">
        <ele>1509.6</ele>
        <time>2021-02-28T05:21:27Z</time>
      </trkpt>
      <trkpt lat="45.17381" lon="6.28515">
        <ele>1510</ele>
        <time>2021-02-28T05:21:28Z</time>
      </trkpt>
      <trkpt lat="45.17381" lon="6.28515">
        <ele>1510</ele>
        <time>2021-02-28T05:21:29Z</time>
      </trkpt>
      <trkpt lat="45.1738" lon="6.28512">
        <ele>1510.4</ele>
        <time>2021-02-28T05:21:30Z</time>
      </trkpt>
      <trkpt lat="45.1738" lon="6.28512">
        <ele>1511</ele>
        <time>2021-02-28T05:21:31Z</time>
      </trkpt>
      <trkpt lat="45.17379" lon="6.2851">
        <ele>1511</ele>
        <time>2021-02-28T05:21:32Z</time>
      </trkpt>
      <trkpt lat="45.17379" lon="6.2851">
        <ele>1511.4</ele>
        <time>2021-02-28T05:21:33Z</time>
      </trkpt>
      <trkpt lat="45.17377" lon="6.28509">
        <ele>1511.6</ele>
        <time>2021-02-28T05:21:34Z</time>
      </trkpt>
      <trkpt lat="45.17377" lon="6.28509">
        <ele>1511.8</ele>
        <time>2021-02-28T05:21:35Z</time>
      </trkpt>
      <trkpt lat="45.17375" lon="6.28507">
        <ele>1512.2</ele>
        <time>2021-02-28T05:21:36Z</time>
      </trkpt>
      <trkpt lat="45.17375" lon="6.28507">
        <ele>1512.4</ele>
        <time>2021-02-28T05:21:37Z</time>
      </trkpt>
      <trkpt lat="45.17373" lon="6.28507">
        <ele>1512.6</ele>
        <time>2021-02-28T05:21:38Z</time>
      </trkpt>
      <trkpt lat="45.17373" lon="6.28507">
        <ele>1512.8</ele>
        <time>2021-02-28T05:21:39Z</time>
      </trkpt>
      <trkpt lat="45.17373" lon="6.28507">
        <ele>1512.8</ele>
        <time>2021-02-28T05:21:40Z</time>
      </trkpt>
      <trkpt lat="45.17373" lon="6.28507">
        <ele>1513.2</ele>
        <time>2021-02-28T05:21:41Z</time>
      </trkpt>
      <trkpt lat="45.17371" lon="6.28506">
        <ele>1513.8</ele>
        <time>2021-02-28T05:21:42Z</time>
      </trkpt>
      <trkpt lat="45.17371" lon="6.28506">
        <ele>1513.8</ele>
        <time>2021-02-28T05:21:43Z</time>
      </trkpt>
      <trkpt lat="45.17371" lon="6.28506">
        <ele>1514</ele>
        <time>2021-02-28T05:21:44Z</time>
      </trkpt>
      <trkpt lat="45.17374" lon="6.28507">
        <ele>1514.2</ele>
        <time>2021-02-28T05:21:45Z</time>
      </trkpt>
      <trkpt lat="45.17374" lon="6.28507">
        <ele>1514.2</ele>
        <time>2021-02-28T05:21:46Z</time>
      </trkpt>
      <trkpt lat="45.17374" lon="6.28507">
        <ele>1514.6</ele>
        <time>2021-02-28T05:21:47Z</time>
      </trkpt>
      <trkpt lat="45.17376" lon="6.2851">
        <ele>1514.6</ele>
        <time>2021-02-28T05:21:48Z</time>
      </trkpt>
      <trkpt lat="45.17376" lon="6.2851">
        <ele>1514.6</ele>
        <time>2021-02-28T05:21:49Z</time>
      </trkpt>
      <trkpt lat="45.17376" lon="6.2851">
        <ele>1514.8</ele>
        <time>2021-02-28T05:21:50Z</time>
      </trkpt>
      <trkpt lat="45.17376" lon="6.28512">
        <ele>1515.2</ele>
        <time>2021-02-28T05:21:51Z</time>
      </trkpt>
      <trkpt lat="45.17377" lon="6.28513">
        <ele>1515.4</ele>
        <time>2021-02-28T05:21:52Z</time>
      </trkpt>
      <trkpt lat="45.17377" lon="6.28514">
        <ele>1515.8</ele>
        <time>2021-02-28T05:21:53Z</time>
      </trkpt>
      <trkpt lat="45.17378" lon="6.28516">
        <ele>1515.8</ele>
        <time>2021-02-28T05:21:54Z</time>
      </trkpt>
      <trkpt lat="45.17378" lon="6.28517">
        <ele>1516.2</ele>
        <time>2021-02-28T05:21:55Z</time>
      </trkpt>
      <trkpt lat="45.17379" lon="6.28519">
        <ele>1516.6</ele>
        <time>2021-02-28T05:21:56Z</time>
      </trkpt>
      <trkpt lat="45.17381" lon="6.28523">
        <ele>1516.6</ele>
        <time>2021-02-28T05:21:57Z</time>
      </trkpt>
      <trkpt lat="45.17381" lon="6.28523">
        <ele>1516.8</ele>
        <time>2021-02-28T05:21:58Z</time>
      </trkpt>
      <trkpt lat="45.17383" lon="6.28527">
        <ele>1517</ele>
        <time>2021-02-28T05:21:59Z</time>
      </trkpt>
      <trkpt lat="45.17383" lon="6.28527">
        <ele>1517.2</ele>
        <time>2021-02-28T05:22:00Z</time>
      </trkpt>
      <trkpt lat="45.17383" lon="6.28527">
        <ele>1517.4</ele>
        <time>2021-02-28T05:22:01Z</time>
      </trkpt>
      <trkpt lat="45.17383" lon="6.28527">
        <ele>1517.6</ele>
        <time>2021-02-28T05:22:02Z</time>
      </trkpt>
      <trkpt lat="45.17383" lon="6.28527">
        <ele>1517.6</ele>
        <time>2021-02-28T05:22:03Z</time>
      </trkpt>
      <trkpt lat="45.17384" lon="6.28532">
        <ele>1517.8</ele>
        <time>2021-02-28T05:22:04Z</time>
      </trkpt>
      <trkpt lat="45.17384" lon="6.28532">
        <ele>1517.8</ele>
        <time>2021-02-28T05:22:05Z</time>
      </trkpt>
      <trkpt lat="45.17384" lon="6.28532">
        <ele>1518.2</ele>
        <time>2021-02-28T05:22:06Z</time>
      </trkpt>
      <trkpt lat="45.17384" lon="6.28534">
        <ele>1518.6</ele>
        <time>2021-02-28T05:22:07Z</time>
      </trkpt>
      <trkpt lat="45.17385" lon="6.28537">
        <ele>1518.8</ele>
        <time>2021-02-28T05:22:08Z</time>
      </trkpt>
      <trkpt lat="45.17385" lon="6.28539">
        <ele>1518.8</ele>
        <time>2021-02-28T05:22:09Z</time>
      </trkpt>
      <trkpt lat="45.17385" lon="6.28541">
        <ele>1519</ele>
        <time>2021-02-28T05:22:10Z</time>
      </trkpt>
      <trkpt lat="45.17386" lon="6.28543">
        <ele>1519.4</ele>
        <time>2021-02-28T05:22:11Z</time>
      </trkpt>
      <trkpt lat="45.17386" lon="6.28545">
        <ele>1519.6</ele>
        <time>2021-02-28T05:22:12Z</time>
      </trkpt>
      <trkpt lat="45.17386" lon="6.28547">
        <ele>1519.8</ele>
        <time>2021-02-28T05:22:13Z</time>
      </trkpt>
      <trkpt lat="45.17386" lon="6.28548">
        <ele>1519.8</ele>
        <time>2021-02-28T05:22:14Z</time>
      </trkpt>
      <trkpt lat="45.17386" lon="6.2855">
        <ele>1519.8</ele>
        <time>2021-02-28T05:22:15Z</time>
      </trkpt>
      <trkpt lat="45.17386" lon="6.28551">
        <ele>1520</ele>
        <time>2021-02-28T05:22:16Z</time>
      </trkpt>
      <trkpt lat="45.17387" lon="6.28553">
        <ele>1519.8</ele>
        <time>2021-02-28T05:22:17Z</time>
      </trkpt>
      <trkpt lat="45.17387" lon="6.28554">
        <ele>1520.2</ele>
        <time>2021-02-28T05:22:18Z</time>
      </trkpt>
      <trkpt lat="45.17387" lon="6.28556">
        <ele>1520.2</ele>
        <time>2021-02-28T05:22:19Z</time>
      </trkpt>
      <trkpt lat="45.17387" lon="6.28558">
        <ele>1520.6</ele>
        <time>2021-02-28T05:22:20Z</time>
      </trkpt>
      <trkpt lat="45.17387" lon="6.28559">
        <ele>1520.6</ele>
        <time>2021-02-28T05:22:21Z</time>
      </trkpt>
      <trkpt lat="45.17388" lon="6.2856">
        <ele>1521.2</ele>
        <time>2021-02-28T05:22:22Z</time>
      </trkpt>
      <trkpt lat="45.17389" lon="6.2856">
        <ele>1521.4</ele>
        <time>2021-02-28T05:22:23Z</time>
      </trkpt>
      <trkpt lat="45.17389" lon="6.28561">
        <ele>1521.4</ele>
        <time>2021-02-28T05:22:24Z</time>
      </trkpt>
      <trkpt lat="45.1739" lon="6.28562">
        <ele>1521.8</ele>
        <time>2021-02-28T05:22:25Z</time>
      </trkpt>
      <trkpt lat="45.17391" lon="6.28562">
        <ele>1522</ele>
        <time>2021-02-28T05:22:26Z</time>
      </trkpt>
      <trkpt lat="45.17392" lon="6.28563">
        <ele>1522</ele>
        <time>2021-02-28T05:22:27Z</time>
      </trkpt>
      <trkpt lat="45.17392" lon="6.28564">
        <ele>1522.4</ele>
        <time>2021-02-28T05:22:28Z</time>
      </trkpt>
      <trkpt lat="45.17393" lon="6.28564">
        <ele>1522.6</ele>
        <time>2021-02-28T05:22:29Z</time>
      </trkpt>
      <trkpt lat="45.17394" lon="6.28565">
        <ele>1522.6</ele>
        <time>2021-02-28T05:22:30Z</time>
      </trkpt>
      <trkpt lat="45.17395" lon="6.28566">
        <ele>1523</ele>
        <time>2021-02-28T05:22:31Z</time>
      </trkpt>
      <trkpt lat="45.17395" lon="6.28566">
        <ele>1523.4</ele>
        <time>2021-02-28T05:22:32Z</time>
      </trkpt>
      <trkpt lat="45.17396" lon="6.28567">
        <ele>1523.8</ele>
        <time>2021-02-28T05:22:33Z</time>
      </trkpt>
      <trkpt lat="45.17397" lon="6.28568">
        <ele>1524</ele>
        <time>2021-02-28T05:22:34Z</time>
      </trkpt>
      <trkpt lat="45.17398" lon="6.2857">
        <ele>1524.2</ele>
        <time>2021-02-28T05:22:35Z</time>
      </trkpt>
      <trkpt lat="45.17399" lon="6.28571">
        <ele>1524.4</ele>
        <time>2021-02-28T05:22:36Z</time>
      </trkpt>
      <trkpt lat="45.174" lon="6.28572">
        <ele>1524.8</ele>
        <time>2021-02-28T05:22:37Z</time>
      </trkpt>
      <trkpt lat="45.17401" lon="6.28573">
        <ele>1524.8</ele>
        <time>2021-02-28T05:22:38Z</time>
      </trkpt>
      <trkpt lat="45.17402" lon="6.28574">
        <ele>1525.2</ele>
        <time>2021-02-28T05:22:39Z</time>
      </trkpt>
      <trkpt lat="45.17403" lon="6.28575">
        <ele>1525.4</ele>
        <time>2021-02-28T05:22:40Z</time>
      </trkpt>
      <trkpt lat="45.17402" lon="6.28576">
        <ele>1525.6</ele>
        <time>2021-02-28T05:22:41Z</time>
      </trkpt>
      <trkpt lat="45.17401" lon="6.28577">
        <ele>1526</ele>
        <time>2021-02-28T05:22:42Z</time>
      </trkpt>
      <trkpt lat="45.17401" lon="6.28578">
        <ele>1526.2</ele>
        <time>2021-02-28T05:22:43Z</time>
      </trkpt>
      <trkpt lat="45.174" lon="6.28579">
        <ele>1526.4</ele>
        <time>2021-02-28T05:22:44Z</time>
      </trkpt>
      <trkpt lat="45.174" lon="6.2858">
        <ele>1526.8</ele>
        <time>2021-02-28T05:22:45Z</time>
      </trkpt>
      <trkpt lat="45.17399" lon="6.28581">
        <ele>1526.8</ele>
        <time>2021-02-28T05:22:46Z</time>
      </trkpt>
      <trkpt lat="45.17399" lon="6.28582">
        <ele>1527.2</ele>
        <time>2021-02-28T05:22:47Z</time>
      </trkpt>
      <trkpt lat="45.17398" lon="6.28583">
        <ele>1527.4</ele>
        <time>2021-02-28T05:22:48Z</time>
      </trkpt>
      <trkpt lat="45.17398" lon="6.28584">
        <ele>1527.6</ele>
        <time>2021-02-28T05:22:49Z</time>
      </trkpt>
      <trkpt lat="45.17397" lon="6.28585">
        <ele>1527.8</ele>
        <time>2021-02-28T05:22:50Z</time>
      </trkpt>
      <trkpt lat="45.17396" lon="6.28586">
        <ele>1528</ele>
        <time>2021-02-28T05:22:51Z</time>
      </trkpt>
      <trkpt lat="45.17395" lon="6.28585">
        <ele>1528.2</ele>
        <time>2021-02-28T05:22:52Z</time>
      </trkpt>
      <trkpt lat="45.17394" lon="6.28585">
        <ele>1528.4</ele>
        <time>2021-02-28T05:22:53Z</time>
      </trkpt>
      <trkpt lat="45.17393" lon="6.28585">
        <ele>1528.6</ele>
        <time>2021-02-28T05:22:54Z</time>
      </trkpt>
      <trkpt lat="45.17391" lon="6.28585">
        <ele>1528.6</ele>
        <time>2021-02-28T05:22:55Z</time>
      </trkpt>
      <trkpt lat="45.1739" lon="6.28585">
        <ele>1529</ele>
        <time>2021-02-28T05:22:56Z</time>
      </trkpt>
      <trkpt lat="45.17389" lon="6.28584">
        <ele>1529.4</ele>
        <time>2021-02-28T05:22:57Z</time>
      </trkpt>
      <trkpt lat="45.17387" lon="6.28584">
        <ele>1529.8</ele>
        <time>2021-02-28T05:22:58Z</time>
      </trkpt>
      <trkpt lat="45.17386" lon="6.28584">
        <ele>1529.8</ele>
        <time>2021-02-28T05:22:59Z</time>
      </trkpt>
      <trkpt lat="45.17385" lon="6.28583">
        <ele>1530</ele>
        <time>2021-02-28T05:23:00Z</time>
      </trkpt>
      <trkpt lat="45.17384" lon="6.28583">
        <ele>1530.2</ele>
        <time>2021-02-28T05:23:01Z</time>
      </trkpt>
      <trkpt lat="45.17382" lon="6.28583">
        <ele>1530.2</ele>
        <time>2021-02-28T05:23:02Z</time>
      </trkpt>
      <trkpt lat="45.17381" lon="6.28582">
        <ele>1530.4</ele>
        <time>2021-02-28T05:23:03Z</time>
      </trkpt>
      <trkpt lat="45.1738" lon="6.28582">
        <ele>1530.6</ele>
        <time>2021-02-28T05:23:04Z</time>
      </trkpt>
      <trkpt lat="45.17379" lon="6.28582">
        <ele>1531</ele>
        <time>2021-02-28T05:23:05Z</time>
      </trkpt>
      <trkpt lat="45.17377" lon="6.28581">
        <ele>1531</ele>
        <time>2021-02-28T05:23:06Z</time>
      </trkpt>
      <trkpt lat="45.17377" lon="6.28581">
        <ele>1531</ele>
        <time>2021-02-28T05:23:07Z</time>
      </trkpt>
      <trkpt lat="45.17377" lon="6.2858">
        <ele>1531.2</ele>
        <time>2021-02-28T05:23:08Z</time>
      </trkpt>
      <trkpt lat="45.17376" lon="6.28579">
        <ele>1531.2</ele>
        <time>2021-02-28T05:23:09Z</time>
      </trkpt>
      <trkpt lat="45.17376" lon="6.28578">
        <ele>1531.6</ele>
        <time>2021-02-28T05:23:10Z</time>
      </trkpt>
      <trkpt lat="45.17375" lon="6.28577">
        <ele>1532</ele>
        <time>2021-02-28T05:23:11Z</time>
      </trkpt>
      <trkpt lat="45.17375" lon="6.28576">
        <ele>1531.8</ele>
        <time>2021-02-28T05:23:12Z</time>
      </trkpt>
      <trkpt lat="45.17375" lon="6.28575">
        <ele>1532.4</ele>
        <time>2021-02-28T05:23:13Z</time>
      </trkpt>
      <trkpt lat="45.17374" lon="6.28575">
        <ele>1532.4</ele>
        <time>2021-02-28T05:23:14Z</time>
      </trkpt>
      <trkpt lat="45.17374" lon="6.28574">
        <ele>1532.8</ele>
        <time>2021-02-28T05:23:15Z</time>
      </trkpt>
      <trkpt lat="45.17373" lon="6.28573">
        <ele>1533.2</ele>
        <time>2021-02-28T05:23:16Z</time>
      </trkpt>
      <trkpt lat="45.17373" lon="6.28572">
        <ele>1533</ele>
        <time>2021-02-28T05:23:17Z</time>
      </trkpt>
      <trkpt lat="45.17373" lon="6.28571">
        <ele>1533.4</ele>
        <time>2021-02-28T05:23:18Z</time>
      </trkpt>
      <trkpt lat="45.17372" lon="6.2857">
        <ele>1533.6</ele>
        <time>2021-02-28T05:23:19Z</time>
      </trkpt>
      <trkpt lat="45.17371" lon="6.28568">
        <ele>1533.8</ele>
        <time>2021-02-28T05:23:20Z</time>
      </trkpt>
      <trkpt lat="45.1737" lon="6.28566">
        <ele>1534</ele>
        <time>2021-02-28T05:23:21Z</time>
      </trkpt>
      <trkpt lat="45.17369" lon="6.28564">
        <ele>1534.6</ele>
        <time>2021-02-28T05:23:22Z</time>
      </trkpt>
      <trkpt lat="45.17367" lon="6.28562">
        <ele>1534.6</ele>
        <time>2021-02-28T05:23:23Z</time>
      </trkpt>
      <trkpt lat="45.17366" lon="6.2856">
        <ele>1534.8</ele>
        <time>2021-02-28T05:23:24Z</time>
      </trkpt>
      <trkpt lat="45.17365" lon="6.28558">
        <ele>1535</ele>
        <time>2021-02-28T05:23:25Z</time>
      </trkpt>
      <trkpt lat="45.17364" lon="6.28556">
        <ele>1535.4</ele>
        <time>2021-02-28T05:23:26Z</time>
      </trkpt>
      <trkpt lat="45.17363" lon="6.28554">
        <ele>1535.8</ele>
        <time>2021-02-28T05:23:27Z</time>
      </trkpt>
      <trkpt lat="45.17363" lon="6.28552">
        <ele>1535.8</ele>
        <time>2021-02-28T05:23:28Z</time>
      </trkpt>
      <trkpt lat="45.17362" lon="6.2855">
        <ele>1536.4</ele>
        <time>2021-02-28T05:23:29Z</time>
      </trkpt>
      <trkpt lat="45.17361" lon="6.28548">
        <ele>1536.6</ele>
        <time>2021-02-28T05:23:30Z</time>
      </trkpt>
      <trkpt lat="45.1736" lon="6.28546">
        <ele>1536.8</ele>
        <time>2021-02-28T05:23:31Z</time>
      </trkpt>
      <trkpt lat="45.1736" lon="6.28546">
        <ele>1537.2</ele>
        <time>2021-02-28T05:23:32Z</time>
      </trkpt>
      <trkpt lat="45.1736" lon="6.28546">
        <ele>1537.4</ele>
        <time>2021-02-28T05:23:33Z</time>
      </trkpt>
      <trkpt lat="45.17359" lon="6.28545">
        <ele>1537.6</ele>
        <time>2021-02-28T05:23:34Z</time>
      </trkpt>
      <trkpt lat="45.17358" lon="6.28544">
        <ele>1537.8</ele>
        <time>2021-02-28T05:23:35Z</time>
      </trkpt>
      <trkpt lat="45.17357" lon="6.28543">
        <ele>1537.8</ele>
        <time>2021-02-28T05:23:36Z</time>
      </trkpt>
      <trkpt lat="45.17356" lon="6.28542">
        <ele>1538</ele>
        <time>2021-02-28T05:23:37Z</time>
      </trkpt>
      <trkpt lat="45.17354" lon="6.28543">
        <ele>1538.6</ele>
        <time>2021-02-28T05:23:38Z</time>
      </trkpt>
      <trkpt lat="45.17353" lon="6.28543">
        <ele>1538.8</ele>
        <time>2021-02-28T05:23:39Z</time>
      </trkpt>
      <trkpt lat="45.17352" lon="6.28544">
        <ele>1538.8</ele>
        <time>2021-02-28T05:23:40Z</time>
      </trkpt>
      <trkpt lat="45.17351" lon="6.28545">
        <ele>1539.2</ele>
        <time>2021-02-28T05:23:41Z</time>
      </trkpt>
      <trkpt lat="45.17349" lon="6.28545">
        <ele>1539.8</ele>
        <time>2021-02-28T05:23:42Z</time>
      </trkpt>
      <trkpt lat="45.17348" lon="6.28546">
        <ele>1539.8</ele>
        <time>2021-02-28T05:23:43Z</time>
      </trkpt>
      <trkpt lat="45.17347" lon="6.28546">
        <ele>1540</ele>
        <time>2021-02-28T05:23:44Z</time>
      </trkpt>
      <trkpt lat="45.17346" lon="6.28547">
        <ele>1540.2</ele>
        <time>2021-02-28T05:23:45Z</time>
      </trkpt>
      <trkpt lat="45.17346" lon="6.28548">
        <ele>1540.6</ele>
        <time>2021-02-28T05:23:46Z</time>
      </trkpt>
      <trkpt lat="45.17345" lon="6.28549">
        <ele>1540.6</ele>
        <time>2021-02-28T05:23:47Z</time>
      </trkpt>
      <trkpt lat="45.17345" lon="6.2855">
        <ele>1540.8</ele>
        <time>2021-02-28T05:23:48Z</time>
      </trkpt>
      <trkpt lat="45.17345" lon="6.28551">
        <ele>1541</ele>
        <time>2021-02-28T05:23:49Z</time>
      </trkpt>
      <trkpt lat="45.17344" lon="6.28553">
        <ele>1541.2</ele>
        <time>2021-02-28T05:23:50Z</time>
      </trkpt>
      <trkpt lat="45.17344" lon="6.28554">
        <ele>1541.4</ele>
        <time>2021-02-28T05:23:51Z</time>
      </trkpt>
      <trkpt lat="45.17343" lon="6.28555">
        <ele>1541.6</ele>
        <time>2021-02-28T05:23:52Z</time>
      </trkpt>
      <trkpt lat="45.17343" lon="6.28556">
        <ele>1541.6</ele>
        <time>2021-02-28T05:23:53Z</time>
      </trkpt>
      <trkpt lat="45.17342" lon="6.28557">
        <ele>1541.8</ele>
        <time>2021-02-28T05:23:54Z</time>
      </trkpt>
      <trkpt lat="45.17342" lon="6.28558">
        <ele>1542.4</ele>
        <time>2021-02-28T05:23:55Z</time>
      </trkpt>
      <trkpt lat="45.17341" lon="6.28558">
        <ele>1542.6</ele>
        <time>2021-02-28T05:23:56Z</time>
      </trkpt>
      <trkpt lat="45.1734" lon="6.28559">
        <ele>1543</ele>
        <time>2021-02-28T05:23:57Z</time>
      </trkpt>
      <trkpt lat="45.1734" lon="6.28559">
        <ele>1543.2</ele>
        <time>2021-02-28T05:23:58Z</time>
      </trkpt>
      <trkpt lat="45.17339" lon="6.2856">
        <ele>1543.2</ele>
        <time>2021-02-28T05:23:59Z</time>
      </trkpt>
      <trkpt lat="45.17338" lon="6.28561">
        <ele>1543.6</ele>
        <time>2021-02-28T05:24:00Z</time>
      </trkpt>
      <trkpt lat="45.17337" lon="6.28561">
        <ele>1544</ele>
        <time>2021-02-28T05:24:01Z</time>
      </trkpt>
      <trkpt lat="45.17336" lon="6.28562">
        <ele>1544.2</ele>
        <time>2021-02-28T05:24:02Z</time>
      </trkpt>
      <trkpt lat="45.17336" lon="6.28563">
        <ele>1544.2</ele>
        <time>2021-02-28T05:24:03Z</time>
      </trkpt>
      <trkpt lat="45.17335" lon="6.28563">
        <ele>1544.8</ele>
        <time>2021-02-28T05:24:04Z</time>
      </trkpt>
      <trkpt lat="45.17334" lon="6.28564">
        <ele>1544.8</ele>
        <time>2021-02-28T05:24:05Z</time>
      </trkpt>
      <trkpt lat="45.17333" lon="6.28565">
        <ele>1545.2</ele>
        <time>2021-02-28T05:24:06Z</time>
      </trkpt>
      <trkpt lat="45.17331" lon="6.28565">
        <ele>1545.6</ele>
        <time>2021-02-28T05:24:07Z</time>
      </trkpt>
      <trkpt lat="45.1733" lon="6.28566">
        <ele>1545.6</ele>
        <time>2021-02-28T05:24:08Z</time>
      </trkpt>
      <trkpt lat="45.17329" lon="6.28566">
        <ele>1545.8</ele>
        <time>2021-02-28T05:24:09Z</time>
      </trkpt>
      <trkpt lat="45.17327" lon="6.28567">
        <ele>1546.4</ele>
        <time>2021-02-28T05:24:10Z</time>
      </trkpt>
      <trkpt lat="45.17326" lon="6.28568">
        <ele>1546.6</ele>
        <time>2021-02-28T05:24:11Z</time>
      </trkpt>
      <trkpt lat="45.17324" lon="6.28568">
        <ele>1546.8</ele>
        <time>2021-02-28T05:24:12Z</time>
      </trkpt>
      <trkpt lat="45.17323" lon="6.28569">
        <ele>1547</ele>
        <time>2021-02-28T05:24:13Z</time>
      </trkpt>
      <trkpt lat="45.17322" lon="6.28569">
        <ele>1547</ele>
        <time>2021-02-28T05:24:14Z</time>
      </trkpt>
      <trkpt lat="45.17321" lon="6.2857">
        <ele>1547.6</ele>
        <time>2021-02-28T05:24:15Z</time>
      </trkpt>
      <trkpt lat="45.1732" lon="6.2857">
        <ele>1547.6</ele>
        <time>2021-02-28T05:24:16Z</time>
      </trkpt>
      <trkpt lat="45.17319" lon="6.28571">
        <ele>1547.8</ele>
        <time>2021-02-28T05:24:17Z</time>
      </trkpt>
      <trkpt lat="45.17318" lon="6.28572">
        <ele>1548</ele>
        <time>2021-02-28T05:24:18Z</time>
      </trkpt>
      <trkpt lat="45.17317" lon="6.28572">
        <ele>1548</ele>
        <time>2021-02-28T05:24:19Z</time>
      </trkpt>
      <trkpt lat="45.17316" lon="6.28573">
        <ele>1548.6</ele>
        <time>2021-02-28T05:24:20Z</time>
      </trkpt>
      <trkpt lat="45.17315" lon="6.28573">
        <ele>1548.8</ele>
        <time>2021-02-28T05:24:21Z</time>
      </trkpt>
      <trkpt lat="45.17313" lon="6.28573">
        <ele>1548.6</ele>
        <time>2021-02-28T05:24:22Z</time>
      </trkpt>
      <trkpt lat="45.17312" lon="6.28574">
        <ele>1549.2</ele>
        <time>2021-02-28T05:24:23Z</time>
      </trkpt>
      <trkpt lat="45.17311" lon="6.28574">
        <ele>1549.4</ele>
        <time>2021-02-28T05:24:24Z</time>
      </trkpt>
      <trkpt lat="45.17309" lon="6.28574">
        <ele>1549.4</ele>
        <time>2021-02-28T05:24:25Z</time>
      </trkpt>
      <trkpt lat="45.17308" lon="6.28574">
        <ele>1550</ele>
        <time>2021-02-28T05:24:26Z</time>
      </trkpt>
      <trkpt lat="45.17307" lon="6.28575">
        <ele>1550</ele>
        <time>2021-02-28T05:24:27Z</time>
      </trkpt>
      <trkpt lat="45.17305" lon="6.28575">
        <ele>1550.6</ele>
        <time>2021-02-28T05:24:28Z</time>
      </trkpt>
      <trkpt lat="45.17305" lon="6.28576">
        <ele>1550.8</ele>
        <time>2021-02-28T05:24:29Z</time>
      </trkpt>
      <trkpt lat="45.17305" lon="6.28577">
        <ele>1550.8</ele>
        <time>2021-02-28T05:24:30Z</time>
      </trkpt>
      <trkpt lat="45.17305" lon="6.28578">
        <ele>1550.8</ele>
        <time>2021-02-28T05:24:31Z</time>
      </trkpt>
      <trkpt lat="45.17305" lon="6.28579">
        <ele>1551</ele>
        <time>2021-02-28T05:24:32Z</time>
      </trkpt>
      <trkpt lat="45.17305" lon="6.2858">
        <ele>1551.2</ele>
        <time>2021-02-28T05:24:33Z</time>
      </trkpt>
      <trkpt lat="45.17305" lon="6.28581">
        <ele>1551.2</ele>
        <time>2021-02-28T05:24:34Z</time>
      </trkpt>
      <trkpt lat="45.17305" lon="6.28582">
        <ele>1551.4</ele>
        <time>2021-02-28T05:24:35Z</time>
      </trkpt>
      <trkpt lat="45.17305" lon="6.28584">
        <ele>1551.4</ele>
        <time>2021-02-28T05:24:36Z</time>
      </trkpt>
      <trkpt lat="45.17304" lon="6.28585">
        <ele>1551.6</ele>
        <time>2021-02-28T05:24:37Z</time>
      </trkpt>
      <trkpt lat="45.17304" lon="6.28586">
        <ele>1551.8</ele>
        <time>2021-02-28T05:24:38Z</time>
      </trkpt>
      <trkpt lat="45.17304" lon="6.28587">
        <ele>1551.8</ele>
        <time>2021-02-28T05:24:39Z</time>
      </trkpt>
      <trkpt lat="45.17304" lon="6.28588">
        <ele>1552</ele>
        <time>2021-02-28T05:24:40Z</time>
      </trkpt>
      <trkpt lat="45.17304" lon="6.28589">
        <ele>1552</ele>
        <time>2021-02-28T05:24:41Z</time>
      </trkpt>
      <trkpt lat="45.17303" lon="6.2859">
        <ele>1552.4</ele>
        <time>2021-02-28T05:24:42Z</time>
      </trkpt>
      <trkpt lat="45.17302" lon="6.28592">
        <ele>1552.6</ele>
        <time>2021-02-28T05:24:43Z</time>
      </trkpt>
      <trkpt lat="45.17301" lon="6.28593">
        <ele>1552.8</ele>
        <time>2021-02-28T05:24:44Z</time>
      </trkpt>
      <trkpt lat="45.173" lon="6.28594">
        <ele>1552.8</ele>
        <time>2021-02-28T05:24:45Z</time>
      </trkpt>
      <trkpt lat="45.17299" lon="6.28595">
        <ele>1553</ele>
        <time>2021-02-28T05:24:46Z</time>
      </trkpt>
      <trkpt lat="45.17298" lon="6.28597">
        <ele>1553</ele>
        <time>2021-02-28T05:24:47Z</time>
      </trkpt>
      <trkpt lat="45.17297" lon="6.28598">
        <ele>1553</ele>
        <time>2021-02-28T05:24:48Z</time>
      </trkpt>
      <trkpt lat="45.17296" lon="6.28598">
        <ele>1553.2</ele>
        <time>2021-02-28T05:24:49Z</time>
      </trkpt>
      <trkpt lat="45.17295" lon="6.28599">
        <ele>1553.6</ele>
        <time>2021-02-28T05:24:50Z</time>
      </trkpt>
      <trkpt lat="45.17294" lon="6.28599">
        <ele>1553.8</ele>
        <time>2021-02-28T05:24:51Z</time>
      </trkpt>
      <trkpt lat="45.17293" lon="6.286">
        <ele>1554.4</ele>
        <time>2021-02-28T05:24:52Z</time>
      </trkpt>
      <trkpt lat="45.17292" lon="6.286">
        <ele>1554.4</ele>
        <time>2021-02-28T05:24:53Z</time>
      </trkpt>
      <trkpt lat="45.17291" lon="6.286">
        <ele>1554.6</ele>
        <time>2021-02-28T05:24:54Z</time>
      </trkpt>
      <trkpt lat="45.1729" lon="6.28601">
        <ele>1555</ele>
        <time>2021-02-28T05:24:55Z</time>
      </trkpt>
      <trkpt lat="45.17289" lon="6.28601">
        <ele>1555</ele>
        <time>2021-02-28T05:24:56Z</time>
      </trkpt>
      <trkpt lat="45.17288" lon="6.28602">
        <ele>1555.2</ele>
        <time>2021-02-28T05:24:57Z</time>
      </trkpt>
      <trkpt lat="45.17287" lon="6.28601">
        <ele>1555.6</ele>
        <time>2021-02-28T05:24:58Z</time>
      </trkpt>
      <trkpt lat="45.17285" lon="6.28601">
        <ele>1555.6</ele>
        <time>2021-02-28T05:24:59Z</time>
      </trkpt>
      <trkpt lat="45.17284" lon="6.28601">
        <ele>1556</ele>
        <time>2021-02-28T05:25:00Z</time>
      </trkpt>
      <trkpt lat="45.17283" lon="6.28601">
        <ele>1556.4</ele>
        <time>2021-02-28T05:25:01Z</time>
      </trkpt>
      <trkpt lat="45.17281" lon="6.28601">
        <ele>1557</ele>
        <time>2021-02-28T05:25:02Z</time>
      </trkpt>
      <trkpt lat="45.1728" lon="6.286">
        <ele>1557</ele>
        <time>2021-02-28T05:25:03Z</time>
      </trkpt>
      <trkpt lat="45.17279" lon="6.286">
        <ele>1557.2</ele>
        <time>2021-02-28T05:25:04Z</time>
      </trkpt>
      <trkpt lat="45.17278" lon="6.28601">
        <ele>1557.2</ele>
        <time>2021-02-28T05:25:05Z</time>
      </trkpt>
      <trkpt lat="45.17276" lon="6.28601">
        <ele>1557.4</ele>
        <time>2021-02-28T05:25:06Z</time>
      </trkpt>
      <trkpt lat="45.17275" lon="6.28601">
        <ele>1557.6</ele>
        <time>2021-02-28T05:25:07Z</time>
      </trkpt>
      <trkpt lat="45.17274" lon="6.28602">
        <ele>1557.8</ele>
        <time>2021-02-28T05:25:08Z</time>
      </trkpt>
      <trkpt lat="45.17273" lon="6.28602">
        <ele>1558.2</ele>
        <time>2021-02-28T05:25:09Z</time>
      </trkpt>
      <trkpt lat="45.17272" lon="6.28602">
        <ele>1558.6</ele>
        <time>2021-02-28T05:25:10Z</time>
      </trkpt>
      <trkpt lat="45.17271" lon="6.28603">
        <ele>1558.8</ele>
        <time>2021-02-28T05:25:11Z</time>
      </trkpt>
      <trkpt lat="45.1727" lon="6.28603">
        <ele>1559.2</ele>
        <time>2021-02-28T05:25:12Z</time>
      </trkpt>
      <trkpt lat="45.17269" lon="6.28603">
        <ele>1559.4</ele>
        <time>2021-02-28T05:25:13Z</time>
      </trkpt>
      <trkpt lat="45.17268" lon="6.28602">
        <ele>1559.6</ele>
        <time>2021-02-28T05:25:14Z</time>
      </trkpt>
      <trkpt lat="45.17267" lon="6.28602">
        <ele>1559.6</ele>
        <time>2021-02-28T05:25:15Z</time>
      </trkpt>
      <trkpt lat="45.17266" lon="6.28602">
        <ele>1560.2</ele>
        <time>2021-02-28T05:25:16Z</time>
      </trkpt>
      <trkpt lat="45.17265" lon="6.28601">
        <ele>1560.2</ele>
        <time>2021-02-28T05:25:17Z</time>
      </trkpt>
      <trkpt lat="45.17264" lon="6.28601">
        <ele>1560.6</ele>
        <time>2021-02-28T05:25:18Z</time>
      </trkpt>
      <trkpt lat="45.17263" lon="6.28601">
        <ele>1560.8</ele>
        <time>2021-02-28T05:25:19Z</time>
      </trkpt>
      <trkpt lat="45.17262" lon="6.286">
        <ele>1561.2</ele>
        <time>2021-02-28T05:25:20Z</time>
      </trkpt>
      <trkpt lat="45.17261" lon="6.286">
        <ele>1561.2</ele>
        <time>2021-02-28T05:25:21Z</time>
      </trkpt>
      <trkpt lat="45.1726" lon="6.28599">
        <ele>1561.6</ele>
        <time>2021-02-28T05:25:22Z</time>
      </trkpt>
      <trkpt lat="45.17259" lon="6.28599">
        <ele>1561.8</ele>
        <time>2021-02-28T05:25:23Z</time>
      </trkpt>
      <trkpt lat="45.17259" lon="6.28598">
        <ele>1562.4</ele>
        <time>2021-02-28T05:25:24Z</time>
      </trkpt>
      <trkpt lat="45.17258" lon="6.28597">
        <ele>1562.4</ele>
        <time>2021-02-28T05:25:25Z</time>
      </trkpt>
      <trkpt lat="45.17257" lon="6.28597">
        <ele>1563</ele>
        <time>2021-02-28T05:25:26Z</time>
      </trkpt>
      <trkpt lat="45.17256" lon="6.28596">
        <ele>1563</ele>
        <time>2021-02-28T05:25:27Z</time>
      </trkpt>
      <trkpt lat="45.17255" lon="6.28595">
        <ele>1562.8</ele>
        <time>2021-02-28T05:25:28Z</time>
      </trkpt>
      <trkpt lat="45.17254" lon="6.28595">
        <ele>1563</ele>
        <time>2021-02-28T05:25:29Z</time>
      </trkpt>
      <trkpt lat="45.17253" lon="6.28594">
        <ele>1563.4</ele>
        <time>2021-02-28T05:25:30Z</time>
      </trkpt>
      <trkpt lat="45.17252" lon="6.28594">
        <ele>1563.2</ele>
        <time>2021-02-28T05:25:31Z</time>
      </trkpt>
      <trkpt lat="45.17251" lon="6.28593">
        <ele>1563.4</ele>
        <time>2021-02-28T05:25:32Z</time>
      </trkpt>
      <trkpt lat="45.1725" lon="6.28593">
        <ele>1563.6</ele>
        <time>2021-02-28T05:25:33Z</time>
      </trkpt>
      <trkpt lat="45.17249" lon="6.28592">
        <ele>1564</ele>
        <time>2021-02-28T05:25:34Z</time>
      </trkpt>
      <trkpt lat="45.17247" lon="6.28592">
        <ele>1564.4</ele>
        <time>2021-02-28T05:25:35Z</time>
      </trkpt>
      <trkpt lat="45.17246" lon="6.28591">
        <ele>1564.2</ele>
        <time>2021-02-28T05:25:36Z</time>
      </trkpt>
      <trkpt lat="45.17245" lon="6.28591">
        <ele>1564.6</ele>
        <time>2021-02-28T05:25:37Z</time>
      </trkpt>
      <trkpt lat="45.17244" lon="6.2859">
        <ele>1564.8</ele>
        <time>2021-02-28T05:25:38Z</time>
      </trkpt>
      <trkpt lat="45.17243" lon="6.2859">
        <ele>1565</ele>
        <time>2021-02-28T05:25:39Z</time>
      </trkpt>
      <trkpt lat="45.17242" lon="6.28589">
        <ele>1565.2</ele>
        <time>2021-02-28T05:25:40Z</time>
      </trkpt>
      <trkpt lat="45.17241" lon="6.28589">
        <ele>1565.4</ele>
        <time>2021-02-28T05:25:41Z</time>
      </trkpt>
      <trkpt lat="45.1724" lon="6.28588">
        <ele>1565.4</ele>
        <time>2021-02-28T05:25:42Z</time>
      </trkpt>
      <trkpt lat="45.17239" lon="6.28587">
        <ele>1565.6</ele>
        <time>2021-02-28T05:25:43Z</time>
      </trkpt>
      <trkpt lat="45.17238" lon="6.28587">
        <ele>1566</ele>
        <time>2021-02-28T05:25:44Z</time>
      </trkpt>
      <trkpt lat="45.17237" lon="6.28586">
        <ele>1566.2</ele>
        <time>2021-02-28T05:25:45Z</time>
      </trkpt>
      <trkpt lat="45.17237" lon="6.28585">
        <ele>1566.4</ele>
        <time>2021-02-28T05:25:46Z</time>
      </trkpt>
      <trkpt lat="45.17236" lon="6.28584">
        <ele>1566.4</ele>
        <time>2021-02-28T05:25:47Z</time>
      </trkpt>
      <trkpt lat="45.17235" lon="6.28583">
        <ele>1566.6</ele>
        <time>2021-02-28T05:25:48Z</time>
      </trkpt>
      <trkpt lat="45.17234" lon="6.28582">
        <ele>1567</ele>
        <time>2021-02-28T05:25:49Z</time>
      </trkpt>
      <trkpt lat="45.17233" lon="6.28582">
        <ele>1567.4</ele>
        <time>2021-02-28T05:25:50Z</time>
      </trkpt>
      <trkpt lat="45.17233" lon="6.28581">
        <ele>1567.4</ele>
        <time>2021-02-28T05:25:51Z</time>
      </trkpt>
      <trkpt lat="45.17232" lon="6.2858">
        <ele>1567.8</ele>
        <time>2021-02-28T05:25:52Z</time>
      </trkpt>
      <trkpt lat="45.17231" lon="6.28579">
        <ele>1568.2</ele>
        <time>2021-02-28T05:25:53Z</time>
      </trkpt>
      <trkpt lat="45.1723" lon="6.28578">
        <ele>1568.2</ele>
        <time>2021-02-28T05:25:54Z</time>
      </trkpt>
      <trkpt lat="45.17229" lon="6.28578">
        <ele>1568.8</ele>
        <time>2021-02-28T05:25:55Z</time>
      </trkpt>
      <trkpt lat="45.17228" lon="6.28577">
        <ele>1569.2</ele>
        <time>2021-02-28T05:25:56Z</time>
      </trkpt>
      <trkpt lat="45.17226" lon="6.28577">
        <ele>1569.4</ele>
        <time>2021-02-28T05:25:57Z</time>
      </trkpt>
      <trkpt lat="45.17225" lon="6.28577">
        <ele>1570</ele>
        <time>2021-02-28T05:25:58Z</time>
      </trkpt>
      <trkpt lat="45.17224" lon="6.28576">
        <ele>1570</ele>
        <time>2021-02-28T05:25:59Z</time>
      </trkpt>
      <trkpt lat="45.17224" lon="6.28576">
        <ele>1570.2</ele>
        <time>2021-02-28T05:26:00Z</time>
      </trkpt>
      <trkpt lat="45.17224" lon="6.28576">
        <ele>1570.4</ele>
        <time>2021-02-28T05:26:01Z</time>
      </trkpt>
      <trkpt lat="45.17224" lon="6.28576">
        <ele>1570.6</ele>
        <time>2021-02-28T05:26:02Z</time>
      </trkpt>
      <trkpt lat="45.17221" lon="6.28573">
        <ele>1571</ele>
        <time>2021-02-28T05:26:03Z</time>
      </trkpt>
      <trkpt lat="45.17221" lon="6.28573">
        <ele>1571</ele>
        <time>2021-02-28T05:26:04Z</time>
      </trkpt>
      <trkpt lat="45.17219" lon="6.28573">
        <ele>1571.4</ele>
        <time>2021-02-28T05:26:05Z</time>
      </trkpt>
      <trkpt lat="45.17219" lon="6.28573">
        <ele>1571.6</ele>
        <time>2021-02-28T05:26:06Z</time>
      </trkpt>
      <trkpt lat="45.17217" lon="6.28574">
        <ele>1571.6</ele>
        <time>2021-02-28T05:26:07Z</time>
      </trkpt>
      <trkpt lat="45.17217" lon="6.28574">
        <ele>1571.8</ele>
        <time>2021-02-28T05:26:08Z</time>
      </trkpt>
      <trkpt lat="45.17217" lon="6.28574">
        <ele>1572</ele>
        <time>2021-02-28T05:26:09Z</time>
      </trkpt>
      <trkpt lat="45.17214" lon="6.28573">
        <ele>1572.4</ele>
        <time>2021-02-28T05:26:10Z</time>
      </trkpt>
      <trkpt lat="45.17214" lon="6.28573">
        <ele>1572.4</ele>
        <time>2021-02-28T05:26:11Z</time>
      </trkpt>
      <trkpt lat="45.17214" lon="6.28573">
        <ele>1572.8</ele>
        <time>2021-02-28T05:26:12Z</time>
      </trkpt>
      <trkpt lat="45.1721" lon="6.28573">
        <ele>1573</ele>
        <time>2021-02-28T05:26:13Z</time>
      </trkpt>
      <trkpt lat="45.1721" lon="6.28573">
        <ele>1573.2</ele>
        <time>2021-02-28T05:26:14Z</time>
      </trkpt>
      <trkpt lat="45.1721" lon="6.28573">
        <ele>1573.6</ele>
        <time>2021-02-28T05:26:15Z</time>
      </trkpt>
      <trkpt lat="45.17209" lon="6.28573">
        <ele>1573.8</ele>
        <time>2021-02-28T05:26:16Z</time>
      </trkpt>
      <trkpt lat="45.17208" lon="6.28573">
        <ele>1574.4</ele>
        <time>2021-02-28T05:26:17Z</time>
      </trkpt>
      <trkpt lat="45.17207" lon="6.28573">
        <ele>1574.6</ele>
        <time>2021-02-28T05:26:18Z</time>
      </trkpt>
      <trkpt lat="45.17206" lon="6.28573">
        <ele>1574.6</ele>
        <time>2021-02-28T05:26:19Z</time>
      </trkpt>
      <trkpt lat="45.17205" lon="6.28573">
        <ele>1575</ele>
        <time>2021-02-28T05:26:20Z</time>
      </trkpt>
      <trkpt lat="45.17204" lon="6.28573">
        <ele>1575</ele>
        <time>2021-02-28T05:26:21Z</time>
      </trkpt>
      <trkpt lat="45.17203" lon="6.28573">
        <ele>1575.2</ele>
        <time>2021-02-28T05:26:22Z</time>
      </trkpt>
      <trkpt lat="45.17202" lon="6.28573">
        <ele>1575.6</ele>
        <time>2021-02-28T05:26:23Z</time>
      </trkpt>
      <trkpt lat="45.172" lon="6.28573">
        <ele>1575.6</ele>
        <time>2021-02-28T05:26:24Z</time>
      </trkpt>
      <trkpt lat="45.17199" lon="6.28572">
        <ele>1576</ele>
        <time>2021-02-28T05:26:25Z</time>
      </trkpt>
      <trkpt lat="45.17198" lon="6.28571">
        <ele>1576</ele>
        <time>2021-02-28T05:26:26Z</time>
      </trkpt>
      <trkpt lat="45.17197" lon="6.28571">
        <ele>1576</ele>
        <time>2021-02-28T05:26:27Z</time>
      </trkpt>
      <trkpt lat="45.17196" lon="6.2857">
        <ele>1576.2</ele>
        <time>2021-02-28T05:26:28Z</time>
      </trkpt>
      <trkpt lat="45.17195" lon="6.2857">
        <ele>1576.4</ele>
        <time>2021-02-28T05:26:29Z</time>
      </trkpt>
      <trkpt lat="45.17193" lon="6.28569">
        <ele>1576.6</ele>
        <time>2021-02-28T05:26:30Z</time>
      </trkpt>
      <trkpt lat="45.17192" lon="6.28568">
        <ele>1577</ele>
        <time>2021-02-28T05:26:31Z</time>
      </trkpt>
      <trkpt lat="45.17191" lon="6.28568">
        <ele>1576.8</ele>
        <time>2021-02-28T05:26:32Z</time>
      </trkpt>
      <trkpt lat="45.1719" lon="6.28568">
        <ele>1577.4</ele>
        <time>2021-02-28T05:26:33Z</time>
      </trkpt>
      <trkpt lat="45.17188" lon="6.28568">
        <ele>1577.4</ele>
        <time>2021-02-28T05:26:34Z</time>
      </trkpt>
      <trkpt lat="45.17186" lon="6.28567">
        <ele>1577.6</ele>
        <time>2021-02-28T05:26:35Z</time>
      </trkpt>
      <trkpt lat="45.17185" lon="6.28567">
        <ele>1577.6</ele>
        <time>2021-02-28T05:26:36Z</time>
      </trkpt>
      <trkpt lat="45.17183" lon="6.28567">
        <ele>1577.6</ele>
        <time>2021-02-28T05:26:37Z</time>
      </trkpt>
      <trkpt lat="45.17181" lon="6.28567">
        <ele>1578</ele>
        <time>2021-02-28T05:26:38Z</time>
      </trkpt>
      <trkpt lat="45.1718" lon="6.28567">
        <ele>1578</ele>
        <time>2021-02-28T05:26:39Z</time>
      </trkpt>
      <trkpt lat="45.17179" lon="6.28566">
        <ele>1578.2</ele>
        <time>2021-02-28T05:26:40Z</time>
      </trkpt>
      <trkpt lat="45.17178" lon="6.28566">
        <ele>1578</ele>
        <time>2021-02-28T05:26:41Z</time>
      </trkpt>
      <trkpt lat="45.17177" lon="6.28565">
        <ele>1578.4</ele>
        <time>2021-02-28T05:26:42Z</time>
      </trkpt>
      <trkpt lat="45.17176" lon="6.28565">
        <ele>1578.4</ele>
        <time>2021-02-28T05:26:43Z</time>
      </trkpt>
      <trkpt lat="45.17175" lon="6.28565">
        <ele>1578.4</ele>
        <time>2021-02-28T05:26:44Z</time>
      </trkpt>
      <trkpt lat="45.17174" lon="6.28564">
        <ele>1578.8</ele>
        <time>2021-02-28T05:26:45Z</time>
      </trkpt>
      <trkpt lat="45.17173" lon="6.28564">
        <ele>1578.4</ele>
        <time>2021-02-28T05:26:46Z</time>
      </trkpt>
      <trkpt lat="45.17172" lon="6.28564">
        <ele>1578.8</ele>
        <time>2021-02-28T05:26:47Z</time>
      </trkpt>
      <trkpt lat="45.1717" lon="6.28564">
        <ele>1578.6</ele>
        <time>2021-02-28T05:26:48Z</time>
      </trkpt>
      <trkpt lat="45.17169" lon="6.28564">
        <ele>1579</ele>
        <time>2021-02-28T05:26:49Z</time>
      </trkpt>
      <trkpt lat="45.17168" lon="6.28564">
        <ele>1579.2</ele>
        <time>2021-02-28T05:26:50Z</time>
      </trkpt>
      <trkpt lat="45.17166" lon="6.28564">
        <ele>1579.2</ele>
        <time>2021-02-28T05:26:51Z</time>
      </trkpt>
      <trkpt lat="45.17165" lon="6.28564">
        <ele>1579.6</ele>
        <time>2021-02-28T05:26:52Z</time>
      </trkpt>
      <trkpt lat="45.17164" lon="6.28564">
        <ele>1579.6</ele>
        <time>2021-02-28T05:26:53Z</time>
      </trkpt>
      <trkpt lat="45.17163" lon="6.28564">
        <ele>1579.8</ele>
        <time>2021-02-28T05:26:54Z</time>
      </trkpt>
      <trkpt lat="45.17162" lon="6.28564">
        <ele>1580</ele>
        <time>2021-02-28T05:26:55Z</time>
      </trkpt>
      <trkpt lat="45.17161" lon="6.28564">
        <ele>1580</ele>
        <time>2021-02-28T05:26:56Z</time>
      </trkpt>
      <trkpt lat="45.1716" lon="6.28564">
        <ele>1580.4</ele>
        <time>2021-02-28T05:26:57Z</time>
      </trkpt>
      <trkpt lat="45.17159" lon="6.28564">
        <ele>1580.6</ele>
        <time>2021-02-28T05:26:58Z</time>
      </trkpt>
      <trkpt lat="45.17158" lon="6.28565">
        <ele>1580.8</ele>
        <time>2021-02-28T05:26:59Z</time>
      </trkpt>
      <trkpt lat="45.17157" lon="6.28565">
        <ele>1581</ele>
        <time>2021-02-28T05:27:00Z</time>
      </trkpt>
      <trkpt lat="45.17156" lon="6.28565">
        <ele>1581.2</ele>
        <time>2021-02-28T05:27:01Z</time>
      </trkpt>
      <trkpt lat="45.17154" lon="6.28565">
        <ele>1581.2</ele>
        <time>2021-02-28T05:27:02Z</time>
      </trkpt>
      <trkpt lat="45.17153" lon="6.28565">
        <ele>1581.6</ele>
        <time>2021-02-28T05:27:03Z</time>
      </trkpt>
      <trkpt lat="45.17152" lon="6.28566">
        <ele>1581.8</ele>
        <time>2021-02-28T05:27:04Z</time>
      </trkpt>
      <trkpt lat="45.17151" lon="6.28566">
        <ele>1581.8</ele>
        <time>2021-02-28T05:27:05Z</time>
      </trkpt>
      <trkpt lat="45.1715" lon="6.28566">
        <ele>1582.2</ele>
        <time>2021-02-28T05:27:06Z</time>
      </trkpt>
      <trkpt lat="45.17149" lon="6.28567">
        <ele>1582.4</ele>
        <time>2021-02-28T05:27:07Z</time>
      </trkpt>
      <trkpt lat="45.17148" lon="6.28567">
        <ele>1582.8</ele>
        <time>2021-02-28T05:27:08Z</time>
      </trkpt>
      <trkpt lat="45.17146" lon="6.28567">
        <ele>1583.2</ele>
        <time>2021-02-28T05:27:09Z</time>
      </trkpt>
      <trkpt lat="45.17145" lon="6.28568">
        <ele>1583.6</ele>
        <time>2021-02-28T05:27:10Z</time>
      </trkpt>
      <trkpt lat="45.17144" lon="6.28568">
        <ele>1583.8</ele>
        <time>2021-02-28T05:27:11Z</time>
      </trkpt>
      <trkpt lat="45.17143" lon="6.28568">
        <ele>1584</ele>
        <time>2021-02-28T05:27:12Z</time>
      </trkpt>
      <trkpt lat="45.17141" lon="6.28568">
        <ele>1584.4</ele>
        <time>2021-02-28T05:27:13Z</time>
      </trkpt>
      <trkpt lat="45.1714" lon="6.28569">
        <ele>1584.4</ele>
        <time>2021-02-28T05:27:14Z</time>
      </trkpt>
      <trkpt lat="45.17139" lon="6.28569">
        <ele>1584.8</ele>
        <time>2021-02-28T05:27:15Z</time>
      </trkpt>
      <trkpt lat="45.17138" lon="6.28569">
        <ele>1585.2</ele>
        <time>2021-02-28T05:27:16Z</time>
      </trkpt>
      <trkpt lat="45.17136" lon="6.28569">
        <ele>1585.2</ele>
        <time>2021-02-28T05:27:17Z</time>
      </trkpt>
      <trkpt lat="45.17135" lon="6.2857">
        <ele>1585.6</ele>
        <time>2021-02-28T05:27:18Z</time>
      </trkpt>
      <trkpt lat="45.17134" lon="6.2857">
        <ele>1585.8</ele>
        <time>2021-02-28T05:27:19Z</time>
      </trkpt>
      <trkpt lat="45.17134" lon="6.2857">
        <ele>1586.2</ele>
        <time>2021-02-28T05:27:20Z</time>
      </trkpt>
      <trkpt lat="45.17134" lon="6.2857">
        <ele>1586.2</ele>
        <time>2021-02-28T05:27:21Z</time>
      </trkpt>
      <trkpt lat="45.17133" lon="6.2857">
        <ele>1586.4</ele>
        <time>2021-02-28T05:27:22Z</time>
      </trkpt>
      <trkpt lat="45.17132" lon="6.2857">
        <ele>1587</ele>
        <time>2021-02-28T05:27:23Z</time>
      </trkpt>
      <trkpt lat="45.1713" lon="6.2857">
        <ele>1587</ele>
        <time>2021-02-28T05:27:24Z</time>
      </trkpt>
      <trkpt lat="45.17129" lon="6.28571">
        <ele>1587.2</ele>
        <time>2021-02-28T05:27:25Z</time>
      </trkpt>
      <trkpt lat="45.17128" lon="6.28571">
        <ele>1587.4</ele>
        <time>2021-02-28T05:27:26Z</time>
      </trkpt>
      <trkpt lat="45.17127" lon="6.28571">
        <ele>1587.6</ele>
        <time>2021-02-28T05:27:27Z</time>
      </trkpt>
      <trkpt lat="45.17126" lon="6.28571">
        <ele>1588.2</ele>
        <time>2021-02-28T05:27:28Z</time>
      </trkpt>
      <trkpt lat="45.17124" lon="6.28571">
        <ele>1588.2</ele>
        <time>2021-02-28T05:27:29Z</time>
      </trkpt>
      <trkpt lat="45.17123" lon="6.28571">
        <ele>1588.2</ele>
        <time>2021-02-28T05:27:30Z</time>
      </trkpt>
      <trkpt lat="45.17122" lon="6.28571">
        <ele>1588.6</ele>
        <time>2021-02-28T05:27:31Z</time>
      </trkpt>
      <trkpt lat="45.17121" lon="6.28571">
        <ele>1589</ele>
        <time>2021-02-28T05:27:32Z</time>
      </trkpt>
      <trkpt lat="45.1712" lon="6.28572">
        <ele>1589</ele>
        <time>2021-02-28T05:27:33Z</time>
      </trkpt>
      <trkpt lat="45.17118" lon="6.28572">
        <ele>1589.2</ele>
        <time>2021-02-28T05:27:34Z</time>
      </trkpt>
      <trkpt lat="45.17117" lon="6.28572">
        <ele>1589.2</ele>
        <time>2021-02-28T05:27:35Z</time>
      </trkpt>
      <trkpt lat="45.17116" lon="6.28572">
        <ele>1589</ele>
        <time>2021-02-28T05:27:36Z</time>
      </trkpt>
      <trkpt lat="45.17115" lon="6.28572">
        <ele>1589.2</ele>
        <time>2021-02-28T05:27:37Z</time>
      </trkpt>
      <trkpt lat="45.17114" lon="6.28572">
        <ele>1589.8</ele>
        <time>2021-02-28T05:27:38Z</time>
      </trkpt>
      <trkpt lat="45.17113" lon="6.28572">
        <ele>1589.8</ele>
        <time>2021-02-28T05:27:39Z</time>
      </trkpt>
      <trkpt lat="45.17111" lon="6.28572">
        <ele>1590</ele>
        <time>2021-02-28T05:27:40Z</time>
      </trkpt>
      <trkpt lat="45.1711" lon="6.28573">
        <ele>1590.2</ele>
        <time>2021-02-28T05:27:41Z</time>
      </trkpt>
      <trkpt lat="45.17109" lon="6.28573">
        <ele>1590</ele>
        <time>2021-02-28T05:27:42Z</time>
      </trkpt>
      <trkpt lat="45.17108" lon="6.28573">
        <ele>1590.2</ele>
        <time>2021-02-28T05:27:43Z</time>
      </trkpt>
      <trkpt lat="45.17107" lon="6.28573">
        <ele>1590.6</ele>
        <time>2021-02-28T05:27:44Z</time>
      </trkpt>
      <trkpt lat="45.17106" lon="6.28573">
        <ele>1590.6</ele>
        <time>2021-02-28T05:27:45Z</time>
      </trkpt>
      <trkpt lat="45.17104" lon="6.28573">
        <ele>1590.6</ele>
        <time>2021-02-28T05:27:46Z</time>
      </trkpt>
      <trkpt lat="45.17103" lon="6.28574">
        <ele>1590.6</ele>
        <time>2021-02-28T05:27:47Z</time>
      </trkpt>
      <trkpt lat="45.17102" lon="6.28574">
        <ele>1590.6</ele>
        <time>2021-02-28T05:27:48Z</time>
      </trkpt>
      <trkpt lat="45.171" lon="6.28574">
        <ele>1590.8</ele>
        <time>2021-02-28T05:27:49Z</time>
      </trkpt>
      <trkpt lat="45.17099" lon="6.28575">
        <ele>1590.8</ele>
        <time>2021-02-28T05:27:50Z</time>
      </trkpt>
      <trkpt lat="45.17098" lon="6.28575">
        <ele>1591.2</ele>
        <time>2021-02-28T05:27:51Z</time>
      </trkpt>
      <trkpt lat="45.17096" lon="6.28575">
        <ele>1591.2</ele>
        <time>2021-02-28T05:27:52Z</time>
      </trkpt>
      <trkpt lat="45.17095" lon="6.28576">
        <ele>1591.6</ele>
        <time>2021-02-28T05:27:53Z</time>
      </trkpt>
      <trkpt lat="45.17094" lon="6.28576">
        <ele>1592</ele>
        <time>2021-02-28T05:27:54Z</time>
      </trkpt>
      <trkpt lat="45.17093" lon="6.28577">
        <ele>1592</ele>
        <time>2021-02-28T05:27:55Z</time>
      </trkpt>
      <trkpt lat="45.17092" lon="6.28577">
        <ele>1592.4</ele>
        <time>2021-02-28T05:27:56Z</time>
      </trkpt>
      <trkpt lat="45.17091" lon="6.28577">
        <ele>1592.4</ele>
        <time>2021-02-28T05:27:57Z</time>
      </trkpt>
      <trkpt lat="45.17089" lon="6.28578">
        <ele>1592.4</ele>
        <time>2021-02-28T05:27:58Z</time>
      </trkpt>
      <trkpt lat="45.17088" lon="6.28578">
        <ele>1592.8</ele>
        <time>2021-02-28T05:27:59Z</time>
      </trkpt>
      <trkpt lat="45.17087" lon="6.28579">
        <ele>1592.8</ele>
        <time>2021-02-28T05:28:00Z</time>
      </trkpt>
      <trkpt lat="45.17086" lon="6.28579">
        <ele>1593</ele>
        <time>2021-02-28T05:28:01Z</time>
      </trkpt>
      <trkpt lat="45.17085" lon="6.28579">
        <ele>1593.4</ele>
        <time>2021-02-28T05:28:02Z</time>
      </trkpt>
      <trkpt lat="45.17084" lon="6.28579">
        <ele>1593.4</ele>
        <time>2021-02-28T05:28:03Z</time>
      </trkpt>
      <trkpt lat="45.17083" lon="6.28579">
        <ele>1593.6</ele>
        <time>2021-02-28T05:28:04Z</time>
      </trkpt>
      <trkpt lat="45.17081" lon="6.28579">
        <ele>1594</ele>
        <time>2021-02-28T05:28:05Z</time>
      </trkpt>
      <trkpt lat="45.1708" lon="6.28579">
        <ele>1594</ele>
        <time>2021-02-28T05:28:06Z</time>
      </trkpt>
      <trkpt lat="45.17079" lon="6.28579">
        <ele>1594</ele>
        <time>2021-02-28T05:28:07Z</time>
      </trkpt>
      <trkpt lat="45.17078" lon="6.28579">
        <ele>1594.2</ele>
        <time>2021-02-28T05:28:08Z</time>
      </trkpt>
      <trkpt lat="45.17076" lon="6.2858">
        <ele>1594.2</ele>
        <time>2021-02-28T05:28:09Z</time>
      </trkpt>
      <trkpt lat="45.17075" lon="6.28581">
        <ele>1594.6</ele>
        <time>2021-02-28T05:28:10Z</time>
      </trkpt>
      <trkpt lat="45.17073" lon="6.28582">
        <ele>1594.6</ele>
        <time>2021-02-28T05:28:11Z</time>
      </trkpt>
      <trkpt lat="45.17071" lon="6.28583">
        <ele>1594.6</ele>
        <time>2021-02-28T05:28:12Z</time>
      </trkpt>
      <trkpt lat="45.1707" lon="6.28584">
        <ele>1594.8</ele>
        <time>2021-02-28T05:28:13Z</time>
      </trkpt>
      <trkpt lat="45.17068" lon="6.28584">
        <ele>1595</ele>
        <time>2021-02-28T05:28:14Z</time>
      </trkpt>
      <trkpt lat="45.17067" lon="6.28585">
        <ele>1595.2</ele>
        <time>2021-02-28T05:28:15Z</time>
      </trkpt>
      <trkpt lat="45.17066" lon="6.28585">
        <ele>1595.4</ele>
        <time>2021-02-28T05:28:16Z</time>
      </trkpt>
      <trkpt lat="45.17065" lon="6.28585">
        <ele>1595.4</ele>
        <time>2021-02-28T05:28:17Z</time>
      </trkpt>
      <trkpt lat="45.17064" lon="6.28586">
        <ele>1595.4</ele>
        <time>2021-02-28T05:28:18Z</time>
      </trkpt>
      <trkpt lat="45.17063" lon="6.28586">
        <ele>1595.8</ele>
        <time>2021-02-28T05:28:19Z</time>
      </trkpt>
      <trkpt lat="45.17062" lon="6.28586">
        <ele>1596</ele>
        <time>2021-02-28T05:28:20Z</time>
      </trkpt>
      <trkpt lat="45.17062" lon="6.28587">
        <ele>1596.2</ele>
        <time>2021-02-28T05:28:21Z</time>
      </trkpt>
      <trkpt lat="45.17061" lon="6.28587">
        <ele>1596.2</ele>
        <time>2021-02-28T05:28:22Z</time>
      </trkpt>
      <trkpt lat="45.1706" lon="6.28587">
        <ele>1596.6</ele>
        <time>2021-02-28T05:28:23Z</time>
      </trkpt>
      <trkpt lat="45.17059" lon="6.28587">
        <ele>1596.6</ele>
        <time>2021-02-28T05:28:24Z</time>
      </trkpt>
      <trkpt lat="45.17057" lon="6.28588">
        <ele>1596.8</ele>
        <time>2021-02-28T05:28:25Z</time>
      </trkpt>
      <trkpt lat="45.17056" lon="6.28588">
        <ele>1597</ele>
        <time>2021-02-28T05:28:26Z</time>
      </trkpt>
      <trkpt lat="45.17055" lon="6.28589">
        <ele>1597.2</ele>
        <time>2021-02-28T05:28:27Z</time>
      </trkpt>
      <trkpt lat="45.17054" lon="6.28589">
        <ele>1597.6</ele>
        <time>2021-02-28T05:28:28Z</time>
      </trkpt>
      <trkpt lat="45.17052" lon="6.28589">
        <ele>1597.6</ele>
        <time>2021-02-28T05:28:29Z</time>
      </trkpt>
      <trkpt lat="45.17051" lon="6.2859">
        <ele>1597.6</ele>
        <time>2021-02-28T05:28:30Z</time>
      </trkpt>
      <trkpt lat="45.1705" lon="6.2859">
        <ele>1598.2</ele>
        <time>2021-02-28T05:28:31Z</time>
      </trkpt>
      <trkpt lat="45.17049" lon="6.2859">
        <ele>1598.2</ele>
        <time>2021-02-28T05:28:32Z</time>
      </trkpt>
      <trkpt lat="45.17048" lon="6.2859">
        <ele>1598.4</ele>
        <time>2021-02-28T05:28:33Z</time>
      </trkpt>
      <trkpt lat="45.17047" lon="6.2859">
        <ele>1598.4</ele>
        <time>2021-02-28T05:28:34Z</time>
      </trkpt>
      <trkpt lat="45.17046" lon="6.2859">
        <ele>1598.6</ele>
        <time>2021-02-28T05:28:35Z</time>
      </trkpt>
      <trkpt lat="45.17045" lon="6.28591">
        <ele>1598.8</ele>
        <time>2021-02-28T05:28:36Z</time>
      </trkpt>
      <trkpt lat="45.17044" lon="6.28591">
        <ele>1599</ele>
        <time>2021-02-28T05:28:37Z</time>
      </trkpt>
      <trkpt lat="45.17043" lon="6.28591">
        <ele>1599</ele>
        <time>2021-02-28T05:28:38Z</time>
      </trkpt>
      <trkpt lat="45.17042" lon="6.28591">
        <ele>1599.4</ele>
        <time>2021-02-28T05:28:39Z</time>
      </trkpt>
      <trkpt lat="45.17041" lon="6.28591">
        <ele>1599.6</ele>
        <time>2021-02-28T05:28:40Z</time>
      </trkpt>
      <trkpt lat="45.1704" lon="6.28591">
        <ele>1599.8</ele>
        <time>2021-02-28T05:28:41Z</time>
      </trkpt>
      <trkpt lat="45.17039" lon="6.28591">
        <ele>1600</ele>
        <time>2021-02-28T05:28:42Z</time>
      </trkpt>
      <trkpt lat="45.17038" lon="6.28591">
        <ele>1600.2</ele>
        <time>2021-02-28T05:28:43Z</time>
      </trkpt>
      <trkpt lat="45.17037" lon="6.28591">
        <ele>1600.4</ele>
        <time>2021-02-28T05:28:44Z</time>
      </trkpt>
      <trkpt lat="45.17035" lon="6.28591">
        <ele>1600.8</ele>
        <time>2021-02-28T05:28:45Z</time>
      </trkpt>
      <trkpt lat="45.17034" lon="6.28591">
        <ele>1601</ele>
        <time>2021-02-28T05:28:46Z</time>
      </trkpt>
      <trkpt lat="45.17033" lon="6.28592">
        <ele>1601</ele>
        <time>2021-02-28T05:28:47Z</time>
      </trkpt>
      <trkpt lat="45.17031" lon="6.28592">
        <ele>1601.4</ele>
        <time>2021-02-28T05:28:48Z</time>
      </trkpt>
      <trkpt lat="45.1703" lon="6.28592">
        <ele>1601.6</ele>
        <time>2021-02-28T05:28:49Z</time>
      </trkpt>
      <trkpt lat="45.17029" lon="6.28592">
        <ele>1601.4</ele>
        <time>2021-02-28T05:28:50Z</time>
      </trkpt>
      <trkpt lat="45.17028" lon="6.28592">
        <ele>1601.4</ele>
        <time>2021-02-28T05:28:51Z</time>
      </trkpt>
      <trkpt lat="45.17026" lon="6.28591">
        <ele>1601.6</ele>
        <time>2021-02-28T05:28:52Z</time>
      </trkpt>
      <trkpt lat="45.17025" lon="6.28591">
        <ele>1601.8</ele>
        <time>2021-02-28T05:28:53Z</time>
      </trkpt>
      <trkpt lat="45.17024" lon="6.28591">
        <ele>1602</ele>
        <time>2021-02-28T05:28:54Z</time>
      </trkpt>
      <trkpt lat="45.17023" lon="6.28591">
        <ele>1602</ele>
        <time>2021-02-28T05:28:55Z</time>
      </trkpt>
      <trkpt lat="45.17021" lon="6.28591">
        <ele>1602.2</ele>
        <time>2021-02-28T05:28:56Z</time>
      </trkpt>
      <trkpt lat="45.1702" lon="6.28591">
        <ele>1602.6</ele>
        <time>2021-02-28T05:28:57Z</time>
      </trkpt>
      <trkpt lat="45.17019" lon="6.28591">
        <ele>1602.8</ele>
        <time>2021-02-28T05:28:58Z</time>
      </trkpt>
      <trkpt lat="45.17018" lon="6.28592">
        <ele>1602.6</ele>
        <time>2021-02-28T05:28:59Z</time>
      </trkpt>
      <trkpt lat="45.17017" lon="6.28592">
        <ele>1603</ele>
        <time>2021-02-28T05:29:00Z</time>
      </trkpt>
      <trkpt lat="45.17016" lon="6.28592">
        <ele>1603.2</ele>
        <time>2021-02-28T05:29:01Z</time>
      </trkpt>
      <trkpt lat="45.17014" lon="6.28592">
        <ele>1603.2</ele>
        <time>2021-02-28T05:29:02Z</time>
      </trkpt>
      <trkpt lat="45.17013" lon="6.28593">
        <ele>1603.6</ele>
        <time>2021-02-28T05:29:03Z</time>
      </trkpt>
      <trkpt lat="45.17012" lon="6.28593">
        <ele>1603.4</ele>
        <time>2021-02-28T05:29:04Z</time>
      </trkpt>
      <trkpt lat="45.17011" lon="6.28593">
        <ele>1603.8</ele>
        <time>2021-02-28T05:29:05Z</time>
      </trkpt>
      <trkpt lat="45.1701" lon="6.28594">
        <ele>1603.6</ele>
        <time>2021-02-28T05:29:06Z</time>
      </trkpt>
      <trkpt lat="45.17008" lon="6.28594">
        <ele>1603.8</ele>
        <time>2021-02-28T05:29:07Z</time>
      </trkpt>
      <trkpt lat="45.17007" lon="6.28594">
        <ele>1604</ele>
        <time>2021-02-28T05:29:08Z</time>
      </trkpt>
      <trkpt lat="45.17006" lon="6.28595">
        <ele>1603.8</ele>
        <time>2021-02-28T05:29:09Z</time>
      </trkpt>
      <trkpt lat="45.17005" lon="6.28595">
        <ele>1604</ele>
        <time>2021-02-28T05:29:10Z</time>
      </trkpt>
      <trkpt lat="45.17004" lon="6.28595">
        <ele>1604.4</ele>
        <time>2021-02-28T05:29:11Z</time>
      </trkpt>
      <trkpt lat="45.17002" lon="6.28596">
        <ele>1604.8</ele>
        <time>2021-02-28T05:29:12Z</time>
      </trkpt>
      <trkpt lat="45.17001" lon="6.28596">
        <ele>1605</ele>
        <time>2021-02-28T05:29:13Z</time>
      </trkpt>
      <trkpt lat="45.16999" lon="6.28597">
        <ele>1605</ele>
        <time>2021-02-28T05:29:14Z</time>
      </trkpt>
      <trkpt lat="45.16998" lon="6.28597">
        <ele>1605.6</ele>
        <time>2021-02-28T05:29:15Z</time>
      </trkpt>
      <trkpt lat="45.16996" lon="6.28598">
        <ele>1605.8</ele>
        <time>2021-02-28T05:29:16Z</time>
      </trkpt>
      <trkpt lat="45.16995" lon="6.28599">
        <ele>1605.8</ele>
        <time>2021-02-28T05:29:17Z</time>
      </trkpt>
      <trkpt lat="45.16993" lon="6.28599">
        <ele>1606.2</ele>
        <time>2021-02-28T05:29:18Z</time>
      </trkpt>
      <trkpt lat="45.16992" lon="6.286">
        <ele>1606</ele>
        <time>2021-02-28T05:29:19Z</time>
      </trkpt>
      <trkpt lat="45.16991" lon="6.286">
        <ele>1606.2</ele>
        <time>2021-02-28T05:29:20Z</time>
      </trkpt>
      <trkpt lat="45.16989" lon="6.286">
        <ele>1606.6</ele>
        <time>2021-02-28T05:29:21Z</time>
      </trkpt>
      <trkpt lat="45.16988" lon="6.28599">
        <ele>1606.6</ele>
        <time>2021-02-28T05:29:22Z</time>
      </trkpt>
      <trkpt lat="45.16987" lon="6.28599">
        <ele>1607</ele>
        <time>2021-02-28T05:29:23Z</time>
      </trkpt>
      <trkpt lat="45.16986" lon="6.28599">
        <ele>1607</ele>
        <time>2021-02-28T05:29:24Z</time>
      </trkpt>
      <trkpt lat="45.16985" lon="6.28599">
        <ele>1607.2</ele>
        <time>2021-02-28T05:29:25Z</time>
      </trkpt>
      <trkpt lat="45.16984" lon="6.28599">
        <ele>1607.2</ele>
        <time>2021-02-28T05:29:26Z</time>
      </trkpt>
      <trkpt lat="45.16983" lon="6.28599">
        <ele>1607.4</ele>
        <time>2021-02-28T05:29:27Z</time>
      </trkpt>
      <trkpt lat="45.16982" lon="6.28598">
        <ele>1607.8</ele>
        <time>2021-02-28T05:29:28Z</time>
      </trkpt>
      <trkpt lat="45.1698" lon="6.28598">
        <ele>1607.8</ele>
        <time>2021-02-28T05:29:29Z</time>
      </trkpt>
      <trkpt lat="45.16979" lon="6.28598">
        <ele>1608.4</ele>
        <time>2021-02-28T05:29:30Z</time>
      </trkpt>
      <trkpt lat="45.16978" lon="6.28598">
        <ele>1608.6</ele>
        <time>2021-02-28T05:29:31Z</time>
      </trkpt>
      <trkpt lat="45.16977" lon="6.28598">
        <ele>1608.8</ele>
        <time>2021-02-28T05:29:32Z</time>
      </trkpt>
      <trkpt lat="45.16976" lon="6.28598">
        <ele>1609</ele>
        <time>2021-02-28T05:29:33Z</time>
      </trkpt>
      <trkpt lat="45.16975" lon="6.28599">
        <ele>1609</ele>
        <time>2021-02-28T05:29:34Z</time>
      </trkpt>
      <trkpt lat="45.16974" lon="6.28599">
        <ele>1609.4</ele>
        <time>2021-02-28T05:29:35Z</time>
      </trkpt>
      <trkpt lat="45.16972" lon="6.28599">
        <ele>1609.4</ele>
        <time>2021-02-28T05:29:36Z</time>
      </trkpt>
      <trkpt lat="45.16971" lon="6.28599">
        <ele>1609.8</ele>
        <time>2021-02-28T05:29:37Z</time>
      </trkpt>
      <trkpt lat="45.1697" lon="6.28599">
        <ele>1610</ele>
        <time>2021-02-28T05:29:38Z</time>
      </trkpt>
      <trkpt lat="45.16969" lon="6.28599">
        <ele>1610</ele>
        <time>2021-02-28T05:29:39Z</time>
      </trkpt>
      <trkpt lat="45.16968" lon="6.28599">
        <ele>1610.2</ele>
        <time>2021-02-28T05:29:40Z</time>
      </trkpt>
      <trkpt lat="45.16967" lon="6.28599">
        <ele>1610.6</ele>
        <time>2021-02-28T05:29:41Z</time>
      </trkpt>
      <trkpt lat="45.16966" lon="6.28599">
        <ele>1610.6</ele>
        <time>2021-02-28T05:29:42Z</time>
      </trkpt>
      <trkpt lat="45.16965" lon="6.28599">
        <ele>1610.8</ele>
        <time>2021-02-28T05:29:43Z</time>
      </trkpt>
      <trkpt lat="45.16963" lon="6.286">
        <ele>1611.2</ele>
        <time>2021-02-28T05:29:44Z</time>
      </trkpt>
      <trkpt lat="45.16962" lon="6.286">
        <ele>1611.4</ele>
        <time>2021-02-28T05:29:45Z</time>
      </trkpt>
      <trkpt lat="45.16961" lon="6.286">
        <ele>1611.6</ele>
        <time>2021-02-28T05:29:46Z</time>
      </trkpt>
      <trkpt lat="45.1696" lon="6.286">
        <ele>1611.8</ele>
        <time>2021-02-28T05:29:47Z</time>
      </trkpt>
      <trkpt lat="45.16959" lon="6.28601">
        <ele>1612</ele>
        <time>2021-02-28T05:29:48Z</time>
      </trkpt>
      <trkpt lat="45.16958" lon="6.28601">
        <ele>1612.4</ele>
        <time>2021-02-28T05:29:49Z</time>
      </trkpt>
      <trkpt lat="45.16956" lon="6.28601">
        <ele>1612.2</ele>
        <time>2021-02-28T05:29:50Z</time>
      </trkpt>
      <trkpt lat="45.16955" lon="6.28601">
        <ele>1612.8</ele>
        <time>2021-02-28T05:29:51Z</time>
      </trkpt>
      <trkpt lat="45.16954" lon="6.28602">
        <ele>1613</ele>
        <time>2021-02-28T05:29:52Z</time>
      </trkpt>
      <trkpt lat="45.16953" lon="6.28602">
        <ele>1613.2</ele>
        <time>2021-02-28T05:29:53Z</time>
      </trkpt>
      <trkpt lat="45.16951" lon="6.28602">
        <ele>1613.6</ele>
        <time>2021-02-28T05:29:54Z</time>
      </trkpt>
      <trkpt lat="45.1695" lon="6.28602">
        <ele>1613.8</ele>
        <time>2021-02-28T05:29:55Z</time>
      </trkpt>
      <trkpt lat="45.16949" lon="6.28602">
        <ele>1614.2</ele>
        <time>2021-02-28T05:29:56Z</time>
      </trkpt>
      <trkpt lat="45.16948" lon="6.28603">
        <ele>1614.2</ele>
        <time>2021-02-28T05:29:57Z</time>
      </trkpt>
      <trkpt lat="45.16946" lon="6.28602">
        <ele>1614.2</ele>
        <time>2021-02-28T05:29:58Z</time>
      </trkpt>
      <trkpt lat="45.16945" lon="6.28602">
        <ele>1614.6</ele>
        <time>2021-02-28T05:29:59Z</time>
      </trkpt>
      <trkpt lat="45.16944" lon="6.28602">
        <ele>1614.6</ele>
        <time>2021-02-28T05:30:00Z</time>
      </trkpt>
      <trkpt lat="45.16943" lon="6.28602">
        <ele>1615.2</ele>
        <time>2021-02-28T05:30:01Z</time>
      </trkpt>
      <trkpt lat="45.16942" lon="6.28602">
        <ele>1615.4</ele>
        <time>2021-02-28T05:30:02Z</time>
      </trkpt>
      <trkpt lat="45.1694" lon="6.28602">
        <ele>1615.6</ele>
        <time>2021-02-28T05:30:03Z</time>
      </trkpt>
      <trkpt lat="45.16939" lon="6.28602">
        <ele>1616.2</ele>
        <time>2021-02-28T05:30:04Z</time>
      </trkpt>
      <trkpt lat="45.16938" lon="6.28602">
        <ele>1616.4</ele>
        <time>2021-02-28T05:30:05Z</time>
      </trkpt>
      <trkpt lat="45.16937" lon="6.28602">
        <ele>1616.8</ele>
        <time>2021-02-28T05:30:06Z</time>
      </trkpt>
      <trkpt lat="45.16936" lon="6.28601">
        <ele>1617</ele>
        <time>2021-02-28T05:30:07Z</time>
      </trkpt>
      <trkpt lat="45.16935" lon="6.28601">
        <ele>1617.2</ele>
        <time>2021-02-28T05:30:08Z</time>
      </trkpt>
      <trkpt lat="45.16934" lon="6.28601">
        <ele>1617.6</ele>
        <time>2021-02-28T05:30:09Z</time>
      </trkpt>
      <trkpt lat="45.16934" lon="6.28601">
        <ele>1617.8</ele>
        <time>2021-02-28T05:30:10Z</time>
      </trkpt>
      <trkpt lat="45.16933" lon="6.28601">
        <ele>1618</ele>
        <time>2021-02-28T05:30:11Z</time>
      </trkpt>
      <trkpt lat="45.16932" lon="6.28601">
        <ele>1618</ele>
        <time>2021-02-28T05:30:12Z</time>
      </trkpt>
      <trkpt lat="45.16931" lon="6.28601">
        <ele>1618.4</ele>
        <time>2021-02-28T05:30:13Z</time>
      </trkpt>
      <trkpt lat="45.1693" lon="6.286">
        <ele>1619</ele>
        <time>2021-02-28T05:30:14Z</time>
      </trkpt>
      <trkpt lat="45.16929" lon="6.286">
        <ele>1619.2</ele>
        <time>2021-02-28T05:30:15Z</time>
      </trkpt>
      <trkpt lat="45.16928" lon="6.28601">
        <ele>1619.4</ele>
        <time>2021-02-28T05:30:16Z</time>
      </trkpt>
      <trkpt lat="45.16928" lon="6.28602">
        <ele>1619.8</ele>
        <time>2021-02-28T05:30:17Z</time>
      </trkpt>
      <trkpt lat="45.16927" lon="6.28603">
        <ele>1620</ele>
        <time>2021-02-28T05:30:18Z</time>
      </trkpt>
      <trkpt lat="45.16926" lon="6.28604">
        <ele>1620.4</ele>
        <time>2021-02-28T05:30:19Z</time>
      </trkpt>
      <trkpt lat="45.16926" lon="6.28605">
        <ele>1620.6</ele>
        <time>2021-02-28T05:30:20Z</time>
      </trkpt>
      <trkpt lat="45.16925" lon="6.28606">
        <ele>1620.8</ele>
        <time>2021-02-28T05:30:21Z</time>
      </trkpt>
      <trkpt lat="45.16924" lon="6.28607">
        <ele>1621</ele>
        <time>2021-02-28T05:30:22Z</time>
      </trkpt>
      <trkpt lat="45.16924" lon="6.28608">
        <ele>1621.2</ele>
        <time>2021-02-28T05:30:23Z</time>
      </trkpt>
      <trkpt lat="45.16923" lon="6.28609">
        <ele>1621.4</ele>
        <time>2021-02-28T05:30:24Z</time>
      </trkpt>
      <trkpt lat="45.16923" lon="6.2861">
        <ele>1621.6</ele>
        <time>2021-02-28T05:30:25Z</time>
      </trkpt>
      <trkpt lat="45.16922" lon="6.28611">
        <ele>1622</ele>
        <time>2021-02-28T05:30:26Z</time>
      </trkpt>
      <trkpt lat="45.16921" lon="6.28612">
        <ele>1622.2</ele>
        <time>2021-02-28T05:30:27Z</time>
      </trkpt>
      <trkpt lat="45.16919" lon="6.28613">
        <ele>1622.4</ele>
        <time>2021-02-28T05:30:28Z</time>
      </trkpt>
      <trkpt lat="45.16918" lon="6.28614">
        <ele>1622.6</ele>
        <time>2021-02-28T05:30:29Z</time>
      </trkpt>
      <trkpt lat="45.16917" lon="6.28615">
        <ele>1622.8</ele>
        <time>2021-02-28T05:30:30Z</time>
      </trkpt>
      <trkpt lat="45.16916" lon="6.28616">
        <ele>1623.2</ele>
        <time>2021-02-28T05:30:31Z</time>
      </trkpt>
      <trkpt lat="45.16915" lon="6.28617">
        <ele>1623.2</ele>
        <time>2021-02-28T05:30:32Z</time>
      </trkpt>
      <trkpt lat="45.16914" lon="6.28618">
        <ele>1623.6</ele>
        <time>2021-02-28T05:30:33Z</time>
      </trkpt>
      <trkpt lat="45.16913" lon="6.28619">
        <ele>1623.8</ele>
        <time>2021-02-28T05:30:34Z</time>
      </trkpt>
      <trkpt lat="45.16912" lon="6.28619">
        <ele>1624.2</ele>
        <time>2021-02-28T05:30:35Z</time>
      </trkpt>
      <trkpt lat="45.16911" lon="6.2862">
        <ele>1624.4</ele>
        <time>2021-02-28T05:30:36Z</time>
      </trkpt>
      <trkpt lat="45.16911" lon="6.28621">
        <ele>1624.4</ele>
        <time>2021-02-28T05:30:37Z</time>
      </trkpt>
      <trkpt lat="45.1691" lon="6.28622">
        <ele>1624.8</ele>
        <time>2021-02-28T05:30:38Z</time>
      </trkpt>
      <trkpt lat="45.16909" lon="6.28623">
        <ele>1625.2</ele>
        <time>2021-02-28T05:30:39Z</time>
      </trkpt>
      <trkpt lat="45.16908" lon="6.28623">
        <ele>1625.2</ele>
        <time>2021-02-28T05:30:40Z</time>
      </trkpt>
      <trkpt lat="45.16908" lon="6.28624">
        <ele>1625.4</ele>
        <time>2021-02-28T05:30:41Z</time>
      </trkpt>
      <trkpt lat="45.16907" lon="6.28625">
        <ele>1625.2</ele>
        <time>2021-02-28T05:30:42Z</time>
      </trkpt>
      <trkpt lat="45.16906" lon="6.28626">
        <ele>1625.6</ele>
        <time>2021-02-28T05:30:43Z</time>
      </trkpt>
      <trkpt lat="45.16905" lon="6.28626">
        <ele>1625.6</ele>
        <time>2021-02-28T05:30:44Z</time>
      </trkpt>
      <trkpt lat="45.16904" lon="6.28626">
        <ele>1625.6</ele>
        <time>2021-02-28T05:30:45Z</time>
      </trkpt>
      <trkpt lat="45.16902" lon="6.28627">
        <ele>1625.8</ele>
        <time>2021-02-28T05:30:46Z</time>
      </trkpt>
      <trkpt lat="45.16901" lon="6.28627">
        <ele>1625.8</ele>
        <time>2021-02-28T05:30:47Z</time>
      </trkpt>
      <trkpt lat="45.169" lon="6.28627">
        <ele>1626</ele>
        <time>2021-02-28T05:30:48Z</time>
      </trkpt>
      <trkpt lat="45.16898" lon="6.28628">
        <ele>1626.2</ele>
        <time>2021-02-28T05:30:49Z</time>
      </trkpt>
      <trkpt lat="45.16897" lon="6.28628">
        <ele>1626.2</ele>
        <time>2021-02-28T05:30:50Z</time>
      </trkpt>
      <trkpt lat="45.16896" lon="6.28627">
        <ele>1626.8</ele>
        <time>2021-02-28T05:30:51Z</time>
      </trkpt>
      <trkpt lat="45.16894" lon="6.28627">
        <ele>1627</ele>
        <time>2021-02-28T05:30:52Z</time>
      </trkpt>
      <trkpt lat="45.16893" lon="6.28627">
        <ele>1627</ele>
        <time>2021-02-28T05:30:53Z</time>
      </trkpt>
      <trkpt lat="45.16892" lon="6.28626">
        <ele>1627.4</ele>
        <time>2021-02-28T05:30:54Z</time>
      </trkpt>
      <trkpt lat="45.1689" lon="6.28626">
        <ele>1627.4</ele>
        <time>2021-02-28T05:30:55Z</time>
      </trkpt>
      <trkpt lat="45.16889" lon="6.28626">
        <ele>1627.8</ele>
        <time>2021-02-28T05:30:56Z</time>
      </trkpt>
      <trkpt lat="45.16888" lon="6.28625">
        <ele>1627.8</ele>
        <time>2021-02-28T05:30:57Z</time>
      </trkpt>
      <trkpt lat="45.16887" lon="6.28625">
        <ele>1628.2</ele>
        <time>2021-02-28T05:30:58Z</time>
      </trkpt>
      <trkpt lat="45.16886" lon="6.28626">
        <ele>1628.2</ele>
        <time>2021-02-28T05:30:59Z</time>
      </trkpt>
      <trkpt lat="45.16884" lon="6.28626">
        <ele>1628.8</ele>
        <time>2021-02-28T05:31:00Z</time>
      </trkpt>
      <trkpt lat="45.16883" lon="6.28626">
        <ele>1628.8</ele>
        <time>2021-02-28T05:31:01Z</time>
      </trkpt>
      <trkpt lat="45.16882" lon="6.28626">
        <ele>1629</ele>
        <time>2021-02-28T05:31:02Z</time>
      </trkpt>
      <trkpt lat="45.16881" lon="6.28626">
        <ele>1629.2</ele>
        <time>2021-02-28T05:31:03Z</time>
      </trkpt>
      <trkpt lat="45.1688" lon="6.28627">
        <ele>1629.4</ele>
        <time>2021-02-28T05:31:04Z</time>
      </trkpt>
      <trkpt lat="45.16878" lon="6.28627">
        <ele>1630</ele>
        <time>2021-02-28T05:31:05Z</time>
      </trkpt>
      <trkpt lat="45.16878" lon="6.28627">
        <ele>1630</ele>
        <time>2021-02-28T05:31:06Z</time>
      </trkpt>
      <trkpt lat="45.16877" lon="6.28627">
        <ele>1630.2</ele>
        <time>2021-02-28T05:31:07Z</time>
      </trkpt>
      <trkpt lat="45.16876" lon="6.28628">
        <ele>1630.4</ele>
        <time>2021-02-28T05:31:08Z</time>
      </trkpt>
      <trkpt lat="45.16875" lon="6.28628">
        <ele>1630.8</ele>
        <time>2021-02-28T05:31:09Z</time>
      </trkpt>
      <trkpt lat="45.16874" lon="6.28628">
        <ele>1631</ele>
        <time>2021-02-28T05:31:10Z</time>
      </trkpt>
      <trkpt lat="45.16873" lon="6.28628">
        <ele>1631</ele>
        <time>2021-02-28T05:31:11Z</time>
      </trkpt>
      <trkpt lat="45.16872" lon="6.28629">
        <ele>1631.4</ele>
        <time>2021-02-28T05:31:12Z</time>
      </trkpt>
      <trkpt lat="45.16871" lon="6.28629">
        <ele>1631.6</ele>
        <time>2021-02-28T05:31:13Z</time>
      </trkpt>
      <trkpt lat="45.16871" lon="6.28629">
        <ele>1631.8</ele>
        <time>2021-02-28T05:31:14Z</time>
      </trkpt>
      <trkpt lat="45.1687" lon="6.28629">
        <ele>1632</ele>
        <time>2021-02-28T05:31:15Z</time>
      </trkpt>
      <trkpt lat="45.16869" lon="6.2863">
        <ele>1632</ele>
        <time>2021-02-28T05:31:16Z</time>
      </trkpt>
      <trkpt lat="45.16868" lon="6.2863">
        <ele>1632.4</ele>
        <time>2021-02-28T05:31:17Z</time>
      </trkpt>
      <trkpt lat="45.16867" lon="6.2863">
        <ele>1632.8</ele>
        <time>2021-02-28T05:31:18Z</time>
      </trkpt>
      <trkpt lat="45.16866" lon="6.28631">
        <ele>1633.2</ele>
        <time>2021-02-28T05:31:19Z</time>
      </trkpt>
      <trkpt lat="45.16865" lon="6.28631">
        <ele>1633.2</ele>
        <time>2021-02-28T05:31:20Z</time>
      </trkpt>
      <trkpt lat="45.16863" lon="6.28631">
        <ele>1633.4</ele>
        <time>2021-02-28T05:31:21Z</time>
      </trkpt>
      <trkpt lat="45.16862" lon="6.28632">
        <ele>1633.8</ele>
        <time>2021-02-28T05:31:22Z</time>
      </trkpt>
      <trkpt lat="45.16861" lon="6.28632">
        <ele>1634</ele>
        <time>2021-02-28T05:31:23Z</time>
      </trkpt>
      <trkpt lat="45.1686" lon="6.28632">
        <ele>1634</ele>
        <time>2021-02-28T05:31:24Z</time>
      </trkpt>
      <trkpt lat="45.16859" lon="6.28633">
        <ele>1634.4</ele>
        <time>2021-02-28T05:31:25Z</time>
      </trkpt>
      <trkpt lat="45.16858" lon="6.28633">
        <ele>1634.6</ele>
        <time>2021-02-28T05:31:26Z</time>
      </trkpt>
      <trkpt lat="45.16857" lon="6.28634">
        <ele>1634.8</ele>
        <time>2021-02-28T05:31:27Z</time>
      </trkpt>
      <trkpt lat="45.16856" lon="6.28634">
        <ele>1634.8</ele>
        <time>2021-02-28T05:31:28Z</time>
      </trkpt>
      <trkpt lat="45.16854" lon="6.28635">
        <ele>1635</ele>
        <time>2021-02-28T05:31:29Z</time>
      </trkpt>
      <trkpt lat="45.16853" lon="6.28636">
        <ele>1635.2</ele>
        <time>2021-02-28T05:31:30Z</time>
      </trkpt>
      <trkpt lat="45.16852" lon="6.28636">
        <ele>1635.8</ele>
        <time>2021-02-28T05:31:31Z</time>
      </trkpt>
      <trkpt lat="45.16851" lon="6.28637">
        <ele>1636</ele>
        <time>2021-02-28T05:31:32Z</time>
      </trkpt>
      <trkpt lat="45.1685" lon="6.28637">
        <ele>1636</ele>
        <time>2021-02-28T05:31:33Z</time>
      </trkpt>
      <trkpt lat="45.16849" lon="6.28638">
        <ele>1636.2</ele>
        <time>2021-02-28T05:31:34Z</time>
      </trkpt>
      <trkpt lat="45.16848" lon="6.28638">
        <ele>1636.6</ele>
        <time>2021-02-28T05:31:35Z</time>
      </trkpt>
      <trkpt lat="45.16847" lon="6.28638">
        <ele>1636.6</ele>
        <time>2021-02-28T05:31:36Z</time>
      </trkpt>
      <trkpt lat="45.16846" lon="6.28639">
        <ele>1637</ele>
        <time>2021-02-28T05:31:37Z</time>
      </trkpt>
      <trkpt lat="45.16845" lon="6.28639">
        <ele>1637.4</ele>
        <time>2021-02-28T05:31:38Z</time>
      </trkpt>
      <trkpt lat="45.16844" lon="6.28639">
        <ele>1637.4</ele>
        <time>2021-02-28T05:31:39Z</time>
      </trkpt>
      <trkpt lat="45.16843" lon="6.2864">
        <ele>1637.6</ele>
        <time>2021-02-28T05:31:40Z</time>
      </trkpt>
      <trkpt lat="45.16843" lon="6.2864">
        <ele>1637.8</ele>
        <time>2021-02-28T05:31:41Z</time>
      </trkpt>
      <trkpt lat="45.16842" lon="6.2864">
        <ele>1638</ele>
        <time>2021-02-28T05:31:42Z</time>
      </trkpt>
      <trkpt lat="45.16841" lon="6.28641">
        <ele>1638</ele>
        <time>2021-02-28T05:31:43Z</time>
      </trkpt>
      <trkpt lat="45.16839" lon="6.28641">
        <ele>1638.4</ele>
        <time>2021-02-28T05:31:44Z</time>
      </trkpt>
      <trkpt lat="45.16838" lon="6.28642">
        <ele>1638.6</ele>
        <time>2021-02-28T05:31:45Z</time>
      </trkpt>
      <trkpt lat="45.16836" lon="6.28642">
        <ele>1638.4</ele>
        <time>2021-02-28T05:31:46Z</time>
      </trkpt>
      <trkpt lat="45.16835" lon="6.28643">
        <ele>1638.6</ele>
        <time>2021-02-28T05:31:47Z</time>
      </trkpt>
      <trkpt lat="45.16833" lon="6.28644">
        <ele>1638.8</ele>
        <time>2021-02-28T05:31:48Z</time>
      </trkpt>
      <trkpt lat="45.16832" lon="6.28644">
        <ele>1639.4</ele>
        <time>2021-02-28T05:31:49Z</time>
      </trkpt>
      <trkpt lat="45.1683" lon="6.28645">
        <ele>1639.6</ele>
        <time>2021-02-28T05:31:50Z</time>
      </trkpt>
      <trkpt lat="45.16829" lon="6.28645">
        <ele>1639.6</ele>
        <time>2021-02-28T05:31:51Z</time>
      </trkpt>
      <trkpt lat="45.16828" lon="6.28645">
        <ele>1639.8</ele>
        <time>2021-02-28T05:31:52Z</time>
      </trkpt>
      <trkpt lat="45.16826" lon="6.28645">
        <ele>1640</ele>
        <time>2021-02-28T05:31:53Z</time>
      </trkpt>
      <trkpt lat="45.16825" lon="6.28645">
        <ele>1640.4</ele>
        <time>2021-02-28T05:31:54Z</time>
      </trkpt>
      <trkpt lat="45.16824" lon="6.28646">
        <ele>1640.4</ele>
        <time>2021-02-28T05:31:55Z</time>
      </trkpt>
      <trkpt lat="45.16822" lon="6.28646">
        <ele>1640.6</ele>
        <time>2021-02-28T05:31:56Z</time>
      </trkpt>
      <trkpt lat="45.16821" lon="6.28646">
        <ele>1640.8</ele>
        <time>2021-02-28T05:31:57Z</time>
      </trkpt>
      <trkpt lat="45.1682" lon="6.28646">
        <ele>1640.8</ele>
        <time>2021-02-28T05:31:58Z</time>
      </trkpt>
      <trkpt lat="45.16819" lon="6.28646">
        <ele>1640.8</ele>
        <time>2021-02-28T05:31:59Z</time>
      </trkpt>
      <trkpt lat="45.16818" lon="6.28647">
        <ele>1641</ele>
        <time>2021-02-28T05:32:00Z</time>
      </trkpt>
      <trkpt lat="45.16817" lon="6.28647">
        <ele>1641.2</ele>
        <time>2021-02-28T05:32:01Z</time>
      </trkpt>
      <trkpt lat="45.16816" lon="6.28647">
        <ele>1641.2</ele>
        <time>2021-02-28T05:32:02Z</time>
      </trkpt>
      <trkpt lat="45.16815" lon="6.28647">
        <ele>1641.6</ele>
        <time>2021-02-28T05:32:03Z</time>
      </trkpt>
      <trkpt lat="45.16814" lon="6.28647">
        <ele>1641.8</ele>
        <time>2021-02-28T05:32:04Z</time>
      </trkpt>
      <trkpt lat="45.16813" lon="6.28648">
        <ele>1641.8</ele>
        <time>2021-02-28T05:32:05Z</time>
      </trkpt>
      <trkpt lat="45.16812" lon="6.28648">
        <ele>1642</ele>
        <time>2021-02-28T05:32:06Z</time>
      </trkpt>
      <trkpt lat="45.16811" lon="6.28648">
        <ele>1642.2</ele>
        <time>2021-02-28T05:32:07Z</time>
      </trkpt>
      <trkpt lat="45.1681" lon="6.28648">
        <ele>1642.2</ele>
        <time>2021-02-28T05:32:08Z</time>
      </trkpt>
      <trkpt lat="45.16808" lon="6.28648">
        <ele>1642.6</ele>
        <time>2021-02-28T05:32:09Z</time>
      </trkpt>
      <trkpt lat="45.16807" lon="6.28648">
        <ele>1642.8</ele>
        <time>2021-02-28T05:32:10Z</time>
      </trkpt>
      <trkpt lat="45.16806" lon="6.28649">
        <ele>1642.8</ele>
        <time>2021-02-28T05:32:11Z</time>
      </trkpt>
      <trkpt lat="45.16805" lon="6.28649">
        <ele>1643.2</ele>
        <time>2021-02-28T05:32:12Z</time>
      </trkpt>
      <trkpt lat="45.16804" lon="6.28649">
        <ele>1643.2</ele>
        <time>2021-02-28T05:32:13Z</time>
      </trkpt>
      <trkpt lat="45.16802" lon="6.28649">
        <ele>1643.6</ele>
        <time>2021-02-28T05:32:14Z</time>
      </trkpt>
      <trkpt lat="45.16801" lon="6.28649">
        <ele>1643.8</ele>
        <time>2021-02-28T05:32:15Z</time>
      </trkpt>
      <trkpt lat="45.168" lon="6.28649">
        <ele>1643.8</ele>
        <time>2021-02-28T05:32:16Z</time>
      </trkpt>
      <trkpt lat="45.16799" lon="6.28649">
        <ele>1644</ele>
        <time>2021-02-28T05:32:17Z</time>
      </trkpt>
      <trkpt lat="45.16798" lon="6.28649">
        <ele>1644.2</ele>
        <time>2021-02-28T05:32:18Z</time>
      </trkpt>
      <trkpt lat="45.16797" lon="6.28649">
        <ele>1644.2</ele>
        <time>2021-02-28T05:32:19Z</time>
      </trkpt>
      <trkpt lat="45.16796" lon="6.28649">
        <ele>1644.2</ele>
        <time>2021-02-28T05:32:20Z</time>
      </trkpt>
      <trkpt lat="45.16795" lon="6.28649">
        <ele>1644.2</ele>
        <time>2021-02-28T05:32:21Z</time>
      </trkpt>
      <trkpt lat="45.16794" lon="6.28649">
        <ele>1644.4</ele>
        <time>2021-02-28T05:32:22Z</time>
      </trkpt>
      <trkpt lat="45.16793" lon="6.28649">
        <ele>1644.6</ele>
        <time>2021-02-28T05:32:23Z</time>
      </trkpt>
      <trkpt lat="45.16791" lon="6.28649">
        <ele>1644.8</ele>
        <time>2021-02-28T05:32:24Z</time>
      </trkpt>
      <trkpt lat="45.1679" lon="6.28649">
        <ele>1645.2</ele>
        <time>2021-02-28T05:32:25Z</time>
      </trkpt>
      <trkpt lat="45.16789" lon="6.28649">
        <ele>1645</ele>
        <time>2021-02-28T05:32:26Z</time>
      </trkpt>
      <trkpt lat="45.16788" lon="6.28649">
        <ele>1645.4</ele>
        <time>2021-02-28T05:32:27Z</time>
      </trkpt>
      <trkpt lat="45.16787" lon="6.28649">
        <ele>1645.6</ele>
        <time>2021-02-28T05:32:28Z</time>
      </trkpt>
      <trkpt lat="45.16785" lon="6.28648">
        <ele>1645.8</ele>
        <time>2021-02-28T05:32:29Z</time>
      </trkpt>
      <trkpt lat="45.16784" lon="6.28648">
        <ele>1646</ele>
        <time>2021-02-28T05:32:30Z</time>
      </trkpt>
      <trkpt lat="45.16783" lon="6.28648">
        <ele>1646</ele>
        <time>2021-02-28T05:32:31Z</time>
      </trkpt>
      <trkpt lat="45.16782" lon="6.28648">
        <ele>1646.2</ele>
        <time>2021-02-28T05:32:32Z</time>
      </trkpt>
      <trkpt lat="45.16781" lon="6.28648">
        <ele>1646.4</ele>
        <time>2021-02-28T05:32:33Z</time>
      </trkpt>
      <trkpt lat="45.16779" lon="6.28648">
        <ele>1646.6</ele>
        <time>2021-02-28T05:32:34Z</time>
      </trkpt>
      <trkpt lat="45.16778" lon="6.28648">
        <ele>1647</ele>
        <time>2021-02-28T05:32:35Z</time>
      </trkpt>
      <trkpt lat="45.16777" lon="6.28648">
        <ele>1646.8</ele>
        <time>2021-02-28T05:32:36Z</time>
      </trkpt>
      <trkpt lat="45.16775" lon="6.28648">
        <ele>1647.2</ele>
        <time>2021-02-28T05:32:37Z</time>
      </trkpt>
      <trkpt lat="45.16774" lon="6.28648">
        <ele>1647.2</ele>
        <time>2021-02-28T05:32:38Z</time>
      </trkpt>
      <trkpt lat="45.16773" lon="6.28648">
        <ele>1647.4</ele>
        <time>2021-02-28T05:32:39Z</time>
      </trkpt>
      <trkpt lat="45.16771" lon="6.28648">
        <ele>1647.6</ele>
        <time>2021-02-28T05:32:40Z</time>
      </trkpt>
      <trkpt lat="45.1677" lon="6.28648">
        <ele>1647.8</ele>
        <time>2021-02-28T05:32:41Z</time>
      </trkpt>
      <trkpt lat="45.16769" lon="6.28649">
        <ele>1648</ele>
        <time>2021-02-28T05:32:42Z</time>
      </trkpt>
      <trkpt lat="45.16765" lon="6.28649">
        <ele>1648.4</ele>
        <time>2021-02-28T05:32:43Z</time>
      </trkpt>
      <trkpt lat="45.16765" lon="6.28649">
        <ele>1648.6</ele>
        <time>2021-02-28T05:32:44Z</time>
      </trkpt>
      <trkpt lat="45.16765" lon="6.28649">
        <ele>1648.8</ele>
        <time>2021-02-28T05:32:45Z</time>
      </trkpt>
      <trkpt lat="45.16763" lon="6.28649">
        <ele>1649</ele>
        <time>2021-02-28T05:32:46Z</time>
      </trkpt>
      <trkpt lat="45.16763" lon="6.28649">
        <ele>1649.2</ele>
        <time>2021-02-28T05:32:47Z</time>
      </trkpt>
      <trkpt lat="45.16763" lon="6.28649">
        <ele>1649.2</ele>
        <time>2021-02-28T05:32:48Z</time>
      </trkpt>
      <trkpt lat="45.16761" lon="6.28649">
        <ele>1649.4</ele>
        <time>2021-02-28T05:32:49Z</time>
      </trkpt>
      <trkpt lat="45.1676" lon="6.28649">
        <ele>1649.2</ele>
        <time>2021-02-28T05:32:50Z</time>
      </trkpt>
      <trkpt lat="45.16759" lon="6.2865">
        <ele>1649.2</ele>
        <time>2021-02-28T05:32:51Z</time>
      </trkpt>
      <trkpt lat="45.16757" lon="6.2865">
        <ele>1649.4</ele>
        <time>2021-02-28T05:32:52Z</time>
      </trkpt>
      <trkpt lat="45.16756" lon="6.2865">
        <ele>1649.6</ele>
        <time>2021-02-28T05:32:53Z</time>
      </trkpt>
      <trkpt lat="45.16755" lon="6.28651">
        <ele>1649.8</ele>
        <time>2021-02-28T05:32:54Z</time>
      </trkpt>
      <trkpt lat="45.16753" lon="6.28651">
        <ele>1649.8</ele>
        <time>2021-02-28T05:32:55Z</time>
      </trkpt>
      <trkpt lat="45.16751" lon="6.28652">
        <ele>1650.2</ele>
        <time>2021-02-28T05:32:56Z</time>
      </trkpt>
      <trkpt lat="45.1675" lon="6.28652">
        <ele>1650.2</ele>
        <time>2021-02-28T05:32:57Z</time>
      </trkpt>
      <trkpt lat="45.16748" lon="6.28652">
        <ele>1650.4</ele>
        <time>2021-02-28T05:32:58Z</time>
      </trkpt>
      <trkpt lat="45.16746" lon="6.28653">
        <ele>1650.8</ele>
        <time>2021-02-28T05:32:59Z</time>
      </trkpt>
      <trkpt lat="45.16744" lon="6.28653">
        <ele>1650.8</ele>
        <time>2021-02-28T05:33:00Z</time>
      </trkpt>
      <trkpt lat="45.16743" lon="6.28653">
        <ele>1650.8</ele>
        <time>2021-02-28T05:33:01Z</time>
      </trkpt>
      <trkpt lat="45.16741" lon="6.28653">
        <ele>1650.8</ele>
        <time>2021-02-28T05:33:02Z</time>
      </trkpt>
      <trkpt lat="45.1674" lon="6.28654">
        <ele>1651.2</ele>
        <time>2021-02-28T05:33:03Z</time>
      </trkpt>
      <trkpt lat="45.16739" lon="6.28654">
        <ele>1651.2</ele>
        <time>2021-02-28T05:33:04Z</time>
      </trkpt>
      <trkpt lat="45.16737" lon="6.28654">
        <ele>1651.2</ele>
        <time>2021-02-28T05:33:05Z</time>
      </trkpt>
      <trkpt lat="45.16736" lon="6.28654">
        <ele>1651.4</ele>
        <time>2021-02-28T05:33:06Z</time>
      </trkpt>
      <trkpt lat="45.16735" lon="6.28654">
        <ele>1651.6</ele>
        <time>2021-02-28T05:33:07Z</time>
      </trkpt>
      <trkpt lat="45.16733" lon="6.28655">
        <ele>1651.8</ele>
        <time>2021-02-28T05:33:08Z</time>
      </trkpt>
      <trkpt lat="45.16732" lon="6.28655">
        <ele>1651.8</ele>
        <time>2021-02-28T05:33:09Z</time>
      </trkpt>
      <trkpt lat="45.1673" lon="6.28655">
        <ele>1652</ele>
        <time>2021-02-28T05:33:10Z</time>
      </trkpt>
      <trkpt lat="45.16729" lon="6.28656">
        <ele>1652.2</ele>
        <time>2021-02-28T05:33:11Z</time>
      </trkpt>
      <trkpt lat="45.16727" lon="6.28656">
        <ele>1652.2</ele>
        <time>2021-02-28T05:33:12Z</time>
      </trkpt>
      <trkpt lat="45.16726" lon="6.28656">
        <ele>1652.4</ele>
        <time>2021-02-28T05:33:13Z</time>
      </trkpt>
      <trkpt lat="45.16725" lon="6.28656">
        <ele>1652.4</ele>
        <time>2021-02-28T05:33:14Z</time>
      </trkpt>
      <trkpt lat="45.16723" lon="6.28656">
        <ele>1652.4</ele>
        <time>2021-02-28T05:33:15Z</time>
      </trkpt>
      <trkpt lat="45.16722" lon="6.28656">
        <ele>1652.6</ele>
        <time>2021-02-28T05:33:16Z</time>
      </trkpt>
      <trkpt lat="45.1672" lon="6.28656">
        <ele>1652.8</ele>
        <time>2021-02-28T05:33:17Z</time>
      </trkpt>
      <trkpt lat="45.16719" lon="6.28656">
        <ele>1653</ele>
        <time>2021-02-28T05:33:18Z</time>
      </trkpt>
      <trkpt lat="45.16717" lon="6.28656">
        <ele>1653</ele>
        <time>2021-02-28T05:33:19Z</time>
      </trkpt>
      <trkpt lat="45.16716" lon="6.28656">
        <ele>1653.2</ele>
        <time>2021-02-28T05:33:20Z</time>
      </trkpt>
      <trkpt lat="45.16715" lon="6.28656">
        <ele>1653.6</ele>
        <time>2021-02-28T05:33:21Z</time>
      </trkpt>
      <trkpt lat="45.16714" lon="6.28656">
        <ele>1653.6</ele>
        <time>2021-02-28T05:33:22Z</time>
      </trkpt>
      <trkpt lat="45.16713" lon="6.28655">
        <ele>1653.8</ele>
        <time>2021-02-28T05:33:23Z</time>
      </trkpt>
      <trkpt lat="45.16712" lon="6.28655">
        <ele>1654</ele>
        <time>2021-02-28T05:33:24Z</time>
      </trkpt>
      <trkpt lat="45.16711" lon="6.28655">
        <ele>1654</ele>
        <time>2021-02-28T05:33:25Z</time>
      </trkpt>
      <trkpt lat="45.1671" lon="6.28655">
        <ele>1654.2</ele>
        <time>2021-02-28T05:33:26Z</time>
      </trkpt>
      <trkpt lat="45.16709" lon="6.28655">
        <ele>1654.2</ele>
        <time>2021-02-28T05:33:27Z</time>
      </trkpt>
      <trkpt lat="45.16708" lon="6.28655">
        <ele>1654</ele>
        <time>2021-02-28T05:33:28Z</time>
      </trkpt>
      <trkpt lat="45.16707" lon="6.28655">
        <ele>1654.2</ele>
        <time>2021-02-28T05:33:29Z</time>
      </trkpt>
      <trkpt lat="45.16706" lon="6.28655">
        <ele>1654.4</ele>
        <time>2021-02-28T05:33:30Z</time>
      </trkpt>
      <trkpt lat="45.16705" lon="6.28655">
        <ele>1654.6</ele>
        <time>2021-02-28T05:33:31Z</time>
      </trkpt>
      <trkpt lat="45.16704" lon="6.28654">
        <ele>1654.6</ele>
        <time>2021-02-28T05:33:32Z</time>
      </trkpt>
      <trkpt lat="45.16703" lon="6.28654">
        <ele>1654.6</ele>
        <time>2021-02-28T05:33:33Z</time>
      </trkpt>
      <trkpt lat="45.16702" lon="6.28654">
        <ele>1654.8</ele>
        <time>2021-02-28T05:33:34Z</time>
      </trkpt>
      <trkpt lat="45.167" lon="6.28654">
        <ele>1655</ele>
        <time>2021-02-28T05:33:35Z</time>
      </trkpt>
      <trkpt lat="45.16699" lon="6.28654">
        <ele>1655.2</ele>
        <time>2021-02-28T05:33:36Z</time>
      </trkpt>
      <trkpt lat="45.16698" lon="6.28654">
        <ele>1655.4</ele>
        <time>2021-02-28T05:33:37Z</time>
      </trkpt>
      <trkpt lat="45.16697" lon="6.28654">
        <ele>1655.2</ele>
        <time>2021-02-28T05:33:38Z</time>
      </trkpt>
      <trkpt lat="45.16696" lon="6.28653">
        <ele>1655.6</ele>
        <time>2021-02-28T05:33:39Z</time>
      </trkpt>
      <trkpt lat="45.16695" lon="6.28653">
        <ele>1655.6</ele>
        <time>2021-02-28T05:33:40Z</time>
      </trkpt>
      <trkpt lat="45.16693" lon="6.28653">
        <ele>1655.6</ele>
        <time>2021-02-28T05:33:41Z</time>
      </trkpt>
      <trkpt lat="45.16692" lon="6.28653">
        <ele>1655.8</ele>
        <time>2021-02-28T05:33:42Z</time>
      </trkpt>
      <trkpt lat="45.16691" lon="6.28653">
        <ele>1655.6</ele>
        <time>2021-02-28T05:33:43Z</time>
      </trkpt>
      <trkpt lat="45.1669" lon="6.28653">
        <ele>1655.8</ele>
        <time>2021-02-28T05:33:44Z</time>
      </trkpt>
      <trkpt lat="45.16689" lon="6.28653">
        <ele>1655.8</ele>
        <time>2021-02-28T05:33:45Z</time>
      </trkpt>
      <trkpt lat="45.16688" lon="6.28653">
        <ele>1655.8</ele>
        <time>2021-02-28T05:33:46Z</time>
      </trkpt>
      <trkpt lat="45.16687" lon="6.28653">
        <ele>1655.8</ele>
        <time>2021-02-28T05:33:47Z</time>
      </trkpt>
      <trkpt lat="45.16685" lon="6.28653">
        <ele>1656</ele>
        <time>2021-02-28T05:33:48Z</time>
      </trkpt>
      <trkpt lat="45.16682" lon="6.28653">
        <ele>1656.2</ele>
        <time>2021-02-28T05:33:49Z</time>
      </trkpt>
      <trkpt lat="45.1668" lon="6.28653">
        <ele>1656.2</ele>
        <time>2021-02-28T05:33:50Z</time>
      </trkpt>
      <trkpt lat="45.16678" lon="6.28653">
        <ele>1656.2</ele>
        <time>2021-02-28T05:33:51Z</time>
      </trkpt>
      <trkpt lat="45.16676" lon="6.28653">
        <ele>1656.2</ele>
        <time>2021-02-28T05:33:52Z</time>
      </trkpt>
      <trkpt lat="45.16674" lon="6.28653">
        <ele>1656.6</ele>
        <time>2021-02-28T05:33:53Z</time>
      </trkpt>
      <trkpt lat="45.16674" lon="6.28653">
        <ele>1656.6</ele>
        <time>2021-02-28T05:33:54Z</time>
      </trkpt>
      <trkpt lat="45.16674" lon="6.28653">
        <ele>1656.8</ele>
        <time>2021-02-28T05:33:55Z</time>
      </trkpt>
      <trkpt lat="45.16673" lon="6.28653">
        <ele>1657</ele>
        <time>2021-02-28T05:33:56Z</time>
      </trkpt>
      <trkpt lat="45.16671" lon="6.28653">
        <ele>1657</ele>
        <time>2021-02-28T05:33:57Z</time>
      </trkpt>
      <trkpt lat="45.1667" lon="6.28653">
        <ele>1656.8</ele>
        <time>2021-02-28T05:33:58Z</time>
      </trkpt>
      <trkpt lat="45.16668" lon="6.28654">
        <ele>1657</ele>
        <time>2021-02-28T05:33:59Z</time>
      </trkpt>
      <trkpt lat="45.16667" lon="6.28654">
        <ele>1657</ele>
        <time>2021-02-28T05:34:00Z</time>
      </trkpt>
      <trkpt lat="45.16665" lon="6.28654">
        <ele>1657</ele>
        <time>2021-02-28T05:34:01Z</time>
      </trkpt>
      <trkpt lat="45.16664" lon="6.28654">
        <ele>1657.2</ele>
        <time>2021-02-28T05:34:02Z</time>
      </trkpt>
      <trkpt lat="45.16663" lon="6.28655">
        <ele>1657.4</ele>
        <time>2021-02-28T05:34:03Z</time>
      </trkpt>
      <trkpt lat="45.16661" lon="6.28655">
        <ele>1657.4</ele>
        <time>2021-02-28T05:34:04Z</time>
      </trkpt>
      <trkpt lat="45.1666" lon="6.28655">
        <ele>1658</ele>
        <time>2021-02-28T05:34:05Z</time>
      </trkpt>
      <trkpt lat="45.16659" lon="6.28656">
        <ele>1658.2</ele>
        <time>2021-02-28T05:34:06Z</time>
      </trkpt>
      <trkpt lat="45.16657" lon="6.28656">
        <ele>1658.4</ele>
        <time>2021-02-28T05:34:07Z</time>
      </trkpt>
      <trkpt lat="45.16657" lon="6.28656">
        <ele>1658.4</ele>
        <time>2021-02-28T05:34:08Z</time>
      </trkpt>
      <trkpt lat="45.16656" lon="6.28656">
        <ele>1658.8</ele>
        <time>2021-02-28T05:34:09Z</time>
      </trkpt>
      <trkpt lat="45.16655" lon="6.28656">
        <ele>1659</ele>
        <time>2021-02-28T05:34:10Z</time>
      </trkpt>
      <trkpt lat="45.16655" lon="6.28656">
        <ele>1659.2</ele>
        <time>2021-02-28T05:34:11Z</time>
      </trkpt>
      <trkpt lat="45.16654" lon="6.28656">
        <ele>1659.6</ele>
        <time>2021-02-28T05:34:12Z</time>
      </trkpt>
      <trkpt lat="45.16654" lon="6.28656">
        <ele>1659.6</ele>
        <time>2021-02-28T05:34:13Z</time>
      </trkpt>
      <trkpt lat="45.16653" lon="6.28656">
        <ele>1659.8</ele>
        <time>2021-02-28T05:34:14Z</time>
      </trkpt>
      <trkpt lat="45.16652" lon="6.28657">
        <ele>1660.2</ele>
        <time>2021-02-28T05:34:15Z</time>
      </trkpt>
      <trkpt lat="45.1665" lon="6.28656">
        <ele>1660.2</ele>
        <time>2021-02-28T05:34:16Z</time>
      </trkpt>
      <trkpt lat="45.1665" lon="6.28656">
        <ele>1660.4</ele>
        <time>2021-02-28T05:34:17Z</time>
      </trkpt>
      <trkpt lat="45.1665" lon="6.28656">
        <ele>1660.4</ele>
        <time>2021-02-28T05:34:18Z</time>
      </trkpt>
      <trkpt lat="45.16649" lon="6.28656">
        <ele>1660.4</ele>
        <time>2021-02-28T05:34:19Z</time>
      </trkpt>
      <trkpt lat="45.16649" lon="6.28656">
        <ele>1660.6</ele>
        <time>2021-02-28T05:34:20Z</time>
      </trkpt>
      <trkpt lat="45.16648" lon="6.28656">
        <ele>1660.8</ele>
        <time>2021-02-28T05:34:21Z</time>
      </trkpt>
      <trkpt lat="45.16647" lon="6.28655">
        <ele>1661</ele>
        <time>2021-02-28T05:34:22Z</time>
      </trkpt>
      <trkpt lat="45.16647" lon="6.28655">
        <ele>1660.8</ele>
        <time>2021-02-28T05:34:23Z</time>
      </trkpt>
      <trkpt lat="45.16646" lon="6.28655">
        <ele>1661.2</ele>
        <time>2021-02-28T05:34:24Z</time>
      </trkpt>
      <trkpt lat="45.16646" lon="6.28655">
        <ele>1661.4</ele>
        <time>2021-02-28T05:34:25Z</time>
      </trkpt>
      <trkpt lat="45.16644" lon="6.28655">
        <ele>1661.4</ele>
        <time>2021-02-28T05:34:26Z</time>
      </trkpt>
      <trkpt lat="45.16644" lon="6.28655">
        <ele>1661.4</ele>
        <time>2021-02-28T05:34:27Z</time>
      </trkpt>
      <trkpt lat="45.16644" lon="6.28655">
        <ele>1661.6</ele>
        <time>2021-02-28T05:34:28Z</time>
      </trkpt>
      <trkpt lat="45.16642" lon="6.28655">
        <ele>1661.8</ele>
        <time>2021-02-28T05:34:29Z</time>
      </trkpt>
      <trkpt lat="45.16642" lon="6.28655">
        <ele>1662</ele>
        <time>2021-02-28T05:34:30Z</time>
      </trkpt>
      <trkpt lat="45.16642" lon="6.28655">
        <ele>1662</ele>
        <time>2021-02-28T05:34:31Z</time>
      </trkpt>
      <trkpt lat="45.1664" lon="6.28655">
        <ele>1662</ele>
        <time>2021-02-28T05:34:32Z</time>
      </trkpt>
      <trkpt lat="45.1664" lon="6.28655">
        <ele>1662</ele>
        <time>2021-02-28T05:34:33Z</time>
      </trkpt>
      <trkpt lat="45.1664" lon="6.28655">
        <ele>1662.2</ele>
        <time>2021-02-28T05:34:34Z</time>
      </trkpt>
      <trkpt lat="45.16637" lon="6.28656">
        <ele>1662.4</ele>
        <time>2021-02-28T05:34:35Z</time>
      </trkpt>
      <trkpt lat="45.16637" lon="6.28656">
        <ele>1662.4</ele>
        <time>2021-02-28T05:34:36Z</time>
      </trkpt>
      <trkpt lat="45.16637" lon="6.28656">
        <ele>1662.6</ele>
        <time>2021-02-28T05:34:37Z</time>
      </trkpt>
      <trkpt lat="45.16635" lon="6.28656">
        <ele>1663</ele>
        <time>2021-02-28T05:34:38Z</time>
      </trkpt>
      <trkpt lat="45.16635" lon="6.28656">
        <ele>1663</ele>
        <time>2021-02-28T05:34:39Z</time>
      </trkpt>
      <trkpt lat="45.16635" lon="6.28656">
        <ele>1663</ele>
        <time>2021-02-28T05:34:40Z</time>
      </trkpt>
      <trkpt lat="45.16632" lon="6.28656">
        <ele>1663</ele>
        <time>2021-02-28T05:34:41Z</time>
      </trkpt>
      <trkpt lat="45.16632" lon="6.28656">
        <ele>1663</ele>
        <time>2021-02-28T05:34:42Z</time>
      </trkpt>
      <trkpt lat="45.1663" lon="6.28657">
        <ele>1663.2</ele>
        <time>2021-02-28T05:34:43Z</time>
      </trkpt>
      <trkpt lat="45.1663" lon="6.28657">
        <ele>1663.2</ele>
        <time>2021-02-28T05:34:44Z</time>
      </trkpt>
      <trkpt lat="45.16628" lon="6.28657">
        <ele>1663.6</ele>
        <time>2021-02-28T05:34:45Z</time>
      </trkpt>
      <trkpt lat="45.16628" lon="6.28657">
        <ele>1663.2</ele>
        <time>2021-02-28T05:34:46Z</time>
      </trkpt>
      <trkpt lat="45.16628" lon="6.28657">
        <ele>1663.2</ele>
        <time>2021-02-28T05:34:47Z</time>
      </trkpt>
      <trkpt lat="45.16627" lon="6.28657">
        <ele>1663.2</ele>
        <time>2021-02-28T05:34:48Z</time>
      </trkpt>
      <trkpt lat="45.16626" lon="6.28657">
        <ele>1663.2</ele>
        <time>2021-02-28T05:34:49Z</time>
      </trkpt>
      <trkpt lat="45.16625" lon="6.28657">
        <ele>1663.4</ele>
        <time>2021-02-28T05:34:50Z</time>
      </trkpt>
      <trkpt lat="45.16624" lon="6.28657">
        <ele>1663.6</ele>
        <time>2021-02-28T05:34:51Z</time>
      </trkpt>
      <trkpt lat="45.16622" lon="6.28657">
        <ele>1663.8</ele>
        <time>2021-02-28T05:34:52Z</time>
      </trkpt>
      <trkpt lat="45.16621" lon="6.28657">
        <ele>1664</ele>
        <time>2021-02-28T05:34:53Z</time>
      </trkpt>
      <trkpt lat="45.1662" lon="6.28656">
        <ele>1664.4</ele>
        <time>2021-02-28T05:34:54Z</time>
      </trkpt>
      <trkpt lat="45.16619" lon="6.28656">
        <ele>1664.2</ele>
        <time>2021-02-28T05:34:55Z</time>
      </trkpt>
      <trkpt lat="45.16618" lon="6.28657">
        <ele>1664.2</ele>
        <time>2021-02-28T05:34:56Z</time>
      </trkpt>
      <trkpt lat="45.16617" lon="6.28658">
        <ele>1664.2</ele>
        <time>2021-02-28T05:34:57Z</time>
      </trkpt>
      <trkpt lat="45.16616" lon="6.28658">
        <ele>1664.2</ele>
        <time>2021-02-28T05:34:58Z</time>
      </trkpt>
      <trkpt lat="45.16615" lon="6.28659">
        <ele>1664.2</ele>
        <time>2021-02-28T05:34:59Z</time>
      </trkpt>
      <trkpt lat="45.16614" lon="6.28659">
        <ele>1664.4</ele>
        <time>2021-02-28T05:35:00Z</time>
      </trkpt>
      <trkpt lat="45.16613" lon="6.2866">
        <ele>1664.4</ele>
        <time>2021-02-28T05:35:01Z</time>
      </trkpt>
      <trkpt lat="45.16612" lon="6.2866">
        <ele>1664.6</ele>
        <time>2021-02-28T05:35:02Z</time>
      </trkpt>
      <trkpt lat="45.1661" lon="6.28661">
        <ele>1664.8</ele>
        <time>2021-02-28T05:35:03Z</time>
      </trkpt>
      <trkpt lat="45.16609" lon="6.28662">
        <ele>1664.8</ele>
        <time>2021-02-28T05:35:04Z</time>
      </trkpt>
      <trkpt lat="45.16608" lon="6.28662">
        <ele>1665</ele>
        <time>2021-02-28T05:35:05Z</time>
      </trkpt>
      <trkpt lat="45.16607" lon="6.28663">
        <ele>1665</ele>
        <time>2021-02-28T05:35:06Z</time>
      </trkpt>
      <trkpt lat="45.16605" lon="6.28664">
        <ele>1665.2</ele>
        <time>2021-02-28T05:35:07Z</time>
      </trkpt>
      <trkpt lat="45.16604" lon="6.28665">
        <ele>1665.4</ele>
        <time>2021-02-28T05:35:08Z</time>
      </trkpt>
      <trkpt lat="45.16603" lon="6.28666">
        <ele>1665.2</ele>
        <time>2021-02-28T05:35:09Z</time>
      </trkpt>
      <trkpt lat="45.16602" lon="6.28666">
        <ele>1665.2</ele>
        <time>2021-02-28T05:35:10Z</time>
      </trkpt>
      <trkpt lat="45.166" lon="6.28667">
        <ele>1665.2</ele>
        <time>2021-02-28T05:35:11Z</time>
      </trkpt>
      <trkpt lat="45.16599" lon="6.28667">
        <ele>1665.4</ele>
        <time>2021-02-28T05:35:12Z</time>
      </trkpt>
      <trkpt lat="45.16597" lon="6.28666">
        <ele>1665.4</ele>
        <time>2021-02-28T05:35:13Z</time>
      </trkpt>
      <trkpt lat="45.16596" lon="6.28666">
        <ele>1666</ele>
        <time>2021-02-28T05:35:14Z</time>
      </trkpt>
      <trkpt lat="45.16594" lon="6.28666">
        <ele>1666.4</ele>
        <time>2021-02-28T05:35:15Z</time>
      </trkpt>
      <trkpt lat="45.16592" lon="6.28665">
        <ele>1666.4</ele>
        <time>2021-02-28T05:35:16Z</time>
      </trkpt>
      <trkpt lat="45.16591" lon="6.28665">
        <ele>1666.2</ele>
        <time>2021-02-28T05:35:17Z</time>
      </trkpt>
      <trkpt lat="45.1659" lon="6.28665">
        <ele>1666.6</ele>
        <time>2021-02-28T05:35:18Z</time>
      </trkpt>
      <trkpt lat="45.16589" lon="6.28666">
        <ele>1666.6</ele>
        <time>2021-02-28T05:35:19Z</time>
      </trkpt>
      <trkpt lat="45.16588" lon="6.28667">
        <ele>1667</ele>
        <time>2021-02-28T05:35:20Z</time>
      </trkpt>
      <trkpt lat="45.16587" lon="6.28667">
        <ele>1667.2</ele>
        <time>2021-02-28T05:35:21Z</time>
      </trkpt>
      <trkpt lat="45.16586" lon="6.28668">
        <ele>1667.6</ele>
        <time>2021-02-28T05:35:22Z</time>
      </trkpt>
      <trkpt lat="45.16585" lon="6.28669">
        <ele>1667.4</ele>
        <time>2021-02-28T05:35:23Z</time>
      </trkpt>
      <trkpt lat="45.16584" lon="6.28669">
        <ele>1667.8</ele>
        <time>2021-02-28T05:35:24Z</time>
      </trkpt>
      <trkpt lat="45.16583" lon="6.2867">
        <ele>1668</ele>
        <time>2021-02-28T05:35:25Z</time>
      </trkpt>
      <trkpt lat="45.16582" lon="6.2867">
        <ele>1668.2</ele>
        <time>2021-02-28T05:35:26Z</time>
      </trkpt>
      <trkpt lat="45.1658" lon="6.28671">
        <ele>1668.6</ele>
        <time>2021-02-28T05:35:27Z</time>
      </trkpt>
      <trkpt lat="45.16579" lon="6.28672">
        <ele>1668.6</ele>
        <time>2021-02-28T05:35:28Z</time>
      </trkpt>
      <trkpt lat="45.16578" lon="6.28672">
        <ele>1669</ele>
        <time>2021-02-28T05:35:29Z</time>
      </trkpt>
      <trkpt lat="45.16577" lon="6.28673">
        <ele>1669</ele>
        <time>2021-02-28T05:35:30Z</time>
      </trkpt>
      <trkpt lat="45.16575" lon="6.28673">
        <ele>1669</ele>
        <time>2021-02-28T05:35:31Z</time>
      </trkpt>
      <trkpt lat="45.16574" lon="6.28674">
        <ele>1669.2</ele>
        <time>2021-02-28T05:35:32Z</time>
      </trkpt>
      <trkpt lat="45.16573" lon="6.28674">
        <ele>1669.4</ele>
        <time>2021-02-28T05:35:33Z</time>
      </trkpt>
      <trkpt lat="45.16572" lon="6.28674">
        <ele>1669.6</ele>
        <time>2021-02-28T05:35:34Z</time>
      </trkpt>
      <trkpt lat="45.16571" lon="6.28675">
        <ele>1669.6</ele>
        <time>2021-02-28T05:35:35Z</time>
      </trkpt>
      <trkpt lat="45.1657" lon="6.28675">
        <ele>1669.8</ele>
        <time>2021-02-28T05:35:36Z</time>
      </trkpt>
      <trkpt lat="45.16569" lon="6.28675">
        <ele>1670.2</ele>
        <time>2021-02-28T05:35:37Z</time>
      </trkpt>
      <trkpt lat="45.16567" lon="6.28675">
        <ele>1670.4</ele>
        <time>2021-02-28T05:35:38Z</time>
      </trkpt>
      <trkpt lat="45.16566" lon="6.28675">
        <ele>1670.6</ele>
        <time>2021-02-28T05:35:39Z</time>
      </trkpt>
      <trkpt lat="45.16565" lon="6.28676">
        <ele>1670.8</ele>
        <time>2021-02-28T05:35:40Z</time>
      </trkpt>
      <trkpt lat="45.16564" lon="6.28676">
        <ele>1671</ele>
        <time>2021-02-28T05:35:41Z</time>
      </trkpt>
      <trkpt lat="45.16563" lon="6.28676">
        <ele>1671.2</ele>
        <time>2021-02-28T05:35:42Z</time>
      </trkpt>
      <trkpt lat="45.16562" lon="6.28677">
        <ele>1671.4</ele>
        <time>2021-02-28T05:35:43Z</time>
      </trkpt>
      <trkpt lat="45.16561" lon="6.28678">
        <ele>1671.4</ele>
        <time>2021-02-28T05:35:44Z</time>
      </trkpt>
      <trkpt lat="45.1656" lon="6.28679">
        <ele>1671.4</ele>
        <time>2021-02-28T05:35:45Z</time>
      </trkpt>
      <trkpt lat="45.16559" lon="6.2868">
        <ele>1671.8</ele>
        <time>2021-02-28T05:35:46Z</time>
      </trkpt>
      <trkpt lat="45.16558" lon="6.28681">
        <ele>1672</ele>
        <time>2021-02-28T05:35:47Z</time>
      </trkpt>
      <trkpt lat="45.16557" lon="6.28681">
        <ele>1672.2</ele>
        <time>2021-02-28T05:35:48Z</time>
      </trkpt>
      <trkpt lat="45.16557" lon="6.28682">
        <ele>1672.8</ele>
        <time>2021-02-28T05:35:49Z</time>
      </trkpt>
      <trkpt lat="45.16556" lon="6.28683">
        <ele>1672.6</ele>
        <time>2021-02-28T05:35:50Z</time>
      </trkpt>
      <trkpt lat="45.16555" lon="6.28684">
        <ele>1673</ele>
        <time>2021-02-28T05:35:51Z</time>
      </trkpt>
      <trkpt lat="45.16554" lon="6.28684">
        <ele>1673</ele>
        <time>2021-02-28T05:35:52Z</time>
      </trkpt>
      <trkpt lat="45.16553" lon="6.28685">
        <ele>1673.4</ele>
        <time>2021-02-28T05:35:53Z</time>
      </trkpt>
      <trkpt lat="45.16552" lon="6.28685">
        <ele>1673.4</ele>
        <time>2021-02-28T05:35:54Z</time>
      </trkpt>
      <trkpt lat="45.16551" lon="6.28685">
        <ele>1673.4</ele>
        <time>2021-02-28T05:35:55Z</time>
      </trkpt>
      <trkpt lat="45.1655" lon="6.28685">
        <ele>1673.6</ele>
        <time>2021-02-28T05:35:56Z</time>
      </trkpt>
      <trkpt lat="45.16549" lon="6.28686">
        <ele>1673.8</ele>
        <time>2021-02-28T05:35:57Z</time>
      </trkpt>
      <trkpt lat="45.16548" lon="6.28686">
        <ele>1674</ele>
        <time>2021-02-28T05:35:58Z</time>
      </trkpt>
      <trkpt lat="45.16547" lon="6.28686">
        <ele>1674.2</ele>
        <time>2021-02-28T05:35:59Z</time>
      </trkpt>
      <trkpt lat="45.16546" lon="6.28686">
        <ele>1674.6</ele>
        <time>2021-02-28T05:36:00Z</time>
      </trkpt>
      <trkpt lat="45.16545" lon="6.28687">
        <ele>1675.2</ele>
        <time>2021-02-28T05:36:01Z</time>
      </trkpt>
      <trkpt lat="45.16544" lon="6.28687">
        <ele>1675.2</ele>
        <time>2021-02-28T05:36:02Z</time>
      </trkpt>
      <trkpt lat="45.16542" lon="6.28688">
        <ele>1675.6</ele>
        <time>2021-02-28T05:36:03Z</time>
      </trkpt>
      <trkpt lat="45.16541" lon="6.28688">
        <ele>1675.8</ele>
        <time>2021-02-28T05:36:04Z</time>
      </trkpt>
      <trkpt lat="45.1654" lon="6.28689">
        <ele>1676</ele>
        <time>2021-02-28T05:36:05Z</time>
      </trkpt>
      <trkpt lat="45.16539" lon="6.2869">
        <ele>1676.4</ele>
        <time>2021-02-28T05:36:06Z</time>
      </trkpt>
      <trkpt lat="45.16538" lon="6.2869">
        <ele>1676.4</ele>
        <time>2021-02-28T05:36:07Z</time>
      </trkpt>
      <trkpt lat="45.16537" lon="6.28691">
        <ele>1676.6</ele>
        <time>2021-02-28T05:36:08Z</time>
      </trkpt>
      <trkpt lat="45.16536" lon="6.28691">
        <ele>1676.8</ele>
        <time>2021-02-28T05:36:09Z</time>
      </trkpt>
      <trkpt lat="45.16535" lon="6.28692">
        <ele>1677.2</ele>
        <time>2021-02-28T05:36:10Z</time>
      </trkpt>
      <trkpt lat="45.16534" lon="6.28692">
        <ele>1677.2</ele>
        <time>2021-02-28T05:36:11Z</time>
      </trkpt>
      <trkpt lat="45.16533" lon="6.28693">
        <ele>1677.2</ele>
        <time>2021-02-28T05:36:12Z</time>
      </trkpt>
      <trkpt lat="45.16532" lon="6.28693">
        <ele>1677.6</ele>
        <time>2021-02-28T05:36:13Z</time>
      </trkpt>
      <trkpt lat="45.16532" lon="6.28694">
        <ele>1677.6</ele>
        <time>2021-02-28T05:36:14Z</time>
      </trkpt>
      <trkpt lat="45.16531" lon="6.28695">
        <ele>1677.8</ele>
        <time>2021-02-28T05:36:15Z</time>
      </trkpt>
      <trkpt lat="45.1653" lon="6.28695">
        <ele>1677.8</ele>
        <time>2021-02-28T05:36:16Z</time>
      </trkpt>
      <trkpt lat="45.16529" lon="6.28696">
        <ele>1677.8</ele>
        <time>2021-02-28T05:36:17Z</time>
      </trkpt>
      <trkpt lat="45.16528" lon="6.28696">
        <ele>1678.2</ele>
        <time>2021-02-28T05:36:18Z</time>
      </trkpt>
      <trkpt lat="45.16527" lon="6.28697">
        <ele>1678.2</ele>
        <time>2021-02-28T05:36:19Z</time>
      </trkpt>
      <trkpt lat="45.16526" lon="6.28697">
        <ele>1678.4</ele>
        <time>2021-02-28T05:36:20Z</time>
      </trkpt>
      <trkpt lat="45.16525" lon="6.28697">
        <ele>1678.8</ele>
        <time>2021-02-28T05:36:21Z</time>
      </trkpt>
      <trkpt lat="45.16524" lon="6.28697">
        <ele>1679</ele>
        <time>2021-02-28T05:36:22Z</time>
      </trkpt>
      <trkpt lat="45.16523" lon="6.28697">
        <ele>1679.4</ele>
        <time>2021-02-28T05:36:23Z</time>
      </trkpt>
      <trkpt lat="45.16522" lon="6.28697">
        <ele>1679.8</ele>
        <time>2021-02-28T05:36:24Z</time>
      </trkpt>
      <trkpt lat="45.16522" lon="6.28697">
        <ele>1680</ele>
        <time>2021-02-28T05:36:25Z</time>
      </trkpt>
      <trkpt lat="45.16521" lon="6.28697">
        <ele>1679.8</ele>
        <time>2021-02-28T05:36:26Z</time>
      </trkpt>
      <trkpt lat="45.1652" lon="6.28696">
        <ele>1680</ele>
        <time>2021-02-28T05:36:27Z</time>
      </trkpt>
      <trkpt lat="45.16519" lon="6.28696">
        <ele>1680</ele>
        <time>2021-02-28T05:36:28Z</time>
      </trkpt>
      <trkpt lat="45.16518" lon="6.28696">
        <ele>1680.2</ele>
        <time>2021-02-28T05:36:29Z</time>
      </trkpt>
      <trkpt lat="45.16517" lon="6.28696">
        <ele>1680.4</ele>
        <time>2021-02-28T05:36:30Z</time>
      </trkpt>
      <trkpt lat="45.16515" lon="6.28697">
        <ele>1680.4</ele>
        <time>2021-02-28T05:36:31Z</time>
      </trkpt>
      <trkpt lat="45.16513" lon="6.28698">
        <ele>1680.6</ele>
        <time>2021-02-28T05:36:32Z</time>
      </trkpt>
      <trkpt lat="45.16512" lon="6.28698">
        <ele>1680.8</ele>
        <time>2021-02-28T05:36:33Z</time>
      </trkpt>
      <trkpt lat="45.1651" lon="6.28699">
        <ele>1681</ele>
        <time>2021-02-28T05:36:34Z</time>
      </trkpt>
      <trkpt lat="45.16508" lon="6.287">
        <ele>1681</ele>
        <time>2021-02-28T05:36:35Z</time>
      </trkpt>
      <trkpt lat="45.16506" lon="6.28701">
        <ele>1681.2</ele>
        <time>2021-02-28T05:36:36Z</time>
      </trkpt>
      <trkpt lat="45.16506" lon="6.28701">
        <ele>1681.4</ele>
        <time>2021-02-28T05:36:37Z</time>
      </trkpt>
      <trkpt lat="45.16505" lon="6.28701">
        <ele>1681.6</ele>
        <time>2021-02-28T05:36:38Z</time>
      </trkpt>
      <trkpt lat="45.16505" lon="6.28702">
        <ele>1682</ele>
        <time>2021-02-28T05:36:39Z</time>
      </trkpt>
      <trkpt lat="45.16504" lon="6.28702">
        <ele>1682.2</ele>
        <time>2021-02-28T05:36:40Z</time>
      </trkpt>
      <trkpt lat="45.16504" lon="6.28703">
        <ele>1682.6</ele>
        <time>2021-02-28T05:36:41Z</time>
      </trkpt>
      <trkpt lat="45.16503" lon="6.28703">
        <ele>1682.8</ele>
        <time>2021-02-28T05:36:42Z</time>
      </trkpt>
      <trkpt lat="45.16502" lon="6.28703">
        <ele>1682.8</ele>
        <time>2021-02-28T05:36:43Z</time>
      </trkpt>
      <trkpt lat="45.16502" lon="6.28704">
        <ele>1683.2</ele>
        <time>2021-02-28T05:36:44Z</time>
      </trkpt>
      <trkpt lat="45.16501" lon="6.28704">
        <ele>1683.4</ele>
        <time>2021-02-28T05:36:45Z</time>
      </trkpt>
      <trkpt lat="45.16501" lon="6.28704">
        <ele>1683.6</ele>
        <time>2021-02-28T05:36:46Z</time>
      </trkpt>
      <trkpt lat="45.165" lon="6.28705">
        <ele>1683.8</ele>
        <time>2021-02-28T05:36:47Z</time>
      </trkpt>
      <trkpt lat="45.165" lon="6.28705">
        <ele>1683.8</ele>
        <time>2021-02-28T05:36:48Z</time>
      </trkpt>
      <trkpt lat="45.16499" lon="6.28706">
        <ele>1683.8</ele>
        <time>2021-02-28T05:36:49Z</time>
      </trkpt>
      <trkpt lat="45.16498" lon="6.28706">
        <ele>1684</ele>
        <time>2021-02-28T05:36:50Z</time>
      </trkpt>
      <trkpt lat="45.16498" lon="6.28706">
        <ele>1684.4</ele>
        <time>2021-02-28T05:36:51Z</time>
      </trkpt>
      <trkpt lat="45.16497" lon="6.28707">
        <ele>1684.6</ele>
        <time>2021-02-28T05:36:52Z</time>
      </trkpt>
      <trkpt lat="45.16496" lon="6.28708">
        <ele>1685</ele>
        <time>2021-02-28T05:36:53Z</time>
      </trkpt>
      <trkpt lat="45.16495" lon="6.28709">
        <ele>1685.2</ele>
        <time>2021-02-28T05:36:54Z</time>
      </trkpt>
      <trkpt lat="45.16494" lon="6.28709">
        <ele>1685.8</ele>
        <time>2021-02-28T05:36:55Z</time>
      </trkpt>
      <trkpt lat="45.16493" lon="6.2871">
        <ele>1686.2</ele>
        <time>2021-02-28T05:36:56Z</time>
      </trkpt>
      <trkpt lat="45.16492" lon="6.28711">
        <ele>1686.2</ele>
        <time>2021-02-28T05:36:57Z</time>
      </trkpt>
      <trkpt lat="45.16491" lon="6.28712">
        <ele>1686.6</ele>
        <time>2021-02-28T05:36:58Z</time>
      </trkpt>
      <trkpt lat="45.1649" lon="6.28713">
        <ele>1686.4</ele>
        <time>2021-02-28T05:36:59Z</time>
      </trkpt>
      <trkpt lat="45.1649" lon="6.28713">
        <ele>1687</ele>
        <time>2021-02-28T05:37:00Z</time>
      </trkpt>
      <trkpt lat="45.16489" lon="6.28714">
        <ele>1687.2</ele>
        <time>2021-02-28T05:37:01Z</time>
      </trkpt>
      <trkpt lat="45.16488" lon="6.28715">
        <ele>1687.4</ele>
        <time>2021-02-28T05:37:02Z</time>
      </trkpt>
      <trkpt lat="45.16487" lon="6.28715">
        <ele>1687.6</ele>
        <time>2021-02-28T05:37:03Z</time>
      </trkpt>
      <trkpt lat="45.16486" lon="6.28716">
        <ele>1687.8</ele>
        <time>2021-02-28T05:37:04Z</time>
      </trkpt>
      <trkpt lat="45.16485" lon="6.28717">
        <ele>1688.2</ele>
        <time>2021-02-28T05:37:05Z</time>
      </trkpt>
      <trkpt lat="45.16485" lon="6.28717">
        <ele>1688.2</ele>
        <time>2021-02-28T05:37:06Z</time>
      </trkpt>
      <trkpt lat="45.16484" lon="6.28718">
        <ele>1688.4</ele>
        <time>2021-02-28T05:37:07Z</time>
      </trkpt>
      <trkpt lat="45.16483" lon="6.28718">
        <ele>1688.8</ele>
        <time>2021-02-28T05:37:08Z</time>
      </trkpt>
      <trkpt lat="45.16482" lon="6.28719">
        <ele>1688.8</ele>
        <time>2021-02-28T05:37:09Z</time>
      </trkpt>
      <trkpt lat="45.16481" lon="6.2872">
        <ele>1689.4</ele>
        <time>2021-02-28T05:37:10Z</time>
      </trkpt>
      <trkpt lat="45.1648" lon="6.2872">
        <ele>1689.8</ele>
        <time>2021-02-28T05:37:11Z</time>
      </trkpt>
      <trkpt lat="45.16479" lon="6.28721">
        <ele>1690.2</ele>
        <time>2021-02-28T05:37:12Z</time>
      </trkpt>
      <trkpt lat="45.16479" lon="6.28721">
        <ele>1690.4</ele>
        <time>2021-02-28T05:37:13Z</time>
      </trkpt>
      <trkpt lat="45.16478" lon="6.28721">
        <ele>1690.6</ele>
        <time>2021-02-28T05:37:14Z</time>
      </trkpt>
      <trkpt lat="45.16477" lon="6.28722">
        <ele>1691.2</ele>
        <time>2021-02-28T05:37:15Z</time>
      </trkpt>
      <trkpt lat="45.16476" lon="6.28722">
        <ele>1691.4</ele>
        <time>2021-02-28T05:37:16Z</time>
      </trkpt>
      <trkpt lat="45.16475" lon="6.28722">
        <ele>1691.8</ele>
        <time>2021-02-28T05:37:17Z</time>
      </trkpt>
      <trkpt lat="45.16474" lon="6.28723">
        <ele>1692</ele>
        <time>2021-02-28T05:37:18Z</time>
      </trkpt>
      <trkpt lat="45.16473" lon="6.28723">
        <ele>1692.2</ele>
        <time>2021-02-28T05:37:19Z</time>
      </trkpt>
      <trkpt lat="45.16472" lon="6.28724">
        <ele>1692.8</ele>
        <time>2021-02-28T05:37:20Z</time>
      </trkpt>
      <trkpt lat="45.16471" lon="6.28724">
        <ele>1692.8</ele>
        <time>2021-02-28T05:37:21Z</time>
      </trkpt>
      <trkpt lat="45.1647" lon="6.28725">
        <ele>1693.2</ele>
        <time>2021-02-28T05:37:22Z</time>
      </trkpt>
      <trkpt lat="45.16469" lon="6.28726">
        <ele>1693.2</ele>
        <time>2021-02-28T05:37:23Z</time>
      </trkpt>
      <trkpt lat="45.16468" lon="6.28726">
        <ele>1693.2</ele>
        <time>2021-02-28T05:37:24Z</time>
      </trkpt>
      <trkpt lat="45.16468" lon="6.28727">
        <ele>1693.6</ele>
        <time>2021-02-28T05:37:25Z</time>
      </trkpt>
      <trkpt lat="45.16467" lon="6.28728">
        <ele>1693.8</ele>
        <time>2021-02-28T05:37:26Z</time>
      </trkpt>
      <trkpt lat="45.16466" lon="6.28728">
        <ele>1693.8</ele>
        <time>2021-02-28T05:37:27Z</time>
      </trkpt>
      <trkpt lat="45.16465" lon="6.28729">
        <ele>1694</ele>
        <time>2021-02-28T05:37:28Z</time>
      </trkpt>
      <trkpt lat="45.16464" lon="6.2873">
        <ele>1694.2</ele>
        <time>2021-02-28T05:37:29Z</time>
      </trkpt>
      <trkpt lat="45.16463" lon="6.2873">
        <ele>1694.6</ele>
        <time>2021-02-28T05:37:30Z</time>
      </trkpt>
      <trkpt lat="45.16463" lon="6.28731">
        <ele>1694.8</ele>
        <time>2021-02-28T05:37:31Z</time>
      </trkpt>
      <trkpt lat="45.16462" lon="6.28732">
        <ele>1695.2</ele>
        <time>2021-02-28T05:37:32Z</time>
      </trkpt>
      <trkpt lat="45.16462" lon="6.28733">
        <ele>1695.4</ele>
        <time>2021-02-28T05:37:33Z</time>
      </trkpt>
      <trkpt lat="45.16461" lon="6.28733">
        <ele>1695.6</ele>
        <time>2021-02-28T05:37:34Z</time>
      </trkpt>
      <trkpt lat="45.16461" lon="6.28734">
        <ele>1696</ele>
        <time>2021-02-28T05:37:35Z</time>
      </trkpt>
      <trkpt lat="45.16461" lon="6.28735">
        <ele>1696.2</ele>
        <time>2021-02-28T05:37:36Z</time>
      </trkpt>
      <trkpt lat="45.1646" lon="6.28736">
        <ele>1696.8</ele>
        <time>2021-02-28T05:37:37Z</time>
      </trkpt>
      <trkpt lat="45.1646" lon="6.28736">
        <ele>1697</ele>
        <time>2021-02-28T05:37:38Z</time>
      </trkpt>
      <trkpt lat="45.16459" lon="6.28737">
        <ele>1697.4</ele>
        <time>2021-02-28T05:37:39Z</time>
      </trkpt>
      <trkpt lat="45.16459" lon="6.28738">
        <ele>1697.6</ele>
        <time>2021-02-28T05:37:40Z</time>
      </trkpt>
      <trkpt lat="45.16458" lon="6.28739">
        <ele>1697.8</ele>
        <time>2021-02-28T05:37:41Z</time>
      </trkpt>
      <trkpt lat="45.16458" lon="6.28739">
        <ele>1698</ele>
        <time>2021-02-28T05:37:42Z</time>
      </trkpt>
      <trkpt lat="45.16458" lon="6.2874">
        <ele>1698.2</ele>
        <time>2021-02-28T05:37:43Z</time>
      </trkpt>
      <trkpt lat="45.16457" lon="6.28741">
        <ele>1698.2</ele>
        <time>2021-02-28T05:37:44Z</time>
      </trkpt>
      <trkpt lat="45.16457" lon="6.28741">
        <ele>1698.2</ele>
        <time>2021-02-28T05:37:45Z</time>
      </trkpt>
      <trkpt lat="45.16457" lon="6.28742">
        <ele>1698</ele>
        <time>2021-02-28T05:37:46Z</time>
      </trkpt>
      <trkpt lat="45.16456" lon="6.28743">
        <ele>1698</ele>
        <time>2021-02-28T05:37:47Z</time>
      </trkpt>
      <trkpt lat="45.16456" lon="6.28743">
        <ele>1697.8</ele>
        <time>2021-02-28T05:37:48Z</time>
      </trkpt>
      <trkpt lat="45.16455" lon="6.28744">
        <ele>1698</ele>
        <time>2021-02-28T05:37:49Z</time>
      </trkpt>
      <trkpt lat="45.16455" lon="6.28744">
        <ele>1698.2</ele>
        <time>2021-02-28T05:37:50Z</time>
      </trkpt>
      <trkpt lat="45.16455" lon="6.28745">
        <ele>1698.2</ele>
        <time>2021-02-28T05:37:51Z</time>
      </trkpt>
      <trkpt lat="45.16454" lon="6.28745">
        <ele>1698.4</ele>
        <time>2021-02-28T05:37:52Z</time>
      </trkpt>
      <trkpt lat="45.16454" lon="6.28746">
        <ele>1698.6</ele>
        <time>2021-02-28T05:37:53Z</time>
      </trkpt>
      <trkpt lat="45.16454" lon="6.28747">
        <ele>1699</ele>
        <time>2021-02-28T05:37:54Z</time>
      </trkpt>
      <trkpt lat="45.16453" lon="6.28747">
        <ele>1699</ele>
        <time>2021-02-28T05:37:55Z</time>
      </trkpt>
      <trkpt lat="45.16453" lon="6.28748">
        <ele>1699.2</ele>
        <time>2021-02-28T05:37:56Z</time>
      </trkpt>
      <trkpt lat="45.16452" lon="6.28748">
        <ele>1699.4</ele>
        <time>2021-02-28T05:37:57Z</time>
      </trkpt>
      <trkpt lat="45.16452" lon="6.28749">
        <ele>1699.4</ele>
        <time>2021-02-28T05:37:58Z</time>
      </trkpt>
      <trkpt lat="45.16452" lon="6.2875">
        <ele>1699.8</ele>
        <time>2021-02-28T05:37:59Z</time>
      </trkpt>
      <trkpt lat="45.16451" lon="6.2875">
        <ele>1699.8</ele>
        <time>2021-02-28T05:38:00Z</time>
      </trkpt>
      <trkpt lat="45.16451" lon="6.28752">
        <ele>1699.8</ele>
        <time>2021-02-28T05:38:01Z</time>
      </trkpt>
      <trkpt lat="45.1645" lon="6.28753">
        <ele>1699.6</ele>
        <time>2021-02-28T05:38:02Z</time>
      </trkpt>
      <trkpt lat="45.16449" lon="6.28755">
        <ele>1699.8</ele>
        <time>2021-02-28T05:38:03Z</time>
      </trkpt>
      <trkpt lat="45.16449" lon="6.28757">
        <ele>1700</ele>
        <time>2021-02-28T05:38:04Z</time>
      </trkpt>
      <trkpt lat="45.16448" lon="6.28758">
        <ele>1700.2</ele>
        <time>2021-02-28T05:38:05Z</time>
      </trkpt>
      <trkpt lat="45.16447" lon="6.2876">
        <ele>1700.2</ele>
        <time>2021-02-28T05:38:06Z</time>
      </trkpt>
      <trkpt lat="45.16447" lon="6.28761">
        <ele>1700</ele>
        <time>2021-02-28T05:38:07Z</time>
      </trkpt>
      <trkpt lat="45.16446" lon="6.28763">
        <ele>1699.8</ele>
        <time>2021-02-28T05:38:08Z</time>
      </trkpt>
      <trkpt lat="45.16445" lon="6.28765">
        <ele>1699.6</ele>
        <time>2021-02-28T05:38:09Z</time>
      </trkpt>
      <trkpt lat="45.16445" lon="6.28766">
        <ele>1699.6</ele>
        <time>2021-02-28T05:38:10Z</time>
      </trkpt>
      <trkpt lat="45.16444" lon="6.28768">
        <ele>1699.6</ele>
        <time>2021-02-28T05:38:11Z</time>
      </trkpt>
      <trkpt lat="45.16443" lon="6.2877">
        <ele>1699.6</ele>
        <time>2021-02-28T05:38:12Z</time>
      </trkpt>
      <trkpt lat="45.16442" lon="6.28771">
        <ele>1699.4</ele>
        <time>2021-02-28T05:38:13Z</time>
      </trkpt>
      <trkpt lat="45.16442" lon="6.28773">
        <ele>1699.4</ele>
        <time>2021-02-28T05:38:14Z</time>
      </trkpt>
      <trkpt lat="45.16441" lon="6.28775">
        <ele>1699.6</ele>
        <time>2021-02-28T05:38:15Z</time>
      </trkpt>
      <trkpt lat="45.1644" lon="6.28777">
        <ele>1699.6</ele>
        <time>2021-02-28T05:38:16Z</time>
      </trkpt>
      <trkpt lat="45.1644" lon="6.28779">
        <ele>1699.4</ele>
        <time>2021-02-28T05:38:17Z</time>
      </trkpt>
      <trkpt lat="45.16439" lon="6.2878">
        <ele>1699.4</ele>
        <time>2021-02-28T05:38:18Z</time>
      </trkpt>
      <trkpt lat="45.16439" lon="6.28782">
        <ele>1699.4</ele>
        <time>2021-02-28T05:38:19Z</time>
      </trkpt>
      <trkpt lat="45.16438" lon="6.28784">
        <ele>1699.4</ele>
        <time>2021-02-28T05:38:20Z</time>
      </trkpt>
      <trkpt lat="45.16438" lon="6.28786">
        <ele>1699.6</ele>
        <time>2021-02-28T05:38:21Z</time>
      </trkpt>
      <trkpt lat="45.16437" lon="6.28788">
        <ele>1699.6</ele>
        <time>2021-02-28T05:38:22Z</time>
      </trkpt>
      <trkpt lat="45.16437" lon="6.2879">
        <ele>1699.8</ele>
        <time>2021-02-28T05:38:23Z</time>
      </trkpt>
      <trkpt lat="45.16436" lon="6.28792">
        <ele>1699.6</ele>
        <time>2021-02-28T05:38:24Z</time>
      </trkpt>
      <trkpt lat="45.16435" lon="6.28793">
        <ele>1699.4</ele>
        <time>2021-02-28T05:38:25Z</time>
      </trkpt>
      <trkpt lat="45.16435" lon="6.28795">
        <ele>1699.4</ele>
        <time>2021-02-28T05:38:26Z</time>
      </trkpt>
      <trkpt lat="45.16434" lon="6.28797">
        <ele>1699.4</ele>
        <time>2021-02-28T05:38:27Z</time>
      </trkpt>
      <trkpt lat="45.16434" lon="6.28799">
        <ele>1699.4</ele>
        <time>2021-02-28T05:38:28Z</time>
      </trkpt>
      <trkpt lat="45.16433" lon="6.28801">
        <ele>1699.4</ele>
        <time>2021-02-28T05:38:29Z</time>
      </trkpt>
      <trkpt lat="45.16432" lon="6.28802">
        <ele>1699.4</ele>
        <time>2021-02-28T05:38:30Z</time>
      </trkpt>
      <trkpt lat="45.16431" lon="6.28804">
        <ele>1699.2</ele>
        <time>2021-02-28T05:38:31Z</time>
      </trkpt>
      <trkpt lat="45.16431" lon="6.28805">
        <ele>1699.2</ele>
        <time>2021-02-28T05:38:32Z</time>
      </trkpt>
      <trkpt lat="45.1643" lon="6.28807">
        <ele>1699.2</ele>
        <time>2021-02-28T05:38:33Z</time>
      </trkpt>
      <trkpt lat="45.16429" lon="6.28809">
        <ele>1699</ele>
        <time>2021-02-28T05:38:34Z</time>
      </trkpt>
      <trkpt lat="45.16428" lon="6.2881">
        <ele>1699</ele>
        <time>2021-02-28T05:38:35Z</time>
      </trkpt>
      <trkpt lat="45.16427" lon="6.28812">
        <ele>1699.2</ele>
        <time>2021-02-28T05:38:36Z</time>
      </trkpt>
      <trkpt lat="45.16427" lon="6.28813">
        <ele>1699.2</ele>
        <time>2021-02-28T05:38:37Z</time>
      </trkpt>
      <trkpt lat="45.16426" lon="6.28815">
        <ele>1699</ele>
        <time>2021-02-28T05:38:38Z</time>
      </trkpt>
      <trkpt lat="45.16426" lon="6.28817">
        <ele>1699</ele>
        <time>2021-02-28T05:38:39Z</time>
      </trkpt>
      <trkpt lat="45.16425" lon="6.28819">
        <ele>1699.4</ele>
        <time>2021-02-28T05:38:40Z</time>
      </trkpt>
      <trkpt lat="45.16424" lon="6.28821">
        <ele>1699.4</ele>
        <time>2021-02-28T05:38:41Z</time>
      </trkpt>
      <trkpt lat="45.16424" lon="6.28822">
        <ele>1699.4</ele>
        <time>2021-02-28T05:38:42Z</time>
      </trkpt>
      <trkpt lat="45.16423" lon="6.28824">
        <ele>1699.4</ele>
        <time>2021-02-28T05:38:43Z</time>
      </trkpt>
      <trkpt lat="45.16423" lon="6.28826">
        <ele>1699.8</ele>
        <time>2021-02-28T05:38:44Z</time>
      </trkpt>
      <trkpt lat="45.16422" lon="6.28828">
        <ele>1699.8</ele>
        <time>2021-02-28T05:38:45Z</time>
      </trkpt>
      <trkpt lat="45.16421" lon="6.28829">
        <ele>1699.6</ele>
        <time>2021-02-28T05:38:46Z</time>
      </trkpt>
      <trkpt lat="45.1642" lon="6.28831">
        <ele>1699.6</ele>
        <time>2021-02-28T05:38:47Z</time>
      </trkpt>
      <trkpt lat="45.1642" lon="6.28833">
        <ele>1699.8</ele>
        <time>2021-02-28T05:38:48Z</time>
      </trkpt>
      <trkpt lat="45.16419" lon="6.28834">
        <ele>1700</ele>
        <time>2021-02-28T05:38:49Z</time>
      </trkpt>
      <trkpt lat="45.16418" lon="6.28836">
        <ele>1700.2</ele>
        <time>2021-02-28T05:38:50Z</time>
      </trkpt>
      <trkpt lat="45.16418" lon="6.28836">
        <ele>1700.4</ele>
        <time>2021-02-28T05:38:51Z</time>
      </trkpt>
      <trkpt lat="45.16418" lon="6.28837">
        <ele>1700.4</ele>
        <time>2021-02-28T05:38:52Z</time>
      </trkpt>
      <trkpt lat="45.16417" lon="6.28837">
        <ele>1700.6</ele>
        <time>2021-02-28T05:38:53Z</time>
      </trkpt>
      <trkpt lat="45.16417" lon="6.28837">
        <ele>1701</ele>
        <time>2021-02-28T05:38:54Z</time>
      </trkpt>
      <trkpt lat="45.16417" lon="6.28837">
        <ele>1701.2</ele>
        <time>2021-02-28T05:38:55Z</time>
      </trkpt>
      <trkpt lat="45.16417" lon="6.28838">
        <ele>1701.4</ele>
        <time>2021-02-28T05:38:56Z</time>
      </trkpt>
      <trkpt lat="45.16416" lon="6.28838">
        <ele>1701.4</ele>
        <time>2021-02-28T05:38:57Z</time>
      </trkpt>
      <trkpt lat="45.16416" lon="6.28838">
        <ele>1701.6</ele>
        <time>2021-02-28T05:38:58Z</time>
      </trkpt>
      <trkpt lat="45.16416" lon="6.28838">
        <ele>1701.4</ele>
        <time>2021-02-28T05:38:59Z</time>
      </trkpt>
      <trkpt lat="45.16416" lon="6.28839">
        <ele>1700.8</ele>
        <time>2021-02-28T05:39:00Z</time>
      </trkpt>
      <trkpt lat="45.16416" lon="6.28839">
        <ele>1700.4</ele>
        <time>2021-02-28T05:39:01Z</time>
      </trkpt>
      <trkpt lat="45.16415" lon="6.28839">
        <ele>1701</ele>
        <time>2021-02-28T05:39:02Z</time>
      </trkpt>
      <trkpt lat="45.16415" lon="6.28839">
        <ele>1701</ele>
        <time>2021-02-28T05:39:03Z</time>
      </trkpt>
      <trkpt lat="45.16415" lon="6.28839">
        <ele>1701.2</ele>
        <time>2021-02-28T05:39:04Z</time>
      </trkpt>
      <trkpt lat="45.16415" lon="6.2884">
        <ele>1701</ele>
        <time>2021-02-28T05:39:05Z</time>
      </trkpt>
      <trkpt lat="45.16414" lon="6.2884">
        <ele>1700.6</ele>
        <time>2021-02-28T05:39:06Z</time>
      </trkpt>
      <trkpt lat="45.16414" lon="6.2884">
        <ele>1700.2</ele>
        <time>2021-02-28T05:39:07Z</time>
      </trkpt>
      <trkpt lat="45.16414" lon="6.2884">
        <ele>1700.4</ele>
        <time>2021-02-28T05:39:08Z</time>
      </trkpt>
      <trkpt lat="45.16414" lon="6.28841">
        <ele>1700.8</ele>
        <time>2021-02-28T05:39:09Z</time>
      </trkpt>
      <trkpt lat="45.16414" lon="6.28841">
        <ele>1701</ele>
        <time>2021-02-28T05:39:10Z</time>
      </trkpt>
      <trkpt lat="45.16413" lon="6.28841">
        <ele>1701.2</ele>
        <time>2021-02-28T05:39:11Z</time>
      </trkpt>
      <trkpt lat="45.16413" lon="6.28841">
        <ele>1701.2</ele>
        <time>2021-02-28T05:39:12Z</time>
      </trkpt>
      <trkpt lat="45.16413" lon="6.28842">
        <ele>1701.2</ele>
        <time>2021-02-28T05:39:13Z</time>
      </trkpt>
      <trkpt lat="45.16413" lon="6.28842">
        <ele>1701.2</ele>
        <time>2021-02-28T05:39:14Z</time>
      </trkpt>
      <trkpt lat="45.16412" lon="6.28842">
        <ele>1701</ele>
        <time>2021-02-28T05:39:15Z</time>
      </trkpt>
      <trkpt lat="45.16412" lon="6.28842">
        <ele>1701</ele>
        <time>2021-02-28T05:39:16Z</time>
      </trkpt>
      <trkpt lat="45.16412" lon="6.28843">
        <ele>1700.8</ele>
        <time>2021-02-28T05:39:17Z</time>
      </trkpt>
      <trkpt lat="45.16412" lon="6.28843">
        <ele>1700.8</ele>
        <time>2021-02-28T05:39:18Z</time>
      </trkpt>
      <trkpt lat="45.16412" lon="6.28843">
        <ele>1700.6</ele>
        <time>2021-02-28T05:39:19Z</time>
      </trkpt>
      <trkpt lat="45.16411" lon="6.28843">
        <ele>1700.6</ele>
        <time>2021-02-28T05:39:20Z</time>
      </trkpt>
      <trkpt lat="45.16411" lon="6.28844">
        <ele>1700.8</ele>
        <time>2021-02-28T05:39:21Z</time>
      </trkpt>
      <trkpt lat="45.16411" lon="6.28844">
        <ele>1701</ele>
        <time>2021-02-28T05:39:22Z</time>
      </trkpt>
      <trkpt lat="45.16411" lon="6.28844">
        <ele>1701</ele>
        <time>2021-02-28T05:39:23Z</time>
      </trkpt>
      <trkpt lat="45.1641" lon="6.28844">
        <ele>1701</ele>
        <time>2021-02-28T05:39:24Z</time>
      </trkpt>
      <trkpt lat="45.1641" lon="6.28844">
        <ele>1701.4</ele>
        <time>2021-02-28T05:39:25Z</time>
      </trkpt>
      <trkpt lat="45.1641" lon="6.28845">
        <ele>1701.4</ele>
        <time>2021-02-28T05:39:26Z</time>
      </trkpt>
      <trkpt lat="45.1641" lon="6.28845">
        <ele>1701.2</ele>
        <time>2021-02-28T05:39:27Z</time>
      </trkpt>
      <trkpt lat="45.16409" lon="6.28845">
        <ele>1701.2</ele>
        <time>2021-02-28T05:39:28Z</time>
      </trkpt>
      <trkpt lat="45.16409" lon="6.28845">
        <ele>1701.4</ele>
        <time>2021-02-28T05:39:29Z</time>
      </trkpt>
      <trkpt lat="45.16409" lon="6.28846">
        <ele>1701.6</ele>
        <time>2021-02-28T05:39:30Z</time>
      </trkpt>
      <trkpt lat="45.16409" lon="6.28846">
        <ele>1701.4</ele>
        <time>2021-02-28T05:39:31Z</time>
      </trkpt>
      <trkpt lat="45.16408" lon="6.28846">
        <ele>1701.6</ele>
        <time>2021-02-28T05:39:32Z</time>
      </trkpt>
      <trkpt lat="45.16408" lon="6.28846">
        <ele>1701.6</ele>
        <time>2021-02-28T05:39:33Z</time>
      </trkpt>
      <trkpt lat="45.16408" lon="6.28847">
        <ele>1701.8</ele>
        <time>2021-02-28T05:39:34Z</time>
      </trkpt>
      <trkpt lat="45.16408" lon="6.28847">
        <ele>1702</ele>
        <time>2021-02-28T05:39:35Z</time>
      </trkpt>
      <trkpt lat="45.16407" lon="6.28847">
        <ele>1701.8</ele>
        <time>2021-02-28T05:39:36Z</time>
      </trkpt>
      <trkpt lat="45.16407" lon="6.28847">
        <ele>1701.6</ele>
        <time>2021-02-28T05:39:37Z</time>
      </trkpt>
      <trkpt lat="45.16407" lon="6.28848">
        <ele>1701.8</ele>
        <time>2021-02-28T05:39:38Z</time>
      </trkpt>
      <trkpt lat="45.16407" lon="6.28848">
        <ele>1701.8</ele>
        <time>2021-02-28T05:39:39Z</time>
      </trkpt>
      <trkpt lat="45.16406" lon="6.28848">
        <ele>1701.8</ele>
        <time>2021-02-28T05:39:40Z</time>
      </trkpt>
      <trkpt lat="45.16406" lon="6.28848">
        <ele>1701.8</ele>
        <time>2021-02-28T05:39:41Z</time>
      </trkpt>
      <trkpt lat="45.16406" lon="6.28848">
        <ele>1701.8</ele>
        <time>2021-02-28T05:39:42Z</time>
      </trkpt>
      <trkpt lat="45.16406" lon="6.28849">
        <ele>1701.6</ele>
        <time>2021-02-28T05:39:43Z</time>
      </trkpt>
      <trkpt lat="45.16405" lon="6.28849">
        <ele>1701.8</ele>
        <time>2021-02-28T05:39:44Z</time>
      </trkpt>
      <trkpt lat="45.16405" lon="6.28849">
        <ele>1701.8</ele>
        <time>2021-02-28T05:39:45Z</time>
      </trkpt>
      <trkpt lat="45.16405" lon="6.28849">
        <ele>1701.6</ele>
        <time>2021-02-28T05:39:46Z</time>
      </trkpt>
      <trkpt lat="45.16405" lon="6.2885">
        <ele>1701.6</ele>
        <time>2021-02-28T05:39:47Z</time>
      </trkpt>
      <trkpt lat="45.16404" lon="6.2885">
        <ele>1701.8</ele>
        <time>2021-02-28T05:39:48Z</time>
      </trkpt>
      <trkpt lat="45.16404" lon="6.2885">
        <ele>1701.6</ele>
        <time>2021-02-28T05:39:49Z</time>
      </trkpt>
      <trkpt lat="45.16404" lon="6.2885">
        <ele>1701.8</ele>
        <time>2021-02-28T05:39:50Z</time>
      </trkpt>
      <trkpt lat="45.16404" lon="6.28851">
        <ele>1701.8</ele>
        <time>2021-02-28T05:39:51Z</time>
      </trkpt>
      <trkpt lat="45.16403" lon="6.28851">
        <ele>1701.6</ele>
        <time>2021-02-28T05:39:52Z</time>
      </trkpt>
      <trkpt lat="45.16403" lon="6.28851">
        <ele>1701.6</ele>
        <time>2021-02-28T05:39:53Z</time>
      </trkpt>
      <trkpt lat="45.16403" lon="6.28851">
        <ele>1701.6</ele>
        <time>2021-02-28T05:39:54Z</time>
      </trkpt>
      <trkpt lat="45.16403" lon="6.28851">
        <ele>1701.8</ele>
        <time>2021-02-28T05:39:55Z</time>
      </trkpt>
      <trkpt lat="45.16402" lon="6.28852">
        <ele>1701.6</ele>
        <time>2021-02-28T05:39:56Z</time>
      </trkpt>
      <trkpt lat="45.16402" lon="6.28852">
        <ele>1701.8</ele>
        <time>2021-02-28T05:39:57Z</time>
      </trkpt>
      <trkpt lat="45.16402" lon="6.28852">
        <ele>1701.8</ele>
        <time>2021-02-28T05:39:58Z</time>
      </trkpt>
      <trkpt lat="45.16401" lon="6.28853">
        <ele>1702</ele>
        <time>2021-02-28T05:39:59Z</time>
      </trkpt>
      <trkpt lat="45.164" lon="6.28854">
        <ele>1701.8</ele>
        <time>2021-02-28T05:40:00Z</time>
      </trkpt>
      <trkpt lat="45.164" lon="6.28854">
        <ele>1701.8</ele>
        <time>2021-02-28T05:40:01Z</time>
      </trkpt>
      <trkpt lat="45.16399" lon="6.28855">
        <ele>1701.8</ele>
        <time>2021-02-28T05:40:02Z</time>
      </trkpt>
      <trkpt lat="45.16398" lon="6.28856">
        <ele>1701.8</ele>
        <time>2021-02-28T05:40:03Z</time>
      </trkpt>
      <trkpt lat="45.16397" lon="6.28856">
        <ele>1701.8</ele>
        <time>2021-02-28T05:40:04Z</time>
      </trkpt>
      <trkpt lat="45.16397" lon="6.28857">
        <ele>1702.2</ele>
        <time>2021-02-28T05:40:05Z</time>
      </trkpt>
      <trkpt lat="45.16396" lon="6.28858">
        <ele>1702.2</ele>
        <time>2021-02-28T05:40:06Z</time>
      </trkpt>
      <trkpt lat="45.16395" lon="6.28858">
        <ele>1702.4</ele>
        <time>2021-02-28T05:40:07Z</time>
      </trkpt>
      <trkpt lat="45.16394" lon="6.28859">
        <ele>1702.6</ele>
        <time>2021-02-28T05:40:08Z</time>
      </trkpt>
      <trkpt lat="45.16393" lon="6.2886">
        <ele>1703</ele>
        <time>2021-02-28T05:40:09Z</time>
      </trkpt>
      <trkpt lat="45.16392" lon="6.2886">
        <ele>1703</ele>
        <time>2021-02-28T05:40:10Z</time>
      </trkpt>
      <trkpt lat="45.16391" lon="6.28861">
        <ele>1703</ele>
        <time>2021-02-28T05:40:11Z</time>
      </trkpt>
      <trkpt lat="45.1639" lon="6.28861">
        <ele>1703.4</ele>
        <time>2021-02-28T05:40:12Z</time>
      </trkpt>
      <trkpt lat="45.16389" lon="6.28861">
        <ele>1703.4</ele>
        <time>2021-02-28T05:40:13Z</time>
      </trkpt>
      <trkpt lat="45.16388" lon="6.28862">
        <ele>1703.4</ele>
        <time>2021-02-28T05:40:14Z</time>
      </trkpt>
      <trkpt lat="45.16386" lon="6.28862">
        <ele>1703.6</ele>
        <time>2021-02-28T05:40:15Z</time>
      </trkpt>
      <trkpt lat="45.16385" lon="6.28863">
        <ele>1703.6</ele>
        <time>2021-02-28T05:40:16Z</time>
      </trkpt>
      <trkpt lat="45.16384" lon="6.28863">
        <ele>1703.2</ele>
        <time>2021-02-28T05:40:17Z</time>
      </trkpt>
      <trkpt lat="45.16383" lon="6.28864">
        <ele>1703.2</ele>
        <time>2021-02-28T05:40:18Z</time>
      </trkpt>
      <trkpt lat="45.16382" lon="6.28865">
        <ele>1703.2</ele>
        <time>2021-02-28T05:40:19Z</time>
      </trkpt>
      <trkpt lat="45.16381" lon="6.28866">
        <ele>1703.4</ele>
        <time>2021-02-28T05:40:20Z</time>
      </trkpt>
      <trkpt lat="45.1638" lon="6.28867">
        <ele>1703.2</ele>
        <time>2021-02-28T05:40:21Z</time>
      </trkpt>
      <trkpt lat="45.16379" lon="6.28868">
        <ele>1703.2</ele>
        <time>2021-02-28T05:40:22Z</time>
      </trkpt>
      <trkpt lat="45.16378" lon="6.2887">
        <ele>1703</ele>
        <time>2021-02-28T05:40:23Z</time>
      </trkpt>
      <trkpt lat="45.16377" lon="6.28871">
        <ele>1702.8</ele>
        <time>2021-02-28T05:40:24Z</time>
      </trkpt>
      <trkpt lat="45.16376" lon="6.28872">
        <ele>1703</ele>
        <time>2021-02-28T05:40:25Z</time>
      </trkpt>
      <trkpt lat="45.16375" lon="6.28873">
        <ele>1702.8</ele>
        <time>2021-02-28T05:40:26Z</time>
      </trkpt>
      <trkpt lat="45.16373" lon="6.28874">
        <ele>1703</ele>
        <time>2021-02-28T05:40:27Z</time>
      </trkpt>
      <trkpt lat="45.16372" lon="6.28876">
        <ele>1703</ele>
        <time>2021-02-28T05:40:28Z</time>
      </trkpt>
      <trkpt lat="45.16371" lon="6.28877">
        <ele>1703</ele>
        <time>2021-02-28T05:40:29Z</time>
      </trkpt>
      <trkpt lat="45.1637" lon="6.28878">
        <ele>1703</ele>
        <time>2021-02-28T05:40:30Z</time>
      </trkpt>
      <trkpt lat="45.16369" lon="6.28879">
        <ele>1703.4</ele>
        <time>2021-02-28T05:40:31Z</time>
      </trkpt>
      <trkpt lat="45.16368" lon="6.2888">
        <ele>1703.4</ele>
        <time>2021-02-28T05:40:32Z</time>
      </trkpt>
      <trkpt lat="45.16366" lon="6.28881">
        <ele>1703.4</ele>
        <time>2021-02-28T05:40:33Z</time>
      </trkpt>
      <trkpt lat="45.16365" lon="6.28882">
        <ele>1703.8</ele>
        <time>2021-02-28T05:40:34Z</time>
      </trkpt>
      <trkpt lat="45.16364" lon="6.28883">
        <ele>1703.8</ele>
        <time>2021-02-28T05:40:35Z</time>
      </trkpt>
      <trkpt lat="45.16362" lon="6.28884">
        <ele>1704.2</ele>
        <time>2021-02-28T05:40:36Z</time>
      </trkpt>
      <trkpt lat="45.16361" lon="6.28885">
        <ele>1704.2</ele>
        <time>2021-02-28T05:40:37Z</time>
      </trkpt>
      <trkpt lat="45.1636" lon="6.28886">
        <ele>1704.4</ele>
        <time>2021-02-28T05:40:38Z</time>
      </trkpt>
      <trkpt lat="45.16358" lon="6.28887">
        <ele>1704.6</ele>
        <time>2021-02-28T05:40:39Z</time>
      </trkpt>
      <trkpt lat="45.16357" lon="6.28888">
        <ele>1705.2</ele>
        <time>2021-02-28T05:40:40Z</time>
      </trkpt>
      <trkpt lat="45.16356" lon="6.28889">
        <ele>1705</ele>
        <time>2021-02-28T05:40:41Z</time>
      </trkpt>
      <trkpt lat="45.16355" lon="6.2889">
        <ele>1705.2</ele>
        <time>2021-02-28T05:40:42Z</time>
      </trkpt>
      <trkpt lat="45.16354" lon="6.28891">
        <ele>1705.8</ele>
        <time>2021-02-28T05:40:43Z</time>
      </trkpt>
      <trkpt lat="45.16353" lon="6.28892">
        <ele>1705.8</ele>
        <time>2021-02-28T05:40:44Z</time>
      </trkpt>
      <trkpt lat="45.16352" lon="6.28893">
        <ele>1706</ele>
        <time>2021-02-28T05:40:45Z</time>
      </trkpt>
      <trkpt lat="45.16351" lon="6.28894">
        <ele>1706</ele>
        <time>2021-02-28T05:40:46Z</time>
      </trkpt>
      <trkpt lat="45.1635" lon="6.28895">
        <ele>1706</ele>
        <time>2021-02-28T05:40:47Z</time>
      </trkpt>
      <trkpt lat="45.1635" lon="6.28896">
        <ele>1706.2</ele>
        <time>2021-02-28T05:40:48Z</time>
      </trkpt>
      <trkpt lat="45.16349" lon="6.28897">
        <ele>1706.6</ele>
        <time>2021-02-28T05:40:49Z</time>
      </trkpt>
      <trkpt lat="45.16348" lon="6.28898">
        <ele>1706.4</ele>
        <time>2021-02-28T05:40:50Z</time>
      </trkpt>
      <trkpt lat="45.16348" lon="6.28899">
        <ele>1706.8</ele>
        <time>2021-02-28T05:40:51Z</time>
      </trkpt>
      <trkpt lat="45.16347" lon="6.28901">
        <ele>1706.8</ele>
        <time>2021-02-28T05:40:52Z</time>
      </trkpt>
      <trkpt lat="45.16346" lon="6.28902">
        <ele>1707</ele>
        <time>2021-02-28T05:40:53Z</time>
      </trkpt>
      <trkpt lat="45.16346" lon="6.28903">
        <ele>1707.2</ele>
        <time>2021-02-28T05:40:54Z</time>
      </trkpt>
      <trkpt lat="45.16345" lon="6.28904">
        <ele>1707.2</ele>
        <time>2021-02-28T05:40:55Z</time>
      </trkpt>
      <trkpt lat="45.16344" lon="6.28905">
        <ele>1707.4</ele>
        <time>2021-02-28T05:40:56Z</time>
      </trkpt>
      <trkpt lat="45.16343" lon="6.28907">
        <ele>1707.6</ele>
        <time>2021-02-28T05:40:57Z</time>
      </trkpt>
      <trkpt lat="45.16343" lon="6.28908">
        <ele>1707.8</ele>
        <time>2021-02-28T05:40:58Z</time>
      </trkpt>
      <trkpt lat="45.16342" lon="6.28909">
        <ele>1708.2</ele>
        <time>2021-02-28T05:40:59Z</time>
      </trkpt>
      <trkpt lat="45.16341" lon="6.2891">
        <ele>1708.2</ele>
        <time>2021-02-28T05:41:00Z</time>
      </trkpt>
      <trkpt lat="45.1634" lon="6.28911">
        <ele>1708.4</ele>
        <time>2021-02-28T05:41:01Z</time>
      </trkpt>
      <trkpt lat="45.16339" lon="6.28913">
        <ele>1708.4</ele>
        <time>2021-02-28T05:41:02Z</time>
      </trkpt>
      <trkpt lat="45.16339" lon="6.28914">
        <ele>1708.2</ele>
        <time>2021-02-28T05:41:03Z</time>
      </trkpt>
      <trkpt lat="45.16338" lon="6.28915">
        <ele>1708.4</ele>
        <time>2021-02-28T05:41:04Z</time>
      </trkpt>
      <trkpt lat="45.16337" lon="6.28916">
        <ele>1708.4</ele>
        <time>2021-02-28T05:41:05Z</time>
      </trkpt>
      <trkpt lat="45.16336" lon="6.28918">
        <ele>1708.4</ele>
        <time>2021-02-28T05:41:06Z</time>
      </trkpt>
      <trkpt lat="45.16335" lon="6.2892">
        <ele>1708.4</ele>
        <time>2021-02-28T05:41:07Z</time>
      </trkpt>
      <trkpt lat="45.16334" lon="6.28922">
        <ele>1708.4</ele>
        <time>2021-02-28T05:41:08Z</time>
      </trkpt>
      <trkpt lat="45.16333" lon="6.28923">
        <ele>1708.6</ele>
        <time>2021-02-28T05:41:09Z</time>
      </trkpt>
      <trkpt lat="45.16333" lon="6.28925">
        <ele>1708.4</ele>
        <time>2021-02-28T05:41:10Z</time>
      </trkpt>
      <trkpt lat="45.16332" lon="6.28927">
        <ele>1708.4</ele>
        <time>2021-02-28T05:41:11Z</time>
      </trkpt>
      <trkpt lat="45.16331" lon="6.28928">
        <ele>1708.6</ele>
        <time>2021-02-28T05:41:12Z</time>
      </trkpt>
      <trkpt lat="45.1633" lon="6.28929">
        <ele>1708.4</ele>
        <time>2021-02-28T05:41:13Z</time>
      </trkpt>
      <trkpt lat="45.16329" lon="6.2893">
        <ele>1708.6</ele>
        <time>2021-02-28T05:41:14Z</time>
      </trkpt>
      <trkpt lat="45.16329" lon="6.28931">
        <ele>1708.6</ele>
        <time>2021-02-28T05:41:15Z</time>
      </trkpt>
      <trkpt lat="45.16328" lon="6.28932">
        <ele>1708.6</ele>
        <time>2021-02-28T05:41:16Z</time>
      </trkpt>
      <trkpt lat="45.16327" lon="6.28933">
        <ele>1708.4</ele>
        <time>2021-02-28T05:41:17Z</time>
      </trkpt>
      <trkpt lat="45.16326" lon="6.28934">
        <ele>1708</ele>
        <time>2021-02-28T05:41:18Z</time>
      </trkpt>
      <trkpt lat="45.16326" lon="6.28935">
        <ele>1707.4</ele>
        <time>2021-02-28T05:41:19Z</time>
      </trkpt>
      <trkpt lat="45.16325" lon="6.28935">
        <ele>1707.2</ele>
        <time>2021-02-28T05:41:20Z</time>
      </trkpt>
      <trkpt lat="45.16325" lon="6.28936">
        <ele>1706.6</ele>
        <time>2021-02-28T05:41:21Z</time>
      </trkpt>
      <trkpt lat="45.16324" lon="6.28937">
        <ele>1706.8</ele>
        <time>2021-02-28T05:41:22Z</time>
      </trkpt>
      <trkpt lat="45.16324" lon="6.28937">
        <ele>1707</ele>
        <time>2021-02-28T05:41:23Z</time>
      </trkpt>
      <trkpt lat="45.16323" lon="6.28938">
        <ele>1707</ele>
        <time>2021-02-28T05:41:24Z</time>
      </trkpt>
      <trkpt lat="45.16323" lon="6.28939">
        <ele>1706.8</ele>
        <time>2021-02-28T05:41:25Z</time>
      </trkpt>
      <trkpt lat="45.16322" lon="6.2894">
        <ele>1706.6</ele>
        <time>2021-02-28T05:41:26Z</time>
      </trkpt>
      <trkpt lat="45.16322" lon="6.2894">
        <ele>1706.6</ele>
        <time>2021-02-28T05:41:27Z</time>
      </trkpt>
      <trkpt lat="45.16321" lon="6.28941">
        <ele>1706.4</ele>
        <time>2021-02-28T05:41:28Z</time>
      </trkpt>
      <trkpt lat="45.16321" lon="6.28942">
        <ele>1706.4</ele>
        <time>2021-02-28T05:41:29Z</time>
      </trkpt>
      <trkpt lat="45.1632" lon="6.28942">
        <ele>1706</ele>
        <time>2021-02-28T05:41:30Z</time>
      </trkpt>
      <trkpt lat="45.1632" lon="6.28943">
        <ele>1706</ele>
        <time>2021-02-28T05:41:31Z</time>
      </trkpt>
      <trkpt lat="45.16319" lon="6.28944">
        <ele>1706</ele>
        <time>2021-02-28T05:41:32Z</time>
      </trkpt>
      <trkpt lat="45.16318" lon="6.28944">
        <ele>1705.8</ele>
        <time>2021-02-28T05:41:33Z</time>
      </trkpt>
      <trkpt lat="45.16317" lon="6.28944">
        <ele>1705.6</ele>
        <time>2021-02-28T05:41:34Z</time>
      </trkpt>
      <trkpt lat="45.16316" lon="6.28945">
        <ele>1705.6</ele>
        <time>2021-02-28T05:41:35Z</time>
      </trkpt>
      <trkpt lat="45.16315" lon="6.28945">
        <ele>1705.6</ele>
        <time>2021-02-28T05:41:36Z</time>
      </trkpt>
      <trkpt lat="45.16314" lon="6.28945">
        <ele>1705.4</ele>
        <time>2021-02-28T05:41:37Z</time>
      </trkpt>
      <trkpt lat="45.16312" lon="6.28946">
        <ele>1705.4</ele>
        <time>2021-02-28T05:41:38Z</time>
      </trkpt>
      <trkpt lat="45.16311" lon="6.28946">
        <ele>1705.2</ele>
        <time>2021-02-28T05:41:39Z</time>
      </trkpt>
      <trkpt lat="45.1631" lon="6.28946">
        <ele>1705.2</ele>
        <time>2021-02-28T05:41:40Z</time>
      </trkpt>
      <trkpt lat="45.16309" lon="6.28947">
        <ele>1705.2</ele>
        <time>2021-02-28T05:41:41Z</time>
      </trkpt>
      <trkpt lat="45.16308" lon="6.28949">
        <ele>1705</ele>
        <time>2021-02-28T05:41:42Z</time>
      </trkpt>
      <trkpt lat="45.16306" lon="6.2895">
        <ele>1704.8</ele>
        <time>2021-02-28T05:41:43Z</time>
      </trkpt>
      <trkpt lat="45.16305" lon="6.28951">
        <ele>1704.6</ele>
        <time>2021-02-28T05:41:44Z</time>
      </trkpt>
      <trkpt lat="45.16304" lon="6.28952">
        <ele>1704.4</ele>
        <time>2021-02-28T05:41:45Z</time>
      </trkpt>
      <trkpt lat="45.16303" lon="6.28953">
        <ele>1704.2</ele>
        <time>2021-02-28T05:41:46Z</time>
      </trkpt>
      <trkpt lat="45.16301" lon="6.28954">
        <ele>1704</ele>
        <time>2021-02-28T05:41:47Z</time>
      </trkpt>
      <trkpt lat="45.163" lon="6.28955">
        <ele>1703.6</ele>
        <time>2021-02-28T05:41:48Z</time>
      </trkpt>
      <trkpt lat="45.16299" lon="6.28955">
        <ele>1703.6</ele>
        <time>2021-02-28T05:41:49Z</time>
      </trkpt>
      <trkpt lat="45.16298" lon="6.28956">
        <ele>1703.4</ele>
        <time>2021-02-28T05:41:50Z</time>
      </trkpt>
      <trkpt lat="45.16297" lon="6.28956">
        <ele>1703.4</ele>
        <time>2021-02-28T05:41:51Z</time>
      </trkpt>
      <trkpt lat="45.16296" lon="6.28957">
        <ele>1703.4</ele>
        <time>2021-02-28T05:41:52Z</time>
      </trkpt>
      <trkpt lat="45.16295" lon="6.28957">
        <ele>1703.2</ele>
        <time>2021-02-28T05:41:53Z</time>
      </trkpt>
      <trkpt lat="45.16294" lon="6.28958">
        <ele>1703</ele>
        <time>2021-02-28T05:41:54Z</time>
      </trkpt>
      <trkpt lat="45.16293" lon="6.28958">
        <ele>1702.8</ele>
        <time>2021-02-28T05:41:55Z</time>
      </trkpt>
      <trkpt lat="45.16292" lon="6.2896">
        <ele>1702.8</ele>
        <time>2021-02-28T05:41:56Z</time>
      </trkpt>
      <trkpt lat="45.16291" lon="6.28961">
        <ele>1702.4</ele>
        <time>2021-02-28T05:41:57Z</time>
      </trkpt>
      <trkpt lat="45.1629" lon="6.28962">
        <ele>1702.4</ele>
        <time>2021-02-28T05:41:58Z</time>
      </trkpt>
      <trkpt lat="45.16289" lon="6.28963">
        <ele>1702.2</ele>
        <time>2021-02-28T05:41:59Z</time>
      </trkpt>
      <trkpt lat="45.16288" lon="6.28965">
        <ele>1702</ele>
        <time>2021-02-28T05:42:00Z</time>
      </trkpt>
      <trkpt lat="45.16287" lon="6.28966">
        <ele>1701.8</ele>
        <time>2021-02-28T05:42:01Z</time>
      </trkpt>
      <trkpt lat="45.16286" lon="6.28967">
        <ele>1701.6</ele>
        <time>2021-02-28T05:42:02Z</time>
      </trkpt>
      <trkpt lat="45.16285" lon="6.28969">
        <ele>1701.2</ele>
        <time>2021-02-28T05:42:03Z</time>
      </trkpt>
      <trkpt lat="45.16284" lon="6.2897">
        <ele>1701</ele>
        <time>2021-02-28T05:42:04Z</time>
      </trkpt>
      <trkpt lat="45.16284" lon="6.28972">
        <ele>1700.8</ele>
        <time>2021-02-28T05:42:05Z</time>
      </trkpt>
      <trkpt lat="45.16283" lon="6.28973">
        <ele>1700.6</ele>
        <time>2021-02-28T05:42:06Z</time>
      </trkpt>
      <trkpt lat="45.16282" lon="6.28975">
        <ele>1700.4</ele>
        <time>2021-02-28T05:42:07Z</time>
      </trkpt>
      <trkpt lat="45.16281" lon="6.28976">
        <ele>1700.4</ele>
        <time>2021-02-28T05:42:08Z</time>
      </trkpt>
      <trkpt lat="45.16281" lon="6.28978">
        <ele>1699.8</ele>
        <time>2021-02-28T05:42:09Z</time>
      </trkpt>
      <trkpt lat="45.1628" lon="6.28979">
        <ele>1699.8</ele>
        <time>2021-02-28T05:42:10Z</time>
      </trkpt>
      <trkpt lat="45.16279" lon="6.28981">
        <ele>1699.4</ele>
        <time>2021-02-28T05:42:11Z</time>
      </trkpt>
      <trkpt lat="45.16277" lon="6.28981">
        <ele>1699</ele>
        <time>2021-02-28T05:42:12Z</time>
      </trkpt>
      <trkpt lat="45.16274" lon="6.28981">
        <ele>1698.6</ele>
        <time>2021-02-28T05:42:13Z</time>
      </trkpt>
      <trkpt lat="45.16272" lon="6.28981">
        <ele>1698</ele>
        <time>2021-02-28T05:42:14Z</time>
      </trkpt>
      <trkpt lat="45.1627" lon="6.28981">
        <ele>1697.6</ele>
        <time>2021-02-28T05:42:15Z</time>
      </trkpt>
      <trkpt lat="45.16267" lon="6.28981">
        <ele>1697.8</ele>
        <time>2021-02-28T05:42:16Z</time>
      </trkpt>
      <trkpt lat="45.16265" lon="6.28981">
        <ele>1697.4</ele>
        <time>2021-02-28T05:42:17Z</time>
      </trkpt>
      <trkpt lat="45.16262" lon="6.28981">
        <ele>1697</ele>
        <time>2021-02-28T05:42:18Z</time>
      </trkpt>
      <trkpt lat="45.1626" lon="6.28981">
        <ele>1696.8</ele>
        <time>2021-02-28T05:42:19Z</time>
      </trkpt>
      <trkpt lat="45.16258" lon="6.2898">
        <ele>1696.6</ele>
        <time>2021-02-28T05:42:20Z</time>
      </trkpt>
      <trkpt lat="45.16257" lon="6.2898">
        <ele>1696.4</ele>
        <time>2021-02-28T05:42:21Z</time>
      </trkpt>
      <trkpt lat="45.16255" lon="6.28979">
        <ele>1696</ele>
        <time>2021-02-28T05:42:22Z</time>
      </trkpt>
      <trkpt lat="45.16254" lon="6.28979">
        <ele>1696</ele>
        <time>2021-02-28T05:42:23Z</time>
      </trkpt>
      <trkpt lat="45.16252" lon="6.28979">
        <ele>1695.8</ele>
        <time>2021-02-28T05:42:24Z</time>
      </trkpt>
      <trkpt lat="45.16251" lon="6.28978">
        <ele>1695.6</ele>
        <time>2021-02-28T05:42:25Z</time>
      </trkpt>
      <trkpt lat="45.1625" lon="6.28979">
        <ele>1695.2</ele>
        <time>2021-02-28T05:42:26Z</time>
      </trkpt>
      <trkpt lat="45.16249" lon="6.28979">
        <ele>1695.2</ele>
        <time>2021-02-28T05:42:27Z</time>
      </trkpt>
      <trkpt lat="45.16249" lon="6.2898">
        <ele>1695.2</ele>
        <time>2021-02-28T05:42:28Z</time>
      </trkpt>
      <trkpt lat="45.16248" lon="6.2898">
        <ele>1695.2</ele>
        <time>2021-02-28T05:42:29Z</time>
      </trkpt>
      <trkpt lat="45.16247" lon="6.28981">
        <ele>1695</ele>
        <time>2021-02-28T05:42:30Z</time>
      </trkpt>
      <trkpt lat="45.16247" lon="6.28981">
        <ele>1695</ele>
        <time>2021-02-28T05:42:31Z</time>
      </trkpt>
      <trkpt lat="45.16246" lon="6.28982">
        <ele>1694.6</ele>
        <time>2021-02-28T05:42:32Z</time>
      </trkpt>
      <trkpt lat="45.16245" lon="6.28982">
        <ele>1694.6</ele>
        <time>2021-02-28T05:42:33Z</time>
      </trkpt>
      <trkpt lat="45.16245" lon="6.28983">
        <ele>1694.2</ele>
        <time>2021-02-28T05:42:34Z</time>
      </trkpt>
      <trkpt lat="45.16244" lon="6.28983">
        <ele>1694.2</ele>
        <time>2021-02-28T05:42:35Z</time>
      </trkpt>
      <trkpt lat="45.16243" lon="6.28984">
        <ele>1694.2</ele>
        <time>2021-02-28T05:42:36Z</time>
      </trkpt>
      <trkpt lat="45.16243" lon="6.28984">
        <ele>1694</ele>
        <time>2021-02-28T05:42:37Z</time>
      </trkpt>
      <trkpt lat="45.16242" lon="6.28985">
        <ele>1694.2</ele>
        <time>2021-02-28T05:42:38Z</time>
      </trkpt>
      <trkpt lat="45.16242" lon="6.28987">
        <ele>1694</ele>
        <time>2021-02-28T05:42:39Z</time>
      </trkpt>
      <trkpt lat="45.16242" lon="6.28989">
        <ele>1694.2</ele>
        <time>2021-02-28T05:42:40Z</time>
      </trkpt>
      <trkpt lat="45.16241" lon="6.28991">
        <ele>1694</ele>
        <time>2021-02-28T05:42:41Z</time>
      </trkpt>
      <trkpt lat="45.16241" lon="6.28993">
        <ele>1694</ele>
        <time>2021-02-28T05:42:42Z</time>
      </trkpt>
      <trkpt lat="45.16241" lon="6.28995">
        <ele>1693.8</ele>
        <time>2021-02-28T05:42:43Z</time>
      </trkpt>
      <trkpt lat="45.16241" lon="6.28998">
        <ele>1693.6</ele>
        <time>2021-02-28T05:42:44Z</time>
      </trkpt>
      <trkpt lat="45.1624" lon="6.29">
        <ele>1693.6</ele>
        <time>2021-02-28T05:42:45Z</time>
      </trkpt>
      <trkpt lat="45.1624" lon="6.29002">
        <ele>1693.2</ele>
        <time>2021-02-28T05:42:46Z</time>
      </trkpt>
      <trkpt lat="45.1624" lon="6.29002">
        <ele>1693</ele>
        <time>2021-02-28T05:42:47Z</time>
      </trkpt>
      <trkpt lat="45.1624" lon="6.29002">
        <ele>1692.8</ele>
        <time>2021-02-28T05:42:48Z</time>
      </trkpt>
      <trkpt lat="45.16239" lon="6.29004">
        <ele>1692.4</ele>
        <time>2021-02-28T05:42:49Z</time>
      </trkpt>
      <trkpt lat="45.16238" lon="6.29007">
        <ele>1692.2</ele>
        <time>2021-02-28T05:42:50Z</time>
      </trkpt>
      <trkpt lat="45.16237" lon="6.29009">
        <ele>1692.2</ele>
        <time>2021-02-28T05:42:51Z</time>
      </trkpt>
      <trkpt lat="45.16236" lon="6.29012">
        <ele>1691.8</ele>
        <time>2021-02-28T05:42:52Z</time>
      </trkpt>
      <trkpt lat="45.16236" lon="6.29012">
        <ele>1691.6</ele>
        <time>2021-02-28T05:42:53Z</time>
      </trkpt>
      <trkpt lat="45.16234" lon="6.29014">
        <ele>1691.2</ele>
        <time>2021-02-28T05:42:54Z</time>
      </trkpt>
      <trkpt lat="45.16234" lon="6.29014">
        <ele>1691</ele>
        <time>2021-02-28T05:42:55Z</time>
      </trkpt>
      <trkpt lat="45.16232" lon="6.29015">
        <ele>1691</ele>
        <time>2021-02-28T05:42:56Z</time>
      </trkpt>
      <trkpt lat="45.16232" lon="6.29015">
        <ele>1691</ele>
        <time>2021-02-28T05:42:57Z</time>
      </trkpt>
      <trkpt lat="45.16232" lon="6.29015">
        <ele>1690.6</ele>
        <time>2021-02-28T05:42:58Z</time>
      </trkpt>
      <trkpt lat="45.16232" lon="6.29015">
        <ele>1690.8</ele>
        <time>2021-02-28T05:42:59Z</time>
      </trkpt>
      <trkpt lat="45.1623" lon="6.29014">
        <ele>1690.6</ele>
        <time>2021-02-28T05:43:00Z</time>
      </trkpt>
      <trkpt lat="45.1623" lon="6.29014">
        <ele>1691</ele>
        <time>2021-02-28T05:43:01Z</time>
      </trkpt>
      <trkpt lat="45.1623" lon="6.29014">
        <ele>1690.8</ele>
        <time>2021-02-28T05:43:02Z</time>
      </trkpt>
      <trkpt lat="45.1623" lon="6.29014">
        <ele>1690.6</ele>
        <time>2021-02-28T05:43:03Z</time>
      </trkpt>
      <trkpt lat="45.1623" lon="6.29014">
        <ele>1690</ele>
        <time>2021-02-28T05:43:04Z</time>
      </trkpt>
      <trkpt lat="45.1623" lon="6.29014">
        <ele>1690</ele>
        <time>2021-02-28T05:43:05Z</time>
      </trkpt>
      <trkpt lat="45.1623" lon="6.29014">
        <ele>1690</ele>
        <time>2021-02-28T05:43:06Z</time>
      </trkpt>
      <trkpt lat="45.1623" lon="6.29014">
        <ele>1690.6</ele>
        <time>2021-02-28T05:43:07Z</time>
      </trkpt>
      <trkpt lat="45.16228" lon="6.29012">
        <ele>1690.8</ele>
        <time>2021-02-28T05:43:08Z</time>
      </trkpt>
      <trkpt lat="45.16228" lon="6.29012">
        <ele>1690.8</ele>
        <time>2021-02-28T05:43:09Z</time>
      </trkpt>
      <trkpt lat="45.16228" lon="6.29012">
        <ele>1690.6</ele>
        <time>2021-02-28T05:43:10Z</time>
      </trkpt>
      <trkpt lat="45.16226" lon="6.2901">
        <ele>1690.4</ele>
        <time>2021-02-28T05:43:11Z</time>
      </trkpt>
      <trkpt lat="45.16226" lon="6.2901">
        <ele>1690.2</ele>
        <time>2021-02-28T05:43:12Z</time>
      </trkpt>
      <trkpt lat="45.16226" lon="6.2901">
        <ele>1690</ele>
        <time>2021-02-28T05:43:13Z</time>
      </trkpt>
      <trkpt lat="45.16224" lon="6.29009">
        <ele>1690</ele>
        <time>2021-02-28T05:43:14Z</time>
      </trkpt>
      <trkpt lat="45.16222" lon="6.29009">
        <ele>1690.4</ele>
        <time>2021-02-28T05:43:15Z</time>
      </trkpt>
      <trkpt lat="45.16221" lon="6.29007">
        <ele>1690.6</ele>
        <time>2021-02-28T05:43:16Z</time>
      </trkpt>
      <trkpt lat="45.16221" lon="6.29007">
        <ele>1690.2</ele>
        <time>2021-02-28T05:43:17Z</time>
      </trkpt>
      <trkpt lat="45.1622" lon="6.29004">
        <ele>1690.6</ele>
        <time>2021-02-28T05:43:18Z</time>
      </trkpt>
      <trkpt lat="45.1622" lon="6.29004">
        <ele>1690.8</ele>
        <time>2021-02-28T05:43:19Z</time>
      </trkpt>
      <trkpt lat="45.1622" lon="6.29004">
        <ele>1691</ele>
        <time>2021-02-28T05:43:20Z</time>
      </trkpt>
      <trkpt lat="45.16218" lon="6.29003">
        <ele>1691</ele>
        <time>2021-02-28T05:43:21Z</time>
      </trkpt>
      <trkpt lat="45.16218" lon="6.29003">
        <ele>1691</ele>
        <time>2021-02-28T05:43:22Z</time>
      </trkpt>
      <trkpt lat="45.16218" lon="6.29003">
        <ele>1690.8</ele>
        <time>2021-02-28T05:43:23Z</time>
      </trkpt>
      <trkpt lat="45.16217" lon="6.29003">
        <ele>1691</ele>
        <time>2021-02-28T05:43:24Z</time>
      </trkpt>
      <trkpt lat="45.16217" lon="6.29002">
        <ele>1691.2</ele>
        <time>2021-02-28T05:43:25Z</time>
      </trkpt>
      <trkpt lat="45.16217" lon="6.29002">
        <ele>1691.2</ele>
        <time>2021-02-28T05:43:26Z</time>
      </trkpt>
      <trkpt lat="45.16217" lon="6.29001">
        <ele>1691.2</ele>
        <time>2021-02-28T05:43:27Z</time>
      </trkpt>
      <trkpt lat="45.16217" lon="6.29001">
        <ele>1691.4</ele>
        <time>2021-02-28T05:43:28Z</time>
      </trkpt>
      <trkpt lat="45.16216" lon="6.29001">
        <ele>1691.4</ele>
        <time>2021-02-28T05:43:29Z</time>
      </trkpt>
      <trkpt lat="45.16216" lon="6.29">
        <ele>1691.4</ele>
        <time>2021-02-28T05:43:30Z</time>
      </trkpt>
      <trkpt lat="45.16216" lon="6.29">
        <ele>1691.2</ele>
        <time>2021-02-28T05:43:31Z</time>
      </trkpt>
      <trkpt lat="45.16216" lon="6.28999">
        <ele>1691.4</ele>
        <time>2021-02-28T05:43:32Z</time>
      </trkpt>
      <trkpt lat="45.16216" lon="6.28999">
        <ele>1691.4</ele>
        <time>2021-02-28T05:43:33Z</time>
      </trkpt>
      <trkpt lat="45.16215" lon="6.28998">
        <ele>1691.4</ele>
        <time>2021-02-28T05:43:34Z</time>
      </trkpt>
      <trkpt lat="45.16215" lon="6.28998">
        <ele>1691.4</ele>
        <time>2021-02-28T05:43:35Z</time>
      </trkpt>
      <trkpt lat="45.16215" lon="6.28997">
        <ele>1691.4</ele>
        <time>2021-02-28T05:43:36Z</time>
      </trkpt>
      <trkpt lat="45.16215" lon="6.28997">
        <ele>1690.8</ele>
        <time>2021-02-28T05:43:37Z</time>
      </trkpt>
      <trkpt lat="45.16215" lon="6.28996">
        <ele>1690.8</ele>
        <time>2021-02-28T05:43:38Z</time>
      </trkpt>
      <trkpt lat="45.16214" lon="6.28996">
        <ele>1691</ele>
        <time>2021-02-28T05:43:39Z</time>
      </trkpt>
      <trkpt lat="45.16214" lon="6.28995">
        <ele>1691.2</ele>
        <time>2021-02-28T05:43:40Z</time>
      </trkpt>
      <trkpt lat="45.16214" lon="6.28995">
        <ele>1691.2</ele>
        <time>2021-02-28T05:43:41Z</time>
      </trkpt>
      <trkpt lat="45.16214" lon="6.28995">
        <ele>1691.8</ele>
        <time>2021-02-28T05:43:42Z</time>
      </trkpt>
      <trkpt lat="45.16213" lon="6.28994">
        <ele>1691.8</ele>
        <time>2021-02-28T05:43:43Z</time>
      </trkpt>
      <trkpt lat="45.16213" lon="6.28994">
        <ele>1691.8</ele>
        <time>2021-02-28T05:43:44Z</time>
      </trkpt>
      <trkpt lat="45.16213" lon="6.28993">
        <ele>1692.2</ele>
        <time>2021-02-28T05:43:45Z</time>
      </trkpt>
      <trkpt lat="45.16213" lon="6.28993">
        <ele>1692</ele>
        <time>2021-02-28T05:43:46Z</time>
      </trkpt>
      <trkpt lat="45.16213" lon="6.28992">
        <ele>1692.4</ele>
        <time>2021-02-28T05:43:47Z</time>
      </trkpt>
      <trkpt lat="45.16211" lon="6.2899">
        <ele>1692.8</ele>
        <time>2021-02-28T05:43:48Z</time>
      </trkpt>
      <trkpt lat="45.1621" lon="6.28989">
        <ele>1693</ele>
        <time>2021-02-28T05:43:49Z</time>
      </trkpt>
      <trkpt lat="45.16209" lon="6.28987">
        <ele>1693.2</ele>
        <time>2021-02-28T05:43:50Z</time>
      </trkpt>
      <trkpt lat="45.16208" lon="6.28985">
        <ele>1693.6</ele>
        <time>2021-02-28T05:43:51Z</time>
      </trkpt>
      <trkpt lat="45.16208" lon="6.28985">
        <ele>1693.6</ele>
        <time>2021-02-28T05:43:52Z</time>
      </trkpt>
      <trkpt lat="45.16208" lon="6.28985">
        <ele>1693.6</ele>
        <time>2021-02-28T05:43:53Z</time>
      </trkpt>
      <trkpt lat="45.16207" lon="6.28984">
        <ele>1694.2</ele>
        <time>2021-02-28T05:43:54Z</time>
      </trkpt>
      <trkpt lat="45.16206" lon="6.28982">
        <ele>1694.6</ele>
        <time>2021-02-28T05:43:55Z</time>
      </trkpt>
      <trkpt lat="45.16206" lon="6.28981">
        <ele>1694.8</ele>
        <time>2021-02-28T05:43:56Z</time>
      </trkpt>
      <trkpt lat="45.16205" lon="6.2898">
        <ele>1695</ele>
        <time>2021-02-28T05:43:57Z</time>
      </trkpt>
      <trkpt lat="45.16204" lon="6.28979">
        <ele>1695.2</ele>
        <time>2021-02-28T05:43:58Z</time>
      </trkpt>
      <trkpt lat="45.16204" lon="6.28977">
        <ele>1695.6</ele>
        <time>2021-02-28T05:43:59Z</time>
      </trkpt>
      <trkpt lat="45.16203" lon="6.28976">
        <ele>1695.6</ele>
        <time>2021-02-28T05:44:00Z</time>
      </trkpt>
      <trkpt lat="45.16202" lon="6.28975">
        <ele>1696</ele>
        <time>2021-02-28T05:44:01Z</time>
      </trkpt>
      <trkpt lat="45.16201" lon="6.28973">
        <ele>1696.4</ele>
        <time>2021-02-28T05:44:02Z</time>
      </trkpt>
      <trkpt lat="45.16201" lon="6.28972">
        <ele>1696.6</ele>
        <time>2021-02-28T05:44:03Z</time>
      </trkpt>
      <trkpt lat="45.162" lon="6.28971">
        <ele>1697.4</ele>
        <time>2021-02-28T05:44:04Z</time>
      </trkpt>
      <trkpt lat="45.16199" lon="6.2897">
        <ele>1697.4</ele>
        <time>2021-02-28T05:44:05Z</time>
      </trkpt>
      <trkpt lat="45.16198" lon="6.28969">
        <ele>1697.8</ele>
        <time>2021-02-28T05:44:06Z</time>
      </trkpt>
      <trkpt lat="45.16197" lon="6.28968">
        <ele>1698</ele>
        <time>2021-02-28T05:44:07Z</time>
      </trkpt>
      <trkpt lat="45.16197" lon="6.28966">
        <ele>1698.2</ele>
        <time>2021-02-28T05:44:08Z</time>
      </trkpt>
      <trkpt lat="45.16196" lon="6.28965">
        <ele>1698.6</ele>
        <time>2021-02-28T05:44:09Z</time>
      </trkpt>
      <trkpt lat="45.16194" lon="6.28961">
        <ele>1698.8</ele>
        <time>2021-02-28T05:44:10Z</time>
      </trkpt>
      <trkpt lat="45.16194" lon="6.28961">
        <ele>1699</ele>
        <time>2021-02-28T05:44:11Z</time>
      </trkpt>
      <trkpt lat="45.16192" lon="6.2896">
        <ele>1699.6</ele>
        <time>2021-02-28T05:44:12Z</time>
      </trkpt>
      <trkpt lat="45.16192" lon="6.2896">
        <ele>1699.8</ele>
        <time>2021-02-28T05:44:13Z</time>
      </trkpt>
      <trkpt lat="45.16189" lon="6.28959">
        <ele>1700.2</ele>
        <time>2021-02-28T05:44:14Z</time>
      </trkpt>
      <trkpt lat="45.16189" lon="6.28959">
        <ele>1700.4</ele>
        <time>2021-02-28T05:44:15Z</time>
      </trkpt>
      <trkpt lat="45.16189" lon="6.28959">
        <ele>1700.8</ele>
        <time>2021-02-28T05:44:16Z</time>
      </trkpt>
      <trkpt lat="45.16189" lon="6.28959">
        <ele>1701</ele>
        <time>2021-02-28T05:44:17Z</time>
      </trkpt>
      <trkpt lat="45.16188" lon="6.28959">
        <ele>1701.6</ele>
        <time>2021-02-28T05:44:18Z</time>
      </trkpt>
      <trkpt lat="45.16188" lon="6.28958">
        <ele>1701.6</ele>
        <time>2021-02-28T05:44:19Z</time>
      </trkpt>
      <trkpt lat="45.16187" lon="6.28958">
        <ele>1702</ele>
        <time>2021-02-28T05:44:20Z</time>
      </trkpt>
      <trkpt lat="45.16186" lon="6.28958">
        <ele>1702.6</ele>
        <time>2021-02-28T05:44:21Z</time>
      </trkpt>
      <trkpt lat="45.16186" lon="6.28958">
        <ele>1702.8</ele>
        <time>2021-02-28T05:44:22Z</time>
      </trkpt>
      <trkpt lat="45.16185" lon="6.28957">
        <ele>1703</ele>
        <time>2021-02-28T05:44:23Z</time>
      </trkpt>
      <trkpt lat="45.16185" lon="6.28957">
        <ele>1703.6</ele>
        <time>2021-02-28T05:44:24Z</time>
      </trkpt>
      <trkpt lat="45.16184" lon="6.28957">
        <ele>1703.8</ele>
        <time>2021-02-28T05:44:25Z</time>
      </trkpt>
      <trkpt lat="45.16183" lon="6.28957">
        <ele>1704</ele>
        <time>2021-02-28T05:44:26Z</time>
      </trkpt>
      <trkpt lat="45.16183" lon="6.28956">
        <ele>1704.2</ele>
        <time>2021-02-28T05:44:27Z</time>
      </trkpt>
      <trkpt lat="45.16182" lon="6.28956">
        <ele>1704.6</ele>
        <time>2021-02-28T05:44:28Z</time>
      </trkpt>
      <trkpt lat="45.16182" lon="6.28956">
        <ele>1705.2</ele>
        <time>2021-02-28T05:44:29Z</time>
      </trkpt>
      <trkpt lat="45.16181" lon="6.28955">
        <ele>1705.6</ele>
        <time>2021-02-28T05:44:30Z</time>
      </trkpt>
      <trkpt lat="45.1618" lon="6.28955">
        <ele>1705.8</ele>
        <time>2021-02-28T05:44:31Z</time>
      </trkpt>
      <trkpt lat="45.16179" lon="6.28955">
        <ele>1706.2</ele>
        <time>2021-02-28T05:44:32Z</time>
      </trkpt>
      <trkpt lat="45.16178" lon="6.28955">
        <ele>1706.4</ele>
        <time>2021-02-28T05:44:33Z</time>
      </trkpt>
      <trkpt lat="45.16177" lon="6.28955">
        <ele>1706.6</ele>
        <time>2021-02-28T05:44:34Z</time>
      </trkpt>
      <trkpt lat="45.16176" lon="6.28954">
        <ele>1706.8</ele>
        <time>2021-02-28T05:44:35Z</time>
      </trkpt>
      <trkpt lat="45.16175" lon="6.28954">
        <ele>1707.2</ele>
        <time>2021-02-28T05:44:36Z</time>
      </trkpt>
      <trkpt lat="45.16174" lon="6.28954">
        <ele>1707.4</ele>
        <time>2021-02-28T05:44:37Z</time>
      </trkpt>
      <trkpt lat="45.16173" lon="6.28954">
        <ele>1707.6</ele>
        <time>2021-02-28T05:44:38Z</time>
      </trkpt>
      <trkpt lat="45.16172" lon="6.28954">
        <ele>1708.2</ele>
        <time>2021-02-28T05:44:39Z</time>
      </trkpt>
      <trkpt lat="45.16172" lon="6.28954">
        <ele>1708.4</ele>
        <time>2021-02-28T05:44:40Z</time>
      </trkpt>
      <trkpt lat="45.16172" lon="6.28955">
        <ele>1708.8</ele>
        <time>2021-02-28T05:44:41Z</time>
      </trkpt>
      <trkpt lat="45.16172" lon="6.28955">
        <ele>1709.2</ele>
        <time>2021-02-28T05:44:42Z</time>
      </trkpt>
      <trkpt lat="45.16173" lon="6.28956">
        <ele>1709.4</ele>
        <time>2021-02-28T05:44:43Z</time>
      </trkpt>
      <trkpt lat="45.16173" lon="6.28956">
        <ele>1709.4</ele>
        <time>2021-02-28T05:44:44Z</time>
      </trkpt>
      <trkpt lat="45.16173" lon="6.28957">
        <ele>1709.8</ele>
        <time>2021-02-28T05:44:45Z</time>
      </trkpt>
      <trkpt lat="45.16173" lon="6.28957">
        <ele>1710.2</ele>
        <time>2021-02-28T05:44:46Z</time>
      </trkpt>
      <trkpt lat="45.16173" lon="6.28958">
        <ele>1710.6</ele>
        <time>2021-02-28T05:44:47Z</time>
      </trkpt>
      <trkpt lat="45.16173" lon="6.28958">
        <ele>1711</ele>
        <time>2021-02-28T05:44:48Z</time>
      </trkpt>
      <trkpt lat="45.16173" lon="6.28959">
        <ele>1711.2</ele>
        <time>2021-02-28T05:44:49Z</time>
      </trkpt>
      <trkpt lat="45.16173" lon="6.28959">
        <ele>1711.6</ele>
        <time>2021-02-28T05:44:50Z</time>
      </trkpt>
      <trkpt lat="45.16173" lon="6.2896">
        <ele>1712</ele>
        <time>2021-02-28T05:44:51Z</time>
      </trkpt>
      <trkpt lat="45.16174" lon="6.2896">
        <ele>1712</ele>
        <time>2021-02-28T05:44:52Z</time>
      </trkpt>
      <trkpt lat="45.16174" lon="6.28961">
        <ele>1712.4</ele>
        <time>2021-02-28T05:44:53Z</time>
      </trkpt>
      <trkpt lat="45.16174" lon="6.28961">
        <ele>1712.6</ele>
        <time>2021-02-28T05:44:54Z</time>
      </trkpt>
      <trkpt lat="45.16174" lon="6.28962">
        <ele>1712.6</ele>
        <time>2021-02-28T05:44:55Z</time>
      </trkpt>
      <trkpt lat="45.16174" lon="6.28962">
        <ele>1712.8</ele>
        <time>2021-02-28T05:44:56Z</time>
      </trkpt>
      <trkpt lat="45.16174" lon="6.28963">
        <ele>1713.4</ele>
        <time>2021-02-28T05:44:57Z</time>
      </trkpt>
      <trkpt lat="45.16174" lon="6.28963">
        <ele>1713.8</ele>
        <time>2021-02-28T05:44:58Z</time>
      </trkpt>
      <trkpt lat="45.16174" lon="6.28964">
        <ele>1713.8</ele>
        <time>2021-02-28T05:44:59Z</time>
      </trkpt>
      <trkpt lat="45.16174" lon="6.28964">
        <ele>1714</ele>
        <time>2021-02-28T05:45:00Z</time>
      </trkpt>
      <trkpt lat="45.16175" lon="6.28965">
        <ele>1714.2</ele>
        <time>2021-02-28T05:45:01Z</time>
      </trkpt>
      <trkpt lat="45.16175" lon="6.28965">
        <ele>1714.2</ele>
        <time>2021-02-28T05:45:02Z</time>
      </trkpt>
      <trkpt lat="45.16175" lon="6.28966">
        <ele>1715</ele>
        <time>2021-02-28T05:45:03Z</time>
      </trkpt>
      <trkpt lat="45.16175" lon="6.28966">
        <ele>1715.2</ele>
        <time>2021-02-28T05:45:04Z</time>
      </trkpt>
      <trkpt lat="45.16175" lon="6.28967">
        <ele>1715.4</ele>
        <time>2021-02-28T05:45:05Z</time>
      </trkpt>
      <trkpt lat="45.16175" lon="6.28968">
        <ele>1715.6</ele>
        <time>2021-02-28T05:45:06Z</time>
      </trkpt>
      <trkpt lat="45.16175" lon="6.28969">
        <ele>1715.8</ele>
        <time>2021-02-28T05:45:07Z</time>
      </trkpt>
      <trkpt lat="45.16174" lon="6.2897">
        <ele>1716.2</ele>
        <time>2021-02-28T05:45:08Z</time>
      </trkpt>
      <trkpt lat="45.16174" lon="6.28971">
        <ele>1716.2</ele>
        <time>2021-02-28T05:45:09Z</time>
      </trkpt>
      <trkpt lat="45.16174" lon="6.28972">
        <ele>1716.6</ele>
        <time>2021-02-28T05:45:10Z</time>
      </trkpt>
      <trkpt lat="45.16174" lon="6.28973">
        <ele>1717</ele>
        <time>2021-02-28T05:45:11Z</time>
      </trkpt>
      <trkpt lat="45.16173" lon="6.28974">
        <ele>1716.6</ele>
        <time>2021-02-28T05:45:12Z</time>
      </trkpt>
      <trkpt lat="45.16173" lon="6.28975">
        <ele>1717.2</ele>
        <time>2021-02-28T05:45:13Z</time>
      </trkpt>
      <trkpt lat="45.16173" lon="6.28976">
        <ele>1717.6</ele>
        <time>2021-02-28T05:45:14Z</time>
      </trkpt>
      <trkpt lat="45.16173" lon="6.28977">
        <ele>1717.8</ele>
        <time>2021-02-28T05:45:15Z</time>
      </trkpt>
      <trkpt lat="45.16173" lon="6.28978">
        <ele>1718.2</ele>
        <time>2021-02-28T05:45:16Z</time>
      </trkpt>
      <trkpt lat="45.16173" lon="6.28978">
        <ele>1718.8</ele>
        <time>2021-02-28T05:45:17Z</time>
      </trkpt>
      <trkpt lat="45.16173" lon="6.28978">
        <ele>1719</ele>
        <time>2021-02-28T05:45:18Z</time>
      </trkpt>
      <trkpt lat="45.1617" lon="6.28981">
        <ele>1719.2</ele>
        <time>2021-02-28T05:45:19Z</time>
      </trkpt>
      <trkpt lat="45.1617" lon="6.28981">
        <ele>1719.6</ele>
        <time>2021-02-28T05:45:20Z</time>
      </trkpt>
      <trkpt lat="45.1617" lon="6.28981">
        <ele>1719.6</ele>
        <time>2021-02-28T05:45:21Z</time>
      </trkpt>
      <trkpt lat="45.16169" lon="6.28982">
        <ele>1719.8</ele>
        <time>2021-02-28T05:45:22Z</time>
      </trkpt>
      <trkpt lat="45.16168" lon="6.28983">
        <ele>1720.2</ele>
        <time>2021-02-28T05:45:23Z</time>
      </trkpt>
      <trkpt lat="45.16168" lon="6.28984">
        <ele>1720.6</ele>
        <time>2021-02-28T05:45:24Z</time>
      </trkpt>
      <trkpt lat="45.16167" lon="6.28985">
        <ele>1720.6</ele>
        <time>2021-02-28T05:45:25Z</time>
      </trkpt>
      <trkpt lat="45.16166" lon="6.28986">
        <ele>1721</ele>
        <time>2021-02-28T05:45:26Z</time>
      </trkpt>
      <trkpt lat="45.16165" lon="6.28987">
        <ele>1721.8</ele>
        <time>2021-02-28T05:45:27Z</time>
      </trkpt>
      <trkpt lat="45.16164" lon="6.28988">
        <ele>1722.2</ele>
        <time>2021-02-28T05:45:28Z</time>
      </trkpt>
      <trkpt lat="45.16163" lon="6.28989">
        <ele>1722.4</ele>
        <time>2021-02-28T05:45:29Z</time>
      </trkpt>
      <trkpt lat="45.16164" lon="6.28992">
        <ele>1722.4</ele>
        <time>2021-02-28T05:45:30Z</time>
      </trkpt>
      <trkpt lat="45.16164" lon="6.28992">
        <ele>1722.8</ele>
        <time>2021-02-28T05:45:31Z</time>
      </trkpt>
      <trkpt lat="45.16164" lon="6.28992">
        <ele>1723.2</ele>
        <time>2021-02-28T05:45:32Z</time>
      </trkpt>
      <trkpt lat="45.16163" lon="6.28992">
        <ele>1723.4</ele>
        <time>2021-02-28T05:45:33Z</time>
      </trkpt>
      <trkpt lat="45.16163" lon="6.28992">
        <ele>1724</ele>
        <time>2021-02-28T05:45:34Z</time>
      </trkpt>
      <trkpt lat="45.16162" lon="6.28993">
        <ele>1724.2</ele>
        <time>2021-02-28T05:45:35Z</time>
      </trkpt>
      <trkpt lat="45.16162" lon="6.28993">
        <ele>1724.6</ele>
        <time>2021-02-28T05:45:36Z</time>
      </trkpt>
      <trkpt lat="45.16161" lon="6.28994">
        <ele>1724.6</ele>
        <time>2021-02-28T05:45:37Z</time>
      </trkpt>
      <trkpt lat="45.16161" lon="6.28994">
        <ele>1725.4</ele>
        <time>2021-02-28T05:45:38Z</time>
      </trkpt>
      <trkpt lat="45.1616" lon="6.28994">
        <ele>1725.6</ele>
        <time>2021-02-28T05:45:39Z</time>
      </trkpt>
      <trkpt lat="45.1616" lon="6.28995">
        <ele>1725.8</ele>
        <time>2021-02-28T05:45:40Z</time>
      </trkpt>
      <trkpt lat="45.1616" lon="6.28995">
        <ele>1726</ele>
        <time>2021-02-28T05:45:41Z</time>
      </trkpt>
      <trkpt lat="45.16159" lon="6.28995">
        <ele>1726.4</ele>
        <time>2021-02-28T05:45:42Z</time>
      </trkpt>
      <trkpt lat="45.16159" lon="6.28996">
        <ele>1726.8</ele>
        <time>2021-02-28T05:45:43Z</time>
      </trkpt>
      <trkpt lat="45.16158" lon="6.28996">
        <ele>1727</ele>
        <time>2021-02-28T05:45:44Z</time>
      </trkpt>
      <trkpt lat="45.16158" lon="6.28997">
        <ele>1727</ele>
        <time>2021-02-28T05:45:45Z</time>
      </trkpt>
      <trkpt lat="45.16157" lon="6.28997">
        <ele>1727.4</ele>
        <time>2021-02-28T05:45:46Z</time>
      </trkpt>
      <trkpt lat="45.16157" lon="6.28997">
        <ele>1727.8</ele>
        <time>2021-02-28T05:45:47Z</time>
      </trkpt>
      <trkpt lat="45.16156" lon="6.28998">
        <ele>1728.2</ele>
        <time>2021-02-28T05:45:48Z</time>
      </trkpt>
      <trkpt lat="45.16156" lon="6.28998">
        <ele>1728.6</ele>
        <time>2021-02-28T05:45:49Z</time>
      </trkpt>
      <trkpt lat="45.16156" lon="6.28998">
        <ele>1728.8</ele>
        <time>2021-02-28T05:45:50Z</time>
      </trkpt>
      <trkpt lat="45.16153" lon="6.28997">
        <ele>1729.2</ele>
        <time>2021-02-28T05:45:51Z</time>
      </trkpt>
      <trkpt lat="45.16153" lon="6.28997">
        <ele>1729.6</ele>
        <time>2021-02-28T05:45:52Z</time>
      </trkpt>
      <trkpt lat="45.16153" lon="6.28997">
        <ele>1729.8</ele>
        <time>2021-02-28T05:45:53Z</time>
      </trkpt>
      <trkpt lat="45.16151" lon="6.28992">
        <ele>1730.4</ele>
        <time>2021-02-28T05:45:54Z</time>
      </trkpt>
      <trkpt lat="45.16151" lon="6.28992">
        <ele>1730.6</ele>
        <time>2021-02-28T05:45:55Z</time>
      </trkpt>
      <trkpt lat="45.16151" lon="6.28989">
        <ele>1730.8</ele>
        <time>2021-02-28T05:45:56Z</time>
      </trkpt>
      <trkpt lat="45.16151" lon="6.28989">
        <ele>1731.2</ele>
        <time>2021-02-28T05:45:57Z</time>
      </trkpt>
      <trkpt lat="45.16151" lon="6.28989">
        <ele>1731.4</ele>
        <time>2021-02-28T05:45:58Z</time>
      </trkpt>
      <trkpt lat="45.16148" lon="6.28989">
        <ele>1731.6</ele>
        <time>2021-02-28T05:45:59Z</time>
      </trkpt>
      <trkpt lat="45.16148" lon="6.28989">
        <ele>1732</ele>
        <time>2021-02-28T05:46:00Z</time>
      </trkpt>
      <trkpt lat="45.16146" lon="6.28988">
        <ele>1732</ele>
        <time>2021-02-28T05:46:01Z</time>
      </trkpt>
      <trkpt lat="45.16146" lon="6.28988">
        <ele>1732.2</ele>
        <time>2021-02-28T05:46:02Z</time>
      </trkpt>
      <trkpt lat="45.16144" lon="6.28987">
        <ele>1732.4</ele>
        <time>2021-02-28T05:46:03Z</time>
      </trkpt>
      <trkpt lat="45.16144" lon="6.28987">
        <ele>1732.2</ele>
        <time>2021-02-28T05:46:04Z</time>
      </trkpt>
      <trkpt lat="45.16142" lon="6.28985">
        <ele>1733</ele>
        <time>2021-02-28T05:46:05Z</time>
      </trkpt>
      <trkpt lat="45.16142" lon="6.28985">
        <ele>1733</ele>
        <time>2021-02-28T05:46:06Z</time>
      </trkpt>
      <trkpt lat="45.1614" lon="6.28984">
        <ele>1733.2</ele>
        <time>2021-02-28T05:46:07Z</time>
      </trkpt>
      <trkpt lat="45.1614" lon="6.28984">
        <ele>1733.8</ele>
        <time>2021-02-28T05:46:08Z</time>
      </trkpt>
      <trkpt lat="45.1614" lon="6.28984">
        <ele>1734</ele>
        <time>2021-02-28T05:46:09Z</time>
      </trkpt>
      <trkpt lat="45.16137" lon="6.28984">
        <ele>1734.2</ele>
        <time>2021-02-28T05:46:10Z</time>
      </trkpt>
      <trkpt lat="45.16137" lon="6.28984">
        <ele>1734.4</ele>
        <time>2021-02-28T05:46:11Z</time>
      </trkpt>
      <trkpt lat="45.16137" lon="6.28984">
        <ele>1735</ele>
        <time>2021-02-28T05:46:12Z</time>
      </trkpt>
      <trkpt lat="45.16137" lon="6.28984">
        <ele>1735.4</ele>
        <time>2021-02-28T05:46:13Z</time>
      </trkpt>
      <trkpt lat="45.16137" lon="6.28985">
        <ele>1735.6</ele>
        <time>2021-02-28T05:46:14Z</time>
      </trkpt>
      <trkpt lat="45.16137" lon="6.28986">
        <ele>1736</ele>
        <time>2021-02-28T05:46:15Z</time>
      </trkpt>
      <trkpt lat="45.16137" lon="6.28986">
        <ele>1736.2</ele>
        <time>2021-02-28T05:46:16Z</time>
      </trkpt>
      <trkpt lat="45.16136" lon="6.28987">
        <ele>1736.4</ele>
        <time>2021-02-28T05:46:17Z</time>
      </trkpt>
      <trkpt lat="45.16136" lon="6.28988">
        <ele>1736.4</ele>
        <time>2021-02-28T05:46:18Z</time>
      </trkpt>
      <trkpt lat="45.16136" lon="6.28988">
        <ele>1737.2</ele>
        <time>2021-02-28T05:46:19Z</time>
      </trkpt>
      <trkpt lat="45.16136" lon="6.28989">
        <ele>1737.4</ele>
        <time>2021-02-28T05:46:20Z</time>
      </trkpt>
      <trkpt lat="45.16136" lon="6.2899">
        <ele>1737.8</ele>
        <time>2021-02-28T05:46:21Z</time>
      </trkpt>
      <trkpt lat="45.16136" lon="6.2899">
        <ele>1738.4</ele>
        <time>2021-02-28T05:46:22Z</time>
      </trkpt>
      <trkpt lat="45.16136" lon="6.28991">
        <ele>1738.6</ele>
        <time>2021-02-28T05:46:23Z</time>
      </trkpt>
      <trkpt lat="45.16135" lon="6.28992">
        <ele>1738.8</ele>
        <time>2021-02-28T05:46:24Z</time>
      </trkpt>
      <trkpt lat="45.16135" lon="6.28992">
        <ele>1739.2</ele>
        <time>2021-02-28T05:46:25Z</time>
      </trkpt>
      <trkpt lat="45.16135" lon="6.28993">
        <ele>1739.4</ele>
        <time>2021-02-28T05:46:26Z</time>
      </trkpt>
      <trkpt lat="45.16135" lon="6.28994">
        <ele>1739.2</ele>
        <time>2021-02-28T05:46:27Z</time>
      </trkpt>
      <trkpt lat="45.16135" lon="6.28994">
        <ele>1739.4</ele>
        <time>2021-02-28T05:46:28Z</time>
      </trkpt>
      <trkpt lat="45.16135" lon="6.28995">
        <ele>1739.6</ele>
        <time>2021-02-28T05:46:29Z</time>
      </trkpt>
      <trkpt lat="45.16135" lon="6.28996">
        <ele>1740</ele>
        <time>2021-02-28T05:46:30Z</time>
      </trkpt>
      <trkpt lat="45.16135" lon="6.28996">
        <ele>1740.6</ele>
        <time>2021-02-28T05:46:31Z</time>
      </trkpt>
      <trkpt lat="45.16134" lon="6.28997">
        <ele>1740.8</ele>
        <time>2021-02-28T05:46:32Z</time>
      </trkpt>
      <trkpt lat="45.16135" lon="6.28998">
        <ele>1740.8</ele>
        <time>2021-02-28T05:46:33Z</time>
      </trkpt>
      <trkpt lat="45.16136" lon="6.28999">
        <ele>1741</ele>
        <time>2021-02-28T05:46:34Z</time>
      </trkpt>
      <trkpt lat="45.16136" lon="6.29">
        <ele>1741.2</ele>
        <time>2021-02-28T05:46:35Z</time>
      </trkpt>
      <trkpt lat="45.16137" lon="6.29001">
        <ele>1741.8</ele>
        <time>2021-02-28T05:46:36Z</time>
      </trkpt>
      <trkpt lat="45.16138" lon="6.29002">
        <ele>1742</ele>
        <time>2021-02-28T05:46:37Z</time>
      </trkpt>
      <trkpt lat="45.16138" lon="6.29003">
        <ele>1742</ele>
        <time>2021-02-28T05:46:38Z</time>
      </trkpt>
      <trkpt lat="45.16139" lon="6.29004">
        <ele>1742.4</ele>
        <time>2021-02-28T05:46:39Z</time>
      </trkpt>
      <trkpt lat="45.1614" lon="6.29006">
        <ele>1742.6</ele>
        <time>2021-02-28T05:46:40Z</time>
      </trkpt>
      <trkpt lat="45.1614" lon="6.29007">
        <ele>1743</ele>
        <time>2021-02-28T05:46:41Z</time>
      </trkpt>
      <trkpt lat="45.16141" lon="6.29008">
        <ele>1743.2</ele>
        <time>2021-02-28T05:46:42Z</time>
      </trkpt>
      <trkpt lat="45.16142" lon="6.29009">
        <ele>1743.6</ele>
        <time>2021-02-28T05:46:43Z</time>
      </trkpt>
      <trkpt lat="45.16141" lon="6.2901">
        <ele>1743.6</ele>
        <time>2021-02-28T05:46:44Z</time>
      </trkpt>
      <trkpt lat="45.16141" lon="6.29011">
        <ele>1744</ele>
        <time>2021-02-28T05:46:45Z</time>
      </trkpt>
      <trkpt lat="45.1614" lon="6.29012">
        <ele>1743.8</ele>
        <time>2021-02-28T05:46:46Z</time>
      </trkpt>
      <trkpt lat="45.1614" lon="6.29013">
        <ele>1744.4</ele>
        <time>2021-02-28T05:46:47Z</time>
      </trkpt>
      <trkpt lat="45.16139" lon="6.29014">
        <ele>1744.6</ele>
        <time>2021-02-28T05:46:48Z</time>
      </trkpt>
      <trkpt lat="45.16139" lon="6.29015">
        <ele>1744.8</ele>
        <time>2021-02-28T05:46:49Z</time>
      </trkpt>
      <trkpt lat="45.16138" lon="6.29016">
        <ele>1745.2</ele>
        <time>2021-02-28T05:46:50Z</time>
      </trkpt>
      <trkpt lat="45.16138" lon="6.29017">
        <ele>1745.2</ele>
        <time>2021-02-28T05:46:51Z</time>
      </trkpt>
      <trkpt lat="45.16137" lon="6.29018">
        <ele>1745.6</ele>
        <time>2021-02-28T05:46:52Z</time>
      </trkpt>
      <trkpt lat="45.16137" lon="6.29019">
        <ele>1746</ele>
        <time>2021-02-28T05:46:53Z</time>
      </trkpt>
      <trkpt lat="45.16137" lon="6.2902">
        <ele>1746.2</ele>
        <time>2021-02-28T05:46:54Z</time>
      </trkpt>
      <trkpt lat="45.16135" lon="6.2902">
        <ele>1746.8</ele>
        <time>2021-02-28T05:46:55Z</time>
      </trkpt>
      <trkpt lat="45.16134" lon="6.2902">
        <ele>1747</ele>
        <time>2021-02-28T05:46:56Z</time>
      </trkpt>
      <trkpt lat="45.16133" lon="6.2902">
        <ele>1747.2</ele>
        <time>2021-02-28T05:46:57Z</time>
      </trkpt>
      <trkpt lat="45.16132" lon="6.2902">
        <ele>1747.4</ele>
        <time>2021-02-28T05:46:58Z</time>
      </trkpt>
      <trkpt lat="45.1613" lon="6.2902">
        <ele>1747.6</ele>
        <time>2021-02-28T05:46:59Z</time>
      </trkpt>
      <trkpt lat="45.16129" lon="6.2902">
        <ele>1747.8</ele>
        <time>2021-02-28T05:47:00Z</time>
      </trkpt>
      <trkpt lat="45.16128" lon="6.2902">
        <ele>1748.4</ele>
        <time>2021-02-28T05:47:01Z</time>
      </trkpt>
      <trkpt lat="45.16127" lon="6.2902">
        <ele>1748.6</ele>
        <time>2021-02-28T05:47:02Z</time>
      </trkpt>
      <trkpt lat="45.16126" lon="6.2902">
        <ele>1748.8</ele>
        <time>2021-02-28T05:47:03Z</time>
      </trkpt>
      <trkpt lat="45.16125" lon="6.2902">
        <ele>1749.2</ele>
        <time>2021-02-28T05:47:04Z</time>
      </trkpt>
      <trkpt lat="45.16124" lon="6.2902">
        <ele>1749.2</ele>
        <time>2021-02-28T05:47:05Z</time>
      </trkpt>
      <trkpt lat="45.16123" lon="6.2902">
        <ele>1749.6</ele>
        <time>2021-02-28T05:47:06Z</time>
      </trkpt>
      <trkpt lat="45.16122" lon="6.2902">
        <ele>1749.6</ele>
        <time>2021-02-28T05:47:07Z</time>
      </trkpt>
      <trkpt lat="45.16121" lon="6.2902">
        <ele>1749.8</ele>
        <time>2021-02-28T05:47:08Z</time>
      </trkpt>
      <trkpt lat="45.1612" lon="6.2902">
        <ele>1750</ele>
        <time>2021-02-28T05:47:09Z</time>
      </trkpt>
      <trkpt lat="45.16119" lon="6.2902">
        <ele>1750.2</ele>
        <time>2021-02-28T05:47:10Z</time>
      </trkpt>
      <trkpt lat="45.16118" lon="6.29021">
        <ele>1750.6</ele>
        <time>2021-02-28T05:47:11Z</time>
      </trkpt>
      <trkpt lat="45.16117" lon="6.29021">
        <ele>1750.8</ele>
        <time>2021-02-28T05:47:12Z</time>
      </trkpt>
      <trkpt lat="45.16116" lon="6.29021">
        <ele>1750.8</ele>
        <time>2021-02-28T05:47:13Z</time>
      </trkpt>
      <trkpt lat="45.16115" lon="6.29022">
        <ele>1751</ele>
        <time>2021-02-28T05:47:14Z</time>
      </trkpt>
      <trkpt lat="45.16114" lon="6.29023">
        <ele>1751.6</ele>
        <time>2021-02-28T05:47:15Z</time>
      </trkpt>
      <trkpt lat="45.16113" lon="6.29023">
        <ele>1752</ele>
        <time>2021-02-28T05:47:16Z</time>
      </trkpt>
      <trkpt lat="45.16112" lon="6.29024">
        <ele>1752.2</ele>
        <time>2021-02-28T05:47:17Z</time>
      </trkpt>
      <trkpt lat="45.16111" lon="6.29025">
        <ele>1752.6</ele>
        <time>2021-02-28T05:47:18Z</time>
      </trkpt>
      <trkpt lat="45.1611" lon="6.29025">
        <ele>1752.8</ele>
        <time>2021-02-28T05:47:19Z</time>
      </trkpt>
      <trkpt lat="45.16109" lon="6.29026">
        <ele>1753.2</ele>
        <time>2021-02-28T05:47:20Z</time>
      </trkpt>
      <trkpt lat="45.16108" lon="6.29026">
        <ele>1753.8</ele>
        <time>2021-02-28T05:47:21Z</time>
      </trkpt>
      <trkpt lat="45.16107" lon="6.29025">
        <ele>1753.8</ele>
        <time>2021-02-28T05:47:22Z</time>
      </trkpt>
      <trkpt lat="45.16106" lon="6.29025">
        <ele>1754.2</ele>
        <time>2021-02-28T05:47:23Z</time>
      </trkpt>
      <trkpt lat="45.16105" lon="6.29025">
        <ele>1754.6</ele>
        <time>2021-02-28T05:47:24Z</time>
      </trkpt>
      <trkpt lat="45.16104" lon="6.29025">
        <ele>1755</ele>
        <time>2021-02-28T05:47:25Z</time>
      </trkpt>
      <trkpt lat="45.16103" lon="6.29025">
        <ele>1755.4</ele>
        <time>2021-02-28T05:47:26Z</time>
      </trkpt>
      <trkpt lat="45.16102" lon="6.29024">
        <ele>1755.4</ele>
        <time>2021-02-28T05:47:27Z</time>
      </trkpt>
      <trkpt lat="45.16101" lon="6.29024">
        <ele>1755.8</ele>
        <time>2021-02-28T05:47:28Z</time>
      </trkpt>
      <trkpt lat="45.16099" lon="6.29024">
        <ele>1755.8</ele>
        <time>2021-02-28T05:47:29Z</time>
      </trkpt>
      <trkpt lat="45.16098" lon="6.29023">
        <ele>1756.2</ele>
        <time>2021-02-28T05:47:30Z</time>
      </trkpt>
      <trkpt lat="45.16097" lon="6.29023">
        <ele>1756.4</ele>
        <time>2021-02-28T05:47:31Z</time>
      </trkpt>
      <trkpt lat="45.16096" lon="6.29022">
        <ele>1756.2</ele>
        <time>2021-02-28T05:47:32Z</time>
      </trkpt>
      <trkpt lat="45.16095" lon="6.29022">
        <ele>1756.4</ele>
        <time>2021-02-28T05:47:33Z</time>
      </trkpt>
      <trkpt lat="45.16094" lon="6.29021">
        <ele>1756.6</ele>
        <time>2021-02-28T05:47:34Z</time>
      </trkpt>
      <trkpt lat="45.16093" lon="6.29021">
        <ele>1757.2</ele>
        <time>2021-02-28T05:47:35Z</time>
      </trkpt>
      <trkpt lat="45.16092" lon="6.2902">
        <ele>1757.2</ele>
        <time>2021-02-28T05:47:36Z</time>
      </trkpt>
      <trkpt lat="45.16091" lon="6.2902">
        <ele>1757.6</ele>
        <time>2021-02-28T05:47:37Z</time>
      </trkpt>
      <trkpt lat="45.1609" lon="6.2902">
        <ele>1757.8</ele>
        <time>2021-02-28T05:47:38Z</time>
      </trkpt>
      <trkpt lat="45.16089" lon="6.29019">
        <ele>1757.8</ele>
        <time>2021-02-28T05:47:39Z</time>
      </trkpt>
      <trkpt lat="45.16088" lon="6.29019">
        <ele>1758.6</ele>
        <time>2021-02-28T05:47:40Z</time>
      </trkpt>
      <trkpt lat="45.16087" lon="6.29019">
        <ele>1758.6</ele>
        <time>2021-02-28T05:47:41Z</time>
      </trkpt>
      <trkpt lat="45.16086" lon="6.29018">
        <ele>1758.6</ele>
        <time>2021-02-28T05:47:42Z</time>
      </trkpt>
      <trkpt lat="45.16085" lon="6.29018">
        <ele>1759</ele>
        <time>2021-02-28T05:47:43Z</time>
      </trkpt>
      <trkpt lat="45.16084" lon="6.29017">
        <ele>1759.2</ele>
        <time>2021-02-28T05:47:44Z</time>
      </trkpt>
      <trkpt lat="45.16083" lon="6.29017">
        <ele>1759.6</ele>
        <time>2021-02-28T05:47:45Z</time>
      </trkpt>
      <trkpt lat="45.16082" lon="6.29017">
        <ele>1760</ele>
        <time>2021-02-28T05:47:46Z</time>
      </trkpt>
      <trkpt lat="45.16082" lon="6.29016">
        <ele>1760.2</ele>
        <time>2021-02-28T05:47:47Z</time>
      </trkpt>
      <trkpt lat="45.16081" lon="6.29016">
        <ele>1760.6</ele>
        <time>2021-02-28T05:47:48Z</time>
      </trkpt>
      <trkpt lat="45.1608" lon="6.29015">
        <ele>1760.6</ele>
        <time>2021-02-28T05:47:49Z</time>
      </trkpt>
      <trkpt lat="45.16079" lon="6.29015">
        <ele>1760.8</ele>
        <time>2021-02-28T05:47:50Z</time>
      </trkpt>
      <trkpt lat="45.16079" lon="6.29014">
        <ele>1761.2</ele>
        <time>2021-02-28T05:47:51Z</time>
      </trkpt>
      <trkpt lat="45.16078" lon="6.29014">
        <ele>1761.8</ele>
        <time>2021-02-28T05:47:52Z</time>
      </trkpt>
      <trkpt lat="45.16077" lon="6.29013">
        <ele>1761.8</ele>
        <time>2021-02-28T05:47:53Z</time>
      </trkpt>
      <trkpt lat="45.16076" lon="6.29013">
        <ele>1762.2</ele>
        <time>2021-02-28T05:47:54Z</time>
      </trkpt>
      <trkpt lat="45.16076" lon="6.29012">
        <ele>1762.4</ele>
        <time>2021-02-28T05:47:55Z</time>
      </trkpt>
      <trkpt lat="45.16075" lon="6.29012">
        <ele>1762.6</ele>
        <time>2021-02-28T05:47:56Z</time>
      </trkpt>
      <trkpt lat="45.16074" lon="6.29011">
        <ele>1762.8</ele>
        <time>2021-02-28T05:47:57Z</time>
      </trkpt>
      <trkpt lat="45.16073" lon="6.29011">
        <ele>1763</ele>
        <time>2021-02-28T05:47:58Z</time>
      </trkpt>
      <trkpt lat="45.16072" lon="6.29011">
        <ele>1763.2</ele>
        <time>2021-02-28T05:47:59Z</time>
      </trkpt>
      <trkpt lat="45.16071" lon="6.29012">
        <ele>1763.6</ele>
        <time>2021-02-28T05:48:00Z</time>
      </trkpt>
      <trkpt lat="45.16071" lon="6.29012">
        <ele>1764.2</ele>
        <time>2021-02-28T05:48:01Z</time>
      </trkpt>
      <trkpt lat="45.1607" lon="6.29012">
        <ele>1764.2</ele>
        <time>2021-02-28T05:48:02Z</time>
      </trkpt>
      <trkpt lat="45.16069" lon="6.29013">
        <ele>1764.4</ele>
        <time>2021-02-28T05:48:03Z</time>
      </trkpt>
      <trkpt lat="45.16068" lon="6.29013">
        <ele>1764.4</ele>
        <time>2021-02-28T05:48:04Z</time>
      </trkpt>
      <trkpt lat="45.16067" lon="6.29014">
        <ele>1764.6</ele>
        <time>2021-02-28T05:48:05Z</time>
      </trkpt>
      <trkpt lat="45.16066" lon="6.29014">
        <ele>1765.4</ele>
        <time>2021-02-28T05:48:06Z</time>
      </trkpt>
      <trkpt lat="45.16065" lon="6.29014">
        <ele>1765.4</ele>
        <time>2021-02-28T05:48:07Z</time>
      </trkpt>
      <trkpt lat="45.16064" lon="6.29015">
        <ele>1766</ele>
        <time>2021-02-28T05:48:08Z</time>
      </trkpt>
      <trkpt lat="45.16063" lon="6.29015">
        <ele>1766.2</ele>
        <time>2021-02-28T05:48:09Z</time>
      </trkpt>
      <trkpt lat="45.16062" lon="6.29015">
        <ele>1766.4</ele>
        <time>2021-02-28T05:48:10Z</time>
      </trkpt>
      <trkpt lat="45.16061" lon="6.29015">
        <ele>1766.8</ele>
        <time>2021-02-28T05:48:11Z</time>
      </trkpt>
      <trkpt lat="45.1606" lon="6.29015">
        <ele>1767</ele>
        <time>2021-02-28T05:48:12Z</time>
      </trkpt>
      <trkpt lat="45.16059" lon="6.29015">
        <ele>1767.2</ele>
        <time>2021-02-28T05:48:13Z</time>
      </trkpt>
      <trkpt lat="45.16058" lon="6.29015">
        <ele>1767.6</ele>
        <time>2021-02-28T05:48:14Z</time>
      </trkpt>
      <trkpt lat="45.16057" lon="6.29015">
        <ele>1767.4</ele>
        <time>2021-02-28T05:48:15Z</time>
      </trkpt>
      <trkpt lat="45.16056" lon="6.29015">
        <ele>1767.8</ele>
        <time>2021-02-28T05:48:16Z</time>
      </trkpt>
      <trkpt lat="45.16055" lon="6.29015">
        <ele>1768.2</ele>
        <time>2021-02-28T05:48:17Z</time>
      </trkpt>
      <trkpt lat="45.16054" lon="6.29015">
        <ele>1768.2</ele>
        <time>2021-02-28T05:48:18Z</time>
      </trkpt>
      <trkpt lat="45.16053" lon="6.29015">
        <ele>1768.8</ele>
        <time>2021-02-28T05:48:19Z</time>
      </trkpt>
      <trkpt lat="45.16052" lon="6.29015">
        <ele>1769</ele>
        <time>2021-02-28T05:48:20Z</time>
      </trkpt>
      <trkpt lat="45.16051" lon="6.29015">
        <ele>1769</ele>
        <time>2021-02-28T05:48:21Z</time>
      </trkpt>
      <trkpt lat="45.1605" lon="6.29016">
        <ele>1769.4</ele>
        <time>2021-02-28T05:48:22Z</time>
      </trkpt>
      <trkpt lat="45.16049" lon="6.29016">
        <ele>1769.6</ele>
        <time>2021-02-28T05:48:23Z</time>
      </trkpt>
      <trkpt lat="45.16048" lon="6.29016">
        <ele>1769.6</ele>
        <time>2021-02-28T05:48:24Z</time>
      </trkpt>
      <trkpt lat="45.16047" lon="6.29016">
        <ele>1770.2</ele>
        <time>2021-02-28T05:48:25Z</time>
      </trkpt>
      <trkpt lat="45.16046" lon="6.29016">
        <ele>1770.4</ele>
        <time>2021-02-28T05:48:26Z</time>
      </trkpt>
      <trkpt lat="45.16045" lon="6.29016">
        <ele>1770.8</ele>
        <time>2021-02-28T05:48:27Z</time>
      </trkpt>
      <trkpt lat="45.16045" lon="6.29016">
        <ele>1771</ele>
        <time>2021-02-28T05:48:28Z</time>
      </trkpt>
      <trkpt lat="45.16045" lon="6.29016">
        <ele>1771.2</ele>
        <time>2021-02-28T05:48:29Z</time>
      </trkpt>
      <trkpt lat="45.16045" lon="6.29016">
        <ele>1771.8</ele>
        <time>2021-02-28T05:48:30Z</time>
      </trkpt>
      <trkpt lat="45.16045" lon="6.29016">
        <ele>1771.8</ele>
        <time>2021-02-28T05:48:31Z</time>
      </trkpt>
      <trkpt lat="45.16045" lon="6.29016">
        <ele>1771.8</ele>
        <time>2021-02-28T05:48:32Z</time>
      </trkpt>
      <trkpt lat="45.16047" lon="6.29016">
        <ele>1772</ele>
        <time>2021-02-28T05:48:33Z</time>
      </trkpt>
      <trkpt lat="45.16047" lon="6.29016">
        <ele>1772</ele>
        <time>2021-02-28T05:48:34Z</time>
      </trkpt>
      <trkpt lat="45.16047" lon="6.29016">
        <ele>1772.2</ele>
        <time>2021-02-28T05:48:35Z</time>
      </trkpt>
      <trkpt lat="45.16051" lon="6.29018">
        <ele>1772.8</ele>
        <time>2021-02-28T05:48:36Z</time>
      </trkpt>
      <trkpt lat="45.16051" lon="6.29018">
        <ele>1772.8</ele>
        <time>2021-02-28T05:48:37Z</time>
      </trkpt>
      <trkpt lat="45.16051" lon="6.29018">
        <ele>1773</ele>
        <time>2021-02-28T05:48:38Z</time>
      </trkpt>
      <trkpt lat="45.16052" lon="6.29021">
        <ele>1773.2</ele>
        <time>2021-02-28T05:48:39Z</time>
      </trkpt>
      <trkpt lat="45.16052" lon="6.29021">
        <ele>1773.4</ele>
        <time>2021-02-28T05:48:40Z</time>
      </trkpt>
      <trkpt lat="45.16052" lon="6.29023">
        <ele>1773.8</ele>
        <time>2021-02-28T05:48:41Z</time>
      </trkpt>
      <trkpt lat="45.16052" lon="6.29023">
        <ele>1774.2</ele>
        <time>2021-02-28T05:48:42Z</time>
      </trkpt>
      <trkpt lat="45.16052" lon="6.29023">
        <ele>1774.4</ele>
        <time>2021-02-28T05:48:43Z</time>
      </trkpt>
      <trkpt lat="45.16051" lon="6.29024">
        <ele>1774.2</ele>
        <time>2021-02-28T05:48:44Z</time>
      </trkpt>
      <trkpt lat="45.1605" lon="6.29024">
        <ele>1774.4</ele>
        <time>2021-02-28T05:48:45Z</time>
      </trkpt>
      <trkpt lat="45.16049" lon="6.29025">
        <ele>1774.4</ele>
        <time>2021-02-28T05:48:46Z</time>
      </trkpt>
      <trkpt lat="45.16048" lon="6.29025">
        <ele>1774.8</ele>
        <time>2021-02-28T05:48:47Z</time>
      </trkpt>
      <trkpt lat="45.16048" lon="6.29025">
        <ele>1775</ele>
        <time>2021-02-28T05:48:48Z</time>
      </trkpt>
      <trkpt lat="45.16047" lon="6.29026">
        <ele>1775.6</ele>
        <time>2021-02-28T05:48:49Z</time>
      </trkpt>
      <trkpt lat="45.16046" lon="6.29026">
        <ele>1775.6</ele>
        <time>2021-02-28T05:48:50Z</time>
      </trkpt>
      <trkpt lat="45.16045" lon="6.29027">
        <ele>1776.2</ele>
        <time>2021-02-28T05:48:51Z</time>
      </trkpt>
      <trkpt lat="45.16044" lon="6.29027">
        <ele>1776.8</ele>
        <time>2021-02-28T05:48:52Z</time>
      </trkpt>
      <trkpt lat="45.16043" lon="6.29028">
        <ele>1776.8</ele>
        <time>2021-02-28T05:48:53Z</time>
      </trkpt>
      <trkpt lat="45.16042" lon="6.29028">
        <ele>1776.6</ele>
        <time>2021-02-28T05:48:54Z</time>
      </trkpt>
      <trkpt lat="45.16041" lon="6.29029">
        <ele>1776.8</ele>
        <time>2021-02-28T05:48:55Z</time>
      </trkpt>
      <trkpt lat="45.16039" lon="6.29029">
        <ele>1777</ele>
        <time>2021-02-28T05:48:56Z</time>
      </trkpt>
      <trkpt lat="45.16038" lon="6.2903">
        <ele>1777</ele>
        <time>2021-02-28T05:48:57Z</time>
      </trkpt>
      <trkpt lat="45.16037" lon="6.29029">
        <ele>1776.8</ele>
        <time>2021-02-28T05:48:58Z</time>
      </trkpt>
      <trkpt lat="45.16036" lon="6.29029">
        <ele>1777.2</ele>
        <time>2021-02-28T05:48:59Z</time>
      </trkpt>
      <trkpt lat="45.16034" lon="6.29029">
        <ele>1777.2</ele>
        <time>2021-02-28T05:49:00Z</time>
      </trkpt>
      <trkpt lat="45.16033" lon="6.29029">
        <ele>1777.4</ele>
        <time>2021-02-28T05:49:01Z</time>
      </trkpt>
      <trkpt lat="45.16032" lon="6.29029">
        <ele>1777.8</ele>
        <time>2021-02-28T05:49:02Z</time>
      </trkpt>
      <trkpt lat="45.16031" lon="6.29029">
        <ele>1777.8</ele>
        <time>2021-02-28T05:49:03Z</time>
      </trkpt>
      <trkpt lat="45.1603" lon="6.29028">
        <ele>1778</ele>
        <time>2021-02-28T05:49:04Z</time>
      </trkpt>
      <trkpt lat="45.16028" lon="6.29028">
        <ele>1778.2</ele>
        <time>2021-02-28T05:49:05Z</time>
      </trkpt>
      <trkpt lat="45.16027" lon="6.29027">
        <ele>1778.4</ele>
        <time>2021-02-28T05:49:06Z</time>
      </trkpt>
      <trkpt lat="45.16026" lon="6.29027">
        <ele>1778.6</ele>
        <time>2021-02-28T05:49:07Z</time>
      </trkpt>
      <trkpt lat="45.16025" lon="6.29026">
        <ele>1778.8</ele>
        <time>2021-02-28T05:49:08Z</time>
      </trkpt>
      <trkpt lat="45.16024" lon="6.29026">
        <ele>1779</ele>
        <time>2021-02-28T05:49:09Z</time>
      </trkpt>
      <trkpt lat="45.16023" lon="6.29026">
        <ele>1779</ele>
        <time>2021-02-28T05:49:10Z</time>
      </trkpt>
      <trkpt lat="45.16022" lon="6.29025">
        <ele>1779.4</ele>
        <time>2021-02-28T05:49:11Z</time>
      </trkpt>
      <trkpt lat="45.16022" lon="6.29026">
        <ele>1779.6</ele>
        <time>2021-02-28T05:49:12Z</time>
      </trkpt>
      <trkpt lat="45.16021" lon="6.29026">
        <ele>1780.2</ele>
        <time>2021-02-28T05:49:13Z</time>
      </trkpt>
      <trkpt lat="45.1602" lon="6.29027">
        <ele>1780.4</ele>
        <time>2021-02-28T05:49:14Z</time>
      </trkpt>
      <trkpt lat="45.16019" lon="6.29028">
        <ele>1780.4</ele>
        <time>2021-02-28T05:49:15Z</time>
      </trkpt>
      <trkpt lat="45.16018" lon="6.29028">
        <ele>1780.8</ele>
        <time>2021-02-28T05:49:16Z</time>
      </trkpt>
      <trkpt lat="45.16017" lon="6.29029">
        <ele>1781</ele>
        <time>2021-02-28T05:49:17Z</time>
      </trkpt>
      <trkpt lat="45.16017" lon="6.2903">
        <ele>1781.2</ele>
        <time>2021-02-28T05:49:18Z</time>
      </trkpt>
      <trkpt lat="45.16016" lon="6.2903">
        <ele>1781.4</ele>
        <time>2021-02-28T05:49:19Z</time>
      </trkpt>
      <trkpt lat="45.16015" lon="6.29031">
        <ele>1781.6</ele>
        <time>2021-02-28T05:49:20Z</time>
      </trkpt>
      <trkpt lat="45.16014" lon="6.29031">
        <ele>1782</ele>
        <time>2021-02-28T05:49:21Z</time>
      </trkpt>
      <trkpt lat="45.16014" lon="6.29032">
        <ele>1782.4</ele>
        <time>2021-02-28T05:49:22Z</time>
      </trkpt>
      <trkpt lat="45.16013" lon="6.29033">
        <ele>1782.4</ele>
        <time>2021-02-28T05:49:23Z</time>
      </trkpt>
      <trkpt lat="45.16012" lon="6.29034">
        <ele>1782.8</ele>
        <time>2021-02-28T05:49:24Z</time>
      </trkpt>
      <trkpt lat="45.16011" lon="6.29035">
        <ele>1783.2</ele>
        <time>2021-02-28T05:49:25Z</time>
      </trkpt>
      <trkpt lat="45.16011" lon="6.29036">
        <ele>1783.6</ele>
        <time>2021-02-28T05:49:26Z</time>
      </trkpt>
      <trkpt lat="45.1601" lon="6.29037">
        <ele>1784</ele>
        <time>2021-02-28T05:49:27Z</time>
      </trkpt>
      <trkpt lat="45.16009" lon="6.29038">
        <ele>1784.2</ele>
        <time>2021-02-28T05:49:28Z</time>
      </trkpt>
      <trkpt lat="45.16009" lon="6.29039">
        <ele>1784.4</ele>
        <time>2021-02-28T05:49:29Z</time>
      </trkpt>
      <trkpt lat="45.16008" lon="6.2904">
        <ele>1784.8</ele>
        <time>2021-02-28T05:49:30Z</time>
      </trkpt>
      <trkpt lat="45.16007" lon="6.29041">
        <ele>1785.2</ele>
        <time>2021-02-28T05:49:31Z</time>
      </trkpt>
      <trkpt lat="45.16007" lon="6.29041">
        <ele>1785.2</ele>
        <time>2021-02-28T05:49:32Z</time>
      </trkpt>
      <trkpt lat="45.16006" lon="6.29042">
        <ele>1785.4</ele>
        <time>2021-02-28T05:49:33Z</time>
      </trkpt>
      <trkpt lat="45.16006" lon="6.29043">
        <ele>1785.6</ele>
        <time>2021-02-28T05:49:34Z</time>
      </trkpt>
      <trkpt lat="45.16006" lon="6.29044">
        <ele>1785.8</ele>
        <time>2021-02-28T05:49:35Z</time>
      </trkpt>
      <trkpt lat="45.16005" lon="6.29045">
        <ele>1785.8</ele>
        <time>2021-02-28T05:49:36Z</time>
      </trkpt>
      <trkpt lat="45.16005" lon="6.29046">
        <ele>1786.6</ele>
        <time>2021-02-28T05:49:37Z</time>
      </trkpt>
      <trkpt lat="45.16004" lon="6.29047">
        <ele>1786.6</ele>
        <time>2021-02-28T05:49:38Z</time>
      </trkpt>
      <trkpt lat="45.16002" lon="6.29048">
        <ele>1787</ele>
        <time>2021-02-28T05:49:39Z</time>
      </trkpt>
      <trkpt lat="45.16002" lon="6.29048">
        <ele>1787.2</ele>
        <time>2021-02-28T05:49:40Z</time>
      </trkpt>
      <trkpt lat="45.16002" lon="6.29048">
        <ele>1787.8</ele>
        <time>2021-02-28T05:49:41Z</time>
      </trkpt>
      <trkpt lat="45.15998" lon="6.29049">
        <ele>1787.8</ele>
        <time>2021-02-28T05:49:42Z</time>
      </trkpt>
      <trkpt lat="45.15998" lon="6.29049">
        <ele>1787.8</ele>
        <time>2021-02-28T05:49:43Z</time>
      </trkpt>
      <trkpt lat="45.15995" lon="6.29049">
        <ele>1788</ele>
        <time>2021-02-28T05:49:44Z</time>
      </trkpt>
      <trkpt lat="45.15995" lon="6.29049">
        <ele>1788.2</ele>
        <time>2021-02-28T05:49:45Z</time>
      </trkpt>
      <trkpt lat="45.15995" lon="6.29049">
        <ele>1788.4</ele>
        <time>2021-02-28T05:49:46Z</time>
      </trkpt>
      <trkpt lat="45.15994" lon="6.29049">
        <ele>1788.8</ele>
        <time>2021-02-28T05:49:47Z</time>
      </trkpt>
      <trkpt lat="45.15992" lon="6.29049">
        <ele>1788.6</ele>
        <time>2021-02-28T05:49:48Z</time>
      </trkpt>
      <trkpt lat="45.15991" lon="6.29049">
        <ele>1789</ele>
        <time>2021-02-28T05:49:49Z</time>
      </trkpt>
      <trkpt lat="45.1599" lon="6.29049">
        <ele>1789.2</ele>
        <time>2021-02-28T05:49:50Z</time>
      </trkpt>
      <trkpt lat="45.15988" lon="6.29049">
        <ele>1789.2</ele>
        <time>2021-02-28T05:49:51Z</time>
      </trkpt>
      <trkpt lat="45.15987" lon="6.29049">
        <ele>1789.6</ele>
        <time>2021-02-28T05:49:52Z</time>
      </trkpt>
      <trkpt lat="45.15985" lon="6.29048">
        <ele>1789.4</ele>
        <time>2021-02-28T05:49:53Z</time>
      </trkpt>
      <trkpt lat="45.15984" lon="6.29048">
        <ele>1790</ele>
        <time>2021-02-28T05:49:54Z</time>
      </trkpt>
      <trkpt lat="45.15983" lon="6.29047">
        <ele>1790.2</ele>
        <time>2021-02-28T05:49:55Z</time>
      </trkpt>
      <trkpt lat="45.15982" lon="6.29047">
        <ele>1790.2</ele>
        <time>2021-02-28T05:49:56Z</time>
      </trkpt>
      <trkpt lat="45.15981" lon="6.29046">
        <ele>1790.8</ele>
        <time>2021-02-28T05:49:57Z</time>
      </trkpt>
      <trkpt lat="45.15979" lon="6.29046">
        <ele>1790.8</ele>
        <time>2021-02-28T05:49:58Z</time>
      </trkpt>
      <trkpt lat="45.15978" lon="6.29045">
        <ele>1791</ele>
        <time>2021-02-28T05:49:59Z</time>
      </trkpt>
      <trkpt lat="45.15977" lon="6.29045">
        <ele>1791.4</ele>
        <time>2021-02-28T05:50:00Z</time>
      </trkpt>
      <trkpt lat="45.15974" lon="6.29044">
        <ele>1791.6</ele>
        <time>2021-02-28T05:50:01Z</time>
      </trkpt>
      <trkpt lat="45.15974" lon="6.29044">
        <ele>1792</ele>
        <time>2021-02-28T05:50:02Z</time>
      </trkpt>
      <trkpt lat="45.15974" lon="6.29044">
        <ele>1792.2</ele>
        <time>2021-02-28T05:50:03Z</time>
      </trkpt>
      <trkpt lat="45.15974" lon="6.29044">
        <ele>1792</ele>
        <time>2021-02-28T05:50:04Z</time>
      </trkpt>
      <trkpt lat="45.15972" lon="6.29045">
        <ele>1792.6</ele>
        <time>2021-02-28T05:50:05Z</time>
      </trkpt>
      <trkpt lat="45.15972" lon="6.29045">
        <ele>1792.8</ele>
        <time>2021-02-28T05:50:06Z</time>
      </trkpt>
      <trkpt lat="45.15972" lon="6.29045">
        <ele>1793.2</ele>
        <time>2021-02-28T05:50:07Z</time>
      </trkpt>
      <trkpt lat="45.1597" lon="6.29046">
        <ele>1793.6</ele>
        <time>2021-02-28T05:50:08Z</time>
      </trkpt>
      <trkpt lat="45.1597" lon="6.29046">
        <ele>1794</ele>
        <time>2021-02-28T05:50:09Z</time>
      </trkpt>
      <trkpt lat="45.15968" lon="6.29047">
        <ele>1794.6</ele>
        <time>2021-02-28T05:50:10Z</time>
      </trkpt>
      <trkpt lat="45.15968" lon="6.29047">
        <ele>1794.8</ele>
        <time>2021-02-28T05:50:11Z</time>
      </trkpt>
      <trkpt lat="45.15968" lon="6.29047">
        <ele>1795</ele>
        <time>2021-02-28T05:50:12Z</time>
      </trkpt>
      <trkpt lat="45.15967" lon="6.29048">
        <ele>1795.2</ele>
        <time>2021-02-28T05:50:13Z</time>
      </trkpt>
      <trkpt lat="45.15966" lon="6.29048">
        <ele>1795.6</ele>
        <time>2021-02-28T05:50:14Z</time>
      </trkpt>
      <trkpt lat="45.15965" lon="6.29048">
        <ele>1795.8</ele>
        <time>2021-02-28T05:50:15Z</time>
      </trkpt>
      <trkpt lat="45.15964" lon="6.29049">
        <ele>1796.2</ele>
        <time>2021-02-28T05:50:16Z</time>
      </trkpt>
      <trkpt lat="45.15962" lon="6.29049">
        <ele>1796.4</ele>
        <time>2021-02-28T05:50:17Z</time>
      </trkpt>
      <trkpt lat="45.15961" lon="6.29049">
        <ele>1796.4</ele>
        <time>2021-02-28T05:50:18Z</time>
      </trkpt>
      <trkpt lat="45.1596" lon="6.2905">
        <ele>1796.8</ele>
        <time>2021-02-28T05:50:19Z</time>
      </trkpt>
      <trkpt lat="45.1596" lon="6.2905">
        <ele>1797.2</ele>
        <time>2021-02-28T05:50:20Z</time>
      </trkpt>
      <trkpt lat="45.1596" lon="6.2905">
        <ele>1797.6</ele>
        <time>2021-02-28T05:50:21Z</time>
      </trkpt>
      <trkpt lat="45.1596" lon="6.2905">
        <ele>1798</ele>
        <time>2021-02-28T05:50:22Z</time>
      </trkpt>
      <trkpt lat="45.15959" lon="6.2905">
        <ele>1798.2</ele>
        <time>2021-02-28T05:50:23Z</time>
      </trkpt>
      <trkpt lat="45.15958" lon="6.29051">
        <ele>1798.6</ele>
        <time>2021-02-28T05:50:24Z</time>
      </trkpt>
      <trkpt lat="45.15958" lon="6.29051">
        <ele>1798.8</ele>
        <time>2021-02-28T05:50:25Z</time>
      </trkpt>
      <trkpt lat="45.15957" lon="6.29051">
        <ele>1799.2</ele>
        <time>2021-02-28T05:50:26Z</time>
      </trkpt>
      <trkpt lat="45.15956" lon="6.29052">
        <ele>1799.6</ele>
        <time>2021-02-28T05:50:27Z</time>
      </trkpt>
      <trkpt lat="45.15956" lon="6.29052">
        <ele>1799.8</ele>
        <time>2021-02-28T05:50:28Z</time>
      </trkpt>
      <trkpt lat="45.15955" lon="6.29052">
        <ele>1800.2</ele>
        <time>2021-02-28T05:50:29Z</time>
      </trkpt>
      <trkpt lat="45.15954" lon="6.29053">
        <ele>1800.8</ele>
        <time>2021-02-28T05:50:30Z</time>
      </trkpt>
      <trkpt lat="45.15954" lon="6.29053">
        <ele>1801</ele>
        <time>2021-02-28T05:50:31Z</time>
      </trkpt>
      <trkpt lat="45.15953" lon="6.29053">
        <ele>1801.4</ele>
        <time>2021-02-28T05:50:32Z</time>
      </trkpt>
      <trkpt lat="45.15952" lon="6.29054">
        <ele>1801.8</ele>
        <time>2021-02-28T05:50:33Z</time>
      </trkpt>
      <trkpt lat="45.15952" lon="6.29054">
        <ele>1802.2</ele>
        <time>2021-02-28T05:50:34Z</time>
      </trkpt>
      <trkpt lat="45.15951" lon="6.29054">
        <ele>1802.4</ele>
        <time>2021-02-28T05:50:35Z</time>
      </trkpt>
      <trkpt lat="45.1595" lon="6.29055">
        <ele>1802.8</ele>
        <time>2021-02-28T05:50:36Z</time>
      </trkpt>
      <trkpt lat="45.15949" lon="6.29056">
        <ele>1802.8</ele>
        <time>2021-02-28T05:50:37Z</time>
      </trkpt>
      <trkpt lat="45.15949" lon="6.29057">
        <ele>1803.4</ele>
        <time>2021-02-28T05:50:38Z</time>
      </trkpt>
      <trkpt lat="45.15948" lon="6.29057">
        <ele>1803.4</ele>
        <time>2021-02-28T05:50:39Z</time>
      </trkpt>
      <trkpt lat="45.15947" lon="6.29058">
        <ele>1803.8</ele>
        <time>2021-02-28T05:50:40Z</time>
      </trkpt>
      <trkpt lat="45.15946" lon="6.29059">
        <ele>1804.4</ele>
        <time>2021-02-28T05:50:41Z</time>
      </trkpt>
      <trkpt lat="45.15946" lon="6.2906">
        <ele>1804.8</ele>
        <time>2021-02-28T05:50:42Z</time>
      </trkpt>
      <trkpt lat="45.15945" lon="6.29061">
        <ele>1804.8</ele>
        <time>2021-02-28T05:50:43Z</time>
      </trkpt>
      <trkpt lat="45.15944" lon="6.29061">
        <ele>1805.2</ele>
        <time>2021-02-28T05:50:44Z</time>
      </trkpt>
      <trkpt lat="45.15943" lon="6.29062">
        <ele>1805.6</ele>
        <time>2021-02-28T05:50:45Z</time>
      </trkpt>
      <trkpt lat="45.15943" lon="6.29063">
        <ele>1805.6</ele>
        <time>2021-02-28T05:50:46Z</time>
      </trkpt>
      <trkpt lat="45.15943" lon="6.29064">
        <ele>1806.4</ele>
        <time>2021-02-28T05:50:47Z</time>
      </trkpt>
      <trkpt lat="45.15943" lon="6.29065">
        <ele>1806.4</ele>
        <time>2021-02-28T05:50:48Z</time>
      </trkpt>
      <trkpt lat="45.15942" lon="6.29066">
        <ele>1806.4</ele>
        <time>2021-02-28T05:50:49Z</time>
      </trkpt>
      <trkpt lat="45.15942" lon="6.29067">
        <ele>1807</ele>
        <time>2021-02-28T05:50:50Z</time>
      </trkpt>
      <trkpt lat="45.15942" lon="6.29068">
        <ele>1807.4</ele>
        <time>2021-02-28T05:50:51Z</time>
      </trkpt>
      <trkpt lat="45.15942" lon="6.29069">
        <ele>1807.6</ele>
        <time>2021-02-28T05:50:52Z</time>
      </trkpt>
      <trkpt lat="45.15941" lon="6.2907">
        <ele>1807.8</ele>
        <time>2021-02-28T05:50:53Z</time>
      </trkpt>
      <trkpt lat="45.15941" lon="6.29073">
        <ele>1807.8</ele>
        <time>2021-02-28T05:50:54Z</time>
      </trkpt>
      <trkpt lat="45.15941" lon="6.29073">
        <ele>1808.4</ele>
        <time>2021-02-28T05:50:55Z</time>
      </trkpt>
      <trkpt lat="45.1594" lon="6.29076">
        <ele>1808.8</ele>
        <time>2021-02-28T05:50:56Z</time>
      </trkpt>
      <trkpt lat="45.1594" lon="6.29076">
        <ele>1808.8</ele>
        <time>2021-02-28T05:50:57Z</time>
      </trkpt>
      <trkpt lat="45.1594" lon="6.29076">
        <ele>1809.4</ele>
        <time>2021-02-28T05:50:58Z</time>
      </trkpt>
      <trkpt lat="45.15939" lon="6.29077">
        <ele>1809.4</ele>
        <time>2021-02-28T05:50:59Z</time>
      </trkpt>
      <trkpt lat="45.15939" lon="6.29078">
        <ele>1809.6</ele>
        <time>2021-02-28T05:51:00Z</time>
      </trkpt>
      <trkpt lat="45.15938" lon="6.29079">
        <ele>1810</ele>
        <time>2021-02-28T05:51:01Z</time>
      </trkpt>
      <trkpt lat="45.15937" lon="6.2908">
        <ele>1810.2</ele>
        <time>2021-02-28T05:51:02Z</time>
      </trkpt>
      <trkpt lat="45.15937" lon="6.29081">
        <ele>1810.2</ele>
        <time>2021-02-28T05:51:03Z</time>
      </trkpt>
      <trkpt lat="45.15936" lon="6.29081">
        <ele>1810.2</ele>
        <time>2021-02-28T05:51:04Z</time>
      </trkpt>
      <trkpt lat="45.15935" lon="6.29081">
        <ele>1810.6</ele>
        <time>2021-02-28T05:51:05Z</time>
      </trkpt>
      <trkpt lat="45.15934" lon="6.29081">
        <ele>1810.6</ele>
        <time>2021-02-28T05:51:06Z</time>
      </trkpt>
      <trkpt lat="45.15933" lon="6.29081">
        <ele>1810.6</ele>
        <time>2021-02-28T05:51:07Z</time>
      </trkpt>
      <trkpt lat="45.15932" lon="6.29081">
        <ele>1811</ele>
        <time>2021-02-28T05:51:08Z</time>
      </trkpt>
      <trkpt lat="45.15931" lon="6.29081">
        <ele>1811</ele>
        <time>2021-02-28T05:51:09Z</time>
      </trkpt>
      <trkpt lat="45.1593" lon="6.29081">
        <ele>1811.2</ele>
        <time>2021-02-28T05:51:10Z</time>
      </trkpt>
      <trkpt lat="45.15929" lon="6.2908">
        <ele>1811.2</ele>
        <time>2021-02-28T05:51:11Z</time>
      </trkpt>
      <trkpt lat="45.15928" lon="6.2908">
        <ele>1811.4</ele>
        <time>2021-02-28T05:51:12Z</time>
      </trkpt>
      <trkpt lat="45.15927" lon="6.2908">
        <ele>1811.6</ele>
        <time>2021-02-28T05:51:13Z</time>
      </trkpt>
      <trkpt lat="45.15926" lon="6.2908">
        <ele>1811.6</ele>
        <time>2021-02-28T05:51:14Z</time>
      </trkpt>
      <trkpt lat="45.15924" lon="6.29079">
        <ele>1812</ele>
        <time>2021-02-28T05:51:15Z</time>
      </trkpt>
      <trkpt lat="45.15923" lon="6.29078">
        <ele>1812</ele>
        <time>2021-02-28T05:51:16Z</time>
      </trkpt>
      <trkpt lat="45.15921" lon="6.29077">
        <ele>1812</ele>
        <time>2021-02-28T05:51:17Z</time>
      </trkpt>
      <trkpt lat="45.1592" lon="6.29077">
        <ele>1812.4</ele>
        <time>2021-02-28T05:51:18Z</time>
      </trkpt>
      <trkpt lat="45.15918" lon="6.29076">
        <ele>1812.2</ele>
        <time>2021-02-28T05:51:19Z</time>
      </trkpt>
      <trkpt lat="45.15917" lon="6.29075">
        <ele>1812.8</ele>
        <time>2021-02-28T05:51:20Z</time>
      </trkpt>
      <trkpt lat="45.15915" lon="6.29075">
        <ele>1813</ele>
        <time>2021-02-28T05:51:21Z</time>
      </trkpt>
      <trkpt lat="45.15915" lon="6.29075">
        <ele>1812.8</ele>
        <time>2021-02-28T05:51:22Z</time>
      </trkpt>
      <trkpt lat="45.15914" lon="6.29074">
        <ele>1813.4</ele>
        <time>2021-02-28T05:51:23Z</time>
      </trkpt>
      <trkpt lat="45.15914" lon="6.29074">
        <ele>1813.4</ele>
        <time>2021-02-28T05:51:24Z</time>
      </trkpt>
      <trkpt lat="45.15914" lon="6.29074">
        <ele>1813.4</ele>
        <time>2021-02-28T05:51:25Z</time>
      </trkpt>
      <trkpt lat="45.15912" lon="6.29076">
        <ele>1813.8</ele>
        <time>2021-02-28T05:51:26Z</time>
      </trkpt>
      <trkpt lat="45.15912" lon="6.29076">
        <ele>1814.2</ele>
        <time>2021-02-28T05:51:27Z</time>
      </trkpt>
      <trkpt lat="45.15911" lon="6.29078">
        <ele>1814.4</ele>
        <time>2021-02-28T05:51:28Z</time>
      </trkpt>
      <trkpt lat="45.15911" lon="6.29078">
        <ele>1814.4</ele>
        <time>2021-02-28T05:51:29Z</time>
      </trkpt>
      <trkpt lat="45.15909" lon="6.2908">
        <ele>1814.6</ele>
        <time>2021-02-28T05:51:30Z</time>
      </trkpt>
      <trkpt lat="45.15909" lon="6.2908">
        <ele>1815</ele>
        <time>2021-02-28T05:51:31Z</time>
      </trkpt>
      <trkpt lat="45.15909" lon="6.2908">
        <ele>1815.2</ele>
        <time>2021-02-28T05:51:32Z</time>
      </trkpt>
      <trkpt lat="45.15908" lon="6.2908">
        <ele>1815.6</ele>
        <time>2021-02-28T05:51:33Z</time>
      </trkpt>
      <trkpt lat="45.15907" lon="6.2908">
        <ele>1815.8</ele>
        <time>2021-02-28T05:51:34Z</time>
      </trkpt>
      <trkpt lat="45.15906" lon="6.29079">
        <ele>1816.4</ele>
        <time>2021-02-28T05:51:35Z</time>
      </trkpt>
      <trkpt lat="45.15904" lon="6.29079">
        <ele>1816.6</ele>
        <time>2021-02-28T05:51:36Z</time>
      </trkpt>
      <trkpt lat="45.15903" lon="6.29079">
        <ele>1816.8</ele>
        <time>2021-02-28T05:51:37Z</time>
      </trkpt>
      <trkpt lat="45.15902" lon="6.29078">
        <ele>1817</ele>
        <time>2021-02-28T05:51:38Z</time>
      </trkpt>
      <trkpt lat="45.15901" lon="6.29078">
        <ele>1817</ele>
        <time>2021-02-28T05:51:39Z</time>
      </trkpt>
      <trkpt lat="45.15899" lon="6.29077">
        <ele>1817.4</ele>
        <time>2021-02-28T05:51:40Z</time>
      </trkpt>
      <trkpt lat="45.15898" lon="6.29077">
        <ele>1817.6</ele>
        <time>2021-02-28T05:51:41Z</time>
      </trkpt>
      <trkpt lat="45.15898" lon="6.29077">
        <ele>1817.6</ele>
        <time>2021-02-28T05:51:42Z</time>
      </trkpt>
      <trkpt lat="45.15898" lon="6.29077">
        <ele>1818</ele>
        <time>2021-02-28T05:51:43Z</time>
      </trkpt>
      <trkpt lat="45.15896" lon="6.29074">
        <ele>1818.4</ele>
        <time>2021-02-28T05:51:44Z</time>
      </trkpt>
      <trkpt lat="45.15896" lon="6.29074">
        <ele>1818.8</ele>
        <time>2021-02-28T05:51:45Z</time>
      </trkpt>
      <trkpt lat="45.15896" lon="6.29074">
        <ele>1818.8</ele>
        <time>2021-02-28T05:51:46Z</time>
      </trkpt>
      <trkpt lat="45.15895" lon="6.29072">
        <ele>1819.4</ele>
        <time>2021-02-28T05:51:47Z</time>
      </trkpt>
      <trkpt lat="45.15895" lon="6.29072">
        <ele>1819.6</ele>
        <time>2021-02-28T05:51:48Z</time>
      </trkpt>
      <trkpt lat="45.15895" lon="6.29072">
        <ele>1819.6</ele>
        <time>2021-02-28T05:51:49Z</time>
      </trkpt>
      <trkpt lat="45.15892" lon="6.29072">
        <ele>1820</ele>
        <time>2021-02-28T05:51:50Z</time>
      </trkpt>
      <trkpt lat="45.15892" lon="6.29072">
        <ele>1820.2</ele>
        <time>2021-02-28T05:51:51Z</time>
      </trkpt>
      <trkpt lat="45.15892" lon="6.29072">
        <ele>1820.4</ele>
        <time>2021-02-28T05:51:52Z</time>
      </trkpt>
      <trkpt lat="45.15892" lon="6.29072">
        <ele>1820.4</ele>
        <time>2021-02-28T05:51:53Z</time>
      </trkpt>
      <trkpt lat="45.15892" lon="6.29072">
        <ele>1820.8</ele>
        <time>2021-02-28T05:51:54Z</time>
      </trkpt>
      <trkpt lat="45.15892" lon="6.29072">
        <ele>1821</ele>
        <time>2021-02-28T05:51:55Z</time>
      </trkpt>
      <trkpt lat="45.15892" lon="6.29072">
        <ele>1821.4</ele>
        <time>2021-02-28T05:51:56Z</time>
      </trkpt>
      <trkpt lat="45.1589" lon="6.29073">
        <ele>1821.6</ele>
        <time>2021-02-28T05:51:57Z</time>
      </trkpt>
      <trkpt lat="45.1589" lon="6.29073">
        <ele>1821.8</ele>
        <time>2021-02-28T05:51:58Z</time>
      </trkpt>
      <trkpt lat="45.1589" lon="6.29073">
        <ele>1822</ele>
        <time>2021-02-28T05:51:59Z</time>
      </trkpt>
      <trkpt lat="45.15889" lon="6.29073">
        <ele>1822.2</ele>
        <time>2021-02-28T05:52:00Z</time>
      </trkpt>
      <trkpt lat="45.15888" lon="6.29074">
        <ele>1822.8</ele>
        <time>2021-02-28T05:52:01Z</time>
      </trkpt>
      <trkpt lat="45.15887" lon="6.29075">
        <ele>1823</ele>
        <time>2021-02-28T05:52:02Z</time>
      </trkpt>
      <trkpt lat="45.15886" lon="6.29075">
        <ele>1823.4</ele>
        <time>2021-02-28T05:52:03Z</time>
      </trkpt>
      <trkpt lat="45.15885" lon="6.29076">
        <ele>1823.6</ele>
        <time>2021-02-28T05:52:04Z</time>
      </trkpt>
      <trkpt lat="45.15884" lon="6.29077">
        <ele>1823.8</ele>
        <time>2021-02-28T05:52:05Z</time>
      </trkpt>
      <trkpt lat="45.15883" lon="6.29077">
        <ele>1824.2</ele>
        <time>2021-02-28T05:52:06Z</time>
      </trkpt>
      <trkpt lat="45.15882" lon="6.29078">
        <ele>1824.4</ele>
        <time>2021-02-28T05:52:07Z</time>
      </trkpt>
      <trkpt lat="45.15881" lon="6.29079">
        <ele>1824.6</ele>
        <time>2021-02-28T05:52:08Z</time>
      </trkpt>
      <trkpt lat="45.15881" lon="6.2908">
        <ele>1824.6</ele>
        <time>2021-02-28T05:52:09Z</time>
      </trkpt>
      <trkpt lat="45.1588" lon="6.29081">
        <ele>1825.2</ele>
        <time>2021-02-28T05:52:10Z</time>
      </trkpt>
      <trkpt lat="45.15879" lon="6.29082">
        <ele>1825.2</ele>
        <time>2021-02-28T05:52:11Z</time>
      </trkpt>
      <trkpt lat="45.15878" lon="6.29083">
        <ele>1825.2</ele>
        <time>2021-02-28T05:52:12Z</time>
      </trkpt>
      <trkpt lat="45.15878" lon="6.29084">
        <ele>1825.4</ele>
        <time>2021-02-28T05:52:13Z</time>
      </trkpt>
      <trkpt lat="45.15877" lon="6.29085">
        <ele>1825.4</ele>
        <time>2021-02-28T05:52:14Z</time>
      </trkpt>
      <trkpt lat="45.15876" lon="6.29086">
        <ele>1825.6</ele>
        <time>2021-02-28T05:52:15Z</time>
      </trkpt>
      <trkpt lat="45.15876" lon="6.29087">
        <ele>1826</ele>
        <time>2021-02-28T05:52:16Z</time>
      </trkpt>
      <trkpt lat="45.15875" lon="6.29087">
        <ele>1826</ele>
        <time>2021-02-28T05:52:17Z</time>
      </trkpt>
      <trkpt lat="45.15874" lon="6.29088">
        <ele>1826.4</ele>
        <time>2021-02-28T05:52:18Z</time>
      </trkpt>
      <trkpt lat="45.15873" lon="6.29089">
        <ele>1826.6</ele>
        <time>2021-02-28T05:52:19Z</time>
      </trkpt>
      <trkpt lat="45.15873" lon="6.29089">
        <ele>1826.8</ele>
        <time>2021-02-28T05:52:20Z</time>
      </trkpt>
      <trkpt lat="45.15872" lon="6.2909">
        <ele>1827</ele>
        <time>2021-02-28T05:52:21Z</time>
      </trkpt>
      <trkpt lat="45.15871" lon="6.2909">
        <ele>1827.4</ele>
        <time>2021-02-28T05:52:22Z</time>
      </trkpt>
      <trkpt lat="45.1587" lon="6.29091">
        <ele>1827.6</ele>
        <time>2021-02-28T05:52:23Z</time>
      </trkpt>
      <trkpt lat="45.1587" lon="6.29091">
        <ele>1827.8</ele>
        <time>2021-02-28T05:52:24Z</time>
      </trkpt>
      <trkpt lat="45.15869" lon="6.29092">
        <ele>1828</ele>
        <time>2021-02-28T05:52:25Z</time>
      </trkpt>
      <trkpt lat="45.15868" lon="6.29092">
        <ele>1828</ele>
        <time>2021-02-28T05:52:26Z</time>
      </trkpt>
      <trkpt lat="45.15867" lon="6.29093">
        <ele>1828.4</ele>
        <time>2021-02-28T05:52:27Z</time>
      </trkpt>
      <trkpt lat="45.15866" lon="6.29095">
        <ele>1828.2</ele>
        <time>2021-02-28T05:52:28Z</time>
      </trkpt>
      <trkpt lat="45.15864" lon="6.29097">
        <ele>1828.8</ele>
        <time>2021-02-28T05:52:29Z</time>
      </trkpt>
      <trkpt lat="45.15863" lon="6.29099">
        <ele>1829</ele>
        <time>2021-02-28T05:52:30Z</time>
      </trkpt>
      <trkpt lat="45.15861" lon="6.29101">
        <ele>1829.2</ele>
        <time>2021-02-28T05:52:31Z</time>
      </trkpt>
      <trkpt lat="45.15861" lon="6.29101">
        <ele>1829.4</ele>
        <time>2021-02-28T05:52:32Z</time>
      </trkpt>
      <trkpt lat="45.15861" lon="6.29101">
        <ele>1829.6</ele>
        <time>2021-02-28T05:52:33Z</time>
      </trkpt>
      <trkpt lat="45.15861" lon="6.29101">
        <ele>1829.6</ele>
        <time>2021-02-28T05:52:34Z</time>
      </trkpt>
      <trkpt lat="45.15861" lon="6.29101">
        <ele>1829.6</ele>
        <time>2021-02-28T05:52:35Z</time>
      </trkpt>
      <trkpt lat="45.15861" lon="6.29101">
        <ele>1829.6</ele>
        <time>2021-02-28T05:52:36Z</time>
      </trkpt>
      <trkpt lat="45.15861" lon="6.29101">
        <ele>1829.6</ele>
        <time>2021-02-28T05:52:37Z</time>
      </trkpt>
      <trkpt lat="45.15861" lon="6.29101">
        <ele>1829.6</ele>
        <time>2021-02-28T05:52:38Z</time>
      </trkpt>
      <trkpt lat="45.15861" lon="6.29101">
        <ele>1829.6</ele>
        <time>2021-02-28T05:52:39Z</time>
      </trkpt>
      <trkpt lat="45.15861" lon="6.29101">
        <ele>1829.6</ele>
        <time>2021-02-28T05:52:40Z</time>
      </trkpt>
      <trkpt lat="45.15861" lon="6.29101">
        <ele>1829.4</ele>
        <time>2021-02-28T05:52:41Z</time>
      </trkpt>
      <trkpt lat="45.15861" lon="6.29101">
        <ele>1829.6</ele>
        <time>2021-02-28T05:52:42Z</time>
      </trkpt>
      <trkpt lat="45.15861" lon="6.29101">
        <ele>1829.4</ele>
        <time>2021-02-28T05:52:43Z</time>
      </trkpt>
      <trkpt lat="45.15861" lon="6.29101">
        <ele>1829.4</ele>
        <time>2021-02-28T05:52:44Z</time>
      </trkpt>
      <trkpt lat="45.15861" lon="6.29101">
        <ele>1829.4</ele>
        <time>2021-02-28T05:52:45Z</time>
      </trkpt>
      <trkpt lat="45.15861" lon="6.29101">
        <ele>1829.6</ele>
        <time>2021-02-28T05:52:46Z</time>
      </trkpt>
      <trkpt lat="45.15861" lon="6.29101">
        <ele>1829.4</ele>
        <time>2021-02-28T05:52:47Z</time>
      </trkpt>
      <trkpt lat="45.15861" lon="6.29101">
        <ele>1829.4</ele>
        <time>2021-02-28T05:52:48Z</time>
      </trkpt>
      <trkpt lat="45.15859" lon="6.29101">
        <ele>1829.6</ele>
        <time>2021-02-28T05:52:49Z</time>
      </trkpt>
      <trkpt lat="45.15859" lon="6.29101">
        <ele>1829.6</ele>
        <time>2021-02-28T05:52:50Z</time>
      </trkpt>
      <trkpt lat="45.15859" lon="6.29101">
        <ele>1829.6</ele>
        <time>2021-02-28T05:52:51Z</time>
      </trkpt>
      <trkpt lat="45.15859" lon="6.29101">
        <ele>1829.6</ele>
        <time>2021-02-28T05:52:52Z</time>
      </trkpt>
      <trkpt lat="45.15859" lon="6.29101">
        <ele>1829.4</ele>
        <time>2021-02-28T05:52:53Z</time>
      </trkpt>
      <trkpt lat="45.15859" lon="6.29101">
        <ele>1829.4</ele>
        <time>2021-02-28T05:52:54Z</time>
      </trkpt>
      <trkpt lat="45.15858" lon="6.29103">
        <ele>1829.4</ele>
        <time>2021-02-28T05:52:55Z</time>
      </trkpt>
      <trkpt lat="45.15858" lon="6.29103">
        <ele>1829.2</ele>
        <time>2021-02-28T05:52:56Z</time>
      </trkpt>
      <trkpt lat="45.15858" lon="6.29103">
        <ele>1829.2</ele>
        <time>2021-02-28T05:52:57Z</time>
      </trkpt>
      <trkpt lat="45.15857" lon="6.29107">
        <ele>1829.2</ele>
        <time>2021-02-28T05:52:58Z</time>
      </trkpt>
      <trkpt lat="45.15857" lon="6.29107">
        <ele>1829.2</ele>
        <time>2021-02-28T05:52:59Z</time>
      </trkpt>
      <trkpt lat="45.15857" lon="6.29107">
        <ele>1829.4</ele>
        <time>2021-02-28T05:53:00Z</time>
      </trkpt>
      <trkpt lat="45.15857" lon="6.2911">
        <ele>1829.2</ele>
        <time>2021-02-28T05:53:01Z</time>
      </trkpt>
      <trkpt lat="45.15857" lon="6.2911">
        <ele>1829.4</ele>
        <time>2021-02-28T05:53:02Z</time>
      </trkpt>
      <trkpt lat="45.15856" lon="6.29113">
        <ele>1829.6</ele>
        <time>2021-02-28T05:53:03Z</time>
      </trkpt>
      <trkpt lat="45.15856" lon="6.29113">
        <ele>1829.6</ele>
        <time>2021-02-28T05:53:04Z</time>
      </trkpt>
      <trkpt lat="45.15856" lon="6.29113">
        <ele>1829.8</ele>
        <time>2021-02-28T05:53:05Z</time>
      </trkpt>
      <trkpt lat="45.15856" lon="6.29116">
        <ele>1830.2</ele>
        <time>2021-02-28T05:53:06Z</time>
      </trkpt>
      <trkpt lat="45.15856" lon="6.29116">
        <ele>1830.4</ele>
        <time>2021-02-28T05:53:07Z</time>
      </trkpt>
      <trkpt lat="45.15855" lon="6.29118">
        <ele>1830.4</ele>
        <time>2021-02-28T05:53:08Z</time>
      </trkpt>
      <trkpt lat="45.15855" lon="6.29118">
        <ele>1830.6</ele>
        <time>2021-02-28T05:53:09Z</time>
      </trkpt>
      <trkpt lat="45.15853" lon="6.29121">
        <ele>1831</ele>
        <time>2021-02-28T05:53:10Z</time>
      </trkpt>
      <trkpt lat="45.15853" lon="6.29121">
        <ele>1831.2</ele>
        <time>2021-02-28T05:53:11Z</time>
      </trkpt>
      <trkpt lat="45.15852" lon="6.29123">
        <ele>1831.4</ele>
        <time>2021-02-28T05:53:12Z</time>
      </trkpt>
      <trkpt lat="45.15852" lon="6.29123">
        <ele>1831.6</ele>
        <time>2021-02-28T05:53:13Z</time>
      </trkpt>
      <trkpt lat="45.1585" lon="6.29125">
        <ele>1831.8</ele>
        <time>2021-02-28T05:53:14Z</time>
      </trkpt>
      <trkpt lat="45.1585" lon="6.29125">
        <ele>1832.2</ele>
        <time>2021-02-28T05:53:15Z</time>
      </trkpt>
      <trkpt lat="45.1585" lon="6.29128">
        <ele>1832.4</ele>
        <time>2021-02-28T05:53:16Z</time>
      </trkpt>
      <trkpt lat="45.1585" lon="6.29128">
        <ele>1832.6</ele>
        <time>2021-02-28T05:53:17Z</time>
      </trkpt>
      <trkpt lat="45.15849" lon="6.2913">
        <ele>1833</ele>
        <time>2021-02-28T05:53:18Z</time>
      </trkpt>
      <trkpt lat="45.15849" lon="6.2913">
        <ele>1833</ele>
        <time>2021-02-28T05:53:19Z</time>
      </trkpt>
      <trkpt lat="45.15848" lon="6.29132">
        <ele>1833</ele>
        <time>2021-02-28T05:53:20Z</time>
      </trkpt>
      <trkpt lat="45.15848" lon="6.29132">
        <ele>1833</ele>
        <time>2021-02-28T05:53:21Z</time>
      </trkpt>
      <trkpt lat="45.15848" lon="6.29132">
        <ele>1833</ele>
        <time>2021-02-28T05:53:22Z</time>
      </trkpt>
      <trkpt lat="45.15848" lon="6.29136">
        <ele>1833.4</ele>
        <time>2021-02-28T05:53:23Z</time>
      </trkpt>
      <trkpt lat="45.15848" lon="6.29136">
        <ele>1833.4</ele>
        <time>2021-02-28T05:53:24Z</time>
      </trkpt>
      <trkpt lat="45.15847" lon="6.29138">
        <ele>1833.6</ele>
        <time>2021-02-28T05:53:25Z</time>
      </trkpt>
      <trkpt lat="45.15847" lon="6.29138">
        <ele>1834</ele>
        <time>2021-02-28T05:53:26Z</time>
      </trkpt>
      <trkpt lat="45.15846" lon="6.29141">
        <ele>1834.4</ele>
        <time>2021-02-28T05:53:27Z</time>
      </trkpt>
      <trkpt lat="45.15846" lon="6.29141">
        <ele>1834.6</ele>
        <time>2021-02-28T05:53:28Z</time>
      </trkpt>
      <trkpt lat="45.15845" lon="6.29143">
        <ele>1835</ele>
        <time>2021-02-28T05:53:29Z</time>
      </trkpt>
      <trkpt lat="45.15845" lon="6.29143">
        <ele>1835.2</ele>
        <time>2021-02-28T05:53:30Z</time>
      </trkpt>
      <trkpt lat="45.15843" lon="6.29146">
        <ele>1835.4</ele>
        <time>2021-02-28T05:53:31Z</time>
      </trkpt>
      <trkpt lat="45.15843" lon="6.29146">
        <ele>1835.8</ele>
        <time>2021-02-28T05:53:32Z</time>
      </trkpt>
      <trkpt lat="45.15842" lon="6.29149">
        <ele>1835.8</ele>
        <time>2021-02-28T05:53:33Z</time>
      </trkpt>
      <trkpt lat="45.15842" lon="6.29149">
        <ele>1836.2</ele>
        <time>2021-02-28T05:53:34Z</time>
      </trkpt>
      <trkpt lat="45.15841" lon="6.29151">
        <ele>1836.4</ele>
        <time>2021-02-28T05:53:35Z</time>
      </trkpt>
      <trkpt lat="45.15841" lon="6.29151">
        <ele>1836.8</ele>
        <time>2021-02-28T05:53:36Z</time>
      </trkpt>
      <trkpt lat="45.15841" lon="6.29151">
        <ele>1837</ele>
        <time>2021-02-28T05:53:37Z</time>
      </trkpt>
      <trkpt lat="45.1584" lon="6.29155">
        <ele>1837.2</ele>
        <time>2021-02-28T05:53:38Z</time>
      </trkpt>
      <trkpt lat="45.1584" lon="6.29155">
        <ele>1837.6</ele>
        <time>2021-02-28T05:53:39Z</time>
      </trkpt>
      <trkpt lat="45.1584" lon="6.29158">
        <ele>1838</ele>
        <time>2021-02-28T05:53:40Z</time>
      </trkpt>
      <trkpt lat="45.1584" lon="6.29158">
        <ele>1838</ele>
        <time>2021-02-28T05:53:41Z</time>
      </trkpt>
      <trkpt lat="45.1584" lon="6.29161">
        <ele>1838.2</ele>
        <time>2021-02-28T05:53:42Z</time>
      </trkpt>
      <trkpt lat="45.1584" lon="6.29161">
        <ele>1838.4</ele>
        <time>2021-02-28T05:53:43Z</time>
      </trkpt>
      <trkpt lat="45.1584" lon="6.29165">
        <ele>1838.6</ele>
        <time>2021-02-28T05:53:44Z</time>
      </trkpt>
      <trkpt lat="45.1584" lon="6.29165">
        <ele>1838.4</ele>
        <time>2021-02-28T05:53:45Z</time>
      </trkpt>
      <trkpt lat="45.15838" lon="6.29168">
        <ele>1838.6</ele>
        <time>2021-02-28T05:53:46Z</time>
      </trkpt>
      <trkpt lat="45.15838" lon="6.29168">
        <ele>1838.8</ele>
        <time>2021-02-28T05:53:47Z</time>
      </trkpt>
      <trkpt lat="45.15838" lon="6.2917">
        <ele>1839.2</ele>
        <time>2021-02-28T05:53:48Z</time>
      </trkpt>
      <trkpt lat="45.15838" lon="6.2917">
        <ele>1839.2</ele>
        <time>2021-02-28T05:53:49Z</time>
      </trkpt>
      <trkpt lat="45.15838" lon="6.2917">
        <ele>1839.6</ele>
        <time>2021-02-28T05:53:50Z</time>
      </trkpt>
      <trkpt lat="45.15839" lon="6.29174">
        <ele>1839.8</ele>
        <time>2021-02-28T05:53:51Z</time>
      </trkpt>
      <trkpt lat="45.15839" lon="6.29174">
        <ele>1840.2</ele>
        <time>2021-02-28T05:53:52Z</time>
      </trkpt>
      <trkpt lat="45.15839" lon="6.29174">
        <ele>1840.4</ele>
        <time>2021-02-28T05:53:53Z</time>
      </trkpt>
      <trkpt lat="45.15839" lon="6.29178">
        <ele>1840.6</ele>
        <time>2021-02-28T05:53:54Z</time>
      </trkpt>
      <trkpt lat="45.15839" lon="6.29178">
        <ele>1840.6</ele>
        <time>2021-02-28T05:53:55Z</time>
      </trkpt>
      <trkpt lat="45.15838" lon="6.2918">
        <ele>1840.8</ele>
        <time>2021-02-28T05:53:56Z</time>
      </trkpt>
      <trkpt lat="45.15838" lon="6.2918">
        <ele>1841</ele>
        <time>2021-02-28T05:53:57Z</time>
      </trkpt>
      <trkpt lat="45.15838" lon="6.2918">
        <ele>1841.4</ele>
        <time>2021-02-28T05:53:58Z</time>
      </trkpt>
      <trkpt lat="45.15836" lon="6.29183">
        <ele>1841.6</ele>
        <time>2021-02-28T05:53:59Z</time>
      </trkpt>
      <trkpt lat="45.15836" lon="6.29183">
        <ele>1842.2</ele>
        <time>2021-02-28T05:54:00Z</time>
      </trkpt>
      <trkpt lat="45.15835" lon="6.29185">
        <ele>1842.2</ele>
        <time>2021-02-28T05:54:01Z</time>
      </trkpt>
      <trkpt lat="45.15835" lon="6.29185">
        <ele>1842.8</ele>
        <time>2021-02-28T05:54:02Z</time>
      </trkpt>
      <trkpt lat="45.15834" lon="6.29188">
        <ele>1843</ele>
        <time>2021-02-28T05:54:03Z</time>
      </trkpt>
      <trkpt lat="45.15834" lon="6.29188">
        <ele>1843.2</ele>
        <time>2021-02-28T05:54:04Z</time>
      </trkpt>
      <trkpt lat="45.15834" lon="6.29188">
        <ele>1843.6</ele>
        <time>2021-02-28T05:54:05Z</time>
      </trkpt>
      <trkpt lat="45.15832" lon="6.2919">
        <ele>1843.8</ele>
        <time>2021-02-28T05:54:06Z</time>
      </trkpt>
      <trkpt lat="45.15832" lon="6.2919">
        <ele>1844.2</ele>
        <time>2021-02-28T05:54:07Z</time>
      </trkpt>
      <trkpt lat="45.15832" lon="6.2919">
        <ele>1844.2</ele>
        <time>2021-02-28T05:54:08Z</time>
      </trkpt>
      <trkpt lat="45.15831" lon="6.29193">
        <ele>1844.6</ele>
        <time>2021-02-28T05:54:09Z</time>
      </trkpt>
      <trkpt lat="45.15831" lon="6.29193">
        <ele>1844.8</ele>
        <time>2021-02-28T05:54:10Z</time>
      </trkpt>
      <trkpt lat="45.15829" lon="6.29196">
        <ele>1845.2</ele>
        <time>2021-02-28T05:54:11Z</time>
      </trkpt>
      <trkpt lat="45.15829" lon="6.29196">
        <ele>1845.2</ele>
        <time>2021-02-28T05:54:12Z</time>
      </trkpt>
      <trkpt lat="45.15829" lon="6.29196">
        <ele>1845.8</ele>
        <time>2021-02-28T05:54:13Z</time>
      </trkpt>
      <trkpt lat="45.15828" lon="6.29199">
        <ele>1845.8</ele>
        <time>2021-02-28T05:54:14Z</time>
      </trkpt>
      <trkpt lat="45.15828" lon="6.29199">
        <ele>1846</ele>
        <time>2021-02-28T05:54:15Z</time>
      </trkpt>
      <trkpt lat="45.15827" lon="6.29201">
        <ele>1846.4</ele>
        <time>2021-02-28T05:54:16Z</time>
      </trkpt>
      <trkpt lat="45.15827" lon="6.29201">
        <ele>1846.2</ele>
        <time>2021-02-28T05:54:17Z</time>
      </trkpt>
      <trkpt lat="45.15825" lon="6.29203">
        <ele>1846.6</ele>
        <time>2021-02-28T05:54:18Z</time>
      </trkpt>
      <trkpt lat="45.15825" lon="6.29203">
        <ele>1847</ele>
        <time>2021-02-28T05:54:19Z</time>
      </trkpt>
      <trkpt lat="45.15823" lon="6.29205">
        <ele>1847</ele>
        <time>2021-02-28T05:54:20Z</time>
      </trkpt>
      <trkpt lat="45.15823" lon="6.29205">
        <ele>1847.4</ele>
        <time>2021-02-28T05:54:21Z</time>
      </trkpt>
      <trkpt lat="45.15823" lon="6.29205">
        <ele>1847.4</ele>
        <time>2021-02-28T05:54:22Z</time>
      </trkpt>
      <trkpt lat="45.15821" lon="6.29208">
        <ele>1847.6</ele>
        <time>2021-02-28T05:54:23Z</time>
      </trkpt>
      <trkpt lat="45.15821" lon="6.29208">
        <ele>1848</ele>
        <time>2021-02-28T05:54:24Z</time>
      </trkpt>
      <trkpt lat="45.15821" lon="6.29208">
        <ele>1848</ele>
        <time>2021-02-28T05:54:25Z</time>
      </trkpt>
      <trkpt lat="45.15819" lon="6.2921">
        <ele>1848.6</ele>
        <time>2021-02-28T05:54:26Z</time>
      </trkpt>
      <trkpt lat="45.15819" lon="6.2921">
        <ele>1848.8</ele>
        <time>2021-02-28T05:54:27Z</time>
      </trkpt>
      <trkpt lat="45.15818" lon="6.29212">
        <ele>1848.8</ele>
        <time>2021-02-28T05:54:28Z</time>
      </trkpt>
      <trkpt lat="45.15818" lon="6.29212">
        <ele>1849.4</ele>
        <time>2021-02-28T05:54:29Z</time>
      </trkpt>
      <trkpt lat="45.15818" lon="6.29212">
        <ele>1849.6</ele>
        <time>2021-02-28T05:54:30Z</time>
      </trkpt>
      <trkpt lat="45.15816" lon="6.29214">
        <ele>1849.8</ele>
        <time>2021-02-28T05:54:31Z</time>
      </trkpt>
      <trkpt lat="45.15816" lon="6.29214">
        <ele>1850.4</ele>
        <time>2021-02-28T05:54:32Z</time>
      </trkpt>
      <trkpt lat="45.15816" lon="6.29214">
        <ele>1850.4</ele>
        <time>2021-02-28T05:54:33Z</time>
      </trkpt>
      <trkpt lat="45.15814" lon="6.29217">
        <ele>1850.8</ele>
        <time>2021-02-28T05:54:34Z</time>
      </trkpt>
      <trkpt lat="45.15814" lon="6.29217">
        <ele>1851.2</ele>
        <time>2021-02-28T05:54:35Z</time>
      </trkpt>
      <trkpt lat="45.15812" lon="6.2922">
        <ele>1851.2</ele>
        <time>2021-02-28T05:54:36Z</time>
      </trkpt>
      <trkpt lat="45.15812" lon="6.2922">
        <ele>1852</ele>
        <time>2021-02-28T05:54:37Z</time>
      </trkpt>
      <trkpt lat="45.15811" lon="6.29222">
        <ele>1852</ele>
        <time>2021-02-28T05:54:38Z</time>
      </trkpt>
      <trkpt lat="45.15811" lon="6.29222">
        <ele>1852.2</ele>
        <time>2021-02-28T05:54:39Z</time>
      </trkpt>
      <trkpt lat="45.1581" lon="6.29224">
        <ele>1852.6</ele>
        <time>2021-02-28T05:54:40Z</time>
      </trkpt>
      <trkpt lat="45.1581" lon="6.29224">
        <ele>1852.6</ele>
        <time>2021-02-28T05:54:41Z</time>
      </trkpt>
      <trkpt lat="45.15808" lon="6.29226">
        <ele>1853.2</ele>
        <time>2021-02-28T05:54:42Z</time>
      </trkpt>
      <trkpt lat="45.15808" lon="6.29226">
        <ele>1853.4</ele>
        <time>2021-02-28T05:54:43Z</time>
      </trkpt>
      <trkpt lat="45.15807" lon="6.29228">
        <ele>1853.2</ele>
        <time>2021-02-28T05:54:44Z</time>
      </trkpt>
      <trkpt lat="45.15807" lon="6.29228">
        <ele>1853.6</ele>
        <time>2021-02-28T05:54:45Z</time>
      </trkpt>
      <trkpt lat="45.15805" lon="6.2923">
        <ele>1854</ele>
        <time>2021-02-28T05:54:46Z</time>
      </trkpt>
      <trkpt lat="45.15805" lon="6.2923">
        <ele>1854.4</ele>
        <time>2021-02-28T05:54:47Z</time>
      </trkpt>
      <trkpt lat="45.15804" lon="6.29233">
        <ele>1854.6</ele>
        <time>2021-02-28T05:54:48Z</time>
      </trkpt>
      <trkpt lat="45.15804" lon="6.29233">
        <ele>1854.6</ele>
        <time>2021-02-28T05:54:49Z</time>
      </trkpt>
      <trkpt lat="45.15803" lon="6.29235">
        <ele>1855</ele>
        <time>2021-02-28T05:54:50Z</time>
      </trkpt>
      <trkpt lat="45.15803" lon="6.29235">
        <ele>1855.2</ele>
        <time>2021-02-28T05:54:51Z</time>
      </trkpt>
      <trkpt lat="45.15802" lon="6.29237">
        <ele>1855.4</ele>
        <time>2021-02-28T05:54:52Z</time>
      </trkpt>
      <trkpt lat="45.15802" lon="6.29237">
        <ele>1855.6</ele>
        <time>2021-02-28T05:54:53Z</time>
      </trkpt>
      <trkpt lat="45.15801" lon="6.2924">
        <ele>1855.8</ele>
        <time>2021-02-28T05:54:54Z</time>
      </trkpt>
      <trkpt lat="45.15801" lon="6.2924">
        <ele>1856.2</ele>
        <time>2021-02-28T05:54:55Z</time>
      </trkpt>
      <trkpt lat="45.15799" lon="6.29242">
        <ele>1856.2</ele>
        <time>2021-02-28T05:54:56Z</time>
      </trkpt>
      <trkpt lat="45.15799" lon="6.29242">
        <ele>1856.2</ele>
        <time>2021-02-28T05:54:57Z</time>
      </trkpt>
      <trkpt lat="45.15798" lon="6.29245">
        <ele>1856.6</ele>
        <time>2021-02-28T05:54:58Z</time>
      </trkpt>
      <trkpt lat="45.15798" lon="6.29245">
        <ele>1856.6</ele>
        <time>2021-02-28T05:54:59Z</time>
      </trkpt>
      <trkpt lat="45.15796" lon="6.29248">
        <ele>1856.8</ele>
        <time>2021-02-28T05:55:00Z</time>
      </trkpt>
      <trkpt lat="45.15796" lon="6.29248">
        <ele>1857</ele>
        <time>2021-02-28T05:55:01Z</time>
      </trkpt>
      <trkpt lat="45.15794" lon="6.29251">
        <ele>1857.2</ele>
        <time>2021-02-28T05:55:02Z</time>
      </trkpt>
      <trkpt lat="45.15794" lon="6.29251">
        <ele>1857.4</ele>
        <time>2021-02-28T05:55:03Z</time>
      </trkpt>
      <trkpt lat="45.15793" lon="6.29254">
        <ele>1857.6</ele>
        <time>2021-02-28T05:55:04Z</time>
      </trkpt>
      <trkpt lat="45.15793" lon="6.29254">
        <ele>1857.8</ele>
        <time>2021-02-28T05:55:05Z</time>
      </trkpt>
      <trkpt lat="45.15792" lon="6.29257">
        <ele>1857.8</ele>
        <time>2021-02-28T05:55:06Z</time>
      </trkpt>
      <trkpt lat="45.15792" lon="6.29257">
        <ele>1858.2</ele>
        <time>2021-02-28T05:55:07Z</time>
      </trkpt>
      <trkpt lat="45.15791" lon="6.2926">
        <ele>1858.4</ele>
        <time>2021-02-28T05:55:08Z</time>
      </trkpt>
      <trkpt lat="45.15791" lon="6.2926">
        <ele>1858.6</ele>
        <time>2021-02-28T05:55:09Z</time>
      </trkpt>
      <trkpt lat="45.1579" lon="6.29264">
        <ele>1858.8</ele>
        <time>2021-02-28T05:55:10Z</time>
      </trkpt>
      <trkpt lat="45.1579" lon="6.29264">
        <ele>1858.6</ele>
        <time>2021-02-28T05:55:11Z</time>
      </trkpt>
      <trkpt lat="45.1579" lon="6.29266">
        <ele>1859.2</ele>
        <time>2021-02-28T05:55:12Z</time>
      </trkpt>
      <trkpt lat="45.1579" lon="6.29266">
        <ele>1859.2</ele>
        <time>2021-02-28T05:55:13Z</time>
      </trkpt>
      <trkpt lat="45.1579" lon="6.29269">
        <ele>1859.4</ele>
        <time>2021-02-28T05:55:14Z</time>
      </trkpt>
      <trkpt lat="45.1579" lon="6.29269">
        <ele>1859.2</ele>
        <time>2021-02-28T05:55:15Z</time>
      </trkpt>
      <trkpt lat="45.15789" lon="6.29272">
        <ele>1860</ele>
        <time>2021-02-28T05:55:16Z</time>
      </trkpt>
      <trkpt lat="45.15789" lon="6.29272">
        <ele>1860</ele>
        <time>2021-02-28T05:55:17Z</time>
      </trkpt>
      <trkpt lat="45.15789" lon="6.29275">
        <ele>1860.2</ele>
        <time>2021-02-28T05:55:18Z</time>
      </trkpt>
      <trkpt lat="45.15789" lon="6.29275">
        <ele>1860.4</ele>
        <time>2021-02-28T05:55:19Z</time>
      </trkpt>
      <trkpt lat="45.15789" lon="6.29275">
        <ele>1860.6</ele>
        <time>2021-02-28T05:55:20Z</time>
      </trkpt>
      <trkpt lat="45.15788" lon="6.29279">
        <ele>1861</ele>
        <time>2021-02-28T05:55:21Z</time>
      </trkpt>
      <trkpt lat="45.15788" lon="6.29279">
        <ele>1861.2</ele>
        <time>2021-02-28T05:55:22Z</time>
      </trkpt>
      <trkpt lat="45.15788" lon="6.29282">
        <ele>1861.4</ele>
        <time>2021-02-28T05:55:23Z</time>
      </trkpt>
      <trkpt lat="45.15788" lon="6.29282">
        <ele>1862</ele>
        <time>2021-02-28T05:55:24Z</time>
      </trkpt>
      <trkpt lat="45.15787" lon="6.29285">
        <ele>1862.2</ele>
        <time>2021-02-28T05:55:25Z</time>
      </trkpt>
      <trkpt lat="45.15787" lon="6.29285">
        <ele>1862.2</ele>
        <time>2021-02-28T05:55:26Z</time>
      </trkpt>
      <trkpt lat="45.15786" lon="6.29288">
        <ele>1862.8</ele>
        <time>2021-02-28T05:55:27Z</time>
      </trkpt>
      <trkpt lat="45.15786" lon="6.29288">
        <ele>1863</ele>
        <time>2021-02-28T05:55:28Z</time>
      </trkpt>
      <trkpt lat="45.15786" lon="6.29288">
        <ele>1863.6</ele>
        <time>2021-02-28T05:55:29Z</time>
      </trkpt>
      <trkpt lat="45.15784" lon="6.29291">
        <ele>1863.6</ele>
        <time>2021-02-28T05:55:30Z</time>
      </trkpt>
      <trkpt lat="45.15784" lon="6.29291">
        <ele>1863.6</ele>
        <time>2021-02-28T05:55:31Z</time>
      </trkpt>
      <trkpt lat="45.15784" lon="6.29291">
        <ele>1864</ele>
        <time>2021-02-28T05:55:32Z</time>
      </trkpt>
      <trkpt lat="45.15783" lon="6.29295">
        <ele>1864</ele>
        <time>2021-02-28T05:55:33Z</time>
      </trkpt>
      <trkpt lat="45.15783" lon="6.29295">
        <ele>1864.4</ele>
        <time>2021-02-28T05:55:34Z</time>
      </trkpt>
      <trkpt lat="45.15783" lon="6.29295">
        <ele>1864.6</ele>
        <time>2021-02-28T05:55:35Z</time>
      </trkpt>
      <trkpt lat="45.15783" lon="6.29297">
        <ele>1864.6</ele>
        <time>2021-02-28T05:55:36Z</time>
      </trkpt>
      <trkpt lat="45.15783" lon="6.29299">
        <ele>1864.8</ele>
        <time>2021-02-28T05:55:37Z</time>
      </trkpt>
      <trkpt lat="45.15783" lon="6.293">
        <ele>1864.8</ele>
        <time>2021-02-28T05:55:38Z</time>
      </trkpt>
      <trkpt lat="45.15783" lon="6.29302">
        <ele>1865</ele>
        <time>2021-02-28T05:55:39Z</time>
      </trkpt>
      <trkpt lat="45.15782" lon="6.29305">
        <ele>1864.8</ele>
        <time>2021-02-28T05:55:40Z</time>
      </trkpt>
      <trkpt lat="45.15781" lon="6.29309">
        <ele>1864.8</ele>
        <time>2021-02-28T05:55:41Z</time>
      </trkpt>
      <trkpt lat="45.15779" lon="6.29312">
        <ele>1865</ele>
        <time>2021-02-28T05:55:42Z</time>
      </trkpt>
      <trkpt lat="45.15778" lon="6.29316">
        <ele>1864.8</ele>
        <time>2021-02-28T05:55:43Z</time>
      </trkpt>
      <trkpt lat="45.15778" lon="6.29316">
        <ele>1864.8</ele>
        <time>2021-02-28T05:55:44Z</time>
      </trkpt>
      <trkpt lat="45.15777" lon="6.29318">
        <ele>1864.8</ele>
        <time>2021-02-28T05:55:45Z</time>
      </trkpt>
      <trkpt lat="45.15777" lon="6.29318">
        <ele>1864.6</ele>
        <time>2021-02-28T05:55:46Z</time>
      </trkpt>
      <trkpt lat="45.15775" lon="6.29321">
        <ele>1864.8</ele>
        <time>2021-02-28T05:55:47Z</time>
      </trkpt>
      <trkpt lat="45.15775" lon="6.29321">
        <ele>1864.6</ele>
        <time>2021-02-28T05:55:48Z</time>
      </trkpt>
      <trkpt lat="45.15774" lon="6.29323">
        <ele>1864.8</ele>
        <time>2021-02-28T05:55:49Z</time>
      </trkpt>
      <trkpt lat="45.15774" lon="6.29323">
        <ele>1864.8</ele>
        <time>2021-02-28T05:55:50Z</time>
      </trkpt>
      <trkpt lat="45.15774" lon="6.29323">
        <ele>1865</ele>
        <time>2021-02-28T05:55:51Z</time>
      </trkpt>
      <trkpt lat="45.15773" lon="6.29324">
        <ele>1864.8</ele>
        <time>2021-02-28T05:55:52Z</time>
      </trkpt>
      <trkpt lat="45.15772" lon="6.29325">
        <ele>1865.4</ele>
        <time>2021-02-28T05:55:53Z</time>
      </trkpt>
      <trkpt lat="45.15772" lon="6.29325">
        <ele>1865.4</ele>
        <time>2021-02-28T05:55:54Z</time>
      </trkpt>
      <trkpt lat="45.15771" lon="6.29326">
        <ele>1865.6</ele>
        <time>2021-02-28T05:55:55Z</time>
      </trkpt>
      <trkpt lat="45.15771" lon="6.29327">
        <ele>1866</ele>
        <time>2021-02-28T05:55:56Z</time>
      </trkpt>
      <trkpt lat="45.1577" lon="6.29328">
        <ele>1866</ele>
        <time>2021-02-28T05:55:57Z</time>
      </trkpt>
      <trkpt lat="45.15769" lon="6.29329">
        <ele>1866.2</ele>
        <time>2021-02-28T05:55:58Z</time>
      </trkpt>
      <trkpt lat="45.15769" lon="6.29329">
        <ele>1866.6</ele>
        <time>2021-02-28T05:55:59Z</time>
      </trkpt>
      <trkpt lat="45.15768" lon="6.2933">
        <ele>1866.8</ele>
        <time>2021-02-28T05:56:00Z</time>
      </trkpt>
      <trkpt lat="45.15768" lon="6.29331">
        <ele>1867</ele>
        <time>2021-02-28T05:56:01Z</time>
      </trkpt>
      <trkpt lat="45.15767" lon="6.29332">
        <ele>1867</ele>
        <time>2021-02-28T05:56:02Z</time>
      </trkpt>
      <trkpt lat="45.15766" lon="6.29333">
        <ele>1867.4</ele>
        <time>2021-02-28T05:56:03Z</time>
      </trkpt>
      <trkpt lat="45.15765" lon="6.29334">
        <ele>1867.4</ele>
        <time>2021-02-28T05:56:04Z</time>
      </trkpt>
      <trkpt lat="45.15764" lon="6.29335">
        <ele>1867.8</ele>
        <time>2021-02-28T05:56:05Z</time>
      </trkpt>
      <trkpt lat="45.15763" lon="6.29336">
        <ele>1867.8</ele>
        <time>2021-02-28T05:56:06Z</time>
      </trkpt>
      <trkpt lat="45.15762" lon="6.29337">
        <ele>1868.2</ele>
        <time>2021-02-28T05:56:07Z</time>
      </trkpt>
      <trkpt lat="45.15761" lon="6.29339">
        <ele>1868.2</ele>
        <time>2021-02-28T05:56:08Z</time>
      </trkpt>
      <trkpt lat="45.15761" lon="6.29339">
        <ele>1868.4</ele>
        <time>2021-02-28T05:56:09Z</time>
      </trkpt>
      <trkpt lat="45.15761" lon="6.29339">
        <ele>1868.4</ele>
        <time>2021-02-28T05:56:10Z</time>
      </trkpt>
      <trkpt lat="45.1576" lon="6.29343">
        <ele>1868.6</ele>
        <time>2021-02-28T05:56:11Z</time>
      </trkpt>
      <trkpt lat="45.1576" lon="6.29343">
        <ele>1868.8</ele>
        <time>2021-02-28T05:56:12Z</time>
      </trkpt>
      <trkpt lat="45.1576" lon="6.29343">
        <ele>1869</ele>
        <time>2021-02-28T05:56:13Z</time>
      </trkpt>
      <trkpt lat="45.1576" lon="6.29343">
        <ele>1869.4</ele>
        <time>2021-02-28T05:56:14Z</time>
      </trkpt>
      <trkpt lat="45.1576" lon="6.29343">
        <ele>1869.8</ele>
        <time>2021-02-28T05:56:15Z</time>
      </trkpt>
      <trkpt lat="45.15757" lon="6.29343">
        <ele>1870.2</ele>
        <time>2021-02-28T05:56:16Z</time>
      </trkpt>
      <trkpt lat="45.15757" lon="6.29343">
        <ele>1870.6</ele>
        <time>2021-02-28T05:56:17Z</time>
      </trkpt>
      <trkpt lat="45.15754" lon="6.29342">
        <ele>1870.8</ele>
        <time>2021-02-28T05:56:18Z</time>
      </trkpt>
      <trkpt lat="45.15754" lon="6.29342">
        <ele>1871.2</ele>
        <time>2021-02-28T05:56:19Z</time>
      </trkpt>
      <trkpt lat="45.15754" lon="6.29342">
        <ele>1871.2</ele>
        <time>2021-02-28T05:56:20Z</time>
      </trkpt>
      <trkpt lat="45.15752" lon="6.29339">
        <ele>1871.2</ele>
        <time>2021-02-28T05:56:21Z</time>
      </trkpt>
      <trkpt lat="45.15752" lon="6.29339">
        <ele>1871.8</ele>
        <time>2021-02-28T05:56:22Z</time>
      </trkpt>
      <trkpt lat="45.1575" lon="6.29337">
        <ele>1871.8</ele>
        <time>2021-02-28T05:56:23Z</time>
      </trkpt>
      <trkpt lat="45.1575" lon="6.29337">
        <ele>1872</ele>
        <time>2021-02-28T05:56:24Z</time>
      </trkpt>
      <trkpt lat="45.1575" lon="6.29337">
        <ele>1872.6</ele>
        <time>2021-02-28T05:56:25Z</time>
      </trkpt>
      <trkpt lat="45.15748" lon="6.29334">
        <ele>1872.4</ele>
        <time>2021-02-28T05:56:26Z</time>
      </trkpt>
      <trkpt lat="45.15748" lon="6.29334">
        <ele>1872.8</ele>
        <time>2021-02-28T05:56:27Z</time>
      </trkpt>
      <trkpt lat="45.15748" lon="6.29334">
        <ele>1873.2</ele>
        <time>2021-02-28T05:56:28Z</time>
      </trkpt>
      <trkpt lat="45.15747" lon="6.29333">
        <ele>1873</ele>
        <time>2021-02-28T05:56:29Z</time>
      </trkpt>
      <trkpt lat="45.15746" lon="6.29333">
        <ele>1873.6</ele>
        <time>2021-02-28T05:56:30Z</time>
      </trkpt>
      <trkpt lat="45.15745" lon="6.29332">
        <ele>1873.6</ele>
        <time>2021-02-28T05:56:31Z</time>
      </trkpt>
      <trkpt lat="45.15744" lon="6.29331">
        <ele>1873.8</ele>
        <time>2021-02-28T05:56:32Z</time>
      </trkpt>
      <trkpt lat="45.15744" lon="6.2933">
        <ele>1874.4</ele>
        <time>2021-02-28T05:56:33Z</time>
      </trkpt>
      <trkpt lat="45.15741" lon="6.2933">
        <ele>1874.6</ele>
        <time>2021-02-28T05:56:34Z</time>
      </trkpt>
      <trkpt lat="45.15741" lon="6.2933">
        <ele>1874.8</ele>
        <time>2021-02-28T05:56:35Z</time>
      </trkpt>
      <trkpt lat="45.15741" lon="6.2933">
        <ele>1875.2</ele>
        <time>2021-02-28T05:56:36Z</time>
      </trkpt>
      <trkpt lat="45.15739" lon="6.29329">
        <ele>1875.2</ele>
        <time>2021-02-28T05:56:37Z</time>
      </trkpt>
      <trkpt lat="45.15739" lon="6.29329">
        <ele>1875.4</ele>
        <time>2021-02-28T05:56:38Z</time>
      </trkpt>
      <trkpt lat="45.15739" lon="6.29329">
        <ele>1876</ele>
        <time>2021-02-28T05:56:39Z</time>
      </trkpt>
      <trkpt lat="45.15739" lon="6.29329">
        <ele>1876</ele>
        <time>2021-02-28T05:56:40Z</time>
      </trkpt>
      <trkpt lat="45.15739" lon="6.29329">
        <ele>1876.2</ele>
        <time>2021-02-28T05:56:41Z</time>
      </trkpt>
      <trkpt lat="45.15739" lon="6.29329">
        <ele>1876.2</ele>
        <time>2021-02-28T05:56:42Z</time>
      </trkpt>
      <trkpt lat="45.15739" lon="6.29329">
        <ele>1876.6</ele>
        <time>2021-02-28T05:56:43Z</time>
      </trkpt>
      <trkpt lat="45.15739" lon="6.29329">
        <ele>1877</ele>
        <time>2021-02-28T05:56:44Z</time>
      </trkpt>
      <trkpt lat="45.15739" lon="6.29329">
        <ele>1877</ele>
        <time>2021-02-28T05:56:45Z</time>
      </trkpt>
      <trkpt lat="45.15739" lon="6.29329">
        <ele>1877.2</ele>
        <time>2021-02-28T05:56:46Z</time>
      </trkpt>
      <trkpt lat="45.15739" lon="6.29329">
        <ele>1877.4</ele>
        <time>2021-02-28T05:56:47Z</time>
      </trkpt>
      <trkpt lat="45.15739" lon="6.29329">
        <ele>1877.4</ele>
        <time>2021-02-28T05:56:48Z</time>
      </trkpt>
      <trkpt lat="45.15741" lon="6.29333">
        <ele>1877.4</ele>
        <time>2021-02-28T05:56:49Z</time>
      </trkpt>
      <trkpt lat="45.15741" lon="6.29333">
        <ele>1877.8</ele>
        <time>2021-02-28T05:56:50Z</time>
      </trkpt>
      <trkpt lat="45.15741" lon="6.29333">
        <ele>1878</ele>
        <time>2021-02-28T05:56:51Z</time>
      </trkpt>
      <trkpt lat="45.15741" lon="6.29334">
        <ele>1878.4</ele>
        <time>2021-02-28T05:56:52Z</time>
      </trkpt>
      <trkpt lat="45.15742" lon="6.29335">
        <ele>1879</ele>
        <time>2021-02-28T05:56:53Z</time>
      </trkpt>
      <trkpt lat="45.15742" lon="6.29336">
        <ele>1879</ele>
        <time>2021-02-28T05:56:54Z</time>
      </trkpt>
      <trkpt lat="45.15743" lon="6.29338">
        <ele>1879.2</ele>
        <time>2021-02-28T05:56:55Z</time>
      </trkpt>
      <trkpt lat="45.15743" lon="6.29339">
        <ele>1879.4</ele>
        <time>2021-02-28T05:56:56Z</time>
      </trkpt>
      <trkpt lat="45.15744" lon="6.2934">
        <ele>1879.6</ele>
        <time>2021-02-28T05:56:57Z</time>
      </trkpt>
      <trkpt lat="45.15744" lon="6.29341">
        <ele>1879.8</ele>
        <time>2021-02-28T05:56:58Z</time>
      </trkpt>
      <trkpt lat="45.15745" lon="6.29342">
        <ele>1880</ele>
        <time>2021-02-28T05:56:59Z</time>
      </trkpt>
      <trkpt lat="45.15745" lon="6.29343">
        <ele>1880.2</ele>
        <time>2021-02-28T05:57:00Z</time>
      </trkpt>
      <trkpt lat="45.15746" lon="6.29344">
        <ele>1880.4</ele>
        <time>2021-02-28T05:57:01Z</time>
      </trkpt>
      <trkpt lat="45.15746" lon="6.29347">
        <ele>1881</ele>
        <time>2021-02-28T05:57:02Z</time>
      </trkpt>
      <trkpt lat="45.15746" lon="6.29347">
        <ele>1881.6</ele>
        <time>2021-02-28T05:57:03Z</time>
      </trkpt>
      <trkpt lat="45.15746" lon="6.29347">
        <ele>1881.8</ele>
        <time>2021-02-28T05:57:04Z</time>
      </trkpt>
      <trkpt lat="45.15745" lon="6.29351">
        <ele>1882</ele>
        <time>2021-02-28T05:57:05Z</time>
      </trkpt>
      <trkpt lat="45.15745" lon="6.29351">
        <ele>1882.2</ele>
        <time>2021-02-28T05:57:06Z</time>
      </trkpt>
      <trkpt lat="45.15745" lon="6.29351">
        <ele>1882.6</ele>
        <time>2021-02-28T05:57:07Z</time>
      </trkpt>
      <trkpt lat="45.15745" lon="6.29351">
        <ele>1882.6</ele>
        <time>2021-02-28T05:57:08Z</time>
      </trkpt>
      <trkpt lat="45.15744" lon="6.29351">
        <ele>1882.8</ele>
        <time>2021-02-28T05:57:09Z</time>
      </trkpt>
      <trkpt lat="45.15743" lon="6.29351">
        <ele>1883</ele>
        <time>2021-02-28T05:57:10Z</time>
      </trkpt>
      <trkpt lat="45.15742" lon="6.29351">
        <ele>1883.4</ele>
        <time>2021-02-28T05:57:11Z</time>
      </trkpt>
      <trkpt lat="45.15742" lon="6.29352">
        <ele>1883.8</ele>
        <time>2021-02-28T05:57:12Z</time>
      </trkpt>
      <trkpt lat="45.15741" lon="6.29352">
        <ele>1883.8</ele>
        <time>2021-02-28T05:57:13Z</time>
      </trkpt>
      <trkpt lat="45.1574" lon="6.29352">
        <ele>1884</ele>
        <time>2021-02-28T05:57:14Z</time>
      </trkpt>
      <trkpt lat="45.15739" lon="6.29352">
        <ele>1884.4</ele>
        <time>2021-02-28T05:57:15Z</time>
      </trkpt>
      <trkpt lat="45.15738" lon="6.29352">
        <ele>1884.8</ele>
        <time>2021-02-28T05:57:16Z</time>
      </trkpt>
      <trkpt lat="45.15738" lon="6.29352">
        <ele>1885</ele>
        <time>2021-02-28T05:57:17Z</time>
      </trkpt>
      <trkpt lat="45.15737" lon="6.29353">
        <ele>1885.2</ele>
        <time>2021-02-28T05:57:18Z</time>
      </trkpt>
      <trkpt lat="45.15737" lon="6.29354">
        <ele>1885.4</ele>
        <time>2021-02-28T05:57:19Z</time>
      </trkpt>
      <trkpt lat="45.15737" lon="6.29355">
        <ele>1885.8</ele>
        <time>2021-02-28T05:57:20Z</time>
      </trkpt>
      <trkpt lat="45.15737" lon="6.29357">
        <ele>1886</ele>
        <time>2021-02-28T05:57:21Z</time>
      </trkpt>
      <trkpt lat="45.15736" lon="6.29358">
        <ele>1886.4</ele>
        <time>2021-02-28T05:57:22Z</time>
      </trkpt>
      <trkpt lat="45.15736" lon="6.29359">
        <ele>1886.4</ele>
        <time>2021-02-28T05:57:23Z</time>
      </trkpt>
      <trkpt lat="45.15736" lon="6.29361">
        <ele>1886.4</ele>
        <time>2021-02-28T05:57:24Z</time>
      </trkpt>
      <trkpt lat="45.15736" lon="6.29362">
        <ele>1886.6</ele>
        <time>2021-02-28T05:57:25Z</time>
      </trkpt>
      <trkpt lat="45.15736" lon="6.29363">
        <ele>1886.8</ele>
        <time>2021-02-28T05:57:26Z</time>
      </trkpt>
      <trkpt lat="45.15736" lon="6.29365">
        <ele>1887.2</ele>
        <time>2021-02-28T05:57:27Z</time>
      </trkpt>
      <trkpt lat="45.15736" lon="6.29366">
        <ele>1887.4</ele>
        <time>2021-02-28T05:57:28Z</time>
      </trkpt>
      <trkpt lat="45.15735" lon="6.29367">
        <ele>1887.8</ele>
        <time>2021-02-28T05:57:29Z</time>
      </trkpt>
      <trkpt lat="45.15734" lon="6.29368">
        <ele>1888</ele>
        <time>2021-02-28T05:57:30Z</time>
      </trkpt>
      <trkpt lat="45.15734" lon="6.2937">
        <ele>1888.4</ele>
        <time>2021-02-28T05:57:31Z</time>
      </trkpt>
      <trkpt lat="45.15733" lon="6.29371">
        <ele>1888.8</ele>
        <time>2021-02-28T05:57:32Z</time>
      </trkpt>
      <trkpt lat="45.15732" lon="6.29372">
        <ele>1889</ele>
        <time>2021-02-28T05:57:33Z</time>
      </trkpt>
      <trkpt lat="45.15732" lon="6.29373">
        <ele>1889.2</ele>
        <time>2021-02-28T05:57:34Z</time>
      </trkpt>
      <trkpt lat="45.15731" lon="6.29374">
        <ele>1889.4</ele>
        <time>2021-02-28T05:57:35Z</time>
      </trkpt>
      <trkpt lat="45.15731" lon="6.29375">
        <ele>1889.6</ele>
        <time>2021-02-28T05:57:36Z</time>
      </trkpt>
      <trkpt lat="45.1573" lon="6.29376">
        <ele>1890.2</ele>
        <time>2021-02-28T05:57:37Z</time>
      </trkpt>
      <trkpt lat="45.1573" lon="6.29377">
        <ele>1890.2</ele>
        <time>2021-02-28T05:57:38Z</time>
      </trkpt>
      <trkpt lat="45.15729" lon="6.29378">
        <ele>1890.6</ele>
        <time>2021-02-28T05:57:39Z</time>
      </trkpt>
      <trkpt lat="45.15729" lon="6.29379">
        <ele>1890.8</ele>
        <time>2021-02-28T05:57:40Z</time>
      </trkpt>
      <trkpt lat="45.15729" lon="6.2938">
        <ele>1891.4</ele>
        <time>2021-02-28T05:57:41Z</time>
      </trkpt>
      <trkpt lat="45.15729" lon="6.2938">
        <ele>1891.6</ele>
        <time>2021-02-28T05:57:42Z</time>
      </trkpt>
      <trkpt lat="45.15728" lon="6.29381">
        <ele>1891.8</ele>
        <time>2021-02-28T05:57:43Z</time>
      </trkpt>
      <trkpt lat="45.15728" lon="6.29382">
        <ele>1892.2</ele>
        <time>2021-02-28T05:57:44Z</time>
      </trkpt>
      <trkpt lat="45.15728" lon="6.29383">
        <ele>1892.4</ele>
        <time>2021-02-28T05:57:45Z</time>
      </trkpt>
      <trkpt lat="45.15728" lon="6.29383">
        <ele>1892.4</ele>
        <time>2021-02-28T05:57:46Z</time>
      </trkpt>
      <trkpt lat="45.15728" lon="6.29384">
        <ele>1892.8</ele>
        <time>2021-02-28T05:57:47Z</time>
      </trkpt>
      <trkpt lat="45.15726" lon="6.29386">
        <ele>1893</ele>
        <time>2021-02-28T05:57:48Z</time>
      </trkpt>
      <trkpt lat="45.15726" lon="6.29386">
        <ele>1893.2</ele>
        <time>2021-02-28T05:57:49Z</time>
      </trkpt>
      <trkpt lat="45.15726" lon="6.29386">
        <ele>1893.8</ele>
        <time>2021-02-28T05:57:50Z</time>
      </trkpt>
      <trkpt lat="45.15725" lon="6.29389">
        <ele>1894</ele>
        <time>2021-02-28T05:57:51Z</time>
      </trkpt>
      <trkpt lat="45.15725" lon="6.29389">
        <ele>1894</ele>
        <time>2021-02-28T05:57:52Z</time>
      </trkpt>
      <trkpt lat="45.15725" lon="6.29389">
        <ele>1894.4</ele>
        <time>2021-02-28T05:57:53Z</time>
      </trkpt>
      <trkpt lat="45.15725" lon="6.2939">
        <ele>1894.8</ele>
        <time>2021-02-28T05:57:54Z</time>
      </trkpt>
      <trkpt lat="45.15724" lon="6.29392">
        <ele>1895.2</ele>
        <time>2021-02-28T05:57:55Z</time>
      </trkpt>
      <trkpt lat="45.15723" lon="6.29393">
        <ele>1895.6</ele>
        <time>2021-02-28T05:57:56Z</time>
      </trkpt>
      <trkpt lat="45.15722" lon="6.29394">
        <ele>1895.8</ele>
        <time>2021-02-28T05:57:57Z</time>
      </trkpt>
      <trkpt lat="45.15721" lon="6.29395">
        <ele>1896.2</ele>
        <time>2021-02-28T05:57:58Z</time>
      </trkpt>
      <trkpt lat="45.1572" lon="6.29396">
        <ele>1896.4</ele>
        <time>2021-02-28T05:57:59Z</time>
      </trkpt>
      <trkpt lat="45.15719" lon="6.29397">
        <ele>1896.8</ele>
        <time>2021-02-28T05:58:00Z</time>
      </trkpt>
      <trkpt lat="45.15719" lon="6.29398">
        <ele>1897</ele>
        <time>2021-02-28T05:58:01Z</time>
      </trkpt>
      <trkpt lat="45.15718" lon="6.29399">
        <ele>1897.2</ele>
        <time>2021-02-28T05:58:02Z</time>
      </trkpt>
      <trkpt lat="45.15717" lon="6.294">
        <ele>1897.8</ele>
        <time>2021-02-28T05:58:03Z</time>
      </trkpt>
      <trkpt lat="45.15716" lon="6.29401">
        <ele>1898.2</ele>
        <time>2021-02-28T05:58:04Z</time>
      </trkpt>
      <trkpt lat="45.15716" lon="6.29402">
        <ele>1898.6</ele>
        <time>2021-02-28T05:58:05Z</time>
      </trkpt>
      <trkpt lat="45.15715" lon="6.29404">
        <ele>1898.8</ele>
        <time>2021-02-28T05:58:06Z</time>
      </trkpt>
      <trkpt lat="45.15715" lon="6.29405">
        <ele>1899</ele>
        <time>2021-02-28T05:58:07Z</time>
      </trkpt>
      <trkpt lat="45.15714" lon="6.29407">
        <ele>1899.6</ele>
        <time>2021-02-28T05:58:08Z</time>
      </trkpt>
      <trkpt lat="45.15714" lon="6.29409">
        <ele>1899.8</ele>
        <time>2021-02-28T05:58:09Z</time>
      </trkpt>
      <trkpt lat="45.15713" lon="6.2941">
        <ele>1899.8</ele>
        <time>2021-02-28T05:58:10Z</time>
      </trkpt>
      <trkpt lat="45.15713" lon="6.2941">
        <ele>1900</ele>
        <time>2021-02-28T05:58:11Z</time>
      </trkpt>
      <trkpt lat="45.15712" lon="6.29413">
        <ele>1900.4</ele>
        <time>2021-02-28T05:58:12Z</time>
      </trkpt>
      <trkpt lat="45.15712" lon="6.29413">
        <ele>1900.6</ele>
        <time>2021-02-28T05:58:13Z</time>
      </trkpt>
      <trkpt lat="45.15711" lon="6.29415">
        <ele>1900.6</ele>
        <time>2021-02-28T05:58:14Z</time>
      </trkpt>
      <trkpt lat="45.15711" lon="6.29415">
        <ele>1901.4</ele>
        <time>2021-02-28T05:58:15Z</time>
      </trkpt>
      <trkpt lat="45.1571" lon="6.29418">
        <ele>1901.4</ele>
        <time>2021-02-28T05:58:16Z</time>
      </trkpt>
      <trkpt lat="45.1571" lon="6.29418">
        <ele>1901.2</ele>
        <time>2021-02-28T05:58:17Z</time>
      </trkpt>
      <trkpt lat="45.15709" lon="6.29421">
        <ele>1901.4</ele>
        <time>2021-02-28T05:58:18Z</time>
      </trkpt>
      <trkpt lat="45.15709" lon="6.29421">
        <ele>1901.6</ele>
        <time>2021-02-28T05:58:19Z</time>
      </trkpt>
      <trkpt lat="45.15708" lon="6.29424">
        <ele>1901.6</ele>
        <time>2021-02-28T05:58:20Z</time>
      </trkpt>
      <trkpt lat="45.15708" lon="6.29424">
        <ele>1902</ele>
        <time>2021-02-28T05:58:21Z</time>
      </trkpt>
      <trkpt lat="45.15707" lon="6.29428">
        <ele>1902.2</ele>
        <time>2021-02-28T05:58:22Z</time>
      </trkpt>
      <trkpt lat="45.15707" lon="6.29428">
        <ele>1902.2</ele>
        <time>2021-02-28T05:58:23Z</time>
      </trkpt>
      <trkpt lat="45.15707" lon="6.29428">
        <ele>1902.2</ele>
        <time>2021-02-28T05:58:24Z</time>
      </trkpt>
      <trkpt lat="45.15707" lon="6.29429">
        <ele>1902.2</ele>
        <time>2021-02-28T05:58:25Z</time>
      </trkpt>
      <trkpt lat="45.15706" lon="6.2943">
        <ele>1902</ele>
        <time>2021-02-28T05:58:26Z</time>
      </trkpt>
      <trkpt lat="45.15705" lon="6.29432">
        <ele>1902</ele>
        <time>2021-02-28T05:58:27Z</time>
      </trkpt>
      <trkpt lat="45.15705" lon="6.29433">
        <ele>1902</ele>
        <time>2021-02-28T05:58:28Z</time>
      </trkpt>
      <trkpt lat="45.15704" lon="6.29434">
        <ele>1902.2</ele>
        <time>2021-02-28T05:58:29Z</time>
      </trkpt>
      <trkpt lat="45.15703" lon="6.29435">
        <ele>1902.6</ele>
        <time>2021-02-28T05:58:30Z</time>
      </trkpt>
      <trkpt lat="45.15703" lon="6.29437">
        <ele>1902.6</ele>
        <time>2021-02-28T05:58:31Z</time>
      </trkpt>
      <trkpt lat="45.15702" lon="6.29438">
        <ele>1902.4</ele>
        <time>2021-02-28T05:58:32Z</time>
      </trkpt>
      <trkpt lat="45.15701" lon="6.29439">
        <ele>1903</ele>
        <time>2021-02-28T05:58:33Z</time>
      </trkpt>
      <trkpt lat="45.15701" lon="6.29439">
        <ele>1902.8</ele>
        <time>2021-02-28T05:58:34Z</time>
      </trkpt>
      <trkpt lat="45.15699" lon="6.29439">
        <ele>1903</ele>
        <time>2021-02-28T05:58:35Z</time>
      </trkpt>
      <trkpt lat="45.15699" lon="6.29439">
        <ele>1903.4</ele>
        <time>2021-02-28T05:58:36Z</time>
      </trkpt>
      <trkpt lat="45.15699" lon="6.29439">
        <ele>1903.4</ele>
        <time>2021-02-28T05:58:37Z</time>
      </trkpt>
      <trkpt lat="45.15697" lon="6.29439">
        <ele>1904</ele>
        <time>2021-02-28T05:58:38Z</time>
      </trkpt>
      <trkpt lat="45.15697" lon="6.29439">
        <ele>1904.2</ele>
        <time>2021-02-28T05:58:39Z</time>
      </trkpt>
      <trkpt lat="45.15697" lon="6.29439">
        <ele>1904.4</ele>
        <time>2021-02-28T05:58:40Z</time>
      </trkpt>
      <trkpt lat="45.15694" lon="6.29439">
        <ele>1904.8</ele>
        <time>2021-02-28T05:58:41Z</time>
      </trkpt>
      <trkpt lat="45.15694" lon="6.29439">
        <ele>1904.8</ele>
        <time>2021-02-28T05:58:42Z</time>
      </trkpt>
      <trkpt lat="45.15694" lon="6.29439">
        <ele>1905</ele>
        <time>2021-02-28T05:58:43Z</time>
      </trkpt>
      <trkpt lat="45.15691" lon="6.29439">
        <ele>1905.4</ele>
        <time>2021-02-28T05:58:44Z</time>
      </trkpt>
      <trkpt lat="45.15691" lon="6.29439">
        <ele>1905.6</ele>
        <time>2021-02-28T05:58:45Z</time>
      </trkpt>
      <trkpt lat="45.15691" lon="6.29439">
        <ele>1905.8</ele>
        <time>2021-02-28T05:58:46Z</time>
      </trkpt>
      <trkpt lat="45.1569" lon="6.29439">
        <ele>1906.2</ele>
        <time>2021-02-28T05:58:47Z</time>
      </trkpt>
      <trkpt lat="45.15689" lon="6.29439">
        <ele>1906.2</ele>
        <time>2021-02-28T05:58:48Z</time>
      </trkpt>
      <trkpt lat="45.15688" lon="6.2944">
        <ele>1906.2</ele>
        <time>2021-02-28T05:58:49Z</time>
      </trkpt>
      <trkpt lat="45.15687" lon="6.2944">
        <ele>1906.6</ele>
        <time>2021-02-28T05:58:50Z</time>
      </trkpt>
      <trkpt lat="45.15686" lon="6.2944">
        <ele>1906.8</ele>
        <time>2021-02-28T05:58:51Z</time>
      </trkpt>
      <trkpt lat="45.15685" lon="6.29441">
        <ele>1907.2</ele>
        <time>2021-02-28T05:58:52Z</time>
      </trkpt>
      <trkpt lat="45.15684" lon="6.29441">
        <ele>1907.6</ele>
        <time>2021-02-28T05:58:53Z</time>
      </trkpt>
      <trkpt lat="45.15683" lon="6.29441">
        <ele>1907.8</ele>
        <time>2021-02-28T05:58:54Z</time>
      </trkpt>
      <trkpt lat="45.15682" lon="6.29442">
        <ele>1908.2</ele>
        <time>2021-02-28T05:58:55Z</time>
      </trkpt>
      <trkpt lat="45.15681" lon="6.29442">
        <ele>1908.6</ele>
        <time>2021-02-28T05:58:56Z</time>
      </trkpt>
      <trkpt lat="45.1568" lon="6.29442">
        <ele>1908.8</ele>
        <time>2021-02-28T05:58:57Z</time>
      </trkpt>
      <trkpt lat="45.15679" lon="6.29443">
        <ele>1909.4</ele>
        <time>2021-02-28T05:58:58Z</time>
      </trkpt>
      <trkpt lat="45.15678" lon="6.29443">
        <ele>1909.4</ele>
        <time>2021-02-28T05:58:59Z</time>
      </trkpt>
      <trkpt lat="45.15677" lon="6.29443">
        <ele>1909.6</ele>
        <time>2021-02-28T05:59:00Z</time>
      </trkpt>
      <trkpt lat="45.15676" lon="6.29444">
        <ele>1910</ele>
        <time>2021-02-28T05:59:01Z</time>
      </trkpt>
      <trkpt lat="45.15675" lon="6.29444">
        <ele>1910.2</ele>
        <time>2021-02-28T05:59:02Z</time>
      </trkpt>
      <trkpt lat="45.15674" lon="6.29444">
        <ele>1910.2</ele>
        <time>2021-02-28T05:59:03Z</time>
      </trkpt>
      <trkpt lat="45.15673" lon="6.29445">
        <ele>1910.8</ele>
        <time>2021-02-28T05:59:04Z</time>
      </trkpt>
      <trkpt lat="45.15672" lon="6.29445">
        <ele>1911</ele>
        <time>2021-02-28T05:59:05Z</time>
      </trkpt>
      <trkpt lat="45.15671" lon="6.29445">
        <ele>1911.8</ele>
        <time>2021-02-28T05:59:06Z</time>
      </trkpt>
      <trkpt lat="45.1567" lon="6.29445">
        <ele>1911.8</ele>
        <time>2021-02-28T05:59:07Z</time>
      </trkpt>
      <trkpt lat="45.15669" lon="6.29445">
        <ele>1912</ele>
        <time>2021-02-28T05:59:08Z</time>
      </trkpt>
      <trkpt lat="45.15669" lon="6.29446">
        <ele>1912.6</ele>
        <time>2021-02-28T05:59:09Z</time>
      </trkpt>
      <trkpt lat="45.15668" lon="6.29446">
        <ele>1912.6</ele>
        <time>2021-02-28T05:59:10Z</time>
      </trkpt>
      <trkpt lat="45.15667" lon="6.29446">
        <ele>1913</ele>
        <time>2021-02-28T05:59:11Z</time>
      </trkpt>
      <trkpt lat="45.15666" lon="6.29446">
        <ele>1913.2</ele>
        <time>2021-02-28T05:59:12Z</time>
      </trkpt>
      <trkpt lat="45.15664" lon="6.29447">
        <ele>1913.2</ele>
        <time>2021-02-28T05:59:13Z</time>
      </trkpt>
      <trkpt lat="45.15664" lon="6.29447">
        <ele>1913.4</ele>
        <time>2021-02-28T05:59:14Z</time>
      </trkpt>
      <trkpt lat="45.15664" lon="6.29447">
        <ele>1914</ele>
        <time>2021-02-28T05:59:15Z</time>
      </trkpt>
      <trkpt lat="45.15663" lon="6.29448">
        <ele>1914.4</ele>
        <time>2021-02-28T05:59:16Z</time>
      </trkpt>
      <trkpt lat="45.15662" lon="6.29448">
        <ele>1915.2</ele>
        <time>2021-02-28T05:59:17Z</time>
      </trkpt>
      <trkpt lat="45.15662" lon="6.29449">
        <ele>1915.2</ele>
        <time>2021-02-28T05:59:18Z</time>
      </trkpt>
      <trkpt lat="45.15661" lon="6.29449">
        <ele>1915.4</ele>
        <time>2021-02-28T05:59:19Z</time>
      </trkpt>
      <trkpt lat="45.1566" lon="6.2945">
        <ele>1915.8</ele>
        <time>2021-02-28T05:59:20Z</time>
      </trkpt>
      <trkpt lat="45.15659" lon="6.2945">
        <ele>1916.2</ele>
        <time>2021-02-28T05:59:21Z</time>
      </trkpt>
      <trkpt lat="45.15658" lon="6.29451">
        <ele>1916</ele>
        <time>2021-02-28T05:59:22Z</time>
      </trkpt>
      <trkpt lat="45.15657" lon="6.29451">
        <ele>1916.6</ele>
        <time>2021-02-28T05:59:23Z</time>
      </trkpt>
      <trkpt lat="45.15657" lon="6.29452">
        <ele>1916.8</ele>
        <time>2021-02-28T05:59:24Z</time>
      </trkpt>
      <trkpt lat="45.15656" lon="6.29452">
        <ele>1917.2</ele>
        <time>2021-02-28T05:59:25Z</time>
      </trkpt>
      <trkpt lat="45.15656" lon="6.29452">
        <ele>1917.6</ele>
        <time>2021-02-28T05:59:26Z</time>
      </trkpt>
      <trkpt lat="45.15656" lon="6.29452">
        <ele>1917.8</ele>
        <time>2021-02-28T05:59:27Z</time>
      </trkpt>
      <trkpt lat="45.15656" lon="6.29452">
        <ele>1918.4</ele>
        <time>2021-02-28T05:59:28Z</time>
      </trkpt>
      <trkpt lat="45.15653" lon="6.29453">
        <ele>1918.6</ele>
        <time>2021-02-28T05:59:29Z</time>
      </trkpt>
      <trkpt lat="45.15653" lon="6.29453">
        <ele>1918.6</ele>
        <time>2021-02-28T05:59:30Z</time>
      </trkpt>
      <trkpt lat="45.15651" lon="6.29454">
        <ele>1919.4</ele>
        <time>2021-02-28T05:59:31Z</time>
      </trkpt>
      <trkpt lat="45.15651" lon="6.29454">
        <ele>1919.6</ele>
        <time>2021-02-28T05:59:32Z</time>
      </trkpt>
      <trkpt lat="45.15651" lon="6.29454">
        <ele>1919.6</ele>
        <time>2021-02-28T05:59:33Z</time>
      </trkpt>
      <trkpt lat="45.15648" lon="6.29455">
        <ele>1920.4</ele>
        <time>2021-02-28T05:59:34Z</time>
      </trkpt>
      <trkpt lat="45.15648" lon="6.29455">
        <ele>1920.4</ele>
        <time>2021-02-28T05:59:35Z</time>
      </trkpt>
      <trkpt lat="45.15646" lon="6.29456">
        <ele>1921</ele>
        <time>2021-02-28T05:59:36Z</time>
      </trkpt>
      <trkpt lat="45.15646" lon="6.29456">
        <ele>1921.2</ele>
        <time>2021-02-28T05:59:37Z</time>
      </trkpt>
      <trkpt lat="45.15646" lon="6.29456">
        <ele>1921.2</ele>
        <time>2021-02-28T05:59:38Z</time>
      </trkpt>
      <trkpt lat="45.15644" lon="6.29456">
        <ele>1921.8</ele>
        <time>2021-02-28T05:59:39Z</time>
      </trkpt>
      <trkpt lat="45.15644" lon="6.29456">
        <ele>1922</ele>
        <time>2021-02-28T05:59:40Z</time>
      </trkpt>
      <trkpt lat="45.15644" lon="6.29456">
        <ele>1922.2</ele>
        <time>2021-02-28T05:59:41Z</time>
      </trkpt>
      <trkpt lat="45.15643" lon="6.29458">
        <ele>1922.4</ele>
        <time>2021-02-28T05:59:42Z</time>
      </trkpt>
      <trkpt lat="45.15643" lon="6.29458">
        <ele>1922.8</ele>
        <time>2021-02-28T05:59:43Z</time>
      </trkpt>
      <trkpt lat="45.15643" lon="6.29458">
        <ele>1923</ele>
        <time>2021-02-28T05:59:44Z</time>
      </trkpt>
      <trkpt lat="45.15643" lon="6.29458">
        <ele>1923.4</ele>
        <time>2021-02-28T05:59:45Z</time>
      </trkpt>
      <trkpt lat="45.15639" lon="6.2946">
        <ele>1923.8</ele>
        <time>2021-02-28T05:59:46Z</time>
      </trkpt>
      <trkpt lat="45.15639" lon="6.2946">
        <ele>1924</ele>
        <time>2021-02-28T05:59:47Z</time>
      </trkpt>
      <trkpt lat="45.15639" lon="6.2946">
        <ele>1924.2</ele>
        <time>2021-02-28T05:59:48Z</time>
      </trkpt>
      <trkpt lat="45.15637" lon="6.29462">
        <ele>1924.8</ele>
        <time>2021-02-28T05:59:49Z</time>
      </trkpt>
      <trkpt lat="45.15637" lon="6.29462">
        <ele>1925</ele>
        <time>2021-02-28T05:59:50Z</time>
      </trkpt>
      <trkpt lat="45.15635" lon="6.29464">
        <ele>1925.2</ele>
        <time>2021-02-28T05:59:51Z</time>
      </trkpt>
      <trkpt lat="45.15635" lon="6.29464">
        <ele>1925.8</ele>
        <time>2021-02-28T05:59:52Z</time>
      </trkpt>
      <trkpt lat="45.15633" lon="6.29465">
        <ele>1926</ele>
        <time>2021-02-28T05:59:53Z</time>
      </trkpt>
      <trkpt lat="45.15633" lon="6.29465">
        <ele>1926.2</ele>
        <time>2021-02-28T05:59:54Z</time>
      </trkpt>
      <trkpt lat="45.15632" lon="6.29467">
        <ele>1926.4</ele>
        <time>2021-02-28T05:59:55Z</time>
      </trkpt>
      <trkpt lat="45.15632" lon="6.29467">
        <ele>1926.4</ele>
        <time>2021-02-28T05:59:56Z</time>
      </trkpt>
      <trkpt lat="45.1563" lon="6.29468">
        <ele>1926.8</ele>
        <time>2021-02-28T05:59:57Z</time>
      </trkpt>
      <trkpt lat="45.1563" lon="6.29468">
        <ele>1927.2</ele>
        <time>2021-02-28T05:59:58Z</time>
      </trkpt>
      <trkpt lat="45.15628" lon="6.2947">
        <ele>1927.2</ele>
        <time>2021-02-28T05:59:59Z</time>
      </trkpt>
      <trkpt lat="45.15628" lon="6.2947">
        <ele>1927.8</ele>
        <time>2021-02-28T06:00:00Z</time>
      </trkpt>
      <trkpt lat="45.15628" lon="6.2947">
        <ele>1928.2</ele>
        <time>2021-02-28T06:00:01Z</time>
      </trkpt>
      <trkpt lat="45.15628" lon="6.2947">
        <ele>1928.2</ele>
        <time>2021-02-28T06:00:02Z</time>
      </trkpt>
      <trkpt lat="45.15628" lon="6.2947">
        <ele>1928.8</ele>
        <time>2021-02-28T06:00:03Z</time>
      </trkpt>
      <trkpt lat="45.15626" lon="6.29475">
        <ele>1928.8</ele>
        <time>2021-02-28T06:00:04Z</time>
      </trkpt>
      <trkpt lat="45.15626" lon="6.29475">
        <ele>1929.4</ele>
        <time>2021-02-28T06:00:05Z</time>
      </trkpt>
      <trkpt lat="45.15626" lon="6.29475">
        <ele>1929.6</ele>
        <time>2021-02-28T06:00:06Z</time>
      </trkpt>
      <trkpt lat="45.15625" lon="6.29478">
        <ele>1929.8</ele>
        <time>2021-02-28T06:00:07Z</time>
      </trkpt>
      <trkpt lat="45.15625" lon="6.29478">
        <ele>1929.6</ele>
        <time>2021-02-28T06:00:08Z</time>
      </trkpt>
      <trkpt lat="45.15623" lon="6.2948">
        <ele>1930</ele>
        <time>2021-02-28T06:00:09Z</time>
      </trkpt>
      <trkpt lat="45.15623" lon="6.2948">
        <ele>1930.2</ele>
        <time>2021-02-28T06:00:10Z</time>
      </trkpt>
      <trkpt lat="45.15623" lon="6.2948">
        <ele>1930.2</ele>
        <time>2021-02-28T06:00:11Z</time>
      </trkpt>
      <trkpt lat="45.15621" lon="6.29484">
        <ele>1930.6</ele>
        <time>2021-02-28T06:00:12Z</time>
      </trkpt>
      <trkpt lat="45.15621" lon="6.29484">
        <ele>1930.6</ele>
        <time>2021-02-28T06:00:13Z</time>
      </trkpt>
      <trkpt lat="45.15619" lon="6.29486">
        <ele>1930.4</ele>
        <time>2021-02-28T06:00:14Z</time>
      </trkpt>
      <trkpt lat="45.15619" lon="6.29486">
        <ele>1930.6</ele>
        <time>2021-02-28T06:00:15Z</time>
      </trkpt>
      <trkpt lat="45.15619" lon="6.29486">
        <ele>1930.6</ele>
        <time>2021-02-28T06:00:16Z</time>
      </trkpt>
      <trkpt lat="45.15618" lon="6.2949">
        <ele>1931</ele>
        <time>2021-02-28T06:00:17Z</time>
      </trkpt>
      <trkpt lat="45.15618" lon="6.2949">
        <ele>1931.4</ele>
        <time>2021-02-28T06:00:18Z</time>
      </trkpt>
      <trkpt lat="45.15618" lon="6.2949">
        <ele>1931.4</ele>
        <time>2021-02-28T06:00:19Z</time>
      </trkpt>
      <trkpt lat="45.15617" lon="6.29491">
        <ele>1931.8</ele>
        <time>2021-02-28T06:00:20Z</time>
      </trkpt>
      <trkpt lat="45.15616" lon="6.29493">
        <ele>1931.6</ele>
        <time>2021-02-28T06:00:21Z</time>
      </trkpt>
      <trkpt lat="45.15615" lon="6.29494">
        <ele>1931.6</ele>
        <time>2021-02-28T06:00:22Z</time>
      </trkpt>
      <trkpt lat="45.15615" lon="6.29495">
        <ele>1931.8</ele>
        <time>2021-02-28T06:00:23Z</time>
      </trkpt>
      <trkpt lat="45.15614" lon="6.29497">
        <ele>1932.4</ele>
        <time>2021-02-28T06:00:24Z</time>
      </trkpt>
      <trkpt lat="45.15613" lon="6.29498">
        <ele>1932.6</ele>
        <time>2021-02-28T06:00:25Z</time>
      </trkpt>
      <trkpt lat="45.15612" lon="6.295">
        <ele>1932.6</ele>
        <time>2021-02-28T06:00:26Z</time>
      </trkpt>
      <trkpt lat="45.15612" lon="6.29501">
        <ele>1933</ele>
        <time>2021-02-28T06:00:27Z</time>
      </trkpt>
      <trkpt lat="45.15611" lon="6.29502">
        <ele>1932.8</ele>
        <time>2021-02-28T06:00:28Z</time>
      </trkpt>
      <trkpt lat="45.1561" lon="6.29503">
        <ele>1932.8</ele>
        <time>2021-02-28T06:00:29Z</time>
      </trkpt>
      <trkpt lat="45.15609" lon="6.29506">
        <ele>1933</ele>
        <time>2021-02-28T06:00:30Z</time>
      </trkpt>
      <trkpt lat="45.15609" lon="6.29506">
        <ele>1932.8</ele>
        <time>2021-02-28T06:00:31Z</time>
      </trkpt>
      <trkpt lat="45.15608" lon="6.29508">
        <ele>1933</ele>
        <time>2021-02-28T06:00:32Z</time>
      </trkpt>
      <trkpt lat="45.15608" lon="6.29508">
        <ele>1933</ele>
        <time>2021-02-28T06:00:33Z</time>
      </trkpt>
      <trkpt lat="45.15607" lon="6.2951">
        <ele>1933.2</ele>
        <time>2021-02-28T06:00:34Z</time>
      </trkpt>
      <trkpt lat="45.15607" lon="6.2951">
        <ele>1933.2</ele>
        <time>2021-02-28T06:00:35Z</time>
      </trkpt>
      <trkpt lat="45.15605" lon="6.29512">
        <ele>1933</ele>
        <time>2021-02-28T06:00:36Z</time>
      </trkpt>
      <trkpt lat="45.15605" lon="6.29512">
        <ele>1933.4</ele>
        <time>2021-02-28T06:00:37Z</time>
      </trkpt>
      <trkpt lat="45.15603" lon="6.29514">
        <ele>1933.4</ele>
        <time>2021-02-28T06:00:38Z</time>
      </trkpt>
      <trkpt lat="45.15603" lon="6.29514">
        <ele>1933.6</ele>
        <time>2021-02-28T06:00:39Z</time>
      </trkpt>
      <trkpt lat="45.15602" lon="6.29516">
        <ele>1933.8</ele>
        <time>2021-02-28T06:00:40Z</time>
      </trkpt>
      <trkpt lat="45.15602" lon="6.29516">
        <ele>1933.8</ele>
        <time>2021-02-28T06:00:41Z</time>
      </trkpt>
      <trkpt lat="45.156" lon="6.29518">
        <ele>1934</ele>
        <time>2021-02-28T06:00:42Z</time>
      </trkpt>
      <trkpt lat="45.156" lon="6.29518">
        <ele>1934</ele>
        <time>2021-02-28T06:00:43Z</time>
      </trkpt>
      <trkpt lat="45.156" lon="6.29518">
        <ele>1934.4</ele>
        <time>2021-02-28T06:00:44Z</time>
      </trkpt>
      <trkpt lat="45.15599" lon="6.2952">
        <ele>1934.2</ele>
        <time>2021-02-28T06:00:45Z</time>
      </trkpt>
      <trkpt lat="45.15599" lon="6.2952">
        <ele>1934.4</ele>
        <time>2021-02-28T06:00:46Z</time>
      </trkpt>
      <trkpt lat="45.15599" lon="6.2952">
        <ele>1934.6</ele>
        <time>2021-02-28T06:00:47Z</time>
      </trkpt>
      <trkpt lat="45.15599" lon="6.29521">
        <ele>1934.8</ele>
        <time>2021-02-28T06:00:48Z</time>
      </trkpt>
      <trkpt lat="45.15598" lon="6.29522">
        <ele>1935</ele>
        <time>2021-02-28T06:00:49Z</time>
      </trkpt>
      <trkpt lat="45.15598" lon="6.29522">
        <ele>1935</ele>
        <time>2021-02-28T06:00:50Z</time>
      </trkpt>
      <trkpt lat="45.15598" lon="6.29523">
        <ele>1935.4</ele>
        <time>2021-02-28T06:00:51Z</time>
      </trkpt>
      <trkpt lat="45.15597" lon="6.29524">
        <ele>1935.2</ele>
        <time>2021-02-28T06:00:52Z</time>
      </trkpt>
      <trkpt lat="45.15597" lon="6.29524">
        <ele>1936</ele>
        <time>2021-02-28T06:00:53Z</time>
      </trkpt>
      <trkpt lat="45.15596" lon="6.29525">
        <ele>1936.2</ele>
        <time>2021-02-28T06:00:54Z</time>
      </trkpt>
      <trkpt lat="45.15596" lon="6.29525">
        <ele>1936.4</ele>
        <time>2021-02-28T06:00:55Z</time>
      </trkpt>
      <trkpt lat="45.15596" lon="6.29526">
        <ele>1936.4</ele>
        <time>2021-02-28T06:00:56Z</time>
      </trkpt>
      <trkpt lat="45.15595" lon="6.29527">
        <ele>1936.6</ele>
        <time>2021-02-28T06:00:57Z</time>
      </trkpt>
      <trkpt lat="45.15595" lon="6.29527">
        <ele>1937</ele>
        <time>2021-02-28T06:00:58Z</time>
      </trkpt>
      <trkpt lat="45.15595" lon="6.29528">
        <ele>1937.2</ele>
        <time>2021-02-28T06:00:59Z</time>
      </trkpt>
      <trkpt lat="45.15594" lon="6.29529">
        <ele>1937.2</ele>
        <time>2021-02-28T06:01:00Z</time>
      </trkpt>
      <trkpt lat="45.15594" lon="6.29529">
        <ele>1937.6</ele>
        <time>2021-02-28T06:01:01Z</time>
      </trkpt>
      <trkpt lat="45.15594" lon="6.2953">
        <ele>1937.8</ele>
        <time>2021-02-28T06:01:02Z</time>
      </trkpt>
      <trkpt lat="45.15593" lon="6.2953">
        <ele>1937.6</ele>
        <time>2021-02-28T06:01:03Z</time>
      </trkpt>
      <trkpt lat="45.15593" lon="6.2953">
        <ele>1937.2</ele>
        <time>2021-02-28T06:01:04Z</time>
      </trkpt>
      <trkpt lat="45.15593" lon="6.2953">
        <ele>1937.2</ele>
        <time>2021-02-28T06:01:05Z</time>
      </trkpt>
      <trkpt lat="45.15593" lon="6.2953">
        <ele>1936.8</ele>
        <time>2021-02-28T06:01:06Z</time>
      </trkpt>
      <trkpt lat="45.15593" lon="6.2953">
        <ele>1936.6</ele>
        <time>2021-02-28T06:01:07Z</time>
      </trkpt>
      <trkpt lat="45.15592" lon="6.29534">
        <ele>1936.6</ele>
        <time>2021-02-28T06:01:08Z</time>
      </trkpt>
      <trkpt lat="45.15592" lon="6.29534">
        <ele>1936.4</ele>
        <time>2021-02-28T06:01:09Z</time>
      </trkpt>
      <trkpt lat="45.15592" lon="6.29534">
        <ele>1936.2</ele>
        <time>2021-02-28T06:01:10Z</time>
      </trkpt>
      <trkpt lat="45.15592" lon="6.29534">
        <ele>1936.6</ele>
        <time>2021-02-28T06:01:11Z</time>
      </trkpt>
      <trkpt lat="45.15591" lon="6.29535">
        <ele>1936.8</ele>
        <time>2021-02-28T06:01:12Z</time>
      </trkpt>
      <trkpt lat="45.1559" lon="6.29535">
        <ele>1936.8</ele>
        <time>2021-02-28T06:01:13Z</time>
      </trkpt>
      <trkpt lat="45.1559" lon="6.29536">
        <ele>1937</ele>
        <time>2021-02-28T06:01:14Z</time>
      </trkpt>
      <trkpt lat="45.15589" lon="6.29537">
        <ele>1937.2</ele>
        <time>2021-02-28T06:01:15Z</time>
      </trkpt>
      <trkpt lat="45.15588" lon="6.29537">
        <ele>1937.2</ele>
        <time>2021-02-28T06:01:16Z</time>
      </trkpt>
      <trkpt lat="45.15588" lon="6.29538">
        <ele>1937.2</ele>
        <time>2021-02-28T06:01:17Z</time>
      </trkpt>
      <trkpt lat="45.15587" lon="6.29539">
        <ele>1937.4</ele>
        <time>2021-02-28T06:01:18Z</time>
      </trkpt>
      <trkpt lat="45.15586" lon="6.29539">
        <ele>1937.2</ele>
        <time>2021-02-28T06:01:19Z</time>
      </trkpt>
      <trkpt lat="45.15587" lon="6.29541">
        <ele>1937.2</ele>
        <time>2021-02-28T06:01:20Z</time>
      </trkpt>
      <trkpt lat="45.15587" lon="6.29542">
        <ele>1937.6</ele>
        <time>2021-02-28T06:01:21Z</time>
      </trkpt>
      <trkpt lat="45.15587" lon="6.29543">
        <ele>1937.8</ele>
        <time>2021-02-28T06:01:22Z</time>
      </trkpt>
      <trkpt lat="45.15587" lon="6.29545">
        <ele>1937.6</ele>
        <time>2021-02-28T06:01:23Z</time>
      </trkpt>
      <trkpt lat="45.15587" lon="6.29546">
        <ele>1938</ele>
        <time>2021-02-28T06:01:24Z</time>
      </trkpt>
      <trkpt lat="45.15587" lon="6.29548">
        <ele>1937.8</ele>
        <time>2021-02-28T06:01:25Z</time>
      </trkpt>
      <trkpt lat="45.15587" lon="6.29549">
        <ele>1937.8</ele>
        <time>2021-02-28T06:01:26Z</time>
      </trkpt>
      <trkpt lat="45.15588" lon="6.2955">
        <ele>1938</ele>
        <time>2021-02-28T06:01:27Z</time>
      </trkpt>
      <trkpt lat="45.15588" lon="6.29552">
        <ele>1937.8</ele>
        <time>2021-02-28T06:01:28Z</time>
      </trkpt>
      <trkpt lat="45.15589" lon="6.29556">
        <ele>1938</ele>
        <time>2021-02-28T06:01:29Z</time>
      </trkpt>
      <trkpt lat="45.15589" lon="6.29556">
        <ele>1937.6</ele>
        <time>2021-02-28T06:01:30Z</time>
      </trkpt>
      <trkpt lat="45.15589" lon="6.29556">
        <ele>1937.6</ele>
        <time>2021-02-28T06:01:31Z</time>
      </trkpt>
      <trkpt lat="45.1559" lon="6.2956">
        <ele>1937.8</ele>
        <time>2021-02-28T06:01:32Z</time>
      </trkpt>
      <trkpt lat="45.1559" lon="6.2956">
        <ele>1937.8</ele>
        <time>2021-02-28T06:01:33Z</time>
      </trkpt>
      <trkpt lat="45.1559" lon="6.2956">
        <ele>1937.8</ele>
        <time>2021-02-28T06:01:34Z</time>
      </trkpt>
      <trkpt lat="45.15592" lon="6.29564">
        <ele>1937.6</ele>
        <time>2021-02-28T06:01:35Z</time>
      </trkpt>
      <trkpt lat="45.15592" lon="6.29564">
        <ele>1937.6</ele>
        <time>2021-02-28T06:01:36Z</time>
      </trkpt>
      <trkpt lat="45.15592" lon="6.29564">
        <ele>1937.8</ele>
        <time>2021-02-28T06:01:37Z</time>
      </trkpt>
      <trkpt lat="45.15592" lon="6.29567">
        <ele>1937.8</ele>
        <time>2021-02-28T06:01:38Z</time>
      </trkpt>
      <trkpt lat="45.15592" lon="6.29569">
        <ele>1937.4</ele>
        <time>2021-02-28T06:01:39Z</time>
      </trkpt>
      <trkpt lat="45.15593" lon="6.29571">
        <ele>1937.6</ele>
        <time>2021-02-28T06:01:40Z</time>
      </trkpt>
      <trkpt lat="45.15593" lon="6.29574">
        <ele>1937.6</ele>
        <time>2021-02-28T06:01:41Z</time>
      </trkpt>
      <trkpt lat="45.15593" lon="6.29576">
        <ele>1937.4</ele>
        <time>2021-02-28T06:01:42Z</time>
      </trkpt>
      <trkpt lat="45.15593" lon="6.29576">
        <ele>1937.2</ele>
        <time>2021-02-28T06:01:43Z</time>
      </trkpt>
      <trkpt lat="45.15593" lon="6.29576">
        <ele>1937.2</ele>
        <time>2021-02-28T06:01:44Z</time>
      </trkpt>
      <trkpt lat="45.15594" lon="6.29581">
        <ele>1937</ele>
        <time>2021-02-28T06:01:45Z</time>
      </trkpt>
      <trkpt lat="45.15594" lon="6.29581">
        <ele>1936.8</ele>
        <time>2021-02-28T06:01:46Z</time>
      </trkpt>
      <trkpt lat="45.15594" lon="6.29584">
        <ele>1936.6</ele>
        <time>2021-02-28T06:01:47Z</time>
      </trkpt>
      <trkpt lat="45.15594" lon="6.29584">
        <ele>1936.6</ele>
        <time>2021-02-28T06:01:48Z</time>
      </trkpt>
      <trkpt lat="45.15593" lon="6.29588">
        <ele>1936.6</ele>
        <time>2021-02-28T06:01:49Z</time>
      </trkpt>
      <trkpt lat="45.15593" lon="6.29588">
        <ele>1936.4</ele>
        <time>2021-02-28T06:01:50Z</time>
      </trkpt>
      <trkpt lat="45.15593" lon="6.29591">
        <ele>1936.2</ele>
        <time>2021-02-28T06:01:51Z</time>
      </trkpt>
      <trkpt lat="45.15593" lon="6.29591">
        <ele>1936.4</ele>
        <time>2021-02-28T06:01:52Z</time>
      </trkpt>
      <trkpt lat="45.15593" lon="6.29591">
        <ele>1936.4</ele>
        <time>2021-02-28T06:01:53Z</time>
      </trkpt>
      <trkpt lat="45.15593" lon="6.29596">
        <ele>1936.4</ele>
        <time>2021-02-28T06:01:54Z</time>
      </trkpt>
      <trkpt lat="45.15593" lon="6.29596">
        <ele>1936.4</ele>
        <time>2021-02-28T06:01:55Z</time>
      </trkpt>
      <trkpt lat="45.15593" lon="6.29598">
        <ele>1936.6</ele>
        <time>2021-02-28T06:01:56Z</time>
      </trkpt>
      <trkpt lat="45.15593" lon="6.29598">
        <ele>1936.6</ele>
        <time>2021-02-28T06:01:57Z</time>
      </trkpt>
      <trkpt lat="45.15593" lon="6.29602">
        <ele>1936.6</ele>
        <time>2021-02-28T06:01:58Z</time>
      </trkpt>
      <trkpt lat="45.15593" lon="6.29602">
        <ele>1936.8</ele>
        <time>2021-02-28T06:01:59Z</time>
      </trkpt>
      <trkpt lat="45.15592" lon="6.29604">
        <ele>1936.8</ele>
        <time>2021-02-28T06:02:00Z</time>
      </trkpt>
      <trkpt lat="45.15592" lon="6.29604">
        <ele>1936.8</ele>
        <time>2021-02-28T06:02:01Z</time>
      </trkpt>
      <trkpt lat="45.15592" lon="6.29607">
        <ele>1937.2</ele>
        <time>2021-02-28T06:02:02Z</time>
      </trkpt>
      <trkpt lat="45.15592" lon="6.29607">
        <ele>1937.4</ele>
        <time>2021-02-28T06:02:03Z</time>
      </trkpt>
      <trkpt lat="45.15592" lon="6.29607">
        <ele>1937.6</ele>
        <time>2021-02-28T06:02:04Z</time>
      </trkpt>
      <trkpt lat="45.15591" lon="6.29611">
        <ele>1937.8</ele>
        <time>2021-02-28T06:02:05Z</time>
      </trkpt>
      <trkpt lat="45.15591" lon="6.29611">
        <ele>1938</ele>
        <time>2021-02-28T06:02:06Z</time>
      </trkpt>
      <trkpt lat="45.15591" lon="6.29614">
        <ele>1938</ele>
        <time>2021-02-28T06:02:07Z</time>
      </trkpt>
      <trkpt lat="45.15591" lon="6.29614">
        <ele>1938.6</ele>
        <time>2021-02-28T06:02:08Z</time>
      </trkpt>
      <trkpt lat="45.1559" lon="6.29617">
        <ele>1938.6</ele>
        <time>2021-02-28T06:02:09Z</time>
      </trkpt>
      <trkpt lat="45.1559" lon="6.29617">
        <ele>1938.6</ele>
        <time>2021-02-28T06:02:10Z</time>
      </trkpt>
      <trkpt lat="45.15589" lon="6.2962">
        <ele>1938.6</ele>
        <time>2021-02-28T06:02:11Z</time>
      </trkpt>
      <trkpt lat="45.15589" lon="6.2962">
        <ele>1938.8</ele>
        <time>2021-02-28T06:02:12Z</time>
      </trkpt>
      <trkpt lat="45.15589" lon="6.2962">
        <ele>1939</ele>
        <time>2021-02-28T06:02:13Z</time>
      </trkpt>
      <trkpt lat="45.15589" lon="6.29621">
        <ele>1939</ele>
        <time>2021-02-28T06:02:14Z</time>
      </trkpt>
      <trkpt lat="45.15589" lon="6.29623">
        <ele>1939</ele>
        <time>2021-02-28T06:02:15Z</time>
      </trkpt>
      <trkpt lat="45.15589" lon="6.29625">
        <ele>1938.8</ele>
        <time>2021-02-28T06:02:16Z</time>
      </trkpt>
      <trkpt lat="45.15589" lon="6.29626">
        <ele>1938.6</ele>
        <time>2021-02-28T06:02:17Z</time>
      </trkpt>
      <trkpt lat="45.15589" lon="6.29628">
        <ele>1938.4</ele>
        <time>2021-02-28T06:02:18Z</time>
      </trkpt>
      <trkpt lat="45.15589" lon="6.2963">
        <ele>1938.4</ele>
        <time>2021-02-28T06:02:19Z</time>
      </trkpt>
      <trkpt lat="45.15589" lon="6.29631">
        <ele>1938.2</ele>
        <time>2021-02-28T06:02:20Z</time>
      </trkpt>
      <trkpt lat="45.15589" lon="6.29633">
        <ele>1938.2</ele>
        <time>2021-02-28T06:02:21Z</time>
      </trkpt>
      <trkpt lat="45.15589" lon="6.29638">
        <ele>1938.2</ele>
        <time>2021-02-28T06:02:22Z</time>
      </trkpt>
      <trkpt lat="45.15589" lon="6.29638">
        <ele>1938</ele>
        <time>2021-02-28T06:02:23Z</time>
      </trkpt>
      <trkpt lat="45.15589" lon="6.29638">
        <ele>1937.8</ele>
        <time>2021-02-28T06:02:24Z</time>
      </trkpt>
      <trkpt lat="45.15589" lon="6.29639">
        <ele>1938</ele>
        <time>2021-02-28T06:02:25Z</time>
      </trkpt>
      <trkpt lat="45.15589" lon="6.2964">
        <ele>1938</ele>
        <time>2021-02-28T06:02:26Z</time>
      </trkpt>
      <trkpt lat="45.15589" lon="6.29641">
        <ele>1938.4</ele>
        <time>2021-02-28T06:02:27Z</time>
      </trkpt>
      <trkpt lat="45.1559" lon="6.29643">
        <ele>1938.2</ele>
        <time>2021-02-28T06:02:28Z</time>
      </trkpt>
      <trkpt lat="45.1559" lon="6.29644">
        <ele>1938.6</ele>
        <time>2021-02-28T06:02:29Z</time>
      </trkpt>
      <trkpt lat="45.1559" lon="6.29645">
        <ele>1938.4</ele>
        <time>2021-02-28T06:02:30Z</time>
      </trkpt>
      <trkpt lat="45.1559" lon="6.29646">
        <ele>1938.6</ele>
        <time>2021-02-28T06:02:31Z</time>
      </trkpt>
      <trkpt lat="45.1559" lon="6.29648">
        <ele>1938.8</ele>
        <time>2021-02-28T06:02:32Z</time>
      </trkpt>
      <trkpt lat="45.1559" lon="6.29649">
        <ele>1938.8</ele>
        <time>2021-02-28T06:02:33Z</time>
      </trkpt>
      <trkpt lat="45.15591" lon="6.29651">
        <ele>1939.2</ele>
        <time>2021-02-28T06:02:34Z</time>
      </trkpt>
      <trkpt lat="45.15591" lon="6.29653">
        <ele>1939.4</ele>
        <time>2021-02-28T06:02:35Z</time>
      </trkpt>
      <trkpt lat="45.15591" lon="6.29654">
        <ele>1939.6</ele>
        <time>2021-02-28T06:02:36Z</time>
      </trkpt>
      <trkpt lat="45.15591" lon="6.29656">
        <ele>1939.6</ele>
        <time>2021-02-28T06:02:37Z</time>
      </trkpt>
      <trkpt lat="45.15591" lon="6.29657">
        <ele>1940</ele>
        <time>2021-02-28T06:02:38Z</time>
      </trkpt>
      <trkpt lat="45.15592" lon="6.29659">
        <ele>1940</ele>
        <time>2021-02-28T06:02:39Z</time>
      </trkpt>
      <trkpt lat="45.15592" lon="6.2966">
        <ele>1940.2</ele>
        <time>2021-02-28T06:02:40Z</time>
      </trkpt>
      <trkpt lat="45.15592" lon="6.29662">
        <ele>1940.2</ele>
        <time>2021-02-28T06:02:41Z</time>
      </trkpt>
      <trkpt lat="45.15592" lon="6.29663">
        <ele>1940.4</ele>
        <time>2021-02-28T06:02:42Z</time>
      </trkpt>
      <trkpt lat="45.15592" lon="6.29664">
        <ele>1940.4</ele>
        <time>2021-02-28T06:02:43Z</time>
      </trkpt>
      <trkpt lat="45.15592" lon="6.29666">
        <ele>1940.8</ele>
        <time>2021-02-28T06:02:44Z</time>
      </trkpt>
      <trkpt lat="45.15593" lon="6.29667">
        <ele>1940.4</ele>
        <time>2021-02-28T06:02:45Z</time>
      </trkpt>
      <trkpt lat="45.15593" lon="6.29669">
        <ele>1940.6</ele>
        <time>2021-02-28T06:02:46Z</time>
      </trkpt>
      <trkpt lat="45.15592" lon="6.29671">
        <ele>1940.6</ele>
        <time>2021-02-28T06:02:47Z</time>
      </trkpt>
      <trkpt lat="45.15592" lon="6.29672">
        <ele>1940.8</ele>
        <time>2021-02-28T06:02:48Z</time>
      </trkpt>
      <trkpt lat="45.15592" lon="6.29674">
        <ele>1940.8</ele>
        <time>2021-02-28T06:02:49Z</time>
      </trkpt>
      <trkpt lat="45.15591" lon="6.29676">
        <ele>1940.8</ele>
        <time>2021-02-28T06:02:50Z</time>
      </trkpt>
      <trkpt lat="45.15591" lon="6.29678">
        <ele>1940.8</ele>
        <time>2021-02-28T06:02:51Z</time>
      </trkpt>
      <trkpt lat="45.1559" lon="6.2968">
        <ele>1940.8</ele>
        <time>2021-02-28T06:02:52Z</time>
      </trkpt>
      <trkpt lat="45.1559" lon="6.2968">
        <ele>1940.8</ele>
        <time>2021-02-28T06:02:53Z</time>
      </trkpt>
      <trkpt lat="45.15587" lon="6.2968">
        <ele>1941</ele>
        <time>2021-02-28T06:02:54Z</time>
      </trkpt>
      <trkpt lat="45.15587" lon="6.2968">
        <ele>1941.2</ele>
        <time>2021-02-28T06:02:55Z</time>
      </trkpt>
      <trkpt lat="45.15587" lon="6.2968">
        <ele>1941.2</ele>
        <time>2021-02-28T06:02:56Z</time>
      </trkpt>
      <trkpt lat="45.15586" lon="6.2968">
        <ele>1941.4</ele>
        <time>2021-02-28T06:02:57Z</time>
      </trkpt>
      <trkpt lat="45.15585" lon="6.29679">
        <ele>1941.8</ele>
        <time>2021-02-28T06:02:58Z</time>
      </trkpt>
      <trkpt lat="45.15584" lon="6.29679">
        <ele>1942</ele>
        <time>2021-02-28T06:02:59Z</time>
      </trkpt>
      <trkpt lat="45.15583" lon="6.29679">
        <ele>1942.2</ele>
        <time>2021-02-28T06:03:00Z</time>
      </trkpt>
      <trkpt lat="45.15582" lon="6.29679">
        <ele>1942.4</ele>
        <time>2021-02-28T06:03:01Z</time>
      </trkpt>
      <trkpt lat="45.15581" lon="6.29679">
        <ele>1942.6</ele>
        <time>2021-02-28T06:03:02Z</time>
      </trkpt>
      <trkpt lat="45.1558" lon="6.29679">
        <ele>1943</ele>
        <time>2021-02-28T06:03:03Z</time>
      </trkpt>
      <trkpt lat="45.15578" lon="6.29679">
        <ele>1943.2</ele>
        <time>2021-02-28T06:03:04Z</time>
      </trkpt>
      <trkpt lat="45.15578" lon="6.29679">
        <ele>1943.4</ele>
        <time>2021-02-28T06:03:05Z</time>
      </trkpt>
      <trkpt lat="45.15578" lon="6.29679">
        <ele>1943.4</ele>
        <time>2021-02-28T06:03:06Z</time>
      </trkpt>
      <trkpt lat="45.15578" lon="6.29679">
        <ele>1943.4</ele>
        <time>2021-02-28T06:03:07Z</time>
      </trkpt>
      <trkpt lat="45.15578" lon="6.29679">
        <ele>1943.8</ele>
        <time>2021-02-28T06:03:08Z</time>
      </trkpt>
      <trkpt lat="45.15578" lon="6.29679">
        <ele>1944</ele>
        <time>2021-02-28T06:03:09Z</time>
      </trkpt>
      <trkpt lat="45.15578" lon="6.29679">
        <ele>1944.4</ele>
        <time>2021-02-28T06:03:10Z</time>
      </trkpt>
      <trkpt lat="45.15578" lon="6.29679">
        <ele>1944.4</ele>
        <time>2021-02-28T06:03:11Z</time>
      </trkpt>
      <trkpt lat="45.15578" lon="6.29679">
        <ele>1944.6</ele>
        <time>2021-02-28T06:03:12Z</time>
      </trkpt>
      <trkpt lat="45.15578" lon="6.29679">
        <ele>1944.6</ele>
        <time>2021-02-28T06:03:13Z</time>
      </trkpt>
      <trkpt lat="45.15578" lon="6.29679">
        <ele>1944.2</ele>
        <time>2021-02-28T06:03:14Z</time>
      </trkpt>
      <trkpt lat="45.15578" lon="6.29679">
        <ele>1943.8</ele>
        <time>2021-02-28T06:03:15Z</time>
      </trkpt>
      <trkpt lat="45.15578" lon="6.29679">
        <ele>1943.6</ele>
        <time>2021-02-28T06:03:16Z</time>
      </trkpt>
      <trkpt lat="45.15578" lon="6.29679">
        <ele>1943.4</ele>
        <time>2021-02-28T06:03:17Z</time>
      </trkpt>
      <trkpt lat="45.15578" lon="6.29679">
        <ele>1943.8</ele>
        <time>2021-02-28T06:03:18Z</time>
      </trkpt>
      <trkpt lat="45.15578" lon="6.29679">
        <ele>1944</ele>
        <time>2021-02-28T06:03:19Z</time>
      </trkpt>
      <trkpt lat="45.15578" lon="6.29679">
        <ele>1944.2</ele>
        <time>2021-02-28T06:03:20Z</time>
      </trkpt>
      <trkpt lat="45.15578" lon="6.29679">
        <ele>1944.4</ele>
        <time>2021-02-28T06:03:21Z</time>
      </trkpt>
      <trkpt lat="45.15578" lon="6.29679">
        <ele>1944.4</ele>
        <time>2021-02-28T06:03:22Z</time>
      </trkpt>
      <trkpt lat="45.1558" lon="6.2968">
        <ele>1944.4</ele>
        <time>2021-02-28T06:03:23Z</time>
      </trkpt>
      <trkpt lat="45.1558" lon="6.2968">
        <ele>1944.6</ele>
        <time>2021-02-28T06:03:24Z</time>
      </trkpt>
      <trkpt lat="45.1558" lon="6.29683">
        <ele>1944.6</ele>
        <time>2021-02-28T06:03:25Z</time>
      </trkpt>
      <trkpt lat="45.1558" lon="6.29683">
        <ele>1944.6</ele>
        <time>2021-02-28T06:03:26Z</time>
      </trkpt>
      <trkpt lat="45.1558" lon="6.29686">
        <ele>1944.8</ele>
        <time>2021-02-28T06:03:27Z</time>
      </trkpt>
      <trkpt lat="45.1558" lon="6.29686">
        <ele>1945.2</ele>
        <time>2021-02-28T06:03:28Z</time>
      </trkpt>
      <trkpt lat="45.15581" lon="6.29688">
        <ele>1945.4</ele>
        <time>2021-02-28T06:03:29Z</time>
      </trkpt>
      <trkpt lat="45.15581" lon="6.29688">
        <ele>1945.8</ele>
        <time>2021-02-28T06:03:30Z</time>
      </trkpt>
      <trkpt lat="45.15582" lon="6.2969">
        <ele>1946.2</ele>
        <time>2021-02-28T06:03:31Z</time>
      </trkpt>
      <trkpt lat="45.15582" lon="6.2969">
        <ele>1946.4</ele>
        <time>2021-02-28T06:03:32Z</time>
      </trkpt>
      <trkpt lat="45.15582" lon="6.2969">
        <ele>1946.4</ele>
        <time>2021-02-28T06:03:33Z</time>
      </trkpt>
      <trkpt lat="45.15583" lon="6.29692">
        <ele>1946.4</ele>
        <time>2021-02-28T06:03:34Z</time>
      </trkpt>
      <trkpt lat="45.15583" lon="6.29693">
        <ele>1946.6</ele>
        <time>2021-02-28T06:03:35Z</time>
      </trkpt>
      <trkpt lat="45.15584" lon="6.29694">
        <ele>1946.6</ele>
        <time>2021-02-28T06:03:36Z</time>
      </trkpt>
      <trkpt lat="45.15584" lon="6.29696">
        <ele>1946.8</ele>
        <time>2021-02-28T06:03:37Z</time>
      </trkpt>
      <trkpt lat="45.15584" lon="6.29697">
        <ele>1947</ele>
        <time>2021-02-28T06:03:38Z</time>
      </trkpt>
      <trkpt lat="45.15585" lon="6.29698">
        <ele>1947.4</ele>
        <time>2021-02-28T06:03:39Z</time>
      </trkpt>
      <trkpt lat="45.15585" lon="6.297">
        <ele>1947.4</ele>
        <time>2021-02-28T06:03:40Z</time>
      </trkpt>
      <trkpt lat="45.15585" lon="6.29701">
        <ele>1947.6</ele>
        <time>2021-02-28T06:03:41Z</time>
      </trkpt>
      <trkpt lat="45.15586" lon="6.29702">
        <ele>1948</ele>
        <time>2021-02-28T06:03:42Z</time>
      </trkpt>
      <trkpt lat="45.15586" lon="6.29704">
        <ele>1948.4</ele>
        <time>2021-02-28T06:03:43Z</time>
      </trkpt>
      <trkpt lat="45.15586" lon="6.29705">
        <ele>1948.4</ele>
        <time>2021-02-28T06:03:44Z</time>
      </trkpt>
      <trkpt lat="45.15586" lon="6.29706">
        <ele>1949</ele>
        <time>2021-02-28T06:03:45Z</time>
      </trkpt>
      <trkpt lat="45.15586" lon="6.29708">
        <ele>1949.2</ele>
        <time>2021-02-28T06:03:46Z</time>
      </trkpt>
      <trkpt lat="45.15586" lon="6.29709">
        <ele>1949.2</ele>
        <time>2021-02-28T06:03:47Z</time>
      </trkpt>
      <trkpt lat="45.15586" lon="6.2971">
        <ele>1949.2</ele>
        <time>2021-02-28T06:03:48Z</time>
      </trkpt>
      <trkpt lat="45.15586" lon="6.29712">
        <ele>1949.6</ele>
        <time>2021-02-28T06:03:49Z</time>
      </trkpt>
      <trkpt lat="45.15586" lon="6.29713">
        <ele>1949.8</ele>
        <time>2021-02-28T06:03:50Z</time>
      </trkpt>
      <trkpt lat="45.15586" lon="6.29714">
        <ele>1950</ele>
        <time>2021-02-28T06:03:51Z</time>
      </trkpt>
      <trkpt lat="45.15586" lon="6.29715">
        <ele>1950.4</ele>
        <time>2021-02-28T06:03:52Z</time>
      </trkpt>
      <trkpt lat="45.15586" lon="6.29717">
        <ele>1950.4</ele>
        <time>2021-02-28T06:03:53Z</time>
      </trkpt>
      <trkpt lat="45.15585" lon="6.29718">
        <ele>1950.6</ele>
        <time>2021-02-28T06:03:54Z</time>
      </trkpt>
      <trkpt lat="45.15585" lon="6.29719">
        <ele>1950.6</ele>
        <time>2021-02-28T06:03:55Z</time>
      </trkpt>
      <trkpt lat="45.15584" lon="6.2972">
        <ele>1951.2</ele>
        <time>2021-02-28T06:03:56Z</time>
      </trkpt>
      <trkpt lat="45.15584" lon="6.29722">
        <ele>1951.4</ele>
        <time>2021-02-28T06:03:57Z</time>
      </trkpt>
      <trkpt lat="45.15583" lon="6.29723">
        <ele>1951.6</ele>
        <time>2021-02-28T06:03:58Z</time>
      </trkpt>
      <trkpt lat="45.15583" lon="6.29724">
        <ele>1952</ele>
        <time>2021-02-28T06:03:59Z</time>
      </trkpt>
      <trkpt lat="45.15583" lon="6.29725">
        <ele>1952.2</ele>
        <time>2021-02-28T06:04:00Z</time>
      </trkpt>
      <trkpt lat="45.15582" lon="6.29727">
        <ele>1952.4</ele>
        <time>2021-02-28T06:04:01Z</time>
      </trkpt>
      <trkpt lat="45.15581" lon="6.29726">
        <ele>1953</ele>
        <time>2021-02-28T06:04:02Z</time>
      </trkpt>
      <trkpt lat="45.15579" lon="6.29726">
        <ele>1953.2</ele>
        <time>2021-02-28T06:04:03Z</time>
      </trkpt>
      <trkpt lat="45.15578" lon="6.29726">
        <ele>1953.4</ele>
        <time>2021-02-28T06:04:04Z</time>
      </trkpt>
      <trkpt lat="45.15577" lon="6.29726">
        <ele>1953.8</ele>
        <time>2021-02-28T06:04:05Z</time>
      </trkpt>
      <trkpt lat="45.15575" lon="6.29726">
        <ele>1954.2</ele>
        <time>2021-02-28T06:04:06Z</time>
      </trkpt>
      <trkpt lat="45.15574" lon="6.29726">
        <ele>1954.6</ele>
        <time>2021-02-28T06:04:07Z</time>
      </trkpt>
      <trkpt lat="45.15573" lon="6.29725">
        <ele>1955.2</ele>
        <time>2021-02-28T06:04:08Z</time>
      </trkpt>
      <trkpt lat="45.15572" lon="6.29726">
        <ele>1955.2</ele>
        <time>2021-02-28T06:04:09Z</time>
      </trkpt>
      <trkpt lat="45.15572" lon="6.29727">
        <ele>1955.2</ele>
        <time>2021-02-28T06:04:10Z</time>
      </trkpt>
      <trkpt lat="45.15572" lon="6.29728">
        <ele>1955.4</ele>
        <time>2021-02-28T06:04:11Z</time>
      </trkpt>
      <trkpt lat="45.15572" lon="6.29728">
        <ele>1956</ele>
        <time>2021-02-28T06:04:12Z</time>
      </trkpt>
      <trkpt lat="45.15571" lon="6.29729">
        <ele>1956</ele>
        <time>2021-02-28T06:04:13Z</time>
      </trkpt>
      <trkpt lat="45.15571" lon="6.2973">
        <ele>1956</ele>
        <time>2021-02-28T06:04:14Z</time>
      </trkpt>
      <trkpt lat="45.15571" lon="6.2973">
        <ele>1956.2</ele>
        <time>2021-02-28T06:04:15Z</time>
      </trkpt>
      <trkpt lat="45.15571" lon="6.29731">
        <ele>1956.6</ele>
        <time>2021-02-28T06:04:16Z</time>
      </trkpt>
      <trkpt lat="45.1557" lon="6.29732">
        <ele>1956.8</ele>
        <time>2021-02-28T06:04:17Z</time>
      </trkpt>
      <trkpt lat="45.1557" lon="6.29733">
        <ele>1957</ele>
        <time>2021-02-28T06:04:18Z</time>
      </trkpt>
      <trkpt lat="45.1557" lon="6.29733">
        <ele>1957.2</ele>
        <time>2021-02-28T06:04:19Z</time>
      </trkpt>
      <trkpt lat="45.1557" lon="6.29734">
        <ele>1957.8</ele>
        <time>2021-02-28T06:04:20Z</time>
      </trkpt>
      <trkpt lat="45.15569" lon="6.29735">
        <ele>1958</ele>
        <time>2021-02-28T06:04:21Z</time>
      </trkpt>
      <trkpt lat="45.15569" lon="6.29735">
        <ele>1958.4</ele>
        <time>2021-02-28T06:04:22Z</time>
      </trkpt>
      <trkpt lat="45.15569" lon="6.29736">
        <ele>1958.8</ele>
        <time>2021-02-28T06:04:23Z</time>
      </trkpt>
      <trkpt lat="45.15569" lon="6.29737">
        <ele>1958.6</ele>
        <time>2021-02-28T06:04:24Z</time>
      </trkpt>
      <trkpt lat="45.15568" lon="6.29738">
        <ele>1959</ele>
        <time>2021-02-28T06:04:25Z</time>
      </trkpt>
      <trkpt lat="45.15569" lon="6.29739">
        <ele>1959.2</ele>
        <time>2021-02-28T06:04:26Z</time>
      </trkpt>
      <trkpt lat="45.15569" lon="6.2974">
        <ele>1959.6</ele>
        <time>2021-02-28T06:04:27Z</time>
      </trkpt>
      <trkpt lat="45.15569" lon="6.29741">
        <ele>1959.8</ele>
        <time>2021-02-28T06:04:28Z</time>
      </trkpt>
      <trkpt lat="45.15569" lon="6.29743">
        <ele>1960</ele>
        <time>2021-02-28T06:04:29Z</time>
      </trkpt>
      <trkpt lat="45.15569" lon="6.29744">
        <ele>1960.4</ele>
        <time>2021-02-28T06:04:30Z</time>
      </trkpt>
      <trkpt lat="45.15569" lon="6.29745">
        <ele>1960.6</ele>
        <time>2021-02-28T06:04:31Z</time>
      </trkpt>
      <trkpt lat="45.15569" lon="6.29747">
        <ele>1960.6</ele>
        <time>2021-02-28T06:04:32Z</time>
      </trkpt>
      <trkpt lat="45.15569" lon="6.29748">
        <ele>1961</ele>
        <time>2021-02-28T06:04:33Z</time>
      </trkpt>
      <trkpt lat="45.15569" lon="6.29749">
        <ele>1961.4</ele>
        <time>2021-02-28T06:04:34Z</time>
      </trkpt>
      <trkpt lat="45.1557" lon="6.2975">
        <ele>1961.6</ele>
        <time>2021-02-28T06:04:35Z</time>
      </trkpt>
      <trkpt lat="45.15569" lon="6.2975">
        <ele>1962</ele>
        <time>2021-02-28T06:04:36Z</time>
      </trkpt>
      <trkpt lat="45.15567" lon="6.29749">
        <ele>1962.2</ele>
        <time>2021-02-28T06:04:37Z</time>
      </trkpt>
      <trkpt lat="45.15566" lon="6.29749">
        <ele>1962.6</ele>
        <time>2021-02-28T06:04:38Z</time>
      </trkpt>
      <trkpt lat="45.15565" lon="6.29748">
        <ele>1962.6</ele>
        <time>2021-02-28T06:04:39Z</time>
      </trkpt>
      <trkpt lat="45.15564" lon="6.29747">
        <ele>1963</ele>
        <time>2021-02-28T06:04:40Z</time>
      </trkpt>
      <trkpt lat="45.15563" lon="6.29747">
        <ele>1963.2</ele>
        <time>2021-02-28T06:04:41Z</time>
      </trkpt>
      <trkpt lat="45.15562" lon="6.29746">
        <ele>1963.4</ele>
        <time>2021-02-28T06:04:42Z</time>
      </trkpt>
      <trkpt lat="45.15561" lon="6.29745">
        <ele>1964</ele>
        <time>2021-02-28T06:04:43Z</time>
      </trkpt>
      <trkpt lat="45.1556" lon="6.29745">
        <ele>1964.2</ele>
        <time>2021-02-28T06:04:44Z</time>
      </trkpt>
      <trkpt lat="45.15559" lon="6.29744">
        <ele>1964.2</ele>
        <time>2021-02-28T06:04:45Z</time>
      </trkpt>
      <trkpt lat="45.15558" lon="6.29743">
        <ele>1964.6</ele>
        <time>2021-02-28T06:04:46Z</time>
      </trkpt>
      <trkpt lat="45.15558" lon="6.29743">
        <ele>1964.8</ele>
        <time>2021-02-28T06:04:47Z</time>
      </trkpt>
      <trkpt lat="45.15557" lon="6.29742">
        <ele>1965</ele>
        <time>2021-02-28T06:04:48Z</time>
      </trkpt>
      <trkpt lat="45.15556" lon="6.29741">
        <ele>1965.6</ele>
        <time>2021-02-28T06:04:49Z</time>
      </trkpt>
      <trkpt lat="45.15555" lon="6.29739">
        <ele>1965.8</ele>
        <time>2021-02-28T06:04:50Z</time>
      </trkpt>
      <trkpt lat="45.15554" lon="6.29738">
        <ele>1966.4</ele>
        <time>2021-02-28T06:04:51Z</time>
      </trkpt>
      <trkpt lat="45.15554" lon="6.29737">
        <ele>1966.6</ele>
        <time>2021-02-28T06:04:52Z</time>
      </trkpt>
      <trkpt lat="45.15553" lon="6.29736">
        <ele>1966.6</ele>
        <time>2021-02-28T06:04:53Z</time>
      </trkpt>
      <trkpt lat="45.15551" lon="6.29734">
        <ele>1967.4</ele>
        <time>2021-02-28T06:04:54Z</time>
      </trkpt>
      <trkpt lat="45.15551" lon="6.29734">
        <ele>1967.4</ele>
        <time>2021-02-28T06:04:55Z</time>
      </trkpt>
      <trkpt lat="45.15551" lon="6.29734">
        <ele>1967.8</ele>
        <time>2021-02-28T06:04:56Z</time>
      </trkpt>
      <trkpt lat="45.15551" lon="6.29734">
        <ele>1968</ele>
        <time>2021-02-28T06:04:57Z</time>
      </trkpt>
      <trkpt lat="45.15551" lon="6.29734">
        <ele>1968</ele>
        <time>2021-02-28T06:04:58Z</time>
      </trkpt>
      <trkpt lat="45.15552" lon="6.29738">
        <ele>1968.2</ele>
        <time>2021-02-28T06:04:59Z</time>
      </trkpt>
      <trkpt lat="45.15552" lon="6.29738">
        <ele>1968.2</ele>
        <time>2021-02-28T06:05:00Z</time>
      </trkpt>
      <trkpt lat="45.15552" lon="6.29738">
        <ele>1968.4</ele>
        <time>2021-02-28T06:05:01Z</time>
      </trkpt>
      <trkpt lat="45.15552" lon="6.29741">
        <ele>1968.8</ele>
        <time>2021-02-28T06:05:02Z</time>
      </trkpt>
      <trkpt lat="45.15552" lon="6.29741">
        <ele>1969.2</ele>
        <time>2021-02-28T06:05:03Z</time>
      </trkpt>
      <trkpt lat="45.15552" lon="6.29741">
        <ele>1969.4</ele>
        <time>2021-02-28T06:05:04Z</time>
      </trkpt>
      <trkpt lat="45.15552" lon="6.29744">
        <ele>1969.8</ele>
        <time>2021-02-28T06:05:05Z</time>
      </trkpt>
      <trkpt lat="45.15552" lon="6.29744">
        <ele>1970</ele>
        <time>2021-02-28T06:05:06Z</time>
      </trkpt>
      <trkpt lat="45.15552" lon="6.29744">
        <ele>1970.2</ele>
        <time>2021-02-28T06:05:07Z</time>
      </trkpt>
      <trkpt lat="45.15552" lon="6.29747">
        <ele>1970.4</ele>
        <time>2021-02-28T06:05:08Z</time>
      </trkpt>
      <trkpt lat="45.15552" lon="6.29747">
        <ele>1970.8</ele>
        <time>2021-02-28T06:05:09Z</time>
      </trkpt>
      <trkpt lat="45.15552" lon="6.29747">
        <ele>1971</ele>
        <time>2021-02-28T06:05:10Z</time>
      </trkpt>
      <trkpt lat="45.15552" lon="6.29748">
        <ele>1971.2</ele>
        <time>2021-02-28T06:05:11Z</time>
      </trkpt>
      <trkpt lat="45.15552" lon="6.29749">
        <ele>1971.6</ele>
        <time>2021-02-28T06:05:12Z</time>
      </trkpt>
      <trkpt lat="45.15552" lon="6.2975">
        <ele>1971.8</ele>
        <time>2021-02-28T06:05:13Z</time>
      </trkpt>
      <trkpt lat="45.15552" lon="6.29752">
        <ele>1972.2</ele>
        <time>2021-02-28T06:05:14Z</time>
      </trkpt>
      <trkpt lat="45.15552" lon="6.29753">
        <ele>1972.4</ele>
        <time>2021-02-28T06:05:15Z</time>
      </trkpt>
      <trkpt lat="45.15552" lon="6.29754">
        <ele>1972.6</ele>
        <time>2021-02-28T06:05:16Z</time>
      </trkpt>
      <trkpt lat="45.15552" lon="6.29755">
        <ele>1973</ele>
        <time>2021-02-28T06:05:17Z</time>
      </trkpt>
      <trkpt lat="45.15551" lon="6.29756">
        <ele>1973</ele>
        <time>2021-02-28T06:05:18Z</time>
      </trkpt>
      <trkpt lat="45.15551" lon="6.29757">
        <ele>1973.4</ele>
        <time>2021-02-28T06:05:19Z</time>
      </trkpt>
      <trkpt lat="45.15551" lon="6.29758">
        <ele>1973.8</ele>
        <time>2021-02-28T06:05:20Z</time>
      </trkpt>
      <trkpt lat="45.15551" lon="6.29759">
        <ele>1974</ele>
        <time>2021-02-28T06:05:21Z</time>
      </trkpt>
      <trkpt lat="45.15551" lon="6.2976">
        <ele>1974.4</ele>
        <time>2021-02-28T06:05:22Z</time>
      </trkpt>
      <trkpt lat="45.1555" lon="6.29763">
        <ele>1974.6</ele>
        <time>2021-02-28T06:05:23Z</time>
      </trkpt>
      <trkpt lat="45.1555" lon="6.29763">
        <ele>1974.8</ele>
        <time>2021-02-28T06:05:24Z</time>
      </trkpt>
      <trkpt lat="45.1555" lon="6.29763">
        <ele>1975.2</ele>
        <time>2021-02-28T06:05:25Z</time>
      </trkpt>
      <trkpt lat="45.1555" lon="6.29763">
        <ele>1975.4</ele>
        <time>2021-02-28T06:05:26Z</time>
      </trkpt>
      <trkpt lat="45.1555" lon="6.29763">
        <ele>1975.4</ele>
        <time>2021-02-28T06:05:27Z</time>
      </trkpt>
      <trkpt lat="45.1555" lon="6.29768">
        <ele>1975.8</ele>
        <time>2021-02-28T06:05:28Z</time>
      </trkpt>
      <trkpt lat="45.1555" lon="6.29768">
        <ele>1976</ele>
        <time>2021-02-28T06:05:29Z</time>
      </trkpt>
      <trkpt lat="45.1555" lon="6.29768">
        <ele>1976.2</ele>
        <time>2021-02-28T06:05:30Z</time>
      </trkpt>
      <trkpt lat="45.1555" lon="6.29769">
        <ele>1976.6</ele>
        <time>2021-02-28T06:05:31Z</time>
      </trkpt>
      <trkpt lat="45.1555" lon="6.2977">
        <ele>1976.8</ele>
        <time>2021-02-28T06:05:32Z</time>
      </trkpt>
      <trkpt lat="45.15549" lon="6.29771">
        <ele>1976.8</ele>
        <time>2021-02-28T06:05:33Z</time>
      </trkpt>
      <trkpt lat="45.15549" lon="6.29772">
        <ele>1977</ele>
        <time>2021-02-28T06:05:34Z</time>
      </trkpt>
      <trkpt lat="45.15549" lon="6.29774">
        <ele>1977.2</ele>
        <time>2021-02-28T06:05:35Z</time>
      </trkpt>
      <trkpt lat="45.15549" lon="6.29775">
        <ele>1977.4</ele>
        <time>2021-02-28T06:05:36Z</time>
      </trkpt>
      <trkpt lat="45.15549" lon="6.29776">
        <ele>1977.6</ele>
        <time>2021-02-28T06:05:37Z</time>
      </trkpt>
      <trkpt lat="45.15549" lon="6.29777">
        <ele>1978</ele>
        <time>2021-02-28T06:05:38Z</time>
      </trkpt>
      <trkpt lat="45.15549" lon="6.29778">
        <ele>1977.8</ele>
        <time>2021-02-28T06:05:39Z</time>
      </trkpt>
      <trkpt lat="45.15549" lon="6.29779">
        <ele>1978</ele>
        <time>2021-02-28T06:05:40Z</time>
      </trkpt>
      <trkpt lat="45.15548" lon="6.2978">
        <ele>1978.4</ele>
        <time>2021-02-28T06:05:41Z</time>
      </trkpt>
      <trkpt lat="45.15548" lon="6.29781">
        <ele>1978.4</ele>
        <time>2021-02-28T06:05:42Z</time>
      </trkpt>
      <trkpt lat="45.15548" lon="6.29782">
        <ele>1978.6</ele>
        <time>2021-02-28T06:05:43Z</time>
      </trkpt>
      <trkpt lat="45.15549" lon="6.29783">
        <ele>1979</ele>
        <time>2021-02-28T06:05:44Z</time>
      </trkpt>
      <trkpt lat="45.15549" lon="6.29784">
        <ele>1979</ele>
        <time>2021-02-28T06:05:45Z</time>
      </trkpt>
      <trkpt lat="45.15549" lon="6.29785">
        <ele>1979.2</ele>
        <time>2021-02-28T06:05:46Z</time>
      </trkpt>
      <trkpt lat="45.15549" lon="6.29786">
        <ele>1979.6</ele>
        <time>2021-02-28T06:05:47Z</time>
      </trkpt>
      <trkpt lat="45.15549" lon="6.29787">
        <ele>1979.8</ele>
        <time>2021-02-28T06:05:48Z</time>
      </trkpt>
      <trkpt lat="45.15549" lon="6.29788">
        <ele>1980.2</ele>
        <time>2021-02-28T06:05:49Z</time>
      </trkpt>
      <trkpt lat="45.15549" lon="6.29789">
        <ele>1980.2</ele>
        <time>2021-02-28T06:05:50Z</time>
      </trkpt>
      <trkpt lat="45.15549" lon="6.2979">
        <ele>1980.4</ele>
        <time>2021-02-28T06:05:51Z</time>
      </trkpt>
      <trkpt lat="45.15549" lon="6.29791">
        <ele>1980.8</ele>
        <time>2021-02-28T06:05:52Z</time>
      </trkpt>
      <trkpt lat="45.15549" lon="6.29792">
        <ele>1981</ele>
        <time>2021-02-28T06:05:53Z</time>
      </trkpt>
      <trkpt lat="45.15549" lon="6.29793">
        <ele>1981</ele>
        <time>2021-02-28T06:05:54Z</time>
      </trkpt>
      <trkpt lat="45.15549" lon="6.29794">
        <ele>1981</ele>
        <time>2021-02-28T06:05:55Z</time>
      </trkpt>
      <trkpt lat="45.15549" lon="6.29795">
        <ele>1981.2</ele>
        <time>2021-02-28T06:05:56Z</time>
      </trkpt>
      <trkpt lat="45.15549" lon="6.29797">
        <ele>1981.4</ele>
        <time>2021-02-28T06:05:57Z</time>
      </trkpt>
      <trkpt lat="45.15549" lon="6.29798">
        <ele>1981.4</ele>
        <time>2021-02-28T06:05:58Z</time>
      </trkpt>
      <trkpt lat="45.15549" lon="6.298">
        <ele>1981.8</ele>
        <time>2021-02-28T06:05:59Z</time>
      </trkpt>
      <trkpt lat="45.15549" lon="6.29801">
        <ele>1982</ele>
        <time>2021-02-28T06:06:00Z</time>
      </trkpt>
      <trkpt lat="45.1555" lon="6.29802">
        <ele>1982</ele>
        <time>2021-02-28T06:06:01Z</time>
      </trkpt>
      <trkpt lat="45.1555" lon="6.29803">
        <ele>1982.2</ele>
        <time>2021-02-28T06:06:02Z</time>
      </trkpt>
      <trkpt lat="45.1555" lon="6.29803">
        <ele>1982.4</ele>
        <time>2021-02-28T06:06:03Z</time>
      </trkpt>
      <trkpt lat="45.1555" lon="6.29804">
        <ele>1982.8</ele>
        <time>2021-02-28T06:06:04Z</time>
      </trkpt>
      <trkpt lat="45.1555" lon="6.29805">
        <ele>1983</ele>
        <time>2021-02-28T06:06:05Z</time>
      </trkpt>
      <trkpt lat="45.1555" lon="6.29806">
        <ele>1983.2</ele>
        <time>2021-02-28T06:06:06Z</time>
      </trkpt>
      <trkpt lat="45.1555" lon="6.29807">
        <ele>1983.6</ele>
        <time>2021-02-28T06:06:07Z</time>
      </trkpt>
      <trkpt lat="45.15551" lon="6.29808">
        <ele>1983.8</ele>
        <time>2021-02-28T06:06:08Z</time>
      </trkpt>
      <trkpt lat="45.15551" lon="6.29809">
        <ele>1984</ele>
        <time>2021-02-28T06:06:09Z</time>
      </trkpt>
      <trkpt lat="45.15551" lon="6.29809">
        <ele>1984.6</ele>
        <time>2021-02-28T06:06:10Z</time>
      </trkpt>
      <trkpt lat="45.15551" lon="6.2981">
        <ele>1984.6</ele>
        <time>2021-02-28T06:06:11Z</time>
      </trkpt>
      <trkpt lat="45.15551" lon="6.29811">
        <ele>1984.8</ele>
        <time>2021-02-28T06:06:12Z</time>
      </trkpt>
      <trkpt lat="45.15551" lon="6.29812">
        <ele>1985.2</ele>
        <time>2021-02-28T06:06:13Z</time>
      </trkpt>
      <trkpt lat="45.15551" lon="6.29813">
        <ele>1985.4</ele>
        <time>2021-02-28T06:06:14Z</time>
      </trkpt>
      <trkpt lat="45.15551" lon="6.29814">
        <ele>1985.4</ele>
        <time>2021-02-28T06:06:15Z</time>
      </trkpt>
      <trkpt lat="45.15552" lon="6.29815">
        <ele>1985.4</ele>
        <time>2021-02-28T06:06:16Z</time>
      </trkpt>
      <trkpt lat="45.15553" lon="6.29817">
        <ele>1985.4</ele>
        <time>2021-02-28T06:06:17Z</time>
      </trkpt>
      <trkpt lat="45.15553" lon="6.29818">
        <ele>1985.8</ele>
        <time>2021-02-28T06:06:18Z</time>
      </trkpt>
      <trkpt lat="45.15554" lon="6.29819">
        <ele>1986.2</ele>
        <time>2021-02-28T06:06:19Z</time>
      </trkpt>
      <trkpt lat="45.15554" lon="6.29821">
        <ele>1986.4</ele>
        <time>2021-02-28T06:06:20Z</time>
      </trkpt>
      <trkpt lat="45.15555" lon="6.29822">
        <ele>1986.6</ele>
        <time>2021-02-28T06:06:21Z</time>
      </trkpt>
      <trkpt lat="45.15555" lon="6.29824">
        <ele>1986.6</ele>
        <time>2021-02-28T06:06:22Z</time>
      </trkpt>
      <trkpt lat="45.15556" lon="6.29825">
        <ele>1987.2</ele>
        <time>2021-02-28T06:06:23Z</time>
      </trkpt>
      <trkpt lat="45.15556" lon="6.29826">
        <ele>1987.6</ele>
        <time>2021-02-28T06:06:24Z</time>
      </trkpt>
      <trkpt lat="45.15556" lon="6.29827">
        <ele>1987.8</ele>
        <time>2021-02-28T06:06:25Z</time>
      </trkpt>
      <trkpt lat="45.15556" lon="6.29828">
        <ele>1987.8</ele>
        <time>2021-02-28T06:06:26Z</time>
      </trkpt>
      <trkpt lat="45.15556" lon="6.29829">
        <ele>1988.2</ele>
        <time>2021-02-28T06:06:27Z</time>
      </trkpt>
      <trkpt lat="45.15556" lon="6.2983">
        <ele>1988.4</ele>
        <time>2021-02-28T06:06:28Z</time>
      </trkpt>
      <trkpt lat="45.15556" lon="6.29831">
        <ele>1988.8</ele>
        <time>2021-02-28T06:06:29Z</time>
      </trkpt>
      <trkpt lat="45.15556" lon="6.29832">
        <ele>1989</ele>
        <time>2021-02-28T06:06:30Z</time>
      </trkpt>
      <trkpt lat="45.15556" lon="6.29833">
        <ele>1989</ele>
        <time>2021-02-28T06:06:31Z</time>
      </trkpt>
      <trkpt lat="45.15556" lon="6.29834">
        <ele>1989.4</ele>
        <time>2021-02-28T06:06:32Z</time>
      </trkpt>
      <trkpt lat="45.15556" lon="6.29835">
        <ele>1989.4</ele>
        <time>2021-02-28T06:06:33Z</time>
      </trkpt>
      <trkpt lat="45.15556" lon="6.29836">
        <ele>1989.8</ele>
        <time>2021-02-28T06:06:34Z</time>
      </trkpt>
      <trkpt lat="45.15556" lon="6.29837">
        <ele>1990</ele>
        <time>2021-02-28T06:06:35Z</time>
      </trkpt>
      <trkpt lat="45.15556" lon="6.29838">
        <ele>1990</ele>
        <time>2021-02-28T06:06:36Z</time>
      </trkpt>
      <trkpt lat="45.15556" lon="6.29839">
        <ele>1990.4</ele>
        <time>2021-02-28T06:06:37Z</time>
      </trkpt>
      <trkpt lat="45.15556" lon="6.29841">
        <ele>1990.6</ele>
        <time>2021-02-28T06:06:38Z</time>
      </trkpt>
      <trkpt lat="45.15556" lon="6.29842">
        <ele>1990.8</ele>
        <time>2021-02-28T06:06:39Z</time>
      </trkpt>
      <trkpt lat="45.15555" lon="6.29844">
        <ele>1991.2</ele>
        <time>2021-02-28T06:06:40Z</time>
      </trkpt>
      <trkpt lat="45.15555" lon="6.29845">
        <ele>1991.6</ele>
        <time>2021-02-28T06:06:41Z</time>
      </trkpt>
      <trkpt lat="45.15555" lon="6.29846">
        <ele>1991.6</ele>
        <time>2021-02-28T06:06:42Z</time>
      </trkpt>
      <trkpt lat="45.15555" lon="6.29848">
        <ele>1992</ele>
        <time>2021-02-28T06:06:43Z</time>
      </trkpt>
      <trkpt lat="45.15555" lon="6.29849">
        <ele>1992.2</ele>
        <time>2021-02-28T06:06:44Z</time>
      </trkpt>
      <trkpt lat="45.15555" lon="6.2985">
        <ele>1992.4</ele>
        <time>2021-02-28T06:06:45Z</time>
      </trkpt>
      <trkpt lat="45.15555" lon="6.29852">
        <ele>1992.8</ele>
        <time>2021-02-28T06:06:46Z</time>
      </trkpt>
      <trkpt lat="45.15555" lon="6.29853">
        <ele>1993</ele>
        <time>2021-02-28T06:06:47Z</time>
      </trkpt>
      <trkpt lat="45.15555" lon="6.29854">
        <ele>1993.6</ele>
        <time>2021-02-28T06:06:48Z</time>
      </trkpt>
      <trkpt lat="45.15554" lon="6.29855">
        <ele>1993.6</ele>
        <time>2021-02-28T06:06:49Z</time>
      </trkpt>
      <trkpt lat="45.15554" lon="6.29856">
        <ele>1994.2</ele>
        <time>2021-02-28T06:06:50Z</time>
      </trkpt>
      <trkpt lat="45.15554" lon="6.29857">
        <ele>1994.2</ele>
        <time>2021-02-28T06:06:51Z</time>
      </trkpt>
      <trkpt lat="45.15554" lon="6.29858">
        <ele>1994.6</ele>
        <time>2021-02-28T06:06:52Z</time>
      </trkpt>
      <trkpt lat="45.15554" lon="6.29859">
        <ele>1995</ele>
        <time>2021-02-28T06:06:53Z</time>
      </trkpt>
      <trkpt lat="45.15554" lon="6.2986">
        <ele>1995.2</ele>
        <time>2021-02-28T06:06:54Z</time>
      </trkpt>
      <trkpt lat="45.15553" lon="6.29861">
        <ele>1995.6</ele>
        <time>2021-02-28T06:06:55Z</time>
      </trkpt>
      <trkpt lat="45.15553" lon="6.29862">
        <ele>1995.8</ele>
        <time>2021-02-28T06:06:56Z</time>
      </trkpt>
      <trkpt lat="45.15553" lon="6.29863">
        <ele>1996.2</ele>
        <time>2021-02-28T06:06:57Z</time>
      </trkpt>
      <trkpt lat="45.15553" lon="6.29864">
        <ele>1996.4</ele>
        <time>2021-02-28T06:06:58Z</time>
      </trkpt>
      <trkpt lat="45.15553" lon="6.29865">
        <ele>1996.8</ele>
        <time>2021-02-28T06:06:59Z</time>
      </trkpt>
      <trkpt lat="45.15552" lon="6.29865">
        <ele>1997.2</ele>
        <time>2021-02-28T06:07:00Z</time>
      </trkpt>
      <trkpt lat="45.15552" lon="6.29866">
        <ele>1997.4</ele>
        <time>2021-02-28T06:07:01Z</time>
      </trkpt>
      <trkpt lat="45.15551" lon="6.29866">
        <ele>1997.4</ele>
        <time>2021-02-28T06:07:02Z</time>
      </trkpt>
      <trkpt lat="45.1555" lon="6.29867">
        <ele>1997.6</ele>
        <time>2021-02-28T06:07:03Z</time>
      </trkpt>
      <trkpt lat="45.1555" lon="6.29867">
        <ele>1997.8</ele>
        <time>2021-02-28T06:07:04Z</time>
      </trkpt>
      <trkpt lat="45.15549" lon="6.29867">
        <ele>1998.2</ele>
        <time>2021-02-28T06:07:05Z</time>
      </trkpt>
      <trkpt lat="45.15549" lon="6.29868">
        <ele>1998.6</ele>
        <time>2021-02-28T06:07:06Z</time>
      </trkpt>
      <trkpt lat="45.15548" lon="6.29868">
        <ele>1998.8</ele>
        <time>2021-02-28T06:07:07Z</time>
      </trkpt>
      <trkpt lat="45.15548" lon="6.29868">
        <ele>1999.4</ele>
        <time>2021-02-28T06:07:08Z</time>
      </trkpt>
      <trkpt lat="45.15547" lon="6.29869">
        <ele>1999.6</ele>
        <time>2021-02-28T06:07:09Z</time>
      </trkpt>
      <trkpt lat="45.15547" lon="6.29869">
        <ele>1999.8</ele>
        <time>2021-02-28T06:07:10Z</time>
      </trkpt>
      <trkpt lat="45.15546" lon="6.2987">
        <ele>2000.4</ele>
        <time>2021-02-28T06:07:11Z</time>
      </trkpt>
      <trkpt lat="45.15546" lon="6.2987">
        <ele>2000.6</ele>
        <time>2021-02-28T06:07:12Z</time>
      </trkpt>
      <trkpt lat="45.15545" lon="6.2987">
        <ele>2000.8</ele>
        <time>2021-02-28T06:07:13Z</time>
      </trkpt>
      <trkpt lat="45.15544" lon="6.29871">
        <ele>2001.2</ele>
        <time>2021-02-28T06:07:14Z</time>
      </trkpt>
      <trkpt lat="45.15544" lon="6.29871">
        <ele>2001.6</ele>
        <time>2021-02-28T06:07:15Z</time>
      </trkpt>
      <trkpt lat="45.15544" lon="6.29872">
        <ele>2001.8</ele>
        <time>2021-02-28T06:07:16Z</time>
      </trkpt>
      <trkpt lat="45.15543" lon="6.29873">
        <ele>2002.2</ele>
        <time>2021-02-28T06:07:17Z</time>
      </trkpt>
      <trkpt lat="45.15543" lon="6.29874">
        <ele>2002.4</ele>
        <time>2021-02-28T06:07:18Z</time>
      </trkpt>
      <trkpt lat="45.15543" lon="6.29875">
        <ele>2002.6</ele>
        <time>2021-02-28T06:07:19Z</time>
      </trkpt>
      <trkpt lat="45.15542" lon="6.29876">
        <ele>2002.6</ele>
        <time>2021-02-28T06:07:20Z</time>
      </trkpt>
      <trkpt lat="45.15542" lon="6.29877">
        <ele>2003</ele>
        <time>2021-02-28T06:07:21Z</time>
      </trkpt>
      <trkpt lat="45.15541" lon="6.29878">
        <ele>2003.2</ele>
        <time>2021-02-28T06:07:22Z</time>
      </trkpt>
      <trkpt lat="45.15541" lon="6.29879">
        <ele>2003.6</ele>
        <time>2021-02-28T06:07:23Z</time>
      </trkpt>
      <trkpt lat="45.15541" lon="6.2988">
        <ele>2004</ele>
        <time>2021-02-28T06:07:24Z</time>
      </trkpt>
      <trkpt lat="45.1554" lon="6.29881">
        <ele>2004.4</ele>
        <time>2021-02-28T06:07:25Z</time>
      </trkpt>
      <trkpt lat="45.1554" lon="6.29881">
        <ele>2005</ele>
        <time>2021-02-28T06:07:26Z</time>
      </trkpt>
      <trkpt lat="45.1554" lon="6.29882">
        <ele>2005.2</ele>
        <time>2021-02-28T06:07:27Z</time>
      </trkpt>
      <trkpt lat="45.15539" lon="6.29883">
        <ele>2005.4</ele>
        <time>2021-02-28T06:07:28Z</time>
      </trkpt>
      <trkpt lat="45.15539" lon="6.29884">
        <ele>2005.6</ele>
        <time>2021-02-28T06:07:29Z</time>
      </trkpt>
      <trkpt lat="45.15539" lon="6.29885">
        <ele>2006</ele>
        <time>2021-02-28T06:07:30Z</time>
      </trkpt>
      <trkpt lat="45.15539" lon="6.29886">
        <ele>2006.4</ele>
        <time>2021-02-28T06:07:31Z</time>
      </trkpt>
      <trkpt lat="45.15538" lon="6.29887">
        <ele>2006.8</ele>
        <time>2021-02-28T06:07:32Z</time>
      </trkpt>
      <trkpt lat="45.15538" lon="6.29888">
        <ele>2006.6</ele>
        <time>2021-02-28T06:07:33Z</time>
      </trkpt>
      <trkpt lat="45.15538" lon="6.29889">
        <ele>2006.8</ele>
        <time>2021-02-28T06:07:34Z</time>
      </trkpt>
      <trkpt lat="45.15538" lon="6.2989">
        <ele>2007</ele>
        <time>2021-02-28T06:07:35Z</time>
      </trkpt>
      <trkpt lat="45.15537" lon="6.29891">
        <ele>2007.4</ele>
        <time>2021-02-28T06:07:36Z</time>
      </trkpt>
      <trkpt lat="45.15537" lon="6.29892">
        <ele>2007.6</ele>
        <time>2021-02-28T06:07:37Z</time>
      </trkpt>
      <trkpt lat="45.15537" lon="6.29893">
        <ele>2007.8</ele>
        <time>2021-02-28T06:07:38Z</time>
      </trkpt>
      <trkpt lat="45.15536" lon="6.29894">
        <ele>2008.2</ele>
        <time>2021-02-28T06:07:39Z</time>
      </trkpt>
      <trkpt lat="45.15536" lon="6.29895">
        <ele>2008.6</ele>
        <time>2021-02-28T06:07:40Z</time>
      </trkpt>
      <trkpt lat="45.15536" lon="6.29896">
        <ele>2009</ele>
        <time>2021-02-28T06:07:41Z</time>
      </trkpt>
      <trkpt lat="45.15535" lon="6.299">
        <ele>2009.2</ele>
        <time>2021-02-28T06:07:42Z</time>
      </trkpt>
      <trkpt lat="45.15535" lon="6.299">
        <ele>2009.6</ele>
        <time>2021-02-28T06:07:43Z</time>
      </trkpt>
      <trkpt lat="45.15535" lon="6.29902">
        <ele>2009.8</ele>
        <time>2021-02-28T06:07:44Z</time>
      </trkpt>
      <trkpt lat="45.15535" lon="6.29902">
        <ele>2010.2</ele>
        <time>2021-02-28T06:07:45Z</time>
      </trkpt>
      <trkpt lat="45.15535" lon="6.29902">
        <ele>2010.4</ele>
        <time>2021-02-28T06:07:46Z</time>
      </trkpt>
      <trkpt lat="45.15535" lon="6.29902">
        <ele>2010.8</ele>
        <time>2021-02-28T06:07:47Z</time>
      </trkpt>
      <trkpt lat="45.15535" lon="6.29906">
        <ele>2011</ele>
        <time>2021-02-28T06:07:48Z</time>
      </trkpt>
      <trkpt lat="45.15535" lon="6.29906">
        <ele>2011.4</ele>
        <time>2021-02-28T06:07:49Z</time>
      </trkpt>
      <trkpt lat="45.15535" lon="6.29906">
        <ele>2012</ele>
        <time>2021-02-28T06:07:50Z</time>
      </trkpt>
      <trkpt lat="45.15535" lon="6.29908">
        <ele>2012.2</ele>
        <time>2021-02-28T06:07:51Z</time>
      </trkpt>
      <trkpt lat="45.15535" lon="6.29909">
        <ele>2012.4</ele>
        <time>2021-02-28T06:07:52Z</time>
      </trkpt>
      <trkpt lat="45.15535" lon="6.2991">
        <ele>2012.8</ele>
        <time>2021-02-28T06:07:53Z</time>
      </trkpt>
      <trkpt lat="45.15534" lon="6.29912">
        <ele>2013</ele>
        <time>2021-02-28T06:07:54Z</time>
      </trkpt>
      <trkpt lat="45.15534" lon="6.29913">
        <ele>2013.2</ele>
        <time>2021-02-28T06:07:55Z</time>
      </trkpt>
      <trkpt lat="45.15535" lon="6.29914">
        <ele>2013.6</ele>
        <time>2021-02-28T06:07:56Z</time>
      </trkpt>
      <trkpt lat="45.15535" lon="6.29916">
        <ele>2013.8</ele>
        <time>2021-02-28T06:07:57Z</time>
      </trkpt>
      <trkpt lat="45.15535" lon="6.29917">
        <ele>2014</ele>
        <time>2021-02-28T06:07:58Z</time>
      </trkpt>
      <trkpt lat="45.15535" lon="6.29919">
        <ele>2014.2</ele>
        <time>2021-02-28T06:07:59Z</time>
      </trkpt>
      <trkpt lat="45.15535" lon="6.2992">
        <ele>2014.4</ele>
        <time>2021-02-28T06:08:00Z</time>
      </trkpt>
      <trkpt lat="45.15535" lon="6.29922">
        <ele>2014.6</ele>
        <time>2021-02-28T06:08:01Z</time>
      </trkpt>
      <trkpt lat="45.15535" lon="6.29923">
        <ele>2015</ele>
        <time>2021-02-28T06:08:02Z</time>
      </trkpt>
      <trkpt lat="45.15535" lon="6.29924">
        <ele>2015.2</ele>
        <time>2021-02-28T06:08:03Z</time>
      </trkpt>
      <trkpt lat="45.15535" lon="6.29926">
        <ele>2015.6</ele>
        <time>2021-02-28T06:08:04Z</time>
      </trkpt>
      <trkpt lat="45.15536" lon="6.29927">
        <ele>2015.8</ele>
        <time>2021-02-28T06:08:05Z</time>
      </trkpt>
      <trkpt lat="45.15536" lon="6.29928">
        <ele>2016</ele>
        <time>2021-02-28T06:08:06Z</time>
      </trkpt>
      <trkpt lat="45.15536" lon="6.2993">
        <ele>2016.4</ele>
        <time>2021-02-28T06:08:07Z</time>
      </trkpt>
      <trkpt lat="45.15536" lon="6.29931">
        <ele>2016.6</ele>
        <time>2021-02-28T06:08:08Z</time>
      </trkpt>
      <trkpt lat="45.15536" lon="6.29932">
        <ele>2016.8</ele>
        <time>2021-02-28T06:08:09Z</time>
      </trkpt>
      <trkpt lat="45.15537" lon="6.29934">
        <ele>2017.2</ele>
        <time>2021-02-28T06:08:10Z</time>
      </trkpt>
      <trkpt lat="45.15537" lon="6.29935">
        <ele>2017.4</ele>
        <time>2021-02-28T06:08:11Z</time>
      </trkpt>
      <trkpt lat="45.15537" lon="6.29936">
        <ele>2017.8</ele>
        <time>2021-02-28T06:08:12Z</time>
      </trkpt>
      <trkpt lat="45.15537" lon="6.29938">
        <ele>2018.2</ele>
        <time>2021-02-28T06:08:13Z</time>
      </trkpt>
      <trkpt lat="45.15537" lon="6.29942">
        <ele>2018.4</ele>
        <time>2021-02-28T06:08:14Z</time>
      </trkpt>
      <trkpt lat="45.15537" lon="6.29942">
        <ele>2018.6</ele>
        <time>2021-02-28T06:08:15Z</time>
      </trkpt>
      <trkpt lat="45.15537" lon="6.29942">
        <ele>2018.8</ele>
        <time>2021-02-28T06:08:16Z</time>
      </trkpt>
      <trkpt lat="45.15537" lon="6.29945">
        <ele>2018.8</ele>
        <time>2021-02-28T06:08:17Z</time>
      </trkpt>
      <trkpt lat="45.15537" lon="6.29945">
        <ele>2019.2</ele>
        <time>2021-02-28T06:08:18Z</time>
      </trkpt>
      <trkpt lat="45.15537" lon="6.29945">
        <ele>2019.4</ele>
        <time>2021-02-28T06:08:19Z</time>
      </trkpt>
      <trkpt lat="45.15535" lon="6.29948">
        <ele>2019.6</ele>
        <time>2021-02-28T06:08:20Z</time>
      </trkpt>
      <trkpt lat="45.15535" lon="6.29948">
        <ele>2019.8</ele>
        <time>2021-02-28T06:08:21Z</time>
      </trkpt>
      <trkpt lat="45.15535" lon="6.29948">
        <ele>2020.2</ele>
        <time>2021-02-28T06:08:22Z</time>
      </trkpt>
      <trkpt lat="45.15535" lon="6.29949">
        <ele>2020.4</ele>
        <time>2021-02-28T06:08:23Z</time>
      </trkpt>
      <trkpt lat="45.15535" lon="6.29951">
        <ele>2020.4</ele>
        <time>2021-02-28T06:08:24Z</time>
      </trkpt>
      <trkpt lat="45.15535" lon="6.29952">
        <ele>2020.8</ele>
        <time>2021-02-28T06:08:25Z</time>
      </trkpt>
      <trkpt lat="45.15535" lon="6.29953">
        <ele>2021.4</ele>
        <time>2021-02-28T06:08:26Z</time>
      </trkpt>
      <trkpt lat="45.15535" lon="6.29955">
        <ele>2021.4</ele>
        <time>2021-02-28T06:08:27Z</time>
      </trkpt>
      <trkpt lat="45.15535" lon="6.29956">
        <ele>2021.4</ele>
        <time>2021-02-28T06:08:28Z</time>
      </trkpt>
      <trkpt lat="45.15535" lon="6.29958">
        <ele>2022</ele>
        <time>2021-02-28T06:08:29Z</time>
      </trkpt>
      <trkpt lat="45.15534" lon="6.29959">
        <ele>2022.2</ele>
        <time>2021-02-28T06:08:30Z</time>
      </trkpt>
      <trkpt lat="45.15534" lon="6.2996">
        <ele>2022.4</ele>
        <time>2021-02-28T06:08:31Z</time>
      </trkpt>
      <trkpt lat="45.15534" lon="6.29962">
        <ele>2022.6</ele>
        <time>2021-02-28T06:08:32Z</time>
      </trkpt>
      <trkpt lat="45.15534" lon="6.29963">
        <ele>2023</ele>
        <time>2021-02-28T06:08:33Z</time>
      </trkpt>
      <trkpt lat="45.15533" lon="6.29965">
        <ele>2023.2</ele>
        <time>2021-02-28T06:08:34Z</time>
      </trkpt>
      <trkpt lat="45.15532" lon="6.29967">
        <ele>2023.2</ele>
        <time>2021-02-28T06:08:35Z</time>
      </trkpt>
      <trkpt lat="45.15532" lon="6.29969">
        <ele>2023.6</ele>
        <time>2021-02-28T06:08:36Z</time>
      </trkpt>
      <trkpt lat="45.15531" lon="6.2997">
        <ele>2023.6</ele>
        <time>2021-02-28T06:08:37Z</time>
      </trkpt>
      <trkpt lat="45.15531" lon="6.2997">
        <ele>2024</ele>
        <time>2021-02-28T06:08:38Z</time>
      </trkpt>
      <trkpt lat="45.15531" lon="6.29973">
        <ele>2024.4</ele>
        <time>2021-02-28T06:08:39Z</time>
      </trkpt>
      <trkpt lat="45.15531" lon="6.29973">
        <ele>2024.4</ele>
        <time>2021-02-28T06:08:40Z</time>
      </trkpt>
      <trkpt lat="45.1553" lon="6.29976">
        <ele>2024.8</ele>
        <time>2021-02-28T06:08:41Z</time>
      </trkpt>
      <trkpt lat="45.1553" lon="6.29976">
        <ele>2025.2</ele>
        <time>2021-02-28T06:08:42Z</time>
      </trkpt>
      <trkpt lat="45.15529" lon="6.29979">
        <ele>2025.6</ele>
        <time>2021-02-28T06:08:43Z</time>
      </trkpt>
      <trkpt lat="45.15529" lon="6.29979">
        <ele>2025.8</ele>
        <time>2021-02-28T06:08:44Z</time>
      </trkpt>
      <trkpt lat="45.15529" lon="6.29982">
        <ele>2026.2</ele>
        <time>2021-02-28T06:08:45Z</time>
      </trkpt>
      <trkpt lat="45.15529" lon="6.29982">
        <ele>2026.4</ele>
        <time>2021-02-28T06:08:46Z</time>
      </trkpt>
      <trkpt lat="45.15529" lon="6.29985">
        <ele>2026.6</ele>
        <time>2021-02-28T06:08:47Z</time>
      </trkpt>
      <trkpt lat="45.15529" lon="6.29985">
        <ele>2026.8</ele>
        <time>2021-02-28T06:08:48Z</time>
      </trkpt>
      <trkpt lat="45.15529" lon="6.29985">
        <ele>2027</ele>
        <time>2021-02-28T06:08:49Z</time>
      </trkpt>
      <trkpt lat="45.15529" lon="6.29988">
        <ele>2027.4</ele>
        <time>2021-02-28T06:08:50Z</time>
      </trkpt>
      <trkpt lat="45.15529" lon="6.29988">
        <ele>2027.6</ele>
        <time>2021-02-28T06:08:51Z</time>
      </trkpt>
      <trkpt lat="45.15529" lon="6.29988">
        <ele>2028</ele>
        <time>2021-02-28T06:08:52Z</time>
      </trkpt>
      <trkpt lat="45.15529" lon="6.29988">
        <ele>2028.6</ele>
        <time>2021-02-28T06:08:53Z</time>
      </trkpt>
      <trkpt lat="45.15527" lon="6.29993">
        <ele>2028.8</ele>
        <time>2021-02-28T06:08:54Z</time>
      </trkpt>
      <trkpt lat="45.15527" lon="6.29993">
        <ele>2028.6</ele>
        <time>2021-02-28T06:08:55Z</time>
      </trkpt>
      <trkpt lat="45.15526" lon="6.29996">
        <ele>2029</ele>
        <time>2021-02-28T06:08:56Z</time>
      </trkpt>
      <trkpt lat="45.15526" lon="6.29996">
        <ele>2029.4</ele>
        <time>2021-02-28T06:08:57Z</time>
      </trkpt>
      <trkpt lat="45.15525" lon="6.29998">
        <ele>2029.8</ele>
        <time>2021-02-28T06:08:58Z</time>
      </trkpt>
      <trkpt lat="45.15525" lon="6.29998">
        <ele>2029.8</ele>
        <time>2021-02-28T06:08:59Z</time>
      </trkpt>
      <trkpt lat="45.15525" lon="6.29998">
        <ele>2030.4</ele>
        <time>2021-02-28T06:09:00Z</time>
      </trkpt>
      <trkpt lat="45.15524" lon="6.29999">
        <ele>2030.8</ele>
        <time>2021-02-28T06:09:01Z</time>
      </trkpt>
      <trkpt lat="45.15524" lon="6.3">
        <ele>2031.2</ele>
        <time>2021-02-28T06:09:02Z</time>
      </trkpt>
      <trkpt lat="45.15523" lon="6.30002">
        <ele>2031.6</ele>
        <time>2021-02-28T06:09:03Z</time>
      </trkpt>
      <trkpt lat="45.15523" lon="6.30003">
        <ele>2032.2</ele>
        <time>2021-02-28T06:09:04Z</time>
      </trkpt>
      <trkpt lat="45.15522" lon="6.30004">
        <ele>2032.4</ele>
        <time>2021-02-28T06:09:05Z</time>
      </trkpt>
      <trkpt lat="45.15522" lon="6.30005">
        <ele>2032.6</ele>
        <time>2021-02-28T06:09:06Z</time>
      </trkpt>
      <trkpt lat="45.15521" lon="6.30007">
        <ele>2032.8</ele>
        <time>2021-02-28T06:09:07Z</time>
      </trkpt>
      <trkpt lat="45.1552" lon="6.30008">
        <ele>2033.2</ele>
        <time>2021-02-28T06:09:08Z</time>
      </trkpt>
      <trkpt lat="45.1552" lon="6.30009">
        <ele>2033.6</ele>
        <time>2021-02-28T06:09:09Z</time>
      </trkpt>
      <trkpt lat="45.15519" lon="6.3001">
        <ele>2033.8</ele>
        <time>2021-02-28T06:09:10Z</time>
      </trkpt>
      <trkpt lat="45.15519" lon="6.30012">
        <ele>2034.2</ele>
        <time>2021-02-28T06:09:11Z</time>
      </trkpt>
      <trkpt lat="45.15519" lon="6.30012">
        <ele>2034.4</ele>
        <time>2021-02-28T06:09:12Z</time>
      </trkpt>
      <trkpt lat="45.15519" lon="6.30012">
        <ele>2034.8</ele>
        <time>2021-02-28T06:09:13Z</time>
      </trkpt>
      <trkpt lat="45.15518" lon="6.30013">
        <ele>2034.8</ele>
        <time>2021-02-28T06:09:14Z</time>
      </trkpt>
      <trkpt lat="45.15518" lon="6.30015">
        <ele>2035.2</ele>
        <time>2021-02-28T06:09:15Z</time>
      </trkpt>
      <trkpt lat="45.15517" lon="6.30017">
        <ele>2035.6</ele>
        <time>2021-02-28T06:09:16Z</time>
      </trkpt>
      <trkpt lat="45.15517" lon="6.30019">
        <ele>2035.8</ele>
        <time>2021-02-28T06:09:17Z</time>
      </trkpt>
      <trkpt lat="45.15516" lon="6.3002">
        <ele>2036</ele>
        <time>2021-02-28T06:09:18Z</time>
      </trkpt>
      <trkpt lat="45.15516" lon="6.30022">
        <ele>2036</ele>
        <time>2021-02-28T06:09:19Z</time>
      </trkpt>
      <trkpt lat="45.15515" lon="6.30024">
        <ele>2036</ele>
        <time>2021-02-28T06:09:20Z</time>
      </trkpt>
      <trkpt lat="45.15515" lon="6.30025">
        <ele>2036.4</ele>
        <time>2021-02-28T06:09:21Z</time>
      </trkpt>
      <trkpt lat="45.15514" lon="6.30027">
        <ele>2036.6</ele>
        <time>2021-02-28T06:09:22Z</time>
      </trkpt>
      <trkpt lat="45.15513" lon="6.30028">
        <ele>2036.8</ele>
        <time>2021-02-28T06:09:23Z</time>
      </trkpt>
      <trkpt lat="45.15513" lon="6.30029">
        <ele>2037</ele>
        <time>2021-02-28T06:09:24Z</time>
      </trkpt>
      <trkpt lat="45.15512" lon="6.3003">
        <ele>2037</ele>
        <time>2021-02-28T06:09:25Z</time>
      </trkpt>
      <trkpt lat="45.15511" lon="6.30031">
        <ele>2037.4</ele>
        <time>2021-02-28T06:09:26Z</time>
      </trkpt>
      <trkpt lat="45.1551" lon="6.30031">
        <ele>2037.8</ele>
        <time>2021-02-28T06:09:27Z</time>
      </trkpt>
      <trkpt lat="45.15509" lon="6.30032">
        <ele>2038</ele>
        <time>2021-02-28T06:09:28Z</time>
      </trkpt>
      <trkpt lat="45.15508" lon="6.30033">
        <ele>2038.4</ele>
        <time>2021-02-28T06:09:29Z</time>
      </trkpt>
      <trkpt lat="45.15508" lon="6.30033">
        <ele>2038.6</ele>
        <time>2021-02-28T06:09:30Z</time>
      </trkpt>
      <trkpt lat="45.15507" lon="6.30034">
        <ele>2039</ele>
        <time>2021-02-28T06:09:31Z</time>
      </trkpt>
      <trkpt lat="45.15506" lon="6.30035">
        <ele>2039.2</ele>
        <time>2021-02-28T06:09:32Z</time>
      </trkpt>
      <trkpt lat="45.15505" lon="6.30036">
        <ele>2039.4</ele>
        <time>2021-02-28T06:09:33Z</time>
      </trkpt>
      <trkpt lat="45.15504" lon="6.30036">
        <ele>2039.6</ele>
        <time>2021-02-28T06:09:34Z</time>
      </trkpt>
      <trkpt lat="45.15504" lon="6.30037">
        <ele>2040</ele>
        <time>2021-02-28T06:09:35Z</time>
      </trkpt>
      <trkpt lat="45.15503" lon="6.30038">
        <ele>2040.2</ele>
        <time>2021-02-28T06:09:36Z</time>
      </trkpt>
      <trkpt lat="45.15503" lon="6.30039">
        <ele>2040.6</ele>
        <time>2021-02-28T06:09:37Z</time>
      </trkpt>
      <trkpt lat="45.15503" lon="6.3004">
        <ele>2040.8</ele>
        <time>2021-02-28T06:09:38Z</time>
      </trkpt>
      <trkpt lat="45.15502" lon="6.30041">
        <ele>2041.2</ele>
        <time>2021-02-28T06:09:39Z</time>
      </trkpt>
      <trkpt lat="45.15502" lon="6.30042">
        <ele>2041.4</ele>
        <time>2021-02-28T06:09:40Z</time>
      </trkpt>
      <trkpt lat="45.15501" lon="6.30043">
        <ele>2041.6</ele>
        <time>2021-02-28T06:09:41Z</time>
      </trkpt>
      <trkpt lat="45.15501" lon="6.30044">
        <ele>2041.8</ele>
        <time>2021-02-28T06:09:42Z</time>
      </trkpt>
      <trkpt lat="45.15501" lon="6.30045">
        <ele>2042.2</ele>
        <time>2021-02-28T06:09:43Z</time>
      </trkpt>
      <trkpt lat="45.155" lon="6.30046">
        <ele>2042.4</ele>
        <time>2021-02-28T06:09:44Z</time>
      </trkpt>
      <trkpt lat="45.155" lon="6.30047">
        <ele>2042.8</ele>
        <time>2021-02-28T06:09:45Z</time>
      </trkpt>
      <trkpt lat="45.15499" lon="6.30048">
        <ele>2043</ele>
        <time>2021-02-28T06:09:46Z</time>
      </trkpt>
      <trkpt lat="45.15499" lon="6.30049">
        <ele>2043.2</ele>
        <time>2021-02-28T06:09:47Z</time>
      </trkpt>
      <trkpt lat="45.15498" lon="6.3005">
        <ele>2043.4</ele>
        <time>2021-02-28T06:09:48Z</time>
      </trkpt>
      <trkpt lat="45.15497" lon="6.30051">
        <ele>2043.6</ele>
        <time>2021-02-28T06:09:49Z</time>
      </trkpt>
      <trkpt lat="45.15497" lon="6.30052">
        <ele>2044</ele>
        <time>2021-02-28T06:09:50Z</time>
      </trkpt>
      <trkpt lat="45.15496" lon="6.30053">
        <ele>2044.4</ele>
        <time>2021-02-28T06:09:51Z</time>
      </trkpt>
      <trkpt lat="45.15495" lon="6.30053">
        <ele>2044.6</ele>
        <time>2021-02-28T06:09:52Z</time>
      </trkpt>
      <trkpt lat="45.15495" lon="6.30054">
        <ele>2044.8</ele>
        <time>2021-02-28T06:09:53Z</time>
      </trkpt>
      <trkpt lat="45.15494" lon="6.30055">
        <ele>2045.2</ele>
        <time>2021-02-28T06:09:54Z</time>
      </trkpt>
      <trkpt lat="45.15494" lon="6.30056">
        <ele>2045.2</ele>
        <time>2021-02-28T06:09:55Z</time>
      </trkpt>
      <trkpt lat="45.15493" lon="6.30057">
        <ele>2045.4</ele>
        <time>2021-02-28T06:09:56Z</time>
      </trkpt>
      <trkpt lat="45.15493" lon="6.30058">
        <ele>2046</ele>
        <time>2021-02-28T06:09:57Z</time>
      </trkpt>
      <trkpt lat="45.15492" lon="6.30058">
        <ele>2046.4</ele>
        <time>2021-02-28T06:09:58Z</time>
      </trkpt>
      <trkpt lat="45.15492" lon="6.30059">
        <ele>2046.6</ele>
        <time>2021-02-28T06:09:59Z</time>
      </trkpt>
      <trkpt lat="45.15491" lon="6.3006">
        <ele>2046.8</ele>
        <time>2021-02-28T06:10:00Z</time>
      </trkpt>
      <trkpt lat="45.15491" lon="6.30061">
        <ele>2047.2</ele>
        <time>2021-02-28T06:10:01Z</time>
      </trkpt>
      <trkpt lat="45.15491" lon="6.30061">
        <ele>2047.2</ele>
        <time>2021-02-28T06:10:02Z</time>
      </trkpt>
      <trkpt lat="45.1549" lon="6.30062">
        <ele>2047.6</ele>
        <time>2021-02-28T06:10:03Z</time>
      </trkpt>
      <trkpt lat="45.1549" lon="6.30063">
        <ele>2047.8</ele>
        <time>2021-02-28T06:10:04Z</time>
      </trkpt>
      <trkpt lat="45.15489" lon="6.30064">
        <ele>2048</ele>
        <time>2021-02-28T06:10:05Z</time>
      </trkpt>
      <trkpt lat="45.15489" lon="6.30064">
        <ele>2048.2</ele>
        <time>2021-02-28T06:10:06Z</time>
      </trkpt>
      <trkpt lat="45.15489" lon="6.30065">
        <ele>2048.8</ele>
        <time>2021-02-28T06:10:07Z</time>
      </trkpt>
      <trkpt lat="45.15488" lon="6.30066">
        <ele>2049</ele>
        <time>2021-02-28T06:10:08Z</time>
      </trkpt>
      <trkpt lat="45.15488" lon="6.30067">
        <ele>2049.2</ele>
        <time>2021-02-28T06:10:09Z</time>
      </trkpt>
      <trkpt lat="45.15487" lon="6.30067">
        <ele>2049.4</ele>
        <time>2021-02-28T06:10:10Z</time>
      </trkpt>
      <trkpt lat="45.15487" lon="6.30068">
        <ele>2049.4</ele>
        <time>2021-02-28T06:10:11Z</time>
      </trkpt>
      <trkpt lat="45.15487" lon="6.30069">
        <ele>2049.8</ele>
        <time>2021-02-28T06:10:12Z</time>
      </trkpt>
      <trkpt lat="45.15487" lon="6.3007">
        <ele>2050.2</ele>
        <time>2021-02-28T06:10:13Z</time>
      </trkpt>
      <trkpt lat="45.15486" lon="6.30071">
        <ele>2050</ele>
        <time>2021-02-28T06:10:14Z</time>
      </trkpt>
      <trkpt lat="45.15486" lon="6.30072">
        <ele>2050.2</ele>
        <time>2021-02-28T06:10:15Z</time>
      </trkpt>
      <trkpt lat="45.15486" lon="6.30073">
        <ele>2050.6</ele>
        <time>2021-02-28T06:10:16Z</time>
      </trkpt>
      <trkpt lat="45.15486" lon="6.30074">
        <ele>2050.8</ele>
        <time>2021-02-28T06:10:17Z</time>
      </trkpt>
      <trkpt lat="45.15485" lon="6.30075">
        <ele>2051.4</ele>
        <time>2021-02-28T06:10:18Z</time>
      </trkpt>
      <trkpt lat="45.15485" lon="6.30076">
        <ele>2051.6</ele>
        <time>2021-02-28T06:10:19Z</time>
      </trkpt>
      <trkpt lat="45.15485" lon="6.30077">
        <ele>2051.8</ele>
        <time>2021-02-28T06:10:20Z</time>
      </trkpt>
      <trkpt lat="45.15485" lon="6.30078">
        <ele>2052.4</ele>
        <time>2021-02-28T06:10:21Z</time>
      </trkpt>
      <trkpt lat="45.15484" lon="6.30079">
        <ele>2052.6</ele>
        <time>2021-02-28T06:10:22Z</time>
      </trkpt>
      <trkpt lat="45.15483" lon="6.3008">
        <ele>2052.6</ele>
        <time>2021-02-28T06:10:23Z</time>
      </trkpt>
      <trkpt lat="45.15483" lon="6.30081">
        <ele>2053</ele>
        <time>2021-02-28T06:10:24Z</time>
      </trkpt>
      <trkpt lat="45.15482" lon="6.30081">
        <ele>2053.4</ele>
        <time>2021-02-28T06:10:25Z</time>
      </trkpt>
      <trkpt lat="45.15481" lon="6.30082">
        <ele>2053.6</ele>
        <time>2021-02-28T06:10:26Z</time>
      </trkpt>
      <trkpt lat="45.1548" lon="6.30083">
        <ele>2054</ele>
        <time>2021-02-28T06:10:27Z</time>
      </trkpt>
      <trkpt lat="45.1548" lon="6.30083">
        <ele>2054.4</ele>
        <time>2021-02-28T06:10:28Z</time>
      </trkpt>
      <trkpt lat="45.15479" lon="6.30084">
        <ele>2054.4</ele>
        <time>2021-02-28T06:10:29Z</time>
      </trkpt>
      <trkpt lat="45.15478" lon="6.30084">
        <ele>2055</ele>
        <time>2021-02-28T06:10:30Z</time>
      </trkpt>
      <trkpt lat="45.15477" lon="6.30085">
        <ele>2055</ele>
        <time>2021-02-28T06:10:31Z</time>
      </trkpt>
      <trkpt lat="45.15476" lon="6.30086">
        <ele>2055.2</ele>
        <time>2021-02-28T06:10:32Z</time>
      </trkpt>
      <trkpt lat="45.15477" lon="6.30086">
        <ele>2055.4</ele>
        <time>2021-02-28T06:10:33Z</time>
      </trkpt>
      <trkpt lat="45.15477" lon="6.30087">
        <ele>2055.8</ele>
        <time>2021-02-28T06:10:34Z</time>
      </trkpt>
      <trkpt lat="45.15477" lon="6.30088">
        <ele>2056.2</ele>
        <time>2021-02-28T06:10:35Z</time>
      </trkpt>
      <trkpt lat="45.15478" lon="6.30088">
        <ele>2056.4</ele>
        <time>2021-02-28T06:10:36Z</time>
      </trkpt>
      <trkpt lat="45.15478" lon="6.30089">
        <ele>2056.8</ele>
        <time>2021-02-28T06:10:38Z</time>
      </trkpt>
      <trkpt lat="45.15478" lon="6.3009">
        <ele>2057.2</ele>
        <time>2021-02-28T06:10:39Z</time>
      </trkpt>
      <trkpt lat="45.15478" lon="6.3009">
        <ele>2057.6</ele>
        <time>2021-02-28T06:10:40Z</time>
      </trkpt>
      <trkpt lat="45.15479" lon="6.30091">
        <ele>2057.6</ele>
        <time>2021-02-28T06:10:41Z</time>
      </trkpt>
      <trkpt lat="45.15479" lon="6.30091">
        <ele>2058</ele>
        <time>2021-02-28T06:10:42Z</time>
      </trkpt>
      <trkpt lat="45.15479" lon="6.30092">
        <ele>2058.6</ele>
        <time>2021-02-28T06:10:43Z</time>
      </trkpt>
      <trkpt lat="45.1548" lon="6.30093">
        <ele>2058.8</ele>
        <time>2021-02-28T06:10:44Z</time>
      </trkpt>
      <trkpt lat="45.1548" lon="6.30093">
        <ele>2059.2</ele>
        <time>2021-02-28T06:10:45Z</time>
      </trkpt>
      <trkpt lat="45.1548" lon="6.30094">
        <ele>2059.6</ele>
        <time>2021-02-28T06:10:46Z</time>
      </trkpt>
      <trkpt lat="45.1548" lon="6.30095">
        <ele>2059.8</ele>
        <time>2021-02-28T06:10:47Z</time>
      </trkpt>
      <trkpt lat="45.15481" lon="6.30095">
        <ele>2060</ele>
        <time>2021-02-28T06:10:48Z</time>
      </trkpt>
      <trkpt lat="45.15481" lon="6.30096">
        <ele>2060</ele>
        <time>2021-02-28T06:10:49Z</time>
      </trkpt>
      <trkpt lat="45.15481" lon="6.30097">
        <ele>2060.2</ele>
        <time>2021-02-28T06:10:50Z</time>
      </trkpt>
      <trkpt lat="45.15481" lon="6.30097">
        <ele>2060.6</ele>
        <time>2021-02-28T06:10:51Z</time>
      </trkpt>
      <trkpt lat="45.1548" lon="6.30097">
        <ele>2060.8</ele>
        <time>2021-02-28T06:10:52Z</time>
      </trkpt>
      <trkpt lat="45.1548" lon="6.30098">
        <ele>2061</ele>
        <time>2021-02-28T06:10:53Z</time>
      </trkpt>
      <trkpt lat="45.15479" lon="6.30098">
        <ele>2061.2</ele>
        <time>2021-02-28T06:10:54Z</time>
      </trkpt>
      <trkpt lat="45.15479" lon="6.30099">
        <ele>2061.8</ele>
        <time>2021-02-28T06:10:55Z</time>
      </trkpt>
      <trkpt lat="45.15478" lon="6.30099">
        <ele>2061.6</ele>
        <time>2021-02-28T06:10:56Z</time>
      </trkpt>
      <trkpt lat="45.15478" lon="6.301">
        <ele>2062</ele>
        <time>2021-02-28T06:10:57Z</time>
      </trkpt>
      <trkpt lat="45.15477" lon="6.301">
        <ele>2062.2</ele>
        <time>2021-02-28T06:10:58Z</time>
      </trkpt>
      <trkpt lat="45.15477" lon="6.30101">
        <ele>2062.6</ele>
        <time>2021-02-28T06:10:59Z</time>
      </trkpt>
      <trkpt lat="45.15476" lon="6.30101">
        <ele>2062.8</ele>
        <time>2021-02-28T06:11:00Z</time>
      </trkpt>
      <trkpt lat="45.15476" lon="6.30102">
        <ele>2062.6</ele>
        <time>2021-02-28T06:11:01Z</time>
      </trkpt>
      <trkpt lat="45.15475" lon="6.30102">
        <ele>2063</ele>
        <time>2021-02-28T06:11:02Z</time>
      </trkpt>
      <trkpt lat="45.15475" lon="6.30102">
        <ele>2063.4</ele>
        <time>2021-02-28T06:11:03Z</time>
      </trkpt>
      <trkpt lat="45.15474" lon="6.30103">
        <ele>2063.6</ele>
        <time>2021-02-28T06:11:04Z</time>
      </trkpt>
      <trkpt lat="45.15474" lon="6.30103">
        <ele>2064.2</ele>
        <time>2021-02-28T06:11:05Z</time>
      </trkpt>
      <trkpt lat="45.15474" lon="6.30104">
        <ele>2064.4</ele>
        <time>2021-02-28T06:11:06Z</time>
      </trkpt>
      <trkpt lat="45.15475" lon="6.30104">
        <ele>2064.2</ele>
        <time>2021-02-28T06:11:07Z</time>
      </trkpt>
      <trkpt lat="45.15475" lon="6.30105">
        <ele>2065</ele>
        <time>2021-02-28T06:11:08Z</time>
      </trkpt>
      <trkpt lat="45.15475" lon="6.30106">
        <ele>2065.2</ele>
        <time>2021-02-28T06:11:09Z</time>
      </trkpt>
      <trkpt lat="45.15475" lon="6.30106">
        <ele>2065.6</ele>
        <time>2021-02-28T06:11:10Z</time>
      </trkpt>
      <trkpt lat="45.15475" lon="6.30107">
        <ele>2066</ele>
        <time>2021-02-28T06:11:11Z</time>
      </trkpt>
      <trkpt lat="45.15475" lon="6.30107">
        <ele>2066.2</ele>
        <time>2021-02-28T06:11:12Z</time>
      </trkpt>
      <trkpt lat="45.15475" lon="6.30108">
        <ele>2066.4</ele>
        <time>2021-02-28T06:11:13Z</time>
      </trkpt>
      <trkpt lat="45.15475" lon="6.30108">
        <ele>2066.6</ele>
        <time>2021-02-28T06:11:14Z</time>
      </trkpt>
      <trkpt lat="45.15475" lon="6.30109">
        <ele>2066.8</ele>
        <time>2021-02-28T06:11:15Z</time>
      </trkpt>
      <trkpt lat="45.15475" lon="6.30109">
        <ele>2067.4</ele>
        <time>2021-02-28T06:11:16Z</time>
      </trkpt>
      <trkpt lat="45.15475" lon="6.3011">
        <ele>2067.2</ele>
        <time>2021-02-28T06:11:17Z</time>
      </trkpt>
      <trkpt lat="45.15475" lon="6.3011">
        <ele>2067.6</ele>
        <time>2021-02-28T06:11:18Z</time>
      </trkpt>
      <trkpt lat="45.15475" lon="6.30111">
        <ele>2067.6</ele>
        <time>2021-02-28T06:11:19Z</time>
      </trkpt>
      <trkpt lat="45.15475" lon="6.30112">
        <ele>2068</ele>
        <time>2021-02-28T06:11:20Z</time>
      </trkpt>
      <trkpt lat="45.15475" lon="6.30112">
        <ele>2068.4</ele>
        <time>2021-02-28T06:11:21Z</time>
      </trkpt>
      <trkpt lat="45.15475" lon="6.30113">
        <ele>2068.2</ele>
        <time>2021-02-28T06:11:22Z</time>
      </trkpt>
      <trkpt lat="45.15476" lon="6.30113">
        <ele>2068.6</ele>
        <time>2021-02-28T06:11:23Z</time>
      </trkpt>
      <trkpt lat="45.15476" lon="6.30114">
        <ele>2068.6</ele>
        <time>2021-02-28T06:11:24Z</time>
      </trkpt>
      <trkpt lat="45.15476" lon="6.30114">
        <ele>2068.8</ele>
        <time>2021-02-28T06:11:25Z</time>
      </trkpt>
      <trkpt lat="45.15477" lon="6.30117">
        <ele>2069</ele>
        <time>2021-02-28T06:11:26Z</time>
      </trkpt>
      <trkpt lat="45.15477" lon="6.30117">
        <ele>2069.2</ele>
        <time>2021-02-28T06:11:27Z</time>
      </trkpt>
      <trkpt lat="45.15477" lon="6.30117">
        <ele>2069.6</ele>
        <time>2021-02-28T06:11:28Z</time>
      </trkpt>
      <trkpt lat="45.15478" lon="6.30118">
        <ele>2070</ele>
        <time>2021-02-28T06:11:29Z</time>
      </trkpt>
      <trkpt lat="45.15478" lon="6.30118">
        <ele>2070</ele>
        <time>2021-02-28T06:11:30Z</time>
      </trkpt>
      <trkpt lat="45.15478" lon="6.30118">
        <ele>2070.2</ele>
        <time>2021-02-28T06:11:31Z</time>
      </trkpt>
      <trkpt lat="45.15478" lon="6.30119">
        <ele>2070.4</ele>
        <time>2021-02-28T06:11:32Z</time>
      </trkpt>
      <trkpt lat="45.15477" lon="6.30119">
        <ele>2070.8</ele>
        <time>2021-02-28T06:11:33Z</time>
      </trkpt>
      <trkpt lat="45.15477" lon="6.3012">
        <ele>2071.4</ele>
        <time>2021-02-28T06:11:34Z</time>
      </trkpt>
      <trkpt lat="45.15476" lon="6.3012">
        <ele>2071.4</ele>
        <time>2021-02-28T06:11:35Z</time>
      </trkpt>
      <trkpt lat="45.15475" lon="6.30121">
        <ele>2071.8</ele>
        <time>2021-02-28T06:11:36Z</time>
      </trkpt>
      <trkpt lat="45.15475" lon="6.30122">
        <ele>2072</ele>
        <time>2021-02-28T06:11:37Z</time>
      </trkpt>
      <trkpt lat="45.15474" lon="6.30122">
        <ele>2072</ele>
        <time>2021-02-28T06:11:38Z</time>
      </trkpt>
      <trkpt lat="45.15473" lon="6.30123">
        <ele>2072.2</ele>
        <time>2021-02-28T06:11:39Z</time>
      </trkpt>
      <trkpt lat="45.15473" lon="6.30123">
        <ele>2072.2</ele>
        <time>2021-02-28T06:11:40Z</time>
      </trkpt>
      <trkpt lat="45.15473" lon="6.30123">
        <ele>2072.6</ele>
        <time>2021-02-28T06:11:41Z</time>
      </trkpt>
      <trkpt lat="45.15469" lon="6.30124">
        <ele>2072.6</ele>
        <time>2021-02-28T06:11:42Z</time>
      </trkpt>
      <trkpt lat="45.15469" lon="6.30124">
        <ele>2073.2</ele>
        <time>2021-02-28T06:11:43Z</time>
      </trkpt>
      <trkpt lat="45.15469" lon="6.30124">
        <ele>2073.4</ele>
        <time>2021-02-28T06:11:44Z</time>
      </trkpt>
      <trkpt lat="45.15469" lon="6.30125">
        <ele>2073.6</ele>
        <time>2021-02-28T06:11:45Z</time>
      </trkpt>
      <trkpt lat="45.15469" lon="6.30125">
        <ele>2074.2</ele>
        <time>2021-02-28T06:11:46Z</time>
      </trkpt>
      <trkpt lat="45.15469" lon="6.30126">
        <ele>2074.4</ele>
        <time>2021-02-28T06:11:47Z</time>
      </trkpt>
      <trkpt lat="45.15469" lon="6.30126">
        <ele>2074.6</ele>
        <time>2021-02-28T06:11:48Z</time>
      </trkpt>
      <trkpt lat="45.15469" lon="6.30127">
        <ele>2075.2</ele>
        <time>2021-02-28T06:11:49Z</time>
      </trkpt>
      <trkpt lat="45.15469" lon="6.30127">
        <ele>2075.4</ele>
        <time>2021-02-28T06:11:50Z</time>
      </trkpt>
      <trkpt lat="45.15469" lon="6.30128">
        <ele>2075.6</ele>
        <time>2021-02-28T06:11:51Z</time>
      </trkpt>
      <trkpt lat="45.15469" lon="6.30128">
        <ele>2076</ele>
        <time>2021-02-28T06:11:52Z</time>
      </trkpt>
      <trkpt lat="45.15469" lon="6.30129">
        <ele>2076.4</ele>
        <time>2021-02-28T06:11:53Z</time>
      </trkpt>
      <trkpt lat="45.15468" lon="6.3013">
        <ele>2076.4</ele>
        <time>2021-02-28T06:11:54Z</time>
      </trkpt>
      <trkpt lat="45.15468" lon="6.3013">
        <ele>2076.6</ele>
        <time>2021-02-28T06:11:55Z</time>
      </trkpt>
      <trkpt lat="45.15468" lon="6.30131">
        <ele>2076.8</ele>
        <time>2021-02-28T06:11:56Z</time>
      </trkpt>
      <trkpt lat="45.15468" lon="6.30131">
        <ele>2077.2</ele>
        <time>2021-02-28T06:11:57Z</time>
      </trkpt>
      <trkpt lat="45.15468" lon="6.30132">
        <ele>2077.4</ele>
        <time>2021-02-28T06:11:58Z</time>
      </trkpt>
      <trkpt lat="45.15468" lon="6.30132">
        <ele>2077.6</ele>
        <time>2021-02-28T06:11:59Z</time>
      </trkpt>
      <trkpt lat="45.15468" lon="6.30133">
        <ele>2077.8</ele>
        <time>2021-02-28T06:12:00Z</time>
      </trkpt>
      <trkpt lat="45.15468" lon="6.30134">
        <ele>2077.8</ele>
        <time>2021-02-28T06:12:01Z</time>
      </trkpt>
      <trkpt lat="45.15468" lon="6.30134">
        <ele>2078.4</ele>
        <time>2021-02-28T06:12:02Z</time>
      </trkpt>
      <trkpt lat="45.15468" lon="6.30135">
        <ele>2078.4</ele>
        <time>2021-02-28T06:12:03Z</time>
      </trkpt>
      <trkpt lat="45.15468" lon="6.30135">
        <ele>2078.8</ele>
        <time>2021-02-28T06:12:04Z</time>
      </trkpt>
      <trkpt lat="45.15467" lon="6.30136">
        <ele>2079.4</ele>
        <time>2021-02-28T06:12:05Z</time>
      </trkpt>
      <trkpt lat="45.15467" lon="6.30136">
        <ele>2079.4</ele>
        <time>2021-02-28T06:12:06Z</time>
      </trkpt>
      <trkpt lat="45.15467" lon="6.30136">
        <ele>2079.8</ele>
        <time>2021-02-28T06:12:07Z</time>
      </trkpt>
      <trkpt lat="45.15467" lon="6.30141">
        <ele>2080.4</ele>
        <time>2021-02-28T06:12:08Z</time>
      </trkpt>
      <trkpt lat="45.15467" lon="6.30141">
        <ele>2080.6</ele>
        <time>2021-02-28T06:12:09Z</time>
      </trkpt>
      <trkpt lat="45.15467" lon="6.30141">
        <ele>2081</ele>
        <time>2021-02-28T06:12:10Z</time>
      </trkpt>
      <trkpt lat="45.15465" lon="6.30142">
        <ele>2080.8</ele>
        <time>2021-02-28T06:12:11Z</time>
      </trkpt>
      <trkpt lat="45.15465" lon="6.30142">
        <ele>2081</ele>
        <time>2021-02-28T06:12:12Z</time>
      </trkpt>
      <trkpt lat="45.15465" lon="6.30142">
        <ele>2081.4</ele>
        <time>2021-02-28T06:12:13Z</time>
      </trkpt>
      <trkpt lat="45.15462" lon="6.30141">
        <ele>2081.4</ele>
        <time>2021-02-28T06:12:14Z</time>
      </trkpt>
      <trkpt lat="45.15462" lon="6.30141">
        <ele>2081.8</ele>
        <time>2021-02-28T06:12:15Z</time>
      </trkpt>
      <trkpt lat="45.1546" lon="6.3014">
        <ele>2082.2</ele>
        <time>2021-02-28T06:12:16Z</time>
      </trkpt>
      <trkpt lat="45.1546" lon="6.3014">
        <ele>2082.2</ele>
        <time>2021-02-28T06:12:17Z</time>
      </trkpt>
      <trkpt lat="45.15458" lon="6.30139">
        <ele>2082.8</ele>
        <time>2021-02-28T06:12:18Z</time>
      </trkpt>
      <trkpt lat="45.15458" lon="6.30139">
        <ele>2082.6</ele>
        <time>2021-02-28T06:12:19Z</time>
      </trkpt>
      <trkpt lat="45.15455" lon="6.30138">
        <ele>2082.8</ele>
        <time>2021-02-28T06:12:20Z</time>
      </trkpt>
      <trkpt lat="45.15455" lon="6.30138">
        <ele>2083.4</ele>
        <time>2021-02-28T06:12:21Z</time>
      </trkpt>
      <trkpt lat="45.15453" lon="6.30136">
        <ele>2083.4</ele>
        <time>2021-02-28T06:12:22Z</time>
      </trkpt>
      <trkpt lat="45.15453" lon="6.30136">
        <ele>2083.6</ele>
        <time>2021-02-28T06:12:23Z</time>
      </trkpt>
      <trkpt lat="45.15451" lon="6.30135">
        <ele>2084</ele>
        <time>2021-02-28T06:12:24Z</time>
      </trkpt>
      <trkpt lat="45.15451" lon="6.30135">
        <ele>2084</ele>
        <time>2021-02-28T06:12:25Z</time>
      </trkpt>
      <trkpt lat="45.15449" lon="6.30134">
        <ele>2084.4</ele>
        <time>2021-02-28T06:12:26Z</time>
      </trkpt>
      <trkpt lat="45.15449" lon="6.30134">
        <ele>2084.8</ele>
        <time>2021-02-28T06:12:27Z</time>
      </trkpt>
      <trkpt lat="45.15447" lon="6.30133">
        <ele>2084.8</ele>
        <time>2021-02-28T06:12:28Z</time>
      </trkpt>
      <trkpt lat="45.15447" lon="6.30133">
        <ele>2085.4</ele>
        <time>2021-02-28T06:12:29Z</time>
      </trkpt>
      <trkpt lat="45.15445" lon="6.30132">
        <ele>2085.8</ele>
        <time>2021-02-28T06:12:30Z</time>
      </trkpt>
      <trkpt lat="45.15445" lon="6.30132">
        <ele>2086</ele>
        <time>2021-02-28T06:12:31Z</time>
      </trkpt>
      <trkpt lat="45.15445" lon="6.30132">
        <ele>2086.4</ele>
        <time>2021-02-28T06:12:32Z</time>
      </trkpt>
      <trkpt lat="45.15443" lon="6.30132">
        <ele>2086.4</ele>
        <time>2021-02-28T06:12:33Z</time>
      </trkpt>
      <trkpt lat="45.15443" lon="6.30132">
        <ele>2086.4</ele>
        <time>2021-02-28T06:12:34Z</time>
      </trkpt>
      <trkpt lat="45.15443" lon="6.30132">
        <ele>2087.2</ele>
        <time>2021-02-28T06:12:35Z</time>
      </trkpt>
      <trkpt lat="45.15443" lon="6.30132">
        <ele>2087.2</ele>
        <time>2021-02-28T06:12:36Z</time>
      </trkpt>
      <trkpt lat="45.15443" lon="6.30132">
        <ele>2087.4</ele>
        <time>2021-02-28T06:12:37Z</time>
      </trkpt>
      <trkpt lat="45.15443" lon="6.30135">
        <ele>2088</ele>
        <time>2021-02-28T06:12:38Z</time>
      </trkpt>
      <trkpt lat="45.15443" lon="6.30135">
        <ele>2088.2</ele>
        <time>2021-02-28T06:12:39Z</time>
      </trkpt>
      <trkpt lat="45.15443" lon="6.30135">
        <ele>2088.4</ele>
        <time>2021-02-28T06:12:40Z</time>
      </trkpt>
      <trkpt lat="45.15443" lon="6.30139">
        <ele>2088.4</ele>
        <time>2021-02-28T06:12:41Z</time>
      </trkpt>
      <trkpt lat="45.15443" lon="6.30139">
        <ele>2088.4</ele>
        <time>2021-02-28T06:12:42Z</time>
      </trkpt>
      <trkpt lat="45.15443" lon="6.30139">
        <ele>2088.6</ele>
        <time>2021-02-28T06:12:43Z</time>
      </trkpt>
      <trkpt lat="45.15443" lon="6.30143">
        <ele>2088.8</ele>
        <time>2021-02-28T06:12:44Z</time>
      </trkpt>
      <trkpt lat="45.15443" lon="6.30143">
        <ele>2089</ele>
        <time>2021-02-28T06:12:45Z</time>
      </trkpt>
      <trkpt lat="45.15443" lon="6.30143">
        <ele>2089.4</ele>
        <time>2021-02-28T06:12:46Z</time>
      </trkpt>
      <trkpt lat="45.15443" lon="6.30146">
        <ele>2090</ele>
        <time>2021-02-28T06:12:47Z</time>
      </trkpt>
      <trkpt lat="45.15443" lon="6.30146">
        <ele>2090.2</ele>
        <time>2021-02-28T06:12:48Z</time>
      </trkpt>
      <trkpt lat="45.15443" lon="6.30146">
        <ele>2090.4</ele>
        <time>2021-02-28T06:12:49Z</time>
      </trkpt>
      <trkpt lat="45.15443" lon="6.30146">
        <ele>2090.6</ele>
        <time>2021-02-28T06:12:50Z</time>
      </trkpt>
      <trkpt lat="45.15443" lon="6.30146">
        <ele>2091</ele>
        <time>2021-02-28T06:12:51Z</time>
      </trkpt>
      <trkpt lat="45.15443" lon="6.30146">
        <ele>2091</ele>
        <time>2021-02-28T06:12:52Z</time>
      </trkpt>
      <trkpt lat="45.15443" lon="6.30146">
        <ele>2091.2</ele>
        <time>2021-02-28T06:12:53Z</time>
      </trkpt>
      <trkpt lat="45.15443" lon="6.30146">
        <ele>2091.2</ele>
        <time>2021-02-28T06:12:54Z</time>
      </trkpt>
      <trkpt lat="45.15443" lon="6.30146">
        <ele>2091.2</ele>
        <time>2021-02-28T06:12:55Z</time>
      </trkpt>
      <trkpt lat="45.15443" lon="6.30146">
        <ele>2091.2</ele>
        <time>2021-02-28T06:12:56Z</time>
      </trkpt>
      <trkpt lat="45.15443" lon="6.30146">
        <ele>2091</ele>
        <time>2021-02-28T06:12:57Z</time>
      </trkpt>
      <trkpt lat="45.15443" lon="6.30146">
        <ele>2091</ele>
        <time>2021-02-28T06:12:58Z</time>
      </trkpt>
      <trkpt lat="45.15443" lon="6.30146">
        <ele>2091.2</ele>
        <time>2021-02-28T06:12:59Z</time>
      </trkpt>
      <trkpt lat="45.15443" lon="6.30146">
        <ele>2091.2</ele>
        <time>2021-02-28T06:13:00Z</time>
      </trkpt>
      <trkpt lat="45.15443" lon="6.30146">
        <ele>2091</ele>
        <time>2021-02-28T06:13:01Z</time>
      </trkpt>
      <trkpt lat="45.15443" lon="6.30146">
        <ele>2091</ele>
        <time>2021-02-28T06:13:02Z</time>
      </trkpt>
      <trkpt lat="45.15443" lon="6.30146">
        <ele>2091.2</ele>
        <time>2021-02-28T06:13:03Z</time>
      </trkpt>
      <trkpt lat="45.15443" lon="6.30146">
        <ele>2091.4</ele>
        <time>2021-02-28T06:13:04Z</time>
      </trkpt>
      <trkpt lat="45.15443" lon="6.30146">
        <ele>2091.4</ele>
        <time>2021-02-28T06:13:05Z</time>
      </trkpt>
      <trkpt lat="45.15443" lon="6.30146">
        <ele>2091.2</ele>
        <time>2021-02-28T06:13:06Z</time>
      </trkpt>
      <trkpt lat="45.15443" lon="6.30146">
        <ele>2091.2</ele>
        <time>2021-02-28T06:13:07Z</time>
      </trkpt>
      <trkpt lat="45.15443" lon="6.30146">
        <ele>2091.2</ele>
        <time>2021-02-28T06:13:08Z</time>
      </trkpt>
      <trkpt lat="45.15443" lon="6.30146">
        <ele>2091</ele>
        <time>2021-02-28T06:13:09Z</time>
      </trkpt>
      <trkpt lat="45.15443" lon="6.30146">
        <ele>2090.8</ele>
        <time>2021-02-28T06:13:10Z</time>
      </trkpt>
      <trkpt lat="45.15443" lon="6.30146">
        <ele>2090.6</ele>
        <time>2021-02-28T06:13:11Z</time>
      </trkpt>
      <trkpt lat="45.15443" lon="6.30146">
        <ele>2090.2</ele>
        <time>2021-02-28T06:13:12Z</time>
      </trkpt>
      <trkpt lat="45.15443" lon="6.30146">
        <ele>2090.2</ele>
        <time>2021-02-28T06:13:13Z</time>
      </trkpt>
      <trkpt lat="45.15443" lon="6.30146">
        <ele>2090.2</ele>
        <time>2021-02-28T06:13:14Z</time>
      </trkpt>
      <trkpt lat="45.15443" lon="6.30146">
        <ele>2090</ele>
        <time>2021-02-28T06:13:15Z</time>
      </trkpt>
      <trkpt lat="45.15443" lon="6.30146">
        <ele>2090</ele>
        <time>2021-02-28T06:13:16Z</time>
      </trkpt>
      <trkpt lat="45.15443" lon="6.30146">
        <ele>2089.8</ele>
        <time>2021-02-28T06:13:17Z</time>
      </trkpt>
      <trkpt lat="45.15443" lon="6.30146">
        <ele>2089.6</ele>
        <time>2021-02-28T06:13:18Z</time>
      </trkpt>
      <trkpt lat="45.15443" lon="6.30146">
        <ele>2089.8</ele>
        <time>2021-02-28T06:13:19Z</time>
      </trkpt>
      <trkpt lat="45.15443" lon="6.30146">
        <ele>2089.6</ele>
        <time>2021-02-28T06:13:20Z</time>
      </trkpt>
      <trkpt lat="45.15443" lon="6.30146">
        <ele>2090</ele>
        <time>2021-02-28T06:13:21Z</time>
      </trkpt>
      <trkpt lat="45.15443" lon="6.30146">
        <ele>2090.2</ele>
        <time>2021-02-28T06:13:22Z</time>
      </trkpt>
      <trkpt lat="45.15443" lon="6.30146">
        <ele>2090.4</ele>
        <time>2021-02-28T06:13:23Z</time>
      </trkpt>
      <trkpt lat="45.15443" lon="6.30146">
        <ele>2090.4</ele>
        <time>2021-02-28T06:13:24Z</time>
      </trkpt>
      <trkpt lat="45.15443" lon="6.30146">
        <ele>2090.2</ele>
        <time>2021-02-28T06:13:25Z</time>
      </trkpt>
      <trkpt lat="45.15443" lon="6.30146">
        <ele>2090.4</ele>
        <time>2021-02-28T06:13:26Z</time>
      </trkpt>
      <trkpt lat="45.15443" lon="6.30146">
        <ele>2090.4</ele>
        <time>2021-02-28T06:13:27Z</time>
      </trkpt>
      <trkpt lat="45.15443" lon="6.30146">
        <ele>2090.4</ele>
        <time>2021-02-28T06:13:28Z</time>
      </trkpt>
      <trkpt lat="45.15443" lon="6.30146">
        <ele>2090.4</ele>
        <time>2021-02-28T06:13:29Z</time>
      </trkpt>
      <trkpt lat="45.15443" lon="6.30146">
        <ele>2090.6</ele>
        <time>2021-02-28T06:13:30Z</time>
      </trkpt>
      <trkpt lat="45.15443" lon="6.30146">
        <ele>2090.6</ele>
        <time>2021-02-28T06:13:31Z</time>
      </trkpt>
      <trkpt lat="45.15443" lon="6.30146">
        <ele>2090.6</ele>
        <time>2021-02-28T06:13:32Z</time>
      </trkpt>
      <trkpt lat="45.15443" lon="6.30146">
        <ele>2090.6</ele>
        <time>2021-02-28T06:13:33Z</time>
      </trkpt>
      <trkpt lat="45.15443" lon="6.30146">
        <ele>2090.4</ele>
        <time>2021-02-28T06:13:34Z</time>
      </trkpt>
      <trkpt lat="45.15443" lon="6.30146">
        <ele>2090.4</ele>
        <time>2021-02-28T06:13:35Z</time>
      </trkpt>
      <trkpt lat="45.15443" lon="6.30146">
        <ele>2090.2</ele>
        <time>2021-02-28T06:13:36Z</time>
      </trkpt>
      <trkpt lat="45.15443" lon="6.30146">
        <ele>2090</ele>
        <time>2021-02-28T06:13:37Z</time>
      </trkpt>
      <trkpt lat="45.15443" lon="6.30146">
        <ele>2090</ele>
        <time>2021-02-28T06:13:38Z</time>
      </trkpt>
      <trkpt lat="45.15443" lon="6.30146">
        <ele>2089.8</ele>
        <time>2021-02-28T06:13:39Z</time>
      </trkpt>
      <trkpt lat="45.15443" lon="6.30146">
        <ele>2089.6</ele>
        <time>2021-02-28T06:13:40Z</time>
      </trkpt>
      <trkpt lat="45.15443" lon="6.30146">
        <ele>2089.6</ele>
        <time>2021-02-28T06:13:41Z</time>
      </trkpt>
      <trkpt lat="45.15443" lon="6.30146">
        <ele>2089.8</ele>
        <time>2021-02-28T06:13:42Z</time>
      </trkpt>
      <trkpt lat="45.15443" lon="6.30146">
        <ele>2089.4</ele>
        <time>2021-02-28T06:13:43Z</time>
      </trkpt>
      <trkpt lat="45.15443" lon="6.30146">
        <ele>2089.4</ele>
        <time>2021-02-28T06:13:44Z</time>
      </trkpt>
      <trkpt lat="45.15443" lon="6.30146">
        <ele>2089.2</ele>
        <time>2021-02-28T06:13:45Z</time>
      </trkpt>
      <trkpt lat="45.15443" lon="6.30146">
        <ele>2089.2</ele>
        <time>2021-02-28T06:13:46Z</time>
      </trkpt>
      <trkpt lat="45.15443" lon="6.30146">
        <ele>2089.2</ele>
        <time>2021-02-28T06:13:47Z</time>
      </trkpt>
      <trkpt lat="45.15443" lon="6.30146">
        <ele>2089.2</ele>
        <time>2021-02-28T06:13:48Z</time>
      </trkpt>
      <trkpt lat="45.15443" lon="6.30146">
        <ele>2089.4</ele>
        <time>2021-02-28T06:13:49Z</time>
      </trkpt>
      <trkpt lat="45.15443" lon="6.30146">
        <ele>2089.4</ele>
        <time>2021-02-28T06:13:50Z</time>
      </trkpt>
      <trkpt lat="45.15443" lon="6.30146">
        <ele>2089.6</ele>
        <time>2021-02-28T06:13:51Z</time>
      </trkpt>
      <trkpt lat="45.15443" lon="6.30146">
        <ele>2089.6</ele>
        <time>2021-02-28T06:13:52Z</time>
      </trkpt>
      <trkpt lat="45.15443" lon="6.30146">
        <ele>2089.6</ele>
        <time>2021-02-28T06:13:53Z</time>
      </trkpt>
      <trkpt lat="45.15443" lon="6.30146">
        <ele>2089.4</ele>
        <time>2021-02-28T06:13:54Z</time>
      </trkpt>
      <trkpt lat="45.15443" lon="6.30146">
        <ele>2089.4</ele>
        <time>2021-02-28T06:13:55Z</time>
      </trkpt>
      <trkpt lat="45.15443" lon="6.30146">
        <ele>2089.6</ele>
        <time>2021-02-28T06:13:56Z</time>
      </trkpt>
      <trkpt lat="45.15443" lon="6.30146">
        <ele>2089.4</ele>
        <time>2021-02-28T06:13:57Z</time>
      </trkpt>
      <trkpt lat="45.15444" lon="6.30148">
        <ele>2089.4</ele>
        <time>2021-02-28T06:13:58Z</time>
      </trkpt>
      <trkpt lat="45.15444" lon="6.30148">
        <ele>2089.2</ele>
        <time>2021-02-28T06:13:59Z</time>
      </trkpt>
      <trkpt lat="45.15444" lon="6.30148">
        <ele>2089</ele>
        <time>2021-02-28T06:14:00Z</time>
      </trkpt>
      <trkpt lat="45.15444" lon="6.30148">
        <ele>2089</ele>
        <time>2021-02-28T06:14:01Z</time>
      </trkpt>
      <trkpt lat="45.15444" lon="6.30148">
        <ele>2089</ele>
        <time>2021-02-28T06:14:02Z</time>
      </trkpt>
      <trkpt lat="45.15444" lon="6.30148">
        <ele>2089</ele>
        <time>2021-02-28T06:14:03Z</time>
      </trkpt>
      <trkpt lat="45.15444" lon="6.30148">
        <ele>2088.8</ele>
        <time>2021-02-28T06:14:04Z</time>
      </trkpt>
      <trkpt lat="45.15444" lon="6.30148">
        <ele>2088.8</ele>
        <time>2021-02-28T06:14:05Z</time>
      </trkpt>
      <trkpt lat="45.15444" lon="6.30152">
        <ele>2088.4</ele>
        <time>2021-02-28T06:14:06Z</time>
      </trkpt>
      <trkpt lat="45.15444" lon="6.30152">
        <ele>2088.6</ele>
        <time>2021-02-28T06:14:07Z</time>
      </trkpt>
      <trkpt lat="45.15444" lon="6.30155">
        <ele>2088.4</ele>
        <time>2021-02-28T06:14:08Z</time>
      </trkpt>
      <trkpt lat="45.15444" lon="6.30155">
        <ele>2088.6</ele>
        <time>2021-02-28T06:14:09Z</time>
      </trkpt>
      <trkpt lat="45.15443" lon="6.30158">
        <ele>2088.8</ele>
        <time>2021-02-28T06:14:10Z</time>
      </trkpt>
      <trkpt lat="45.15443" lon="6.30158">
        <ele>2089</ele>
        <time>2021-02-28T06:14:11Z</time>
      </trkpt>
      <trkpt lat="45.15442" lon="6.3016">
        <ele>2089.2</ele>
        <time>2021-02-28T06:14:12Z</time>
      </trkpt>
      <trkpt lat="45.15442" lon="6.3016">
        <ele>2089</ele>
        <time>2021-02-28T06:14:13Z</time>
      </trkpt>
      <trkpt lat="45.15441" lon="6.30163">
        <ele>2089.6</ele>
        <time>2021-02-28T06:14:14Z</time>
      </trkpt>
      <trkpt lat="45.15441" lon="6.30163">
        <ele>2089.8</ele>
        <time>2021-02-28T06:14:15Z</time>
      </trkpt>
      <trkpt lat="45.15441" lon="6.30163">
        <ele>2090</ele>
        <time>2021-02-28T06:14:16Z</time>
      </trkpt>
      <trkpt lat="45.15441" lon="6.30163">
        <ele>2090.2</ele>
        <time>2021-02-28T06:14:17Z</time>
      </trkpt>
      <trkpt lat="45.15441" lon="6.30163">
        <ele>2090.2</ele>
        <time>2021-02-28T06:14:18Z</time>
      </trkpt>
      <trkpt lat="45.15441" lon="6.30163">
        <ele>2090.4</ele>
        <time>2021-02-28T06:14:19Z</time>
      </trkpt>
      <trkpt lat="45.15441" lon="6.30166">
        <ele>2090</ele>
        <time>2021-02-28T06:14:20Z</time>
      </trkpt>
      <trkpt lat="45.15441" lon="6.30166">
        <ele>2089.8</ele>
        <time>2021-02-28T06:14:21Z</time>
      </trkpt>
      <trkpt lat="45.1544" lon="6.30169">
        <ele>2090.2</ele>
        <time>2021-02-28T06:14:22Z</time>
      </trkpt>
      <trkpt lat="45.1544" lon="6.30169">
        <ele>2090</ele>
        <time>2021-02-28T06:14:23Z</time>
      </trkpt>
      <trkpt lat="45.1544" lon="6.30172">
        <ele>2090</ele>
        <time>2021-02-28T06:14:24Z</time>
      </trkpt>
      <trkpt lat="45.1544" lon="6.30172">
        <ele>2090.4</ele>
        <time>2021-02-28T06:14:25Z</time>
      </trkpt>
      <trkpt lat="45.15439" lon="6.30175">
        <ele>2090.4</ele>
        <time>2021-02-28T06:14:26Z</time>
      </trkpt>
      <trkpt lat="45.15439" lon="6.30175">
        <ele>2090.6</ele>
        <time>2021-02-28T06:14:27Z</time>
      </trkpt>
      <trkpt lat="45.15439" lon="6.30179">
        <ele>2090.8</ele>
        <time>2021-02-28T06:14:28Z</time>
      </trkpt>
      <trkpt lat="45.15439" lon="6.30179">
        <ele>2091</ele>
        <time>2021-02-28T06:14:29Z</time>
      </trkpt>
      <trkpt lat="45.15438" lon="6.30183">
        <ele>2091.2</ele>
        <time>2021-02-28T06:14:30Z</time>
      </trkpt>
      <trkpt lat="45.15438" lon="6.30183">
        <ele>2091</ele>
        <time>2021-02-28T06:14:31Z</time>
      </trkpt>
      <trkpt lat="45.15438" lon="6.30187">
        <ele>2091.4</ele>
        <time>2021-02-28T06:14:32Z</time>
      </trkpt>
      <trkpt lat="45.15438" lon="6.30187">
        <ele>2091.2</ele>
        <time>2021-02-28T06:14:33Z</time>
      </trkpt>
      <trkpt lat="45.15437" lon="6.30191">
        <ele>2090.8</ele>
        <time>2021-02-28T06:14:34Z</time>
      </trkpt>
      <trkpt lat="45.15437" lon="6.30191">
        <ele>2091</ele>
        <time>2021-02-28T06:14:35Z</time>
      </trkpt>
      <trkpt lat="45.15437" lon="6.30195">
        <ele>2091.2</ele>
        <time>2021-02-28T06:14:36Z</time>
      </trkpt>
      <trkpt lat="45.15437" lon="6.30195">
        <ele>2091</ele>
        <time>2021-02-28T06:14:37Z</time>
      </trkpt>
      <trkpt lat="45.15437" lon="6.30199">
        <ele>2091</ele>
        <time>2021-02-28T06:14:38Z</time>
      </trkpt>
      <trkpt lat="45.15437" lon="6.30199">
        <ele>2091.2</ele>
        <time>2021-02-28T06:14:39Z</time>
      </trkpt>
      <trkpt lat="45.15437" lon="6.30202">
        <ele>2090.8</ele>
        <time>2021-02-28T06:14:40Z</time>
      </trkpt>
      <trkpt lat="45.15437" lon="6.30202">
        <ele>2091.2</ele>
        <time>2021-02-28T06:14:41Z</time>
      </trkpt>
      <trkpt lat="45.15436" lon="6.30204">
        <ele>2091.4</ele>
        <time>2021-02-28T06:14:42Z</time>
      </trkpt>
      <trkpt lat="45.15436" lon="6.30204">
        <ele>2091.6</ele>
        <time>2021-02-28T06:14:43Z</time>
      </trkpt>
      <trkpt lat="45.15435" lon="6.30207">
        <ele>2091.6</ele>
        <time>2021-02-28T06:14:44Z</time>
      </trkpt>
      <trkpt lat="45.15435" lon="6.30207">
        <ele>2092</ele>
        <time>2021-02-28T06:14:45Z</time>
      </trkpt>
      <trkpt lat="45.15434" lon="6.30209">
        <ele>2092.4</ele>
        <time>2021-02-28T06:14:46Z</time>
      </trkpt>
      <trkpt lat="45.15434" lon="6.30209">
        <ele>2092.4</ele>
        <time>2021-02-28T06:14:47Z</time>
      </trkpt>
      <trkpt lat="45.15433" lon="6.30212">
        <ele>2092.6</ele>
        <time>2021-02-28T06:14:48Z</time>
      </trkpt>
      <trkpt lat="45.15433" lon="6.30212">
        <ele>2092.8</ele>
        <time>2021-02-28T06:14:49Z</time>
      </trkpt>
      <trkpt lat="45.15432" lon="6.30214">
        <ele>2093.4</ele>
        <time>2021-02-28T06:14:50Z</time>
      </trkpt>
      <trkpt lat="45.15432" lon="6.30214">
        <ele>2093.4</ele>
        <time>2021-02-28T06:14:51Z</time>
      </trkpt>
      <trkpt lat="45.15432" lon="6.30217">
        <ele>2093.8</ele>
        <time>2021-02-28T06:14:52Z</time>
      </trkpt>
      <trkpt lat="45.15432" lon="6.30217">
        <ele>2094</ele>
        <time>2021-02-28T06:14:53Z</time>
      </trkpt>
      <trkpt lat="45.15431" lon="6.3022">
        <ele>2094.6</ele>
        <time>2021-02-28T06:14:54Z</time>
      </trkpt>
      <trkpt lat="45.15431" lon="6.3022">
        <ele>2094.8</ele>
        <time>2021-02-28T06:14:55Z</time>
      </trkpt>
      <trkpt lat="45.1543" lon="6.30223">
        <ele>2095</ele>
        <time>2021-02-28T06:14:56Z</time>
      </trkpt>
      <trkpt lat="45.1543" lon="6.30223">
        <ele>2095.2</ele>
        <time>2021-02-28T06:14:57Z</time>
      </trkpt>
      <trkpt lat="45.15429" lon="6.30226">
        <ele>2095.6</ele>
        <time>2021-02-28T06:14:58Z</time>
      </trkpt>
      <trkpt lat="45.15429" lon="6.30226">
        <ele>2095.8</ele>
        <time>2021-02-28T06:14:59Z</time>
      </trkpt>
      <trkpt lat="45.15428" lon="6.30229">
        <ele>2096</ele>
        <time>2021-02-28T06:15:00Z</time>
      </trkpt>
      <trkpt lat="45.15428" lon="6.30229">
        <ele>2096.2</ele>
        <time>2021-02-28T06:15:01Z</time>
      </trkpt>
      <trkpt lat="45.15428" lon="6.30233">
        <ele>2096.4</ele>
        <time>2021-02-28T06:15:02Z</time>
      </trkpt>
      <trkpt lat="45.15428" lon="6.30233">
        <ele>2096.6</ele>
        <time>2021-02-28T06:15:03Z</time>
      </trkpt>
      <trkpt lat="45.15427" lon="6.30237">
        <ele>2096.8</ele>
        <time>2021-02-28T06:15:04Z</time>
      </trkpt>
      <trkpt lat="45.15427" lon="6.30237">
        <ele>2097.2</ele>
        <time>2021-02-28T06:15:05Z</time>
      </trkpt>
      <trkpt lat="45.15426" lon="6.30239">
        <ele>2097.2</ele>
        <time>2021-02-28T06:15:06Z</time>
      </trkpt>
      <trkpt lat="45.15426" lon="6.30239">
        <ele>2097.6</ele>
        <time>2021-02-28T06:15:07Z</time>
      </trkpt>
      <trkpt lat="45.15426" lon="6.30239">
        <ele>2097.8</ele>
        <time>2021-02-28T06:15:08Z</time>
      </trkpt>
      <trkpt lat="45.15426" lon="6.30243">
        <ele>2098</ele>
        <time>2021-02-28T06:15:09Z</time>
      </trkpt>
      <trkpt lat="45.15426" lon="6.30243">
        <ele>2098.2</ele>
        <time>2021-02-28T06:15:10Z</time>
      </trkpt>
      <trkpt lat="45.15426" lon="6.30243">
        <ele>2098.6</ele>
        <time>2021-02-28T06:15:11Z</time>
      </trkpt>
      <trkpt lat="45.15426" lon="6.30246">
        <ele>2098.8</ele>
        <time>2021-02-28T06:15:12Z</time>
      </trkpt>
      <trkpt lat="45.15426" lon="6.30246">
        <ele>2098.8</ele>
        <time>2021-02-28T06:15:13Z</time>
      </trkpt>
      <trkpt lat="45.15426" lon="6.30246">
        <ele>2099.4</ele>
        <time>2021-02-28T06:15:14Z</time>
      </trkpt>
      <trkpt lat="45.15425" lon="6.30248">
        <ele>2099.6</ele>
        <time>2021-02-28T06:15:15Z</time>
      </trkpt>
      <trkpt lat="45.15425" lon="6.30248">
        <ele>2100</ele>
        <time>2021-02-28T06:15:16Z</time>
      </trkpt>
      <trkpt lat="45.15425" lon="6.30248">
        <ele>2100.2</ele>
        <time>2021-02-28T06:15:17Z</time>
      </trkpt>
      <trkpt lat="45.15425" lon="6.30248">
        <ele>2100.4</ele>
        <time>2021-02-28T06:15:18Z</time>
      </trkpt>
      <trkpt lat="45.15423" lon="6.3025">
        <ele>2100.8</ele>
        <time>2021-02-28T06:15:19Z</time>
      </trkpt>
      <trkpt lat="45.15423" lon="6.3025">
        <ele>2101</ele>
        <time>2021-02-28T06:15:20Z</time>
      </trkpt>
      <trkpt lat="45.15421" lon="6.3025">
        <ele>2101.2</ele>
        <time>2021-02-28T06:15:21Z</time>
      </trkpt>
      <trkpt lat="45.15421" lon="6.3025">
        <ele>2101.6</ele>
        <time>2021-02-28T06:15:22Z</time>
      </trkpt>
      <trkpt lat="45.15421" lon="6.3025">
        <ele>2101.8</ele>
        <time>2021-02-28T06:15:23Z</time>
      </trkpt>
      <trkpt lat="45.15418" lon="6.30249">
        <ele>2102</ele>
        <time>2021-02-28T06:15:24Z</time>
      </trkpt>
      <trkpt lat="45.15418" lon="6.30249">
        <ele>2102.4</ele>
        <time>2021-02-28T06:15:25Z</time>
      </trkpt>
      <trkpt lat="45.15417" lon="6.30248">
        <ele>2102.6</ele>
        <time>2021-02-28T06:15:26Z</time>
      </trkpt>
      <trkpt lat="45.15417" lon="6.30248">
        <ele>2102.8</ele>
        <time>2021-02-28T06:15:27Z</time>
      </trkpt>
      <trkpt lat="45.15417" lon="6.30248">
        <ele>2103.4</ele>
        <time>2021-02-28T06:15:28Z</time>
      </trkpt>
      <trkpt lat="45.15417" lon="6.30248">
        <ele>2103.8</ele>
        <time>2021-02-28T06:15:29Z</time>
      </trkpt>
      <trkpt lat="45.15414" lon="6.30248">
        <ele>2104</ele>
        <time>2021-02-28T06:15:30Z</time>
      </trkpt>
      <trkpt lat="45.15414" lon="6.30248">
        <ele>2104</ele>
        <time>2021-02-28T06:15:31Z</time>
      </trkpt>
      <trkpt lat="45.15414" lon="6.30248">
        <ele>2104.6</ele>
        <time>2021-02-28T06:15:32Z</time>
      </trkpt>
      <trkpt lat="45.15412" lon="6.3025">
        <ele>2105</ele>
        <time>2021-02-28T06:15:33Z</time>
      </trkpt>
      <trkpt lat="45.15412" lon="6.3025">
        <ele>2105</ele>
        <time>2021-02-28T06:15:34Z</time>
      </trkpt>
      <trkpt lat="45.15412" lon="6.3025">
        <ele>2105.2</ele>
        <time>2021-02-28T06:15:35Z</time>
      </trkpt>
      <trkpt lat="45.1541" lon="6.30252">
        <ele>2105.2</ele>
        <time>2021-02-28T06:15:36Z</time>
      </trkpt>
      <trkpt lat="45.1541" lon="6.30252">
        <ele>2105.4</ele>
        <time>2021-02-28T06:15:37Z</time>
      </trkpt>
      <trkpt lat="45.1541" lon="6.30252">
        <ele>2105.4</ele>
        <time>2021-02-28T06:15:38Z</time>
      </trkpt>
      <trkpt lat="45.1541" lon="6.30252">
        <ele>2105.6</ele>
        <time>2021-02-28T06:15:39Z</time>
      </trkpt>
      <trkpt lat="45.1541" lon="6.30252">
        <ele>2106</ele>
        <time>2021-02-28T06:15:40Z</time>
      </trkpt>
      <trkpt lat="45.1541" lon="6.30252">
        <ele>2106.4</ele>
        <time>2021-02-28T06:15:41Z</time>
      </trkpt>
      <trkpt lat="45.1541" lon="6.30255">
        <ele>2106.8</ele>
        <time>2021-02-28T06:15:42Z</time>
      </trkpt>
      <trkpt lat="45.1541" lon="6.30255">
        <ele>2106.8</ele>
        <time>2021-02-28T06:15:43Z</time>
      </trkpt>
      <trkpt lat="45.1541" lon="6.30255">
        <ele>2106.8</ele>
        <time>2021-02-28T06:15:44Z</time>
      </trkpt>
      <trkpt lat="45.1541" lon="6.30255">
        <ele>2106.6</ele>
        <time>2021-02-28T06:15:45Z</time>
      </trkpt>
      <trkpt lat="45.15408" lon="6.30257">
        <ele>2106.6</ele>
        <time>2021-02-28T06:15:46Z</time>
      </trkpt>
      <trkpt lat="45.15408" lon="6.30257">
        <ele>2106.6</ele>
        <time>2021-02-28T06:15:47Z</time>
      </trkpt>
      <trkpt lat="45.15408" lon="6.30257">
        <ele>2106.8</ele>
        <time>2021-02-28T06:15:48Z</time>
      </trkpt>
      <trkpt lat="45.15407" lon="6.30259">
        <ele>2106.8</ele>
        <time>2021-02-28T06:15:49Z</time>
      </trkpt>
      <trkpt lat="45.15407" lon="6.30259">
        <ele>2107</ele>
        <time>2021-02-28T06:15:50Z</time>
      </trkpt>
      <trkpt lat="45.15407" lon="6.30259">
        <ele>2107.2</ele>
        <time>2021-02-28T06:15:51Z</time>
      </trkpt>
      <trkpt lat="45.15405" lon="6.30262">
        <ele>2107.2</ele>
        <time>2021-02-28T06:15:52Z</time>
      </trkpt>
      <trkpt lat="45.15405" lon="6.30262">
        <ele>2107.4</ele>
        <time>2021-02-28T06:15:53Z</time>
      </trkpt>
      <trkpt lat="45.15405" lon="6.30262">
        <ele>2107.6</ele>
        <time>2021-02-28T06:15:54Z</time>
      </trkpt>
      <trkpt lat="45.15403" lon="6.30264">
        <ele>2107.8</ele>
        <time>2021-02-28T06:15:55Z</time>
      </trkpt>
      <trkpt lat="45.15403" lon="6.30264">
        <ele>2108</ele>
        <time>2021-02-28T06:15:56Z</time>
      </trkpt>
      <trkpt lat="45.15403" lon="6.30264">
        <ele>2108.2</ele>
        <time>2021-02-28T06:15:57Z</time>
      </trkpt>
      <trkpt lat="45.15403" lon="6.30264">
        <ele>2108.4</ele>
        <time>2021-02-28T06:15:58Z</time>
      </trkpt>
      <trkpt lat="45.15403" lon="6.30266">
        <ele>2108.4</ele>
        <time>2021-02-28T06:15:59Z</time>
      </trkpt>
      <trkpt lat="45.15403" lon="6.30266">
        <ele>2108.6</ele>
        <time>2021-02-28T06:16:00Z</time>
      </trkpt>
      <trkpt lat="45.15403" lon="6.30266">
        <ele>2108.6</ele>
        <time>2021-02-28T06:16:01Z</time>
      </trkpt>
      <trkpt lat="45.15403" lon="6.30266">
        <ele>2108.8</ele>
        <time>2021-02-28T06:16:02Z</time>
      </trkpt>
      <trkpt lat="45.15403" lon="6.30266">
        <ele>2108.6</ele>
        <time>2021-02-28T06:16:03Z</time>
      </trkpt>
      <trkpt lat="45.15403" lon="6.30266">
        <ele>2108.4</ele>
        <time>2021-02-28T06:16:04Z</time>
      </trkpt>
      <trkpt lat="45.15403" lon="6.30266">
        <ele>2108.6</ele>
        <time>2021-02-28T06:16:05Z</time>
      </trkpt>
      <trkpt lat="45.15403" lon="6.30266">
        <ele>2108.6</ele>
        <time>2021-02-28T06:16:06Z</time>
      </trkpt>
      <trkpt lat="45.15403" lon="6.30266">
        <ele>2108.6</ele>
        <time>2021-02-28T06:16:07Z</time>
      </trkpt>
      <trkpt lat="45.15403" lon="6.30266">
        <ele>2108.6</ele>
        <time>2021-02-28T06:16:08Z</time>
      </trkpt>
      <trkpt lat="45.15403" lon="6.30266">
        <ele>2108.8</ele>
        <time>2021-02-28T06:16:09Z</time>
      </trkpt>
      <trkpt lat="45.15403" lon="6.30266">
        <ele>2108.6</ele>
        <time>2021-02-28T06:16:10Z</time>
      </trkpt>
      <trkpt lat="45.15403" lon="6.30266">
        <ele>2108.8</ele>
        <time>2021-02-28T06:16:11Z</time>
      </trkpt>
      <trkpt lat="45.15403" lon="6.30266">
        <ele>2108.8</ele>
        <time>2021-02-28T06:16:12Z</time>
      </trkpt>
      <trkpt lat="45.15403" lon="6.30266">
        <ele>2108.6</ele>
        <time>2021-02-28T06:16:13Z</time>
      </trkpt>
      <trkpt lat="45.15403" lon="6.30266">
        <ele>2108.8</ele>
        <time>2021-02-28T06:16:14Z</time>
      </trkpt>
      <trkpt lat="45.15403" lon="6.30266">
        <ele>2108.8</ele>
        <time>2021-02-28T06:16:15Z</time>
      </trkpt>
      <trkpt lat="45.15403" lon="6.30266">
        <ele>2108.8</ele>
        <time>2021-02-28T06:16:16Z</time>
      </trkpt>
      <trkpt lat="45.15403" lon="6.30266">
        <ele>2108.8</ele>
        <time>2021-02-28T06:16:17Z</time>
      </trkpt>
      <trkpt lat="45.15403" lon="6.30266">
        <ele>2108.8</ele>
        <time>2021-02-28T06:16:18Z</time>
      </trkpt>
      <trkpt lat="45.15403" lon="6.30266">
        <ele>2108.6</ele>
        <time>2021-02-28T06:16:19Z</time>
      </trkpt>
      <trkpt lat="45.15403" lon="6.30266">
        <ele>2108.6</ele>
        <time>2021-02-28T06:16:20Z</time>
      </trkpt>
      <trkpt lat="45.15403" lon="6.30266">
        <ele>2108.6</ele>
        <time>2021-02-28T06:16:21Z</time>
      </trkpt>
      <trkpt lat="45.15403" lon="6.30266">
        <ele>2108.6</ele>
        <time>2021-02-28T06:16:22Z</time>
      </trkpt>
      <trkpt lat="45.15403" lon="6.30266">
        <ele>2108.6</ele>
        <time>2021-02-28T06:16:23Z</time>
      </trkpt>
      <trkpt lat="45.15403" lon="6.30266">
        <ele>2108.6</ele>
        <time>2021-02-28T06:16:24Z</time>
      </trkpt>
      <trkpt lat="45.15403" lon="6.30266">
        <ele>2108.6</ele>
        <time>2021-02-28T06:16:25Z</time>
      </trkpt>
      <trkpt lat="45.15403" lon="6.30266">
        <ele>2108.8</ele>
        <time>2021-02-28T06:16:26Z</time>
      </trkpt>
      <trkpt lat="45.15403" lon="6.30266">
        <ele>2108.6</ele>
        <time>2021-02-28T06:16:27Z</time>
      </trkpt>
      <trkpt lat="45.15403" lon="6.30266">
        <ele>2108.6</ele>
        <time>2021-02-28T06:16:28Z</time>
      </trkpt>
      <trkpt lat="45.15403" lon="6.30266">
        <ele>2108.6</ele>
        <time>2021-02-28T06:16:29Z</time>
      </trkpt>
      <trkpt lat="45.15403" lon="6.30266">
        <ele>2109</ele>
        <time>2021-02-28T06:16:30Z</time>
      </trkpt>
      <trkpt lat="45.15403" lon="6.30266">
        <ele>2109</ele>
        <time>2021-02-28T06:16:31Z</time>
      </trkpt>
      <trkpt lat="45.15403" lon="6.30266">
        <ele>2108.8</ele>
        <time>2021-02-28T06:16:32Z</time>
      </trkpt>
      <trkpt lat="45.15403" lon="6.30266">
        <ele>2108.6</ele>
        <time>2021-02-28T06:16:33Z</time>
      </trkpt>
      <trkpt lat="45.15403" lon="6.30266">
        <ele>2108.6</ele>
        <time>2021-02-28T06:16:34Z</time>
      </trkpt>
      <trkpt lat="45.15403" lon="6.30266">
        <ele>2108.6</ele>
        <time>2021-02-28T06:16:35Z</time>
      </trkpt>
      <trkpt lat="45.15403" lon="6.30266">
        <ele>2108.6</ele>
        <time>2021-02-28T06:16:36Z</time>
      </trkpt>
      <trkpt lat="45.15403" lon="6.30266">
        <ele>2108.4</ele>
        <time>2021-02-28T06:16:37Z</time>
      </trkpt>
      <trkpt lat="45.15403" lon="6.30266">
        <ele>2108.2</ele>
        <time>2021-02-28T06:16:38Z</time>
      </trkpt>
      <trkpt lat="45.15403" lon="6.30266">
        <ele>2108.2</ele>
        <time>2021-02-28T06:16:39Z</time>
      </trkpt>
      <trkpt lat="45.15403" lon="6.30266">
        <ele>2108.2</ele>
        <time>2021-02-28T06:16:40Z</time>
      </trkpt>
      <trkpt lat="45.15403" lon="6.30266">
        <ele>2108.2</ele>
        <time>2021-02-28T06:16:41Z</time>
      </trkpt>
      <trkpt lat="45.15403" lon="6.30266">
        <ele>2108.4</ele>
        <time>2021-02-28T06:16:42Z</time>
      </trkpt>
      <trkpt lat="45.15403" lon="6.30266">
        <ele>2108.2</ele>
        <time>2021-02-28T06:16:43Z</time>
      </trkpt>
      <trkpt lat="45.15403" lon="6.30266">
        <ele>2108.4</ele>
        <time>2021-02-28T06:16:44Z</time>
      </trkpt>
      <trkpt lat="45.15403" lon="6.30266">
        <ele>2108.2</ele>
        <time>2021-02-28T06:16:45Z</time>
      </trkpt>
      <trkpt lat="45.15403" lon="6.30266">
        <ele>2108.4</ele>
        <time>2021-02-28T06:16:46Z</time>
      </trkpt>
      <trkpt lat="45.15403" lon="6.30266">
        <ele>2108.4</ele>
        <time>2021-02-28T06:16:47Z</time>
      </trkpt>
      <trkpt lat="45.15403" lon="6.30266">
        <ele>2108.4</ele>
        <time>2021-02-28T06:16:48Z</time>
      </trkpt>
      <trkpt lat="45.15403" lon="6.30266">
        <ele>2108.4</ele>
        <time>2021-02-28T06:16:49Z</time>
      </trkpt>
      <trkpt lat="45.15402" lon="6.30269">
        <ele>2108.2</ele>
        <time>2021-02-28T06:16:50Z</time>
      </trkpt>
      <trkpt lat="45.15402" lon="6.30269">
        <ele>2108.2</ele>
        <time>2021-02-28T06:16:51Z</time>
      </trkpt>
      <trkpt lat="45.15402" lon="6.30269">
        <ele>2108</ele>
        <time>2021-02-28T06:16:52Z</time>
      </trkpt>
      <trkpt lat="45.15402" lon="6.30269">
        <ele>2108.2</ele>
        <time>2021-02-28T06:16:53Z</time>
      </trkpt>
      <trkpt lat="45.15402" lon="6.30269">
        <ele>2108</ele>
        <time>2021-02-28T06:16:54Z</time>
      </trkpt>
      <trkpt lat="45.15402" lon="6.30269">
        <ele>2107.8</ele>
        <time>2021-02-28T06:16:55Z</time>
      </trkpt>
      <trkpt lat="45.15402" lon="6.30269">
        <ele>2108</ele>
        <time>2021-02-28T06:16:56Z</time>
      </trkpt>
      <trkpt lat="45.15402" lon="6.30269">
        <ele>2108</ele>
        <time>2021-02-28T06:16:57Z</time>
      </trkpt>
      <trkpt lat="45.15402" lon="6.30269">
        <ele>2108</ele>
        <time>2021-02-28T06:16:58Z</time>
      </trkpt>
      <trkpt lat="45.15402" lon="6.30269">
        <ele>2108</ele>
        <time>2021-02-28T06:16:59Z</time>
      </trkpt>
      <trkpt lat="45.15402" lon="6.30269">
        <ele>2108.2</ele>
        <time>2021-02-28T06:17:00Z</time>
      </trkpt>
      <trkpt lat="45.15402" lon="6.30269">
        <ele>2107.8</ele>
        <time>2021-02-28T06:17:01Z</time>
      </trkpt>
      <trkpt lat="45.15402" lon="6.30269">
        <ele>2108</ele>
        <time>2021-02-28T06:17:02Z</time>
      </trkpt>
      <trkpt lat="45.15402" lon="6.30269">
        <ele>2108</ele>
        <time>2021-02-28T06:17:03Z</time>
      </trkpt>
      <trkpt lat="45.15402" lon="6.30269">
        <ele>2108.2</ele>
        <time>2021-02-28T06:17:04Z</time>
      </trkpt>
      <trkpt lat="45.15402" lon="6.30269">
        <ele>2108.4</ele>
        <time>2021-02-28T06:17:05Z</time>
      </trkpt>
      <trkpt lat="45.15402" lon="6.30269">
        <ele>2108.4</ele>
        <time>2021-02-28T06:17:06Z</time>
      </trkpt>
      <trkpt lat="45.15402" lon="6.30269">
        <ele>2108.6</ele>
        <time>2021-02-28T06:17:07Z</time>
      </trkpt>
      <trkpt lat="45.15402" lon="6.30269">
        <ele>2108.6</ele>
        <time>2021-02-28T06:17:08Z</time>
      </trkpt>
      <trkpt lat="45.15402" lon="6.30269">
        <ele>2108.8</ele>
        <time>2021-02-28T06:17:09Z</time>
      </trkpt>
      <trkpt lat="45.15402" lon="6.30269">
        <ele>2108.8</ele>
        <time>2021-02-28T06:17:10Z</time>
      </trkpt>
      <trkpt lat="45.15402" lon="6.30269">
        <ele>2108.6</ele>
        <time>2021-02-28T06:17:11Z</time>
      </trkpt>
      <trkpt lat="45.15402" lon="6.30269">
        <ele>2108.4</ele>
        <time>2021-02-28T06:17:12Z</time>
      </trkpt>
      <trkpt lat="45.15402" lon="6.30269">
        <ele>2108.4</ele>
        <time>2021-02-28T06:17:13Z</time>
      </trkpt>
      <trkpt lat="45.15402" lon="6.30269">
        <ele>2108.4</ele>
        <time>2021-02-28T06:17:14Z</time>
      </trkpt>
      <trkpt lat="45.15402" lon="6.30269">
        <ele>2108.4</ele>
        <time>2021-02-28T06:17:15Z</time>
      </trkpt>
      <trkpt lat="45.15402" lon="6.30269">
        <ele>2108.4</ele>
        <time>2021-02-28T06:17:16Z</time>
      </trkpt>
      <trkpt lat="45.15402" lon="6.30269">
        <ele>2108.4</ele>
        <time>2021-02-28T06:17:17Z</time>
      </trkpt>
      <trkpt lat="45.15402" lon="6.30269">
        <ele>2108.4</ele>
        <time>2021-02-28T06:17:18Z</time>
      </trkpt>
      <trkpt lat="45.15402" lon="6.30269">
        <ele>2108.4</ele>
        <time>2021-02-28T06:17:19Z</time>
      </trkpt>
      <trkpt lat="45.15402" lon="6.30269">
        <ele>2108.6</ele>
        <time>2021-02-28T06:17:20Z</time>
      </trkpt>
      <trkpt lat="45.15402" lon="6.30269">
        <ele>2108.6</ele>
        <time>2021-02-28T06:17:21Z</time>
      </trkpt>
      <trkpt lat="45.15402" lon="6.30269">
        <ele>2108.4</ele>
        <time>2021-02-28T06:17:22Z</time>
      </trkpt>
      <trkpt lat="45.15402" lon="6.30269">
        <ele>2108.6</ele>
        <time>2021-02-28T06:17:23Z</time>
      </trkpt>
      <trkpt lat="45.15402" lon="6.30269">
        <ele>2108.2</ele>
        <time>2021-02-28T06:17:24Z</time>
      </trkpt>
      <trkpt lat="45.15402" lon="6.30269">
        <ele>2108</ele>
        <time>2021-02-28T06:17:25Z</time>
      </trkpt>
      <trkpt lat="45.15402" lon="6.30269">
        <ele>2108</ele>
        <time>2021-02-28T06:17:26Z</time>
      </trkpt>
      <trkpt lat="45.15402" lon="6.30269">
        <ele>2108.2</ele>
        <time>2021-02-28T06:17:27Z</time>
      </trkpt>
      <trkpt lat="45.15402" lon="6.30269">
        <ele>2108</ele>
        <time>2021-02-28T06:17:28Z</time>
      </trkpt>
      <trkpt lat="45.15402" lon="6.30269">
        <ele>2108</ele>
        <time>2021-02-28T06:17:29Z</time>
      </trkpt>
      <trkpt lat="45.15402" lon="6.30269">
        <ele>2108</ele>
        <time>2021-02-28T06:17:30Z</time>
      </trkpt>
      <trkpt lat="45.15402" lon="6.30269">
        <ele>2108.2</ele>
        <time>2021-02-28T06:17:31Z</time>
      </trkpt>
      <trkpt lat="45.15402" lon="6.30269">
        <ele>2108.2</ele>
        <time>2021-02-28T06:17:32Z</time>
      </trkpt>
      <trkpt lat="45.15402" lon="6.30269">
        <ele>2108</ele>
        <time>2021-02-28T06:17:33Z</time>
      </trkpt>
      <trkpt lat="45.15402" lon="6.30269">
        <ele>2108</ele>
        <time>2021-02-28T06:17:34Z</time>
      </trkpt>
      <trkpt lat="45.15402" lon="6.30269">
        <ele>2108</ele>
        <time>2021-02-28T06:17:35Z</time>
      </trkpt>
      <trkpt lat="45.15402" lon="6.30269">
        <ele>2108</ele>
        <time>2021-02-28T06:17:36Z</time>
      </trkpt>
      <trkpt lat="45.15401" lon="6.30271">
        <ele>2108</ele>
        <time>2021-02-28T06:17:37Z</time>
      </trkpt>
      <trkpt lat="45.15401" lon="6.30271">
        <ele>2108</ele>
        <time>2021-02-28T06:17:38Z</time>
      </trkpt>
      <trkpt lat="45.15401" lon="6.30271">
        <ele>2108</ele>
        <time>2021-02-28T06:17:39Z</time>
      </trkpt>
      <trkpt lat="45.154" lon="6.30273">
        <ele>2107.8</ele>
        <time>2021-02-28T06:17:40Z</time>
      </trkpt>
      <trkpt lat="45.154" lon="6.30273">
        <ele>2108.2</ele>
        <time>2021-02-28T06:17:41Z</time>
      </trkpt>
      <trkpt lat="45.154" lon="6.30273">
        <ele>2108.6</ele>
        <time>2021-02-28T06:17:42Z</time>
      </trkpt>
      <trkpt lat="45.15398" lon="6.30276">
        <ele>2108.6</ele>
        <time>2021-02-28T06:17:43Z</time>
      </trkpt>
      <trkpt lat="45.15398" lon="6.30276">
        <ele>2108.6</ele>
        <time>2021-02-28T06:17:44Z</time>
      </trkpt>
      <trkpt lat="45.15398" lon="6.30276">
        <ele>2109.2</ele>
        <time>2021-02-28T06:17:45Z</time>
      </trkpt>
      <trkpt lat="45.15397" lon="6.30278">
        <ele>2109.2</ele>
        <time>2021-02-28T06:17:46Z</time>
      </trkpt>
      <trkpt lat="45.15397" lon="6.30278">
        <ele>2109.6</ele>
        <time>2021-02-28T06:17:47Z</time>
      </trkpt>
      <trkpt lat="45.15397" lon="6.30278">
        <ele>2109.8</ele>
        <time>2021-02-28T06:17:48Z</time>
      </trkpt>
      <trkpt lat="45.15396" lon="6.30281">
        <ele>2110.2</ele>
        <time>2021-02-28T06:17:49Z</time>
      </trkpt>
      <trkpt lat="45.15396" lon="6.30281">
        <ele>2110.4</ele>
        <time>2021-02-28T06:17:50Z</time>
      </trkpt>
      <trkpt lat="45.15395" lon="6.30283">
        <ele>2110.8</ele>
        <time>2021-02-28T06:17:51Z</time>
      </trkpt>
      <trkpt lat="45.15395" lon="6.30283">
        <ele>2111</ele>
        <time>2021-02-28T06:17:52Z</time>
      </trkpt>
      <trkpt lat="45.15394" lon="6.30286">
        <ele>2111.6</ele>
        <time>2021-02-28T06:17:53Z</time>
      </trkpt>
      <trkpt lat="45.15394" lon="6.30286">
        <ele>2111.6</ele>
        <time>2021-02-28T06:17:54Z</time>
      </trkpt>
      <trkpt lat="45.15392" lon="6.30289">
        <ele>2111.6</ele>
        <time>2021-02-28T06:17:55Z</time>
      </trkpt>
      <trkpt lat="45.15392" lon="6.30289">
        <ele>2112</ele>
        <time>2021-02-28T06:17:56Z</time>
      </trkpt>
      <trkpt lat="45.15391" lon="6.30291">
        <ele>2112</ele>
        <time>2021-02-28T06:17:57Z</time>
      </trkpt>
      <trkpt lat="45.15391" lon="6.30291">
        <ele>2112</ele>
        <time>2021-02-28T06:17:58Z</time>
      </trkpt>
      <trkpt lat="45.15389" lon="6.30294">
        <ele>2112.4</ele>
        <time>2021-02-28T06:17:59Z</time>
      </trkpt>
      <trkpt lat="45.15389" lon="6.30294">
        <ele>2112.4</ele>
        <time>2021-02-28T06:18:00Z</time>
      </trkpt>
      <trkpt lat="45.15388" lon="6.30296">
        <ele>2112.8</ele>
        <time>2021-02-28T06:18:01Z</time>
      </trkpt>
      <trkpt lat="45.15388" lon="6.30296">
        <ele>2112.8</ele>
        <time>2021-02-28T06:18:02Z</time>
      </trkpt>
      <trkpt lat="45.15386" lon="6.30298">
        <ele>2113</ele>
        <time>2021-02-28T06:18:03Z</time>
      </trkpt>
      <trkpt lat="45.15386" lon="6.30298">
        <ele>2112.8</ele>
        <time>2021-02-28T06:18:04Z</time>
      </trkpt>
      <trkpt lat="45.15385" lon="6.303">
        <ele>2113</ele>
        <time>2021-02-28T06:18:05Z</time>
      </trkpt>
      <trkpt lat="45.15385" lon="6.303">
        <ele>2113.4</ele>
        <time>2021-02-28T06:18:06Z</time>
      </trkpt>
      <trkpt lat="45.15384" lon="6.30303">
        <ele>2113.4</ele>
        <time>2021-02-28T06:18:07Z</time>
      </trkpt>
      <trkpt lat="45.15384" lon="6.30303">
        <ele>2114.2</ele>
        <time>2021-02-28T06:18:08Z</time>
      </trkpt>
      <trkpt lat="45.15382" lon="6.30306">
        <ele>2114</ele>
        <time>2021-02-28T06:18:09Z</time>
      </trkpt>
      <trkpt lat="45.15382" lon="6.30306">
        <ele>2114</ele>
        <time>2021-02-28T06:18:10Z</time>
      </trkpt>
      <trkpt lat="45.15381" lon="6.30308">
        <ele>2114.2</ele>
        <time>2021-02-28T06:18:11Z</time>
      </trkpt>
      <trkpt lat="45.15381" lon="6.30308">
        <ele>2114.6</ele>
        <time>2021-02-28T06:18:12Z</time>
      </trkpt>
      <trkpt lat="45.15379" lon="6.3031">
        <ele>2114.8</ele>
        <time>2021-02-28T06:18:13Z</time>
      </trkpt>
      <trkpt lat="45.15379" lon="6.3031">
        <ele>2114.8</ele>
        <time>2021-02-28T06:18:14Z</time>
      </trkpt>
      <trkpt lat="45.15377" lon="6.30311">
        <ele>2115</ele>
        <time>2021-02-28T06:18:15Z</time>
      </trkpt>
      <trkpt lat="45.15377" lon="6.30311">
        <ele>2115.4</ele>
        <time>2021-02-28T06:18:16Z</time>
      </trkpt>
      <trkpt lat="45.15375" lon="6.30312">
        <ele>2115.4</ele>
        <time>2021-02-28T06:18:17Z</time>
      </trkpt>
      <trkpt lat="45.15375" lon="6.30312">
        <ele>2115.6</ele>
        <time>2021-02-28T06:18:18Z</time>
      </trkpt>
      <trkpt lat="45.15375" lon="6.30312">
        <ele>2116.2</ele>
        <time>2021-02-28T06:18:19Z</time>
      </trkpt>
      <trkpt lat="45.15375" lon="6.30312">
        <ele>2116.4</ele>
        <time>2021-02-28T06:18:20Z</time>
      </trkpt>
      <trkpt lat="45.15375" lon="6.30312">
        <ele>2116.6</ele>
        <time>2021-02-28T06:18:21Z</time>
      </trkpt>
      <trkpt lat="45.15373" lon="6.30313">
        <ele>2117</ele>
        <time>2021-02-28T06:18:22Z</time>
      </trkpt>
      <trkpt lat="45.15373" lon="6.30313">
        <ele>2117.4</ele>
        <time>2021-02-28T06:18:23Z</time>
      </trkpt>
      <trkpt lat="45.15371" lon="6.30314">
        <ele>2117.8</ele>
        <time>2021-02-28T06:18:24Z</time>
      </trkpt>
      <trkpt lat="45.15371" lon="6.30314">
        <ele>2117.8</ele>
        <time>2021-02-28T06:18:25Z</time>
      </trkpt>
      <trkpt lat="45.15369" lon="6.30316">
        <ele>2118</ele>
        <time>2021-02-28T06:18:26Z</time>
      </trkpt>
      <trkpt lat="45.15369" lon="6.30316">
        <ele>2118.6</ele>
        <time>2021-02-28T06:18:27Z</time>
      </trkpt>
      <trkpt lat="45.15366" lon="6.30317">
        <ele>2119</ele>
        <time>2021-02-28T06:18:28Z</time>
      </trkpt>
      <trkpt lat="45.15366" lon="6.30317">
        <ele>2119.2</ele>
        <time>2021-02-28T06:18:29Z</time>
      </trkpt>
      <trkpt lat="45.15366" lon="6.30317">
        <ele>2119.8</ele>
        <time>2021-02-28T06:18:30Z</time>
      </trkpt>
      <trkpt lat="45.15364" lon="6.30319">
        <ele>2119.8</ele>
        <time>2021-02-28T06:18:31Z</time>
      </trkpt>
      <trkpt lat="45.15364" lon="6.30319">
        <ele>2120</ele>
        <time>2021-02-28T06:18:32Z</time>
      </trkpt>
      <trkpt lat="45.15362" lon="6.3032">
        <ele>2120.4</ele>
        <time>2021-02-28T06:18:33Z</time>
      </trkpt>
      <trkpt lat="45.15362" lon="6.3032">
        <ele>2120.4</ele>
        <time>2021-02-28T06:18:34Z</time>
      </trkpt>
      <trkpt lat="45.1536" lon="6.30322">
        <ele>2121.2</ele>
        <time>2021-02-28T06:18:35Z</time>
      </trkpt>
      <trkpt lat="45.1536" lon="6.30322">
        <ele>2121.6</ele>
        <time>2021-02-28T06:18:36Z</time>
      </trkpt>
      <trkpt lat="45.15358" lon="6.30324">
        <ele>2121.6</ele>
        <time>2021-02-28T06:18:37Z</time>
      </trkpt>
      <trkpt lat="45.15358" lon="6.30324">
        <ele>2122.2</ele>
        <time>2021-02-28T06:18:38Z</time>
      </trkpt>
      <trkpt lat="45.15357" lon="6.30327">
        <ele>2122.4</ele>
        <time>2021-02-28T06:18:39Z</time>
      </trkpt>
      <trkpt lat="45.15357" lon="6.30327">
        <ele>2122.8</ele>
        <time>2021-02-28T06:18:40Z</time>
      </trkpt>
      <trkpt lat="45.15355" lon="6.30329">
        <ele>2123</ele>
        <time>2021-02-28T06:18:41Z</time>
      </trkpt>
      <trkpt lat="45.15355" lon="6.30329">
        <ele>2123.4</ele>
        <time>2021-02-28T06:18:42Z</time>
      </trkpt>
      <trkpt lat="45.15354" lon="6.30331">
        <ele>2124.2</ele>
        <time>2021-02-28T06:18:43Z</time>
      </trkpt>
      <trkpt lat="45.15354" lon="6.30331">
        <ele>2124.2</ele>
        <time>2021-02-28T06:18:44Z</time>
      </trkpt>
      <trkpt lat="45.15353" lon="6.30334">
        <ele>2124.4</ele>
        <time>2021-02-28T06:18:45Z</time>
      </trkpt>
      <trkpt lat="45.15353" lon="6.30334">
        <ele>2124.8</ele>
        <time>2021-02-28T06:18:46Z</time>
      </trkpt>
      <trkpt lat="45.15352" lon="6.30336">
        <ele>2125</ele>
        <time>2021-02-28T06:18:47Z</time>
      </trkpt>
      <trkpt lat="45.15352" lon="6.30336">
        <ele>2125</ele>
        <time>2021-02-28T06:18:48Z</time>
      </trkpt>
      <trkpt lat="45.15351" lon="6.30339">
        <ele>2125.4</ele>
        <time>2021-02-28T06:18:49Z</time>
      </trkpt>
      <trkpt lat="45.15351" lon="6.30339">
        <ele>2125.4</ele>
        <time>2021-02-28T06:18:50Z</time>
      </trkpt>
      <trkpt lat="45.15349" lon="6.30341">
        <ele>2125.8</ele>
        <time>2021-02-28T06:18:51Z</time>
      </trkpt>
      <trkpt lat="45.15349" lon="6.30341">
        <ele>2126.4</ele>
        <time>2021-02-28T06:18:52Z</time>
      </trkpt>
      <trkpt lat="45.15349" lon="6.30341">
        <ele>2126.8</ele>
        <time>2021-02-28T06:18:53Z</time>
      </trkpt>
      <trkpt lat="45.15347" lon="6.30344">
        <ele>2127.4</ele>
        <time>2021-02-28T06:18:54Z</time>
      </trkpt>
      <trkpt lat="45.15347" lon="6.30344">
        <ele>2127.8</ele>
        <time>2021-02-28T06:18:55Z</time>
      </trkpt>
      <trkpt lat="45.15346" lon="6.30346">
        <ele>2128</ele>
        <time>2021-02-28T06:18:56Z</time>
      </trkpt>
      <trkpt lat="45.15346" lon="6.30346">
        <ele>2127.6</ele>
        <time>2021-02-28T06:18:57Z</time>
      </trkpt>
      <trkpt lat="45.15345" lon="6.30348">
        <ele>2127.8</ele>
        <time>2021-02-28T06:18:58Z</time>
      </trkpt>
      <trkpt lat="45.15345" lon="6.30348">
        <ele>2128</ele>
        <time>2021-02-28T06:18:59Z</time>
      </trkpt>
      <trkpt lat="45.15343" lon="6.3035">
        <ele>2128</ele>
        <time>2021-02-28T06:19:00Z</time>
      </trkpt>
      <trkpt lat="45.15343" lon="6.3035">
        <ele>2128.6</ele>
        <time>2021-02-28T06:19:01Z</time>
      </trkpt>
      <trkpt lat="45.15342" lon="6.30353">
        <ele>2128.6</ele>
        <time>2021-02-28T06:19:02Z</time>
      </trkpt>
      <trkpt lat="45.15342" lon="6.30353">
        <ele>2128.6</ele>
        <time>2021-02-28T06:19:03Z</time>
      </trkpt>
      <trkpt lat="45.15341" lon="6.30355">
        <ele>2129.2</ele>
        <time>2021-02-28T06:19:04Z</time>
      </trkpt>
      <trkpt lat="45.15341" lon="6.30355">
        <ele>2129.2</ele>
        <time>2021-02-28T06:19:05Z</time>
      </trkpt>
      <trkpt lat="45.15339" lon="6.30357">
        <ele>2129.2</ele>
        <time>2021-02-28T06:19:06Z</time>
      </trkpt>
      <trkpt lat="45.15339" lon="6.30357">
        <ele>2129.6</ele>
        <time>2021-02-28T06:19:07Z</time>
      </trkpt>
      <trkpt lat="45.15339" lon="6.30357">
        <ele>2129.6</ele>
        <time>2021-02-28T06:19:08Z</time>
      </trkpt>
      <trkpt lat="45.15339" lon="6.30357">
        <ele>2129.8</ele>
        <time>2021-02-28T06:19:09Z</time>
      </trkpt>
      <trkpt lat="45.15339" lon="6.30357">
        <ele>2130.2</ele>
        <time>2021-02-28T06:19:10Z</time>
      </trkpt>
      <trkpt lat="45.15338" lon="6.3036">
        <ele>2130</ele>
        <time>2021-02-28T06:19:11Z</time>
      </trkpt>
      <trkpt lat="45.15338" lon="6.3036">
        <ele>2130.4</ele>
        <time>2021-02-28T06:19:12Z</time>
      </trkpt>
      <trkpt lat="45.15336" lon="6.30362">
        <ele>2130.6</ele>
        <time>2021-02-28T06:19:13Z</time>
      </trkpt>
      <trkpt lat="45.15336" lon="6.30362">
        <ele>2130.6</ele>
        <time>2021-02-28T06:19:14Z</time>
      </trkpt>
      <trkpt lat="45.15335" lon="6.30364">
        <ele>2131.4</ele>
        <time>2021-02-28T06:19:15Z</time>
      </trkpt>
      <trkpt lat="45.15335" lon="6.30364">
        <ele>2131.4</ele>
        <time>2021-02-28T06:19:16Z</time>
      </trkpt>
      <trkpt lat="45.15333" lon="6.30367">
        <ele>2131.6</ele>
        <time>2021-02-28T06:19:17Z</time>
      </trkpt>
      <trkpt lat="45.15333" lon="6.30367">
        <ele>2132</ele>
        <time>2021-02-28T06:19:18Z</time>
      </trkpt>
      <trkpt lat="45.15331" lon="6.30369">
        <ele>2132.2</ele>
        <time>2021-02-28T06:19:19Z</time>
      </trkpt>
      <trkpt lat="45.15331" lon="6.30369">
        <ele>2132.2</ele>
        <time>2021-02-28T06:19:20Z</time>
      </trkpt>
      <trkpt lat="45.1533" lon="6.30372">
        <ele>2132.6</ele>
        <time>2021-02-28T06:19:21Z</time>
      </trkpt>
      <trkpt lat="45.1533" lon="6.30372">
        <ele>2132.6</ele>
        <time>2021-02-28T06:19:22Z</time>
      </trkpt>
      <trkpt lat="45.1533" lon="6.30372">
        <ele>2132.8</ele>
        <time>2021-02-28T06:19:23Z</time>
      </trkpt>
      <trkpt lat="45.15328" lon="6.30374">
        <ele>2132.8</ele>
        <time>2021-02-28T06:19:24Z</time>
      </trkpt>
      <trkpt lat="45.15328" lon="6.30374">
        <ele>2132.8</ele>
        <time>2021-02-28T06:19:25Z</time>
      </trkpt>
      <trkpt lat="45.15327" lon="6.30376">
        <ele>2133</ele>
        <time>2021-02-28T06:19:26Z</time>
      </trkpt>
      <trkpt lat="45.15327" lon="6.30376">
        <ele>2133</ele>
        <time>2021-02-28T06:19:27Z</time>
      </trkpt>
      <trkpt lat="45.15327" lon="6.30376">
        <ele>2133.4</ele>
        <time>2021-02-28T06:19:28Z</time>
      </trkpt>
      <trkpt lat="45.15326" lon="6.30379">
        <ele>2133.4</ele>
        <time>2021-02-28T06:19:29Z</time>
      </trkpt>
      <trkpt lat="45.15326" lon="6.30379">
        <ele>2133.4</ele>
        <time>2021-02-28T06:19:30Z</time>
      </trkpt>
      <trkpt lat="45.15324" lon="6.30381">
        <ele>2133.2</ele>
        <time>2021-02-28T06:19:31Z</time>
      </trkpt>
      <trkpt lat="45.15324" lon="6.30381">
        <ele>2133.6</ele>
        <time>2021-02-28T06:19:32Z</time>
      </trkpt>
      <trkpt lat="45.15323" lon="6.30384">
        <ele>2133.6</ele>
        <time>2021-02-28T06:19:33Z</time>
      </trkpt>
      <trkpt lat="45.15323" lon="6.30384">
        <ele>2134</ele>
        <time>2021-02-28T06:19:34Z</time>
      </trkpt>
      <trkpt lat="45.15323" lon="6.30384">
        <ele>2134.4</ele>
        <time>2021-02-28T06:19:35Z</time>
      </trkpt>
      <trkpt lat="45.15322" lon="6.30387">
        <ele>2134.8</ele>
        <time>2021-02-28T06:19:36Z</time>
      </trkpt>
      <trkpt lat="45.15322" lon="6.30387">
        <ele>2135</ele>
        <time>2021-02-28T06:19:37Z</time>
      </trkpt>
      <trkpt lat="45.15322" lon="6.30387">
        <ele>2134.8</ele>
        <time>2021-02-28T06:19:38Z</time>
      </trkpt>
      <trkpt lat="45.1532" lon="6.30391">
        <ele>2134.8</ele>
        <time>2021-02-28T06:19:39Z</time>
      </trkpt>
      <trkpt lat="45.1532" lon="6.30391">
        <ele>2134.8</ele>
        <time>2021-02-28T06:19:40Z</time>
      </trkpt>
      <trkpt lat="45.15319" lon="6.30394">
        <ele>2135</ele>
        <time>2021-02-28T06:19:41Z</time>
      </trkpt>
      <trkpt lat="45.15319" lon="6.30394">
        <ele>2135</ele>
        <time>2021-02-28T06:19:42Z</time>
      </trkpt>
      <trkpt lat="45.15317" lon="6.30398">
        <ele>2135</ele>
        <time>2021-02-28T06:19:43Z</time>
      </trkpt>
      <trkpt lat="45.15316" lon="6.304">
        <ele>2135</ele>
        <time>2021-02-28T06:19:44Z</time>
      </trkpt>
      <trkpt lat="45.15315" lon="6.30402">
        <ele>2134.8</ele>
        <time>2021-02-28T06:19:45Z</time>
      </trkpt>
      <trkpt lat="45.15315" lon="6.30402">
        <ele>2135.2</ele>
        <time>2021-02-28T06:19:46Z</time>
      </trkpt>
      <trkpt lat="45.15313" lon="6.30405">
        <ele>2135</ele>
        <time>2021-02-28T06:19:47Z</time>
      </trkpt>
      <trkpt lat="45.15313" lon="6.30405">
        <ele>2135</ele>
        <time>2021-02-28T06:19:48Z</time>
      </trkpt>
      <trkpt lat="45.15311" lon="6.30408">
        <ele>2134.8</ele>
        <time>2021-02-28T06:19:49Z</time>
      </trkpt>
      <trkpt lat="45.15311" lon="6.30408">
        <ele>2135</ele>
        <time>2021-02-28T06:19:50Z</time>
      </trkpt>
      <trkpt lat="45.1531" lon="6.30411">
        <ele>2135.4</ele>
        <time>2021-02-28T06:19:51Z</time>
      </trkpt>
      <trkpt lat="45.1531" lon="6.30411">
        <ele>2135.4</ele>
        <time>2021-02-28T06:19:52Z</time>
      </trkpt>
      <trkpt lat="45.15308" lon="6.30414">
        <ele>2135.6</ele>
        <time>2021-02-28T06:19:53Z</time>
      </trkpt>
      <trkpt lat="45.15308" lon="6.30414">
        <ele>2136</ele>
        <time>2021-02-28T06:19:54Z</time>
      </trkpt>
      <trkpt lat="45.15307" lon="6.30417">
        <ele>2136.2</ele>
        <time>2021-02-28T06:19:55Z</time>
      </trkpt>
      <trkpt lat="45.15307" lon="6.30417">
        <ele>2136.6</ele>
        <time>2021-02-28T06:19:56Z</time>
      </trkpt>
      <trkpt lat="45.15305" lon="6.30419">
        <ele>2136.8</ele>
        <time>2021-02-28T06:19:57Z</time>
      </trkpt>
      <trkpt lat="45.15305" lon="6.30419">
        <ele>2136.8</ele>
        <time>2021-02-28T06:19:58Z</time>
      </trkpt>
      <trkpt lat="45.15304" lon="6.30422">
        <ele>2137.2</ele>
        <time>2021-02-28T06:19:59Z</time>
      </trkpt>
      <trkpt lat="45.15304" lon="6.30422">
        <ele>2137</ele>
        <time>2021-02-28T06:20:00Z</time>
      </trkpt>
      <trkpt lat="45.15303" lon="6.30424">
        <ele>2137.6</ele>
        <time>2021-02-28T06:20:01Z</time>
      </trkpt>
      <trkpt lat="45.15303" lon="6.30424">
        <ele>2137.6</ele>
        <time>2021-02-28T06:20:02Z</time>
      </trkpt>
      <trkpt lat="45.15301" lon="6.30426">
        <ele>2137.4</ele>
        <time>2021-02-28T06:20:03Z</time>
      </trkpt>
      <trkpt lat="45.15301" lon="6.30426">
        <ele>2137.8</ele>
        <time>2021-02-28T06:20:04Z</time>
      </trkpt>
      <trkpt lat="45.15299" lon="6.30428">
        <ele>2138</ele>
        <time>2021-02-28T06:20:05Z</time>
      </trkpt>
      <trkpt lat="45.15299" lon="6.30428">
        <ele>2138.2</ele>
        <time>2021-02-28T06:20:06Z</time>
      </trkpt>
      <trkpt lat="45.15297" lon="6.3043">
        <ele>2138.6</ele>
        <time>2021-02-28T06:20:07Z</time>
      </trkpt>
      <trkpt lat="45.15297" lon="6.3043">
        <ele>2139</ele>
        <time>2021-02-28T06:20:08Z</time>
      </trkpt>
      <trkpt lat="45.15296" lon="6.30432">
        <ele>2139.4</ele>
        <time>2021-02-28T06:20:09Z</time>
      </trkpt>
      <trkpt lat="45.15296" lon="6.30432">
        <ele>2139.6</ele>
        <time>2021-02-28T06:20:10Z</time>
      </trkpt>
      <trkpt lat="45.15295" lon="6.30434">
        <ele>2139.6</ele>
        <time>2021-02-28T06:20:11Z</time>
      </trkpt>
      <trkpt lat="45.15295" lon="6.30434">
        <ele>2139.8</ele>
        <time>2021-02-28T06:20:12Z</time>
      </trkpt>
      <trkpt lat="45.15294" lon="6.30436">
        <ele>2140.2</ele>
        <time>2021-02-28T06:20:13Z</time>
      </trkpt>
      <trkpt lat="45.15294" lon="6.30436">
        <ele>2140.2</ele>
        <time>2021-02-28T06:20:14Z</time>
      </trkpt>
      <trkpt lat="45.15292" lon="6.30438">
        <ele>2140.4</ele>
        <time>2021-02-28T06:20:15Z</time>
      </trkpt>
      <trkpt lat="45.15292" lon="6.30438">
        <ele>2140.6</ele>
        <time>2021-02-28T06:20:16Z</time>
      </trkpt>
      <trkpt lat="45.1529" lon="6.30439">
        <ele>2140.8</ele>
        <time>2021-02-28T06:20:17Z</time>
      </trkpt>
      <trkpt lat="45.1529" lon="6.30439">
        <ele>2141.2</ele>
        <time>2021-02-28T06:20:18Z</time>
      </trkpt>
      <trkpt lat="45.15288" lon="6.30442">
        <ele>2141.2</ele>
        <time>2021-02-28T06:20:19Z</time>
      </trkpt>
      <trkpt lat="45.15288" lon="6.30442">
        <ele>2141</ele>
        <time>2021-02-28T06:20:20Z</time>
      </trkpt>
      <trkpt lat="45.15287" lon="6.30444">
        <ele>2141.4</ele>
        <time>2021-02-28T06:20:21Z</time>
      </trkpt>
      <trkpt lat="45.15287" lon="6.30444">
        <ele>2141.4</ele>
        <time>2021-02-28T06:20:22Z</time>
      </trkpt>
      <trkpt lat="45.15285" lon="6.30446">
        <ele>2141.6</ele>
        <time>2021-02-28T06:20:23Z</time>
      </trkpt>
      <trkpt lat="45.15285" lon="6.30446">
        <ele>2142.2</ele>
        <time>2021-02-28T06:20:24Z</time>
      </trkpt>
      <trkpt lat="45.15283" lon="6.30448">
        <ele>2142.4</ele>
        <time>2021-02-28T06:20:25Z</time>
      </trkpt>
      <trkpt lat="45.15283" lon="6.30448">
        <ele>2142.8</ele>
        <time>2021-02-28T06:20:26Z</time>
      </trkpt>
      <trkpt lat="45.15281" lon="6.3045">
        <ele>2142.8</ele>
        <time>2021-02-28T06:20:27Z</time>
      </trkpt>
      <trkpt lat="45.15281" lon="6.3045">
        <ele>2143</ele>
        <time>2021-02-28T06:20:28Z</time>
      </trkpt>
      <trkpt lat="45.1528" lon="6.30452">
        <ele>2143.4</ele>
        <time>2021-02-28T06:20:29Z</time>
      </trkpt>
      <trkpt lat="45.1528" lon="6.30452">
        <ele>2143.4</ele>
        <time>2021-02-28T06:20:30Z</time>
      </trkpt>
      <trkpt lat="45.15278" lon="6.30455">
        <ele>2143.6</ele>
        <time>2021-02-28T06:20:31Z</time>
      </trkpt>
      <trkpt lat="45.15278" lon="6.30455">
        <ele>2143.8</ele>
        <time>2021-02-28T06:20:32Z</time>
      </trkpt>
      <trkpt lat="45.15276" lon="6.30457">
        <ele>2143.8</ele>
        <time>2021-02-28T06:20:33Z</time>
      </trkpt>
      <trkpt lat="45.15276" lon="6.30457">
        <ele>2144.4</ele>
        <time>2021-02-28T06:20:34Z</time>
      </trkpt>
      <trkpt lat="45.15275" lon="6.3046">
        <ele>2144.6</ele>
        <time>2021-02-28T06:20:35Z</time>
      </trkpt>
      <trkpt lat="45.15275" lon="6.3046">
        <ele>2144.6</ele>
        <time>2021-02-28T06:20:36Z</time>
      </trkpt>
      <trkpt lat="45.15273" lon="6.30463">
        <ele>2144.8</ele>
        <time>2021-02-28T06:20:37Z</time>
      </trkpt>
      <trkpt lat="45.15273" lon="6.30463">
        <ele>2144.8</ele>
        <time>2021-02-28T06:20:38Z</time>
      </trkpt>
      <trkpt lat="45.15271" lon="6.30465">
        <ele>2145</ele>
        <time>2021-02-28T06:20:39Z</time>
      </trkpt>
      <trkpt lat="45.15271" lon="6.30465">
        <ele>2145</ele>
        <time>2021-02-28T06:20:40Z</time>
      </trkpt>
      <trkpt lat="45.15269" lon="6.30468">
        <ele>2145</ele>
        <time>2021-02-28T06:20:41Z</time>
      </trkpt>
      <trkpt lat="45.15269" lon="6.30468">
        <ele>2145.6</ele>
        <time>2021-02-28T06:20:42Z</time>
      </trkpt>
      <trkpt lat="45.15267" lon="6.30471">
        <ele>2145.4</ele>
        <time>2021-02-28T06:20:43Z</time>
      </trkpt>
      <trkpt lat="45.15267" lon="6.30471">
        <ele>2145.4</ele>
        <time>2021-02-28T06:20:44Z</time>
      </trkpt>
      <trkpt lat="45.15265" lon="6.30473">
        <ele>2145.8</ele>
        <time>2021-02-28T06:20:45Z</time>
      </trkpt>
      <trkpt lat="45.15265" lon="6.30473">
        <ele>2145.6</ele>
        <time>2021-02-28T06:20:46Z</time>
      </trkpt>
      <trkpt lat="45.15263" lon="6.30476">
        <ele>2145.8</ele>
        <time>2021-02-28T06:20:47Z</time>
      </trkpt>
      <trkpt lat="45.15263" lon="6.30476">
        <ele>2146.2</ele>
        <time>2021-02-28T06:20:48Z</time>
      </trkpt>
      <trkpt lat="45.15262" lon="6.30479">
        <ele>2146.4</ele>
        <time>2021-02-28T06:20:49Z</time>
      </trkpt>
      <trkpt lat="45.15262" lon="6.30479">
        <ele>2146.8</ele>
        <time>2021-02-28T06:20:50Z</time>
      </trkpt>
      <trkpt lat="45.1526" lon="6.30481">
        <ele>2147</ele>
        <time>2021-02-28T06:20:51Z</time>
      </trkpt>
      <trkpt lat="45.1526" lon="6.30481">
        <ele>2146.8</ele>
        <time>2021-02-28T06:20:52Z</time>
      </trkpt>
      <trkpt lat="45.15259" lon="6.30484">
        <ele>2147</ele>
        <time>2021-02-28T06:20:53Z</time>
      </trkpt>
      <trkpt lat="45.15259" lon="6.30484">
        <ele>2147.2</ele>
        <time>2021-02-28T06:20:54Z</time>
      </trkpt>
      <trkpt lat="45.15257" lon="6.30486">
        <ele>2147.6</ele>
        <time>2021-02-28T06:20:55Z</time>
      </trkpt>
      <trkpt lat="45.15257" lon="6.30486">
        <ele>2147.8</ele>
        <time>2021-02-28T06:20:56Z</time>
      </trkpt>
      <trkpt lat="45.15256" lon="6.30489">
        <ele>2147.8</ele>
        <time>2021-02-28T06:20:57Z</time>
      </trkpt>
      <trkpt lat="45.15256" lon="6.30489">
        <ele>2148</ele>
        <time>2021-02-28T06:20:58Z</time>
      </trkpt>
      <trkpt lat="45.15254" lon="6.30492">
        <ele>2148.2</ele>
        <time>2021-02-28T06:20:59Z</time>
      </trkpt>
      <trkpt lat="45.15254" lon="6.30492">
        <ele>2148.4</ele>
        <time>2021-02-28T06:21:00Z</time>
      </trkpt>
      <trkpt lat="45.15253" lon="6.30494">
        <ele>2148.6</ele>
        <time>2021-02-28T06:21:01Z</time>
      </trkpt>
      <trkpt lat="45.15253" lon="6.30494">
        <ele>2148.8</ele>
        <time>2021-02-28T06:21:02Z</time>
      </trkpt>
      <trkpt lat="45.15251" lon="6.30496">
        <ele>2149.2</ele>
        <time>2021-02-28T06:21:03Z</time>
      </trkpt>
      <trkpt lat="45.15251" lon="6.30496">
        <ele>2149</ele>
        <time>2021-02-28T06:21:04Z</time>
      </trkpt>
      <trkpt lat="45.15249" lon="6.30499">
        <ele>2149</ele>
        <time>2021-02-28T06:21:05Z</time>
      </trkpt>
      <trkpt lat="45.15249" lon="6.30499">
        <ele>2149.2</ele>
        <time>2021-02-28T06:21:06Z</time>
      </trkpt>
      <trkpt lat="45.15249" lon="6.30499">
        <ele>2149.8</ele>
        <time>2021-02-28T06:21:07Z</time>
      </trkpt>
      <trkpt lat="45.15247" lon="6.30501">
        <ele>2149.8</ele>
        <time>2021-02-28T06:21:08Z</time>
      </trkpt>
      <trkpt lat="45.15247" lon="6.30501">
        <ele>2150</ele>
        <time>2021-02-28T06:21:09Z</time>
      </trkpt>
      <trkpt lat="45.15245" lon="6.30502">
        <ele>2150.2</ele>
        <time>2021-02-28T06:21:10Z</time>
      </trkpt>
      <trkpt lat="45.15245" lon="6.30502">
        <ele>2151</ele>
        <time>2021-02-28T06:21:11Z</time>
      </trkpt>
      <trkpt lat="45.15244" lon="6.30504">
        <ele>2151</ele>
        <time>2021-02-28T06:21:12Z</time>
      </trkpt>
      <trkpt lat="45.15244" lon="6.30504">
        <ele>2151.2</ele>
        <time>2021-02-28T06:21:13Z</time>
      </trkpt>
      <trkpt lat="45.15242" lon="6.30506">
        <ele>2151.4</ele>
        <time>2021-02-28T06:21:14Z</time>
      </trkpt>
      <trkpt lat="45.15242" lon="6.30506">
        <ele>2151.8</ele>
        <time>2021-02-28T06:21:15Z</time>
      </trkpt>
      <trkpt lat="45.15241" lon="6.30508">
        <ele>2152</ele>
        <time>2021-02-28T06:21:16Z</time>
      </trkpt>
      <trkpt lat="45.15241" lon="6.30508">
        <ele>2152.4</ele>
        <time>2021-02-28T06:21:17Z</time>
      </trkpt>
      <trkpt lat="45.1524" lon="6.30511">
        <ele>2152.6</ele>
        <time>2021-02-28T06:21:18Z</time>
      </trkpt>
      <trkpt lat="45.1524" lon="6.30511">
        <ele>2153</ele>
        <time>2021-02-28T06:21:19Z</time>
      </trkpt>
      <trkpt lat="45.15238" lon="6.30513">
        <ele>2153.2</ele>
        <time>2021-02-28T06:21:20Z</time>
      </trkpt>
      <trkpt lat="45.15238" lon="6.30513">
        <ele>2153.2</ele>
        <time>2021-02-28T06:21:21Z</time>
      </trkpt>
      <trkpt lat="45.15237" lon="6.30515">
        <ele>2153.2</ele>
        <time>2021-02-28T06:21:22Z</time>
      </trkpt>
      <trkpt lat="45.15237" lon="6.30515">
        <ele>2153.4</ele>
        <time>2021-02-28T06:21:23Z</time>
      </trkpt>
      <trkpt lat="45.15237" lon="6.30515">
        <ele>2153.2</ele>
        <time>2021-02-28T06:21:24Z</time>
      </trkpt>
      <trkpt lat="45.15237" lon="6.30515">
        <ele>2153.2</ele>
        <time>2021-02-28T06:21:25Z</time>
      </trkpt>
      <trkpt lat="45.15237" lon="6.30515">
        <ele>2153.8</ele>
        <time>2021-02-28T06:21:26Z</time>
      </trkpt>
      <trkpt lat="45.15237" lon="6.30515">
        <ele>2154</ele>
        <time>2021-02-28T06:21:27Z</time>
      </trkpt>
      <trkpt lat="45.15237" lon="6.30515">
        <ele>2154.2</ele>
        <time>2021-02-28T06:21:28Z</time>
      </trkpt>
      <trkpt lat="45.15237" lon="6.30515">
        <ele>2154.4</ele>
        <time>2021-02-28T06:21:29Z</time>
      </trkpt>
      <trkpt lat="45.15237" lon="6.30515">
        <ele>2154.6</ele>
        <time>2021-02-28T06:21:30Z</time>
      </trkpt>
      <trkpt lat="45.15237" lon="6.30515">
        <ele>2154.6</ele>
        <time>2021-02-28T06:21:31Z</time>
      </trkpt>
      <trkpt lat="45.15237" lon="6.30515">
        <ele>2154.8</ele>
        <time>2021-02-28T06:21:32Z</time>
      </trkpt>
      <trkpt lat="45.15237" lon="6.30515">
        <ele>2155</ele>
        <time>2021-02-28T06:21:33Z</time>
      </trkpt>
      <trkpt lat="45.15237" lon="6.30515">
        <ele>2155</ele>
        <time>2021-02-28T06:21:34Z</time>
      </trkpt>
      <trkpt lat="45.15237" lon="6.30515">
        <ele>2154.8</ele>
        <time>2021-02-28T06:21:35Z</time>
      </trkpt>
      <trkpt lat="45.15236" lon="6.30517">
        <ele>2154.8</ele>
        <time>2021-02-28T06:21:36Z</time>
      </trkpt>
      <trkpt lat="45.15236" lon="6.30517">
        <ele>2154.6</ele>
        <time>2021-02-28T06:21:37Z</time>
      </trkpt>
      <trkpt lat="45.15236" lon="6.30517">
        <ele>2154.6</ele>
        <time>2021-02-28T06:21:38Z</time>
      </trkpt>
      <trkpt lat="45.15236" lon="6.30517">
        <ele>2154.8</ele>
        <time>2021-02-28T06:21:39Z</time>
      </trkpt>
      <trkpt lat="45.15236" lon="6.30517">
        <ele>2154.8</ele>
        <time>2021-02-28T06:21:40Z</time>
      </trkpt>
      <trkpt lat="45.15236" lon="6.30517">
        <ele>2154.6</ele>
        <time>2021-02-28T06:21:41Z</time>
      </trkpt>
      <trkpt lat="45.15236" lon="6.30517">
        <ele>2154.6</ele>
        <time>2021-02-28T06:21:42Z</time>
      </trkpt>
      <trkpt lat="45.15236" lon="6.30517">
        <ele>2154.6</ele>
        <time>2021-02-28T06:21:43Z</time>
      </trkpt>
      <trkpt lat="45.15236" lon="6.30517">
        <ele>2154.6</ele>
        <time>2021-02-28T06:21:44Z</time>
      </trkpt>
      <trkpt lat="45.15236" lon="6.30517">
        <ele>2154.6</ele>
        <time>2021-02-28T06:21:45Z</time>
      </trkpt>
      <trkpt lat="45.15236" lon="6.30517">
        <ele>2154.6</ele>
        <time>2021-02-28T06:21:46Z</time>
      </trkpt>
      <trkpt lat="45.15236" lon="6.30517">
        <ele>2154.4</ele>
        <time>2021-02-28T06:21:47Z</time>
      </trkpt>
      <trkpt lat="45.15236" lon="6.30517">
        <ele>2154.4</ele>
        <time>2021-02-28T06:21:48Z</time>
      </trkpt>
      <trkpt lat="45.15236" lon="6.30517">
        <ele>2154.6</ele>
        <time>2021-02-28T06:21:49Z</time>
      </trkpt>
      <trkpt lat="45.15236" lon="6.30517">
        <ele>2154.8</ele>
        <time>2021-02-28T06:21:50Z</time>
      </trkpt>
      <trkpt lat="45.15236" lon="6.30517">
        <ele>2154.8</ele>
        <time>2021-02-28T06:21:51Z</time>
      </trkpt>
      <trkpt lat="45.15236" lon="6.30517">
        <ele>2155</ele>
        <time>2021-02-28T06:21:52Z</time>
      </trkpt>
      <trkpt lat="45.15236" lon="6.30517">
        <ele>2155.2</ele>
        <time>2021-02-28T06:21:53Z</time>
      </trkpt>
      <trkpt lat="45.15236" lon="6.30517">
        <ele>2155.2</ele>
        <time>2021-02-28T06:21:54Z</time>
      </trkpt>
      <trkpt lat="45.15236" lon="6.30517">
        <ele>2155.2</ele>
        <time>2021-02-28T06:21:55Z</time>
      </trkpt>
      <trkpt lat="45.15236" lon="6.30517">
        <ele>2155.6</ele>
        <time>2021-02-28T06:21:56Z</time>
      </trkpt>
      <trkpt lat="45.15236" lon="6.30517">
        <ele>2155.8</ele>
        <time>2021-02-28T06:21:57Z</time>
      </trkpt>
      <trkpt lat="45.15236" lon="6.30517">
        <ele>2155.6</ele>
        <time>2021-02-28T06:21:58Z</time>
      </trkpt>
      <trkpt lat="45.15236" lon="6.30517">
        <ele>2155.6</ele>
        <time>2021-02-28T06:21:59Z</time>
      </trkpt>
      <trkpt lat="45.15236" lon="6.30517">
        <ele>2155.8</ele>
        <time>2021-02-28T06:22:00Z</time>
      </trkpt>
      <trkpt lat="45.15235" lon="6.3052">
        <ele>2155.8</ele>
        <time>2021-02-28T06:22:01Z</time>
      </trkpt>
      <trkpt lat="45.15235" lon="6.3052">
        <ele>2155.8</ele>
        <time>2021-02-28T06:22:02Z</time>
      </trkpt>
      <trkpt lat="45.15235" lon="6.3052">
        <ele>2155.6</ele>
        <time>2021-02-28T06:22:03Z</time>
      </trkpt>
      <trkpt lat="45.15235" lon="6.3052">
        <ele>2155.6</ele>
        <time>2021-02-28T06:22:04Z</time>
      </trkpt>
      <trkpt lat="45.15235" lon="6.3052">
        <ele>2155.6</ele>
        <time>2021-02-28T06:22:05Z</time>
      </trkpt>
      <trkpt lat="45.15235" lon="6.3052">
        <ele>2155.6</ele>
        <time>2021-02-28T06:22:06Z</time>
      </trkpt>
      <trkpt lat="45.15235" lon="6.3052">
        <ele>2155.6</ele>
        <time>2021-02-28T06:22:07Z</time>
      </trkpt>
      <trkpt lat="45.15235" lon="6.3052">
        <ele>2155.6</ele>
        <time>2021-02-28T06:22:08Z</time>
      </trkpt>
      <trkpt lat="45.15235" lon="6.3052">
        <ele>2155.4</ele>
        <time>2021-02-28T06:22:09Z</time>
      </trkpt>
      <trkpt lat="45.15235" lon="6.3052">
        <ele>2155.6</ele>
        <time>2021-02-28T06:22:10Z</time>
      </trkpt>
      <trkpt lat="45.15235" lon="6.3052">
        <ele>2155.4</ele>
        <time>2021-02-28T06:22:11Z</time>
      </trkpt>
      <trkpt lat="45.15235" lon="6.3052">
        <ele>2155.4</ele>
        <time>2021-02-28T06:22:12Z</time>
      </trkpt>
      <trkpt lat="45.15235" lon="6.3052">
        <ele>2154.8</ele>
        <time>2021-02-28T06:22:13Z</time>
      </trkpt>
      <trkpt lat="45.15235" lon="6.3052">
        <ele>2155.2</ele>
        <time>2021-02-28T06:22:14Z</time>
      </trkpt>
      <trkpt lat="45.15235" lon="6.3052">
        <ele>2155.8</ele>
        <time>2021-02-28T06:22:15Z</time>
      </trkpt>
      <trkpt lat="45.15235" lon="6.3052">
        <ele>2156</ele>
        <time>2021-02-28T06:22:16Z</time>
      </trkpt>
      <trkpt lat="45.15235" lon="6.3052">
        <ele>2156.2</ele>
        <time>2021-02-28T06:22:17Z</time>
      </trkpt>
      <trkpt lat="45.15235" lon="6.3052">
        <ele>2156.2</ele>
        <time>2021-02-28T06:22:18Z</time>
      </trkpt>
      <trkpt lat="45.15235" lon="6.3052">
        <ele>2156.4</ele>
        <time>2021-02-28T06:22:19Z</time>
      </trkpt>
      <trkpt lat="45.15235" lon="6.3052">
        <ele>2156.4</ele>
        <time>2021-02-28T06:22:20Z</time>
      </trkpt>
      <trkpt lat="45.15235" lon="6.3052">
        <ele>2156</ele>
        <time>2021-02-28T06:22:21Z</time>
      </trkpt>
      <trkpt lat="45.15235" lon="6.3052">
        <ele>2155.8</ele>
        <time>2021-02-28T06:22:22Z</time>
      </trkpt>
      <trkpt lat="45.15235" lon="6.3052">
        <ele>2156</ele>
        <time>2021-02-28T06:22:23Z</time>
      </trkpt>
      <trkpt lat="45.15235" lon="6.3052">
        <ele>2155.6</ele>
        <time>2021-02-28T06:22:24Z</time>
      </trkpt>
      <trkpt lat="45.15235" lon="6.3052">
        <ele>2155.6</ele>
        <time>2021-02-28T06:22:25Z</time>
      </trkpt>
      <trkpt lat="45.15235" lon="6.3052">
        <ele>2155.4</ele>
        <time>2021-02-28T06:22:26Z</time>
      </trkpt>
      <trkpt lat="45.15235" lon="6.3052">
        <ele>2155.4</ele>
        <time>2021-02-28T06:22:27Z</time>
      </trkpt>
      <trkpt lat="45.15235" lon="6.3052">
        <ele>2155.4</ele>
        <time>2021-02-28T06:22:28Z</time>
      </trkpt>
      <trkpt lat="45.15235" lon="6.3052">
        <ele>2155.4</ele>
        <time>2021-02-28T06:22:29Z</time>
      </trkpt>
      <trkpt lat="45.15235" lon="6.3052">
        <ele>2155.2</ele>
        <time>2021-02-28T06:22:30Z</time>
      </trkpt>
      <trkpt lat="45.15235" lon="6.3052">
        <ele>2155.4</ele>
        <time>2021-02-28T06:22:31Z</time>
      </trkpt>
      <trkpt lat="45.15235" lon="6.3052">
        <ele>2155.4</ele>
        <time>2021-02-28T06:22:32Z</time>
      </trkpt>
      <trkpt lat="45.15235" lon="6.3052">
        <ele>2155.2</ele>
        <time>2021-02-28T06:22:33Z</time>
      </trkpt>
      <trkpt lat="45.15235" lon="6.3052">
        <ele>2155.2</ele>
        <time>2021-02-28T06:22:34Z</time>
      </trkpt>
      <trkpt lat="45.15235" lon="6.3052">
        <ele>2155</ele>
        <time>2021-02-28T06:22:35Z</time>
      </trkpt>
      <trkpt lat="45.15235" lon="6.3052">
        <ele>2154.8</ele>
        <time>2021-02-28T06:22:36Z</time>
      </trkpt>
      <trkpt lat="45.15235" lon="6.3052">
        <ele>2155</ele>
        <time>2021-02-28T06:22:37Z</time>
      </trkpt>
      <trkpt lat="45.15235" lon="6.3052">
        <ele>2155.2</ele>
        <time>2021-02-28T06:22:38Z</time>
      </trkpt>
      <trkpt lat="45.15235" lon="6.3052">
        <ele>2155.2</ele>
        <time>2021-02-28T06:22:39Z</time>
      </trkpt>
      <trkpt lat="45.15235" lon="6.3052">
        <ele>2155.2</ele>
        <time>2021-02-28T06:22:40Z</time>
      </trkpt>
      <trkpt lat="45.15235" lon="6.3052">
        <ele>2154.8</ele>
        <time>2021-02-28T06:22:41Z</time>
      </trkpt>
      <trkpt lat="45.15235" lon="6.3052">
        <ele>2155</ele>
        <time>2021-02-28T06:22:42Z</time>
      </trkpt>
      <trkpt lat="45.15235" lon="6.3052">
        <ele>2154.8</ele>
        <time>2021-02-28T06:22:43Z</time>
      </trkpt>
      <trkpt lat="45.15235" lon="6.3052">
        <ele>2155.4</ele>
        <time>2021-02-28T06:22:44Z</time>
      </trkpt>
      <trkpt lat="45.15235" lon="6.3052">
        <ele>2155.4</ele>
        <time>2021-02-28T06:22:45Z</time>
      </trkpt>
      <trkpt lat="45.15235" lon="6.3052">
        <ele>2155.4</ele>
        <time>2021-02-28T06:22:46Z</time>
      </trkpt>
      <trkpt lat="45.15235" lon="6.3052">
        <ele>2155.6</ele>
        <time>2021-02-28T06:22:47Z</time>
      </trkpt>
      <trkpt lat="45.15235" lon="6.3052">
        <ele>2155.6</ele>
        <time>2021-02-28T06:22:48Z</time>
      </trkpt>
      <trkpt lat="45.15235" lon="6.3052">
        <ele>2155.4</ele>
        <time>2021-02-28T06:22:49Z</time>
      </trkpt>
      <trkpt lat="45.15235" lon="6.3052">
        <ele>2155.6</ele>
        <time>2021-02-28T06:22:50Z</time>
      </trkpt>
      <trkpt lat="45.15235" lon="6.3052">
        <ele>2155.4</ele>
        <time>2021-02-28T06:22:51Z</time>
      </trkpt>
      <trkpt lat="45.15235" lon="6.3052">
        <ele>2155.4</ele>
        <time>2021-02-28T06:22:52Z</time>
      </trkpt>
      <trkpt lat="45.15235" lon="6.3052">
        <ele>2155</ele>
        <time>2021-02-28T06:22:53Z</time>
      </trkpt>
      <trkpt lat="45.15235" lon="6.3052">
        <ele>2155.2</ele>
        <time>2021-02-28T06:22:54Z</time>
      </trkpt>
      <trkpt lat="45.15235" lon="6.3052">
        <ele>2155</ele>
        <time>2021-02-28T06:22:55Z</time>
      </trkpt>
      <trkpt lat="45.15235" lon="6.3052">
        <ele>2154.2</ele>
        <time>2021-02-28T06:22:56Z</time>
      </trkpt>
      <trkpt lat="45.15235" lon="6.3052">
        <ele>2154.4</ele>
        <time>2021-02-28T06:22:57Z</time>
      </trkpt>
      <trkpt lat="45.15235" lon="6.3052">
        <ele>2154.4</ele>
        <time>2021-02-28T06:22:58Z</time>
      </trkpt>
      <trkpt lat="45.15235" lon="6.3052">
        <ele>2155</ele>
        <time>2021-02-28T06:22:59Z</time>
      </trkpt>
      <trkpt lat="45.15235" lon="6.3052">
        <ele>2155.6</ele>
        <time>2021-02-28T06:23:00Z</time>
      </trkpt>
      <trkpt lat="45.15235" lon="6.3052">
        <ele>2155.8</ele>
        <time>2021-02-28T06:23:01Z</time>
      </trkpt>
      <trkpt lat="45.15235" lon="6.3052">
        <ele>2154.8</ele>
        <time>2021-02-28T06:23:02Z</time>
      </trkpt>
      <trkpt lat="45.15235" lon="6.3052">
        <ele>2154.8</ele>
        <time>2021-02-28T06:23:03Z</time>
      </trkpt>
      <trkpt lat="45.15235" lon="6.3052">
        <ele>2154.6</ele>
        <time>2021-02-28T06:23:04Z</time>
      </trkpt>
      <trkpt lat="45.15235" lon="6.3052">
        <ele>2154.8</ele>
        <time>2021-02-28T06:23:05Z</time>
      </trkpt>
      <trkpt lat="45.15235" lon="6.3052">
        <ele>2155</ele>
        <time>2021-02-28T06:23:06Z</time>
      </trkpt>
      <trkpt lat="45.15235" lon="6.3052">
        <ele>2155</ele>
        <time>2021-02-28T06:23:07Z</time>
      </trkpt>
      <trkpt lat="45.15233" lon="6.30521">
        <ele>2155</ele>
        <time>2021-02-28T06:23:08Z</time>
      </trkpt>
      <trkpt lat="45.15233" lon="6.30521">
        <ele>2155</ele>
        <time>2021-02-28T06:23:09Z</time>
      </trkpt>
      <trkpt lat="45.15233" lon="6.30521">
        <ele>2155.4</ele>
        <time>2021-02-28T06:23:10Z</time>
      </trkpt>
      <trkpt lat="45.15233" lon="6.30524">
        <ele>2155.2</ele>
        <time>2021-02-28T06:23:11Z</time>
      </trkpt>
      <trkpt lat="45.15233" lon="6.30524">
        <ele>2154.8</ele>
        <time>2021-02-28T06:23:12Z</time>
      </trkpt>
      <trkpt lat="45.15233" lon="6.30527">
        <ele>2155</ele>
        <time>2021-02-28T06:23:13Z</time>
      </trkpt>
      <trkpt lat="45.15233" lon="6.30527">
        <ele>2155.4</ele>
        <time>2021-02-28T06:23:14Z</time>
      </trkpt>
      <trkpt lat="45.15233" lon="6.3053">
        <ele>2155.8</ele>
        <time>2021-02-28T06:23:15Z</time>
      </trkpt>
      <trkpt lat="45.15233" lon="6.3053">
        <ele>2155.4</ele>
        <time>2021-02-28T06:23:16Z</time>
      </trkpt>
      <trkpt lat="45.15232" lon="6.30532">
        <ele>2155.4</ele>
        <time>2021-02-28T06:23:17Z</time>
      </trkpt>
      <trkpt lat="45.15232" lon="6.30532">
        <ele>2155.6</ele>
        <time>2021-02-28T06:23:18Z</time>
      </trkpt>
      <trkpt lat="45.15231" lon="6.30536">
        <ele>2156</ele>
        <time>2021-02-28T06:23:19Z</time>
      </trkpt>
      <trkpt lat="45.15231" lon="6.30536">
        <ele>2156.4</ele>
        <time>2021-02-28T06:23:20Z</time>
      </trkpt>
      <trkpt lat="45.15229" lon="6.30538">
        <ele>2156.2</ele>
        <time>2021-02-28T06:23:21Z</time>
      </trkpt>
      <trkpt lat="45.15229" lon="6.30538">
        <ele>2156.6</ele>
        <time>2021-02-28T06:23:22Z</time>
      </trkpt>
      <trkpt lat="45.15228" lon="6.30541">
        <ele>2156.4</ele>
        <time>2021-02-28T06:23:23Z</time>
      </trkpt>
      <trkpt lat="45.15228" lon="6.30541">
        <ele>2156.4</ele>
        <time>2021-02-28T06:23:24Z</time>
      </trkpt>
      <trkpt lat="45.15226" lon="6.30544">
        <ele>2156.8</ele>
        <time>2021-02-28T06:23:25Z</time>
      </trkpt>
      <trkpt lat="45.15226" lon="6.30544">
        <ele>2156.8</ele>
        <time>2021-02-28T06:23:26Z</time>
      </trkpt>
      <trkpt lat="45.15225" lon="6.30546">
        <ele>2157.4</ele>
        <time>2021-02-28T06:23:27Z</time>
      </trkpt>
      <trkpt lat="45.15225" lon="6.30546">
        <ele>2157.2</ele>
        <time>2021-02-28T06:23:28Z</time>
      </trkpt>
      <trkpt lat="45.15223" lon="6.3055">
        <ele>2156.6</ele>
        <time>2021-02-28T06:23:29Z</time>
      </trkpt>
      <trkpt lat="45.15223" lon="6.3055">
        <ele>2157.2</ele>
        <time>2021-02-28T06:23:30Z</time>
      </trkpt>
      <trkpt lat="45.15222" lon="6.30552">
        <ele>2157.4</ele>
        <time>2021-02-28T06:23:31Z</time>
      </trkpt>
      <trkpt lat="45.15222" lon="6.30552">
        <ele>2157.8</ele>
        <time>2021-02-28T06:23:32Z</time>
      </trkpt>
      <trkpt lat="45.15222" lon="6.30552">
        <ele>2158</ele>
        <time>2021-02-28T06:23:33Z</time>
      </trkpt>
      <trkpt lat="45.1522" lon="6.30555">
        <ele>2158</ele>
        <time>2021-02-28T06:23:34Z</time>
      </trkpt>
      <trkpt lat="45.1522" lon="6.30555">
        <ele>2158.2</ele>
        <time>2021-02-28T06:23:35Z</time>
      </trkpt>
      <trkpt lat="45.1522" lon="6.30557">
        <ele>2158.2</ele>
        <time>2021-02-28T06:23:36Z</time>
      </trkpt>
      <trkpt lat="45.1522" lon="6.30557">
        <ele>2158.6</ele>
        <time>2021-02-28T06:23:37Z</time>
      </trkpt>
      <trkpt lat="45.15219" lon="6.3056">
        <ele>2158.4</ele>
        <time>2021-02-28T06:23:38Z</time>
      </trkpt>
      <trkpt lat="45.15219" lon="6.3056">
        <ele>2158.6</ele>
        <time>2021-02-28T06:23:39Z</time>
      </trkpt>
      <trkpt lat="45.15218" lon="6.30563">
        <ele>2158.6</ele>
        <time>2021-02-28T06:23:40Z</time>
      </trkpt>
      <trkpt lat="45.15218" lon="6.30563">
        <ele>2158.8</ele>
        <time>2021-02-28T06:23:41Z</time>
      </trkpt>
      <trkpt lat="45.15217" lon="6.30565">
        <ele>2159</ele>
        <time>2021-02-28T06:23:42Z</time>
      </trkpt>
      <trkpt lat="45.15217" lon="6.30565">
        <ele>2159.4</ele>
        <time>2021-02-28T06:23:43Z</time>
      </trkpt>
      <trkpt lat="45.15217" lon="6.30568">
        <ele>2159.6</ele>
        <time>2021-02-28T06:23:44Z</time>
      </trkpt>
      <trkpt lat="45.15217" lon="6.30568">
        <ele>2159</ele>
        <time>2021-02-28T06:23:45Z</time>
      </trkpt>
      <trkpt lat="45.15216" lon="6.30571">
        <ele>2159.6</ele>
        <time>2021-02-28T06:23:46Z</time>
      </trkpt>
      <trkpt lat="45.15216" lon="6.30571">
        <ele>2159.8</ele>
        <time>2021-02-28T06:23:47Z</time>
      </trkpt>
      <trkpt lat="45.15216" lon="6.30574">
        <ele>2160.2</ele>
        <time>2021-02-28T06:23:48Z</time>
      </trkpt>
      <trkpt lat="45.15216" lon="6.30574">
        <ele>2160.4</ele>
        <time>2021-02-28T06:23:49Z</time>
      </trkpt>
      <trkpt lat="45.15214" lon="6.30577">
        <ele>2159.6</ele>
        <time>2021-02-28T06:23:50Z</time>
      </trkpt>
      <trkpt lat="45.15214" lon="6.30577">
        <ele>2160.2</ele>
        <time>2021-02-28T06:23:51Z</time>
      </trkpt>
      <trkpt lat="45.15213" lon="6.3058">
        <ele>2160.2</ele>
        <time>2021-02-28T06:23:52Z</time>
      </trkpt>
      <trkpt lat="45.15213" lon="6.3058">
        <ele>2160.6</ele>
        <time>2021-02-28T06:23:53Z</time>
      </trkpt>
      <trkpt lat="45.15212" lon="6.30584">
        <ele>2160.8</ele>
        <time>2021-02-28T06:23:54Z</time>
      </trkpt>
      <trkpt lat="45.15212" lon="6.30584">
        <ele>2160.6</ele>
        <time>2021-02-28T06:23:55Z</time>
      </trkpt>
      <trkpt lat="45.15211" lon="6.30587">
        <ele>2161</ele>
        <time>2021-02-28T06:23:56Z</time>
      </trkpt>
      <trkpt lat="45.15211" lon="6.30587">
        <ele>2160.6</ele>
        <time>2021-02-28T06:23:57Z</time>
      </trkpt>
      <trkpt lat="45.1521" lon="6.3059">
        <ele>2161</ele>
        <time>2021-02-28T06:23:58Z</time>
      </trkpt>
      <trkpt lat="45.1521" lon="6.3059">
        <ele>2161.4</ele>
        <time>2021-02-28T06:23:59Z</time>
      </trkpt>
      <trkpt lat="45.15208" lon="6.30593">
        <ele>2161</ele>
        <time>2021-02-28T06:24:00Z</time>
      </trkpt>
      <trkpt lat="45.15208" lon="6.30593">
        <ele>2161.2</ele>
        <time>2021-02-28T06:24:01Z</time>
      </trkpt>
      <trkpt lat="45.15207" lon="6.30597">
        <ele>2161.4</ele>
        <time>2021-02-28T06:24:02Z</time>
      </trkpt>
      <trkpt lat="45.15207" lon="6.30597">
        <ele>2161.8</ele>
        <time>2021-02-28T06:24:03Z</time>
      </trkpt>
      <trkpt lat="45.15205" lon="6.306">
        <ele>2162.4</ele>
        <time>2021-02-28T06:24:04Z</time>
      </trkpt>
      <trkpt lat="45.15205" lon="6.306">
        <ele>2162</ele>
        <time>2021-02-28T06:24:05Z</time>
      </trkpt>
      <trkpt lat="45.15204" lon="6.30602">
        <ele>2162.2</ele>
        <time>2021-02-28T06:24:06Z</time>
      </trkpt>
      <trkpt lat="45.15204" lon="6.30602">
        <ele>2162.2</ele>
        <time>2021-02-28T06:24:07Z</time>
      </trkpt>
      <trkpt lat="45.15203" lon="6.30605">
        <ele>2161.4</ele>
        <time>2021-02-28T06:24:08Z</time>
      </trkpt>
      <trkpt lat="45.15203" lon="6.30605">
        <ele>2161.6</ele>
        <time>2021-02-28T06:24:09Z</time>
      </trkpt>
      <trkpt lat="45.15201" lon="6.30607">
        <ele>2161.2</ele>
        <time>2021-02-28T06:24:10Z</time>
      </trkpt>
      <trkpt lat="45.15201" lon="6.30607">
        <ele>2161.4</ele>
        <time>2021-02-28T06:24:11Z</time>
      </trkpt>
      <trkpt lat="45.152" lon="6.3061">
        <ele>2161.6</ele>
        <time>2021-02-28T06:24:12Z</time>
      </trkpt>
      <trkpt lat="45.152" lon="6.3061">
        <ele>2161.6</ele>
        <time>2021-02-28T06:24:13Z</time>
      </trkpt>
      <trkpt lat="45.15198" lon="6.30613">
        <ele>2162</ele>
        <time>2021-02-28T06:24:14Z</time>
      </trkpt>
      <trkpt lat="45.15198" lon="6.30613">
        <ele>2162</ele>
        <time>2021-02-28T06:24:15Z</time>
      </trkpt>
      <trkpt lat="45.15198" lon="6.30616">
        <ele>2162.2</ele>
        <time>2021-02-28T06:24:16Z</time>
      </trkpt>
      <trkpt lat="45.15198" lon="6.30616">
        <ele>2162.4</ele>
        <time>2021-02-28T06:24:17Z</time>
      </trkpt>
      <trkpt lat="45.15197" lon="6.30619">
        <ele>2162.2</ele>
        <time>2021-02-28T06:24:18Z</time>
      </trkpt>
      <trkpt lat="45.15197" lon="6.30619">
        <ele>2162.8</ele>
        <time>2021-02-28T06:24:19Z</time>
      </trkpt>
      <trkpt lat="45.15195" lon="6.30623">
        <ele>2162.2</ele>
        <time>2021-02-28T06:24:20Z</time>
      </trkpt>
      <trkpt lat="45.15195" lon="6.30623">
        <ele>2161.8</ele>
        <time>2021-02-28T06:24:21Z</time>
      </trkpt>
      <trkpt lat="45.15193" lon="6.30626">
        <ele>2162.2</ele>
        <time>2021-02-28T06:24:22Z</time>
      </trkpt>
      <trkpt lat="45.15193" lon="6.30626">
        <ele>2162.2</ele>
        <time>2021-02-28T06:24:23Z</time>
      </trkpt>
      <trkpt lat="45.15191" lon="6.30629">
        <ele>2162.6</ele>
        <time>2021-02-28T06:24:24Z</time>
      </trkpt>
      <trkpt lat="45.15191" lon="6.30629">
        <ele>2162.2</ele>
        <time>2021-02-28T06:24:25Z</time>
      </trkpt>
      <trkpt lat="45.15189" lon="6.30632">
        <ele>2161.8</ele>
        <time>2021-02-28T06:24:26Z</time>
      </trkpt>
      <trkpt lat="45.15189" lon="6.30632">
        <ele>2162.2</ele>
        <time>2021-02-28T06:24:27Z</time>
      </trkpt>
      <trkpt lat="45.15188" lon="6.30635">
        <ele>2162.4</ele>
        <time>2021-02-28T06:24:28Z</time>
      </trkpt>
      <trkpt lat="45.15188" lon="6.30635">
        <ele>2162.6</ele>
        <time>2021-02-28T06:24:29Z</time>
      </trkpt>
      <trkpt lat="45.15186" lon="6.30637">
        <ele>2162.6</ele>
        <time>2021-02-28T06:24:30Z</time>
      </trkpt>
      <trkpt lat="45.15186" lon="6.30637">
        <ele>2162</ele>
        <time>2021-02-28T06:24:31Z</time>
      </trkpt>
      <trkpt lat="45.15183" lon="6.3064">
        <ele>2162.4</ele>
        <time>2021-02-28T06:24:32Z</time>
      </trkpt>
      <trkpt lat="45.15183" lon="6.3064">
        <ele>2162</ele>
        <time>2021-02-28T06:24:33Z</time>
      </trkpt>
      <trkpt lat="45.15181" lon="6.30643">
        <ele>2161.8</ele>
        <time>2021-02-28T06:24:34Z</time>
      </trkpt>
      <trkpt lat="45.15179" lon="6.30645">
        <ele>2162</ele>
        <time>2021-02-28T06:24:35Z</time>
      </trkpt>
      <trkpt lat="45.15179" lon="6.30645">
        <ele>2161.8</ele>
        <time>2021-02-28T06:24:36Z</time>
      </trkpt>
      <trkpt lat="45.15177" lon="6.30648">
        <ele>2162</ele>
        <time>2021-02-28T06:24:37Z</time>
      </trkpt>
      <trkpt lat="45.15176" lon="6.3065">
        <ele>2162.2</ele>
        <time>2021-02-28T06:24:38Z</time>
      </trkpt>
      <trkpt lat="45.15176" lon="6.3065">
        <ele>2162.2</ele>
        <time>2021-02-28T06:24:39Z</time>
      </trkpt>
      <trkpt lat="45.15173" lon="6.30653">
        <ele>2162.2</ele>
        <time>2021-02-28T06:24:40Z</time>
      </trkpt>
      <trkpt lat="45.15172" lon="6.30656">
        <ele>2162.2</ele>
        <time>2021-02-28T06:24:41Z</time>
      </trkpt>
      <trkpt lat="45.15172" lon="6.30656">
        <ele>2162.2</ele>
        <time>2021-02-28T06:24:42Z</time>
      </trkpt>
      <trkpt lat="45.15171" lon="6.30659">
        <ele>2161.6</ele>
        <time>2021-02-28T06:24:43Z</time>
      </trkpt>
      <trkpt lat="45.15171" lon="6.30659">
        <ele>2161.8</ele>
        <time>2021-02-28T06:24:44Z</time>
      </trkpt>
      <trkpt lat="45.15169" lon="6.30663">
        <ele>2161.6</ele>
        <time>2021-02-28T06:24:45Z</time>
      </trkpt>
      <trkpt lat="45.15169" lon="6.30663">
        <ele>2162</ele>
        <time>2021-02-28T06:24:46Z</time>
      </trkpt>
      <trkpt lat="45.15168" lon="6.30666">
        <ele>2161.8</ele>
        <time>2021-02-28T06:24:47Z</time>
      </trkpt>
      <trkpt lat="45.15168" lon="6.30666">
        <ele>2161.2</ele>
        <time>2021-02-28T06:24:48Z</time>
      </trkpt>
      <trkpt lat="45.15167" lon="6.3067">
        <ele>2161.8</ele>
        <time>2021-02-28T06:24:49Z</time>
      </trkpt>
      <trkpt lat="45.15167" lon="6.3067">
        <ele>2161.8</ele>
        <time>2021-02-28T06:24:50Z</time>
      </trkpt>
      <trkpt lat="45.15166" lon="6.30673">
        <ele>2162.2</ele>
        <time>2021-02-28T06:24:51Z</time>
      </trkpt>
      <trkpt lat="45.15166" lon="6.30673">
        <ele>2162.4</ele>
        <time>2021-02-28T06:24:52Z</time>
      </trkpt>
      <trkpt lat="45.15164" lon="6.30676">
        <ele>2161.8</ele>
        <time>2021-02-28T06:24:53Z</time>
      </trkpt>
      <trkpt lat="45.15164" lon="6.30676">
        <ele>2162</ele>
        <time>2021-02-28T06:24:54Z</time>
      </trkpt>
      <trkpt lat="45.15163" lon="6.3068">
        <ele>2161.8</ele>
        <time>2021-02-28T06:24:55Z</time>
      </trkpt>
      <trkpt lat="45.15163" lon="6.3068">
        <ele>2162.4</ele>
        <time>2021-02-28T06:24:56Z</time>
      </trkpt>
      <trkpt lat="45.15161" lon="6.30685">
        <ele>2162</ele>
        <time>2021-02-28T06:24:57Z</time>
      </trkpt>
      <trkpt lat="45.15161" lon="6.30685">
        <ele>2161.6</ele>
        <time>2021-02-28T06:24:58Z</time>
      </trkpt>
      <trkpt lat="45.1516" lon="6.30688">
        <ele>2161.6</ele>
        <time>2021-02-28T06:24:59Z</time>
      </trkpt>
      <trkpt lat="45.1516" lon="6.30688">
        <ele>2161.6</ele>
        <time>2021-02-28T06:25:00Z</time>
      </trkpt>
      <trkpt lat="45.15157" lon="6.3069">
        <ele>2161.4</ele>
        <time>2021-02-28T06:25:01Z</time>
      </trkpt>
      <trkpt lat="45.15157" lon="6.3069">
        <ele>2161.8</ele>
        <time>2021-02-28T06:25:02Z</time>
      </trkpt>
      <trkpt lat="45.15155" lon="6.30691">
        <ele>2161</ele>
        <time>2021-02-28T06:25:03Z</time>
      </trkpt>
      <trkpt lat="45.15155" lon="6.30691">
        <ele>2161.2</ele>
        <time>2021-02-28T06:25:04Z</time>
      </trkpt>
      <trkpt lat="45.15153" lon="6.30691">
        <ele>2161.8</ele>
        <time>2021-02-28T06:25:05Z</time>
      </trkpt>
      <trkpt lat="45.15153" lon="6.30691">
        <ele>2162</ele>
        <time>2021-02-28T06:25:06Z</time>
      </trkpt>
      <trkpt lat="45.15153" lon="6.30691">
        <ele>2162.2</ele>
        <time>2021-02-28T06:25:07Z</time>
      </trkpt>
      <trkpt lat="45.15151" lon="6.30689">
        <ele>2162.2</ele>
        <time>2021-02-28T06:25:08Z</time>
      </trkpt>
      <trkpt lat="45.15151" lon="6.30689">
        <ele>2162.2</ele>
        <time>2021-02-28T06:25:09Z</time>
      </trkpt>
      <trkpt lat="45.15151" lon="6.30689">
        <ele>2162.6</ele>
        <time>2021-02-28T06:25:10Z</time>
      </trkpt>
      <trkpt lat="45.15147" lon="6.30689">
        <ele>2162.8</ele>
        <time>2021-02-28T06:25:11Z</time>
      </trkpt>
      <trkpt lat="45.15147" lon="6.30689">
        <ele>2163.4</ele>
        <time>2021-02-28T06:25:12Z</time>
      </trkpt>
      <trkpt lat="45.15145" lon="6.3069">
        <ele>2164</ele>
        <time>2021-02-28T06:25:13Z</time>
      </trkpt>
      <trkpt lat="45.15145" lon="6.3069">
        <ele>2164.2</ele>
        <time>2021-02-28T06:25:14Z</time>
      </trkpt>
      <trkpt lat="45.15143" lon="6.3069">
        <ele>2164.2</ele>
        <time>2021-02-28T06:25:15Z</time>
      </trkpt>
      <trkpt lat="45.15143" lon="6.3069">
        <ele>2164.6</ele>
        <time>2021-02-28T06:25:16Z</time>
      </trkpt>
      <trkpt lat="45.15141" lon="6.3069">
        <ele>2164.4</ele>
        <time>2021-02-28T06:25:17Z</time>
      </trkpt>
      <trkpt lat="45.15141" lon="6.3069">
        <ele>2164.4</ele>
        <time>2021-02-28T06:25:18Z</time>
      </trkpt>
      <trkpt lat="45.15138" lon="6.3069">
        <ele>2164.6</ele>
        <time>2021-02-28T06:25:19Z</time>
      </trkpt>
      <trkpt lat="45.15138" lon="6.3069">
        <ele>2164.8</ele>
        <time>2021-02-28T06:25:20Z</time>
      </trkpt>
      <trkpt lat="45.15136" lon="6.3069">
        <ele>2165</ele>
        <time>2021-02-28T06:25:21Z</time>
      </trkpt>
      <trkpt lat="45.15136" lon="6.3069">
        <ele>2165.2</ele>
        <time>2021-02-28T06:25:22Z</time>
      </trkpt>
      <trkpt lat="45.15134" lon="6.30689">
        <ele>2165.2</ele>
        <time>2021-02-28T06:25:23Z</time>
      </trkpt>
      <trkpt lat="45.15134" lon="6.30689">
        <ele>2165.6</ele>
        <time>2021-02-28T06:25:24Z</time>
      </trkpt>
      <trkpt lat="45.15134" lon="6.30689">
        <ele>2166</ele>
        <time>2021-02-28T06:25:25Z</time>
      </trkpt>
      <trkpt lat="45.15132" lon="6.30689">
        <ele>2166.4</ele>
        <time>2021-02-28T06:25:26Z</time>
      </trkpt>
      <trkpt lat="45.15132" lon="6.30689">
        <ele>2166.6</ele>
        <time>2021-02-28T06:25:27Z</time>
      </trkpt>
      <trkpt lat="45.15132" lon="6.30689">
        <ele>2166.8</ele>
        <time>2021-02-28T06:25:28Z</time>
      </trkpt>
      <trkpt lat="45.1513" lon="6.3069">
        <ele>2167.2</ele>
        <time>2021-02-28T06:25:29Z</time>
      </trkpt>
      <trkpt lat="45.1513" lon="6.3069">
        <ele>2166.8</ele>
        <time>2021-02-28T06:25:30Z</time>
      </trkpt>
      <trkpt lat="45.15128" lon="6.3069">
        <ele>2167</ele>
        <time>2021-02-28T06:25:31Z</time>
      </trkpt>
      <trkpt lat="45.15128" lon="6.3069">
        <ele>2167.4</ele>
        <time>2021-02-28T06:25:32Z</time>
      </trkpt>
      <trkpt lat="45.15128" lon="6.3069">
        <ele>2167</ele>
        <time>2021-02-28T06:25:33Z</time>
      </trkpt>
      <trkpt lat="45.15126" lon="6.30691">
        <ele>2166.4</ele>
        <time>2021-02-28T06:25:34Z</time>
      </trkpt>
      <trkpt lat="45.15126" lon="6.30691">
        <ele>2167</ele>
        <time>2021-02-28T06:25:35Z</time>
      </trkpt>
      <trkpt lat="45.15124" lon="6.30692">
        <ele>2167.2</ele>
        <time>2021-02-28T06:25:36Z</time>
      </trkpt>
      <trkpt lat="45.15124" lon="6.30692">
        <ele>2167.6</ele>
        <time>2021-02-28T06:25:37Z</time>
      </trkpt>
      <trkpt lat="45.15122" lon="6.30694">
        <ele>2168</ele>
        <time>2021-02-28T06:25:38Z</time>
      </trkpt>
      <trkpt lat="45.15122" lon="6.30694">
        <ele>2168</ele>
        <time>2021-02-28T06:25:39Z</time>
      </trkpt>
      <trkpt lat="45.1512" lon="6.30695">
        <ele>2168.4</ele>
        <time>2021-02-28T06:25:40Z</time>
      </trkpt>
      <trkpt lat="45.1512" lon="6.30695">
        <ele>2168.4</ele>
        <time>2021-02-28T06:25:41Z</time>
      </trkpt>
      <trkpt lat="45.15118" lon="6.30697">
        <ele>2168</ele>
        <time>2021-02-28T06:25:42Z</time>
      </trkpt>
      <trkpt lat="45.15118" lon="6.30697">
        <ele>2168.4</ele>
        <time>2021-02-28T06:25:43Z</time>
      </trkpt>
      <trkpt lat="45.15116" lon="6.30699">
        <ele>2168.2</ele>
        <time>2021-02-28T06:25:44Z</time>
      </trkpt>
      <trkpt lat="45.15116" lon="6.30699">
        <ele>2168.6</ele>
        <time>2021-02-28T06:25:45Z</time>
      </trkpt>
      <trkpt lat="45.15114" lon="6.30702">
        <ele>2168.8</ele>
        <time>2021-02-28T06:25:46Z</time>
      </trkpt>
      <trkpt lat="45.15114" lon="6.30702">
        <ele>2169</ele>
        <time>2021-02-28T06:25:47Z</time>
      </trkpt>
      <trkpt lat="45.15113" lon="6.30705">
        <ele>2168.2</ele>
        <time>2021-02-28T06:25:48Z</time>
      </trkpt>
      <trkpt lat="45.15113" lon="6.30705">
        <ele>2168.2</ele>
        <time>2021-02-28T06:25:49Z</time>
      </trkpt>
      <trkpt lat="45.15111" lon="6.30708">
        <ele>2168.8</ele>
        <time>2021-02-28T06:25:50Z</time>
      </trkpt>
      <trkpt lat="45.15111" lon="6.30708">
        <ele>2169</ele>
        <time>2021-02-28T06:25:51Z</time>
      </trkpt>
      <trkpt lat="45.15109" lon="6.30711">
        <ele>2168.6</ele>
        <time>2021-02-28T06:25:52Z</time>
      </trkpt>
      <trkpt lat="45.15109" lon="6.30711">
        <ele>2169</ele>
        <time>2021-02-28T06:25:53Z</time>
      </trkpt>
      <trkpt lat="45.15109" lon="6.30711">
        <ele>2168.6</ele>
        <time>2021-02-28T06:25:54Z</time>
      </trkpt>
      <trkpt lat="45.15108" lon="6.30713">
        <ele>2169.2</ele>
        <time>2021-02-28T06:25:55Z</time>
      </trkpt>
      <trkpt lat="45.15108" lon="6.30713">
        <ele>2169.6</ele>
        <time>2021-02-28T06:25:56Z</time>
      </trkpt>
      <trkpt lat="45.15108" lon="6.30713">
        <ele>2169.8</ele>
        <time>2021-02-28T06:25:57Z</time>
      </trkpt>
      <trkpt lat="45.15106" lon="6.30716">
        <ele>2170</ele>
        <time>2021-02-28T06:25:58Z</time>
      </trkpt>
      <trkpt lat="45.15106" lon="6.30716">
        <ele>2170.2</ele>
        <time>2021-02-28T06:25:59Z</time>
      </trkpt>
      <trkpt lat="45.15105" lon="6.30718">
        <ele>2170.2</ele>
        <time>2021-02-28T06:26:00Z</time>
      </trkpt>
      <trkpt lat="45.15105" lon="6.30718">
        <ele>2170.2</ele>
        <time>2021-02-28T06:26:01Z</time>
      </trkpt>
      <trkpt lat="45.15105" lon="6.30718">
        <ele>2170.2</ele>
        <time>2021-02-28T06:26:02Z</time>
      </trkpt>
      <trkpt lat="45.15103" lon="6.30721">
        <ele>2170.8</ele>
        <time>2021-02-28T06:26:03Z</time>
      </trkpt>
      <trkpt lat="45.15103" lon="6.30721">
        <ele>2171</ele>
        <time>2021-02-28T06:26:04Z</time>
      </trkpt>
      <trkpt lat="45.15102" lon="6.30723">
        <ele>2171.6</ele>
        <time>2021-02-28T06:26:05Z</time>
      </trkpt>
      <trkpt lat="45.15102" lon="6.30723">
        <ele>2171.6</ele>
        <time>2021-02-28T06:26:06Z</time>
      </trkpt>
      <trkpt lat="45.151" lon="6.30726">
        <ele>2171.6</ele>
        <time>2021-02-28T06:26:07Z</time>
      </trkpt>
      <trkpt lat="45.151" lon="6.30726">
        <ele>2172.2</ele>
        <time>2021-02-28T06:26:08Z</time>
      </trkpt>
      <trkpt lat="45.15099" lon="6.30728">
        <ele>2172.2</ele>
        <time>2021-02-28T06:26:09Z</time>
      </trkpt>
      <trkpt lat="45.15099" lon="6.30728">
        <ele>2172.8</ele>
        <time>2021-02-28T06:26:10Z</time>
      </trkpt>
      <trkpt lat="45.15099" lon="6.30732">
        <ele>2173.2</ele>
        <time>2021-02-28T06:26:11Z</time>
      </trkpt>
      <trkpt lat="45.15099" lon="6.30732">
        <ele>2173</ele>
        <time>2021-02-28T06:26:12Z</time>
      </trkpt>
      <trkpt lat="45.15098" lon="6.30735">
        <ele>2173.6</ele>
        <time>2021-02-28T06:26:13Z</time>
      </trkpt>
      <trkpt lat="45.15098" lon="6.30735">
        <ele>2173.2</ele>
        <time>2021-02-28T06:26:14Z</time>
      </trkpt>
      <trkpt lat="45.15098" lon="6.30738">
        <ele>2173.2</ele>
        <time>2021-02-28T06:26:15Z</time>
      </trkpt>
      <trkpt lat="45.15098" lon="6.30738">
        <ele>2173.8</ele>
        <time>2021-02-28T06:26:16Z</time>
      </trkpt>
      <trkpt lat="45.15098" lon="6.30742">
        <ele>2174</ele>
        <time>2021-02-28T06:26:17Z</time>
      </trkpt>
      <trkpt lat="45.15098" lon="6.30742">
        <ele>2173.8</ele>
        <time>2021-02-28T06:26:18Z</time>
      </trkpt>
      <trkpt lat="45.15097" lon="6.30745">
        <ele>2174.2</ele>
        <time>2021-02-28T06:26:19Z</time>
      </trkpt>
      <trkpt lat="45.15097" lon="6.30745">
        <ele>2174.6</ele>
        <time>2021-02-28T06:26:20Z</time>
      </trkpt>
      <trkpt lat="45.15097" lon="6.30748">
        <ele>2174.6</ele>
        <time>2021-02-28T06:26:21Z</time>
      </trkpt>
      <trkpt lat="45.15097" lon="6.30748">
        <ele>2175.2</ele>
        <time>2021-02-28T06:26:22Z</time>
      </trkpt>
      <trkpt lat="45.15096" lon="6.30751">
        <ele>2175.2</ele>
        <time>2021-02-28T06:26:23Z</time>
      </trkpt>
      <trkpt lat="45.15096" lon="6.30751">
        <ele>2175</ele>
        <time>2021-02-28T06:26:24Z</time>
      </trkpt>
      <trkpt lat="45.15094" lon="6.30755">
        <ele>2175.4</ele>
        <time>2021-02-28T06:26:25Z</time>
      </trkpt>
      <trkpt lat="45.15094" lon="6.30755">
        <ele>2175.8</ele>
        <time>2021-02-28T06:26:26Z</time>
      </trkpt>
      <trkpt lat="45.15093" lon="6.30758">
        <ele>2176.2</ele>
        <time>2021-02-28T06:26:27Z</time>
      </trkpt>
      <trkpt lat="45.15093" lon="6.30758">
        <ele>2176.4</ele>
        <time>2021-02-28T06:26:28Z</time>
      </trkpt>
      <trkpt lat="45.15093" lon="6.30761">
        <ele>2176</ele>
        <time>2021-02-28T06:26:29Z</time>
      </trkpt>
      <trkpt lat="45.15093" lon="6.30761">
        <ele>2176.4</ele>
        <time>2021-02-28T06:26:30Z</time>
      </trkpt>
      <trkpt lat="45.15092" lon="6.30764">
        <ele>2176</ele>
        <time>2021-02-28T06:26:31Z</time>
      </trkpt>
      <trkpt lat="45.15092" lon="6.30764">
        <ele>2176</ele>
        <time>2021-02-28T06:26:32Z</time>
      </trkpt>
      <trkpt lat="45.15092" lon="6.30768">
        <ele>2176.4</ele>
        <time>2021-02-28T06:26:33Z</time>
      </trkpt>
      <trkpt lat="45.15092" lon="6.30768">
        <ele>2176.4</ele>
        <time>2021-02-28T06:26:34Z</time>
      </trkpt>
      <trkpt lat="45.15091" lon="6.30771">
        <ele>2177</ele>
        <time>2021-02-28T06:26:35Z</time>
      </trkpt>
      <trkpt lat="45.15091" lon="6.30771">
        <ele>2176.8</ele>
        <time>2021-02-28T06:26:36Z</time>
      </trkpt>
      <trkpt lat="45.1509" lon="6.30775">
        <ele>2176.6</ele>
        <time>2021-02-28T06:26:37Z</time>
      </trkpt>
      <trkpt lat="45.1509" lon="6.30775">
        <ele>2177.2</ele>
        <time>2021-02-28T06:26:38Z</time>
      </trkpt>
      <trkpt lat="45.1509" lon="6.30778">
        <ele>2177.2</ele>
        <time>2021-02-28T06:26:39Z</time>
      </trkpt>
      <trkpt lat="45.1509" lon="6.30778">
        <ele>2177.6</ele>
        <time>2021-02-28T06:26:40Z</time>
      </trkpt>
      <trkpt lat="45.15088" lon="6.30782">
        <ele>2177.4</ele>
        <time>2021-02-28T06:26:41Z</time>
      </trkpt>
      <trkpt lat="45.15088" lon="6.30782">
        <ele>2176.6</ele>
        <time>2021-02-28T06:26:42Z</time>
      </trkpt>
      <trkpt lat="45.15087" lon="6.30785">
        <ele>2177</ele>
        <time>2021-02-28T06:26:43Z</time>
      </trkpt>
      <trkpt lat="45.15087" lon="6.30785">
        <ele>2177</ele>
        <time>2021-02-28T06:26:44Z</time>
      </trkpt>
      <trkpt lat="45.15086" lon="6.30789">
        <ele>2177.4</ele>
        <time>2021-02-28T06:26:45Z</time>
      </trkpt>
      <trkpt lat="45.15086" lon="6.30789">
        <ele>2177.6</ele>
        <time>2021-02-28T06:26:46Z</time>
      </trkpt>
      <trkpt lat="45.15084" lon="6.30792">
        <ele>2177.2</ele>
        <time>2021-02-28T06:26:47Z</time>
      </trkpt>
      <trkpt lat="45.15084" lon="6.30792">
        <ele>2176.8</ele>
        <time>2021-02-28T06:26:48Z</time>
      </trkpt>
      <trkpt lat="45.15083" lon="6.30796">
        <ele>2176.8</ele>
        <time>2021-02-28T06:26:49Z</time>
      </trkpt>
      <trkpt lat="45.15083" lon="6.30796">
        <ele>2177</ele>
        <time>2021-02-28T06:26:50Z</time>
      </trkpt>
      <trkpt lat="45.15081" lon="6.30801">
        <ele>2177.2</ele>
        <time>2021-02-28T06:26:51Z</time>
      </trkpt>
      <trkpt lat="45.1508" lon="6.30803">
        <ele>2176.6</ele>
        <time>2021-02-28T06:26:52Z</time>
      </trkpt>
      <trkpt lat="45.15079" lon="6.30805">
        <ele>2177</ele>
        <time>2021-02-28T06:26:53Z</time>
      </trkpt>
      <trkpt lat="45.15079" lon="6.30807">
        <ele>2177.2</ele>
        <time>2021-02-28T06:26:54Z</time>
      </trkpt>
      <trkpt lat="45.15078" lon="6.3081">
        <ele>2177.2</ele>
        <time>2021-02-28T06:26:55Z</time>
      </trkpt>
      <trkpt lat="45.15078" lon="6.3081">
        <ele>2176.8</ele>
        <time>2021-02-28T06:26:56Z</time>
      </trkpt>
      <trkpt lat="45.15076" lon="6.30813">
        <ele>2176.4</ele>
        <time>2021-02-28T06:26:57Z</time>
      </trkpt>
      <trkpt lat="45.15076" lon="6.30813">
        <ele>2176.2</ele>
        <time>2021-02-28T06:26:58Z</time>
      </trkpt>
      <trkpt lat="45.15075" lon="6.30817">
        <ele>2176.2</ele>
        <time>2021-02-28T06:26:59Z</time>
      </trkpt>
      <trkpt lat="45.15075" lon="6.30817">
        <ele>2177</ele>
        <time>2021-02-28T06:27:00Z</time>
      </trkpt>
      <trkpt lat="45.15072" lon="6.30817">
        <ele>2177</ele>
        <time>2021-02-28T06:27:01Z</time>
      </trkpt>
      <trkpt lat="45.15072" lon="6.30817">
        <ele>2176.8</ele>
        <time>2021-02-28T06:27:02Z</time>
      </trkpt>
      <trkpt lat="45.1507" lon="6.30816">
        <ele>2177</ele>
        <time>2021-02-28T06:27:03Z</time>
      </trkpt>
      <trkpt lat="45.1507" lon="6.30816">
        <ele>2177.6</ele>
        <time>2021-02-28T06:27:04Z</time>
      </trkpt>
      <trkpt lat="45.15068" lon="6.30815">
        <ele>2177.8</ele>
        <time>2021-02-28T06:27:05Z</time>
      </trkpt>
      <trkpt lat="45.15068" lon="6.30815">
        <ele>2177.8</ele>
        <time>2021-02-28T06:27:06Z</time>
      </trkpt>
      <trkpt lat="45.15068" lon="6.30815">
        <ele>2178.2</ele>
        <time>2021-02-28T06:27:07Z</time>
      </trkpt>
      <trkpt lat="45.15065" lon="6.30814">
        <ele>2178.4</ele>
        <time>2021-02-28T06:27:08Z</time>
      </trkpt>
      <trkpt lat="45.15065" lon="6.30814">
        <ele>2178.4</ele>
        <time>2021-02-28T06:27:09Z</time>
      </trkpt>
      <trkpt lat="45.15063" lon="6.30812">
        <ele>2178.8</ele>
        <time>2021-02-28T06:27:10Z</time>
      </trkpt>
      <trkpt lat="45.15063" lon="6.30812">
        <ele>2178.2</ele>
        <time>2021-02-28T06:27:11Z</time>
      </trkpt>
      <trkpt lat="45.15061" lon="6.3081">
        <ele>2178.4</ele>
        <time>2021-02-28T06:27:12Z</time>
      </trkpt>
      <trkpt lat="45.15061" lon="6.3081">
        <ele>2179</ele>
        <time>2021-02-28T06:27:13Z</time>
      </trkpt>
      <trkpt lat="45.15059" lon="6.30808">
        <ele>2178.8</ele>
        <time>2021-02-28T06:27:14Z</time>
      </trkpt>
      <trkpt lat="45.15059" lon="6.30808">
        <ele>2179</ele>
        <time>2021-02-28T06:27:15Z</time>
      </trkpt>
      <trkpt lat="45.15057" lon="6.30806">
        <ele>2179.4</ele>
        <time>2021-02-28T06:27:16Z</time>
      </trkpt>
      <trkpt lat="45.15057" lon="6.30806">
        <ele>2179.8</ele>
        <time>2021-02-28T06:27:17Z</time>
      </trkpt>
      <trkpt lat="45.15057" lon="6.30806">
        <ele>2180.2</ele>
        <time>2021-02-28T06:27:18Z</time>
      </trkpt>
      <trkpt lat="45.15056" lon="6.30804">
        <ele>2180.2</ele>
        <time>2021-02-28T06:27:19Z</time>
      </trkpt>
      <trkpt lat="45.15056" lon="6.30804">
        <ele>2180.8</ele>
        <time>2021-02-28T06:27:20Z</time>
      </trkpt>
      <trkpt lat="45.15056" lon="6.30804">
        <ele>2181</ele>
        <time>2021-02-28T06:27:21Z</time>
      </trkpt>
      <trkpt lat="45.15054" lon="6.30803">
        <ele>2181</ele>
        <time>2021-02-28T06:27:22Z</time>
      </trkpt>
      <trkpt lat="45.15054" lon="6.30803">
        <ele>2180.8</ele>
        <time>2021-02-28T06:27:23Z</time>
      </trkpt>
      <trkpt lat="45.15054" lon="6.30803">
        <ele>2180.8</ele>
        <time>2021-02-28T06:27:24Z</time>
      </trkpt>
      <trkpt lat="45.15054" lon="6.30803">
        <ele>2181.6</ele>
        <time>2021-02-28T06:27:25Z</time>
      </trkpt>
      <trkpt lat="45.15051" lon="6.30803">
        <ele>2181.2</ele>
        <time>2021-02-28T06:27:26Z</time>
      </trkpt>
      <trkpt lat="45.15051" lon="6.30803">
        <ele>2181.2</ele>
        <time>2021-02-28T06:27:27Z</time>
      </trkpt>
      <trkpt lat="45.1505" lon="6.30805">
        <ele>2181.8</ele>
        <time>2021-02-28T06:27:28Z</time>
      </trkpt>
      <trkpt lat="45.1505" lon="6.30805">
        <ele>2181.6</ele>
        <time>2021-02-28T06:27:29Z</time>
      </trkpt>
      <trkpt lat="45.1505" lon="6.30805">
        <ele>2181.8</ele>
        <time>2021-02-28T06:27:30Z</time>
      </trkpt>
      <trkpt lat="45.15048" lon="6.30807">
        <ele>2182.2</ele>
        <time>2021-02-28T06:27:31Z</time>
      </trkpt>
      <trkpt lat="45.15048" lon="6.30807">
        <ele>2182.2</ele>
        <time>2021-02-28T06:27:32Z</time>
      </trkpt>
      <trkpt lat="45.15048" lon="6.30807">
        <ele>2181.8</ele>
        <time>2021-02-28T06:27:33Z</time>
      </trkpt>
      <trkpt lat="45.15048" lon="6.30807">
        <ele>2181.8</ele>
        <time>2021-02-28T06:27:34Z</time>
      </trkpt>
      <trkpt lat="45.15048" lon="6.30807">
        <ele>2181.8</ele>
        <time>2021-02-28T06:27:35Z</time>
      </trkpt>
      <trkpt lat="45.15048" lon="6.30807">
        <ele>2181.8</ele>
        <time>2021-02-28T06:27:36Z</time>
      </trkpt>
      <trkpt lat="45.15048" lon="6.30807">
        <ele>2182</ele>
        <time>2021-02-28T06:27:37Z</time>
      </trkpt>
      <trkpt lat="45.15048" lon="6.30807">
        <ele>2181.8</ele>
        <time>2021-02-28T06:27:38Z</time>
      </trkpt>
      <trkpt lat="45.15048" lon="6.30807">
        <ele>2182</ele>
        <time>2021-02-28T06:27:39Z</time>
      </trkpt>
      <trkpt lat="45.15048" lon="6.30807">
        <ele>2181.8</ele>
        <time>2021-02-28T06:27:40Z</time>
      </trkpt>
      <trkpt lat="45.15048" lon="6.30807">
        <ele>2181.6</ele>
        <time>2021-02-28T06:27:41Z</time>
      </trkpt>
      <trkpt lat="45.15048" lon="6.30807">
        <ele>2182</ele>
        <time>2021-02-28T06:27:42Z</time>
      </trkpt>
      <trkpt lat="45.15047" lon="6.3081">
        <ele>2182.4</ele>
        <time>2021-02-28T06:27:43Z</time>
      </trkpt>
      <trkpt lat="45.15047" lon="6.3081">
        <ele>2183</ele>
        <time>2021-02-28T06:27:44Z</time>
      </trkpt>
      <trkpt lat="45.15045" lon="6.30811">
        <ele>2183.2</ele>
        <time>2021-02-28T06:27:45Z</time>
      </trkpt>
      <trkpt lat="45.15045" lon="6.30811">
        <ele>2183.6</ele>
        <time>2021-02-28T06:27:46Z</time>
      </trkpt>
      <trkpt lat="45.15042" lon="6.30812">
        <ele>2183.6</ele>
        <time>2021-02-28T06:27:47Z</time>
      </trkpt>
      <trkpt lat="45.15042" lon="6.30812">
        <ele>2183.8</ele>
        <time>2021-02-28T06:27:48Z</time>
      </trkpt>
      <trkpt lat="45.15039" lon="6.30814">
        <ele>2183.2</ele>
        <time>2021-02-28T06:27:49Z</time>
      </trkpt>
      <trkpt lat="45.15039" lon="6.30814">
        <ele>2183.4</ele>
        <time>2021-02-28T06:27:50Z</time>
      </trkpt>
      <trkpt lat="45.15035" lon="6.30815">
        <ele>2183.6</ele>
        <time>2021-02-28T06:27:51Z</time>
      </trkpt>
      <trkpt lat="45.15034" lon="6.30816">
        <ele>2183.4</ele>
        <time>2021-02-28T06:27:52Z</time>
      </trkpt>
      <trkpt lat="45.15032" lon="6.30817">
        <ele>2183.6</ele>
        <time>2021-02-28T06:27:53Z</time>
      </trkpt>
      <trkpt lat="45.1503" lon="6.30818">
        <ele>2182.8</ele>
        <time>2021-02-28T06:27:54Z</time>
      </trkpt>
      <trkpt lat="45.15028" lon="6.30819">
        <ele>2182.4</ele>
        <time>2021-02-28T06:27:55Z</time>
      </trkpt>
      <trkpt lat="45.15026" lon="6.3082">
        <ele>2182.6</ele>
        <time>2021-02-28T06:27:56Z</time>
      </trkpt>
      <trkpt lat="45.15025" lon="6.30821">
        <ele>2182.4</ele>
        <time>2021-02-28T06:27:57Z</time>
      </trkpt>
      <trkpt lat="45.15025" lon="6.30821">
        <ele>2182</ele>
        <time>2021-02-28T06:27:58Z</time>
      </trkpt>
      <trkpt lat="45.15022" lon="6.30823">
        <ele>2182.4</ele>
        <time>2021-02-28T06:27:59Z</time>
      </trkpt>
      <trkpt lat="45.15022" lon="6.30823">
        <ele>2182.4</ele>
        <time>2021-02-28T06:28:00Z</time>
      </trkpt>
      <trkpt lat="45.15019" lon="6.30825">
        <ele>2182.4</ele>
        <time>2021-02-28T06:28:01Z</time>
      </trkpt>
      <trkpt lat="45.15019" lon="6.30825">
        <ele>2182.4</ele>
        <time>2021-02-28T06:28:02Z</time>
      </trkpt>
      <trkpt lat="45.15018" lon="6.30829">
        <ele>2182.6</ele>
        <time>2021-02-28T06:28:03Z</time>
      </trkpt>
      <trkpt lat="45.15018" lon="6.30829">
        <ele>2182.4</ele>
        <time>2021-02-28T06:28:04Z</time>
      </trkpt>
      <trkpt lat="45.15016" lon="6.30833">
        <ele>2182.6</ele>
        <time>2021-02-28T06:28:05Z</time>
      </trkpt>
      <trkpt lat="45.15015" lon="6.30836">
        <ele>2182.2</ele>
        <time>2021-02-28T06:28:06Z</time>
      </trkpt>
      <trkpt lat="45.15015" lon="6.30839">
        <ele>2181.8</ele>
        <time>2021-02-28T06:28:07Z</time>
      </trkpt>
      <trkpt lat="45.15014" lon="6.30842">
        <ele>2181.8</ele>
        <time>2021-02-28T06:28:08Z</time>
      </trkpt>
      <trkpt lat="45.15014" lon="6.30842">
        <ele>2181.6</ele>
        <time>2021-02-28T06:28:09Z</time>
      </trkpt>
      <trkpt lat="45.15013" lon="6.30846">
        <ele>2180.6</ele>
        <time>2021-02-28T06:28:10Z</time>
      </trkpt>
      <trkpt lat="45.15013" lon="6.30846">
        <ele>2180.4</ele>
        <time>2021-02-28T06:28:11Z</time>
      </trkpt>
      <trkpt lat="45.15012" lon="6.3085">
        <ele>2180.6</ele>
        <time>2021-02-28T06:28:12Z</time>
      </trkpt>
      <trkpt lat="45.15012" lon="6.3085">
        <ele>2180.6</ele>
        <time>2021-02-28T06:28:13Z</time>
      </trkpt>
      <trkpt lat="45.15011" lon="6.30853">
        <ele>2180.8</ele>
        <time>2021-02-28T06:28:14Z</time>
      </trkpt>
      <trkpt lat="45.15011" lon="6.30853">
        <ele>2180.6</ele>
        <time>2021-02-28T06:28:15Z</time>
      </trkpt>
      <trkpt lat="45.1501" lon="6.30855">
        <ele>2181.2</ele>
        <time>2021-02-28T06:28:16Z</time>
      </trkpt>
      <trkpt lat="45.1501" lon="6.30855">
        <ele>2181.2</ele>
        <time>2021-02-28T06:28:17Z</time>
      </trkpt>
      <trkpt lat="45.15009" lon="6.30858">
        <ele>2181.6</ele>
        <time>2021-02-28T06:28:18Z</time>
      </trkpt>
      <trkpt lat="45.15009" lon="6.30858">
        <ele>2181.8</ele>
        <time>2021-02-28T06:28:19Z</time>
      </trkpt>
      <trkpt lat="45.15008" lon="6.30861">
        <ele>2181.8</ele>
        <time>2021-02-28T06:28:20Z</time>
      </trkpt>
      <trkpt lat="45.15008" lon="6.30861">
        <ele>2182.4</ele>
        <time>2021-02-28T06:28:21Z</time>
      </trkpt>
      <trkpt lat="45.15008" lon="6.30864">
        <ele>2182.2</ele>
        <time>2021-02-28T06:28:22Z</time>
      </trkpt>
      <trkpt lat="45.15008" lon="6.30864">
        <ele>2182.4</ele>
        <time>2021-02-28T06:28:23Z</time>
      </trkpt>
      <trkpt lat="45.15008" lon="6.30867">
        <ele>2182.8</ele>
        <time>2021-02-28T06:28:24Z</time>
      </trkpt>
      <trkpt lat="45.15008" lon="6.30867">
        <ele>2182.6</ele>
        <time>2021-02-28T06:28:25Z</time>
      </trkpt>
      <trkpt lat="45.15008" lon="6.30867">
        <ele>2183</ele>
        <time>2021-02-28T06:28:26Z</time>
      </trkpt>
      <trkpt lat="45.15007" lon="6.3087">
        <ele>2183.2</ele>
        <time>2021-02-28T06:28:27Z</time>
      </trkpt>
      <trkpt lat="45.15007" lon="6.3087">
        <ele>2182.8</ele>
        <time>2021-02-28T06:28:28Z</time>
      </trkpt>
      <trkpt lat="45.15007" lon="6.30873">
        <ele>2182.6</ele>
        <time>2021-02-28T06:28:29Z</time>
      </trkpt>
      <trkpt lat="45.15007" lon="6.30873">
        <ele>2183.2</ele>
        <time>2021-02-28T06:28:30Z</time>
      </trkpt>
      <trkpt lat="45.15006" lon="6.30876">
        <ele>2182.4</ele>
        <time>2021-02-28T06:28:31Z</time>
      </trkpt>
      <trkpt lat="45.15006" lon="6.30876">
        <ele>2182.8</ele>
        <time>2021-02-28T06:28:32Z</time>
      </trkpt>
      <trkpt lat="45.15005" lon="6.30879">
        <ele>2183</ele>
        <time>2021-02-28T06:28:33Z</time>
      </trkpt>
      <trkpt lat="45.15005" lon="6.30879">
        <ele>2183.2</ele>
        <time>2021-02-28T06:28:34Z</time>
      </trkpt>
      <trkpt lat="45.15005" lon="6.30884">
        <ele>2183.2</ele>
        <time>2021-02-28T06:28:35Z</time>
      </trkpt>
      <trkpt lat="45.15005" lon="6.30884">
        <ele>2183.4</ele>
        <time>2021-02-28T06:28:36Z</time>
      </trkpt>
      <trkpt lat="45.15004" lon="6.30887">
        <ele>2183.6</ele>
        <time>2021-02-28T06:28:37Z</time>
      </trkpt>
      <trkpt lat="45.15004" lon="6.30887">
        <ele>2183.6</ele>
        <time>2021-02-28T06:28:38Z</time>
      </trkpt>
      <trkpt lat="45.15003" lon="6.3089">
        <ele>2183.6</ele>
        <time>2021-02-28T06:28:39Z</time>
      </trkpt>
      <trkpt lat="45.15003" lon="6.3089">
        <ele>2183.8</ele>
        <time>2021-02-28T06:28:40Z</time>
      </trkpt>
      <trkpt lat="45.15003" lon="6.30893">
        <ele>2183.6</ele>
        <time>2021-02-28T06:28:41Z</time>
      </trkpt>
      <trkpt lat="45.15003" lon="6.30893">
        <ele>2183.2</ele>
        <time>2021-02-28T06:28:42Z</time>
      </trkpt>
      <trkpt lat="45.15003" lon="6.30898">
        <ele>2183.4</ele>
        <time>2021-02-28T06:28:43Z</time>
      </trkpt>
      <trkpt lat="45.15003" lon="6.30898">
        <ele>2183.2</ele>
        <time>2021-02-28T06:28:44Z</time>
      </trkpt>
      <trkpt lat="45.15001" lon="6.30901">
        <ele>2183</ele>
        <time>2021-02-28T06:28:45Z</time>
      </trkpt>
      <trkpt lat="45.15001" lon="6.30901">
        <ele>2182.4</ele>
        <time>2021-02-28T06:28:46Z</time>
      </trkpt>
      <trkpt lat="45.14999" lon="6.30904">
        <ele>2183</ele>
        <time>2021-02-28T06:28:47Z</time>
      </trkpt>
      <trkpt lat="45.14999" lon="6.30904">
        <ele>2183.2</ele>
        <time>2021-02-28T06:28:48Z</time>
      </trkpt>
      <trkpt lat="45.14997" lon="6.30907">
        <ele>2183.6</ele>
        <time>2021-02-28T06:28:49Z</time>
      </trkpt>
      <trkpt lat="45.14997" lon="6.30907">
        <ele>2183.6</ele>
        <time>2021-02-28T06:28:50Z</time>
      </trkpt>
      <trkpt lat="45.14995" lon="6.30909">
        <ele>2183.6</ele>
        <time>2021-02-28T06:28:51Z</time>
      </trkpt>
      <trkpt lat="45.14995" lon="6.30909">
        <ele>2183.4</ele>
        <time>2021-02-28T06:28:52Z</time>
      </trkpt>
      <trkpt lat="45.14992" lon="6.30909">
        <ele>2183.2</ele>
        <time>2021-02-28T06:28:53Z</time>
      </trkpt>
      <trkpt lat="45.14992" lon="6.30909">
        <ele>2182.8</ele>
        <time>2021-02-28T06:28:54Z</time>
      </trkpt>
      <trkpt lat="45.14991" lon="6.30908">
        <ele>2183.2</ele>
        <time>2021-02-28T06:28:55Z</time>
      </trkpt>
      <trkpt lat="45.14991" lon="6.30908">
        <ele>2183.6</ele>
        <time>2021-02-28T06:28:56Z</time>
      </trkpt>
      <trkpt lat="45.1499" lon="6.30905">
        <ele>2184</ele>
        <time>2021-02-28T06:28:57Z</time>
      </trkpt>
      <trkpt lat="45.1499" lon="6.30905">
        <ele>2183.8</ele>
        <time>2021-02-28T06:28:58Z</time>
      </trkpt>
      <trkpt lat="45.1499" lon="6.30905">
        <ele>2184</ele>
        <time>2021-02-28T06:28:59Z</time>
      </trkpt>
      <trkpt lat="45.1499" lon="6.30902">
        <ele>2184.4</ele>
        <time>2021-02-28T06:29:00Z</time>
      </trkpt>
      <trkpt lat="45.1499" lon="6.30902">
        <ele>2183.8</ele>
        <time>2021-02-28T06:29:01Z</time>
      </trkpt>
      <trkpt lat="45.1499" lon="6.30902">
        <ele>2184.4</ele>
        <time>2021-02-28T06:29:02Z</time>
      </trkpt>
      <trkpt lat="45.14989" lon="6.30899">
        <ele>2184.8</ele>
        <time>2021-02-28T06:29:03Z</time>
      </trkpt>
      <trkpt lat="45.14989" lon="6.30899">
        <ele>2184.4</ele>
        <time>2021-02-28T06:29:04Z</time>
      </trkpt>
      <trkpt lat="45.14987" lon="6.30897">
        <ele>2184.6</ele>
        <time>2021-02-28T06:29:05Z</time>
      </trkpt>
      <trkpt lat="45.14987" lon="6.30897">
        <ele>2185.2</ele>
        <time>2021-02-28T06:29:06Z</time>
      </trkpt>
      <trkpt lat="45.14986" lon="6.30895">
        <ele>2185</ele>
        <time>2021-02-28T06:29:07Z</time>
      </trkpt>
      <trkpt lat="45.14986" lon="6.30895">
        <ele>2185.6</ele>
        <time>2021-02-28T06:29:08Z</time>
      </trkpt>
      <trkpt lat="45.14985" lon="6.30893">
        <ele>2185.8</ele>
        <time>2021-02-28T06:29:09Z</time>
      </trkpt>
      <trkpt lat="45.14985" lon="6.30893">
        <ele>2186.2</ele>
        <time>2021-02-28T06:29:10Z</time>
      </trkpt>
      <trkpt lat="45.14984" lon="6.30891">
        <ele>2186.8</ele>
        <time>2021-02-28T06:29:11Z</time>
      </trkpt>
      <trkpt lat="45.14984" lon="6.30891">
        <ele>2186.8</ele>
        <time>2021-02-28T06:29:12Z</time>
      </trkpt>
      <trkpt lat="45.14984" lon="6.30891">
        <ele>2187</ele>
        <time>2021-02-28T06:29:13Z</time>
      </trkpt>
      <trkpt lat="45.14981" lon="6.3089">
        <ele>2186.8</ele>
        <time>2021-02-28T06:29:14Z</time>
      </trkpt>
      <trkpt lat="45.14981" lon="6.3089">
        <ele>2187.4</ele>
        <time>2021-02-28T06:29:15Z</time>
      </trkpt>
      <trkpt lat="45.14981" lon="6.3089">
        <ele>2187.6</ele>
        <time>2021-02-28T06:29:16Z</time>
      </trkpt>
      <trkpt lat="45.14979" lon="6.3089">
        <ele>2187.6</ele>
        <time>2021-02-28T06:29:17Z</time>
      </trkpt>
      <trkpt lat="45.14979" lon="6.3089">
        <ele>2187.6</ele>
        <time>2021-02-28T06:29:18Z</time>
      </trkpt>
      <trkpt lat="45.14977" lon="6.30891">
        <ele>2188.2</ele>
        <time>2021-02-28T06:29:19Z</time>
      </trkpt>
      <trkpt lat="45.14977" lon="6.30891">
        <ele>2188</ele>
        <time>2021-02-28T06:29:20Z</time>
      </trkpt>
      <trkpt lat="45.14977" lon="6.30891">
        <ele>2187.6</ele>
        <time>2021-02-28T06:29:21Z</time>
      </trkpt>
      <trkpt lat="45.14974" lon="6.3089">
        <ele>2187.6</ele>
        <time>2021-02-28T06:29:22Z</time>
      </trkpt>
      <trkpt lat="45.14974" lon="6.3089">
        <ele>2188.4</ele>
        <time>2021-02-28T06:29:23Z</time>
      </trkpt>
      <trkpt lat="45.14974" lon="6.3089">
        <ele>2188</ele>
        <time>2021-02-28T06:29:24Z</time>
      </trkpt>
      <trkpt lat="45.14971" lon="6.3089">
        <ele>2188.2</ele>
        <time>2021-02-28T06:29:25Z</time>
      </trkpt>
      <trkpt lat="45.14971" lon="6.3089">
        <ele>2188.8</ele>
        <time>2021-02-28T06:29:26Z</time>
      </trkpt>
      <trkpt lat="45.14971" lon="6.3089">
        <ele>2188.6</ele>
        <time>2021-02-28T06:29:27Z</time>
      </trkpt>
      <trkpt lat="45.14969" lon="6.3089">
        <ele>2188.6</ele>
        <time>2021-02-28T06:29:28Z</time>
      </trkpt>
      <trkpt lat="45.14969" lon="6.3089">
        <ele>2189.2</ele>
        <time>2021-02-28T06:29:29Z</time>
      </trkpt>
      <trkpt lat="45.14967" lon="6.3089">
        <ele>2189.4</ele>
        <time>2021-02-28T06:29:30Z</time>
      </trkpt>
      <trkpt lat="45.14967" lon="6.3089">
        <ele>2190</ele>
        <time>2021-02-28T06:29:31Z</time>
      </trkpt>
      <trkpt lat="45.14964" lon="6.3089">
        <ele>2190.2</ele>
        <time>2021-02-28T06:29:32Z</time>
      </trkpt>
      <trkpt lat="45.14964" lon="6.3089">
        <ele>2190.4</ele>
        <time>2021-02-28T06:29:33Z</time>
      </trkpt>
      <trkpt lat="45.14962" lon="6.3089">
        <ele>2190.4</ele>
        <time>2021-02-28T06:29:34Z</time>
      </trkpt>
      <trkpt lat="45.14962" lon="6.3089">
        <ele>2190.6</ele>
        <time>2021-02-28T06:29:35Z</time>
      </trkpt>
      <trkpt lat="45.1496" lon="6.3089">
        <ele>2191</ele>
        <time>2021-02-28T06:29:36Z</time>
      </trkpt>
      <trkpt lat="45.1496" lon="6.3089">
        <ele>2191.2</ele>
        <time>2021-02-28T06:29:37Z</time>
      </trkpt>
      <trkpt lat="45.1496" lon="6.3089">
        <ele>2191</ele>
        <time>2021-02-28T06:29:38Z</time>
      </trkpt>
      <trkpt lat="45.14958" lon="6.30889">
        <ele>2191.4</ele>
        <time>2021-02-28T06:29:39Z</time>
      </trkpt>
      <trkpt lat="45.14958" lon="6.30889">
        <ele>2191.8</ele>
        <time>2021-02-28T06:29:40Z</time>
      </trkpt>
      <trkpt lat="45.14958" lon="6.30889">
        <ele>2191.2</ele>
        <time>2021-02-28T06:29:41Z</time>
      </trkpt>
      <trkpt lat="45.14955" lon="6.3089">
        <ele>2191.6</ele>
        <time>2021-02-28T06:29:42Z</time>
      </trkpt>
      <trkpt lat="45.14955" lon="6.3089">
        <ele>2191.8</ele>
        <time>2021-02-28T06:29:43Z</time>
      </trkpt>
      <trkpt lat="45.14955" lon="6.3089">
        <ele>2192</ele>
        <time>2021-02-28T06:29:44Z</time>
      </trkpt>
      <trkpt lat="45.14952" lon="6.3089">
        <ele>2192</ele>
        <time>2021-02-28T06:29:45Z</time>
      </trkpt>
      <trkpt lat="45.14952" lon="6.3089">
        <ele>2192</ele>
        <time>2021-02-28T06:29:46Z</time>
      </trkpt>
      <trkpt lat="45.1495" lon="6.30891">
        <ele>2192.2</ele>
        <time>2021-02-28T06:29:47Z</time>
      </trkpt>
      <trkpt lat="45.1495" lon="6.30891">
        <ele>2192.4</ele>
        <time>2021-02-28T06:29:48Z</time>
      </trkpt>
      <trkpt lat="45.14948" lon="6.30891">
        <ele>2193</ele>
        <time>2021-02-28T06:29:49Z</time>
      </trkpt>
      <trkpt lat="45.14948" lon="6.30891">
        <ele>2193.4</ele>
        <time>2021-02-28T06:29:50Z</time>
      </trkpt>
      <trkpt lat="45.14948" lon="6.30891">
        <ele>2194</ele>
        <time>2021-02-28T06:29:51Z</time>
      </trkpt>
      <trkpt lat="45.14946" lon="6.30891">
        <ele>2194</ele>
        <time>2021-02-28T06:29:52Z</time>
      </trkpt>
      <trkpt lat="45.14946" lon="6.30891">
        <ele>2194</ele>
        <time>2021-02-28T06:29:53Z</time>
      </trkpt>
      <trkpt lat="45.14946" lon="6.30891">
        <ele>2194.4</ele>
        <time>2021-02-28T06:29:54Z</time>
      </trkpt>
      <trkpt lat="45.14943" lon="6.30892">
        <ele>2194.6</ele>
        <time>2021-02-28T06:29:55Z</time>
      </trkpt>
      <trkpt lat="45.14943" lon="6.30892">
        <ele>2194.6</ele>
        <time>2021-02-28T06:29:56Z</time>
      </trkpt>
      <trkpt lat="45.14943" lon="6.30892">
        <ele>2194.8</ele>
        <time>2021-02-28T06:29:57Z</time>
      </trkpt>
      <trkpt lat="45.1494" lon="6.30892">
        <ele>2194.2</ele>
        <time>2021-02-28T06:29:58Z</time>
      </trkpt>
      <trkpt lat="45.1494" lon="6.30892">
        <ele>2194.4</ele>
        <time>2021-02-28T06:29:59Z</time>
      </trkpt>
      <trkpt lat="45.1494" lon="6.30892">
        <ele>2194.8</ele>
        <time>2021-02-28T06:30:00Z</time>
      </trkpt>
      <trkpt lat="45.14938" lon="6.30892">
        <ele>2194.6</ele>
        <time>2021-02-28T06:30:01Z</time>
      </trkpt>
      <trkpt lat="45.14938" lon="6.30892">
        <ele>2195</ele>
        <time>2021-02-28T06:30:02Z</time>
      </trkpt>
      <trkpt lat="45.14938" lon="6.30892">
        <ele>2195.6</ele>
        <time>2021-02-28T06:30:03Z</time>
      </trkpt>
      <trkpt lat="45.14935" lon="6.30892">
        <ele>2196.2</ele>
        <time>2021-02-28T06:30:04Z</time>
      </trkpt>
      <trkpt lat="45.14935" lon="6.30892">
        <ele>2196</ele>
        <time>2021-02-28T06:30:05Z</time>
      </trkpt>
      <trkpt lat="45.14935" lon="6.30892">
        <ele>2196.2</ele>
        <time>2021-02-28T06:30:06Z</time>
      </trkpt>
      <trkpt lat="45.14933" lon="6.30894">
        <ele>2196.2</ele>
        <time>2021-02-28T06:30:07Z</time>
      </trkpt>
      <trkpt lat="45.14933" lon="6.30894">
        <ele>2196.6</ele>
        <time>2021-02-28T06:30:08Z</time>
      </trkpt>
      <trkpt lat="45.14931" lon="6.30895">
        <ele>2196.6</ele>
        <time>2021-02-28T06:30:09Z</time>
      </trkpt>
      <trkpt lat="45.14931" lon="6.30895">
        <ele>2196.6</ele>
        <time>2021-02-28T06:30:10Z</time>
      </trkpt>
      <trkpt lat="45.14929" lon="6.30896">
        <ele>2196.4</ele>
        <time>2021-02-28T06:30:11Z</time>
      </trkpt>
      <trkpt lat="45.14929" lon="6.30896">
        <ele>2196.4</ele>
        <time>2021-02-28T06:30:12Z</time>
      </trkpt>
      <trkpt lat="45.14927" lon="6.30897">
        <ele>2196.4</ele>
        <time>2021-02-28T06:30:13Z</time>
      </trkpt>
      <trkpt lat="45.14927" lon="6.30897">
        <ele>2196.6</ele>
        <time>2021-02-28T06:30:14Z</time>
      </trkpt>
      <trkpt lat="45.14927" lon="6.30897">
        <ele>2197.2</ele>
        <time>2021-02-28T06:30:15Z</time>
      </trkpt>
      <trkpt lat="45.14925" lon="6.30898">
        <ele>2197.6</ele>
        <time>2021-02-28T06:30:16Z</time>
      </trkpt>
      <trkpt lat="45.14925" lon="6.30898">
        <ele>2198.2</ele>
        <time>2021-02-28T06:30:17Z</time>
      </trkpt>
      <trkpt lat="45.14923" lon="6.30898">
        <ele>2198.2</ele>
        <time>2021-02-28T06:30:18Z</time>
      </trkpt>
      <trkpt lat="45.14923" lon="6.30898">
        <ele>2198.6</ele>
        <time>2021-02-28T06:30:19Z</time>
      </trkpt>
      <trkpt lat="45.14921" lon="6.30899">
        <ele>2198.8</ele>
        <time>2021-02-28T06:30:20Z</time>
      </trkpt>
      <trkpt lat="45.14921" lon="6.30899">
        <ele>2199</ele>
        <time>2021-02-28T06:30:21Z</time>
      </trkpt>
      <trkpt lat="45.14919" lon="6.30899">
        <ele>2199.2</ele>
        <time>2021-02-28T06:30:22Z</time>
      </trkpt>
      <trkpt lat="45.14919" lon="6.30899">
        <ele>2199.6</ele>
        <time>2021-02-28T06:30:23Z</time>
      </trkpt>
      <trkpt lat="45.14917" lon="6.30899">
        <ele>2200</ele>
        <time>2021-02-28T06:30:24Z</time>
      </trkpt>
      <trkpt lat="45.14917" lon="6.30899">
        <ele>2200.4</ele>
        <time>2021-02-28T06:30:25Z</time>
      </trkpt>
      <trkpt lat="45.14915" lon="6.30898">
        <ele>2200.4</ele>
        <time>2021-02-28T06:30:26Z</time>
      </trkpt>
      <trkpt lat="45.14915" lon="6.30898">
        <ele>2200.6</ele>
        <time>2021-02-28T06:30:27Z</time>
      </trkpt>
      <trkpt lat="45.14915" lon="6.30898">
        <ele>2197.8</ele>
        <time>2021-02-28T06:30:28Z</time>
      </trkpt>
      <trkpt lat="45.14913" lon="6.30898">
        <ele>2198.8</ele>
        <time>2021-02-28T06:30:29Z</time>
      </trkpt>
      <trkpt lat="45.14913" lon="6.30898">
        <ele>2199.2</ele>
        <time>2021-02-28T06:30:30Z</time>
      </trkpt>
      <trkpt lat="45.14911" lon="6.30898">
        <ele>2198.6</ele>
        <time>2021-02-28T06:30:31Z</time>
      </trkpt>
      <trkpt lat="45.14911" lon="6.30898">
        <ele>2198.6</ele>
        <time>2021-02-28T06:30:32Z</time>
      </trkpt>
      <trkpt lat="45.14911" lon="6.30898">
        <ele>2199.4</ele>
        <time>2021-02-28T06:30:33Z</time>
      </trkpt>
      <trkpt lat="45.14909" lon="6.30899">
        <ele>2199.6</ele>
        <time>2021-02-28T06:30:34Z</time>
      </trkpt>
      <trkpt lat="45.14908" lon="6.30899">
        <ele>2198.8</ele>
        <time>2021-02-28T06:30:35Z</time>
      </trkpt>
      <trkpt lat="45.14907" lon="6.30899">
        <ele>2199</ele>
        <time>2021-02-28T06:30:36Z</time>
      </trkpt>
      <trkpt lat="45.14905" lon="6.30899">
        <ele>2197.2</ele>
        <time>2021-02-28T06:30:37Z</time>
      </trkpt>
      <trkpt lat="45.14904" lon="6.309">
        <ele>2199.2</ele>
        <time>2021-02-28T06:30:38Z</time>
      </trkpt>
      <trkpt lat="45.14903" lon="6.309">
        <ele>2200</ele>
        <time>2021-02-28T06:30:39Z</time>
      </trkpt>
      <trkpt lat="45.14902" lon="6.309">
        <ele>2199.4</ele>
        <time>2021-02-28T06:30:40Z</time>
      </trkpt>
      <trkpt lat="45.14901" lon="6.309">
        <ele>2200.6</ele>
        <time>2021-02-28T06:30:41Z</time>
      </trkpt>
      <trkpt lat="45.149" lon="6.30901">
        <ele>2201.4</ele>
        <time>2021-02-28T06:30:42Z</time>
      </trkpt>
      <trkpt lat="45.14899" lon="6.30901">
        <ele>2201.6</ele>
        <time>2021-02-28T06:30:43Z</time>
      </trkpt>
      <trkpt lat="45.14899" lon="6.30902">
        <ele>2201.8</ele>
        <time>2021-02-28T06:30:44Z</time>
      </trkpt>
      <trkpt lat="45.14898" lon="6.30902">
        <ele>2201.6</ele>
        <time>2021-02-28T06:30:45Z</time>
      </trkpt>
      <trkpt lat="45.14897" lon="6.30902">
        <ele>2202.2</ele>
        <time>2021-02-28T06:30:46Z</time>
      </trkpt>
      <trkpt lat="45.14897" lon="6.30903">
        <ele>2201.8</ele>
        <time>2021-02-28T06:30:47Z</time>
      </trkpt>
      <trkpt lat="45.14896" lon="6.30902">
        <ele>2202.4</ele>
        <time>2021-02-28T06:30:48Z</time>
      </trkpt>
      <trkpt lat="45.14896" lon="6.30902">
        <ele>2201.2</ele>
        <time>2021-02-28T06:30:49Z</time>
      </trkpt>
      <trkpt lat="45.14895" lon="6.30902">
        <ele>2201.8</ele>
        <time>2021-02-28T06:30:50Z</time>
      </trkpt>
      <trkpt lat="45.14894" lon="6.30902">
        <ele>2202.2</ele>
        <time>2021-02-28T06:30:51Z</time>
      </trkpt>
      <trkpt lat="45.14894" lon="6.30901">
        <ele>2203</ele>
        <time>2021-02-28T06:30:52Z</time>
      </trkpt>
      <trkpt lat="45.14893" lon="6.30901">
        <ele>2203.2</ele>
        <time>2021-02-28T06:30:53Z</time>
      </trkpt>
      <trkpt lat="45.14893" lon="6.30901">
        <ele>2202.6</ele>
        <time>2021-02-28T06:30:54Z</time>
      </trkpt>
      <trkpt lat="45.14892" lon="6.30901">
        <ele>2203.8</ele>
        <time>2021-02-28T06:30:55Z</time>
      </trkpt>
      <trkpt lat="45.14892" lon="6.30901">
        <ele>2204.2</ele>
        <time>2021-02-28T06:30:56Z</time>
      </trkpt>
      <trkpt lat="45.14891" lon="6.309">
        <ele>2205.2</ele>
        <time>2021-02-28T06:30:57Z</time>
      </trkpt>
      <trkpt lat="45.14891" lon="6.309">
        <ele>2206.2</ele>
        <time>2021-02-28T06:30:58Z</time>
      </trkpt>
      <trkpt lat="45.1489" lon="6.309">
        <ele>2206.2</ele>
        <time>2021-02-28T06:30:59Z</time>
      </trkpt>
      <trkpt lat="45.1489" lon="6.309">
        <ele>2206.6</ele>
        <time>2021-02-28T06:31:00Z</time>
      </trkpt>
      <trkpt lat="45.14887" lon="6.30898">
        <ele>2206.8</ele>
        <time>2021-02-28T06:31:01Z</time>
      </trkpt>
      <trkpt lat="45.14887" lon="6.30898">
        <ele>2206.8</ele>
        <time>2021-02-28T06:31:02Z</time>
      </trkpt>
      <trkpt lat="45.14887" lon="6.30898">
        <ele>2207</ele>
        <time>2021-02-28T06:31:03Z</time>
      </trkpt>
      <trkpt lat="45.14885" lon="6.30899">
        <ele>2207.6</ele>
        <time>2021-02-28T06:31:04Z</time>
      </trkpt>
      <trkpt lat="45.14885" lon="6.30899">
        <ele>2207.8</ele>
        <time>2021-02-28T06:31:05Z</time>
      </trkpt>
      <trkpt lat="45.14885" lon="6.30899">
        <ele>2208.2</ele>
        <time>2021-02-28T06:31:06Z</time>
      </trkpt>
      <trkpt lat="45.14882" lon="6.309">
        <ele>2208.6</ele>
        <time>2021-02-28T06:31:07Z</time>
      </trkpt>
      <trkpt lat="45.14882" lon="6.309">
        <ele>2208.4</ele>
        <time>2021-02-28T06:31:08Z</time>
      </trkpt>
      <trkpt lat="45.14882" lon="6.309">
        <ele>2208.6</ele>
        <time>2021-02-28T06:31:09Z</time>
      </trkpt>
      <trkpt lat="45.1488" lon="6.30901">
        <ele>2208.8</ele>
        <time>2021-02-28T06:31:10Z</time>
      </trkpt>
      <trkpt lat="45.1488" lon="6.30901">
        <ele>2209</ele>
        <time>2021-02-28T06:31:11Z</time>
      </trkpt>
      <trkpt lat="45.1488" lon="6.30901">
        <ele>2209.2</ele>
        <time>2021-02-28T06:31:12Z</time>
      </trkpt>
      <trkpt lat="45.14878" lon="6.30903">
        <ele>2209.4</ele>
        <time>2021-02-28T06:31:13Z</time>
      </trkpt>
      <trkpt lat="45.14878" lon="6.30903">
        <ele>2209.6</ele>
        <time>2021-02-28T06:31:14Z</time>
      </trkpt>
      <trkpt lat="45.14878" lon="6.30903">
        <ele>2210</ele>
        <time>2021-02-28T06:31:15Z</time>
      </trkpt>
      <trkpt lat="45.14876" lon="6.30905">
        <ele>2210.4</ele>
        <time>2021-02-28T06:31:16Z</time>
      </trkpt>
      <trkpt lat="45.14876" lon="6.30905">
        <ele>2210.4</ele>
        <time>2021-02-28T06:31:17Z</time>
      </trkpt>
      <trkpt lat="45.14874" lon="6.30907">
        <ele>2210.6</ele>
        <time>2021-02-28T06:31:18Z</time>
      </trkpt>
      <trkpt lat="45.14874" lon="6.30907">
        <ele>2210.8</ele>
        <time>2021-02-28T06:31:19Z</time>
      </trkpt>
      <trkpt lat="45.14873" lon="6.30909">
        <ele>2210.8</ele>
        <time>2021-02-28T06:31:20Z</time>
      </trkpt>
      <trkpt lat="45.14873" lon="6.30909">
        <ele>2211.2</ele>
        <time>2021-02-28T06:31:21Z</time>
      </trkpt>
      <trkpt lat="45.14873" lon="6.30909">
        <ele>2211</ele>
        <time>2021-02-28T06:31:22Z</time>
      </trkpt>
      <trkpt lat="45.14871" lon="6.30911">
        <ele>2210.8</ele>
        <time>2021-02-28T06:31:23Z</time>
      </trkpt>
      <trkpt lat="45.14871" lon="6.30911">
        <ele>2211.6</ele>
        <time>2021-02-28T06:31:24Z</time>
      </trkpt>
      <trkpt lat="45.1487" lon="6.30914">
        <ele>2211.6</ele>
        <time>2021-02-28T06:31:25Z</time>
      </trkpt>
      <trkpt lat="45.1487" lon="6.30914">
        <ele>2211.8</ele>
        <time>2021-02-28T06:31:26Z</time>
      </trkpt>
      <trkpt lat="45.14868" lon="6.30916">
        <ele>2212.2</ele>
        <time>2021-02-28T06:31:27Z</time>
      </trkpt>
      <trkpt lat="45.14868" lon="6.30916">
        <ele>2212.2</ele>
        <time>2021-02-28T06:31:28Z</time>
      </trkpt>
      <trkpt lat="45.14867" lon="6.30919">
        <ele>2212.2</ele>
        <time>2021-02-28T06:31:29Z</time>
      </trkpt>
      <trkpt lat="45.14867" lon="6.30919">
        <ele>2212.6</ele>
        <time>2021-02-28T06:31:30Z</time>
      </trkpt>
      <trkpt lat="45.14865" lon="6.30921">
        <ele>2212.6</ele>
        <time>2021-02-28T06:31:31Z</time>
      </trkpt>
      <trkpt lat="45.14865" lon="6.30921">
        <ele>2213</ele>
        <time>2021-02-28T06:31:32Z</time>
      </trkpt>
      <trkpt lat="45.14863" lon="6.30924">
        <ele>2213.4</ele>
        <time>2021-02-28T06:31:33Z</time>
      </trkpt>
      <trkpt lat="45.14863" lon="6.30924">
        <ele>2213.6</ele>
        <time>2021-02-28T06:31:34Z</time>
      </trkpt>
      <trkpt lat="45.14861" lon="6.30926">
        <ele>2214</ele>
        <time>2021-02-28T06:31:35Z</time>
      </trkpt>
      <trkpt lat="45.14861" lon="6.30926">
        <ele>2214.2</ele>
        <time>2021-02-28T06:31:36Z</time>
      </trkpt>
      <trkpt lat="45.14859" lon="6.30929">
        <ele>2214.4</ele>
        <time>2021-02-28T06:31:37Z</time>
      </trkpt>
      <trkpt lat="45.14859" lon="6.30929">
        <ele>2214.6</ele>
        <time>2021-02-28T06:31:38Z</time>
      </trkpt>
      <trkpt lat="45.14858" lon="6.3093">
        <ele>2214.6</ele>
        <time>2021-02-28T06:31:39Z</time>
      </trkpt>
      <trkpt lat="45.14858" lon="6.3093">
        <ele>2214.6</ele>
        <time>2021-02-28T06:31:40Z</time>
      </trkpt>
      <trkpt lat="45.14856" lon="6.30933">
        <ele>2215</ele>
        <time>2021-02-28T06:31:41Z</time>
      </trkpt>
      <trkpt lat="45.14856" lon="6.30933">
        <ele>2214.4</ele>
        <time>2021-02-28T06:31:42Z</time>
      </trkpt>
      <trkpt lat="45.14854" lon="6.30935">
        <ele>2215</ele>
        <time>2021-02-28T06:31:43Z</time>
      </trkpt>
      <trkpt lat="45.14854" lon="6.30935">
        <ele>2215.4</ele>
        <time>2021-02-28T06:31:44Z</time>
      </trkpt>
      <trkpt lat="45.14853" lon="6.30937">
        <ele>2215</ele>
        <time>2021-02-28T06:31:45Z</time>
      </trkpt>
      <trkpt lat="45.14853" lon="6.30937">
        <ele>2215.2</ele>
        <time>2021-02-28T06:31:46Z</time>
      </trkpt>
      <trkpt lat="45.14853" lon="6.30937">
        <ele>2215</ele>
        <time>2021-02-28T06:31:47Z</time>
      </trkpt>
      <trkpt lat="45.14851" lon="6.3094">
        <ele>2215.4</ele>
        <time>2021-02-28T06:31:48Z</time>
      </trkpt>
      <trkpt lat="45.14851" lon="6.3094">
        <ele>2215.2</ele>
        <time>2021-02-28T06:31:49Z</time>
      </trkpt>
      <trkpt lat="45.1485" lon="6.30942">
        <ele>2215.2</ele>
        <time>2021-02-28T06:31:50Z</time>
      </trkpt>
      <trkpt lat="45.1485" lon="6.30942">
        <ele>2215.6</ele>
        <time>2021-02-28T06:31:51Z</time>
      </trkpt>
      <trkpt lat="45.14848" lon="6.30944">
        <ele>2216.2</ele>
        <time>2021-02-28T06:31:52Z</time>
      </trkpt>
      <trkpt lat="45.14848" lon="6.30944">
        <ele>2216</ele>
        <time>2021-02-28T06:31:53Z</time>
      </trkpt>
      <trkpt lat="45.14847" lon="6.30946">
        <ele>2216</ele>
        <time>2021-02-28T06:31:54Z</time>
      </trkpt>
      <trkpt lat="45.14847" lon="6.30946">
        <ele>2216.4</ele>
        <time>2021-02-28T06:31:55Z</time>
      </trkpt>
      <trkpt lat="45.14845" lon="6.30948">
        <ele>2217.2</ele>
        <time>2021-02-28T06:31:56Z</time>
      </trkpt>
      <trkpt lat="45.14845" lon="6.30948">
        <ele>2217.8</ele>
        <time>2021-02-28T06:31:57Z</time>
      </trkpt>
      <trkpt lat="45.14844" lon="6.30951">
        <ele>2218</ele>
        <time>2021-02-28T06:31:58Z</time>
      </trkpt>
      <trkpt lat="45.14844" lon="6.30951">
        <ele>2218.4</ele>
        <time>2021-02-28T06:31:59Z</time>
      </trkpt>
      <trkpt lat="45.14842" lon="6.30953">
        <ele>2218.6</ele>
        <time>2021-02-28T06:32:00Z</time>
      </trkpt>
      <trkpt lat="45.14842" lon="6.30953">
        <ele>2219</ele>
        <time>2021-02-28T06:32:01Z</time>
      </trkpt>
      <trkpt lat="45.14841" lon="6.30955">
        <ele>2219</ele>
        <time>2021-02-28T06:32:02Z</time>
      </trkpt>
      <trkpt lat="45.14841" lon="6.30955">
        <ele>2218.6</ele>
        <time>2021-02-28T06:32:03Z</time>
      </trkpt>
      <trkpt lat="45.14839" lon="6.30957">
        <ele>2219.6</ele>
        <time>2021-02-28T06:32:04Z</time>
      </trkpt>
      <trkpt lat="45.14839" lon="6.30957">
        <ele>2219.4</ele>
        <time>2021-02-28T06:32:05Z</time>
      </trkpt>
      <trkpt lat="45.14838" lon="6.30959">
        <ele>2219.8</ele>
        <time>2021-02-28T06:32:06Z</time>
      </trkpt>
      <trkpt lat="45.14838" lon="6.30959">
        <ele>2220.2</ele>
        <time>2021-02-28T06:32:07Z</time>
      </trkpt>
      <trkpt lat="45.14836" lon="6.30961">
        <ele>2220.6</ele>
        <time>2021-02-28T06:32:08Z</time>
      </trkpt>
      <trkpt lat="45.14836" lon="6.30961">
        <ele>2221.2</ele>
        <time>2021-02-28T06:32:09Z</time>
      </trkpt>
      <trkpt lat="45.14835" lon="6.30963">
        <ele>2221.6</ele>
        <time>2021-02-28T06:32:10Z</time>
      </trkpt>
      <trkpt lat="45.14835" lon="6.30963">
        <ele>2222</ele>
        <time>2021-02-28T06:32:11Z</time>
      </trkpt>
      <trkpt lat="45.14834" lon="6.30965">
        <ele>2222.4</ele>
        <time>2021-02-28T06:32:12Z</time>
      </trkpt>
      <trkpt lat="45.14834" lon="6.30965">
        <ele>2222</ele>
        <time>2021-02-28T06:32:13Z</time>
      </trkpt>
      <trkpt lat="45.14832" lon="6.30968">
        <ele>2221.6</ele>
        <time>2021-02-28T06:32:14Z</time>
      </trkpt>
      <trkpt lat="45.14832" lon="6.30968">
        <ele>2222.6</ele>
        <time>2021-02-28T06:32:15Z</time>
      </trkpt>
      <trkpt lat="45.14831" lon="6.3097">
        <ele>2222.4</ele>
        <time>2021-02-28T06:32:16Z</time>
      </trkpt>
      <trkpt lat="45.14831" lon="6.3097">
        <ele>2223</ele>
        <time>2021-02-28T06:32:17Z</time>
      </trkpt>
      <trkpt lat="45.14829" lon="6.30972">
        <ele>2222.6</ele>
        <time>2021-02-28T06:32:18Z</time>
      </trkpt>
      <trkpt lat="45.14829" lon="6.30972">
        <ele>2223</ele>
        <time>2021-02-28T06:32:19Z</time>
      </trkpt>
      <trkpt lat="45.14828" lon="6.30975">
        <ele>2223.4</ele>
        <time>2021-02-28T06:32:20Z</time>
      </trkpt>
      <trkpt lat="45.14828" lon="6.30975">
        <ele>2224.4</ele>
        <time>2021-02-28T06:32:21Z</time>
      </trkpt>
      <trkpt lat="45.14827" lon="6.30977">
        <ele>2224.8</ele>
        <time>2021-02-28T06:32:22Z</time>
      </trkpt>
      <trkpt lat="45.14827" lon="6.30977">
        <ele>2225</ele>
        <time>2021-02-28T06:32:23Z</time>
      </trkpt>
      <trkpt lat="45.14826" lon="6.30979">
        <ele>2225.4</ele>
        <time>2021-02-28T06:32:24Z</time>
      </trkpt>
      <trkpt lat="45.14826" lon="6.30979">
        <ele>2225.4</ele>
        <time>2021-02-28T06:32:25Z</time>
      </trkpt>
      <trkpt lat="45.14824" lon="6.30981">
        <ele>2225.6</ele>
        <time>2021-02-28T06:32:26Z</time>
      </trkpt>
      <trkpt lat="45.14824" lon="6.30981">
        <ele>2226.2</ele>
        <time>2021-02-28T06:32:27Z</time>
      </trkpt>
      <trkpt lat="45.14823" lon="6.30984">
        <ele>2226.4</ele>
        <time>2021-02-28T06:32:28Z</time>
      </trkpt>
      <trkpt lat="45.14823" lon="6.30984">
        <ele>2226.2</ele>
        <time>2021-02-28T06:32:29Z</time>
      </trkpt>
      <trkpt lat="45.14822" lon="6.30986">
        <ele>2226.6</ele>
        <time>2021-02-28T06:32:30Z</time>
      </trkpt>
      <trkpt lat="45.14822" lon="6.30986">
        <ele>2227</ele>
        <time>2021-02-28T06:32:31Z</time>
      </trkpt>
      <trkpt lat="45.14821" lon="6.30988">
        <ele>2226.8</ele>
        <time>2021-02-28T06:32:32Z</time>
      </trkpt>
      <trkpt lat="45.14821" lon="6.30988">
        <ele>2227</ele>
        <time>2021-02-28T06:32:33Z</time>
      </trkpt>
      <trkpt lat="45.14819" lon="6.3099">
        <ele>2226.6</ele>
        <time>2021-02-28T06:32:34Z</time>
      </trkpt>
      <trkpt lat="45.14819" lon="6.3099">
        <ele>2226.4</ele>
        <time>2021-02-28T06:32:35Z</time>
      </trkpt>
      <trkpt lat="45.14819" lon="6.3099">
        <ele>2226.6</ele>
        <time>2021-02-28T06:32:36Z</time>
      </trkpt>
      <trkpt lat="45.14818" lon="6.30993">
        <ele>2226.8</ele>
        <time>2021-02-28T06:32:37Z</time>
      </trkpt>
      <trkpt lat="45.14818" lon="6.30993">
        <ele>2227</ele>
        <time>2021-02-28T06:32:38Z</time>
      </trkpt>
      <trkpt lat="45.14817" lon="6.30995">
        <ele>2227.2</ele>
        <time>2021-02-28T06:32:39Z</time>
      </trkpt>
      <trkpt lat="45.14817" lon="6.30995">
        <ele>2227.6</ele>
        <time>2021-02-28T06:32:40Z</time>
      </trkpt>
      <trkpt lat="45.14816" lon="6.30998">
        <ele>2227.6</ele>
        <time>2021-02-28T06:32:41Z</time>
      </trkpt>
      <trkpt lat="45.14816" lon="6.30998">
        <ele>2227.4</ele>
        <time>2021-02-28T06:32:42Z</time>
      </trkpt>
      <trkpt lat="45.14814" lon="6.31">
        <ele>2227.8</ele>
        <time>2021-02-28T06:32:43Z</time>
      </trkpt>
      <trkpt lat="45.14814" lon="6.31">
        <ele>2228.2</ele>
        <time>2021-02-28T06:32:44Z</time>
      </trkpt>
      <trkpt lat="45.14813" lon="6.31002">
        <ele>2228</ele>
        <time>2021-02-28T06:32:45Z</time>
      </trkpt>
      <trkpt lat="45.14813" lon="6.31002">
        <ele>2228</ele>
        <time>2021-02-28T06:32:46Z</time>
      </trkpt>
      <trkpt lat="45.14812" lon="6.31004">
        <ele>2228</ele>
        <time>2021-02-28T06:32:47Z</time>
      </trkpt>
      <trkpt lat="45.14812" lon="6.31004">
        <ele>2228.2</ele>
        <time>2021-02-28T06:32:48Z</time>
      </trkpt>
      <trkpt lat="45.14811" lon="6.31006">
        <ele>2228</ele>
        <time>2021-02-28T06:32:49Z</time>
      </trkpt>
      <trkpt lat="45.14811" lon="6.31006">
        <ele>2228.2</ele>
        <time>2021-02-28T06:32:50Z</time>
      </trkpt>
      <trkpt lat="45.14811" lon="6.31006">
        <ele>2227.2</ele>
        <time>2021-02-28T06:32:51Z</time>
      </trkpt>
      <trkpt lat="45.14809" lon="6.31009">
        <ele>2227.6</ele>
        <time>2021-02-28T06:32:52Z</time>
      </trkpt>
      <trkpt lat="45.14809" lon="6.31009">
        <ele>2227.8</ele>
        <time>2021-02-28T06:32:53Z</time>
      </trkpt>
      <trkpt lat="45.14809" lon="6.31009">
        <ele>2228.4</ele>
        <time>2021-02-28T06:32:54Z</time>
      </trkpt>
      <trkpt lat="45.14808" lon="6.31012">
        <ele>2228.2</ele>
        <time>2021-02-28T06:32:55Z</time>
      </trkpt>
      <trkpt lat="45.14808" lon="6.31012">
        <ele>2228.4</ele>
        <time>2021-02-28T06:32:56Z</time>
      </trkpt>
      <trkpt lat="45.14807" lon="6.31015">
        <ele>2229</ele>
        <time>2021-02-28T06:32:57Z</time>
      </trkpt>
      <trkpt lat="45.14807" lon="6.31015">
        <ele>2229</ele>
        <time>2021-02-28T06:32:58Z</time>
      </trkpt>
      <trkpt lat="45.14806" lon="6.31017">
        <ele>2229.4</ele>
        <time>2021-02-28T06:32:59Z</time>
      </trkpt>
      <trkpt lat="45.14806" lon="6.31017">
        <ele>2229.4</ele>
        <time>2021-02-28T06:33:00Z</time>
      </trkpt>
      <trkpt lat="45.14804" lon="6.3102">
        <ele>2229.6</ele>
        <time>2021-02-28T06:33:01Z</time>
      </trkpt>
      <trkpt lat="45.14804" lon="6.3102">
        <ele>2229.4</ele>
        <time>2021-02-28T06:33:02Z</time>
      </trkpt>
      <trkpt lat="45.14803" lon="6.31022">
        <ele>2229.8</ele>
        <time>2021-02-28T06:33:03Z</time>
      </trkpt>
      <trkpt lat="45.14803" lon="6.31022">
        <ele>2230</ele>
        <time>2021-02-28T06:33:04Z</time>
      </trkpt>
      <trkpt lat="45.14803" lon="6.31022">
        <ele>2230</ele>
        <time>2021-02-28T06:33:05Z</time>
      </trkpt>
      <trkpt lat="45.14802" lon="6.31024">
        <ele>2229.6</ele>
        <time>2021-02-28T06:33:06Z</time>
      </trkpt>
      <trkpt lat="45.14802" lon="6.31024">
        <ele>2229</ele>
        <time>2021-02-28T06:33:07Z</time>
      </trkpt>
      <trkpt lat="45.14801" lon="6.31027">
        <ele>2229.2</ele>
        <time>2021-02-28T06:33:08Z</time>
      </trkpt>
      <trkpt lat="45.14801" lon="6.31027">
        <ele>2229.6</ele>
        <time>2021-02-28T06:33:09Z</time>
      </trkpt>
      <trkpt lat="45.148" lon="6.31029">
        <ele>2230</ele>
        <time>2021-02-28T06:33:10Z</time>
      </trkpt>
      <trkpt lat="45.148" lon="6.31029">
        <ele>2230.2</ele>
        <time>2021-02-28T06:33:11Z</time>
      </trkpt>
      <trkpt lat="45.148" lon="6.31029">
        <ele>2229</ele>
        <time>2021-02-28T06:33:12Z</time>
      </trkpt>
      <trkpt lat="45.14798" lon="6.31032">
        <ele>2229.8</ele>
        <time>2021-02-28T06:33:13Z</time>
      </trkpt>
      <trkpt lat="45.14798" lon="6.31032">
        <ele>2230.6</ele>
        <time>2021-02-28T06:33:14Z</time>
      </trkpt>
      <trkpt lat="45.14797" lon="6.31034">
        <ele>2230.8</ele>
        <time>2021-02-28T06:33:15Z</time>
      </trkpt>
      <trkpt lat="45.14797" lon="6.31034">
        <ele>2230.8</ele>
        <time>2021-02-28T06:33:16Z</time>
      </trkpt>
      <trkpt lat="45.14797" lon="6.31034">
        <ele>2231.2</ele>
        <time>2021-02-28T06:33:17Z</time>
      </trkpt>
      <trkpt lat="45.14796" lon="6.31037">
        <ele>2231.4</ele>
        <time>2021-02-28T06:33:18Z</time>
      </trkpt>
      <trkpt lat="45.14796" lon="6.31037">
        <ele>2231.4</ele>
        <time>2021-02-28T06:33:19Z</time>
      </trkpt>
      <trkpt lat="45.14795" lon="6.31039">
        <ele>2230.6</ele>
        <time>2021-02-28T06:33:20Z</time>
      </trkpt>
      <trkpt lat="45.14795" lon="6.31039">
        <ele>2231.2</ele>
        <time>2021-02-28T06:33:21Z</time>
      </trkpt>
      <trkpt lat="45.14795" lon="6.31039">
        <ele>2231.4</ele>
        <time>2021-02-28T06:33:22Z</time>
      </trkpt>
      <trkpt lat="45.14794" lon="6.31042">
        <ele>2231.8</ele>
        <time>2021-02-28T06:33:23Z</time>
      </trkpt>
      <trkpt lat="45.14794" lon="6.31042">
        <ele>2232</ele>
        <time>2021-02-28T06:33:24Z</time>
      </trkpt>
      <trkpt lat="45.14794" lon="6.31042">
        <ele>2232.2</ele>
        <time>2021-02-28T06:33:25Z</time>
      </trkpt>
      <trkpt lat="45.14794" lon="6.31046">
        <ele>2232.4</ele>
        <time>2021-02-28T06:33:26Z</time>
      </trkpt>
      <trkpt lat="45.14794" lon="6.31046">
        <ele>2232.6</ele>
        <time>2021-02-28T06:33:27Z</time>
      </trkpt>
      <trkpt lat="45.14794" lon="6.31046">
        <ele>2232.8</ele>
        <time>2021-02-28T06:33:28Z</time>
      </trkpt>
      <trkpt lat="45.14794" lon="6.31046">
        <ele>2232.8</ele>
        <time>2021-02-28T06:33:29Z</time>
      </trkpt>
      <trkpt lat="45.14794" lon="6.31049">
        <ele>2233.2</ele>
        <time>2021-02-28T06:33:30Z</time>
      </trkpt>
      <trkpt lat="45.14794" lon="6.31049">
        <ele>2233.2</ele>
        <time>2021-02-28T06:33:31Z</time>
      </trkpt>
      <trkpt lat="45.14794" lon="6.31049">
        <ele>2233.4</ele>
        <time>2021-02-28T06:33:32Z</time>
      </trkpt>
      <trkpt lat="45.14794" lon="6.31052">
        <ele>2234</ele>
        <time>2021-02-28T06:33:33Z</time>
      </trkpt>
      <trkpt lat="45.14794" lon="6.31052">
        <ele>2234</ele>
        <time>2021-02-28T06:33:34Z</time>
      </trkpt>
      <trkpt lat="45.14793" lon="6.31055">
        <ele>2234</ele>
        <time>2021-02-28T06:33:35Z</time>
      </trkpt>
      <trkpt lat="45.14793" lon="6.31055">
        <ele>2234.2</ele>
        <time>2021-02-28T06:33:36Z</time>
      </trkpt>
      <trkpt lat="45.14793" lon="6.31055">
        <ele>2234.4</ele>
        <time>2021-02-28T06:33:37Z</time>
      </trkpt>
      <trkpt lat="45.14793" lon="6.31055">
        <ele>2234.4</ele>
        <time>2021-02-28T06:33:38Z</time>
      </trkpt>
      <trkpt lat="45.14793" lon="6.31055">
        <ele>2234</ele>
        <time>2021-02-28T06:33:39Z</time>
      </trkpt>
      <trkpt lat="45.14793" lon="6.31055">
        <ele>2234.2</ele>
        <time>2021-02-28T06:33:40Z</time>
      </trkpt>
      <trkpt lat="45.14792" lon="6.31059">
        <ele>2234</ele>
        <time>2021-02-28T06:33:41Z</time>
      </trkpt>
      <trkpt lat="45.14792" lon="6.31059">
        <ele>2234</ele>
        <time>2021-02-28T06:33:42Z</time>
      </trkpt>
      <trkpt lat="45.14792" lon="6.31062">
        <ele>2233.8</ele>
        <time>2021-02-28T06:33:43Z</time>
      </trkpt>
      <trkpt lat="45.14792" lon="6.31062">
        <ele>2234</ele>
        <time>2021-02-28T06:33:44Z</time>
      </trkpt>
      <trkpt lat="45.14792" lon="6.31062">
        <ele>2234.4</ele>
        <time>2021-02-28T06:33:45Z</time>
      </trkpt>
      <trkpt lat="45.14792" lon="6.31062">
        <ele>2234.4</ele>
        <time>2021-02-28T06:33:46Z</time>
      </trkpt>
      <trkpt lat="45.14792" lon="6.31062">
        <ele>2234.4</ele>
        <time>2021-02-28T06:33:47Z</time>
      </trkpt>
      <trkpt lat="45.14792" lon="6.31062">
        <ele>2234.4</ele>
        <time>2021-02-28T06:33:48Z</time>
      </trkpt>
      <trkpt lat="45.14792" lon="6.31062">
        <ele>2234.6</ele>
        <time>2021-02-28T06:33:49Z</time>
      </trkpt>
      <trkpt lat="45.14792" lon="6.31062">
        <ele>2234.8</ele>
        <time>2021-02-28T06:33:50Z</time>
      </trkpt>
      <trkpt lat="45.1479" lon="6.31064">
        <ele>2234.8</ele>
        <time>2021-02-28T06:33:51Z</time>
      </trkpt>
      <trkpt lat="45.1479" lon="6.31064">
        <ele>2235.2</ele>
        <time>2021-02-28T06:33:52Z</time>
      </trkpt>
      <trkpt lat="45.1479" lon="6.31064">
        <ele>2234.8</ele>
        <time>2021-02-28T06:33:53Z</time>
      </trkpt>
      <trkpt lat="45.1479" lon="6.31064">
        <ele>2235.2</ele>
        <time>2021-02-28T06:33:54Z</time>
      </trkpt>
      <trkpt lat="45.1479" lon="6.31064">
        <ele>2235.2</ele>
        <time>2021-02-28T06:33:55Z</time>
      </trkpt>
      <trkpt lat="45.1479" lon="6.31064">
        <ele>2235.2</ele>
        <time>2021-02-28T06:33:56Z</time>
      </trkpt>
      <trkpt lat="45.1479" lon="6.31064">
        <ele>2235</ele>
        <time>2021-02-28T06:33:57Z</time>
      </trkpt>
      <trkpt lat="45.1479" lon="6.31064">
        <ele>2235.4</ele>
        <time>2021-02-28T06:33:58Z</time>
      </trkpt>
      <trkpt lat="45.14789" lon="6.31067">
        <ele>2235</ele>
        <time>2021-02-28T06:33:59Z</time>
      </trkpt>
      <trkpt lat="45.14789" lon="6.31067">
        <ele>2235.4</ele>
        <time>2021-02-28T06:34:00Z</time>
      </trkpt>
      <trkpt lat="45.14789" lon="6.3107">
        <ele>2235.6</ele>
        <time>2021-02-28T06:34:01Z</time>
      </trkpt>
      <trkpt lat="45.14789" lon="6.3107">
        <ele>2235.8</ele>
        <time>2021-02-28T06:34:02Z</time>
      </trkpt>
      <trkpt lat="45.14787" lon="6.31073">
        <ele>2236</ele>
        <time>2021-02-28T06:34:03Z</time>
      </trkpt>
      <trkpt lat="45.14787" lon="6.31073">
        <ele>2236</ele>
        <time>2021-02-28T06:34:04Z</time>
      </trkpt>
      <trkpt lat="45.14786" lon="6.31076">
        <ele>2235.6</ele>
        <time>2021-02-28T06:34:05Z</time>
      </trkpt>
      <trkpt lat="45.14786" lon="6.31076">
        <ele>2235.8</ele>
        <time>2021-02-28T06:34:06Z</time>
      </trkpt>
      <trkpt lat="45.14786" lon="6.31076">
        <ele>2235.6</ele>
        <time>2021-02-28T06:34:07Z</time>
      </trkpt>
      <trkpt lat="45.14784" lon="6.31078">
        <ele>2235.8</ele>
        <time>2021-02-28T06:34:08Z</time>
      </trkpt>
      <trkpt lat="45.14784" lon="6.31078">
        <ele>2236</ele>
        <time>2021-02-28T06:34:09Z</time>
      </trkpt>
      <trkpt lat="45.14782" lon="6.3108">
        <ele>2236.2</ele>
        <time>2021-02-28T06:34:10Z</time>
      </trkpt>
      <trkpt lat="45.14782" lon="6.3108">
        <ele>2236.8</ele>
        <time>2021-02-28T06:34:11Z</time>
      </trkpt>
      <trkpt lat="45.14781" lon="6.31081">
        <ele>2237.2</ele>
        <time>2021-02-28T06:34:12Z</time>
      </trkpt>
      <trkpt lat="45.14781" lon="6.31081">
        <ele>2237.4</ele>
        <time>2021-02-28T06:34:13Z</time>
      </trkpt>
      <trkpt lat="45.14781" lon="6.31081">
        <ele>2237.6</ele>
        <time>2021-02-28T06:34:14Z</time>
      </trkpt>
      <trkpt lat="45.14778" lon="6.31082">
        <ele>2237.6</ele>
        <time>2021-02-28T06:34:15Z</time>
      </trkpt>
      <trkpt lat="45.14778" lon="6.31082">
        <ele>2237.8</ele>
        <time>2021-02-28T06:34:16Z</time>
      </trkpt>
      <trkpt lat="45.14776" lon="6.31084">
        <ele>2237.8</ele>
        <time>2021-02-28T06:34:17Z</time>
      </trkpt>
      <trkpt lat="45.14776" lon="6.31084">
        <ele>2238</ele>
        <time>2021-02-28T06:34:18Z</time>
      </trkpt>
      <trkpt lat="45.14774" lon="6.31086">
        <ele>2238.2</ele>
        <time>2021-02-28T06:34:19Z</time>
      </trkpt>
      <trkpt lat="45.14774" lon="6.31086">
        <ele>2238.8</ele>
        <time>2021-02-28T06:34:20Z</time>
      </trkpt>
      <trkpt lat="45.14773" lon="6.31089">
        <ele>2238.8</ele>
        <time>2021-02-28T06:34:21Z</time>
      </trkpt>
      <trkpt lat="45.14773" lon="6.31089">
        <ele>2239</ele>
        <time>2021-02-28T06:34:22Z</time>
      </trkpt>
      <trkpt lat="45.14771" lon="6.31091">
        <ele>2237.8</ele>
        <time>2021-02-28T06:34:23Z</time>
      </trkpt>
      <trkpt lat="45.14771" lon="6.31091">
        <ele>2238</ele>
        <time>2021-02-28T06:34:24Z</time>
      </trkpt>
      <trkpt lat="45.14769" lon="6.31093">
        <ele>2238.6</ele>
        <time>2021-02-28T06:34:25Z</time>
      </trkpt>
      <trkpt lat="45.14769" lon="6.31093">
        <ele>2238.8</ele>
        <time>2021-02-28T06:34:26Z</time>
      </trkpt>
      <trkpt lat="45.14768" lon="6.31095">
        <ele>2239.2</ele>
        <time>2021-02-28T06:34:27Z</time>
      </trkpt>
      <trkpt lat="45.14768" lon="6.31095">
        <ele>2239.6</ele>
        <time>2021-02-28T06:34:28Z</time>
      </trkpt>
      <trkpt lat="45.14767" lon="6.31097">
        <ele>2240</ele>
        <time>2021-02-28T06:34:29Z</time>
      </trkpt>
      <trkpt lat="45.14767" lon="6.31097">
        <ele>2240.4</ele>
        <time>2021-02-28T06:34:30Z</time>
      </trkpt>
      <trkpt lat="45.14767" lon="6.31097">
        <ele>2240.4</ele>
        <time>2021-02-28T06:34:31Z</time>
      </trkpt>
      <trkpt lat="45.14765" lon="6.311">
        <ele>2240.6</ele>
        <time>2021-02-28T06:34:32Z</time>
      </trkpt>
      <trkpt lat="45.14765" lon="6.311">
        <ele>2240.4</ele>
        <time>2021-02-28T06:34:33Z</time>
      </trkpt>
      <trkpt lat="45.14764" lon="6.31102">
        <ele>2241</ele>
        <time>2021-02-28T06:34:34Z</time>
      </trkpt>
      <trkpt lat="45.14764" lon="6.31102">
        <ele>2241.8</ele>
        <time>2021-02-28T06:34:35Z</time>
      </trkpt>
      <trkpt lat="45.14762" lon="6.31104">
        <ele>2242.2</ele>
        <time>2021-02-28T06:34:36Z</time>
      </trkpt>
      <trkpt lat="45.14762" lon="6.31104">
        <ele>2241.6</ele>
        <time>2021-02-28T06:34:37Z</time>
      </trkpt>
      <trkpt lat="45.14762" lon="6.31104">
        <ele>2241.8</ele>
        <time>2021-02-28T06:34:38Z</time>
      </trkpt>
      <trkpt lat="45.14762" lon="6.31104">
        <ele>2242.4</ele>
        <time>2021-02-28T06:34:39Z</time>
      </trkpt>
      <trkpt lat="45.1476" lon="6.31108">
        <ele>2242.8</ele>
        <time>2021-02-28T06:34:40Z</time>
      </trkpt>
      <trkpt lat="45.1476" lon="6.31108">
        <ele>2242.8</ele>
        <time>2021-02-28T06:34:41Z</time>
      </trkpt>
      <trkpt lat="45.14759" lon="6.3111">
        <ele>2243.2</ele>
        <time>2021-02-28T06:34:42Z</time>
      </trkpt>
      <trkpt lat="45.14759" lon="6.3111">
        <ele>2243.6</ele>
        <time>2021-02-28T06:34:43Z</time>
      </trkpt>
      <trkpt lat="45.14759" lon="6.3111">
        <ele>2243.4</ele>
        <time>2021-02-28T06:34:44Z</time>
      </trkpt>
      <trkpt lat="45.14757" lon="6.31112">
        <ele>2243.8</ele>
        <time>2021-02-28T06:34:45Z</time>
      </trkpt>
      <trkpt lat="45.14757" lon="6.31112">
        <ele>2244</ele>
        <time>2021-02-28T06:34:46Z</time>
      </trkpt>
      <trkpt lat="45.14756" lon="6.31114">
        <ele>2244.4</ele>
        <time>2021-02-28T06:34:47Z</time>
      </trkpt>
      <trkpt lat="45.14756" lon="6.31114">
        <ele>2244.8</ele>
        <time>2021-02-28T06:34:48Z</time>
      </trkpt>
      <trkpt lat="45.14755" lon="6.31116">
        <ele>2245.2</ele>
        <time>2021-02-28T06:34:49Z</time>
      </trkpt>
      <trkpt lat="45.14755" lon="6.31116">
        <ele>2245</ele>
        <time>2021-02-28T06:34:50Z</time>
      </trkpt>
      <trkpt lat="45.14755" lon="6.31116">
        <ele>2245.6</ele>
        <time>2021-02-28T06:34:51Z</time>
      </trkpt>
      <trkpt lat="45.14754" lon="6.31119">
        <ele>2246</ele>
        <time>2021-02-28T06:34:52Z</time>
      </trkpt>
      <trkpt lat="45.14754" lon="6.31119">
        <ele>2246.8</ele>
        <time>2021-02-28T06:34:53Z</time>
      </trkpt>
      <trkpt lat="45.14754" lon="6.31119">
        <ele>2247</ele>
        <time>2021-02-28T06:34:54Z</time>
      </trkpt>
      <trkpt lat="45.14752" lon="6.31123">
        <ele>2247</ele>
        <time>2021-02-28T06:34:55Z</time>
      </trkpt>
      <trkpt lat="45.14752" lon="6.31123">
        <ele>2247.4</ele>
        <time>2021-02-28T06:34:56Z</time>
      </trkpt>
      <trkpt lat="45.14751" lon="6.31125">
        <ele>2247</ele>
        <time>2021-02-28T06:34:57Z</time>
      </trkpt>
      <trkpt lat="45.14751" lon="6.31125">
        <ele>2247.6</ele>
        <time>2021-02-28T06:34:58Z</time>
      </trkpt>
      <trkpt lat="45.14749" lon="6.31127">
        <ele>2248</ele>
        <time>2021-02-28T06:34:59Z</time>
      </trkpt>
      <trkpt lat="45.14749" lon="6.31127">
        <ele>2247.8</ele>
        <time>2021-02-28T06:35:00Z</time>
      </trkpt>
      <trkpt lat="45.14748" lon="6.3113">
        <ele>2248.4</ele>
        <time>2021-02-28T06:35:01Z</time>
      </trkpt>
      <trkpt lat="45.14748" lon="6.3113">
        <ele>2248</ele>
        <time>2021-02-28T06:35:02Z</time>
      </trkpt>
      <trkpt lat="45.14747" lon="6.31133">
        <ele>2248</ele>
        <time>2021-02-28T06:35:03Z</time>
      </trkpt>
      <trkpt lat="45.14747" lon="6.31133">
        <ele>2248.4</ele>
        <time>2021-02-28T06:35:04Z</time>
      </trkpt>
      <trkpt lat="45.14746" lon="6.31136">
        <ele>2248.8</ele>
        <time>2021-02-28T06:35:05Z</time>
      </trkpt>
      <trkpt lat="45.14746" lon="6.31136">
        <ele>2249.4</ele>
        <time>2021-02-28T06:35:06Z</time>
      </trkpt>
      <trkpt lat="45.14745" lon="6.31138">
        <ele>2249</ele>
        <time>2021-02-28T06:35:07Z</time>
      </trkpt>
      <trkpt lat="45.14745" lon="6.31138">
        <ele>2248.8</ele>
        <time>2021-02-28T06:35:08Z</time>
      </trkpt>
      <trkpt lat="45.14744" lon="6.3114">
        <ele>2249.4</ele>
        <time>2021-02-28T06:35:09Z</time>
      </trkpt>
      <trkpt lat="45.14744" lon="6.3114">
        <ele>2249.6</ele>
        <time>2021-02-28T06:35:10Z</time>
      </trkpt>
      <trkpt lat="45.14743" lon="6.31143">
        <ele>2250.2</ele>
        <time>2021-02-28T06:35:11Z</time>
      </trkpt>
      <trkpt lat="45.14743" lon="6.31143">
        <ele>2250.6</ele>
        <time>2021-02-28T06:35:12Z</time>
      </trkpt>
      <trkpt lat="45.14741" lon="6.31145">
        <ele>2250.2</ele>
        <time>2021-02-28T06:35:13Z</time>
      </trkpt>
      <trkpt lat="45.14741" lon="6.31145">
        <ele>2250.8</ele>
        <time>2021-02-28T06:35:14Z</time>
      </trkpt>
      <trkpt lat="45.14741" lon="6.31145">
        <ele>2251</ele>
        <time>2021-02-28T06:35:15Z</time>
      </trkpt>
      <trkpt lat="45.1474" lon="6.31147">
        <ele>2251.4</ele>
        <time>2021-02-28T06:35:16Z</time>
      </trkpt>
      <trkpt lat="45.1474" lon="6.31147">
        <ele>2251.8</ele>
        <time>2021-02-28T06:35:17Z</time>
      </trkpt>
      <trkpt lat="45.1474" lon="6.31147">
        <ele>2252.2</ele>
        <time>2021-02-28T06:35:18Z</time>
      </trkpt>
      <trkpt lat="45.14738" lon="6.31151">
        <ele>2252.4</ele>
        <time>2021-02-28T06:35:19Z</time>
      </trkpt>
      <trkpt lat="45.14738" lon="6.31151">
        <ele>2252.8</ele>
        <time>2021-02-28T06:35:20Z</time>
      </trkpt>
      <trkpt lat="45.14738" lon="6.31153">
        <ele>2253.2</ele>
        <time>2021-02-28T06:35:21Z</time>
      </trkpt>
      <trkpt lat="45.14738" lon="6.31153">
        <ele>2253.4</ele>
        <time>2021-02-28T06:35:22Z</time>
      </trkpt>
      <trkpt lat="45.14737" lon="6.31155">
        <ele>2253.6</ele>
        <time>2021-02-28T06:35:23Z</time>
      </trkpt>
      <trkpt lat="45.14737" lon="6.31155">
        <ele>2253.8</ele>
        <time>2021-02-28T06:35:24Z</time>
      </trkpt>
      <trkpt lat="45.14737" lon="6.31155">
        <ele>2253.8</ele>
        <time>2021-02-28T06:35:25Z</time>
      </trkpt>
      <trkpt lat="45.14735" lon="6.31158">
        <ele>2253.2</ele>
        <time>2021-02-28T06:35:26Z</time>
      </trkpt>
      <trkpt lat="45.14735" lon="6.31158">
        <ele>2253.4</ele>
        <time>2021-02-28T06:35:27Z</time>
      </trkpt>
      <trkpt lat="45.14734" lon="6.3116">
        <ele>2253.6</ele>
        <time>2021-02-28T06:35:28Z</time>
      </trkpt>
      <trkpt lat="45.14734" lon="6.3116">
        <ele>2254.4</ele>
        <time>2021-02-28T06:35:29Z</time>
      </trkpt>
      <trkpt lat="45.14734" lon="6.3116">
        <ele>2254.2</ele>
        <time>2021-02-28T06:35:30Z</time>
      </trkpt>
      <trkpt lat="45.14733" lon="6.31163">
        <ele>2254</ele>
        <time>2021-02-28T06:35:31Z</time>
      </trkpt>
      <trkpt lat="45.14733" lon="6.31163">
        <ele>2254.4</ele>
        <time>2021-02-28T06:35:32Z</time>
      </trkpt>
      <trkpt lat="45.14733" lon="6.31163">
        <ele>2254.2</ele>
        <time>2021-02-28T06:35:33Z</time>
      </trkpt>
      <trkpt lat="45.14731" lon="6.31167">
        <ele>2254.2</ele>
        <time>2021-02-28T06:35:34Z</time>
      </trkpt>
      <trkpt lat="45.14731" lon="6.31167">
        <ele>2254.4</ele>
        <time>2021-02-28T06:35:35Z</time>
      </trkpt>
      <trkpt lat="45.14731" lon="6.31167">
        <ele>2255</ele>
        <time>2021-02-28T06:35:36Z</time>
      </trkpt>
      <trkpt lat="45.1473" lon="6.31169">
        <ele>2255</ele>
        <time>2021-02-28T06:35:37Z</time>
      </trkpt>
      <trkpt lat="45.1473" lon="6.31169">
        <ele>2254.8</ele>
        <time>2021-02-28T06:35:38Z</time>
      </trkpt>
      <trkpt lat="45.1473" lon="6.31169">
        <ele>2254.8</ele>
        <time>2021-02-28T06:35:39Z</time>
      </trkpt>
      <trkpt lat="45.14728" lon="6.31172">
        <ele>2254.4</ele>
        <time>2021-02-28T06:35:40Z</time>
      </trkpt>
      <trkpt lat="45.14728" lon="6.31172">
        <ele>2254.6</ele>
        <time>2021-02-28T06:35:41Z</time>
      </trkpt>
      <trkpt lat="45.14728" lon="6.31172">
        <ele>2254.6</ele>
        <time>2021-02-28T06:35:42Z</time>
      </trkpt>
      <trkpt lat="45.14727" lon="6.31175">
        <ele>2254</ele>
        <time>2021-02-28T06:35:43Z</time>
      </trkpt>
      <trkpt lat="45.14727" lon="6.31175">
        <ele>2254.8</ele>
        <time>2021-02-28T06:35:44Z</time>
      </trkpt>
      <trkpt lat="45.14726" lon="6.31177">
        <ele>2255.4</ele>
        <time>2021-02-28T06:35:45Z</time>
      </trkpt>
      <trkpt lat="45.14726" lon="6.31177">
        <ele>2255.2</ele>
        <time>2021-02-28T06:35:46Z</time>
      </trkpt>
      <trkpt lat="45.14726" lon="6.31177">
        <ele>2255.8</ele>
        <time>2021-02-28T06:35:47Z</time>
      </trkpt>
      <trkpt lat="45.14724" lon="6.3118">
        <ele>2255.4</ele>
        <time>2021-02-28T06:35:48Z</time>
      </trkpt>
      <trkpt lat="45.14724" lon="6.3118">
        <ele>2256.2</ele>
        <time>2021-02-28T06:35:49Z</time>
      </trkpt>
      <trkpt lat="45.14724" lon="6.3118">
        <ele>2256.6</ele>
        <time>2021-02-28T06:35:50Z</time>
      </trkpt>
      <trkpt lat="45.14723" lon="6.31183">
        <ele>2257.6</ele>
        <time>2021-02-28T06:35:51Z</time>
      </trkpt>
      <trkpt lat="45.14723" lon="6.31183">
        <ele>2257.8</ele>
        <time>2021-02-28T06:35:52Z</time>
      </trkpt>
      <trkpt lat="45.14722" lon="6.31185">
        <ele>2257.8</ele>
        <time>2021-02-28T06:35:53Z</time>
      </trkpt>
      <trkpt lat="45.14722" lon="6.31185">
        <ele>2257.8</ele>
        <time>2021-02-28T06:35:54Z</time>
      </trkpt>
      <trkpt lat="45.14721" lon="6.31188">
        <ele>2258.2</ele>
        <time>2021-02-28T06:35:55Z</time>
      </trkpt>
      <trkpt lat="45.14721" lon="6.31188">
        <ele>2258</ele>
        <time>2021-02-28T06:35:56Z</time>
      </trkpt>
      <trkpt lat="45.1472" lon="6.3119">
        <ele>2258</ele>
        <time>2021-02-28T06:35:57Z</time>
      </trkpt>
      <trkpt lat="45.1472" lon="6.3119">
        <ele>2258</ele>
        <time>2021-02-28T06:35:58Z</time>
      </trkpt>
      <trkpt lat="45.14718" lon="6.31192">
        <ele>2258</ele>
        <time>2021-02-28T06:35:59Z</time>
      </trkpt>
      <trkpt lat="45.14718" lon="6.31192">
        <ele>2258</ele>
        <time>2021-02-28T06:36:00Z</time>
      </trkpt>
      <trkpt lat="45.14717" lon="6.31195">
        <ele>2258.4</ele>
        <time>2021-02-28T06:36:01Z</time>
      </trkpt>
      <trkpt lat="45.14717" lon="6.31195">
        <ele>2258.6</ele>
        <time>2021-02-28T06:36:02Z</time>
      </trkpt>
      <trkpt lat="45.14717" lon="6.31195">
        <ele>2259</ele>
        <time>2021-02-28T06:36:03Z</time>
      </trkpt>
      <trkpt lat="45.14716" lon="6.31198">
        <ele>2259</ele>
        <time>2021-02-28T06:36:04Z</time>
      </trkpt>
      <trkpt lat="45.14716" lon="6.31198">
        <ele>2259</ele>
        <time>2021-02-28T06:36:05Z</time>
      </trkpt>
      <trkpt lat="45.14716" lon="6.31198">
        <ele>2259</ele>
        <time>2021-02-28T06:36:06Z</time>
      </trkpt>
      <trkpt lat="45.14715" lon="6.31201">
        <ele>2258.2</ele>
        <time>2021-02-28T06:36:07Z</time>
      </trkpt>
      <trkpt lat="45.14715" lon="6.31201">
        <ele>2259</ele>
        <time>2021-02-28T06:36:08Z</time>
      </trkpt>
      <trkpt lat="45.14714" lon="6.31204">
        <ele>2259.2</ele>
        <time>2021-02-28T06:36:09Z</time>
      </trkpt>
      <trkpt lat="45.14714" lon="6.31204">
        <ele>2259.4</ele>
        <time>2021-02-28T06:36:10Z</time>
      </trkpt>
      <trkpt lat="45.14713" lon="6.31206">
        <ele>2259</ele>
        <time>2021-02-28T06:36:11Z</time>
      </trkpt>
      <trkpt lat="45.14713" lon="6.31206">
        <ele>2259</ele>
        <time>2021-02-28T06:36:12Z</time>
      </trkpt>
      <trkpt lat="45.14712" lon="6.31208">
        <ele>2259.2</ele>
        <time>2021-02-28T06:36:13Z</time>
      </trkpt>
      <trkpt lat="45.14712" lon="6.31208">
        <ele>2260</ele>
        <time>2021-02-28T06:36:14Z</time>
      </trkpt>
      <trkpt lat="45.14711" lon="6.31211">
        <ele>2260.2</ele>
        <time>2021-02-28T06:36:15Z</time>
      </trkpt>
      <trkpt lat="45.14711" lon="6.31211">
        <ele>2260.6</ele>
        <time>2021-02-28T06:36:16Z</time>
      </trkpt>
      <trkpt lat="45.1471" lon="6.31214">
        <ele>2260.2</ele>
        <time>2021-02-28T06:36:17Z</time>
      </trkpt>
      <trkpt lat="45.1471" lon="6.31214">
        <ele>2260.4</ele>
        <time>2021-02-28T06:36:18Z</time>
      </trkpt>
      <trkpt lat="45.14708" lon="6.31216">
        <ele>2261</ele>
        <time>2021-02-28T06:36:19Z</time>
      </trkpt>
      <trkpt lat="45.14708" lon="6.31216">
        <ele>2261.4</ele>
        <time>2021-02-28T06:36:20Z</time>
      </trkpt>
      <trkpt lat="45.14707" lon="6.31218">
        <ele>2261.6</ele>
        <time>2021-02-28T06:36:21Z</time>
      </trkpt>
      <trkpt lat="45.14707" lon="6.31218">
        <ele>2261.8</ele>
        <time>2021-02-28T06:36:22Z</time>
      </trkpt>
      <trkpt lat="45.14707" lon="6.31218">
        <ele>2262</ele>
        <time>2021-02-28T06:36:23Z</time>
      </trkpt>
      <trkpt lat="45.14706" lon="6.31221">
        <ele>2262.4</ele>
        <time>2021-02-28T06:36:24Z</time>
      </trkpt>
      <trkpt lat="45.14706" lon="6.31221">
        <ele>2262.2</ele>
        <time>2021-02-28T06:36:25Z</time>
      </trkpt>
      <trkpt lat="45.14706" lon="6.31221">
        <ele>2262.4</ele>
        <time>2021-02-28T06:36:26Z</time>
      </trkpt>
      <trkpt lat="45.14704" lon="6.31223">
        <ele>2262.8</ele>
        <time>2021-02-28T06:36:27Z</time>
      </trkpt>
      <trkpt lat="45.14704" lon="6.31223">
        <ele>2263.2</ele>
        <time>2021-02-28T06:36:28Z</time>
      </trkpt>
      <trkpt lat="45.14703" lon="6.31225">
        <ele>2262.8</ele>
        <time>2021-02-28T06:36:29Z</time>
      </trkpt>
      <trkpt lat="45.14703" lon="6.31225">
        <ele>2262.4</ele>
        <time>2021-02-28T06:36:30Z</time>
      </trkpt>
      <trkpt lat="45.14701" lon="6.31227">
        <ele>2263.2</ele>
        <time>2021-02-28T06:36:31Z</time>
      </trkpt>
      <trkpt lat="45.14701" lon="6.31227">
        <ele>2263.2</ele>
        <time>2021-02-28T06:36:32Z</time>
      </trkpt>
      <trkpt lat="45.14699" lon="6.3123">
        <ele>2264</ele>
        <time>2021-02-28T06:36:33Z</time>
      </trkpt>
      <trkpt lat="45.14699" lon="6.3123">
        <ele>2264</ele>
        <time>2021-02-28T06:36:34Z</time>
      </trkpt>
      <trkpt lat="45.14698" lon="6.31232">
        <ele>2264</ele>
        <time>2021-02-28T06:36:35Z</time>
      </trkpt>
      <trkpt lat="45.14698" lon="6.31232">
        <ele>2264.4</ele>
        <time>2021-02-28T06:36:36Z</time>
      </trkpt>
      <trkpt lat="45.14696" lon="6.31235">
        <ele>2264.4</ele>
        <time>2021-02-28T06:36:37Z</time>
      </trkpt>
      <trkpt lat="45.14696" lon="6.31235">
        <ele>2265.2</ele>
        <time>2021-02-28T06:36:38Z</time>
      </trkpt>
      <trkpt lat="45.14695" lon="6.31237">
        <ele>2265.4</ele>
        <time>2021-02-28T06:36:39Z</time>
      </trkpt>
      <trkpt lat="45.14695" lon="6.31237">
        <ele>2264.2</ele>
        <time>2021-02-28T06:36:40Z</time>
      </trkpt>
      <trkpt lat="45.14693" lon="6.31239">
        <ele>2264.4</ele>
        <time>2021-02-28T06:36:41Z</time>
      </trkpt>
      <trkpt lat="45.14693" lon="6.31239">
        <ele>2264.6</ele>
        <time>2021-02-28T06:36:42Z</time>
      </trkpt>
      <trkpt lat="45.14692" lon="6.31241">
        <ele>2264.4</ele>
        <time>2021-02-28T06:36:43Z</time>
      </trkpt>
      <trkpt lat="45.14692" lon="6.31241">
        <ele>2264.8</ele>
        <time>2021-02-28T06:36:44Z</time>
      </trkpt>
      <trkpt lat="45.14691" lon="6.31243">
        <ele>2265.2</ele>
        <time>2021-02-28T06:36:45Z</time>
      </trkpt>
      <trkpt lat="45.14691" lon="6.31243">
        <ele>2265.8</ele>
        <time>2021-02-28T06:36:46Z</time>
      </trkpt>
      <trkpt lat="45.14691" lon="6.31243">
        <ele>2266.4</ele>
        <time>2021-02-28T06:36:47Z</time>
      </trkpt>
      <trkpt lat="45.14689" lon="6.31246">
        <ele>2267.4</ele>
        <time>2021-02-28T06:36:48Z</time>
      </trkpt>
      <trkpt lat="45.14689" lon="6.31246">
        <ele>2267.6</ele>
        <time>2021-02-28T06:36:49Z</time>
      </trkpt>
      <trkpt lat="45.14688" lon="6.31249">
        <ele>2268.4</ele>
        <time>2021-02-28T06:36:50Z</time>
      </trkpt>
      <trkpt lat="45.14688" lon="6.31249">
        <ele>2268.2</ele>
        <time>2021-02-28T06:36:51Z</time>
      </trkpt>
      <trkpt lat="45.14686" lon="6.31251">
        <ele>2268.6</ele>
        <time>2021-02-28T06:36:52Z</time>
      </trkpt>
      <trkpt lat="45.14686" lon="6.31251">
        <ele>2268.8</ele>
        <time>2021-02-28T06:36:53Z</time>
      </trkpt>
      <trkpt lat="45.14685" lon="6.31254">
        <ele>2268.8</ele>
        <time>2021-02-28T06:36:54Z</time>
      </trkpt>
      <trkpt lat="45.14685" lon="6.31254">
        <ele>2269.4</ele>
        <time>2021-02-28T06:36:55Z</time>
      </trkpt>
      <trkpt lat="45.14684" lon="6.31257">
        <ele>2269.2</ele>
        <time>2021-02-28T06:36:56Z</time>
      </trkpt>
      <trkpt lat="45.14684" lon="6.31257">
        <ele>2269.6</ele>
        <time>2021-02-28T06:36:57Z</time>
      </trkpt>
      <trkpt lat="45.14682" lon="6.31259">
        <ele>2269.6</ele>
        <time>2021-02-28T06:36:58Z</time>
      </trkpt>
      <trkpt lat="45.14682" lon="6.31259">
        <ele>2269.4</ele>
        <time>2021-02-28T06:36:59Z</time>
      </trkpt>
      <trkpt lat="45.1468" lon="6.31262">
        <ele>2270</ele>
        <time>2021-02-28T06:37:00Z</time>
      </trkpt>
      <trkpt lat="45.1468" lon="6.31262">
        <ele>2269.6</ele>
        <time>2021-02-28T06:37:01Z</time>
      </trkpt>
      <trkpt lat="45.14679" lon="6.31264">
        <ele>2270</ele>
        <time>2021-02-28T06:37:02Z</time>
      </trkpt>
      <trkpt lat="45.14679" lon="6.31264">
        <ele>2270.2</ele>
        <time>2021-02-28T06:37:03Z</time>
      </trkpt>
      <trkpt lat="45.14677" lon="6.31266">
        <ele>2270.4</ele>
        <time>2021-02-28T06:37:04Z</time>
      </trkpt>
      <trkpt lat="45.14677" lon="6.31266">
        <ele>2271</ele>
        <time>2021-02-28T06:37:05Z</time>
      </trkpt>
      <trkpt lat="45.14675" lon="6.31269">
        <ele>2269.8</ele>
        <time>2021-02-28T06:37:06Z</time>
      </trkpt>
      <trkpt lat="45.14675" lon="6.31269">
        <ele>2270.2</ele>
        <time>2021-02-28T06:37:07Z</time>
      </trkpt>
      <trkpt lat="45.14674" lon="6.31271">
        <ele>2271</ele>
        <time>2021-02-28T06:37:08Z</time>
      </trkpt>
      <trkpt lat="45.14674" lon="6.31271">
        <ele>2271.2</ele>
        <time>2021-02-28T06:37:09Z</time>
      </trkpt>
      <trkpt lat="45.14672" lon="6.31274">
        <ele>2271.8</ele>
        <time>2021-02-28T06:37:10Z</time>
      </trkpt>
      <trkpt lat="45.14672" lon="6.31274">
        <ele>2271.4</ele>
        <time>2021-02-28T06:37:11Z</time>
      </trkpt>
      <trkpt lat="45.1467" lon="6.31277">
        <ele>2271.4</ele>
        <time>2021-02-28T06:37:12Z</time>
      </trkpt>
      <trkpt lat="45.1467" lon="6.31277">
        <ele>2271.8</ele>
        <time>2021-02-28T06:37:13Z</time>
      </trkpt>
      <trkpt lat="45.14669" lon="6.3128">
        <ele>2272.2</ele>
        <time>2021-02-28T06:37:14Z</time>
      </trkpt>
      <trkpt lat="45.14669" lon="6.3128">
        <ele>2272.6</ele>
        <time>2021-02-28T06:37:15Z</time>
      </trkpt>
      <trkpt lat="45.14667" lon="6.31283">
        <ele>2271.8</ele>
        <time>2021-02-28T06:37:16Z</time>
      </trkpt>
      <trkpt lat="45.14667" lon="6.31283">
        <ele>2272.2</ele>
        <time>2021-02-28T06:37:17Z</time>
      </trkpt>
      <trkpt lat="45.14665" lon="6.31285">
        <ele>2272.4</ele>
        <time>2021-02-28T06:37:18Z</time>
      </trkpt>
      <trkpt lat="45.14665" lon="6.31285">
        <ele>2272.2</ele>
        <time>2021-02-28T06:37:19Z</time>
      </trkpt>
      <trkpt lat="45.14664" lon="6.31288">
        <ele>2273.2</ele>
        <time>2021-02-28T06:37:20Z</time>
      </trkpt>
      <trkpt lat="45.14664" lon="6.31288">
        <ele>2274.2</ele>
        <time>2021-02-28T06:37:21Z</time>
      </trkpt>
      <trkpt lat="45.14663" lon="6.31291">
        <ele>2275.4</ele>
        <time>2021-02-28T06:37:22Z</time>
      </trkpt>
      <trkpt lat="45.14663" lon="6.31291">
        <ele>2275.6</ele>
        <time>2021-02-28T06:37:23Z</time>
      </trkpt>
      <trkpt lat="45.14661" lon="6.31293">
        <ele>2275.6</ele>
        <time>2021-02-28T06:37:24Z</time>
      </trkpt>
      <trkpt lat="45.14661" lon="6.31293">
        <ele>2276</ele>
        <time>2021-02-28T06:37:25Z</time>
      </trkpt>
      <trkpt lat="45.14659" lon="6.31295">
        <ele>2275.4</ele>
        <time>2021-02-28T06:37:26Z</time>
      </trkpt>
      <trkpt lat="45.14659" lon="6.31295">
        <ele>2276</ele>
        <time>2021-02-28T06:37:27Z</time>
      </trkpt>
      <trkpt lat="45.14658" lon="6.31298">
        <ele>2276.8</ele>
        <time>2021-02-28T06:37:28Z</time>
      </trkpt>
      <trkpt lat="45.14658" lon="6.31298">
        <ele>2276.8</ele>
        <time>2021-02-28T06:37:29Z</time>
      </trkpt>
      <trkpt lat="45.14656" lon="6.31301">
        <ele>2277</ele>
        <time>2021-02-28T06:37:30Z</time>
      </trkpt>
      <trkpt lat="45.14656" lon="6.31301">
        <ele>2276.4</ele>
        <time>2021-02-28T06:37:31Z</time>
      </trkpt>
      <trkpt lat="45.14654" lon="6.31304">
        <ele>2276.8</ele>
        <time>2021-02-28T06:37:32Z</time>
      </trkpt>
      <trkpt lat="45.14654" lon="6.31304">
        <ele>2276.6</ele>
        <time>2021-02-28T06:37:33Z</time>
      </trkpt>
      <trkpt lat="45.14652" lon="6.31306">
        <ele>2276.8</ele>
        <time>2021-02-28T06:37:34Z</time>
      </trkpt>
      <trkpt lat="45.14652" lon="6.31306">
        <ele>2277.4</ele>
        <time>2021-02-28T06:37:35Z</time>
      </trkpt>
      <trkpt lat="45.1465" lon="6.31306">
        <ele>2276.4</ele>
        <time>2021-02-28T06:37:36Z</time>
      </trkpt>
      <trkpt lat="45.1465" lon="6.31306">
        <ele>2277</ele>
        <time>2021-02-28T06:37:37Z</time>
      </trkpt>
      <trkpt lat="45.14647" lon="6.31307">
        <ele>2277.6</ele>
        <time>2021-02-28T06:37:38Z</time>
      </trkpt>
      <trkpt lat="45.14647" lon="6.31307">
        <ele>2278</ele>
        <time>2021-02-28T06:37:39Z</time>
      </trkpt>
      <trkpt lat="45.14645" lon="6.31309">
        <ele>2278.6</ele>
        <time>2021-02-28T06:37:40Z</time>
      </trkpt>
      <trkpt lat="45.14645" lon="6.31309">
        <ele>2279.2</ele>
        <time>2021-02-28T06:37:41Z</time>
      </trkpt>
      <trkpt lat="45.14644" lon="6.31311">
        <ele>2278.8</ele>
        <time>2021-02-28T06:37:42Z</time>
      </trkpt>
      <trkpt lat="45.14644" lon="6.31311">
        <ele>2279.2</ele>
        <time>2021-02-28T06:37:43Z</time>
      </trkpt>
      <trkpt lat="45.14642" lon="6.31312">
        <ele>2279.6</ele>
        <time>2021-02-28T06:37:44Z</time>
      </trkpt>
      <trkpt lat="45.14642" lon="6.31312">
        <ele>2280.2</ele>
        <time>2021-02-28T06:37:45Z</time>
      </trkpt>
      <trkpt lat="45.1464" lon="6.31314">
        <ele>2280.2</ele>
        <time>2021-02-28T06:37:46Z</time>
      </trkpt>
      <trkpt lat="45.1464" lon="6.31314">
        <ele>2279.2</ele>
        <time>2021-02-28T06:37:47Z</time>
      </trkpt>
      <trkpt lat="45.14638" lon="6.31317">
        <ele>2279.6</ele>
        <time>2021-02-28T06:37:48Z</time>
      </trkpt>
      <trkpt lat="45.14638" lon="6.31317">
        <ele>2279.2</ele>
        <time>2021-02-28T06:37:49Z</time>
      </trkpt>
      <trkpt lat="45.14636" lon="6.31319">
        <ele>2279.6</ele>
        <time>2021-02-28T06:37:50Z</time>
      </trkpt>
      <trkpt lat="45.14636" lon="6.31319">
        <ele>2279.8</ele>
        <time>2021-02-28T06:37:51Z</time>
      </trkpt>
      <trkpt lat="45.14635" lon="6.31321">
        <ele>2279.8</ele>
        <time>2021-02-28T06:37:52Z</time>
      </trkpt>
      <trkpt lat="45.14635" lon="6.31321">
        <ele>2280.6</ele>
        <time>2021-02-28T06:37:53Z</time>
      </trkpt>
      <trkpt lat="45.14633" lon="6.31324">
        <ele>2280.4</ele>
        <time>2021-02-28T06:37:54Z</time>
      </trkpt>
      <trkpt lat="45.14633" lon="6.31324">
        <ele>2281</ele>
        <time>2021-02-28T06:37:55Z</time>
      </trkpt>
      <trkpt lat="45.14632" lon="6.31326">
        <ele>2281.2</ele>
        <time>2021-02-28T06:37:56Z</time>
      </trkpt>
      <trkpt lat="45.14632" lon="6.31326">
        <ele>2280.8</ele>
        <time>2021-02-28T06:37:57Z</time>
      </trkpt>
      <trkpt lat="45.1463" lon="6.31329">
        <ele>2281.2</ele>
        <time>2021-02-28T06:37:58Z</time>
      </trkpt>
      <trkpt lat="45.1463" lon="6.31329">
        <ele>2280.6</ele>
        <time>2021-02-28T06:37:59Z</time>
      </trkpt>
      <trkpt lat="45.1463" lon="6.31332">
        <ele>2281.4</ele>
        <time>2021-02-28T06:38:00Z</time>
      </trkpt>
      <trkpt lat="45.1463" lon="6.31332">
        <ele>2281.2</ele>
        <time>2021-02-28T06:38:01Z</time>
      </trkpt>
      <trkpt lat="45.14629" lon="6.31335">
        <ele>2281</ele>
        <time>2021-02-28T06:38:02Z</time>
      </trkpt>
      <trkpt lat="45.14629" lon="6.31335">
        <ele>2281.8</ele>
        <time>2021-02-28T06:38:03Z</time>
      </trkpt>
      <trkpt lat="45.14629" lon="6.31338">
        <ele>2281.8</ele>
        <time>2021-02-28T06:38:04Z</time>
      </trkpt>
      <trkpt lat="45.14629" lon="6.31338">
        <ele>2282.6</ele>
        <time>2021-02-28T06:38:05Z</time>
      </trkpt>
      <trkpt lat="45.14629" lon="6.31341">
        <ele>2283</ele>
        <time>2021-02-28T06:38:06Z</time>
      </trkpt>
      <trkpt lat="45.14629" lon="6.31341">
        <ele>2283.6</ele>
        <time>2021-02-28T06:38:07Z</time>
      </trkpt>
      <trkpt lat="45.14628" lon="6.31344">
        <ele>2283.8</ele>
        <time>2021-02-28T06:38:08Z</time>
      </trkpt>
      <trkpt lat="45.14628" lon="6.31344">
        <ele>2283.6</ele>
        <time>2021-02-28T06:38:09Z</time>
      </trkpt>
      <trkpt lat="45.14628" lon="6.31346">
        <ele>2284.6</ele>
        <time>2021-02-28T06:38:10Z</time>
      </trkpt>
      <trkpt lat="45.14628" lon="6.31346">
        <ele>2284</ele>
        <time>2021-02-28T06:38:11Z</time>
      </trkpt>
      <trkpt lat="45.14628" lon="6.31346">
        <ele>2284.4</ele>
        <time>2021-02-28T06:38:12Z</time>
      </trkpt>
      <trkpt lat="45.14628" lon="6.3135">
        <ele>2284.6</ele>
        <time>2021-02-28T06:38:13Z</time>
      </trkpt>
      <trkpt lat="45.14628" lon="6.3135">
        <ele>2285</ele>
        <time>2021-02-28T06:38:14Z</time>
      </trkpt>
      <trkpt lat="45.14627" lon="6.31352">
        <ele>2285.2</ele>
        <time>2021-02-28T06:38:15Z</time>
      </trkpt>
      <trkpt lat="45.14627" lon="6.31352">
        <ele>2284.4</ele>
        <time>2021-02-28T06:38:16Z</time>
      </trkpt>
      <trkpt lat="45.14627" lon="6.31356">
        <ele>2285</ele>
        <time>2021-02-28T06:38:17Z</time>
      </trkpt>
      <trkpt lat="45.14627" lon="6.31356">
        <ele>2285.6</ele>
        <time>2021-02-28T06:38:18Z</time>
      </trkpt>
      <trkpt lat="45.14627" lon="6.31356">
        <ele>2285</ele>
        <time>2021-02-28T06:38:19Z</time>
      </trkpt>
      <trkpt lat="45.14627" lon="6.3136">
        <ele>2284.6</ele>
        <time>2021-02-28T06:38:20Z</time>
      </trkpt>
      <trkpt lat="45.14627" lon="6.3136">
        <ele>2285.2</ele>
        <time>2021-02-28T06:38:21Z</time>
      </trkpt>
      <trkpt lat="45.14627" lon="6.31362">
        <ele>2285</ele>
        <time>2021-02-28T06:38:22Z</time>
      </trkpt>
      <trkpt lat="45.14627" lon="6.31362">
        <ele>2285.6</ele>
        <time>2021-02-28T06:38:23Z</time>
      </trkpt>
      <trkpt lat="45.14627" lon="6.31365">
        <ele>2286.2</ele>
        <time>2021-02-28T06:38:24Z</time>
      </trkpt>
      <trkpt lat="45.14627" lon="6.31365">
        <ele>2286.4</ele>
        <time>2021-02-28T06:38:25Z</time>
      </trkpt>
      <trkpt lat="45.14627" lon="6.31368">
        <ele>2287.2</ele>
        <time>2021-02-28T06:38:26Z</time>
      </trkpt>
      <trkpt lat="45.14627" lon="6.31368">
        <ele>2287.2</ele>
        <time>2021-02-28T06:38:27Z</time>
      </trkpt>
      <trkpt lat="45.14627" lon="6.31371">
        <ele>2287.4</ele>
        <time>2021-02-28T06:38:28Z</time>
      </trkpt>
      <trkpt lat="45.14627" lon="6.31371">
        <ele>2288.2</ele>
        <time>2021-02-28T06:38:29Z</time>
      </trkpt>
      <trkpt lat="45.14627" lon="6.31374">
        <ele>2287.8</ele>
        <time>2021-02-28T06:38:30Z</time>
      </trkpt>
      <trkpt lat="45.14627" lon="6.31374">
        <ele>2288.4</ele>
        <time>2021-02-28T06:38:31Z</time>
      </trkpt>
      <trkpt lat="45.14626" lon="6.31378">
        <ele>2288</ele>
        <time>2021-02-28T06:38:32Z</time>
      </trkpt>
      <trkpt lat="45.14625" lon="6.3138">
        <ele>2288.4</ele>
        <time>2021-02-28T06:38:33Z</time>
      </trkpt>
      <trkpt lat="45.14624" lon="6.31382">
        <ele>2288.2</ele>
        <time>2021-02-28T06:38:34Z</time>
      </trkpt>
      <trkpt lat="45.14624" lon="6.31382">
        <ele>2287.4</ele>
        <time>2021-02-28T06:38:35Z</time>
      </trkpt>
      <trkpt lat="45.14621" lon="6.31383">
        <ele>2287.6</ele>
        <time>2021-02-28T06:38:36Z</time>
      </trkpt>
      <trkpt lat="45.14621" lon="6.31383">
        <ele>2288</ele>
        <time>2021-02-28T06:38:37Z</time>
      </trkpt>
      <trkpt lat="45.14621" lon="6.31383">
        <ele>2288.2</ele>
        <time>2021-02-28T06:38:38Z</time>
      </trkpt>
      <trkpt lat="45.14619" lon="6.31383">
        <ele>2288.2</ele>
        <time>2021-02-28T06:38:39Z</time>
      </trkpt>
      <trkpt lat="45.14619" lon="6.31383">
        <ele>2288.6</ele>
        <time>2021-02-28T06:38:40Z</time>
      </trkpt>
      <trkpt lat="45.14617" lon="6.31383">
        <ele>2288.8</ele>
        <time>2021-02-28T06:38:41Z</time>
      </trkpt>
      <trkpt lat="45.14617" lon="6.31383">
        <ele>2289.2</ele>
        <time>2021-02-28T06:38:42Z</time>
      </trkpt>
      <trkpt lat="45.14615" lon="6.31384">
        <ele>2289.4</ele>
        <time>2021-02-28T06:38:43Z</time>
      </trkpt>
      <trkpt lat="45.14615" lon="6.31384">
        <ele>2289.8</ele>
        <time>2021-02-28T06:38:44Z</time>
      </trkpt>
      <trkpt lat="45.14613" lon="6.31385">
        <ele>2289.2</ele>
        <time>2021-02-28T06:38:45Z</time>
      </trkpt>
      <trkpt lat="45.14613" lon="6.31385">
        <ele>2289.8</ele>
        <time>2021-02-28T06:38:46Z</time>
      </trkpt>
      <trkpt lat="45.14611" lon="6.31387">
        <ele>2289.8</ele>
        <time>2021-02-28T06:38:47Z</time>
      </trkpt>
      <trkpt lat="45.14611" lon="6.31387">
        <ele>2289.4</ele>
        <time>2021-02-28T06:38:48Z</time>
      </trkpt>
      <trkpt lat="45.1461" lon="6.31389">
        <ele>2289</ele>
        <time>2021-02-28T06:38:49Z</time>
      </trkpt>
      <trkpt lat="45.1461" lon="6.31389">
        <ele>2289.4</ele>
        <time>2021-02-28T06:38:50Z</time>
      </trkpt>
      <trkpt lat="45.1461" lon="6.31389">
        <ele>2289.2</ele>
        <time>2021-02-28T06:38:51Z</time>
      </trkpt>
      <trkpt lat="45.14608" lon="6.31392">
        <ele>2289</ele>
        <time>2021-02-28T06:38:52Z</time>
      </trkpt>
      <trkpt lat="45.14608" lon="6.31392">
        <ele>2289.2</ele>
        <time>2021-02-28T06:38:53Z</time>
      </trkpt>
      <trkpt lat="45.14608" lon="6.31392">
        <ele>2289.6</ele>
        <time>2021-02-28T06:38:54Z</time>
      </trkpt>
      <trkpt lat="45.14607" lon="6.31395">
        <ele>2288.6</ele>
        <time>2021-02-28T06:38:55Z</time>
      </trkpt>
      <trkpt lat="45.14607" lon="6.31395">
        <ele>2288.8</ele>
        <time>2021-02-28T06:38:56Z</time>
      </trkpt>
      <trkpt lat="45.14606" lon="6.31397">
        <ele>2290</ele>
        <time>2021-02-28T06:38:57Z</time>
      </trkpt>
      <trkpt lat="45.14606" lon="6.31397">
        <ele>2290.2</ele>
        <time>2021-02-28T06:38:58Z</time>
      </trkpt>
      <trkpt lat="45.14605" lon="6.31399">
        <ele>2290.8</ele>
        <time>2021-02-28T06:38:59Z</time>
      </trkpt>
      <trkpt lat="45.14605" lon="6.31399">
        <ele>2291.6</ele>
        <time>2021-02-28T06:39:00Z</time>
      </trkpt>
      <trkpt lat="45.14604" lon="6.31402">
        <ele>2292</ele>
        <time>2021-02-28T06:39:01Z</time>
      </trkpt>
      <trkpt lat="45.14604" lon="6.31402">
        <ele>2293</ele>
        <time>2021-02-28T06:39:02Z</time>
      </trkpt>
      <trkpt lat="45.14603" lon="6.31405">
        <ele>2292.4</ele>
        <time>2021-02-28T06:39:03Z</time>
      </trkpt>
      <trkpt lat="45.14603" lon="6.31405">
        <ele>2291.8</ele>
        <time>2021-02-28T06:39:04Z</time>
      </trkpt>
      <trkpt lat="45.14602" lon="6.31407">
        <ele>2292.4</ele>
        <time>2021-02-28T06:39:05Z</time>
      </trkpt>
      <trkpt lat="45.14602" lon="6.31407">
        <ele>2293</ele>
        <time>2021-02-28T06:39:06Z</time>
      </trkpt>
      <trkpt lat="45.146" lon="6.3141">
        <ele>2293</ele>
        <time>2021-02-28T06:39:07Z</time>
      </trkpt>
      <trkpt lat="45.146" lon="6.3141">
        <ele>2293.2</ele>
        <time>2021-02-28T06:39:08Z</time>
      </trkpt>
      <trkpt lat="45.14599" lon="6.31413">
        <ele>2293.8</ele>
        <time>2021-02-28T06:39:09Z</time>
      </trkpt>
      <trkpt lat="45.14599" lon="6.31413">
        <ele>2293.8</ele>
        <time>2021-02-28T06:39:10Z</time>
      </trkpt>
      <trkpt lat="45.14598" lon="6.31416">
        <ele>2294</ele>
        <time>2021-02-28T06:39:11Z</time>
      </trkpt>
      <trkpt lat="45.14598" lon="6.31416">
        <ele>2294.4</ele>
        <time>2021-02-28T06:39:12Z</time>
      </trkpt>
      <trkpt lat="45.14597" lon="6.31419">
        <ele>2295</ele>
        <time>2021-02-28T06:39:13Z</time>
      </trkpt>
      <trkpt lat="45.14597" lon="6.31419">
        <ele>2295.2</ele>
        <time>2021-02-28T06:39:14Z</time>
      </trkpt>
      <trkpt lat="45.14595" lon="6.31422">
        <ele>2295.6</ele>
        <time>2021-02-28T06:39:15Z</time>
      </trkpt>
      <trkpt lat="45.14595" lon="6.31422">
        <ele>2295.8</ele>
        <time>2021-02-28T06:39:16Z</time>
      </trkpt>
      <trkpt lat="45.14594" lon="6.31424">
        <ele>2295.8</ele>
        <time>2021-02-28T06:39:17Z</time>
      </trkpt>
      <trkpt lat="45.14594" lon="6.31424">
        <ele>2296.2</ele>
        <time>2021-02-28T06:39:18Z</time>
      </trkpt>
      <trkpt lat="45.14593" lon="6.31427">
        <ele>2295.4</ele>
        <time>2021-02-28T06:39:19Z</time>
      </trkpt>
      <trkpt lat="45.14593" lon="6.31427">
        <ele>2295.6</ele>
        <time>2021-02-28T06:39:20Z</time>
      </trkpt>
      <trkpt lat="45.14592" lon="6.3143">
        <ele>2296.2</ele>
        <time>2021-02-28T06:39:21Z</time>
      </trkpt>
      <trkpt lat="45.14592" lon="6.3143">
        <ele>2296.4</ele>
        <time>2021-02-28T06:39:22Z</time>
      </trkpt>
      <trkpt lat="45.14592" lon="6.3143">
        <ele>2296.8</ele>
        <time>2021-02-28T06:39:23Z</time>
      </trkpt>
      <trkpt lat="45.1459" lon="6.31432">
        <ele>2296.8</ele>
        <time>2021-02-28T06:39:24Z</time>
      </trkpt>
      <trkpt lat="45.1459" lon="6.31432">
        <ele>2296.8</ele>
        <time>2021-02-28T06:39:25Z</time>
      </trkpt>
      <trkpt lat="45.14589" lon="6.31435">
        <ele>2297.6</ele>
        <time>2021-02-28T06:39:26Z</time>
      </trkpt>
      <trkpt lat="45.14589" lon="6.31435">
        <ele>2298.4</ele>
        <time>2021-02-28T06:39:27Z</time>
      </trkpt>
      <trkpt lat="45.14588" lon="6.31437">
        <ele>2298.6</ele>
        <time>2021-02-28T06:39:28Z</time>
      </trkpt>
      <trkpt lat="45.14588" lon="6.31437">
        <ele>2299</ele>
        <time>2021-02-28T06:39:29Z</time>
      </trkpt>
      <trkpt lat="45.14588" lon="6.31437">
        <ele>2299.2</ele>
        <time>2021-02-28T06:39:30Z</time>
      </trkpt>
      <trkpt lat="45.14587" lon="6.3144">
        <ele>2299.6</ele>
        <time>2021-02-28T06:39:31Z</time>
      </trkpt>
      <trkpt lat="45.14587" lon="6.3144">
        <ele>2298.6</ele>
        <time>2021-02-28T06:39:32Z</time>
      </trkpt>
      <trkpt lat="45.14585" lon="6.31443">
        <ele>2299</ele>
        <time>2021-02-28T06:39:33Z</time>
      </trkpt>
      <trkpt lat="45.14585" lon="6.31443">
        <ele>2299.8</ele>
        <time>2021-02-28T06:39:34Z</time>
      </trkpt>
      <trkpt lat="45.14584" lon="6.31445">
        <ele>2300.6</ele>
        <time>2021-02-28T06:39:35Z</time>
      </trkpt>
      <trkpt lat="45.14584" lon="6.31445">
        <ele>2301</ele>
        <time>2021-02-28T06:39:36Z</time>
      </trkpt>
      <trkpt lat="45.14583" lon="6.31447">
        <ele>2300.6</ele>
        <time>2021-02-28T06:39:37Z</time>
      </trkpt>
      <trkpt lat="45.14583" lon="6.31447">
        <ele>2301</ele>
        <time>2021-02-28T06:39:38Z</time>
      </trkpt>
      <trkpt lat="45.14582" lon="6.3145">
        <ele>2301.6</ele>
        <time>2021-02-28T06:39:39Z</time>
      </trkpt>
      <trkpt lat="45.14582" lon="6.3145">
        <ele>2301.8</ele>
        <time>2021-02-28T06:39:40Z</time>
      </trkpt>
      <trkpt lat="45.14581" lon="6.31452">
        <ele>2301</ele>
        <time>2021-02-28T06:39:41Z</time>
      </trkpt>
      <trkpt lat="45.14581" lon="6.31452">
        <ele>2300.4</ele>
        <time>2021-02-28T06:39:42Z</time>
      </trkpt>
      <trkpt lat="45.1458" lon="6.31455">
        <ele>2300</ele>
        <time>2021-02-28T06:39:43Z</time>
      </trkpt>
      <trkpt lat="45.1458" lon="6.31455">
        <ele>2300.4</ele>
        <time>2021-02-28T06:39:44Z</time>
      </trkpt>
      <trkpt lat="45.14579" lon="6.31457">
        <ele>2300.2</ele>
        <time>2021-02-28T06:39:45Z</time>
      </trkpt>
      <trkpt lat="45.14579" lon="6.31457">
        <ele>2300.2</ele>
        <time>2021-02-28T06:39:46Z</time>
      </trkpt>
      <trkpt lat="45.14579" lon="6.31457">
        <ele>2300.4</ele>
        <time>2021-02-28T06:39:47Z</time>
      </trkpt>
      <trkpt lat="45.14578" lon="6.3146">
        <ele>2300.6</ele>
        <time>2021-02-28T06:39:48Z</time>
      </trkpt>
      <trkpt lat="45.14578" lon="6.3146">
        <ele>2300.6</ele>
        <time>2021-02-28T06:39:49Z</time>
      </trkpt>
      <trkpt lat="45.14577" lon="6.31463">
        <ele>2301.2</ele>
        <time>2021-02-28T06:39:50Z</time>
      </trkpt>
      <trkpt lat="45.14577" lon="6.31463">
        <ele>2302.4</ele>
        <time>2021-02-28T06:39:51Z</time>
      </trkpt>
      <trkpt lat="45.14577" lon="6.31466">
        <ele>2302.6</ele>
        <time>2021-02-28T06:39:52Z</time>
      </trkpt>
      <trkpt lat="45.14577" lon="6.31466">
        <ele>2302.6</ele>
        <time>2021-02-28T06:39:53Z</time>
      </trkpt>
      <trkpt lat="45.14576" lon="6.31469">
        <ele>2303</ele>
        <time>2021-02-28T06:39:54Z</time>
      </trkpt>
      <trkpt lat="45.14576" lon="6.31469">
        <ele>2302.8</ele>
        <time>2021-02-28T06:39:55Z</time>
      </trkpt>
      <trkpt lat="45.14576" lon="6.31469">
        <ele>2302.6</ele>
        <time>2021-02-28T06:39:56Z</time>
      </trkpt>
      <trkpt lat="45.14576" lon="6.31473">
        <ele>2302.8</ele>
        <time>2021-02-28T06:39:57Z</time>
      </trkpt>
      <trkpt lat="45.14576" lon="6.31473">
        <ele>2303.6</ele>
        <time>2021-02-28T06:39:58Z</time>
      </trkpt>
      <trkpt lat="45.14576" lon="6.31476">
        <ele>2304</ele>
        <time>2021-02-28T06:39:59Z</time>
      </trkpt>
      <trkpt lat="45.14576" lon="6.31476">
        <ele>2304.6</ele>
        <time>2021-02-28T06:40:00Z</time>
      </trkpt>
      <trkpt lat="45.14575" lon="6.31479">
        <ele>2305</ele>
        <time>2021-02-28T06:40:01Z</time>
      </trkpt>
      <trkpt lat="45.14575" lon="6.31479">
        <ele>2304.2</ele>
        <time>2021-02-28T06:40:02Z</time>
      </trkpt>
      <trkpt lat="45.14574" lon="6.31482">
        <ele>2304.6</ele>
        <time>2021-02-28T06:40:03Z</time>
      </trkpt>
      <trkpt lat="45.14574" lon="6.31482">
        <ele>2304.2</ele>
        <time>2021-02-28T06:40:04Z</time>
      </trkpt>
      <trkpt lat="45.14573" lon="6.31484">
        <ele>2304.8</ele>
        <time>2021-02-28T06:40:05Z</time>
      </trkpt>
      <trkpt lat="45.14573" lon="6.31484">
        <ele>2305</ele>
        <time>2021-02-28T06:40:06Z</time>
      </trkpt>
      <trkpt lat="45.14572" lon="6.31487">
        <ele>2304.8</ele>
        <time>2021-02-28T06:40:07Z</time>
      </trkpt>
      <trkpt lat="45.14572" lon="6.31487">
        <ele>2305</ele>
        <time>2021-02-28T06:40:08Z</time>
      </trkpt>
      <trkpt lat="45.14571" lon="6.31489">
        <ele>2305.8</ele>
        <time>2021-02-28T06:40:09Z</time>
      </trkpt>
      <trkpt lat="45.14571" lon="6.31489">
        <ele>2305.6</ele>
        <time>2021-02-28T06:40:10Z</time>
      </trkpt>
      <trkpt lat="45.1457" lon="6.31492">
        <ele>2305.4</ele>
        <time>2021-02-28T06:40:11Z</time>
      </trkpt>
      <trkpt lat="45.1457" lon="6.31492">
        <ele>2305.8</ele>
        <time>2021-02-28T06:40:12Z</time>
      </trkpt>
      <trkpt lat="45.1457" lon="6.31492">
        <ele>2305.2</ele>
        <time>2021-02-28T06:40:13Z</time>
      </trkpt>
      <trkpt lat="45.14568" lon="6.31496">
        <ele>2305</ele>
        <time>2021-02-28T06:40:14Z</time>
      </trkpt>
      <trkpt lat="45.14568" lon="6.31496">
        <ele>2305.6</ele>
        <time>2021-02-28T06:40:15Z</time>
      </trkpt>
      <trkpt lat="45.14567" lon="6.31499">
        <ele>2305.8</ele>
        <time>2021-02-28T06:40:16Z</time>
      </trkpt>
      <trkpt lat="45.14567" lon="6.31499">
        <ele>2306.2</ele>
        <time>2021-02-28T06:40:17Z</time>
      </trkpt>
      <trkpt lat="45.14565" lon="6.31501">
        <ele>2306.4</ele>
        <time>2021-02-28T06:40:18Z</time>
      </trkpt>
      <trkpt lat="45.14565" lon="6.31501">
        <ele>2306.8</ele>
        <time>2021-02-28T06:40:19Z</time>
      </trkpt>
      <trkpt lat="45.14565" lon="6.31504">
        <ele>2307.4</ele>
        <time>2021-02-28T06:40:20Z</time>
      </trkpt>
      <trkpt lat="45.14565" lon="6.31504">
        <ele>2307</ele>
        <time>2021-02-28T06:40:21Z</time>
      </trkpt>
      <trkpt lat="45.14564" lon="6.31507">
        <ele>2307</ele>
        <time>2021-02-28T06:40:22Z</time>
      </trkpt>
      <trkpt lat="45.14564" lon="6.31507">
        <ele>2307.6</ele>
        <time>2021-02-28T06:40:23Z</time>
      </trkpt>
      <trkpt lat="45.14563" lon="6.3151">
        <ele>2307.8</ele>
        <time>2021-02-28T06:40:24Z</time>
      </trkpt>
      <trkpt lat="45.14563" lon="6.3151">
        <ele>2309</ele>
        <time>2021-02-28T06:40:25Z</time>
      </trkpt>
      <trkpt lat="45.14562" lon="6.31512">
        <ele>2309.2</ele>
        <time>2021-02-28T06:40:26Z</time>
      </trkpt>
      <trkpt lat="45.14562" lon="6.31512">
        <ele>2309.8</ele>
        <time>2021-02-28T06:40:27Z</time>
      </trkpt>
      <trkpt lat="45.14561" lon="6.31515">
        <ele>2310.2</ele>
        <time>2021-02-28T06:40:28Z</time>
      </trkpt>
      <trkpt lat="45.14561" lon="6.31515">
        <ele>2309.8</ele>
        <time>2021-02-28T06:40:29Z</time>
      </trkpt>
      <trkpt lat="45.1456" lon="6.31519">
        <ele>2309.6</ele>
        <time>2021-02-28T06:40:30Z</time>
      </trkpt>
      <trkpt lat="45.1456" lon="6.31519">
        <ele>2310</ele>
        <time>2021-02-28T06:40:31Z</time>
      </trkpt>
      <trkpt lat="45.14559" lon="6.31521">
        <ele>2310.8</ele>
        <time>2021-02-28T06:40:32Z</time>
      </trkpt>
      <trkpt lat="45.14559" lon="6.31521">
        <ele>2311.2</ele>
        <time>2021-02-28T06:40:33Z</time>
      </trkpt>
      <trkpt lat="45.14557" lon="6.31524">
        <ele>2310.8</ele>
        <time>2021-02-28T06:40:34Z</time>
      </trkpt>
      <trkpt lat="45.14557" lon="6.31524">
        <ele>2311</ele>
        <time>2021-02-28T06:40:35Z</time>
      </trkpt>
      <trkpt lat="45.14557" lon="6.31524">
        <ele>2311.2</ele>
        <time>2021-02-28T06:40:36Z</time>
      </trkpt>
      <trkpt lat="45.14556" lon="6.31527">
        <ele>2310</ele>
        <time>2021-02-28T06:40:37Z</time>
      </trkpt>
      <trkpt lat="45.14556" lon="6.31527">
        <ele>2310.2</ele>
        <time>2021-02-28T06:40:38Z</time>
      </trkpt>
      <trkpt lat="45.14555" lon="6.3153">
        <ele>2310.8</ele>
        <time>2021-02-28T06:40:39Z</time>
      </trkpt>
      <trkpt lat="45.14555" lon="6.3153">
        <ele>2311.6</ele>
        <time>2021-02-28T06:40:40Z</time>
      </trkpt>
      <trkpt lat="45.14555" lon="6.3153">
        <ele>2312.2</ele>
        <time>2021-02-28T06:40:41Z</time>
      </trkpt>
      <trkpt lat="45.14554" lon="6.31533">
        <ele>2312.2</ele>
        <time>2021-02-28T06:40:42Z</time>
      </trkpt>
      <trkpt lat="45.14554" lon="6.31533">
        <ele>2312.2</ele>
        <time>2021-02-28T06:40:43Z</time>
      </trkpt>
      <trkpt lat="45.14554" lon="6.31533">
        <ele>2312.2</ele>
        <time>2021-02-28T06:40:44Z</time>
      </trkpt>
      <trkpt lat="45.14553" lon="6.31536">
        <ele>2311.4</ele>
        <time>2021-02-28T06:40:45Z</time>
      </trkpt>
      <trkpt lat="45.14553" lon="6.31536">
        <ele>2311.4</ele>
        <time>2021-02-28T06:40:46Z</time>
      </trkpt>
      <trkpt lat="45.14552" lon="6.31539">
        <ele>2311.6</ele>
        <time>2021-02-28T06:40:47Z</time>
      </trkpt>
      <trkpt lat="45.14552" lon="6.31539">
        <ele>2311.6</ele>
        <time>2021-02-28T06:40:48Z</time>
      </trkpt>
      <trkpt lat="45.14551" lon="6.31541">
        <ele>2312</ele>
        <time>2021-02-28T06:40:49Z</time>
      </trkpt>
      <trkpt lat="45.14551" lon="6.31541">
        <ele>2311.8</ele>
        <time>2021-02-28T06:40:50Z</time>
      </trkpt>
      <trkpt lat="45.1455" lon="6.31545">
        <ele>2311.8</ele>
        <time>2021-02-28T06:40:51Z</time>
      </trkpt>
      <trkpt lat="45.1455" lon="6.31545">
        <ele>2312.6</ele>
        <time>2021-02-28T06:40:52Z</time>
      </trkpt>
      <trkpt lat="45.1455" lon="6.31547">
        <ele>2312.4</ele>
        <time>2021-02-28T06:40:53Z</time>
      </trkpt>
      <trkpt lat="45.1455" lon="6.31547">
        <ele>2313.2</ele>
        <time>2021-02-28T06:40:54Z</time>
      </trkpt>
      <trkpt lat="45.14549" lon="6.3155">
        <ele>2313</ele>
        <time>2021-02-28T06:40:55Z</time>
      </trkpt>
      <trkpt lat="45.14549" lon="6.3155">
        <ele>2313.2</ele>
        <time>2021-02-28T06:40:56Z</time>
      </trkpt>
      <trkpt lat="45.14549" lon="6.31554">
        <ele>2313.8</ele>
        <time>2021-02-28T06:40:57Z</time>
      </trkpt>
      <trkpt lat="45.14549" lon="6.31554">
        <ele>2313.6</ele>
        <time>2021-02-28T06:40:58Z</time>
      </trkpt>
      <trkpt lat="45.14548" lon="6.31557">
        <ele>2313.8</ele>
        <time>2021-02-28T06:40:59Z</time>
      </trkpt>
      <trkpt lat="45.14548" lon="6.31557">
        <ele>2313.8</ele>
        <time>2021-02-28T06:41:00Z</time>
      </trkpt>
      <trkpt lat="45.14547" lon="6.3156">
        <ele>2314.2</ele>
        <time>2021-02-28T06:41:01Z</time>
      </trkpt>
      <trkpt lat="45.14547" lon="6.3156">
        <ele>2314.4</ele>
        <time>2021-02-28T06:41:02Z</time>
      </trkpt>
      <trkpt lat="45.14547" lon="6.31563">
        <ele>2314.8</ele>
        <time>2021-02-28T06:41:03Z</time>
      </trkpt>
      <trkpt lat="45.14547" lon="6.31563">
        <ele>2315.2</ele>
        <time>2021-02-28T06:41:04Z</time>
      </trkpt>
      <trkpt lat="45.14546" lon="6.31566">
        <ele>2315.2</ele>
        <time>2021-02-28T06:41:05Z</time>
      </trkpt>
      <trkpt lat="45.14546" lon="6.31566">
        <ele>2315.4</ele>
        <time>2021-02-28T06:41:06Z</time>
      </trkpt>
      <trkpt lat="45.14545" lon="6.3157">
        <ele>2314.6</ele>
        <time>2021-02-28T06:41:07Z</time>
      </trkpt>
      <trkpt lat="45.14545" lon="6.3157">
        <ele>2315.2</ele>
        <time>2021-02-28T06:41:08Z</time>
      </trkpt>
      <trkpt lat="45.14544" lon="6.31573">
        <ele>2315.6</ele>
        <time>2021-02-28T06:41:09Z</time>
      </trkpt>
      <trkpt lat="45.14544" lon="6.31573">
        <ele>2315.8</ele>
        <time>2021-02-28T06:41:10Z</time>
      </trkpt>
      <trkpt lat="45.14542" lon="6.31575">
        <ele>2316.2</ele>
        <time>2021-02-28T06:41:11Z</time>
      </trkpt>
      <trkpt lat="45.14542" lon="6.31575">
        <ele>2316</ele>
        <time>2021-02-28T06:41:12Z</time>
      </trkpt>
      <trkpt lat="45.14541" lon="6.31577">
        <ele>2316</ele>
        <time>2021-02-28T06:41:13Z</time>
      </trkpt>
      <trkpt lat="45.14541" lon="6.31577">
        <ele>2316.8</ele>
        <time>2021-02-28T06:41:14Z</time>
      </trkpt>
      <trkpt lat="45.14539" lon="6.31579">
        <ele>2316.4</ele>
        <time>2021-02-28T06:41:15Z</time>
      </trkpt>
      <trkpt lat="45.14539" lon="6.31579">
        <ele>2316.6</ele>
        <time>2021-02-28T06:41:16Z</time>
      </trkpt>
      <trkpt lat="45.14538" lon="6.31581">
        <ele>2317</ele>
        <time>2021-02-28T06:41:17Z</time>
      </trkpt>
      <trkpt lat="45.14538" lon="6.31581">
        <ele>2317.6</ele>
        <time>2021-02-28T06:41:18Z</time>
      </trkpt>
      <trkpt lat="45.14537" lon="6.31584">
        <ele>2318.6</ele>
        <time>2021-02-28T06:41:19Z</time>
      </trkpt>
      <trkpt lat="45.14537" lon="6.31584">
        <ele>2318.2</ele>
        <time>2021-02-28T06:41:20Z</time>
      </trkpt>
      <trkpt lat="45.14536" lon="6.31587">
        <ele>2318</ele>
        <time>2021-02-28T06:41:21Z</time>
      </trkpt>
      <trkpt lat="45.14536" lon="6.31587">
        <ele>2318.2</ele>
        <time>2021-02-28T06:41:22Z</time>
      </trkpt>
      <trkpt lat="45.14535" lon="6.31589">
        <ele>2317.6</ele>
        <time>2021-02-28T06:41:23Z</time>
      </trkpt>
      <trkpt lat="45.14535" lon="6.31589">
        <ele>2318.2</ele>
        <time>2021-02-28T06:41:24Z</time>
      </trkpt>
      <trkpt lat="45.14533" lon="6.31592">
        <ele>2318.4</ele>
        <time>2021-02-28T06:41:25Z</time>
      </trkpt>
      <trkpt lat="45.14533" lon="6.31592">
        <ele>2318.8</ele>
        <time>2021-02-28T06:41:26Z</time>
      </trkpt>
      <trkpt lat="45.14533" lon="6.31595">
        <ele>2319.4</ele>
        <time>2021-02-28T06:41:27Z</time>
      </trkpt>
      <trkpt lat="45.14533" lon="6.31595">
        <ele>2318.6</ele>
        <time>2021-02-28T06:41:28Z</time>
      </trkpt>
      <trkpt lat="45.14532" lon="6.31598">
        <ele>2319.2</ele>
        <time>2021-02-28T06:41:29Z</time>
      </trkpt>
      <trkpt lat="45.14532" lon="6.31598">
        <ele>2319.4</ele>
        <time>2021-02-28T06:41:30Z</time>
      </trkpt>
      <trkpt lat="45.14531" lon="6.31601">
        <ele>2319.8</ele>
        <time>2021-02-28T06:41:31Z</time>
      </trkpt>
      <trkpt lat="45.14531" lon="6.31601">
        <ele>2320.2</ele>
        <time>2021-02-28T06:41:32Z</time>
      </trkpt>
      <trkpt lat="45.1453" lon="6.31604">
        <ele>2320</ele>
        <time>2021-02-28T06:41:33Z</time>
      </trkpt>
      <trkpt lat="45.1453" lon="6.31604">
        <ele>2320</ele>
        <time>2021-02-28T06:41:34Z</time>
      </trkpt>
      <trkpt lat="45.14529" lon="6.31608">
        <ele>2320.8</ele>
        <time>2021-02-28T06:41:35Z</time>
      </trkpt>
      <trkpt lat="45.14529" lon="6.31608">
        <ele>2320.8</ele>
        <time>2021-02-28T06:41:36Z</time>
      </trkpt>
      <trkpt lat="45.14529" lon="6.31611">
        <ele>2321.4</ele>
        <time>2021-02-28T06:41:37Z</time>
      </trkpt>
      <trkpt lat="45.14529" lon="6.31611">
        <ele>2321.4</ele>
        <time>2021-02-28T06:41:38Z</time>
      </trkpt>
      <trkpt lat="45.14528" lon="6.31615">
        <ele>2320.8</ele>
        <time>2021-02-28T06:41:39Z</time>
      </trkpt>
      <trkpt lat="45.14528" lon="6.31615">
        <ele>2321.4</ele>
        <time>2021-02-28T06:41:40Z</time>
      </trkpt>
      <trkpt lat="45.14528" lon="6.31618">
        <ele>2320.6</ele>
        <time>2021-02-28T06:41:41Z</time>
      </trkpt>
      <trkpt lat="45.14528" lon="6.31618">
        <ele>2321.2</ele>
        <time>2021-02-28T06:41:42Z</time>
      </trkpt>
      <trkpt lat="45.14527" lon="6.31621">
        <ele>2321.6</ele>
        <time>2021-02-28T06:41:43Z</time>
      </trkpt>
      <trkpt lat="45.14527" lon="6.31621">
        <ele>2322</ele>
        <time>2021-02-28T06:41:44Z</time>
      </trkpt>
      <trkpt lat="45.14527" lon="6.31625">
        <ele>2322.6</ele>
        <time>2021-02-28T06:41:45Z</time>
      </trkpt>
      <trkpt lat="45.14527" lon="6.31625">
        <ele>2322.4</ele>
        <time>2021-02-28T06:41:46Z</time>
      </trkpt>
      <trkpt lat="45.14526" lon="6.31627">
        <ele>2322.4</ele>
        <time>2021-02-28T06:41:47Z</time>
      </trkpt>
      <trkpt lat="45.14526" lon="6.31627">
        <ele>2322.8</ele>
        <time>2021-02-28T06:41:48Z</time>
      </trkpt>
      <trkpt lat="45.14526" lon="6.3163">
        <ele>2323.6</ele>
        <time>2021-02-28T06:41:49Z</time>
      </trkpt>
      <trkpt lat="45.14526" lon="6.3163">
        <ele>2324.2</ele>
        <time>2021-02-28T06:41:50Z</time>
      </trkpt>
      <trkpt lat="45.14525" lon="6.31633">
        <ele>2323.6</ele>
        <time>2021-02-28T06:41:51Z</time>
      </trkpt>
      <trkpt lat="45.14525" lon="6.31633">
        <ele>2323.4</ele>
        <time>2021-02-28T06:41:52Z</time>
      </trkpt>
      <trkpt lat="45.14525" lon="6.31635">
        <ele>2324</ele>
        <time>2021-02-28T06:41:53Z</time>
      </trkpt>
      <trkpt lat="45.14525" lon="6.31635">
        <ele>2323.2</ele>
        <time>2021-02-28T06:41:54Z</time>
      </trkpt>
      <trkpt lat="45.14524" lon="6.31638">
        <ele>2323.2</ele>
        <time>2021-02-28T06:41:55Z</time>
      </trkpt>
      <trkpt lat="45.14524" lon="6.31638">
        <ele>2323.8</ele>
        <time>2021-02-28T06:41:56Z</time>
      </trkpt>
      <trkpt lat="45.14523" lon="6.31641">
        <ele>2324.2</ele>
        <time>2021-02-28T06:41:57Z</time>
      </trkpt>
      <trkpt lat="45.14523" lon="6.31641">
        <ele>2325</ele>
        <time>2021-02-28T06:41:58Z</time>
      </trkpt>
      <trkpt lat="45.14523" lon="6.31644">
        <ele>2324.6</ele>
        <time>2021-02-28T06:41:59Z</time>
      </trkpt>
      <trkpt lat="45.14523" lon="6.31644">
        <ele>2324.6</ele>
        <time>2021-02-28T06:42:00Z</time>
      </trkpt>
      <trkpt lat="45.14523" lon="6.31647">
        <ele>2325.4</ele>
        <time>2021-02-28T06:42:01Z</time>
      </trkpt>
      <trkpt lat="45.14523" lon="6.31647">
        <ele>2324.4</ele>
        <time>2021-02-28T06:42:02Z</time>
      </trkpt>
      <trkpt lat="45.14522" lon="6.3165">
        <ele>2324.8</ele>
        <time>2021-02-28T06:42:03Z</time>
      </trkpt>
      <trkpt lat="45.14522" lon="6.3165">
        <ele>2325.6</ele>
        <time>2021-02-28T06:42:04Z</time>
      </trkpt>
      <trkpt lat="45.14522" lon="6.31653">
        <ele>2325.8</ele>
        <time>2021-02-28T06:42:05Z</time>
      </trkpt>
      <trkpt lat="45.14522" lon="6.31653">
        <ele>2326.2</ele>
        <time>2021-02-28T06:42:06Z</time>
      </trkpt>
      <trkpt lat="45.14521" lon="6.31656">
        <ele>2326</ele>
        <time>2021-02-28T06:42:07Z</time>
      </trkpt>
      <trkpt lat="45.14521" lon="6.31656">
        <ele>2326</ele>
        <time>2021-02-28T06:42:08Z</time>
      </trkpt>
      <trkpt lat="45.14521" lon="6.31659">
        <ele>2326.8</ele>
        <time>2021-02-28T06:42:09Z</time>
      </trkpt>
      <trkpt lat="45.14521" lon="6.31659">
        <ele>2326</ele>
        <time>2021-02-28T06:42:10Z</time>
      </trkpt>
      <trkpt lat="45.14521" lon="6.31663">
        <ele>2326.6</ele>
        <time>2021-02-28T06:42:11Z</time>
      </trkpt>
      <trkpt lat="45.14521" lon="6.31663">
        <ele>2327</ele>
        <time>2021-02-28T06:42:12Z</time>
      </trkpt>
      <trkpt lat="45.14521" lon="6.31666">
        <ele>2327</ele>
        <time>2021-02-28T06:42:13Z</time>
      </trkpt>
      <trkpt lat="45.14521" lon="6.31666">
        <ele>2327.4</ele>
        <time>2021-02-28T06:42:14Z</time>
      </trkpt>
      <trkpt lat="45.14521" lon="6.3167">
        <ele>2327.4</ele>
        <time>2021-02-28T06:42:15Z</time>
      </trkpt>
      <trkpt lat="45.14521" lon="6.3167">
        <ele>2327.4</ele>
        <time>2021-02-28T06:42:16Z</time>
      </trkpt>
      <trkpt lat="45.14521" lon="6.31674">
        <ele>2327.2</ele>
        <time>2021-02-28T06:42:17Z</time>
      </trkpt>
      <trkpt lat="45.14521" lon="6.31674">
        <ele>2327.4</ele>
        <time>2021-02-28T06:42:18Z</time>
      </trkpt>
      <trkpt lat="45.1452" lon="6.31678">
        <ele>2327</ele>
        <time>2021-02-28T06:42:19Z</time>
      </trkpt>
      <trkpt lat="45.1452" lon="6.31678">
        <ele>2327.2</ele>
        <time>2021-02-28T06:42:20Z</time>
      </trkpt>
      <trkpt lat="45.14519" lon="6.31682">
        <ele>2327</ele>
        <time>2021-02-28T06:42:21Z</time>
      </trkpt>
      <trkpt lat="45.14519" lon="6.31682">
        <ele>2326.6</ele>
        <time>2021-02-28T06:42:22Z</time>
      </trkpt>
      <trkpt lat="45.14519" lon="6.31686">
        <ele>2327</ele>
        <time>2021-02-28T06:42:23Z</time>
      </trkpt>
      <trkpt lat="45.14519" lon="6.31686">
        <ele>2327.2</ele>
        <time>2021-02-28T06:42:24Z</time>
      </trkpt>
      <trkpt lat="45.14518" lon="6.31688">
        <ele>2327.2</ele>
        <time>2021-02-28T06:42:25Z</time>
      </trkpt>
      <trkpt lat="45.14518" lon="6.31688">
        <ele>2327.8</ele>
        <time>2021-02-28T06:42:26Z</time>
      </trkpt>
      <trkpt lat="45.14518" lon="6.31688">
        <ele>2327.2</ele>
        <time>2021-02-28T06:42:27Z</time>
      </trkpt>
      <trkpt lat="45.14516" lon="6.31691">
        <ele>2327</ele>
        <time>2021-02-28T06:42:28Z</time>
      </trkpt>
      <trkpt lat="45.14516" lon="6.31691">
        <ele>2327.6</ele>
        <time>2021-02-28T06:42:29Z</time>
      </trkpt>
      <trkpt lat="45.14515" lon="6.31694">
        <ele>2327.4</ele>
        <time>2021-02-28T06:42:30Z</time>
      </trkpt>
      <trkpt lat="45.14515" lon="6.31694">
        <ele>2327.8</ele>
        <time>2021-02-28T06:42:31Z</time>
      </trkpt>
      <trkpt lat="45.14514" lon="6.31696">
        <ele>2328</ele>
        <time>2021-02-28T06:42:32Z</time>
      </trkpt>
      <trkpt lat="45.14514" lon="6.31696">
        <ele>2328.2</ele>
        <time>2021-02-28T06:42:33Z</time>
      </trkpt>
      <trkpt lat="45.14514" lon="6.31696">
        <ele>2328.8</ele>
        <time>2021-02-28T06:42:34Z</time>
      </trkpt>
      <trkpt lat="45.14512" lon="6.31699">
        <ele>2328.6</ele>
        <time>2021-02-28T06:42:35Z</time>
      </trkpt>
      <trkpt lat="45.14512" lon="6.31699">
        <ele>2329</ele>
        <time>2021-02-28T06:42:36Z</time>
      </trkpt>
      <trkpt lat="45.14512" lon="6.31701">
        <ele>2329.8</ele>
        <time>2021-02-28T06:42:37Z</time>
      </trkpt>
      <trkpt lat="45.14512" lon="6.31701">
        <ele>2329.2</ele>
        <time>2021-02-28T06:42:38Z</time>
      </trkpt>
      <trkpt lat="45.14511" lon="6.31704">
        <ele>2329.4</ele>
        <time>2021-02-28T06:42:39Z</time>
      </trkpt>
      <trkpt lat="45.14511" lon="6.31704">
        <ele>2329.8</ele>
        <time>2021-02-28T06:42:40Z</time>
      </trkpt>
      <trkpt lat="45.14511" lon="6.31707">
        <ele>2330.8</ele>
        <time>2021-02-28T06:42:41Z</time>
      </trkpt>
      <trkpt lat="45.14511" lon="6.31707">
        <ele>2330</ele>
        <time>2021-02-28T06:42:42Z</time>
      </trkpt>
      <trkpt lat="45.14511" lon="6.31707">
        <ele>2330.4</ele>
        <time>2021-02-28T06:42:43Z</time>
      </trkpt>
      <trkpt lat="45.14511" lon="6.3171">
        <ele>2330.4</ele>
        <time>2021-02-28T06:42:44Z</time>
      </trkpt>
      <trkpt lat="45.14511" lon="6.3171">
        <ele>2330.8</ele>
        <time>2021-02-28T06:42:45Z</time>
      </trkpt>
      <trkpt lat="45.14511" lon="6.3171">
        <ele>2330.8</ele>
        <time>2021-02-28T06:42:46Z</time>
      </trkpt>
      <trkpt lat="45.14511" lon="6.3171">
        <ele>2331.2</ele>
        <time>2021-02-28T06:42:47Z</time>
      </trkpt>
      <trkpt lat="45.14511" lon="6.3171">
        <ele>2331.6</ele>
        <time>2021-02-28T06:42:48Z</time>
      </trkpt>
      <trkpt lat="45.14511" lon="6.3171">
        <ele>2332.4</ele>
        <time>2021-02-28T06:42:49Z</time>
      </trkpt>
      <trkpt lat="45.14512" lon="6.31713">
        <ele>2332.2</ele>
        <time>2021-02-28T06:42:50Z</time>
      </trkpt>
      <trkpt lat="45.14512" lon="6.31713">
        <ele>2332.6</ele>
        <time>2021-02-28T06:42:51Z</time>
      </trkpt>
      <trkpt lat="45.14512" lon="6.31713">
        <ele>2333</ele>
        <time>2021-02-28T06:42:52Z</time>
      </trkpt>
      <trkpt lat="45.14512" lon="6.31716">
        <ele>2333</ele>
        <time>2021-02-28T06:42:53Z</time>
      </trkpt>
      <trkpt lat="45.14512" lon="6.31716">
        <ele>2333.2</ele>
        <time>2021-02-28T06:42:54Z</time>
      </trkpt>
      <trkpt lat="45.14512" lon="6.31716">
        <ele>2333.2</ele>
        <time>2021-02-28T06:42:55Z</time>
      </trkpt>
      <trkpt lat="45.14512" lon="6.31719">
        <ele>2333.4</ele>
        <time>2021-02-28T06:42:56Z</time>
      </trkpt>
      <trkpt lat="45.14512" lon="6.31719">
        <ele>2333.6</ele>
        <time>2021-02-28T06:42:57Z</time>
      </trkpt>
      <trkpt lat="45.14512" lon="6.31719">
        <ele>2333.6</ele>
        <time>2021-02-28T06:42:58Z</time>
      </trkpt>
      <trkpt lat="45.14512" lon="6.31719">
        <ele>2334.2</ele>
        <time>2021-02-28T06:42:59Z</time>
      </trkpt>
      <trkpt lat="45.14512" lon="6.31722">
        <ele>2334.4</ele>
        <time>2021-02-28T06:43:00Z</time>
      </trkpt>
      <trkpt lat="45.14512" lon="6.31722">
        <ele>2334.4</ele>
        <time>2021-02-28T06:43:01Z</time>
      </trkpt>
      <trkpt lat="45.14512" lon="6.31722">
        <ele>2334.2</ele>
        <time>2021-02-28T06:43:02Z</time>
      </trkpt>
      <trkpt lat="45.14512" lon="6.31722">
        <ele>2333.6</ele>
        <time>2021-02-28T06:43:03Z</time>
      </trkpt>
      <trkpt lat="45.14512" lon="6.31722">
        <ele>2332.8</ele>
        <time>2021-02-28T06:43:04Z</time>
      </trkpt>
      <trkpt lat="45.14512" lon="6.31722">
        <ele>2332.8</ele>
        <time>2021-02-28T06:43:05Z</time>
      </trkpt>
      <trkpt lat="45.14512" lon="6.31722">
        <ele>2332.8</ele>
        <time>2021-02-28T06:43:06Z</time>
      </trkpt>
      <trkpt lat="45.14512" lon="6.31722">
        <ele>2333</ele>
        <time>2021-02-28T06:43:07Z</time>
      </trkpt>
      <trkpt lat="45.14512" lon="6.31722">
        <ele>2333</ele>
        <time>2021-02-28T06:43:08Z</time>
      </trkpt>
      <trkpt lat="45.14512" lon="6.31722">
        <ele>2333</ele>
        <time>2021-02-28T06:43:09Z</time>
      </trkpt>
      <trkpt lat="45.14512" lon="6.31722">
        <ele>2333.2</ele>
        <time>2021-02-28T06:43:10Z</time>
      </trkpt>
      <trkpt lat="45.14512" lon="6.31722">
        <ele>2333.6</ele>
        <time>2021-02-28T06:43:11Z</time>
      </trkpt>
      <trkpt lat="45.14512" lon="6.31722">
        <ele>2333.4</ele>
        <time>2021-02-28T06:43:12Z</time>
      </trkpt>
      <trkpt lat="45.14514" lon="6.31724">
        <ele>2334</ele>
        <time>2021-02-28T06:43:13Z</time>
      </trkpt>
      <trkpt lat="45.14514" lon="6.31724">
        <ele>2334.2</ele>
        <time>2021-02-28T06:43:14Z</time>
      </trkpt>
      <trkpt lat="45.14514" lon="6.31724">
        <ele>2333.8</ele>
        <time>2021-02-28T06:43:15Z</time>
      </trkpt>
      <trkpt lat="45.14514" lon="6.31724">
        <ele>2334.2</ele>
        <time>2021-02-28T06:43:16Z</time>
      </trkpt>
      <trkpt lat="45.14517" lon="6.31725">
        <ele>2334.2</ele>
        <time>2021-02-28T06:43:17Z</time>
      </trkpt>
      <trkpt lat="45.14517" lon="6.31725">
        <ele>2334.6</ele>
        <time>2021-02-28T06:43:18Z</time>
      </trkpt>
      <trkpt lat="45.14517" lon="6.31725">
        <ele>2334.8</ele>
        <time>2021-02-28T06:43:19Z</time>
      </trkpt>
      <trkpt lat="45.14519" lon="6.31726">
        <ele>2335.4</ele>
        <time>2021-02-28T06:43:20Z</time>
      </trkpt>
      <trkpt lat="45.14519" lon="6.31726">
        <ele>2336</ele>
        <time>2021-02-28T06:43:21Z</time>
      </trkpt>
      <trkpt lat="45.14519" lon="6.31726">
        <ele>2336.4</ele>
        <time>2021-02-28T06:43:22Z</time>
      </trkpt>
      <trkpt lat="45.14522" lon="6.31726">
        <ele>2336.8</ele>
        <time>2021-02-28T06:43:23Z</time>
      </trkpt>
      <trkpt lat="45.14522" lon="6.31726">
        <ele>2338</ele>
        <time>2021-02-28T06:43:24Z</time>
      </trkpt>
      <trkpt lat="45.14522" lon="6.31726">
        <ele>2338.4</ele>
        <time>2021-02-28T06:43:25Z</time>
      </trkpt>
      <trkpt lat="45.14525" lon="6.31727">
        <ele>2338.6</ele>
        <time>2021-02-28T06:43:26Z</time>
      </trkpt>
      <trkpt lat="45.14525" lon="6.31727">
        <ele>2339.2</ele>
        <time>2021-02-28T06:43:27Z</time>
      </trkpt>
      <trkpt lat="45.14527" lon="6.31728">
        <ele>2339.4</ele>
        <time>2021-02-28T06:43:28Z</time>
      </trkpt>
      <trkpt lat="45.14527" lon="6.31728">
        <ele>2339.4</ele>
        <time>2021-02-28T06:43:29Z</time>
      </trkpt>
      <trkpt lat="45.14529" lon="6.3173">
        <ele>2339.4</ele>
        <time>2021-02-28T06:43:30Z</time>
      </trkpt>
      <trkpt lat="45.14529" lon="6.3173">
        <ele>2340</ele>
        <time>2021-02-28T06:43:31Z</time>
      </trkpt>
      <trkpt lat="45.14531" lon="6.31731">
        <ele>2340.2</ele>
        <time>2021-02-28T06:43:32Z</time>
      </trkpt>
      <trkpt lat="45.14531" lon="6.31731">
        <ele>2340.6</ele>
        <time>2021-02-28T06:43:33Z</time>
      </trkpt>
      <trkpt lat="45.14533" lon="6.31732">
        <ele>2341</ele>
        <time>2021-02-28T06:43:34Z</time>
      </trkpt>
      <trkpt lat="45.14533" lon="6.31732">
        <ele>2341.6</ele>
        <time>2021-02-28T06:43:35Z</time>
      </trkpt>
      <trkpt lat="45.14533" lon="6.31732">
        <ele>2341.4</ele>
        <time>2021-02-28T06:43:36Z</time>
      </trkpt>
      <trkpt lat="45.14535" lon="6.31734">
        <ele>2341.4</ele>
        <time>2021-02-28T06:43:37Z</time>
      </trkpt>
      <trkpt lat="45.14535" lon="6.31734">
        <ele>2341.8</ele>
        <time>2021-02-28T06:43:38Z</time>
      </trkpt>
      <trkpt lat="45.14535" lon="6.31734">
        <ele>2342.6</ele>
        <time>2021-02-28T06:43:39Z</time>
      </trkpt>
      <trkpt lat="45.14537" lon="6.31736">
        <ele>2343</ele>
        <time>2021-02-28T06:43:40Z</time>
      </trkpt>
      <trkpt lat="45.14537" lon="6.31736">
        <ele>2343.4</ele>
        <time>2021-02-28T06:43:41Z</time>
      </trkpt>
      <trkpt lat="45.14539" lon="6.31737">
        <ele>2344</ele>
        <time>2021-02-28T06:43:42Z</time>
      </trkpt>
      <trkpt lat="45.14539" lon="6.31737">
        <ele>2344.2</ele>
        <time>2021-02-28T06:43:43Z</time>
      </trkpt>
      <trkpt lat="45.14541" lon="6.31738">
        <ele>2344.4</ele>
        <time>2021-02-28T06:43:44Z</time>
      </trkpt>
      <trkpt lat="45.14541" lon="6.31738">
        <ele>2344.6</ele>
        <time>2021-02-28T06:43:45Z</time>
      </trkpt>
      <trkpt lat="45.14541" lon="6.31738">
        <ele>2345.2</ele>
        <time>2021-02-28T06:43:46Z</time>
      </trkpt>
      <trkpt lat="45.14543" lon="6.31739">
        <ele>2345</ele>
        <time>2021-02-28T06:43:47Z</time>
      </trkpt>
      <trkpt lat="45.14543" lon="6.31739">
        <ele>2345.6</ele>
        <time>2021-02-28T06:43:48Z</time>
      </trkpt>
      <trkpt lat="45.14543" lon="6.31739">
        <ele>2346</ele>
        <time>2021-02-28T06:43:49Z</time>
      </trkpt>
      <trkpt lat="45.14545" lon="6.31741">
        <ele>2347</ele>
        <time>2021-02-28T06:43:50Z</time>
      </trkpt>
      <trkpt lat="45.14545" lon="6.31741">
        <ele>2347.4</ele>
        <time>2021-02-28T06:43:51Z</time>
      </trkpt>
      <trkpt lat="45.14545" lon="6.31741">
        <ele>2348</ele>
        <time>2021-02-28T06:43:52Z</time>
      </trkpt>
      <trkpt lat="45.14547" lon="6.31743">
        <ele>2348.6</ele>
        <time>2021-02-28T06:43:53Z</time>
      </trkpt>
      <trkpt lat="45.14547" lon="6.31743">
        <ele>2349.4</ele>
        <time>2021-02-28T06:43:54Z</time>
      </trkpt>
      <trkpt lat="45.14547" lon="6.31743">
        <ele>2350.2</ele>
        <time>2021-02-28T06:43:55Z</time>
      </trkpt>
      <trkpt lat="45.14549" lon="6.31744">
        <ele>2350.6</ele>
        <time>2021-02-28T06:43:56Z</time>
      </trkpt>
      <trkpt lat="45.14549" lon="6.31744">
        <ele>2351.4</ele>
        <time>2021-02-28T06:43:57Z</time>
      </trkpt>
      <trkpt lat="45.14549" lon="6.31744">
        <ele>2351.6</ele>
        <time>2021-02-28T06:43:58Z</time>
      </trkpt>
      <trkpt lat="45.14551" lon="6.31746">
        <ele>2351.8</ele>
        <time>2021-02-28T06:43:59Z</time>
      </trkpt>
      <trkpt lat="45.14551" lon="6.31746">
        <ele>2352.4</ele>
        <time>2021-02-28T06:44:00Z</time>
      </trkpt>
      <trkpt lat="45.14552" lon="6.31748">
        <ele>2352.2</ele>
        <time>2021-02-28T06:44:01Z</time>
      </trkpt>
      <trkpt lat="45.14552" lon="6.31748">
        <ele>2351.4</ele>
        <time>2021-02-28T06:44:02Z</time>
      </trkpt>
      <trkpt lat="45.14552" lon="6.31748">
        <ele>2351.4</ele>
        <time>2021-02-28T06:44:03Z</time>
      </trkpt>
      <trkpt lat="45.14554" lon="6.3175">
        <ele>2351.2</ele>
        <time>2021-02-28T06:44:04Z</time>
      </trkpt>
      <trkpt lat="45.14554" lon="6.3175">
        <ele>2351.8</ele>
        <time>2021-02-28T06:44:05Z</time>
      </trkpt>
      <trkpt lat="45.14554" lon="6.3175">
        <ele>2353</ele>
        <time>2021-02-28T06:44:06Z</time>
      </trkpt>
      <trkpt lat="45.14556" lon="6.31752">
        <ele>2353.4</ele>
        <time>2021-02-28T06:44:07Z</time>
      </trkpt>
      <trkpt lat="45.14556" lon="6.31752">
        <ele>2355.4</ele>
        <time>2021-02-28T06:44:08Z</time>
      </trkpt>
      <trkpt lat="45.14558" lon="6.31753">
        <ele>2356.8</ele>
        <time>2021-02-28T06:44:09Z</time>
      </trkpt>
      <trkpt lat="45.14558" lon="6.31753">
        <ele>2357</ele>
        <time>2021-02-28T06:44:10Z</time>
      </trkpt>
      <trkpt lat="45.14558" lon="6.31753">
        <ele>2356.6</ele>
        <time>2021-02-28T06:44:11Z</time>
      </trkpt>
      <trkpt lat="45.14558" lon="6.31753">
        <ele>2355.6</ele>
        <time>2021-02-28T06:44:12Z</time>
      </trkpt>
      <trkpt lat="45.1456" lon="6.31755">
        <ele>2355</ele>
        <time>2021-02-28T06:44:13Z</time>
      </trkpt>
      <trkpt lat="45.1456" lon="6.31755">
        <ele>2355</ele>
        <time>2021-02-28T06:44:14Z</time>
      </trkpt>
      <trkpt lat="45.1456" lon="6.31755">
        <ele>2355.2</ele>
        <time>2021-02-28T06:44:15Z</time>
      </trkpt>
      <trkpt lat="45.14561" lon="6.31756">
        <ele>2355.2</ele>
        <time>2021-02-28T06:44:16Z</time>
      </trkpt>
      <trkpt lat="45.14561" lon="6.31756">
        <ele>2355.4</ele>
        <time>2021-02-28T06:44:17Z</time>
      </trkpt>
      <trkpt lat="45.14561" lon="6.31756">
        <ele>2355.4</ele>
        <time>2021-02-28T06:44:18Z</time>
      </trkpt>
      <trkpt lat="45.14563" lon="6.31758">
        <ele>2355.6</ele>
        <time>2021-02-28T06:44:19Z</time>
      </trkpt>
      <trkpt lat="45.14563" lon="6.31758">
        <ele>2356.4</ele>
        <time>2021-02-28T06:44:20Z</time>
      </trkpt>
      <trkpt lat="45.14563" lon="6.31758">
        <ele>2356.4</ele>
        <time>2021-02-28T06:44:21Z</time>
      </trkpt>
      <trkpt lat="45.14565" lon="6.31759">
        <ele>2357</ele>
        <time>2021-02-28T06:44:22Z</time>
      </trkpt>
      <trkpt lat="45.14565" lon="6.31759">
        <ele>2357.2</ele>
        <time>2021-02-28T06:44:23Z</time>
      </trkpt>
      <trkpt lat="45.14565" lon="6.31759">
        <ele>2356.4</ele>
        <time>2021-02-28T06:44:24Z</time>
      </trkpt>
      <trkpt lat="45.14566" lon="6.3176">
        <ele>2356.4</ele>
        <time>2021-02-28T06:44:25Z</time>
      </trkpt>
      <trkpt lat="45.14566" lon="6.3176">
        <ele>2356.6</ele>
        <time>2021-02-28T06:44:26Z</time>
      </trkpt>
      <trkpt lat="45.14566" lon="6.3176">
        <ele>2356.2</ele>
        <time>2021-02-28T06:44:27Z</time>
      </trkpt>
      <trkpt lat="45.14568" lon="6.31762">
        <ele>2356</ele>
        <time>2021-02-28T06:44:28Z</time>
      </trkpt>
      <trkpt lat="45.14568" lon="6.31762">
        <ele>2356.2</ele>
        <time>2021-02-28T06:44:29Z</time>
      </trkpt>
      <trkpt lat="45.14568" lon="6.31762">
        <ele>2356.4</ele>
        <time>2021-02-28T06:44:30Z</time>
      </trkpt>
      <trkpt lat="45.14568" lon="6.31762">
        <ele>2355.8</ele>
        <time>2021-02-28T06:44:31Z</time>
      </trkpt>
      <trkpt lat="45.1457" lon="6.31765">
        <ele>2356.2</ele>
        <time>2021-02-28T06:44:32Z</time>
      </trkpt>
      <trkpt lat="45.1457" lon="6.31765">
        <ele>2356.2</ele>
        <time>2021-02-28T06:44:33Z</time>
      </trkpt>
      <trkpt lat="45.1457" lon="6.31765">
        <ele>2355.6</ele>
        <time>2021-02-28T06:44:34Z</time>
      </trkpt>
      <trkpt lat="45.1457" lon="6.31765">
        <ele>2356</ele>
        <time>2021-02-28T06:44:35Z</time>
      </trkpt>
      <trkpt lat="45.14571" lon="6.31768">
        <ele>2356</ele>
        <time>2021-02-28T06:44:36Z</time>
      </trkpt>
      <trkpt lat="45.14571" lon="6.31768">
        <ele>2356.2</ele>
        <time>2021-02-28T06:44:37Z</time>
      </trkpt>
      <trkpt lat="45.14571" lon="6.31768">
        <ele>2357</ele>
        <time>2021-02-28T06:44:38Z</time>
      </trkpt>
      <trkpt lat="45.14571" lon="6.31768">
        <ele>2357.4</ele>
        <time>2021-02-28T06:44:39Z</time>
      </trkpt>
      <trkpt lat="45.14572" lon="6.3177">
        <ele>2357.4</ele>
        <time>2021-02-28T06:44:40Z</time>
      </trkpt>
      <trkpt lat="45.14572" lon="6.3177">
        <ele>2357.8</ele>
        <time>2021-02-28T06:44:41Z</time>
      </trkpt>
      <trkpt lat="45.14572" lon="6.3177">
        <ele>2358.4</ele>
        <time>2021-02-28T06:44:42Z</time>
      </trkpt>
      <trkpt lat="45.14572" lon="6.3177">
        <ele>2358.6</ele>
        <time>2021-02-28T06:44:43Z</time>
      </trkpt>
      <trkpt lat="45.14574" lon="6.31772">
        <ele>2358.6</ele>
        <time>2021-02-28T06:44:44Z</time>
      </trkpt>
      <trkpt lat="45.14574" lon="6.31772">
        <ele>2359</ele>
        <time>2021-02-28T06:44:45Z</time>
      </trkpt>
      <trkpt lat="45.14574" lon="6.31772">
        <ele>2359</ele>
        <time>2021-02-28T06:44:46Z</time>
      </trkpt>
      <trkpt lat="45.14574" lon="6.31772">
        <ele>2359.4</ele>
        <time>2021-02-28T06:44:47Z</time>
      </trkpt>
      <trkpt lat="45.14576" lon="6.31774">
        <ele>2359.4</ele>
        <time>2021-02-28T06:44:48Z</time>
      </trkpt>
      <trkpt lat="45.14576" lon="6.31774">
        <ele>2360.2</ele>
        <time>2021-02-28T06:44:49Z</time>
      </trkpt>
      <trkpt lat="45.14576" lon="6.31774">
        <ele>2360.2</ele>
        <time>2021-02-28T06:44:50Z</time>
      </trkpt>
      <trkpt lat="45.14578" lon="6.31775">
        <ele>2360</ele>
        <time>2021-02-28T06:44:51Z</time>
      </trkpt>
      <trkpt lat="45.14578" lon="6.31775">
        <ele>2361</ele>
        <time>2021-02-28T06:44:52Z</time>
      </trkpt>
      <trkpt lat="45.1458" lon="6.31776">
        <ele>2361.2</ele>
        <time>2021-02-28T06:44:53Z</time>
      </trkpt>
      <trkpt lat="45.1458" lon="6.31776">
        <ele>2362</ele>
        <time>2021-02-28T06:44:54Z</time>
      </trkpt>
      <trkpt lat="45.1458" lon="6.31776">
        <ele>2362.6</ele>
        <time>2021-02-28T06:44:55Z</time>
      </trkpt>
      <trkpt lat="45.1458" lon="6.31776">
        <ele>2363.2</ele>
        <time>2021-02-28T06:44:56Z</time>
      </trkpt>
      <trkpt lat="45.14581" lon="6.31778">
        <ele>2363.6</ele>
        <time>2021-02-28T06:44:57Z</time>
      </trkpt>
      <trkpt lat="45.14581" lon="6.31778">
        <ele>2364</ele>
        <time>2021-02-28T06:44:58Z</time>
      </trkpt>
      <trkpt lat="45.14581" lon="6.31778">
        <ele>2364.4</ele>
        <time>2021-02-28T06:44:59Z</time>
      </trkpt>
      <trkpt lat="45.14581" lon="6.31778">
        <ele>2364.2</ele>
        <time>2021-02-28T06:45:00Z</time>
      </trkpt>
      <trkpt lat="45.14583" lon="6.3178">
        <ele>2364.4</ele>
        <time>2021-02-28T06:45:01Z</time>
      </trkpt>
      <trkpt lat="45.14583" lon="6.3178">
        <ele>2365.2</ele>
        <time>2021-02-28T06:45:02Z</time>
      </trkpt>
      <trkpt lat="45.14583" lon="6.3178">
        <ele>2365.4</ele>
        <time>2021-02-28T06:45:03Z</time>
      </trkpt>
      <trkpt lat="45.14583" lon="6.3178">
        <ele>2365.4</ele>
        <time>2021-02-28T06:45:04Z</time>
      </trkpt>
      <trkpt lat="45.14583" lon="6.3178">
        <ele>2366.2</ele>
        <time>2021-02-28T06:45:05Z</time>
      </trkpt>
      <trkpt lat="45.14583" lon="6.3178">
        <ele>2366.4</ele>
        <time>2021-02-28T06:45:06Z</time>
      </trkpt>
      <trkpt lat="45.14584" lon="6.31782">
        <ele>2366.6</ele>
        <time>2021-02-28T06:45:07Z</time>
      </trkpt>
      <trkpt lat="45.14584" lon="6.31782">
        <ele>2366.8</ele>
        <time>2021-02-28T06:45:08Z</time>
      </trkpt>
      <trkpt lat="45.14586" lon="6.31783">
        <ele>2367.8</ele>
        <time>2021-02-28T06:45:09Z</time>
      </trkpt>
      <trkpt lat="45.14586" lon="6.31783">
        <ele>2368</ele>
        <time>2021-02-28T06:45:10Z</time>
      </trkpt>
      <trkpt lat="45.14586" lon="6.31783">
        <ele>2368</ele>
        <time>2021-02-28T06:45:11Z</time>
      </trkpt>
      <trkpt lat="45.14588" lon="6.31784">
        <ele>2368.6</ele>
        <time>2021-02-28T06:45:12Z</time>
      </trkpt>
      <trkpt lat="45.14588" lon="6.31784">
        <ele>2368.8</ele>
        <time>2021-02-28T06:45:13Z</time>
      </trkpt>
      <trkpt lat="45.14588" lon="6.31784">
        <ele>2369.6</ele>
        <time>2021-02-28T06:45:14Z</time>
      </trkpt>
      <trkpt lat="45.14589" lon="6.31786">
        <ele>2370</ele>
        <time>2021-02-28T06:45:15Z</time>
      </trkpt>
      <trkpt lat="45.14589" lon="6.31786">
        <ele>2370.6</ele>
        <time>2021-02-28T06:45:16Z</time>
      </trkpt>
      <trkpt lat="45.14589" lon="6.31786">
        <ele>2370.8</ele>
        <time>2021-02-28T06:45:17Z</time>
      </trkpt>
      <trkpt lat="45.14591" lon="6.31788">
        <ele>2370.4</ele>
        <time>2021-02-28T06:45:18Z</time>
      </trkpt>
      <trkpt lat="45.14591" lon="6.31788">
        <ele>2371.2</ele>
        <time>2021-02-28T06:45:19Z</time>
      </trkpt>
      <trkpt lat="45.14593" lon="6.31789">
        <ele>2371.2</ele>
        <time>2021-02-28T06:45:20Z</time>
      </trkpt>
      <trkpt lat="45.14593" lon="6.31789">
        <ele>2371.4</ele>
        <time>2021-02-28T06:45:21Z</time>
      </trkpt>
      <trkpt lat="45.14593" lon="6.31789">
        <ele>2371.8</ele>
        <time>2021-02-28T06:45:22Z</time>
      </trkpt>
      <trkpt lat="45.14593" lon="6.31789">
        <ele>2372.4</ele>
        <time>2021-02-28T06:45:23Z</time>
      </trkpt>
      <trkpt lat="45.14595" lon="6.31791">
        <ele>2372</ele>
        <time>2021-02-28T06:45:24Z</time>
      </trkpt>
      <trkpt lat="45.14595" lon="6.31791">
        <ele>2372.6</ele>
        <time>2021-02-28T06:45:25Z</time>
      </trkpt>
      <trkpt lat="45.14595" lon="6.31791">
        <ele>2373.2</ele>
        <time>2021-02-28T06:45:26Z</time>
      </trkpt>
      <trkpt lat="45.14596" lon="6.31793">
        <ele>2373.2</ele>
        <time>2021-02-28T06:45:27Z</time>
      </trkpt>
      <trkpt lat="45.14596" lon="6.31793">
        <ele>2373.6</ele>
        <time>2021-02-28T06:45:28Z</time>
      </trkpt>
      <trkpt lat="45.14596" lon="6.31793">
        <ele>2373.8</ele>
        <time>2021-02-28T06:45:29Z</time>
      </trkpt>
      <trkpt lat="45.14596" lon="6.31793">
        <ele>2373.6</ele>
        <time>2021-02-28T06:45:30Z</time>
      </trkpt>
      <trkpt lat="45.14598" lon="6.31795">
        <ele>2374.2</ele>
        <time>2021-02-28T06:45:31Z</time>
      </trkpt>
      <trkpt lat="45.14598" lon="6.31795">
        <ele>2374.8</ele>
        <time>2021-02-28T06:45:32Z</time>
      </trkpt>
      <trkpt lat="45.14598" lon="6.31795">
        <ele>2375.8</ele>
        <time>2021-02-28T06:45:33Z</time>
      </trkpt>
      <trkpt lat="45.146" lon="6.31798">
        <ele>2376.2</ele>
        <time>2021-02-28T06:45:34Z</time>
      </trkpt>
      <trkpt lat="45.146" lon="6.31798">
        <ele>2376.2</ele>
        <time>2021-02-28T06:45:35Z</time>
      </trkpt>
      <trkpt lat="45.14602" lon="6.318">
        <ele>2377.2</ele>
        <time>2021-02-28T06:45:36Z</time>
      </trkpt>
      <trkpt lat="45.14602" lon="6.318">
        <ele>2377.2</ele>
        <time>2021-02-28T06:45:37Z</time>
      </trkpt>
      <trkpt lat="45.14602" lon="6.318">
        <ele>2377.8</ele>
        <time>2021-02-28T06:45:38Z</time>
      </trkpt>
      <trkpt lat="45.14603" lon="6.31801">
        <ele>2378.2</ele>
        <time>2021-02-28T06:45:39Z</time>
      </trkpt>
      <trkpt lat="45.14603" lon="6.31801">
        <ele>2378.8</ele>
        <time>2021-02-28T06:45:40Z</time>
      </trkpt>
      <trkpt lat="45.14603" lon="6.31801">
        <ele>2378.8</ele>
        <time>2021-02-28T06:45:41Z</time>
      </trkpt>
      <trkpt lat="45.14604" lon="6.31803">
        <ele>2379.2</ele>
        <time>2021-02-28T06:45:42Z</time>
      </trkpt>
      <trkpt lat="45.14604" lon="6.31803">
        <ele>2379.4</ele>
        <time>2021-02-28T06:45:43Z</time>
      </trkpt>
      <trkpt lat="45.14604" lon="6.31803">
        <ele>2379</ele>
        <time>2021-02-28T06:45:44Z</time>
      </trkpt>
      <trkpt lat="45.14604" lon="6.31803">
        <ele>2379</ele>
        <time>2021-02-28T06:45:45Z</time>
      </trkpt>
      <trkpt lat="45.14606" lon="6.31806">
        <ele>2379.6</ele>
        <time>2021-02-28T06:45:46Z</time>
      </trkpt>
      <trkpt lat="45.14606" lon="6.31806">
        <ele>2380.2</ele>
        <time>2021-02-28T06:45:47Z</time>
      </trkpt>
      <trkpt lat="45.14606" lon="6.31806">
        <ele>2380.4</ele>
        <time>2021-02-28T06:45:48Z</time>
      </trkpt>
      <trkpt lat="45.14606" lon="6.31806">
        <ele>2380.8</ele>
        <time>2021-02-28T06:45:49Z</time>
      </trkpt>
      <trkpt lat="45.14608" lon="6.31808">
        <ele>2380.4</ele>
        <time>2021-02-28T06:45:50Z</time>
      </trkpt>
      <trkpt lat="45.14608" lon="6.31808">
        <ele>2380.6</ele>
        <time>2021-02-28T06:45:51Z</time>
      </trkpt>
      <trkpt lat="45.14608" lon="6.31808">
        <ele>2381</ele>
        <time>2021-02-28T06:45:52Z</time>
      </trkpt>
      <trkpt lat="45.14609" lon="6.31811">
        <ele>2380.8</ele>
        <time>2021-02-28T06:45:53Z</time>
      </trkpt>
      <trkpt lat="45.14609" lon="6.31811">
        <ele>2381</ele>
        <time>2021-02-28T06:45:54Z</time>
      </trkpt>
      <trkpt lat="45.14609" lon="6.31811">
        <ele>2381</ele>
        <time>2021-02-28T06:45:55Z</time>
      </trkpt>
      <trkpt lat="45.1461" lon="6.31814">
        <ele>2381.8</ele>
        <time>2021-02-28T06:45:56Z</time>
      </trkpt>
      <trkpt lat="45.1461" lon="6.31814">
        <ele>2382.2</ele>
        <time>2021-02-28T06:45:57Z</time>
      </trkpt>
      <trkpt lat="45.1461" lon="6.31814">
        <ele>2382.2</ele>
        <time>2021-02-28T06:45:58Z</time>
      </trkpt>
      <trkpt lat="45.14611" lon="6.31815">
        <ele>2382.8</ele>
        <time>2021-02-28T06:45:59Z</time>
      </trkpt>
      <trkpt lat="45.14611" lon="6.31815">
        <ele>2383.4</ele>
        <time>2021-02-28T06:46:00Z</time>
      </trkpt>
      <trkpt lat="45.14611" lon="6.31815">
        <ele>2383.4</ele>
        <time>2021-02-28T06:46:01Z</time>
      </trkpt>
      <trkpt lat="45.14613" lon="6.31817">
        <ele>2383.6</ele>
        <time>2021-02-28T06:46:02Z</time>
      </trkpt>
      <trkpt lat="45.14613" lon="6.31817">
        <ele>2383.8</ele>
        <time>2021-02-28T06:46:03Z</time>
      </trkpt>
      <trkpt lat="45.14613" lon="6.31817">
        <ele>2384</ele>
        <time>2021-02-28T06:46:04Z</time>
      </trkpt>
      <trkpt lat="45.14613" lon="6.31821">
        <ele>2384</ele>
        <time>2021-02-28T06:46:05Z</time>
      </trkpt>
      <trkpt lat="45.14613" lon="6.31821">
        <ele>2384.6</ele>
        <time>2021-02-28T06:46:06Z</time>
      </trkpt>
      <trkpt lat="45.14613" lon="6.31821">
        <ele>2385</ele>
        <time>2021-02-28T06:46:07Z</time>
      </trkpt>
      <trkpt lat="45.14613" lon="6.31824">
        <ele>2385</ele>
        <time>2021-02-28T06:46:08Z</time>
      </trkpt>
      <trkpt lat="45.14613" lon="6.31824">
        <ele>2385.4</ele>
        <time>2021-02-28T06:46:09Z</time>
      </trkpt>
      <trkpt lat="45.14613" lon="6.31824">
        <ele>2385.2</ele>
        <time>2021-02-28T06:46:10Z</time>
      </trkpt>
      <trkpt lat="45.14614" lon="6.31827">
        <ele>2385.4</ele>
        <time>2021-02-28T06:46:11Z</time>
      </trkpt>
      <trkpt lat="45.14614" lon="6.31827">
        <ele>2386.2</ele>
        <time>2021-02-28T06:46:12Z</time>
      </trkpt>
      <trkpt lat="45.14614" lon="6.31827">
        <ele>2386</ele>
        <time>2021-02-28T06:46:13Z</time>
      </trkpt>
      <trkpt lat="45.14615" lon="6.31829">
        <ele>2385.8</ele>
        <time>2021-02-28T06:46:14Z</time>
      </trkpt>
      <trkpt lat="45.14615" lon="6.31829">
        <ele>2386.2</ele>
        <time>2021-02-28T06:46:15Z</time>
      </trkpt>
      <trkpt lat="45.14615" lon="6.31829">
        <ele>2386.6</ele>
        <time>2021-02-28T06:46:16Z</time>
      </trkpt>
      <trkpt lat="45.14615" lon="6.31829">
        <ele>2386.8</ele>
        <time>2021-02-28T06:46:17Z</time>
      </trkpt>
      <trkpt lat="45.14615" lon="6.31829">
        <ele>2386.8</ele>
        <time>2021-02-28T06:46:18Z</time>
      </trkpt>
      <trkpt lat="45.14615" lon="6.31829">
        <ele>2386.8</ele>
        <time>2021-02-28T06:46:19Z</time>
      </trkpt>
      <trkpt lat="45.14615" lon="6.31829">
        <ele>2387.2</ele>
        <time>2021-02-28T06:46:20Z</time>
      </trkpt>
      <trkpt lat="45.14615" lon="6.31829">
        <ele>2387</ele>
        <time>2021-02-28T06:46:21Z</time>
      </trkpt>
      <trkpt lat="45.14615" lon="6.31829">
        <ele>2387.2</ele>
        <time>2021-02-28T06:46:22Z</time>
      </trkpt>
      <trkpt lat="45.14615" lon="6.31829">
        <ele>2387.4</ele>
        <time>2021-02-28T06:46:23Z</time>
      </trkpt>
      <trkpt lat="45.14615" lon="6.31829">
        <ele>2387.6</ele>
        <time>2021-02-28T06:46:24Z</time>
      </trkpt>
      <trkpt lat="45.14615" lon="6.31829">
        <ele>2387.8</ele>
        <time>2021-02-28T06:46:25Z</time>
      </trkpt>
      <trkpt lat="45.14615" lon="6.31829">
        <ele>2387.8</ele>
        <time>2021-02-28T06:46:26Z</time>
      </trkpt>
      <trkpt lat="45.14614" lon="6.31833">
        <ele>2387.4</ele>
        <time>2021-02-28T06:46:27Z</time>
      </trkpt>
      <trkpt lat="45.14614" lon="6.31833">
        <ele>2387.6</ele>
        <time>2021-02-28T06:46:28Z</time>
      </trkpt>
      <trkpt lat="45.14615" lon="6.31835">
        <ele>2387.8</ele>
        <time>2021-02-28T06:46:29Z</time>
      </trkpt>
      <trkpt lat="45.14615" lon="6.31835">
        <ele>2388</ele>
        <time>2021-02-28T06:46:30Z</time>
      </trkpt>
      <trkpt lat="45.14615" lon="6.31838">
        <ele>2388.2</ele>
        <time>2021-02-28T06:46:31Z</time>
      </trkpt>
      <trkpt lat="45.14615" lon="6.31838">
        <ele>2388.6</ele>
        <time>2021-02-28T06:46:32Z</time>
      </trkpt>
      <trkpt lat="45.14615" lon="6.31838">
        <ele>2388</ele>
        <time>2021-02-28T06:46:33Z</time>
      </trkpt>
      <trkpt lat="45.14615" lon="6.31842">
        <ele>2388.4</ele>
        <time>2021-02-28T06:46:34Z</time>
      </trkpt>
      <trkpt lat="45.14615" lon="6.31842">
        <ele>2388.8</ele>
        <time>2021-02-28T06:46:35Z</time>
      </trkpt>
      <trkpt lat="45.14615" lon="6.31844">
        <ele>2389</ele>
        <time>2021-02-28T06:46:36Z</time>
      </trkpt>
      <trkpt lat="45.14615" lon="6.31844">
        <ele>2389.2</ele>
        <time>2021-02-28T06:46:37Z</time>
      </trkpt>
      <trkpt lat="45.14615" lon="6.31844">
        <ele>2389.6</ele>
        <time>2021-02-28T06:46:38Z</time>
      </trkpt>
      <trkpt lat="45.14615" lon="6.31847">
        <ele>2389.6</ele>
        <time>2021-02-28T06:46:39Z</time>
      </trkpt>
      <trkpt lat="45.14615" lon="6.31847">
        <ele>2389.8</ele>
        <time>2021-02-28T06:46:40Z</time>
      </trkpt>
      <trkpt lat="45.14615" lon="6.31847">
        <ele>2389.4</ele>
        <time>2021-02-28T06:46:41Z</time>
      </trkpt>
      <trkpt lat="45.14615" lon="6.31847">
        <ele>2388.8</ele>
        <time>2021-02-28T06:46:42Z</time>
      </trkpt>
      <trkpt lat="45.14615" lon="6.3185">
        <ele>2388.8</ele>
        <time>2021-02-28T06:46:43Z</time>
      </trkpt>
      <trkpt lat="45.14615" lon="6.3185">
        <ele>2388.6</ele>
        <time>2021-02-28T06:46:44Z</time>
      </trkpt>
      <trkpt lat="45.14615" lon="6.3185">
        <ele>2388.6</ele>
        <time>2021-02-28T06:46:45Z</time>
      </trkpt>
      <trkpt lat="45.14615" lon="6.31853">
        <ele>2388.6</ele>
        <time>2021-02-28T06:46:46Z</time>
      </trkpt>
      <trkpt lat="45.14615" lon="6.31853">
        <ele>2388.4</ele>
        <time>2021-02-28T06:46:47Z</time>
      </trkpt>
      <trkpt lat="45.14616" lon="6.31857">
        <ele>2388.4</ele>
        <time>2021-02-28T06:46:48Z</time>
      </trkpt>
      <trkpt lat="45.14616" lon="6.31857">
        <ele>2387.8</ele>
        <time>2021-02-28T06:46:49Z</time>
      </trkpt>
      <trkpt lat="45.14615" lon="6.31862">
        <ele>2387.4</ele>
        <time>2021-02-28T06:46:50Z</time>
      </trkpt>
      <trkpt lat="45.14615" lon="6.31865">
        <ele>2386.2</ele>
        <time>2021-02-28T06:46:51Z</time>
      </trkpt>
      <trkpt lat="45.14615" lon="6.31865">
        <ele>2386.6</ele>
        <time>2021-02-28T06:46:52Z</time>
      </trkpt>
      <trkpt lat="45.14612" lon="6.31868">
        <ele>2386.4</ele>
        <time>2021-02-28T06:46:53Z</time>
      </trkpt>
      <trkpt lat="45.14612" lon="6.31868">
        <ele>2386.8</ele>
        <time>2021-02-28T06:46:54Z</time>
      </trkpt>
      <trkpt lat="45.14609" lon="6.3187">
        <ele>2386.6</ele>
        <time>2021-02-28T06:46:55Z</time>
      </trkpt>
      <trkpt lat="45.14609" lon="6.3187">
        <ele>2386.6</ele>
        <time>2021-02-28T06:46:56Z</time>
      </trkpt>
      <trkpt lat="45.14607" lon="6.3187">
        <ele>2386.8</ele>
        <time>2021-02-28T06:46:57Z</time>
      </trkpt>
      <trkpt lat="45.14607" lon="6.3187">
        <ele>2387</ele>
        <time>2021-02-28T06:46:58Z</time>
      </trkpt>
      <trkpt lat="45.14605" lon="6.31869">
        <ele>2387</ele>
        <time>2021-02-28T06:46:59Z</time>
      </trkpt>
      <trkpt lat="45.14605" lon="6.31869">
        <ele>2387.2</ele>
        <time>2021-02-28T06:47:00Z</time>
      </trkpt>
      <trkpt lat="45.14603" lon="6.31869">
        <ele>2387.6</ele>
        <time>2021-02-28T06:47:01Z</time>
      </trkpt>
      <trkpt lat="45.14603" lon="6.31869">
        <ele>2387.8</ele>
        <time>2021-02-28T06:47:02Z</time>
      </trkpt>
      <trkpt lat="45.14603" lon="6.31869">
        <ele>2387.6</ele>
        <time>2021-02-28T06:47:03Z</time>
      </trkpt>
      <trkpt lat="45.14601" lon="6.31869">
        <ele>2387.6</ele>
        <time>2021-02-28T06:47:04Z</time>
      </trkpt>
      <trkpt lat="45.14601" lon="6.31869">
        <ele>2388.2</ele>
        <time>2021-02-28T06:47:05Z</time>
      </trkpt>
      <trkpt lat="45.14601" lon="6.31869">
        <ele>2388.2</ele>
        <time>2021-02-28T06:47:06Z</time>
      </trkpt>
      <trkpt lat="45.14599" lon="6.31871">
        <ele>2388</ele>
        <time>2021-02-28T06:47:07Z</time>
      </trkpt>
      <trkpt lat="45.14599" lon="6.31871">
        <ele>2388.8</ele>
        <time>2021-02-28T06:47:08Z</time>
      </trkpt>
      <trkpt lat="45.14599" lon="6.31871">
        <ele>2388.6</ele>
        <time>2021-02-28T06:47:09Z</time>
      </trkpt>
      <trkpt lat="45.14598" lon="6.31873">
        <ele>2389.6</ele>
        <time>2021-02-28T06:47:10Z</time>
      </trkpt>
      <trkpt lat="45.14598" lon="6.31873">
        <ele>2389.6</ele>
        <time>2021-02-28T06:47:11Z</time>
      </trkpt>
      <trkpt lat="45.14598" lon="6.31873">
        <ele>2390.2</ele>
        <time>2021-02-28T06:47:12Z</time>
      </trkpt>
      <trkpt lat="45.14598" lon="6.31877">
        <ele>2391.2</ele>
        <time>2021-02-28T06:47:13Z</time>
      </trkpt>
      <trkpt lat="45.14598" lon="6.31877">
        <ele>2391</ele>
        <time>2021-02-28T06:47:14Z</time>
      </trkpt>
      <trkpt lat="45.14598" lon="6.31877">
        <ele>2391.4</ele>
        <time>2021-02-28T06:47:15Z</time>
      </trkpt>
      <trkpt lat="45.14598" lon="6.3188">
        <ele>2390.8</ele>
        <time>2021-02-28T06:47:16Z</time>
      </trkpt>
      <trkpt lat="45.14598" lon="6.3188">
        <ele>2391</ele>
        <time>2021-02-28T06:47:17Z</time>
      </trkpt>
      <trkpt lat="45.14599" lon="6.31884">
        <ele>2391.4</ele>
        <time>2021-02-28T06:47:18Z</time>
      </trkpt>
      <trkpt lat="45.14599" lon="6.31884">
        <ele>2392.2</ele>
        <time>2021-02-28T06:47:19Z</time>
      </trkpt>
      <trkpt lat="45.14599" lon="6.31884">
        <ele>2391</ele>
        <time>2021-02-28T06:47:20Z</time>
      </trkpt>
      <trkpt lat="45.146" lon="6.31887">
        <ele>2391.2</ele>
        <time>2021-02-28T06:47:21Z</time>
      </trkpt>
      <trkpt lat="45.146" lon="6.31887">
        <ele>2392</ele>
        <time>2021-02-28T06:47:22Z</time>
      </trkpt>
      <trkpt lat="45.146" lon="6.31887">
        <ele>2391.6</ele>
        <time>2021-02-28T06:47:23Z</time>
      </trkpt>
      <trkpt lat="45.146" lon="6.31891">
        <ele>2392.2</ele>
        <time>2021-02-28T06:47:24Z</time>
      </trkpt>
      <trkpt lat="45.146" lon="6.31891">
        <ele>2391.8</ele>
        <time>2021-02-28T06:47:25Z</time>
      </trkpt>
      <trkpt lat="45.146" lon="6.31891">
        <ele>2392.4</ele>
        <time>2021-02-28T06:47:26Z</time>
      </trkpt>
      <trkpt lat="45.146" lon="6.31895">
        <ele>2392.8</ele>
        <time>2021-02-28T06:47:27Z</time>
      </trkpt>
      <trkpt lat="45.146" lon="6.31895">
        <ele>2392.8</ele>
        <time>2021-02-28T06:47:28Z</time>
      </trkpt>
      <trkpt lat="45.146" lon="6.31897">
        <ele>2393</ele>
        <time>2021-02-28T06:47:29Z</time>
      </trkpt>
      <trkpt lat="45.146" lon="6.31897">
        <ele>2393.6</ele>
        <time>2021-02-28T06:47:30Z</time>
      </trkpt>
      <trkpt lat="45.14599" lon="6.319">
        <ele>2391.8</ele>
        <time>2021-02-28T06:47:31Z</time>
      </trkpt>
      <trkpt lat="45.14599" lon="6.319">
        <ele>2392.6</ele>
        <time>2021-02-28T06:47:32Z</time>
      </trkpt>
      <trkpt lat="45.14599" lon="6.319">
        <ele>2392.6</ele>
        <time>2021-02-28T06:47:33Z</time>
      </trkpt>
      <trkpt lat="45.14599" lon="6.31904">
        <ele>2392.6</ele>
        <time>2021-02-28T06:47:34Z</time>
      </trkpt>
      <trkpt lat="45.14599" lon="6.31904">
        <ele>2392.8</ele>
        <time>2021-02-28T06:47:35Z</time>
      </trkpt>
      <trkpt lat="45.14598" lon="6.31907">
        <ele>2393.6</ele>
        <time>2021-02-28T06:47:36Z</time>
      </trkpt>
      <trkpt lat="45.14598" lon="6.31907">
        <ele>2394.2</ele>
        <time>2021-02-28T06:47:37Z</time>
      </trkpt>
      <trkpt lat="45.14598" lon="6.3191">
        <ele>2394.6</ele>
        <time>2021-02-28T06:47:38Z</time>
      </trkpt>
      <trkpt lat="45.14598" lon="6.3191">
        <ele>2395.2</ele>
        <time>2021-02-28T06:47:39Z</time>
      </trkpt>
      <trkpt lat="45.14598" lon="6.31913">
        <ele>2395.6</ele>
        <time>2021-02-28T06:47:40Z</time>
      </trkpt>
      <trkpt lat="45.14598" lon="6.31913">
        <ele>2396</ele>
        <time>2021-02-28T06:47:41Z</time>
      </trkpt>
      <trkpt lat="45.14597" lon="6.31916">
        <ele>2395.8</ele>
        <time>2021-02-28T06:47:42Z</time>
      </trkpt>
      <trkpt lat="45.14597" lon="6.31916">
        <ele>2395.6</ele>
        <time>2021-02-28T06:47:43Z</time>
      </trkpt>
      <trkpt lat="45.14597" lon="6.31918">
        <ele>2396</ele>
        <time>2021-02-28T06:47:44Z</time>
      </trkpt>
      <trkpt lat="45.14597" lon="6.31918">
        <ele>2395.4</ele>
        <time>2021-02-28T06:47:45Z</time>
      </trkpt>
      <trkpt lat="45.14597" lon="6.31922">
        <ele>2395.8</ele>
        <time>2021-02-28T06:47:46Z</time>
      </trkpt>
      <trkpt lat="45.14597" lon="6.31922">
        <ele>2396.4</ele>
        <time>2021-02-28T06:47:47Z</time>
      </trkpt>
      <trkpt lat="45.14596" lon="6.31925">
        <ele>2397</ele>
        <time>2021-02-28T06:47:48Z</time>
      </trkpt>
      <trkpt lat="45.14596" lon="6.31925">
        <ele>2397.4</ele>
        <time>2021-02-28T06:47:49Z</time>
      </trkpt>
      <trkpt lat="45.14596" lon="6.31928">
        <ele>2396.6</ele>
        <time>2021-02-28T06:47:50Z</time>
      </trkpt>
      <trkpt lat="45.14596" lon="6.31928">
        <ele>2397.2</ele>
        <time>2021-02-28T06:47:51Z</time>
      </trkpt>
      <trkpt lat="45.14596" lon="6.31931">
        <ele>2397.8</ele>
        <time>2021-02-28T06:47:52Z</time>
      </trkpt>
      <trkpt lat="45.14596" lon="6.31931">
        <ele>2397</ele>
        <time>2021-02-28T06:47:53Z</time>
      </trkpt>
      <trkpt lat="45.14596" lon="6.31934">
        <ele>2396.8</ele>
        <time>2021-02-28T06:47:54Z</time>
      </trkpt>
      <trkpt lat="45.14596" lon="6.31934">
        <ele>2397.2</ele>
        <time>2021-02-28T06:47:55Z</time>
      </trkpt>
      <trkpt lat="45.14595" lon="6.31937">
        <ele>2397.6</ele>
        <time>2021-02-28T06:47:56Z</time>
      </trkpt>
      <trkpt lat="45.14595" lon="6.31937">
        <ele>2399</ele>
        <time>2021-02-28T06:47:57Z</time>
      </trkpt>
      <trkpt lat="45.14595" lon="6.3194">
        <ele>2399</ele>
        <time>2021-02-28T06:47:58Z</time>
      </trkpt>
      <trkpt lat="45.14595" lon="6.3194">
        <ele>2399.8</ele>
        <time>2021-02-28T06:47:59Z</time>
      </trkpt>
      <trkpt lat="45.14594" lon="6.31943">
        <ele>2400.4</ele>
        <time>2021-02-28T06:48:00Z</time>
      </trkpt>
      <trkpt lat="45.14594" lon="6.31943">
        <ele>2400.2</ele>
        <time>2021-02-28T06:48:01Z</time>
      </trkpt>
      <trkpt lat="45.14594" lon="6.31946">
        <ele>2400.2</ele>
        <time>2021-02-28T06:48:02Z</time>
      </trkpt>
      <trkpt lat="45.14594" lon="6.31946">
        <ele>2400.4</ele>
        <time>2021-02-28T06:48:03Z</time>
      </trkpt>
      <trkpt lat="45.14594" lon="6.31949">
        <ele>2400.4</ele>
        <time>2021-02-28T06:48:04Z</time>
      </trkpt>
      <trkpt lat="45.14594" lon="6.31949">
        <ele>2401</ele>
        <time>2021-02-28T06:48:05Z</time>
      </trkpt>
      <trkpt lat="45.14594" lon="6.31952">
        <ele>2400.4</ele>
        <time>2021-02-28T06:48:06Z</time>
      </trkpt>
      <trkpt lat="45.14594" lon="6.31952">
        <ele>2401</ele>
        <time>2021-02-28T06:48:07Z</time>
      </trkpt>
      <trkpt lat="45.14593" lon="6.31955">
        <ele>2401.2</ele>
        <time>2021-02-28T06:48:08Z</time>
      </trkpt>
      <trkpt lat="45.14593" lon="6.31955">
        <ele>2400.8</ele>
        <time>2021-02-28T06:48:09Z</time>
      </trkpt>
      <trkpt lat="45.14593" lon="6.31958">
        <ele>2401</ele>
        <time>2021-02-28T06:48:10Z</time>
      </trkpt>
      <trkpt lat="45.14593" lon="6.31958">
        <ele>2401.6</ele>
        <time>2021-02-28T06:48:11Z</time>
      </trkpt>
      <trkpt lat="45.14593" lon="6.3196">
        <ele>2402</ele>
        <time>2021-02-28T06:48:12Z</time>
      </trkpt>
      <trkpt lat="45.14593" lon="6.3196">
        <ele>2401.2</ele>
        <time>2021-02-28T06:48:13Z</time>
      </trkpt>
      <trkpt lat="45.14593" lon="6.31963">
        <ele>2401.2</ele>
        <time>2021-02-28T06:48:14Z</time>
      </trkpt>
      <trkpt lat="45.14593" lon="6.31963">
        <ele>2402</ele>
        <time>2021-02-28T06:48:15Z</time>
      </trkpt>
      <trkpt lat="45.14593" lon="6.31966">
        <ele>2401.4</ele>
        <time>2021-02-28T06:48:16Z</time>
      </trkpt>
      <trkpt lat="45.14593" lon="6.31966">
        <ele>2401.8</ele>
        <time>2021-02-28T06:48:17Z</time>
      </trkpt>
      <trkpt lat="45.14593" lon="6.31969">
        <ele>2402</ele>
        <time>2021-02-28T06:48:18Z</time>
      </trkpt>
      <trkpt lat="45.14593" lon="6.31969">
        <ele>2402.4</ele>
        <time>2021-02-28T06:48:19Z</time>
      </trkpt>
      <trkpt lat="45.14592" lon="6.31972">
        <ele>2402.6</ele>
        <time>2021-02-28T06:48:20Z</time>
      </trkpt>
      <trkpt lat="45.14592" lon="6.31972">
        <ele>2402</ele>
        <time>2021-02-28T06:48:21Z</time>
      </trkpt>
      <trkpt lat="45.14592" lon="6.31975">
        <ele>2402</ele>
        <time>2021-02-28T06:48:22Z</time>
      </trkpt>
      <trkpt lat="45.14592" lon="6.31975">
        <ele>2402.4</ele>
        <time>2021-02-28T06:48:23Z</time>
      </trkpt>
      <trkpt lat="45.14592" lon="6.31978">
        <ele>2401.6</ele>
        <time>2021-02-28T06:48:24Z</time>
      </trkpt>
      <trkpt lat="45.14592" lon="6.31978">
        <ele>2402.4</ele>
        <time>2021-02-28T06:48:25Z</time>
      </trkpt>
      <trkpt lat="45.14592" lon="6.31981">
        <ele>2402.8</ele>
        <time>2021-02-28T06:48:26Z</time>
      </trkpt>
      <trkpt lat="45.14592" lon="6.31981">
        <ele>2404</ele>
        <time>2021-02-28T06:48:27Z</time>
      </trkpt>
      <trkpt lat="45.14592" lon="6.31984">
        <ele>2405.4</ele>
        <time>2021-02-28T06:48:28Z</time>
      </trkpt>
      <trkpt lat="45.14592" lon="6.31984">
        <ele>2405.2</ele>
        <time>2021-02-28T06:48:29Z</time>
      </trkpt>
      <trkpt lat="45.14592" lon="6.31987">
        <ele>2406.2</ele>
        <time>2021-02-28T06:48:30Z</time>
      </trkpt>
      <trkpt lat="45.14592" lon="6.31987">
        <ele>2407</ele>
        <time>2021-02-28T06:48:31Z</time>
      </trkpt>
      <trkpt lat="45.14592" lon="6.3199">
        <ele>2406.2</ele>
        <time>2021-02-28T06:48:32Z</time>
      </trkpt>
      <trkpt lat="45.14592" lon="6.3199">
        <ele>2406.2</ele>
        <time>2021-02-28T06:48:33Z</time>
      </trkpt>
      <trkpt lat="45.14592" lon="6.31993">
        <ele>2406.8</ele>
        <time>2021-02-28T06:48:34Z</time>
      </trkpt>
      <trkpt lat="45.14592" lon="6.31993">
        <ele>2406.2</ele>
        <time>2021-02-28T06:48:35Z</time>
      </trkpt>
      <trkpt lat="45.14591" lon="6.31996">
        <ele>2406.6</ele>
        <time>2021-02-28T06:48:36Z</time>
      </trkpt>
      <trkpt lat="45.14591" lon="6.31996">
        <ele>2406.8</ele>
        <time>2021-02-28T06:48:37Z</time>
      </trkpt>
      <trkpt lat="45.14591" lon="6.32">
        <ele>2406.6</ele>
        <time>2021-02-28T06:48:38Z</time>
      </trkpt>
      <trkpt lat="45.14591" lon="6.32">
        <ele>2406.2</ele>
        <time>2021-02-28T06:48:39Z</time>
      </trkpt>
      <trkpt lat="45.14591" lon="6.32003">
        <ele>2406</ele>
        <time>2021-02-28T06:48:40Z</time>
      </trkpt>
      <trkpt lat="45.14591" lon="6.32003">
        <ele>2405</ele>
        <time>2021-02-28T06:48:41Z</time>
      </trkpt>
      <trkpt lat="45.14591" lon="6.32007">
        <ele>2405.6</ele>
        <time>2021-02-28T06:48:42Z</time>
      </trkpt>
      <trkpt lat="45.14591" lon="6.32007">
        <ele>2406</ele>
        <time>2021-02-28T06:48:43Z</time>
      </trkpt>
      <trkpt lat="45.1459" lon="6.32009">
        <ele>2405.2</ele>
        <time>2021-02-28T06:48:44Z</time>
      </trkpt>
      <trkpt lat="45.1459" lon="6.32009">
        <ele>2405.4</ele>
        <time>2021-02-28T06:48:45Z</time>
      </trkpt>
      <trkpt lat="45.1459" lon="6.32009">
        <ele>2406.2</ele>
        <time>2021-02-28T06:48:46Z</time>
      </trkpt>
      <trkpt lat="45.1459" lon="6.32013">
        <ele>2406</ele>
        <time>2021-02-28T06:48:47Z</time>
      </trkpt>
      <trkpt lat="45.1459" lon="6.32013">
        <ele>2406.4</ele>
        <time>2021-02-28T06:48:48Z</time>
      </trkpt>
      <trkpt lat="45.1459" lon="6.32013">
        <ele>2406.2</ele>
        <time>2021-02-28T06:48:49Z</time>
      </trkpt>
      <trkpt lat="45.1459" lon="6.32016">
        <ele>2406.6</ele>
        <time>2021-02-28T06:48:50Z</time>
      </trkpt>
      <trkpt lat="45.1459" lon="6.32016">
        <ele>2407</ele>
        <time>2021-02-28T06:48:51Z</time>
      </trkpt>
      <trkpt lat="45.14589" lon="6.32018">
        <ele>2407.2</ele>
        <time>2021-02-28T06:48:52Z</time>
      </trkpt>
      <trkpt lat="45.14589" lon="6.32018">
        <ele>2407.4</ele>
        <time>2021-02-28T06:48:53Z</time>
      </trkpt>
      <trkpt lat="45.14589" lon="6.32018">
        <ele>2407.6</ele>
        <time>2021-02-28T06:48:54Z</time>
      </trkpt>
      <trkpt lat="45.14589" lon="6.32022">
        <ele>2407.6</ele>
        <time>2021-02-28T06:48:55Z</time>
      </trkpt>
      <trkpt lat="45.14589" lon="6.32022">
        <ele>2408.8</ele>
        <time>2021-02-28T06:48:56Z</time>
      </trkpt>
      <trkpt lat="45.14589" lon="6.32024">
        <ele>2409.8</ele>
        <time>2021-02-28T06:48:57Z</time>
      </trkpt>
      <trkpt lat="45.14589" lon="6.32024">
        <ele>2410.6</ele>
        <time>2021-02-28T06:48:58Z</time>
      </trkpt>
      <trkpt lat="45.14589" lon="6.32027">
        <ele>2411.4</ele>
        <time>2021-02-28T06:48:59Z</time>
      </trkpt>
      <trkpt lat="45.14589" lon="6.32027">
        <ele>2411.8</ele>
        <time>2021-02-28T06:49:00Z</time>
      </trkpt>
      <trkpt lat="45.14589" lon="6.32027">
        <ele>2411.2</ele>
        <time>2021-02-28T06:49:01Z</time>
      </trkpt>
      <trkpt lat="45.14589" lon="6.32031">
        <ele>2408.8</ele>
        <time>2021-02-28T06:49:02Z</time>
      </trkpt>
      <trkpt lat="45.14589" lon="6.32031">
        <ele>2409.4</ele>
        <time>2021-02-28T06:49:03Z</time>
      </trkpt>
      <trkpt lat="45.1459" lon="6.32034">
        <ele>2410.2</ele>
        <time>2021-02-28T06:49:04Z</time>
      </trkpt>
      <trkpt lat="45.1459" lon="6.32034">
        <ele>2410.8</ele>
        <time>2021-02-28T06:49:05Z</time>
      </trkpt>
      <trkpt lat="45.1459" lon="6.32037">
        <ele>2411.4</ele>
        <time>2021-02-28T06:49:06Z</time>
      </trkpt>
      <trkpt lat="45.1459" lon="6.32037">
        <ele>2411.2</ele>
        <time>2021-02-28T06:49:07Z</time>
      </trkpt>
      <trkpt lat="45.1459" lon="6.3204">
        <ele>2411.2</ele>
        <time>2021-02-28T06:49:08Z</time>
      </trkpt>
      <trkpt lat="45.1459" lon="6.3204">
        <ele>2410</ele>
        <time>2021-02-28T06:49:09Z</time>
      </trkpt>
      <trkpt lat="45.1459" lon="6.32043">
        <ele>2407.8</ele>
        <time>2021-02-28T06:49:10Z</time>
      </trkpt>
      <trkpt lat="45.1459" lon="6.32043">
        <ele>2409.4</ele>
        <time>2021-02-28T06:49:11Z</time>
      </trkpt>
      <trkpt lat="45.1459" lon="6.32047">
        <ele>2410.8</ele>
        <time>2021-02-28T06:49:12Z</time>
      </trkpt>
      <trkpt lat="45.1459" lon="6.32047">
        <ele>2411.8</ele>
        <time>2021-02-28T06:49:13Z</time>
      </trkpt>
      <trkpt lat="45.1459" lon="6.3205">
        <ele>2412.4</ele>
        <time>2021-02-28T06:49:14Z</time>
      </trkpt>
      <trkpt lat="45.1459" lon="6.3205">
        <ele>2412</ele>
        <time>2021-02-28T06:49:15Z</time>
      </trkpt>
      <trkpt lat="45.14589" lon="6.32053">
        <ele>2412.4</ele>
        <time>2021-02-28T06:49:16Z</time>
      </trkpt>
      <trkpt lat="45.14589" lon="6.32053">
        <ele>2412</ele>
        <time>2021-02-28T06:49:17Z</time>
      </trkpt>
      <trkpt lat="45.14589" lon="6.32056">
        <ele>2411.6</ele>
        <time>2021-02-28T06:49:18Z</time>
      </trkpt>
      <trkpt lat="45.14589" lon="6.32056">
        <ele>2411.2</ele>
        <time>2021-02-28T06:49:19Z</time>
      </trkpt>
      <trkpt lat="45.14589" lon="6.3206">
        <ele>2411</ele>
        <time>2021-02-28T06:49:20Z</time>
      </trkpt>
      <trkpt lat="45.14589" lon="6.3206">
        <ele>2411.4</ele>
        <time>2021-02-28T06:49:21Z</time>
      </trkpt>
      <trkpt lat="45.14589" lon="6.32063">
        <ele>2411.8</ele>
        <time>2021-02-28T06:49:22Z</time>
      </trkpt>
      <trkpt lat="45.14589" lon="6.32063">
        <ele>2412</ele>
        <time>2021-02-28T06:49:23Z</time>
      </trkpt>
      <trkpt lat="45.14589" lon="6.32063">
        <ele>2410.6</ele>
        <time>2021-02-28T06:49:24Z</time>
      </trkpt>
      <trkpt lat="45.14589" lon="6.32067">
        <ele>2410.6</ele>
        <time>2021-02-28T06:49:25Z</time>
      </trkpt>
      <trkpt lat="45.14589" lon="6.32067">
        <ele>2411.2</ele>
        <time>2021-02-28T06:49:26Z</time>
      </trkpt>
      <trkpt lat="45.14589" lon="6.3207">
        <ele>2411.6</ele>
        <time>2021-02-28T06:49:27Z</time>
      </trkpt>
      <trkpt lat="45.14589" lon="6.3207">
        <ele>2410</ele>
        <time>2021-02-28T06:49:28Z</time>
      </trkpt>
      <trkpt lat="45.14589" lon="6.32073">
        <ele>2410.8</ele>
        <time>2021-02-28T06:49:29Z</time>
      </trkpt>
      <trkpt lat="45.14589" lon="6.32073">
        <ele>2411.4</ele>
        <time>2021-02-28T06:49:30Z</time>
      </trkpt>
      <trkpt lat="45.1459" lon="6.32076">
        <ele>2412.4</ele>
        <time>2021-02-28T06:49:31Z</time>
      </trkpt>
      <trkpt lat="45.1459" lon="6.32076">
        <ele>2412.2</ele>
        <time>2021-02-28T06:49:32Z</time>
      </trkpt>
      <trkpt lat="45.1459" lon="6.32079">
        <ele>2411.6</ele>
        <time>2021-02-28T06:49:33Z</time>
      </trkpt>
      <trkpt lat="45.1459" lon="6.32079">
        <ele>2412.6</ele>
        <time>2021-02-28T06:49:34Z</time>
      </trkpt>
      <trkpt lat="45.1459" lon="6.32082">
        <ele>2411.6</ele>
        <time>2021-02-28T06:49:35Z</time>
      </trkpt>
      <trkpt lat="45.1459" lon="6.32082">
        <ele>2412.2</ele>
        <time>2021-02-28T06:49:36Z</time>
      </trkpt>
      <trkpt lat="45.14591" lon="6.32086">
        <ele>2413</ele>
        <time>2021-02-28T06:49:37Z</time>
      </trkpt>
      <trkpt lat="45.14591" lon="6.32086">
        <ele>2413.2</ele>
        <time>2021-02-28T06:49:38Z</time>
      </trkpt>
      <trkpt lat="45.14591" lon="6.32089">
        <ele>2413.6</ele>
        <time>2021-02-28T06:49:39Z</time>
      </trkpt>
      <trkpt lat="45.14591" lon="6.32089">
        <ele>2412.4</ele>
        <time>2021-02-28T06:49:40Z</time>
      </trkpt>
      <trkpt lat="45.14591" lon="6.32092">
        <ele>2411.8</ele>
        <time>2021-02-28T06:49:41Z</time>
      </trkpt>
      <trkpt lat="45.14591" lon="6.32092">
        <ele>2412.6</ele>
        <time>2021-02-28T06:49:42Z</time>
      </trkpt>
      <trkpt lat="45.14592" lon="6.32095">
        <ele>2413.6</ele>
        <time>2021-02-28T06:49:43Z</time>
      </trkpt>
      <trkpt lat="45.14592" lon="6.32095">
        <ele>2413.2</ele>
        <time>2021-02-28T06:49:44Z</time>
      </trkpt>
      <trkpt lat="45.14592" lon="6.32099">
        <ele>2413.2</ele>
        <time>2021-02-28T06:49:45Z</time>
      </trkpt>
      <trkpt lat="45.14592" lon="6.32099">
        <ele>2414</ele>
        <time>2021-02-28T06:49:46Z</time>
      </trkpt>
      <trkpt lat="45.14592" lon="6.32102">
        <ele>2414</ele>
        <time>2021-02-28T06:49:47Z</time>
      </trkpt>
      <trkpt lat="45.14592" lon="6.32102">
        <ele>2414.8</ele>
        <time>2021-02-28T06:49:48Z</time>
      </trkpt>
      <trkpt lat="45.14592" lon="6.32105">
        <ele>2415</ele>
        <time>2021-02-28T06:49:49Z</time>
      </trkpt>
      <trkpt lat="45.14592" lon="6.32105">
        <ele>2414.8</ele>
        <time>2021-02-28T06:49:50Z</time>
      </trkpt>
      <trkpt lat="45.14593" lon="6.32108">
        <ele>2415.2</ele>
        <time>2021-02-28T06:49:51Z</time>
      </trkpt>
      <trkpt lat="45.14593" lon="6.32108">
        <ele>2414.2</ele>
        <time>2021-02-28T06:49:52Z</time>
      </trkpt>
      <trkpt lat="45.14593" lon="6.32112">
        <ele>2414.8</ele>
        <time>2021-02-28T06:49:53Z</time>
      </trkpt>
      <trkpt lat="45.14593" lon="6.32112">
        <ele>2415.4</ele>
        <time>2021-02-28T06:49:54Z</time>
      </trkpt>
      <trkpt lat="45.14593" lon="6.32116">
        <ele>2415.6</ele>
        <time>2021-02-28T06:49:55Z</time>
      </trkpt>
      <trkpt lat="45.14593" lon="6.32116">
        <ele>2416.2</ele>
        <time>2021-02-28T06:49:56Z</time>
      </trkpt>
      <trkpt lat="45.14593" lon="6.32119">
        <ele>2415.6</ele>
        <time>2021-02-28T06:49:57Z</time>
      </trkpt>
      <trkpt lat="45.14593" lon="6.32119">
        <ele>2414.8</ele>
        <time>2021-02-28T06:49:58Z</time>
      </trkpt>
      <trkpt lat="45.14593" lon="6.32123">
        <ele>2415.4</ele>
        <time>2021-02-28T06:49:59Z</time>
      </trkpt>
      <trkpt lat="45.14593" lon="6.32123">
        <ele>2415.4</ele>
        <time>2021-02-28T06:50:00Z</time>
      </trkpt>
      <trkpt lat="45.14593" lon="6.32126">
        <ele>2415.4</ele>
        <time>2021-02-28T06:50:01Z</time>
      </trkpt>
      <trkpt lat="45.14593" lon="6.32126">
        <ele>2415.6</ele>
        <time>2021-02-28T06:50:02Z</time>
      </trkpt>
      <trkpt lat="45.14593" lon="6.3213">
        <ele>2416.2</ele>
        <time>2021-02-28T06:50:03Z</time>
      </trkpt>
      <trkpt lat="45.14593" lon="6.3213">
        <ele>2416.2</ele>
        <time>2021-02-28T06:50:04Z</time>
      </trkpt>
      <trkpt lat="45.14594" lon="6.32133">
        <ele>2416.8</ele>
        <time>2021-02-28T06:50:05Z</time>
      </trkpt>
      <trkpt lat="45.14594" lon="6.32133">
        <ele>2415.6</ele>
        <time>2021-02-28T06:50:06Z</time>
      </trkpt>
      <trkpt lat="45.14594" lon="6.32137">
        <ele>2415.2</ele>
        <time>2021-02-28T06:50:07Z</time>
      </trkpt>
      <trkpt lat="45.14594" lon="6.32137">
        <ele>2416</ele>
        <time>2021-02-28T06:50:08Z</time>
      </trkpt>
      <trkpt lat="45.14594" lon="6.32139">
        <ele>2416.4</ele>
        <time>2021-02-28T06:50:09Z</time>
      </trkpt>
      <trkpt lat="45.14594" lon="6.32139">
        <ele>2416.8</ele>
        <time>2021-02-28T06:50:10Z</time>
      </trkpt>
      <trkpt lat="45.14595" lon="6.32142">
        <ele>2417.2</ele>
        <time>2021-02-28T06:50:11Z</time>
      </trkpt>
      <trkpt lat="45.14595" lon="6.32142">
        <ele>2417.2</ele>
        <time>2021-02-28T06:50:12Z</time>
      </trkpt>
      <trkpt lat="45.14596" lon="6.32145">
        <ele>2417.6</ele>
        <time>2021-02-28T06:50:13Z</time>
      </trkpt>
      <trkpt lat="45.14596" lon="6.32145">
        <ele>2417.6</ele>
        <time>2021-02-28T06:50:14Z</time>
      </trkpt>
      <trkpt lat="45.14597" lon="6.32147">
        <ele>2417.4</ele>
        <time>2021-02-28T06:50:15Z</time>
      </trkpt>
      <trkpt lat="45.14597" lon="6.32147">
        <ele>2417.4</ele>
        <time>2021-02-28T06:50:16Z</time>
      </trkpt>
      <trkpt lat="45.14599" lon="6.32149">
        <ele>2417.8</ele>
        <time>2021-02-28T06:50:17Z</time>
      </trkpt>
      <trkpt lat="45.14599" lon="6.32149">
        <ele>2418</ele>
        <time>2021-02-28T06:50:18Z</time>
      </trkpt>
      <trkpt lat="45.146" lon="6.3215">
        <ele>2418</ele>
        <time>2021-02-28T06:50:19Z</time>
      </trkpt>
      <trkpt lat="45.146" lon="6.3215">
        <ele>2418.6</ele>
        <time>2021-02-28T06:50:20Z</time>
      </trkpt>
      <trkpt lat="45.14601" lon="6.32152">
        <ele>2418.4</ele>
        <time>2021-02-28T06:50:21Z</time>
      </trkpt>
      <trkpt lat="45.14601" lon="6.32152">
        <ele>2418.6</ele>
        <time>2021-02-28T06:50:22Z</time>
      </trkpt>
      <trkpt lat="45.14601" lon="6.32152">
        <ele>2419</ele>
        <time>2021-02-28T06:50:23Z</time>
      </trkpt>
      <trkpt lat="45.14603" lon="6.32154">
        <ele>2419.2</ele>
        <time>2021-02-28T06:50:24Z</time>
      </trkpt>
      <trkpt lat="45.14603" lon="6.32154">
        <ele>2419.4</ele>
        <time>2021-02-28T06:50:25Z</time>
      </trkpt>
      <trkpt lat="45.14603" lon="6.32154">
        <ele>2420</ele>
        <time>2021-02-28T06:50:26Z</time>
      </trkpt>
      <trkpt lat="45.14605" lon="6.32156">
        <ele>2420.4</ele>
        <time>2021-02-28T06:50:27Z</time>
      </trkpt>
      <trkpt lat="45.14605" lon="6.32156">
        <ele>2420.6</ele>
        <time>2021-02-28T06:50:28Z</time>
      </trkpt>
      <trkpt lat="45.14605" lon="6.32156">
        <ele>2420.6</ele>
        <time>2021-02-28T06:50:29Z</time>
      </trkpt>
      <trkpt lat="45.14607" lon="6.32158">
        <ele>2421.2</ele>
        <time>2021-02-28T06:50:30Z</time>
      </trkpt>
      <trkpt lat="45.14607" lon="6.32158">
        <ele>2420.8</ele>
        <time>2021-02-28T06:50:31Z</time>
      </trkpt>
      <trkpt lat="45.14609" lon="6.32159">
        <ele>2421.4</ele>
        <time>2021-02-28T06:50:32Z</time>
      </trkpt>
      <trkpt lat="45.14609" lon="6.32159">
        <ele>2421.6</ele>
        <time>2021-02-28T06:50:33Z</time>
      </trkpt>
      <trkpt lat="45.1461" lon="6.32161">
        <ele>2422</ele>
        <time>2021-02-28T06:50:34Z</time>
      </trkpt>
      <trkpt lat="45.1461" lon="6.32161">
        <ele>2422.2</ele>
        <time>2021-02-28T06:50:35Z</time>
      </trkpt>
      <trkpt lat="45.1461" lon="6.32161">
        <ele>2422.4</ele>
        <time>2021-02-28T06:50:36Z</time>
      </trkpt>
      <trkpt lat="45.14612" lon="6.32163">
        <ele>2422.4</ele>
        <time>2021-02-28T06:50:37Z</time>
      </trkpt>
      <trkpt lat="45.14612" lon="6.32163">
        <ele>2422.4</ele>
        <time>2021-02-28T06:50:38Z</time>
      </trkpt>
      <trkpt lat="45.14614" lon="6.32165">
        <ele>2422.6</ele>
        <time>2021-02-28T06:50:39Z</time>
      </trkpt>
      <trkpt lat="45.14614" lon="6.32165">
        <ele>2422.8</ele>
        <time>2021-02-28T06:50:40Z</time>
      </trkpt>
      <trkpt lat="45.14614" lon="6.32165">
        <ele>2423.2</ele>
        <time>2021-02-28T06:50:41Z</time>
      </trkpt>
      <trkpt lat="45.14615" lon="6.32167">
        <ele>2423.2</ele>
        <time>2021-02-28T06:50:42Z</time>
      </trkpt>
      <trkpt lat="45.14615" lon="6.32167">
        <ele>2422.8</ele>
        <time>2021-02-28T06:50:43Z</time>
      </trkpt>
      <trkpt lat="45.14615" lon="6.32167">
        <ele>2423.2</ele>
        <time>2021-02-28T06:50:44Z</time>
      </trkpt>
      <trkpt lat="45.14617" lon="6.32169">
        <ele>2423</ele>
        <time>2021-02-28T06:50:45Z</time>
      </trkpt>
      <trkpt lat="45.14617" lon="6.32169">
        <ele>2423.2</ele>
        <time>2021-02-28T06:50:46Z</time>
      </trkpt>
      <trkpt lat="45.14617" lon="6.32169">
        <ele>2423.2</ele>
        <time>2021-02-28T06:50:47Z</time>
      </trkpt>
      <trkpt lat="45.14617" lon="6.32169">
        <ele>2423.2</ele>
        <time>2021-02-28T06:50:48Z</time>
      </trkpt>
      <trkpt lat="45.14618" lon="6.32172">
        <ele>2423.2</ele>
        <time>2021-02-28T06:50:49Z</time>
      </trkpt>
      <trkpt lat="45.14618" lon="6.32172">
        <ele>2423</ele>
        <time>2021-02-28T06:50:50Z</time>
      </trkpt>
      <trkpt lat="45.14618" lon="6.32172">
        <ele>2422.2</ele>
        <time>2021-02-28T06:50:51Z</time>
      </trkpt>
      <trkpt lat="45.1462" lon="6.32175">
        <ele>2422.6</ele>
        <time>2021-02-28T06:50:52Z</time>
      </trkpt>
      <trkpt lat="45.1462" lon="6.32175">
        <ele>2422.8</ele>
        <time>2021-02-28T06:50:53Z</time>
      </trkpt>
      <trkpt lat="45.14621" lon="6.32178">
        <ele>2423</ele>
        <time>2021-02-28T06:50:54Z</time>
      </trkpt>
      <trkpt lat="45.14621" lon="6.32178">
        <ele>2422.8</ele>
        <time>2021-02-28T06:50:55Z</time>
      </trkpt>
      <trkpt lat="45.14622" lon="6.32181">
        <ele>2422.6</ele>
        <time>2021-02-28T06:50:56Z</time>
      </trkpt>
      <trkpt lat="45.14622" lon="6.32181">
        <ele>2422</ele>
        <time>2021-02-28T06:50:57Z</time>
      </trkpt>
      <trkpt lat="45.14623" lon="6.32183">
        <ele>2421.8</ele>
        <time>2021-02-28T06:50:58Z</time>
      </trkpt>
      <trkpt lat="45.14623" lon="6.32183">
        <ele>2421.6</ele>
        <time>2021-02-28T06:50:59Z</time>
      </trkpt>
      <trkpt lat="45.14624" lon="6.32186">
        <ele>2421.8</ele>
        <time>2021-02-28T06:51:00Z</time>
      </trkpt>
      <trkpt lat="45.14624" lon="6.32186">
        <ele>2421.8</ele>
        <time>2021-02-28T06:51:01Z</time>
      </trkpt>
      <trkpt lat="45.14625" lon="6.32189">
        <ele>2421.8</ele>
        <time>2021-02-28T06:51:02Z</time>
      </trkpt>
      <trkpt lat="45.14625" lon="6.32189">
        <ele>2422.4</ele>
        <time>2021-02-28T06:51:03Z</time>
      </trkpt>
      <trkpt lat="45.14627" lon="6.32192">
        <ele>2422.2</ele>
        <time>2021-02-28T06:51:04Z</time>
      </trkpt>
      <trkpt lat="45.14627" lon="6.32192">
        <ele>2422.4</ele>
        <time>2021-02-28T06:51:05Z</time>
      </trkpt>
      <trkpt lat="45.14628" lon="6.32196">
        <ele>2422.2</ele>
        <time>2021-02-28T06:51:06Z</time>
      </trkpt>
      <trkpt lat="45.14628" lon="6.32196">
        <ele>2422.2</ele>
        <time>2021-02-28T06:51:07Z</time>
      </trkpt>
      <trkpt lat="45.14629" lon="6.32199">
        <ele>2421.2</ele>
        <time>2021-02-28T06:51:08Z</time>
      </trkpt>
      <trkpt lat="45.14629" lon="6.32199">
        <ele>2421.2</ele>
        <time>2021-02-28T06:51:09Z</time>
      </trkpt>
      <trkpt lat="45.14627" lon="6.32203">
        <ele>2421.2</ele>
        <time>2021-02-28T06:51:10Z</time>
      </trkpt>
      <trkpt lat="45.14627" lon="6.32203">
        <ele>2421</ele>
        <time>2021-02-28T06:51:11Z</time>
      </trkpt>
      <trkpt lat="45.14625" lon="6.32205">
        <ele>2421.6</ele>
        <time>2021-02-28T06:51:12Z</time>
      </trkpt>
      <trkpt lat="45.14625" lon="6.32205">
        <ele>2421.4</ele>
        <time>2021-02-28T06:51:13Z</time>
      </trkpt>
      <trkpt lat="45.14622" lon="6.32207">
        <ele>2421.4</ele>
        <time>2021-02-28T06:51:14Z</time>
      </trkpt>
      <trkpt lat="45.14622" lon="6.32207">
        <ele>2421.8</ele>
        <time>2021-02-28T06:51:15Z</time>
      </trkpt>
      <trkpt lat="45.14621" lon="6.32208">
        <ele>2420.4</ele>
        <time>2021-02-28T06:51:16Z</time>
      </trkpt>
      <trkpt lat="45.14621" lon="6.32208">
        <ele>2420.4</ele>
        <time>2021-02-28T06:51:17Z</time>
      </trkpt>
      <trkpt lat="45.14621" lon="6.32208">
        <ele>2421</ele>
        <time>2021-02-28T06:51:18Z</time>
      </trkpt>
      <trkpt lat="45.14618" lon="6.32209">
        <ele>2420.2</ele>
        <time>2021-02-28T06:51:19Z</time>
      </trkpt>
      <trkpt lat="45.14618" lon="6.32209">
        <ele>2421.8</ele>
        <time>2021-02-28T06:51:20Z</time>
      </trkpt>
      <trkpt lat="45.14616" lon="6.32211">
        <ele>2422.2</ele>
        <time>2021-02-28T06:51:21Z</time>
      </trkpt>
      <trkpt lat="45.14616" lon="6.32211">
        <ele>2422.4</ele>
        <time>2021-02-28T06:51:22Z</time>
      </trkpt>
      <trkpt lat="45.14613" lon="6.32212">
        <ele>2422.8</ele>
        <time>2021-02-28T06:51:23Z</time>
      </trkpt>
      <trkpt lat="45.14613" lon="6.32212">
        <ele>2421.4</ele>
        <time>2021-02-28T06:51:24Z</time>
      </trkpt>
      <trkpt lat="45.14611" lon="6.32214">
        <ele>2421.4</ele>
        <time>2021-02-28T06:51:25Z</time>
      </trkpt>
      <trkpt lat="45.14611" lon="6.32214">
        <ele>2422</ele>
        <time>2021-02-28T06:51:26Z</time>
      </trkpt>
      <trkpt lat="45.1461" lon="6.32215">
        <ele>2422.6</ele>
        <time>2021-02-28T06:51:27Z</time>
      </trkpt>
      <trkpt lat="45.1461" lon="6.32215">
        <ele>2422</ele>
        <time>2021-02-28T06:51:28Z</time>
      </trkpt>
      <trkpt lat="45.14608" lon="6.32217">
        <ele>2422.2</ele>
        <time>2021-02-28T06:51:29Z</time>
      </trkpt>
      <trkpt lat="45.14608" lon="6.32217">
        <ele>2422.8</ele>
        <time>2021-02-28T06:51:30Z</time>
      </trkpt>
      <trkpt lat="45.14608" lon="6.32217">
        <ele>2422.4</ele>
        <time>2021-02-28T06:51:31Z</time>
      </trkpt>
      <trkpt lat="45.14607" lon="6.32219">
        <ele>2423.2</ele>
        <time>2021-02-28T06:51:32Z</time>
      </trkpt>
      <trkpt lat="45.14607" lon="6.32219">
        <ele>2423.6</ele>
        <time>2021-02-28T06:51:33Z</time>
      </trkpt>
      <trkpt lat="45.14607" lon="6.32219">
        <ele>2424.4</ele>
        <time>2021-02-28T06:51:34Z</time>
      </trkpt>
      <trkpt lat="45.14606" lon="6.32222">
        <ele>2423</ele>
        <time>2021-02-28T06:51:35Z</time>
      </trkpt>
      <trkpt lat="45.14606" lon="6.32222">
        <ele>2423.6</ele>
        <time>2021-02-28T06:51:36Z</time>
      </trkpt>
      <trkpt lat="45.14605" lon="6.32225">
        <ele>2424.6</ele>
        <time>2021-02-28T06:51:37Z</time>
      </trkpt>
      <trkpt lat="45.14605" lon="6.32225">
        <ele>2424.2</ele>
        <time>2021-02-28T06:51:38Z</time>
      </trkpt>
      <trkpt lat="45.14604" lon="6.32228">
        <ele>2425</ele>
        <time>2021-02-28T06:51:39Z</time>
      </trkpt>
      <trkpt lat="45.14604" lon="6.32228">
        <ele>2425.8</ele>
        <time>2021-02-28T06:51:40Z</time>
      </trkpt>
      <trkpt lat="45.14602" lon="6.32231">
        <ele>2426.2</ele>
        <time>2021-02-28T06:51:41Z</time>
      </trkpt>
      <trkpt lat="45.14602" lon="6.32231">
        <ele>2427</ele>
        <time>2021-02-28T06:51:42Z</time>
      </trkpt>
      <trkpt lat="45.14601" lon="6.32234">
        <ele>2427.2</ele>
        <time>2021-02-28T06:51:43Z</time>
      </trkpt>
      <trkpt lat="45.14601" lon="6.32234">
        <ele>2427.6</ele>
        <time>2021-02-28T06:51:44Z</time>
      </trkpt>
      <trkpt lat="45.146" lon="6.32237">
        <ele>2428.2</ele>
        <time>2021-02-28T06:51:45Z</time>
      </trkpt>
      <trkpt lat="45.146" lon="6.32237">
        <ele>2428.4</ele>
        <time>2021-02-28T06:51:46Z</time>
      </trkpt>
      <trkpt lat="45.14599" lon="6.32239">
        <ele>2427</ele>
        <time>2021-02-28T06:51:47Z</time>
      </trkpt>
      <trkpt lat="45.14599" lon="6.32239">
        <ele>2427.8</ele>
        <time>2021-02-28T06:51:48Z</time>
      </trkpt>
      <trkpt lat="45.14598" lon="6.32242">
        <ele>2428.6</ele>
        <time>2021-02-28T06:51:49Z</time>
      </trkpt>
      <trkpt lat="45.14598" lon="6.32242">
        <ele>2429.4</ele>
        <time>2021-02-28T06:51:50Z</time>
      </trkpt>
      <trkpt lat="45.14597" lon="6.32244">
        <ele>2428.6</ele>
        <time>2021-02-28T06:51:51Z</time>
      </trkpt>
      <trkpt lat="45.14597" lon="6.32244">
        <ele>2429.2</ele>
        <time>2021-02-28T06:51:52Z</time>
      </trkpt>
      <trkpt lat="45.14596" lon="6.32248">
        <ele>2429.8</ele>
        <time>2021-02-28T06:51:53Z</time>
      </trkpt>
      <trkpt lat="45.14596" lon="6.32248">
        <ele>2430.4</ele>
        <time>2021-02-28T06:51:54Z</time>
      </trkpt>
      <trkpt lat="45.14596" lon="6.3225">
        <ele>2430</ele>
        <time>2021-02-28T06:51:55Z</time>
      </trkpt>
      <trkpt lat="45.14596" lon="6.3225">
        <ele>2430.2</ele>
        <time>2021-02-28T06:51:56Z</time>
      </trkpt>
      <trkpt lat="45.14595" lon="6.32253">
        <ele>2430.8</ele>
        <time>2021-02-28T06:51:57Z</time>
      </trkpt>
      <trkpt lat="45.14595" lon="6.32253">
        <ele>2430.4</ele>
        <time>2021-02-28T06:51:58Z</time>
      </trkpt>
      <trkpt lat="45.14595" lon="6.32256">
        <ele>2430.8</ele>
        <time>2021-02-28T06:51:59Z</time>
      </trkpt>
      <trkpt lat="45.14595" lon="6.32256">
        <ele>2431.2</ele>
        <time>2021-02-28T06:52:00Z</time>
      </trkpt>
      <trkpt lat="45.14594" lon="6.32259">
        <ele>2431.6</ele>
        <time>2021-02-28T06:52:01Z</time>
      </trkpt>
      <trkpt lat="45.14594" lon="6.32259">
        <ele>2432.2</ele>
        <time>2021-02-28T06:52:02Z</time>
      </trkpt>
      <trkpt lat="45.14594" lon="6.32262">
        <ele>2431.8</ele>
        <time>2021-02-28T06:52:03Z</time>
      </trkpt>
      <trkpt lat="45.14594" lon="6.32262">
        <ele>2432.2</ele>
        <time>2021-02-28T06:52:04Z</time>
      </trkpt>
      <trkpt lat="45.14594" lon="6.32265">
        <ele>2432.8</ele>
        <time>2021-02-28T06:52:05Z</time>
      </trkpt>
      <trkpt lat="45.14594" lon="6.32265">
        <ele>2431.4</ele>
        <time>2021-02-28T06:52:06Z</time>
      </trkpt>
      <trkpt lat="45.14593" lon="6.32268">
        <ele>2432</ele>
        <time>2021-02-28T06:52:07Z</time>
      </trkpt>
      <trkpt lat="45.14593" lon="6.32268">
        <ele>2432.6</ele>
        <time>2021-02-28T06:52:08Z</time>
      </trkpt>
      <trkpt lat="45.14593" lon="6.3227">
        <ele>2432.6</ele>
        <time>2021-02-28T06:52:09Z</time>
      </trkpt>
      <trkpt lat="45.14593" lon="6.3227">
        <ele>2433.4</ele>
        <time>2021-02-28T06:52:10Z</time>
      </trkpt>
      <trkpt lat="45.14593" lon="6.32273">
        <ele>2433.4</ele>
        <time>2021-02-28T06:52:11Z</time>
      </trkpt>
      <trkpt lat="45.14593" lon="6.32273">
        <ele>2433.6</ele>
        <time>2021-02-28T06:52:12Z</time>
      </trkpt>
      <trkpt lat="45.14593" lon="6.32276">
        <ele>2434.2</ele>
        <time>2021-02-28T06:52:13Z</time>
      </trkpt>
      <trkpt lat="45.14593" lon="6.32276">
        <ele>2433.2</ele>
        <time>2021-02-28T06:52:14Z</time>
      </trkpt>
      <trkpt lat="45.14592" lon="6.32279">
        <ele>2433.6</ele>
        <time>2021-02-28T06:52:15Z</time>
      </trkpt>
      <trkpt lat="45.14592" lon="6.32279">
        <ele>2434.4</ele>
        <time>2021-02-28T06:52:16Z</time>
      </trkpt>
      <trkpt lat="45.14592" lon="6.32279">
        <ele>2433.4</ele>
        <time>2021-02-28T06:52:17Z</time>
      </trkpt>
      <trkpt lat="45.14592" lon="6.32282">
        <ele>2433.6</ele>
        <time>2021-02-28T06:52:18Z</time>
      </trkpt>
      <trkpt lat="45.14592" lon="6.32282">
        <ele>2434.6</ele>
        <time>2021-02-28T06:52:19Z</time>
      </trkpt>
      <trkpt lat="45.14592" lon="6.32285">
        <ele>2434.4</ele>
        <time>2021-02-28T06:52:20Z</time>
      </trkpt>
      <trkpt lat="45.14592" lon="6.32285">
        <ele>2434.8</ele>
        <time>2021-02-28T06:52:21Z</time>
      </trkpt>
      <trkpt lat="45.14591" lon="6.32288">
        <ele>2435.2</ele>
        <time>2021-02-28T06:52:22Z</time>
      </trkpt>
      <trkpt lat="45.14591" lon="6.32288">
        <ele>2435.4</ele>
        <time>2021-02-28T06:52:23Z</time>
      </trkpt>
      <trkpt lat="45.14591" lon="6.32291">
        <ele>2435</ele>
        <time>2021-02-28T06:52:24Z</time>
      </trkpt>
      <trkpt lat="45.14591" lon="6.32291">
        <ele>2435.8</ele>
        <time>2021-02-28T06:52:25Z</time>
      </trkpt>
      <trkpt lat="45.14591" lon="6.32294">
        <ele>2435.8</ele>
        <time>2021-02-28T06:52:26Z</time>
      </trkpt>
      <trkpt lat="45.14591" lon="6.32294">
        <ele>2436.2</ele>
        <time>2021-02-28T06:52:27Z</time>
      </trkpt>
      <trkpt lat="45.14591" lon="6.32297">
        <ele>2435.2</ele>
        <time>2021-02-28T06:52:28Z</time>
      </trkpt>
      <trkpt lat="45.14591" lon="6.32297">
        <ele>2436</ele>
        <time>2021-02-28T06:52:29Z</time>
      </trkpt>
      <trkpt lat="45.14591" lon="6.323">
        <ele>2436.4</ele>
        <time>2021-02-28T06:52:30Z</time>
      </trkpt>
      <trkpt lat="45.14591" lon="6.323">
        <ele>2436.8</ele>
        <time>2021-02-28T06:52:31Z</time>
      </trkpt>
      <trkpt lat="45.14591" lon="6.32304">
        <ele>2437.2</ele>
        <time>2021-02-28T06:52:32Z</time>
      </trkpt>
      <trkpt lat="45.14591" lon="6.32304">
        <ele>2436.2</ele>
        <time>2021-02-28T06:52:33Z</time>
      </trkpt>
      <trkpt lat="45.1459" lon="6.32307">
        <ele>2436.6</ele>
        <time>2021-02-28T06:52:34Z</time>
      </trkpt>
      <trkpt lat="45.1459" lon="6.32307">
        <ele>2437.2</ele>
        <time>2021-02-28T06:52:35Z</time>
      </trkpt>
      <trkpt lat="45.1459" lon="6.3231">
        <ele>2437.4</ele>
        <time>2021-02-28T06:52:36Z</time>
      </trkpt>
      <trkpt lat="45.1459" lon="6.3231">
        <ele>2438</ele>
        <time>2021-02-28T06:52:37Z</time>
      </trkpt>
      <trkpt lat="45.14589" lon="6.32313">
        <ele>2438.2</ele>
        <time>2021-02-28T06:52:38Z</time>
      </trkpt>
      <trkpt lat="45.14589" lon="6.32313">
        <ele>2438.4</ele>
        <time>2021-02-28T06:52:39Z</time>
      </trkpt>
      <trkpt lat="45.14589" lon="6.32316">
        <ele>2439</ele>
        <time>2021-02-28T06:52:40Z</time>
      </trkpt>
      <trkpt lat="45.14589" lon="6.32316">
        <ele>2437.2</ele>
        <time>2021-02-28T06:52:41Z</time>
      </trkpt>
      <trkpt lat="45.14589" lon="6.32319">
        <ele>2437.8</ele>
        <time>2021-02-28T06:52:42Z</time>
      </trkpt>
      <trkpt lat="45.14589" lon="6.32319">
        <ele>2438.4</ele>
        <time>2021-02-28T06:52:43Z</time>
      </trkpt>
      <trkpt lat="45.14589" lon="6.32319">
        <ele>2439.2</ele>
        <time>2021-02-28T06:52:44Z</time>
      </trkpt>
      <trkpt lat="45.14588" lon="6.32322">
        <ele>2439</ele>
        <time>2021-02-28T06:52:45Z</time>
      </trkpt>
      <trkpt lat="45.14588" lon="6.32322">
        <ele>2438.6</ele>
        <time>2021-02-28T06:52:46Z</time>
      </trkpt>
      <trkpt lat="45.14589" lon="6.32325">
        <ele>2439.4</ele>
        <time>2021-02-28T06:52:47Z</time>
      </trkpt>
      <trkpt lat="45.14589" lon="6.32325">
        <ele>2439.6</ele>
        <time>2021-02-28T06:52:48Z</time>
      </trkpt>
      <trkpt lat="45.14588" lon="6.32328">
        <ele>2439.6</ele>
        <time>2021-02-28T06:52:49Z</time>
      </trkpt>
      <trkpt lat="45.14588" lon="6.32328">
        <ele>2440.6</ele>
        <time>2021-02-28T06:52:50Z</time>
      </trkpt>
      <trkpt lat="45.14588" lon="6.32331">
        <ele>2440.4</ele>
        <time>2021-02-28T06:52:51Z</time>
      </trkpt>
      <trkpt lat="45.14588" lon="6.32331">
        <ele>2441.4</ele>
        <time>2021-02-28T06:52:52Z</time>
      </trkpt>
      <trkpt lat="45.14587" lon="6.32334">
        <ele>2440</ele>
        <time>2021-02-28T06:52:53Z</time>
      </trkpt>
      <trkpt lat="45.14587" lon="6.32334">
        <ele>2440.4</ele>
        <time>2021-02-28T06:52:54Z</time>
      </trkpt>
      <trkpt lat="45.14587" lon="6.32334">
        <ele>2441.4</ele>
        <time>2021-02-28T06:52:55Z</time>
      </trkpt>
      <trkpt lat="45.14587" lon="6.32338">
        <ele>2441</ele>
        <time>2021-02-28T06:52:56Z</time>
      </trkpt>
      <trkpt lat="45.14587" lon="6.32338">
        <ele>2441.2</ele>
        <time>2021-02-28T06:52:57Z</time>
      </trkpt>
      <trkpt lat="45.14587" lon="6.3234">
        <ele>2442.2</ele>
        <time>2021-02-28T06:52:58Z</time>
      </trkpt>
      <trkpt lat="45.14587" lon="6.3234">
        <ele>2442.2</ele>
        <time>2021-02-28T06:52:59Z</time>
      </trkpt>
      <trkpt lat="45.14587" lon="6.3234">
        <ele>2442.4</ele>
        <time>2021-02-28T06:53:00Z</time>
      </trkpt>
      <trkpt lat="45.14588" lon="6.32344">
        <ele>2442.6</ele>
        <time>2021-02-28T06:53:01Z</time>
      </trkpt>
      <trkpt lat="45.14588" lon="6.32344">
        <ele>2443</ele>
        <time>2021-02-28T06:53:02Z</time>
      </trkpt>
      <trkpt lat="45.14588" lon="6.32347">
        <ele>2443.2</ele>
        <time>2021-02-28T06:53:03Z</time>
      </trkpt>
      <trkpt lat="45.14588" lon="6.32347">
        <ele>2443.4</ele>
        <time>2021-02-28T06:53:04Z</time>
      </trkpt>
      <trkpt lat="45.14588" lon="6.3235">
        <ele>2444.2</ele>
        <time>2021-02-28T06:53:05Z</time>
      </trkpt>
      <trkpt lat="45.14588" lon="6.3235">
        <ele>2443.4</ele>
        <time>2021-02-28T06:53:06Z</time>
      </trkpt>
      <trkpt lat="45.14587" lon="6.32353">
        <ele>2443.8</ele>
        <time>2021-02-28T06:53:07Z</time>
      </trkpt>
      <trkpt lat="45.14587" lon="6.32353">
        <ele>2444.2</ele>
        <time>2021-02-28T06:53:08Z</time>
      </trkpt>
      <trkpt lat="45.14587" lon="6.32356">
        <ele>2444.4</ele>
        <time>2021-02-28T06:53:09Z</time>
      </trkpt>
      <trkpt lat="45.14587" lon="6.32356">
        <ele>2445.2</ele>
        <time>2021-02-28T06:53:10Z</time>
      </trkpt>
      <trkpt lat="45.14587" lon="6.32356">
        <ele>2445.6</ele>
        <time>2021-02-28T06:53:11Z</time>
      </trkpt>
      <trkpt lat="45.14587" lon="6.3236">
        <ele>2445.4</ele>
        <time>2021-02-28T06:53:12Z</time>
      </trkpt>
      <trkpt lat="45.14587" lon="6.3236">
        <ele>2445.6</ele>
        <time>2021-02-28T06:53:13Z</time>
      </trkpt>
      <trkpt lat="45.14587" lon="6.3236">
        <ele>2445.6</ele>
        <time>2021-02-28T06:53:14Z</time>
      </trkpt>
      <trkpt lat="45.14587" lon="6.32364">
        <ele>2446.4</ele>
        <time>2021-02-28T06:53:15Z</time>
      </trkpt>
      <trkpt lat="45.14587" lon="6.32364">
        <ele>2446.4</ele>
        <time>2021-02-28T06:53:16Z</time>
      </trkpt>
      <trkpt lat="45.14587" lon="6.32364">
        <ele>2446.6</ele>
        <time>2021-02-28T06:53:17Z</time>
      </trkpt>
      <trkpt lat="45.14588" lon="6.32367">
        <ele>2447</ele>
        <time>2021-02-28T06:53:18Z</time>
      </trkpt>
      <trkpt lat="45.14588" lon="6.32367">
        <ele>2447.8</ele>
        <time>2021-02-28T06:53:19Z</time>
      </trkpt>
      <trkpt lat="45.14589" lon="6.3237">
        <ele>2448.2</ele>
        <time>2021-02-28T06:53:20Z</time>
      </trkpt>
      <trkpt lat="45.14589" lon="6.3237">
        <ele>2448.8</ele>
        <time>2021-02-28T06:53:21Z</time>
      </trkpt>
      <trkpt lat="45.1459" lon="6.32372">
        <ele>2447.8</ele>
        <time>2021-02-28T06:53:22Z</time>
      </trkpt>
      <trkpt lat="45.1459" lon="6.32372">
        <ele>2448.8</ele>
        <time>2021-02-28T06:53:23Z</time>
      </trkpt>
      <trkpt lat="45.1459" lon="6.32372">
        <ele>2448</ele>
        <time>2021-02-28T06:53:24Z</time>
      </trkpt>
      <trkpt lat="45.1459" lon="6.32376">
        <ele>2448</ele>
        <time>2021-02-28T06:53:25Z</time>
      </trkpt>
      <trkpt lat="45.1459" lon="6.32376">
        <ele>2448.4</ele>
        <time>2021-02-28T06:53:26Z</time>
      </trkpt>
      <trkpt lat="45.1459" lon="6.32379">
        <ele>2448.8</ele>
        <time>2021-02-28T06:53:27Z</time>
      </trkpt>
      <trkpt lat="45.1459" lon="6.32379">
        <ele>2450</ele>
        <time>2021-02-28T06:53:28Z</time>
      </trkpt>
      <trkpt lat="45.1459" lon="6.32382">
        <ele>2449</ele>
        <time>2021-02-28T06:53:29Z</time>
      </trkpt>
      <trkpt lat="45.1459" lon="6.32382">
        <ele>2450.2</ele>
        <time>2021-02-28T06:53:30Z</time>
      </trkpt>
      <trkpt lat="45.1459" lon="6.32385">
        <ele>2450</ele>
        <time>2021-02-28T06:53:31Z</time>
      </trkpt>
      <trkpt lat="45.1459" lon="6.32385">
        <ele>2450.2</ele>
        <time>2021-02-28T06:53:32Z</time>
      </trkpt>
      <trkpt lat="45.1459" lon="6.32388">
        <ele>2450.4</ele>
        <time>2021-02-28T06:53:33Z</time>
      </trkpt>
      <trkpt lat="45.1459" lon="6.32388">
        <ele>2450.8</ele>
        <time>2021-02-28T06:53:34Z</time>
      </trkpt>
      <trkpt lat="45.14591" lon="6.32391">
        <ele>2451</ele>
        <time>2021-02-28T06:53:35Z</time>
      </trkpt>
      <trkpt lat="45.14591" lon="6.32391">
        <ele>2450.4</ele>
        <time>2021-02-28T06:53:36Z</time>
      </trkpt>
      <trkpt lat="45.14591" lon="6.32394">
        <ele>2450.6</ele>
        <time>2021-02-28T06:53:37Z</time>
      </trkpt>
      <trkpt lat="45.14591" lon="6.32394">
        <ele>2451.4</ele>
        <time>2021-02-28T06:53:38Z</time>
      </trkpt>
      <trkpt lat="45.14592" lon="6.32396">
        <ele>2451.8</ele>
        <time>2021-02-28T06:53:39Z</time>
      </trkpt>
      <trkpt lat="45.14592" lon="6.32396">
        <ele>2451.8</ele>
        <time>2021-02-28T06:53:40Z</time>
      </trkpt>
      <trkpt lat="45.14592" lon="6.32399">
        <ele>2451.6</ele>
        <time>2021-02-28T06:53:41Z</time>
      </trkpt>
      <trkpt lat="45.14592" lon="6.32399">
        <ele>2452.4</ele>
        <time>2021-02-28T06:53:42Z</time>
      </trkpt>
      <trkpt lat="45.14593" lon="6.32402">
        <ele>2453</ele>
        <time>2021-02-28T06:53:43Z</time>
      </trkpt>
      <trkpt lat="45.14593" lon="6.32402">
        <ele>2453.8</ele>
        <time>2021-02-28T06:53:44Z</time>
      </trkpt>
      <trkpt lat="45.14593" lon="6.32402">
        <ele>2453.4</ele>
        <time>2021-02-28T06:53:45Z</time>
      </trkpt>
      <trkpt lat="45.14594" lon="6.32406">
        <ele>2452.4</ele>
        <time>2021-02-28T06:53:46Z</time>
      </trkpt>
      <trkpt lat="45.14594" lon="6.32406">
        <ele>2453</ele>
        <time>2021-02-28T06:53:47Z</time>
      </trkpt>
      <trkpt lat="45.14594" lon="6.32409">
        <ele>2453.6</ele>
        <time>2021-02-28T06:53:48Z</time>
      </trkpt>
      <trkpt lat="45.14594" lon="6.32409">
        <ele>2453.6</ele>
        <time>2021-02-28T06:53:49Z</time>
      </trkpt>
      <trkpt lat="45.14594" lon="6.32409">
        <ele>2454.2</ele>
        <time>2021-02-28T06:53:50Z</time>
      </trkpt>
      <trkpt lat="45.14595" lon="6.32412">
        <ele>2454.4</ele>
        <time>2021-02-28T06:53:51Z</time>
      </trkpt>
      <trkpt lat="45.14595" lon="6.32412">
        <ele>2455.4</ele>
        <time>2021-02-28T06:53:52Z</time>
      </trkpt>
      <trkpt lat="45.14595" lon="6.32412">
        <ele>2455.8</ele>
        <time>2021-02-28T06:53:53Z</time>
      </trkpt>
      <trkpt lat="45.14595" lon="6.32416">
        <ele>2456.4</ele>
        <time>2021-02-28T06:53:54Z</time>
      </trkpt>
      <trkpt lat="45.14595" lon="6.32416">
        <ele>2456.8</ele>
        <time>2021-02-28T06:53:55Z</time>
      </trkpt>
      <trkpt lat="45.14595" lon="6.32416">
        <ele>2455.6</ele>
        <time>2021-02-28T06:53:56Z</time>
      </trkpt>
      <trkpt lat="45.14595" lon="6.32419">
        <ele>2455.8</ele>
        <time>2021-02-28T06:53:57Z</time>
      </trkpt>
      <trkpt lat="45.14595" lon="6.32419">
        <ele>2456.2</ele>
        <time>2021-02-28T06:53:58Z</time>
      </trkpt>
      <trkpt lat="45.14595" lon="6.32419">
        <ele>2455.6</ele>
        <time>2021-02-28T06:53:59Z</time>
      </trkpt>
      <trkpt lat="45.14595" lon="6.32423">
        <ele>2456</ele>
        <time>2021-02-28T06:54:00Z</time>
      </trkpt>
      <trkpt lat="45.14595" lon="6.32423">
        <ele>2456.4</ele>
        <time>2021-02-28T06:54:01Z</time>
      </trkpt>
      <trkpt lat="45.14595" lon="6.32426">
        <ele>2457</ele>
        <time>2021-02-28T06:54:02Z</time>
      </trkpt>
      <trkpt lat="45.14595" lon="6.32426">
        <ele>2456.2</ele>
        <time>2021-02-28T06:54:03Z</time>
      </trkpt>
      <trkpt lat="45.14595" lon="6.32429">
        <ele>2456.4</ele>
        <time>2021-02-28T06:54:04Z</time>
      </trkpt>
      <trkpt lat="45.14595" lon="6.32429">
        <ele>2457.2</ele>
        <time>2021-02-28T06:54:05Z</time>
      </trkpt>
      <trkpt lat="45.14595" lon="6.32429">
        <ele>2455.8</ele>
        <time>2021-02-28T06:54:06Z</time>
      </trkpt>
      <trkpt lat="45.14596" lon="6.32432">
        <ele>2456.4</ele>
        <time>2021-02-28T06:54:07Z</time>
      </trkpt>
      <trkpt lat="45.14596" lon="6.32432">
        <ele>2457.6</ele>
        <time>2021-02-28T06:54:08Z</time>
      </trkpt>
      <trkpt lat="45.14596" lon="6.32432">
        <ele>2457.6</ele>
        <time>2021-02-28T06:54:09Z</time>
      </trkpt>
      <trkpt lat="45.14596" lon="6.32436">
        <ele>2458.2</ele>
        <time>2021-02-28T06:54:10Z</time>
      </trkpt>
      <trkpt lat="45.14596" lon="6.32436">
        <ele>2458.8</ele>
        <time>2021-02-28T06:54:11Z</time>
      </trkpt>
      <trkpt lat="45.14596" lon="6.32436">
        <ele>2459.6</ele>
        <time>2021-02-28T06:54:12Z</time>
      </trkpt>
      <trkpt lat="45.14597" lon="6.32439">
        <ele>2459</ele>
        <time>2021-02-28T06:54:13Z</time>
      </trkpt>
      <trkpt lat="45.14597" lon="6.32439">
        <ele>2459.6</ele>
        <time>2021-02-28T06:54:14Z</time>
      </trkpt>
      <trkpt lat="45.14598" lon="6.32442">
        <ele>2460.6</ele>
        <time>2021-02-28T06:54:15Z</time>
      </trkpt>
      <trkpt lat="45.14598" lon="6.32442">
        <ele>2459.8</ele>
        <time>2021-02-28T06:54:16Z</time>
      </trkpt>
      <trkpt lat="45.14599" lon="6.32445">
        <ele>2459.8</ele>
        <time>2021-02-28T06:54:17Z</time>
      </trkpt>
      <trkpt lat="45.14599" lon="6.32445">
        <ele>2460.6</ele>
        <time>2021-02-28T06:54:18Z</time>
      </trkpt>
      <trkpt lat="45.14599" lon="6.32445">
        <ele>2460</ele>
        <time>2021-02-28T06:54:19Z</time>
      </trkpt>
      <trkpt lat="45.14599" lon="6.32448">
        <ele>2460</ele>
        <time>2021-02-28T06:54:20Z</time>
      </trkpt>
      <trkpt lat="45.14599" lon="6.32448">
        <ele>2460.6</ele>
        <time>2021-02-28T06:54:21Z</time>
      </trkpt>
      <trkpt lat="45.14599" lon="6.32448">
        <ele>2460.4</ele>
        <time>2021-02-28T06:54:22Z</time>
      </trkpt>
      <trkpt lat="45.146" lon="6.32452">
        <ele>2460.8</ele>
        <time>2021-02-28T06:54:23Z</time>
      </trkpt>
      <trkpt lat="45.146" lon="6.32452">
        <ele>2461.4</ele>
        <time>2021-02-28T06:54:24Z</time>
      </trkpt>
      <trkpt lat="45.14601" lon="6.32454">
        <ele>2461</ele>
        <time>2021-02-28T06:54:25Z</time>
      </trkpt>
      <trkpt lat="45.14601" lon="6.32454">
        <ele>2461</ele>
        <time>2021-02-28T06:54:26Z</time>
      </trkpt>
      <trkpt lat="45.14602" lon="6.32457">
        <ele>2461.6</ele>
        <time>2021-02-28T06:54:27Z</time>
      </trkpt>
      <trkpt lat="45.14602" lon="6.32457">
        <ele>2462</ele>
        <time>2021-02-28T06:54:28Z</time>
      </trkpt>
      <trkpt lat="45.14602" lon="6.3246">
        <ele>2461.2</ele>
        <time>2021-02-28T06:54:29Z</time>
      </trkpt>
      <trkpt lat="45.14602" lon="6.3246">
        <ele>2461.4</ele>
        <time>2021-02-28T06:54:30Z</time>
      </trkpt>
      <trkpt lat="45.14603" lon="6.32462">
        <ele>2462.2</ele>
        <time>2021-02-28T06:54:31Z</time>
      </trkpt>
      <trkpt lat="45.14603" lon="6.32462">
        <ele>2463</ele>
        <time>2021-02-28T06:54:32Z</time>
      </trkpt>
      <trkpt lat="45.14604" lon="6.32465">
        <ele>2462.6</ele>
        <time>2021-02-28T06:54:33Z</time>
      </trkpt>
      <trkpt lat="45.14604" lon="6.32465">
        <ele>2462.8</ele>
        <time>2021-02-28T06:54:34Z</time>
      </trkpt>
      <trkpt lat="45.14605" lon="6.32468">
        <ele>2463</ele>
        <time>2021-02-28T06:54:35Z</time>
      </trkpt>
      <trkpt lat="45.14605" lon="6.32468">
        <ele>2463.2</ele>
        <time>2021-02-28T06:54:36Z</time>
      </trkpt>
      <trkpt lat="45.14606" lon="6.32471">
        <ele>2463.2</ele>
        <time>2021-02-28T06:54:37Z</time>
      </trkpt>
      <trkpt lat="45.14606" lon="6.32471">
        <ele>2463.6</ele>
        <time>2021-02-28T06:54:38Z</time>
      </trkpt>
      <trkpt lat="45.14607" lon="6.32474">
        <ele>2463.6</ele>
        <time>2021-02-28T06:54:39Z</time>
      </trkpt>
      <trkpt lat="45.14607" lon="6.32474">
        <ele>2463.8</ele>
        <time>2021-02-28T06:54:40Z</time>
      </trkpt>
      <trkpt lat="45.14608" lon="6.32477">
        <ele>2464.6</ele>
        <time>2021-02-28T06:54:41Z</time>
      </trkpt>
      <trkpt lat="45.14608" lon="6.32477">
        <ele>2464.2</ele>
        <time>2021-02-28T06:54:42Z</time>
      </trkpt>
      <trkpt lat="45.14609" lon="6.3248">
        <ele>2464.4</ele>
        <time>2021-02-28T06:54:43Z</time>
      </trkpt>
      <trkpt lat="45.14609" lon="6.3248">
        <ele>2464.4</ele>
        <time>2021-02-28T06:54:44Z</time>
      </trkpt>
      <trkpt lat="45.14609" lon="6.32484">
        <ele>2464.6</ele>
        <time>2021-02-28T06:54:45Z</time>
      </trkpt>
      <trkpt lat="45.14609" lon="6.32484">
        <ele>2464.2</ele>
        <time>2021-02-28T06:54:46Z</time>
      </trkpt>
      <trkpt lat="45.14609" lon="6.32488">
        <ele>2464.2</ele>
        <time>2021-02-28T06:54:47Z</time>
      </trkpt>
      <trkpt lat="45.14609" lon="6.32488">
        <ele>2463.8</ele>
        <time>2021-02-28T06:54:48Z</time>
      </trkpt>
      <trkpt lat="45.14609" lon="6.32493">
        <ele>2464.2</ele>
        <time>2021-02-28T06:54:49Z</time>
      </trkpt>
      <trkpt lat="45.14609" lon="6.32493">
        <ele>2464</ele>
        <time>2021-02-28T06:54:50Z</time>
      </trkpt>
      <trkpt lat="45.14608" lon="6.32498">
        <ele>2463.8</ele>
        <time>2021-02-28T06:54:51Z</time>
      </trkpt>
      <trkpt lat="45.14608" lon="6.32498">
        <ele>2464</ele>
        <time>2021-02-28T06:54:52Z</time>
      </trkpt>
      <trkpt lat="45.14607" lon="6.32502">
        <ele>2463.6</ele>
        <time>2021-02-28T06:54:53Z</time>
      </trkpt>
      <trkpt lat="45.14607" lon="6.32502">
        <ele>2463.8</ele>
        <time>2021-02-28T06:54:54Z</time>
      </trkpt>
      <trkpt lat="45.14607" lon="6.32504">
        <ele>2464</ele>
        <time>2021-02-28T06:54:55Z</time>
      </trkpt>
      <trkpt lat="45.14607" lon="6.32504">
        <ele>2464.4</ele>
        <time>2021-02-28T06:54:56Z</time>
      </trkpt>
      <trkpt lat="45.14606" lon="6.32508">
        <ele>2464.4</ele>
        <time>2021-02-28T06:54:57Z</time>
      </trkpt>
      <trkpt lat="45.14606" lon="6.32508">
        <ele>2464.6</ele>
        <time>2021-02-28T06:54:58Z</time>
      </trkpt>
      <trkpt lat="45.14606" lon="6.32511">
        <ele>2465</ele>
        <time>2021-02-28T06:54:59Z</time>
      </trkpt>
      <trkpt lat="45.14606" lon="6.32511">
        <ele>2465.2</ele>
        <time>2021-02-28T06:55:00Z</time>
      </trkpt>
      <trkpt lat="45.14605" lon="6.32514">
        <ele>2465.4</ele>
        <time>2021-02-28T06:55:01Z</time>
      </trkpt>
      <trkpt lat="45.14605" lon="6.32514">
        <ele>2465.4</ele>
        <time>2021-02-28T06:55:02Z</time>
      </trkpt>
      <trkpt lat="45.14605" lon="6.32516">
        <ele>2465.8</ele>
        <time>2021-02-28T06:55:03Z</time>
      </trkpt>
      <trkpt lat="45.14605" lon="6.32516">
        <ele>2466.2</ele>
        <time>2021-02-28T06:55:04Z</time>
      </trkpt>
      <trkpt lat="45.14605" lon="6.32519">
        <ele>2466.6</ele>
        <time>2021-02-28T06:55:05Z</time>
      </trkpt>
      <trkpt lat="45.14605" lon="6.32519">
        <ele>2466.6</ele>
        <time>2021-02-28T06:55:06Z</time>
      </trkpt>
      <trkpt lat="45.14605" lon="6.32519">
        <ele>2467.2</ele>
        <time>2021-02-28T06:55:07Z</time>
      </trkpt>
      <trkpt lat="45.14605" lon="6.32519">
        <ele>2467.4</ele>
        <time>2021-02-28T06:55:08Z</time>
      </trkpt>
      <trkpt lat="45.14605" lon="6.32522">
        <ele>2467.4</ele>
        <time>2021-02-28T06:55:09Z</time>
      </trkpt>
      <trkpt lat="45.14605" lon="6.32522">
        <ele>2467.8</ele>
        <time>2021-02-28T06:55:10Z</time>
      </trkpt>
      <trkpt lat="45.14605" lon="6.32525">
        <ele>2468.6</ele>
        <time>2021-02-28T06:55:11Z</time>
      </trkpt>
      <trkpt lat="45.14605" lon="6.32525">
        <ele>2469</ele>
        <time>2021-02-28T06:55:12Z</time>
      </trkpt>
      <trkpt lat="45.14604" lon="6.32528">
        <ele>2468.6</ele>
        <time>2021-02-28T06:55:13Z</time>
      </trkpt>
      <trkpt lat="45.14604" lon="6.32528">
        <ele>2468.6</ele>
        <time>2021-02-28T06:55:14Z</time>
      </trkpt>
      <trkpt lat="45.14603" lon="6.32531">
        <ele>2468.8</ele>
        <time>2021-02-28T06:55:15Z</time>
      </trkpt>
      <trkpt lat="45.14603" lon="6.32531">
        <ele>2469.4</ele>
        <time>2021-02-28T06:55:16Z</time>
      </trkpt>
      <trkpt lat="45.14603" lon="6.32534">
        <ele>2469.8</ele>
        <time>2021-02-28T06:55:17Z</time>
      </trkpt>
      <trkpt lat="45.14603" lon="6.32534">
        <ele>2469.8</ele>
        <time>2021-02-28T06:55:18Z</time>
      </trkpt>
      <trkpt lat="45.14603" lon="6.32536">
        <ele>2470.2</ele>
        <time>2021-02-28T06:55:19Z</time>
      </trkpt>
      <trkpt lat="45.14603" lon="6.32536">
        <ele>2470.4</ele>
        <time>2021-02-28T06:55:20Z</time>
      </trkpt>
      <trkpt lat="45.14602" lon="6.32539">
        <ele>2470.8</ele>
        <time>2021-02-28T06:55:21Z</time>
      </trkpt>
      <trkpt lat="45.14602" lon="6.32539">
        <ele>2471.6</ele>
        <time>2021-02-28T06:55:22Z</time>
      </trkpt>
      <trkpt lat="45.14602" lon="6.32539">
        <ele>2472</ele>
        <time>2021-02-28T06:55:23Z</time>
      </trkpt>
      <trkpt lat="45.14602" lon="6.32539">
        <ele>2472.2</ele>
        <time>2021-02-28T06:55:24Z</time>
      </trkpt>
      <trkpt lat="45.14602" lon="6.32539">
        <ele>2471.8</ele>
        <time>2021-02-28T06:55:25Z</time>
      </trkpt>
      <trkpt lat="45.14602" lon="6.32539">
        <ele>2471</ele>
        <time>2021-02-28T06:55:26Z</time>
      </trkpt>
      <trkpt lat="45.14601" lon="6.3254">
        <ele>2470.6</ele>
        <time>2021-02-28T06:55:27Z</time>
      </trkpt>
      <trkpt lat="45.14601" lon="6.3254">
        <ele>2471</ele>
        <time>2021-02-28T06:55:28Z</time>
      </trkpt>
      <trkpt lat="45.14601" lon="6.3254">
        <ele>2470.8</ele>
        <time>2021-02-28T06:55:29Z</time>
      </trkpt>
      <trkpt lat="45.14598" lon="6.32543">
        <ele>2471.2</ele>
        <time>2021-02-28T06:55:30Z</time>
      </trkpt>
      <trkpt lat="45.14598" lon="6.32543">
        <ele>2471.4</ele>
        <time>2021-02-28T06:55:31Z</time>
      </trkpt>
      <trkpt lat="45.14596" lon="6.32545">
        <ele>2471.6</ele>
        <time>2021-02-28T06:55:32Z</time>
      </trkpt>
      <trkpt lat="45.14596" lon="6.32545">
        <ele>2471.2</ele>
        <time>2021-02-28T06:55:33Z</time>
      </trkpt>
      <trkpt lat="45.14594" lon="6.32547">
        <ele>2471</ele>
        <time>2021-02-28T06:55:34Z</time>
      </trkpt>
      <trkpt lat="45.14594" lon="6.32547">
        <ele>2471.2</ele>
        <time>2021-02-28T06:55:35Z</time>
      </trkpt>
      <trkpt lat="45.14594" lon="6.32547">
        <ele>2471</ele>
        <time>2021-02-28T06:55:36Z</time>
      </trkpt>
      <trkpt lat="45.14594" lon="6.32547">
        <ele>2471.2</ele>
        <time>2021-02-28T06:55:37Z</time>
      </trkpt>
      <trkpt lat="45.14592" lon="6.32549">
        <ele>2472.4</ele>
        <time>2021-02-28T06:55:38Z</time>
      </trkpt>
      <trkpt lat="45.14592" lon="6.32549">
        <ele>2472.4</ele>
        <time>2021-02-28T06:55:39Z</time>
      </trkpt>
      <trkpt lat="45.14592" lon="6.32549">
        <ele>2472</ele>
        <time>2021-02-28T06:55:40Z</time>
      </trkpt>
      <trkpt lat="45.1459" lon="6.32551">
        <ele>2472.2</ele>
        <time>2021-02-28T06:55:41Z</time>
      </trkpt>
      <trkpt lat="45.1459" lon="6.32551">
        <ele>2472.2</ele>
        <time>2021-02-28T06:55:42Z</time>
      </trkpt>
      <trkpt lat="45.14588" lon="6.32554">
        <ele>2472.2</ele>
        <time>2021-02-28T06:55:43Z</time>
      </trkpt>
      <trkpt lat="45.14588" lon="6.32554">
        <ele>2472.6</ele>
        <time>2021-02-28T06:55:44Z</time>
      </trkpt>
      <trkpt lat="45.14585" lon="6.32556">
        <ele>2472.6</ele>
        <time>2021-02-28T06:55:45Z</time>
      </trkpt>
      <trkpt lat="45.14585" lon="6.32556">
        <ele>2473.2</ele>
        <time>2021-02-28T06:55:46Z</time>
      </trkpt>
      <trkpt lat="45.14582" lon="6.32558">
        <ele>2473.4</ele>
        <time>2021-02-28T06:55:47Z</time>
      </trkpt>
      <trkpt lat="45.14582" lon="6.32558">
        <ele>2474.2</ele>
        <time>2021-02-28T06:55:48Z</time>
      </trkpt>
      <trkpt lat="45.14579" lon="6.32561">
        <ele>2474.2</ele>
        <time>2021-02-28T06:55:49Z</time>
      </trkpt>
      <trkpt lat="45.14577" lon="6.32562">
        <ele>2473.8</ele>
        <time>2021-02-28T06:55:50Z</time>
      </trkpt>
      <trkpt lat="45.14576" lon="6.32564">
        <ele>2473.8</ele>
        <time>2021-02-28T06:55:51Z</time>
      </trkpt>
      <trkpt lat="45.14573" lon="6.32565">
        <ele>2473.6</ele>
        <time>2021-02-28T06:55:52Z</time>
      </trkpt>
      <trkpt lat="45.1457" lon="6.32567">
        <ele>2473.2</ele>
        <time>2021-02-28T06:55:53Z</time>
      </trkpt>
      <trkpt lat="45.14567" lon="6.32568">
        <ele>2473</ele>
        <time>2021-02-28T06:55:54Z</time>
      </trkpt>
      <trkpt lat="45.14563" lon="6.32568">
        <ele>2472.2</ele>
        <time>2021-02-28T06:55:55Z</time>
      </trkpt>
      <trkpt lat="45.1456" lon="6.32569">
        <ele>2471.6</ele>
        <time>2021-02-28T06:55:56Z</time>
      </trkpt>
      <trkpt lat="45.14557" lon="6.3257">
        <ele>2471</ele>
        <time>2021-02-28T06:55:57Z</time>
      </trkpt>
      <trkpt lat="45.14555" lon="6.3257">
        <ele>2470.6</ele>
        <time>2021-02-28T06:55:58Z</time>
      </trkpt>
      <trkpt lat="45.14553" lon="6.3257">
        <ele>2470.2</ele>
        <time>2021-02-28T06:55:59Z</time>
      </trkpt>
      <trkpt lat="45.14553" lon="6.3257">
        <ele>2469.6</ele>
        <time>2021-02-28T06:56:00Z</time>
      </trkpt>
      <trkpt lat="45.1455" lon="6.3257">
        <ele>2468.8</ele>
        <time>2021-02-28T06:56:01Z</time>
      </trkpt>
      <trkpt lat="45.1455" lon="6.3257">
        <ele>2467.8</ele>
        <time>2021-02-28T06:56:02Z</time>
      </trkpt>
      <trkpt lat="45.14551" lon="6.32566">
        <ele>2467.8</ele>
        <time>2021-02-28T06:56:03Z</time>
      </trkpt>
      <trkpt lat="45.14551" lon="6.32566">
        <ele>2467.6</ele>
        <time>2021-02-28T06:56:04Z</time>
      </trkpt>
      <trkpt lat="45.14551" lon="6.32563">
        <ele>2468</ele>
        <time>2021-02-28T06:56:05Z</time>
      </trkpt>
      <trkpt lat="45.14551" lon="6.32563">
        <ele>2468</ele>
        <time>2021-02-28T06:56:06Z</time>
      </trkpt>
      <trkpt lat="45.14551" lon="6.3256">
        <ele>2468.6</ele>
        <time>2021-02-28T06:56:07Z</time>
      </trkpt>
      <trkpt lat="45.14551" lon="6.3256">
        <ele>2468.4</ele>
        <time>2021-02-28T06:56:08Z</time>
      </trkpt>
      <trkpt lat="45.14551" lon="6.3256">
        <ele>2469.2</ele>
        <time>2021-02-28T06:56:09Z</time>
      </trkpt>
      <trkpt lat="45.14551" lon="6.32556">
        <ele>2469.4</ele>
        <time>2021-02-28T06:56:10Z</time>
      </trkpt>
      <trkpt lat="45.14551" lon="6.32556">
        <ele>2469.6</ele>
        <time>2021-02-28T06:56:11Z</time>
      </trkpt>
      <trkpt lat="45.14551" lon="6.32556">
        <ele>2470.2</ele>
        <time>2021-02-28T06:56:12Z</time>
      </trkpt>
      <trkpt lat="45.14551" lon="6.32553">
        <ele>2470.8</ele>
        <time>2021-02-28T06:56:13Z</time>
      </trkpt>
      <trkpt lat="45.14551" lon="6.32553">
        <ele>2471.2</ele>
        <time>2021-02-28T06:56:14Z</time>
      </trkpt>
      <trkpt lat="45.14551" lon="6.32553">
        <ele>2471.2</ele>
        <time>2021-02-28T06:56:15Z</time>
      </trkpt>
      <trkpt lat="45.14551" lon="6.3255">
        <ele>2471.4</ele>
        <time>2021-02-28T06:56:16Z</time>
      </trkpt>
      <trkpt lat="45.14551" lon="6.3255">
        <ele>2471.6</ele>
        <time>2021-02-28T06:56:17Z</time>
      </trkpt>
      <trkpt lat="45.14551" lon="6.3255">
        <ele>2471.8</ele>
        <time>2021-02-28T06:56:18Z</time>
      </trkpt>
      <trkpt lat="45.14549" lon="6.32547">
        <ele>2469.8</ele>
        <time>2021-02-28T06:56:19Z</time>
      </trkpt>
      <trkpt lat="45.14549" lon="6.32547">
        <ele>2471</ele>
        <time>2021-02-28T06:56:20Z</time>
      </trkpt>
      <trkpt lat="45.14549" lon="6.32547">
        <ele>2471.4</ele>
        <time>2021-02-28T06:56:21Z</time>
      </trkpt>
      <trkpt lat="45.14547" lon="6.32547">
        <ele>2471</ele>
        <time>2021-02-28T06:56:22Z</time>
      </trkpt>
      <trkpt lat="45.14547" lon="6.32547">
        <ele>2471.8</ele>
        <time>2021-02-28T06:56:23Z</time>
      </trkpt>
      <trkpt lat="45.14547" lon="6.32547">
        <ele>2471.6</ele>
        <time>2021-02-28T06:56:24Z</time>
      </trkpt>
      <trkpt lat="45.14544" lon="6.32548">
        <ele>2472.2</ele>
        <time>2021-02-28T06:56:25Z</time>
      </trkpt>
      <trkpt lat="45.14544" lon="6.32548">
        <ele>2472.8</ele>
        <time>2021-02-28T06:56:26Z</time>
      </trkpt>
      <trkpt lat="45.14542" lon="6.32549">
        <ele>2473.2</ele>
        <time>2021-02-28T06:56:27Z</time>
      </trkpt>
      <trkpt lat="45.14542" lon="6.32549">
        <ele>2473.8</ele>
        <time>2021-02-28T06:56:28Z</time>
      </trkpt>
      <trkpt lat="45.1454" lon="6.3255">
        <ele>2474</ele>
        <time>2021-02-28T06:56:29Z</time>
      </trkpt>
      <trkpt lat="45.1454" lon="6.3255">
        <ele>2474.2</ele>
        <time>2021-02-28T06:56:30Z</time>
      </trkpt>
      <trkpt lat="45.14538" lon="6.32551">
        <ele>2474.8</ele>
        <time>2021-02-28T06:56:31Z</time>
      </trkpt>
      <trkpt lat="45.14538" lon="6.32551">
        <ele>2474</ele>
        <time>2021-02-28T06:56:32Z</time>
      </trkpt>
      <trkpt lat="45.14536" lon="6.32552">
        <ele>2474</ele>
        <time>2021-02-28T06:56:33Z</time>
      </trkpt>
      <trkpt lat="45.14536" lon="6.32552">
        <ele>2474.8</ele>
        <time>2021-02-28T06:56:34Z</time>
      </trkpt>
      <trkpt lat="45.14533" lon="6.32553">
        <ele>2475</ele>
        <time>2021-02-28T06:56:35Z</time>
      </trkpt>
      <trkpt lat="45.14533" lon="6.32553">
        <ele>2475.2</ele>
        <time>2021-02-28T06:56:36Z</time>
      </trkpt>
      <trkpt lat="45.14531" lon="6.32554">
        <ele>2474.4</ele>
        <time>2021-02-28T06:56:37Z</time>
      </trkpt>
      <trkpt lat="45.14531" lon="6.32554">
        <ele>2475</ele>
        <time>2021-02-28T06:56:38Z</time>
      </trkpt>
      <trkpt lat="45.14529" lon="6.32556">
        <ele>2475.4</ele>
        <time>2021-02-28T06:56:39Z</time>
      </trkpt>
      <trkpt lat="45.14529" lon="6.32556">
        <ele>2475.8</ele>
        <time>2021-02-28T06:56:40Z</time>
      </trkpt>
      <trkpt lat="45.14527" lon="6.32557">
        <ele>2475</ele>
        <time>2021-02-28T06:56:41Z</time>
      </trkpt>
      <trkpt lat="45.14527" lon="6.32557">
        <ele>2475.2</ele>
        <time>2021-02-28T06:56:42Z</time>
      </trkpt>
      <trkpt lat="45.14525" lon="6.32559">
        <ele>2475.4</ele>
        <time>2021-02-28T06:56:43Z</time>
      </trkpt>
      <trkpt lat="45.14525" lon="6.32559">
        <ele>2476.2</ele>
        <time>2021-02-28T06:56:44Z</time>
      </trkpt>
      <trkpt lat="45.14523" lon="6.32561">
        <ele>2475.6</ele>
        <time>2021-02-28T06:56:45Z</time>
      </trkpt>
      <trkpt lat="45.14523" lon="6.32561">
        <ele>2475.8</ele>
        <time>2021-02-28T06:56:46Z</time>
      </trkpt>
      <trkpt lat="45.1452" lon="6.32564">
        <ele>2476.2</ele>
        <time>2021-02-28T06:56:47Z</time>
      </trkpt>
      <trkpt lat="45.1452" lon="6.32564">
        <ele>2476</ele>
        <time>2021-02-28T06:56:48Z</time>
      </trkpt>
      <trkpt lat="45.14518" lon="6.32566">
        <ele>2476.2</ele>
        <time>2021-02-28T06:56:49Z</time>
      </trkpt>
      <trkpt lat="45.14518" lon="6.32566">
        <ele>2476.6</ele>
        <time>2021-02-28T06:56:50Z</time>
      </trkpt>
      <trkpt lat="45.14516" lon="6.32568">
        <ele>2476.6</ele>
        <time>2021-02-28T06:56:51Z</time>
      </trkpt>
      <trkpt lat="45.14516" lon="6.32568">
        <ele>2476.2</ele>
        <time>2021-02-28T06:56:52Z</time>
      </trkpt>
      <trkpt lat="45.14515" lon="6.32571">
        <ele>2476.6</ele>
        <time>2021-02-28T06:56:53Z</time>
      </trkpt>
      <trkpt lat="45.14515" lon="6.32571">
        <ele>2476.8</ele>
        <time>2021-02-28T06:56:54Z</time>
      </trkpt>
      <trkpt lat="45.14513" lon="6.32574">
        <ele>2477.4</ele>
        <time>2021-02-28T06:56:55Z</time>
      </trkpt>
      <trkpt lat="45.14513" lon="6.32574">
        <ele>2477.6</ele>
        <time>2021-02-28T06:56:56Z</time>
      </trkpt>
      <trkpt lat="45.14512" lon="6.32577">
        <ele>2477.6</ele>
        <time>2021-02-28T06:56:57Z</time>
      </trkpt>
      <trkpt lat="45.14511" lon="6.32579">
        <ele>2477.8</ele>
        <time>2021-02-28T06:56:58Z</time>
      </trkpt>
      <trkpt lat="45.14509" lon="6.32582">
        <ele>2477.4</ele>
        <time>2021-02-28T06:56:59Z</time>
      </trkpt>
      <trkpt lat="45.14507" lon="6.32584">
        <ele>2477.4</ele>
        <time>2021-02-28T06:57:00Z</time>
      </trkpt>
      <trkpt lat="45.14505" lon="6.32586">
        <ele>2477.2</ele>
        <time>2021-02-28T06:57:01Z</time>
      </trkpt>
      <trkpt lat="45.14505" lon="6.32586">
        <ele>2477.2</ele>
        <time>2021-02-28T06:57:02Z</time>
      </trkpt>
      <trkpt lat="45.14503" lon="6.32588">
        <ele>2477.2</ele>
        <time>2021-02-28T06:57:03Z</time>
      </trkpt>
      <trkpt lat="45.14503" lon="6.32588">
        <ele>2477.4</ele>
        <time>2021-02-28T06:57:04Z</time>
      </trkpt>
      <trkpt lat="45.14501" lon="6.32588">
        <ele>2476</ele>
        <time>2021-02-28T06:57:05Z</time>
      </trkpt>
      <trkpt lat="45.14501" lon="6.32588">
        <ele>2476.2</ele>
        <time>2021-02-28T06:57:06Z</time>
      </trkpt>
      <trkpt lat="45.14499" lon="6.32588">
        <ele>2476.8</ele>
        <time>2021-02-28T06:57:07Z</time>
      </trkpt>
      <trkpt lat="45.14499" lon="6.32588">
        <ele>2476.2</ele>
        <time>2021-02-28T06:57:08Z</time>
      </trkpt>
      <trkpt lat="45.14496" lon="6.32588">
        <ele>2476.8</ele>
        <time>2021-02-28T06:57:09Z</time>
      </trkpt>
      <trkpt lat="45.14496" lon="6.32588">
        <ele>2476.8</ele>
        <time>2021-02-28T06:57:10Z</time>
      </trkpt>
      <trkpt lat="45.14493" lon="6.32589">
        <ele>2476.8</ele>
        <time>2021-02-28T06:57:11Z</time>
      </trkpt>
      <trkpt lat="45.14493" lon="6.32589">
        <ele>2476.8</ele>
        <time>2021-02-28T06:57:12Z</time>
      </trkpt>
      <trkpt lat="45.14491" lon="6.32589">
        <ele>2476.2</ele>
        <time>2021-02-28T06:57:13Z</time>
      </trkpt>
      <trkpt lat="45.14491" lon="6.32589">
        <ele>2476.8</ele>
        <time>2021-02-28T06:57:14Z</time>
      </trkpt>
      <trkpt lat="45.14488" lon="6.3259">
        <ele>2477.2</ele>
        <time>2021-02-28T06:57:15Z</time>
      </trkpt>
      <trkpt lat="45.14488" lon="6.3259">
        <ele>2476.4</ele>
        <time>2021-02-28T06:57:16Z</time>
      </trkpt>
      <trkpt lat="45.14486" lon="6.32589">
        <ele>2476.6</ele>
        <time>2021-02-28T06:57:17Z</time>
      </trkpt>
      <trkpt lat="45.14486" lon="6.32589">
        <ele>2476.6</ele>
        <time>2021-02-28T06:57:18Z</time>
      </trkpt>
      <trkpt lat="45.14484" lon="6.32588">
        <ele>2476</ele>
        <time>2021-02-28T06:57:19Z</time>
      </trkpt>
      <trkpt lat="45.14484" lon="6.32588">
        <ele>2476.6</ele>
        <time>2021-02-28T06:57:20Z</time>
      </trkpt>
      <trkpt lat="45.14483" lon="6.32586">
        <ele>2477.6</ele>
        <time>2021-02-28T06:57:21Z</time>
      </trkpt>
      <trkpt lat="45.14483" lon="6.32586">
        <ele>2477.2</ele>
        <time>2021-02-28T06:57:22Z</time>
      </trkpt>
      <trkpt lat="45.14483" lon="6.32586">
        <ele>2477.8</ele>
        <time>2021-02-28T06:57:23Z</time>
      </trkpt>
      <trkpt lat="45.14482" lon="6.32582">
        <ele>2478.6</ele>
        <time>2021-02-28T06:57:24Z</time>
      </trkpt>
      <trkpt lat="45.14482" lon="6.32582">
        <ele>2478.6</ele>
        <time>2021-02-28T06:57:25Z</time>
      </trkpt>
      <trkpt lat="45.14481" lon="6.3258">
        <ele>2479</ele>
        <time>2021-02-28T06:57:26Z</time>
      </trkpt>
      <trkpt lat="45.14481" lon="6.3258">
        <ele>2479.6</ele>
        <time>2021-02-28T06:57:27Z</time>
      </trkpt>
      <trkpt lat="45.14481" lon="6.3258">
        <ele>2479.2</ele>
        <time>2021-02-28T06:57:28Z</time>
      </trkpt>
      <trkpt lat="45.14481" lon="6.32576">
        <ele>2479.6</ele>
        <time>2021-02-28T06:57:29Z</time>
      </trkpt>
      <trkpt lat="45.14481" lon="6.32576">
        <ele>2479.8</ele>
        <time>2021-02-28T06:57:30Z</time>
      </trkpt>
      <trkpt lat="45.14481" lon="6.32576">
        <ele>2480.2</ele>
        <time>2021-02-28T06:57:31Z</time>
      </trkpt>
      <trkpt lat="45.1448" lon="6.32573">
        <ele>2480</ele>
        <time>2021-02-28T06:57:32Z</time>
      </trkpt>
      <trkpt lat="45.1448" lon="6.32573">
        <ele>2480.2</ele>
        <time>2021-02-28T06:57:33Z</time>
      </trkpt>
      <trkpt lat="45.1448" lon="6.32573">
        <ele>2480.6</ele>
        <time>2021-02-28T06:57:34Z</time>
      </trkpt>
      <trkpt lat="45.14479" lon="6.32571">
        <ele>2480.4</ele>
        <time>2021-02-28T06:57:35Z</time>
      </trkpt>
      <trkpt lat="45.14479" lon="6.32571">
        <ele>2480.4</ele>
        <time>2021-02-28T06:57:36Z</time>
      </trkpt>
      <trkpt lat="45.14479" lon="6.32571">
        <ele>2481</ele>
        <time>2021-02-28T06:57:37Z</time>
      </trkpt>
      <trkpt lat="45.14478" lon="6.32568">
        <ele>2479.8</ele>
        <time>2021-02-28T06:57:38Z</time>
      </trkpt>
      <trkpt lat="45.14478" lon="6.32568">
        <ele>2480.4</ele>
        <time>2021-02-28T06:57:39Z</time>
      </trkpt>
      <trkpt lat="45.14477" lon="6.32566">
        <ele>2481</ele>
        <time>2021-02-28T06:57:40Z</time>
      </trkpt>
      <trkpt lat="45.14477" lon="6.32566">
        <ele>2480.2</ele>
        <time>2021-02-28T06:57:41Z</time>
      </trkpt>
      <trkpt lat="45.14477" lon="6.32566">
        <ele>2480.6</ele>
        <time>2021-02-28T06:57:42Z</time>
      </trkpt>
      <trkpt lat="45.14475" lon="6.32563">
        <ele>2481.8</ele>
        <time>2021-02-28T06:57:43Z</time>
      </trkpt>
      <trkpt lat="45.14475" lon="6.32563">
        <ele>2481</ele>
        <time>2021-02-28T06:57:44Z</time>
      </trkpt>
      <trkpt lat="45.14475" lon="6.32563">
        <ele>2481.4</ele>
        <time>2021-02-28T06:57:45Z</time>
      </trkpt>
      <trkpt lat="45.14474" lon="6.32561">
        <ele>2482</ele>
        <time>2021-02-28T06:57:46Z</time>
      </trkpt>
      <trkpt lat="45.14474" lon="6.32561">
        <ele>2481.2</ele>
        <time>2021-02-28T06:57:47Z</time>
      </trkpt>
      <trkpt lat="45.14474" lon="6.32561">
        <ele>2481.8</ele>
        <time>2021-02-28T06:57:48Z</time>
      </trkpt>
      <trkpt lat="45.14472" lon="6.32559">
        <ele>2482.2</ele>
        <time>2021-02-28T06:57:49Z</time>
      </trkpt>
      <trkpt lat="45.14472" lon="6.32559">
        <ele>2482.6</ele>
        <time>2021-02-28T06:57:50Z</time>
      </trkpt>
      <trkpt lat="45.14472" lon="6.32559">
        <ele>2483</ele>
        <time>2021-02-28T06:57:51Z</time>
      </trkpt>
      <trkpt lat="45.1447" lon="6.32556">
        <ele>2483</ele>
        <time>2021-02-28T06:57:52Z</time>
      </trkpt>
      <trkpt lat="45.1447" lon="6.32556">
        <ele>2483.4</ele>
        <time>2021-02-28T06:57:53Z</time>
      </trkpt>
      <trkpt lat="45.1447" lon="6.32556">
        <ele>2483.8</ele>
        <time>2021-02-28T06:57:54Z</time>
      </trkpt>
      <trkpt lat="45.14468" lon="6.32554">
        <ele>2484.2</ele>
        <time>2021-02-28T06:57:55Z</time>
      </trkpt>
      <trkpt lat="45.14468" lon="6.32554">
        <ele>2484.4</ele>
        <time>2021-02-28T06:57:56Z</time>
      </trkpt>
      <trkpt lat="45.14466" lon="6.32552">
        <ele>2484.2</ele>
        <time>2021-02-28T06:57:57Z</time>
      </trkpt>
      <trkpt lat="45.14466" lon="6.32552">
        <ele>2484.6</ele>
        <time>2021-02-28T06:57:58Z</time>
      </trkpt>
      <trkpt lat="45.14464" lon="6.3255">
        <ele>2484.4</ele>
        <time>2021-02-28T06:57:59Z</time>
      </trkpt>
      <trkpt lat="45.14464" lon="6.3255">
        <ele>2484.6</ele>
        <time>2021-02-28T06:58:00Z</time>
      </trkpt>
      <trkpt lat="45.14464" lon="6.3255">
        <ele>2484.8</ele>
        <time>2021-02-28T06:58:01Z</time>
      </trkpt>
      <trkpt lat="45.14462" lon="6.32549">
        <ele>2485</ele>
        <time>2021-02-28T06:58:02Z</time>
      </trkpt>
      <trkpt lat="45.14462" lon="6.32549">
        <ele>2485.2</ele>
        <time>2021-02-28T06:58:03Z</time>
      </trkpt>
      <trkpt lat="45.1446" lon="6.32547">
        <ele>2485.4</ele>
        <time>2021-02-28T06:58:04Z</time>
      </trkpt>
      <trkpt lat="45.1446" lon="6.32547">
        <ele>2484.6</ele>
        <time>2021-02-28T06:58:05Z</time>
      </trkpt>
      <trkpt lat="45.14459" lon="6.32546">
        <ele>2484.8</ele>
        <time>2021-02-28T06:58:06Z</time>
      </trkpt>
      <trkpt lat="45.14459" lon="6.32546">
        <ele>2485.2</ele>
        <time>2021-02-28T06:58:07Z</time>
      </trkpt>
      <trkpt lat="45.14459" lon="6.32546">
        <ele>2485</ele>
        <time>2021-02-28T06:58:08Z</time>
      </trkpt>
      <trkpt lat="45.14456" lon="6.32546">
        <ele>2485.4</ele>
        <time>2021-02-28T06:58:09Z</time>
      </trkpt>
      <trkpt lat="45.14456" lon="6.32546">
        <ele>2485.8</ele>
        <time>2021-02-28T06:58:10Z</time>
      </trkpt>
      <trkpt lat="45.14455" lon="6.32545">
        <ele>2486.4</ele>
        <time>2021-02-28T06:58:11Z</time>
      </trkpt>
      <trkpt lat="45.14455" lon="6.32545">
        <ele>2486.4</ele>
        <time>2021-02-28T06:58:12Z</time>
      </trkpt>
      <trkpt lat="45.14455" lon="6.32545">
        <ele>2486.6</ele>
        <time>2021-02-28T06:58:13Z</time>
      </trkpt>
      <trkpt lat="45.14452" lon="6.32544">
        <ele>2486.6</ele>
        <time>2021-02-28T06:58:14Z</time>
      </trkpt>
      <trkpt lat="45.14452" lon="6.32544">
        <ele>2486.8</ele>
        <time>2021-02-28T06:58:15Z</time>
      </trkpt>
      <trkpt lat="45.14452" lon="6.32544">
        <ele>2486.8</ele>
        <time>2021-02-28T06:58:16Z</time>
      </trkpt>
      <trkpt lat="45.1445" lon="6.32545">
        <ele>2486.4</ele>
        <time>2021-02-28T06:58:17Z</time>
      </trkpt>
      <trkpt lat="45.1445" lon="6.32545">
        <ele>2485.8</ele>
        <time>2021-02-28T06:58:18Z</time>
      </trkpt>
      <trkpt lat="45.14448" lon="6.32545">
        <ele>2486.6</ele>
        <time>2021-02-28T06:58:19Z</time>
      </trkpt>
      <trkpt lat="45.14448" lon="6.32545">
        <ele>2487.2</ele>
        <time>2021-02-28T06:58:20Z</time>
      </trkpt>
      <trkpt lat="45.14447" lon="6.32547">
        <ele>2487.8</ele>
        <time>2021-02-28T06:58:21Z</time>
      </trkpt>
      <trkpt lat="45.14447" lon="6.32547">
        <ele>2488</ele>
        <time>2021-02-28T06:58:22Z</time>
      </trkpt>
      <trkpt lat="45.14445" lon="6.32547">
        <ele>2488.6</ele>
        <time>2021-02-28T06:58:23Z</time>
      </trkpt>
      <trkpt lat="45.14445" lon="6.32547">
        <ele>2489.4</ele>
        <time>2021-02-28T06:58:24Z</time>
      </trkpt>
      <trkpt lat="45.14443" lon="6.32549">
        <ele>2487.6</ele>
        <time>2021-02-28T06:58:25Z</time>
      </trkpt>
      <trkpt lat="45.14443" lon="6.32549">
        <ele>2488</ele>
        <time>2021-02-28T06:58:26Z</time>
      </trkpt>
      <trkpt lat="45.14442" lon="6.3255">
        <ele>2488.6</ele>
        <time>2021-02-28T06:58:27Z</time>
      </trkpt>
      <trkpt lat="45.14442" lon="6.3255">
        <ele>2488.6</ele>
        <time>2021-02-28T06:58:28Z</time>
      </trkpt>
      <trkpt lat="45.14442" lon="6.3255">
        <ele>2489</ele>
        <time>2021-02-28T06:58:29Z</time>
      </trkpt>
      <trkpt lat="45.14442" lon="6.3255">
        <ele>2489.4</ele>
        <time>2021-02-28T06:58:30Z</time>
      </trkpt>
      <trkpt lat="45.14442" lon="6.3255">
        <ele>2489.6</ele>
        <time>2021-02-28T06:58:31Z</time>
      </trkpt>
      <trkpt lat="45.14442" lon="6.3255">
        <ele>2489.6</ele>
        <time>2021-02-28T06:58:32Z</time>
      </trkpt>
      <trkpt lat="45.14442" lon="6.3255">
        <ele>2489.8</ele>
        <time>2021-02-28T06:58:33Z</time>
      </trkpt>
      <trkpt lat="45.14442" lon="6.3255">
        <ele>2490</ele>
        <time>2021-02-28T06:58:34Z</time>
      </trkpt>
      <trkpt lat="45.14442" lon="6.3255">
        <ele>2490</ele>
        <time>2021-02-28T06:58:35Z</time>
      </trkpt>
      <trkpt lat="45.14442" lon="6.3255">
        <ele>2489.2</ele>
        <time>2021-02-28T06:58:36Z</time>
      </trkpt>
      <trkpt lat="45.14442" lon="6.3255">
        <ele>2489.8</ele>
        <time>2021-02-28T06:58:37Z</time>
      </trkpt>
      <trkpt lat="45.14442" lon="6.3255">
        <ele>2489.8</ele>
        <time>2021-02-28T06:58:38Z</time>
      </trkpt>
      <trkpt lat="45.14442" lon="6.3255">
        <ele>2489.4</ele>
        <time>2021-02-28T06:58:39Z</time>
      </trkpt>
      <trkpt lat="45.14442" lon="6.3255">
        <ele>2489.2</ele>
        <time>2021-02-28T06:58:40Z</time>
      </trkpt>
      <trkpt lat="45.14439" lon="6.32551">
        <ele>2489.4</ele>
        <time>2021-02-28T06:58:41Z</time>
      </trkpt>
      <trkpt lat="45.14439" lon="6.32551">
        <ele>2488.4</ele>
        <time>2021-02-28T06:58:42Z</time>
      </trkpt>
      <trkpt lat="45.14437" lon="6.32552">
        <ele>2489</ele>
        <time>2021-02-28T06:58:43Z</time>
      </trkpt>
      <trkpt lat="45.14437" lon="6.32552">
        <ele>2489.2</ele>
        <time>2021-02-28T06:58:44Z</time>
      </trkpt>
      <trkpt lat="45.14435" lon="6.32553">
        <ele>2489.6</ele>
        <time>2021-02-28T06:58:45Z</time>
      </trkpt>
      <trkpt lat="45.14435" lon="6.32553">
        <ele>2489.8</ele>
        <time>2021-02-28T06:58:46Z</time>
      </trkpt>
      <trkpt lat="45.14433" lon="6.32553">
        <ele>2489.4</ele>
        <time>2021-02-28T06:58:47Z</time>
      </trkpt>
      <trkpt lat="45.14433" lon="6.32553">
        <ele>2489.2</ele>
        <time>2021-02-28T06:58:48Z</time>
      </trkpt>
      <trkpt lat="45.14433" lon="6.32553">
        <ele>2490.2</ele>
        <time>2021-02-28T06:58:49Z</time>
      </trkpt>
      <trkpt lat="45.14431" lon="6.32553">
        <ele>2489.6</ele>
        <time>2021-02-28T06:58:50Z</time>
      </trkpt>
      <trkpt lat="45.14431" lon="6.32553">
        <ele>2490.2</ele>
        <time>2021-02-28T06:58:51Z</time>
      </trkpt>
      <trkpt lat="45.14431" lon="6.32553">
        <ele>2490.8</ele>
        <time>2021-02-28T06:58:52Z</time>
      </trkpt>
      <trkpt lat="45.14429" lon="6.32552">
        <ele>2490.6</ele>
        <time>2021-02-28T06:58:53Z</time>
      </trkpt>
      <trkpt lat="45.14429" lon="6.32552">
        <ele>2491</ele>
        <time>2021-02-28T06:58:54Z</time>
      </trkpt>
      <trkpt lat="45.14429" lon="6.32552">
        <ele>2491.2</ele>
        <time>2021-02-28T06:58:55Z</time>
      </trkpt>
      <trkpt lat="45.14427" lon="6.32551">
        <ele>2491.8</ele>
        <time>2021-02-28T06:58:56Z</time>
      </trkpt>
      <trkpt lat="45.14427" lon="6.32551">
        <ele>2492</ele>
        <time>2021-02-28T06:58:57Z</time>
      </trkpt>
      <trkpt lat="45.14427" lon="6.32551">
        <ele>2492.6</ele>
        <time>2021-02-28T06:58:58Z</time>
      </trkpt>
      <trkpt lat="45.14427" lon="6.32551">
        <ele>2493</ele>
        <time>2021-02-28T06:58:59Z</time>
      </trkpt>
      <trkpt lat="45.14424" lon="6.32553">
        <ele>2493.2</ele>
        <time>2021-02-28T06:59:00Z</time>
      </trkpt>
      <trkpt lat="45.14424" lon="6.32553">
        <ele>2493.2</ele>
        <time>2021-02-28T06:59:01Z</time>
      </trkpt>
      <trkpt lat="45.14424" lon="6.32553">
        <ele>2493.4</ele>
        <time>2021-02-28T06:59:02Z</time>
      </trkpt>
      <trkpt lat="45.14422" lon="6.32553">
        <ele>2493.6</ele>
        <time>2021-02-28T06:59:03Z</time>
      </trkpt>
      <trkpt lat="45.14422" lon="6.32553">
        <ele>2494</ele>
        <time>2021-02-28T06:59:04Z</time>
      </trkpt>
      <trkpt lat="45.14422" lon="6.32553">
        <ele>2494</ele>
        <time>2021-02-28T06:59:05Z</time>
      </trkpt>
      <trkpt lat="45.1442" lon="6.32554">
        <ele>2493.8</ele>
        <time>2021-02-28T06:59:06Z</time>
      </trkpt>
      <trkpt lat="45.1442" lon="6.32554">
        <ele>2494.2</ele>
        <time>2021-02-28T06:59:07Z</time>
      </trkpt>
      <trkpt lat="45.1442" lon="6.32554">
        <ele>2494.2</ele>
        <time>2021-02-28T06:59:08Z</time>
      </trkpt>
      <trkpt lat="45.14418" lon="6.32554">
        <ele>2494.4</ele>
        <time>2021-02-28T06:59:09Z</time>
      </trkpt>
      <trkpt lat="45.14418" lon="6.32554">
        <ele>2494.8</ele>
        <time>2021-02-28T06:59:10Z</time>
      </trkpt>
      <trkpt lat="45.14418" lon="6.32554">
        <ele>2495</ele>
        <time>2021-02-28T06:59:11Z</time>
      </trkpt>
      <trkpt lat="45.14415" lon="6.32555">
        <ele>2494.4</ele>
        <time>2021-02-28T06:59:12Z</time>
      </trkpt>
      <trkpt lat="45.14415" lon="6.32555">
        <ele>2494.4</ele>
        <time>2021-02-28T06:59:13Z</time>
      </trkpt>
      <trkpt lat="45.14413" lon="6.32556">
        <ele>2494.4</ele>
        <time>2021-02-28T06:59:14Z</time>
      </trkpt>
      <trkpt lat="45.14413" lon="6.32556">
        <ele>2494.8</ele>
        <time>2021-02-28T06:59:15Z</time>
      </trkpt>
      <trkpt lat="45.14411" lon="6.32555">
        <ele>2494.6</ele>
        <time>2021-02-28T06:59:16Z</time>
      </trkpt>
      <trkpt lat="45.14411" lon="6.32555">
        <ele>2495</ele>
        <time>2021-02-28T06:59:17Z</time>
      </trkpt>
      <trkpt lat="45.14409" lon="6.32553">
        <ele>2494.6</ele>
        <time>2021-02-28T06:59:18Z</time>
      </trkpt>
      <trkpt lat="45.14409" lon="6.32553">
        <ele>2494.8</ele>
        <time>2021-02-28T06:59:19Z</time>
      </trkpt>
      <trkpt lat="45.14407" lon="6.32551">
        <ele>2495.2</ele>
        <time>2021-02-28T06:59:20Z</time>
      </trkpt>
      <trkpt lat="45.14407" lon="6.32551">
        <ele>2495.4</ele>
        <time>2021-02-28T06:59:21Z</time>
      </trkpt>
      <trkpt lat="45.14406" lon="6.32548">
        <ele>2495</ele>
        <time>2021-02-28T06:59:22Z</time>
      </trkpt>
      <trkpt lat="45.14406" lon="6.32548">
        <ele>2495.2</ele>
        <time>2021-02-28T06:59:23Z</time>
      </trkpt>
      <trkpt lat="45.14406" lon="6.32548">
        <ele>2495.2</ele>
        <time>2021-02-28T06:59:24Z</time>
      </trkpt>
      <trkpt lat="45.14405" lon="6.32545">
        <ele>2495.8</ele>
        <time>2021-02-28T06:59:25Z</time>
      </trkpt>
      <trkpt lat="45.14405" lon="6.32545">
        <ele>2496.2</ele>
        <time>2021-02-28T06:59:26Z</time>
      </trkpt>
      <trkpt lat="45.14405" lon="6.32545">
        <ele>2496.4</ele>
        <time>2021-02-28T06:59:27Z</time>
      </trkpt>
      <trkpt lat="45.14405" lon="6.32542">
        <ele>2496.6</ele>
        <time>2021-02-28T06:59:28Z</time>
      </trkpt>
      <trkpt lat="45.14405" lon="6.32542">
        <ele>2497</ele>
        <time>2021-02-28T06:59:29Z</time>
      </trkpt>
      <trkpt lat="45.14405" lon="6.32542">
        <ele>2497.6</ele>
        <time>2021-02-28T06:59:30Z</time>
      </trkpt>
      <trkpt lat="45.14403" lon="6.32539">
        <ele>2497.8</ele>
        <time>2021-02-28T06:59:31Z</time>
      </trkpt>
      <trkpt lat="45.14403" lon="6.32539">
        <ele>2497.8</ele>
        <time>2021-02-28T06:59:32Z</time>
      </trkpt>
      <trkpt lat="45.14403" lon="6.32539">
        <ele>2498</ele>
        <time>2021-02-28T06:59:33Z</time>
      </trkpt>
      <trkpt lat="45.14402" lon="6.32537">
        <ele>2497</ele>
        <time>2021-02-28T06:59:34Z</time>
      </trkpt>
      <trkpt lat="45.14402" lon="6.32537">
        <ele>2497.2</ele>
        <time>2021-02-28T06:59:35Z</time>
      </trkpt>
      <trkpt lat="45.144" lon="6.32535">
        <ele>2497.2</ele>
        <time>2021-02-28T06:59:36Z</time>
      </trkpt>
      <trkpt lat="45.144" lon="6.32535">
        <ele>2497.8</ele>
        <time>2021-02-28T06:59:37Z</time>
      </trkpt>
      <trkpt lat="45.14399" lon="6.32533">
        <ele>2498.2</ele>
        <time>2021-02-28T06:59:38Z</time>
      </trkpt>
      <trkpt lat="45.14399" lon="6.32533">
        <ele>2498.6</ele>
        <time>2021-02-28T06:59:39Z</time>
      </trkpt>
      <trkpt lat="45.14397" lon="6.32532">
        <ele>2499.2</ele>
        <time>2021-02-28T06:59:40Z</time>
      </trkpt>
      <trkpt lat="45.14397" lon="6.32532">
        <ele>2499</ele>
        <time>2021-02-28T06:59:41Z</time>
      </trkpt>
      <trkpt lat="45.14397" lon="6.32532">
        <ele>2499.2</ele>
        <time>2021-02-28T06:59:42Z</time>
      </trkpt>
      <trkpt lat="45.14395" lon="6.3253">
        <ele>2499</ele>
        <time>2021-02-28T06:59:43Z</time>
      </trkpt>
      <trkpt lat="45.14395" lon="6.3253">
        <ele>2499.4</ele>
        <time>2021-02-28T06:59:44Z</time>
      </trkpt>
      <trkpt lat="45.14393" lon="6.32529">
        <ele>2499</ele>
        <time>2021-02-28T06:59:45Z</time>
      </trkpt>
      <trkpt lat="45.14393" lon="6.32529">
        <ele>2499.4</ele>
        <time>2021-02-28T06:59:46Z</time>
      </trkpt>
      <trkpt lat="45.14393" lon="6.32529">
        <ele>2500</ele>
        <time>2021-02-28T06:59:47Z</time>
      </trkpt>
      <trkpt lat="45.14391" lon="6.32528">
        <ele>2498.8</ele>
        <time>2021-02-28T06:59:48Z</time>
      </trkpt>
      <trkpt lat="45.14391" lon="6.32528">
        <ele>2499.4</ele>
        <time>2021-02-28T06:59:49Z</time>
      </trkpt>
      <trkpt lat="45.14391" lon="6.32528">
        <ele>2500.4</ele>
        <time>2021-02-28T06:59:50Z</time>
      </trkpt>
      <trkpt lat="45.14389" lon="6.32529">
        <ele>2499.6</ele>
        <time>2021-02-28T06:59:51Z</time>
      </trkpt>
      <trkpt lat="45.14389" lon="6.32529">
        <ele>2500.6</ele>
        <time>2021-02-28T06:59:52Z</time>
      </trkpt>
      <trkpt lat="45.14389" lon="6.32529">
        <ele>2501.2</ele>
        <time>2021-02-28T06:59:53Z</time>
      </trkpt>
      <trkpt lat="45.14387" lon="6.32531">
        <ele>2501.6</ele>
        <time>2021-02-28T06:59:54Z</time>
      </trkpt>
      <trkpt lat="45.14387" lon="6.32531">
        <ele>2502.4</ele>
        <time>2021-02-28T06:59:55Z</time>
      </trkpt>
      <trkpt lat="45.14387" lon="6.32531">
        <ele>2502</ele>
        <time>2021-02-28T06:59:56Z</time>
      </trkpt>
      <trkpt lat="45.14386" lon="6.32533">
        <ele>2502.6</ele>
        <time>2021-02-28T06:59:57Z</time>
      </trkpt>
      <trkpt lat="45.14386" lon="6.32533">
        <ele>2503</ele>
        <time>2021-02-28T06:59:58Z</time>
      </trkpt>
      <trkpt lat="45.14385" lon="6.32536">
        <ele>2502.6</ele>
        <time>2021-02-28T06:59:59Z</time>
      </trkpt>
      <trkpt lat="45.14385" lon="6.32536">
        <ele>2503.4</ele>
        <time>2021-02-28T07:00:00Z</time>
      </trkpt>
      <trkpt lat="45.14385" lon="6.32536">
        <ele>2503.8</ele>
        <time>2021-02-28T07:00:01Z</time>
      </trkpt>
      <trkpt lat="45.14384" lon="6.32538">
        <ele>2503.6</ele>
        <time>2021-02-28T07:00:02Z</time>
      </trkpt>
      <trkpt lat="45.14384" lon="6.32538">
        <ele>2504.2</ele>
        <time>2021-02-28T07:00:03Z</time>
      </trkpt>
      <trkpt lat="45.14384" lon="6.32538">
        <ele>2504.8</ele>
        <time>2021-02-28T07:00:04Z</time>
      </trkpt>
      <trkpt lat="45.14382" lon="6.3254">
        <ele>2504.8</ele>
        <time>2021-02-28T07:00:05Z</time>
      </trkpt>
      <trkpt lat="45.14382" lon="6.3254">
        <ele>2505</ele>
        <time>2021-02-28T07:00:06Z</time>
      </trkpt>
      <trkpt lat="45.14382" lon="6.3254">
        <ele>2504.6</ele>
        <time>2021-02-28T07:00:07Z</time>
      </trkpt>
      <trkpt lat="45.1438" lon="6.32542">
        <ele>2504.8</ele>
        <time>2021-02-28T07:00:08Z</time>
      </trkpt>
      <trkpt lat="45.1438" lon="6.32542">
        <ele>2505.2</ele>
        <time>2021-02-28T07:00:09Z</time>
      </trkpt>
      <trkpt lat="45.1438" lon="6.32542">
        <ele>2505.6</ele>
        <time>2021-02-28T07:00:10Z</time>
      </trkpt>
      <trkpt lat="45.1438" lon="6.32542">
        <ele>2505.4</ele>
        <time>2021-02-28T07:00:11Z</time>
      </trkpt>
      <trkpt lat="45.1438" lon="6.32542">
        <ele>2505.8</ele>
        <time>2021-02-28T07:00:12Z</time>
      </trkpt>
      <trkpt lat="45.14379" lon="6.32544">
        <ele>2506</ele>
        <time>2021-02-28T07:00:13Z</time>
      </trkpt>
      <trkpt lat="45.14379" lon="6.32544">
        <ele>2506</ele>
        <time>2021-02-28T07:00:14Z</time>
      </trkpt>
      <trkpt lat="45.14377" lon="6.32546">
        <ele>2506.6</ele>
        <time>2021-02-28T07:00:15Z</time>
      </trkpt>
      <trkpt lat="45.14377" lon="6.32546">
        <ele>2507.2</ele>
        <time>2021-02-28T07:00:16Z</time>
      </trkpt>
      <trkpt lat="45.14377" lon="6.32546">
        <ele>2506.4</ele>
        <time>2021-02-28T07:00:17Z</time>
      </trkpt>
      <trkpt lat="45.14376" lon="6.32548">
        <ele>2507.2</ele>
        <time>2021-02-28T07:00:18Z</time>
      </trkpt>
      <trkpt lat="45.14376" lon="6.32548">
        <ele>2507</ele>
        <time>2021-02-28T07:00:19Z</time>
      </trkpt>
      <trkpt lat="45.14375" lon="6.3255">
        <ele>2507.6</ele>
        <time>2021-02-28T07:00:20Z</time>
      </trkpt>
      <trkpt lat="45.14375" lon="6.3255">
        <ele>2508.4</ele>
        <time>2021-02-28T07:00:21Z</time>
      </trkpt>
      <trkpt lat="45.14375" lon="6.3255">
        <ele>2508.2</ele>
        <time>2021-02-28T07:00:22Z</time>
      </trkpt>
      <trkpt lat="45.14373" lon="6.32553">
        <ele>2508.4</ele>
        <time>2021-02-28T07:00:23Z</time>
      </trkpt>
      <trkpt lat="45.14373" lon="6.32553">
        <ele>2508.4</ele>
        <time>2021-02-28T07:00:24Z</time>
      </trkpt>
      <trkpt lat="45.14372" lon="6.32556">
        <ele>2509</ele>
        <time>2021-02-28T07:00:25Z</time>
      </trkpt>
      <trkpt lat="45.14372" lon="6.32556">
        <ele>2509.4</ele>
        <time>2021-02-28T07:00:26Z</time>
      </trkpt>
      <trkpt lat="45.14371" lon="6.32558">
        <ele>2509.8</ele>
        <time>2021-02-28T07:00:27Z</time>
      </trkpt>
      <trkpt lat="45.14371" lon="6.32558">
        <ele>2510</ele>
        <time>2021-02-28T07:00:28Z</time>
      </trkpt>
      <trkpt lat="45.14371" lon="6.32558">
        <ele>2510</ele>
        <time>2021-02-28T07:00:29Z</time>
      </trkpt>
      <trkpt lat="45.14369" lon="6.32561">
        <ele>2510.2</ele>
        <time>2021-02-28T07:00:30Z</time>
      </trkpt>
      <trkpt lat="45.14369" lon="6.32561">
        <ele>2510.6</ele>
        <time>2021-02-28T07:00:31Z</time>
      </trkpt>
      <trkpt lat="45.14368" lon="6.32564">
        <ele>2510.6</ele>
        <time>2021-02-28T07:00:32Z</time>
      </trkpt>
      <trkpt lat="45.14368" lon="6.32564">
        <ele>2511</ele>
        <time>2021-02-28T07:00:33Z</time>
      </trkpt>
      <trkpt lat="45.14368" lon="6.32564">
        <ele>2511.6</ele>
        <time>2021-02-28T07:00:34Z</time>
      </trkpt>
      <trkpt lat="45.14367" lon="6.32567">
        <ele>2511.6</ele>
        <time>2021-02-28T07:00:35Z</time>
      </trkpt>
      <trkpt lat="45.14367" lon="6.32567">
        <ele>2511.4</ele>
        <time>2021-02-28T07:00:36Z</time>
      </trkpt>
      <trkpt lat="45.14365" lon="6.32569">
        <ele>2511.6</ele>
        <time>2021-02-28T07:00:37Z</time>
      </trkpt>
      <trkpt lat="45.14365" lon="6.32569">
        <ele>2511.2</ele>
        <time>2021-02-28T07:00:38Z</time>
      </trkpt>
      <trkpt lat="45.14365" lon="6.32569">
        <ele>2511.4</ele>
        <time>2021-02-28T07:00:39Z</time>
      </trkpt>
      <trkpt lat="45.14363" lon="6.32571">
        <ele>2512</ele>
        <time>2021-02-28T07:00:40Z</time>
      </trkpt>
      <trkpt lat="45.14363" lon="6.32571">
        <ele>2510.8</ele>
        <time>2021-02-28T07:00:41Z</time>
      </trkpt>
      <trkpt lat="45.14363" lon="6.32571">
        <ele>2511.6</ele>
        <time>2021-02-28T07:00:42Z</time>
      </trkpt>
      <trkpt lat="45.14363" lon="6.32571">
        <ele>2512.4</ele>
        <time>2021-02-28T07:00:43Z</time>
      </trkpt>
      <trkpt lat="45.14363" lon="6.32571">
        <ele>2512.6</ele>
        <time>2021-02-28T07:00:44Z</time>
      </trkpt>
      <trkpt lat="45.14361" lon="6.32572">
        <ele>2513.6</ele>
        <time>2021-02-28T07:00:45Z</time>
      </trkpt>
      <trkpt lat="45.14361" lon="6.32572">
        <ele>2514.6</ele>
        <time>2021-02-28T07:00:46Z</time>
      </trkpt>
      <trkpt lat="45.14359" lon="6.32573">
        <ele>2514.8</ele>
        <time>2021-02-28T07:00:47Z</time>
      </trkpt>
      <trkpt lat="45.14359" lon="6.32573">
        <ele>2514.8</ele>
        <time>2021-02-28T07:00:48Z</time>
      </trkpt>
      <trkpt lat="45.14357" lon="6.32573">
        <ele>2515.2</ele>
        <time>2021-02-28T07:00:49Z</time>
      </trkpt>
      <trkpt lat="45.14357" lon="6.32573">
        <ele>2514.4</ele>
        <time>2021-02-28T07:00:50Z</time>
      </trkpt>
      <trkpt lat="45.14355" lon="6.32574">
        <ele>2514.6</ele>
        <time>2021-02-28T07:00:51Z</time>
      </trkpt>
      <trkpt lat="45.14355" lon="6.32574">
        <ele>2515.2</ele>
        <time>2021-02-28T07:00:52Z</time>
      </trkpt>
      <trkpt lat="45.14355" lon="6.32574">
        <ele>2514.4</ele>
        <time>2021-02-28T07:00:53Z</time>
      </trkpt>
      <trkpt lat="45.14353" lon="6.32574">
        <ele>2515</ele>
        <time>2021-02-28T07:00:54Z</time>
      </trkpt>
      <trkpt lat="45.14353" lon="6.32574">
        <ele>2515.8</ele>
        <time>2021-02-28T07:00:55Z</time>
      </trkpt>
      <trkpt lat="45.14353" lon="6.32574">
        <ele>2516.6</ele>
        <time>2021-02-28T07:00:56Z</time>
      </trkpt>
      <trkpt lat="45.14353" lon="6.32574">
        <ele>2516.8</ele>
        <time>2021-02-28T07:00:57Z</time>
      </trkpt>
      <trkpt lat="45.14351" lon="6.32576">
        <ele>2517</ele>
        <time>2021-02-28T07:00:58Z</time>
      </trkpt>
      <trkpt lat="45.14351" lon="6.32576">
        <ele>2516.8</ele>
        <time>2021-02-28T07:00:59Z</time>
      </trkpt>
      <trkpt lat="45.14351" lon="6.32579">
        <ele>2516.4</ele>
        <time>2021-02-28T07:01:00Z</time>
      </trkpt>
      <trkpt lat="45.14351" lon="6.32579">
        <ele>2517</ele>
        <time>2021-02-28T07:01:01Z</time>
      </trkpt>
      <trkpt lat="45.14351" lon="6.32582">
        <ele>2516.8</ele>
        <time>2021-02-28T07:01:02Z</time>
      </trkpt>
      <trkpt lat="45.14351" lon="6.32582">
        <ele>2517.4</ele>
        <time>2021-02-28T07:01:03Z</time>
      </trkpt>
      <trkpt lat="45.14351" lon="6.32582">
        <ele>2517.8</ele>
        <time>2021-02-28T07:01:04Z</time>
      </trkpt>
      <trkpt lat="45.14351" lon="6.32586">
        <ele>2517.8</ele>
        <time>2021-02-28T07:01:05Z</time>
      </trkpt>
      <trkpt lat="45.14351" lon="6.32586">
        <ele>2518.4</ele>
        <time>2021-02-28T07:01:06Z</time>
      </trkpt>
      <trkpt lat="45.14351" lon="6.32589">
        <ele>2518.4</ele>
        <time>2021-02-28T07:01:07Z</time>
      </trkpt>
      <trkpt lat="45.14351" lon="6.32589">
        <ele>2518.2</ele>
        <time>2021-02-28T07:01:08Z</time>
      </trkpt>
      <trkpt lat="45.14351" lon="6.32589">
        <ele>2518.8</ele>
        <time>2021-02-28T07:01:09Z</time>
      </trkpt>
      <trkpt lat="45.14352" lon="6.32592">
        <ele>2519.2</ele>
        <time>2021-02-28T07:01:10Z</time>
      </trkpt>
      <trkpt lat="45.14352" lon="6.32592">
        <ele>2519.2</ele>
        <time>2021-02-28T07:01:11Z</time>
      </trkpt>
      <trkpt lat="45.14352" lon="6.32592">
        <ele>2519.6</ele>
        <time>2021-02-28T07:01:12Z</time>
      </trkpt>
      <trkpt lat="45.14351" lon="6.32595">
        <ele>2519.8</ele>
        <time>2021-02-28T07:01:13Z</time>
      </trkpt>
      <trkpt lat="45.14351" lon="6.32595">
        <ele>2520.2</ele>
        <time>2021-02-28T07:01:14Z</time>
      </trkpt>
      <trkpt lat="45.14351" lon="6.32595">
        <ele>2520.6</ele>
        <time>2021-02-28T07:01:15Z</time>
      </trkpt>
      <trkpt lat="45.1435" lon="6.32597">
        <ele>2521</ele>
        <time>2021-02-28T07:01:16Z</time>
      </trkpt>
      <trkpt lat="45.1435" lon="6.32597">
        <ele>2521.2</ele>
        <time>2021-02-28T07:01:17Z</time>
      </trkpt>
      <trkpt lat="45.1435" lon="6.32597">
        <ele>2521.2</ele>
        <time>2021-02-28T07:01:18Z</time>
      </trkpt>
      <trkpt lat="45.14347" lon="6.32598">
        <ele>2520.8</ele>
        <time>2021-02-28T07:01:19Z</time>
      </trkpt>
      <trkpt lat="45.14347" lon="6.32598">
        <ele>2521</ele>
        <time>2021-02-28T07:01:20Z</time>
      </trkpt>
      <trkpt lat="45.14345" lon="6.326">
        <ele>2521</ele>
        <time>2021-02-28T07:01:21Z</time>
      </trkpt>
      <trkpt lat="45.14345" lon="6.326">
        <ele>2520.4</ele>
        <time>2021-02-28T07:01:22Z</time>
      </trkpt>
      <trkpt lat="45.14344" lon="6.32601">
        <ele>2520.8</ele>
        <time>2021-02-28T07:01:23Z</time>
      </trkpt>
      <trkpt lat="45.14344" lon="6.32601">
        <ele>2520.8</ele>
        <time>2021-02-28T07:01:24Z</time>
      </trkpt>
      <trkpt lat="45.14344" lon="6.32601">
        <ele>2521.4</ele>
        <time>2021-02-28T07:01:25Z</time>
      </trkpt>
      <trkpt lat="45.14342" lon="6.32603">
        <ele>2521.4</ele>
        <time>2021-02-28T07:01:26Z</time>
      </trkpt>
      <trkpt lat="45.14342" lon="6.32603">
        <ele>2522</ele>
        <time>2021-02-28T07:01:27Z</time>
      </trkpt>
      <trkpt lat="45.14341" lon="6.32605">
        <ele>2522.2</ele>
        <time>2021-02-28T07:01:28Z</time>
      </trkpt>
      <trkpt lat="45.14341" lon="6.32605">
        <ele>2522.2</ele>
        <time>2021-02-28T07:01:29Z</time>
      </trkpt>
      <trkpt lat="45.14341" lon="6.32605">
        <ele>2522.6</ele>
        <time>2021-02-28T07:01:30Z</time>
      </trkpt>
      <trkpt lat="45.14339" lon="6.32607">
        <ele>2522.6</ele>
        <time>2021-02-28T07:01:31Z</time>
      </trkpt>
      <trkpt lat="45.14339" lon="6.32607">
        <ele>2523.6</ele>
        <time>2021-02-28T07:01:32Z</time>
      </trkpt>
      <trkpt lat="45.14338" lon="6.32609">
        <ele>2523.6</ele>
        <time>2021-02-28T07:01:33Z</time>
      </trkpt>
      <trkpt lat="45.14338" lon="6.32609">
        <ele>2523.8</ele>
        <time>2021-02-28T07:01:34Z</time>
      </trkpt>
      <trkpt lat="45.14337" lon="6.32611">
        <ele>2524.2</ele>
        <time>2021-02-28T07:01:35Z</time>
      </trkpt>
      <trkpt lat="45.14337" lon="6.32611">
        <ele>2523.8</ele>
        <time>2021-02-28T07:01:36Z</time>
      </trkpt>
      <trkpt lat="45.14335" lon="6.32612">
        <ele>2524.4</ele>
        <time>2021-02-28T07:01:37Z</time>
      </trkpt>
      <trkpt lat="45.14335" lon="6.32612">
        <ele>2524.6</ele>
        <time>2021-02-28T07:01:38Z</time>
      </trkpt>
      <trkpt lat="45.14333" lon="6.32614">
        <ele>2524.8</ele>
        <time>2021-02-28T07:01:39Z</time>
      </trkpt>
      <trkpt lat="45.14333" lon="6.32614">
        <ele>2525.2</ele>
        <time>2021-02-28T07:01:40Z</time>
      </trkpt>
      <trkpt lat="45.14331" lon="6.32615">
        <ele>2524.8</ele>
        <time>2021-02-28T07:01:41Z</time>
      </trkpt>
      <trkpt lat="45.14331" lon="6.32615">
        <ele>2525</ele>
        <time>2021-02-28T07:01:42Z</time>
      </trkpt>
      <trkpt lat="45.1433" lon="6.32617">
        <ele>2524.6</ele>
        <time>2021-02-28T07:01:43Z</time>
      </trkpt>
      <trkpt lat="45.1433" lon="6.32617">
        <ele>2524.6</ele>
        <time>2021-02-28T07:01:44Z</time>
      </trkpt>
      <trkpt lat="45.14328" lon="6.32618">
        <ele>2524.8</ele>
        <time>2021-02-28T07:01:45Z</time>
      </trkpt>
      <trkpt lat="45.14328" lon="6.32618">
        <ele>2525.2</ele>
        <time>2021-02-28T07:01:46Z</time>
      </trkpt>
      <trkpt lat="45.14326" lon="6.32621">
        <ele>2525.2</ele>
        <time>2021-02-28T07:01:47Z</time>
      </trkpt>
      <trkpt lat="45.14326" lon="6.32621">
        <ele>2525.2</ele>
        <time>2021-02-28T07:01:48Z</time>
      </trkpt>
      <trkpt lat="45.14326" lon="6.32621">
        <ele>2525.8</ele>
        <time>2021-02-28T07:01:49Z</time>
      </trkpt>
      <trkpt lat="45.14324" lon="6.32624">
        <ele>2525.8</ele>
        <time>2021-02-28T07:01:50Z</time>
      </trkpt>
      <trkpt lat="45.14324" lon="6.32624">
        <ele>2526</ele>
        <time>2021-02-28T07:01:51Z</time>
      </trkpt>
      <trkpt lat="45.14324" lon="6.32624">
        <ele>2526</ele>
        <time>2021-02-28T07:01:52Z</time>
      </trkpt>
      <trkpt lat="45.14323" lon="6.32627">
        <ele>2526.6</ele>
        <time>2021-02-28T07:01:53Z</time>
      </trkpt>
      <trkpt lat="45.14323" lon="6.32627">
        <ele>2527</ele>
        <time>2021-02-28T07:01:54Z</time>
      </trkpt>
      <trkpt lat="45.14322" lon="6.32629">
        <ele>2527.4</ele>
        <time>2021-02-28T07:01:55Z</time>
      </trkpt>
      <trkpt lat="45.14322" lon="6.32629">
        <ele>2527.8</ele>
        <time>2021-02-28T07:01:56Z</time>
      </trkpt>
      <trkpt lat="45.1432" lon="6.32631">
        <ele>2528</ele>
        <time>2021-02-28T07:01:57Z</time>
      </trkpt>
      <trkpt lat="45.1432" lon="6.32631">
        <ele>2528</ele>
        <time>2021-02-28T07:01:58Z</time>
      </trkpt>
      <trkpt lat="45.14319" lon="6.32633">
        <ele>2528.4</ele>
        <time>2021-02-28T07:01:59Z</time>
      </trkpt>
      <trkpt lat="45.14319" lon="6.32633">
        <ele>2528.8</ele>
        <time>2021-02-28T07:02:00Z</time>
      </trkpt>
      <trkpt lat="45.14319" lon="6.32633">
        <ele>2528.8</ele>
        <time>2021-02-28T07:02:01Z</time>
      </trkpt>
      <trkpt lat="45.14317" lon="6.32634">
        <ele>2529.4</ele>
        <time>2021-02-28T07:02:02Z</time>
      </trkpt>
      <trkpt lat="45.14317" lon="6.32634">
        <ele>2529.4</ele>
        <time>2021-02-28T07:02:03Z</time>
      </trkpt>
      <trkpt lat="45.14317" lon="6.32634">
        <ele>2529.4</ele>
        <time>2021-02-28T07:02:04Z</time>
      </trkpt>
      <trkpt lat="45.14315" lon="6.32636">
        <ele>2530</ele>
        <time>2021-02-28T07:02:05Z</time>
      </trkpt>
      <trkpt lat="45.14315" lon="6.32636">
        <ele>2530</ele>
        <time>2021-02-28T07:02:06Z</time>
      </trkpt>
      <trkpt lat="45.14315" lon="6.32636">
        <ele>2530.6</ele>
        <time>2021-02-28T07:02:07Z</time>
      </trkpt>
      <trkpt lat="45.14313" lon="6.32638">
        <ele>2531.2</ele>
        <time>2021-02-28T07:02:08Z</time>
      </trkpt>
      <trkpt lat="45.14313" lon="6.32638">
        <ele>2531.2</ele>
        <time>2021-02-28T07:02:09Z</time>
      </trkpt>
      <trkpt lat="45.14313" lon="6.32638">
        <ele>2531.2</ele>
        <time>2021-02-28T07:02:10Z</time>
      </trkpt>
      <trkpt lat="45.14311" lon="6.32638">
        <ele>2531.6</ele>
        <time>2021-02-28T07:02:11Z</time>
      </trkpt>
      <trkpt lat="45.14311" lon="6.32638">
        <ele>2532</ele>
        <time>2021-02-28T07:02:12Z</time>
      </trkpt>
      <trkpt lat="45.14311" lon="6.32638">
        <ele>2531.8</ele>
        <time>2021-02-28T07:02:13Z</time>
      </trkpt>
      <trkpt lat="45.14309" lon="6.3264">
        <ele>2531.8</ele>
        <time>2021-02-28T07:02:14Z</time>
      </trkpt>
      <trkpt lat="45.14309" lon="6.3264">
        <ele>2532.4</ele>
        <time>2021-02-28T07:02:15Z</time>
      </trkpt>
      <trkpt lat="45.14307" lon="6.32641">
        <ele>2532.4</ele>
        <time>2021-02-28T07:02:16Z</time>
      </trkpt>
      <trkpt lat="45.14307" lon="6.32641">
        <ele>2532.6</ele>
        <time>2021-02-28T07:02:17Z</time>
      </trkpt>
      <trkpt lat="45.14306" lon="6.32643">
        <ele>2533.4</ele>
        <time>2021-02-28T07:02:18Z</time>
      </trkpt>
      <trkpt lat="45.14306" lon="6.32643">
        <ele>2533.4</ele>
        <time>2021-02-28T07:02:19Z</time>
      </trkpt>
      <trkpt lat="45.14306" lon="6.32643">
        <ele>2533.2</ele>
        <time>2021-02-28T07:02:20Z</time>
      </trkpt>
      <trkpt lat="45.14303" lon="6.32645">
        <ele>2533.8</ele>
        <time>2021-02-28T07:02:21Z</time>
      </trkpt>
      <trkpt lat="45.14303" lon="6.32645">
        <ele>2533.8</ele>
        <time>2021-02-28T07:02:22Z</time>
      </trkpt>
      <trkpt lat="45.14303" lon="6.32645">
        <ele>2533.8</ele>
        <time>2021-02-28T07:02:23Z</time>
      </trkpt>
      <trkpt lat="45.14301" lon="6.32646">
        <ele>2534.2</ele>
        <time>2021-02-28T07:02:24Z</time>
      </trkpt>
      <trkpt lat="45.14301" lon="6.32646">
        <ele>2535</ele>
        <time>2021-02-28T07:02:25Z</time>
      </trkpt>
      <trkpt lat="45.143" lon="6.32648">
        <ele>2534.4</ele>
        <time>2021-02-28T07:02:26Z</time>
      </trkpt>
      <trkpt lat="45.143" lon="6.32648">
        <ele>2535</ele>
        <time>2021-02-28T07:02:27Z</time>
      </trkpt>
      <trkpt lat="45.14298" lon="6.32649">
        <ele>2535.4</ele>
        <time>2021-02-28T07:02:28Z</time>
      </trkpt>
      <trkpt lat="45.14298" lon="6.32649">
        <ele>2536.2</ele>
        <time>2021-02-28T07:02:29Z</time>
      </trkpt>
      <trkpt lat="45.14298" lon="6.32649">
        <ele>2536.2</ele>
        <time>2021-02-28T07:02:30Z</time>
      </trkpt>
      <trkpt lat="45.14296" lon="6.3265">
        <ele>2536.2</ele>
        <time>2021-02-28T07:02:31Z</time>
      </trkpt>
      <trkpt lat="45.14296" lon="6.3265">
        <ele>2536.6</ele>
        <time>2021-02-28T07:02:32Z</time>
      </trkpt>
      <trkpt lat="45.14294" lon="6.32651">
        <ele>2536.6</ele>
        <time>2021-02-28T07:02:33Z</time>
      </trkpt>
      <trkpt lat="45.14294" lon="6.32651">
        <ele>2537.2</ele>
        <time>2021-02-28T07:02:34Z</time>
      </trkpt>
      <trkpt lat="45.14294" lon="6.32651">
        <ele>2536.4</ele>
        <time>2021-02-28T07:02:35Z</time>
      </trkpt>
      <trkpt lat="45.14292" lon="6.32652">
        <ele>2536.8</ele>
        <time>2021-02-28T07:02:36Z</time>
      </trkpt>
      <trkpt lat="45.14292" lon="6.32652">
        <ele>2536.8</ele>
        <time>2021-02-28T07:02:37Z</time>
      </trkpt>
      <trkpt lat="45.1429" lon="6.32654">
        <ele>2537.6</ele>
        <time>2021-02-28T07:02:38Z</time>
      </trkpt>
      <trkpt lat="45.1429" lon="6.32654">
        <ele>2538</ele>
        <time>2021-02-28T07:02:39Z</time>
      </trkpt>
      <trkpt lat="45.1429" lon="6.32654">
        <ele>2537.2</ele>
        <time>2021-02-28T07:02:40Z</time>
      </trkpt>
      <trkpt lat="45.14288" lon="6.32656">
        <ele>2538.4</ele>
        <time>2021-02-28T07:02:41Z</time>
      </trkpt>
      <trkpt lat="45.14288" lon="6.32656">
        <ele>2539</ele>
        <time>2021-02-28T07:02:42Z</time>
      </trkpt>
      <trkpt lat="45.14285" lon="6.32657">
        <ele>2539.2</ele>
        <time>2021-02-28T07:02:43Z</time>
      </trkpt>
      <trkpt lat="45.14285" lon="6.32657">
        <ele>2539.2</ele>
        <time>2021-02-28T07:02:44Z</time>
      </trkpt>
      <trkpt lat="45.14284" lon="6.32659">
        <ele>2540</ele>
        <time>2021-02-28T07:02:45Z</time>
      </trkpt>
      <trkpt lat="45.14284" lon="6.32659">
        <ele>2540</ele>
        <time>2021-02-28T07:02:46Z</time>
      </trkpt>
      <trkpt lat="45.14282" lon="6.3266">
        <ele>2539.2</ele>
        <time>2021-02-28T07:02:47Z</time>
      </trkpt>
      <trkpt lat="45.14282" lon="6.3266">
        <ele>2539.2</ele>
        <time>2021-02-28T07:02:48Z</time>
      </trkpt>
      <trkpt lat="45.1428" lon="6.32662">
        <ele>2539.8</ele>
        <time>2021-02-28T07:02:49Z</time>
      </trkpt>
      <trkpt lat="45.1428" lon="6.32662">
        <ele>2540.4</ele>
        <time>2021-02-28T07:02:50Z</time>
      </trkpt>
      <trkpt lat="45.14278" lon="6.32664">
        <ele>2540.6</ele>
        <time>2021-02-28T07:02:51Z</time>
      </trkpt>
      <trkpt lat="45.14278" lon="6.32664">
        <ele>2541.2</ele>
        <time>2021-02-28T07:02:52Z</time>
      </trkpt>
      <trkpt lat="45.14277" lon="6.32665">
        <ele>2540.6</ele>
        <time>2021-02-28T07:02:53Z</time>
      </trkpt>
      <trkpt lat="45.14277" lon="6.32665">
        <ele>2540.2</ele>
        <time>2021-02-28T07:02:54Z</time>
      </trkpt>
      <trkpt lat="45.14275" lon="6.32667">
        <ele>2540.6</ele>
        <time>2021-02-28T07:02:55Z</time>
      </trkpt>
      <trkpt lat="45.14275" lon="6.32667">
        <ele>2541.2</ele>
        <time>2021-02-28T07:02:56Z</time>
      </trkpt>
      <trkpt lat="45.14274" lon="6.32669">
        <ele>2540.6</ele>
        <time>2021-02-28T07:02:57Z</time>
      </trkpt>
      <trkpt lat="45.14274" lon="6.32669">
        <ele>2540.8</ele>
        <time>2021-02-28T07:02:58Z</time>
      </trkpt>
      <trkpt lat="45.14272" lon="6.3267">
        <ele>2541.4</ele>
        <time>2021-02-28T07:02:59Z</time>
      </trkpt>
      <trkpt lat="45.14272" lon="6.3267">
        <ele>2541.4</ele>
        <time>2021-02-28T07:03:00Z</time>
      </trkpt>
      <trkpt lat="45.14272" lon="6.3267">
        <ele>2542.2</ele>
        <time>2021-02-28T07:03:01Z</time>
      </trkpt>
      <trkpt lat="45.1427" lon="6.32672">
        <ele>2542.2</ele>
        <time>2021-02-28T07:03:02Z</time>
      </trkpt>
      <trkpt lat="45.1427" lon="6.32672">
        <ele>2542.6</ele>
        <time>2021-02-28T07:03:03Z</time>
      </trkpt>
      <trkpt lat="45.1427" lon="6.32672">
        <ele>2543.2</ele>
        <time>2021-02-28T07:03:04Z</time>
      </trkpt>
      <trkpt lat="45.14267" lon="6.32674">
        <ele>2542.8</ele>
        <time>2021-02-28T07:03:05Z</time>
      </trkpt>
      <trkpt lat="45.14267" lon="6.32674">
        <ele>2543</ele>
        <time>2021-02-28T07:03:06Z</time>
      </trkpt>
      <trkpt lat="45.14266" lon="6.32676">
        <ele>2543.4</ele>
        <time>2021-02-28T07:03:07Z</time>
      </trkpt>
      <trkpt lat="45.14266" lon="6.32676">
        <ele>2544.2</ele>
        <time>2021-02-28T07:03:08Z</time>
      </trkpt>
      <trkpt lat="45.14264" lon="6.32678">
        <ele>2544.6</ele>
        <time>2021-02-28T07:03:09Z</time>
      </trkpt>
      <trkpt lat="45.14264" lon="6.32678">
        <ele>2544.8</ele>
        <time>2021-02-28T07:03:10Z</time>
      </trkpt>
      <trkpt lat="45.14263" lon="6.32679">
        <ele>2545.4</ele>
        <time>2021-02-28T07:03:11Z</time>
      </trkpt>
      <trkpt lat="45.14263" lon="6.32679">
        <ele>2545</ele>
        <time>2021-02-28T07:03:12Z</time>
      </trkpt>
      <trkpt lat="45.14261" lon="6.32681">
        <ele>2545.2</ele>
        <time>2021-02-28T07:03:13Z</time>
      </trkpt>
      <trkpt lat="45.14261" lon="6.32681">
        <ele>2545.6</ele>
        <time>2021-02-28T07:03:14Z</time>
      </trkpt>
      <trkpt lat="45.14259" lon="6.32683">
        <ele>2545.8</ele>
        <time>2021-02-28T07:03:15Z</time>
      </trkpt>
      <trkpt lat="45.14259" lon="6.32683">
        <ele>2545.8</ele>
        <time>2021-02-28T07:03:16Z</time>
      </trkpt>
      <trkpt lat="45.14259" lon="6.32683">
        <ele>2545.8</ele>
        <time>2021-02-28T07:03:17Z</time>
      </trkpt>
      <trkpt lat="45.14257" lon="6.32684">
        <ele>2546.4</ele>
        <time>2021-02-28T07:03:18Z</time>
      </trkpt>
      <trkpt lat="45.14257" lon="6.32684">
        <ele>2546.8</ele>
        <time>2021-02-28T07:03:19Z</time>
      </trkpt>
      <trkpt lat="45.14257" lon="6.32684">
        <ele>2546.6</ele>
        <time>2021-02-28T07:03:20Z</time>
      </trkpt>
      <trkpt lat="45.14254" lon="6.32685">
        <ele>2547.4</ele>
        <time>2021-02-28T07:03:21Z</time>
      </trkpt>
      <trkpt lat="45.14254" lon="6.32685">
        <ele>2547.6</ele>
        <time>2021-02-28T07:03:22Z</time>
      </trkpt>
      <trkpt lat="45.14254" lon="6.32685">
        <ele>2548.2</ele>
        <time>2021-02-28T07:03:23Z</time>
      </trkpt>
      <trkpt lat="45.14252" lon="6.32686">
        <ele>2548</ele>
        <time>2021-02-28T07:03:24Z</time>
      </trkpt>
      <trkpt lat="45.14252" lon="6.32686">
        <ele>2548.4</ele>
        <time>2021-02-28T07:03:25Z</time>
      </trkpt>
      <trkpt lat="45.1425" lon="6.32687">
        <ele>2548.6</ele>
        <time>2021-02-28T07:03:26Z</time>
      </trkpt>
      <trkpt lat="45.1425" lon="6.32687">
        <ele>2548.2</ele>
        <time>2021-02-28T07:03:27Z</time>
      </trkpt>
      <trkpt lat="45.1425" lon="6.32687">
        <ele>2548</ele>
        <time>2021-02-28T07:03:28Z</time>
      </trkpt>
      <trkpt lat="45.14247" lon="6.32687">
        <ele>2548</ele>
        <time>2021-02-28T07:03:29Z</time>
      </trkpt>
      <trkpt lat="45.14247" lon="6.32687">
        <ele>2548.4</ele>
        <time>2021-02-28T07:03:30Z</time>
      </trkpt>
      <trkpt lat="45.14247" lon="6.32687">
        <ele>2548.6</ele>
        <time>2021-02-28T07:03:31Z</time>
      </trkpt>
      <trkpt lat="45.14245" lon="6.32689">
        <ele>2549.2</ele>
        <time>2021-02-28T07:03:32Z</time>
      </trkpt>
      <trkpt lat="45.14245" lon="6.32689">
        <ele>2549.8</ele>
        <time>2021-02-28T07:03:33Z</time>
      </trkpt>
      <trkpt lat="45.14243" lon="6.3269">
        <ele>2549.6</ele>
        <time>2021-02-28T07:03:34Z</time>
      </trkpt>
      <trkpt lat="45.14243" lon="6.3269">
        <ele>2549.6</ele>
        <time>2021-02-28T07:03:35Z</time>
      </trkpt>
      <trkpt lat="45.14241" lon="6.3269">
        <ele>2550.2</ele>
        <time>2021-02-28T07:03:36Z</time>
      </trkpt>
      <trkpt lat="45.14241" lon="6.3269">
        <ele>2550.6</ele>
        <time>2021-02-28T07:03:37Z</time>
      </trkpt>
      <trkpt lat="45.14241" lon="6.3269">
        <ele>2550.6</ele>
        <time>2021-02-28T07:03:38Z</time>
      </trkpt>
      <trkpt lat="45.14239" lon="6.32691">
        <ele>2550.6</ele>
        <time>2021-02-28T07:03:39Z</time>
      </trkpt>
      <trkpt lat="45.14239" lon="6.32691">
        <ele>2551</ele>
        <time>2021-02-28T07:03:40Z</time>
      </trkpt>
      <trkpt lat="45.14237" lon="6.32691">
        <ele>2551.2</ele>
        <time>2021-02-28T07:03:41Z</time>
      </trkpt>
      <trkpt lat="45.14237" lon="6.32691">
        <ele>2551.2</ele>
        <time>2021-02-28T07:03:42Z</time>
      </trkpt>
      <trkpt lat="45.14235" lon="6.32692">
        <ele>2551.2</ele>
        <time>2021-02-28T07:03:43Z</time>
      </trkpt>
      <trkpt lat="45.14235" lon="6.32692">
        <ele>2550.8</ele>
        <time>2021-02-28T07:03:44Z</time>
      </trkpt>
      <trkpt lat="45.14232" lon="6.32693">
        <ele>2550.8</ele>
        <time>2021-02-28T07:03:45Z</time>
      </trkpt>
      <trkpt lat="45.14232" lon="6.32693">
        <ele>2550.4</ele>
        <time>2021-02-28T07:03:46Z</time>
      </trkpt>
      <trkpt lat="45.1423" lon="6.32693">
        <ele>2550.6</ele>
        <time>2021-02-28T07:03:47Z</time>
      </trkpt>
      <trkpt lat="45.1423" lon="6.32693">
        <ele>2551</ele>
        <time>2021-02-28T07:03:48Z</time>
      </trkpt>
      <trkpt lat="45.1423" lon="6.32693">
        <ele>2551</ele>
        <time>2021-02-28T07:03:49Z</time>
      </trkpt>
      <trkpt lat="45.14228" lon="6.32694">
        <ele>2550.8</ele>
        <time>2021-02-28T07:03:50Z</time>
      </trkpt>
      <trkpt lat="45.14228" lon="6.32694">
        <ele>2551</ele>
        <time>2021-02-28T07:03:51Z</time>
      </trkpt>
      <trkpt lat="45.14228" lon="6.32694">
        <ele>2551.2</ele>
        <time>2021-02-28T07:03:52Z</time>
      </trkpt>
      <trkpt lat="45.14225" lon="6.32695">
        <ele>2551.4</ele>
        <time>2021-02-28T07:03:53Z</time>
      </trkpt>
      <trkpt lat="45.14225" lon="6.32695">
        <ele>2551.6</ele>
        <time>2021-02-28T07:03:54Z</time>
      </trkpt>
      <trkpt lat="45.14223" lon="6.32697">
        <ele>2551.6</ele>
        <time>2021-02-28T07:03:55Z</time>
      </trkpt>
      <trkpt lat="45.14223" lon="6.32697">
        <ele>2551.2</ele>
        <time>2021-02-28T07:03:56Z</time>
      </trkpt>
      <trkpt lat="45.14221" lon="6.32697">
        <ele>2551.8</ele>
        <time>2021-02-28T07:03:57Z</time>
      </trkpt>
      <trkpt lat="45.14221" lon="6.32697">
        <ele>2552.2</ele>
        <time>2021-02-28T07:03:58Z</time>
      </trkpt>
      <trkpt lat="45.1422" lon="6.32698">
        <ele>2552.2</ele>
        <time>2021-02-28T07:03:59Z</time>
      </trkpt>
      <trkpt lat="45.1422" lon="6.32698">
        <ele>2553</ele>
        <time>2021-02-28T07:04:00Z</time>
      </trkpt>
      <trkpt lat="45.14218" lon="6.32698">
        <ele>2553.4</ele>
        <time>2021-02-28T07:04:01Z</time>
      </trkpt>
      <trkpt lat="45.14218" lon="6.32698">
        <ele>2553.4</ele>
        <time>2021-02-28T07:04:02Z</time>
      </trkpt>
      <trkpt lat="45.14216" lon="6.32699">
        <ele>2553.4</ele>
        <time>2021-02-28T07:04:03Z</time>
      </trkpt>
      <trkpt lat="45.14216" lon="6.32699">
        <ele>2553.6</ele>
        <time>2021-02-28T07:04:04Z</time>
      </trkpt>
      <trkpt lat="45.14214" lon="6.327">
        <ele>2554</ele>
        <time>2021-02-28T07:04:05Z</time>
      </trkpt>
      <trkpt lat="45.14214" lon="6.327">
        <ele>2553.6</ele>
        <time>2021-02-28T07:04:06Z</time>
      </trkpt>
      <trkpt lat="45.14212" lon="6.327">
        <ele>2554.2</ele>
        <time>2021-02-28T07:04:07Z</time>
      </trkpt>
      <trkpt lat="45.14212" lon="6.327">
        <ele>2554.6</ele>
        <time>2021-02-28T07:04:08Z</time>
      </trkpt>
      <trkpt lat="45.1421" lon="6.32699">
        <ele>2554.8</ele>
        <time>2021-02-28T07:04:09Z</time>
      </trkpt>
      <trkpt lat="45.1421" lon="6.32699">
        <ele>2555</ele>
        <time>2021-02-28T07:04:10Z</time>
      </trkpt>
      <trkpt lat="45.14208" lon="6.327">
        <ele>2555.6</ele>
        <time>2021-02-28T07:04:11Z</time>
      </trkpt>
      <trkpt lat="45.14208" lon="6.327">
        <ele>2556.2</ele>
        <time>2021-02-28T07:04:12Z</time>
      </trkpt>
      <trkpt lat="45.14205" lon="6.327">
        <ele>2556</ele>
        <time>2021-02-28T07:04:13Z</time>
      </trkpt>
      <trkpt lat="45.14205" lon="6.327">
        <ele>2556.2</ele>
        <time>2021-02-28T07:04:14Z</time>
      </trkpt>
      <trkpt lat="45.14203" lon="6.32701">
        <ele>2556.6</ele>
        <time>2021-02-28T07:04:15Z</time>
      </trkpt>
      <trkpt lat="45.14203" lon="6.32701">
        <ele>2556.6</ele>
        <time>2021-02-28T07:04:16Z</time>
      </trkpt>
      <trkpt lat="45.14201" lon="6.32702">
        <ele>2556.6</ele>
        <time>2021-02-28T07:04:17Z</time>
      </trkpt>
      <trkpt lat="45.14201" lon="6.32702">
        <ele>2556.8</ele>
        <time>2021-02-28T07:04:18Z</time>
      </trkpt>
      <trkpt lat="45.14199" lon="6.32703">
        <ele>2556.4</ele>
        <time>2021-02-28T07:04:19Z</time>
      </trkpt>
      <trkpt lat="45.14199" lon="6.32703">
        <ele>2556.4</ele>
        <time>2021-02-28T07:04:20Z</time>
      </trkpt>
      <trkpt lat="45.14197" lon="6.32704">
        <ele>2556.6</ele>
        <time>2021-02-28T07:04:21Z</time>
      </trkpt>
      <trkpt lat="45.14197" lon="6.32704">
        <ele>2557.2</ele>
        <time>2021-02-28T07:04:22Z</time>
      </trkpt>
      <trkpt lat="45.14195" lon="6.32705">
        <ele>2557</ele>
        <time>2021-02-28T07:04:23Z</time>
      </trkpt>
      <trkpt lat="45.14195" lon="6.32705">
        <ele>2557</ele>
        <time>2021-02-28T07:04:24Z</time>
      </trkpt>
      <trkpt lat="45.14195" lon="6.32705">
        <ele>2557.4</ele>
        <time>2021-02-28T07:04:25Z</time>
      </trkpt>
      <trkpt lat="45.14192" lon="6.32707">
        <ele>2558.2</ele>
        <time>2021-02-28T07:04:26Z</time>
      </trkpt>
      <trkpt lat="45.14192" lon="6.32707">
        <ele>2558.4</ele>
        <time>2021-02-28T07:04:27Z</time>
      </trkpt>
      <trkpt lat="45.14191" lon="6.32708">
        <ele>2559</ele>
        <time>2021-02-28T07:04:28Z</time>
      </trkpt>
      <trkpt lat="45.14191" lon="6.32708">
        <ele>2558.4</ele>
        <time>2021-02-28T07:04:29Z</time>
      </trkpt>
      <trkpt lat="45.14189" lon="6.32709">
        <ele>2559</ele>
        <time>2021-02-28T07:04:30Z</time>
      </trkpt>
      <trkpt lat="45.14189" lon="6.32709">
        <ele>2558.8</ele>
        <time>2021-02-28T07:04:31Z</time>
      </trkpt>
      <trkpt lat="45.14187" lon="6.3271">
        <ele>2559.4</ele>
        <time>2021-02-28T07:04:32Z</time>
      </trkpt>
      <trkpt lat="45.14187" lon="6.3271">
        <ele>2559.2</ele>
        <time>2021-02-28T07:04:33Z</time>
      </trkpt>
      <trkpt lat="45.14187" lon="6.3271">
        <ele>2559.8</ele>
        <time>2021-02-28T07:04:34Z</time>
      </trkpt>
      <trkpt lat="45.14184" lon="6.32711">
        <ele>2560.4</ele>
        <time>2021-02-28T07:04:35Z</time>
      </trkpt>
      <trkpt lat="45.14184" lon="6.32711">
        <ele>2560.8</ele>
        <time>2021-02-28T07:04:36Z</time>
      </trkpt>
      <trkpt lat="45.14182" lon="6.32712">
        <ele>2561</ele>
        <time>2021-02-28T07:04:37Z</time>
      </trkpt>
      <trkpt lat="45.14182" lon="6.32712">
        <ele>2561.6</ele>
        <time>2021-02-28T07:04:38Z</time>
      </trkpt>
      <trkpt lat="45.14181" lon="6.32714">
        <ele>2561.8</ele>
        <time>2021-02-28T07:04:39Z</time>
      </trkpt>
      <trkpt lat="45.14181" lon="6.32714">
        <ele>2561.8</ele>
        <time>2021-02-28T07:04:40Z</time>
      </trkpt>
      <trkpt lat="45.14179" lon="6.32716">
        <ele>2561.8</ele>
        <time>2021-02-28T07:04:41Z</time>
      </trkpt>
      <trkpt lat="45.14179" lon="6.32716">
        <ele>2562</ele>
        <time>2021-02-28T07:04:42Z</time>
      </trkpt>
      <trkpt lat="45.14178" lon="6.32718">
        <ele>2561.8</ele>
        <time>2021-02-28T07:04:43Z</time>
      </trkpt>
      <trkpt lat="45.14178" lon="6.32718">
        <ele>2562</ele>
        <time>2021-02-28T07:04:44Z</time>
      </trkpt>
      <trkpt lat="45.14176" lon="6.3272">
        <ele>2562.2</ele>
        <time>2021-02-28T07:04:45Z</time>
      </trkpt>
      <trkpt lat="45.14176" lon="6.3272">
        <ele>2562.2</ele>
        <time>2021-02-28T07:04:46Z</time>
      </trkpt>
      <trkpt lat="45.14175" lon="6.32722">
        <ele>2562.4</ele>
        <time>2021-02-28T07:04:47Z</time>
      </trkpt>
      <trkpt lat="45.14175" lon="6.32722">
        <ele>2562.6</ele>
        <time>2021-02-28T07:04:48Z</time>
      </trkpt>
      <trkpt lat="45.14174" lon="6.32724">
        <ele>2562.8</ele>
        <time>2021-02-28T07:04:49Z</time>
      </trkpt>
      <trkpt lat="45.14174" lon="6.32724">
        <ele>2563.2</ele>
        <time>2021-02-28T07:04:50Z</time>
      </trkpt>
      <trkpt lat="45.14174" lon="6.32724">
        <ele>2563.4</ele>
        <time>2021-02-28T07:04:51Z</time>
      </trkpt>
      <trkpt lat="45.14173" lon="6.32727">
        <ele>2563.6</ele>
        <time>2021-02-28T07:04:52Z</time>
      </trkpt>
      <trkpt lat="45.14173" lon="6.32727">
        <ele>2563.4</ele>
        <time>2021-02-28T07:04:53Z</time>
      </trkpt>
      <trkpt lat="45.14171" lon="6.3273">
        <ele>2563.4</ele>
        <time>2021-02-28T07:04:54Z</time>
      </trkpt>
      <trkpt lat="45.14171" lon="6.3273">
        <ele>2563.6</ele>
        <time>2021-02-28T07:04:55Z</time>
      </trkpt>
      <trkpt lat="45.1417" lon="6.32732">
        <ele>2563.2</ele>
        <time>2021-02-28T07:04:56Z</time>
      </trkpt>
      <trkpt lat="45.1417" lon="6.32732">
        <ele>2563.8</ele>
        <time>2021-02-28T07:04:57Z</time>
      </trkpt>
      <trkpt lat="45.14168" lon="6.32735">
        <ele>2564.2</ele>
        <time>2021-02-28T07:04:58Z</time>
      </trkpt>
      <trkpt lat="45.14168" lon="6.32735">
        <ele>2564.4</ele>
        <time>2021-02-28T07:04:59Z</time>
      </trkpt>
      <trkpt lat="45.14166" lon="6.32738">
        <ele>2565</ele>
        <time>2021-02-28T07:05:00Z</time>
      </trkpt>
      <trkpt lat="45.14166" lon="6.32738">
        <ele>2565</ele>
        <time>2021-02-28T07:05:01Z</time>
      </trkpt>
      <trkpt lat="45.14165" lon="6.3274">
        <ele>2564.6</ele>
        <time>2021-02-28T07:05:02Z</time>
      </trkpt>
      <trkpt lat="45.14165" lon="6.3274">
        <ele>2564.8</ele>
        <time>2021-02-28T07:05:03Z</time>
      </trkpt>
      <trkpt lat="45.14164" lon="6.32742">
        <ele>2564.4</ele>
        <time>2021-02-28T07:05:04Z</time>
      </trkpt>
      <trkpt lat="45.14164" lon="6.32742">
        <ele>2564</ele>
        <time>2021-02-28T07:05:05Z</time>
      </trkpt>
      <trkpt lat="45.14162" lon="6.32744">
        <ele>2564.2</ele>
        <time>2021-02-28T07:05:06Z</time>
      </trkpt>
      <trkpt lat="45.14162" lon="6.32744">
        <ele>2564.4</ele>
        <time>2021-02-28T07:05:07Z</time>
      </trkpt>
      <trkpt lat="45.14161" lon="6.32747">
        <ele>2564.2</ele>
        <time>2021-02-28T07:05:08Z</time>
      </trkpt>
      <trkpt lat="45.14161" lon="6.32747">
        <ele>2564.4</ele>
        <time>2021-02-28T07:05:09Z</time>
      </trkpt>
      <trkpt lat="45.1416" lon="6.32749">
        <ele>2564.6</ele>
        <time>2021-02-28T07:05:10Z</time>
      </trkpt>
      <trkpt lat="45.1416" lon="6.32749">
        <ele>2564.6</ele>
        <time>2021-02-28T07:05:11Z</time>
      </trkpt>
      <trkpt lat="45.14158" lon="6.32751">
        <ele>2564.6</ele>
        <time>2021-02-28T07:05:12Z</time>
      </trkpt>
      <trkpt lat="45.14158" lon="6.32751">
        <ele>2565</ele>
        <time>2021-02-28T07:05:13Z</time>
      </trkpt>
      <trkpt lat="45.14157" lon="6.32754">
        <ele>2565.2</ele>
        <time>2021-02-28T07:05:14Z</time>
      </trkpt>
      <trkpt lat="45.14157" lon="6.32754">
        <ele>2564.8</ele>
        <time>2021-02-28T07:05:15Z</time>
      </trkpt>
      <trkpt lat="45.14156" lon="6.32757">
        <ele>2564.6</ele>
        <time>2021-02-28T07:05:16Z</time>
      </trkpt>
      <trkpt lat="45.14156" lon="6.32757">
        <ele>2564.6</ele>
        <time>2021-02-28T07:05:17Z</time>
      </trkpt>
      <trkpt lat="45.14155" lon="6.32759">
        <ele>2564.6</ele>
        <time>2021-02-28T07:05:18Z</time>
      </trkpt>
      <trkpt lat="45.14155" lon="6.32759">
        <ele>2564.8</ele>
        <time>2021-02-28T07:05:19Z</time>
      </trkpt>
      <trkpt lat="45.14153" lon="6.32761">
        <ele>2564.6</ele>
        <time>2021-02-28T07:05:20Z</time>
      </trkpt>
      <trkpt lat="45.14153" lon="6.32761">
        <ele>2565</ele>
        <time>2021-02-28T07:05:21Z</time>
      </trkpt>
      <trkpt lat="45.14152" lon="6.32763">
        <ele>2566.2</ele>
        <time>2021-02-28T07:05:22Z</time>
      </trkpt>
      <trkpt lat="45.14152" lon="6.32763">
        <ele>2566.2</ele>
        <time>2021-02-28T07:05:23Z</time>
      </trkpt>
      <trkpt lat="45.14151" lon="6.32766">
        <ele>2565</ele>
        <time>2021-02-28T07:05:24Z</time>
      </trkpt>
      <trkpt lat="45.14151" lon="6.32766">
        <ele>2564.6</ele>
        <time>2021-02-28T07:05:25Z</time>
      </trkpt>
      <trkpt lat="45.1415" lon="6.32769">
        <ele>2564.4</ele>
        <time>2021-02-28T07:05:26Z</time>
      </trkpt>
      <trkpt lat="45.1415" lon="6.32769">
        <ele>2564.2</ele>
        <time>2021-02-28T07:05:27Z</time>
      </trkpt>
      <trkpt lat="45.14148" lon="6.32773">
        <ele>2564.2</ele>
        <time>2021-02-28T07:05:28Z</time>
      </trkpt>
      <trkpt lat="45.14148" lon="6.32773">
        <ele>2564.4</ele>
        <time>2021-02-28T07:05:29Z</time>
      </trkpt>
      <trkpt lat="45.14147" lon="6.32775">
        <ele>2565</ele>
        <time>2021-02-28T07:05:30Z</time>
      </trkpt>
      <trkpt lat="45.14147" lon="6.32775">
        <ele>2565.8</ele>
        <time>2021-02-28T07:05:31Z</time>
      </trkpt>
      <trkpt lat="45.14145" lon="6.32777">
        <ele>2565.8</ele>
        <time>2021-02-28T07:05:32Z</time>
      </trkpt>
      <trkpt lat="45.14145" lon="6.32777">
        <ele>2565.6</ele>
        <time>2021-02-28T07:05:33Z</time>
      </trkpt>
      <trkpt lat="45.14144" lon="6.32779">
        <ele>2565.4</ele>
        <time>2021-02-28T07:05:34Z</time>
      </trkpt>
      <trkpt lat="45.14144" lon="6.32779">
        <ele>2565.6</ele>
        <time>2021-02-28T07:05:35Z</time>
      </trkpt>
      <trkpt lat="45.14142" lon="6.32781">
        <ele>2565.4</ele>
        <time>2021-02-28T07:05:36Z</time>
      </trkpt>
      <trkpt lat="45.14142" lon="6.32781">
        <ele>2565.4</ele>
        <time>2021-02-28T07:05:37Z</time>
      </trkpt>
      <trkpt lat="45.14142" lon="6.32781">
        <ele>2565.2</ele>
        <time>2021-02-28T07:05:38Z</time>
      </trkpt>
      <trkpt lat="45.14141" lon="6.32784">
        <ele>2565</ele>
        <time>2021-02-28T07:05:39Z</time>
      </trkpt>
      <trkpt lat="45.14141" lon="6.32784">
        <ele>2565</ele>
        <time>2021-02-28T07:05:40Z</time>
      </trkpt>
      <trkpt lat="45.14139" lon="6.32786">
        <ele>2565.4</ele>
        <time>2021-02-28T07:05:41Z</time>
      </trkpt>
      <trkpt lat="45.14139" lon="6.32786">
        <ele>2565.4</ele>
        <time>2021-02-28T07:05:42Z</time>
      </trkpt>
      <trkpt lat="45.14138" lon="6.32788">
        <ele>2565.2</ele>
        <time>2021-02-28T07:05:43Z</time>
      </trkpt>
      <trkpt lat="45.14138" lon="6.32788">
        <ele>2565.2</ele>
        <time>2021-02-28T07:05:44Z</time>
      </trkpt>
      <trkpt lat="45.14136" lon="6.32789">
        <ele>2565</ele>
        <time>2021-02-28T07:05:45Z</time>
      </trkpt>
      <trkpt lat="45.14136" lon="6.32789">
        <ele>2564.8</ele>
        <time>2021-02-28T07:05:46Z</time>
      </trkpt>
      <trkpt lat="45.14134" lon="6.32791">
        <ele>2564.6</ele>
        <time>2021-02-28T07:05:47Z</time>
      </trkpt>
      <trkpt lat="45.14134" lon="6.32791">
        <ele>2564.6</ele>
        <time>2021-02-28T07:05:48Z</time>
      </trkpt>
      <trkpt lat="45.14133" lon="6.32793">
        <ele>2564.4</ele>
        <time>2021-02-28T07:05:49Z</time>
      </trkpt>
      <trkpt lat="45.14133" lon="6.32793">
        <ele>2564.2</ele>
        <time>2021-02-28T07:05:50Z</time>
      </trkpt>
      <trkpt lat="45.14132" lon="6.32795">
        <ele>2564.4</ele>
        <time>2021-02-28T07:05:51Z</time>
      </trkpt>
      <trkpt lat="45.14132" lon="6.32795">
        <ele>2564.6</ele>
        <time>2021-02-28T07:05:52Z</time>
      </trkpt>
      <trkpt lat="45.1413" lon="6.32797">
        <ele>2564.8</ele>
        <time>2021-02-28T07:05:53Z</time>
      </trkpt>
      <trkpt lat="45.1413" lon="6.32797">
        <ele>2565.2</ele>
        <time>2021-02-28T07:05:54Z</time>
      </trkpt>
      <trkpt lat="45.14128" lon="6.32799">
        <ele>2565.4</ele>
        <time>2021-02-28T07:05:55Z</time>
      </trkpt>
      <trkpt lat="45.14128" lon="6.32799">
        <ele>2565.8</ele>
        <time>2021-02-28T07:05:56Z</time>
      </trkpt>
      <trkpt lat="45.14127" lon="6.32801">
        <ele>2566.2</ele>
        <time>2021-02-28T07:05:57Z</time>
      </trkpt>
      <trkpt lat="45.14127" lon="6.32801">
        <ele>2566.4</ele>
        <time>2021-02-28T07:05:58Z</time>
      </trkpt>
      <trkpt lat="45.14125" lon="6.32803">
        <ele>2567</ele>
        <time>2021-02-28T07:05:59Z</time>
      </trkpt>
      <trkpt lat="45.14125" lon="6.32803">
        <ele>2567</ele>
        <time>2021-02-28T07:06:00Z</time>
      </trkpt>
      <trkpt lat="45.14123" lon="6.32805">
        <ele>2566.8</ele>
        <time>2021-02-28T07:06:01Z</time>
      </trkpt>
      <trkpt lat="45.14123" lon="6.32805">
        <ele>2567.2</ele>
        <time>2021-02-28T07:06:02Z</time>
      </trkpt>
      <trkpt lat="45.14122" lon="6.32807">
        <ele>2567.6</ele>
        <time>2021-02-28T07:06:03Z</time>
      </trkpt>
      <trkpt lat="45.14122" lon="6.32807">
        <ele>2568.4</ele>
        <time>2021-02-28T07:06:04Z</time>
      </trkpt>
      <trkpt lat="45.14121" lon="6.3281">
        <ele>2569.4</ele>
        <time>2021-02-28T07:06:05Z</time>
      </trkpt>
      <trkpt lat="45.14121" lon="6.3281">
        <ele>2569.8</ele>
        <time>2021-02-28T07:06:06Z</time>
      </trkpt>
      <trkpt lat="45.14119" lon="6.32812">
        <ele>2569.6</ele>
        <time>2021-02-28T07:06:07Z</time>
      </trkpt>
      <trkpt lat="45.14119" lon="6.32812">
        <ele>2570.4</ele>
        <time>2021-02-28T07:06:08Z</time>
      </trkpt>
      <trkpt lat="45.14118" lon="6.32814">
        <ele>2570.8</ele>
        <time>2021-02-28T07:06:09Z</time>
      </trkpt>
      <trkpt lat="45.14118" lon="6.32814">
        <ele>2570.6</ele>
        <time>2021-02-28T07:06:10Z</time>
      </trkpt>
      <trkpt lat="45.14116" lon="6.32815">
        <ele>2570.6</ele>
        <time>2021-02-28T07:06:11Z</time>
      </trkpt>
      <trkpt lat="45.14116" lon="6.32815">
        <ele>2571</ele>
        <time>2021-02-28T07:06:12Z</time>
      </trkpt>
      <trkpt lat="45.14114" lon="6.32817">
        <ele>2571</ele>
        <time>2021-02-28T07:06:13Z</time>
      </trkpt>
      <trkpt lat="45.14114" lon="6.32817">
        <ele>2571.2</ele>
        <time>2021-02-28T07:06:14Z</time>
      </trkpt>
      <trkpt lat="45.14112" lon="6.32819">
        <ele>2571.2</ele>
        <time>2021-02-28T07:06:15Z</time>
      </trkpt>
      <trkpt lat="45.14112" lon="6.32819">
        <ele>2571.2</ele>
        <time>2021-02-28T07:06:16Z</time>
      </trkpt>
      <trkpt lat="45.14111" lon="6.3282">
        <ele>2571</ele>
        <time>2021-02-28T07:06:17Z</time>
      </trkpt>
      <trkpt lat="45.14111" lon="6.3282">
        <ele>2571</ele>
        <time>2021-02-28T07:06:18Z</time>
      </trkpt>
      <trkpt lat="45.14109" lon="6.32821">
        <ele>2571.2</ele>
        <time>2021-02-28T07:06:19Z</time>
      </trkpt>
      <trkpt lat="45.14109" lon="6.32821">
        <ele>2571</ele>
        <time>2021-02-28T07:06:20Z</time>
      </trkpt>
      <trkpt lat="45.14107" lon="6.32823">
        <ele>2571.4</ele>
        <time>2021-02-28T07:06:21Z</time>
      </trkpt>
      <trkpt lat="45.14107" lon="6.32823">
        <ele>2571.4</ele>
        <time>2021-02-28T07:06:22Z</time>
      </trkpt>
      <trkpt lat="45.14105" lon="6.32824">
        <ele>2571.6</ele>
        <time>2021-02-28T07:06:23Z</time>
      </trkpt>
      <trkpt lat="45.14105" lon="6.32824">
        <ele>2571.6</ele>
        <time>2021-02-28T07:06:24Z</time>
      </trkpt>
      <trkpt lat="45.14104" lon="6.32826">
        <ele>2572.2</ele>
        <time>2021-02-28T07:06:25Z</time>
      </trkpt>
      <trkpt lat="45.14104" lon="6.32826">
        <ele>2572.6</ele>
        <time>2021-02-28T07:06:26Z</time>
      </trkpt>
      <trkpt lat="45.14102" lon="6.32827">
        <ele>2572.8</ele>
        <time>2021-02-28T07:06:27Z</time>
      </trkpt>
      <trkpt lat="45.14102" lon="6.32827">
        <ele>2573</ele>
        <time>2021-02-28T07:06:28Z</time>
      </trkpt>
      <trkpt lat="45.141" lon="6.32828">
        <ele>2573</ele>
        <time>2021-02-28T07:06:29Z</time>
      </trkpt>
      <trkpt lat="45.141" lon="6.32828">
        <ele>2573</ele>
        <time>2021-02-28T07:06:30Z</time>
      </trkpt>
      <trkpt lat="45.14098" lon="6.32829">
        <ele>2573.2</ele>
        <time>2021-02-28T07:06:31Z</time>
      </trkpt>
      <trkpt lat="45.14098" lon="6.32829">
        <ele>2573.4</ele>
        <time>2021-02-28T07:06:32Z</time>
      </trkpt>
      <trkpt lat="45.14097" lon="6.3283">
        <ele>2574</ele>
        <time>2021-02-28T07:06:33Z</time>
      </trkpt>
      <trkpt lat="45.14097" lon="6.3283">
        <ele>2575.2</ele>
        <time>2021-02-28T07:06:34Z</time>
      </trkpt>
      <trkpt lat="45.14097" lon="6.3283">
        <ele>2575.6</ele>
        <time>2021-02-28T07:06:35Z</time>
      </trkpt>
      <trkpt lat="45.14097" lon="6.3283">
        <ele>2575.4</ele>
        <time>2021-02-28T07:06:36Z</time>
      </trkpt>
      <trkpt lat="45.14097" lon="6.3283">
        <ele>2575</ele>
        <time>2021-02-28T07:06:37Z</time>
      </trkpt>
      <trkpt lat="45.14097" lon="6.3283">
        <ele>2574.6</ele>
        <time>2021-02-28T07:06:38Z</time>
      </trkpt>
      <trkpt lat="45.14097" lon="6.3283">
        <ele>2574.8</ele>
        <time>2021-02-28T07:06:39Z</time>
      </trkpt>
      <trkpt lat="45.14097" lon="6.3283">
        <ele>2575</ele>
        <time>2021-02-28T07:06:40Z</time>
      </trkpt>
      <trkpt lat="45.14095" lon="6.32833">
        <ele>2574.8</ele>
        <time>2021-02-28T07:06:41Z</time>
      </trkpt>
      <trkpt lat="45.14095" lon="6.32833">
        <ele>2574.6</ele>
        <time>2021-02-28T07:06:42Z</time>
      </trkpt>
      <trkpt lat="45.14093" lon="6.32835">
        <ele>2575.2</ele>
        <time>2021-02-28T07:06:43Z</time>
      </trkpt>
      <trkpt lat="45.14093" lon="6.32835">
        <ele>2575</ele>
        <time>2021-02-28T07:06:44Z</time>
      </trkpt>
      <trkpt lat="45.1409" lon="6.32838">
        <ele>2574.8</ele>
        <time>2021-02-28T07:06:45Z</time>
      </trkpt>
      <trkpt lat="45.1409" lon="6.32838">
        <ele>2575.6</ele>
        <time>2021-02-28T07:06:46Z</time>
      </trkpt>
      <trkpt lat="45.14088" lon="6.3284">
        <ele>2575.4</ele>
        <time>2021-02-28T07:06:47Z</time>
      </trkpt>
      <trkpt lat="45.14088" lon="6.3284">
        <ele>2576.2</ele>
        <time>2021-02-28T07:06:48Z</time>
      </trkpt>
      <trkpt lat="45.14086" lon="6.32843">
        <ele>2576.6</ele>
        <time>2021-02-28T07:06:49Z</time>
      </trkpt>
      <trkpt lat="45.14086" lon="6.32843">
        <ele>2576.4</ele>
        <time>2021-02-28T07:06:50Z</time>
      </trkpt>
      <trkpt lat="45.14084" lon="6.32846">
        <ele>2576.2</ele>
        <time>2021-02-28T07:06:51Z</time>
      </trkpt>
      <trkpt lat="45.14084" lon="6.32846">
        <ele>2576.4</ele>
        <time>2021-02-28T07:06:52Z</time>
      </trkpt>
      <trkpt lat="45.14082" lon="6.32849">
        <ele>2575.8</ele>
        <time>2021-02-28T07:06:53Z</time>
      </trkpt>
      <trkpt lat="45.14082" lon="6.32849">
        <ele>2575</ele>
        <time>2021-02-28T07:06:54Z</time>
      </trkpt>
      <trkpt lat="45.14081" lon="6.32853">
        <ele>2574.8</ele>
        <time>2021-02-28T07:06:55Z</time>
      </trkpt>
      <trkpt lat="45.14081" lon="6.32853">
        <ele>2574.8</ele>
        <time>2021-02-28T07:06:56Z</time>
      </trkpt>
      <trkpt lat="45.14078" lon="6.32857">
        <ele>2575</ele>
        <time>2021-02-28T07:06:57Z</time>
      </trkpt>
      <trkpt lat="45.14078" lon="6.32857">
        <ele>2574.8</ele>
        <time>2021-02-28T07:06:58Z</time>
      </trkpt>
      <trkpt lat="45.14076" lon="6.3286">
        <ele>2574.8</ele>
        <time>2021-02-28T07:06:59Z</time>
      </trkpt>
      <trkpt lat="45.14076" lon="6.3286">
        <ele>2574.4</ele>
        <time>2021-02-28T07:07:00Z</time>
      </trkpt>
      <trkpt lat="45.14074" lon="6.32863">
        <ele>2574.2</ele>
        <time>2021-02-28T07:07:01Z</time>
      </trkpt>
      <trkpt lat="45.14074" lon="6.32863">
        <ele>2573.8</ele>
        <time>2021-02-28T07:07:02Z</time>
      </trkpt>
      <trkpt lat="45.14073" lon="6.32866">
        <ele>2573.4</ele>
        <time>2021-02-28T07:07:03Z</time>
      </trkpt>
      <trkpt lat="45.14073" lon="6.32866">
        <ele>2573.8</ele>
        <time>2021-02-28T07:07:04Z</time>
      </trkpt>
      <trkpt lat="45.14071" lon="6.32869">
        <ele>2574.2</ele>
        <time>2021-02-28T07:07:05Z</time>
      </trkpt>
      <trkpt lat="45.14071" lon="6.32869">
        <ele>2574.2</ele>
        <time>2021-02-28T07:07:06Z</time>
      </trkpt>
      <trkpt lat="45.14069" lon="6.32872">
        <ele>2574.4</ele>
        <time>2021-02-28T07:07:07Z</time>
      </trkpt>
      <trkpt lat="45.14069" lon="6.32872">
        <ele>2572.6</ele>
        <time>2021-02-28T07:07:08Z</time>
      </trkpt>
      <trkpt lat="45.14069" lon="6.32872">
        <ele>2573</ele>
        <time>2021-02-28T07:07:09Z</time>
      </trkpt>
      <trkpt lat="45.14069" lon="6.32872">
        <ele>2572.2</ele>
        <time>2021-02-28T07:07:10Z</time>
      </trkpt>
      <trkpt lat="45.14069" lon="6.32872">
        <ele>2571</ele>
        <time>2021-02-28T07:07:11Z</time>
      </trkpt>
      <trkpt lat="45.14066" lon="6.32874">
        <ele>2571.2</ele>
        <time>2021-02-28T07:07:12Z</time>
      </trkpt>
      <trkpt lat="45.14066" lon="6.32874">
        <ele>2571</ele>
        <time>2021-02-28T07:07:13Z</time>
      </trkpt>
      <trkpt lat="45.14064" lon="6.32877">
        <ele>2571.2</ele>
        <time>2021-02-28T07:07:14Z</time>
      </trkpt>
      <trkpt lat="45.14064" lon="6.32877">
        <ele>2572</ele>
        <time>2021-02-28T07:07:15Z</time>
      </trkpt>
      <trkpt lat="45.14062" lon="6.3288">
        <ele>2571</ele>
        <time>2021-02-28T07:07:16Z</time>
      </trkpt>
      <trkpt lat="45.14062" lon="6.3288">
        <ele>2570.4</ele>
        <time>2021-02-28T07:07:17Z</time>
      </trkpt>
      <trkpt lat="45.14061" lon="6.32884">
        <ele>2570.2</ele>
        <time>2021-02-28T07:07:18Z</time>
      </trkpt>
      <trkpt lat="45.14061" lon="6.32884">
        <ele>2570.6</ele>
        <time>2021-02-28T07:07:19Z</time>
      </trkpt>
      <trkpt lat="45.14059" lon="6.32887">
        <ele>2571</ele>
        <time>2021-02-28T07:07:20Z</time>
      </trkpt>
      <trkpt lat="45.14059" lon="6.32887">
        <ele>2570.4</ele>
        <time>2021-02-28T07:07:21Z</time>
      </trkpt>
      <trkpt lat="45.14057" lon="6.3289">
        <ele>2570.8</ele>
        <time>2021-02-28T07:07:22Z</time>
      </trkpt>
      <trkpt lat="45.14057" lon="6.3289">
        <ele>2571</ele>
        <time>2021-02-28T07:07:23Z</time>
      </trkpt>
      <trkpt lat="45.14054" lon="6.32893">
        <ele>2571.2</ele>
        <time>2021-02-28T07:07:24Z</time>
      </trkpt>
      <trkpt lat="45.14054" lon="6.32893">
        <ele>2571.6</ele>
        <time>2021-02-28T07:07:25Z</time>
      </trkpt>
      <trkpt lat="45.14052" lon="6.32895">
        <ele>2571.4</ele>
        <time>2021-02-28T07:07:26Z</time>
      </trkpt>
      <trkpt lat="45.14052" lon="6.32895">
        <ele>2572</ele>
        <time>2021-02-28T07:07:27Z</time>
      </trkpt>
      <trkpt lat="45.1405" lon="6.32898">
        <ele>2572.4</ele>
        <time>2021-02-28T07:07:28Z</time>
      </trkpt>
      <trkpt lat="45.1405" lon="6.32898">
        <ele>2572.8</ele>
        <time>2021-02-28T07:07:29Z</time>
      </trkpt>
      <trkpt lat="45.14048" lon="6.32901">
        <ele>2572.4</ele>
        <time>2021-02-28T07:07:30Z</time>
      </trkpt>
      <trkpt lat="45.14048" lon="6.32901">
        <ele>2572</ele>
        <time>2021-02-28T07:07:31Z</time>
      </trkpt>
      <trkpt lat="45.14046" lon="6.32904">
        <ele>2572.4</ele>
        <time>2021-02-28T07:07:32Z</time>
      </trkpt>
      <trkpt lat="45.14046" lon="6.32904">
        <ele>2572.6</ele>
        <time>2021-02-28T07:07:33Z</time>
      </trkpt>
      <trkpt lat="45.14044" lon="6.32908">
        <ele>2573</ele>
        <time>2021-02-28T07:07:34Z</time>
      </trkpt>
      <trkpt lat="45.14044" lon="6.32908">
        <ele>2573</ele>
        <time>2021-02-28T07:07:35Z</time>
      </trkpt>
      <trkpt lat="45.14041" lon="6.32911">
        <ele>2573</ele>
        <time>2021-02-28T07:07:36Z</time>
      </trkpt>
      <trkpt lat="45.14041" lon="6.32911">
        <ele>2572.6</ele>
        <time>2021-02-28T07:07:37Z</time>
      </trkpt>
      <trkpt lat="45.14038" lon="6.32913">
        <ele>2572.4</ele>
        <time>2021-02-28T07:07:38Z</time>
      </trkpt>
      <trkpt lat="45.14038" lon="6.32913">
        <ele>2572</ele>
        <time>2021-02-28T07:07:39Z</time>
      </trkpt>
      <trkpt lat="45.14035" lon="6.32915">
        <ele>2572.4</ele>
        <time>2021-02-28T07:07:40Z</time>
      </trkpt>
      <trkpt lat="45.14035" lon="6.32915">
        <ele>2572.2</ele>
        <time>2021-02-28T07:07:41Z</time>
      </trkpt>
      <trkpt lat="45.14033" lon="6.32917">
        <ele>2572.2</ele>
        <time>2021-02-28T07:07:42Z</time>
      </trkpt>
      <trkpt lat="45.14033" lon="6.32917">
        <ele>2572.2</ele>
        <time>2021-02-28T07:07:43Z</time>
      </trkpt>
      <trkpt lat="45.14031" lon="6.3292">
        <ele>2572.2</ele>
        <time>2021-02-28T07:07:44Z</time>
      </trkpt>
      <trkpt lat="45.14031" lon="6.3292">
        <ele>2571.8</ele>
        <time>2021-02-28T07:07:45Z</time>
      </trkpt>
      <trkpt lat="45.14029" lon="6.32924">
        <ele>2571.8</ele>
        <time>2021-02-28T07:07:46Z</time>
      </trkpt>
      <trkpt lat="45.14028" lon="6.32926">
        <ele>2571.4</ele>
        <time>2021-02-28T07:07:47Z</time>
      </trkpt>
      <trkpt lat="45.14028" lon="6.32926">
        <ele>2571.4</ele>
        <time>2021-02-28T07:07:48Z</time>
      </trkpt>
      <trkpt lat="45.14027" lon="6.3293">
        <ele>2570.4</ele>
        <time>2021-02-28T07:07:49Z</time>
      </trkpt>
      <trkpt lat="45.14027" lon="6.3293">
        <ele>2570.4</ele>
        <time>2021-02-28T07:07:50Z</time>
      </trkpt>
      <trkpt lat="45.14025" lon="6.32934">
        <ele>2570.2</ele>
        <time>2021-02-28T07:07:51Z</time>
      </trkpt>
      <trkpt lat="45.14025" lon="6.32934">
        <ele>2570.2</ele>
        <time>2021-02-28T07:07:52Z</time>
      </trkpt>
      <trkpt lat="45.14024" lon="6.32937">
        <ele>2570.8</ele>
        <time>2021-02-28T07:07:53Z</time>
      </trkpt>
      <trkpt lat="45.14024" lon="6.32937">
        <ele>2570.6</ele>
        <time>2021-02-28T07:07:54Z</time>
      </trkpt>
      <trkpt lat="45.14022" lon="6.3294">
        <ele>2570.2</ele>
        <time>2021-02-28T07:07:55Z</time>
      </trkpt>
      <trkpt lat="45.14022" lon="6.3294">
        <ele>2570.2</ele>
        <time>2021-02-28T07:07:56Z</time>
      </trkpt>
      <trkpt lat="45.14021" lon="6.32943">
        <ele>2569.6</ele>
        <time>2021-02-28T07:07:57Z</time>
      </trkpt>
      <trkpt lat="45.14021" lon="6.32943">
        <ele>2569.8</ele>
        <time>2021-02-28T07:07:58Z</time>
      </trkpt>
      <trkpt lat="45.14019" lon="6.32947">
        <ele>2570</ele>
        <time>2021-02-28T07:07:59Z</time>
      </trkpt>
      <trkpt lat="45.14019" lon="6.32947">
        <ele>2569.8</ele>
        <time>2021-02-28T07:08:00Z</time>
      </trkpt>
      <trkpt lat="45.14018" lon="6.3295">
        <ele>2569.6</ele>
        <time>2021-02-28T07:08:01Z</time>
      </trkpt>
      <trkpt lat="45.14018" lon="6.3295">
        <ele>2569.4</ele>
        <time>2021-02-28T07:08:02Z</time>
      </trkpt>
      <trkpt lat="45.14018" lon="6.3295">
        <ele>2570.2</ele>
        <time>2021-02-28T07:08:03Z</time>
      </trkpt>
      <trkpt lat="45.14016" lon="6.32954">
        <ele>2570.2</ele>
        <time>2021-02-28T07:08:04Z</time>
      </trkpt>
      <trkpt lat="45.14016" lon="6.32954">
        <ele>2570.2</ele>
        <time>2021-02-28T07:08:05Z</time>
      </trkpt>
      <trkpt lat="45.14014" lon="6.32958">
        <ele>2569.4</ele>
        <time>2021-02-28T07:08:06Z</time>
      </trkpt>
      <trkpt lat="45.14013" lon="6.3296">
        <ele>2570</ele>
        <time>2021-02-28T07:08:07Z</time>
      </trkpt>
      <trkpt lat="45.14012" lon="6.32963">
        <ele>2570</ele>
        <time>2021-02-28T07:08:08Z</time>
      </trkpt>
      <trkpt lat="45.14011" lon="6.32965">
        <ele>2570.2</ele>
        <time>2021-02-28T07:08:09Z</time>
      </trkpt>
      <trkpt lat="45.1401" lon="6.32968">
        <ele>2569.6</ele>
        <time>2021-02-28T07:08:10Z</time>
      </trkpt>
      <trkpt lat="45.14009" lon="6.3297">
        <ele>2570.2</ele>
        <time>2021-02-28T07:08:11Z</time>
      </trkpt>
      <trkpt lat="45.14007" lon="6.32973">
        <ele>2570.4</ele>
        <time>2021-02-28T07:08:12Z</time>
      </trkpt>
      <trkpt lat="45.14006" lon="6.32975">
        <ele>2570.2</ele>
        <time>2021-02-28T07:08:13Z</time>
      </trkpt>
      <trkpt lat="45.14005" lon="6.32978">
        <ele>2570.2</ele>
        <time>2021-02-28T07:08:14Z</time>
      </trkpt>
      <trkpt lat="45.14005" lon="6.32978">
        <ele>2570.2</ele>
        <time>2021-02-28T07:08:15Z</time>
      </trkpt>
      <trkpt lat="45.14004" lon="6.32982">
        <ele>2570.2</ele>
        <time>2021-02-28T07:08:16Z</time>
      </trkpt>
      <trkpt lat="45.14004" lon="6.32982">
        <ele>2569.6</ele>
        <time>2021-02-28T07:08:17Z</time>
      </trkpt>
      <trkpt lat="45.14002" lon="6.32986">
        <ele>2570</ele>
        <time>2021-02-28T07:08:18Z</time>
      </trkpt>
      <trkpt lat="45.14002" lon="6.32986">
        <ele>2570.2</ele>
        <time>2021-02-28T07:08:19Z</time>
      </trkpt>
      <trkpt lat="45.14" lon="6.3299">
        <ele>2570.8</ele>
        <time>2021-02-28T07:08:20Z</time>
      </trkpt>
      <trkpt lat="45.14" lon="6.3299">
        <ele>2570.4</ele>
        <time>2021-02-28T07:08:21Z</time>
      </trkpt>
      <trkpt lat="45.13999" lon="6.32993">
        <ele>2569.8</ele>
        <time>2021-02-28T07:08:22Z</time>
      </trkpt>
      <trkpt lat="45.13999" lon="6.32993">
        <ele>2570</ele>
        <time>2021-02-28T07:08:23Z</time>
      </trkpt>
      <trkpt lat="45.13997" lon="6.32996">
        <ele>2570.4</ele>
        <time>2021-02-28T07:08:24Z</time>
      </trkpt>
      <trkpt lat="45.13997" lon="6.32996">
        <ele>2570.6</ele>
        <time>2021-02-28T07:08:25Z</time>
      </trkpt>
      <trkpt lat="45.13995" lon="6.32999">
        <ele>2570.2</ele>
        <time>2021-02-28T07:08:26Z</time>
      </trkpt>
      <trkpt lat="45.13995" lon="6.32999">
        <ele>2570</ele>
        <time>2021-02-28T07:08:27Z</time>
      </trkpt>
      <trkpt lat="45.13993" lon="6.33002">
        <ele>2570.4</ele>
        <time>2021-02-28T07:08:28Z</time>
      </trkpt>
      <trkpt lat="45.13993" lon="6.33002">
        <ele>2570</ele>
        <time>2021-02-28T07:08:29Z</time>
      </trkpt>
      <trkpt lat="45.13991" lon="6.33004">
        <ele>2569.6</ele>
        <time>2021-02-28T07:08:30Z</time>
      </trkpt>
      <trkpt lat="45.13991" lon="6.33004">
        <ele>2570</ele>
        <time>2021-02-28T07:08:31Z</time>
      </trkpt>
      <trkpt lat="45.13989" lon="6.33006">
        <ele>2570.2</ele>
        <time>2021-02-28T07:08:32Z</time>
      </trkpt>
      <trkpt lat="45.13989" lon="6.33006">
        <ele>2570.2</ele>
        <time>2021-02-28T07:08:33Z</time>
      </trkpt>
      <trkpt lat="45.13987" lon="6.33008">
        <ele>2569.8</ele>
        <time>2021-02-28T07:08:34Z</time>
      </trkpt>
      <trkpt lat="45.13987" lon="6.33008">
        <ele>2569.8</ele>
        <time>2021-02-28T07:08:35Z</time>
      </trkpt>
      <trkpt lat="45.13984" lon="6.33011">
        <ele>2570.2</ele>
        <time>2021-02-28T07:08:36Z</time>
      </trkpt>
      <trkpt lat="45.13982" lon="6.33013">
        <ele>2570.2</ele>
        <time>2021-02-28T07:08:37Z</time>
      </trkpt>
      <trkpt lat="45.13981" lon="6.33015">
        <ele>2570.4</ele>
        <time>2021-02-28T07:08:38Z</time>
      </trkpt>
      <trkpt lat="45.13981" lon="6.33015">
        <ele>2570.2</ele>
        <time>2021-02-28T07:08:39Z</time>
      </trkpt>
      <trkpt lat="45.13978" lon="6.33018">
        <ele>2569.6</ele>
        <time>2021-02-28T07:08:40Z</time>
      </trkpt>
      <trkpt lat="45.13978" lon="6.33018">
        <ele>2569.6</ele>
        <time>2021-02-28T07:08:41Z</time>
      </trkpt>
      <trkpt lat="45.13977" lon="6.33021">
        <ele>2569.8</ele>
        <time>2021-02-28T07:08:42Z</time>
      </trkpt>
      <trkpt lat="45.13977" lon="6.33021">
        <ele>2569.6</ele>
        <time>2021-02-28T07:08:43Z</time>
      </trkpt>
      <trkpt lat="45.13975" lon="6.33023">
        <ele>2569</ele>
        <time>2021-02-28T07:08:44Z</time>
      </trkpt>
      <trkpt lat="45.13975" lon="6.33023">
        <ele>2569</ele>
        <time>2021-02-28T07:08:45Z</time>
      </trkpt>
      <trkpt lat="45.13975" lon="6.33023">
        <ele>2568.4</ele>
        <time>2021-02-28T07:08:46Z</time>
      </trkpt>
      <trkpt lat="45.13975" lon="6.33023">
        <ele>2568.6</ele>
        <time>2021-02-28T07:08:47Z</time>
      </trkpt>
      <trkpt lat="45.13975" lon="6.33023">
        <ele>2569</ele>
        <time>2021-02-28T07:08:48Z</time>
      </trkpt>
      <trkpt lat="45.13975" lon="6.33023">
        <ele>2569.6</ele>
        <time>2021-02-28T07:08:49Z</time>
      </trkpt>
      <trkpt lat="45.13975" lon="6.33023">
        <ele>2570.2</ele>
        <time>2021-02-28T07:08:50Z</time>
      </trkpt>
      <trkpt lat="45.13975" lon="6.33023">
        <ele>2570.6</ele>
        <time>2021-02-28T07:08:51Z</time>
      </trkpt>
      <trkpt lat="45.13975" lon="6.33023">
        <ele>2570.8</ele>
        <time>2021-02-28T07:08:52Z</time>
      </trkpt>
      <trkpt lat="45.13975" lon="6.33023">
        <ele>2570.6</ele>
        <time>2021-02-28T07:08:53Z</time>
      </trkpt>
      <trkpt lat="45.13975" lon="6.33023">
        <ele>2570.6</ele>
        <time>2021-02-28T07:08:54Z</time>
      </trkpt>
      <trkpt lat="45.13975" lon="6.33023">
        <ele>2570.6</ele>
        <time>2021-02-28T07:08:55Z</time>
      </trkpt>
      <trkpt lat="45.13975" lon="6.33023">
        <ele>2570.8</ele>
        <time>2021-02-28T07:08:56Z</time>
      </trkpt>
      <trkpt lat="45.13975" lon="6.33023">
        <ele>2570.8</ele>
        <time>2021-02-28T07:08:57Z</time>
      </trkpt>
      <trkpt lat="45.13975" lon="6.33023">
        <ele>2571.2</ele>
        <time>2021-02-28T07:08:58Z</time>
      </trkpt>
      <trkpt lat="45.13975" lon="6.33023">
        <ele>2571.2</ele>
        <time>2021-02-28T07:08:59Z</time>
      </trkpt>
      <trkpt lat="45.13975" lon="6.33023">
        <ele>2571</ele>
        <time>2021-02-28T07:09:00Z</time>
      </trkpt>
      <trkpt lat="45.13975" lon="6.33023">
        <ele>2570.8</ele>
        <time>2021-02-28T07:09:01Z</time>
      </trkpt>
      <trkpt lat="45.13975" lon="6.33023">
        <ele>2570.6</ele>
        <time>2021-02-28T07:09:02Z</time>
      </trkpt>
      <trkpt lat="45.13975" lon="6.33023">
        <ele>2570.2</ele>
        <time>2021-02-28T07:09:03Z</time>
      </trkpt>
      <trkpt lat="45.13975" lon="6.33023">
        <ele>2570.2</ele>
        <time>2021-02-28T07:09:04Z</time>
      </trkpt>
      <trkpt lat="45.13975" lon="6.33023">
        <ele>2570.2</ele>
        <time>2021-02-28T07:09:05Z</time>
      </trkpt>
      <trkpt lat="45.13975" lon="6.33023">
        <ele>2570</ele>
        <time>2021-02-28T07:09:06Z</time>
      </trkpt>
      <trkpt lat="45.13975" lon="6.33023">
        <ele>2569.8</ele>
        <time>2021-02-28T07:09:07Z</time>
      </trkpt>
      <trkpt lat="45.13975" lon="6.33023">
        <ele>2570</ele>
        <time>2021-02-28T07:09:08Z</time>
      </trkpt>
      <trkpt lat="45.13975" lon="6.33023">
        <ele>2570</ele>
        <time>2021-02-28T07:09:09Z</time>
      </trkpt>
      <trkpt lat="45.13975" lon="6.33023">
        <ele>2570</ele>
        <time>2021-02-28T07:09:10Z</time>
      </trkpt>
      <trkpt lat="45.13975" lon="6.33023">
        <ele>2570</ele>
        <time>2021-02-28T07:09:11Z</time>
      </trkpt>
      <trkpt lat="45.13975" lon="6.33023">
        <ele>2570</ele>
        <time>2021-02-28T07:09:12Z</time>
      </trkpt>
      <trkpt lat="45.13975" lon="6.33023">
        <ele>2570</ele>
        <time>2021-02-28T07:09:13Z</time>
      </trkpt>
      <trkpt lat="45.13975" lon="6.33023">
        <ele>2570</ele>
        <time>2021-02-28T07:09:14Z</time>
      </trkpt>
      <trkpt lat="45.13975" lon="6.33023">
        <ele>2570</ele>
        <time>2021-02-28T07:09:15Z</time>
      </trkpt>
      <trkpt lat="45.13975" lon="6.33023">
        <ele>2570</ele>
        <time>2021-02-28T07:09:16Z</time>
      </trkpt>
      <trkpt lat="45.13975" lon="6.33023">
        <ele>2570</ele>
        <time>2021-02-28T07:09:17Z</time>
      </trkpt>
      <trkpt lat="45.13975" lon="6.33023">
        <ele>2570</ele>
        <time>2021-02-28T07:09:18Z</time>
      </trkpt>
      <trkpt lat="45.13975" lon="6.33023">
        <ele>2569.8</ele>
        <time>2021-02-28T07:09:19Z</time>
      </trkpt>
      <trkpt lat="45.13975" lon="6.33023">
        <ele>2570</ele>
        <time>2021-02-28T07:09:20Z</time>
      </trkpt>
      <trkpt lat="45.13975" lon="6.33023">
        <ele>2570.2</ele>
        <time>2021-02-28T07:09:21Z</time>
      </trkpt>
      <trkpt lat="45.13975" lon="6.33023">
        <ele>2570.2</ele>
        <time>2021-02-28T07:09:22Z</time>
      </trkpt>
      <trkpt lat="45.13975" lon="6.33023">
        <ele>2570.2</ele>
        <time>2021-02-28T07:09:23Z</time>
      </trkpt>
      <trkpt lat="45.13975" lon="6.33023">
        <ele>2570.6</ele>
        <time>2021-02-28T07:09:24Z</time>
      </trkpt>
      <trkpt lat="45.13975" lon="6.33023">
        <ele>2571</ele>
        <time>2021-02-28T07:09:25Z</time>
      </trkpt>
      <trkpt lat="45.13975" lon="6.33023">
        <ele>2571</ele>
        <time>2021-02-28T07:09:26Z</time>
      </trkpt>
      <trkpt lat="45.13975" lon="6.33023">
        <ele>2570.8</ele>
        <time>2021-02-28T07:09:27Z</time>
      </trkpt>
      <trkpt lat="45.13975" lon="6.33023">
        <ele>2570.4</ele>
        <time>2021-02-28T07:09:28Z</time>
      </trkpt>
      <trkpt lat="45.13975" lon="6.33023">
        <ele>2570.2</ele>
        <time>2021-02-28T07:09:29Z</time>
      </trkpt>
      <trkpt lat="45.13975" lon="6.33023">
        <ele>2570</ele>
        <time>2021-02-28T07:09:30Z</time>
      </trkpt>
      <trkpt lat="45.13975" lon="6.33023">
        <ele>2569.6</ele>
        <time>2021-02-28T07:09:31Z</time>
      </trkpt>
      <trkpt lat="45.13975" lon="6.33023">
        <ele>2568.8</ele>
        <time>2021-02-28T07:09:32Z</time>
      </trkpt>
      <trkpt lat="45.13975" lon="6.33023">
        <ele>2569</ele>
        <time>2021-02-28T07:09:33Z</time>
      </trkpt>
      <trkpt lat="45.13975" lon="6.33023">
        <ele>2569.6</ele>
        <time>2021-02-28T07:09:34Z</time>
      </trkpt>
      <trkpt lat="45.13975" lon="6.33023">
        <ele>2570</ele>
        <time>2021-02-28T07:09:35Z</time>
      </trkpt>
      <trkpt lat="45.13975" lon="6.33023">
        <ele>2570.6</ele>
        <time>2021-02-28T07:09:36Z</time>
      </trkpt>
      <trkpt lat="45.13975" lon="6.33023">
        <ele>2570.6</ele>
        <time>2021-02-28T07:09:37Z</time>
      </trkpt>
      <trkpt lat="45.13975" lon="6.33023">
        <ele>2570.2</ele>
        <time>2021-02-28T07:09:38Z</time>
      </trkpt>
      <trkpt lat="45.13975" lon="6.33023">
        <ele>2570.4</ele>
        <time>2021-02-28T07:09:39Z</time>
      </trkpt>
      <trkpt lat="45.13975" lon="6.33023">
        <ele>2570</ele>
        <time>2021-02-28T07:09:40Z</time>
      </trkpt>
      <trkpt lat="45.13975" lon="6.33023">
        <ele>2569.4</ele>
        <time>2021-02-28T07:09:41Z</time>
      </trkpt>
      <trkpt lat="45.13975" lon="6.33023">
        <ele>2569.2</ele>
        <time>2021-02-28T07:09:42Z</time>
      </trkpt>
      <trkpt lat="45.13975" lon="6.33023">
        <ele>2569.4</ele>
        <time>2021-02-28T07:09:43Z</time>
      </trkpt>
      <trkpt lat="45.13975" lon="6.33023">
        <ele>2569</ele>
        <time>2021-02-28T07:09:44Z</time>
      </trkpt>
      <trkpt lat="45.13975" lon="6.33023">
        <ele>2569.4</ele>
        <time>2021-02-28T07:09:45Z</time>
      </trkpt>
      <trkpt lat="45.13975" lon="6.33023">
        <ele>2570.4</ele>
        <time>2021-02-28T07:09:46Z</time>
      </trkpt>
      <trkpt lat="45.13975" lon="6.33023">
        <ele>2570.8</ele>
        <time>2021-02-28T07:09:47Z</time>
      </trkpt>
      <trkpt lat="45.13975" lon="6.33023">
        <ele>2571.6</ele>
        <time>2021-02-28T07:09:48Z</time>
      </trkpt>
      <trkpt lat="45.13975" lon="6.33023">
        <ele>2572</ele>
        <time>2021-02-28T07:09:49Z</time>
      </trkpt>
      <trkpt lat="45.13975" lon="6.33023">
        <ele>2573</ele>
        <time>2021-02-28T07:09:50Z</time>
      </trkpt>
      <trkpt lat="45.13975" lon="6.33023">
        <ele>2572</ele>
        <time>2021-02-28T07:09:51Z</time>
      </trkpt>
      <trkpt lat="45.13975" lon="6.33023">
        <ele>2572.2</ele>
        <time>2021-02-28T07:09:52Z</time>
      </trkpt>
      <trkpt lat="45.13975" lon="6.33023">
        <ele>2572.6</ele>
        <time>2021-02-28T07:09:53Z</time>
      </trkpt>
      <trkpt lat="45.13975" lon="6.33023">
        <ele>2573</ele>
        <time>2021-02-28T07:09:54Z</time>
      </trkpt>
      <trkpt lat="45.13975" lon="6.33023">
        <ele>2573.8</ele>
        <time>2021-02-28T07:09:55Z</time>
      </trkpt>
      <trkpt lat="45.13975" lon="6.33023">
        <ele>2573.8</ele>
        <time>2021-02-28T07:09:56Z</time>
      </trkpt>
      <trkpt lat="45.13975" lon="6.33023">
        <ele>2573.8</ele>
        <time>2021-02-28T07:09:57Z</time>
      </trkpt>
      <trkpt lat="45.13975" lon="6.33023">
        <ele>2574.4</ele>
        <time>2021-02-28T07:09:58Z</time>
      </trkpt>
      <trkpt lat="45.13975" lon="6.33023">
        <ele>2573.8</ele>
        <time>2021-02-28T07:09:59Z</time>
      </trkpt>
      <trkpt lat="45.13975" lon="6.33023">
        <ele>2574</ele>
        <time>2021-02-28T07:10:00Z</time>
      </trkpt>
      <trkpt lat="45.13975" lon="6.33023">
        <ele>2574</ele>
        <time>2021-02-28T07:10:01Z</time>
      </trkpt>
      <trkpt lat="45.13975" lon="6.33023">
        <ele>2571.6</ele>
        <time>2021-02-28T07:10:02Z</time>
      </trkpt>
      <trkpt lat="45.13975" lon="6.33023">
        <ele>2572</ele>
        <time>2021-02-28T07:10:03Z</time>
      </trkpt>
      <trkpt lat="45.13975" lon="6.33023">
        <ele>2572.4</ele>
        <time>2021-02-28T07:10:04Z</time>
      </trkpt>
      <trkpt lat="45.13975" lon="6.33023">
        <ele>2572.6</ele>
        <time>2021-02-28T07:10:05Z</time>
      </trkpt>
      <trkpt lat="45.13975" lon="6.33023">
        <ele>2572.4</ele>
        <time>2021-02-28T07:10:06Z</time>
      </trkpt>
      <trkpt lat="45.13975" lon="6.33023">
        <ele>2572</ele>
        <time>2021-02-28T07:10:07Z</time>
      </trkpt>
      <trkpt lat="45.13975" lon="6.33023">
        <ele>2572.6</ele>
        <time>2021-02-28T07:10:08Z</time>
      </trkpt>
      <trkpt lat="45.13975" lon="6.33023">
        <ele>2573.2</ele>
        <time>2021-02-28T07:10:09Z</time>
      </trkpt>
      <trkpt lat="45.13975" lon="6.33023">
        <ele>2573</ele>
        <time>2021-02-28T07:10:10Z</time>
      </trkpt>
      <trkpt lat="45.13975" lon="6.33023">
        <ele>2572.8</ele>
        <time>2021-02-28T07:10:11Z</time>
      </trkpt>
      <trkpt lat="45.13975" lon="6.33023">
        <ele>2572.4</ele>
        <time>2021-02-28T07:10:12Z</time>
      </trkpt>
      <trkpt lat="45.13975" lon="6.33023">
        <ele>2572.4</ele>
        <time>2021-02-28T07:10:13Z</time>
      </trkpt>
      <trkpt lat="45.13975" lon="6.33023">
        <ele>2572.2</ele>
        <time>2021-02-28T07:10:14Z</time>
      </trkpt>
      <trkpt lat="45.13973" lon="6.33021">
        <ele>2572.6</ele>
        <time>2021-02-28T07:10:15Z</time>
      </trkpt>
      <trkpt lat="45.13973" lon="6.33021">
        <ele>2572.4</ele>
        <time>2021-02-28T07:10:16Z</time>
      </trkpt>
      <trkpt lat="45.13973" lon="6.33021">
        <ele>2572.2</ele>
        <time>2021-02-28T07:10:17Z</time>
      </trkpt>
      <trkpt lat="45.13973" lon="6.33021">
        <ele>2571.8</ele>
        <time>2021-02-28T07:10:18Z</time>
      </trkpt>
      <trkpt lat="45.13973" lon="6.33021">
        <ele>2572.2</ele>
        <time>2021-02-28T07:10:19Z</time>
      </trkpt>
      <trkpt lat="45.13973" lon="6.33021">
        <ele>2572.2</ele>
        <time>2021-02-28T07:10:20Z</time>
      </trkpt>
      <trkpt lat="45.13973" lon="6.33021">
        <ele>2572.2</ele>
        <time>2021-02-28T07:10:21Z</time>
      </trkpt>
      <trkpt lat="45.13973" lon="6.33021">
        <ele>2571.6</ele>
        <time>2021-02-28T07:10:22Z</time>
      </trkpt>
      <trkpt lat="45.13973" lon="6.33021">
        <ele>2572.2</ele>
        <time>2021-02-28T07:10:23Z</time>
      </trkpt>
      <trkpt lat="45.13973" lon="6.33021">
        <ele>2573.4</ele>
        <time>2021-02-28T07:10:24Z</time>
      </trkpt>
      <trkpt lat="45.13973" lon="6.33021">
        <ele>2574.8</ele>
        <time>2021-02-28T07:10:25Z</time>
      </trkpt>
      <trkpt lat="45.13973" lon="6.33021">
        <ele>2574</ele>
        <time>2021-02-28T07:10:26Z</time>
      </trkpt>
      <trkpt lat="45.13973" lon="6.33021">
        <ele>2573.6</ele>
        <time>2021-02-28T07:10:27Z</time>
      </trkpt>
      <trkpt lat="45.13973" lon="6.33021">
        <ele>2573.4</ele>
        <time>2021-02-28T07:10:28Z</time>
      </trkpt>
      <trkpt lat="45.13973" lon="6.33021">
        <ele>2573</ele>
        <time>2021-02-28T07:10:29Z</time>
      </trkpt>
      <trkpt lat="45.13973" lon="6.33021">
        <ele>2572.6</ele>
        <time>2021-02-28T07:10:30Z</time>
      </trkpt>
      <trkpt lat="45.13973" lon="6.33021">
        <ele>2572.2</ele>
        <time>2021-02-28T07:10:31Z</time>
      </trkpt>
      <trkpt lat="45.13973" lon="6.33021">
        <ele>2572</ele>
        <time>2021-02-28T07:10:32Z</time>
      </trkpt>
      <trkpt lat="45.13973" lon="6.33021">
        <ele>2572.2</ele>
        <time>2021-02-28T07:10:33Z</time>
      </trkpt>
      <trkpt lat="45.13973" lon="6.33021">
        <ele>2572.2</ele>
        <time>2021-02-28T07:10:34Z</time>
      </trkpt>
      <trkpt lat="45.13973" lon="6.33021">
        <ele>2572.2</ele>
        <time>2021-02-28T07:10:35Z</time>
      </trkpt>
      <trkpt lat="45.13973" lon="6.33021">
        <ele>2571.8</ele>
        <time>2021-02-28T07:10:36Z</time>
      </trkpt>
      <trkpt lat="45.13973" lon="6.33021">
        <ele>2571.6</ele>
        <time>2021-02-28T07:10:37Z</time>
      </trkpt>
      <trkpt lat="45.13973" lon="6.33021">
        <ele>2571</ele>
        <time>2021-02-28T07:10:38Z</time>
      </trkpt>
      <trkpt lat="45.13973" lon="6.33021">
        <ele>2571.6</ele>
        <time>2021-02-28T07:10:39Z</time>
      </trkpt>
      <trkpt lat="45.13973" lon="6.33021">
        <ele>2572</ele>
        <time>2021-02-28T07:10:40Z</time>
      </trkpt>
      <trkpt lat="45.13973" lon="6.33021">
        <ele>2572.4</ele>
        <time>2021-02-28T07:10:41Z</time>
      </trkpt>
      <trkpt lat="45.13973" lon="6.33021">
        <ele>2572.6</ele>
        <time>2021-02-28T07:10:42Z</time>
      </trkpt>
      <trkpt lat="45.13973" lon="6.33021">
        <ele>2572.6</ele>
        <time>2021-02-28T07:10:43Z</time>
      </trkpt>
      <trkpt lat="45.13973" lon="6.33021">
        <ele>2572.6</ele>
        <time>2021-02-28T07:10:44Z</time>
      </trkpt>
      <trkpt lat="45.13974" lon="6.33023">
        <ele>2572.8</ele>
        <time>2021-02-28T07:10:45Z</time>
      </trkpt>
      <trkpt lat="45.13974" lon="6.33023">
        <ele>2572.8</ele>
        <time>2021-02-28T07:10:46Z</time>
      </trkpt>
      <trkpt lat="45.13974" lon="6.33023">
        <ele>2573</ele>
        <time>2021-02-28T07:10:47Z</time>
      </trkpt>
      <trkpt lat="45.13974" lon="6.33023">
        <ele>2573</ele>
        <time>2021-02-28T07:10:48Z</time>
      </trkpt>
      <trkpt lat="45.13974" lon="6.33023">
        <ele>2573.8</ele>
        <time>2021-02-28T07:10:49Z</time>
      </trkpt>
      <trkpt lat="45.13974" lon="6.33023">
        <ele>2573.4</ele>
        <time>2021-02-28T07:10:50Z</time>
      </trkpt>
      <trkpt lat="45.13974" lon="6.33023">
        <ele>2573</ele>
        <time>2021-02-28T07:10:51Z</time>
      </trkpt>
      <trkpt lat="45.13974" lon="6.33023">
        <ele>2573.4</ele>
        <time>2021-02-28T07:10:52Z</time>
      </trkpt>
      <trkpt lat="45.13974" lon="6.33023">
        <ele>2571.8</ele>
        <time>2021-02-28T07:10:53Z</time>
      </trkpt>
      <trkpt lat="45.13974" lon="6.33023">
        <ele>2571.2</ele>
        <time>2021-02-28T07:10:54Z</time>
      </trkpt>
      <trkpt lat="45.13974" lon="6.33023">
        <ele>2571.2</ele>
        <time>2021-02-28T07:10:55Z</time>
      </trkpt>
      <trkpt lat="45.13974" lon="6.33023">
        <ele>2571</ele>
        <time>2021-02-28T07:10:56Z</time>
      </trkpt>
      <trkpt lat="45.13974" lon="6.33023">
        <ele>2570.8</ele>
        <time>2021-02-28T07:10:57Z</time>
      </trkpt>
      <trkpt lat="45.13974" lon="6.33023">
        <ele>2570.8</ele>
        <time>2021-02-28T07:10:58Z</time>
      </trkpt>
      <trkpt lat="45.13974" lon="6.33023">
        <ele>2571</ele>
        <time>2021-02-28T07:10:59Z</time>
      </trkpt>
      <trkpt lat="45.13974" lon="6.33023">
        <ele>2571.4</ele>
        <time>2021-02-28T07:11:00Z</time>
      </trkpt>
      <trkpt lat="45.13974" lon="6.33023">
        <ele>2571.8</ele>
        <time>2021-02-28T07:11:01Z</time>
      </trkpt>
      <trkpt lat="45.13974" lon="6.33023">
        <ele>2571.2</ele>
        <time>2021-02-28T07:11:02Z</time>
      </trkpt>
      <trkpt lat="45.13974" lon="6.33023">
        <ele>2571.6</ele>
        <time>2021-02-28T07:11:03Z</time>
      </trkpt>
      <trkpt lat="45.13974" lon="6.33023">
        <ele>2571.8</ele>
        <time>2021-02-28T07:11:04Z</time>
      </trkpt>
      <trkpt lat="45.13974" lon="6.33023">
        <ele>2571</ele>
        <time>2021-02-28T07:11:05Z</time>
      </trkpt>
      <trkpt lat="45.13974" lon="6.33023">
        <ele>2570.6</ele>
        <time>2021-02-28T07:11:06Z</time>
      </trkpt>
      <trkpt lat="45.13974" lon="6.33023">
        <ele>2571.8</ele>
        <time>2021-02-28T07:11:07Z</time>
      </trkpt>
      <trkpt lat="45.13974" lon="6.33023">
        <ele>2571.6</ele>
        <time>2021-02-28T07:11:08Z</time>
      </trkpt>
      <trkpt lat="45.13974" lon="6.33023">
        <ele>2572</ele>
        <time>2021-02-28T07:11:09Z</time>
      </trkpt>
      <trkpt lat="45.13974" lon="6.33023">
        <ele>2571.8</ele>
        <time>2021-02-28T07:11:10Z</time>
      </trkpt>
      <trkpt lat="45.13974" lon="6.33023">
        <ele>2572.4</ele>
        <time>2021-02-28T07:11:11Z</time>
      </trkpt>
      <trkpt lat="45.13974" lon="6.33023">
        <ele>2571.8</ele>
        <time>2021-02-28T07:11:12Z</time>
      </trkpt>
      <trkpt lat="45.13974" lon="6.33023">
        <ele>2571.6</ele>
        <time>2021-02-28T07:11:13Z</time>
      </trkpt>
      <trkpt lat="45.13974" lon="6.33023">
        <ele>2571.4</ele>
        <time>2021-02-28T07:11:14Z</time>
      </trkpt>
      <trkpt lat="45.13974" lon="6.33023">
        <ele>2571.2</ele>
        <time>2021-02-28T07:11:15Z</time>
      </trkpt>
      <trkpt lat="45.13973" lon="6.33021">
        <ele>2571</ele>
        <time>2021-02-28T07:11:16Z</time>
      </trkpt>
      <trkpt lat="45.13973" lon="6.33021">
        <ele>2571.2</ele>
        <time>2021-02-28T07:11:17Z</time>
      </trkpt>
      <trkpt lat="45.13973" lon="6.33021">
        <ele>2571.2</ele>
        <time>2021-02-28T07:11:18Z</time>
      </trkpt>
      <trkpt lat="45.13973" lon="6.33021">
        <ele>2571</ele>
        <time>2021-02-28T07:11:19Z</time>
      </trkpt>
      <trkpt lat="45.13973" lon="6.33021">
        <ele>2571.2</ele>
        <time>2021-02-28T07:11:20Z</time>
      </trkpt>
      <trkpt lat="45.13973" lon="6.33021">
        <ele>2571</ele>
        <time>2021-02-28T07:11:21Z</time>
      </trkpt>
      <trkpt lat="45.13973" lon="6.33021">
        <ele>2570.8</ele>
        <time>2021-02-28T07:11:22Z</time>
      </trkpt>
      <trkpt lat="45.13973" lon="6.33021">
        <ele>2570.8</ele>
        <time>2021-02-28T07:11:23Z</time>
      </trkpt>
      <trkpt lat="45.13973" lon="6.33021">
        <ele>2571</ele>
        <time>2021-02-28T07:11:24Z</time>
      </trkpt>
      <trkpt lat="45.13973" lon="6.33021">
        <ele>2570.8</ele>
        <time>2021-02-28T07:11:25Z</time>
      </trkpt>
      <trkpt lat="45.13973" lon="6.33021">
        <ele>2570.6</ele>
        <time>2021-02-28T07:11:26Z</time>
      </trkpt>
      <trkpt lat="45.13973" lon="6.33021">
        <ele>2570.4</ele>
        <time>2021-02-28T07:11:27Z</time>
      </trkpt>
      <trkpt lat="45.13973" lon="6.33021">
        <ele>2570.4</ele>
        <time>2021-02-28T07:11:28Z</time>
      </trkpt>
      <trkpt lat="45.13973" lon="6.33021">
        <ele>2570.4</ele>
        <time>2021-02-28T07:11:29Z</time>
      </trkpt>
      <trkpt lat="45.13973" lon="6.33021">
        <ele>2570.2</ele>
        <time>2021-02-28T07:11:30Z</time>
      </trkpt>
      <trkpt lat="45.13973" lon="6.33021">
        <ele>2570.2</ele>
        <time>2021-02-28T07:11:31Z</time>
      </trkpt>
      <trkpt lat="45.13973" lon="6.33021">
        <ele>2570</ele>
        <time>2021-02-28T07:11:32Z</time>
      </trkpt>
      <trkpt lat="45.13973" lon="6.33021">
        <ele>2570</ele>
        <time>2021-02-28T07:11:33Z</time>
      </trkpt>
      <trkpt lat="45.13973" lon="6.33021">
        <ele>2569.8</ele>
        <time>2021-02-28T07:11:34Z</time>
      </trkpt>
      <trkpt lat="45.13973" lon="6.33021">
        <ele>2569.4</ele>
        <time>2021-02-28T07:11:35Z</time>
      </trkpt>
      <trkpt lat="45.13973" lon="6.33021">
        <ele>2569.2</ele>
        <time>2021-02-28T07:11:36Z</time>
      </trkpt>
      <trkpt lat="45.13973" lon="6.33021">
        <ele>2569.8</ele>
        <time>2021-02-28T07:11:37Z</time>
      </trkpt>
      <trkpt lat="45.13973" lon="6.33021">
        <ele>2570.4</ele>
        <time>2021-02-28T07:11:38Z</time>
      </trkpt>
      <trkpt lat="45.13973" lon="6.33021">
        <ele>2570</ele>
        <time>2021-02-28T07:11:39Z</time>
      </trkpt>
      <trkpt lat="45.13973" lon="6.33021">
        <ele>2570</ele>
        <time>2021-02-28T07:11:40Z</time>
      </trkpt>
      <trkpt lat="45.13973" lon="6.33021">
        <ele>2570.4</ele>
        <time>2021-02-28T07:11:41Z</time>
      </trkpt>
      <trkpt lat="45.13973" lon="6.33021">
        <ele>2569.8</ele>
        <time>2021-02-28T07:11:42Z</time>
      </trkpt>
      <trkpt lat="45.13973" lon="6.33021">
        <ele>2569.6</ele>
        <time>2021-02-28T07:11:43Z</time>
      </trkpt>
      <trkpt lat="45.13973" lon="6.33021">
        <ele>2569.8</ele>
        <time>2021-02-28T07:11:44Z</time>
      </trkpt>
      <trkpt lat="45.13973" lon="6.33021">
        <ele>2569.6</ele>
        <time>2021-02-28T07:11:45Z</time>
      </trkpt>
      <trkpt lat="45.13973" lon="6.33021">
        <ele>2569.4</ele>
        <time>2021-02-28T07:11:46Z</time>
      </trkpt>
      <trkpt lat="45.13973" lon="6.33021">
        <ele>2569.6</ele>
        <time>2021-02-28T07:11:47Z</time>
      </trkpt>
      <trkpt lat="45.13973" lon="6.33021">
        <ele>2569.6</ele>
        <time>2021-02-28T07:11:48Z</time>
      </trkpt>
      <trkpt lat="45.13973" lon="6.33021">
        <ele>2569.4</ele>
        <time>2021-02-28T07:11:49Z</time>
      </trkpt>
      <trkpt lat="45.13973" lon="6.33021">
        <ele>2568.8</ele>
        <time>2021-02-28T07:11:50Z</time>
      </trkpt>
      <trkpt lat="45.13973" lon="6.33021">
        <ele>2569.2</ele>
        <time>2021-02-28T07:11:51Z</time>
      </trkpt>
      <trkpt lat="45.13973" lon="6.33021">
        <ele>2569.2</ele>
        <time>2021-02-28T07:11:52Z</time>
      </trkpt>
      <trkpt lat="45.13973" lon="6.33021">
        <ele>2569</ele>
        <time>2021-02-28T07:11:53Z</time>
      </trkpt>
      <trkpt lat="45.13973" lon="6.33021">
        <ele>2569.2</ele>
        <time>2021-02-28T07:11:54Z</time>
      </trkpt>
      <trkpt lat="45.13973" lon="6.33021">
        <ele>2569.4</ele>
        <time>2021-02-28T07:11:55Z</time>
      </trkpt>
      <trkpt lat="45.13973" lon="6.33021">
        <ele>2569.2</ele>
        <time>2021-02-28T07:11:56Z</time>
      </trkpt>
      <trkpt lat="45.13973" lon="6.33021">
        <ele>2569</ele>
        <time>2021-02-28T07:11:57Z</time>
      </trkpt>
      <trkpt lat="45.13973" lon="6.33021">
        <ele>2569</ele>
        <time>2021-02-28T07:11:58Z</time>
      </trkpt>
      <trkpt lat="45.13973" lon="6.33021">
        <ele>2569</ele>
        <time>2021-02-28T07:11:59Z</time>
      </trkpt>
      <trkpt lat="45.13973" lon="6.33021">
        <ele>2568.8</ele>
        <time>2021-02-28T07:12:00Z</time>
      </trkpt>
      <trkpt lat="45.13973" lon="6.33021">
        <ele>2568.8</ele>
        <time>2021-02-28T07:12:01Z</time>
      </trkpt>
      <trkpt lat="45.13973" lon="6.33021">
        <ele>2568.8</ele>
        <time>2021-02-28T07:12:02Z</time>
      </trkpt>
      <trkpt lat="45.13973" lon="6.33021">
        <ele>2568.6</ele>
        <time>2021-02-28T07:12:03Z</time>
      </trkpt>
      <trkpt lat="45.13973" lon="6.33021">
        <ele>2568.4</ele>
        <time>2021-02-28T07:12:04Z</time>
      </trkpt>
      <trkpt lat="45.13973" lon="6.33021">
        <ele>2568.4</ele>
        <time>2021-02-28T07:12:05Z</time>
      </trkpt>
      <trkpt lat="45.13973" lon="6.33021">
        <ele>2568.2</ele>
        <time>2021-02-28T07:12:06Z</time>
      </trkpt>
      <trkpt lat="45.13973" lon="6.33021">
        <ele>2568.2</ele>
        <time>2021-02-28T07:12:07Z</time>
      </trkpt>
      <trkpt lat="45.13973" lon="6.33021">
        <ele>2568.4</ele>
        <time>2021-02-28T07:12:08Z</time>
      </trkpt>
      <trkpt lat="45.13973" lon="6.33021">
        <ele>2568.2</ele>
        <time>2021-02-28T07:12:09Z</time>
      </trkpt>
      <trkpt lat="45.13973" lon="6.33021">
        <ele>2568.2</ele>
        <time>2021-02-28T07:12:10Z</time>
      </trkpt>
      <trkpt lat="45.13973" lon="6.33021">
        <ele>2567.2</ele>
        <time>2021-02-28T07:12:11Z</time>
      </trkpt>
      <trkpt lat="45.13973" lon="6.33021">
        <ele>2567.4</ele>
        <time>2021-02-28T07:12:12Z</time>
      </trkpt>
      <trkpt lat="45.13973" lon="6.33021">
        <ele>2567.2</ele>
        <time>2021-02-28T07:12:13Z</time>
      </trkpt>
      <trkpt lat="45.13973" lon="6.33021">
        <ele>2567.4</ele>
        <time>2021-02-28T07:12:14Z</time>
      </trkpt>
      <trkpt lat="45.13973" lon="6.33021">
        <ele>2567.4</ele>
        <time>2021-02-28T07:12:15Z</time>
      </trkpt>
      <trkpt lat="45.13973" lon="6.33021">
        <ele>2567.6</ele>
        <time>2021-02-28T07:12:16Z</time>
      </trkpt>
      <trkpt lat="45.13973" lon="6.33021">
        <ele>2567.6</ele>
        <time>2021-02-28T07:12:17Z</time>
      </trkpt>
      <trkpt lat="45.13973" lon="6.33021">
        <ele>2567.8</ele>
        <time>2021-02-28T07:12:18Z</time>
      </trkpt>
      <trkpt lat="45.13973" lon="6.33021">
        <ele>2567.6</ele>
        <time>2021-02-28T07:12:19Z</time>
      </trkpt>
      <trkpt lat="45.13973" lon="6.33021">
        <ele>2567.4</ele>
        <time>2021-02-28T07:12:20Z</time>
      </trkpt>
      <trkpt lat="45.13973" lon="6.33021">
        <ele>2567.6</ele>
        <time>2021-02-28T07:12:21Z</time>
      </trkpt>
      <trkpt lat="45.13973" lon="6.33021">
        <ele>2568.2</ele>
        <time>2021-02-28T07:12:22Z</time>
      </trkpt>
      <trkpt lat="45.13973" lon="6.33021">
        <ele>2568.6</ele>
        <time>2021-02-28T07:12:23Z</time>
      </trkpt>
      <trkpt lat="45.13973" lon="6.33021">
        <ele>2568.6</ele>
        <time>2021-02-28T07:12:24Z</time>
      </trkpt>
      <trkpt lat="45.13973" lon="6.33021">
        <ele>2568.2</ele>
        <time>2021-02-28T07:12:25Z</time>
      </trkpt>
      <trkpt lat="45.13973" lon="6.33021">
        <ele>2568.4</ele>
        <time>2021-02-28T07:12:26Z</time>
      </trkpt>
      <trkpt lat="45.13973" lon="6.33021">
        <ele>2568.4</ele>
        <time>2021-02-28T07:12:27Z</time>
      </trkpt>
      <trkpt lat="45.13973" lon="6.33021">
        <ele>2568.6</ele>
        <time>2021-02-28T07:12:28Z</time>
      </trkpt>
      <trkpt lat="45.13973" lon="6.33021">
        <ele>2569</ele>
        <time>2021-02-28T07:12:29Z</time>
      </trkpt>
      <trkpt lat="45.13973" lon="6.33021">
        <ele>2568</ele>
        <time>2021-02-28T07:12:30Z</time>
      </trkpt>
      <trkpt lat="45.13974" lon="6.33024">
        <ele>2567.8</ele>
        <time>2021-02-28T07:12:31Z</time>
      </trkpt>
      <trkpt lat="45.13974" lon="6.33024">
        <ele>2568.6</ele>
        <time>2021-02-28T07:12:32Z</time>
      </trkpt>
      <trkpt lat="45.13974" lon="6.33024">
        <ele>2568.4</ele>
        <time>2021-02-28T07:12:33Z</time>
      </trkpt>
      <trkpt lat="45.13974" lon="6.33024">
        <ele>2568.6</ele>
        <time>2021-02-28T07:12:34Z</time>
      </trkpt>
      <trkpt lat="45.13974" lon="6.33024">
        <ele>2568.2</ele>
        <time>2021-02-28T07:12:35Z</time>
      </trkpt>
      <trkpt lat="45.13974" lon="6.33024">
        <ele>2567.6</ele>
        <time>2021-02-28T07:12:36Z</time>
      </trkpt>
      <trkpt lat="45.13974" lon="6.33024">
        <ele>2567.4</ele>
        <time>2021-02-28T07:12:37Z</time>
      </trkpt>
      <trkpt lat="45.13974" lon="6.33024">
        <ele>2566.4</ele>
        <time>2021-02-28T07:12:38Z</time>
      </trkpt>
      <trkpt lat="45.13974" lon="6.33024">
        <ele>2566.4</ele>
        <time>2021-02-28T07:12:39Z</time>
      </trkpt>
      <trkpt lat="45.13974" lon="6.33024">
        <ele>2563.8</ele>
        <time>2021-02-28T07:12:40Z</time>
      </trkpt>
      <trkpt lat="45.13974" lon="6.33024">
        <ele>2564.8</ele>
        <time>2021-02-28T07:12:41Z</time>
      </trkpt>
      <trkpt lat="45.13974" lon="6.33024">
        <ele>2564.8</ele>
        <time>2021-02-28T07:12:42Z</time>
      </trkpt>
      <trkpt lat="45.13974" lon="6.33024">
        <ele>2566.8</ele>
        <time>2021-02-28T07:12:43Z</time>
      </trkpt>
      <trkpt lat="45.13974" lon="6.33024">
        <ele>2567.2</ele>
        <time>2021-02-28T07:12:44Z</time>
      </trkpt>
      <trkpt lat="45.13974" lon="6.33024">
        <ele>2567.4</ele>
        <time>2021-02-28T07:12:45Z</time>
      </trkpt>
      <trkpt lat="45.13974" lon="6.33024">
        <ele>2567.2</ele>
        <time>2021-02-28T07:12:46Z</time>
      </trkpt>
      <trkpt lat="45.13974" lon="6.33024">
        <ele>2567.2</ele>
        <time>2021-02-28T07:12:47Z</time>
      </trkpt>
      <trkpt lat="45.13974" lon="6.33024">
        <ele>2567</ele>
        <time>2021-02-28T07:12:48Z</time>
      </trkpt>
      <trkpt lat="45.13974" lon="6.33024">
        <ele>2566.6</ele>
        <time>2021-02-28T07:12:49Z</time>
      </trkpt>
      <trkpt lat="45.13974" lon="6.33024">
        <ele>2566.6</ele>
        <time>2021-02-28T07:12:50Z</time>
      </trkpt>
      <trkpt lat="45.13974" lon="6.33024">
        <ele>2566.8</ele>
        <time>2021-02-28T07:12:51Z</time>
      </trkpt>
      <trkpt lat="45.13974" lon="6.33024">
        <ele>2566.8</ele>
        <time>2021-02-28T07:12:52Z</time>
      </trkpt>
      <trkpt lat="45.13974" lon="6.33024">
        <ele>2567</ele>
        <time>2021-02-28T07:12:53Z</time>
      </trkpt>
      <trkpt lat="45.13974" lon="6.33024">
        <ele>2566.8</ele>
        <time>2021-02-28T07:12:54Z</time>
      </trkpt>
      <trkpt lat="45.13974" lon="6.33024">
        <ele>2566.8</ele>
        <time>2021-02-28T07:12:55Z</time>
      </trkpt>
      <trkpt lat="45.13974" lon="6.33024">
        <ele>2566.4</ele>
        <time>2021-02-28T07:12:56Z</time>
      </trkpt>
      <trkpt lat="45.13973" lon="6.33028">
        <ele>2566.6</ele>
        <time>2021-02-28T07:12:57Z</time>
      </trkpt>
      <trkpt lat="45.13972" lon="6.3303">
        <ele>2567</ele>
        <time>2021-02-28T07:12:58Z</time>
      </trkpt>
      <trkpt lat="45.13971" lon="6.33033">
        <ele>2567.4</ele>
        <time>2021-02-28T07:12:59Z</time>
      </trkpt>
      <trkpt lat="45.1397" lon="6.33036">
        <ele>2567.6</ele>
        <time>2021-02-28T07:13:00Z</time>
      </trkpt>
      <trkpt lat="45.13969" lon="6.33039">
        <ele>2567.6</ele>
        <time>2021-02-28T07:13:01Z</time>
      </trkpt>
      <trkpt lat="45.13968" lon="6.33044">
        <ele>2567.2</ele>
        <time>2021-02-28T07:13:02Z</time>
      </trkpt>
      <trkpt lat="45.13967" lon="6.33046">
        <ele>2567.2</ele>
        <time>2021-02-28T07:13:03Z</time>
      </trkpt>
      <trkpt lat="45.13966" lon="6.33049">
        <ele>2566.8</ele>
        <time>2021-02-28T07:13:04Z</time>
      </trkpt>
      <trkpt lat="45.13965" lon="6.33052">
        <ele>2566.8</ele>
        <time>2021-02-28T07:13:05Z</time>
      </trkpt>
      <trkpt lat="45.13963" lon="6.33056">
        <ele>2565.8</ele>
        <time>2021-02-28T07:13:06Z</time>
      </trkpt>
      <trkpt lat="45.13961" lon="6.3306">
        <ele>2565</ele>
        <time>2021-02-28T07:13:07Z</time>
      </trkpt>
      <trkpt lat="45.13958" lon="6.33064">
        <ele>2564.2</ele>
        <time>2021-02-28T07:13:08Z</time>
      </trkpt>
      <trkpt lat="45.13956" lon="6.33068">
        <ele>2563.8</ele>
        <time>2021-02-28T07:13:09Z</time>
      </trkpt>
      <trkpt lat="45.13956" lon="6.33068">
        <ele>2562.8</ele>
        <time>2021-02-28T07:13:10Z</time>
      </trkpt>
      <trkpt lat="45.13951" lon="6.3308">
        <ele>2562</ele>
        <time>2021-02-28T07:13:11Z</time>
      </trkpt>
      <trkpt lat="45.13947" lon="6.3309">
        <ele>2561</ele>
        <time>2021-02-28T07:13:12Z</time>
      </trkpt>
      <trkpt lat="45.13945" lon="6.33094">
        <ele>2560.4</ele>
        <time>2021-02-28T07:13:13Z</time>
      </trkpt>
      <trkpt lat="45.13943" lon="6.33101">
        <ele>2559.8</ele>
        <time>2021-02-28T07:13:14Z</time>
      </trkpt>
      <trkpt lat="45.1394" lon="6.33106">
        <ele>2559.6</ele>
        <time>2021-02-28T07:13:15Z</time>
      </trkpt>
      <trkpt lat="45.13939" lon="6.33112">
        <ele>2559.2</ele>
        <time>2021-02-28T07:13:16Z</time>
      </trkpt>
      <trkpt lat="45.13937" lon="6.33117">
        <ele>2558.4</ele>
        <time>2021-02-28T07:13:17Z</time>
      </trkpt>
      <trkpt lat="45.13934" lon="6.33123">
        <ele>2557.8</ele>
        <time>2021-02-28T07:13:18Z</time>
      </trkpt>
      <trkpt lat="45.13931" lon="6.33128">
        <ele>2556.8</ele>
        <time>2021-02-28T07:13:19Z</time>
      </trkpt>
      <trkpt lat="45.13928" lon="6.33132">
        <ele>2555.4</ele>
        <time>2021-02-28T07:13:20Z</time>
      </trkpt>
      <trkpt lat="45.13926" lon="6.33137">
        <ele>2554.4</ele>
        <time>2021-02-28T07:13:21Z</time>
      </trkpt>
      <trkpt lat="45.13924" lon="6.33144">
        <ele>2553</ele>
        <time>2021-02-28T07:13:22Z</time>
      </trkpt>
      <trkpt lat="45.13921" lon="6.33151">
        <ele>2551.8</ele>
        <time>2021-02-28T07:13:23Z</time>
      </trkpt>
      <trkpt lat="45.13916" lon="6.33159">
        <ele>2550.2</ele>
        <time>2021-02-28T07:13:24Z</time>
      </trkpt>
      <trkpt lat="45.13911" lon="6.33165">
        <ele>2549.2</ele>
        <time>2021-02-28T07:13:25Z</time>
      </trkpt>
      <trkpt lat="45.13907" lon="6.33172">
        <ele>2548</ele>
        <time>2021-02-28T07:13:26Z</time>
      </trkpt>
      <trkpt lat="45.13903" lon="6.33179">
        <ele>2546.6</ele>
        <time>2021-02-28T07:13:27Z</time>
      </trkpt>
      <trkpt lat="45.13898" lon="6.33185">
        <ele>2544.6</ele>
        <time>2021-02-28T07:13:28Z</time>
      </trkpt>
      <trkpt lat="45.13895" lon="6.33192">
        <ele>2543.6</ele>
        <time>2021-02-28T07:13:29Z</time>
      </trkpt>
      <trkpt lat="45.13892" lon="6.33201">
        <ele>2542.2</ele>
        <time>2021-02-28T07:13:30Z</time>
      </trkpt>
      <trkpt lat="45.13892" lon="6.33201">
        <ele>2540.6</ele>
        <time>2021-02-28T07:13:31Z</time>
      </trkpt>
      <trkpt lat="45.13892" lon="6.33201">
        <ele>2539.4</ele>
        <time>2021-02-28T07:13:32Z</time>
      </trkpt>
      <trkpt lat="45.13894" lon="6.33218">
        <ele>2538.8</ele>
        <time>2021-02-28T07:13:33Z</time>
      </trkpt>
      <trkpt lat="45.13894" lon="6.3322">
        <ele>2538.4</ele>
        <time>2021-02-28T07:13:34Z</time>
      </trkpt>
      <trkpt lat="45.13895" lon="6.33223">
        <ele>2537.2</ele>
        <time>2021-02-28T07:13:35Z</time>
      </trkpt>
      <trkpt lat="45.13895" lon="6.33228">
        <ele>2537</ele>
        <time>2021-02-28T07:13:36Z</time>
      </trkpt>
      <trkpt lat="45.13895" lon="6.33228">
        <ele>2536.4</ele>
        <time>2021-02-28T07:13:37Z</time>
      </trkpt>
      <trkpt lat="45.13894" lon="6.33235">
        <ele>2535.4</ele>
        <time>2021-02-28T07:13:38Z</time>
      </trkpt>
      <trkpt lat="45.13893" lon="6.3324">
        <ele>2535</ele>
        <time>2021-02-28T07:13:39Z</time>
      </trkpt>
      <trkpt lat="45.13893" lon="6.33242">
        <ele>2534</ele>
        <time>2021-02-28T07:13:40Z</time>
      </trkpt>
      <trkpt lat="45.13892" lon="6.33245">
        <ele>2533.4</ele>
        <time>2021-02-28T07:13:41Z</time>
      </trkpt>
      <trkpt lat="45.1389" lon="6.33248">
        <ele>2533.2</ele>
        <time>2021-02-28T07:13:42Z</time>
      </trkpt>
      <trkpt lat="45.13888" lon="6.33251">
        <ele>2532.4</ele>
        <time>2021-02-28T07:13:43Z</time>
      </trkpt>
      <trkpt lat="45.13886" lon="6.33254">
        <ele>2531.8</ele>
        <time>2021-02-28T07:13:44Z</time>
      </trkpt>
      <trkpt lat="45.13884" lon="6.33258">
        <ele>2530.4</ele>
        <time>2021-02-28T07:13:45Z</time>
      </trkpt>
      <trkpt lat="45.13882" lon="6.33264">
        <ele>2529.6</ele>
        <time>2021-02-28T07:13:46Z</time>
      </trkpt>
      <trkpt lat="45.13881" lon="6.33271">
        <ele>2529.2</ele>
        <time>2021-02-28T07:13:47Z</time>
      </trkpt>
      <trkpt lat="45.13881" lon="6.33277">
        <ele>2528.4</ele>
        <time>2021-02-28T07:13:48Z</time>
      </trkpt>
      <trkpt lat="45.13884" lon="6.33281">
        <ele>2528</ele>
        <time>2021-02-28T07:13:49Z</time>
      </trkpt>
      <trkpt lat="45.13891" lon="6.33284">
        <ele>2526.8</ele>
        <time>2021-02-28T07:13:50Z</time>
      </trkpt>
      <trkpt lat="45.139" lon="6.33287">
        <ele>2526</ele>
        <time>2021-02-28T07:13:51Z</time>
      </trkpt>
      <trkpt lat="45.1391" lon="6.33292">
        <ele>2524</ele>
        <time>2021-02-28T07:13:52Z</time>
      </trkpt>
      <trkpt lat="45.13919" lon="6.33297">
        <ele>2522.2</ele>
        <time>2021-02-28T07:13:53Z</time>
      </trkpt>
      <trkpt lat="45.13926" lon="6.33304">
        <ele>2520.6</ele>
        <time>2021-02-28T07:13:54Z</time>
      </trkpt>
      <trkpt lat="45.13931" lon="6.3331">
        <ele>2519.8</ele>
        <time>2021-02-28T07:13:55Z</time>
      </trkpt>
      <trkpt lat="45.13935" lon="6.33314">
        <ele>2519</ele>
        <time>2021-02-28T07:13:56Z</time>
      </trkpt>
      <trkpt lat="45.13939" lon="6.33316">
        <ele>2518</ele>
        <time>2021-02-28T07:13:57Z</time>
      </trkpt>
      <trkpt lat="45.13942" lon="6.33319">
        <ele>2517.8</ele>
        <time>2021-02-28T07:13:58Z</time>
      </trkpt>
      <trkpt lat="45.13942" lon="6.33319">
        <ele>2517.8</ele>
        <time>2021-02-28T07:13:59Z</time>
      </trkpt>
      <trkpt lat="45.13942" lon="6.33319">
        <ele>2516.8</ele>
        <time>2021-02-28T07:14:00Z</time>
      </trkpt>
      <trkpt lat="45.13943" lon="6.3332">
        <ele>2516.4</ele>
        <time>2021-02-28T07:14:01Z</time>
      </trkpt>
      <trkpt lat="45.13945" lon="6.33322">
        <ele>2516.6</ele>
        <time>2021-02-28T07:14:02Z</time>
      </trkpt>
      <trkpt lat="45.13947" lon="6.33324">
        <ele>2517</ele>
        <time>2021-02-28T07:14:03Z</time>
      </trkpt>
      <trkpt lat="45.13949" lon="6.33325">
        <ele>2516</ele>
        <time>2021-02-28T07:14:04Z</time>
      </trkpt>
      <trkpt lat="45.1395" lon="6.33327">
        <ele>2516.4</ele>
        <time>2021-02-28T07:14:05Z</time>
      </trkpt>
      <trkpt lat="45.13952" lon="6.3333">
        <ele>2515.8</ele>
        <time>2021-02-28T07:14:06Z</time>
      </trkpt>
      <trkpt lat="45.13954" lon="6.33332">
        <ele>2516.4</ele>
        <time>2021-02-28T07:14:07Z</time>
      </trkpt>
      <trkpt lat="45.13956" lon="6.33334">
        <ele>2516.2</ele>
        <time>2021-02-28T07:14:08Z</time>
      </trkpt>
      <trkpt lat="45.13957" lon="6.33337">
        <ele>2516</ele>
        <time>2021-02-28T07:14:09Z</time>
      </trkpt>
      <trkpt lat="45.13964" lon="6.33348">
        <ele>2516.2</ele>
        <time>2021-02-28T07:14:10Z</time>
      </trkpt>
      <trkpt lat="45.13964" lon="6.3335">
        <ele>2515.8</ele>
        <time>2021-02-28T07:14:11Z</time>
      </trkpt>
      <trkpt lat="45.13965" lon="6.33351">
        <ele>2515.6</ele>
        <time>2021-02-28T07:14:12Z</time>
      </trkpt>
      <trkpt lat="45.13965" lon="6.33351">
        <ele>2515.2</ele>
        <time>2021-02-28T07:14:13Z</time>
      </trkpt>
      <trkpt lat="45.13969" lon="6.33363">
        <ele>2515.8</ele>
        <time>2021-02-28T07:14:14Z</time>
      </trkpt>
      <trkpt lat="45.13969" lon="6.33363">
        <ele>2516.4</ele>
        <time>2021-02-28T07:14:15Z</time>
      </trkpt>
      <trkpt lat="45.13969" lon="6.33363">
        <ele>2516</ele>
        <time>2021-02-28T07:14:16Z</time>
      </trkpt>
      <trkpt lat="45.1397" lon="6.33366">
        <ele>2516.2</ele>
        <time>2021-02-28T07:14:17Z</time>
      </trkpt>
      <trkpt lat="45.13971" lon="6.3337">
        <ele>2516.6</ele>
        <time>2021-02-28T07:14:18Z</time>
      </trkpt>
      <trkpt lat="45.13972" lon="6.33373">
        <ele>2516.6</ele>
        <time>2021-02-28T07:14:19Z</time>
      </trkpt>
      <trkpt lat="45.13973" lon="6.33377">
        <ele>2516.2</ele>
        <time>2021-02-28T07:14:20Z</time>
      </trkpt>
      <trkpt lat="45.13974" lon="6.3338">
        <ele>2515.6</ele>
        <time>2021-02-28T07:14:21Z</time>
      </trkpt>
      <trkpt lat="45.13974" lon="6.33383">
        <ele>2515.2</ele>
        <time>2021-02-28T07:14:22Z</time>
      </trkpt>
      <trkpt lat="45.13975" lon="6.33387">
        <ele>2514.8</ele>
        <time>2021-02-28T07:14:23Z</time>
      </trkpt>
      <trkpt lat="45.13975" lon="6.3339">
        <ele>2513.8</ele>
        <time>2021-02-28T07:14:24Z</time>
      </trkpt>
      <trkpt lat="45.13976" lon="6.33404">
        <ele>2514.2</ele>
        <time>2021-02-28T07:14:25Z</time>
      </trkpt>
      <trkpt lat="45.13976" lon="6.33404">
        <ele>2514</ele>
        <time>2021-02-28T07:14:26Z</time>
      </trkpt>
      <trkpt lat="45.13976" lon="6.33404">
        <ele>2513.8</ele>
        <time>2021-02-28T07:14:27Z</time>
      </trkpt>
      <trkpt lat="45.13974" lon="6.3341">
        <ele>2513</ele>
        <time>2021-02-28T07:14:28Z</time>
      </trkpt>
      <trkpt lat="45.13973" lon="6.33416">
        <ele>2513</ele>
        <time>2021-02-28T07:14:29Z</time>
      </trkpt>
      <trkpt lat="45.13972" lon="6.33422">
        <ele>2512.8</ele>
        <time>2021-02-28T07:14:30Z</time>
      </trkpt>
      <trkpt lat="45.13971" lon="6.33428">
        <ele>2512.6</ele>
        <time>2021-02-28T07:14:31Z</time>
      </trkpt>
      <trkpt lat="45.1397" lon="6.33432">
        <ele>2512.4</ele>
        <time>2021-02-28T07:14:32Z</time>
      </trkpt>
      <trkpt lat="45.13969" lon="6.33435">
        <ele>2512</ele>
        <time>2021-02-28T07:14:33Z</time>
      </trkpt>
      <trkpt lat="45.13969" lon="6.33435">
        <ele>2512</ele>
        <time>2021-02-28T07:14:34Z</time>
      </trkpt>
      <trkpt lat="45.13969" lon="6.33435">
        <ele>2511.4</ele>
        <time>2021-02-28T07:14:35Z</time>
      </trkpt>
      <trkpt lat="45.13968" lon="6.33449">
        <ele>2510.8</ele>
        <time>2021-02-28T07:14:36Z</time>
      </trkpt>
      <trkpt lat="45.13968" lon="6.33449">
        <ele>2510.6</ele>
        <time>2021-02-28T07:14:37Z</time>
      </trkpt>
      <trkpt lat="45.13968" lon="6.33449">
        <ele>2510.2</ele>
        <time>2021-02-28T07:14:38Z</time>
      </trkpt>
      <trkpt lat="45.13967" lon="6.33452">
        <ele>2509.8</ele>
        <time>2021-02-28T07:14:39Z</time>
      </trkpt>
      <trkpt lat="45.13967" lon="6.33455">
        <ele>2510.2</ele>
        <time>2021-02-28T07:14:40Z</time>
      </trkpt>
      <trkpt lat="45.13967" lon="6.33458">
        <ele>2509.8</ele>
        <time>2021-02-28T07:14:41Z</time>
      </trkpt>
      <trkpt lat="45.13967" lon="6.33462">
        <ele>2509.8</ele>
        <time>2021-02-28T07:14:42Z</time>
      </trkpt>
      <trkpt lat="45.13967" lon="6.33465">
        <ele>2509.4</ele>
        <time>2021-02-28T07:14:43Z</time>
      </trkpt>
      <trkpt lat="45.13967" lon="6.33468">
        <ele>2507.6</ele>
        <time>2021-02-28T07:14:44Z</time>
      </trkpt>
      <trkpt lat="45.13966" lon="6.33472">
        <ele>2508.6</ele>
        <time>2021-02-28T07:14:45Z</time>
      </trkpt>
      <trkpt lat="45.13966" lon="6.33475">
        <ele>2508.8</ele>
        <time>2021-02-28T07:14:46Z</time>
      </trkpt>
      <trkpt lat="45.13966" lon="6.3348">
        <ele>2509</ele>
        <time>2021-02-28T07:14:47Z</time>
      </trkpt>
      <trkpt lat="45.13965" lon="6.33484">
        <ele>2508.8</ele>
        <time>2021-02-28T07:14:48Z</time>
      </trkpt>
      <trkpt lat="45.13964" lon="6.33489">
        <ele>2508.2</ele>
        <time>2021-02-28T07:14:49Z</time>
      </trkpt>
      <trkpt lat="45.13964" lon="6.33493">
        <ele>2508.4</ele>
        <time>2021-02-28T07:14:50Z</time>
      </trkpt>
      <trkpt lat="45.13963" lon="6.33501">
        <ele>2508.4</ele>
        <time>2021-02-28T07:14:51Z</time>
      </trkpt>
      <trkpt lat="45.13966" lon="6.33514">
        <ele>2507</ele>
        <time>2021-02-28T07:14:52Z</time>
      </trkpt>
      <trkpt lat="45.13967" lon="6.3352">
        <ele>2505.8</ele>
        <time>2021-02-28T07:14:53Z</time>
      </trkpt>
      <trkpt lat="45.13967" lon="6.3352">
        <ele>2505</ele>
        <time>2021-02-28T07:14:54Z</time>
      </trkpt>
      <trkpt lat="45.13971" lon="6.33541">
        <ele>2502.6</ele>
        <time>2021-02-28T07:14:55Z</time>
      </trkpt>
      <trkpt lat="45.13972" lon="6.33552">
        <ele>2501.8</ele>
        <time>2021-02-28T07:14:56Z</time>
      </trkpt>
      <trkpt lat="45.13972" lon="6.33555">
        <ele>2500.8</ele>
        <time>2021-02-28T07:14:57Z</time>
      </trkpt>
      <trkpt lat="45.13972" lon="6.33562">
        <ele>2500.6</ele>
        <time>2021-02-28T07:14:58Z</time>
      </trkpt>
      <trkpt lat="45.13972" lon="6.33565">
        <ele>2500.4</ele>
        <time>2021-02-28T07:14:59Z</time>
      </trkpt>
      <trkpt lat="45.13972" lon="6.33565">
        <ele>2500.4</ele>
        <time>2021-02-28T07:15:00Z</time>
      </trkpt>
      <trkpt lat="45.13972" lon="6.33569">
        <ele>2499.6</ele>
        <time>2021-02-28T07:15:01Z</time>
      </trkpt>
      <trkpt lat="45.13972" lon="6.33569">
        <ele>2499.8</ele>
        <time>2021-02-28T07:15:02Z</time>
      </trkpt>
      <trkpt lat="45.13972" lon="6.33569">
        <ele>2499.6</ele>
        <time>2021-02-28T07:15:03Z</time>
      </trkpt>
      <trkpt lat="45.13972" lon="6.33569">
        <ele>2499.8</ele>
        <time>2021-02-28T07:15:04Z</time>
      </trkpt>
      <trkpt lat="45.13972" lon="6.33572">
        <ele>2499.8</ele>
        <time>2021-02-28T07:15:05Z</time>
      </trkpt>
      <trkpt lat="45.13972" lon="6.33572">
        <ele>2499.6</ele>
        <time>2021-02-28T07:15:06Z</time>
      </trkpt>
      <trkpt lat="45.13972" lon="6.33572">
        <ele>2499</ele>
        <time>2021-02-28T07:15:07Z</time>
      </trkpt>
      <trkpt lat="45.13972" lon="6.33572">
        <ele>2498.8</ele>
        <time>2021-02-28T07:15:08Z</time>
      </trkpt>
      <trkpt lat="45.13972" lon="6.33572">
        <ele>2499</ele>
        <time>2021-02-28T07:15:09Z</time>
      </trkpt>
      <trkpt lat="45.13972" lon="6.33572">
        <ele>2499</ele>
        <time>2021-02-28T07:15:10Z</time>
      </trkpt>
      <trkpt lat="45.13972" lon="6.33572">
        <ele>2499.6</ele>
        <time>2021-02-28T07:15:11Z</time>
      </trkpt>
      <trkpt lat="45.13975" lon="6.33571">
        <ele>2499.4</ele>
        <time>2021-02-28T07:15:12Z</time>
      </trkpt>
      <trkpt lat="45.13978" lon="6.3357">
        <ele>2498.8</ele>
        <time>2021-02-28T07:15:13Z</time>
      </trkpt>
      <trkpt lat="45.13982" lon="6.3357">
        <ele>2498.6</ele>
        <time>2021-02-28T07:15:14Z</time>
      </trkpt>
      <trkpt lat="45.13986" lon="6.33572">
        <ele>2498.6</ele>
        <time>2021-02-28T07:15:15Z</time>
      </trkpt>
      <trkpt lat="45.13988" lon="6.33575">
        <ele>2497.4</ele>
        <time>2021-02-28T07:15:16Z</time>
      </trkpt>
      <trkpt lat="45.13988" lon="6.33575">
        <ele>2496.8</ele>
        <time>2021-02-28T07:15:17Z</time>
      </trkpt>
      <trkpt lat="45.13985" lon="6.33576">
        <ele>2496.2</ele>
        <time>2021-02-28T07:15:18Z</time>
      </trkpt>
      <trkpt lat="45.13983" lon="6.33577">
        <ele>2496</ele>
        <time>2021-02-28T07:15:19Z</time>
      </trkpt>
      <trkpt lat="45.1398" lon="6.33577">
        <ele>2496</ele>
        <time>2021-02-28T07:15:20Z</time>
      </trkpt>
      <trkpt lat="45.13978" lon="6.33578">
        <ele>2495.4</ele>
        <time>2021-02-28T07:15:21Z</time>
      </trkpt>
      <trkpt lat="45.13978" lon="6.33578">
        <ele>2495.4</ele>
        <time>2021-02-28T07:15:22Z</time>
      </trkpt>
      <trkpt lat="45.13978" lon="6.33578">
        <ele>2495</ele>
        <time>2021-02-28T07:15:23Z</time>
      </trkpt>
      <trkpt lat="45.13978" lon="6.33578">
        <ele>2495.2</ele>
        <time>2021-02-28T07:15:24Z</time>
      </trkpt>
      <trkpt lat="45.13978" lon="6.33578">
        <ele>2494.6</ele>
        <time>2021-02-28T07:15:25Z</time>
      </trkpt>
      <trkpt lat="45.13978" lon="6.33578">
        <ele>2495</ele>
        <time>2021-02-28T07:15:26Z</time>
      </trkpt>
      <trkpt lat="45.13978" lon="6.33578">
        <ele>2494.4</ele>
        <time>2021-02-28T07:15:27Z</time>
      </trkpt>
      <trkpt lat="45.13978" lon="6.33578">
        <ele>2494.2</ele>
        <time>2021-02-28T07:15:28Z</time>
      </trkpt>
      <trkpt lat="45.13978" lon="6.33578">
        <ele>2494.2</ele>
        <time>2021-02-28T07:15:29Z</time>
      </trkpt>
      <trkpt lat="45.13978" lon="6.33578">
        <ele>2494.4</ele>
        <time>2021-02-28T07:15:30Z</time>
      </trkpt>
      <trkpt lat="45.13978" lon="6.33578">
        <ele>2493.6</ele>
        <time>2021-02-28T07:15:31Z</time>
      </trkpt>
      <trkpt lat="45.13978" lon="6.33578">
        <ele>2493.4</ele>
        <time>2021-02-28T07:15:32Z</time>
      </trkpt>
      <trkpt lat="45.13978" lon="6.33578">
        <ele>2493.6</ele>
        <time>2021-02-28T07:15:33Z</time>
      </trkpt>
      <trkpt lat="45.13978" lon="6.33578">
        <ele>2494</ele>
        <time>2021-02-28T07:15:34Z</time>
      </trkpt>
      <trkpt lat="45.13978" lon="6.33578">
        <ele>2494.2</ele>
        <time>2021-02-28T07:15:35Z</time>
      </trkpt>
      <trkpt lat="45.13978" lon="6.33578">
        <ele>2494.2</ele>
        <time>2021-02-28T07:15:36Z</time>
      </trkpt>
      <trkpt lat="45.13978" lon="6.33578">
        <ele>2495.4</ele>
        <time>2021-02-28T07:15:37Z</time>
      </trkpt>
      <trkpt lat="45.13978" lon="6.33578">
        <ele>2495</ele>
        <time>2021-02-28T07:15:38Z</time>
      </trkpt>
      <trkpt lat="45.13977" lon="6.33577">
        <ele>2496.2</ele>
        <time>2021-02-28T07:15:39Z</time>
      </trkpt>
      <trkpt lat="45.13977" lon="6.33577">
        <ele>2496.4</ele>
        <time>2021-02-28T07:15:40Z</time>
      </trkpt>
      <trkpt lat="45.13977" lon="6.33577">
        <ele>2495.4</ele>
        <time>2021-02-28T07:15:41Z</time>
      </trkpt>
      <trkpt lat="45.13977" lon="6.33577">
        <ele>2494</ele>
        <time>2021-02-28T07:15:42Z</time>
      </trkpt>
      <trkpt lat="45.13974" lon="6.33578">
        <ele>2494.8</ele>
        <time>2021-02-28T07:15:43Z</time>
      </trkpt>
      <trkpt lat="45.13974" lon="6.33578">
        <ele>2494.2</ele>
        <time>2021-02-28T07:15:44Z</time>
      </trkpt>
      <trkpt lat="45.13974" lon="6.33578">
        <ele>2495.2</ele>
        <time>2021-02-28T07:15:45Z</time>
      </trkpt>
      <trkpt lat="45.13972" lon="6.33578">
        <ele>2495.2</ele>
        <time>2021-02-28T07:15:46Z</time>
      </trkpt>
      <trkpt lat="45.13972" lon="6.33578">
        <ele>2496</ele>
        <time>2021-02-28T07:15:47Z</time>
      </trkpt>
      <trkpt lat="45.13972" lon="6.33578">
        <ele>2496.2</ele>
        <time>2021-02-28T07:15:48Z</time>
      </trkpt>
      <trkpt lat="45.13972" lon="6.33578">
        <ele>2496.8</ele>
        <time>2021-02-28T07:15:49Z</time>
      </trkpt>
      <trkpt lat="45.13972" lon="6.33578">
        <ele>2496.2</ele>
        <time>2021-02-28T07:15:50Z</time>
      </trkpt>
      <trkpt lat="45.13972" lon="6.33578">
        <ele>2496.2</ele>
        <time>2021-02-28T07:15:51Z</time>
      </trkpt>
      <trkpt lat="45.13972" lon="6.33578">
        <ele>2496.4</ele>
        <time>2021-02-28T07:15:52Z</time>
      </trkpt>
      <trkpt lat="45.13972" lon="6.33578">
        <ele>2495.8</ele>
        <time>2021-02-28T07:15:53Z</time>
      </trkpt>
      <trkpt lat="45.13972" lon="6.33578">
        <ele>2496.2</ele>
        <time>2021-02-28T07:15:54Z</time>
      </trkpt>
      <trkpt lat="45.1397" lon="6.33579">
        <ele>2496.2</ele>
        <time>2021-02-28T07:15:55Z</time>
      </trkpt>
      <trkpt lat="45.1397" lon="6.33579">
        <ele>2496.6</ele>
        <time>2021-02-28T07:15:56Z</time>
      </trkpt>
      <trkpt lat="45.1397" lon="6.33579">
        <ele>2496.6</ele>
        <time>2021-02-28T07:15:57Z</time>
      </trkpt>
      <trkpt lat="45.1397" lon="6.33579">
        <ele>2497</ele>
        <time>2021-02-28T07:15:58Z</time>
      </trkpt>
      <trkpt lat="45.1397" lon="6.33579">
        <ele>2498</ele>
        <time>2021-02-28T07:15:59Z</time>
      </trkpt>
      <trkpt lat="45.1397" lon="6.33579">
        <ele>2497.8</ele>
        <time>2021-02-28T07:16:00Z</time>
      </trkpt>
      <trkpt lat="45.1397" lon="6.33579">
        <ele>2497.6</ele>
        <time>2021-02-28T07:16:01Z</time>
      </trkpt>
      <trkpt lat="45.1397" lon="6.33579">
        <ele>2497.4</ele>
        <time>2021-02-28T07:16:02Z</time>
      </trkpt>
      <trkpt lat="45.1397" lon="6.33579">
        <ele>2497.4</ele>
        <time>2021-02-28T07:16:03Z</time>
      </trkpt>
      <trkpt lat="45.1397" lon="6.33579">
        <ele>2497.6</ele>
        <time>2021-02-28T07:16:04Z</time>
      </trkpt>
      <trkpt lat="45.1397" lon="6.33579">
        <ele>2498.2</ele>
        <time>2021-02-28T07:16:05Z</time>
      </trkpt>
      <trkpt lat="45.1397" lon="6.33579">
        <ele>2498.2</ele>
        <time>2021-02-28T07:16:06Z</time>
      </trkpt>
      <trkpt lat="45.1397" lon="6.33579">
        <ele>2498.2</ele>
        <time>2021-02-28T07:16:07Z</time>
      </trkpt>
      <trkpt lat="45.1397" lon="6.33579">
        <ele>2498.2</ele>
        <time>2021-02-28T07:16:08Z</time>
      </trkpt>
      <trkpt lat="45.1397" lon="6.33579">
        <ele>2498.4</ele>
        <time>2021-02-28T07:16:09Z</time>
      </trkpt>
      <trkpt lat="45.1397" lon="6.33579">
        <ele>2498.4</ele>
        <time>2021-02-28T07:16:10Z</time>
      </trkpt>
      <trkpt lat="45.1397" lon="6.33579">
        <ele>2498.4</ele>
        <time>2021-02-28T07:16:11Z</time>
      </trkpt>
      <trkpt lat="45.1397" lon="6.33579">
        <ele>2498.2</ele>
        <time>2021-02-28T07:16:12Z</time>
      </trkpt>
      <trkpt lat="45.1397" lon="6.33579">
        <ele>2498</ele>
        <time>2021-02-28T07:16:13Z</time>
      </trkpt>
      <trkpt lat="45.1397" lon="6.33579">
        <ele>2498.2</ele>
        <time>2021-02-28T07:16:14Z</time>
      </trkpt>
      <trkpt lat="45.1397" lon="6.33579">
        <ele>2498.2</ele>
        <time>2021-02-28T07:16:15Z</time>
      </trkpt>
      <trkpt lat="45.1397" lon="6.33579">
        <ele>2498</ele>
        <time>2021-02-28T07:16:16Z</time>
      </trkpt>
      <trkpt lat="45.1397" lon="6.33579">
        <ele>2498</ele>
        <time>2021-02-28T07:16:17Z</time>
      </trkpt>
      <trkpt lat="45.1397" lon="6.33579">
        <ele>2497.8</ele>
        <time>2021-02-28T07:16:18Z</time>
      </trkpt>
      <trkpt lat="45.1397" lon="6.33579">
        <ele>2497.8</ele>
        <time>2021-02-28T07:16:19Z</time>
      </trkpt>
      <trkpt lat="45.1397" lon="6.33579">
        <ele>2497.6</ele>
        <time>2021-02-28T07:16:20Z</time>
      </trkpt>
      <trkpt lat="45.1397" lon="6.33579">
        <ele>2497.4</ele>
        <time>2021-02-28T07:16:21Z</time>
      </trkpt>
      <trkpt lat="45.1397" lon="6.33579">
        <ele>2497.4</ele>
        <time>2021-02-28T07:16:22Z</time>
      </trkpt>
      <trkpt lat="45.1397" lon="6.33579">
        <ele>2497.6</ele>
        <time>2021-02-28T07:16:23Z</time>
      </trkpt>
      <trkpt lat="45.1397" lon="6.33579">
        <ele>2497.6</ele>
        <time>2021-02-28T07:16:24Z</time>
      </trkpt>
      <trkpt lat="45.1397" lon="6.33579">
        <ele>2497</ele>
        <time>2021-02-28T07:16:25Z</time>
      </trkpt>
      <trkpt lat="45.1397" lon="6.33579">
        <ele>2496.8</ele>
        <time>2021-02-28T07:16:26Z</time>
      </trkpt>
      <trkpt lat="45.1397" lon="6.33579">
        <ele>2496</ele>
        <time>2021-02-28T07:16:27Z</time>
      </trkpt>
      <trkpt lat="45.1397" lon="6.33579">
        <ele>2496</ele>
        <time>2021-02-28T07:16:28Z</time>
      </trkpt>
      <trkpt lat="45.1397" lon="6.33579">
        <ele>2496.4</ele>
        <time>2021-02-28T07:16:29Z</time>
      </trkpt>
      <trkpt lat="45.1397" lon="6.33579">
        <ele>2496</ele>
        <time>2021-02-28T07:16:30Z</time>
      </trkpt>
      <trkpt lat="45.1397" lon="6.33579">
        <ele>2496.2</ele>
        <time>2021-02-28T07:16:31Z</time>
      </trkpt>
      <trkpt lat="45.1397" lon="6.33579">
        <ele>2496.6</ele>
        <time>2021-02-28T07:16:32Z</time>
      </trkpt>
      <trkpt lat="45.1397" lon="6.33579">
        <ele>2496.6</ele>
        <time>2021-02-28T07:16:33Z</time>
      </trkpt>
      <trkpt lat="45.1397" lon="6.33579">
        <ele>2496.8</ele>
        <time>2021-02-28T07:16:34Z</time>
      </trkpt>
      <trkpt lat="45.1397" lon="6.33579">
        <ele>2497</ele>
        <time>2021-02-28T07:16:35Z</time>
      </trkpt>
      <trkpt lat="45.1397" lon="6.33579">
        <ele>2497</ele>
        <time>2021-02-28T07:16:36Z</time>
      </trkpt>
      <trkpt lat="45.1397" lon="6.33579">
        <ele>2497.2</ele>
        <time>2021-02-28T07:16:37Z</time>
      </trkpt>
      <trkpt lat="45.1397" lon="6.33579">
        <ele>2496.8</ele>
        <time>2021-02-28T07:16:38Z</time>
      </trkpt>
      <trkpt lat="45.1397" lon="6.33579">
        <ele>2496.2</ele>
        <time>2021-02-28T07:16:39Z</time>
      </trkpt>
      <trkpt lat="45.1397" lon="6.33579">
        <ele>2496</ele>
        <time>2021-02-28T07:16:40Z</time>
      </trkpt>
      <trkpt lat="45.1397" lon="6.33579">
        <ele>2496.2</ele>
        <time>2021-02-28T07:16:41Z</time>
      </trkpt>
      <trkpt lat="45.1397" lon="6.33579">
        <ele>2495.8</ele>
        <time>2021-02-28T07:16:42Z</time>
      </trkpt>
      <trkpt lat="45.1397" lon="6.33579">
        <ele>2496.8</ele>
        <time>2021-02-28T07:16:43Z</time>
      </trkpt>
      <trkpt lat="45.1397" lon="6.33579">
        <ele>2496.8</ele>
        <time>2021-02-28T07:16:44Z</time>
      </trkpt>
      <trkpt lat="45.1397" lon="6.33579">
        <ele>2496.6</ele>
        <time>2021-02-28T07:16:45Z</time>
      </trkpt>
      <trkpt lat="45.1397" lon="6.33579">
        <ele>2496.4</ele>
        <time>2021-02-28T07:16:46Z</time>
      </trkpt>
      <trkpt lat="45.1397" lon="6.33579">
        <ele>2496</ele>
        <time>2021-02-28T07:16:47Z</time>
      </trkpt>
      <trkpt lat="45.1397" lon="6.33579">
        <ele>2496</ele>
        <time>2021-02-28T07:16:48Z</time>
      </trkpt>
      <trkpt lat="45.1397" lon="6.33579">
        <ele>2495.8</ele>
        <time>2021-02-28T07:16:49Z</time>
      </trkpt>
      <trkpt lat="45.1397" lon="6.33579">
        <ele>2495.6</ele>
        <time>2021-02-28T07:16:50Z</time>
      </trkpt>
      <trkpt lat="45.1397" lon="6.33579">
        <ele>2495.4</ele>
        <time>2021-02-28T07:16:51Z</time>
      </trkpt>
      <trkpt lat="45.1397" lon="6.33579">
        <ele>2495.4</ele>
        <time>2021-02-28T07:16:52Z</time>
      </trkpt>
      <trkpt lat="45.1397" lon="6.33579">
        <ele>2495</ele>
        <time>2021-02-28T07:16:53Z</time>
      </trkpt>
      <trkpt lat="45.1397" lon="6.33579">
        <ele>2495</ele>
        <time>2021-02-28T07:16:54Z</time>
      </trkpt>
      <trkpt lat="45.1397" lon="6.33579">
        <ele>2495</ele>
        <time>2021-02-28T07:16:55Z</time>
      </trkpt>
      <trkpt lat="45.1397" lon="6.33579">
        <ele>2495</ele>
        <time>2021-02-28T07:16:56Z</time>
      </trkpt>
      <trkpt lat="45.1397" lon="6.33579">
        <ele>2494.8</ele>
        <time>2021-02-28T07:16:57Z</time>
      </trkpt>
      <trkpt lat="45.1397" lon="6.33579">
        <ele>2494.8</ele>
        <time>2021-02-28T07:16:58Z</time>
      </trkpt>
      <trkpt lat="45.1397" lon="6.33579">
        <ele>2494.6</ele>
        <time>2021-02-28T07:16:59Z</time>
      </trkpt>
      <trkpt lat="45.1397" lon="6.33579">
        <ele>2494.6</ele>
        <time>2021-02-28T07:17:00Z</time>
      </trkpt>
      <trkpt lat="45.1397" lon="6.33579">
        <ele>2494.6</ele>
        <time>2021-02-28T07:17:01Z</time>
      </trkpt>
      <trkpt lat="45.1397" lon="6.33579">
        <ele>2494.4</ele>
        <time>2021-02-28T07:17:02Z</time>
      </trkpt>
      <trkpt lat="45.1397" lon="6.33579">
        <ele>2494.6</ele>
        <time>2021-02-28T07:17:03Z</time>
      </trkpt>
      <trkpt lat="45.1397" lon="6.33579">
        <ele>2494.6</ele>
        <time>2021-02-28T07:17:04Z</time>
      </trkpt>
      <trkpt lat="45.1397" lon="6.33579">
        <ele>2494.6</ele>
        <time>2021-02-28T07:17:05Z</time>
      </trkpt>
      <trkpt lat="45.1397" lon="6.33579">
        <ele>2494.8</ele>
        <time>2021-02-28T07:17:06Z</time>
      </trkpt>
      <trkpt lat="45.1397" lon="6.33579">
        <ele>2494.8</ele>
        <time>2021-02-28T07:17:07Z</time>
      </trkpt>
      <trkpt lat="45.1397" lon="6.33579">
        <ele>2494.8</ele>
        <time>2021-02-28T07:17:08Z</time>
      </trkpt>
      <trkpt lat="45.1397" lon="6.33579">
        <ele>2495</ele>
        <time>2021-02-28T07:17:09Z</time>
      </trkpt>
      <trkpt lat="45.1397" lon="6.33579">
        <ele>2494.8</ele>
        <time>2021-02-28T07:17:10Z</time>
      </trkpt>
      <trkpt lat="45.1397" lon="6.33579">
        <ele>2495</ele>
        <time>2021-02-28T07:17:11Z</time>
      </trkpt>
      <trkpt lat="45.1397" lon="6.33579">
        <ele>2494.8</ele>
        <time>2021-02-28T07:17:12Z</time>
      </trkpt>
      <trkpt lat="45.1397" lon="6.33579">
        <ele>2494.8</ele>
        <time>2021-02-28T07:17:13Z</time>
      </trkpt>
      <trkpt lat="45.1397" lon="6.33579">
        <ele>2494.8</ele>
        <time>2021-02-28T07:17:14Z</time>
      </trkpt>
      <trkpt lat="45.1397" lon="6.33579">
        <ele>2494.8</ele>
        <time>2021-02-28T07:17:15Z</time>
      </trkpt>
      <trkpt lat="45.1397" lon="6.33579">
        <ele>2494.6</ele>
        <time>2021-02-28T07:17:16Z</time>
      </trkpt>
      <trkpt lat="45.1397" lon="6.33579">
        <ele>2494.4</ele>
        <time>2021-02-28T07:17:17Z</time>
      </trkpt>
      <trkpt lat="45.1397" lon="6.33579">
        <ele>2494.4</ele>
        <time>2021-02-28T07:17:18Z</time>
      </trkpt>
      <trkpt lat="45.1397" lon="6.33579">
        <ele>2494.2</ele>
        <time>2021-02-28T07:17:19Z</time>
      </trkpt>
      <trkpt lat="45.1397" lon="6.33579">
        <ele>2494.4</ele>
        <time>2021-02-28T07:17:20Z</time>
      </trkpt>
      <trkpt lat="45.13971" lon="6.33577">
        <ele>2494.6</ele>
        <time>2021-02-28T07:17:21Z</time>
      </trkpt>
      <trkpt lat="45.13971" lon="6.33577">
        <ele>2493</ele>
        <time>2021-02-28T07:17:22Z</time>
      </trkpt>
      <trkpt lat="45.13971" lon="6.33577">
        <ele>2493.8</ele>
        <time>2021-02-28T07:17:23Z</time>
      </trkpt>
      <trkpt lat="45.13971" lon="6.33577">
        <ele>2494.6</ele>
        <time>2021-02-28T07:17:24Z</time>
      </trkpt>
      <trkpt lat="45.13971" lon="6.33577">
        <ele>2494.4</ele>
        <time>2021-02-28T07:17:25Z</time>
      </trkpt>
      <trkpt lat="45.13971" lon="6.33577">
        <ele>2494.8</ele>
        <time>2021-02-28T07:17:26Z</time>
      </trkpt>
      <trkpt lat="45.13971" lon="6.33577">
        <ele>2494.4</ele>
        <time>2021-02-28T07:17:27Z</time>
      </trkpt>
      <trkpt lat="45.13971" lon="6.33577">
        <ele>2494.8</ele>
        <time>2021-02-28T07:17:28Z</time>
      </trkpt>
      <trkpt lat="45.13971" lon="6.33577">
        <ele>2495</ele>
        <time>2021-02-28T07:17:29Z</time>
      </trkpt>
      <trkpt lat="45.13971" lon="6.33577">
        <ele>2494.8</ele>
        <time>2021-02-28T07:17:30Z</time>
      </trkpt>
      <trkpt lat="45.13971" lon="6.33577">
        <ele>2494.6</ele>
        <time>2021-02-28T07:17:31Z</time>
      </trkpt>
      <trkpt lat="45.13971" lon="6.33577">
        <ele>2495</ele>
        <time>2021-02-28T07:17:32Z</time>
      </trkpt>
      <trkpt lat="45.13971" lon="6.33577">
        <ele>2495</ele>
        <time>2021-02-28T07:17:33Z</time>
      </trkpt>
      <trkpt lat="45.13971" lon="6.33577">
        <ele>2495</ele>
        <time>2021-02-28T07:17:34Z</time>
      </trkpt>
      <trkpt lat="45.13971" lon="6.33577">
        <ele>2495</ele>
        <time>2021-02-28T07:17:35Z</time>
      </trkpt>
      <trkpt lat="45.13971" lon="6.33577">
        <ele>2495.4</ele>
        <time>2021-02-28T07:17:36Z</time>
      </trkpt>
      <trkpt lat="45.13971" lon="6.33577">
        <ele>2495.6</ele>
        <time>2021-02-28T07:17:37Z</time>
      </trkpt>
      <trkpt lat="45.13971" lon="6.33577">
        <ele>2495.2</ele>
        <time>2021-02-28T07:17:38Z</time>
      </trkpt>
      <trkpt lat="45.13971" lon="6.33577">
        <ele>2493.6</ele>
        <time>2021-02-28T07:17:39Z</time>
      </trkpt>
      <trkpt lat="45.13971" lon="6.33577">
        <ele>2493.6</ele>
        <time>2021-02-28T07:17:40Z</time>
      </trkpt>
      <trkpt lat="45.13971" lon="6.33577">
        <ele>2494.2</ele>
        <time>2021-02-28T07:17:41Z</time>
      </trkpt>
      <trkpt lat="45.13971" lon="6.33577">
        <ele>2494.4</ele>
        <time>2021-02-28T07:17:42Z</time>
      </trkpt>
      <trkpt lat="45.13971" lon="6.33577">
        <ele>2494.6</ele>
        <time>2021-02-28T07:17:43Z</time>
      </trkpt>
      <trkpt lat="45.13971" lon="6.33577">
        <ele>2495.2</ele>
        <time>2021-02-28T07:17:44Z</time>
      </trkpt>
      <trkpt lat="45.13971" lon="6.33577">
        <ele>2495.2</ele>
        <time>2021-02-28T07:17:45Z</time>
      </trkpt>
      <trkpt lat="45.13971" lon="6.33577">
        <ele>2495</ele>
        <time>2021-02-28T07:17:46Z</time>
      </trkpt>
      <trkpt lat="45.13971" lon="6.33577">
        <ele>2494.6</ele>
        <time>2021-02-28T07:17:47Z</time>
      </trkpt>
      <trkpt lat="45.13971" lon="6.33577">
        <ele>2495.6</ele>
        <time>2021-02-28T07:17:48Z</time>
      </trkpt>
      <trkpt lat="45.13971" lon="6.33577">
        <ele>2495.2</ele>
        <time>2021-02-28T07:17:49Z</time>
      </trkpt>
      <trkpt lat="45.13971" lon="6.33577">
        <ele>2495.4</ele>
        <time>2021-02-28T07:17:50Z</time>
      </trkpt>
      <trkpt lat="45.13973" lon="6.33578">
        <ele>2496</ele>
        <time>2021-02-28T07:17:51Z</time>
      </trkpt>
      <trkpt lat="45.13973" lon="6.33578">
        <ele>2496.2</ele>
        <time>2021-02-28T07:17:52Z</time>
      </trkpt>
      <trkpt lat="45.13973" lon="6.33578">
        <ele>2496.2</ele>
        <time>2021-02-28T07:17:53Z</time>
      </trkpt>
      <trkpt lat="45.13973" lon="6.33578">
        <ele>2495.6</ele>
        <time>2021-02-28T07:17:54Z</time>
      </trkpt>
      <trkpt lat="45.13973" lon="6.33578">
        <ele>2496</ele>
        <time>2021-02-28T07:17:55Z</time>
      </trkpt>
      <trkpt lat="45.13973" lon="6.33578">
        <ele>2496.4</ele>
        <time>2021-02-28T07:17:56Z</time>
      </trkpt>
      <trkpt lat="45.13973" lon="6.33578">
        <ele>2496.4</ele>
        <time>2021-02-28T07:17:57Z</time>
      </trkpt>
      <trkpt lat="45.13973" lon="6.33578">
        <ele>2496.4</ele>
        <time>2021-02-28T07:17:58Z</time>
      </trkpt>
      <trkpt lat="45.13973" lon="6.33578">
        <ele>2496.4</ele>
        <time>2021-02-28T07:17:59Z</time>
      </trkpt>
      <trkpt lat="45.13973" lon="6.33578">
        <ele>2496.8</ele>
        <time>2021-02-28T07:18:00Z</time>
      </trkpt>
      <trkpt lat="45.13973" lon="6.33578">
        <ele>2496.4</ele>
        <time>2021-02-28T07:18:01Z</time>
      </trkpt>
      <trkpt lat="45.13973" lon="6.33578">
        <ele>2495.6</ele>
        <time>2021-02-28T07:18:02Z</time>
      </trkpt>
      <trkpt lat="45.13973" lon="6.33578">
        <ele>2495.6</ele>
        <time>2021-02-28T07:18:03Z</time>
      </trkpt>
      <trkpt lat="45.13973" lon="6.33578">
        <ele>2495.4</ele>
        <time>2021-02-28T07:18:04Z</time>
      </trkpt>
      <trkpt lat="45.13973" lon="6.33578">
        <ele>2495.4</ele>
        <time>2021-02-28T07:18:05Z</time>
      </trkpt>
      <trkpt lat="45.13973" lon="6.33578">
        <ele>2495.2</ele>
        <time>2021-02-28T07:18:06Z</time>
      </trkpt>
      <trkpt lat="45.13973" lon="6.33578">
        <ele>2495.2</ele>
        <time>2021-02-28T07:18:07Z</time>
      </trkpt>
      <trkpt lat="45.13973" lon="6.33578">
        <ele>2495.4</ele>
        <time>2021-02-28T07:18:08Z</time>
      </trkpt>
      <trkpt lat="45.13973" lon="6.33578">
        <ele>2495.2</ele>
        <time>2021-02-28T07:18:09Z</time>
      </trkpt>
      <trkpt lat="45.13973" lon="6.33578">
        <ele>2495</ele>
        <time>2021-02-28T07:18:10Z</time>
      </trkpt>
      <trkpt lat="45.13973" lon="6.33578">
        <ele>2494.6</ele>
        <time>2021-02-28T07:18:11Z</time>
      </trkpt>
      <trkpt lat="45.13973" lon="6.33578">
        <ele>2495</ele>
        <time>2021-02-28T07:18:12Z</time>
      </trkpt>
      <trkpt lat="45.13973" lon="6.33578">
        <ele>2493.8</ele>
        <time>2021-02-28T07:18:13Z</time>
      </trkpt>
      <trkpt lat="45.13973" lon="6.33578">
        <ele>2494.2</ele>
        <time>2021-02-28T07:18:14Z</time>
      </trkpt>
      <trkpt lat="45.13973" lon="6.33578">
        <ele>2494.8</ele>
        <time>2021-02-28T07:18:15Z</time>
      </trkpt>
      <trkpt lat="45.13973" lon="6.33578">
        <ele>2495</ele>
        <time>2021-02-28T07:18:16Z</time>
      </trkpt>
      <trkpt lat="45.13973" lon="6.33578">
        <ele>2495.6</ele>
        <time>2021-02-28T07:18:17Z</time>
      </trkpt>
      <trkpt lat="45.13973" lon="6.33578">
        <ele>2496</ele>
        <time>2021-02-28T07:18:18Z</time>
      </trkpt>
      <trkpt lat="45.13973" lon="6.33578">
        <ele>2496</ele>
        <time>2021-02-28T07:18:19Z</time>
      </trkpt>
      <trkpt lat="45.13973" lon="6.33578">
        <ele>2495.8</ele>
        <time>2021-02-28T07:18:20Z</time>
      </trkpt>
      <trkpt lat="45.13973" lon="6.33578">
        <ele>2495.6</ele>
        <time>2021-02-28T07:18:21Z</time>
      </trkpt>
      <trkpt lat="45.13973" lon="6.33578">
        <ele>2495.8</ele>
        <time>2021-02-28T07:18:22Z</time>
      </trkpt>
      <trkpt lat="45.13973" lon="6.33578">
        <ele>2496</ele>
        <time>2021-02-28T07:18:23Z</time>
      </trkpt>
      <trkpt lat="45.13973" lon="6.33578">
        <ele>2496.4</ele>
        <time>2021-02-28T07:18:24Z</time>
      </trkpt>
      <trkpt lat="45.13973" lon="6.33578">
        <ele>2496</ele>
        <time>2021-02-28T07:18:25Z</time>
      </trkpt>
      <trkpt lat="45.13973" lon="6.33578">
        <ele>2496.2</ele>
        <time>2021-02-28T07:18:26Z</time>
      </trkpt>
      <trkpt lat="45.13973" lon="6.33578">
        <ele>2495.8</ele>
        <time>2021-02-28T07:18:27Z</time>
      </trkpt>
      <trkpt lat="45.13973" lon="6.33578">
        <ele>2496.2</ele>
        <time>2021-02-28T07:18:28Z</time>
      </trkpt>
      <trkpt lat="45.13973" lon="6.33578">
        <ele>2495.6</ele>
        <time>2021-02-28T07:18:29Z</time>
      </trkpt>
      <trkpt lat="45.13972" lon="6.33576">
        <ele>2495.2</ele>
        <time>2021-02-28T07:18:30Z</time>
      </trkpt>
      <trkpt lat="45.13972" lon="6.33576">
        <ele>2494.8</ele>
        <time>2021-02-28T07:18:31Z</time>
      </trkpt>
      <trkpt lat="45.13972" lon="6.33576">
        <ele>2494</ele>
        <time>2021-02-28T07:18:32Z</time>
      </trkpt>
      <trkpt lat="45.13972" lon="6.33576">
        <ele>2493.8</ele>
        <time>2021-02-28T07:18:33Z</time>
      </trkpt>
      <trkpt lat="45.13972" lon="6.33576">
        <ele>2494.2</ele>
        <time>2021-02-28T07:18:34Z</time>
      </trkpt>
      <trkpt lat="45.13972" lon="6.33576">
        <ele>2494</ele>
        <time>2021-02-28T07:18:35Z</time>
      </trkpt>
      <trkpt lat="45.13972" lon="6.33576">
        <ele>2493.4</ele>
        <time>2021-02-28T07:18:36Z</time>
      </trkpt>
      <trkpt lat="45.13972" lon="6.33576">
        <ele>2494</ele>
        <time>2021-02-28T07:18:37Z</time>
      </trkpt>
      <trkpt lat="45.13972" lon="6.33576">
        <ele>2493.8</ele>
        <time>2021-02-28T07:18:38Z</time>
      </trkpt>
      <trkpt lat="45.13972" lon="6.33576">
        <ele>2493.4</ele>
        <time>2021-02-28T07:18:39Z</time>
      </trkpt>
      <trkpt lat="45.13972" lon="6.33576">
        <ele>2493.2</ele>
        <time>2021-02-28T07:18:40Z</time>
      </trkpt>
      <trkpt lat="45.13972" lon="6.33576">
        <ele>2493</ele>
        <time>2021-02-28T07:18:41Z</time>
      </trkpt>
      <trkpt lat="45.13972" lon="6.33576">
        <ele>2492.8</ele>
        <time>2021-02-28T07:18:42Z</time>
      </trkpt>
      <trkpt lat="45.13972" lon="6.33576">
        <ele>2493</ele>
        <time>2021-02-28T07:18:43Z</time>
      </trkpt>
      <trkpt lat="45.13972" lon="6.33576">
        <ele>2493</ele>
        <time>2021-02-28T07:18:44Z</time>
      </trkpt>
      <trkpt lat="45.13972" lon="6.33576">
        <ele>2492.8</ele>
        <time>2021-02-28T07:18:45Z</time>
      </trkpt>
      <trkpt lat="45.13972" lon="6.33576">
        <ele>2492.8</ele>
        <time>2021-02-28T07:18:46Z</time>
      </trkpt>
      <trkpt lat="45.13972" lon="6.33576">
        <ele>2492.6</ele>
        <time>2021-02-28T07:18:47Z</time>
      </trkpt>
      <trkpt lat="45.13972" lon="6.33576">
        <ele>2492.8</ele>
        <time>2021-02-28T07:18:48Z</time>
      </trkpt>
      <trkpt lat="45.13972" lon="6.33576">
        <ele>2493</ele>
        <time>2021-02-28T07:18:49Z</time>
      </trkpt>
      <trkpt lat="45.13972" lon="6.33576">
        <ele>2493</ele>
        <time>2021-02-28T07:18:50Z</time>
      </trkpt>
      <trkpt lat="45.13972" lon="6.33576">
        <ele>2493.2</ele>
        <time>2021-02-28T07:18:51Z</time>
      </trkpt>
      <trkpt lat="45.13972" lon="6.33576">
        <ele>2493</ele>
        <time>2021-02-28T07:18:52Z</time>
      </trkpt>
      <trkpt lat="45.13972" lon="6.33576">
        <ele>2493</ele>
        <time>2021-02-28T07:18:53Z</time>
      </trkpt>
      <trkpt lat="45.13972" lon="6.33576">
        <ele>2492.8</ele>
        <time>2021-02-28T07:18:54Z</time>
      </trkpt>
      <trkpt lat="45.13972" lon="6.33576">
        <ele>2492.6</ele>
        <time>2021-02-28T07:18:55Z</time>
      </trkpt>
      <trkpt lat="45.13972" lon="6.33576">
        <ele>2492.8</ele>
        <time>2021-02-28T07:18:56Z</time>
      </trkpt>
      <trkpt lat="45.13972" lon="6.33576">
        <ele>2493.4</ele>
        <time>2021-02-28T07:18:57Z</time>
      </trkpt>
      <trkpt lat="45.13972" lon="6.33576">
        <ele>2493</ele>
        <time>2021-02-28T07:18:58Z</time>
      </trkpt>
      <trkpt lat="45.13972" lon="6.33576">
        <ele>2492.6</ele>
        <time>2021-02-28T07:18:59Z</time>
      </trkpt>
      <trkpt lat="45.13972" lon="6.33576">
        <ele>2492.4</ele>
        <time>2021-02-28T07:19:00Z</time>
      </trkpt>
      <trkpt lat="45.13972" lon="6.33576">
        <ele>2492.4</ele>
        <time>2021-02-28T07:19:01Z</time>
      </trkpt>
      <trkpt lat="45.13972" lon="6.33576">
        <ele>2492.8</ele>
        <time>2021-02-28T07:19:02Z</time>
      </trkpt>
      <trkpt lat="45.13972" lon="6.33576">
        <ele>2492.2</ele>
        <time>2021-02-28T07:19:03Z</time>
      </trkpt>
      <trkpt lat="45.13972" lon="6.33576">
        <ele>2492.8</ele>
        <time>2021-02-28T07:19:04Z</time>
      </trkpt>
      <trkpt lat="45.13972" lon="6.33576">
        <ele>2492.8</ele>
        <time>2021-02-28T07:19:05Z</time>
      </trkpt>
      <trkpt lat="45.13972" lon="6.33576">
        <ele>2493</ele>
        <time>2021-02-28T07:19:06Z</time>
      </trkpt>
      <trkpt lat="45.13972" lon="6.33576">
        <ele>2493</ele>
        <time>2021-02-28T07:19:07Z</time>
      </trkpt>
      <trkpt lat="45.13972" lon="6.33576">
        <ele>2493.2</ele>
        <time>2021-02-28T07:19:08Z</time>
      </trkpt>
      <trkpt lat="45.13972" lon="6.33576">
        <ele>2493.4</ele>
        <time>2021-02-28T07:19:09Z</time>
      </trkpt>
      <trkpt lat="45.13972" lon="6.33576">
        <ele>2493.6</ele>
        <time>2021-02-28T07:19:10Z</time>
      </trkpt>
      <trkpt lat="45.13972" lon="6.33576">
        <ele>2493</ele>
        <time>2021-02-28T07:19:11Z</time>
      </trkpt>
      <trkpt lat="45.13972" lon="6.33576">
        <ele>2493.6</ele>
        <time>2021-02-28T07:19:12Z</time>
      </trkpt>
      <trkpt lat="45.13972" lon="6.33576">
        <ele>2493.8</ele>
        <time>2021-02-28T07:19:13Z</time>
      </trkpt>
      <trkpt lat="45.13972" lon="6.33576">
        <ele>2493.8</ele>
        <time>2021-02-28T07:19:14Z</time>
      </trkpt>
      <trkpt lat="45.13972" lon="6.33576">
        <ele>2494.4</ele>
        <time>2021-02-28T07:19:15Z</time>
      </trkpt>
      <trkpt lat="45.13972" lon="6.33576">
        <ele>2494.4</ele>
        <time>2021-02-28T07:19:16Z</time>
      </trkpt>
      <trkpt lat="45.13972" lon="6.33576">
        <ele>2494</ele>
        <time>2021-02-28T07:19:17Z</time>
      </trkpt>
      <trkpt lat="45.13972" lon="6.33576">
        <ele>2493.6</ele>
        <time>2021-02-28T07:19:18Z</time>
      </trkpt>
      <trkpt lat="45.13972" lon="6.33576">
        <ele>2493.6</ele>
        <time>2021-02-28T07:19:19Z</time>
      </trkpt>
      <trkpt lat="45.13972" lon="6.33576">
        <ele>2493.6</ele>
        <time>2021-02-28T07:19:20Z</time>
      </trkpt>
      <trkpt lat="45.13972" lon="6.33576">
        <ele>2493.6</ele>
        <time>2021-02-28T07:19:21Z</time>
      </trkpt>
      <trkpt lat="45.13972" lon="6.33576">
        <ele>2493.6</ele>
        <time>2021-02-28T07:19:22Z</time>
      </trkpt>
      <trkpt lat="45.13972" lon="6.33576">
        <ele>2493.4</ele>
        <time>2021-02-28T07:19:23Z</time>
      </trkpt>
      <trkpt lat="45.13972" lon="6.33576">
        <ele>2493.2</ele>
        <time>2021-02-28T07:19:24Z</time>
      </trkpt>
      <trkpt lat="45.13972" lon="6.33576">
        <ele>2493.4</ele>
        <time>2021-02-28T07:19:25Z</time>
      </trkpt>
      <trkpt lat="45.13972" lon="6.33576">
        <ele>2492.6</ele>
        <time>2021-02-28T07:19:26Z</time>
      </trkpt>
      <trkpt lat="45.13972" lon="6.33576">
        <ele>2493</ele>
        <time>2021-02-28T07:19:27Z</time>
      </trkpt>
      <trkpt lat="45.13972" lon="6.33576">
        <ele>2492.8</ele>
        <time>2021-02-28T07:19:28Z</time>
      </trkpt>
      <trkpt lat="45.13972" lon="6.33576">
        <ele>2492.6</ele>
        <time>2021-02-28T07:19:29Z</time>
      </trkpt>
      <trkpt lat="45.13972" lon="6.33576">
        <ele>2492</ele>
        <time>2021-02-28T07:19:30Z</time>
      </trkpt>
      <trkpt lat="45.13972" lon="6.33576">
        <ele>2493</ele>
        <time>2021-02-28T07:19:31Z</time>
      </trkpt>
      <trkpt lat="45.13972" lon="6.33576">
        <ele>2493</ele>
        <time>2021-02-28T07:19:32Z</time>
      </trkpt>
      <trkpt lat="45.13972" lon="6.33576">
        <ele>2493.2</ele>
        <time>2021-02-28T07:19:33Z</time>
      </trkpt>
      <trkpt lat="45.13972" lon="6.33576">
        <ele>2493.4</ele>
        <time>2021-02-28T07:19:34Z</time>
      </trkpt>
      <trkpt lat="45.13972" lon="6.33576">
        <ele>2492.4</ele>
        <time>2021-02-28T07:19:35Z</time>
      </trkpt>
      <trkpt lat="45.13972" lon="6.33576">
        <ele>2492.8</ele>
        <time>2021-02-28T07:19:36Z</time>
      </trkpt>
      <trkpt lat="45.13972" lon="6.33576">
        <ele>2493</ele>
        <time>2021-02-28T07:19:37Z</time>
      </trkpt>
      <trkpt lat="45.13972" lon="6.33576">
        <ele>2494</ele>
        <time>2021-02-28T07:19:38Z</time>
      </trkpt>
      <trkpt lat="45.13972" lon="6.33576">
        <ele>2494.2</ele>
        <time>2021-02-28T07:19:39Z</time>
      </trkpt>
      <trkpt lat="45.13972" lon="6.33576">
        <ele>2494</ele>
        <time>2021-02-28T07:19:40Z</time>
      </trkpt>
      <trkpt lat="45.13972" lon="6.33576">
        <ele>2493.8</ele>
        <time>2021-02-28T07:19:41Z</time>
      </trkpt>
      <trkpt lat="45.13972" lon="6.33576">
        <ele>2493.6</ele>
        <time>2021-02-28T07:19:42Z</time>
      </trkpt>
      <trkpt lat="45.13972" lon="6.33576">
        <ele>2493.6</ele>
        <time>2021-02-28T07:19:43Z</time>
      </trkpt>
      <trkpt lat="45.13972" lon="6.33576">
        <ele>2493.6</ele>
        <time>2021-02-28T07:19:44Z</time>
      </trkpt>
      <trkpt lat="45.13972" lon="6.33576">
        <ele>2493.4</ele>
        <time>2021-02-28T07:19:45Z</time>
      </trkpt>
      <trkpt lat="45.13972" lon="6.33576">
        <ele>2493.4</ele>
        <time>2021-02-28T07:19:46Z</time>
      </trkpt>
      <trkpt lat="45.13972" lon="6.33576">
        <ele>2493.2</ele>
        <time>2021-02-28T07:19:47Z</time>
      </trkpt>
      <trkpt lat="45.13972" lon="6.33576">
        <ele>2493.2</ele>
        <time>2021-02-28T07:19:48Z</time>
      </trkpt>
      <trkpt lat="45.13972" lon="6.33576">
        <ele>2493</ele>
        <time>2021-02-28T07:19:49Z</time>
      </trkpt>
      <trkpt lat="45.13972" lon="6.33576">
        <ele>2493</ele>
        <time>2021-02-28T07:19:50Z</time>
      </trkpt>
      <trkpt lat="45.13972" lon="6.33576">
        <ele>2493</ele>
        <time>2021-02-28T07:19:51Z</time>
      </trkpt>
      <trkpt lat="45.13972" lon="6.33576">
        <ele>2493</ele>
        <time>2021-02-28T07:19:52Z</time>
      </trkpt>
      <trkpt lat="45.13972" lon="6.33576">
        <ele>2492.8</ele>
        <time>2021-02-28T07:19:53Z</time>
      </trkpt>
      <trkpt lat="45.13972" lon="6.33576">
        <ele>2492.6</ele>
        <time>2021-02-28T07:19:54Z</time>
      </trkpt>
      <trkpt lat="45.13972" lon="6.33576">
        <ele>2492.8</ele>
        <time>2021-02-28T07:19:55Z</time>
      </trkpt>
      <trkpt lat="45.13972" lon="6.33576">
        <ele>2492.8</ele>
        <time>2021-02-28T07:19:56Z</time>
      </trkpt>
      <trkpt lat="45.13972" lon="6.33576">
        <ele>2492.8</ele>
        <time>2021-02-28T07:19:57Z</time>
      </trkpt>
      <trkpt lat="45.13972" lon="6.33576">
        <ele>2492.6</ele>
        <time>2021-02-28T07:19:58Z</time>
      </trkpt>
      <trkpt lat="45.13972" lon="6.33576">
        <ele>2492.4</ele>
        <time>2021-02-28T07:19:59Z</time>
      </trkpt>
      <trkpt lat="45.13972" lon="6.33576">
        <ele>2492.4</ele>
        <time>2021-02-28T07:20:00Z</time>
      </trkpt>
      <trkpt lat="45.13972" lon="6.33579">
        <ele>2492.6</ele>
        <time>2021-02-28T07:20:01Z</time>
      </trkpt>
      <trkpt lat="45.13972" lon="6.33579">
        <ele>2492.4</ele>
        <time>2021-02-28T07:20:02Z</time>
      </trkpt>
      <trkpt lat="45.13972" lon="6.33579">
        <ele>2492.6</ele>
        <time>2021-02-28T07:20:03Z</time>
      </trkpt>
      <trkpt lat="45.13972" lon="6.33579">
        <ele>2491.4</ele>
        <time>2021-02-28T07:20:04Z</time>
      </trkpt>
      <trkpt lat="45.13972" lon="6.33579">
        <ele>2491.8</ele>
        <time>2021-02-28T07:20:05Z</time>
      </trkpt>
      <trkpt lat="45.13972" lon="6.33579">
        <ele>2492.6</ele>
        <time>2021-02-28T07:20:06Z</time>
      </trkpt>
      <trkpt lat="45.13972" lon="6.33579">
        <ele>2492.2</ele>
        <time>2021-02-28T07:20:07Z</time>
      </trkpt>
      <trkpt lat="45.13972" lon="6.33579">
        <ele>2492.2</ele>
        <time>2021-02-28T07:20:08Z</time>
      </trkpt>
      <trkpt lat="45.13972" lon="6.33579">
        <ele>2492</ele>
        <time>2021-02-28T07:20:09Z</time>
      </trkpt>
      <trkpt lat="45.13972" lon="6.33579">
        <ele>2493.2</ele>
        <time>2021-02-28T07:20:10Z</time>
      </trkpt>
      <trkpt lat="45.13972" lon="6.33579">
        <ele>2493.4</ele>
        <time>2021-02-28T07:20:11Z</time>
      </trkpt>
      <trkpt lat="45.13972" lon="6.33579">
        <ele>2493</ele>
        <time>2021-02-28T07:20:12Z</time>
      </trkpt>
      <trkpt lat="45.13972" lon="6.33579">
        <ele>2492.4</ele>
        <time>2021-02-28T07:20:13Z</time>
      </trkpt>
      <trkpt lat="45.13972" lon="6.33579">
        <ele>2492</ele>
        <time>2021-02-28T07:20:14Z</time>
      </trkpt>
      <trkpt lat="45.13972" lon="6.33579">
        <ele>2492.2</ele>
        <time>2021-02-28T07:20:15Z</time>
      </trkpt>
      <trkpt lat="45.13972" lon="6.33579">
        <ele>2492.8</ele>
        <time>2021-02-28T07:20:16Z</time>
      </trkpt>
      <trkpt lat="45.13972" lon="6.33579">
        <ele>2494.6</ele>
        <time>2021-02-28T07:20:17Z</time>
      </trkpt>
      <trkpt lat="45.13972" lon="6.33579">
        <ele>2493</ele>
        <time>2021-02-28T07:20:18Z</time>
      </trkpt>
      <trkpt lat="45.13972" lon="6.33579">
        <ele>2492.8</ele>
        <time>2021-02-28T07:20:19Z</time>
      </trkpt>
      <trkpt lat="45.13972" lon="6.33579">
        <ele>2492.6</ele>
        <time>2021-02-28T07:20:20Z</time>
      </trkpt>
      <trkpt lat="45.13972" lon="6.33579">
        <ele>2492.4</ele>
        <time>2021-02-28T07:20:21Z</time>
      </trkpt>
      <trkpt lat="45.13972" lon="6.33579">
        <ele>2492.2</ele>
        <time>2021-02-28T07:20:22Z</time>
      </trkpt>
      <trkpt lat="45.13972" lon="6.33579">
        <ele>2492.4</ele>
        <time>2021-02-28T07:20:23Z</time>
      </trkpt>
      <trkpt lat="45.13972" lon="6.33579">
        <ele>2492.6</ele>
        <time>2021-02-28T07:20:24Z</time>
      </trkpt>
      <trkpt lat="45.13972" lon="6.33579">
        <ele>2492.4</ele>
        <time>2021-02-28T07:20:25Z</time>
      </trkpt>
      <trkpt lat="45.13972" lon="6.33579">
        <ele>2492</ele>
        <time>2021-02-28T07:20:26Z</time>
      </trkpt>
      <trkpt lat="45.1397" lon="6.33578">
        <ele>2492.2</ele>
        <time>2021-02-28T07:20:27Z</time>
      </trkpt>
      <trkpt lat="45.1397" lon="6.33578">
        <ele>2491.6</ele>
        <time>2021-02-28T07:20:28Z</time>
      </trkpt>
      <trkpt lat="45.1397" lon="6.33578">
        <ele>2491.2</ele>
        <time>2021-02-28T07:20:29Z</time>
      </trkpt>
      <trkpt lat="45.1397" lon="6.33578">
        <ele>2491.6</ele>
        <time>2021-02-28T07:20:30Z</time>
      </trkpt>
      <trkpt lat="45.1397" lon="6.33578">
        <ele>2491.6</ele>
        <time>2021-02-28T07:20:31Z</time>
      </trkpt>
      <trkpt lat="45.1397" lon="6.33578">
        <ele>2491.8</ele>
        <time>2021-02-28T07:20:32Z</time>
      </trkpt>
      <trkpt lat="45.1397" lon="6.33578">
        <ele>2491.8</ele>
        <time>2021-02-28T07:20:33Z</time>
      </trkpt>
      <trkpt lat="45.1397" lon="6.33578">
        <ele>2492.2</ele>
        <time>2021-02-28T07:20:34Z</time>
      </trkpt>
      <trkpt lat="45.1397" lon="6.33578">
        <ele>2492.6</ele>
        <time>2021-02-28T07:20:35Z</time>
      </trkpt>
      <trkpt lat="45.1397" lon="6.33578">
        <ele>2492.2</ele>
        <time>2021-02-28T07:20:36Z</time>
      </trkpt>
      <trkpt lat="45.1397" lon="6.33578">
        <ele>2492.2</ele>
        <time>2021-02-28T07:20:37Z</time>
      </trkpt>
      <trkpt lat="45.1397" lon="6.33578">
        <ele>2492</ele>
        <time>2021-02-28T07:20:38Z</time>
      </trkpt>
      <trkpt lat="45.1397" lon="6.33578">
        <ele>2492.8</ele>
        <time>2021-02-28T07:20:39Z</time>
      </trkpt>
      <trkpt lat="45.1397" lon="6.33578">
        <ele>2492.4</ele>
        <time>2021-02-28T07:20:40Z</time>
      </trkpt>
      <trkpt lat="45.1397" lon="6.33578">
        <ele>2492.4</ele>
        <time>2021-02-28T07:20:41Z</time>
      </trkpt>
      <trkpt lat="45.1397" lon="6.33578">
        <ele>2492.4</ele>
        <time>2021-02-28T07:20:42Z</time>
      </trkpt>
      <trkpt lat="45.1397" lon="6.33578">
        <ele>2492.2</ele>
        <time>2021-02-28T07:20:43Z</time>
      </trkpt>
      <trkpt lat="45.1397" lon="6.33578">
        <ele>2492.2</ele>
        <time>2021-02-28T07:20:44Z</time>
      </trkpt>
      <trkpt lat="45.1397" lon="6.33578">
        <ele>2492.8</ele>
        <time>2021-02-28T07:20:45Z</time>
      </trkpt>
      <trkpt lat="45.1397" lon="6.33578">
        <ele>2492</ele>
        <time>2021-02-28T07:20:46Z</time>
      </trkpt>
      <trkpt lat="45.1397" lon="6.33578">
        <ele>2492.4</ele>
        <time>2021-02-28T07:20:47Z</time>
      </trkpt>
      <trkpt lat="45.1397" lon="6.33578">
        <ele>2491</ele>
        <time>2021-02-28T07:20:48Z</time>
      </trkpt>
      <trkpt lat="45.1397" lon="6.33578">
        <ele>2489.2</ele>
        <time>2021-02-28T07:20:49Z</time>
      </trkpt>
      <trkpt lat="45.1397" lon="6.33578">
        <ele>2492.2</ele>
        <time>2021-02-28T07:20:50Z</time>
      </trkpt>
      <trkpt lat="45.1397" lon="6.33578">
        <ele>2492.4</ele>
        <time>2021-02-28T07:20:51Z</time>
      </trkpt>
      <trkpt lat="45.1397" lon="6.33578">
        <ele>2492.2</ele>
        <time>2021-02-28T07:20:52Z</time>
      </trkpt>
      <trkpt lat="45.1397" lon="6.33578">
        <ele>2493</ele>
        <time>2021-02-28T07:20:53Z</time>
      </trkpt>
      <trkpt lat="45.1397" lon="6.33578">
        <ele>2493.4</ele>
        <time>2021-02-28T07:20:54Z</time>
      </trkpt>
      <trkpt lat="45.1397" lon="6.33578">
        <ele>2493.8</ele>
        <time>2021-02-28T07:20:55Z</time>
      </trkpt>
      <trkpt lat="45.1397" lon="6.33578">
        <ele>2494</ele>
        <time>2021-02-28T07:20:56Z</time>
      </trkpt>
      <trkpt lat="45.1397" lon="6.33578">
        <ele>2493.8</ele>
        <time>2021-02-28T07:20:57Z</time>
      </trkpt>
      <trkpt lat="45.1397" lon="6.33578">
        <ele>2493.4</ele>
        <time>2021-02-28T07:20:58Z</time>
      </trkpt>
      <trkpt lat="45.1397" lon="6.33578">
        <ele>2493.2</ele>
        <time>2021-02-28T07:20:59Z</time>
      </trkpt>
      <trkpt lat="45.1397" lon="6.33578">
        <ele>2492.8</ele>
        <time>2021-02-28T07:21:00Z</time>
      </trkpt>
      <trkpt lat="45.1397" lon="6.33578">
        <ele>2492.8</ele>
        <time>2021-02-28T07:21:01Z</time>
      </trkpt>
      <trkpt lat="45.1397" lon="6.33578">
        <ele>2492.4</ele>
        <time>2021-02-28T07:21:02Z</time>
      </trkpt>
      <trkpt lat="45.1397" lon="6.33578">
        <ele>2492.2</ele>
        <time>2021-02-28T07:21:03Z</time>
      </trkpt>
      <trkpt lat="45.1397" lon="6.33578">
        <ele>2492.6</ele>
        <time>2021-02-28T07:21:04Z</time>
      </trkpt>
      <trkpt lat="45.1397" lon="6.33578">
        <ele>2492.6</ele>
        <time>2021-02-28T07:21:05Z</time>
      </trkpt>
      <trkpt lat="45.1397" lon="6.33578">
        <ele>2492.4</ele>
        <time>2021-02-28T07:21:06Z</time>
      </trkpt>
      <trkpt lat="45.1397" lon="6.33578">
        <ele>2492.4</ele>
        <time>2021-02-28T07:21:07Z</time>
      </trkpt>
      <trkpt lat="45.1397" lon="6.33578">
        <ele>2492.4</ele>
        <time>2021-02-28T07:21:08Z</time>
      </trkpt>
      <trkpt lat="45.1397" lon="6.33578">
        <ele>2492.6</ele>
        <time>2021-02-28T07:21:09Z</time>
      </trkpt>
      <trkpt lat="45.1397" lon="6.33578">
        <ele>2492</ele>
        <time>2021-02-28T07:21:10Z</time>
      </trkpt>
      <trkpt lat="45.1397" lon="6.33578">
        <ele>2492</ele>
        <time>2021-02-28T07:21:11Z</time>
      </trkpt>
      <trkpt lat="45.1397" lon="6.33578">
        <ele>2492.4</ele>
        <time>2021-02-28T07:21:12Z</time>
      </trkpt>
      <trkpt lat="45.1397" lon="6.33578">
        <ele>2492</ele>
        <time>2021-02-28T07:21:13Z</time>
      </trkpt>
      <trkpt lat="45.1397" lon="6.33578">
        <ele>2492.4</ele>
        <time>2021-02-28T07:21:14Z</time>
      </trkpt>
      <trkpt lat="45.1397" lon="6.33578">
        <ele>2492.6</ele>
        <time>2021-02-28T07:21:15Z</time>
      </trkpt>
      <trkpt lat="45.1397" lon="6.33578">
        <ele>2493</ele>
        <time>2021-02-28T07:21:16Z</time>
      </trkpt>
      <trkpt lat="45.1397" lon="6.33578">
        <ele>2493</ele>
        <time>2021-02-28T07:21:17Z</time>
      </trkpt>
      <trkpt lat="45.1397" lon="6.33578">
        <ele>2493.4</ele>
        <time>2021-02-28T07:21:18Z</time>
      </trkpt>
      <trkpt lat="45.1397" lon="6.33578">
        <ele>2492.8</ele>
        <time>2021-02-28T07:21:19Z</time>
      </trkpt>
      <trkpt lat="45.1397" lon="6.33578">
        <ele>2492.6</ele>
        <time>2021-02-28T07:21:20Z</time>
      </trkpt>
      <trkpt lat="45.1397" lon="6.33578">
        <ele>2494</ele>
        <time>2021-02-28T07:21:21Z</time>
      </trkpt>
      <trkpt lat="45.1397" lon="6.33578">
        <ele>2494</ele>
        <time>2021-02-28T07:21:22Z</time>
      </trkpt>
      <trkpt lat="45.1397" lon="6.33578">
        <ele>2493.4</ele>
        <time>2021-02-28T07:21:23Z</time>
      </trkpt>
      <trkpt lat="45.1397" lon="6.33578">
        <ele>2493</ele>
        <time>2021-02-28T07:21:24Z</time>
      </trkpt>
      <trkpt lat="45.1397" lon="6.33578">
        <ele>2493.2</ele>
        <time>2021-02-28T07:21:25Z</time>
      </trkpt>
      <trkpt lat="45.1397" lon="6.33578">
        <ele>2493.8</ele>
        <time>2021-02-28T07:21:26Z</time>
      </trkpt>
      <trkpt lat="45.1397" lon="6.33578">
        <ele>2493.8</ele>
        <time>2021-02-28T07:21:27Z</time>
      </trkpt>
      <trkpt lat="45.1397" lon="6.33578">
        <ele>2493.8</ele>
        <time>2021-02-28T07:21:28Z</time>
      </trkpt>
      <trkpt lat="45.1397" lon="6.33578">
        <ele>2492</ele>
        <time>2021-02-28T07:21:29Z</time>
      </trkpt>
      <trkpt lat="45.1397" lon="6.33578">
        <ele>2491</ele>
        <time>2021-02-28T07:21:30Z</time>
      </trkpt>
      <trkpt lat="45.1397" lon="6.33578">
        <ele>2491</ele>
        <time>2021-02-28T07:21:31Z</time>
      </trkpt>
      <trkpt lat="45.1397" lon="6.33578">
        <ele>2491.4</ele>
        <time>2021-02-28T07:21:32Z</time>
      </trkpt>
      <trkpt lat="45.1397" lon="6.33578">
        <ele>2491.8</ele>
        <time>2021-02-28T07:21:33Z</time>
      </trkpt>
      <trkpt lat="45.1397" lon="6.33578">
        <ele>2492.2</ele>
        <time>2021-02-28T07:21:34Z</time>
      </trkpt>
      <trkpt lat="45.1397" lon="6.33578">
        <ele>2492</ele>
        <time>2021-02-28T07:21:35Z</time>
      </trkpt>
      <trkpt lat="45.1397" lon="6.33578">
        <ele>2492.2</ele>
        <time>2021-02-28T07:21:36Z</time>
      </trkpt>
      <trkpt lat="45.1397" lon="6.33578">
        <ele>2492</ele>
        <time>2021-02-28T07:21:37Z</time>
      </trkpt>
      <trkpt lat="45.1397" lon="6.33578">
        <ele>2491.6</ele>
        <time>2021-02-28T07:21:38Z</time>
      </trkpt>
      <trkpt lat="45.1397" lon="6.33578">
        <ele>2492</ele>
        <time>2021-02-28T07:21:39Z</time>
      </trkpt>
      <trkpt lat="45.1397" lon="6.33578">
        <ele>2492.2</ele>
        <time>2021-02-28T07:21:40Z</time>
      </trkpt>
      <trkpt lat="45.1397" lon="6.33578">
        <ele>2492.2</ele>
        <time>2021-02-28T07:21:41Z</time>
      </trkpt>
      <trkpt lat="45.1397" lon="6.33578">
        <ele>2492.2</ele>
        <time>2021-02-28T07:21:42Z</time>
      </trkpt>
      <trkpt lat="45.1397" lon="6.33578">
        <ele>2492.2</ele>
        <time>2021-02-28T07:21:43Z</time>
      </trkpt>
      <trkpt lat="45.1397" lon="6.33578">
        <ele>2492</ele>
        <time>2021-02-28T07:21:44Z</time>
      </trkpt>
      <trkpt lat="45.1397" lon="6.33578">
        <ele>2491.8</ele>
        <time>2021-02-28T07:21:45Z</time>
      </trkpt>
      <trkpt lat="45.1397" lon="6.33578">
        <ele>2492</ele>
        <time>2021-02-28T07:21:46Z</time>
      </trkpt>
      <trkpt lat="45.1397" lon="6.33578">
        <ele>2492.4</ele>
        <time>2021-02-28T07:21:47Z</time>
      </trkpt>
      <trkpt lat="45.1397" lon="6.33578">
        <ele>2492.2</ele>
        <time>2021-02-28T07:21:48Z</time>
      </trkpt>
      <trkpt lat="45.1397" lon="6.33578">
        <ele>2491.4</ele>
        <time>2021-02-28T07:21:49Z</time>
      </trkpt>
      <trkpt lat="45.1397" lon="6.33578">
        <ele>2493</ele>
        <time>2021-02-28T07:21:50Z</time>
      </trkpt>
      <trkpt lat="45.1397" lon="6.33578">
        <ele>2492.6</ele>
        <time>2021-02-28T07:21:51Z</time>
      </trkpt>
      <trkpt lat="45.1397" lon="6.33578">
        <ele>2491.8</ele>
        <time>2021-02-28T07:21:52Z</time>
      </trkpt>
      <trkpt lat="45.1397" lon="6.33578">
        <ele>2492</ele>
        <time>2021-02-28T07:21:53Z</time>
      </trkpt>
      <trkpt lat="45.1397" lon="6.33578">
        <ele>2492.2</ele>
        <time>2021-02-28T07:21:54Z</time>
      </trkpt>
      <trkpt lat="45.1397" lon="6.33578">
        <ele>2493</ele>
        <time>2021-02-28T07:21:55Z</time>
      </trkpt>
      <trkpt lat="45.1397" lon="6.33578">
        <ele>2492.8</ele>
        <time>2021-02-28T07:21:56Z</time>
      </trkpt>
      <trkpt lat="45.1397" lon="6.33578">
        <ele>2492.4</ele>
        <time>2021-02-28T07:21:57Z</time>
      </trkpt>
      <trkpt lat="45.1397" lon="6.33578">
        <ele>2491.8</ele>
        <time>2021-02-28T07:21:58Z</time>
      </trkpt>
      <trkpt lat="45.1397" lon="6.33578">
        <ele>2491.6</ele>
        <time>2021-02-28T07:21:59Z</time>
      </trkpt>
      <trkpt lat="45.1397" lon="6.33578">
        <ele>2491.4</ele>
        <time>2021-02-28T07:22:00Z</time>
      </trkpt>
      <trkpt lat="45.1397" lon="6.33578">
        <ele>2491.6</ele>
        <time>2021-02-28T07:22:01Z</time>
      </trkpt>
      <trkpt lat="45.1397" lon="6.33578">
        <ele>2491.4</ele>
        <time>2021-02-28T07:22:02Z</time>
      </trkpt>
      <trkpt lat="45.1397" lon="6.33578">
        <ele>2491</ele>
        <time>2021-02-28T07:22:03Z</time>
      </trkpt>
      <trkpt lat="45.1397" lon="6.33578">
        <ele>2491.6</ele>
        <time>2021-02-28T07:22:04Z</time>
      </trkpt>
      <trkpt lat="45.1397" lon="6.33578">
        <ele>2491.4</ele>
        <time>2021-02-28T07:22:05Z</time>
      </trkpt>
      <trkpt lat="45.1397" lon="6.33578">
        <ele>2491</ele>
        <time>2021-02-28T07:22:06Z</time>
      </trkpt>
      <trkpt lat="45.1397" lon="6.33578">
        <ele>2490.8</ele>
        <time>2021-02-28T07:22:07Z</time>
      </trkpt>
      <trkpt lat="45.1397" lon="6.33578">
        <ele>2491</ele>
        <time>2021-02-28T07:22:08Z</time>
      </trkpt>
      <trkpt lat="45.1397" lon="6.33578">
        <ele>2490.8</ele>
        <time>2021-02-28T07:22:09Z</time>
      </trkpt>
      <trkpt lat="45.1397" lon="6.33578">
        <ele>2491.2</ele>
        <time>2021-02-28T07:22:10Z</time>
      </trkpt>
      <trkpt lat="45.1397" lon="6.33578">
        <ele>2491.4</ele>
        <time>2021-02-28T07:22:11Z</time>
      </trkpt>
      <trkpt lat="45.1397" lon="6.33578">
        <ele>2491</ele>
        <time>2021-02-28T07:22:12Z</time>
      </trkpt>
      <trkpt lat="45.1397" lon="6.33578">
        <ele>2490.4</ele>
        <time>2021-02-28T07:22:13Z</time>
      </trkpt>
      <trkpt lat="45.1397" lon="6.33578">
        <ele>2491</ele>
        <time>2021-02-28T07:22:14Z</time>
      </trkpt>
      <trkpt lat="45.1397" lon="6.33578">
        <ele>2491.4</ele>
        <time>2021-02-28T07:22:15Z</time>
      </trkpt>
      <trkpt lat="45.1397" lon="6.33578">
        <ele>2491.6</ele>
        <time>2021-02-28T07:22:16Z</time>
      </trkpt>
      <trkpt lat="45.1397" lon="6.33578">
        <ele>2491.6</ele>
        <time>2021-02-28T07:22:17Z</time>
      </trkpt>
      <trkpt lat="45.1397" lon="6.33578">
        <ele>2490.8</ele>
        <time>2021-02-28T07:22:18Z</time>
      </trkpt>
      <trkpt lat="45.1397" lon="6.33578">
        <ele>2490.8</ele>
        <time>2021-02-28T07:22:19Z</time>
      </trkpt>
      <trkpt lat="45.1397" lon="6.33578">
        <ele>2491.4</ele>
        <time>2021-02-28T07:22:20Z</time>
      </trkpt>
      <trkpt lat="45.1397" lon="6.33578">
        <ele>2491.4</ele>
        <time>2021-02-28T07:22:21Z</time>
      </trkpt>
      <trkpt lat="45.1397" lon="6.33578">
        <ele>2490.8</ele>
        <time>2021-02-28T07:22:22Z</time>
      </trkpt>
      <trkpt lat="45.1397" lon="6.33578">
        <ele>2491.2</ele>
        <time>2021-02-28T07:22:23Z</time>
      </trkpt>
      <trkpt lat="45.1397" lon="6.33578">
        <ele>2491.4</ele>
        <time>2021-02-28T07:22:24Z</time>
      </trkpt>
      <trkpt lat="45.1397" lon="6.33578">
        <ele>2491</ele>
        <time>2021-02-28T07:22:25Z</time>
      </trkpt>
      <trkpt lat="45.1397" lon="6.33578">
        <ele>2491.2</ele>
        <time>2021-02-28T07:22:26Z</time>
      </trkpt>
      <trkpt lat="45.1397" lon="6.33578">
        <ele>2491.2</ele>
        <time>2021-02-28T07:22:27Z</time>
      </trkpt>
      <trkpt lat="45.1397" lon="6.33578">
        <ele>2491.2</ele>
        <time>2021-02-28T07:22:28Z</time>
      </trkpt>
      <trkpt lat="45.1397" lon="6.33578">
        <ele>2490.8</ele>
        <time>2021-02-28T07:22:29Z</time>
      </trkpt>
      <trkpt lat="45.1397" lon="6.33578">
        <ele>2491</ele>
        <time>2021-02-28T07:22:30Z</time>
      </trkpt>
      <trkpt lat="45.1397" lon="6.33578">
        <ele>2489.6</ele>
        <time>2021-02-28T07:22:31Z</time>
      </trkpt>
      <trkpt lat="45.1397" lon="6.33578">
        <ele>2489</ele>
        <time>2021-02-28T07:22:32Z</time>
      </trkpt>
      <trkpt lat="45.1397" lon="6.33578">
        <ele>2489.6</ele>
        <time>2021-02-28T07:22:33Z</time>
      </trkpt>
      <trkpt lat="45.1397" lon="6.33578">
        <ele>2490</ele>
        <time>2021-02-28T07:22:34Z</time>
      </trkpt>
      <trkpt lat="45.1397" lon="6.33578">
        <ele>2489.8</ele>
        <time>2021-02-28T07:22:35Z</time>
      </trkpt>
      <trkpt lat="45.1397" lon="6.33578">
        <ele>2490</ele>
        <time>2021-02-28T07:22:36Z</time>
      </trkpt>
      <trkpt lat="45.1397" lon="6.33578">
        <ele>2490</ele>
        <time>2021-02-28T07:22:37Z</time>
      </trkpt>
      <trkpt lat="45.1397" lon="6.33578">
        <ele>2490.6</ele>
        <time>2021-02-28T07:22:38Z</time>
      </trkpt>
      <trkpt lat="45.1397" lon="6.33578">
        <ele>2490.8</ele>
        <time>2021-02-28T07:22:39Z</time>
      </trkpt>
      <trkpt lat="45.1397" lon="6.33578">
        <ele>2490.8</ele>
        <time>2021-02-28T07:22:40Z</time>
      </trkpt>
      <trkpt lat="45.1397" lon="6.33578">
        <ele>2489.8</ele>
        <time>2021-02-28T07:22:41Z</time>
      </trkpt>
      <trkpt lat="45.1397" lon="6.33578">
        <ele>2490.2</ele>
        <time>2021-02-28T07:22:42Z</time>
      </trkpt>
      <trkpt lat="45.1397" lon="6.33578">
        <ele>2489.6</ele>
        <time>2021-02-28T07:22:43Z</time>
      </trkpt>
      <trkpt lat="45.1397" lon="6.33578">
        <ele>2490.2</ele>
        <time>2021-02-28T07:22:44Z</time>
      </trkpt>
      <trkpt lat="45.1397" lon="6.33578">
        <ele>2490.6</ele>
        <time>2021-02-28T07:22:45Z</time>
      </trkpt>
      <trkpt lat="45.1397" lon="6.33578">
        <ele>2490.6</ele>
        <time>2021-02-28T07:22:46Z</time>
      </trkpt>
      <trkpt lat="45.1397" lon="6.33578">
        <ele>2491</ele>
        <time>2021-02-28T07:22:47Z</time>
      </trkpt>
      <trkpt lat="45.1397" lon="6.33578">
        <ele>2491</ele>
        <time>2021-02-28T07:22:48Z</time>
      </trkpt>
      <trkpt lat="45.1397" lon="6.33578">
        <ele>2490.8</ele>
        <time>2021-02-28T07:22:49Z</time>
      </trkpt>
      <trkpt lat="45.1397" lon="6.33578">
        <ele>2490.6</ele>
        <time>2021-02-28T07:22:50Z</time>
      </trkpt>
      <trkpt lat="45.1397" lon="6.33578">
        <ele>2491</ele>
        <time>2021-02-28T07:22:51Z</time>
      </trkpt>
      <trkpt lat="45.1397" lon="6.33578">
        <ele>2490.8</ele>
        <time>2021-02-28T07:22:52Z</time>
      </trkpt>
      <trkpt lat="45.1397" lon="6.33578">
        <ele>2491</ele>
        <time>2021-02-28T07:22:53Z</time>
      </trkpt>
      <trkpt lat="45.1397" lon="6.33578">
        <ele>2491</ele>
        <time>2021-02-28T07:22:54Z</time>
      </trkpt>
      <trkpt lat="45.1397" lon="6.33578">
        <ele>2490.6</ele>
        <time>2021-02-28T07:22:55Z</time>
      </trkpt>
      <trkpt lat="45.1397" lon="6.33578">
        <ele>2490.8</ele>
        <time>2021-02-28T07:22:56Z</time>
      </trkpt>
      <trkpt lat="45.1397" lon="6.33578">
        <ele>2490.6</ele>
        <time>2021-02-28T07:22:57Z</time>
      </trkpt>
      <trkpt lat="45.1397" lon="6.33578">
        <ele>2490.8</ele>
        <time>2021-02-28T07:22:58Z</time>
      </trkpt>
      <trkpt lat="45.1397" lon="6.33578">
        <ele>2491.6</ele>
        <time>2021-02-28T07:22:59Z</time>
      </trkpt>
      <trkpt lat="45.1397" lon="6.33578">
        <ele>2491</ele>
        <time>2021-02-28T07:23:00Z</time>
      </trkpt>
      <trkpt lat="45.1397" lon="6.33578">
        <ele>2491.2</ele>
        <time>2021-02-28T07:23:01Z</time>
      </trkpt>
      <trkpt lat="45.1397" lon="6.33578">
        <ele>2491.2</ele>
        <time>2021-02-28T07:23:02Z</time>
      </trkpt>
      <trkpt lat="45.1397" lon="6.33578">
        <ele>2491.2</ele>
        <time>2021-02-28T07:23:03Z</time>
      </trkpt>
      <trkpt lat="45.1397" lon="6.33578">
        <ele>2490.8</ele>
        <time>2021-02-28T07:23:04Z</time>
      </trkpt>
      <trkpt lat="45.1397" lon="6.33578">
        <ele>2491.2</ele>
        <time>2021-02-28T07:23:05Z</time>
      </trkpt>
      <trkpt lat="45.1397" lon="6.33578">
        <ele>2490.8</ele>
        <time>2021-02-28T07:23:06Z</time>
      </trkpt>
      <trkpt lat="45.1397" lon="6.33578">
        <ele>2490.8</ele>
        <time>2021-02-28T07:23:07Z</time>
      </trkpt>
      <trkpt lat="45.1397" lon="6.33578">
        <ele>2490.8</ele>
        <time>2021-02-28T07:23:08Z</time>
      </trkpt>
      <trkpt lat="45.1397" lon="6.33578">
        <ele>2490.8</ele>
        <time>2021-02-28T07:23:09Z</time>
      </trkpt>
      <trkpt lat="45.1397" lon="6.33578">
        <ele>2491.6</ele>
        <time>2021-02-28T07:23:10Z</time>
      </trkpt>
      <trkpt lat="45.1397" lon="6.33578">
        <ele>2491.6</ele>
        <time>2021-02-28T07:23:11Z</time>
      </trkpt>
      <trkpt lat="45.1397" lon="6.33578">
        <ele>2491.2</ele>
        <time>2021-02-28T07:23:12Z</time>
      </trkpt>
      <trkpt lat="45.1397" lon="6.33578">
        <ele>2491.4</ele>
        <time>2021-02-28T07:23:13Z</time>
      </trkpt>
      <trkpt lat="45.1397" lon="6.33578">
        <ele>2491.2</ele>
        <time>2021-02-28T07:23:14Z</time>
      </trkpt>
      <trkpt lat="45.1397" lon="6.33578">
        <ele>2489.6</ele>
        <time>2021-02-28T07:23:15Z</time>
      </trkpt>
      <trkpt lat="45.1397" lon="6.33578">
        <ele>2490</ele>
        <time>2021-02-28T07:23:16Z</time>
      </trkpt>
      <trkpt lat="45.1397" lon="6.33578">
        <ele>2490.4</ele>
        <time>2021-02-28T07:23:17Z</time>
      </trkpt>
      <trkpt lat="45.1397" lon="6.33578">
        <ele>2491</ele>
        <time>2021-02-28T07:23:18Z</time>
      </trkpt>
      <trkpt lat="45.1397" lon="6.33578">
        <ele>2491.6</ele>
        <time>2021-02-28T07:23:19Z</time>
      </trkpt>
      <trkpt lat="45.1397" lon="6.33578">
        <ele>2491.8</ele>
        <time>2021-02-28T07:23:20Z</time>
      </trkpt>
      <trkpt lat="45.1397" lon="6.33578">
        <ele>2492</ele>
        <time>2021-02-28T07:23:21Z</time>
      </trkpt>
      <trkpt lat="45.1397" lon="6.33578">
        <ele>2491.8</ele>
        <time>2021-02-28T07:23:22Z</time>
      </trkpt>
      <trkpt lat="45.1397" lon="6.33578">
        <ele>2491.6</ele>
        <time>2021-02-28T07:23:23Z</time>
      </trkpt>
      <trkpt lat="45.1397" lon="6.33578">
        <ele>2491.4</ele>
        <time>2021-02-28T07:23:24Z</time>
      </trkpt>
      <trkpt lat="45.1397" lon="6.33578">
        <ele>2491.6</ele>
        <time>2021-02-28T07:23:25Z</time>
      </trkpt>
      <trkpt lat="45.1397" lon="6.33578">
        <ele>2491.2</ele>
        <time>2021-02-28T07:23:26Z</time>
      </trkpt>
      <trkpt lat="45.1397" lon="6.33578">
        <ele>2491</ele>
        <time>2021-02-28T07:23:27Z</time>
      </trkpt>
      <trkpt lat="45.1397" lon="6.33578">
        <ele>2490.8</ele>
        <time>2021-02-28T07:23:28Z</time>
      </trkpt>
      <trkpt lat="45.1397" lon="6.33578">
        <ele>2491.2</ele>
        <time>2021-02-28T07:23:29Z</time>
      </trkpt>
      <trkpt lat="45.1397" lon="6.33578">
        <ele>2491.8</ele>
        <time>2021-02-28T07:23:30Z</time>
      </trkpt>
      <trkpt lat="45.1397" lon="6.33578">
        <ele>2491.2</ele>
        <time>2021-02-28T07:23:31Z</time>
      </trkpt>
      <trkpt lat="45.1397" lon="6.33578">
        <ele>2488.8</ele>
        <time>2021-02-28T07:23:32Z</time>
      </trkpt>
      <trkpt lat="45.1397" lon="6.33578">
        <ele>2489.4</ele>
        <time>2021-02-28T07:23:33Z</time>
      </trkpt>
      <trkpt lat="45.1397" lon="6.33578">
        <ele>2490.6</ele>
        <time>2021-02-28T07:23:34Z</time>
      </trkpt>
      <trkpt lat="45.1397" lon="6.33578">
        <ele>2491</ele>
        <time>2021-02-28T07:23:35Z</time>
      </trkpt>
      <trkpt lat="45.1397" lon="6.33578">
        <ele>2491.4</ele>
        <time>2021-02-28T07:23:36Z</time>
      </trkpt>
      <trkpt lat="45.1397" lon="6.33578">
        <ele>2491.2</ele>
        <time>2021-02-28T07:23:37Z</time>
      </trkpt>
      <trkpt lat="45.1397" lon="6.33578">
        <ele>2490.8</ele>
        <time>2021-02-28T07:23:38Z</time>
      </trkpt>
      <trkpt lat="45.1397" lon="6.33578">
        <ele>2491.4</ele>
        <time>2021-02-28T07:23:39Z</time>
      </trkpt>
      <trkpt lat="45.13972" lon="6.33576">
        <ele>2492.2</ele>
        <time>2021-02-28T07:23:40Z</time>
      </trkpt>
      <trkpt lat="45.13972" lon="6.33576">
        <ele>2492.6</ele>
        <time>2021-02-28T07:23:41Z</time>
      </trkpt>
      <trkpt lat="45.13972" lon="6.33576">
        <ele>2493</ele>
        <time>2021-02-28T07:23:42Z</time>
      </trkpt>
      <trkpt lat="45.13972" lon="6.33576">
        <ele>2491.8</ele>
        <time>2021-02-28T07:23:43Z</time>
      </trkpt>
      <trkpt lat="45.13972" lon="6.33576">
        <ele>2492.4</ele>
        <time>2021-02-28T07:23:44Z</time>
      </trkpt>
      <trkpt lat="45.13972" lon="6.33576">
        <ele>2492.8</ele>
        <time>2021-02-28T07:23:45Z</time>
      </trkpt>
      <trkpt lat="45.13972" lon="6.33574">
        <ele>2492.6</ele>
        <time>2021-02-28T07:23:46Z</time>
      </trkpt>
      <trkpt lat="45.13972" lon="6.33574">
        <ele>2492.2</ele>
        <time>2021-02-28T07:23:47Z</time>
      </trkpt>
      <trkpt lat="45.13975" lon="6.33574">
        <ele>2491.8</ele>
        <time>2021-02-28T07:23:48Z</time>
      </trkpt>
      <trkpt lat="45.13977" lon="6.33575">
        <ele>2491.4</ele>
        <time>2021-02-28T07:23:49Z</time>
      </trkpt>
      <trkpt lat="45.13979" lon="6.33577">
        <ele>2491.6</ele>
        <time>2021-02-28T07:23:50Z</time>
      </trkpt>
      <trkpt lat="45.13981" lon="6.33579">
        <ele>2490.8</ele>
        <time>2021-02-28T07:23:51Z</time>
      </trkpt>
      <trkpt lat="45.13983" lon="6.3358">
        <ele>2490.6</ele>
        <time>2021-02-28T07:23:52Z</time>
      </trkpt>
      <trkpt lat="45.13983" lon="6.3358">
        <ele>2490</ele>
        <time>2021-02-28T07:23:53Z</time>
      </trkpt>
      <trkpt lat="45.13984" lon="6.33583">
        <ele>2489.6</ele>
        <time>2021-02-28T07:23:54Z</time>
      </trkpt>
      <trkpt lat="45.13984" lon="6.33583">
        <ele>2488.8</ele>
        <time>2021-02-28T07:23:55Z</time>
      </trkpt>
      <trkpt lat="45.13984" lon="6.33583">
        <ele>2488.2</ele>
        <time>2021-02-28T07:23:56Z</time>
      </trkpt>
      <trkpt lat="45.13984" lon="6.33583">
        <ele>2488.6</ele>
        <time>2021-02-28T07:23:57Z</time>
      </trkpt>
      <trkpt lat="45.13984" lon="6.33583">
        <ele>2488.2</ele>
        <time>2021-02-28T07:23:58Z</time>
      </trkpt>
      <trkpt lat="45.13984" lon="6.33583">
        <ele>2488.2</ele>
        <time>2021-02-28T07:23:59Z</time>
      </trkpt>
      <trkpt lat="45.13984" lon="6.33583">
        <ele>2488</ele>
        <time>2021-02-28T07:24:00Z</time>
      </trkpt>
      <trkpt lat="45.13984" lon="6.33583">
        <ele>2487.6</ele>
        <time>2021-02-28T07:24:01Z</time>
      </trkpt>
      <trkpt lat="45.13984" lon="6.33583">
        <ele>2487.6</ele>
        <time>2021-02-28T07:24:02Z</time>
      </trkpt>
      <trkpt lat="45.13984" lon="6.33583">
        <ele>2487.4</ele>
        <time>2021-02-28T07:24:03Z</time>
      </trkpt>
      <trkpt lat="45.13984" lon="6.33586">
        <ele>2487.4</ele>
        <time>2021-02-28T07:24:04Z</time>
      </trkpt>
      <trkpt lat="45.13984" lon="6.33586">
        <ele>2487.2</ele>
        <time>2021-02-28T07:24:05Z</time>
      </trkpt>
      <trkpt lat="45.13984" lon="6.33586">
        <ele>2487.6</ele>
        <time>2021-02-28T07:24:06Z</time>
      </trkpt>
      <trkpt lat="45.13984" lon="6.33586">
        <ele>2486.8</ele>
        <time>2021-02-28T07:24:07Z</time>
      </trkpt>
      <trkpt lat="45.13984" lon="6.33586">
        <ele>2486.2</ele>
        <time>2021-02-28T07:24:08Z</time>
      </trkpt>
      <trkpt lat="45.13984" lon="6.33586">
        <ele>2485.8</ele>
        <time>2021-02-28T07:24:09Z</time>
      </trkpt>
      <trkpt lat="45.13984" lon="6.33586">
        <ele>2486</ele>
        <time>2021-02-28T07:24:10Z</time>
      </trkpt>
      <trkpt lat="45.13984" lon="6.33589">
        <ele>2486</ele>
        <time>2021-02-28T07:24:11Z</time>
      </trkpt>
      <trkpt lat="45.13984" lon="6.33589">
        <ele>2486.4</ele>
        <time>2021-02-28T07:24:12Z</time>
      </trkpt>
      <trkpt lat="45.13984" lon="6.33592">
        <ele>2487.4</ele>
        <time>2021-02-28T07:24:13Z</time>
      </trkpt>
      <trkpt lat="45.13984" lon="6.33592">
        <ele>2487.6</ele>
        <time>2021-02-28T07:24:14Z</time>
      </trkpt>
      <trkpt lat="45.13984" lon="6.33595">
        <ele>2488.2</ele>
        <time>2021-02-28T07:24:15Z</time>
      </trkpt>
      <trkpt lat="45.13984" lon="6.33595">
        <ele>2487.6</ele>
        <time>2021-02-28T07:24:16Z</time>
      </trkpt>
      <trkpt lat="45.13983" lon="6.33598">
        <ele>2487.8</ele>
        <time>2021-02-28T07:24:17Z</time>
      </trkpt>
      <trkpt lat="45.13983" lon="6.33598">
        <ele>2488.6</ele>
        <time>2021-02-28T07:24:18Z</time>
      </trkpt>
      <trkpt lat="45.13983" lon="6.33601">
        <ele>2489</ele>
        <time>2021-02-28T07:24:19Z</time>
      </trkpt>
      <trkpt lat="45.13983" lon="6.33601">
        <ele>2488.8</ele>
        <time>2021-02-28T07:24:20Z</time>
      </trkpt>
      <trkpt lat="45.13982" lon="6.33605">
        <ele>2488.6</ele>
        <time>2021-02-28T07:24:21Z</time>
      </trkpt>
      <trkpt lat="45.13982" lon="6.33605">
        <ele>2488.4</ele>
        <time>2021-02-28T07:24:22Z</time>
      </trkpt>
      <trkpt lat="45.13982" lon="6.33608">
        <ele>2489.8</ele>
        <time>2021-02-28T07:24:23Z</time>
      </trkpt>
      <trkpt lat="45.13982" lon="6.33608">
        <ele>2489.4</ele>
        <time>2021-02-28T07:24:24Z</time>
      </trkpt>
      <trkpt lat="45.13981" lon="6.33611">
        <ele>2489.2</ele>
        <time>2021-02-28T07:24:25Z</time>
      </trkpt>
      <trkpt lat="45.13981" lon="6.33611">
        <ele>2489</ele>
        <time>2021-02-28T07:24:26Z</time>
      </trkpt>
      <trkpt lat="45.13981" lon="6.33615">
        <ele>2488.8</ele>
        <time>2021-02-28T07:24:27Z</time>
      </trkpt>
      <trkpt lat="45.13981" lon="6.33615">
        <ele>2490</ele>
        <time>2021-02-28T07:24:28Z</time>
      </trkpt>
      <trkpt lat="45.1398" lon="6.33619">
        <ele>2490.4</ele>
        <time>2021-02-28T07:24:29Z</time>
      </trkpt>
      <trkpt lat="45.1398" lon="6.33619">
        <ele>2490.4</ele>
        <time>2021-02-28T07:24:30Z</time>
      </trkpt>
      <trkpt lat="45.13979" lon="6.33622">
        <ele>2489.6</ele>
        <time>2021-02-28T07:24:31Z</time>
      </trkpt>
      <trkpt lat="45.13979" lon="6.33622">
        <ele>2489.8</ele>
        <time>2021-02-28T07:24:32Z</time>
      </trkpt>
      <trkpt lat="45.13978" lon="6.33627">
        <ele>2489.8</ele>
        <time>2021-02-28T07:24:33Z</time>
      </trkpt>
      <trkpt lat="45.13978" lon="6.33627">
        <ele>2489.8</ele>
        <time>2021-02-28T07:24:34Z</time>
      </trkpt>
      <trkpt lat="45.13976" lon="6.33632">
        <ele>2489.6</ele>
        <time>2021-02-28T07:24:35Z</time>
      </trkpt>
      <trkpt lat="45.13975" lon="6.33634">
        <ele>2489.6</ele>
        <time>2021-02-28T07:24:36Z</time>
      </trkpt>
      <trkpt lat="45.13974" lon="6.33637">
        <ele>2490</ele>
        <time>2021-02-28T07:24:37Z</time>
      </trkpt>
      <trkpt lat="45.13974" lon="6.33637">
        <ele>2490</ele>
        <time>2021-02-28T07:24:38Z</time>
      </trkpt>
      <trkpt lat="45.13973" lon="6.33641">
        <ele>2490.2</ele>
        <time>2021-02-28T07:24:39Z</time>
      </trkpt>
      <trkpt lat="45.13973" lon="6.33641">
        <ele>2490.4</ele>
        <time>2021-02-28T07:24:40Z</time>
      </trkpt>
      <trkpt lat="45.13972" lon="6.33644">
        <ele>2490.8</ele>
        <time>2021-02-28T07:24:41Z</time>
      </trkpt>
      <trkpt lat="45.13972" lon="6.33644">
        <ele>2490.2</ele>
        <time>2021-02-28T07:24:42Z</time>
      </trkpt>
      <trkpt lat="45.13972" lon="6.33648">
        <ele>2490.4</ele>
        <time>2021-02-28T07:24:43Z</time>
      </trkpt>
      <trkpt lat="45.13972" lon="6.33648">
        <ele>2490.2</ele>
        <time>2021-02-28T07:24:44Z</time>
      </trkpt>
      <trkpt lat="45.1397" lon="6.33653">
        <ele>2490.8</ele>
        <time>2021-02-28T07:24:45Z</time>
      </trkpt>
      <trkpt lat="45.1397" lon="6.33653">
        <ele>2490</ele>
        <time>2021-02-28T07:24:46Z</time>
      </trkpt>
      <trkpt lat="45.13969" lon="6.33658">
        <ele>2490.4</ele>
        <time>2021-02-28T07:24:47Z</time>
      </trkpt>
      <trkpt lat="45.13969" lon="6.33658">
        <ele>2491</ele>
        <time>2021-02-28T07:24:48Z</time>
      </trkpt>
      <trkpt lat="45.13969" lon="6.33662">
        <ele>2490.4</ele>
        <time>2021-02-28T07:24:49Z</time>
      </trkpt>
      <trkpt lat="45.13969" lon="6.33662">
        <ele>2490.2</ele>
        <time>2021-02-28T07:24:50Z</time>
      </trkpt>
      <trkpt lat="45.13969" lon="6.33666">
        <ele>2490.4</ele>
        <time>2021-02-28T07:24:51Z</time>
      </trkpt>
      <trkpt lat="45.13969" lon="6.33666">
        <ele>2490.6</ele>
        <time>2021-02-28T07:24:52Z</time>
      </trkpt>
      <trkpt lat="45.13968" lon="6.33671">
        <ele>2490.6</ele>
        <time>2021-02-28T07:24:53Z</time>
      </trkpt>
      <trkpt lat="45.13968" lon="6.33671">
        <ele>2489.8</ele>
        <time>2021-02-28T07:24:54Z</time>
      </trkpt>
      <trkpt lat="45.13968" lon="6.33674">
        <ele>2489.6</ele>
        <time>2021-02-28T07:24:55Z</time>
      </trkpt>
      <trkpt lat="45.13967" lon="6.33677">
        <ele>2490</ele>
        <time>2021-02-28T07:24:56Z</time>
      </trkpt>
      <trkpt lat="45.13967" lon="6.33677">
        <ele>2490</ele>
        <time>2021-02-28T07:24:57Z</time>
      </trkpt>
      <trkpt lat="45.13967" lon="6.33682">
        <ele>2489.8</ele>
        <time>2021-02-28T07:24:58Z</time>
      </trkpt>
      <trkpt lat="45.13967" lon="6.33682">
        <ele>2490</ele>
        <time>2021-02-28T07:24:59Z</time>
      </trkpt>
      <trkpt lat="45.13968" lon="6.33686">
        <ele>2490.2</ele>
        <time>2021-02-28T07:25:00Z</time>
      </trkpt>
      <trkpt lat="45.13968" lon="6.33686">
        <ele>2490.2</ele>
        <time>2021-02-28T07:25:01Z</time>
      </trkpt>
      <trkpt lat="45.13969" lon="6.3369">
        <ele>2490.6</ele>
        <time>2021-02-28T07:25:02Z</time>
      </trkpt>
      <trkpt lat="45.13969" lon="6.3369">
        <ele>2491</ele>
        <time>2021-02-28T07:25:03Z</time>
      </trkpt>
      <trkpt lat="45.13969" lon="6.33693">
        <ele>2490.2</ele>
        <time>2021-02-28T07:25:04Z</time>
      </trkpt>
      <trkpt lat="45.13969" lon="6.33696">
        <ele>2491</ele>
        <time>2021-02-28T07:25:05Z</time>
      </trkpt>
      <trkpt lat="45.13969" lon="6.33696">
        <ele>2491.2</ele>
        <time>2021-02-28T07:25:06Z</time>
      </trkpt>
      <trkpt lat="45.13969" lon="6.33696">
        <ele>2491</ele>
        <time>2021-02-28T07:25:07Z</time>
      </trkpt>
      <trkpt lat="45.13968" lon="6.33704">
        <ele>2491</ele>
        <time>2021-02-28T07:25:08Z</time>
      </trkpt>
      <trkpt lat="45.13968" lon="6.33706">
        <ele>2490.4</ele>
        <time>2021-02-28T07:25:09Z</time>
      </trkpt>
      <trkpt lat="45.13967" lon="6.33707">
        <ele>2490.6</ele>
        <time>2021-02-28T07:25:10Z</time>
      </trkpt>
      <trkpt lat="45.13967" lon="6.33707">
        <ele>2490.2</ele>
        <time>2021-02-28T07:25:11Z</time>
      </trkpt>
      <trkpt lat="45.13967" lon="6.33711">
        <ele>2490.2</ele>
        <time>2021-02-28T07:25:12Z</time>
      </trkpt>
      <trkpt lat="45.13967" lon="6.33714">
        <ele>2490.2</ele>
        <time>2021-02-28T07:25:13Z</time>
      </trkpt>
      <trkpt lat="45.13967" lon="6.33714">
        <ele>2490.6</ele>
        <time>2021-02-28T07:25:14Z</time>
      </trkpt>
      <trkpt lat="45.13965" lon="6.33718">
        <ele>2490</ele>
        <time>2021-02-28T07:25:15Z</time>
      </trkpt>
      <trkpt lat="45.13965" lon="6.33718">
        <ele>2490.2</ele>
        <time>2021-02-28T07:25:16Z</time>
      </trkpt>
      <trkpt lat="45.13965" lon="6.33721">
        <ele>2490.4</ele>
        <time>2021-02-28T07:25:17Z</time>
      </trkpt>
      <trkpt lat="45.13965" lon="6.33721">
        <ele>2490.6</ele>
        <time>2021-02-28T07:25:18Z</time>
      </trkpt>
      <trkpt lat="45.13965" lon="6.33726">
        <ele>2490</ele>
        <time>2021-02-28T07:25:19Z</time>
      </trkpt>
      <trkpt lat="45.13965" lon="6.33726">
        <ele>2490</ele>
        <time>2021-02-28T07:25:20Z</time>
      </trkpt>
      <trkpt lat="45.13964" lon="6.3373">
        <ele>2490</ele>
        <time>2021-02-28T07:25:21Z</time>
      </trkpt>
      <trkpt lat="45.13964" lon="6.3373">
        <ele>2490.4</ele>
        <time>2021-02-28T07:25:22Z</time>
      </trkpt>
      <trkpt lat="45.13965" lon="6.33735">
        <ele>2490.4</ele>
        <time>2021-02-28T07:25:23Z</time>
      </trkpt>
      <trkpt lat="45.13965" lon="6.33735">
        <ele>2491</ele>
        <time>2021-02-28T07:25:24Z</time>
      </trkpt>
      <trkpt lat="45.13965" lon="6.33739">
        <ele>2491</ele>
        <time>2021-02-28T07:25:25Z</time>
      </trkpt>
      <trkpt lat="45.13965" lon="6.33739">
        <ele>2490.4</ele>
        <time>2021-02-28T07:25:26Z</time>
      </trkpt>
      <trkpt lat="45.13964" lon="6.33743">
        <ele>2490.8</ele>
        <time>2021-02-28T07:25:27Z</time>
      </trkpt>
      <trkpt lat="45.13964" lon="6.33743">
        <ele>2491.6</ele>
        <time>2021-02-28T07:25:28Z</time>
      </trkpt>
      <trkpt lat="45.13964" lon="6.33748">
        <ele>2490.8</ele>
        <time>2021-02-28T07:25:29Z</time>
      </trkpt>
      <trkpt lat="45.13964" lon="6.33748">
        <ele>2491.4</ele>
        <time>2021-02-28T07:25:30Z</time>
      </trkpt>
      <trkpt lat="45.13964" lon="6.33751">
        <ele>2491.4</ele>
        <time>2021-02-28T07:25:31Z</time>
      </trkpt>
      <trkpt lat="45.13964" lon="6.33751">
        <ele>2491.8</ele>
        <time>2021-02-28T07:25:32Z</time>
      </trkpt>
      <trkpt lat="45.13963" lon="6.33755">
        <ele>2491.2</ele>
        <time>2021-02-28T07:25:33Z</time>
      </trkpt>
      <trkpt lat="45.13963" lon="6.33755">
        <ele>2491.2</ele>
        <time>2021-02-28T07:25:34Z</time>
      </trkpt>
      <trkpt lat="45.13963" lon="6.33758">
        <ele>2491.6</ele>
        <time>2021-02-28T07:25:35Z</time>
      </trkpt>
      <trkpt lat="45.13963" lon="6.33758">
        <ele>2492.2</ele>
        <time>2021-02-28T07:25:36Z</time>
      </trkpt>
      <trkpt lat="45.13963" lon="6.33762">
        <ele>2493.2</ele>
        <time>2021-02-28T07:25:37Z</time>
      </trkpt>
      <trkpt lat="45.13963" lon="6.33762">
        <ele>2493.4</ele>
        <time>2021-02-28T07:25:38Z</time>
      </trkpt>
      <trkpt lat="45.13963" lon="6.33766">
        <ele>2492.6</ele>
        <time>2021-02-28T07:25:39Z</time>
      </trkpt>
      <trkpt lat="45.13963" lon="6.33766">
        <ele>2493</ele>
        <time>2021-02-28T07:25:40Z</time>
      </trkpt>
      <trkpt lat="45.13963" lon="6.3377">
        <ele>2493.2</ele>
        <time>2021-02-28T07:25:41Z</time>
      </trkpt>
      <trkpt lat="45.13963" lon="6.3377">
        <ele>2493.2</ele>
        <time>2021-02-28T07:25:42Z</time>
      </trkpt>
      <trkpt lat="45.13962" lon="6.33774">
        <ele>2493</ele>
        <time>2021-02-28T07:25:43Z</time>
      </trkpt>
      <trkpt lat="45.13962" lon="6.33774">
        <ele>2493.4</ele>
        <time>2021-02-28T07:25:44Z</time>
      </trkpt>
      <trkpt lat="45.13962" lon="6.33777">
        <ele>2493.6</ele>
        <time>2021-02-28T07:25:45Z</time>
      </trkpt>
      <trkpt lat="45.13962" lon="6.33777">
        <ele>2493.6</ele>
        <time>2021-02-28T07:25:46Z</time>
      </trkpt>
      <trkpt lat="45.13962" lon="6.33781">
        <ele>2493.6</ele>
        <time>2021-02-28T07:25:47Z</time>
      </trkpt>
      <trkpt lat="45.13962" lon="6.33781">
        <ele>2494</ele>
        <time>2021-02-28T07:25:48Z</time>
      </trkpt>
      <trkpt lat="45.13962" lon="6.33785">
        <ele>2493.2</ele>
        <time>2021-02-28T07:25:49Z</time>
      </trkpt>
      <trkpt lat="45.13962" lon="6.33785">
        <ele>2493.6</ele>
        <time>2021-02-28T07:25:50Z</time>
      </trkpt>
      <trkpt lat="45.13962" lon="6.33789">
        <ele>2494</ele>
        <time>2021-02-28T07:25:51Z</time>
      </trkpt>
      <trkpt lat="45.13962" lon="6.33789">
        <ele>2494.2</ele>
        <time>2021-02-28T07:25:52Z</time>
      </trkpt>
      <trkpt lat="45.13962" lon="6.33794">
        <ele>2493.6</ele>
        <time>2021-02-28T07:25:53Z</time>
      </trkpt>
      <trkpt lat="45.13962" lon="6.33794">
        <ele>2494</ele>
        <time>2021-02-28T07:25:54Z</time>
      </trkpt>
      <trkpt lat="45.13962" lon="6.33797">
        <ele>2494</ele>
        <time>2021-02-28T07:25:55Z</time>
      </trkpt>
      <trkpt lat="45.13962" lon="6.33797">
        <ele>2495</ele>
        <time>2021-02-28T07:25:56Z</time>
      </trkpt>
      <trkpt lat="45.13962" lon="6.33802">
        <ele>2494.8</ele>
        <time>2021-02-28T07:25:57Z</time>
      </trkpt>
      <trkpt lat="45.13962" lon="6.33802">
        <ele>2494.6</ele>
        <time>2021-02-28T07:25:58Z</time>
      </trkpt>
      <trkpt lat="45.13963" lon="6.33806">
        <ele>2494.8</ele>
        <time>2021-02-28T07:25:59Z</time>
      </trkpt>
      <trkpt lat="45.13963" lon="6.33806">
        <ele>2494.6</ele>
        <time>2021-02-28T07:26:00Z</time>
      </trkpt>
      <trkpt lat="45.13963" lon="6.3381">
        <ele>2494.4</ele>
        <time>2021-02-28T07:26:01Z</time>
      </trkpt>
      <trkpt lat="45.13963" lon="6.3381">
        <ele>2494.4</ele>
        <time>2021-02-28T07:26:02Z</time>
      </trkpt>
      <trkpt lat="45.13963" lon="6.33814">
        <ele>2494.2</ele>
        <time>2021-02-28T07:26:03Z</time>
      </trkpt>
      <trkpt lat="45.13963" lon="6.33814">
        <ele>2494.4</ele>
        <time>2021-02-28T07:26:04Z</time>
      </trkpt>
      <trkpt lat="45.13962" lon="6.33818">
        <ele>2494.6</ele>
        <time>2021-02-28T07:26:05Z</time>
      </trkpt>
      <trkpt lat="45.13962" lon="6.33818">
        <ele>2494</ele>
        <time>2021-02-28T07:26:06Z</time>
      </trkpt>
      <trkpt lat="45.13963" lon="6.33822">
        <ele>2494</ele>
        <time>2021-02-28T07:26:07Z</time>
      </trkpt>
      <trkpt lat="45.13963" lon="6.33822">
        <ele>2494</ele>
        <time>2021-02-28T07:26:08Z</time>
      </trkpt>
      <trkpt lat="45.13963" lon="6.33822">
        <ele>2494.2</ele>
        <time>2021-02-28T07:26:09Z</time>
      </trkpt>
      <trkpt lat="45.13962" lon="6.33828">
        <ele>2494.6</ele>
        <time>2021-02-28T07:26:10Z</time>
      </trkpt>
      <trkpt lat="45.13962" lon="6.33828">
        <ele>2494.6</ele>
        <time>2021-02-28T07:26:11Z</time>
      </trkpt>
      <trkpt lat="45.13962" lon="6.33832">
        <ele>2494.8</ele>
        <time>2021-02-28T07:26:12Z</time>
      </trkpt>
      <trkpt lat="45.13962" lon="6.33832">
        <ele>2494</ele>
        <time>2021-02-28T07:26:13Z</time>
      </trkpt>
      <trkpt lat="45.13962" lon="6.33835">
        <ele>2494.6</ele>
        <time>2021-02-28T07:26:14Z</time>
      </trkpt>
      <trkpt lat="45.13962" lon="6.33835">
        <ele>2495</ele>
        <time>2021-02-28T07:26:15Z</time>
      </trkpt>
      <trkpt lat="45.13963" lon="6.33839">
        <ele>2494.6</ele>
        <time>2021-02-28T07:26:16Z</time>
      </trkpt>
      <trkpt lat="45.13963" lon="6.33839">
        <ele>2494.6</ele>
        <time>2021-02-28T07:26:17Z</time>
      </trkpt>
      <trkpt lat="45.13963" lon="6.33843">
        <ele>2494.6</ele>
        <time>2021-02-28T07:26:18Z</time>
      </trkpt>
      <trkpt lat="45.13963" lon="6.33843">
        <ele>2495.2</ele>
        <time>2021-02-28T07:26:19Z</time>
      </trkpt>
      <trkpt lat="45.13964" lon="6.33847">
        <ele>2495</ele>
        <time>2021-02-28T07:26:20Z</time>
      </trkpt>
      <trkpt lat="45.13964" lon="6.33847">
        <ele>2495.2</ele>
        <time>2021-02-28T07:26:21Z</time>
      </trkpt>
      <trkpt lat="45.13965" lon="6.3385">
        <ele>2494.8</ele>
        <time>2021-02-28T07:26:22Z</time>
      </trkpt>
      <trkpt lat="45.13965" lon="6.3385">
        <ele>2495.4</ele>
        <time>2021-02-28T07:26:23Z</time>
      </trkpt>
      <trkpt lat="45.13965" lon="6.33854">
        <ele>2495.6</ele>
        <time>2021-02-28T07:26:24Z</time>
      </trkpt>
      <trkpt lat="45.13965" lon="6.33854">
        <ele>2494.8</ele>
        <time>2021-02-28T07:26:25Z</time>
      </trkpt>
      <trkpt lat="45.13965" lon="6.33857">
        <ele>2495.8</ele>
        <time>2021-02-28T07:26:26Z</time>
      </trkpt>
      <trkpt lat="45.13965" lon="6.33857">
        <ele>2496.4</ele>
        <time>2021-02-28T07:26:27Z</time>
      </trkpt>
      <trkpt lat="45.13964" lon="6.3386">
        <ele>2497.2</ele>
        <time>2021-02-28T07:26:28Z</time>
      </trkpt>
      <trkpt lat="45.13964" lon="6.3386">
        <ele>2496.8</ele>
        <time>2021-02-28T07:26:29Z</time>
      </trkpt>
      <trkpt lat="45.13964" lon="6.33863">
        <ele>2497.6</ele>
        <time>2021-02-28T07:26:30Z</time>
      </trkpt>
      <trkpt lat="45.13964" lon="6.33863">
        <ele>2497</ele>
        <time>2021-02-28T07:26:31Z</time>
      </trkpt>
      <trkpt lat="45.13964" lon="6.33867">
        <ele>2497.6</ele>
        <time>2021-02-28T07:26:32Z</time>
      </trkpt>
      <trkpt lat="45.13964" lon="6.33867">
        <ele>2498</ele>
        <time>2021-02-28T07:26:33Z</time>
      </trkpt>
      <trkpt lat="45.13965" lon="6.3387">
        <ele>2496.4</ele>
        <time>2021-02-28T07:26:34Z</time>
      </trkpt>
      <trkpt lat="45.13965" lon="6.3387">
        <ele>2496.6</ele>
        <time>2021-02-28T07:26:35Z</time>
      </trkpt>
      <trkpt lat="45.13965" lon="6.33873">
        <ele>2496.6</ele>
        <time>2021-02-28T07:26:36Z</time>
      </trkpt>
      <trkpt lat="45.13965" lon="6.33873">
        <ele>2497</ele>
        <time>2021-02-28T07:26:37Z</time>
      </trkpt>
      <trkpt lat="45.13966" lon="6.33877">
        <ele>2496.8</ele>
        <time>2021-02-28T07:26:38Z</time>
      </trkpt>
      <trkpt lat="45.13966" lon="6.33877">
        <ele>2497.2</ele>
        <time>2021-02-28T07:26:39Z</time>
      </trkpt>
      <trkpt lat="45.13967" lon="6.3388">
        <ele>2496.2</ele>
        <time>2021-02-28T07:26:40Z</time>
      </trkpt>
      <trkpt lat="45.13967" lon="6.3388">
        <ele>2496.4</ele>
        <time>2021-02-28T07:26:41Z</time>
      </trkpt>
      <trkpt lat="45.13967" lon="6.33884">
        <ele>2496.8</ele>
        <time>2021-02-28T07:26:42Z</time>
      </trkpt>
      <trkpt lat="45.13967" lon="6.33884">
        <ele>2496.6</ele>
        <time>2021-02-28T07:26:43Z</time>
      </trkpt>
      <trkpt lat="45.13968" lon="6.33887">
        <ele>2496.4</ele>
        <time>2021-02-28T07:26:44Z</time>
      </trkpt>
      <trkpt lat="45.13968" lon="6.33887">
        <ele>2496.6</ele>
        <time>2021-02-28T07:26:45Z</time>
      </trkpt>
      <trkpt lat="45.13969" lon="6.33891">
        <ele>2497</ele>
        <time>2021-02-28T07:26:46Z</time>
      </trkpt>
      <trkpt lat="45.13969" lon="6.33891">
        <ele>2497.4</ele>
        <time>2021-02-28T07:26:47Z</time>
      </trkpt>
      <trkpt lat="45.1397" lon="6.33895">
        <ele>2497.6</ele>
        <time>2021-02-28T07:26:48Z</time>
      </trkpt>
      <trkpt lat="45.1397" lon="6.33895">
        <ele>2497.6</ele>
        <time>2021-02-28T07:26:49Z</time>
      </trkpt>
      <trkpt lat="45.1397" lon="6.33898">
        <ele>2497.4</ele>
        <time>2021-02-28T07:26:50Z</time>
      </trkpt>
      <trkpt lat="45.1397" lon="6.33898">
        <ele>2497.6</ele>
        <time>2021-02-28T07:26:51Z</time>
      </trkpt>
      <trkpt lat="45.1397" lon="6.33903">
        <ele>2498.4</ele>
        <time>2021-02-28T07:26:52Z</time>
      </trkpt>
      <trkpt lat="45.1397" lon="6.33903">
        <ele>2498.2</ele>
        <time>2021-02-28T07:26:53Z</time>
      </trkpt>
      <trkpt lat="45.13971" lon="6.33906">
        <ele>2498.2</ele>
        <time>2021-02-28T07:26:54Z</time>
      </trkpt>
      <trkpt lat="45.13971" lon="6.33906">
        <ele>2497.8</ele>
        <time>2021-02-28T07:26:55Z</time>
      </trkpt>
      <trkpt lat="45.13972" lon="6.33909">
        <ele>2498.4</ele>
        <time>2021-02-28T07:26:56Z</time>
      </trkpt>
      <trkpt lat="45.13972" lon="6.33909">
        <ele>2499</ele>
        <time>2021-02-28T07:26:57Z</time>
      </trkpt>
      <trkpt lat="45.13972" lon="6.33913">
        <ele>2499</ele>
        <time>2021-02-28T07:26:58Z</time>
      </trkpt>
      <trkpt lat="45.13972" lon="6.33913">
        <ele>2498.2</ele>
        <time>2021-02-28T07:26:59Z</time>
      </trkpt>
      <trkpt lat="45.13973" lon="6.33916">
        <ele>2498.2</ele>
        <time>2021-02-28T07:27:00Z</time>
      </trkpt>
      <trkpt lat="45.13973" lon="6.33916">
        <ele>2498.4</ele>
        <time>2021-02-28T07:27:01Z</time>
      </trkpt>
      <trkpt lat="45.13973" lon="6.3392">
        <ele>2498.8</ele>
        <time>2021-02-28T07:27:02Z</time>
      </trkpt>
      <trkpt lat="45.13973" lon="6.3392">
        <ele>2499</ele>
        <time>2021-02-28T07:27:03Z</time>
      </trkpt>
      <trkpt lat="45.13974" lon="6.33924">
        <ele>2499.2</ele>
        <time>2021-02-28T07:27:04Z</time>
      </trkpt>
      <trkpt lat="45.13974" lon="6.33927">
        <ele>2499.2</ele>
        <time>2021-02-28T07:27:05Z</time>
      </trkpt>
      <trkpt lat="45.13974" lon="6.33927">
        <ele>2499.4</ele>
        <time>2021-02-28T07:27:06Z</time>
      </trkpt>
      <trkpt lat="45.13974" lon="6.33931">
        <ele>2499.2</ele>
        <time>2021-02-28T07:27:07Z</time>
      </trkpt>
      <trkpt lat="45.13974" lon="6.33931">
        <ele>2499</ele>
        <time>2021-02-28T07:27:08Z</time>
      </trkpt>
      <trkpt lat="45.13974" lon="6.33934">
        <ele>2498.8</ele>
        <time>2021-02-28T07:27:09Z</time>
      </trkpt>
      <trkpt lat="45.13974" lon="6.33934">
        <ele>2499</ele>
        <time>2021-02-28T07:27:10Z</time>
      </trkpt>
      <trkpt lat="45.13975" lon="6.33938">
        <ele>2499.6</ele>
        <time>2021-02-28T07:27:11Z</time>
      </trkpt>
      <trkpt lat="45.13975" lon="6.33938">
        <ele>2499.8</ele>
        <time>2021-02-28T07:27:12Z</time>
      </trkpt>
      <trkpt lat="45.13975" lon="6.33938">
        <ele>2499.8</ele>
        <time>2021-02-28T07:27:13Z</time>
      </trkpt>
      <trkpt lat="45.13976" lon="6.33945">
        <ele>2499.8</ele>
        <time>2021-02-28T07:27:14Z</time>
      </trkpt>
      <trkpt lat="45.13976" lon="6.33946">
        <ele>2499.8</ele>
        <time>2021-02-28T07:27:15Z</time>
      </trkpt>
      <trkpt lat="45.13976" lon="6.33948">
        <ele>2500</ele>
        <time>2021-02-28T07:27:16Z</time>
      </trkpt>
      <trkpt lat="45.13976" lon="6.33948">
        <ele>2500.4</ele>
        <time>2021-02-28T07:27:17Z</time>
      </trkpt>
      <trkpt lat="45.13977" lon="6.33951">
        <ele>2499.4</ele>
        <time>2021-02-28T07:27:18Z</time>
      </trkpt>
      <trkpt lat="45.13977" lon="6.33951">
        <ele>2499.6</ele>
        <time>2021-02-28T07:27:19Z</time>
      </trkpt>
      <trkpt lat="45.13978" lon="6.33954">
        <ele>2500</ele>
        <time>2021-02-28T07:27:20Z</time>
      </trkpt>
      <trkpt lat="45.13978" lon="6.33954">
        <ele>2499.6</ele>
        <time>2021-02-28T07:27:21Z</time>
      </trkpt>
      <trkpt lat="45.13979" lon="6.33958">
        <ele>2499.8</ele>
        <time>2021-02-28T07:27:22Z</time>
      </trkpt>
      <trkpt lat="45.13979" lon="6.33958">
        <ele>2500</ele>
        <time>2021-02-28T07:27:23Z</time>
      </trkpt>
      <trkpt lat="45.1398" lon="6.33962">
        <ele>2500.2</ele>
        <time>2021-02-28T07:27:24Z</time>
      </trkpt>
      <trkpt lat="45.1398" lon="6.33962">
        <ele>2500.6</ele>
        <time>2021-02-28T07:27:25Z</time>
      </trkpt>
      <trkpt lat="45.1398" lon="6.33966">
        <ele>2500.8</ele>
        <time>2021-02-28T07:27:26Z</time>
      </trkpt>
      <trkpt lat="45.1398" lon="6.33966">
        <ele>2500.8</ele>
        <time>2021-02-28T07:27:27Z</time>
      </trkpt>
      <trkpt lat="45.1398" lon="6.33969">
        <ele>2499.6</ele>
        <time>2021-02-28T07:27:28Z</time>
      </trkpt>
      <trkpt lat="45.1398" lon="6.33969">
        <ele>2500.2</ele>
        <time>2021-02-28T07:27:29Z</time>
      </trkpt>
      <trkpt lat="45.1398" lon="6.33973">
        <ele>2501</ele>
        <time>2021-02-28T07:27:30Z</time>
      </trkpt>
      <trkpt lat="45.1398" lon="6.33973">
        <ele>2501.4</ele>
        <time>2021-02-28T07:27:31Z</time>
      </trkpt>
      <trkpt lat="45.13981" lon="6.33976">
        <ele>2501.2</ele>
        <time>2021-02-28T07:27:32Z</time>
      </trkpt>
      <trkpt lat="45.13981" lon="6.33976">
        <ele>2501.4</ele>
        <time>2021-02-28T07:27:33Z</time>
      </trkpt>
      <trkpt lat="45.13981" lon="6.33979">
        <ele>2502</ele>
        <time>2021-02-28T07:27:34Z</time>
      </trkpt>
      <trkpt lat="45.13981" lon="6.33979">
        <ele>2502.2</ele>
        <time>2021-02-28T07:27:35Z</time>
      </trkpt>
      <trkpt lat="45.13982" lon="6.33982">
        <ele>2501.8</ele>
        <time>2021-02-28T07:27:36Z</time>
      </trkpt>
      <trkpt lat="45.13982" lon="6.33982">
        <ele>2501.8</ele>
        <time>2021-02-28T07:27:37Z</time>
      </trkpt>
      <trkpt lat="45.13982" lon="6.33987">
        <ele>2501.8</ele>
        <time>2021-02-28T07:27:38Z</time>
      </trkpt>
      <trkpt lat="45.13981" lon="6.3399">
        <ele>2501.8</ele>
        <time>2021-02-28T07:27:39Z</time>
      </trkpt>
      <trkpt lat="45.13981" lon="6.3399">
        <ele>2502.2</ele>
        <time>2021-02-28T07:27:40Z</time>
      </trkpt>
      <trkpt lat="45.13981" lon="6.33994">
        <ele>2502.6</ele>
        <time>2021-02-28T07:27:41Z</time>
      </trkpt>
      <trkpt lat="45.13981" lon="6.33994">
        <ele>2502.4</ele>
        <time>2021-02-28T07:27:42Z</time>
      </trkpt>
      <trkpt lat="45.1398" lon="6.33997">
        <ele>2502.6</ele>
        <time>2021-02-28T07:27:43Z</time>
      </trkpt>
      <trkpt lat="45.1398" lon="6.33997">
        <ele>2503.4</ele>
        <time>2021-02-28T07:27:44Z</time>
      </trkpt>
      <trkpt lat="45.1398" lon="6.34001">
        <ele>2503.8</ele>
        <time>2021-02-28T07:27:45Z</time>
      </trkpt>
      <trkpt lat="45.1398" lon="6.34001">
        <ele>2503.8</ele>
        <time>2021-02-28T07:27:46Z</time>
      </trkpt>
      <trkpt lat="45.13981" lon="6.34005">
        <ele>2503.6</ele>
        <time>2021-02-28T07:27:47Z</time>
      </trkpt>
      <trkpt lat="45.13981" lon="6.34005">
        <ele>2503.8</ele>
        <time>2021-02-28T07:27:48Z</time>
      </trkpt>
      <trkpt lat="45.1398" lon="6.3401">
        <ele>2504.4</ele>
        <time>2021-02-28T07:27:49Z</time>
      </trkpt>
      <trkpt lat="45.1398" lon="6.3401">
        <ele>2504</ele>
        <time>2021-02-28T07:27:50Z</time>
      </trkpt>
      <trkpt lat="45.13981" lon="6.34013">
        <ele>2503.8</ele>
        <time>2021-02-28T07:27:51Z</time>
      </trkpt>
      <trkpt lat="45.13981" lon="6.34013">
        <ele>2504</ele>
        <time>2021-02-28T07:27:52Z</time>
      </trkpt>
      <trkpt lat="45.13981" lon="6.34018">
        <ele>2504.8</ele>
        <time>2021-02-28T07:27:53Z</time>
      </trkpt>
      <trkpt lat="45.13981" lon="6.34018">
        <ele>2504.6</ele>
        <time>2021-02-28T07:27:54Z</time>
      </trkpt>
      <trkpt lat="45.13982" lon="6.34022">
        <ele>2505</ele>
        <time>2021-02-28T07:27:55Z</time>
      </trkpt>
      <trkpt lat="45.13982" lon="6.34022">
        <ele>2504.4</ele>
        <time>2021-02-28T07:27:56Z</time>
      </trkpt>
      <trkpt lat="45.13982" lon="6.34025">
        <ele>2504.8</ele>
        <time>2021-02-28T07:27:57Z</time>
      </trkpt>
      <trkpt lat="45.13982" lon="6.34025">
        <ele>2505.2</ele>
        <time>2021-02-28T07:27:58Z</time>
      </trkpt>
      <trkpt lat="45.13982" lon="6.34028">
        <ele>2505.2</ele>
        <time>2021-02-28T07:27:59Z</time>
      </trkpt>
      <trkpt lat="45.13982" lon="6.34028">
        <ele>2505.2</ele>
        <time>2021-02-28T07:28:00Z</time>
      </trkpt>
      <trkpt lat="45.13982" lon="6.34031">
        <ele>2505.4</ele>
        <time>2021-02-28T07:28:01Z</time>
      </trkpt>
      <trkpt lat="45.13982" lon="6.34031">
        <ele>2505.8</ele>
        <time>2021-02-28T07:28:02Z</time>
      </trkpt>
      <trkpt lat="45.13982" lon="6.34035">
        <ele>2505.6</ele>
        <time>2021-02-28T07:28:03Z</time>
      </trkpt>
      <trkpt lat="45.13982" lon="6.34035">
        <ele>2505.8</ele>
        <time>2021-02-28T07:28:04Z</time>
      </trkpt>
      <trkpt lat="45.13982" lon="6.34038">
        <ele>2505.8</ele>
        <time>2021-02-28T07:28:05Z</time>
      </trkpt>
      <trkpt lat="45.13982" lon="6.34038">
        <ele>2506</ele>
        <time>2021-02-28T07:28:06Z</time>
      </trkpt>
      <trkpt lat="45.13983" lon="6.34042">
        <ele>2506.6</ele>
        <time>2021-02-28T07:28:07Z</time>
      </trkpt>
      <trkpt lat="45.13983" lon="6.34042">
        <ele>2507.2</ele>
        <time>2021-02-28T07:28:08Z</time>
      </trkpt>
      <trkpt lat="45.13983" lon="6.34046">
        <ele>2507</ele>
        <time>2021-02-28T07:28:09Z</time>
      </trkpt>
      <trkpt lat="45.13983" lon="6.34046">
        <ele>2506.8</ele>
        <time>2021-02-28T07:28:10Z</time>
      </trkpt>
      <trkpt lat="45.13983" lon="6.34049">
        <ele>2507</ele>
        <time>2021-02-28T07:28:11Z</time>
      </trkpt>
      <trkpt lat="45.13983" lon="6.34049">
        <ele>2507.4</ele>
        <time>2021-02-28T07:28:12Z</time>
      </trkpt>
      <trkpt lat="45.13983" lon="6.34052">
        <ele>2508.2</ele>
        <time>2021-02-28T07:28:13Z</time>
      </trkpt>
      <trkpt lat="45.13983" lon="6.34052">
        <ele>2508.4</ele>
        <time>2021-02-28T07:28:14Z</time>
      </trkpt>
      <trkpt lat="45.13984" lon="6.34056">
        <ele>2508.2</ele>
        <time>2021-02-28T07:28:15Z</time>
      </trkpt>
      <trkpt lat="45.13984" lon="6.34056">
        <ele>2508.2</ele>
        <time>2021-02-28T07:28:16Z</time>
      </trkpt>
      <trkpt lat="45.13983" lon="6.34061">
        <ele>2508.8</ele>
        <time>2021-02-28T07:28:17Z</time>
      </trkpt>
      <trkpt lat="45.13983" lon="6.34061">
        <ele>2509</ele>
        <time>2021-02-28T07:28:18Z</time>
      </trkpt>
      <trkpt lat="45.13983" lon="6.34065">
        <ele>2509.4</ele>
        <time>2021-02-28T07:28:19Z</time>
      </trkpt>
      <trkpt lat="45.13983" lon="6.34065">
        <ele>2508.8</ele>
        <time>2021-02-28T07:28:20Z</time>
      </trkpt>
      <trkpt lat="45.13983" lon="6.34069">
        <ele>2509.2</ele>
        <time>2021-02-28T07:28:21Z</time>
      </trkpt>
      <trkpt lat="45.13983" lon="6.34069">
        <ele>2509.8</ele>
        <time>2021-02-28T07:28:22Z</time>
      </trkpt>
      <trkpt lat="45.13983" lon="6.34073">
        <ele>2509.8</ele>
        <time>2021-02-28T07:28:23Z</time>
      </trkpt>
      <trkpt lat="45.13983" lon="6.34073">
        <ele>2509.8</ele>
        <time>2021-02-28T07:28:24Z</time>
      </trkpt>
      <trkpt lat="45.13983" lon="6.34076">
        <ele>2509.6</ele>
        <time>2021-02-28T07:28:25Z</time>
      </trkpt>
      <trkpt lat="45.13983" lon="6.34076">
        <ele>2510</ele>
        <time>2021-02-28T07:28:26Z</time>
      </trkpt>
      <trkpt lat="45.13982" lon="6.3408">
        <ele>2510</ele>
        <time>2021-02-28T07:28:27Z</time>
      </trkpt>
      <trkpt lat="45.13982" lon="6.3408">
        <ele>2510.4</ele>
        <time>2021-02-28T07:28:28Z</time>
      </trkpt>
      <trkpt lat="45.13982" lon="6.34083">
        <ele>2510</ele>
        <time>2021-02-28T07:28:29Z</time>
      </trkpt>
      <trkpt lat="45.13982" lon="6.34083">
        <ele>2510.8</ele>
        <time>2021-02-28T07:28:30Z</time>
      </trkpt>
      <trkpt lat="45.13982" lon="6.34087">
        <ele>2511.6</ele>
        <time>2021-02-28T07:28:31Z</time>
      </trkpt>
      <trkpt lat="45.13982" lon="6.34087">
        <ele>2511.8</ele>
        <time>2021-02-28T07:28:32Z</time>
      </trkpt>
      <trkpt lat="45.13982" lon="6.3409">
        <ele>2511.6</ele>
        <time>2021-02-28T07:28:33Z</time>
      </trkpt>
      <trkpt lat="45.13982" lon="6.3409">
        <ele>2511.6</ele>
        <time>2021-02-28T07:28:34Z</time>
      </trkpt>
      <trkpt lat="45.13983" lon="6.34092">
        <ele>2512.2</ele>
        <time>2021-02-28T07:28:35Z</time>
      </trkpt>
      <trkpt lat="45.13983" lon="6.34092">
        <ele>2512.2</ele>
        <time>2021-02-28T07:28:36Z</time>
      </trkpt>
      <trkpt lat="45.13984" lon="6.34095">
        <ele>2510.8</ele>
        <time>2021-02-28T07:28:37Z</time>
      </trkpt>
      <trkpt lat="45.13984" lon="6.34095">
        <ele>2511.2</ele>
        <time>2021-02-28T07:28:38Z</time>
      </trkpt>
      <trkpt lat="45.13984" lon="6.34098">
        <ele>2511.8</ele>
        <time>2021-02-28T07:28:39Z</time>
      </trkpt>
      <trkpt lat="45.13984" lon="6.34098">
        <ele>2512</ele>
        <time>2021-02-28T07:28:40Z</time>
      </trkpt>
      <trkpt lat="45.13984" lon="6.34101">
        <ele>2512</ele>
        <time>2021-02-28T07:28:41Z</time>
      </trkpt>
      <trkpt lat="45.13984" lon="6.34101">
        <ele>2511.6</ele>
        <time>2021-02-28T07:28:42Z</time>
      </trkpt>
      <trkpt lat="45.13984" lon="6.34104">
        <ele>2512.6</ele>
        <time>2021-02-28T07:28:43Z</time>
      </trkpt>
      <trkpt lat="45.13984" lon="6.34104">
        <ele>2513.4</ele>
        <time>2021-02-28T07:28:44Z</time>
      </trkpt>
      <trkpt lat="45.13983" lon="6.34107">
        <ele>2514</ele>
        <time>2021-02-28T07:28:45Z</time>
      </trkpt>
      <trkpt lat="45.13983" lon="6.34107">
        <ele>2514.2</ele>
        <time>2021-02-28T07:28:46Z</time>
      </trkpt>
      <trkpt lat="45.13983" lon="6.3411">
        <ele>2514.4</ele>
        <time>2021-02-28T07:28:47Z</time>
      </trkpt>
      <trkpt lat="45.13983" lon="6.3411">
        <ele>2514.8</ele>
        <time>2021-02-28T07:28:48Z</time>
      </trkpt>
      <trkpt lat="45.13983" lon="6.34114">
        <ele>2514.4</ele>
        <time>2021-02-28T07:28:49Z</time>
      </trkpt>
      <trkpt lat="45.13983" lon="6.34116">
        <ele>2515.2</ele>
        <time>2021-02-28T07:28:50Z</time>
      </trkpt>
      <trkpt lat="45.13982" lon="6.34119">
        <ele>2515</ele>
        <time>2021-02-28T07:28:51Z</time>
      </trkpt>
      <trkpt lat="45.13982" lon="6.34119">
        <ele>2514.4</ele>
        <time>2021-02-28T07:28:52Z</time>
      </trkpt>
      <trkpt lat="45.13982" lon="6.34123">
        <ele>2514.6</ele>
        <time>2021-02-28T07:28:53Z</time>
      </trkpt>
      <trkpt lat="45.13982" lon="6.34123">
        <ele>2514.4</ele>
        <time>2021-02-28T07:28:54Z</time>
      </trkpt>
      <trkpt lat="45.13981" lon="6.34126">
        <ele>2514.4</ele>
        <time>2021-02-28T07:28:55Z</time>
      </trkpt>
      <trkpt lat="45.13981" lon="6.34126">
        <ele>2513.6</ele>
        <time>2021-02-28T07:28:56Z</time>
      </trkpt>
      <trkpt lat="45.13981" lon="6.3413">
        <ele>2514</ele>
        <time>2021-02-28T07:28:57Z</time>
      </trkpt>
      <trkpt lat="45.13981" lon="6.3413">
        <ele>2512.8</ele>
        <time>2021-02-28T07:28:58Z</time>
      </trkpt>
      <trkpt lat="45.13981" lon="6.34133">
        <ele>2513</ele>
        <time>2021-02-28T07:28:59Z</time>
      </trkpt>
      <trkpt lat="45.13981" lon="6.34133">
        <ele>2513.8</ele>
        <time>2021-02-28T07:29:00Z</time>
      </trkpt>
      <trkpt lat="45.13981" lon="6.34137">
        <ele>2514.4</ele>
        <time>2021-02-28T07:29:01Z</time>
      </trkpt>
      <trkpt lat="45.13981" lon="6.34137">
        <ele>2514.4</ele>
        <time>2021-02-28T07:29:02Z</time>
      </trkpt>
      <trkpt lat="45.13981" lon="6.34141">
        <ele>2514.6</ele>
        <time>2021-02-28T07:29:03Z</time>
      </trkpt>
      <trkpt lat="45.13981" lon="6.34141">
        <ele>2514</ele>
        <time>2021-02-28T07:29:04Z</time>
      </trkpt>
      <trkpt lat="45.13981" lon="6.34145">
        <ele>2513.4</ele>
        <time>2021-02-28T07:29:05Z</time>
      </trkpt>
      <trkpt lat="45.13981" lon="6.34145">
        <ele>2513.4</ele>
        <time>2021-02-28T07:29:06Z</time>
      </trkpt>
      <trkpt lat="45.1398" lon="6.34149">
        <ele>2514.2</ele>
        <time>2021-02-28T07:29:07Z</time>
      </trkpt>
      <trkpt lat="45.13979" lon="6.34152">
        <ele>2512.4</ele>
        <time>2021-02-28T07:29:08Z</time>
      </trkpt>
      <trkpt lat="45.13979" lon="6.34152">
        <ele>2513.2</ele>
        <time>2021-02-28T07:29:09Z</time>
      </trkpt>
      <trkpt lat="45.13978" lon="6.34156">
        <ele>2513.2</ele>
        <time>2021-02-28T07:29:10Z</time>
      </trkpt>
      <trkpt lat="45.13978" lon="6.34156">
        <ele>2513.8</ele>
        <time>2021-02-28T07:29:11Z</time>
      </trkpt>
      <trkpt lat="45.13978" lon="6.3416">
        <ele>2514.4</ele>
        <time>2021-02-28T07:29:12Z</time>
      </trkpt>
      <trkpt lat="45.13978" lon="6.3416">
        <ele>2513.8</ele>
        <time>2021-02-28T07:29:13Z</time>
      </trkpt>
      <trkpt lat="45.13978" lon="6.34163">
        <ele>2513.6</ele>
        <time>2021-02-28T07:29:14Z</time>
      </trkpt>
      <trkpt lat="45.13978" lon="6.34163">
        <ele>2513.6</ele>
        <time>2021-02-28T07:29:15Z</time>
      </trkpt>
      <trkpt lat="45.13977" lon="6.34167">
        <ele>2513.6</ele>
        <time>2021-02-28T07:29:16Z</time>
      </trkpt>
      <trkpt lat="45.13977" lon="6.34167">
        <ele>2513.4</ele>
        <time>2021-02-28T07:29:17Z</time>
      </trkpt>
      <trkpt lat="45.13977" lon="6.3417">
        <ele>2514.2</ele>
        <time>2021-02-28T07:29:18Z</time>
      </trkpt>
      <trkpt lat="45.13977" lon="6.3417">
        <ele>2514.2</ele>
        <time>2021-02-28T07:29:19Z</time>
      </trkpt>
      <trkpt lat="45.13977" lon="6.3417">
        <ele>2514.4</ele>
        <time>2021-02-28T07:29:20Z</time>
      </trkpt>
      <trkpt lat="45.13977" lon="6.34174">
        <ele>2514.4</ele>
        <time>2021-02-28T07:29:21Z</time>
      </trkpt>
      <trkpt lat="45.13977" lon="6.34174">
        <ele>2514.4</ele>
        <time>2021-02-28T07:29:22Z</time>
      </trkpt>
      <trkpt lat="45.13977" lon="6.34174">
        <ele>2514.8</ele>
        <time>2021-02-28T07:29:23Z</time>
      </trkpt>
      <trkpt lat="45.13977" lon="6.34177">
        <ele>2514.8</ele>
        <time>2021-02-28T07:29:24Z</time>
      </trkpt>
      <trkpt lat="45.13977" lon="6.34177">
        <ele>2515.4</ele>
        <time>2021-02-28T07:29:25Z</time>
      </trkpt>
      <trkpt lat="45.13978" lon="6.3418">
        <ele>2515.6</ele>
        <time>2021-02-28T07:29:26Z</time>
      </trkpt>
      <trkpt lat="45.13978" lon="6.3418">
        <ele>2515.4</ele>
        <time>2021-02-28T07:29:27Z</time>
      </trkpt>
      <trkpt lat="45.13978" lon="6.34184">
        <ele>2515.4</ele>
        <time>2021-02-28T07:29:28Z</time>
      </trkpt>
      <trkpt lat="45.13978" lon="6.34184">
        <ele>2516.2</ele>
        <time>2021-02-28T07:29:29Z</time>
      </trkpt>
      <trkpt lat="45.13978" lon="6.34187">
        <ele>2516</ele>
        <time>2021-02-28T07:29:30Z</time>
      </trkpt>
      <trkpt lat="45.13978" lon="6.34187">
        <ele>2516</ele>
        <time>2021-02-28T07:29:31Z</time>
      </trkpt>
      <trkpt lat="45.13978" lon="6.34187">
        <ele>2515.8</ele>
        <time>2021-02-28T07:29:32Z</time>
      </trkpt>
      <trkpt lat="45.13978" lon="6.34192">
        <ele>2516.6</ele>
        <time>2021-02-28T07:29:33Z</time>
      </trkpt>
      <trkpt lat="45.13978" lon="6.34192">
        <ele>2517.2</ele>
        <time>2021-02-28T07:29:34Z</time>
      </trkpt>
      <trkpt lat="45.13978" lon="6.34192">
        <ele>2517</ele>
        <time>2021-02-28T07:29:35Z</time>
      </trkpt>
      <trkpt lat="45.13978" lon="6.34196">
        <ele>2517.2</ele>
        <time>2021-02-28T07:29:36Z</time>
      </trkpt>
      <trkpt lat="45.13978" lon="6.34196">
        <ele>2517.4</ele>
        <time>2021-02-28T07:29:37Z</time>
      </trkpt>
      <trkpt lat="45.13978" lon="6.34199">
        <ele>2518.4</ele>
        <time>2021-02-28T07:29:38Z</time>
      </trkpt>
      <trkpt lat="45.13978" lon="6.34199">
        <ele>2518.2</ele>
        <time>2021-02-28T07:29:39Z</time>
      </trkpt>
      <trkpt lat="45.13977" lon="6.34202">
        <ele>2519</ele>
        <time>2021-02-28T07:29:40Z</time>
      </trkpt>
      <trkpt lat="45.13977" lon="6.34202">
        <ele>2518.6</ele>
        <time>2021-02-28T07:29:41Z</time>
      </trkpt>
      <trkpt lat="45.13977" lon="6.34205">
        <ele>2518.6</ele>
        <time>2021-02-28T07:29:42Z</time>
      </trkpt>
      <trkpt lat="45.13977" lon="6.34205">
        <ele>2519.2</ele>
        <time>2021-02-28T07:29:43Z</time>
      </trkpt>
      <trkpt lat="45.13977" lon="6.34208">
        <ele>2519</ele>
        <time>2021-02-28T07:29:44Z</time>
      </trkpt>
      <trkpt lat="45.13977" lon="6.34208">
        <ele>2519.2</ele>
        <time>2021-02-28T07:29:45Z</time>
      </trkpt>
      <trkpt lat="45.13976" lon="6.34212">
        <ele>2519.6</ele>
        <time>2021-02-28T07:29:46Z</time>
      </trkpt>
      <trkpt lat="45.13975" lon="6.34214">
        <ele>2520</ele>
        <time>2021-02-28T07:29:47Z</time>
      </trkpt>
      <trkpt lat="45.13974" lon="6.34217">
        <ele>2520.6</ele>
        <time>2021-02-28T07:29:48Z</time>
      </trkpt>
      <trkpt lat="45.13974" lon="6.34217">
        <ele>2521</ele>
        <time>2021-02-28T07:29:49Z</time>
      </trkpt>
      <trkpt lat="45.13973" lon="6.34221">
        <ele>2520.8</ele>
        <time>2021-02-28T07:29:50Z</time>
      </trkpt>
      <trkpt lat="45.13973" lon="6.34221">
        <ele>2521</ele>
        <time>2021-02-28T07:29:51Z</time>
      </trkpt>
      <trkpt lat="45.13973" lon="6.34224">
        <ele>2521.8</ele>
        <time>2021-02-28T07:29:52Z</time>
      </trkpt>
      <trkpt lat="45.13973" lon="6.34224">
        <ele>2522.8</ele>
        <time>2021-02-28T07:29:53Z</time>
      </trkpt>
      <trkpt lat="45.13973" lon="6.34227">
        <ele>2522.6</ele>
        <time>2021-02-28T07:29:54Z</time>
      </trkpt>
      <trkpt lat="45.13973" lon="6.34227">
        <ele>2522.6</ele>
        <time>2021-02-28T07:29:55Z</time>
      </trkpt>
      <trkpt lat="45.13973" lon="6.34231">
        <ele>2522.6</ele>
        <time>2021-02-28T07:29:56Z</time>
      </trkpt>
      <trkpt lat="45.13973" lon="6.34231">
        <ele>2523.2</ele>
        <time>2021-02-28T07:29:57Z</time>
      </trkpt>
      <trkpt lat="45.13972" lon="6.34234">
        <ele>2523.8</ele>
        <time>2021-02-28T07:29:58Z</time>
      </trkpt>
      <trkpt lat="45.13972" lon="6.34234">
        <ele>2523</ele>
        <time>2021-02-28T07:29:59Z</time>
      </trkpt>
      <trkpt lat="45.13972" lon="6.34238">
        <ele>2523.8</ele>
        <time>2021-02-28T07:30:00Z</time>
      </trkpt>
      <trkpt lat="45.13972" lon="6.34238">
        <ele>2524</ele>
        <time>2021-02-28T07:30:01Z</time>
      </trkpt>
      <trkpt lat="45.13972" lon="6.34238">
        <ele>2523.2</ele>
        <time>2021-02-28T07:30:02Z</time>
      </trkpt>
      <trkpt lat="45.13972" lon="6.34242">
        <ele>2523.4</ele>
        <time>2021-02-28T07:30:03Z</time>
      </trkpt>
      <trkpt lat="45.13972" lon="6.34242">
        <ele>2523.8</ele>
        <time>2021-02-28T07:30:04Z</time>
      </trkpt>
      <trkpt lat="45.13972" lon="6.34246">
        <ele>2522</ele>
        <time>2021-02-28T07:30:05Z</time>
      </trkpt>
      <trkpt lat="45.13972" lon="6.34246">
        <ele>2522</ele>
        <time>2021-02-28T07:30:06Z</time>
      </trkpt>
      <trkpt lat="45.13972" lon="6.34249">
        <ele>2522.8</ele>
        <time>2021-02-28T07:30:07Z</time>
      </trkpt>
      <trkpt lat="45.13972" lon="6.34249">
        <ele>2523.6</ele>
        <time>2021-02-28T07:30:08Z</time>
      </trkpt>
      <trkpt lat="45.13971" lon="6.34253">
        <ele>2524.8</ele>
        <time>2021-02-28T07:30:09Z</time>
      </trkpt>
      <trkpt lat="45.13971" lon="6.34253">
        <ele>2524.4</ele>
        <time>2021-02-28T07:30:10Z</time>
      </trkpt>
      <trkpt lat="45.13971" lon="6.34256">
        <ele>2524.4</ele>
        <time>2021-02-28T07:30:11Z</time>
      </trkpt>
      <trkpt lat="45.13971" lon="6.34256">
        <ele>2524.8</ele>
        <time>2021-02-28T07:30:12Z</time>
      </trkpt>
      <trkpt lat="45.13971" lon="6.34259">
        <ele>2525.6</ele>
        <time>2021-02-28T07:30:13Z</time>
      </trkpt>
      <trkpt lat="45.13971" lon="6.34259">
        <ele>2524.6</ele>
        <time>2021-02-28T07:30:14Z</time>
      </trkpt>
      <trkpt lat="45.1397" lon="6.34264">
        <ele>2524.6</ele>
        <time>2021-02-28T07:30:15Z</time>
      </trkpt>
      <trkpt lat="45.1397" lon="6.34264">
        <ele>2524</ele>
        <time>2021-02-28T07:30:16Z</time>
      </trkpt>
      <trkpt lat="45.13969" lon="6.34268">
        <ele>2522</ele>
        <time>2021-02-28T07:30:17Z</time>
      </trkpt>
      <trkpt lat="45.13969" lon="6.34268">
        <ele>2521.2</ele>
        <time>2021-02-28T07:30:18Z</time>
      </trkpt>
      <trkpt lat="45.13968" lon="6.34272">
        <ele>2521.6</ele>
        <time>2021-02-28T07:30:19Z</time>
      </trkpt>
      <trkpt lat="45.13968" lon="6.34275">
        <ele>2522.6</ele>
        <time>2021-02-28T07:30:20Z</time>
      </trkpt>
      <trkpt lat="45.13968" lon="6.34275">
        <ele>2522</ele>
        <time>2021-02-28T07:30:21Z</time>
      </trkpt>
      <trkpt lat="45.13967" lon="6.3428">
        <ele>2521.8</ele>
        <time>2021-02-28T07:30:22Z</time>
      </trkpt>
      <trkpt lat="45.13967" lon="6.3428">
        <ele>2522</ele>
        <time>2021-02-28T07:30:23Z</time>
      </trkpt>
      <trkpt lat="45.13968" lon="6.34284">
        <ele>2522</ele>
        <time>2021-02-28T07:30:24Z</time>
      </trkpt>
      <trkpt lat="45.13968" lon="6.34284">
        <ele>2520.8</ele>
        <time>2021-02-28T07:30:25Z</time>
      </trkpt>
      <trkpt lat="45.13968" lon="6.34288">
        <ele>2520.4</ele>
        <time>2021-02-28T07:30:26Z</time>
      </trkpt>
      <trkpt lat="45.13968" lon="6.34288">
        <ele>2520.4</ele>
        <time>2021-02-28T07:30:27Z</time>
      </trkpt>
      <trkpt lat="45.13969" lon="6.34292">
        <ele>2520.2</ele>
        <time>2021-02-28T07:30:28Z</time>
      </trkpt>
      <trkpt lat="45.13969" lon="6.34292">
        <ele>2520</ele>
        <time>2021-02-28T07:30:29Z</time>
      </trkpt>
      <trkpt lat="45.13969" lon="6.34296">
        <ele>2520.2</ele>
        <time>2021-02-28T07:30:30Z</time>
      </trkpt>
      <trkpt lat="45.13969" lon="6.34296">
        <ele>2520.4</ele>
        <time>2021-02-28T07:30:31Z</time>
      </trkpt>
      <trkpt lat="45.1397" lon="6.34298">
        <ele>2520</ele>
        <time>2021-02-28T07:30:32Z</time>
      </trkpt>
      <trkpt lat="45.1397" lon="6.34298">
        <ele>2520.8</ele>
        <time>2021-02-28T07:30:33Z</time>
      </trkpt>
      <trkpt lat="45.1397" lon="6.34302">
        <ele>2521.4</ele>
        <time>2021-02-28T07:30:34Z</time>
      </trkpt>
      <trkpt lat="45.1397" lon="6.34302">
        <ele>2522.2</ele>
        <time>2021-02-28T07:30:35Z</time>
      </trkpt>
      <trkpt lat="45.13971" lon="6.34305">
        <ele>2521.6</ele>
        <time>2021-02-28T07:30:36Z</time>
      </trkpt>
      <trkpt lat="45.13971" lon="6.34305">
        <ele>2522</ele>
        <time>2021-02-28T07:30:37Z</time>
      </trkpt>
      <trkpt lat="45.13971" lon="6.34309">
        <ele>2522.4</ele>
        <time>2021-02-28T07:30:38Z</time>
      </trkpt>
      <trkpt lat="45.13971" lon="6.34309">
        <ele>2522.8</ele>
        <time>2021-02-28T07:30:39Z</time>
      </trkpt>
      <trkpt lat="45.13971" lon="6.34309">
        <ele>2522.8</ele>
        <time>2021-02-28T07:30:40Z</time>
      </trkpt>
      <trkpt lat="45.13973" lon="6.34314">
        <ele>2523</ele>
        <time>2021-02-28T07:30:41Z</time>
      </trkpt>
      <trkpt lat="45.13973" lon="6.34314">
        <ele>2523.6</ele>
        <time>2021-02-28T07:30:42Z</time>
      </trkpt>
      <trkpt lat="45.13973" lon="6.34317">
        <ele>2523.8</ele>
        <time>2021-02-28T07:30:43Z</time>
      </trkpt>
      <trkpt lat="45.13973" lon="6.34317">
        <ele>2524</ele>
        <time>2021-02-28T07:30:44Z</time>
      </trkpt>
      <trkpt lat="45.13974" lon="6.3432">
        <ele>2524.2</ele>
        <time>2021-02-28T07:30:45Z</time>
      </trkpt>
      <trkpt lat="45.13974" lon="6.3432">
        <ele>2524.4</ele>
        <time>2021-02-28T07:30:46Z</time>
      </trkpt>
      <trkpt lat="45.13974" lon="6.34323">
        <ele>2524.6</ele>
        <time>2021-02-28T07:30:47Z</time>
      </trkpt>
      <trkpt lat="45.13974" lon="6.34323">
        <ele>2524.6</ele>
        <time>2021-02-28T07:30:48Z</time>
      </trkpt>
      <trkpt lat="45.13974" lon="6.34326">
        <ele>2524.4</ele>
        <time>2021-02-28T07:30:49Z</time>
      </trkpt>
      <trkpt lat="45.13974" lon="6.34326">
        <ele>2524.2</ele>
        <time>2021-02-28T07:30:50Z</time>
      </trkpt>
      <trkpt lat="45.13975" lon="6.34329">
        <ele>2524.4</ele>
        <time>2021-02-28T07:30:51Z</time>
      </trkpt>
      <trkpt lat="45.13975" lon="6.34329">
        <ele>2524.6</ele>
        <time>2021-02-28T07:30:52Z</time>
      </trkpt>
      <trkpt lat="45.13975" lon="6.34333">
        <ele>2524.8</ele>
        <time>2021-02-28T07:30:53Z</time>
      </trkpt>
      <trkpt lat="45.13975" lon="6.34333">
        <ele>2524.8</ele>
        <time>2021-02-28T07:30:54Z</time>
      </trkpt>
      <trkpt lat="45.13976" lon="6.34335">
        <ele>2524.8</ele>
        <time>2021-02-28T07:30:55Z</time>
      </trkpt>
      <trkpt lat="45.13976" lon="6.34335">
        <ele>2524.6</ele>
        <time>2021-02-28T07:30:56Z</time>
      </trkpt>
      <trkpt lat="45.13976" lon="6.34338">
        <ele>2525.2</ele>
        <time>2021-02-28T07:30:57Z</time>
      </trkpt>
      <trkpt lat="45.13976" lon="6.34338">
        <ele>2525.2</ele>
        <time>2021-02-28T07:30:58Z</time>
      </trkpt>
      <trkpt lat="45.13977" lon="6.34342">
        <ele>2525.6</ele>
        <time>2021-02-28T07:30:59Z</time>
      </trkpt>
      <trkpt lat="45.13977" lon="6.34342">
        <ele>2525.6</ele>
        <time>2021-02-28T07:31:00Z</time>
      </trkpt>
      <trkpt lat="45.13977" lon="6.34345">
        <ele>2525.6</ele>
        <time>2021-02-28T07:31:01Z</time>
      </trkpt>
      <trkpt lat="45.13977" lon="6.34345">
        <ele>2524.8</ele>
        <time>2021-02-28T07:31:02Z</time>
      </trkpt>
      <trkpt lat="45.13978" lon="6.34348">
        <ele>2524.8</ele>
        <time>2021-02-28T07:31:03Z</time>
      </trkpt>
      <trkpt lat="45.13978" lon="6.34348">
        <ele>2524.6</ele>
        <time>2021-02-28T07:31:04Z</time>
      </trkpt>
      <trkpt lat="45.13978" lon="6.34352">
        <ele>2524.8</ele>
        <time>2021-02-28T07:31:05Z</time>
      </trkpt>
      <trkpt lat="45.13978" lon="6.34352">
        <ele>2524.6</ele>
        <time>2021-02-28T07:31:06Z</time>
      </trkpt>
      <trkpt lat="45.13978" lon="6.34356">
        <ele>2524.6</ele>
        <time>2021-02-28T07:31:07Z</time>
      </trkpt>
      <trkpt lat="45.13978" lon="6.34356">
        <ele>2525</ele>
        <time>2021-02-28T07:31:08Z</time>
      </trkpt>
      <trkpt lat="45.13979" lon="6.34359">
        <ele>2525.8</ele>
        <time>2021-02-28T07:31:09Z</time>
      </trkpt>
      <trkpt lat="45.13979" lon="6.34359">
        <ele>2526.6</ele>
        <time>2021-02-28T07:31:10Z</time>
      </trkpt>
      <trkpt lat="45.13979" lon="6.34363">
        <ele>2527.2</ele>
        <time>2021-02-28T07:31:11Z</time>
      </trkpt>
      <trkpt lat="45.13979" lon="6.34363">
        <ele>2527.6</ele>
        <time>2021-02-28T07:31:12Z</time>
      </trkpt>
      <trkpt lat="45.1398" lon="6.34367">
        <ele>2527.8</ele>
        <time>2021-02-28T07:31:13Z</time>
      </trkpt>
      <trkpt lat="45.1398" lon="6.34367">
        <ele>2527.8</ele>
        <time>2021-02-28T07:31:14Z</time>
      </trkpt>
      <trkpt lat="45.1398" lon="6.34371">
        <ele>2528</ele>
        <time>2021-02-28T07:31:15Z</time>
      </trkpt>
      <trkpt lat="45.1398" lon="6.34371">
        <ele>2528</ele>
        <time>2021-02-28T07:31:16Z</time>
      </trkpt>
      <trkpt lat="45.13981" lon="6.34375">
        <ele>2528.2</ele>
        <time>2021-02-28T07:31:17Z</time>
      </trkpt>
      <trkpt lat="45.13981" lon="6.34375">
        <ele>2527.8</ele>
        <time>2021-02-28T07:31:18Z</time>
      </trkpt>
      <trkpt lat="45.13982" lon="6.34378">
        <ele>2527.2</ele>
        <time>2021-02-28T07:31:19Z</time>
      </trkpt>
      <trkpt lat="45.13982" lon="6.34378">
        <ele>2527.6</ele>
        <time>2021-02-28T07:31:20Z</time>
      </trkpt>
      <trkpt lat="45.13982" lon="6.34383">
        <ele>2528.4</ele>
        <time>2021-02-28T07:31:21Z</time>
      </trkpt>
      <trkpt lat="45.13982" lon="6.34383">
        <ele>2528.4</ele>
        <time>2021-02-28T07:31:22Z</time>
      </trkpt>
      <trkpt lat="45.13981" lon="6.34386">
        <ele>2529</ele>
        <time>2021-02-28T07:31:23Z</time>
      </trkpt>
      <trkpt lat="45.13981" lon="6.34386">
        <ele>2529.4</ele>
        <time>2021-02-28T07:31:24Z</time>
      </trkpt>
      <trkpt lat="45.13981" lon="6.3439">
        <ele>2529.4</ele>
        <time>2021-02-28T07:31:25Z</time>
      </trkpt>
      <trkpt lat="45.13981" lon="6.3439">
        <ele>2530</ele>
        <time>2021-02-28T07:31:26Z</time>
      </trkpt>
      <trkpt lat="45.13981" lon="6.34393">
        <ele>2530.6</ele>
        <time>2021-02-28T07:31:27Z</time>
      </trkpt>
      <trkpt lat="45.13981" lon="6.34393">
        <ele>2530</ele>
        <time>2021-02-28T07:31:28Z</time>
      </trkpt>
      <trkpt lat="45.13981" lon="6.34397">
        <ele>2530.4</ele>
        <time>2021-02-28T07:31:29Z</time>
      </trkpt>
      <trkpt lat="45.13981" lon="6.34397">
        <ele>2531</ele>
        <time>2021-02-28T07:31:30Z</time>
      </trkpt>
      <trkpt lat="45.13981" lon="6.344">
        <ele>2530.8</ele>
        <time>2021-02-28T07:31:31Z</time>
      </trkpt>
      <trkpt lat="45.13981" lon="6.344">
        <ele>2530.6</ele>
        <time>2021-02-28T07:31:32Z</time>
      </trkpt>
      <trkpt lat="45.1398" lon="6.34404">
        <ele>2530.6</ele>
        <time>2021-02-28T07:31:33Z</time>
      </trkpt>
      <trkpt lat="45.1398" lon="6.34404">
        <ele>2531</ele>
        <time>2021-02-28T07:31:34Z</time>
      </trkpt>
      <trkpt lat="45.1398" lon="6.34408">
        <ele>2529</ele>
        <time>2021-02-28T07:31:35Z</time>
      </trkpt>
      <trkpt lat="45.1398" lon="6.34408">
        <ele>2529</ele>
        <time>2021-02-28T07:31:36Z</time>
      </trkpt>
      <trkpt lat="45.13979" lon="6.34411">
        <ele>2529.8</ele>
        <time>2021-02-28T07:31:37Z</time>
      </trkpt>
      <trkpt lat="45.13979" lon="6.34411">
        <ele>2529.8</ele>
        <time>2021-02-28T07:31:38Z</time>
      </trkpt>
      <trkpt lat="45.13978" lon="6.34415">
        <ele>2529.6</ele>
        <time>2021-02-28T07:31:39Z</time>
      </trkpt>
      <trkpt lat="45.13978" lon="6.34415">
        <ele>2529.8</ele>
        <time>2021-02-28T07:31:40Z</time>
      </trkpt>
      <trkpt lat="45.13978" lon="6.34418">
        <ele>2529.6</ele>
        <time>2021-02-28T07:31:41Z</time>
      </trkpt>
      <trkpt lat="45.13978" lon="6.34418">
        <ele>2530.4</ele>
        <time>2021-02-28T07:31:42Z</time>
      </trkpt>
      <trkpt lat="45.13977" lon="6.34423">
        <ele>2530.8</ele>
        <time>2021-02-28T07:31:43Z</time>
      </trkpt>
      <trkpt lat="45.13977" lon="6.34423">
        <ele>2531.4</ele>
        <time>2021-02-28T07:31:44Z</time>
      </trkpt>
      <trkpt lat="45.13977" lon="6.34426">
        <ele>2531.2</ele>
        <time>2021-02-28T07:31:45Z</time>
      </trkpt>
      <trkpt lat="45.13977" lon="6.34426">
        <ele>2531</ele>
        <time>2021-02-28T07:31:46Z</time>
      </trkpt>
      <trkpt lat="45.13976" lon="6.34429">
        <ele>2531.6</ele>
        <time>2021-02-28T07:31:47Z</time>
      </trkpt>
      <trkpt lat="45.13976" lon="6.34429">
        <ele>2531.4</ele>
        <time>2021-02-28T07:31:48Z</time>
      </trkpt>
      <trkpt lat="45.13976" lon="6.34433">
        <ele>2530.4</ele>
        <time>2021-02-28T07:31:49Z</time>
      </trkpt>
      <trkpt lat="45.13976" lon="6.34433">
        <ele>2531</ele>
        <time>2021-02-28T07:31:50Z</time>
      </trkpt>
      <trkpt lat="45.13975" lon="6.34436">
        <ele>2530.6</ele>
        <time>2021-02-28T07:31:51Z</time>
      </trkpt>
      <trkpt lat="45.13975" lon="6.34436">
        <ele>2531</ele>
        <time>2021-02-28T07:31:52Z</time>
      </trkpt>
      <trkpt lat="45.13974" lon="6.3444">
        <ele>2531.2</ele>
        <time>2021-02-28T07:31:53Z</time>
      </trkpt>
      <trkpt lat="45.13974" lon="6.3444">
        <ele>2531.6</ele>
        <time>2021-02-28T07:31:54Z</time>
      </trkpt>
      <trkpt lat="45.13973" lon="6.34443">
        <ele>2532</ele>
        <time>2021-02-28T07:31:55Z</time>
      </trkpt>
      <trkpt lat="45.13973" lon="6.34443">
        <ele>2531.6</ele>
        <time>2021-02-28T07:31:56Z</time>
      </trkpt>
      <trkpt lat="45.13973" lon="6.34446">
        <ele>2532.2</ele>
        <time>2021-02-28T07:31:57Z</time>
      </trkpt>
      <trkpt lat="45.13973" lon="6.34446">
        <ele>2533</ele>
        <time>2021-02-28T07:31:58Z</time>
      </trkpt>
      <trkpt lat="45.13972" lon="6.34449">
        <ele>2532.4</ele>
        <time>2021-02-28T07:31:59Z</time>
      </trkpt>
      <trkpt lat="45.13972" lon="6.34449">
        <ele>2532.8</ele>
        <time>2021-02-28T07:32:00Z</time>
      </trkpt>
      <trkpt lat="45.13971" lon="6.34453">
        <ele>2531.4</ele>
        <time>2021-02-28T07:32:01Z</time>
      </trkpt>
      <trkpt lat="45.13971" lon="6.34453">
        <ele>2531.6</ele>
        <time>2021-02-28T07:32:02Z</time>
      </trkpt>
      <trkpt lat="45.1397" lon="6.34456">
        <ele>2532.4</ele>
        <time>2021-02-28T07:32:03Z</time>
      </trkpt>
      <trkpt lat="45.1397" lon="6.34456">
        <ele>2532.2</ele>
        <time>2021-02-28T07:32:04Z</time>
      </trkpt>
      <trkpt lat="45.1397" lon="6.34459">
        <ele>2532.6</ele>
        <time>2021-02-28T07:32:05Z</time>
      </trkpt>
      <trkpt lat="45.1397" lon="6.34459">
        <ele>2532.8</ele>
        <time>2021-02-28T07:32:06Z</time>
      </trkpt>
      <trkpt lat="45.13969" lon="6.34463">
        <ele>2533</ele>
        <time>2021-02-28T07:32:07Z</time>
      </trkpt>
      <trkpt lat="45.13969" lon="6.34465">
        <ele>2533.4</ele>
        <time>2021-02-28T07:32:08Z</time>
      </trkpt>
      <trkpt lat="45.13968" lon="6.34468">
        <ele>2533.2</ele>
        <time>2021-02-28T07:32:09Z</time>
      </trkpt>
      <trkpt lat="45.13968" lon="6.34471">
        <ele>2533.4</ele>
        <time>2021-02-28T07:32:10Z</time>
      </trkpt>
      <trkpt lat="45.13968" lon="6.34471">
        <ele>2533.6</ele>
        <time>2021-02-28T07:32:11Z</time>
      </trkpt>
      <trkpt lat="45.13968" lon="6.34475">
        <ele>2533.4</ele>
        <time>2021-02-28T07:32:12Z</time>
      </trkpt>
      <trkpt lat="45.13968" lon="6.34475">
        <ele>2533.6</ele>
        <time>2021-02-28T07:32:13Z</time>
      </trkpt>
      <trkpt lat="45.13967" lon="6.3448">
        <ele>2534</ele>
        <time>2021-02-28T07:32:14Z</time>
      </trkpt>
      <trkpt lat="45.13967" lon="6.3448">
        <ele>2534.4</ele>
        <time>2021-02-28T07:32:15Z</time>
      </trkpt>
      <trkpt lat="45.13967" lon="6.34484">
        <ele>2533.6</ele>
        <time>2021-02-28T07:32:16Z</time>
      </trkpt>
      <trkpt lat="45.13967" lon="6.34484">
        <ele>2533.6</ele>
        <time>2021-02-28T07:32:17Z</time>
      </trkpt>
      <trkpt lat="45.13966" lon="6.34487">
        <ele>2532.4</ele>
        <time>2021-02-28T07:32:18Z</time>
      </trkpt>
      <trkpt lat="45.13966" lon="6.34487">
        <ele>2532.8</ele>
        <time>2021-02-28T07:32:19Z</time>
      </trkpt>
      <trkpt lat="45.13966" lon="6.3449">
        <ele>2533</ele>
        <time>2021-02-28T07:32:20Z</time>
      </trkpt>
      <trkpt lat="45.13966" lon="6.3449">
        <ele>2533.6</ele>
        <time>2021-02-28T07:32:21Z</time>
      </trkpt>
      <trkpt lat="45.13965" lon="6.34493">
        <ele>2532.8</ele>
        <time>2021-02-28T07:32:22Z</time>
      </trkpt>
      <trkpt lat="45.13965" lon="6.34493">
        <ele>2532.8</ele>
        <time>2021-02-28T07:32:23Z</time>
      </trkpt>
      <trkpt lat="45.13965" lon="6.34497">
        <ele>2533.4</ele>
        <time>2021-02-28T07:32:24Z</time>
      </trkpt>
      <trkpt lat="45.13965" lon="6.34497">
        <ele>2533.6</ele>
        <time>2021-02-28T07:32:25Z</time>
      </trkpt>
      <trkpt lat="45.13965" lon="6.345">
        <ele>2532.8</ele>
        <time>2021-02-28T07:32:26Z</time>
      </trkpt>
      <trkpt lat="45.13965" lon="6.345">
        <ele>2533.4</ele>
        <time>2021-02-28T07:32:27Z</time>
      </trkpt>
      <trkpt lat="45.13965" lon="6.34504">
        <ele>2534.2</ele>
        <time>2021-02-28T07:32:28Z</time>
      </trkpt>
      <trkpt lat="45.13965" lon="6.34504">
        <ele>2534</ele>
        <time>2021-02-28T07:32:29Z</time>
      </trkpt>
      <trkpt lat="45.13965" lon="6.34507">
        <ele>2534.4</ele>
        <time>2021-02-28T07:32:30Z</time>
      </trkpt>
      <trkpt lat="45.13965" lon="6.34507">
        <ele>2534.6</ele>
        <time>2021-02-28T07:32:31Z</time>
      </trkpt>
      <trkpt lat="45.13965" lon="6.34511">
        <ele>2534.6</ele>
        <time>2021-02-28T07:32:32Z</time>
      </trkpt>
      <trkpt lat="45.13965" lon="6.34511">
        <ele>2535</ele>
        <time>2021-02-28T07:32:33Z</time>
      </trkpt>
      <trkpt lat="45.13965" lon="6.34513">
        <ele>2534.6</ele>
        <time>2021-02-28T07:32:34Z</time>
      </trkpt>
      <trkpt lat="45.13965" lon="6.34513">
        <ele>2534.8</ele>
        <time>2021-02-28T07:32:35Z</time>
      </trkpt>
      <trkpt lat="45.13964" lon="6.34517">
        <ele>2535.2</ele>
        <time>2021-02-28T07:32:36Z</time>
      </trkpt>
      <trkpt lat="45.13964" lon="6.34517">
        <ele>2535.4</ele>
        <time>2021-02-28T07:32:37Z</time>
      </trkpt>
      <trkpt lat="45.13964" lon="6.3452">
        <ele>2535.2</ele>
        <time>2021-02-28T07:32:38Z</time>
      </trkpt>
      <trkpt lat="45.13964" lon="6.3452">
        <ele>2535.6</ele>
        <time>2021-02-28T07:32:39Z</time>
      </trkpt>
      <trkpt lat="45.13964" lon="6.34523">
        <ele>2536.2</ele>
        <time>2021-02-28T07:32:40Z</time>
      </trkpt>
      <trkpt lat="45.13964" lon="6.34523">
        <ele>2536.2</ele>
        <time>2021-02-28T07:32:41Z</time>
      </trkpt>
      <trkpt lat="45.13964" lon="6.34526">
        <ele>2535.8</ele>
        <time>2021-02-28T07:32:42Z</time>
      </trkpt>
      <trkpt lat="45.13964" lon="6.34526">
        <ele>2535.6</ele>
        <time>2021-02-28T07:32:43Z</time>
      </trkpt>
      <trkpt lat="45.13964" lon="6.3453">
        <ele>2536.6</ele>
        <time>2021-02-28T07:32:44Z</time>
      </trkpt>
      <trkpt lat="45.13964" lon="6.3453">
        <ele>2537</ele>
        <time>2021-02-28T07:32:45Z</time>
      </trkpt>
      <trkpt lat="45.13964" lon="6.34533">
        <ele>2536.8</ele>
        <time>2021-02-28T07:32:46Z</time>
      </trkpt>
      <trkpt lat="45.13964" lon="6.34533">
        <ele>2537</ele>
        <time>2021-02-28T07:32:47Z</time>
      </trkpt>
      <trkpt lat="45.13964" lon="6.34537">
        <ele>2537.4</ele>
        <time>2021-02-28T07:32:48Z</time>
      </trkpt>
      <trkpt lat="45.13964" lon="6.34537">
        <ele>2537.4</ele>
        <time>2021-02-28T07:32:49Z</time>
      </trkpt>
      <trkpt lat="45.13964" lon="6.34537">
        <ele>2536.6</ele>
        <time>2021-02-28T07:32:50Z</time>
      </trkpt>
      <trkpt lat="45.13963" lon="6.3454">
        <ele>2537.2</ele>
        <time>2021-02-28T07:32:51Z</time>
      </trkpt>
      <trkpt lat="45.13963" lon="6.3454">
        <ele>2537.6</ele>
        <time>2021-02-28T07:32:52Z</time>
      </trkpt>
      <trkpt lat="45.13963" lon="6.3454">
        <ele>2537.6</ele>
        <time>2021-02-28T07:32:53Z</time>
      </trkpt>
      <trkpt lat="45.13963" lon="6.34543">
        <ele>2537.2</ele>
        <time>2021-02-28T07:32:54Z</time>
      </trkpt>
      <trkpt lat="45.13963" lon="6.34543">
        <ele>2537.6</ele>
        <time>2021-02-28T07:32:55Z</time>
      </trkpt>
      <trkpt lat="45.13962" lon="6.34546">
        <ele>2537.8</ele>
        <time>2021-02-28T07:32:56Z</time>
      </trkpt>
      <trkpt lat="45.13962" lon="6.34546">
        <ele>2538.4</ele>
        <time>2021-02-28T07:32:57Z</time>
      </trkpt>
      <trkpt lat="45.13963" lon="6.34549">
        <ele>2538.4</ele>
        <time>2021-02-28T07:32:58Z</time>
      </trkpt>
      <trkpt lat="45.13963" lon="6.34549">
        <ele>2538.8</ele>
        <time>2021-02-28T07:32:59Z</time>
      </trkpt>
      <trkpt lat="45.13962" lon="6.34551">
        <ele>2539</ele>
        <time>2021-02-28T07:33:00Z</time>
      </trkpt>
      <trkpt lat="45.13962" lon="6.34551">
        <ele>2539</ele>
        <time>2021-02-28T07:33:01Z</time>
      </trkpt>
      <trkpt lat="45.13962" lon="6.34555">
        <ele>2539</ele>
        <time>2021-02-28T07:33:02Z</time>
      </trkpt>
      <trkpt lat="45.13962" lon="6.34555">
        <ele>2539</ele>
        <time>2021-02-28T07:33:03Z</time>
      </trkpt>
      <trkpt lat="45.13962" lon="6.34558">
        <ele>2538.8</ele>
        <time>2021-02-28T07:33:04Z</time>
      </trkpt>
      <trkpt lat="45.13962" lon="6.34558">
        <ele>2539.4</ele>
        <time>2021-02-28T07:33:05Z</time>
      </trkpt>
      <trkpt lat="45.13962" lon="6.34561">
        <ele>2540</ele>
        <time>2021-02-28T07:33:06Z</time>
      </trkpt>
      <trkpt lat="45.13962" lon="6.34561">
        <ele>2539.4</ele>
        <time>2021-02-28T07:33:07Z</time>
      </trkpt>
      <trkpt lat="45.13962" lon="6.34561">
        <ele>2539.2</ele>
        <time>2021-02-28T07:33:08Z</time>
      </trkpt>
      <trkpt lat="45.13962" lon="6.34563">
        <ele>2539.6</ele>
        <time>2021-02-28T07:33:09Z</time>
      </trkpt>
      <trkpt lat="45.13962" lon="6.34563">
        <ele>2540</ele>
        <time>2021-02-28T07:33:10Z</time>
      </trkpt>
      <trkpt lat="45.13962" lon="6.34566">
        <ele>2540</ele>
        <time>2021-02-28T07:33:11Z</time>
      </trkpt>
      <trkpt lat="45.13962" lon="6.34566">
        <ele>2539.8</ele>
        <time>2021-02-28T07:33:12Z</time>
      </trkpt>
      <trkpt lat="45.13961" lon="6.34569">
        <ele>2540.2</ele>
        <time>2021-02-28T07:33:13Z</time>
      </trkpt>
      <trkpt lat="45.13961" lon="6.34569">
        <ele>2540.6</ele>
        <time>2021-02-28T07:33:14Z</time>
      </trkpt>
      <trkpt lat="45.13961" lon="6.34572">
        <ele>2540.4</ele>
        <time>2021-02-28T07:33:15Z</time>
      </trkpt>
      <trkpt lat="45.13961" lon="6.34572">
        <ele>2540.6</ele>
        <time>2021-02-28T07:33:16Z</time>
      </trkpt>
      <trkpt lat="45.13961" lon="6.34575">
        <ele>2541</ele>
        <time>2021-02-28T07:33:17Z</time>
      </trkpt>
      <trkpt lat="45.13961" lon="6.34575">
        <ele>2541</ele>
        <time>2021-02-28T07:33:18Z</time>
      </trkpt>
      <trkpt lat="45.13961" lon="6.34577">
        <ele>2539.8</ele>
        <time>2021-02-28T07:33:19Z</time>
      </trkpt>
      <trkpt lat="45.13961" lon="6.34577">
        <ele>2540.6</ele>
        <time>2021-02-28T07:33:20Z</time>
      </trkpt>
      <trkpt lat="45.13961" lon="6.34577">
        <ele>2541</ele>
        <time>2021-02-28T07:33:21Z</time>
      </trkpt>
      <trkpt lat="45.1396" lon="6.34581">
        <ele>2541.4</ele>
        <time>2021-02-28T07:33:22Z</time>
      </trkpt>
      <trkpt lat="45.1396" lon="6.34581">
        <ele>2541.6</ele>
        <time>2021-02-28T07:33:23Z</time>
      </trkpt>
      <trkpt lat="45.1396" lon="6.34584">
        <ele>2542.8</ele>
        <time>2021-02-28T07:33:24Z</time>
      </trkpt>
      <trkpt lat="45.1396" lon="6.34584">
        <ele>2543</ele>
        <time>2021-02-28T07:33:25Z</time>
      </trkpt>
      <trkpt lat="45.1396" lon="6.34584">
        <ele>2543.2</ele>
        <time>2021-02-28T07:33:26Z</time>
      </trkpt>
      <trkpt lat="45.13959" lon="6.34588">
        <ele>2544</ele>
        <time>2021-02-28T07:33:27Z</time>
      </trkpt>
      <trkpt lat="45.13959" lon="6.34588">
        <ele>2543.6</ele>
        <time>2021-02-28T07:33:28Z</time>
      </trkpt>
      <trkpt lat="45.13959" lon="6.34591">
        <ele>2543.8</ele>
        <time>2021-02-28T07:33:29Z</time>
      </trkpt>
      <trkpt lat="45.13959" lon="6.34591">
        <ele>2544</ele>
        <time>2021-02-28T07:33:30Z</time>
      </trkpt>
      <trkpt lat="45.13959" lon="6.34594">
        <ele>2544.2</ele>
        <time>2021-02-28T07:33:31Z</time>
      </trkpt>
      <trkpt lat="45.13959" lon="6.34594">
        <ele>2544.6</ele>
        <time>2021-02-28T07:33:32Z</time>
      </trkpt>
      <trkpt lat="45.13959" lon="6.34597">
        <ele>2544.2</ele>
        <time>2021-02-28T07:33:33Z</time>
      </trkpt>
      <trkpt lat="45.13959" lon="6.34597">
        <ele>2543.8</ele>
        <time>2021-02-28T07:33:34Z</time>
      </trkpt>
      <trkpt lat="45.13959" lon="6.346">
        <ele>2544</ele>
        <time>2021-02-28T07:33:35Z</time>
      </trkpt>
      <trkpt lat="45.13959" lon="6.346">
        <ele>2544.8</ele>
        <time>2021-02-28T07:33:36Z</time>
      </trkpt>
      <trkpt lat="45.13958" lon="6.34602">
        <ele>2544.8</ele>
        <time>2021-02-28T07:33:37Z</time>
      </trkpt>
      <trkpt lat="45.13958" lon="6.34602">
        <ele>2545</ele>
        <time>2021-02-28T07:33:38Z</time>
      </trkpt>
      <trkpt lat="45.13958" lon="6.34606">
        <ele>2544.6</ele>
        <time>2021-02-28T07:33:39Z</time>
      </trkpt>
      <trkpt lat="45.13958" lon="6.34606">
        <ele>2544.6</ele>
        <time>2021-02-28T07:33:40Z</time>
      </trkpt>
      <trkpt lat="45.13958" lon="6.34609">
        <ele>2545</ele>
        <time>2021-02-28T07:33:41Z</time>
      </trkpt>
      <trkpt lat="45.13958" lon="6.34609">
        <ele>2545.6</ele>
        <time>2021-02-28T07:33:42Z</time>
      </trkpt>
      <trkpt lat="45.13958" lon="6.34609">
        <ele>2545.6</ele>
        <time>2021-02-28T07:33:43Z</time>
      </trkpt>
      <trkpt lat="45.13956" lon="6.34612">
        <ele>2545.6</ele>
        <time>2021-02-28T07:33:44Z</time>
      </trkpt>
      <trkpt lat="45.13956" lon="6.34612">
        <ele>2546.2</ele>
        <time>2021-02-28T07:33:45Z</time>
      </trkpt>
      <trkpt lat="45.13955" lon="6.34615">
        <ele>2547</ele>
        <time>2021-02-28T07:33:46Z</time>
      </trkpt>
      <trkpt lat="45.13955" lon="6.34615">
        <ele>2546.6</ele>
        <time>2021-02-28T07:33:47Z</time>
      </trkpt>
      <trkpt lat="45.13954" lon="6.34619">
        <ele>2547</ele>
        <time>2021-02-28T07:33:48Z</time>
      </trkpt>
      <trkpt lat="45.13954" lon="6.34619">
        <ele>2547</ele>
        <time>2021-02-28T07:33:49Z</time>
      </trkpt>
      <trkpt lat="45.13954" lon="6.34619">
        <ele>2546.8</ele>
        <time>2021-02-28T07:33:50Z</time>
      </trkpt>
      <trkpt lat="45.13954" lon="6.34622">
        <ele>2547</ele>
        <time>2021-02-28T07:33:51Z</time>
      </trkpt>
      <trkpt lat="45.13954" lon="6.34622">
        <ele>2547.4</ele>
        <time>2021-02-28T07:33:52Z</time>
      </trkpt>
      <trkpt lat="45.13954" lon="6.34622">
        <ele>2547.4</ele>
        <time>2021-02-28T07:33:53Z</time>
      </trkpt>
      <trkpt lat="45.13954" lon="6.34625">
        <ele>2547.4</ele>
        <time>2021-02-28T07:33:54Z</time>
      </trkpt>
      <trkpt lat="45.13954" lon="6.34625">
        <ele>2547.6</ele>
        <time>2021-02-28T07:33:55Z</time>
      </trkpt>
      <trkpt lat="45.13954" lon="6.34625">
        <ele>2547.4</ele>
        <time>2021-02-28T07:33:56Z</time>
      </trkpt>
      <trkpt lat="45.13954" lon="6.34625">
        <ele>2547.6</ele>
        <time>2021-02-28T07:33:57Z</time>
      </trkpt>
      <trkpt lat="45.13953" lon="6.3463">
        <ele>2548</ele>
        <time>2021-02-28T07:33:58Z</time>
      </trkpt>
      <trkpt lat="45.13953" lon="6.3463">
        <ele>2547.6</ele>
        <time>2021-02-28T07:33:59Z</time>
      </trkpt>
      <trkpt lat="45.13953" lon="6.3463">
        <ele>2548.2</ele>
        <time>2021-02-28T07:34:00Z</time>
      </trkpt>
      <trkpt lat="45.13953" lon="6.3463">
        <ele>2548.8</ele>
        <time>2021-02-28T07:34:01Z</time>
      </trkpt>
      <trkpt lat="45.13953" lon="6.3463">
        <ele>2548.4</ele>
        <time>2021-02-28T07:34:02Z</time>
      </trkpt>
      <trkpt lat="45.13952" lon="6.34628">
        <ele>2549</ele>
        <time>2021-02-28T07:34:03Z</time>
      </trkpt>
      <trkpt lat="45.13952" lon="6.34628">
        <ele>2549.6</ele>
        <time>2021-02-28T07:34:04Z</time>
      </trkpt>
      <trkpt lat="45.13951" lon="6.34626">
        <ele>2549.8</ele>
        <time>2021-02-28T07:34:05Z</time>
      </trkpt>
      <trkpt lat="45.13951" lon="6.34626">
        <ele>2550.2</ele>
        <time>2021-02-28T07:34:06Z</time>
      </trkpt>
      <trkpt lat="45.1395" lon="6.34623">
        <ele>2550.2</ele>
        <time>2021-02-28T07:34:07Z</time>
      </trkpt>
      <trkpt lat="45.1395" lon="6.34623">
        <ele>2550.4</ele>
        <time>2021-02-28T07:34:08Z</time>
      </trkpt>
      <trkpt lat="45.1395" lon="6.34623">
        <ele>2550.4</ele>
        <time>2021-02-28T07:34:09Z</time>
      </trkpt>
      <trkpt lat="45.1395" lon="6.34623">
        <ele>2550.6</ele>
        <time>2021-02-28T07:34:10Z</time>
      </trkpt>
      <trkpt lat="45.1395" lon="6.34623">
        <ele>2550.8</ele>
        <time>2021-02-28T07:34:11Z</time>
      </trkpt>
      <trkpt lat="45.1395" lon="6.34623">
        <ele>2550.4</ele>
        <time>2021-02-28T07:34:12Z</time>
      </trkpt>
      <trkpt lat="45.1395" lon="6.34623">
        <ele>2550</ele>
        <time>2021-02-28T07:34:13Z</time>
      </trkpt>
      <trkpt lat="45.13949" lon="6.34625">
        <ele>2550.4</ele>
        <time>2021-02-28T07:34:14Z</time>
      </trkpt>
      <trkpt lat="45.13949" lon="6.34625">
        <ele>2550.4</ele>
        <time>2021-02-28T07:34:15Z</time>
      </trkpt>
      <trkpt lat="45.13949" lon="6.34625">
        <ele>2549.8</ele>
        <time>2021-02-28T07:34:16Z</time>
      </trkpt>
      <trkpt lat="45.13948" lon="6.34629">
        <ele>2550.2</ele>
        <time>2021-02-28T07:34:17Z</time>
      </trkpt>
      <trkpt lat="45.13948" lon="6.34629">
        <ele>2551</ele>
        <time>2021-02-28T07:34:18Z</time>
      </trkpt>
      <trkpt lat="45.13948" lon="6.34629">
        <ele>2550.8</ele>
        <time>2021-02-28T07:34:19Z</time>
      </trkpt>
      <trkpt lat="45.13948" lon="6.34633">
        <ele>2551.4</ele>
        <time>2021-02-28T07:34:20Z</time>
      </trkpt>
      <trkpt lat="45.13948" lon="6.34633">
        <ele>2551.2</ele>
        <time>2021-02-28T07:34:21Z</time>
      </trkpt>
      <trkpt lat="45.13948" lon="6.34633">
        <ele>2550</ele>
        <time>2021-02-28T07:34:22Z</time>
      </trkpt>
      <trkpt lat="45.13948" lon="6.34637">
        <ele>2550.6</ele>
        <time>2021-02-28T07:34:23Z</time>
      </trkpt>
      <trkpt lat="45.13948" lon="6.34637">
        <ele>2550.6</ele>
        <time>2021-02-28T07:34:24Z</time>
      </trkpt>
      <trkpt lat="45.13948" lon="6.3464">
        <ele>2550.8</ele>
        <time>2021-02-28T07:34:25Z</time>
      </trkpt>
      <trkpt lat="45.13948" lon="6.3464">
        <ele>2550.8</ele>
        <time>2021-02-28T07:34:26Z</time>
      </trkpt>
      <trkpt lat="45.13948" lon="6.34643">
        <ele>2551.4</ele>
        <time>2021-02-28T07:34:27Z</time>
      </trkpt>
      <trkpt lat="45.13948" lon="6.34643">
        <ele>2552.4</ele>
        <time>2021-02-28T07:34:28Z</time>
      </trkpt>
      <trkpt lat="45.13948" lon="6.34645">
        <ele>2553</ele>
        <time>2021-02-28T07:34:29Z</time>
      </trkpt>
      <trkpt lat="45.13948" lon="6.34645">
        <ele>2552.6</ele>
        <time>2021-02-28T07:34:30Z</time>
      </trkpt>
      <trkpt lat="45.13948" lon="6.34648">
        <ele>2553</ele>
        <time>2021-02-28T07:34:31Z</time>
      </trkpt>
      <trkpt lat="45.13948" lon="6.34648">
        <ele>2553</ele>
        <time>2021-02-28T07:34:32Z</time>
      </trkpt>
      <trkpt lat="45.13948" lon="6.34648">
        <ele>2553</ele>
        <time>2021-02-28T07:34:33Z</time>
      </trkpt>
      <trkpt lat="45.13947" lon="6.34651">
        <ele>2553.4</ele>
        <time>2021-02-28T07:34:34Z</time>
      </trkpt>
      <trkpt lat="45.13947" lon="6.34651">
        <ele>2553</ele>
        <time>2021-02-28T07:34:35Z</time>
      </trkpt>
      <trkpt lat="45.13947" lon="6.34651">
        <ele>2553.2</ele>
        <time>2021-02-28T07:34:36Z</time>
      </trkpt>
      <trkpt lat="45.13947" lon="6.34655">
        <ele>2553.8</ele>
        <time>2021-02-28T07:34:37Z</time>
      </trkpt>
      <trkpt lat="45.13947" lon="6.34655">
        <ele>2554.4</ele>
        <time>2021-02-28T07:34:38Z</time>
      </trkpt>
      <trkpt lat="45.13947" lon="6.34657">
        <ele>2555.2</ele>
        <time>2021-02-28T07:34:39Z</time>
      </trkpt>
      <trkpt lat="45.13947" lon="6.34657">
        <ele>2555.4</ele>
        <time>2021-02-28T07:34:40Z</time>
      </trkpt>
      <trkpt lat="45.13947" lon="6.34657">
        <ele>2555.8</ele>
        <time>2021-02-28T07:34:41Z</time>
      </trkpt>
      <trkpt lat="45.13947" lon="6.34661">
        <ele>2556.2</ele>
        <time>2021-02-28T07:34:42Z</time>
      </trkpt>
      <trkpt lat="45.13947" lon="6.34661">
        <ele>2556.2</ele>
        <time>2021-02-28T07:34:43Z</time>
      </trkpt>
      <trkpt lat="45.13947" lon="6.34661">
        <ele>2556.4</ele>
        <time>2021-02-28T07:34:44Z</time>
      </trkpt>
      <trkpt lat="45.13946" lon="6.34664">
        <ele>2556.4</ele>
        <time>2021-02-28T07:34:45Z</time>
      </trkpt>
      <trkpt lat="45.13946" lon="6.34664">
        <ele>2556.8</ele>
        <time>2021-02-28T07:34:46Z</time>
      </trkpt>
      <trkpt lat="45.13945" lon="6.34667">
        <ele>2556.2</ele>
        <time>2021-02-28T07:34:47Z</time>
      </trkpt>
      <trkpt lat="45.13945" lon="6.34667">
        <ele>2556.8</ele>
        <time>2021-02-28T07:34:48Z</time>
      </trkpt>
      <trkpt lat="45.13944" lon="6.34669">
        <ele>2557.2</ele>
        <time>2021-02-28T07:34:49Z</time>
      </trkpt>
      <trkpt lat="45.13944" lon="6.34669">
        <ele>2556.6</ele>
        <time>2021-02-28T07:34:50Z</time>
      </trkpt>
      <trkpt lat="45.13944" lon="6.34669">
        <ele>2556.8</ele>
        <time>2021-02-28T07:34:51Z</time>
      </trkpt>
      <trkpt lat="45.13943" lon="6.34673">
        <ele>2557.6</ele>
        <time>2021-02-28T07:34:52Z</time>
      </trkpt>
      <trkpt lat="45.13943" lon="6.34673">
        <ele>2557.6</ele>
        <time>2021-02-28T07:34:53Z</time>
      </trkpt>
      <trkpt lat="45.13943" lon="6.34673">
        <ele>2557.6</ele>
        <time>2021-02-28T07:34:54Z</time>
      </trkpt>
      <trkpt lat="45.13943" lon="6.34677">
        <ele>2558</ele>
        <time>2021-02-28T07:34:55Z</time>
      </trkpt>
      <trkpt lat="45.13943" lon="6.34677">
        <ele>2557.8</ele>
        <time>2021-02-28T07:34:56Z</time>
      </trkpt>
      <trkpt lat="45.13943" lon="6.34677">
        <ele>2556</ele>
        <time>2021-02-28T07:34:57Z</time>
      </trkpt>
      <trkpt lat="45.13944" lon="6.3468">
        <ele>2556.6</ele>
        <time>2021-02-28T07:34:58Z</time>
      </trkpt>
      <trkpt lat="45.13944" lon="6.3468">
        <ele>2557.8</ele>
        <time>2021-02-28T07:34:59Z</time>
      </trkpt>
      <trkpt lat="45.13945" lon="6.34683">
        <ele>2558.2</ele>
        <time>2021-02-28T07:35:00Z</time>
      </trkpt>
      <trkpt lat="45.13945" lon="6.34683">
        <ele>2557.2</ele>
        <time>2021-02-28T07:35:01Z</time>
      </trkpt>
      <trkpt lat="45.13946" lon="6.34686">
        <ele>2557.8</ele>
        <time>2021-02-28T07:35:02Z</time>
      </trkpt>
      <trkpt lat="45.13946" lon="6.34686">
        <ele>2558.2</ele>
        <time>2021-02-28T07:35:03Z</time>
      </trkpt>
      <trkpt lat="45.13946" lon="6.34689">
        <ele>2558</ele>
        <time>2021-02-28T07:35:04Z</time>
      </trkpt>
      <trkpt lat="45.13946" lon="6.34689">
        <ele>2558.8</ele>
        <time>2021-02-28T07:35:05Z</time>
      </trkpt>
      <trkpt lat="45.13947" lon="6.34692">
        <ele>2558.8</ele>
        <time>2021-02-28T07:35:06Z</time>
      </trkpt>
      <trkpt lat="45.13947" lon="6.34692">
        <ele>2558.8</ele>
        <time>2021-02-28T07:35:07Z</time>
      </trkpt>
      <trkpt lat="45.13948" lon="6.34694">
        <ele>2559.4</ele>
        <time>2021-02-28T07:35:08Z</time>
      </trkpt>
      <trkpt lat="45.13948" lon="6.34694">
        <ele>2560.6</ele>
        <time>2021-02-28T07:35:09Z</time>
      </trkpt>
      <trkpt lat="45.13948" lon="6.34694">
        <ele>2560.4</ele>
        <time>2021-02-28T07:35:10Z</time>
      </trkpt>
      <trkpt lat="45.13949" lon="6.34697">
        <ele>2560.6</ele>
        <time>2021-02-28T07:35:11Z</time>
      </trkpt>
      <trkpt lat="45.13949" lon="6.34697">
        <ele>2560.2</ele>
        <time>2021-02-28T07:35:12Z</time>
      </trkpt>
      <trkpt lat="45.13949" lon="6.34697">
        <ele>2559.8</ele>
        <time>2021-02-28T07:35:13Z</time>
      </trkpt>
      <trkpt lat="45.13948" lon="6.347">
        <ele>2560.2</ele>
        <time>2021-02-28T07:35:14Z</time>
      </trkpt>
      <trkpt lat="45.13948" lon="6.347">
        <ele>2561</ele>
        <time>2021-02-28T07:35:15Z</time>
      </trkpt>
      <trkpt lat="45.13948" lon="6.34704">
        <ele>2561.4</ele>
        <time>2021-02-28T07:35:16Z</time>
      </trkpt>
      <trkpt lat="45.13948" lon="6.34704">
        <ele>2561.2</ele>
        <time>2021-02-28T07:35:17Z</time>
      </trkpt>
      <trkpt lat="45.13947" lon="6.34707">
        <ele>2560.6</ele>
        <time>2021-02-28T07:35:18Z</time>
      </trkpt>
      <trkpt lat="45.13947" lon="6.34707">
        <ele>2561.6</ele>
        <time>2021-02-28T07:35:19Z</time>
      </trkpt>
      <trkpt lat="45.13946" lon="6.3471">
        <ele>2561.8</ele>
        <time>2021-02-28T07:35:20Z</time>
      </trkpt>
      <trkpt lat="45.13946" lon="6.3471">
        <ele>2562.4</ele>
        <time>2021-02-28T07:35:21Z</time>
      </trkpt>
      <trkpt lat="45.13946" lon="6.34713">
        <ele>2562</ele>
        <time>2021-02-28T07:35:22Z</time>
      </trkpt>
      <trkpt lat="45.13946" lon="6.34713">
        <ele>2562.4</ele>
        <time>2021-02-28T07:35:23Z</time>
      </trkpt>
      <trkpt lat="45.13946" lon="6.34717">
        <ele>2562</ele>
        <time>2021-02-28T07:35:24Z</time>
      </trkpt>
      <trkpt lat="45.13946" lon="6.34717">
        <ele>2562.2</ele>
        <time>2021-02-28T07:35:25Z</time>
      </trkpt>
      <trkpt lat="45.13945" lon="6.34721">
        <ele>2562.4</ele>
        <time>2021-02-28T07:35:26Z</time>
      </trkpt>
      <trkpt lat="45.13945" lon="6.34721">
        <ele>2562.2</ele>
        <time>2021-02-28T07:35:27Z</time>
      </trkpt>
      <trkpt lat="45.13945" lon="6.34725">
        <ele>2562</ele>
        <time>2021-02-28T07:35:28Z</time>
      </trkpt>
      <trkpt lat="45.13945" lon="6.34725">
        <ele>2562</ele>
        <time>2021-02-28T07:35:29Z</time>
      </trkpt>
      <trkpt lat="45.13944" lon="6.34729">
        <ele>2562.8</ele>
        <time>2021-02-28T07:35:30Z</time>
      </trkpt>
      <trkpt lat="45.13943" lon="6.34731">
        <ele>2563</ele>
        <time>2021-02-28T07:35:31Z</time>
      </trkpt>
      <trkpt lat="45.13943" lon="6.34734">
        <ele>2562.4</ele>
        <time>2021-02-28T07:35:32Z</time>
      </trkpt>
      <trkpt lat="45.13943" lon="6.34734">
        <ele>2562.4</ele>
        <time>2021-02-28T07:35:33Z</time>
      </trkpt>
      <trkpt lat="45.13941" lon="6.34739">
        <ele>2561.4</ele>
        <time>2021-02-28T07:35:34Z</time>
      </trkpt>
      <trkpt lat="45.13941" lon="6.34742">
        <ele>2561.6</ele>
        <time>2021-02-28T07:35:35Z</time>
      </trkpt>
      <trkpt lat="45.1394" lon="6.34745">
        <ele>2560.8</ele>
        <time>2021-02-28T07:35:36Z</time>
      </trkpt>
      <trkpt lat="45.1394" lon="6.34745">
        <ele>2560.2</ele>
        <time>2021-02-28T07:35:37Z</time>
      </trkpt>
      <trkpt lat="45.1394" lon="6.34749">
        <ele>2559.8</ele>
        <time>2021-02-28T07:35:38Z</time>
      </trkpt>
      <trkpt lat="45.1394" lon="6.34749">
        <ele>2559.6</ele>
        <time>2021-02-28T07:35:39Z</time>
      </trkpt>
      <trkpt lat="45.13939" lon="6.34752">
        <ele>2559.8</ele>
        <time>2021-02-28T07:35:40Z</time>
      </trkpt>
      <trkpt lat="45.13939" lon="6.34752">
        <ele>2559.8</ele>
        <time>2021-02-28T07:35:41Z</time>
      </trkpt>
      <trkpt lat="45.13938" lon="6.34756">
        <ele>2559.8</ele>
        <time>2021-02-28T07:35:42Z</time>
      </trkpt>
      <trkpt lat="45.13938" lon="6.34756">
        <ele>2560.4</ele>
        <time>2021-02-28T07:35:43Z</time>
      </trkpt>
      <trkpt lat="45.13938" lon="6.34758">
        <ele>2559.8</ele>
        <time>2021-02-28T07:35:44Z</time>
      </trkpt>
      <trkpt lat="45.13938" lon="6.34758">
        <ele>2560.6</ele>
        <time>2021-02-28T07:35:45Z</time>
      </trkpt>
      <trkpt lat="45.13938" lon="6.34762">
        <ele>2560</ele>
        <time>2021-02-28T07:35:46Z</time>
      </trkpt>
      <trkpt lat="45.13938" lon="6.34762">
        <ele>2560.4</ele>
        <time>2021-02-28T07:35:47Z</time>
      </trkpt>
      <trkpt lat="45.13938" lon="6.34765">
        <ele>2560.2</ele>
        <time>2021-02-28T07:35:48Z</time>
      </trkpt>
      <trkpt lat="45.13938" lon="6.34765">
        <ele>2560.8</ele>
        <time>2021-02-28T07:35:49Z</time>
      </trkpt>
      <trkpt lat="45.13937" lon="6.34768">
        <ele>2561.4</ele>
        <time>2021-02-28T07:35:50Z</time>
      </trkpt>
      <trkpt lat="45.13937" lon="6.34768">
        <ele>2562</ele>
        <time>2021-02-28T07:35:51Z</time>
      </trkpt>
      <trkpt lat="45.13937" lon="6.34772">
        <ele>2561.6</ele>
        <time>2021-02-28T07:35:52Z</time>
      </trkpt>
      <trkpt lat="45.13937" lon="6.34772">
        <ele>2561.6</ele>
        <time>2021-02-28T07:35:53Z</time>
      </trkpt>
      <trkpt lat="45.13937" lon="6.34775">
        <ele>2562</ele>
        <time>2021-02-28T07:35:54Z</time>
      </trkpt>
      <trkpt lat="45.13937" lon="6.34775">
        <ele>2561.8</ele>
        <time>2021-02-28T07:35:55Z</time>
      </trkpt>
      <trkpt lat="45.13936" lon="6.34779">
        <ele>2561.6</ele>
        <time>2021-02-28T07:35:56Z</time>
      </trkpt>
      <trkpt lat="45.13936" lon="6.34779">
        <ele>2561.4</ele>
        <time>2021-02-28T07:35:57Z</time>
      </trkpt>
      <trkpt lat="45.13937" lon="6.34782">
        <ele>2561.8</ele>
        <time>2021-02-28T07:35:58Z</time>
      </trkpt>
      <trkpt lat="45.13937" lon="6.34782">
        <ele>2561.8</ele>
        <time>2021-02-28T07:35:59Z</time>
      </trkpt>
      <trkpt lat="45.13937" lon="6.34785">
        <ele>2561.2</ele>
        <time>2021-02-28T07:36:00Z</time>
      </trkpt>
      <trkpt lat="45.13937" lon="6.34785">
        <ele>2561.6</ele>
        <time>2021-02-28T07:36:01Z</time>
      </trkpt>
      <trkpt lat="45.13937" lon="6.34789">
        <ele>2562.2</ele>
        <time>2021-02-28T07:36:02Z</time>
      </trkpt>
      <trkpt lat="45.13937" lon="6.34789">
        <ele>2561.8</ele>
        <time>2021-02-28T07:36:03Z</time>
      </trkpt>
      <trkpt lat="45.13937" lon="6.34789">
        <ele>2561.2</ele>
        <time>2021-02-28T07:36:04Z</time>
      </trkpt>
      <trkpt lat="45.13937" lon="6.34792">
        <ele>2561.6</ele>
        <time>2021-02-28T07:36:05Z</time>
      </trkpt>
      <trkpt lat="45.13937" lon="6.34792">
        <ele>2561.6</ele>
        <time>2021-02-28T07:36:06Z</time>
      </trkpt>
      <trkpt lat="45.13937" lon="6.34792">
        <ele>2562.2</ele>
        <time>2021-02-28T07:36:07Z</time>
      </trkpt>
      <trkpt lat="45.13938" lon="6.34795">
        <ele>2562.4</ele>
        <time>2021-02-28T07:36:08Z</time>
      </trkpt>
      <trkpt lat="45.13938" lon="6.34795">
        <ele>2562.6</ele>
        <time>2021-02-28T07:36:09Z</time>
      </trkpt>
      <trkpt lat="45.13939" lon="6.34799">
        <ele>2563.4</ele>
        <time>2021-02-28T07:36:10Z</time>
      </trkpt>
      <trkpt lat="45.13939" lon="6.34799">
        <ele>2563.4</ele>
        <time>2021-02-28T07:36:11Z</time>
      </trkpt>
      <trkpt lat="45.13939" lon="6.34802">
        <ele>2563.4</ele>
        <time>2021-02-28T07:36:12Z</time>
      </trkpt>
      <trkpt lat="45.13939" lon="6.34802">
        <ele>2563.4</ele>
        <time>2021-02-28T07:36:13Z</time>
      </trkpt>
      <trkpt lat="45.13939" lon="6.34805">
        <ele>2564.2</ele>
        <time>2021-02-28T07:36:14Z</time>
      </trkpt>
      <trkpt lat="45.13939" lon="6.34805">
        <ele>2565</ele>
        <time>2021-02-28T07:36:15Z</time>
      </trkpt>
      <trkpt lat="45.13939" lon="6.34805">
        <ele>2565</ele>
        <time>2021-02-28T07:36:16Z</time>
      </trkpt>
      <trkpt lat="45.1394" lon="6.34809">
        <ele>2565.4</ele>
        <time>2021-02-28T07:36:17Z</time>
      </trkpt>
      <trkpt lat="45.1394" lon="6.34809">
        <ele>2565.8</ele>
        <time>2021-02-28T07:36:18Z</time>
      </trkpt>
      <trkpt lat="45.1394" lon="6.34812">
        <ele>2566.4</ele>
        <time>2021-02-28T07:36:19Z</time>
      </trkpt>
      <trkpt lat="45.1394" lon="6.34812">
        <ele>2566.2</ele>
        <time>2021-02-28T07:36:20Z</time>
      </trkpt>
      <trkpt lat="45.1394" lon="6.34815">
        <ele>2566.4</ele>
        <time>2021-02-28T07:36:21Z</time>
      </trkpt>
      <trkpt lat="45.1394" lon="6.34815">
        <ele>2566</ele>
        <time>2021-02-28T07:36:22Z</time>
      </trkpt>
      <trkpt lat="45.1394" lon="6.34818">
        <ele>2566</ele>
        <time>2021-02-28T07:36:23Z</time>
      </trkpt>
      <trkpt lat="45.1394" lon="6.34818">
        <ele>2566.2</ele>
        <time>2021-02-28T07:36:24Z</time>
      </trkpt>
      <trkpt lat="45.1394" lon="6.34821">
        <ele>2566.4</ele>
        <time>2021-02-28T07:36:25Z</time>
      </trkpt>
      <trkpt lat="45.1394" lon="6.34821">
        <ele>2567.2</ele>
        <time>2021-02-28T07:36:26Z</time>
      </trkpt>
      <trkpt lat="45.1394" lon="6.34824">
        <ele>2566.8</ele>
        <time>2021-02-28T07:36:27Z</time>
      </trkpt>
      <trkpt lat="45.1394" lon="6.34824">
        <ele>2567</ele>
        <time>2021-02-28T07:36:28Z</time>
      </trkpt>
      <trkpt lat="45.13941" lon="6.34827">
        <ele>2567.4</ele>
        <time>2021-02-28T07:36:29Z</time>
      </trkpt>
      <trkpt lat="45.13941" lon="6.34827">
        <ele>2567.6</ele>
        <time>2021-02-28T07:36:30Z</time>
      </trkpt>
      <trkpt lat="45.13941" lon="6.3483">
        <ele>2567.2</ele>
        <time>2021-02-28T07:36:31Z</time>
      </trkpt>
      <trkpt lat="45.13941" lon="6.3483">
        <ele>2566.8</ele>
        <time>2021-02-28T07:36:32Z</time>
      </trkpt>
      <trkpt lat="45.13941" lon="6.34833">
        <ele>2567.4</ele>
        <time>2021-02-28T07:36:33Z</time>
      </trkpt>
      <trkpt lat="45.13941" lon="6.34833">
        <ele>2568</ele>
        <time>2021-02-28T07:36:34Z</time>
      </trkpt>
      <trkpt lat="45.1394" lon="6.34836">
        <ele>2568.2</ele>
        <time>2021-02-28T07:36:35Z</time>
      </trkpt>
      <trkpt lat="45.1394" lon="6.34836">
        <ele>2568</ele>
        <time>2021-02-28T07:36:36Z</time>
      </trkpt>
      <trkpt lat="45.13941" lon="6.34838">
        <ele>2568.6</ele>
        <time>2021-02-28T07:36:37Z</time>
      </trkpt>
      <trkpt lat="45.13941" lon="6.34838">
        <ele>2568.8</ele>
        <time>2021-02-28T07:36:38Z</time>
      </trkpt>
      <trkpt lat="45.13941" lon="6.34838">
        <ele>2569</ele>
        <time>2021-02-28T07:36:39Z</time>
      </trkpt>
      <trkpt lat="45.13941" lon="6.34842">
        <ele>2569.2</ele>
        <time>2021-02-28T07:36:40Z</time>
      </trkpt>
      <trkpt lat="45.13941" lon="6.34842">
        <ele>2569.6</ele>
        <time>2021-02-28T07:36:41Z</time>
      </trkpt>
      <trkpt lat="45.13942" lon="6.34844">
        <ele>2570.2</ele>
        <time>2021-02-28T07:36:42Z</time>
      </trkpt>
      <trkpt lat="45.13942" lon="6.34844">
        <ele>2570.6</ele>
        <time>2021-02-28T07:36:43Z</time>
      </trkpt>
      <trkpt lat="45.13942" lon="6.34847">
        <ele>2570.8</ele>
        <time>2021-02-28T07:36:44Z</time>
      </trkpt>
      <trkpt lat="45.13942" lon="6.34847">
        <ele>2571.4</ele>
        <time>2021-02-28T07:36:45Z</time>
      </trkpt>
      <trkpt lat="45.13941" lon="6.3485">
        <ele>2571.8</ele>
        <time>2021-02-28T07:36:46Z</time>
      </trkpt>
      <trkpt lat="45.13941" lon="6.3485">
        <ele>2572</ele>
        <time>2021-02-28T07:36:47Z</time>
      </trkpt>
      <trkpt lat="45.13941" lon="6.3485">
        <ele>2571.6</ele>
        <time>2021-02-28T07:36:48Z</time>
      </trkpt>
      <trkpt lat="45.13941" lon="6.34853">
        <ele>2572</ele>
        <time>2021-02-28T07:36:49Z</time>
      </trkpt>
      <trkpt lat="45.13941" lon="6.34853">
        <ele>2573.8</ele>
        <time>2021-02-28T07:36:50Z</time>
      </trkpt>
      <trkpt lat="45.13941" lon="6.34853">
        <ele>2574</ele>
        <time>2021-02-28T07:36:51Z</time>
      </trkpt>
      <trkpt lat="45.13939" lon="6.34856">
        <ele>2574.2</ele>
        <time>2021-02-28T07:36:52Z</time>
      </trkpt>
      <trkpt lat="45.13939" lon="6.34856">
        <ele>2573.2</ele>
        <time>2021-02-28T07:36:53Z</time>
      </trkpt>
      <trkpt lat="45.13939" lon="6.34856">
        <ele>2573.2</ele>
        <time>2021-02-28T07:36:54Z</time>
      </trkpt>
      <trkpt lat="45.13939" lon="6.34859">
        <ele>2572.8</ele>
        <time>2021-02-28T07:36:55Z</time>
      </trkpt>
      <trkpt lat="45.13939" lon="6.34859">
        <ele>2573</ele>
        <time>2021-02-28T07:36:56Z</time>
      </trkpt>
      <trkpt lat="45.13938" lon="6.34861">
        <ele>2573.4</ele>
        <time>2021-02-28T07:36:57Z</time>
      </trkpt>
      <trkpt lat="45.13938" lon="6.34861">
        <ele>2573</ele>
        <time>2021-02-28T07:36:58Z</time>
      </trkpt>
      <trkpt lat="45.13937" lon="6.34863">
        <ele>2573.2</ele>
        <time>2021-02-28T07:36:59Z</time>
      </trkpt>
      <trkpt lat="45.13937" lon="6.34863">
        <ele>2572.8</ele>
        <time>2021-02-28T07:37:00Z</time>
      </trkpt>
      <trkpt lat="45.13937" lon="6.34863">
        <ele>2573.6</ele>
        <time>2021-02-28T07:37:01Z</time>
      </trkpt>
      <trkpt lat="45.13936" lon="6.34866">
        <ele>2574</ele>
        <time>2021-02-28T07:37:02Z</time>
      </trkpt>
      <trkpt lat="45.13936" lon="6.34866">
        <ele>2574.4</ele>
        <time>2021-02-28T07:37:03Z</time>
      </trkpt>
      <trkpt lat="45.13936" lon="6.34866">
        <ele>2573.8</ele>
        <time>2021-02-28T07:37:04Z</time>
      </trkpt>
      <trkpt lat="45.13934" lon="6.34869">
        <ele>2572.2</ele>
        <time>2021-02-28T07:37:05Z</time>
      </trkpt>
      <trkpt lat="45.13934" lon="6.34869">
        <ele>2573</ele>
        <time>2021-02-28T07:37:06Z</time>
      </trkpt>
      <trkpt lat="45.13933" lon="6.3487">
        <ele>2573.4</ele>
        <time>2021-02-28T07:37:07Z</time>
      </trkpt>
      <trkpt lat="45.13933" lon="6.3487">
        <ele>2574.4</ele>
        <time>2021-02-28T07:37:08Z</time>
      </trkpt>
      <trkpt lat="45.1393" lon="6.34871">
        <ele>2575.4</ele>
        <time>2021-02-28T07:37:09Z</time>
      </trkpt>
      <trkpt lat="45.1393" lon="6.34871">
        <ele>2575.4</ele>
        <time>2021-02-28T07:37:10Z</time>
      </trkpt>
      <trkpt lat="45.13928" lon="6.34871">
        <ele>2576</ele>
        <time>2021-02-28T07:37:11Z</time>
      </trkpt>
      <trkpt lat="45.13928" lon="6.34871">
        <ele>2576.6</ele>
        <time>2021-02-28T07:37:12Z</time>
      </trkpt>
      <trkpt lat="45.13928" lon="6.34871">
        <ele>2576.2</ele>
        <time>2021-02-28T07:37:13Z</time>
      </trkpt>
      <trkpt lat="45.13925" lon="6.3487">
        <ele>2576.8</ele>
        <time>2021-02-28T07:37:14Z</time>
      </trkpt>
      <trkpt lat="45.13925" lon="6.3487">
        <ele>2577.2</ele>
        <time>2021-02-28T07:37:15Z</time>
      </trkpt>
      <trkpt lat="45.13924" lon="6.34869">
        <ele>2577.8</ele>
        <time>2021-02-28T07:37:16Z</time>
      </trkpt>
      <trkpt lat="45.13924" lon="6.34869">
        <ele>2577</ele>
        <time>2021-02-28T07:37:17Z</time>
      </trkpt>
      <trkpt lat="45.13924" lon="6.34869">
        <ele>2577.8</ele>
        <time>2021-02-28T07:37:18Z</time>
      </trkpt>
      <trkpt lat="45.13924" lon="6.34869">
        <ele>2578</ele>
        <time>2021-02-28T07:37:19Z</time>
      </trkpt>
      <trkpt lat="45.13924" lon="6.34869">
        <ele>2578.6</ele>
        <time>2021-02-28T07:37:20Z</time>
      </trkpt>
      <trkpt lat="45.13921" lon="6.34869">
        <ele>2578.8</ele>
        <time>2021-02-28T07:37:21Z</time>
      </trkpt>
      <trkpt lat="45.13921" lon="6.34869">
        <ele>2579.6</ele>
        <time>2021-02-28T07:37:22Z</time>
      </trkpt>
      <trkpt lat="45.13921" lon="6.34869">
        <ele>2579.2</ele>
        <time>2021-02-28T07:37:23Z</time>
      </trkpt>
      <trkpt lat="45.13919" lon="6.34872">
        <ele>2579.6</ele>
        <time>2021-02-28T07:37:24Z</time>
      </trkpt>
      <trkpt lat="45.13919" lon="6.34872">
        <ele>2579.6</ele>
        <time>2021-02-28T07:37:25Z</time>
      </trkpt>
      <trkpt lat="45.13919" lon="6.34872">
        <ele>2579</ele>
        <time>2021-02-28T07:37:26Z</time>
      </trkpt>
      <trkpt lat="45.13918" lon="6.34875">
        <ele>2579.6</ele>
        <time>2021-02-28T07:37:27Z</time>
      </trkpt>
      <trkpt lat="45.13918" lon="6.34875">
        <ele>2580</ele>
        <time>2021-02-28T07:37:28Z</time>
      </trkpt>
      <trkpt lat="45.13917" lon="6.34877">
        <ele>2580.6</ele>
        <time>2021-02-28T07:37:29Z</time>
      </trkpt>
      <trkpt lat="45.13917" lon="6.34877">
        <ele>2580.6</ele>
        <time>2021-02-28T07:37:30Z</time>
      </trkpt>
      <trkpt lat="45.13917" lon="6.34877">
        <ele>2580.8</ele>
        <time>2021-02-28T07:37:31Z</time>
      </trkpt>
      <trkpt lat="45.13915" lon="6.3488">
        <ele>2581.2</ele>
        <time>2021-02-28T07:37:32Z</time>
      </trkpt>
      <trkpt lat="45.13915" lon="6.3488">
        <ele>2582.2</ele>
        <time>2021-02-28T07:37:33Z</time>
      </trkpt>
      <trkpt lat="45.13915" lon="6.3488">
        <ele>2582</ele>
        <time>2021-02-28T07:37:34Z</time>
      </trkpt>
      <trkpt lat="45.13913" lon="6.34881">
        <ele>2582.8</ele>
        <time>2021-02-28T07:37:35Z</time>
      </trkpt>
      <trkpt lat="45.13913" lon="6.34881">
        <ele>2583.4</ele>
        <time>2021-02-28T07:37:36Z</time>
      </trkpt>
      <trkpt lat="45.13913" lon="6.34881">
        <ele>2583</ele>
        <time>2021-02-28T07:37:37Z</time>
      </trkpt>
      <trkpt lat="45.1391" lon="6.34883">
        <ele>2583.4</ele>
        <time>2021-02-28T07:37:38Z</time>
      </trkpt>
      <trkpt lat="45.1391" lon="6.34883">
        <ele>2583</ele>
        <time>2021-02-28T07:37:39Z</time>
      </trkpt>
      <trkpt lat="45.13909" lon="6.34883">
        <ele>2582.4</ele>
        <time>2021-02-28T07:37:40Z</time>
      </trkpt>
      <trkpt lat="45.13909" lon="6.34883">
        <ele>2583.2</ele>
        <time>2021-02-28T07:37:41Z</time>
      </trkpt>
      <trkpt lat="45.13909" lon="6.34883">
        <ele>2584</ele>
        <time>2021-02-28T07:37:42Z</time>
      </trkpt>
      <trkpt lat="45.13906" lon="6.34884">
        <ele>2584.6</ele>
        <time>2021-02-28T07:37:43Z</time>
      </trkpt>
      <trkpt lat="45.13906" lon="6.34884">
        <ele>2585</ele>
        <time>2021-02-28T07:37:44Z</time>
      </trkpt>
      <trkpt lat="45.13906" lon="6.34884">
        <ele>2585.4</ele>
        <time>2021-02-28T07:37:45Z</time>
      </trkpt>
      <trkpt lat="45.13904" lon="6.34887">
        <ele>2585.6</ele>
        <time>2021-02-28T07:37:46Z</time>
      </trkpt>
      <trkpt lat="45.13904" lon="6.34887">
        <ele>2585.8</ele>
        <time>2021-02-28T07:37:47Z</time>
      </trkpt>
      <trkpt lat="45.13903" lon="6.34889">
        <ele>2585.6</ele>
        <time>2021-02-28T07:37:48Z</time>
      </trkpt>
      <trkpt lat="45.13903" lon="6.34889">
        <ele>2586</ele>
        <time>2021-02-28T07:37:49Z</time>
      </trkpt>
      <trkpt lat="45.13902" lon="6.34891">
        <ele>2586.6</ele>
        <time>2021-02-28T07:37:50Z</time>
      </trkpt>
      <trkpt lat="45.13902" lon="6.34891">
        <ele>2586.4</ele>
        <time>2021-02-28T07:37:51Z</time>
      </trkpt>
      <trkpt lat="45.13902" lon="6.34891">
        <ele>2586.8</ele>
        <time>2021-02-28T07:37:52Z</time>
      </trkpt>
      <trkpt lat="45.13901" lon="6.34894">
        <ele>2586.8</ele>
        <time>2021-02-28T07:37:53Z</time>
      </trkpt>
      <trkpt lat="45.13901" lon="6.34894">
        <ele>2585.8</ele>
        <time>2021-02-28T07:37:54Z</time>
      </trkpt>
      <trkpt lat="45.13901" lon="6.34894">
        <ele>2586.2</ele>
        <time>2021-02-28T07:37:55Z</time>
      </trkpt>
      <trkpt lat="45.139" lon="6.34897">
        <ele>2586.8</ele>
        <time>2021-02-28T07:37:56Z</time>
      </trkpt>
      <trkpt lat="45.139" lon="6.34897">
        <ele>2587</ele>
        <time>2021-02-28T07:37:57Z</time>
      </trkpt>
      <trkpt lat="45.139" lon="6.34897">
        <ele>2586.8</ele>
        <time>2021-02-28T07:37:58Z</time>
      </trkpt>
      <trkpt lat="45.13899" lon="6.34901">
        <ele>2587</ele>
        <time>2021-02-28T07:37:59Z</time>
      </trkpt>
      <trkpt lat="45.13899" lon="6.34901">
        <ele>2587.2</ele>
        <time>2021-02-28T07:38:00Z</time>
      </trkpt>
      <trkpt lat="45.13898" lon="6.34903">
        <ele>2588</ele>
        <time>2021-02-28T07:38:01Z</time>
      </trkpt>
      <trkpt lat="45.13898" lon="6.34903">
        <ele>2588</ele>
        <time>2021-02-28T07:38:02Z</time>
      </trkpt>
      <trkpt lat="45.13896" lon="6.34906">
        <ele>2588</ele>
        <time>2021-02-28T07:38:03Z</time>
      </trkpt>
      <trkpt lat="45.13896" lon="6.34906">
        <ele>2588.2</ele>
        <time>2021-02-28T07:38:04Z</time>
      </trkpt>
      <trkpt lat="45.13895" lon="6.34908">
        <ele>2587.4</ele>
        <time>2021-02-28T07:38:05Z</time>
      </trkpt>
      <trkpt lat="45.13895" lon="6.34908">
        <ele>2587.6</ele>
        <time>2021-02-28T07:38:06Z</time>
      </trkpt>
      <trkpt lat="45.13894" lon="6.34911">
        <ele>2588.2</ele>
        <time>2021-02-28T07:38:07Z</time>
      </trkpt>
      <trkpt lat="45.13894" lon="6.34911">
        <ele>2588.8</ele>
        <time>2021-02-28T07:38:08Z</time>
      </trkpt>
      <trkpt lat="45.13893" lon="6.34913">
        <ele>2589</ele>
        <time>2021-02-28T07:38:09Z</time>
      </trkpt>
      <trkpt lat="45.13893" lon="6.34913">
        <ele>2589.6</ele>
        <time>2021-02-28T07:38:10Z</time>
      </trkpt>
      <trkpt lat="45.13892" lon="6.34916">
        <ele>2589.6</ele>
        <time>2021-02-28T07:38:11Z</time>
      </trkpt>
      <trkpt lat="45.13892" lon="6.34916">
        <ele>2590</ele>
        <time>2021-02-28T07:38:12Z</time>
      </trkpt>
      <trkpt lat="45.13892" lon="6.34916">
        <ele>2590</ele>
        <time>2021-02-28T07:38:13Z</time>
      </trkpt>
      <trkpt lat="45.1389" lon="6.34919">
        <ele>2590</ele>
        <time>2021-02-28T07:38:14Z</time>
      </trkpt>
      <trkpt lat="45.1389" lon="6.34919">
        <ele>2589.4</ele>
        <time>2021-02-28T07:38:15Z</time>
      </trkpt>
      <trkpt lat="45.13889" lon="6.34922">
        <ele>2590</ele>
        <time>2021-02-28T07:38:16Z</time>
      </trkpt>
      <trkpt lat="45.13889" lon="6.34922">
        <ele>2589.8</ele>
        <time>2021-02-28T07:38:17Z</time>
      </trkpt>
      <trkpt lat="45.13888" lon="6.34925">
        <ele>2590.8</ele>
        <time>2021-02-28T07:38:18Z</time>
      </trkpt>
      <trkpt lat="45.13888" lon="6.34925">
        <ele>2591</ele>
        <time>2021-02-28T07:38:19Z</time>
      </trkpt>
      <trkpt lat="45.13887" lon="6.34928">
        <ele>2591.2</ele>
        <time>2021-02-28T07:38:20Z</time>
      </trkpt>
      <trkpt lat="45.13887" lon="6.34928">
        <ele>2591</ele>
        <time>2021-02-28T07:38:21Z</time>
      </trkpt>
      <trkpt lat="45.13886" lon="6.34931">
        <ele>2591.2</ele>
        <time>2021-02-28T07:38:22Z</time>
      </trkpt>
      <trkpt lat="45.13886" lon="6.34931">
        <ele>2591.6</ele>
        <time>2021-02-28T07:38:23Z</time>
      </trkpt>
      <trkpt lat="45.13886" lon="6.34934">
        <ele>2591.6</ele>
        <time>2021-02-28T07:38:24Z</time>
      </trkpt>
      <trkpt lat="45.13886" lon="6.34934">
        <ele>2590.8</ele>
        <time>2021-02-28T07:38:25Z</time>
      </trkpt>
      <trkpt lat="45.13885" lon="6.34936">
        <ele>2591.2</ele>
        <time>2021-02-28T07:38:26Z</time>
      </trkpt>
      <trkpt lat="45.13885" lon="6.34936">
        <ele>2591.8</ele>
        <time>2021-02-28T07:38:27Z</time>
      </trkpt>
      <trkpt lat="45.13884" lon="6.34939">
        <ele>2592.4</ele>
        <time>2021-02-28T07:38:28Z</time>
      </trkpt>
      <trkpt lat="45.13884" lon="6.34939">
        <ele>2591.8</ele>
        <time>2021-02-28T07:38:29Z</time>
      </trkpt>
      <trkpt lat="45.13883" lon="6.34942">
        <ele>2592.4</ele>
        <time>2021-02-28T07:38:30Z</time>
      </trkpt>
      <trkpt lat="45.13883" lon="6.34942">
        <ele>2592.8</ele>
        <time>2021-02-28T07:38:31Z</time>
      </trkpt>
      <trkpt lat="45.13883" lon="6.34945">
        <ele>2592.8</ele>
        <time>2021-02-28T07:38:32Z</time>
      </trkpt>
      <trkpt lat="45.13883" lon="6.34945">
        <ele>2592.8</ele>
        <time>2021-02-28T07:38:33Z</time>
      </trkpt>
      <trkpt lat="45.13882" lon="6.34948">
        <ele>2593.2</ele>
        <time>2021-02-28T07:38:34Z</time>
      </trkpt>
      <trkpt lat="45.13882" lon="6.34948">
        <ele>2593.6</ele>
        <time>2021-02-28T07:38:35Z</time>
      </trkpt>
      <trkpt lat="45.13882" lon="6.3495">
        <ele>2593</ele>
        <time>2021-02-28T07:38:36Z</time>
      </trkpt>
      <trkpt lat="45.13882" lon="6.3495">
        <ele>2593.6</ele>
        <time>2021-02-28T07:38:37Z</time>
      </trkpt>
      <trkpt lat="45.13881" lon="6.34954">
        <ele>2593.8</ele>
        <time>2021-02-28T07:38:38Z</time>
      </trkpt>
      <trkpt lat="45.13881" lon="6.34954">
        <ele>2594.2</ele>
        <time>2021-02-28T07:38:39Z</time>
      </trkpt>
      <trkpt lat="45.1388" lon="6.34957">
        <ele>2594</ele>
        <time>2021-02-28T07:38:40Z</time>
      </trkpt>
      <trkpt lat="45.1388" lon="6.34957">
        <ele>2594</ele>
        <time>2021-02-28T07:38:41Z</time>
      </trkpt>
      <trkpt lat="45.13881" lon="6.3496">
        <ele>2594.2</ele>
        <time>2021-02-28T07:38:42Z</time>
      </trkpt>
      <trkpt lat="45.13881" lon="6.3496">
        <ele>2593.8</ele>
        <time>2021-02-28T07:38:43Z</time>
      </trkpt>
      <trkpt lat="45.13881" lon="6.34964">
        <ele>2594.4</ele>
        <time>2021-02-28T07:38:44Z</time>
      </trkpt>
      <trkpt lat="45.13881" lon="6.34964">
        <ele>2595</ele>
        <time>2021-02-28T07:38:45Z</time>
      </trkpt>
      <trkpt lat="45.13881" lon="6.34967">
        <ele>2594.6</ele>
        <time>2021-02-28T07:38:46Z</time>
      </trkpt>
      <trkpt lat="45.13881" lon="6.34967">
        <ele>2594</ele>
        <time>2021-02-28T07:38:47Z</time>
      </trkpt>
      <trkpt lat="45.13882" lon="6.3497">
        <ele>2594.4</ele>
        <time>2021-02-28T07:38:48Z</time>
      </trkpt>
      <trkpt lat="45.13882" lon="6.3497">
        <ele>2594.8</ele>
        <time>2021-02-28T07:38:49Z</time>
      </trkpt>
      <trkpt lat="45.13882" lon="6.34973">
        <ele>2594.6</ele>
        <time>2021-02-28T07:38:50Z</time>
      </trkpt>
      <trkpt lat="45.13882" lon="6.34973">
        <ele>2594.6</ele>
        <time>2021-02-28T07:38:51Z</time>
      </trkpt>
      <trkpt lat="45.13882" lon="6.34977">
        <ele>2594.8</ele>
        <time>2021-02-28T07:38:52Z</time>
      </trkpt>
      <trkpt lat="45.13882" lon="6.34977">
        <ele>2595</ele>
        <time>2021-02-28T07:38:53Z</time>
      </trkpt>
      <trkpt lat="45.13883" lon="6.34979">
        <ele>2594.8</ele>
        <time>2021-02-28T07:38:54Z</time>
      </trkpt>
      <trkpt lat="45.13883" lon="6.34979">
        <ele>2595</ele>
        <time>2021-02-28T07:38:55Z</time>
      </trkpt>
      <trkpt lat="45.13884" lon="6.34982">
        <ele>2595.6</ele>
        <time>2021-02-28T07:38:56Z</time>
      </trkpt>
      <trkpt lat="45.13884" lon="6.34982">
        <ele>2595.6</ele>
        <time>2021-02-28T07:38:57Z</time>
      </trkpt>
      <trkpt lat="45.13885" lon="6.34985">
        <ele>2596</ele>
        <time>2021-02-28T07:38:58Z</time>
      </trkpt>
      <trkpt lat="45.13885" lon="6.34985">
        <ele>2596.2</ele>
        <time>2021-02-28T07:38:59Z</time>
      </trkpt>
      <trkpt lat="45.13885" lon="6.34989">
        <ele>2596.6</ele>
        <time>2021-02-28T07:39:00Z</time>
      </trkpt>
      <trkpt lat="45.13885" lon="6.34989">
        <ele>2597.6</ele>
        <time>2021-02-28T07:39:01Z</time>
      </trkpt>
      <trkpt lat="45.13887" lon="6.34992">
        <ele>2597.8</ele>
        <time>2021-02-28T07:39:02Z</time>
      </trkpt>
      <trkpt lat="45.13887" lon="6.34992">
        <ele>2598.2</ele>
        <time>2021-02-28T07:39:03Z</time>
      </trkpt>
      <trkpt lat="45.13888" lon="6.34995">
        <ele>2598</ele>
        <time>2021-02-28T07:39:04Z</time>
      </trkpt>
      <trkpt lat="45.13888" lon="6.34995">
        <ele>2597.8</ele>
        <time>2021-02-28T07:39:05Z</time>
      </trkpt>
      <trkpt lat="45.13889" lon="6.34998">
        <ele>2597.8</ele>
        <time>2021-02-28T07:39:06Z</time>
      </trkpt>
      <trkpt lat="45.13889" lon="6.34998">
        <ele>2597.8</ele>
        <time>2021-02-28T07:39:07Z</time>
      </trkpt>
      <trkpt lat="45.1389" lon="6.35001">
        <ele>2598</ele>
        <time>2021-02-28T07:39:08Z</time>
      </trkpt>
      <trkpt lat="45.1389" lon="6.35001">
        <ele>2598.2</ele>
        <time>2021-02-28T07:39:09Z</time>
      </trkpt>
      <trkpt lat="45.1389" lon="6.35004">
        <ele>2598.8</ele>
        <time>2021-02-28T07:39:10Z</time>
      </trkpt>
      <trkpt lat="45.1389" lon="6.35004">
        <ele>2598.4</ele>
        <time>2021-02-28T07:39:11Z</time>
      </trkpt>
      <trkpt lat="45.1389" lon="6.35004">
        <ele>2598.2</ele>
        <time>2021-02-28T07:39:12Z</time>
      </trkpt>
      <trkpt lat="45.13891" lon="6.35008">
        <ele>2598.6</ele>
        <time>2021-02-28T07:39:13Z</time>
      </trkpt>
      <trkpt lat="45.13891" lon="6.35008">
        <ele>2598.2</ele>
        <time>2021-02-28T07:39:14Z</time>
      </trkpt>
      <trkpt lat="45.13891" lon="6.35008">
        <ele>2597.6</ele>
        <time>2021-02-28T07:39:15Z</time>
      </trkpt>
      <trkpt lat="45.13892" lon="6.35012">
        <ele>2598.6</ele>
        <time>2021-02-28T07:39:16Z</time>
      </trkpt>
      <trkpt lat="45.13892" lon="6.35012">
        <ele>2598.8</ele>
        <time>2021-02-28T07:39:17Z</time>
      </trkpt>
      <trkpt lat="45.13892" lon="6.35012">
        <ele>2598.6</ele>
        <time>2021-02-28T07:39:18Z</time>
      </trkpt>
      <trkpt lat="45.13892" lon="6.35012">
        <ele>2599.4</ele>
        <time>2021-02-28T07:39:19Z</time>
      </trkpt>
      <trkpt lat="45.13892" lon="6.35016">
        <ele>2599</ele>
        <time>2021-02-28T07:39:20Z</time>
      </trkpt>
      <trkpt lat="45.13892" lon="6.35016">
        <ele>2599.4</ele>
        <time>2021-02-28T07:39:21Z</time>
      </trkpt>
      <trkpt lat="45.13892" lon="6.35016">
        <ele>2598.8</ele>
        <time>2021-02-28T07:39:22Z</time>
      </trkpt>
      <trkpt lat="45.13892" lon="6.35016">
        <ele>2599.2</ele>
        <time>2021-02-28T07:39:23Z</time>
      </trkpt>
      <trkpt lat="45.13892" lon="6.35016">
        <ele>2599.4</ele>
        <time>2021-02-28T07:39:24Z</time>
      </trkpt>
      <trkpt lat="45.13892" lon="6.35016">
        <ele>2599.4</ele>
        <time>2021-02-28T07:39:25Z</time>
      </trkpt>
      <trkpt lat="45.13892" lon="6.35016">
        <ele>2599.6</ele>
        <time>2021-02-28T07:39:26Z</time>
      </trkpt>
      <trkpt lat="45.13892" lon="6.35016">
        <ele>2599</ele>
        <time>2021-02-28T07:39:27Z</time>
      </trkpt>
      <trkpt lat="45.13892" lon="6.35016">
        <ele>2599.6</ele>
        <time>2021-02-28T07:39:28Z</time>
      </trkpt>
      <trkpt lat="45.13892" lon="6.35016">
        <ele>2599.6</ele>
        <time>2021-02-28T07:39:29Z</time>
      </trkpt>
      <trkpt lat="45.13892" lon="6.35016">
        <ele>2600</ele>
        <time>2021-02-28T07:39:30Z</time>
      </trkpt>
      <trkpt lat="45.13892" lon="6.35016">
        <ele>2600.2</ele>
        <time>2021-02-28T07:39:31Z</time>
      </trkpt>
      <trkpt lat="45.13892" lon="6.35016">
        <ele>2600.4</ele>
        <time>2021-02-28T07:39:32Z</time>
      </trkpt>
      <trkpt lat="45.13892" lon="6.35016">
        <ele>2600.6</ele>
        <time>2021-02-28T07:39:33Z</time>
      </trkpt>
      <trkpt lat="45.13892" lon="6.35016">
        <ele>2600.8</ele>
        <time>2021-02-28T07:39:34Z</time>
      </trkpt>
      <trkpt lat="45.13892" lon="6.35016">
        <ele>2600.6</ele>
        <time>2021-02-28T07:39:35Z</time>
      </trkpt>
      <trkpt lat="45.13892" lon="6.35016">
        <ele>2600.2</ele>
        <time>2021-02-28T07:39:36Z</time>
      </trkpt>
      <trkpt lat="45.13892" lon="6.35016">
        <ele>2600.2</ele>
        <time>2021-02-28T07:39:37Z</time>
      </trkpt>
      <trkpt lat="45.13892" lon="6.35016">
        <ele>2600.4</ele>
        <time>2021-02-28T07:39:38Z</time>
      </trkpt>
      <trkpt lat="45.13892" lon="6.35016">
        <ele>2600.4</ele>
        <time>2021-02-28T07:39:39Z</time>
      </trkpt>
      <trkpt lat="45.13892" lon="6.35016">
        <ele>2600.4</ele>
        <time>2021-02-28T07:39:40Z</time>
      </trkpt>
      <trkpt lat="45.13892" lon="6.35016">
        <ele>2600.4</ele>
        <time>2021-02-28T07:39:41Z</time>
      </trkpt>
      <trkpt lat="45.13892" lon="6.35016">
        <ele>2600.4</ele>
        <time>2021-02-28T07:39:42Z</time>
      </trkpt>
      <trkpt lat="45.13892" lon="6.35016">
        <ele>2600.4</ele>
        <time>2021-02-28T07:39:43Z</time>
      </trkpt>
      <trkpt lat="45.13892" lon="6.35016">
        <ele>2600.6</ele>
        <time>2021-02-28T07:39:44Z</time>
      </trkpt>
      <trkpt lat="45.13892" lon="6.35016">
        <ele>2600.2</ele>
        <time>2021-02-28T07:39:45Z</time>
      </trkpt>
      <trkpt lat="45.13892" lon="6.35016">
        <ele>2600.4</ele>
        <time>2021-02-28T07:39:46Z</time>
      </trkpt>
      <trkpt lat="45.13892" lon="6.35016">
        <ele>2600</ele>
        <time>2021-02-28T07:39:47Z</time>
      </trkpt>
      <trkpt lat="45.13892" lon="6.35016">
        <ele>2600.2</ele>
        <time>2021-02-28T07:39:48Z</time>
      </trkpt>
      <trkpt lat="45.13892" lon="6.35016">
        <ele>2599.6</ele>
        <time>2021-02-28T07:39:49Z</time>
      </trkpt>
      <trkpt lat="45.13892" lon="6.35016">
        <ele>2600</ele>
        <time>2021-02-28T07:39:50Z</time>
      </trkpt>
      <trkpt lat="45.13894" lon="6.35018">
        <ele>2600.6</ele>
        <time>2021-02-28T07:39:51Z</time>
      </trkpt>
      <trkpt lat="45.13894" lon="6.35018">
        <ele>2600.4</ele>
        <time>2021-02-28T07:39:52Z</time>
      </trkpt>
      <trkpt lat="45.13894" lon="6.35018">
        <ele>2599.2</ele>
        <time>2021-02-28T07:39:53Z</time>
      </trkpt>
      <trkpt lat="45.13894" lon="6.35018">
        <ele>2600</ele>
        <time>2021-02-28T07:39:54Z</time>
      </trkpt>
      <trkpt lat="45.13894" lon="6.35018">
        <ele>2600.6</ele>
        <time>2021-02-28T07:39:55Z</time>
      </trkpt>
      <trkpt lat="45.13894" lon="6.35018">
        <ele>2600.4</ele>
        <time>2021-02-28T07:39:56Z</time>
      </trkpt>
      <trkpt lat="45.13894" lon="6.35018">
        <ele>2600</ele>
        <time>2021-02-28T07:39:57Z</time>
      </trkpt>
      <trkpt lat="45.13894" lon="6.35018">
        <ele>2599.8</ele>
        <time>2021-02-28T07:39:58Z</time>
      </trkpt>
      <trkpt lat="45.13894" lon="6.35018">
        <ele>2599.8</ele>
        <time>2021-02-28T07:39:59Z</time>
      </trkpt>
      <trkpt lat="45.13894" lon="6.35018">
        <ele>2599.2</ele>
        <time>2021-02-28T07:40:00Z</time>
      </trkpt>
      <trkpt lat="45.13895" lon="6.35021">
        <ele>2599.8</ele>
        <time>2021-02-28T07:40:01Z</time>
      </trkpt>
      <trkpt lat="45.13895" lon="6.35021">
        <ele>2600</ele>
        <time>2021-02-28T07:40:02Z</time>
      </trkpt>
      <trkpt lat="45.13895" lon="6.35021">
        <ele>2599</ele>
        <time>2021-02-28T07:40:03Z</time>
      </trkpt>
      <trkpt lat="45.13896" lon="6.35024">
        <ele>2599.6</ele>
        <time>2021-02-28T07:40:04Z</time>
      </trkpt>
      <trkpt lat="45.13896" lon="6.35024">
        <ele>2599.8</ele>
        <time>2021-02-28T07:40:05Z</time>
      </trkpt>
      <trkpt lat="45.13896" lon="6.35024">
        <ele>2599.8</ele>
        <time>2021-02-28T07:40:06Z</time>
      </trkpt>
      <trkpt lat="45.13896" lon="6.35024">
        <ele>2600.8</ele>
        <time>2021-02-28T07:40:07Z</time>
      </trkpt>
      <trkpt lat="45.13896" lon="6.35024">
        <ele>2600.6</ele>
        <time>2021-02-28T07:40:08Z</time>
      </trkpt>
      <trkpt lat="45.13895" lon="6.35027">
        <ele>2599.8</ele>
        <time>2021-02-28T07:40:09Z</time>
      </trkpt>
      <trkpt lat="45.13895" lon="6.35027">
        <ele>2600.6</ele>
        <time>2021-02-28T07:40:10Z</time>
      </trkpt>
      <trkpt lat="45.13893" lon="6.35027">
        <ele>2600.8</ele>
        <time>2021-02-28T07:40:11Z</time>
      </trkpt>
      <trkpt lat="45.13893" lon="6.35027">
        <ele>2600.6</ele>
        <time>2021-02-28T07:40:12Z</time>
      </trkpt>
      <trkpt lat="45.13893" lon="6.35027">
        <ele>2600</ele>
        <time>2021-02-28T07:40:13Z</time>
      </trkpt>
      <trkpt lat="45.1389" lon="6.35026">
        <ele>2600.4</ele>
        <time>2021-02-28T07:40:14Z</time>
      </trkpt>
      <trkpt lat="45.1389" lon="6.35026">
        <ele>2601.2</ele>
        <time>2021-02-28T07:40:15Z</time>
      </trkpt>
      <trkpt lat="45.13888" lon="6.35025">
        <ele>2600.2</ele>
        <time>2021-02-28T07:40:16Z</time>
      </trkpt>
      <trkpt lat="45.13888" lon="6.35025">
        <ele>2600.8</ele>
        <time>2021-02-28T07:40:17Z</time>
      </trkpt>
      <trkpt lat="45.13886" lon="6.35024">
        <ele>2601</ele>
        <time>2021-02-28T07:40:18Z</time>
      </trkpt>
      <trkpt lat="45.13886" lon="6.35024">
        <ele>2601.4</ele>
        <time>2021-02-28T07:40:19Z</time>
      </trkpt>
      <trkpt lat="45.13886" lon="6.35024">
        <ele>2602</ele>
        <time>2021-02-28T07:40:20Z</time>
      </trkpt>
      <trkpt lat="45.13886" lon="6.35024">
        <ele>2602.4</ele>
        <time>2021-02-28T07:40:21Z</time>
      </trkpt>
      <trkpt lat="45.13883" lon="6.35022">
        <ele>2602.8</ele>
        <time>2021-02-28T07:40:22Z</time>
      </trkpt>
      <trkpt lat="45.13883" lon="6.35022">
        <ele>2603.2</ele>
        <time>2021-02-28T07:40:23Z</time>
      </trkpt>
      <trkpt lat="45.13883" lon="6.35022">
        <ele>2603.4</ele>
        <time>2021-02-28T07:40:24Z</time>
      </trkpt>
      <trkpt lat="45.1388" lon="6.3502">
        <ele>2603.4</ele>
        <time>2021-02-28T07:40:25Z</time>
      </trkpt>
      <trkpt lat="45.1388" lon="6.3502">
        <ele>2603.8</ele>
        <time>2021-02-28T07:40:26Z</time>
      </trkpt>
      <trkpt lat="45.13878" lon="6.35018">
        <ele>2603.8</ele>
        <time>2021-02-28T07:40:27Z</time>
      </trkpt>
      <trkpt lat="45.13878" lon="6.35018">
        <ele>2604</ele>
        <time>2021-02-28T07:40:28Z</time>
      </trkpt>
      <trkpt lat="45.13876" lon="6.35016">
        <ele>2604.6</ele>
        <time>2021-02-28T07:40:29Z</time>
      </trkpt>
      <trkpt lat="45.13876" lon="6.35016">
        <ele>2604.8</ele>
        <time>2021-02-28T07:40:30Z</time>
      </trkpt>
      <trkpt lat="45.13874" lon="6.35015">
        <ele>2605.4</ele>
        <time>2021-02-28T07:40:31Z</time>
      </trkpt>
      <trkpt lat="45.13874" lon="6.35015">
        <ele>2605.8</ele>
        <time>2021-02-28T07:40:32Z</time>
      </trkpt>
      <trkpt lat="45.13872" lon="6.35013">
        <ele>2606</ele>
        <time>2021-02-28T07:40:33Z</time>
      </trkpt>
      <trkpt lat="45.13872" lon="6.35013">
        <ele>2606.6</ele>
        <time>2021-02-28T07:40:34Z</time>
      </trkpt>
      <trkpt lat="45.13872" lon="6.35013">
        <ele>2607.2</ele>
        <time>2021-02-28T07:40:35Z</time>
      </trkpt>
      <trkpt lat="45.1387" lon="6.35011">
        <ele>2606.8</ele>
        <time>2021-02-28T07:40:36Z</time>
      </trkpt>
      <trkpt lat="45.1387" lon="6.35011">
        <ele>2607.6</ele>
        <time>2021-02-28T07:40:37Z</time>
      </trkpt>
      <trkpt lat="45.1387" lon="6.35011">
        <ele>2608</ele>
        <time>2021-02-28T07:40:38Z</time>
      </trkpt>
      <trkpt lat="45.1387" lon="6.35011">
        <ele>2607.8</ele>
        <time>2021-02-28T07:40:39Z</time>
      </trkpt>
      <trkpt lat="45.13872" lon="6.35015">
        <ele>2607.2</ele>
        <time>2021-02-28T07:40:40Z</time>
      </trkpt>
      <trkpt lat="45.13872" lon="6.35015">
        <ele>2607.2</ele>
        <time>2021-02-28T07:40:41Z</time>
      </trkpt>
      <trkpt lat="45.13872" lon="6.35018">
        <ele>2607.4</ele>
        <time>2021-02-28T07:40:42Z</time>
      </trkpt>
      <trkpt lat="45.13872" lon="6.35018">
        <ele>2607.6</ele>
        <time>2021-02-28T07:40:43Z</time>
      </trkpt>
      <trkpt lat="45.13873" lon="6.3502">
        <ele>2607.2</ele>
        <time>2021-02-28T07:40:44Z</time>
      </trkpt>
      <trkpt lat="45.13873" lon="6.3502">
        <ele>2607.4</ele>
        <time>2021-02-28T07:40:45Z</time>
      </trkpt>
      <trkpt lat="45.13875" lon="6.35024">
        <ele>2607.6</ele>
        <time>2021-02-28T07:40:46Z</time>
      </trkpt>
      <trkpt lat="45.13875" lon="6.35024">
        <ele>2608</ele>
        <time>2021-02-28T07:40:47Z</time>
      </trkpt>
      <trkpt lat="45.13876" lon="6.35027">
        <ele>2607.8</ele>
        <time>2021-02-28T07:40:48Z</time>
      </trkpt>
      <trkpt lat="45.13876" lon="6.35027">
        <ele>2608.2</ele>
        <time>2021-02-28T07:40:49Z</time>
      </trkpt>
      <trkpt lat="45.13878" lon="6.35031">
        <ele>2608.6</ele>
        <time>2021-02-28T07:40:50Z</time>
      </trkpt>
      <trkpt lat="45.13878" lon="6.35031">
        <ele>2609.2</ele>
        <time>2021-02-28T07:40:51Z</time>
      </trkpt>
      <trkpt lat="45.13879" lon="6.35034">
        <ele>2609</ele>
        <time>2021-02-28T07:40:52Z</time>
      </trkpt>
      <trkpt lat="45.13879" lon="6.35034">
        <ele>2609.4</ele>
        <time>2021-02-28T07:40:53Z</time>
      </trkpt>
      <trkpt lat="45.1388" lon="6.35038">
        <ele>2609.8</ele>
        <time>2021-02-28T07:40:54Z</time>
      </trkpt>
      <trkpt lat="45.1388" lon="6.35038">
        <ele>2610</ele>
        <time>2021-02-28T07:40:55Z</time>
      </trkpt>
      <trkpt lat="45.1388" lon="6.3504">
        <ele>2610.4</ele>
        <time>2021-02-28T07:40:56Z</time>
      </trkpt>
      <trkpt lat="45.1388" lon="6.3504">
        <ele>2610.8</ele>
        <time>2021-02-28T07:40:57Z</time>
      </trkpt>
      <trkpt lat="45.1388" lon="6.3504">
        <ele>2610.6</ele>
        <time>2021-02-28T07:40:58Z</time>
      </trkpt>
      <trkpt lat="45.13881" lon="6.35044">
        <ele>2610</ele>
        <time>2021-02-28T07:40:59Z</time>
      </trkpt>
      <trkpt lat="45.13881" lon="6.35044">
        <ele>2610.6</ele>
        <time>2021-02-28T07:41:00Z</time>
      </trkpt>
      <trkpt lat="45.13882" lon="6.35047">
        <ele>2610.8</ele>
        <time>2021-02-28T07:41:01Z</time>
      </trkpt>
      <trkpt lat="45.13882" lon="6.35047">
        <ele>2611</ele>
        <time>2021-02-28T07:41:02Z</time>
      </trkpt>
      <trkpt lat="45.13882" lon="6.35047">
        <ele>2610.8</ele>
        <time>2021-02-28T07:41:03Z</time>
      </trkpt>
      <trkpt lat="45.13884" lon="6.35051">
        <ele>2610.8</ele>
        <time>2021-02-28T07:41:04Z</time>
      </trkpt>
      <trkpt lat="45.13884" lon="6.35051">
        <ele>2611.6</ele>
        <time>2021-02-28T07:41:05Z</time>
      </trkpt>
      <trkpt lat="45.13886" lon="6.35053">
        <ele>2612</ele>
        <time>2021-02-28T07:41:06Z</time>
      </trkpt>
      <trkpt lat="45.13886" lon="6.35053">
        <ele>2611.8</ele>
        <time>2021-02-28T07:41:07Z</time>
      </trkpt>
      <trkpt lat="45.13886" lon="6.35053">
        <ele>2612.4</ele>
        <time>2021-02-28T07:41:08Z</time>
      </trkpt>
      <trkpt lat="45.13886" lon="6.35053">
        <ele>2612.6</ele>
        <time>2021-02-28T07:41:09Z</time>
      </trkpt>
      <trkpt lat="45.13886" lon="6.35053">
        <ele>2612.8</ele>
        <time>2021-02-28T07:41:10Z</time>
      </trkpt>
      <trkpt lat="45.13888" lon="6.35056">
        <ele>2612.8</ele>
        <time>2021-02-28T07:41:11Z</time>
      </trkpt>
      <trkpt lat="45.13888" lon="6.35056">
        <ele>2613.8</ele>
        <time>2021-02-28T07:41:12Z</time>
      </trkpt>
      <trkpt lat="45.13888" lon="6.35056">
        <ele>2614.4</ele>
        <time>2021-02-28T07:41:13Z</time>
      </trkpt>
      <trkpt lat="45.13888" lon="6.35056">
        <ele>2614.2</ele>
        <time>2021-02-28T07:41:14Z</time>
      </trkpt>
      <trkpt lat="45.1389" lon="6.35058">
        <ele>2615</ele>
        <time>2021-02-28T07:41:15Z</time>
      </trkpt>
      <trkpt lat="45.1389" lon="6.35058">
        <ele>2616.2</ele>
        <time>2021-02-28T07:41:16Z</time>
      </trkpt>
      <trkpt lat="45.1389" lon="6.35058">
        <ele>2616.8</ele>
        <time>2021-02-28T07:41:17Z</time>
      </trkpt>
      <trkpt lat="45.13891" lon="6.3506">
        <ele>2617.2</ele>
        <time>2021-02-28T07:41:18Z</time>
      </trkpt>
      <trkpt lat="45.13891" lon="6.3506">
        <ele>2617.8</ele>
        <time>2021-02-28T07:41:19Z</time>
      </trkpt>
      <trkpt lat="45.13891" lon="6.3506">
        <ele>2618</ele>
        <time>2021-02-28T07:41:20Z</time>
      </trkpt>
      <trkpt lat="45.13892" lon="6.35063">
        <ele>2618.2</ele>
        <time>2021-02-28T07:41:21Z</time>
      </trkpt>
      <trkpt lat="45.13892" lon="6.35063">
        <ele>2619.4</ele>
        <time>2021-02-28T07:41:22Z</time>
      </trkpt>
      <trkpt lat="45.13892" lon="6.35063">
        <ele>2620</ele>
        <time>2021-02-28T07:41:23Z</time>
      </trkpt>
      <trkpt lat="45.13892" lon="6.35068">
        <ele>2619.8</ele>
        <time>2021-02-28T07:41:24Z</time>
      </trkpt>
      <trkpt lat="45.13892" lon="6.35068">
        <ele>2620.2</ele>
        <time>2021-02-28T07:41:25Z</time>
      </trkpt>
      <trkpt lat="45.13892" lon="6.35071">
        <ele>2620.6</ele>
        <time>2021-02-28T07:41:26Z</time>
      </trkpt>
      <trkpt lat="45.13892" lon="6.35071">
        <ele>2620.2</ele>
        <time>2021-02-28T07:41:27Z</time>
      </trkpt>
      <trkpt lat="45.13892" lon="6.35074">
        <ele>2620.4</ele>
        <time>2021-02-28T07:41:28Z</time>
      </trkpt>
      <trkpt lat="45.13892" lon="6.35074">
        <ele>2620.6</ele>
        <time>2021-02-28T07:41:29Z</time>
      </trkpt>
      <trkpt lat="45.13892" lon="6.35076">
        <ele>2619.4</ele>
        <time>2021-02-28T07:41:30Z</time>
      </trkpt>
      <trkpt lat="45.13892" lon="6.35076">
        <ele>2619.2</ele>
        <time>2021-02-28T07:41:31Z</time>
      </trkpt>
      <trkpt lat="45.13892" lon="6.3508">
        <ele>2618.2</ele>
        <time>2021-02-28T07:41:32Z</time>
      </trkpt>
      <trkpt lat="45.13892" lon="6.3508">
        <ele>2617.4</ele>
        <time>2021-02-28T07:41:33Z</time>
      </trkpt>
      <trkpt lat="45.13892" lon="6.35083">
        <ele>2617</ele>
        <time>2021-02-28T07:41:34Z</time>
      </trkpt>
      <trkpt lat="45.13892" lon="6.35083">
        <ele>2616.8</ele>
        <time>2021-02-28T07:41:35Z</time>
      </trkpt>
      <trkpt lat="45.13892" lon="6.35087">
        <ele>2617</ele>
        <time>2021-02-28T07:41:36Z</time>
      </trkpt>
      <trkpt lat="45.13892" lon="6.35087">
        <ele>2616.4</ele>
        <time>2021-02-28T07:41:37Z</time>
      </trkpt>
      <trkpt lat="45.13892" lon="6.3509">
        <ele>2616.2</ele>
        <time>2021-02-28T07:41:38Z</time>
      </trkpt>
      <trkpt lat="45.13892" lon="6.3509">
        <ele>2616.8</ele>
        <time>2021-02-28T07:41:39Z</time>
      </trkpt>
      <trkpt lat="45.13891" lon="6.35093">
        <ele>2616.8</ele>
        <time>2021-02-28T07:41:40Z</time>
      </trkpt>
      <trkpt lat="45.13891" lon="6.35093">
        <ele>2616.4</ele>
        <time>2021-02-28T07:41:41Z</time>
      </trkpt>
      <trkpt lat="45.13891" lon="6.35096">
        <ele>2616.4</ele>
        <time>2021-02-28T07:41:42Z</time>
      </trkpt>
      <trkpt lat="45.13891" lon="6.35096">
        <ele>2616.6</ele>
        <time>2021-02-28T07:41:43Z</time>
      </trkpt>
      <trkpt lat="45.13891" lon="6.35099">
        <ele>2616</ele>
        <time>2021-02-28T07:41:44Z</time>
      </trkpt>
      <trkpt lat="45.13891" lon="6.35099">
        <ele>2615.8</ele>
        <time>2021-02-28T07:41:45Z</time>
      </trkpt>
      <trkpt lat="45.13891" lon="6.35102">
        <ele>2616.4</ele>
        <time>2021-02-28T07:41:46Z</time>
      </trkpt>
      <trkpt lat="45.13891" lon="6.35102">
        <ele>2616.8</ele>
        <time>2021-02-28T07:41:47Z</time>
      </trkpt>
      <trkpt lat="45.13891" lon="6.35105">
        <ele>2616.8</ele>
        <time>2021-02-28T07:41:48Z</time>
      </trkpt>
      <trkpt lat="45.13891" lon="6.35105">
        <ele>2616.6</ele>
        <time>2021-02-28T07:41:49Z</time>
      </trkpt>
      <trkpt lat="45.13891" lon="6.35108">
        <ele>2617</ele>
        <time>2021-02-28T07:41:50Z</time>
      </trkpt>
      <trkpt lat="45.13891" lon="6.35108">
        <ele>2617.6</ele>
        <time>2021-02-28T07:41:51Z</time>
      </trkpt>
      <trkpt lat="45.13891" lon="6.35111">
        <ele>2618.2</ele>
        <time>2021-02-28T07:41:52Z</time>
      </trkpt>
      <trkpt lat="45.13891" lon="6.35111">
        <ele>2618.2</ele>
        <time>2021-02-28T07:41:53Z</time>
      </trkpt>
      <trkpt lat="45.13891" lon="6.35114">
        <ele>2618.2</ele>
        <time>2021-02-28T07:41:54Z</time>
      </trkpt>
      <trkpt lat="45.13891" lon="6.35114">
        <ele>2618.4</ele>
        <time>2021-02-28T07:41:55Z</time>
      </trkpt>
      <trkpt lat="45.13892" lon="6.35117">
        <ele>2618.4</ele>
        <time>2021-02-28T07:41:56Z</time>
      </trkpt>
      <trkpt lat="45.13892" lon="6.35117">
        <ele>2618.6</ele>
        <time>2021-02-28T07:41:57Z</time>
      </trkpt>
      <trkpt lat="45.13892" lon="6.35117">
        <ele>2618.6</ele>
        <time>2021-02-28T07:41:58Z</time>
      </trkpt>
      <trkpt lat="45.13893" lon="6.35121">
        <ele>2619</ele>
        <time>2021-02-28T07:41:59Z</time>
      </trkpt>
      <trkpt lat="45.13893" lon="6.35121">
        <ele>2619.2</ele>
        <time>2021-02-28T07:42:00Z</time>
      </trkpt>
      <trkpt lat="45.13893" lon="6.35121">
        <ele>2619.2</ele>
        <time>2021-02-28T07:42:01Z</time>
      </trkpt>
      <trkpt lat="45.13892" lon="6.35122">
        <ele>2619.6</ele>
        <time>2021-02-28T07:42:02Z</time>
      </trkpt>
      <trkpt lat="45.13892" lon="6.35124">
        <ele>2619.8</ele>
        <time>2021-02-28T07:42:03Z</time>
      </trkpt>
      <trkpt lat="45.13891" lon="6.35125">
        <ele>2620</ele>
        <time>2021-02-28T07:42:04Z</time>
      </trkpt>
      <trkpt lat="45.13891" lon="6.35126">
        <ele>2619.8</ele>
        <time>2021-02-28T07:42:05Z</time>
      </trkpt>
      <trkpt lat="45.13891" lon="6.35128">
        <ele>2620.2</ele>
        <time>2021-02-28T07:42:06Z</time>
      </trkpt>
      <trkpt lat="45.1389" lon="6.35129">
        <ele>2620.6</ele>
        <time>2021-02-28T07:42:07Z</time>
      </trkpt>
      <trkpt lat="45.1389" lon="6.3513">
        <ele>2620</ele>
        <time>2021-02-28T07:42:08Z</time>
      </trkpt>
      <trkpt lat="45.1389" lon="6.35132">
        <ele>2620.2</ele>
        <time>2021-02-28T07:42:09Z</time>
      </trkpt>
      <trkpt lat="45.13889" lon="6.35133">
        <ele>2620.6</ele>
        <time>2021-02-28T07:42:10Z</time>
      </trkpt>
      <trkpt lat="45.13889" lon="6.35134">
        <ele>2621</ele>
        <time>2021-02-28T07:42:11Z</time>
      </trkpt>
      <trkpt lat="45.13888" lon="6.35135">
        <ele>2621</ele>
        <time>2021-02-28T07:42:12Z</time>
      </trkpt>
      <trkpt lat="45.13888" lon="6.35137">
        <ele>2621.4</ele>
        <time>2021-02-28T07:42:13Z</time>
      </trkpt>
      <trkpt lat="45.13888" lon="6.35138">
        <ele>2621.6</ele>
        <time>2021-02-28T07:42:14Z</time>
      </trkpt>
      <trkpt lat="45.13887" lon="6.35139">
        <ele>2622.4</ele>
        <time>2021-02-28T07:42:15Z</time>
      </trkpt>
      <trkpt lat="45.13887" lon="6.3514">
        <ele>2622.4</ele>
        <time>2021-02-28T07:42:16Z</time>
      </trkpt>
      <trkpt lat="45.13887" lon="6.35141">
        <ele>2622.8</ele>
        <time>2021-02-28T07:42:17Z</time>
      </trkpt>
      <trkpt lat="45.13886" lon="6.35143">
        <ele>2622.8</ele>
        <time>2021-02-28T07:42:18Z</time>
      </trkpt>
      <trkpt lat="45.13886" lon="6.35144">
        <ele>2623</ele>
        <time>2021-02-28T07:42:19Z</time>
      </trkpt>
      <trkpt lat="45.13885" lon="6.35146">
        <ele>2622.6</ele>
        <time>2021-02-28T07:42:20Z</time>
      </trkpt>
      <trkpt lat="45.13884" lon="6.35148">
        <ele>2623.2</ele>
        <time>2021-02-28T07:42:21Z</time>
      </trkpt>
      <trkpt lat="45.13884" lon="6.35149">
        <ele>2623.4</ele>
        <time>2021-02-28T07:42:22Z</time>
      </trkpt>
      <trkpt lat="45.13883" lon="6.35151">
        <ele>2623.6</ele>
        <time>2021-02-28T07:42:23Z</time>
      </trkpt>
      <trkpt lat="45.13882" lon="6.35153">
        <ele>2623.8</ele>
        <time>2021-02-28T07:42:24Z</time>
      </trkpt>
      <trkpt lat="45.13882" lon="6.35154">
        <ele>2624.4</ele>
        <time>2021-02-28T07:42:25Z</time>
      </trkpt>
      <trkpt lat="45.13881" lon="6.35156">
        <ele>2624.6</ele>
        <time>2021-02-28T07:42:26Z</time>
      </trkpt>
      <trkpt lat="45.13881" lon="6.35156">
        <ele>2624.6</ele>
        <time>2021-02-28T07:42:27Z</time>
      </trkpt>
      <trkpt lat="45.13881" lon="6.35156">
        <ele>2625.2</ele>
        <time>2021-02-28T07:42:28Z</time>
      </trkpt>
      <trkpt lat="45.1388" lon="6.35159">
        <ele>2625.4</ele>
        <time>2021-02-28T07:42:29Z</time>
      </trkpt>
      <trkpt lat="45.1388" lon="6.35159">
        <ele>2625.2</ele>
        <time>2021-02-28T07:42:30Z</time>
      </trkpt>
      <trkpt lat="45.13878" lon="6.35161">
        <ele>2625.6</ele>
        <time>2021-02-28T07:42:31Z</time>
      </trkpt>
      <trkpt lat="45.13878" lon="6.35161">
        <ele>2625.2</ele>
        <time>2021-02-28T07:42:32Z</time>
      </trkpt>
      <trkpt lat="45.13877" lon="6.35164">
        <ele>2625.6</ele>
        <time>2021-02-28T07:42:33Z</time>
      </trkpt>
      <trkpt lat="45.13877" lon="6.35164">
        <ele>2625.2</ele>
        <time>2021-02-28T07:42:34Z</time>
      </trkpt>
      <trkpt lat="45.13876" lon="6.35167">
        <ele>2625.8</ele>
        <time>2021-02-28T07:42:35Z</time>
      </trkpt>
      <trkpt lat="45.13876" lon="6.35167">
        <ele>2626</ele>
        <time>2021-02-28T07:42:36Z</time>
      </trkpt>
      <trkpt lat="45.13875" lon="6.3517">
        <ele>2626.4</ele>
        <time>2021-02-28T07:42:37Z</time>
      </trkpt>
      <trkpt lat="45.13875" lon="6.3517">
        <ele>2626.2</ele>
        <time>2021-02-28T07:42:38Z</time>
      </trkpt>
      <trkpt lat="45.13875" lon="6.3517">
        <ele>2626.8</ele>
        <time>2021-02-28T07:42:39Z</time>
      </trkpt>
      <trkpt lat="45.13873" lon="6.35174">
        <ele>2627</ele>
        <time>2021-02-28T07:42:40Z</time>
      </trkpt>
      <trkpt lat="45.13873" lon="6.35174">
        <ele>2627</ele>
        <time>2021-02-28T07:42:41Z</time>
      </trkpt>
      <trkpt lat="45.13873" lon="6.35177">
        <ele>2626.6</ele>
        <time>2021-02-28T07:42:42Z</time>
      </trkpt>
      <trkpt lat="45.13873" lon="6.35177">
        <ele>2627.4</ele>
        <time>2021-02-28T07:42:43Z</time>
      </trkpt>
      <trkpt lat="45.13872" lon="6.35179">
        <ele>2627.8</ele>
        <time>2021-02-28T07:42:44Z</time>
      </trkpt>
      <trkpt lat="45.13872" lon="6.35179">
        <ele>2627.6</ele>
        <time>2021-02-28T07:42:45Z</time>
      </trkpt>
      <trkpt lat="45.13872" lon="6.35179">
        <ele>2626.4</ele>
        <time>2021-02-28T07:42:46Z</time>
      </trkpt>
      <trkpt lat="45.13871" lon="6.35183">
        <ele>2627</ele>
        <time>2021-02-28T07:42:47Z</time>
      </trkpt>
      <trkpt lat="45.13871" lon="6.35183">
        <ele>2627.6</ele>
        <time>2021-02-28T07:42:48Z</time>
      </trkpt>
      <trkpt lat="45.13871" lon="6.35183">
        <ele>2626.6</ele>
        <time>2021-02-28T07:42:49Z</time>
      </trkpt>
      <trkpt lat="45.1387" lon="6.35186">
        <ele>2627</ele>
        <time>2021-02-28T07:42:50Z</time>
      </trkpt>
      <trkpt lat="45.1387" lon="6.35186">
        <ele>2627.4</ele>
        <time>2021-02-28T07:42:51Z</time>
      </trkpt>
      <trkpt lat="45.1387" lon="6.35186">
        <ele>2627.6</ele>
        <time>2021-02-28T07:42:52Z</time>
      </trkpt>
      <trkpt lat="45.1387" lon="6.35186">
        <ele>2627.4</ele>
        <time>2021-02-28T07:42:53Z</time>
      </trkpt>
      <trkpt lat="45.13869" lon="6.35191">
        <ele>2627.8</ele>
        <time>2021-02-28T07:42:54Z</time>
      </trkpt>
      <trkpt lat="45.13869" lon="6.35191">
        <ele>2628.4</ele>
        <time>2021-02-28T07:42:55Z</time>
      </trkpt>
      <trkpt lat="45.13869" lon="6.35191">
        <ele>2628.6</ele>
        <time>2021-02-28T07:42:56Z</time>
      </trkpt>
      <trkpt lat="45.13869" lon="6.35192">
        <ele>2628.2</ele>
        <time>2021-02-28T07:42:57Z</time>
      </trkpt>
      <trkpt lat="45.13869" lon="6.35194">
        <ele>2628.6</ele>
        <time>2021-02-28T07:42:58Z</time>
      </trkpt>
      <trkpt lat="45.13868" lon="6.35195">
        <ele>2628.8</ele>
        <time>2021-02-28T07:42:59Z</time>
      </trkpt>
      <trkpt lat="45.13868" lon="6.35196">
        <ele>2627.8</ele>
        <time>2021-02-28T07:43:00Z</time>
      </trkpt>
      <trkpt lat="45.13868" lon="6.35198">
        <ele>2628.4</ele>
        <time>2021-02-28T07:43:01Z</time>
      </trkpt>
      <trkpt lat="45.13868" lon="6.35199">
        <ele>2629</ele>
        <time>2021-02-28T07:43:02Z</time>
      </trkpt>
      <trkpt lat="45.13869" lon="6.35201">
        <ele>2629.4</ele>
        <time>2021-02-28T07:43:03Z</time>
      </trkpt>
      <trkpt lat="45.13869" lon="6.35203">
        <ele>2629.2</ele>
        <time>2021-02-28T07:43:04Z</time>
      </trkpt>
      <trkpt lat="45.13869" lon="6.35205">
        <ele>2630.2</ele>
        <time>2021-02-28T07:43:05Z</time>
      </trkpt>
      <trkpt lat="45.13869" lon="6.35206">
        <ele>2630.4</ele>
        <time>2021-02-28T07:43:06Z</time>
      </trkpt>
      <trkpt lat="45.13869" lon="6.35206">
        <ele>2630</ele>
        <time>2021-02-28T07:43:07Z</time>
      </trkpt>
      <trkpt lat="45.13869" lon="6.35206">
        <ele>2630.4</ele>
        <time>2021-02-28T07:43:08Z</time>
      </trkpt>
      <trkpt lat="45.13869" lon="6.3521">
        <ele>2631</ele>
        <time>2021-02-28T07:43:09Z</time>
      </trkpt>
      <trkpt lat="45.13869" lon="6.3521">
        <ele>2630.6</ele>
        <time>2021-02-28T07:43:10Z</time>
      </trkpt>
      <trkpt lat="45.13869" lon="6.35212">
        <ele>2631</ele>
        <time>2021-02-28T07:43:11Z</time>
      </trkpt>
      <trkpt lat="45.13869" lon="6.35212">
        <ele>2631.2</ele>
        <time>2021-02-28T07:43:12Z</time>
      </trkpt>
      <trkpt lat="45.13869" lon="6.35212">
        <ele>2630.8</ele>
        <time>2021-02-28T07:43:13Z</time>
      </trkpt>
      <trkpt lat="45.13869" lon="6.35216">
        <ele>2631.2</ele>
        <time>2021-02-28T07:43:14Z</time>
      </trkpt>
      <trkpt lat="45.13869" lon="6.35216">
        <ele>2631.4</ele>
        <time>2021-02-28T07:43:15Z</time>
      </trkpt>
      <trkpt lat="45.13869" lon="6.35218">
        <ele>2631.4</ele>
        <time>2021-02-28T07:43:16Z</time>
      </trkpt>
      <trkpt lat="45.13869" lon="6.35218">
        <ele>2631.4</ele>
        <time>2021-02-28T07:43:17Z</time>
      </trkpt>
      <trkpt lat="45.1387" lon="6.35222">
        <ele>2632.2</ele>
        <time>2021-02-28T07:43:18Z</time>
      </trkpt>
      <trkpt lat="45.1387" lon="6.35222">
        <ele>2632.4</ele>
        <time>2021-02-28T07:43:19Z</time>
      </trkpt>
      <trkpt lat="45.1387" lon="6.35225">
        <ele>2632.2</ele>
        <time>2021-02-28T07:43:20Z</time>
      </trkpt>
      <trkpt lat="45.1387" lon="6.35225">
        <ele>2632.4</ele>
        <time>2021-02-28T07:43:21Z</time>
      </trkpt>
      <trkpt lat="45.1387" lon="6.35229">
        <ele>2632.6</ele>
        <time>2021-02-28T07:43:22Z</time>
      </trkpt>
      <trkpt lat="45.1387" lon="6.35229">
        <ele>2633</ele>
        <time>2021-02-28T07:43:23Z</time>
      </trkpt>
      <trkpt lat="45.1387" lon="6.35229">
        <ele>2633</ele>
        <time>2021-02-28T07:43:24Z</time>
      </trkpt>
      <trkpt lat="45.1387" lon="6.35233">
        <ele>2634</ele>
        <time>2021-02-28T07:43:25Z</time>
      </trkpt>
      <trkpt lat="45.1387" lon="6.35233">
        <ele>2634.6</ele>
        <time>2021-02-28T07:43:26Z</time>
      </trkpt>
      <trkpt lat="45.1387" lon="6.35236">
        <ele>2634.8</ele>
        <time>2021-02-28T07:43:27Z</time>
      </trkpt>
      <trkpt lat="45.1387" lon="6.35236">
        <ele>2635.2</ele>
        <time>2021-02-28T07:43:28Z</time>
      </trkpt>
      <trkpt lat="45.1387" lon="6.35239">
        <ele>2635.6</ele>
        <time>2021-02-28T07:43:29Z</time>
      </trkpt>
      <trkpt lat="45.1387" lon="6.35239">
        <ele>2635.4</ele>
        <time>2021-02-28T07:43:30Z</time>
      </trkpt>
      <trkpt lat="45.1387" lon="6.35239">
        <ele>2636</ele>
        <time>2021-02-28T07:43:31Z</time>
      </trkpt>
      <trkpt lat="45.1387" lon="6.35244">
        <ele>2636.4</ele>
        <time>2021-02-28T07:43:32Z</time>
      </trkpt>
      <trkpt lat="45.1387" lon="6.35244">
        <ele>2636.6</ele>
        <time>2021-02-28T07:43:33Z</time>
      </trkpt>
      <trkpt lat="45.1387" lon="6.35244">
        <ele>2636.6</ele>
        <time>2021-02-28T07:43:34Z</time>
      </trkpt>
      <trkpt lat="45.1387" lon="6.35247">
        <ele>2637.2</ele>
        <time>2021-02-28T07:43:35Z</time>
      </trkpt>
      <trkpt lat="45.1387" lon="6.35247">
        <ele>2636.6</ele>
        <time>2021-02-28T07:43:36Z</time>
      </trkpt>
      <trkpt lat="45.1387" lon="6.35247">
        <ele>2636.2</ele>
        <time>2021-02-28T07:43:37Z</time>
      </trkpt>
      <trkpt lat="45.13871" lon="6.35251">
        <ele>2636.8</ele>
        <time>2021-02-28T07:43:38Z</time>
      </trkpt>
      <trkpt lat="45.13871" lon="6.35251">
        <ele>2637.4</ele>
        <time>2021-02-28T07:43:39Z</time>
      </trkpt>
      <trkpt lat="45.13872" lon="6.35254">
        <ele>2637.6</ele>
        <time>2021-02-28T07:43:40Z</time>
      </trkpt>
      <trkpt lat="45.13872" lon="6.35254">
        <ele>2637.8</ele>
        <time>2021-02-28T07:43:41Z</time>
      </trkpt>
      <trkpt lat="45.13872" lon="6.35256">
        <ele>2638</ele>
        <time>2021-02-28T07:43:42Z</time>
      </trkpt>
      <trkpt lat="45.13872" lon="6.35256">
        <ele>2638.4</ele>
        <time>2021-02-28T07:43:43Z</time>
      </trkpt>
      <trkpt lat="45.13872" lon="6.35256">
        <ele>2638.4</ele>
        <time>2021-02-28T07:43:44Z</time>
      </trkpt>
      <trkpt lat="45.13873" lon="6.3526">
        <ele>2638.6</ele>
        <time>2021-02-28T07:43:45Z</time>
      </trkpt>
      <trkpt lat="45.13873" lon="6.3526">
        <ele>2639</ele>
        <time>2021-02-28T07:43:46Z</time>
      </trkpt>
      <trkpt lat="45.13873" lon="6.35263">
        <ele>2639</ele>
        <time>2021-02-28T07:43:47Z</time>
      </trkpt>
      <trkpt lat="45.13873" lon="6.35263">
        <ele>2640</ele>
        <time>2021-02-28T07:43:48Z</time>
      </trkpt>
      <trkpt lat="45.13874" lon="6.35266">
        <ele>2639.8</ele>
        <time>2021-02-28T07:43:49Z</time>
      </trkpt>
      <trkpt lat="45.13874" lon="6.35266">
        <ele>2640</ele>
        <time>2021-02-28T07:43:50Z</time>
      </trkpt>
      <trkpt lat="45.13875" lon="6.35269">
        <ele>2640.2</ele>
        <time>2021-02-28T07:43:51Z</time>
      </trkpt>
      <trkpt lat="45.13875" lon="6.35269">
        <ele>2640.4</ele>
        <time>2021-02-28T07:43:52Z</time>
      </trkpt>
      <trkpt lat="45.13875" lon="6.35269">
        <ele>2640</ele>
        <time>2021-02-28T07:43:53Z</time>
      </trkpt>
      <trkpt lat="45.13875" lon="6.35272">
        <ele>2640</ele>
        <time>2021-02-28T07:43:54Z</time>
      </trkpt>
      <trkpt lat="45.13875" lon="6.35272">
        <ele>2641</ele>
        <time>2021-02-28T07:43:55Z</time>
      </trkpt>
      <trkpt lat="45.13875" lon="6.35272">
        <ele>2641.2</ele>
        <time>2021-02-28T07:43:56Z</time>
      </trkpt>
      <trkpt lat="45.13876" lon="6.35273">
        <ele>2640.6</ele>
        <time>2021-02-28T07:43:57Z</time>
      </trkpt>
      <trkpt lat="45.13876" lon="6.35274">
        <ele>2640.8</ele>
        <time>2021-02-28T07:43:58Z</time>
      </trkpt>
      <trkpt lat="45.13877" lon="6.35276">
        <ele>2641</ele>
        <time>2021-02-28T07:43:59Z</time>
      </trkpt>
      <trkpt lat="45.13877" lon="6.35277">
        <ele>2641</ele>
        <time>2021-02-28T07:44:00Z</time>
      </trkpt>
      <trkpt lat="45.13878" lon="6.35278">
        <ele>2641.4</ele>
        <time>2021-02-28T07:44:01Z</time>
      </trkpt>
      <trkpt lat="45.13878" lon="6.35279">
        <ele>2641.8</ele>
        <time>2021-02-28T07:44:02Z</time>
      </trkpt>
      <trkpt lat="45.13879" lon="6.3528">
        <ele>2642</ele>
        <time>2021-02-28T07:44:03Z</time>
      </trkpt>
      <trkpt lat="45.13879" lon="6.35281">
        <ele>2642</ele>
        <time>2021-02-28T07:44:04Z</time>
      </trkpt>
      <trkpt lat="45.1388" lon="6.35283">
        <ele>2642.4</ele>
        <time>2021-02-28T07:44:05Z</time>
      </trkpt>
      <trkpt lat="45.13881" lon="6.35284">
        <ele>2642.2</ele>
        <time>2021-02-28T07:44:06Z</time>
      </trkpt>
      <trkpt lat="45.13881" lon="6.35285">
        <ele>2642.6</ele>
        <time>2021-02-28T07:44:07Z</time>
      </trkpt>
      <trkpt lat="45.13882" lon="6.35287">
        <ele>2642.2</ele>
        <time>2021-02-28T07:44:08Z</time>
      </trkpt>
      <trkpt lat="45.13883" lon="6.35288">
        <ele>2642.6</ele>
        <time>2021-02-28T07:44:09Z</time>
      </trkpt>
      <trkpt lat="45.13883" lon="6.35289">
        <ele>2643</ele>
        <time>2021-02-28T07:44:10Z</time>
      </trkpt>
      <trkpt lat="45.13884" lon="6.3529">
        <ele>2642.8</ele>
        <time>2021-02-28T07:44:11Z</time>
      </trkpt>
      <trkpt lat="45.13885" lon="6.35291">
        <ele>2643</ele>
        <time>2021-02-28T07:44:12Z</time>
      </trkpt>
      <trkpt lat="45.13885" lon="6.35293">
        <ele>2643.6</ele>
        <time>2021-02-28T07:44:13Z</time>
      </trkpt>
      <trkpt lat="45.13886" lon="6.35294">
        <ele>2644</ele>
        <time>2021-02-28T07:44:14Z</time>
      </trkpt>
      <trkpt lat="45.13886" lon="6.35295">
        <ele>2644.4</ele>
        <time>2021-02-28T07:44:15Z</time>
      </trkpt>
      <trkpt lat="45.13887" lon="6.35296">
        <ele>2644</ele>
        <time>2021-02-28T07:44:16Z</time>
      </trkpt>
      <trkpt lat="45.13888" lon="6.35297">
        <ele>2644.8</ele>
        <time>2021-02-28T07:44:17Z</time>
      </trkpt>
      <trkpt lat="45.13888" lon="6.35297">
        <ele>2645.2</ele>
        <time>2021-02-28T07:44:18Z</time>
      </trkpt>
      <trkpt lat="45.13888" lon="6.35297">
        <ele>2645</ele>
        <time>2021-02-28T07:44:19Z</time>
      </trkpt>
      <trkpt lat="45.13884" lon="6.35299">
        <ele>2645.6</ele>
        <time>2021-02-28T07:44:20Z</time>
      </trkpt>
      <trkpt lat="45.13884" lon="6.35299">
        <ele>2644.6</ele>
        <time>2021-02-28T07:44:21Z</time>
      </trkpt>
      <trkpt lat="45.13884" lon="6.35299">
        <ele>2644.8</ele>
        <time>2021-02-28T07:44:22Z</time>
      </trkpt>
      <trkpt lat="45.13882" lon="6.35299">
        <ele>2645</ele>
        <time>2021-02-28T07:44:23Z</time>
      </trkpt>
      <trkpt lat="45.13882" lon="6.35299">
        <ele>2645.6</ele>
        <time>2021-02-28T07:44:24Z</time>
      </trkpt>
      <trkpt lat="45.1388" lon="6.35298">
        <ele>2646.2</ele>
        <time>2021-02-28T07:44:25Z</time>
      </trkpt>
      <trkpt lat="45.1388" lon="6.35298">
        <ele>2647</ele>
        <time>2021-02-28T07:44:26Z</time>
      </trkpt>
      <trkpt lat="45.1388" lon="6.35298">
        <ele>2646.6</ele>
        <time>2021-02-28T07:44:27Z</time>
      </trkpt>
      <trkpt lat="45.13878" lon="6.35298">
        <ele>2646.2</ele>
        <time>2021-02-28T07:44:28Z</time>
      </trkpt>
      <trkpt lat="45.13878" lon="6.35298">
        <ele>2647</ele>
        <time>2021-02-28T07:44:29Z</time>
      </trkpt>
      <trkpt lat="45.13875" lon="6.35297">
        <ele>2647.2</ele>
        <time>2021-02-28T07:44:30Z</time>
      </trkpt>
      <trkpt lat="45.13875" lon="6.35297">
        <ele>2647.6</ele>
        <time>2021-02-28T07:44:31Z</time>
      </trkpt>
      <trkpt lat="45.13875" lon="6.35297">
        <ele>2647.8</ele>
        <time>2021-02-28T07:44:32Z</time>
      </trkpt>
      <trkpt lat="45.13873" lon="6.35295">
        <ele>2647.8</ele>
        <time>2021-02-28T07:44:33Z</time>
      </trkpt>
      <trkpt lat="45.13873" lon="6.35295">
        <ele>2647.8</ele>
        <time>2021-02-28T07:44:34Z</time>
      </trkpt>
      <trkpt lat="45.13871" lon="6.35295">
        <ele>2647.8</ele>
        <time>2021-02-28T07:44:35Z</time>
      </trkpt>
      <trkpt lat="45.13871" lon="6.35295">
        <ele>2648</ele>
        <time>2021-02-28T07:44:36Z</time>
      </trkpt>
      <trkpt lat="45.13868" lon="6.35293">
        <ele>2648.2</ele>
        <time>2021-02-28T07:44:37Z</time>
      </trkpt>
      <trkpt lat="45.13868" lon="6.35293">
        <ele>2647.8</ele>
        <time>2021-02-28T07:44:38Z</time>
      </trkpt>
      <trkpt lat="45.13866" lon="6.35293">
        <ele>2648</ele>
        <time>2021-02-28T07:44:39Z</time>
      </trkpt>
      <trkpt lat="45.13866" lon="6.35293">
        <ele>2648</ele>
        <time>2021-02-28T07:44:40Z</time>
      </trkpt>
      <trkpt lat="45.13864" lon="6.35291">
        <ele>2648.6</ele>
        <time>2021-02-28T07:44:41Z</time>
      </trkpt>
      <trkpt lat="45.13864" lon="6.35291">
        <ele>2649</ele>
        <time>2021-02-28T07:44:42Z</time>
      </trkpt>
      <trkpt lat="45.13864" lon="6.35291">
        <ele>2649.4</ele>
        <time>2021-02-28T07:44:43Z</time>
      </trkpt>
      <trkpt lat="45.13864" lon="6.35291">
        <ele>2649.8</ele>
        <time>2021-02-28T07:44:44Z</time>
      </trkpt>
      <trkpt lat="45.13864" lon="6.35291">
        <ele>2650.6</ele>
        <time>2021-02-28T07:44:45Z</time>
      </trkpt>
      <trkpt lat="45.13864" lon="6.35291">
        <ele>2650</ele>
        <time>2021-02-28T07:44:46Z</time>
      </trkpt>
      <trkpt lat="45.13864" lon="6.35295">
        <ele>2650.2</ele>
        <time>2021-02-28T07:44:47Z</time>
      </trkpt>
      <trkpt lat="45.13864" lon="6.35295">
        <ele>2649.8</ele>
        <time>2021-02-28T07:44:48Z</time>
      </trkpt>
      <trkpt lat="45.13864" lon="6.35295">
        <ele>2650</ele>
        <time>2021-02-28T07:44:49Z</time>
      </trkpt>
      <trkpt lat="45.13866" lon="6.35298">
        <ele>2650.6</ele>
        <time>2021-02-28T07:44:50Z</time>
      </trkpt>
      <trkpt lat="45.13866" lon="6.35298">
        <ele>2651.2</ele>
        <time>2021-02-28T07:44:51Z</time>
      </trkpt>
      <trkpt lat="45.13867" lon="6.353">
        <ele>2651.6</ele>
        <time>2021-02-28T07:44:52Z</time>
      </trkpt>
      <trkpt lat="45.13867" lon="6.353">
        <ele>2651.8</ele>
        <time>2021-02-28T07:44:53Z</time>
      </trkpt>
      <trkpt lat="45.13867" lon="6.353">
        <ele>2652.2</ele>
        <time>2021-02-28T07:44:54Z</time>
      </trkpt>
      <trkpt lat="45.13867" lon="6.35302">
        <ele>2651.6</ele>
        <time>2021-02-28T07:44:55Z</time>
      </trkpt>
      <trkpt lat="45.13868" lon="6.35304">
        <ele>2651.6</ele>
        <time>2021-02-28T07:44:56Z</time>
      </trkpt>
      <trkpt lat="45.13868" lon="6.35306">
        <ele>2652.2</ele>
        <time>2021-02-28T07:44:57Z</time>
      </trkpt>
      <trkpt lat="45.13868" lon="6.35307">
        <ele>2652.4</ele>
        <time>2021-02-28T07:44:58Z</time>
      </trkpt>
      <trkpt lat="45.13869" lon="6.35309">
        <ele>2652.2</ele>
        <time>2021-02-28T07:44:59Z</time>
      </trkpt>
      <trkpt lat="45.13869" lon="6.35309">
        <ele>2652.4</ele>
        <time>2021-02-28T07:45:00Z</time>
      </trkpt>
      <trkpt lat="45.13869" lon="6.35312">
        <ele>2653.2</ele>
        <time>2021-02-28T07:45:01Z</time>
      </trkpt>
      <trkpt lat="45.13869" lon="6.35312">
        <ele>2652.8</ele>
        <time>2021-02-28T07:45:02Z</time>
      </trkpt>
      <trkpt lat="45.13869" lon="6.35312">
        <ele>2653.4</ele>
        <time>2021-02-28T07:45:03Z</time>
      </trkpt>
      <trkpt lat="45.13869" lon="6.35312">
        <ele>2653.8</ele>
        <time>2021-02-28T07:45:04Z</time>
      </trkpt>
      <trkpt lat="45.13869" lon="6.35312">
        <ele>2654</ele>
        <time>2021-02-28T07:45:05Z</time>
      </trkpt>
      <trkpt lat="45.13869" lon="6.35312">
        <ele>2653.8</ele>
        <time>2021-02-28T07:45:06Z</time>
      </trkpt>
      <trkpt lat="45.1387" lon="6.35316">
        <ele>2654</ele>
        <time>2021-02-28T07:45:07Z</time>
      </trkpt>
      <trkpt lat="45.1387" lon="6.35316">
        <ele>2654.8</ele>
        <time>2021-02-28T07:45:08Z</time>
      </trkpt>
      <trkpt lat="45.13871" lon="6.35319">
        <ele>2654.2</ele>
        <time>2021-02-28T07:45:09Z</time>
      </trkpt>
      <trkpt lat="45.13871" lon="6.35319">
        <ele>2654.6</ele>
        <time>2021-02-28T07:45:10Z</time>
      </trkpt>
      <trkpt lat="45.13871" lon="6.35319">
        <ele>2654.8</ele>
        <time>2021-02-28T07:45:11Z</time>
      </trkpt>
      <trkpt lat="45.13871" lon="6.35319">
        <ele>2654.8</ele>
        <time>2021-02-28T07:45:12Z</time>
      </trkpt>
      <trkpt lat="45.13869" lon="6.35321">
        <ele>2654.8</ele>
        <time>2021-02-28T07:45:13Z</time>
      </trkpt>
      <trkpt lat="45.13869" lon="6.35321">
        <ele>2655</ele>
        <time>2021-02-28T07:45:14Z</time>
      </trkpt>
      <trkpt lat="45.13869" lon="6.35321">
        <ele>2655</ele>
        <time>2021-02-28T07:45:15Z</time>
      </trkpt>
      <trkpt lat="45.1387" lon="6.35323">
        <ele>2655.4</ele>
        <time>2021-02-28T07:45:16Z</time>
      </trkpt>
      <trkpt lat="45.13871" lon="6.35324">
        <ele>2656</ele>
        <time>2021-02-28T07:45:17Z</time>
      </trkpt>
      <trkpt lat="45.13872" lon="6.35326">
        <ele>2654.6</ele>
        <time>2021-02-28T07:45:18Z</time>
      </trkpt>
      <trkpt lat="45.13872" lon="6.35327">
        <ele>2655</ele>
        <time>2021-02-28T07:45:19Z</time>
      </trkpt>
      <trkpt lat="45.13873" lon="6.35328">
        <ele>2655.6</ele>
        <time>2021-02-28T07:45:20Z</time>
      </trkpt>
      <trkpt lat="45.13874" lon="6.3533">
        <ele>2655.2</ele>
        <time>2021-02-28T07:45:21Z</time>
      </trkpt>
      <trkpt lat="45.13874" lon="6.35331">
        <ele>2655.2</ele>
        <time>2021-02-28T07:45:22Z</time>
      </trkpt>
      <trkpt lat="45.13875" lon="6.35333">
        <ele>2656.2</ele>
        <time>2021-02-28T07:45:23Z</time>
      </trkpt>
      <trkpt lat="45.13875" lon="6.35334">
        <ele>2656.8</ele>
        <time>2021-02-28T07:45:24Z</time>
      </trkpt>
      <trkpt lat="45.13876" lon="6.35336">
        <ele>2657</ele>
        <time>2021-02-28T07:45:25Z</time>
      </trkpt>
      <trkpt lat="45.13876" lon="6.3534">
        <ele>2657</ele>
        <time>2021-02-28T07:45:26Z</time>
      </trkpt>
      <trkpt lat="45.13876" lon="6.3534">
        <ele>2657.2</ele>
        <time>2021-02-28T07:45:27Z</time>
      </trkpt>
      <trkpt lat="45.13877" lon="6.35343">
        <ele>2657.4</ele>
        <time>2021-02-28T07:45:28Z</time>
      </trkpt>
      <trkpt lat="45.13877" lon="6.35343">
        <ele>2657.4</ele>
        <time>2021-02-28T07:45:29Z</time>
      </trkpt>
      <trkpt lat="45.13877" lon="6.35346">
        <ele>2658</ele>
        <time>2021-02-28T07:45:30Z</time>
      </trkpt>
      <trkpt lat="45.13877" lon="6.35346">
        <ele>2658.6</ele>
        <time>2021-02-28T07:45:31Z</time>
      </trkpt>
      <trkpt lat="45.13878" lon="6.35349">
        <ele>2657.4</ele>
        <time>2021-02-28T07:45:32Z</time>
      </trkpt>
      <trkpt lat="45.13878" lon="6.35349">
        <ele>2658</ele>
        <time>2021-02-28T07:45:33Z</time>
      </trkpt>
      <trkpt lat="45.13878" lon="6.35352">
        <ele>2658.4</ele>
        <time>2021-02-28T07:45:34Z</time>
      </trkpt>
      <trkpt lat="45.13878" lon="6.35352">
        <ele>2657.8</ele>
        <time>2021-02-28T07:45:35Z</time>
      </trkpt>
      <trkpt lat="45.13878" lon="6.35352">
        <ele>2658.6</ele>
        <time>2021-02-28T07:45:36Z</time>
      </trkpt>
      <trkpt lat="45.13878" lon="6.35352">
        <ele>2658.8</ele>
        <time>2021-02-28T07:45:37Z</time>
      </trkpt>
      <trkpt lat="45.13878" lon="6.35355">
        <ele>2658.4</ele>
        <time>2021-02-28T07:45:38Z</time>
      </trkpt>
      <trkpt lat="45.13878" lon="6.35355">
        <ele>2659.2</ele>
        <time>2021-02-28T07:45:39Z</time>
      </trkpt>
      <trkpt lat="45.13878" lon="6.35358">
        <ele>2659.2</ele>
        <time>2021-02-28T07:45:40Z</time>
      </trkpt>
      <trkpt lat="45.13878" lon="6.35358">
        <ele>2659.2</ele>
        <time>2021-02-28T07:45:41Z</time>
      </trkpt>
      <trkpt lat="45.13879" lon="6.35362">
        <ele>2659.6</ele>
        <time>2021-02-28T07:45:42Z</time>
      </trkpt>
      <trkpt lat="45.13879" lon="6.35362">
        <ele>2660.2</ele>
        <time>2021-02-28T07:45:43Z</time>
      </trkpt>
      <trkpt lat="45.13879" lon="6.35362">
        <ele>2660.4</ele>
        <time>2021-02-28T07:45:44Z</time>
      </trkpt>
      <trkpt lat="45.13879" lon="6.35365">
        <ele>2660.6</ele>
        <time>2021-02-28T07:45:45Z</time>
      </trkpt>
      <trkpt lat="45.13879" lon="6.35365">
        <ele>2661.4</ele>
        <time>2021-02-28T07:45:46Z</time>
      </trkpt>
      <trkpt lat="45.13878" lon="6.35368">
        <ele>2661.8</ele>
        <time>2021-02-28T07:45:47Z</time>
      </trkpt>
      <trkpt lat="45.13878" lon="6.35368">
        <ele>2662.4</ele>
        <time>2021-02-28T07:45:48Z</time>
      </trkpt>
      <trkpt lat="45.13876" lon="6.35368">
        <ele>2663.4</ele>
        <time>2021-02-28T07:45:49Z</time>
      </trkpt>
      <trkpt lat="45.13876" lon="6.35368">
        <ele>2663.4</ele>
        <time>2021-02-28T07:45:50Z</time>
      </trkpt>
      <trkpt lat="45.13874" lon="6.35368">
        <ele>2662.2</ele>
        <time>2021-02-28T07:45:51Z</time>
      </trkpt>
      <trkpt lat="45.13874" lon="6.35368">
        <ele>2661.8</ele>
        <time>2021-02-28T07:45:52Z</time>
      </trkpt>
      <trkpt lat="45.13874" lon="6.35368">
        <ele>2661.6</ele>
        <time>2021-02-28T07:45:53Z</time>
      </trkpt>
      <trkpt lat="45.13872" lon="6.35369">
        <ele>2662.2</ele>
        <time>2021-02-28T07:45:54Z</time>
      </trkpt>
      <trkpt lat="45.13872" lon="6.35369">
        <ele>2661.2</ele>
        <time>2021-02-28T07:45:55Z</time>
      </trkpt>
      <trkpt lat="45.1387" lon="6.35369">
        <ele>2661.6</ele>
        <time>2021-02-28T07:45:56Z</time>
      </trkpt>
      <trkpt lat="45.1387" lon="6.35369">
        <ele>2662.4</ele>
        <time>2021-02-28T07:45:57Z</time>
      </trkpt>
      <trkpt lat="45.1387" lon="6.35369">
        <ele>2662.6</ele>
        <time>2021-02-28T07:45:58Z</time>
      </trkpt>
      <trkpt lat="45.1387" lon="6.35369">
        <ele>2663</ele>
        <time>2021-02-28T07:45:59Z</time>
      </trkpt>
      <trkpt lat="45.1387" lon="6.35369">
        <ele>2663.6</ele>
        <time>2021-02-28T07:46:00Z</time>
      </trkpt>
      <trkpt lat="45.1387" lon="6.35369">
        <ele>2664.2</ele>
        <time>2021-02-28T07:46:01Z</time>
      </trkpt>
      <trkpt lat="45.13868" lon="6.3537">
        <ele>2664.4</ele>
        <time>2021-02-28T07:46:02Z</time>
      </trkpt>
      <trkpt lat="45.13868" lon="6.3537">
        <ele>2664.8</ele>
        <time>2021-02-28T07:46:03Z</time>
      </trkpt>
      <trkpt lat="45.13868" lon="6.3537">
        <ele>2665.4</ele>
        <time>2021-02-28T07:46:04Z</time>
      </trkpt>
      <trkpt lat="45.13867" lon="6.35373">
        <ele>2665</ele>
        <time>2021-02-28T07:46:05Z</time>
      </trkpt>
      <trkpt lat="45.13867" lon="6.35373">
        <ele>2665.8</ele>
        <time>2021-02-28T07:46:06Z</time>
      </trkpt>
      <trkpt lat="45.13867" lon="6.35373">
        <ele>2666</ele>
        <time>2021-02-28T07:46:07Z</time>
      </trkpt>
      <trkpt lat="45.13868" lon="6.35377">
        <ele>2666</ele>
        <time>2021-02-28T07:46:08Z</time>
      </trkpt>
      <trkpt lat="45.13868" lon="6.35377">
        <ele>2666.2</ele>
        <time>2021-02-28T07:46:09Z</time>
      </trkpt>
      <trkpt lat="45.13868" lon="6.35377">
        <ele>2666</ele>
        <time>2021-02-28T07:46:10Z</time>
      </trkpt>
      <trkpt lat="45.13869" lon="6.35381">
        <ele>2666</ele>
        <time>2021-02-28T07:46:11Z</time>
      </trkpt>
      <trkpt lat="45.13869" lon="6.35381">
        <ele>2666.6</ele>
        <time>2021-02-28T07:46:12Z</time>
      </trkpt>
      <trkpt lat="45.13869" lon="6.35381">
        <ele>2666.8</ele>
        <time>2021-02-28T07:46:13Z</time>
      </trkpt>
      <trkpt lat="45.1387" lon="6.35384">
        <ele>2667.4</ele>
        <time>2021-02-28T07:46:14Z</time>
      </trkpt>
      <trkpt lat="45.1387" lon="6.35384">
        <ele>2667.4</ele>
        <time>2021-02-28T07:46:15Z</time>
      </trkpt>
      <trkpt lat="45.1387" lon="6.35384">
        <ele>2666.4</ele>
        <time>2021-02-28T07:46:16Z</time>
      </trkpt>
      <trkpt lat="45.1387" lon="6.35384">
        <ele>2667</ele>
        <time>2021-02-28T07:46:17Z</time>
      </trkpt>
      <trkpt lat="45.13871" lon="6.35385">
        <ele>2667.6</ele>
        <time>2021-02-28T07:46:18Z</time>
      </trkpt>
      <trkpt lat="45.13872" lon="6.35386">
        <ele>2667</ele>
        <time>2021-02-28T07:46:19Z</time>
      </trkpt>
      <trkpt lat="45.13872" lon="6.35386">
        <ele>2667.6</ele>
        <time>2021-02-28T07:46:20Z</time>
      </trkpt>
      <trkpt lat="45.13873" lon="6.35387">
        <ele>2668</ele>
        <time>2021-02-28T07:46:21Z</time>
      </trkpt>
      <trkpt lat="45.13873" lon="6.35388">
        <ele>2667.8</ele>
        <time>2021-02-28T07:46:22Z</time>
      </trkpt>
      <trkpt lat="45.13874" lon="6.35389">
        <ele>2668.4</ele>
        <time>2021-02-28T07:46:23Z</time>
      </trkpt>
      <trkpt lat="45.13874" lon="6.35389">
        <ele>2669</ele>
        <time>2021-02-28T07:46:24Z</time>
      </trkpt>
      <trkpt lat="45.13875" lon="6.3539">
        <ele>2669.4</ele>
        <time>2021-02-28T07:46:25Z</time>
      </trkpt>
      <trkpt lat="45.13876" lon="6.35391">
        <ele>2669.4</ele>
        <time>2021-02-28T07:46:26Z</time>
      </trkpt>
      <trkpt lat="45.13876" lon="6.35391">
        <ele>2670.4</ele>
        <time>2021-02-28T07:46:27Z</time>
      </trkpt>
      <trkpt lat="45.13877" lon="6.35392">
        <ele>2670.6</ele>
        <time>2021-02-28T07:46:28Z</time>
      </trkpt>
      <trkpt lat="45.13877" lon="6.35393">
        <ele>2670</ele>
        <time>2021-02-28T07:46:29Z</time>
      </trkpt>
      <trkpt lat="45.13878" lon="6.35393">
        <ele>2670.4</ele>
        <time>2021-02-28T07:46:30Z</time>
      </trkpt>
      <trkpt lat="45.13879" lon="6.35394">
        <ele>2670.8</ele>
        <time>2021-02-28T07:46:31Z</time>
      </trkpt>
      <trkpt lat="45.13879" lon="6.35395">
        <ele>2671.4</ele>
        <time>2021-02-28T07:46:32Z</time>
      </trkpt>
      <trkpt lat="45.1388" lon="6.35396">
        <ele>2671</ele>
        <time>2021-02-28T07:46:33Z</time>
      </trkpt>
      <trkpt lat="45.1388" lon="6.35397">
        <ele>2671.2</ele>
        <time>2021-02-28T07:46:34Z</time>
      </trkpt>
      <trkpt lat="45.13881" lon="6.35398">
        <ele>2671.8</ele>
        <time>2021-02-28T07:46:35Z</time>
      </trkpt>
      <trkpt lat="45.13881" lon="6.354">
        <ele>2671</ele>
        <time>2021-02-28T07:46:36Z</time>
      </trkpt>
      <trkpt lat="45.13882" lon="6.35401">
        <ele>2671.2</ele>
        <time>2021-02-28T07:46:37Z</time>
      </trkpt>
      <trkpt lat="45.13883" lon="6.35403">
        <ele>2672</ele>
        <time>2021-02-28T07:46:38Z</time>
      </trkpt>
      <trkpt lat="45.13883" lon="6.35404">
        <ele>2672.8</ele>
        <time>2021-02-28T07:46:39Z</time>
      </trkpt>
      <trkpt lat="45.13884" lon="6.35406">
        <ele>2672.2</ele>
        <time>2021-02-28T07:46:40Z</time>
      </trkpt>
      <trkpt lat="45.13884" lon="6.35407">
        <ele>2672.8</ele>
        <time>2021-02-28T07:46:41Z</time>
      </trkpt>
      <trkpt lat="45.13885" lon="6.35408">
        <ele>2673.2</ele>
        <time>2021-02-28T07:46:42Z</time>
      </trkpt>
      <trkpt lat="45.13885" lon="6.35408">
        <ele>2673.6</ele>
        <time>2021-02-28T07:46:43Z</time>
      </trkpt>
      <trkpt lat="45.13886" lon="6.35411">
        <ele>2673.4</ele>
        <time>2021-02-28T07:46:44Z</time>
      </trkpt>
      <trkpt lat="45.13886" lon="6.35411">
        <ele>2674</ele>
        <time>2021-02-28T07:46:45Z</time>
      </trkpt>
      <trkpt lat="45.13887" lon="6.35416">
        <ele>2675.2</ele>
        <time>2021-02-28T07:46:46Z</time>
      </trkpt>
      <trkpt lat="45.13887" lon="6.35416">
        <ele>2675.2</ele>
        <time>2021-02-28T07:46:47Z</time>
      </trkpt>
      <trkpt lat="45.13888" lon="6.35421">
        <ele>2674.4</ele>
        <time>2021-02-28T07:46:48Z</time>
      </trkpt>
      <trkpt lat="45.13888" lon="6.35421">
        <ele>2674.6</ele>
        <time>2021-02-28T07:46:49Z</time>
      </trkpt>
      <trkpt lat="45.13888" lon="6.35425">
        <ele>2674.8</ele>
        <time>2021-02-28T07:46:50Z</time>
      </trkpt>
      <trkpt lat="45.13888" lon="6.35425">
        <ele>2675.2</ele>
        <time>2021-02-28T07:46:51Z</time>
      </trkpt>
      <trkpt lat="45.13889" lon="6.3543">
        <ele>2673.8</ele>
        <time>2021-02-28T07:46:52Z</time>
      </trkpt>
      <trkpt lat="45.13889" lon="6.3543">
        <ele>2673.8</ele>
        <time>2021-02-28T07:46:53Z</time>
      </trkpt>
      <trkpt lat="45.13889" lon="6.35435">
        <ele>2674</ele>
        <time>2021-02-28T07:46:54Z</time>
      </trkpt>
      <trkpt lat="45.13889" lon="6.35435">
        <ele>2674</ele>
        <time>2021-02-28T07:46:55Z</time>
      </trkpt>
      <trkpt lat="45.13889" lon="6.35439">
        <ele>2673.6</ele>
        <time>2021-02-28T07:46:56Z</time>
      </trkpt>
      <trkpt lat="45.13889" lon="6.35439">
        <ele>2673.8</ele>
        <time>2021-02-28T07:46:57Z</time>
      </trkpt>
      <trkpt lat="45.13889" lon="6.35443">
        <ele>2673.6</ele>
        <time>2021-02-28T07:46:58Z</time>
      </trkpt>
      <trkpt lat="45.13889" lon="6.35443">
        <ele>2673.2</ele>
        <time>2021-02-28T07:46:59Z</time>
      </trkpt>
      <trkpt lat="45.1389" lon="6.35446">
        <ele>2673</ele>
        <time>2021-02-28T07:47:00Z</time>
      </trkpt>
      <trkpt lat="45.1389" lon="6.35446">
        <ele>2673.4</ele>
        <time>2021-02-28T07:47:01Z</time>
      </trkpt>
      <trkpt lat="45.13891" lon="6.35449">
        <ele>2673.6</ele>
        <time>2021-02-28T07:47:02Z</time>
      </trkpt>
      <trkpt lat="45.13891" lon="6.35449">
        <ele>2673.2</ele>
        <time>2021-02-28T07:47:03Z</time>
      </trkpt>
      <trkpt lat="45.13891" lon="6.35449">
        <ele>2673.6</ele>
        <time>2021-02-28T07:47:04Z</time>
      </trkpt>
      <trkpt lat="45.13894" lon="6.35453">
        <ele>2673.6</ele>
        <time>2021-02-28T07:47:05Z</time>
      </trkpt>
      <trkpt lat="45.13894" lon="6.35453">
        <ele>2673.6</ele>
        <time>2021-02-28T07:47:06Z</time>
      </trkpt>
      <trkpt lat="45.13896" lon="6.35454">
        <ele>2672.8</ele>
        <time>2021-02-28T07:47:07Z</time>
      </trkpt>
      <trkpt lat="45.13896" lon="6.35454">
        <ele>2673.6</ele>
        <time>2021-02-28T07:47:08Z</time>
      </trkpt>
      <trkpt lat="45.13898" lon="6.35455">
        <ele>2674.4</ele>
        <time>2021-02-28T07:47:09Z</time>
      </trkpt>
      <trkpt lat="45.13898" lon="6.35455">
        <ele>2674</ele>
        <time>2021-02-28T07:47:10Z</time>
      </trkpt>
      <trkpt lat="45.13898" lon="6.35455">
        <ele>2674</ele>
        <time>2021-02-28T07:47:11Z</time>
      </trkpt>
      <trkpt lat="45.13898" lon="6.35455">
        <ele>2675</ele>
        <time>2021-02-28T07:47:12Z</time>
      </trkpt>
      <trkpt lat="45.13898" lon="6.35455">
        <ele>2675.6</ele>
        <time>2021-02-28T07:47:13Z</time>
      </trkpt>
      <trkpt lat="45.13898" lon="6.35455">
        <ele>2675.6</ele>
        <time>2021-02-28T07:47:14Z</time>
      </trkpt>
      <trkpt lat="45.13902" lon="6.35456">
        <ele>2675.8</ele>
        <time>2021-02-28T07:47:15Z</time>
      </trkpt>
      <trkpt lat="45.13902" lon="6.35456">
        <ele>2676.2</ele>
        <time>2021-02-28T07:47:16Z</time>
      </trkpt>
      <trkpt lat="45.13902" lon="6.35456">
        <ele>2676.4</ele>
        <time>2021-02-28T07:47:17Z</time>
      </trkpt>
      <trkpt lat="45.13902" lon="6.35456">
        <ele>2676.6</ele>
        <time>2021-02-28T07:47:18Z</time>
      </trkpt>
      <trkpt lat="45.13902" lon="6.35456">
        <ele>2676.8</ele>
        <time>2021-02-28T07:47:19Z</time>
      </trkpt>
      <trkpt lat="45.13902" lon="6.35456">
        <ele>2677.4</ele>
        <time>2021-02-28T07:47:20Z</time>
      </trkpt>
      <trkpt lat="45.13905" lon="6.35459">
        <ele>2677.8</ele>
        <time>2021-02-28T07:47:21Z</time>
      </trkpt>
      <trkpt lat="45.13905" lon="6.35459">
        <ele>2678.2</ele>
        <time>2021-02-28T07:47:22Z</time>
      </trkpt>
      <trkpt lat="45.13905" lon="6.35459">
        <ele>2679</ele>
        <time>2021-02-28T07:47:23Z</time>
      </trkpt>
      <trkpt lat="45.13907" lon="6.3546">
        <ele>2678.8</ele>
        <time>2021-02-28T07:47:24Z</time>
      </trkpt>
      <trkpt lat="45.13907" lon="6.3546">
        <ele>2679.8</ele>
        <time>2021-02-28T07:47:25Z</time>
      </trkpt>
      <trkpt lat="45.13907" lon="6.3546">
        <ele>2680.2</ele>
        <time>2021-02-28T07:47:26Z</time>
      </trkpt>
      <trkpt lat="45.13909" lon="6.35462">
        <ele>2680.2</ele>
        <time>2021-02-28T07:47:27Z</time>
      </trkpt>
      <trkpt lat="45.13909" lon="6.35462">
        <ele>2680.6</ele>
        <time>2021-02-28T07:47:28Z</time>
      </trkpt>
      <trkpt lat="45.13909" lon="6.35462">
        <ele>2681</ele>
        <time>2021-02-28T07:47:29Z</time>
      </trkpt>
      <trkpt lat="45.13909" lon="6.35462">
        <ele>2680.8</ele>
        <time>2021-02-28T07:47:30Z</time>
      </trkpt>
      <trkpt lat="45.13909" lon="6.35462">
        <ele>2681</ele>
        <time>2021-02-28T07:47:31Z</time>
      </trkpt>
      <trkpt lat="45.13909" lon="6.35462">
        <ele>2681.2</ele>
        <time>2021-02-28T07:47:32Z</time>
      </trkpt>
      <trkpt lat="45.13906" lon="6.35465">
        <ele>2680.8</ele>
        <time>2021-02-28T07:47:33Z</time>
      </trkpt>
      <trkpt lat="45.13906" lon="6.35465">
        <ele>2680.6</ele>
        <time>2021-02-28T07:47:34Z</time>
      </trkpt>
      <trkpt lat="45.13906" lon="6.35465">
        <ele>2680.2</ele>
        <time>2021-02-28T07:47:35Z</time>
      </trkpt>
      <trkpt lat="45.13904" lon="6.35467">
        <ele>2680.6</ele>
        <time>2021-02-28T07:47:36Z</time>
      </trkpt>
      <trkpt lat="45.13904" lon="6.35467">
        <ele>2681.2</ele>
        <time>2021-02-28T07:47:37Z</time>
      </trkpt>
      <trkpt lat="45.13904" lon="6.35467">
        <ele>2681.4</ele>
        <time>2021-02-28T07:47:38Z</time>
      </trkpt>
      <trkpt lat="45.13901" lon="6.35469">
        <ele>2681.8</ele>
        <time>2021-02-28T07:47:39Z</time>
      </trkpt>
      <trkpt lat="45.13901" lon="6.35469">
        <ele>2682</ele>
        <time>2021-02-28T07:47:40Z</time>
      </trkpt>
      <trkpt lat="45.13901" lon="6.35469">
        <ele>2682.4</ele>
        <time>2021-02-28T07:47:41Z</time>
      </trkpt>
      <trkpt lat="45.139" lon="6.35472">
        <ele>2682.8</ele>
        <time>2021-02-28T07:47:42Z</time>
      </trkpt>
      <trkpt lat="45.139" lon="6.35472">
        <ele>2683</ele>
        <time>2021-02-28T07:47:43Z</time>
      </trkpt>
      <trkpt lat="45.139" lon="6.35472">
        <ele>2683</ele>
        <time>2021-02-28T07:47:44Z</time>
      </trkpt>
      <trkpt lat="45.13899" lon="6.35475">
        <ele>2683.2</ele>
        <time>2021-02-28T07:47:45Z</time>
      </trkpt>
      <trkpt lat="45.13899" lon="6.35475">
        <ele>2682.6</ele>
        <time>2021-02-28T07:47:46Z</time>
      </trkpt>
      <trkpt lat="45.13899" lon="6.35475">
        <ele>2683</ele>
        <time>2021-02-28T07:47:47Z</time>
      </trkpt>
      <trkpt lat="45.13898" lon="6.35478">
        <ele>2683.2</ele>
        <time>2021-02-28T07:47:48Z</time>
      </trkpt>
      <trkpt lat="45.13898" lon="6.35478">
        <ele>2683.2</ele>
        <time>2021-02-28T07:47:49Z</time>
      </trkpt>
      <trkpt lat="45.13898" lon="6.35478">
        <ele>2683.4</ele>
        <time>2021-02-28T07:47:50Z</time>
      </trkpt>
      <trkpt lat="45.13898" lon="6.35478">
        <ele>2684</ele>
        <time>2021-02-28T07:47:51Z</time>
      </trkpt>
      <trkpt lat="45.13897" lon="6.3548">
        <ele>2683.8</ele>
        <time>2021-02-28T07:47:52Z</time>
      </trkpt>
      <trkpt lat="45.13897" lon="6.3548">
        <ele>2684</ele>
        <time>2021-02-28T07:47:53Z</time>
      </trkpt>
      <trkpt lat="45.13897" lon="6.3548">
        <ele>2684</ele>
        <time>2021-02-28T07:47:54Z</time>
      </trkpt>
      <trkpt lat="45.13896" lon="6.35482">
        <ele>2684.2</ele>
        <time>2021-02-28T07:47:55Z</time>
      </trkpt>
      <trkpt lat="45.13896" lon="6.35482">
        <ele>2685</ele>
        <time>2021-02-28T07:47:56Z</time>
      </trkpt>
      <trkpt lat="45.13896" lon="6.35482">
        <ele>2685.2</ele>
        <time>2021-02-28T07:47:57Z</time>
      </trkpt>
      <trkpt lat="45.13896" lon="6.35482">
        <ele>2684.8</ele>
        <time>2021-02-28T07:47:58Z</time>
      </trkpt>
      <trkpt lat="45.13896" lon="6.35482">
        <ele>2685.2</ele>
        <time>2021-02-28T07:47:59Z</time>
      </trkpt>
      <trkpt lat="45.13896" lon="6.35482">
        <ele>2685.4</ele>
        <time>2021-02-28T07:48:00Z</time>
      </trkpt>
      <trkpt lat="45.13896" lon="6.35482">
        <ele>2685.8</ele>
        <time>2021-02-28T07:48:01Z</time>
      </trkpt>
      <trkpt lat="45.13896" lon="6.35482">
        <ele>2685.6</ele>
        <time>2021-02-28T07:48:02Z</time>
      </trkpt>
      <trkpt lat="45.13896" lon="6.35482">
        <ele>2686.2</ele>
        <time>2021-02-28T07:48:03Z</time>
      </trkpt>
      <trkpt lat="45.13896" lon="6.35482">
        <ele>2686.2</ele>
        <time>2021-02-28T07:48:04Z</time>
      </trkpt>
      <trkpt lat="45.13896" lon="6.35482">
        <ele>2686</ele>
        <time>2021-02-28T07:48:05Z</time>
      </trkpt>
      <trkpt lat="45.13896" lon="6.35482">
        <ele>2685.6</ele>
        <time>2021-02-28T07:48:06Z</time>
      </trkpt>
      <trkpt lat="45.13896" lon="6.35482">
        <ele>2685.8</ele>
        <time>2021-02-28T07:48:07Z</time>
      </trkpt>
      <trkpt lat="45.13896" lon="6.35482">
        <ele>2685.6</ele>
        <time>2021-02-28T07:48:08Z</time>
      </trkpt>
      <trkpt lat="45.13896" lon="6.35482">
        <ele>2685.6</ele>
        <time>2021-02-28T07:48:09Z</time>
      </trkpt>
      <trkpt lat="45.13896" lon="6.35482">
        <ele>2685.6</ele>
        <time>2021-02-28T07:48:10Z</time>
      </trkpt>
      <trkpt lat="45.13896" lon="6.35482">
        <ele>2685.8</ele>
        <time>2021-02-28T07:48:11Z</time>
      </trkpt>
      <trkpt lat="45.13896" lon="6.35482">
        <ele>2685.8</ele>
        <time>2021-02-28T07:48:12Z</time>
      </trkpt>
      <trkpt lat="45.13896" lon="6.35482">
        <ele>2685.8</ele>
        <time>2021-02-28T07:48:13Z</time>
      </trkpt>
      <trkpt lat="45.13896" lon="6.35482">
        <ele>2685.4</ele>
        <time>2021-02-28T07:48:14Z</time>
      </trkpt>
      <trkpt lat="45.13896" lon="6.35482">
        <ele>2684.4</ele>
        <time>2021-02-28T07:48:15Z</time>
      </trkpt>
      <trkpt lat="45.13896" lon="6.35482">
        <ele>2684.6</ele>
        <time>2021-02-28T07:48:16Z</time>
      </trkpt>
      <trkpt lat="45.13896" lon="6.35482">
        <ele>2684.6</ele>
        <time>2021-02-28T07:48:17Z</time>
      </trkpt>
      <trkpt lat="45.13896" lon="6.35482">
        <ele>2684.6</ele>
        <time>2021-02-28T07:48:18Z</time>
      </trkpt>
      <trkpt lat="45.13896" lon="6.35482">
        <ele>2684.8</ele>
        <time>2021-02-28T07:48:19Z</time>
      </trkpt>
      <trkpt lat="45.13896" lon="6.35482">
        <ele>2684.6</ele>
        <time>2021-02-28T07:48:20Z</time>
      </trkpt>
      <trkpt lat="45.13897" lon="6.35485">
        <ele>2684.6</ele>
        <time>2021-02-28T07:48:21Z</time>
      </trkpt>
      <trkpt lat="45.13897" lon="6.35485">
        <ele>2685.4</ele>
        <time>2021-02-28T07:48:22Z</time>
      </trkpt>
      <trkpt lat="45.13897" lon="6.35485">
        <ele>2685.8</ele>
        <time>2021-02-28T07:48:23Z</time>
      </trkpt>
      <trkpt lat="45.13897" lon="6.35485">
        <ele>2685.6</ele>
        <time>2021-02-28T07:48:24Z</time>
      </trkpt>
      <trkpt lat="45.13897" lon="6.35484">
        <ele>2685.4</ele>
        <time>2021-02-28T07:48:25Z</time>
      </trkpt>
      <trkpt lat="45.13897" lon="6.35484">
        <ele>2685.2</ele>
        <time>2021-02-28T07:48:26Z</time>
      </trkpt>
      <trkpt lat="45.13897" lon="6.35484">
        <ele>2685.2</ele>
        <time>2021-02-28T07:48:27Z</time>
      </trkpt>
      <trkpt lat="45.13897" lon="6.35484">
        <ele>2685.2</ele>
        <time>2021-02-28T07:48:28Z</time>
      </trkpt>
      <trkpt lat="45.13896" lon="6.35484">
        <ele>2685.4</ele>
        <time>2021-02-28T07:48:29Z</time>
      </trkpt>
      <trkpt lat="45.13896" lon="6.35484">
        <ele>2685.2</ele>
        <time>2021-02-28T07:48:30Z</time>
      </trkpt>
      <trkpt lat="45.13896" lon="6.35484">
        <ele>2685.2</ele>
        <time>2021-02-28T07:48:31Z</time>
      </trkpt>
      <trkpt lat="45.13896" lon="6.35483">
        <ele>2685.2</ele>
        <time>2021-02-28T07:48:32Z</time>
      </trkpt>
      <trkpt lat="45.13896" lon="6.35483">
        <ele>2685.4</ele>
        <time>2021-02-28T07:48:33Z</time>
      </trkpt>
      <trkpt lat="45.13896" lon="6.35483">
        <ele>2685.4</ele>
        <time>2021-02-28T07:48:34Z</time>
      </trkpt>
      <trkpt lat="45.13896" lon="6.35483">
        <ele>2685.4</ele>
        <time>2021-02-28T07:48:35Z</time>
      </trkpt>
      <trkpt lat="45.13896" lon="6.35483">
        <ele>2685.4</ele>
        <time>2021-02-28T07:48:36Z</time>
      </trkpt>
      <trkpt lat="45.13896" lon="6.35483">
        <ele>2685.6</ele>
        <time>2021-02-28T07:48:37Z</time>
      </trkpt>
      <trkpt lat="45.13896" lon="6.35483">
        <ele>2685.8</ele>
        <time>2021-02-28T07:48:38Z</time>
      </trkpt>
      <trkpt lat="45.13896" lon="6.35482">
        <ele>2685.6</ele>
        <time>2021-02-28T07:48:39Z</time>
      </trkpt>
      <trkpt lat="45.13895" lon="6.35482">
        <ele>2685.6</ele>
        <time>2021-02-28T07:48:40Z</time>
      </trkpt>
      <trkpt lat="45.13895" lon="6.35482">
        <ele>2685.6</ele>
        <time>2021-02-28T07:48:41Z</time>
      </trkpt>
      <trkpt lat="45.13895" lon="6.35482">
        <ele>2685.8</ele>
        <time>2021-02-28T07:48:42Z</time>
      </trkpt>
      <trkpt lat="45.13895" lon="6.35482">
        <ele>2685.8</ele>
        <time>2021-02-28T07:48:43Z</time>
      </trkpt>
      <trkpt lat="45.13895" lon="6.35482">
        <ele>2685.6</ele>
        <time>2021-02-28T07:48:44Z</time>
      </trkpt>
      <trkpt lat="45.13895" lon="6.35482">
        <ele>2685.4</ele>
        <time>2021-02-28T07:48:45Z</time>
      </trkpt>
      <trkpt lat="45.13895" lon="6.35481">
        <ele>2685.4</ele>
        <time>2021-02-28T07:48:46Z</time>
      </trkpt>
      <trkpt lat="45.13895" lon="6.35481">
        <ele>2685.4</ele>
        <time>2021-02-28T07:48:47Z</time>
      </trkpt>
      <trkpt lat="45.13895" lon="6.35481">
        <ele>2685.4</ele>
        <time>2021-02-28T07:48:48Z</time>
      </trkpt>
      <trkpt lat="45.13895" lon="6.35481">
        <ele>2685.2</ele>
        <time>2021-02-28T07:48:49Z</time>
      </trkpt>
      <trkpt lat="45.13895" lon="6.35481">
        <ele>2685</ele>
        <time>2021-02-28T07:48:50Z</time>
      </trkpt>
      <trkpt lat="45.13894" lon="6.35481">
        <ele>2685</ele>
        <time>2021-02-28T07:48:51Z</time>
      </trkpt>
      <trkpt lat="45.13894" lon="6.35481">
        <ele>2684.4</ele>
        <time>2021-02-28T07:48:52Z</time>
      </trkpt>
      <trkpt lat="45.13894" lon="6.3548">
        <ele>2685.2</ele>
        <time>2021-02-28T07:48:53Z</time>
      </trkpt>
      <trkpt lat="45.13894" lon="6.3548">
        <ele>2684.6</ele>
        <time>2021-02-28T07:48:54Z</time>
      </trkpt>
      <trkpt lat="45.13894" lon="6.3548">
        <ele>2684.6</ele>
        <time>2021-02-28T07:48:55Z</time>
      </trkpt>
      <trkpt lat="45.13894" lon="6.3548">
        <ele>2684.2</ele>
        <time>2021-02-28T07:48:56Z</time>
      </trkpt>
      <trkpt lat="45.13894" lon="6.3548">
        <ele>2683.6</ele>
        <time>2021-02-28T07:48:57Z</time>
      </trkpt>
      <trkpt lat="45.13894" lon="6.3548">
        <ele>2683</ele>
        <time>2021-02-28T07:48:58Z</time>
      </trkpt>
      <trkpt lat="45.13894" lon="6.3548">
        <ele>2682.8</ele>
        <time>2021-02-28T07:48:59Z</time>
      </trkpt>
      <trkpt lat="45.13894" lon="6.35479">
        <ele>2683.2</ele>
        <time>2021-02-28T07:49:00Z</time>
      </trkpt>
      <trkpt lat="45.13894" lon="6.35479">
        <ele>2683.8</ele>
        <time>2021-02-28T07:49:01Z</time>
      </trkpt>
      <trkpt lat="45.13894" lon="6.35479">
        <ele>2683.6</ele>
        <time>2021-02-28T07:49:02Z</time>
      </trkpt>
      <trkpt lat="45.13893" lon="6.35479">
        <ele>2683.4</ele>
        <time>2021-02-28T07:49:03Z</time>
      </trkpt>
      <trkpt lat="45.13893" lon="6.35479">
        <ele>2683.6</ele>
        <time>2021-02-28T07:49:04Z</time>
      </trkpt>
      <trkpt lat="45.13893" lon="6.35479">
        <ele>2683.4</ele>
        <time>2021-02-28T07:49:05Z</time>
      </trkpt>
      <trkpt lat="45.13893" lon="6.35479">
        <ele>2683.6</ele>
        <time>2021-02-28T07:49:06Z</time>
      </trkpt>
      <trkpt lat="45.13893" lon="6.35478">
        <ele>2683.6</ele>
        <time>2021-02-28T07:49:07Z</time>
      </trkpt>
      <trkpt lat="45.13893" lon="6.35478">
        <ele>2683.8</ele>
        <time>2021-02-28T07:49:08Z</time>
      </trkpt>
      <trkpt lat="45.13893" lon="6.35478">
        <ele>2684</ele>
        <time>2021-02-28T07:49:09Z</time>
      </trkpt>
      <trkpt lat="45.13893" lon="6.35478">
        <ele>2683.8</ele>
        <time>2021-02-28T07:49:10Z</time>
      </trkpt>
      <trkpt lat="45.13893" lon="6.35478">
        <ele>2683.8</ele>
        <time>2021-02-28T07:49:11Z</time>
      </trkpt>
      <trkpt lat="45.13893" lon="6.35478">
        <ele>2683.6</ele>
        <time>2021-02-28T07:49:12Z</time>
      </trkpt>
      <trkpt lat="45.13893" lon="6.35478">
        <ele>2683.4</ele>
        <time>2021-02-28T07:49:13Z</time>
      </trkpt>
      <trkpt lat="45.13892" lon="6.35477">
        <ele>2683.6</ele>
        <time>2021-02-28T07:49:14Z</time>
      </trkpt>
      <trkpt lat="45.13892" lon="6.35477">
        <ele>2683.6</ele>
        <time>2021-02-28T07:49:15Z</time>
      </trkpt>
      <trkpt lat="45.13892" lon="6.35477">
        <ele>2683.4</ele>
        <time>2021-02-28T07:49:16Z</time>
      </trkpt>
      <trkpt lat="45.13892" lon="6.35477">
        <ele>2684.2</ele>
        <time>2021-02-28T07:49:17Z</time>
      </trkpt>
      <trkpt lat="45.13892" lon="6.35477">
        <ele>2683</ele>
        <time>2021-02-28T07:49:18Z</time>
      </trkpt>
      <trkpt lat="45.13892" lon="6.35477">
        <ele>2681.4</ele>
        <time>2021-02-28T07:49:19Z</time>
      </trkpt>
      <trkpt lat="45.13892" lon="6.35477">
        <ele>2682</ele>
        <time>2021-02-28T07:49:20Z</time>
      </trkpt>
      <trkpt lat="45.13892" lon="6.35476">
        <ele>2682.4</ele>
        <time>2021-02-28T07:49:21Z</time>
      </trkpt>
      <trkpt lat="45.13892" lon="6.35476">
        <ele>2682.8</ele>
        <time>2021-02-28T07:49:22Z</time>
      </trkpt>
      <trkpt lat="45.13892" lon="6.35476">
        <ele>2682.4</ele>
        <time>2021-02-28T07:49:23Z</time>
      </trkpt>
      <trkpt lat="45.13892" lon="6.35476">
        <ele>2682.6</ele>
        <time>2021-02-28T07:49:24Z</time>
      </trkpt>
      <trkpt lat="45.13891" lon="6.35476">
        <ele>2682</ele>
        <time>2021-02-28T07:49:25Z</time>
      </trkpt>
      <trkpt lat="45.13891" lon="6.35476">
        <ele>2682.2</ele>
        <time>2021-02-28T07:49:26Z</time>
      </trkpt>
      <trkpt lat="45.13891" lon="6.35476">
        <ele>2682</ele>
        <time>2021-02-28T07:49:27Z</time>
      </trkpt>
      <trkpt lat="45.13891" lon="6.35475">
        <ele>2682.2</ele>
        <time>2021-02-28T07:49:28Z</time>
      </trkpt>
      <trkpt lat="45.13891" lon="6.35475">
        <ele>2682.6</ele>
        <time>2021-02-28T07:49:29Z</time>
      </trkpt>
      <trkpt lat="45.13891" lon="6.35475">
        <ele>2682.8</ele>
        <time>2021-02-28T07:49:30Z</time>
      </trkpt>
      <trkpt lat="45.13891" lon="6.35474">
        <ele>2683</ele>
        <time>2021-02-28T07:49:31Z</time>
      </trkpt>
      <trkpt lat="45.1389" lon="6.35474">
        <ele>2684.2</ele>
        <time>2021-02-28T07:49:32Z</time>
      </trkpt>
      <trkpt lat="45.13889" lon="6.35473">
        <ele>2684.8</ele>
        <time>2021-02-28T07:49:33Z</time>
      </trkpt>
      <trkpt lat="45.13889" lon="6.35472">
        <ele>2684.6</ele>
        <time>2021-02-28T07:49:34Z</time>
      </trkpt>
      <trkpt lat="45.13888" lon="6.35471">
        <ele>2684.2</ele>
        <time>2021-02-28T07:49:35Z</time>
      </trkpt>
      <trkpt lat="45.13888" lon="6.35471">
        <ele>2684.2</ele>
        <time>2021-02-28T07:49:36Z</time>
      </trkpt>
      <trkpt lat="45.13887" lon="6.3547">
        <ele>2684.4</ele>
        <time>2021-02-28T07:49:37Z</time>
      </trkpt>
      <trkpt lat="45.13887" lon="6.35469">
        <ele>2684.4</ele>
        <time>2021-02-28T07:49:38Z</time>
      </trkpt>
      <trkpt lat="45.13886" lon="6.35469">
        <ele>2684.8</ele>
        <time>2021-02-28T07:49:39Z</time>
      </trkpt>
      <trkpt lat="45.13886" lon="6.35468">
        <ele>2684.8</ele>
        <time>2021-02-28T07:49:40Z</time>
      </trkpt>
      <trkpt lat="45.13886" lon="6.35468">
        <ele>2685.2</ele>
        <time>2021-02-28T07:49:41Z</time>
      </trkpt>
      <trkpt lat="45.13886" lon="6.35468">
        <ele>2686.2</ele>
        <time>2021-02-28T07:49:42Z</time>
      </trkpt>
      <trkpt lat="45.13886" lon="6.35468">
        <ele>2685.8</ele>
        <time>2021-02-28T07:49:43Z</time>
      </trkpt>
      <trkpt lat="45.13886" lon="6.35468">
        <ele>2685</ele>
        <time>2021-02-28T07:49:44Z</time>
      </trkpt>
      <trkpt lat="45.13886" lon="6.35471">
        <ele>2685</ele>
        <time>2021-02-28T07:49:45Z</time>
      </trkpt>
      <trkpt lat="45.13886" lon="6.35471">
        <ele>2684.8</ele>
        <time>2021-02-28T07:49:46Z</time>
      </trkpt>
      <trkpt lat="45.13886" lon="6.35471">
        <ele>2685.2</ele>
        <time>2021-02-28T07:49:47Z</time>
      </trkpt>
      <trkpt lat="45.13886" lon="6.35471">
        <ele>2685.4</ele>
        <time>2021-02-28T07:49:48Z</time>
      </trkpt>
      <trkpt lat="45.13886" lon="6.35473">
        <ele>2685.6</ele>
        <time>2021-02-28T07:49:49Z</time>
      </trkpt>
      <trkpt lat="45.13886" lon="6.35473">
        <ele>2685.4</ele>
        <time>2021-02-28T07:49:50Z</time>
      </trkpt>
      <trkpt lat="45.13886" lon="6.35473">
        <ele>2685.4</ele>
        <time>2021-02-28T07:49:51Z</time>
      </trkpt>
      <trkpt lat="45.13885" lon="6.35476">
        <ele>2685.6</ele>
        <time>2021-02-28T07:49:52Z</time>
      </trkpt>
      <trkpt lat="45.13885" lon="6.35476">
        <ele>2685.8</ele>
        <time>2021-02-28T07:49:53Z</time>
      </trkpt>
      <trkpt lat="45.13884" lon="6.35477">
        <ele>2685.2</ele>
        <time>2021-02-28T07:49:54Z</time>
      </trkpt>
      <trkpt lat="45.13884" lon="6.35477">
        <ele>2685.8</ele>
        <time>2021-02-28T07:49:55Z</time>
      </trkpt>
      <trkpt lat="45.13884" lon="6.35477">
        <ele>2685.6</ele>
        <time>2021-02-28T07:49:56Z</time>
      </trkpt>
      <trkpt lat="45.13883" lon="6.3548">
        <ele>2685.6</ele>
        <time>2021-02-28T07:49:57Z</time>
      </trkpt>
      <trkpt lat="45.13883" lon="6.3548">
        <ele>2685.4</ele>
        <time>2021-02-28T07:49:58Z</time>
      </trkpt>
      <trkpt lat="45.13883" lon="6.3548">
        <ele>2685.8</ele>
        <time>2021-02-28T07:49:59Z</time>
      </trkpt>
      <trkpt lat="45.13883" lon="6.35483">
        <ele>2686</ele>
        <time>2021-02-28T07:50:00Z</time>
      </trkpt>
      <trkpt lat="45.13883" lon="6.35483">
        <ele>2686.2</ele>
        <time>2021-02-28T07:50:01Z</time>
      </trkpt>
      <trkpt lat="45.13883" lon="6.35483">
        <ele>2686.4</ele>
        <time>2021-02-28T07:50:02Z</time>
      </trkpt>
      <trkpt lat="45.13883" lon="6.35486">
        <ele>2686.4</ele>
        <time>2021-02-28T07:50:03Z</time>
      </trkpt>
      <trkpt lat="45.13883" lon="6.35486">
        <ele>2685.8</ele>
        <time>2021-02-28T07:50:04Z</time>
      </trkpt>
      <trkpt lat="45.13883" lon="6.35486">
        <ele>2685.8</ele>
        <time>2021-02-28T07:50:05Z</time>
      </trkpt>
      <trkpt lat="45.13882" lon="6.35489">
        <ele>2687.4</ele>
        <time>2021-02-28T07:50:06Z</time>
      </trkpt>
      <trkpt lat="45.13882" lon="6.35489">
        <ele>2687.4</ele>
        <time>2021-02-28T07:50:07Z</time>
      </trkpt>
      <trkpt lat="45.13882" lon="6.35489">
        <ele>2686.4</ele>
        <time>2021-02-28T07:50:08Z</time>
      </trkpt>
      <trkpt lat="45.1388" lon="6.35491">
        <ele>2687</ele>
        <time>2021-02-28T07:50:09Z</time>
      </trkpt>
      <trkpt lat="45.1388" lon="6.35491">
        <ele>2687.6</ele>
        <time>2021-02-28T07:50:10Z</time>
      </trkpt>
      <trkpt lat="45.13879" lon="6.35492">
        <ele>2688</ele>
        <time>2021-02-28T07:50:11Z</time>
      </trkpt>
      <trkpt lat="45.13879" lon="6.35492">
        <ele>2688.4</ele>
        <time>2021-02-28T07:50:12Z</time>
      </trkpt>
      <trkpt lat="45.13879" lon="6.35492">
        <ele>2688.2</ele>
        <time>2021-02-28T07:50:13Z</time>
      </trkpt>
      <trkpt lat="45.13877" lon="6.35494">
        <ele>2688.2</ele>
        <time>2021-02-28T07:50:14Z</time>
      </trkpt>
      <trkpt lat="45.13877" lon="6.35494">
        <ele>2689</ele>
        <time>2021-02-28T07:50:15Z</time>
      </trkpt>
      <trkpt lat="45.13877" lon="6.35494">
        <ele>2689.4</ele>
        <time>2021-02-28T07:50:16Z</time>
      </trkpt>
      <trkpt lat="45.13874" lon="6.35495">
        <ele>2689.8</ele>
        <time>2021-02-28T07:50:17Z</time>
      </trkpt>
      <trkpt lat="45.13874" lon="6.35495">
        <ele>2690</ele>
        <time>2021-02-28T07:50:18Z</time>
      </trkpt>
      <trkpt lat="45.13874" lon="6.35495">
        <ele>2689.6</ele>
        <time>2021-02-28T07:50:19Z</time>
      </trkpt>
      <trkpt lat="45.13874" lon="6.35495">
        <ele>2689.8</ele>
        <time>2021-02-28T07:50:20Z</time>
      </trkpt>
      <trkpt lat="45.13872" lon="6.35498">
        <ele>2688.8</ele>
        <time>2021-02-28T07:50:21Z</time>
      </trkpt>
      <trkpt lat="45.13872" lon="6.35498">
        <ele>2689.8</ele>
        <time>2021-02-28T07:50:22Z</time>
      </trkpt>
      <trkpt lat="45.13872" lon="6.35498">
        <ele>2690.6</ele>
        <time>2021-02-28T07:50:23Z</time>
      </trkpt>
      <trkpt lat="45.1387" lon="6.35499">
        <ele>2691</ele>
        <time>2021-02-28T07:50:24Z</time>
      </trkpt>
      <trkpt lat="45.1387" lon="6.35499">
        <ele>2691.2</ele>
        <time>2021-02-28T07:50:25Z</time>
      </trkpt>
      <trkpt lat="45.1387" lon="6.35499">
        <ele>2691.6</ele>
        <time>2021-02-28T07:50:26Z</time>
      </trkpt>
      <trkpt lat="45.13869" lon="6.35501">
        <ele>2691</ele>
        <time>2021-02-28T07:50:27Z</time>
      </trkpt>
      <trkpt lat="45.13869" lon="6.35501">
        <ele>2691.6</ele>
        <time>2021-02-28T07:50:28Z</time>
      </trkpt>
      <trkpt lat="45.13869" lon="6.35501">
        <ele>2691.4</ele>
        <time>2021-02-28T07:50:29Z</time>
      </trkpt>
      <trkpt lat="45.13867" lon="6.35503">
        <ele>2691.8</ele>
        <time>2021-02-28T07:50:30Z</time>
      </trkpt>
      <trkpt lat="45.13867" lon="6.35503">
        <ele>2692.2</ele>
        <time>2021-02-28T07:50:31Z</time>
      </trkpt>
      <trkpt lat="45.13867" lon="6.35503">
        <ele>2692.6</ele>
        <time>2021-02-28T07:50:32Z</time>
      </trkpt>
      <trkpt lat="45.13867" lon="6.35503">
        <ele>2692.8</ele>
        <time>2021-02-28T07:50:33Z</time>
      </trkpt>
      <trkpt lat="45.13865" lon="6.35504">
        <ele>2693.2</ele>
        <time>2021-02-28T07:50:34Z</time>
      </trkpt>
      <trkpt lat="45.13865" lon="6.35504">
        <ele>2693.4</ele>
        <time>2021-02-28T07:50:35Z</time>
      </trkpt>
      <trkpt lat="45.13863" lon="6.35504">
        <ele>2693.4</ele>
        <time>2021-02-28T07:50:36Z</time>
      </trkpt>
      <trkpt lat="45.13863" lon="6.35504">
        <ele>2693.8</ele>
        <time>2021-02-28T07:50:37Z</time>
      </trkpt>
      <trkpt lat="45.13863" lon="6.35504">
        <ele>2694.2</ele>
        <time>2021-02-28T07:50:38Z</time>
      </trkpt>
      <trkpt lat="45.13861" lon="6.35504">
        <ele>2694.4</ele>
        <time>2021-02-28T07:50:39Z</time>
      </trkpt>
      <trkpt lat="45.13861" lon="6.35504">
        <ele>2694</ele>
        <time>2021-02-28T07:50:40Z</time>
      </trkpt>
      <trkpt lat="45.13861" lon="6.35504">
        <ele>2692.8</ele>
        <time>2021-02-28T07:50:41Z</time>
      </trkpt>
      <trkpt lat="45.13859" lon="6.35505">
        <ele>2693</ele>
        <time>2021-02-28T07:50:42Z</time>
      </trkpt>
      <trkpt lat="45.13859" lon="6.35505">
        <ele>2694</ele>
        <time>2021-02-28T07:50:43Z</time>
      </trkpt>
      <trkpt lat="45.13859" lon="6.35505">
        <ele>2694.2</ele>
        <time>2021-02-28T07:50:44Z</time>
      </trkpt>
      <trkpt lat="45.13859" lon="6.35505">
        <ele>2694</ele>
        <time>2021-02-28T07:50:45Z</time>
      </trkpt>
      <trkpt lat="45.13859" lon="6.35505">
        <ele>2694</ele>
        <time>2021-02-28T07:50:46Z</time>
      </trkpt>
      <trkpt lat="45.13857" lon="6.35506">
        <ele>2694.4</ele>
        <time>2021-02-28T07:50:47Z</time>
      </trkpt>
      <trkpt lat="45.13857" lon="6.35506">
        <ele>2694.6</ele>
        <time>2021-02-28T07:50:48Z</time>
      </trkpt>
      <trkpt lat="45.13857" lon="6.35506">
        <ele>2694.6</ele>
        <time>2021-02-28T07:50:49Z</time>
      </trkpt>
      <trkpt lat="45.13854" lon="6.35506">
        <ele>2695</ele>
        <time>2021-02-28T07:50:50Z</time>
      </trkpt>
      <trkpt lat="45.13854" lon="6.35506">
        <ele>2695.2</ele>
        <time>2021-02-28T07:50:51Z</time>
      </trkpt>
      <trkpt lat="45.13854" lon="6.35506">
        <ele>2695.4</ele>
        <time>2021-02-28T07:50:52Z</time>
      </trkpt>
      <trkpt lat="45.13852" lon="6.35506">
        <ele>2695.2</ele>
        <time>2021-02-28T07:50:53Z</time>
      </trkpt>
      <trkpt lat="45.13852" lon="6.35506">
        <ele>2695.4</ele>
        <time>2021-02-28T07:50:54Z</time>
      </trkpt>
      <trkpt lat="45.13852" lon="6.35506">
        <ele>2695.4</ele>
        <time>2021-02-28T07:50:55Z</time>
      </trkpt>
      <trkpt lat="45.13852" lon="6.35506">
        <ele>2695.6</ele>
        <time>2021-02-28T07:50:56Z</time>
      </trkpt>
      <trkpt lat="45.13852" lon="6.35506">
        <ele>2696.2</ele>
        <time>2021-02-28T07:50:57Z</time>
      </trkpt>
      <trkpt lat="45.13852" lon="6.35506">
        <ele>2696</ele>
        <time>2021-02-28T07:50:58Z</time>
      </trkpt>
      <trkpt lat="45.13852" lon="6.35506">
        <ele>2695.6</ele>
        <time>2021-02-28T07:50:59Z</time>
      </trkpt>
      <trkpt lat="45.13852" lon="6.35506">
        <ele>2695.4</ele>
        <time>2021-02-28T07:51:00Z</time>
      </trkpt>
      <trkpt lat="45.13852" lon="6.35506">
        <ele>2695.2</ele>
        <time>2021-02-28T07:51:01Z</time>
      </trkpt>
      <trkpt lat="45.13854" lon="6.35509">
        <ele>2695.2</ele>
        <time>2021-02-28T07:51:02Z</time>
      </trkpt>
      <trkpt lat="45.13854" lon="6.35509">
        <ele>2695.8</ele>
        <time>2021-02-28T07:51:03Z</time>
      </trkpt>
      <trkpt lat="45.13854" lon="6.35509">
        <ele>2696.2</ele>
        <time>2021-02-28T07:51:04Z</time>
      </trkpt>
      <trkpt lat="45.13856" lon="6.3551">
        <ele>2695.4</ele>
        <time>2021-02-28T07:51:05Z</time>
      </trkpt>
      <trkpt lat="45.13856" lon="6.3551">
        <ele>2695.6</ele>
        <time>2021-02-28T07:51:06Z</time>
      </trkpt>
      <trkpt lat="45.13856" lon="6.3551">
        <ele>2696</ele>
        <time>2021-02-28T07:51:07Z</time>
      </trkpt>
      <trkpt lat="45.13858" lon="6.35512">
        <ele>2695.8</ele>
        <time>2021-02-28T07:51:08Z</time>
      </trkpt>
      <trkpt lat="45.13858" lon="6.35512">
        <ele>2696.4</ele>
        <time>2021-02-28T07:51:09Z</time>
      </trkpt>
      <trkpt lat="45.1386" lon="6.35513">
        <ele>2696.4</ele>
        <time>2021-02-28T07:51:10Z</time>
      </trkpt>
      <trkpt lat="45.1386" lon="6.35513">
        <ele>2695.8</ele>
        <time>2021-02-28T07:51:11Z</time>
      </trkpt>
      <trkpt lat="45.13861" lon="6.35515">
        <ele>2696.6</ele>
        <time>2021-02-28T07:51:12Z</time>
      </trkpt>
      <trkpt lat="45.13861" lon="6.35515">
        <ele>2697</ele>
        <time>2021-02-28T07:51:13Z</time>
      </trkpt>
      <trkpt lat="45.13863" lon="6.35516">
        <ele>2697</ele>
        <time>2021-02-28T07:51:14Z</time>
      </trkpt>
      <trkpt lat="45.13863" lon="6.35516">
        <ele>2698.4</ele>
        <time>2021-02-28T07:51:15Z</time>
      </trkpt>
      <trkpt lat="45.13865" lon="6.35517">
        <ele>2698.2</ele>
        <time>2021-02-28T07:51:16Z</time>
      </trkpt>
      <trkpt lat="45.13865" lon="6.35517">
        <ele>2698.2</ele>
        <time>2021-02-28T07:51:17Z</time>
      </trkpt>
      <trkpt lat="45.13867" lon="6.35518">
        <ele>2698.6</ele>
        <time>2021-02-28T07:51:18Z</time>
      </trkpt>
      <trkpt lat="45.13867" lon="6.35518">
        <ele>2698.2</ele>
        <time>2021-02-28T07:51:19Z</time>
      </trkpt>
      <trkpt lat="45.13867" lon="6.35518">
        <ele>2698.8</ele>
        <time>2021-02-28T07:51:20Z</time>
      </trkpt>
      <trkpt lat="45.13868" lon="6.35519">
        <ele>2699.4</ele>
        <time>2021-02-28T07:51:21Z</time>
      </trkpt>
      <trkpt lat="45.13868" lon="6.35519">
        <ele>2699.6</ele>
        <time>2021-02-28T07:51:22Z</time>
      </trkpt>
      <trkpt lat="45.13868" lon="6.35519">
        <ele>2699.2</ele>
        <time>2021-02-28T07:51:23Z</time>
      </trkpt>
      <trkpt lat="45.1387" lon="6.3552">
        <ele>2700</ele>
        <time>2021-02-28T07:51:24Z</time>
      </trkpt>
      <trkpt lat="45.1387" lon="6.3552">
        <ele>2700.2</ele>
        <time>2021-02-28T07:51:25Z</time>
      </trkpt>
      <trkpt lat="45.1387" lon="6.3552">
        <ele>2700.6</ele>
        <time>2021-02-28T07:51:26Z</time>
      </trkpt>
      <trkpt lat="45.13873" lon="6.35521">
        <ele>2701.4</ele>
        <time>2021-02-28T07:51:27Z</time>
      </trkpt>
      <trkpt lat="45.13873" lon="6.35521">
        <ele>2701</ele>
        <time>2021-02-28T07:51:28Z</time>
      </trkpt>
      <trkpt lat="45.13873" lon="6.35521">
        <ele>2701.4</ele>
        <time>2021-02-28T07:51:29Z</time>
      </trkpt>
      <trkpt lat="45.13875" lon="6.35522">
        <ele>2701.8</ele>
        <time>2021-02-28T07:51:30Z</time>
      </trkpt>
      <trkpt lat="45.13875" lon="6.35522">
        <ele>2702</ele>
        <time>2021-02-28T07:51:31Z</time>
      </trkpt>
      <trkpt lat="45.13875" lon="6.35522">
        <ele>2702.2</ele>
        <time>2021-02-28T07:51:32Z</time>
      </trkpt>
      <trkpt lat="45.13877" lon="6.35523">
        <ele>2702.4</ele>
        <time>2021-02-28T07:51:33Z</time>
      </trkpt>
      <trkpt lat="45.13877" lon="6.35523">
        <ele>2702.4</ele>
        <time>2021-02-28T07:51:34Z</time>
      </trkpt>
      <trkpt lat="45.13877" lon="6.35523">
        <ele>2702.6</ele>
        <time>2021-02-28T07:51:35Z</time>
      </trkpt>
      <trkpt lat="45.13877" lon="6.35523">
        <ele>2702.8</ele>
        <time>2021-02-28T07:51:36Z</time>
      </trkpt>
      <trkpt lat="45.13879" lon="6.35524">
        <ele>2702.4</ele>
        <time>2021-02-28T07:51:37Z</time>
      </trkpt>
      <trkpt lat="45.13879" lon="6.35524">
        <ele>2703.2</ele>
        <time>2021-02-28T07:51:38Z</time>
      </trkpt>
      <trkpt lat="45.13879" lon="6.35524">
        <ele>2703.4</ele>
        <time>2021-02-28T07:51:39Z</time>
      </trkpt>
      <trkpt lat="45.13881" lon="6.35525">
        <ele>2704.2</ele>
        <time>2021-02-28T07:51:40Z</time>
      </trkpt>
      <trkpt lat="45.13881" lon="6.35525">
        <ele>2704.6</ele>
        <time>2021-02-28T07:51:41Z</time>
      </trkpt>
      <trkpt lat="45.13881" lon="6.35525">
        <ele>2704.6</ele>
        <time>2021-02-28T07:51:42Z</time>
      </trkpt>
      <trkpt lat="45.13881" lon="6.35525">
        <ele>2704.6</ele>
        <time>2021-02-28T07:51:43Z</time>
      </trkpt>
      <trkpt lat="45.13883" lon="6.35526">
        <ele>2704.6</ele>
        <time>2021-02-28T07:51:44Z</time>
      </trkpt>
      <trkpt lat="45.13883" lon="6.35526">
        <ele>2704.2</ele>
        <time>2021-02-28T07:51:45Z</time>
      </trkpt>
      <trkpt lat="45.13883" lon="6.35526">
        <ele>2704</ele>
        <time>2021-02-28T07:51:46Z</time>
      </trkpt>
      <trkpt lat="45.13885" lon="6.35527">
        <ele>2704.4</ele>
        <time>2021-02-28T07:51:47Z</time>
      </trkpt>
      <trkpt lat="45.13885" lon="6.35527">
        <ele>2704.2</ele>
        <time>2021-02-28T07:51:48Z</time>
      </trkpt>
      <trkpt lat="45.13885" lon="6.35527">
        <ele>2704.8</ele>
        <time>2021-02-28T07:51:49Z</time>
      </trkpt>
      <trkpt lat="45.13887" lon="6.35528">
        <ele>2704.2</ele>
        <time>2021-02-28T07:51:50Z</time>
      </trkpt>
      <trkpt lat="45.13887" lon="6.35528">
        <ele>2704.4</ele>
        <time>2021-02-28T07:51:51Z</time>
      </trkpt>
      <trkpt lat="45.13887" lon="6.35528">
        <ele>2704.8</ele>
        <time>2021-02-28T07:51:52Z</time>
      </trkpt>
      <trkpt lat="45.13889" lon="6.3553">
        <ele>2705</ele>
        <time>2021-02-28T07:51:53Z</time>
      </trkpt>
      <trkpt lat="45.13889" lon="6.3553">
        <ele>2705.4</ele>
        <time>2021-02-28T07:51:54Z</time>
      </trkpt>
      <trkpt lat="45.13889" lon="6.3553">
        <ele>2705.4</ele>
        <time>2021-02-28T07:51:55Z</time>
      </trkpt>
      <trkpt lat="45.13891" lon="6.35531">
        <ele>2705</ele>
        <time>2021-02-28T07:51:56Z</time>
      </trkpt>
      <trkpt lat="45.13891" lon="6.35531">
        <ele>2705.6</ele>
        <time>2021-02-28T07:51:57Z</time>
      </trkpt>
      <trkpt lat="45.13891" lon="6.35531">
        <ele>2705.8</ele>
        <time>2021-02-28T07:51:58Z</time>
      </trkpt>
      <trkpt lat="45.13893" lon="6.35533">
        <ele>2705.8</ele>
        <time>2021-02-28T07:51:59Z</time>
      </trkpt>
      <trkpt lat="45.13893" lon="6.35533">
        <ele>2706.2</ele>
        <time>2021-02-28T07:52:00Z</time>
      </trkpt>
      <trkpt lat="45.13893" lon="6.35533">
        <ele>2707</ele>
        <time>2021-02-28T07:52:01Z</time>
      </trkpt>
      <trkpt lat="45.13895" lon="6.35535">
        <ele>2707</ele>
        <time>2021-02-28T07:52:02Z</time>
      </trkpt>
      <trkpt lat="45.13895" lon="6.35535">
        <ele>2707</ele>
        <time>2021-02-28T07:52:03Z</time>
      </trkpt>
      <trkpt lat="45.13895" lon="6.35535">
        <ele>2707</ele>
        <time>2021-02-28T07:52:04Z</time>
      </trkpt>
      <trkpt lat="45.13898" lon="6.35536">
        <ele>2706.6</ele>
        <time>2021-02-28T07:52:05Z</time>
      </trkpt>
      <trkpt lat="45.13898" lon="6.35536">
        <ele>2707.2</ele>
        <time>2021-02-28T07:52:06Z</time>
      </trkpt>
      <trkpt lat="45.13898" lon="6.35536">
        <ele>2706</ele>
        <time>2021-02-28T07:52:07Z</time>
      </trkpt>
      <trkpt lat="45.139" lon="6.35537">
        <ele>2706.4</ele>
        <time>2021-02-28T07:52:08Z</time>
      </trkpt>
      <trkpt lat="45.139" lon="6.35537">
        <ele>2707</ele>
        <time>2021-02-28T07:52:09Z</time>
      </trkpt>
      <trkpt lat="45.13902" lon="6.35539">
        <ele>2707.2</ele>
        <time>2021-02-28T07:52:10Z</time>
      </trkpt>
      <trkpt lat="45.13902" lon="6.35539">
        <ele>2707.6</ele>
        <time>2021-02-28T07:52:11Z</time>
      </trkpt>
      <trkpt lat="45.13903" lon="6.35541">
        <ele>2708</ele>
        <time>2021-02-28T07:52:12Z</time>
      </trkpt>
      <trkpt lat="45.13903" lon="6.35541">
        <ele>2708.6</ele>
        <time>2021-02-28T07:52:13Z</time>
      </trkpt>
      <trkpt lat="45.13903" lon="6.35541">
        <ele>2708.4</ele>
        <time>2021-02-28T07:52:14Z</time>
      </trkpt>
      <trkpt lat="45.13905" lon="6.35543">
        <ele>2709</ele>
        <time>2021-02-28T07:52:15Z</time>
      </trkpt>
      <trkpt lat="45.13905" lon="6.35543">
        <ele>2709.2</ele>
        <time>2021-02-28T07:52:16Z</time>
      </trkpt>
      <trkpt lat="45.13905" lon="6.35543">
        <ele>2709.4</ele>
        <time>2021-02-28T07:52:17Z</time>
      </trkpt>
      <trkpt lat="45.13908" lon="6.35544">
        <ele>2709.4</ele>
        <time>2021-02-28T07:52:18Z</time>
      </trkpt>
      <trkpt lat="45.13908" lon="6.35544">
        <ele>2710</ele>
        <time>2021-02-28T07:52:19Z</time>
      </trkpt>
      <trkpt lat="45.13908" lon="6.35544">
        <ele>2708.8</ele>
        <time>2021-02-28T07:52:20Z</time>
      </trkpt>
      <trkpt lat="45.1391" lon="6.35546">
        <ele>2709</ele>
        <time>2021-02-28T07:52:21Z</time>
      </trkpt>
      <trkpt lat="45.1391" lon="6.35546">
        <ele>2709.2</ele>
        <time>2021-02-28T07:52:22Z</time>
      </trkpt>
      <trkpt lat="45.1391" lon="6.35546">
        <ele>2708.8</ele>
        <time>2021-02-28T07:52:23Z</time>
      </trkpt>
      <trkpt lat="45.13913" lon="6.35547">
        <ele>2709</ele>
        <time>2021-02-28T07:52:24Z</time>
      </trkpt>
      <trkpt lat="45.13913" lon="6.35547">
        <ele>2709.2</ele>
        <time>2021-02-28T07:52:25Z</time>
      </trkpt>
      <trkpt lat="45.13914" lon="6.35548">
        <ele>2709</ele>
        <time>2021-02-28T07:52:26Z</time>
      </trkpt>
      <trkpt lat="45.13914" lon="6.35548">
        <ele>2709.8</ele>
        <time>2021-02-28T07:52:27Z</time>
      </trkpt>
      <trkpt lat="45.13914" lon="6.35548">
        <ele>2710</ele>
        <time>2021-02-28T07:52:28Z</time>
      </trkpt>
      <trkpt lat="45.13917" lon="6.35549">
        <ele>2710</ele>
        <time>2021-02-28T07:52:29Z</time>
      </trkpt>
      <trkpt lat="45.13917" lon="6.35549">
        <ele>2710.2</ele>
        <time>2021-02-28T07:52:30Z</time>
      </trkpt>
      <trkpt lat="45.13917" lon="6.35549">
        <ele>2710</ele>
        <time>2021-02-28T07:52:31Z</time>
      </trkpt>
      <trkpt lat="45.13919" lon="6.3555">
        <ele>2710.4</ele>
        <time>2021-02-28T07:52:32Z</time>
      </trkpt>
      <trkpt lat="45.13919" lon="6.3555">
        <ele>2710.8</ele>
        <time>2021-02-28T07:52:33Z</time>
      </trkpt>
      <trkpt lat="45.13919" lon="6.3555">
        <ele>2710.8</ele>
        <time>2021-02-28T07:52:34Z</time>
      </trkpt>
      <trkpt lat="45.13922" lon="6.35551">
        <ele>2711</ele>
        <time>2021-02-28T07:52:35Z</time>
      </trkpt>
      <trkpt lat="45.13922" lon="6.35551">
        <ele>2712</ele>
        <time>2021-02-28T07:52:36Z</time>
      </trkpt>
      <trkpt lat="45.13922" lon="6.35551">
        <ele>2711.8</ele>
        <time>2021-02-28T07:52:37Z</time>
      </trkpt>
      <trkpt lat="45.13924" lon="6.35551">
        <ele>2712.2</ele>
        <time>2021-02-28T07:52:38Z</time>
      </trkpt>
      <trkpt lat="45.13924" lon="6.35551">
        <ele>2712.2</ele>
        <time>2021-02-28T07:52:39Z</time>
      </trkpt>
      <trkpt lat="45.13926" lon="6.35552">
        <ele>2712</ele>
        <time>2021-02-28T07:52:40Z</time>
      </trkpt>
      <trkpt lat="45.13926" lon="6.35552">
        <ele>2712.4</ele>
        <time>2021-02-28T07:52:41Z</time>
      </trkpt>
      <trkpt lat="45.13928" lon="6.35552">
        <ele>2712.6</ele>
        <time>2021-02-28T07:52:42Z</time>
      </trkpt>
      <trkpt lat="45.13928" lon="6.35552">
        <ele>2713</ele>
        <time>2021-02-28T07:52:43Z</time>
      </trkpt>
      <trkpt lat="45.1393" lon="6.35552">
        <ele>2713.2</ele>
        <time>2021-02-28T07:52:44Z</time>
      </trkpt>
      <trkpt lat="45.1393" lon="6.35552">
        <ele>2713.6</ele>
        <time>2021-02-28T07:52:45Z</time>
      </trkpt>
      <trkpt lat="45.13932" lon="6.35552">
        <ele>2713.8</ele>
        <time>2021-02-28T07:52:46Z</time>
      </trkpt>
      <trkpt lat="45.13932" lon="6.35552">
        <ele>2714.4</ele>
        <time>2021-02-28T07:52:47Z</time>
      </trkpt>
      <trkpt lat="45.13932" lon="6.35552">
        <ele>2714.2</ele>
        <time>2021-02-28T07:52:48Z</time>
      </trkpt>
      <trkpt lat="45.13932" lon="6.35552">
        <ele>2714.4</ele>
        <time>2021-02-28T07:52:49Z</time>
      </trkpt>
      <trkpt lat="45.13932" lon="6.35552">
        <ele>2714.2</ele>
        <time>2021-02-28T07:52:50Z</time>
      </trkpt>
      <trkpt lat="45.13932" lon="6.35552">
        <ele>2714.4</ele>
        <time>2021-02-28T07:52:51Z</time>
      </trkpt>
      <trkpt lat="45.13932" lon="6.35552">
        <ele>2714.6</ele>
        <time>2021-02-28T07:52:52Z</time>
      </trkpt>
      <trkpt lat="45.13932" lon="6.35552">
        <ele>2714.8</ele>
        <time>2021-02-28T07:52:53Z</time>
      </trkpt>
      <trkpt lat="45.13932" lon="6.35552">
        <ele>2714.8</ele>
        <time>2021-02-28T07:52:54Z</time>
      </trkpt>
      <trkpt lat="45.13932" lon="6.35552">
        <ele>2714.8</ele>
        <time>2021-02-28T07:52:55Z</time>
      </trkpt>
      <trkpt lat="45.13932" lon="6.35552">
        <ele>2714.6</ele>
        <time>2021-02-28T07:52:56Z</time>
      </trkpt>
      <trkpt lat="45.13932" lon="6.35552">
        <ele>2714.6</ele>
        <time>2021-02-28T07:52:57Z</time>
      </trkpt>
      <trkpt lat="45.13932" lon="6.35552">
        <ele>2714.8</ele>
        <time>2021-02-28T07:52:58Z</time>
      </trkpt>
      <trkpt lat="45.13932" lon="6.35552">
        <ele>2715.2</ele>
        <time>2021-02-28T07:52:59Z</time>
      </trkpt>
      <trkpt lat="45.13932" lon="6.35552">
        <ele>2715.8</ele>
        <time>2021-02-28T07:53:00Z</time>
      </trkpt>
      <trkpt lat="45.13932" lon="6.35552">
        <ele>2715.2</ele>
        <time>2021-02-28T07:53:01Z</time>
      </trkpt>
      <trkpt lat="45.13932" lon="6.35552">
        <ele>2715.6</ele>
        <time>2021-02-28T07:53:02Z</time>
      </trkpt>
      <trkpt lat="45.13932" lon="6.35552">
        <ele>2716.2</ele>
        <time>2021-02-28T07:53:03Z</time>
      </trkpt>
      <trkpt lat="45.13932" lon="6.35555">
        <ele>2716.8</ele>
        <time>2021-02-28T07:53:04Z</time>
      </trkpt>
      <trkpt lat="45.13932" lon="6.35555">
        <ele>2716.4</ele>
        <time>2021-02-28T07:53:05Z</time>
      </trkpt>
      <trkpt lat="45.13931" lon="6.35557">
        <ele>2717</ele>
        <time>2021-02-28T07:53:06Z</time>
      </trkpt>
      <trkpt lat="45.13931" lon="6.35557">
        <ele>2717.2</ele>
        <time>2021-02-28T07:53:07Z</time>
      </trkpt>
      <trkpt lat="45.13931" lon="6.35557">
        <ele>2717.6</ele>
        <time>2021-02-28T07:53:08Z</time>
      </trkpt>
      <trkpt lat="45.13929" lon="6.35559">
        <ele>2717.6</ele>
        <time>2021-02-28T07:53:09Z</time>
      </trkpt>
      <trkpt lat="45.13929" lon="6.35559">
        <ele>2718.2</ele>
        <time>2021-02-28T07:53:10Z</time>
      </trkpt>
      <trkpt lat="45.13929" lon="6.35559">
        <ele>2718</ele>
        <time>2021-02-28T07:53:11Z</time>
      </trkpt>
      <trkpt lat="45.13927" lon="6.3556">
        <ele>2717.8</ele>
        <time>2021-02-28T07:53:12Z</time>
      </trkpt>
      <trkpt lat="45.13927" lon="6.3556">
        <ele>2718</ele>
        <time>2021-02-28T07:53:13Z</time>
      </trkpt>
      <trkpt lat="45.13926" lon="6.35562">
        <ele>2718.2</ele>
        <time>2021-02-28T07:53:14Z</time>
      </trkpt>
      <trkpt lat="45.13926" lon="6.35562">
        <ele>2718.8</ele>
        <time>2021-02-28T07:53:15Z</time>
      </trkpt>
      <trkpt lat="45.13924" lon="6.35564">
        <ele>2718.6</ele>
        <time>2021-02-28T07:53:16Z</time>
      </trkpt>
      <trkpt lat="45.13924" lon="6.35564">
        <ele>2718.8</ele>
        <time>2021-02-28T07:53:17Z</time>
      </trkpt>
      <trkpt lat="45.13924" lon="6.35564">
        <ele>2719</ele>
        <time>2021-02-28T07:53:18Z</time>
      </trkpt>
      <trkpt lat="45.13922" lon="6.35566">
        <ele>2717.6</ele>
        <time>2021-02-28T07:53:19Z</time>
      </trkpt>
      <trkpt lat="45.13922" lon="6.35566">
        <ele>2718.2</ele>
        <time>2021-02-28T07:53:20Z</time>
      </trkpt>
      <trkpt lat="45.13922" lon="6.35566">
        <ele>2718.4</ele>
        <time>2021-02-28T07:53:21Z</time>
      </trkpt>
      <trkpt lat="45.13919" lon="6.35568">
        <ele>2718.6</ele>
        <time>2021-02-28T07:53:22Z</time>
      </trkpt>
      <trkpt lat="45.13919" lon="6.35568">
        <ele>2718.4</ele>
        <time>2021-02-28T07:53:23Z</time>
      </trkpt>
      <trkpt lat="45.13919" lon="6.35568">
        <ele>2718.8</ele>
        <time>2021-02-28T07:53:24Z</time>
      </trkpt>
      <trkpt lat="45.13919" lon="6.35568">
        <ele>2719</ele>
        <time>2021-02-28T07:53:25Z</time>
      </trkpt>
      <trkpt lat="45.13918" lon="6.35568">
        <ele>2719.6</ele>
        <time>2021-02-28T07:53:26Z</time>
      </trkpt>
      <trkpt lat="45.13918" lon="6.35569">
        <ele>2719.4</ele>
        <time>2021-02-28T07:53:27Z</time>
      </trkpt>
      <trkpt lat="45.13918" lon="6.35569">
        <ele>2719.6</ele>
        <time>2021-02-28T07:53:28Z</time>
      </trkpt>
      <trkpt lat="45.13917" lon="6.3557">
        <ele>2720</ele>
        <time>2021-02-28T07:53:29Z</time>
      </trkpt>
      <trkpt lat="45.13917" lon="6.3557">
        <ele>2720.4</ele>
        <time>2021-02-28T07:53:30Z</time>
      </trkpt>
      <trkpt lat="45.13916" lon="6.3557">
        <ele>2720.8</ele>
        <time>2021-02-28T07:53:31Z</time>
      </trkpt>
      <trkpt lat="45.13916" lon="6.35571">
        <ele>2719.4</ele>
        <time>2021-02-28T07:53:32Z</time>
      </trkpt>
      <trkpt lat="45.13915" lon="6.35571">
        <ele>2720.2</ele>
        <time>2021-02-28T07:53:33Z</time>
      </trkpt>
      <trkpt lat="45.13915" lon="6.35571">
        <ele>2720.6</ele>
        <time>2021-02-28T07:53:34Z</time>
      </trkpt>
      <trkpt lat="45.13918" lon="6.35571">
        <ele>2719.8</ele>
        <time>2021-02-28T07:53:35Z</time>
      </trkpt>
      <trkpt lat="45.13918" lon="6.35571">
        <ele>2720</ele>
        <time>2021-02-28T07:53:36Z</time>
      </trkpt>
      <trkpt lat="45.13918" lon="6.35571">
        <ele>2720.4</ele>
        <time>2021-02-28T07:53:37Z</time>
      </trkpt>
      <trkpt lat="45.1392" lon="6.35571">
        <ele>2720.8</ele>
        <time>2021-02-28T07:53:38Z</time>
      </trkpt>
      <trkpt lat="45.1392" lon="6.35571">
        <ele>2721.4</ele>
        <time>2021-02-28T07:53:39Z</time>
      </trkpt>
      <trkpt lat="45.13922" lon="6.35571">
        <ele>2721.6</ele>
        <time>2021-02-28T07:53:40Z</time>
      </trkpt>
      <trkpt lat="45.13922" lon="6.35571">
        <ele>2721.6</ele>
        <time>2021-02-28T07:53:41Z</time>
      </trkpt>
      <trkpt lat="45.13923" lon="6.35572">
        <ele>2722.4</ele>
        <time>2021-02-28T07:53:42Z</time>
      </trkpt>
      <trkpt lat="45.13923" lon="6.35572">
        <ele>2722.8</ele>
        <time>2021-02-28T07:53:43Z</time>
      </trkpt>
      <trkpt lat="45.13923" lon="6.35572">
        <ele>2722.4</ele>
        <time>2021-02-28T07:53:44Z</time>
      </trkpt>
      <trkpt lat="45.13926" lon="6.35573">
        <ele>2722.8</ele>
        <time>2021-02-28T07:53:45Z</time>
      </trkpt>
      <trkpt lat="45.13926" lon="6.35573">
        <ele>2723.4</ele>
        <time>2021-02-28T07:53:46Z</time>
      </trkpt>
      <trkpt lat="45.13926" lon="6.35573">
        <ele>2723.2</ele>
        <time>2021-02-28T07:53:47Z</time>
      </trkpt>
      <trkpt lat="45.13929" lon="6.35573">
        <ele>2723.4</ele>
        <time>2021-02-28T07:53:48Z</time>
      </trkpt>
      <trkpt lat="45.13929" lon="6.35573">
        <ele>2723.6</ele>
        <time>2021-02-28T07:53:49Z</time>
      </trkpt>
      <trkpt lat="45.1393" lon="6.35573">
        <ele>2723.8</ele>
        <time>2021-02-28T07:53:50Z</time>
      </trkpt>
      <trkpt lat="45.1393" lon="6.35573">
        <ele>2724.2</ele>
        <time>2021-02-28T07:53:51Z</time>
      </trkpt>
      <trkpt lat="45.13932" lon="6.35574">
        <ele>2724.8</ele>
        <time>2021-02-28T07:53:52Z</time>
      </trkpt>
      <trkpt lat="45.13932" lon="6.35574">
        <ele>2724.4</ele>
        <time>2021-02-28T07:53:53Z</time>
      </trkpt>
      <trkpt lat="45.13934" lon="6.35574">
        <ele>2725</ele>
        <time>2021-02-28T07:53:54Z</time>
      </trkpt>
      <trkpt lat="45.13934" lon="6.35574">
        <ele>2725.4</ele>
        <time>2021-02-28T07:53:55Z</time>
      </trkpt>
      <trkpt lat="45.13936" lon="6.35575">
        <ele>2725.4</ele>
        <time>2021-02-28T07:53:56Z</time>
      </trkpt>
      <trkpt lat="45.13936" lon="6.35575">
        <ele>2725.8</ele>
        <time>2021-02-28T07:53:57Z</time>
      </trkpt>
      <trkpt lat="45.13938" lon="6.35576">
        <ele>2726.2</ele>
        <time>2021-02-28T07:53:58Z</time>
      </trkpt>
      <trkpt lat="45.13938" lon="6.35576">
        <ele>2726</ele>
        <time>2021-02-28T07:53:59Z</time>
      </trkpt>
      <trkpt lat="45.1394" lon="6.35576">
        <ele>2726.8</ele>
        <time>2021-02-28T07:54:00Z</time>
      </trkpt>
      <trkpt lat="45.1394" lon="6.35576">
        <ele>2727.2</ele>
        <time>2021-02-28T07:54:01Z</time>
      </trkpt>
      <trkpt lat="45.1394" lon="6.35576">
        <ele>2726.8</ele>
        <time>2021-02-28T07:54:02Z</time>
      </trkpt>
      <trkpt lat="45.13943" lon="6.35577">
        <ele>2727.2</ele>
        <time>2021-02-28T07:54:03Z</time>
      </trkpt>
      <trkpt lat="45.13943" lon="6.35577">
        <ele>2727.6</ele>
        <time>2021-02-28T07:54:04Z</time>
      </trkpt>
      <trkpt lat="45.13943" lon="6.35577">
        <ele>2726.8</ele>
        <time>2021-02-28T07:54:05Z</time>
      </trkpt>
      <trkpt lat="45.13945" lon="6.35577">
        <ele>2727.4</ele>
        <time>2021-02-28T07:54:06Z</time>
      </trkpt>
      <trkpt lat="45.13945" lon="6.35577">
        <ele>2727.6</ele>
        <time>2021-02-28T07:54:07Z</time>
      </trkpt>
      <trkpt lat="45.13947" lon="6.35577">
        <ele>2727</ele>
        <time>2021-02-28T07:54:08Z</time>
      </trkpt>
      <trkpt lat="45.13947" lon="6.35577">
        <ele>2727.6</ele>
        <time>2021-02-28T07:54:09Z</time>
      </trkpt>
      <trkpt lat="45.13947" lon="6.35577">
        <ele>2728.2</ele>
        <time>2021-02-28T07:54:10Z</time>
      </trkpt>
      <trkpt lat="45.1395" lon="6.35576">
        <ele>2727.8</ele>
        <time>2021-02-28T07:54:11Z</time>
      </trkpt>
      <trkpt lat="45.1395" lon="6.35576">
        <ele>2728.4</ele>
        <time>2021-02-28T07:54:12Z</time>
      </trkpt>
      <trkpt lat="45.13952" lon="6.35576">
        <ele>2728.8</ele>
        <time>2021-02-28T07:54:13Z</time>
      </trkpt>
      <trkpt lat="45.13952" lon="6.35576">
        <ele>2728.6</ele>
        <time>2021-02-28T07:54:14Z</time>
      </trkpt>
      <trkpt lat="45.13954" lon="6.35578">
        <ele>2728.8</ele>
        <time>2021-02-28T07:54:15Z</time>
      </trkpt>
      <trkpt lat="45.13954" lon="6.35578">
        <ele>2729</ele>
        <time>2021-02-28T07:54:16Z</time>
      </trkpt>
      <trkpt lat="45.13956" lon="6.35578">
        <ele>2729</ele>
        <time>2021-02-28T07:54:17Z</time>
      </trkpt>
      <trkpt lat="45.13956" lon="6.35578">
        <ele>2729.6</ele>
        <time>2021-02-28T07:54:18Z</time>
      </trkpt>
      <trkpt lat="45.13956" lon="6.35578">
        <ele>2730.2</ele>
        <time>2021-02-28T07:54:19Z</time>
      </trkpt>
      <trkpt lat="45.13958" lon="6.35578">
        <ele>2729.8</ele>
        <time>2021-02-28T07:54:20Z</time>
      </trkpt>
      <trkpt lat="45.13958" lon="6.35578">
        <ele>2730.2</ele>
        <time>2021-02-28T07:54:21Z</time>
      </trkpt>
      <trkpt lat="45.13958" lon="6.35578">
        <ele>2730.6</ele>
        <time>2021-02-28T07:54:22Z</time>
      </trkpt>
      <trkpt lat="45.1396" lon="6.35577">
        <ele>2730.6</ele>
        <time>2021-02-28T07:54:23Z</time>
      </trkpt>
      <trkpt lat="45.1396" lon="6.35577">
        <ele>2731.4</ele>
        <time>2021-02-28T07:54:24Z</time>
      </trkpt>
      <trkpt lat="45.1396" lon="6.35577">
        <ele>2731.8</ele>
        <time>2021-02-28T07:54:25Z</time>
      </trkpt>
      <trkpt lat="45.13963" lon="6.35577">
        <ele>2731.6</ele>
        <time>2021-02-28T07:54:26Z</time>
      </trkpt>
      <trkpt lat="45.13963" lon="6.35577">
        <ele>2732</ele>
        <time>2021-02-28T07:54:27Z</time>
      </trkpt>
      <trkpt lat="45.13963" lon="6.35577">
        <ele>2732.4</ele>
        <time>2021-02-28T07:54:28Z</time>
      </trkpt>
      <trkpt lat="45.13965" lon="6.35577">
        <ele>2732.2</ele>
        <time>2021-02-28T07:54:29Z</time>
      </trkpt>
      <trkpt lat="45.13965" lon="6.35577">
        <ele>2732.4</ele>
        <time>2021-02-28T07:54:30Z</time>
      </trkpt>
      <trkpt lat="45.13965" lon="6.35577">
        <ele>2733</ele>
        <time>2021-02-28T07:54:31Z</time>
      </trkpt>
      <trkpt lat="45.13968" lon="6.35577">
        <ele>2733</ele>
        <time>2021-02-28T07:54:32Z</time>
      </trkpt>
      <trkpt lat="45.13968" lon="6.35577">
        <ele>2733.4</ele>
        <time>2021-02-28T07:54:33Z</time>
      </trkpt>
      <trkpt lat="45.13968" lon="6.35577">
        <ele>2732.6</ele>
        <time>2021-02-28T07:54:34Z</time>
      </trkpt>
      <trkpt lat="45.13968" lon="6.35577">
        <ele>2733.6</ele>
        <time>2021-02-28T07:54:35Z</time>
      </trkpt>
      <trkpt lat="45.13968" lon="6.35577">
        <ele>2734.2</ele>
        <time>2021-02-28T07:54:36Z</time>
      </trkpt>
      <trkpt lat="45.13968" lon="6.35579">
        <ele>2734.4</ele>
        <time>2021-02-28T07:54:37Z</time>
      </trkpt>
      <trkpt lat="45.13968" lon="6.35579">
        <ele>2734.6</ele>
        <time>2021-02-28T07:54:38Z</time>
      </trkpt>
      <trkpt lat="45.13968" lon="6.35579">
        <ele>2734.8</ele>
        <time>2021-02-28T07:54:39Z</time>
      </trkpt>
      <trkpt lat="45.13966" lon="6.35582">
        <ele>2735</ele>
        <time>2021-02-28T07:54:40Z</time>
      </trkpt>
      <trkpt lat="45.13966" lon="6.35582">
        <ele>2735.4</ele>
        <time>2021-02-28T07:54:41Z</time>
      </trkpt>
      <trkpt lat="45.13966" lon="6.35582">
        <ele>2735.2</ele>
        <time>2021-02-28T07:54:42Z</time>
      </trkpt>
      <trkpt lat="45.13964" lon="6.35585">
        <ele>2736</ele>
        <time>2021-02-28T07:54:43Z</time>
      </trkpt>
      <trkpt lat="45.13964" lon="6.35585">
        <ele>2736.6</ele>
        <time>2021-02-28T07:54:44Z</time>
      </trkpt>
      <trkpt lat="45.13964" lon="6.35585">
        <ele>2737.2</ele>
        <time>2021-02-28T07:54:45Z</time>
      </trkpt>
      <trkpt lat="45.13963" lon="6.35587">
        <ele>2737.4</ele>
        <time>2021-02-28T07:54:46Z</time>
      </trkpt>
      <trkpt lat="45.13963" lon="6.35587">
        <ele>2737</ele>
        <time>2021-02-28T07:54:47Z</time>
      </trkpt>
      <trkpt lat="45.13961" lon="6.35589">
        <ele>2737</ele>
        <time>2021-02-28T07:54:48Z</time>
      </trkpt>
      <trkpt lat="45.13961" lon="6.35589">
        <ele>2737</ele>
        <time>2021-02-28T07:54:49Z</time>
      </trkpt>
      <trkpt lat="45.13961" lon="6.35589">
        <ele>2737.4</ele>
        <time>2021-02-28T07:54:50Z</time>
      </trkpt>
      <trkpt lat="45.1396" lon="6.35591">
        <ele>2737.2</ele>
        <time>2021-02-28T07:54:51Z</time>
      </trkpt>
      <trkpt lat="45.1396" lon="6.35591">
        <ele>2737.8</ele>
        <time>2021-02-28T07:54:52Z</time>
      </trkpt>
      <trkpt lat="45.1396" lon="6.35591">
        <ele>2738</ele>
        <time>2021-02-28T07:54:53Z</time>
      </trkpt>
      <trkpt lat="45.13958" lon="6.35594">
        <ele>2737</ele>
        <time>2021-02-28T07:54:54Z</time>
      </trkpt>
      <trkpt lat="45.13958" lon="6.35594">
        <ele>2737.4</ele>
        <time>2021-02-28T07:54:55Z</time>
      </trkpt>
      <trkpt lat="45.13958" lon="6.35594">
        <ele>2738</ele>
        <time>2021-02-28T07:54:56Z</time>
      </trkpt>
      <trkpt lat="45.13957" lon="6.35596">
        <ele>2738.4</ele>
        <time>2021-02-28T07:54:57Z</time>
      </trkpt>
      <trkpt lat="45.13957" lon="6.35596">
        <ele>2739.2</ele>
        <time>2021-02-28T07:54:58Z</time>
      </trkpt>
      <trkpt lat="45.13955" lon="6.35597">
        <ele>2739.8</ele>
        <time>2021-02-28T07:54:59Z</time>
      </trkpt>
      <trkpt lat="45.13955" lon="6.35597">
        <ele>2739.8</ele>
        <time>2021-02-28T07:55:00Z</time>
      </trkpt>
      <trkpt lat="45.13953" lon="6.35599">
        <ele>2740</ele>
        <time>2021-02-28T07:55:01Z</time>
      </trkpt>
      <trkpt lat="45.13953" lon="6.35599">
        <ele>2739.8</ele>
        <time>2021-02-28T07:55:02Z</time>
      </trkpt>
      <trkpt lat="45.13951" lon="6.356">
        <ele>2740</ele>
        <time>2021-02-28T07:55:03Z</time>
      </trkpt>
      <trkpt lat="45.13951" lon="6.356">
        <ele>2740.4</ele>
        <time>2021-02-28T07:55:04Z</time>
      </trkpt>
      <trkpt lat="45.13951" lon="6.356">
        <ele>2741</ele>
        <time>2021-02-28T07:55:05Z</time>
      </trkpt>
      <trkpt lat="45.13949" lon="6.35602">
        <ele>2741</ele>
        <time>2021-02-28T07:55:06Z</time>
      </trkpt>
      <trkpt lat="45.13949" lon="6.35602">
        <ele>2741.2</ele>
        <time>2021-02-28T07:55:07Z</time>
      </trkpt>
      <trkpt lat="45.13949" lon="6.35602">
        <ele>2741.2</ele>
        <time>2021-02-28T07:55:08Z</time>
      </trkpt>
      <trkpt lat="45.13949" lon="6.35602">
        <ele>2740.6</ele>
        <time>2021-02-28T07:55:09Z</time>
      </trkpt>
      <trkpt lat="45.13949" lon="6.35602">
        <ele>2741</ele>
        <time>2021-02-28T07:55:10Z</time>
      </trkpt>
      <trkpt lat="45.13949" lon="6.35602">
        <ele>2741.6</ele>
        <time>2021-02-28T07:55:11Z</time>
      </trkpt>
      <trkpt lat="45.13949" lon="6.35602">
        <ele>2741.8</ele>
        <time>2021-02-28T07:55:12Z</time>
      </trkpt>
      <trkpt lat="45.13949" lon="6.35602">
        <ele>2740.6</ele>
        <time>2021-02-28T07:55:13Z</time>
      </trkpt>
      <trkpt lat="45.13949" lon="6.35602">
        <ele>2740.8</ele>
        <time>2021-02-28T07:55:14Z</time>
      </trkpt>
      <trkpt lat="45.13951" lon="6.35604">
        <ele>2740.8</ele>
        <time>2021-02-28T07:55:15Z</time>
      </trkpt>
      <trkpt lat="45.13951" lon="6.35604">
        <ele>2740.4</ele>
        <time>2021-02-28T07:55:16Z</time>
      </trkpt>
      <trkpt lat="45.13953" lon="6.35604">
        <ele>2740.8</ele>
        <time>2021-02-28T07:55:17Z</time>
      </trkpt>
      <trkpt lat="45.13953" lon="6.35604">
        <ele>2741.2</ele>
        <time>2021-02-28T07:55:18Z</time>
      </trkpt>
      <trkpt lat="45.13953" lon="6.35604">
        <ele>2740.2</ele>
        <time>2021-02-28T07:55:19Z</time>
      </trkpt>
      <trkpt lat="45.13956" lon="6.35604">
        <ele>2741</ele>
        <time>2021-02-28T07:55:20Z</time>
      </trkpt>
      <trkpt lat="45.13956" lon="6.35604">
        <ele>2741.8</ele>
        <time>2021-02-28T07:55:21Z</time>
      </trkpt>
      <trkpt lat="45.13956" lon="6.35604">
        <ele>2741.2</ele>
        <time>2021-02-28T07:55:22Z</time>
      </trkpt>
      <trkpt lat="45.13958" lon="6.35604">
        <ele>2742</ele>
        <time>2021-02-28T07:55:23Z</time>
      </trkpt>
      <trkpt lat="45.13958" lon="6.35604">
        <ele>2742.6</ele>
        <time>2021-02-28T07:55:24Z</time>
      </trkpt>
      <trkpt lat="45.13958" lon="6.35604">
        <ele>2742.6</ele>
        <time>2021-02-28T07:55:25Z</time>
      </trkpt>
      <trkpt lat="45.1396" lon="6.35604">
        <ele>2743.2</ele>
        <time>2021-02-28T07:55:26Z</time>
      </trkpt>
      <trkpt lat="45.1396" lon="6.35604">
        <ele>2742.2</ele>
        <time>2021-02-28T07:55:27Z</time>
      </trkpt>
      <trkpt lat="45.13962" lon="6.35604">
        <ele>2742.8</ele>
        <time>2021-02-28T07:55:28Z</time>
      </trkpt>
      <trkpt lat="45.13962" lon="6.35604">
        <ele>2743.2</ele>
        <time>2021-02-28T07:55:29Z</time>
      </trkpt>
      <trkpt lat="45.13962" lon="6.35604">
        <ele>2742.6</ele>
        <time>2021-02-28T07:55:30Z</time>
      </trkpt>
      <trkpt lat="45.13962" lon="6.35604">
        <ele>2743.6</ele>
        <time>2021-02-28T07:55:31Z</time>
      </trkpt>
      <trkpt lat="45.13965" lon="6.35604">
        <ele>2743.8</ele>
        <time>2021-02-28T07:55:32Z</time>
      </trkpt>
      <trkpt lat="45.13965" lon="6.35604">
        <ele>2743.6</ele>
        <time>2021-02-28T07:55:33Z</time>
      </trkpt>
      <trkpt lat="45.13965" lon="6.35604">
        <ele>2744</ele>
        <time>2021-02-28T07:55:34Z</time>
      </trkpt>
      <trkpt lat="45.13966" lon="6.35603">
        <ele>2744.4</ele>
        <time>2021-02-28T07:55:35Z</time>
      </trkpt>
      <trkpt lat="45.13966" lon="6.35603">
        <ele>2744.6</ele>
        <time>2021-02-28T07:55:36Z</time>
      </trkpt>
      <trkpt lat="45.13966" lon="6.35603">
        <ele>2745.2</ele>
        <time>2021-02-28T07:55:37Z</time>
      </trkpt>
      <trkpt lat="45.13969" lon="6.35602">
        <ele>2744.6</ele>
        <time>2021-02-28T07:55:38Z</time>
      </trkpt>
      <trkpt lat="45.13969" lon="6.35602">
        <ele>2745</ele>
        <time>2021-02-28T07:55:39Z</time>
      </trkpt>
      <trkpt lat="45.13969" lon="6.35602">
        <ele>2745.6</ele>
        <time>2021-02-28T07:55:40Z</time>
      </trkpt>
      <trkpt lat="45.13971" lon="6.35602">
        <ele>2745.2</ele>
        <time>2021-02-28T07:55:41Z</time>
      </trkpt>
      <trkpt lat="45.13971" lon="6.35602">
        <ele>2745.6</ele>
        <time>2021-02-28T07:55:42Z</time>
      </trkpt>
      <trkpt lat="45.13971" lon="6.35602">
        <ele>2746.4</ele>
        <time>2021-02-28T07:55:43Z</time>
      </trkpt>
      <trkpt lat="45.13973" lon="6.35601">
        <ele>2746.2</ele>
        <time>2021-02-28T07:55:44Z</time>
      </trkpt>
      <trkpt lat="45.13973" lon="6.35601">
        <ele>2746.8</ele>
        <time>2021-02-28T07:55:45Z</time>
      </trkpt>
      <trkpt lat="45.13973" lon="6.35601">
        <ele>2746.8</ele>
        <time>2021-02-28T07:55:46Z</time>
      </trkpt>
      <trkpt lat="45.13973" lon="6.35601">
        <ele>2747.2</ele>
        <time>2021-02-28T07:55:47Z</time>
      </trkpt>
      <trkpt lat="45.13973" lon="6.35601">
        <ele>2747.6</ele>
        <time>2021-02-28T07:55:48Z</time>
      </trkpt>
      <trkpt lat="45.13975" lon="6.35601">
        <ele>2747.8</ele>
        <time>2021-02-28T07:55:49Z</time>
      </trkpt>
      <trkpt lat="45.13975" lon="6.35601">
        <ele>2748</ele>
        <time>2021-02-28T07:55:50Z</time>
      </trkpt>
      <trkpt lat="45.13975" lon="6.35601">
        <ele>2748</ele>
        <time>2021-02-28T07:55:51Z</time>
      </trkpt>
      <trkpt lat="45.13977" lon="6.35601">
        <ele>2748.4</ele>
        <time>2021-02-28T07:55:52Z</time>
      </trkpt>
      <trkpt lat="45.13977" lon="6.35601">
        <ele>2747.8</ele>
        <time>2021-02-28T07:55:53Z</time>
      </trkpt>
      <trkpt lat="45.13977" lon="6.35601">
        <ele>2748.4</ele>
        <time>2021-02-28T07:55:54Z</time>
      </trkpt>
      <trkpt lat="45.13979" lon="6.356">
        <ele>2748.8</ele>
        <time>2021-02-28T07:55:55Z</time>
      </trkpt>
      <trkpt lat="45.13979" lon="6.356">
        <ele>2749.2</ele>
        <time>2021-02-28T07:55:56Z</time>
      </trkpt>
      <trkpt lat="45.13979" lon="6.356">
        <ele>2750</ele>
        <time>2021-02-28T07:55:57Z</time>
      </trkpt>
      <trkpt lat="45.13981" lon="6.356">
        <ele>2749</ele>
        <time>2021-02-28T07:55:58Z</time>
      </trkpt>
      <trkpt lat="45.13981" lon="6.356">
        <ele>2749.8</ele>
        <time>2021-02-28T07:55:59Z</time>
      </trkpt>
      <trkpt lat="45.13981" lon="6.356">
        <ele>2750.2</ele>
        <time>2021-02-28T07:56:00Z</time>
      </trkpt>
      <trkpt lat="45.13981" lon="6.356">
        <ele>2750.8</ele>
        <time>2021-02-28T07:56:01Z</time>
      </trkpt>
      <trkpt lat="45.13981" lon="6.356">
        <ele>2751.4</ele>
        <time>2021-02-28T07:56:02Z</time>
      </trkpt>
      <trkpt lat="45.13982" lon="6.35603">
        <ele>2751.4</ele>
        <time>2021-02-28T07:56:03Z</time>
      </trkpt>
      <trkpt lat="45.13982" lon="6.35603">
        <ele>2751.4</ele>
        <time>2021-02-28T07:56:04Z</time>
      </trkpt>
      <trkpt lat="45.13982" lon="6.35603">
        <ele>2751.6</ele>
        <time>2021-02-28T07:56:05Z</time>
      </trkpt>
      <trkpt lat="45.13981" lon="6.35606">
        <ele>2751.8</ele>
        <time>2021-02-28T07:56:06Z</time>
      </trkpt>
      <trkpt lat="45.13981" lon="6.35606">
        <ele>2752</ele>
        <time>2021-02-28T07:56:07Z</time>
      </trkpt>
      <trkpt lat="45.13981" lon="6.35606">
        <ele>2752.4</ele>
        <time>2021-02-28T07:56:08Z</time>
      </trkpt>
      <trkpt lat="45.1398" lon="6.35608">
        <ele>2752.6</ele>
        <time>2021-02-28T07:56:09Z</time>
      </trkpt>
      <trkpt lat="45.1398" lon="6.35608">
        <ele>2752.8</ele>
        <time>2021-02-28T07:56:10Z</time>
      </trkpt>
      <trkpt lat="45.13978" lon="6.3561">
        <ele>2753</ele>
        <time>2021-02-28T07:56:11Z</time>
      </trkpt>
      <trkpt lat="45.13978" lon="6.3561">
        <ele>2753</ele>
        <time>2021-02-28T07:56:12Z</time>
      </trkpt>
      <trkpt lat="45.13977" lon="6.35611">
        <ele>2753.2</ele>
        <time>2021-02-28T07:56:13Z</time>
      </trkpt>
      <trkpt lat="45.13977" lon="6.35611">
        <ele>2753.2</ele>
        <time>2021-02-28T07:56:14Z</time>
      </trkpt>
      <trkpt lat="45.13977" lon="6.35611">
        <ele>2753.6</ele>
        <time>2021-02-28T07:56:15Z</time>
      </trkpt>
      <trkpt lat="45.13975" lon="6.35614">
        <ele>2753.4</ele>
        <time>2021-02-28T07:56:16Z</time>
      </trkpt>
      <trkpt lat="45.13975" lon="6.35614">
        <ele>2753</ele>
        <time>2021-02-28T07:56:17Z</time>
      </trkpt>
      <trkpt lat="45.13975" lon="6.35614">
        <ele>2753</ele>
        <time>2021-02-28T07:56:18Z</time>
      </trkpt>
      <trkpt lat="45.13973" lon="6.35617">
        <ele>2753.4</ele>
        <time>2021-02-28T07:56:19Z</time>
      </trkpt>
      <trkpt lat="45.13973" lon="6.35617">
        <ele>2753.6</ele>
        <time>2021-02-28T07:56:20Z</time>
      </trkpt>
      <trkpt lat="45.13973" lon="6.35617">
        <ele>2753.6</ele>
        <time>2021-02-28T07:56:21Z</time>
      </trkpt>
      <trkpt lat="45.13972" lon="6.3562">
        <ele>2754.2</ele>
        <time>2021-02-28T07:56:22Z</time>
      </trkpt>
      <trkpt lat="45.13972" lon="6.3562">
        <ele>2754.6</ele>
        <time>2021-02-28T07:56:23Z</time>
      </trkpt>
      <trkpt lat="45.13972" lon="6.3562">
        <ele>2754.4</ele>
        <time>2021-02-28T07:56:24Z</time>
      </trkpt>
      <trkpt lat="45.1397" lon="6.35622">
        <ele>2754.8</ele>
        <time>2021-02-28T07:56:25Z</time>
      </trkpt>
      <trkpt lat="45.1397" lon="6.35622">
        <ele>2755.6</ele>
        <time>2021-02-28T07:56:26Z</time>
      </trkpt>
      <trkpt lat="45.1397" lon="6.35622">
        <ele>2756.2</ele>
        <time>2021-02-28T07:56:27Z</time>
      </trkpt>
      <trkpt lat="45.13968" lon="6.35625">
        <ele>2756.6</ele>
        <time>2021-02-28T07:56:28Z</time>
      </trkpt>
      <trkpt lat="45.13968" lon="6.35625">
        <ele>2757</ele>
        <time>2021-02-28T07:56:29Z</time>
      </trkpt>
      <trkpt lat="45.13968" lon="6.35625">
        <ele>2756.6</ele>
        <time>2021-02-28T07:56:30Z</time>
      </trkpt>
      <trkpt lat="45.13967" lon="6.35628">
        <ele>2756.8</ele>
        <time>2021-02-28T07:56:31Z</time>
      </trkpt>
      <trkpt lat="45.13967" lon="6.35628">
        <ele>2754.6</ele>
        <time>2021-02-28T07:56:32Z</time>
      </trkpt>
      <trkpt lat="45.13967" lon="6.35628">
        <ele>2754.4</ele>
        <time>2021-02-28T07:56:33Z</time>
      </trkpt>
      <trkpt lat="45.13965" lon="6.3563">
        <ele>2754.2</ele>
        <time>2021-02-28T07:56:34Z</time>
      </trkpt>
      <trkpt lat="45.13965" lon="6.3563">
        <ele>2754.2</ele>
        <time>2021-02-28T07:56:35Z</time>
      </trkpt>
      <trkpt lat="45.13965" lon="6.3563">
        <ele>2755.4</ele>
        <time>2021-02-28T07:56:36Z</time>
      </trkpt>
      <trkpt lat="45.13965" lon="6.3563">
        <ele>2755.2</ele>
        <time>2021-02-28T07:56:37Z</time>
      </trkpt>
      <trkpt lat="45.13965" lon="6.35633">
        <ele>2755.8</ele>
        <time>2021-02-28T07:56:38Z</time>
      </trkpt>
      <trkpt lat="45.13965" lon="6.35633">
        <ele>2756.6</ele>
        <time>2021-02-28T07:56:39Z</time>
      </trkpt>
      <trkpt lat="45.13965" lon="6.35633">
        <ele>2757</ele>
        <time>2021-02-28T07:56:40Z</time>
      </trkpt>
      <trkpt lat="45.13963" lon="6.35635">
        <ele>2757.6</ele>
        <time>2021-02-28T07:56:41Z</time>
      </trkpt>
      <trkpt lat="45.13963" lon="6.35635">
        <ele>2757.6</ele>
        <time>2021-02-28T07:56:42Z</time>
      </trkpt>
      <trkpt lat="45.13962" lon="6.35637">
        <ele>2757.2</ele>
        <time>2021-02-28T07:56:43Z</time>
      </trkpt>
      <trkpt lat="45.13962" lon="6.35637">
        <ele>2757.4</ele>
        <time>2021-02-28T07:56:44Z</time>
      </trkpt>
      <trkpt lat="45.13962" lon="6.35637">
        <ele>2758.2</ele>
        <time>2021-02-28T07:56:45Z</time>
      </trkpt>
      <trkpt lat="45.1396" lon="6.35639">
        <ele>2758.6</ele>
        <time>2021-02-28T07:56:46Z</time>
      </trkpt>
      <trkpt lat="45.1396" lon="6.35639">
        <ele>2757.4</ele>
        <time>2021-02-28T07:56:47Z</time>
      </trkpt>
      <trkpt lat="45.1396" lon="6.35639">
        <ele>2757.8</ele>
        <time>2021-02-28T07:56:48Z</time>
      </trkpt>
      <trkpt lat="45.1396" lon="6.35639">
        <ele>2759</ele>
        <time>2021-02-28T07:56:49Z</time>
      </trkpt>
      <trkpt lat="45.1396" lon="6.35639">
        <ele>2759.2</ele>
        <time>2021-02-28T07:56:50Z</time>
      </trkpt>
      <trkpt lat="45.1396" lon="6.35639">
        <ele>2759.6</ele>
        <time>2021-02-28T07:56:51Z</time>
      </trkpt>
      <trkpt lat="45.1396" lon="6.35639">
        <ele>2759</ele>
        <time>2021-02-28T07:56:52Z</time>
      </trkpt>
      <trkpt lat="45.1396" lon="6.35639">
        <ele>2758.6</ele>
        <time>2021-02-28T07:56:53Z</time>
      </trkpt>
      <trkpt lat="45.13962" lon="6.35639">
        <ele>2758.8</ele>
        <time>2021-02-28T07:56:54Z</time>
      </trkpt>
      <trkpt lat="45.13962" lon="6.35639">
        <ele>2759</ele>
        <time>2021-02-28T07:56:55Z</time>
      </trkpt>
      <trkpt lat="45.13962" lon="6.35639">
        <ele>2760.2</ele>
        <time>2021-02-28T07:56:56Z</time>
      </trkpt>
      <trkpt lat="45.13965" lon="6.35638">
        <ele>2760</ele>
        <time>2021-02-28T07:56:57Z</time>
      </trkpt>
      <trkpt lat="45.13965" lon="6.35638">
        <ele>2759.8</ele>
        <time>2021-02-28T07:56:58Z</time>
      </trkpt>
      <trkpt lat="45.13965" lon="6.35638">
        <ele>2760.8</ele>
        <time>2021-02-28T07:56:59Z</time>
      </trkpt>
      <trkpt lat="45.13967" lon="6.35638">
        <ele>2761.2</ele>
        <time>2021-02-28T07:57:00Z</time>
      </trkpt>
      <trkpt lat="45.13967" lon="6.35638">
        <ele>2761</ele>
        <time>2021-02-28T07:57:01Z</time>
      </trkpt>
      <trkpt lat="45.13967" lon="6.35638">
        <ele>2761.2</ele>
        <time>2021-02-28T07:57:02Z</time>
      </trkpt>
      <trkpt lat="45.13968" lon="6.35637">
        <ele>2760.6</ele>
        <time>2021-02-28T07:57:03Z</time>
      </trkpt>
      <trkpt lat="45.13968" lon="6.35637">
        <ele>2761</ele>
        <time>2021-02-28T07:57:04Z</time>
      </trkpt>
      <trkpt lat="45.13968" lon="6.35637">
        <ele>2761.2</ele>
        <time>2021-02-28T07:57:05Z</time>
      </trkpt>
      <trkpt lat="45.13968" lon="6.35637">
        <ele>2760.6</ele>
        <time>2021-02-28T07:57:06Z</time>
      </trkpt>
      <trkpt lat="45.1397" lon="6.35636">
        <ele>2761.2</ele>
        <time>2021-02-28T07:57:07Z</time>
      </trkpt>
      <trkpt lat="45.1397" lon="6.35636">
        <ele>2761.8</ele>
        <time>2021-02-28T07:57:08Z</time>
      </trkpt>
      <trkpt lat="45.1397" lon="6.35636">
        <ele>2761.8</ele>
        <time>2021-02-28T07:57:09Z</time>
      </trkpt>
      <trkpt lat="45.13972" lon="6.35636">
        <ele>2762.6</ele>
        <time>2021-02-28T07:57:10Z</time>
      </trkpt>
      <trkpt lat="45.13972" lon="6.35636">
        <ele>2762.8</ele>
        <time>2021-02-28T07:57:11Z</time>
      </trkpt>
      <trkpt lat="45.13972" lon="6.35636">
        <ele>2763</ele>
        <time>2021-02-28T07:57:12Z</time>
      </trkpt>
      <trkpt lat="45.13975" lon="6.35636">
        <ele>2763.4</ele>
        <time>2021-02-28T07:57:13Z</time>
      </trkpt>
      <trkpt lat="45.13975" lon="6.35636">
        <ele>2763.2</ele>
        <time>2021-02-28T07:57:14Z</time>
      </trkpt>
      <trkpt lat="45.13975" lon="6.35636">
        <ele>2764</ele>
        <time>2021-02-28T07:57:15Z</time>
      </trkpt>
      <trkpt lat="45.13975" lon="6.35636">
        <ele>2764</ele>
        <time>2021-02-28T07:57:16Z</time>
      </trkpt>
      <trkpt lat="45.13977" lon="6.35636">
        <ele>2764</ele>
        <time>2021-02-28T07:57:17Z</time>
      </trkpt>
      <trkpt lat="45.13977" lon="6.35636">
        <ele>2764.6</ele>
        <time>2021-02-28T07:57:18Z</time>
      </trkpt>
      <trkpt lat="45.13977" lon="6.35636">
        <ele>2764.6</ele>
        <time>2021-02-28T07:57:19Z</time>
      </trkpt>
      <trkpt lat="45.13979" lon="6.35636">
        <ele>2765.6</ele>
        <time>2021-02-28T07:57:20Z</time>
      </trkpt>
      <trkpt lat="45.13979" lon="6.35636">
        <ele>2766</ele>
        <time>2021-02-28T07:57:21Z</time>
      </trkpt>
      <trkpt lat="45.13979" lon="6.35636">
        <ele>2765.6</ele>
        <time>2021-02-28T07:57:22Z</time>
      </trkpt>
      <trkpt lat="45.13982" lon="6.35635">
        <ele>2766.2</ele>
        <time>2021-02-28T07:57:23Z</time>
      </trkpt>
      <trkpt lat="45.13982" lon="6.35635">
        <ele>2766.4</ele>
        <time>2021-02-28T07:57:24Z</time>
      </trkpt>
      <trkpt lat="45.13984" lon="6.35635">
        <ele>2766.8</ele>
        <time>2021-02-28T07:57:25Z</time>
      </trkpt>
      <trkpt lat="45.13984" lon="6.35635">
        <ele>2767.2</ele>
        <time>2021-02-28T07:57:26Z</time>
      </trkpt>
      <trkpt lat="45.13984" lon="6.35635">
        <ele>2766.6</ele>
        <time>2021-02-28T07:57:27Z</time>
      </trkpt>
      <trkpt lat="45.13984" lon="6.35635">
        <ele>2767.4</ele>
        <time>2021-02-28T07:57:28Z</time>
      </trkpt>
      <trkpt lat="45.13986" lon="6.35634">
        <ele>2767.6</ele>
        <time>2021-02-28T07:57:29Z</time>
      </trkpt>
      <trkpt lat="45.13986" lon="6.35634">
        <ele>2767.8</ele>
        <time>2021-02-28T07:57:30Z</time>
      </trkpt>
      <trkpt lat="45.13986" lon="6.35634">
        <ele>2768.4</ele>
        <time>2021-02-28T07:57:31Z</time>
      </trkpt>
      <trkpt lat="45.13988" lon="6.35633">
        <ele>2768.4</ele>
        <time>2021-02-28T07:57:32Z</time>
      </trkpt>
      <trkpt lat="45.13988" lon="6.35633">
        <ele>2768.8</ele>
        <time>2021-02-28T07:57:33Z</time>
      </trkpt>
      <trkpt lat="45.1399" lon="6.35632">
        <ele>2769.2</ele>
        <time>2021-02-28T07:57:34Z</time>
      </trkpt>
      <trkpt lat="45.1399" lon="6.35632">
        <ele>2769.4</ele>
        <time>2021-02-28T07:57:35Z</time>
      </trkpt>
      <trkpt lat="45.1399" lon="6.35632">
        <ele>2769.2</ele>
        <time>2021-02-28T07:57:36Z</time>
      </trkpt>
      <trkpt lat="45.13992" lon="6.35632">
        <ele>2770</ele>
        <time>2021-02-28T07:57:37Z</time>
      </trkpt>
      <trkpt lat="45.13992" lon="6.35632">
        <ele>2770.2</ele>
        <time>2021-02-28T07:57:38Z</time>
      </trkpt>
      <trkpt lat="45.13992" lon="6.35632">
        <ele>2770.2</ele>
        <time>2021-02-28T07:57:39Z</time>
      </trkpt>
      <trkpt lat="45.13994" lon="6.35631">
        <ele>2769.2</ele>
        <time>2021-02-28T07:57:40Z</time>
      </trkpt>
      <trkpt lat="45.13994" lon="6.35631">
        <ele>2769.6</ele>
        <time>2021-02-28T07:57:41Z</time>
      </trkpt>
      <trkpt lat="45.13994" lon="6.35631">
        <ele>2770</ele>
        <time>2021-02-28T07:57:42Z</time>
      </trkpt>
      <trkpt lat="45.13994" lon="6.35631">
        <ele>2770.2</ele>
        <time>2021-02-28T07:57:43Z</time>
      </trkpt>
      <trkpt lat="45.13994" lon="6.35631">
        <ele>2770.2</ele>
        <time>2021-02-28T07:57:44Z</time>
      </trkpt>
      <trkpt lat="45.13994" lon="6.35631">
        <ele>2770.6</ele>
        <time>2021-02-28T07:57:45Z</time>
      </trkpt>
      <trkpt lat="45.13994" lon="6.35631">
        <ele>2771.4</ele>
        <time>2021-02-28T07:57:46Z</time>
      </trkpt>
      <trkpt lat="45.13994" lon="6.35634">
        <ele>2771.6</ele>
        <time>2021-02-28T07:57:47Z</time>
      </trkpt>
      <trkpt lat="45.13994" lon="6.35634">
        <ele>2771.6</ele>
        <time>2021-02-28T07:57:48Z</time>
      </trkpt>
      <trkpt lat="45.13993" lon="6.35637">
        <ele>2772</ele>
        <time>2021-02-28T07:57:49Z</time>
      </trkpt>
      <trkpt lat="45.13993" lon="6.35637">
        <ele>2772.6</ele>
        <time>2021-02-28T07:57:50Z</time>
      </trkpt>
      <trkpt lat="45.13993" lon="6.35637">
        <ele>2772.6</ele>
        <time>2021-02-28T07:57:51Z</time>
      </trkpt>
      <trkpt lat="45.13993" lon="6.35639">
        <ele>2773</ele>
        <time>2021-02-28T07:57:52Z</time>
      </trkpt>
      <trkpt lat="45.13993" lon="6.35639">
        <ele>2773</ele>
        <time>2021-02-28T07:57:53Z</time>
      </trkpt>
      <trkpt lat="45.13993" lon="6.35639">
        <ele>2773.2</ele>
        <time>2021-02-28T07:57:54Z</time>
      </trkpt>
      <trkpt lat="45.13991" lon="6.35641">
        <ele>2773.6</ele>
        <time>2021-02-28T07:57:55Z</time>
      </trkpt>
      <trkpt lat="45.13991" lon="6.35641">
        <ele>2773.6</ele>
        <time>2021-02-28T07:57:56Z</time>
      </trkpt>
      <trkpt lat="45.13991" lon="6.35641">
        <ele>2773.6</ele>
        <time>2021-02-28T07:57:57Z</time>
      </trkpt>
      <trkpt lat="45.13991" lon="6.35644">
        <ele>2773.4</ele>
        <time>2021-02-28T07:57:58Z</time>
      </trkpt>
      <trkpt lat="45.13991" lon="6.35644">
        <ele>2773.8</ele>
        <time>2021-02-28T07:57:59Z</time>
      </trkpt>
      <trkpt lat="45.13991" lon="6.35644">
        <ele>2774</ele>
        <time>2021-02-28T07:58:00Z</time>
      </trkpt>
      <trkpt lat="45.1399" lon="6.35647">
        <ele>2774.6</ele>
        <time>2021-02-28T07:58:01Z</time>
      </trkpt>
      <trkpt lat="45.1399" lon="6.35647">
        <ele>2775</ele>
        <time>2021-02-28T07:58:02Z</time>
      </trkpt>
      <trkpt lat="45.1399" lon="6.35647">
        <ele>2775.2</ele>
        <time>2021-02-28T07:58:03Z</time>
      </trkpt>
      <trkpt lat="45.13988" lon="6.35649">
        <ele>2775</ele>
        <time>2021-02-28T07:58:04Z</time>
      </trkpt>
      <trkpt lat="45.13988" lon="6.35649">
        <ele>2774.6</ele>
        <time>2021-02-28T07:58:05Z</time>
      </trkpt>
      <trkpt lat="45.13988" lon="6.35649">
        <ele>2775</ele>
        <time>2021-02-28T07:58:06Z</time>
      </trkpt>
      <trkpt lat="45.13987" lon="6.35652">
        <ele>2775</ele>
        <time>2021-02-28T07:58:07Z</time>
      </trkpt>
      <trkpt lat="45.13987" lon="6.35652">
        <ele>2775.4</ele>
        <time>2021-02-28T07:58:08Z</time>
      </trkpt>
      <trkpt lat="45.13987" lon="6.35652">
        <ele>2775.4</ele>
        <time>2021-02-28T07:58:09Z</time>
      </trkpt>
      <trkpt lat="45.13987" lon="6.35654">
        <ele>2775.4</ele>
        <time>2021-02-28T07:58:10Z</time>
      </trkpt>
      <trkpt lat="45.13987" lon="6.35654">
        <ele>2775.6</ele>
        <time>2021-02-28T07:58:11Z</time>
      </trkpt>
      <trkpt lat="45.13985" lon="6.35656">
        <ele>2775.6</ele>
        <time>2021-02-28T07:58:12Z</time>
      </trkpt>
      <trkpt lat="45.13985" lon="6.35656">
        <ele>2775.8</ele>
        <time>2021-02-28T07:58:13Z</time>
      </trkpt>
      <trkpt lat="45.13985" lon="6.35656">
        <ele>2775</ele>
        <time>2021-02-28T07:58:14Z</time>
      </trkpt>
      <trkpt lat="45.13984" lon="6.35659">
        <ele>2775.4</ele>
        <time>2021-02-28T07:58:15Z</time>
      </trkpt>
      <trkpt lat="45.13984" lon="6.35659">
        <ele>2776</ele>
        <time>2021-02-28T07:58:16Z</time>
      </trkpt>
      <trkpt lat="45.13984" lon="6.35659">
        <ele>2775.4</ele>
        <time>2021-02-28T07:58:17Z</time>
      </trkpt>
      <trkpt lat="45.13983" lon="6.35662">
        <ele>2776.6</ele>
        <time>2021-02-28T07:58:18Z</time>
      </trkpt>
      <trkpt lat="45.13983" lon="6.35662">
        <ele>2776.8</ele>
        <time>2021-02-28T07:58:19Z</time>
      </trkpt>
      <trkpt lat="45.13983" lon="6.35662">
        <ele>2776.6</ele>
        <time>2021-02-28T07:58:20Z</time>
      </trkpt>
      <trkpt lat="45.13981" lon="6.35664">
        <ele>2777.2</ele>
        <time>2021-02-28T07:58:21Z</time>
      </trkpt>
      <trkpt lat="45.13981" lon="6.35664">
        <ele>2777.4</ele>
        <time>2021-02-28T07:58:22Z</time>
      </trkpt>
      <trkpt lat="45.13981" lon="6.35664">
        <ele>2777.8</ele>
        <time>2021-02-28T07:58:23Z</time>
      </trkpt>
      <trkpt lat="45.1398" lon="6.35667">
        <ele>2777.6</ele>
        <time>2021-02-28T07:58:24Z</time>
      </trkpt>
      <trkpt lat="45.1398" lon="6.35667">
        <ele>2777.6</ele>
        <time>2021-02-28T07:58:25Z</time>
      </trkpt>
      <trkpt lat="45.1398" lon="6.35667">
        <ele>2778</ele>
        <time>2021-02-28T07:58:26Z</time>
      </trkpt>
      <trkpt lat="45.1398" lon="6.35667">
        <ele>2777.4</ele>
        <time>2021-02-28T07:58:27Z</time>
      </trkpt>
      <trkpt lat="45.1398" lon="6.35667">
        <ele>2777.8</ele>
        <time>2021-02-28T07:58:28Z</time>
      </trkpt>
      <trkpt lat="45.1398" lon="6.35667">
        <ele>2777.8</ele>
        <time>2021-02-28T07:58:29Z</time>
      </trkpt>
      <trkpt lat="45.1398" lon="6.35667">
        <ele>2778.6</ele>
        <time>2021-02-28T07:58:30Z</time>
      </trkpt>
      <trkpt lat="45.1398" lon="6.35667">
        <ele>2778</ele>
        <time>2021-02-28T07:58:31Z</time>
      </trkpt>
      <trkpt lat="45.1398" lon="6.35667">
        <ele>2778.2</ele>
        <time>2021-02-28T07:58:32Z</time>
      </trkpt>
      <trkpt lat="45.1398" lon="6.35667">
        <ele>2778</ele>
        <time>2021-02-28T07:58:33Z</time>
      </trkpt>
      <trkpt lat="45.1398" lon="6.35667">
        <ele>2777.4</ele>
        <time>2021-02-28T07:58:34Z</time>
      </trkpt>
      <trkpt lat="45.1398" lon="6.35667">
        <ele>2778</ele>
        <time>2021-02-28T07:58:35Z</time>
      </trkpt>
      <trkpt lat="45.1398" lon="6.35667">
        <ele>2777.8</ele>
        <time>2021-02-28T07:58:36Z</time>
      </trkpt>
      <trkpt lat="45.1398" lon="6.35667">
        <ele>2777.4</ele>
        <time>2021-02-28T07:58:37Z</time>
      </trkpt>
      <trkpt lat="45.1398" lon="6.35667">
        <ele>2777.6</ele>
        <time>2021-02-28T07:58:38Z</time>
      </trkpt>
      <trkpt lat="45.1398" lon="6.35667">
        <ele>2778</ele>
        <time>2021-02-28T07:58:39Z</time>
      </trkpt>
      <trkpt lat="45.13982" lon="6.35667">
        <ele>2777.6</ele>
        <time>2021-02-28T07:58:40Z</time>
      </trkpt>
      <trkpt lat="45.13982" lon="6.35667">
        <ele>2778.2</ele>
        <time>2021-02-28T07:58:41Z</time>
      </trkpt>
      <trkpt lat="45.13982" lon="6.35667">
        <ele>2778.2</ele>
        <time>2021-02-28T07:58:42Z</time>
      </trkpt>
      <trkpt lat="45.13984" lon="6.35665">
        <ele>2778</ele>
        <time>2021-02-28T07:58:43Z</time>
      </trkpt>
      <trkpt lat="45.13984" lon="6.35665">
        <ele>2778.4</ele>
        <time>2021-02-28T07:58:44Z</time>
      </trkpt>
      <trkpt lat="45.13984" lon="6.35665">
        <ele>2778.8</ele>
        <time>2021-02-28T07:58:45Z</time>
      </trkpt>
      <trkpt lat="45.13986" lon="6.35664">
        <ele>2779</ele>
        <time>2021-02-28T07:58:46Z</time>
      </trkpt>
      <trkpt lat="45.13986" lon="6.35664">
        <ele>2779.4</ele>
        <time>2021-02-28T07:58:47Z</time>
      </trkpt>
      <trkpt lat="45.13986" lon="6.35664">
        <ele>2779.4</ele>
        <time>2021-02-28T07:58:48Z</time>
      </trkpt>
      <trkpt lat="45.13988" lon="6.35663">
        <ele>2779.8</ele>
        <time>2021-02-28T07:58:49Z</time>
      </trkpt>
      <trkpt lat="45.13988" lon="6.35663">
        <ele>2780.2</ele>
        <time>2021-02-28T07:58:50Z</time>
      </trkpt>
      <trkpt lat="45.13988" lon="6.35663">
        <ele>2780</ele>
        <time>2021-02-28T07:58:51Z</time>
      </trkpt>
      <trkpt lat="45.1399" lon="6.35662">
        <ele>2780.2</ele>
        <time>2021-02-28T07:58:52Z</time>
      </trkpt>
      <trkpt lat="45.1399" lon="6.35662">
        <ele>2780.4</ele>
        <time>2021-02-28T07:58:53Z</time>
      </trkpt>
      <trkpt lat="45.1399" lon="6.35662">
        <ele>2780.2</ele>
        <time>2021-02-28T07:58:54Z</time>
      </trkpt>
      <trkpt lat="45.13992" lon="6.35661">
        <ele>2781</ele>
        <time>2021-02-28T07:58:55Z</time>
      </trkpt>
      <trkpt lat="45.13992" lon="6.35661">
        <ele>2781</ele>
        <time>2021-02-28T07:58:56Z</time>
      </trkpt>
      <trkpt lat="45.13992" lon="6.35661">
        <ele>2781</ele>
        <time>2021-02-28T07:58:57Z</time>
      </trkpt>
      <trkpt lat="45.13992" lon="6.35661">
        <ele>2781.6</ele>
        <time>2021-02-28T07:58:58Z</time>
      </trkpt>
      <trkpt lat="45.13994" lon="6.3566">
        <ele>2782.2</ele>
        <time>2021-02-28T07:58:59Z</time>
      </trkpt>
      <trkpt lat="45.13994" lon="6.3566">
        <ele>2782.2</ele>
        <time>2021-02-28T07:59:00Z</time>
      </trkpt>
      <trkpt lat="45.13994" lon="6.3566">
        <ele>2783</ele>
        <time>2021-02-28T07:59:01Z</time>
      </trkpt>
      <trkpt lat="45.13996" lon="6.3566">
        <ele>2783</ele>
        <time>2021-02-28T07:59:02Z</time>
      </trkpt>
      <trkpt lat="45.13996" lon="6.3566">
        <ele>2782.8</ele>
        <time>2021-02-28T07:59:03Z</time>
      </trkpt>
      <trkpt lat="45.13996" lon="6.3566">
        <ele>2783</ele>
        <time>2021-02-28T07:59:04Z</time>
      </trkpt>
      <trkpt lat="45.13996" lon="6.3566">
        <ele>2782.4</ele>
        <time>2021-02-28T07:59:05Z</time>
      </trkpt>
      <trkpt lat="45.13998" lon="6.3566">
        <ele>2782.8</ele>
        <time>2021-02-28T07:59:06Z</time>
      </trkpt>
      <trkpt lat="45.13998" lon="6.3566">
        <ele>2782.8</ele>
        <time>2021-02-28T07:59:07Z</time>
      </trkpt>
      <trkpt lat="45.13998" lon="6.3566">
        <ele>2783.4</ele>
        <time>2021-02-28T07:59:08Z</time>
      </trkpt>
      <trkpt lat="45.14" lon="6.35659">
        <ele>2783.8</ele>
        <time>2021-02-28T07:59:09Z</time>
      </trkpt>
      <trkpt lat="45.14" lon="6.35659">
        <ele>2783.8</ele>
        <time>2021-02-28T07:59:10Z</time>
      </trkpt>
      <trkpt lat="45.14" lon="6.35659">
        <ele>2784.8</ele>
        <time>2021-02-28T07:59:11Z</time>
      </trkpt>
      <trkpt lat="45.14" lon="6.35659">
        <ele>2784.6</ele>
        <time>2021-02-28T07:59:12Z</time>
      </trkpt>
      <trkpt lat="45.14002" lon="6.35659">
        <ele>2784.6</ele>
        <time>2021-02-28T07:59:13Z</time>
      </trkpt>
      <trkpt lat="45.14002" lon="6.35659">
        <ele>2784.8</ele>
        <time>2021-02-28T07:59:14Z</time>
      </trkpt>
      <trkpt lat="45.14002" lon="6.35659">
        <ele>2784.6</ele>
        <time>2021-02-28T07:59:15Z</time>
      </trkpt>
      <trkpt lat="45.14002" lon="6.35659">
        <ele>2785.2</ele>
        <time>2021-02-28T07:59:16Z</time>
      </trkpt>
      <trkpt lat="45.14002" lon="6.35659">
        <ele>2785.4</ele>
        <time>2021-02-28T07:59:17Z</time>
      </trkpt>
      <trkpt lat="45.14002" lon="6.35659">
        <ele>2785.6</ele>
        <time>2021-02-28T07:59:18Z</time>
      </trkpt>
      <trkpt lat="45.14002" lon="6.35659">
        <ele>2785.8</ele>
        <time>2021-02-28T07:59:19Z</time>
      </trkpt>
      <trkpt lat="45.14004" lon="6.35658">
        <ele>2785.8</ele>
        <time>2021-02-28T07:59:20Z</time>
      </trkpt>
      <trkpt lat="45.14004" lon="6.35658">
        <ele>2786.4</ele>
        <time>2021-02-28T07:59:21Z</time>
      </trkpt>
      <trkpt lat="45.14004" lon="6.35658">
        <ele>2786.2</ele>
        <time>2021-02-28T07:59:22Z</time>
      </trkpt>
      <trkpt lat="45.14004" lon="6.35658">
        <ele>2787</ele>
        <time>2021-02-28T07:59:23Z</time>
      </trkpt>
      <trkpt lat="45.14004" lon="6.35658">
        <ele>2787.2</ele>
        <time>2021-02-28T07:59:24Z</time>
      </trkpt>
      <trkpt lat="45.14004" lon="6.35658">
        <ele>2787</ele>
        <time>2021-02-28T07:59:25Z</time>
      </trkpt>
      <trkpt lat="45.14004" lon="6.35658">
        <ele>2787.4</ele>
        <time>2021-02-28T07:59:26Z</time>
      </trkpt>
      <trkpt lat="45.14004" lon="6.35658">
        <ele>2789</ele>
        <time>2021-02-28T07:59:27Z</time>
      </trkpt>
      <trkpt lat="45.14004" lon="6.35658">
        <ele>2789</ele>
        <time>2021-02-28T07:59:28Z</time>
      </trkpt>
      <trkpt lat="45.14004" lon="6.35658">
        <ele>2789</ele>
        <time>2021-02-28T07:59:29Z</time>
      </trkpt>
      <trkpt lat="45.14005" lon="6.35661">
        <ele>2789</ele>
        <time>2021-02-28T07:59:30Z</time>
      </trkpt>
      <trkpt lat="45.14005" lon="6.35661">
        <ele>2788.8</ele>
        <time>2021-02-28T07:59:31Z</time>
      </trkpt>
      <trkpt lat="45.14005" lon="6.35661">
        <ele>2789.2</ele>
        <time>2021-02-28T07:59:32Z</time>
      </trkpt>
      <trkpt lat="45.14004" lon="6.35664">
        <ele>2789.8</ele>
        <time>2021-02-28T07:59:33Z</time>
      </trkpt>
      <trkpt lat="45.14004" lon="6.35664">
        <ele>2790.2</ele>
        <time>2021-02-28T07:59:34Z</time>
      </trkpt>
      <trkpt lat="45.14004" lon="6.35664">
        <ele>2789.8</ele>
        <time>2021-02-28T07:59:35Z</time>
      </trkpt>
      <trkpt lat="45.14003" lon="6.35667">
        <ele>2790.2</ele>
        <time>2021-02-28T07:59:36Z</time>
      </trkpt>
      <trkpt lat="45.14003" lon="6.35667">
        <ele>2790.2</ele>
        <time>2021-02-28T07:59:37Z</time>
      </trkpt>
      <trkpt lat="45.14003" lon="6.35667">
        <ele>2789.6</ele>
        <time>2021-02-28T07:59:38Z</time>
      </trkpt>
      <trkpt lat="45.14002" lon="6.3567">
        <ele>2790</ele>
        <time>2021-02-28T07:59:39Z</time>
      </trkpt>
      <trkpt lat="45.14002" lon="6.3567">
        <ele>2790.4</ele>
        <time>2021-02-28T07:59:40Z</time>
      </trkpt>
      <trkpt lat="45.14002" lon="6.3567">
        <ele>2790.6</ele>
        <time>2021-02-28T07:59:41Z</time>
      </trkpt>
      <trkpt lat="45.14001" lon="6.35673">
        <ele>2790.8</ele>
        <time>2021-02-28T07:59:42Z</time>
      </trkpt>
      <trkpt lat="45.14001" lon="6.35673">
        <ele>2791.4</ele>
        <time>2021-02-28T07:59:43Z</time>
      </trkpt>
      <trkpt lat="45.14001" lon="6.35673">
        <ele>2791.4</ele>
        <time>2021-02-28T07:59:44Z</time>
      </trkpt>
      <trkpt lat="45.14001" lon="6.35673">
        <ele>2791.6</ele>
        <time>2021-02-28T07:59:45Z</time>
      </trkpt>
      <trkpt lat="45.14001" lon="6.35676">
        <ele>2792.4</ele>
        <time>2021-02-28T07:59:46Z</time>
      </trkpt>
      <trkpt lat="45.14001" lon="6.35676">
        <ele>2792.4</ele>
        <time>2021-02-28T07:59:47Z</time>
      </trkpt>
      <trkpt lat="45.14001" lon="6.35676">
        <ele>2792.6</ele>
        <time>2021-02-28T07:59:48Z</time>
      </trkpt>
      <trkpt lat="45.14001" lon="6.35676">
        <ele>2793</ele>
        <time>2021-02-28T07:59:49Z</time>
      </trkpt>
      <trkpt lat="45.14001" lon="6.35676">
        <ele>2792.6</ele>
        <time>2021-02-28T07:59:50Z</time>
      </trkpt>
      <trkpt lat="45.14001" lon="6.35676">
        <ele>2792.8</ele>
        <time>2021-02-28T07:59:51Z</time>
      </trkpt>
      <trkpt lat="45.14001" lon="6.35676">
        <ele>2793</ele>
        <time>2021-02-28T07:59:52Z</time>
      </trkpt>
      <trkpt lat="45.14001" lon="6.35676">
        <ele>2793</ele>
        <time>2021-02-28T07:59:53Z</time>
      </trkpt>
      <trkpt lat="45.14001" lon="6.35676">
        <ele>2792.6</ele>
        <time>2021-02-28T07:59:54Z</time>
      </trkpt>
      <trkpt lat="45.14001" lon="6.35676">
        <ele>2793</ele>
        <time>2021-02-28T07:59:55Z</time>
      </trkpt>
      <trkpt lat="45.14001" lon="6.35676">
        <ele>2792.8</ele>
        <time>2021-02-28T07:59:56Z</time>
      </trkpt>
      <trkpt lat="45.14001" lon="6.35676">
        <ele>2792.4</ele>
        <time>2021-02-28T07:59:57Z</time>
      </trkpt>
      <trkpt lat="45.14001" lon="6.35676">
        <ele>2792.6</ele>
        <time>2021-02-28T07:59:58Z</time>
      </trkpt>
      <trkpt lat="45.14001" lon="6.35676">
        <ele>2791.6</ele>
        <time>2021-02-28T07:59:59Z</time>
      </trkpt>
      <trkpt lat="45.14003" lon="6.35676">
        <ele>2791.8</ele>
        <time>2021-02-28T08:00:00Z</time>
      </trkpt>
      <trkpt lat="45.14003" lon="6.35676">
        <ele>2792.4</ele>
        <time>2021-02-28T08:00:01Z</time>
      </trkpt>
      <trkpt lat="45.14003" lon="6.35676">
        <ele>2792</ele>
        <time>2021-02-28T08:00:02Z</time>
      </trkpt>
      <trkpt lat="45.14005" lon="6.35675">
        <ele>2792.4</ele>
        <time>2021-02-28T08:00:03Z</time>
      </trkpt>
      <trkpt lat="45.14005" lon="6.35675">
        <ele>2792.2</ele>
        <time>2021-02-28T08:00:04Z</time>
      </trkpt>
      <trkpt lat="45.14005" lon="6.35675">
        <ele>2792.6</ele>
        <time>2021-02-28T08:00:05Z</time>
      </trkpt>
      <trkpt lat="45.14007" lon="6.35673">
        <ele>2792.6</ele>
        <time>2021-02-28T08:00:06Z</time>
      </trkpt>
      <trkpt lat="45.14007" lon="6.35673">
        <ele>2792.6</ele>
        <time>2021-02-28T08:00:07Z</time>
      </trkpt>
      <trkpt lat="45.14007" lon="6.35673">
        <ele>2793</ele>
        <time>2021-02-28T08:00:08Z</time>
      </trkpt>
      <trkpt lat="45.14009" lon="6.35673">
        <ele>2793.4</ele>
        <time>2021-02-28T08:00:09Z</time>
      </trkpt>
      <trkpt lat="45.14009" lon="6.35673">
        <ele>2793.6</ele>
        <time>2021-02-28T08:00:10Z</time>
      </trkpt>
      <trkpt lat="45.14009" lon="6.35673">
        <ele>2793.8</ele>
        <time>2021-02-28T08:00:11Z</time>
      </trkpt>
      <trkpt lat="45.14009" lon="6.35673">
        <ele>2794</ele>
        <time>2021-02-28T08:00:12Z</time>
      </trkpt>
      <trkpt lat="45.14011" lon="6.35671">
        <ele>2794</ele>
        <time>2021-02-28T08:00:13Z</time>
      </trkpt>
      <trkpt lat="45.14011" lon="6.35671">
        <ele>2794.2</ele>
        <time>2021-02-28T08:00:14Z</time>
      </trkpt>
      <trkpt lat="45.14011" lon="6.35671">
        <ele>2794.4</ele>
        <time>2021-02-28T08:00:15Z</time>
      </trkpt>
      <trkpt lat="45.14013" lon="6.3567">
        <ele>2795.2</ele>
        <time>2021-02-28T08:00:16Z</time>
      </trkpt>
      <trkpt lat="45.14013" lon="6.3567">
        <ele>2795.2</ele>
        <time>2021-02-28T08:00:17Z</time>
      </trkpt>
      <trkpt lat="45.14013" lon="6.3567">
        <ele>2795.2</ele>
        <time>2021-02-28T08:00:18Z</time>
      </trkpt>
      <trkpt lat="45.14013" lon="6.3567">
        <ele>2796</ele>
        <time>2021-02-28T08:00:19Z</time>
      </trkpt>
      <trkpt lat="45.14014" lon="6.35668">
        <ele>2795.6</ele>
        <time>2021-02-28T08:00:20Z</time>
      </trkpt>
      <trkpt lat="45.14014" lon="6.35668">
        <ele>2796.4</ele>
        <time>2021-02-28T08:00:21Z</time>
      </trkpt>
      <trkpt lat="45.14014" lon="6.35668">
        <ele>2795.8</ele>
        <time>2021-02-28T08:00:22Z</time>
      </trkpt>
      <trkpt lat="45.14014" lon="6.35668">
        <ele>2796.2</ele>
        <time>2021-02-28T08:00:23Z</time>
      </trkpt>
      <trkpt lat="45.14016" lon="6.35667">
        <ele>2796.8</ele>
        <time>2021-02-28T08:00:24Z</time>
      </trkpt>
      <trkpt lat="45.14016" lon="6.35667">
        <ele>2797.2</ele>
        <time>2021-02-28T08:00:25Z</time>
      </trkpt>
      <trkpt lat="45.14016" lon="6.35667">
        <ele>2797.6</ele>
        <time>2021-02-28T08:00:26Z</time>
      </trkpt>
      <trkpt lat="45.14018" lon="6.35666">
        <ele>2797.6</ele>
        <time>2021-02-28T08:00:27Z</time>
      </trkpt>
      <trkpt lat="45.14018" lon="6.35666">
        <ele>2798</ele>
        <time>2021-02-28T08:00:28Z</time>
      </trkpt>
      <trkpt lat="45.14018" lon="6.35666">
        <ele>2798.4</ele>
        <time>2021-02-28T08:00:29Z</time>
      </trkpt>
      <trkpt lat="45.14018" lon="6.35666">
        <ele>2798.2</ele>
        <time>2021-02-28T08:00:30Z</time>
      </trkpt>
      <trkpt lat="45.14018" lon="6.35666">
        <ele>2798.8</ele>
        <time>2021-02-28T08:00:31Z</time>
      </trkpt>
      <trkpt lat="45.14018" lon="6.35666">
        <ele>2797.2</ele>
        <time>2021-02-28T08:00:32Z</time>
      </trkpt>
      <trkpt lat="45.14018" lon="6.35666">
        <ele>2797.8</ele>
        <time>2021-02-28T08:00:33Z</time>
      </trkpt>
      <trkpt lat="45.14018" lon="6.35666">
        <ele>2798.2</ele>
        <time>2021-02-28T08:00:34Z</time>
      </trkpt>
      <trkpt lat="45.14018" lon="6.35666">
        <ele>2798.4</ele>
        <time>2021-02-28T08:00:35Z</time>
      </trkpt>
      <trkpt lat="45.14018" lon="6.35666">
        <ele>2798</ele>
        <time>2021-02-28T08:00:36Z</time>
      </trkpt>
      <trkpt lat="45.14018" lon="6.35666">
        <ele>2798</ele>
        <time>2021-02-28T08:00:37Z</time>
      </trkpt>
      <trkpt lat="45.14018" lon="6.35666">
        <ele>2798.2</ele>
        <time>2021-02-28T08:00:38Z</time>
      </trkpt>
      <trkpt lat="45.14018" lon="6.35666">
        <ele>2798</ele>
        <time>2021-02-28T08:00:39Z</time>
      </trkpt>
      <trkpt lat="45.14018" lon="6.35666">
        <ele>2797.8</ele>
        <time>2021-02-28T08:00:40Z</time>
      </trkpt>
      <trkpt lat="45.14018" lon="6.35666">
        <ele>2797.6</ele>
        <time>2021-02-28T08:00:41Z</time>
      </trkpt>
      <trkpt lat="45.14018" lon="6.35666">
        <ele>2797.4</ele>
        <time>2021-02-28T08:00:42Z</time>
      </trkpt>
      <trkpt lat="45.14018" lon="6.35666">
        <ele>2797.2</ele>
        <time>2021-02-28T08:00:43Z</time>
      </trkpt>
      <trkpt lat="45.14018" lon="6.35666">
        <ele>2797.2</ele>
        <time>2021-02-28T08:00:44Z</time>
      </trkpt>
      <trkpt lat="45.14018" lon="6.35666">
        <ele>2797.2</ele>
        <time>2021-02-28T08:00:45Z</time>
      </trkpt>
      <trkpt lat="45.14018" lon="6.35666">
        <ele>2797</ele>
        <time>2021-02-28T08:00:46Z</time>
      </trkpt>
      <trkpt lat="45.14018" lon="6.35666">
        <ele>2797.2</ele>
        <time>2021-02-28T08:00:47Z</time>
      </trkpt>
      <trkpt lat="45.14018" lon="6.35666">
        <ele>2797.4</ele>
        <time>2021-02-28T08:00:48Z</time>
      </trkpt>
      <trkpt lat="45.14018" lon="6.35666">
        <ele>2797.4</ele>
        <time>2021-02-28T08:00:49Z</time>
      </trkpt>
      <trkpt lat="45.14018" lon="6.35666">
        <ele>2797.6</ele>
        <time>2021-02-28T08:00:50Z</time>
      </trkpt>
      <trkpt lat="45.14018" lon="6.35666">
        <ele>2797.6</ele>
        <time>2021-02-28T08:00:51Z</time>
      </trkpt>
      <trkpt lat="45.14018" lon="6.35666">
        <ele>2797.8</ele>
        <time>2021-02-28T08:00:52Z</time>
      </trkpt>
      <trkpt lat="45.14018" lon="6.35666">
        <ele>2797.8</ele>
        <time>2021-02-28T08:00:53Z</time>
      </trkpt>
      <trkpt lat="45.14018" lon="6.35666">
        <ele>2797.4</ele>
        <time>2021-02-28T08:00:54Z</time>
      </trkpt>
      <trkpt lat="45.14018" lon="6.35666">
        <ele>2797.4</ele>
        <time>2021-02-28T08:00:55Z</time>
      </trkpt>
      <trkpt lat="45.14018" lon="6.35666">
        <ele>2797.4</ele>
        <time>2021-02-28T08:00:56Z</time>
      </trkpt>
      <trkpt lat="45.14018" lon="6.35666">
        <ele>2797.2</ele>
        <time>2021-02-28T08:00:57Z</time>
      </trkpt>
      <trkpt lat="45.14018" lon="6.35666">
        <ele>2797.2</ele>
        <time>2021-02-28T08:00:58Z</time>
      </trkpt>
      <trkpt lat="45.14018" lon="6.35666">
        <ele>2797</ele>
        <time>2021-02-28T08:00:59Z</time>
      </trkpt>
      <trkpt lat="45.14018" lon="6.35666">
        <ele>2797</ele>
        <time>2021-02-28T08:01:00Z</time>
      </trkpt>
      <trkpt lat="45.14018" lon="6.35666">
        <ele>2797</ele>
        <time>2021-02-28T08:01:01Z</time>
      </trkpt>
      <trkpt lat="45.14018" lon="6.35666">
        <ele>2797</ele>
        <time>2021-02-28T08:01:02Z</time>
      </trkpt>
      <trkpt lat="45.14018" lon="6.35666">
        <ele>2796.8</ele>
        <time>2021-02-28T08:01:03Z</time>
      </trkpt>
      <trkpt lat="45.14018" lon="6.35666">
        <ele>2796.8</ele>
        <time>2021-02-28T08:01:04Z</time>
      </trkpt>
      <trkpt lat="45.14018" lon="6.35666">
        <ele>2796.6</ele>
        <time>2021-02-28T08:01:05Z</time>
      </trkpt>
      <trkpt lat="45.14018" lon="6.35666">
        <ele>2796.8</ele>
        <time>2021-02-28T08:01:06Z</time>
      </trkpt>
      <trkpt lat="45.14018" lon="6.35666">
        <ele>2797</ele>
        <time>2021-02-28T08:01:07Z</time>
      </trkpt>
      <trkpt lat="45.14018" lon="6.35666">
        <ele>2797</ele>
        <time>2021-02-28T08:01:08Z</time>
      </trkpt>
      <trkpt lat="45.14018" lon="6.35666">
        <ele>2796.8</ele>
        <time>2021-02-28T08:01:09Z</time>
      </trkpt>
      <trkpt lat="45.14018" lon="6.35666">
        <ele>2796.4</ele>
        <time>2021-02-28T08:01:10Z</time>
      </trkpt>
      <trkpt lat="45.14018" lon="6.35666">
        <ele>2796.8</ele>
        <time>2021-02-28T08:01:11Z</time>
      </trkpt>
      <trkpt lat="45.14018" lon="6.35666">
        <ele>2796.6</ele>
        <time>2021-02-28T08:01:12Z</time>
      </trkpt>
      <trkpt lat="45.14018" lon="6.35666">
        <ele>2797.2</ele>
        <time>2021-02-28T08:01:13Z</time>
      </trkpt>
      <trkpt lat="45.14018" lon="6.35666">
        <ele>2797.2</ele>
        <time>2021-02-28T08:01:14Z</time>
      </trkpt>
      <trkpt lat="45.14018" lon="6.35666">
        <ele>2797.2</ele>
        <time>2021-02-28T08:01:15Z</time>
      </trkpt>
      <trkpt lat="45.14018" lon="6.35666">
        <ele>2797.4</ele>
        <time>2021-02-28T08:01:16Z</time>
      </trkpt>
      <trkpt lat="45.14018" lon="6.35666">
        <ele>2797.2</ele>
        <time>2021-02-28T08:01:17Z</time>
      </trkpt>
      <trkpt lat="45.14018" lon="6.35666">
        <ele>2797</ele>
        <time>2021-02-28T08:01:18Z</time>
      </trkpt>
      <trkpt lat="45.14018" lon="6.35666">
        <ele>2797.2</ele>
        <time>2021-02-28T08:01:19Z</time>
      </trkpt>
      <trkpt lat="45.14018" lon="6.35666">
        <ele>2797.2</ele>
        <time>2021-02-28T08:01:20Z</time>
      </trkpt>
      <trkpt lat="45.14018" lon="6.35666">
        <ele>2797</ele>
        <time>2021-02-28T08:01:21Z</time>
      </trkpt>
      <trkpt lat="45.1402" lon="6.35665">
        <ele>2796.8</ele>
        <time>2021-02-28T08:01:22Z</time>
      </trkpt>
      <trkpt lat="45.1402" lon="6.35665">
        <ele>2795.2</ele>
        <time>2021-02-28T08:01:23Z</time>
      </trkpt>
      <trkpt lat="45.1402" lon="6.35665">
        <ele>2796.2</ele>
        <time>2021-02-28T08:01:24Z</time>
      </trkpt>
      <trkpt lat="45.1402" lon="6.35665">
        <ele>2796.4</ele>
        <time>2021-02-28T08:01:25Z</time>
      </trkpt>
      <trkpt lat="45.1402" lon="6.35665">
        <ele>2796.2</ele>
        <time>2021-02-28T08:01:26Z</time>
      </trkpt>
      <trkpt lat="45.14022" lon="6.35666">
        <ele>2796</ele>
        <time>2021-02-28T08:01:27Z</time>
      </trkpt>
      <trkpt lat="45.14022" lon="6.35666">
        <ele>2796</ele>
        <time>2021-02-28T08:01:28Z</time>
      </trkpt>
      <trkpt lat="45.14022" lon="6.35666">
        <ele>2796.2</ele>
        <time>2021-02-28T08:01:29Z</time>
      </trkpt>
      <trkpt lat="45.14022" lon="6.35666">
        <ele>2796</ele>
        <time>2021-02-28T08:01:30Z</time>
      </trkpt>
      <trkpt lat="45.14022" lon="6.35666">
        <ele>2796.4</ele>
        <time>2021-02-28T08:01:31Z</time>
      </trkpt>
      <trkpt lat="45.14022" lon="6.35666">
        <ele>2796.8</ele>
        <time>2021-02-28T08:01:32Z</time>
      </trkpt>
      <trkpt lat="45.14022" lon="6.35666">
        <ele>2796.8</ele>
        <time>2021-02-28T08:01:33Z</time>
      </trkpt>
      <trkpt lat="45.14024" lon="6.35665">
        <ele>2796.6</ele>
        <time>2021-02-28T08:01:34Z</time>
      </trkpt>
      <trkpt lat="45.14024" lon="6.35665">
        <ele>2796.8</ele>
        <time>2021-02-28T08:01:35Z</time>
      </trkpt>
      <trkpt lat="45.14024" lon="6.35665">
        <ele>2797</ele>
        <time>2021-02-28T08:01:36Z</time>
      </trkpt>
      <trkpt lat="45.14024" lon="6.35665">
        <ele>2797.2</ele>
        <time>2021-02-28T08:01:37Z</time>
      </trkpt>
      <trkpt lat="45.14024" lon="6.35665">
        <ele>2797</ele>
        <time>2021-02-28T08:01:38Z</time>
      </trkpt>
      <trkpt lat="45.14025" lon="6.35665">
        <ele>2796.8</ele>
        <time>2021-02-28T08:01:39Z</time>
      </trkpt>
      <trkpt lat="45.14025" lon="6.35665">
        <ele>2796.6</ele>
        <time>2021-02-28T08:01:40Z</time>
      </trkpt>
      <trkpt lat="45.14025" lon="6.35665">
        <ele>2796.6</ele>
        <time>2021-02-28T08:01:41Z</time>
      </trkpt>
      <trkpt lat="45.14025" lon="6.35665">
        <ele>2796</ele>
        <time>2021-02-28T08:01:42Z</time>
      </trkpt>
      <trkpt lat="45.14025" lon="6.35665">
        <ele>2796</ele>
        <time>2021-02-28T08:01:43Z</time>
      </trkpt>
      <trkpt lat="45.14025" lon="6.35665">
        <ele>2796</ele>
        <time>2021-02-28T08:01:44Z</time>
      </trkpt>
      <trkpt lat="45.14025" lon="6.35665">
        <ele>2796.4</ele>
        <time>2021-02-28T08:01:45Z</time>
      </trkpt>
      <trkpt lat="45.14025" lon="6.35665">
        <ele>2796.8</ele>
        <time>2021-02-28T08:01:46Z</time>
      </trkpt>
      <trkpt lat="45.14025" lon="6.35665">
        <ele>2796.2</ele>
        <time>2021-02-28T08:01:47Z</time>
      </trkpt>
      <trkpt lat="45.14025" lon="6.35665">
        <ele>2796.4</ele>
        <time>2021-02-28T08:01:48Z</time>
      </trkpt>
      <trkpt lat="45.14025" lon="6.35665">
        <ele>2796.2</ele>
        <time>2021-02-28T08:01:49Z</time>
      </trkpt>
      <trkpt lat="45.14025" lon="6.35665">
        <ele>2796.4</ele>
        <time>2021-02-28T08:01:50Z</time>
      </trkpt>
      <trkpt lat="45.14025" lon="6.35665">
        <ele>2796.2</ele>
        <time>2021-02-28T08:01:51Z</time>
      </trkpt>
      <trkpt lat="45.14025" lon="6.35665">
        <ele>2796.8</ele>
        <time>2021-02-28T08:01:52Z</time>
      </trkpt>
      <trkpt lat="45.14025" lon="6.35665">
        <ele>2797.2</ele>
        <time>2021-02-28T08:01:53Z</time>
      </trkpt>
      <trkpt lat="45.14025" lon="6.35665">
        <ele>2797.2</ele>
        <time>2021-02-28T08:01:54Z</time>
      </trkpt>
      <trkpt lat="45.14025" lon="6.35665">
        <ele>2797.4</ele>
        <time>2021-02-28T08:01:55Z</time>
      </trkpt>
      <trkpt lat="45.14025" lon="6.35665">
        <ele>2797.2</ele>
        <time>2021-02-28T08:01:56Z</time>
      </trkpt>
      <trkpt lat="45.14025" lon="6.35665">
        <ele>2796.8</ele>
        <time>2021-02-28T08:01:57Z</time>
      </trkpt>
      <trkpt lat="45.14025" lon="6.35665">
        <ele>2797</ele>
        <time>2021-02-28T08:01:58Z</time>
      </trkpt>
      <trkpt lat="45.14025" lon="6.35665">
        <ele>2797</ele>
        <time>2021-02-28T08:01:59Z</time>
      </trkpt>
      <trkpt lat="45.14025" lon="6.35665">
        <ele>2796.8</ele>
        <time>2021-02-28T08:02:00Z</time>
      </trkpt>
      <trkpt lat="45.14025" lon="6.35665">
        <ele>2796.8</ele>
        <time>2021-02-28T08:02:01Z</time>
      </trkpt>
      <trkpt lat="45.14025" lon="6.35665">
        <ele>2797.2</ele>
        <time>2021-02-28T08:02:02Z</time>
      </trkpt>
      <trkpt lat="45.14025" lon="6.35665">
        <ele>2797.2</ele>
        <time>2021-02-28T08:02:03Z</time>
      </trkpt>
      <trkpt lat="45.14025" lon="6.35665">
        <ele>2797</ele>
        <time>2021-02-28T08:02:04Z</time>
      </trkpt>
      <trkpt lat="45.14025" lon="6.35665">
        <ele>2796.4</ele>
        <time>2021-02-28T08:02:05Z</time>
      </trkpt>
      <trkpt lat="45.14025" lon="6.35665">
        <ele>2796.4</ele>
        <time>2021-02-28T08:02:06Z</time>
      </trkpt>
      <trkpt lat="45.14025" lon="6.35665">
        <ele>2796.6</ele>
        <time>2021-02-28T08:02:07Z</time>
      </trkpt>
      <trkpt lat="45.14025" lon="6.35665">
        <ele>2796.4</ele>
        <time>2021-02-28T08:02:08Z</time>
      </trkpt>
      <trkpt lat="45.14025" lon="6.35665">
        <ele>2796.6</ele>
        <time>2021-02-28T08:02:09Z</time>
      </trkpt>
      <trkpt lat="45.14025" lon="6.35665">
        <ele>2796.6</ele>
        <time>2021-02-28T08:02:10Z</time>
      </trkpt>
      <trkpt lat="45.14025" lon="6.35665">
        <ele>2796.6</ele>
        <time>2021-02-28T08:02:11Z</time>
      </trkpt>
      <trkpt lat="45.14025" lon="6.35665">
        <ele>2796.6</ele>
        <time>2021-02-28T08:02:12Z</time>
      </trkpt>
      <trkpt lat="45.14025" lon="6.35665">
        <ele>2796.6</ele>
        <time>2021-02-28T08:02:13Z</time>
      </trkpt>
      <trkpt lat="45.14025" lon="6.35665">
        <ele>2797</ele>
        <time>2021-02-28T08:02:14Z</time>
      </trkpt>
      <trkpt lat="45.14025" lon="6.35665">
        <ele>2796.6</ele>
        <time>2021-02-28T08:02:15Z</time>
      </trkpt>
      <trkpt lat="45.14025" lon="6.35665">
        <ele>2796.8</ele>
        <time>2021-02-28T08:02:16Z</time>
      </trkpt>
      <trkpt lat="45.14025" lon="6.35665">
        <ele>2797</ele>
        <time>2021-02-28T08:02:17Z</time>
      </trkpt>
      <trkpt lat="45.14025" lon="6.35665">
        <ele>2796.8</ele>
        <time>2021-02-28T08:02:18Z</time>
      </trkpt>
      <trkpt lat="45.14025" lon="6.35665">
        <ele>2796.6</ele>
        <time>2021-02-28T08:02:19Z</time>
      </trkpt>
      <trkpt lat="45.14025" lon="6.35665">
        <ele>2796.6</ele>
        <time>2021-02-28T08:02:20Z</time>
      </trkpt>
      <trkpt lat="45.14025" lon="6.35665">
        <ele>2796.4</ele>
        <time>2021-02-28T08:02:21Z</time>
      </trkpt>
      <trkpt lat="45.14025" lon="6.35665">
        <ele>2797</ele>
        <time>2021-02-28T08:02:22Z</time>
      </trkpt>
      <trkpt lat="45.14025" lon="6.35665">
        <ele>2797.2</ele>
        <time>2021-02-28T08:02:23Z</time>
      </trkpt>
      <trkpt lat="45.14025" lon="6.35665">
        <ele>2797.4</ele>
        <time>2021-02-28T08:02:24Z</time>
      </trkpt>
      <trkpt lat="45.14025" lon="6.35665">
        <ele>2797</ele>
        <time>2021-02-28T08:02:25Z</time>
      </trkpt>
      <trkpt lat="45.14026" lon="6.35668">
        <ele>2796.6</ele>
        <time>2021-02-28T08:02:26Z</time>
      </trkpt>
      <trkpt lat="45.14026" lon="6.35668">
        <ele>2796.4</ele>
        <time>2021-02-28T08:02:27Z</time>
      </trkpt>
      <trkpt lat="45.14026" lon="6.35668">
        <ele>2796.8</ele>
        <time>2021-02-28T08:02:28Z</time>
      </trkpt>
      <trkpt lat="45.14026" lon="6.35668">
        <ele>2796.8</ele>
        <time>2021-02-28T08:02:29Z</time>
      </trkpt>
      <trkpt lat="45.14026" lon="6.35668">
        <ele>2796.8</ele>
        <time>2021-02-28T08:02:30Z</time>
      </trkpt>
      <trkpt lat="45.14026" lon="6.35668">
        <ele>2796.8</ele>
        <time>2021-02-28T08:02:31Z</time>
      </trkpt>
      <trkpt lat="45.14026" lon="6.35668">
        <ele>2796.8</ele>
        <time>2021-02-28T08:02:32Z</time>
      </trkpt>
      <trkpt lat="45.14026" lon="6.35668">
        <ele>2796.8</ele>
        <time>2021-02-28T08:02:33Z</time>
      </trkpt>
      <trkpt lat="45.14026" lon="6.35668">
        <ele>2797</ele>
        <time>2021-02-28T08:02:34Z</time>
      </trkpt>
      <trkpt lat="45.14026" lon="6.35668">
        <ele>2797.4</ele>
        <time>2021-02-28T08:02:35Z</time>
      </trkpt>
      <trkpt lat="45.14026" lon="6.35668">
        <ele>2796.8</ele>
        <time>2021-02-28T08:02:36Z</time>
      </trkpt>
      <trkpt lat="45.14026" lon="6.35668">
        <ele>2798</ele>
        <time>2021-02-28T08:02:37Z</time>
      </trkpt>
      <trkpt lat="45.14026" lon="6.35668">
        <ele>2798.4</ele>
        <time>2021-02-28T08:02:38Z</time>
      </trkpt>
      <trkpt lat="45.14026" lon="6.35668">
        <ele>2797.8</ele>
        <time>2021-02-28T08:02:39Z</time>
      </trkpt>
      <trkpt lat="45.14026" lon="6.35668">
        <ele>2797.8</ele>
        <time>2021-02-28T08:02:40Z</time>
      </trkpt>
      <trkpt lat="45.14026" lon="6.35668">
        <ele>2797.6</ele>
        <time>2021-02-28T08:02:41Z</time>
      </trkpt>
      <trkpt lat="45.14026" lon="6.35668">
        <ele>2797.6</ele>
        <time>2021-02-28T08:02:42Z</time>
      </trkpt>
      <trkpt lat="45.14026" lon="6.35668">
        <ele>2797.2</ele>
        <time>2021-02-28T08:02:43Z</time>
      </trkpt>
      <trkpt lat="45.14026" lon="6.35668">
        <ele>2796.2</ele>
        <time>2021-02-28T08:02:44Z</time>
      </trkpt>
      <trkpt lat="45.14024" lon="6.35667">
        <ele>2796.4</ele>
        <time>2021-02-28T08:02:45Z</time>
      </trkpt>
      <trkpt lat="45.14024" lon="6.35667">
        <ele>2797.2</ele>
        <time>2021-02-28T08:02:46Z</time>
      </trkpt>
      <trkpt lat="45.14024" lon="6.35667">
        <ele>2797</ele>
        <time>2021-02-28T08:02:47Z</time>
      </trkpt>
      <trkpt lat="45.14024" lon="6.35667">
        <ele>2797.4</ele>
        <time>2021-02-28T08:02:48Z</time>
      </trkpt>
      <trkpt lat="45.14024" lon="6.35667">
        <ele>2797.6</ele>
        <time>2021-02-28T08:02:49Z</time>
      </trkpt>
      <trkpt lat="45.14024" lon="6.35667">
        <ele>2797.6</ele>
        <time>2021-02-28T08:02:50Z</time>
      </trkpt>
      <trkpt lat="45.14024" lon="6.35667">
        <ele>2797.8</ele>
        <time>2021-02-28T08:02:51Z</time>
      </trkpt>
      <trkpt lat="45.14024" lon="6.35667">
        <ele>2798</ele>
        <time>2021-02-28T08:02:52Z</time>
      </trkpt>
      <trkpt lat="45.14024" lon="6.35667">
        <ele>2798.6</ele>
        <time>2021-02-28T08:02:53Z</time>
      </trkpt>
      <trkpt lat="45.14024" lon="6.35667">
        <ele>2798.4</ele>
        <time>2021-02-28T08:02:54Z</time>
      </trkpt>
      <trkpt lat="45.14024" lon="6.35667">
        <ele>2798.2</ele>
        <time>2021-02-28T08:02:55Z</time>
      </trkpt>
      <trkpt lat="45.14024" lon="6.35667">
        <ele>2798</ele>
        <time>2021-02-28T08:02:56Z</time>
      </trkpt>
      <trkpt lat="45.14024" lon="6.35667">
        <ele>2797.4</ele>
        <time>2021-02-28T08:02:57Z</time>
      </trkpt>
      <trkpt lat="45.14024" lon="6.35667">
        <ele>2796.6</ele>
        <time>2021-02-28T08:02:58Z</time>
      </trkpt>
      <trkpt lat="45.14024" lon="6.35667">
        <ele>2797.4</ele>
        <time>2021-02-28T08:02:59Z</time>
      </trkpt>
      <trkpt lat="45.14024" lon="6.35667">
        <ele>2797.2</ele>
        <time>2021-02-28T08:03:00Z</time>
      </trkpt>
      <trkpt lat="45.14024" lon="6.35667">
        <ele>2797.2</ele>
        <time>2021-02-28T08:03:01Z</time>
      </trkpt>
      <trkpt lat="45.14024" lon="6.35667">
        <ele>2797.8</ele>
        <time>2021-02-28T08:03:02Z</time>
      </trkpt>
      <trkpt lat="45.14024" lon="6.35667">
        <ele>2798.4</ele>
        <time>2021-02-28T08:03:03Z</time>
      </trkpt>
      <trkpt lat="45.14024" lon="6.35667">
        <ele>2798.8</ele>
        <time>2021-02-28T08:03:04Z</time>
      </trkpt>
      <trkpt lat="45.14024" lon="6.35667">
        <ele>2798.8</ele>
        <time>2021-02-28T08:03:05Z</time>
      </trkpt>
      <trkpt lat="45.14024" lon="6.35667">
        <ele>2799</ele>
        <time>2021-02-28T08:03:06Z</time>
      </trkpt>
      <trkpt lat="45.14024" lon="6.35667">
        <ele>2800</ele>
        <time>2021-02-28T08:03:07Z</time>
      </trkpt>
      <trkpt lat="45.14024" lon="6.35667">
        <ele>2800.6</ele>
        <time>2021-02-28T08:03:08Z</time>
      </trkpt>
      <trkpt lat="45.14023" lon="6.35669">
        <ele>2800.2</ele>
        <time>2021-02-28T08:03:09Z</time>
      </trkpt>
      <trkpt lat="45.14023" lon="6.35669">
        <ele>2800.6</ele>
        <time>2021-02-28T08:03:10Z</time>
      </trkpt>
      <trkpt lat="45.14023" lon="6.35669">
        <ele>2800.4</ele>
        <time>2021-02-28T08:03:11Z</time>
      </trkpt>
      <trkpt lat="45.14023" lon="6.35669">
        <ele>2800.4</ele>
        <time>2021-02-28T08:03:12Z</time>
      </trkpt>
      <trkpt lat="45.14023" lon="6.35669">
        <ele>2800.6</ele>
        <time>2021-02-28T08:03:13Z</time>
      </trkpt>
      <trkpt lat="45.14023" lon="6.35672">
        <ele>2801.2</ele>
        <time>2021-02-28T08:03:14Z</time>
      </trkpt>
      <trkpt lat="45.14023" lon="6.35672">
        <ele>2801.2</ele>
        <time>2021-02-28T08:03:15Z</time>
      </trkpt>
      <trkpt lat="45.14023" lon="6.35672">
        <ele>2801.6</ele>
        <time>2021-02-28T08:03:16Z</time>
      </trkpt>
      <trkpt lat="45.14023" lon="6.35672">
        <ele>2801.8</ele>
        <time>2021-02-28T08:03:17Z</time>
      </trkpt>
      <trkpt lat="45.14022" lon="6.35675">
        <ele>2802</ele>
        <time>2021-02-28T08:03:18Z</time>
      </trkpt>
      <trkpt lat="45.14022" lon="6.35675">
        <ele>2801.8</ele>
        <time>2021-02-28T08:03:19Z</time>
      </trkpt>
      <trkpt lat="45.14022" lon="6.35675">
        <ele>2801.6</ele>
        <time>2021-02-28T08:03:20Z</time>
      </trkpt>
      <trkpt lat="45.14022" lon="6.35675">
        <ele>2801</ele>
        <time>2021-02-28T08:03:21Z</time>
      </trkpt>
      <trkpt lat="45.14022" lon="6.35678">
        <ele>2801.2</ele>
        <time>2021-02-28T08:03:22Z</time>
      </trkpt>
      <trkpt lat="45.14022" lon="6.35678">
        <ele>2801.8</ele>
        <time>2021-02-28T08:03:23Z</time>
      </trkpt>
      <trkpt lat="45.14022" lon="6.35678">
        <ele>2802.2</ele>
        <time>2021-02-28T08:03:24Z</time>
      </trkpt>
      <trkpt lat="45.14022" lon="6.35678">
        <ele>2802.4</ele>
        <time>2021-02-28T08:03:25Z</time>
      </trkpt>
      <trkpt lat="45.14022" lon="6.3568">
        <ele>2803</ele>
        <time>2021-02-28T08:03:26Z</time>
      </trkpt>
      <trkpt lat="45.14022" lon="6.3568">
        <ele>2802.6</ele>
        <time>2021-02-28T08:03:27Z</time>
      </trkpt>
      <trkpt lat="45.14022" lon="6.3568">
        <ele>2803.2</ele>
        <time>2021-02-28T08:03:28Z</time>
      </trkpt>
      <trkpt lat="45.14022" lon="6.3568">
        <ele>2803.6</ele>
        <time>2021-02-28T08:03:29Z</time>
      </trkpt>
      <trkpt lat="45.14021" lon="6.35683">
        <ele>2803.6</ele>
        <time>2021-02-28T08:03:30Z</time>
      </trkpt>
      <trkpt lat="45.14021" lon="6.35683">
        <ele>2804.2</ele>
        <time>2021-02-28T08:03:31Z</time>
      </trkpt>
      <trkpt lat="45.14021" lon="6.35683">
        <ele>2804.4</ele>
        <time>2021-02-28T08:03:32Z</time>
      </trkpt>
      <trkpt lat="45.14021" lon="6.35683">
        <ele>2805.2</ele>
        <time>2021-02-28T08:03:33Z</time>
      </trkpt>
      <trkpt lat="45.14021" lon="6.35683">
        <ele>2805.2</ele>
        <time>2021-02-28T08:03:34Z</time>
      </trkpt>
      <trkpt lat="45.14021" lon="6.35683">
        <ele>2806.2</ele>
        <time>2021-02-28T08:03:35Z</time>
      </trkpt>
      <trkpt lat="45.14022" lon="6.35686">
        <ele>2806.2</ele>
        <time>2021-02-28T08:03:36Z</time>
      </trkpt>
      <trkpt lat="45.14022" lon="6.35686">
        <ele>2806</ele>
        <time>2021-02-28T08:03:37Z</time>
      </trkpt>
      <trkpt lat="45.14022" lon="6.35686">
        <ele>2806.2</ele>
        <time>2021-02-28T08:03:38Z</time>
      </trkpt>
      <trkpt lat="45.14022" lon="6.35686">
        <ele>2806.2</ele>
        <time>2021-02-28T08:03:39Z</time>
      </trkpt>
      <trkpt lat="45.14022" lon="6.35686">
        <ele>2806.8</ele>
        <time>2021-02-28T08:03:40Z</time>
      </trkpt>
      <trkpt lat="45.14022" lon="6.35686">
        <ele>2806.8</ele>
        <time>2021-02-28T08:03:41Z</time>
      </trkpt>
      <trkpt lat="45.14022" lon="6.35686">
        <ele>2806.8</ele>
        <time>2021-02-28T08:03:42Z</time>
      </trkpt>
      <trkpt lat="45.14022" lon="6.35689">
        <ele>2807.2</ele>
        <time>2021-02-28T08:03:43Z</time>
      </trkpt>
      <trkpt lat="45.14022" lon="6.35689">
        <ele>2807.4</ele>
        <time>2021-02-28T08:03:44Z</time>
      </trkpt>
      <trkpt lat="45.14022" lon="6.35689">
        <ele>2807.4</ele>
        <time>2021-02-28T08:03:45Z</time>
      </trkpt>
      <trkpt lat="45.14022" lon="6.35689">
        <ele>2807.6</ele>
        <time>2021-02-28T08:03:46Z</time>
      </trkpt>
      <trkpt lat="45.14022" lon="6.35689">
        <ele>2808.2</ele>
        <time>2021-02-28T08:03:47Z</time>
      </trkpt>
      <trkpt lat="45.14022" lon="6.35689">
        <ele>2808.4</ele>
        <time>2021-02-28T08:03:48Z</time>
      </trkpt>
      <trkpt lat="45.14022" lon="6.35691">
        <ele>2808.4</ele>
        <time>2021-02-28T08:03:49Z</time>
      </trkpt>
      <trkpt lat="45.14022" lon="6.35691">
        <ele>2808.4</ele>
        <time>2021-02-28T08:03:50Z</time>
      </trkpt>
      <trkpt lat="45.14022" lon="6.35691">
        <ele>2808.6</ele>
        <time>2021-02-28T08:03:51Z</time>
      </trkpt>
      <trkpt lat="45.14022" lon="6.35691">
        <ele>2808.4</ele>
        <time>2021-02-28T08:03:52Z</time>
      </trkpt>
      <trkpt lat="45.14022" lon="6.35691">
        <ele>2808.8</ele>
        <time>2021-02-28T08:03:53Z</time>
      </trkpt>
      <trkpt lat="45.14022" lon="6.35691">
        <ele>2808.2</ele>
        <time>2021-02-28T08:03:54Z</time>
      </trkpt>
      <trkpt lat="45.14023" lon="6.35694">
        <ele>2808.8</ele>
        <time>2021-02-28T08:03:55Z</time>
      </trkpt>
      <trkpt lat="45.14023" lon="6.35694">
        <ele>2809.4</ele>
        <time>2021-02-28T08:03:56Z</time>
      </trkpt>
      <trkpt lat="45.14023" lon="6.35694">
        <ele>2809.4</ele>
        <time>2021-02-28T08:03:57Z</time>
      </trkpt>
      <trkpt lat="45.14023" lon="6.35694">
        <ele>2808.4</ele>
        <time>2021-02-28T08:03:58Z</time>
      </trkpt>
      <trkpt lat="45.14023" lon="6.35694">
        <ele>2809.4</ele>
        <time>2021-02-28T08:03:59Z</time>
      </trkpt>
      <trkpt lat="45.14023" lon="6.35694">
        <ele>2810</ele>
        <time>2021-02-28T08:04:00Z</time>
      </trkpt>
      <trkpt lat="45.14023" lon="6.35694">
        <ele>2809.6</ele>
        <time>2021-02-28T08:04:01Z</time>
      </trkpt>
      <trkpt lat="45.14023" lon="6.35694">
        <ele>2809.6</ele>
        <time>2021-02-28T08:04:02Z</time>
      </trkpt>
      <trkpt lat="45.14023" lon="6.35694">
        <ele>2809.8</ele>
        <time>2021-02-28T08:04:03Z</time>
      </trkpt>
      <trkpt lat="45.14025" lon="6.35696">
        <ele>2810</ele>
        <time>2021-02-28T08:04:04Z</time>
      </trkpt>
      <trkpt lat="45.14025" lon="6.35696">
        <ele>2810.4</ele>
        <time>2021-02-28T08:04:05Z</time>
      </trkpt>
      <trkpt lat="45.14025" lon="6.35696">
        <ele>2810.8</ele>
        <time>2021-02-28T08:04:06Z</time>
      </trkpt>
      <trkpt lat="45.14025" lon="6.35696">
        <ele>2811.4</ele>
        <time>2021-02-28T08:04:07Z</time>
      </trkpt>
      <trkpt lat="45.14025" lon="6.35696">
        <ele>2811.2</ele>
        <time>2021-02-28T08:04:08Z</time>
      </trkpt>
      <trkpt lat="45.14025" lon="6.35696">
        <ele>2812</ele>
        <time>2021-02-28T08:04:09Z</time>
      </trkpt>
      <trkpt lat="45.14025" lon="6.35696">
        <ele>2811.8</ele>
        <time>2021-02-28T08:04:10Z</time>
      </trkpt>
      <trkpt lat="45.14026" lon="6.35698">
        <ele>2811.8</ele>
        <time>2021-02-28T08:04:11Z</time>
      </trkpt>
      <trkpt lat="45.14026" lon="6.35698">
        <ele>2812.4</ele>
        <time>2021-02-28T08:04:12Z</time>
      </trkpt>
      <trkpt lat="45.14026" lon="6.35698">
        <ele>2812.8</ele>
        <time>2021-02-28T08:04:13Z</time>
      </trkpt>
      <trkpt lat="45.14026" lon="6.35698">
        <ele>2813</ele>
        <time>2021-02-28T08:04:14Z</time>
      </trkpt>
      <trkpt lat="45.14026" lon="6.35698">
        <ele>2813</ele>
        <time>2021-02-28T08:04:15Z</time>
      </trkpt>
      <trkpt lat="45.14026" lon="6.35698">
        <ele>2813.2</ele>
        <time>2021-02-28T08:04:16Z</time>
      </trkpt>
      <trkpt lat="45.14026" lon="6.35698">
        <ele>2813.2</ele>
        <time>2021-02-28T08:04:17Z</time>
      </trkpt>
      <trkpt lat="45.14026" lon="6.35698">
        <ele>2813.2</ele>
        <time>2021-02-28T08:04:18Z</time>
      </trkpt>
      <trkpt lat="45.14026" lon="6.35698">
        <ele>2813.4</ele>
        <time>2021-02-28T08:04:19Z</time>
      </trkpt>
      <trkpt lat="45.14026" lon="6.35698">
        <ele>2812.8</ele>
        <time>2021-02-28T08:04:20Z</time>
      </trkpt>
      <trkpt lat="45.14026" lon="6.35698">
        <ele>2813</ele>
        <time>2021-02-28T08:04:21Z</time>
      </trkpt>
      <trkpt lat="45.14026" lon="6.35698">
        <ele>2813.2</ele>
        <time>2021-02-28T08:04:22Z</time>
      </trkpt>
      <trkpt lat="45.14026" lon="6.35698">
        <ele>2813.4</ele>
        <time>2021-02-28T08:04:23Z</time>
      </trkpt>
      <trkpt lat="45.14026" lon="6.35698">
        <ele>2813.2</ele>
        <time>2021-02-28T08:04:24Z</time>
      </trkpt>
      <trkpt lat="45.14026" lon="6.35698">
        <ele>2813.4</ele>
        <time>2021-02-28T08:04:25Z</time>
      </trkpt>
      <trkpt lat="45.14026" lon="6.35698">
        <ele>2813.4</ele>
        <time>2021-02-28T08:04:26Z</time>
      </trkpt>
      <trkpt lat="45.14026" lon="6.35698">
        <ele>2813.2</ele>
        <time>2021-02-28T08:04:27Z</time>
      </trkpt>
      <trkpt lat="45.14026" lon="6.35698">
        <ele>2813.8</ele>
        <time>2021-02-28T08:04:28Z</time>
      </trkpt>
      <trkpt lat="45.14026" lon="6.35698">
        <ele>2813.8</ele>
        <time>2021-02-28T08:04:29Z</time>
      </trkpt>
      <trkpt lat="45.14026" lon="6.35698">
        <ele>2813.6</ele>
        <time>2021-02-28T08:04:30Z</time>
      </trkpt>
      <trkpt lat="45.14026" lon="6.35698">
        <ele>2813.2</ele>
        <time>2021-02-28T08:04:31Z</time>
      </trkpt>
      <trkpt lat="45.14026" lon="6.35698">
        <ele>2813.4</ele>
        <time>2021-02-28T08:04:32Z</time>
      </trkpt>
      <trkpt lat="45.14026" lon="6.35698">
        <ele>2813.8</ele>
        <time>2021-02-28T08:04:33Z</time>
      </trkpt>
      <trkpt lat="45.14026" lon="6.35698">
        <ele>2814.2</ele>
        <time>2021-02-28T08:04:34Z</time>
      </trkpt>
      <trkpt lat="45.14026" lon="6.35698">
        <ele>2814</ele>
        <time>2021-02-28T08:04:35Z</time>
      </trkpt>
      <trkpt lat="45.14026" lon="6.35698">
        <ele>2814</ele>
        <time>2021-02-28T08:04:36Z</time>
      </trkpt>
      <trkpt lat="45.14026" lon="6.35698">
        <ele>2813.6</ele>
        <time>2021-02-28T08:04:37Z</time>
      </trkpt>
      <trkpt lat="45.14026" lon="6.35698">
        <ele>2814</ele>
        <time>2021-02-28T08:04:38Z</time>
      </trkpt>
      <trkpt lat="45.14026" lon="6.35698">
        <ele>2813.8</ele>
        <time>2021-02-28T08:04:39Z</time>
      </trkpt>
      <trkpt lat="45.14026" lon="6.35698">
        <ele>2814.8</ele>
        <time>2021-02-28T08:04:40Z</time>
      </trkpt>
      <trkpt lat="45.14026" lon="6.35698">
        <ele>2815</ele>
        <time>2021-02-28T08:04:41Z</time>
      </trkpt>
      <trkpt lat="45.14027" lon="6.357">
        <ele>2814.8</ele>
        <time>2021-02-28T08:04:42Z</time>
      </trkpt>
      <trkpt lat="45.14027" lon="6.357">
        <ele>2815.2</ele>
        <time>2021-02-28T08:04:43Z</time>
      </trkpt>
      <trkpt lat="45.14027" lon="6.357">
        <ele>2814.8</ele>
        <time>2021-02-28T08:04:44Z</time>
      </trkpt>
      <trkpt lat="45.14027" lon="6.357">
        <ele>2815.4</ele>
        <time>2021-02-28T08:04:45Z</time>
      </trkpt>
      <trkpt lat="45.14027" lon="6.357">
        <ele>2815.6</ele>
        <time>2021-02-28T08:04:46Z</time>
      </trkpt>
      <trkpt lat="45.14027" lon="6.357">
        <ele>2815.6</ele>
        <time>2021-02-28T08:04:47Z</time>
      </trkpt>
      <trkpt lat="45.14027" lon="6.357">
        <ele>2815.4</ele>
        <time>2021-02-28T08:04:48Z</time>
      </trkpt>
      <trkpt lat="45.14027" lon="6.357">
        <ele>2815.2</ele>
        <time>2021-02-28T08:04:49Z</time>
      </trkpt>
      <trkpt lat="45.14027" lon="6.357">
        <ele>2816</ele>
        <time>2021-02-28T08:04:50Z</time>
      </trkpt>
      <trkpt lat="45.14027" lon="6.357">
        <ele>2816</ele>
        <time>2021-02-28T08:04:51Z</time>
      </trkpt>
      <trkpt lat="45.14027" lon="6.357">
        <ele>2816</ele>
        <time>2021-02-28T08:04:52Z</time>
      </trkpt>
      <trkpt lat="45.14027" lon="6.357">
        <ele>2816.2</ele>
        <time>2021-02-28T08:04:53Z</time>
      </trkpt>
      <trkpt lat="45.14029" lon="6.35701">
        <ele>2816.8</ele>
        <time>2021-02-28T08:04:54Z</time>
      </trkpt>
      <trkpt lat="45.14029" lon="6.35701">
        <ele>2817.2</ele>
        <time>2021-02-28T08:04:55Z</time>
      </trkpt>
      <trkpt lat="45.14029" lon="6.35701">
        <ele>2817.4</ele>
        <time>2021-02-28T08:04:56Z</time>
      </trkpt>
      <trkpt lat="45.14029" lon="6.35701">
        <ele>2817.2</ele>
        <time>2021-02-28T08:04:57Z</time>
      </trkpt>
      <trkpt lat="45.14029" lon="6.35701">
        <ele>2816.8</ele>
        <time>2021-02-28T08:04:58Z</time>
      </trkpt>
      <trkpt lat="45.14031" lon="6.35703">
        <ele>2817.4</ele>
        <time>2021-02-28T08:04:59Z</time>
      </trkpt>
      <trkpt lat="45.14031" lon="6.35703">
        <ele>2817.8</ele>
        <time>2021-02-28T08:05:00Z</time>
      </trkpt>
      <trkpt lat="45.14031" lon="6.35703">
        <ele>2815.8</ele>
        <time>2021-02-28T08:05:01Z</time>
      </trkpt>
      <trkpt lat="45.14031" lon="6.35703">
        <ele>2816.8</ele>
        <time>2021-02-28T08:05:02Z</time>
      </trkpt>
      <trkpt lat="45.14031" lon="6.35703">
        <ele>2817.4</ele>
        <time>2021-02-28T08:05:03Z</time>
      </trkpt>
      <trkpt lat="45.14031" lon="6.35703">
        <ele>2817.4</ele>
        <time>2021-02-28T08:05:04Z</time>
      </trkpt>
      <trkpt lat="45.14031" lon="6.35703">
        <ele>2817.8</ele>
        <time>2021-02-28T08:05:05Z</time>
      </trkpt>
      <trkpt lat="45.14031" lon="6.35703">
        <ele>2818.4</ele>
        <time>2021-02-28T08:05:06Z</time>
      </trkpt>
      <trkpt lat="45.14031" lon="6.35703">
        <ele>2818.4</ele>
        <time>2021-02-28T08:05:07Z</time>
      </trkpt>
      <trkpt lat="45.14032" lon="6.35705">
        <ele>2818.4</ele>
        <time>2021-02-28T08:05:08Z</time>
      </trkpt>
      <trkpt lat="45.14032" lon="6.35705">
        <ele>2818.6</ele>
        <time>2021-02-28T08:05:09Z</time>
      </trkpt>
      <trkpt lat="45.14032" lon="6.35705">
        <ele>2819.2</ele>
        <time>2021-02-28T08:05:10Z</time>
      </trkpt>
      <trkpt lat="45.14032" lon="6.35705">
        <ele>2819.4</ele>
        <time>2021-02-28T08:05:11Z</time>
      </trkpt>
      <trkpt lat="45.14032" lon="6.35705">
        <ele>2819.4</ele>
        <time>2021-02-28T08:05:12Z</time>
      </trkpt>
      <trkpt lat="45.14032" lon="6.35705">
        <ele>2819.8</ele>
        <time>2021-02-28T08:05:13Z</time>
      </trkpt>
      <trkpt lat="45.14032" lon="6.35705">
        <ele>2820.2</ele>
        <time>2021-02-28T08:05:14Z</time>
      </trkpt>
      <trkpt lat="45.14033" lon="6.35706">
        <ele>2820.4</ele>
        <time>2021-02-28T08:05:15Z</time>
      </trkpt>
      <trkpt lat="45.14033" lon="6.35706">
        <ele>2819.6</ele>
        <time>2021-02-28T08:05:16Z</time>
      </trkpt>
      <trkpt lat="45.14033" lon="6.35706">
        <ele>2820.4</ele>
        <time>2021-02-28T08:05:17Z</time>
      </trkpt>
      <trkpt lat="45.14033" lon="6.35706">
        <ele>2820.6</ele>
        <time>2021-02-28T08:05:18Z</time>
      </trkpt>
      <trkpt lat="45.14033" lon="6.35706">
        <ele>2820.8</ele>
        <time>2021-02-28T08:05:19Z</time>
      </trkpt>
      <trkpt lat="45.14033" lon="6.35706">
        <ele>2821.6</ele>
        <time>2021-02-28T08:05:20Z</time>
      </trkpt>
      <trkpt lat="45.14033" lon="6.35706">
        <ele>2822.2</ele>
        <time>2021-02-28T08:05:21Z</time>
      </trkpt>
      <trkpt lat="45.14035" lon="6.35708">
        <ele>2822.6</ele>
        <time>2021-02-28T08:05:22Z</time>
      </trkpt>
      <trkpt lat="45.14035" lon="6.35708">
        <ele>2822.4</ele>
        <time>2021-02-28T08:05:23Z</time>
      </trkpt>
      <trkpt lat="45.14035" lon="6.35708">
        <ele>2822.8</ele>
        <time>2021-02-28T08:05:24Z</time>
      </trkpt>
      <trkpt lat="45.14035" lon="6.35708">
        <ele>2822.8</ele>
        <time>2021-02-28T08:05:25Z</time>
      </trkpt>
      <trkpt lat="45.14035" lon="6.35708">
        <ele>2822.6</ele>
        <time>2021-02-28T08:05:26Z</time>
      </trkpt>
      <trkpt lat="45.14035" lon="6.35708">
        <ele>2822.8</ele>
        <time>2021-02-28T08:05:27Z</time>
      </trkpt>
      <trkpt lat="45.14036" lon="6.3571">
        <ele>2823.4</ele>
        <time>2021-02-28T08:05:28Z</time>
      </trkpt>
      <trkpt lat="45.14036" lon="6.3571">
        <ele>2823.8</ele>
        <time>2021-02-28T08:05:29Z</time>
      </trkpt>
      <trkpt lat="45.14036" lon="6.3571">
        <ele>2824.2</ele>
        <time>2021-02-28T08:05:30Z</time>
      </trkpt>
      <trkpt lat="45.14036" lon="6.3571">
        <ele>2824.2</ele>
        <time>2021-02-28T08:05:31Z</time>
      </trkpt>
      <trkpt lat="45.14036" lon="6.3571">
        <ele>2824.8</ele>
        <time>2021-02-28T08:05:32Z</time>
      </trkpt>
      <trkpt lat="45.14036" lon="6.3571">
        <ele>2825</ele>
        <time>2021-02-28T08:05:33Z</time>
      </trkpt>
      <trkpt lat="45.14036" lon="6.3571">
        <ele>2824.8</ele>
        <time>2021-02-28T08:05:34Z</time>
      </trkpt>
      <trkpt lat="45.14038" lon="6.35712">
        <ele>2824.6</ele>
        <time>2021-02-28T08:05:35Z</time>
      </trkpt>
      <trkpt lat="45.14038" lon="6.35712">
        <ele>2825.2</ele>
        <time>2021-02-28T08:05:36Z</time>
      </trkpt>
      <trkpt lat="45.14038" lon="6.35712">
        <ele>2826</ele>
        <time>2021-02-28T08:05:37Z</time>
      </trkpt>
      <trkpt lat="45.14038" lon="6.35712">
        <ele>2826</ele>
        <time>2021-02-28T08:05:38Z</time>
      </trkpt>
      <trkpt lat="45.14038" lon="6.35712">
        <ele>2826</ele>
        <time>2021-02-28T08:05:39Z</time>
      </trkpt>
      <trkpt lat="45.14038" lon="6.35712">
        <ele>2826.4</ele>
        <time>2021-02-28T08:05:40Z</time>
      </trkpt>
      <trkpt lat="45.14039" lon="6.35714">
        <ele>2826.8</ele>
        <time>2021-02-28T08:05:41Z</time>
      </trkpt>
      <trkpt lat="45.14039" lon="6.35714">
        <ele>2826.8</ele>
        <time>2021-02-28T08:05:42Z</time>
      </trkpt>
      <trkpt lat="45.14039" lon="6.35714">
        <ele>2827</ele>
        <time>2021-02-28T08:05:43Z</time>
      </trkpt>
      <trkpt lat="45.14039" lon="6.35714">
        <ele>2827.4</ele>
        <time>2021-02-28T08:05:44Z</time>
      </trkpt>
      <trkpt lat="45.14039" lon="6.35714">
        <ele>2827.4</ele>
        <time>2021-02-28T08:05:45Z</time>
      </trkpt>
      <trkpt lat="45.14039" lon="6.35714">
        <ele>2827.8</ele>
        <time>2021-02-28T08:05:46Z</time>
      </trkpt>
      <trkpt lat="45.14039" lon="6.35714">
        <ele>2828.4</ele>
        <time>2021-02-28T08:05:47Z</time>
      </trkpt>
      <trkpt lat="45.14039" lon="6.35714">
        <ele>2828.4</ele>
        <time>2021-02-28T08:05:48Z</time>
      </trkpt>
      <trkpt lat="45.14039" lon="6.35714">
        <ele>2827.4</ele>
        <time>2021-02-28T08:05:49Z</time>
      </trkpt>
      <trkpt lat="45.1404" lon="6.35716">
        <ele>2828.2</ele>
        <time>2021-02-28T08:05:50Z</time>
      </trkpt>
      <trkpt lat="45.1404" lon="6.35716">
        <ele>2828.8</ele>
        <time>2021-02-28T08:05:51Z</time>
      </trkpt>
      <trkpt lat="45.1404" lon="6.35716">
        <ele>2829</ele>
        <time>2021-02-28T08:05:52Z</time>
      </trkpt>
      <trkpt lat="45.14042" lon="6.35719">
        <ele>2829.2</ele>
        <time>2021-02-28T08:05:53Z</time>
      </trkpt>
      <trkpt lat="45.14042" lon="6.35719">
        <ele>2829.6</ele>
        <time>2021-02-28T08:05:54Z</time>
      </trkpt>
      <trkpt lat="45.14042" lon="6.35719">
        <ele>2830</ele>
        <time>2021-02-28T08:05:55Z</time>
      </trkpt>
      <trkpt lat="45.14042" lon="6.35719">
        <ele>2830.4</ele>
        <time>2021-02-28T08:05:56Z</time>
      </trkpt>
      <trkpt lat="45.14042" lon="6.35719">
        <ele>2829.8</ele>
        <time>2021-02-28T08:05:57Z</time>
      </trkpt>
      <trkpt lat="45.14042" lon="6.35719">
        <ele>2830.4</ele>
        <time>2021-02-28T08:05:58Z</time>
      </trkpt>
      <trkpt lat="45.14042" lon="6.35719">
        <ele>2831</ele>
        <time>2021-02-28T08:05:59Z</time>
      </trkpt>
      <trkpt lat="45.14042" lon="6.35719">
        <ele>2831.2</ele>
        <time>2021-02-28T08:06:00Z</time>
      </trkpt>
      <trkpt lat="45.14042" lon="6.35719">
        <ele>2831.6</ele>
        <time>2021-02-28T08:06:01Z</time>
      </trkpt>
      <trkpt lat="45.14042" lon="6.35719">
        <ele>2832</ele>
        <time>2021-02-28T08:06:02Z</time>
      </trkpt>
      <trkpt lat="45.14043" lon="6.35721">
        <ele>2832</ele>
        <time>2021-02-28T08:06:03Z</time>
      </trkpt>
      <trkpt lat="45.14043" lon="6.35721">
        <ele>2832.4</ele>
        <time>2021-02-28T08:06:04Z</time>
      </trkpt>
      <trkpt lat="45.14043" lon="6.35721">
        <ele>2832.4</ele>
        <time>2021-02-28T08:06:05Z</time>
      </trkpt>
      <trkpt lat="45.14043" lon="6.35721">
        <ele>2832.2</ele>
        <time>2021-02-28T08:06:06Z</time>
      </trkpt>
      <trkpt lat="45.14043" lon="6.35721">
        <ele>2832.8</ele>
        <time>2021-02-28T08:06:07Z</time>
      </trkpt>
      <trkpt lat="45.14043" lon="6.35721">
        <ele>2833</ele>
        <time>2021-02-28T08:06:08Z</time>
      </trkpt>
      <trkpt lat="45.14043" lon="6.35721">
        <ele>2833</ele>
        <time>2021-02-28T08:06:09Z</time>
      </trkpt>
      <trkpt lat="45.14044" lon="6.35723">
        <ele>2833.6</ele>
        <time>2021-02-28T08:06:10Z</time>
      </trkpt>
      <trkpt lat="45.14044" lon="6.35723">
        <ele>2833.6</ele>
        <time>2021-02-28T08:06:11Z</time>
      </trkpt>
      <trkpt lat="45.14044" lon="6.35723">
        <ele>2834</ele>
        <time>2021-02-28T08:06:12Z</time>
      </trkpt>
      <trkpt lat="45.14044" lon="6.35723">
        <ele>2834.4</ele>
        <time>2021-02-28T08:06:13Z</time>
      </trkpt>
      <trkpt lat="45.14044" lon="6.35723">
        <ele>2834.6</ele>
        <time>2021-02-28T08:06:14Z</time>
      </trkpt>
      <trkpt lat="45.14044" lon="6.35723">
        <ele>2834.4</ele>
        <time>2021-02-28T08:06:15Z</time>
      </trkpt>
      <trkpt lat="45.14044" lon="6.35723">
        <ele>2834.2</ele>
        <time>2021-02-28T08:06:16Z</time>
      </trkpt>
      <trkpt lat="45.14044" lon="6.35723">
        <ele>2834</ele>
        <time>2021-02-28T08:06:17Z</time>
      </trkpt>
      <trkpt lat="45.14044" lon="6.35723">
        <ele>2833.4</ele>
        <time>2021-02-28T08:06:18Z</time>
      </trkpt>
      <trkpt lat="45.14044" lon="6.35723">
        <ele>2833.6</ele>
        <time>2021-02-28T08:06:19Z</time>
      </trkpt>
      <trkpt lat="45.14044" lon="6.35723">
        <ele>2833.6</ele>
        <time>2021-02-28T08:06:20Z</time>
      </trkpt>
      <trkpt lat="45.14044" lon="6.35723">
        <ele>2834.8</ele>
        <time>2021-02-28T08:06:21Z</time>
      </trkpt>
      <trkpt lat="45.14045" lon="6.35725">
        <ele>2835.2</ele>
        <time>2021-02-28T08:06:22Z</time>
      </trkpt>
      <trkpt lat="45.14045" lon="6.35725">
        <ele>2835.2</ele>
        <time>2021-02-28T08:06:23Z</time>
      </trkpt>
      <trkpt lat="45.14045" lon="6.35725">
        <ele>2835.6</ele>
        <time>2021-02-28T08:06:24Z</time>
      </trkpt>
      <trkpt lat="45.14045" lon="6.35725">
        <ele>2836</ele>
        <time>2021-02-28T08:06:25Z</time>
      </trkpt>
      <trkpt lat="45.14045" lon="6.35725">
        <ele>2835.6</ele>
        <time>2021-02-28T08:06:26Z</time>
      </trkpt>
      <trkpt lat="45.14046" lon="6.35728">
        <ele>2836</ele>
        <time>2021-02-28T08:06:27Z</time>
      </trkpt>
      <trkpt lat="45.14046" lon="6.35728">
        <ele>2836.2</ele>
        <time>2021-02-28T08:06:28Z</time>
      </trkpt>
      <trkpt lat="45.14046" lon="6.35728">
        <ele>2836.4</ele>
        <time>2021-02-28T08:06:29Z</time>
      </trkpt>
      <trkpt lat="45.14046" lon="6.35728">
        <ele>2836.6</ele>
        <time>2021-02-28T08:06:30Z</time>
      </trkpt>
      <trkpt lat="45.14046" lon="6.35728">
        <ele>2836.8</ele>
        <time>2021-02-28T08:06:31Z</time>
      </trkpt>
      <trkpt lat="45.14046" lon="6.35728">
        <ele>2837</ele>
        <time>2021-02-28T08:06:32Z</time>
      </trkpt>
      <trkpt lat="45.14046" lon="6.35731">
        <ele>2837.2</ele>
        <time>2021-02-28T08:06:33Z</time>
      </trkpt>
      <trkpt lat="45.14046" lon="6.35731">
        <ele>2837.4</ele>
        <time>2021-02-28T08:06:34Z</time>
      </trkpt>
      <trkpt lat="45.14046" lon="6.35731">
        <ele>2837.6</ele>
        <time>2021-02-28T08:06:35Z</time>
      </trkpt>
      <trkpt lat="45.14046" lon="6.35731">
        <ele>2838.2</ele>
        <time>2021-02-28T08:06:36Z</time>
      </trkpt>
      <trkpt lat="45.14046" lon="6.35731">
        <ele>2838</ele>
        <time>2021-02-28T08:06:37Z</time>
      </trkpt>
      <trkpt lat="45.14046" lon="6.35731">
        <ele>2837.8</ele>
        <time>2021-02-28T08:06:38Z</time>
      </trkpt>
      <trkpt lat="45.14047" lon="6.35733">
        <ele>2838.2</ele>
        <time>2021-02-28T08:06:39Z</time>
      </trkpt>
      <trkpt lat="45.14047" lon="6.35733">
        <ele>2838.8</ele>
        <time>2021-02-28T08:06:40Z</time>
      </trkpt>
      <trkpt lat="45.14047" lon="6.35733">
        <ele>2838.6</ele>
        <time>2021-02-28T08:06:41Z</time>
      </trkpt>
      <trkpt lat="45.14047" lon="6.35733">
        <ele>2838.2</ele>
        <time>2021-02-28T08:06:42Z</time>
      </trkpt>
      <trkpt lat="45.14047" lon="6.35733">
        <ele>2838.4</ele>
        <time>2021-02-28T08:06:43Z</time>
      </trkpt>
      <trkpt lat="45.14047" lon="6.35733">
        <ele>2838.8</ele>
        <time>2021-02-28T08:06:44Z</time>
      </trkpt>
      <trkpt lat="45.14047" lon="6.35733">
        <ele>2839.2</ele>
        <time>2021-02-28T08:06:45Z</time>
      </trkpt>
      <trkpt lat="45.14047" lon="6.35736">
        <ele>2839</ele>
        <time>2021-02-28T08:06:46Z</time>
      </trkpt>
      <trkpt lat="45.14047" lon="6.35736">
        <ele>2839.2</ele>
        <time>2021-02-28T08:06:47Z</time>
      </trkpt>
      <trkpt lat="45.14047" lon="6.35736">
        <ele>2839.8</ele>
        <time>2021-02-28T08:06:48Z</time>
      </trkpt>
      <trkpt lat="45.14047" lon="6.35736">
        <ele>2840.2</ele>
        <time>2021-02-28T08:06:49Z</time>
      </trkpt>
      <trkpt lat="45.14047" lon="6.35736">
        <ele>2840.4</ele>
        <time>2021-02-28T08:06:50Z</time>
      </trkpt>
      <trkpt lat="45.14048" lon="6.35738">
        <ele>2840.8</ele>
        <time>2021-02-28T08:06:51Z</time>
      </trkpt>
      <trkpt lat="45.14048" lon="6.35738">
        <ele>2841.2</ele>
        <time>2021-02-28T08:06:52Z</time>
      </trkpt>
      <trkpt lat="45.14048" lon="6.35738">
        <ele>2841</ele>
        <time>2021-02-28T08:06:53Z</time>
      </trkpt>
      <trkpt lat="45.14048" lon="6.35738">
        <ele>2841.4</ele>
        <time>2021-02-28T08:06:54Z</time>
      </trkpt>
      <trkpt lat="45.1405" lon="6.3574">
        <ele>2842</ele>
        <time>2021-02-28T08:06:55Z</time>
      </trkpt>
      <trkpt lat="45.1405" lon="6.3574">
        <ele>2842.2</ele>
        <time>2021-02-28T08:06:56Z</time>
      </trkpt>
      <trkpt lat="45.1405" lon="6.3574">
        <ele>2842.8</ele>
        <time>2021-02-28T08:06:57Z</time>
      </trkpt>
      <trkpt lat="45.1405" lon="6.3574">
        <ele>2842.6</ele>
        <time>2021-02-28T08:06:58Z</time>
      </trkpt>
      <trkpt lat="45.1405" lon="6.3574">
        <ele>2843</ele>
        <time>2021-02-28T08:06:59Z</time>
      </trkpt>
      <trkpt lat="45.1405" lon="6.3574">
        <ele>2843</ele>
        <time>2021-02-28T08:07:00Z</time>
      </trkpt>
      <trkpt lat="45.1405" lon="6.3574">
        <ele>2842.8</ele>
        <time>2021-02-28T08:07:01Z</time>
      </trkpt>
      <trkpt lat="45.1405" lon="6.3574">
        <ele>2843</ele>
        <time>2021-02-28T08:07:02Z</time>
      </trkpt>
      <trkpt lat="45.1405" lon="6.3574">
        <ele>2843.4</ele>
        <time>2021-02-28T08:07:03Z</time>
      </trkpt>
      <trkpt lat="45.1405" lon="6.3574">
        <ele>2843.2</ele>
        <time>2021-02-28T08:07:04Z</time>
      </trkpt>
      <trkpt lat="45.1405" lon="6.3574">
        <ele>2843.8</ele>
        <time>2021-02-28T08:07:05Z</time>
      </trkpt>
      <trkpt lat="45.14051" lon="6.35742">
        <ele>2844.2</ele>
        <time>2021-02-28T08:07:06Z</time>
      </trkpt>
      <trkpt lat="45.14051" lon="6.35742">
        <ele>2844</ele>
        <time>2021-02-28T08:07:07Z</time>
      </trkpt>
      <trkpt lat="45.14051" lon="6.35742">
        <ele>2844</ele>
        <time>2021-02-28T08:07:08Z</time>
      </trkpt>
      <trkpt lat="45.14051" lon="6.35742">
        <ele>2845.2</ele>
        <time>2021-02-28T08:07:09Z</time>
      </trkpt>
      <trkpt lat="45.14052" lon="6.35744">
        <ele>2845</ele>
        <time>2021-02-28T08:07:10Z</time>
      </trkpt>
      <trkpt lat="45.14052" lon="6.35744">
        <ele>2845.6</ele>
        <time>2021-02-28T08:07:11Z</time>
      </trkpt>
      <trkpt lat="45.14052" lon="6.35744">
        <ele>2845.2</ele>
        <time>2021-02-28T08:07:12Z</time>
      </trkpt>
      <trkpt lat="45.14052" lon="6.35744">
        <ele>2845.8</ele>
        <time>2021-02-28T08:07:13Z</time>
      </trkpt>
      <trkpt lat="45.14052" lon="6.35744">
        <ele>2846.2</ele>
        <time>2021-02-28T08:07:14Z</time>
      </trkpt>
      <trkpt lat="45.14052" lon="6.35744">
        <ele>2846.2</ele>
        <time>2021-02-28T08:07:15Z</time>
      </trkpt>
      <trkpt lat="45.14052" lon="6.35744">
        <ele>2846.6</ele>
        <time>2021-02-28T08:07:16Z</time>
      </trkpt>
      <trkpt lat="45.14053" lon="6.35746">
        <ele>2846.4</ele>
        <time>2021-02-28T08:07:17Z</time>
      </trkpt>
      <trkpt lat="45.14053" lon="6.35746">
        <ele>2846.8</ele>
        <time>2021-02-28T08:07:18Z</time>
      </trkpt>
      <trkpt lat="45.14053" lon="6.35746">
        <ele>2846.8</ele>
        <time>2021-02-28T08:07:19Z</time>
      </trkpt>
      <trkpt lat="45.14053" lon="6.35746">
        <ele>2847.2</ele>
        <time>2021-02-28T08:07:20Z</time>
      </trkpt>
      <trkpt lat="45.14053" lon="6.35746">
        <ele>2847.2</ele>
        <time>2021-02-28T08:07:21Z</time>
      </trkpt>
      <trkpt lat="45.14054" lon="6.35748">
        <ele>2847.4</ele>
        <time>2021-02-28T08:07:22Z</time>
      </trkpt>
      <trkpt lat="45.14054" lon="6.35748">
        <ele>2847.8</ele>
        <time>2021-02-28T08:07:23Z</time>
      </trkpt>
      <trkpt lat="45.14054" lon="6.35748">
        <ele>2848.2</ele>
        <time>2021-02-28T08:07:24Z</time>
      </trkpt>
      <trkpt lat="45.14054" lon="6.35748">
        <ele>2848.4</ele>
        <time>2021-02-28T08:07:25Z</time>
      </trkpt>
      <trkpt lat="45.14054" lon="6.35748">
        <ele>2848.6</ele>
        <time>2021-02-28T08:07:26Z</time>
      </trkpt>
      <trkpt lat="45.14054" lon="6.35748">
        <ele>2848.6</ele>
        <time>2021-02-28T08:07:27Z</time>
      </trkpt>
      <trkpt lat="45.14054" lon="6.35748">
        <ele>2848.8</ele>
        <time>2021-02-28T08:07:28Z</time>
      </trkpt>
      <trkpt lat="45.14056" lon="6.3575">
        <ele>2848.8</ele>
        <time>2021-02-28T08:07:29Z</time>
      </trkpt>
      <trkpt lat="45.14056" lon="6.3575">
        <ele>2849.2</ele>
        <time>2021-02-28T08:07:30Z</time>
      </trkpt>
      <trkpt lat="45.14056" lon="6.3575">
        <ele>2849.4</ele>
        <time>2021-02-28T08:07:31Z</time>
      </trkpt>
      <trkpt lat="45.14056" lon="6.3575">
        <ele>2849.6</ele>
        <time>2021-02-28T08:07:32Z</time>
      </trkpt>
      <trkpt lat="45.14056" lon="6.3575">
        <ele>2848.2</ele>
        <time>2021-02-28T08:07:33Z</time>
      </trkpt>
      <trkpt lat="45.14056" lon="6.3575">
        <ele>2849.6</ele>
        <time>2021-02-28T08:07:34Z</time>
      </trkpt>
      <trkpt lat="45.14057" lon="6.35753">
        <ele>2849.6</ele>
        <time>2021-02-28T08:07:35Z</time>
      </trkpt>
      <trkpt lat="45.14057" lon="6.35753">
        <ele>2850</ele>
        <time>2021-02-28T08:07:36Z</time>
      </trkpt>
      <trkpt lat="45.14057" lon="6.35753">
        <ele>2850.6</ele>
        <time>2021-02-28T08:07:37Z</time>
      </trkpt>
      <trkpt lat="45.14057" lon="6.35753">
        <ele>2851</ele>
        <time>2021-02-28T08:07:38Z</time>
      </trkpt>
      <trkpt lat="45.14057" lon="6.35753">
        <ele>2851.4</ele>
        <time>2021-02-28T08:07:39Z</time>
      </trkpt>
      <trkpt lat="45.14057" lon="6.35753">
        <ele>2851.6</ele>
        <time>2021-02-28T08:07:40Z</time>
      </trkpt>
      <trkpt lat="45.14058" lon="6.35755">
        <ele>2851.2</ele>
        <time>2021-02-28T08:07:41Z</time>
      </trkpt>
      <trkpt lat="45.14058" lon="6.35755">
        <ele>2851.4</ele>
        <time>2021-02-28T08:07:42Z</time>
      </trkpt>
      <trkpt lat="45.14058" lon="6.35755">
        <ele>2851.8</ele>
        <time>2021-02-28T08:07:43Z</time>
      </trkpt>
      <trkpt lat="45.14058" lon="6.35755">
        <ele>2852.2</ele>
        <time>2021-02-28T08:07:44Z</time>
      </trkpt>
      <trkpt lat="45.14058" lon="6.35755">
        <ele>2852</ele>
        <time>2021-02-28T08:07:45Z</time>
      </trkpt>
      <trkpt lat="45.14058" lon="6.35755">
        <ele>2851.8</ele>
        <time>2021-02-28T08:07:46Z</time>
      </trkpt>
      <trkpt lat="45.14058" lon="6.35755">
        <ele>2852.4</ele>
        <time>2021-02-28T08:07:47Z</time>
      </trkpt>
      <trkpt lat="45.14058" lon="6.35755">
        <ele>2853</ele>
        <time>2021-02-28T08:07:48Z</time>
      </trkpt>
      <trkpt lat="45.14058" lon="6.35755">
        <ele>2852.6</ele>
        <time>2021-02-28T08:07:49Z</time>
      </trkpt>
      <trkpt lat="45.14058" lon="6.35758">
        <ele>2853</ele>
        <time>2021-02-28T08:07:50Z</time>
      </trkpt>
      <trkpt lat="45.14058" lon="6.35758">
        <ele>2853.4</ele>
        <time>2021-02-28T08:07:51Z</time>
      </trkpt>
      <trkpt lat="45.14058" lon="6.35758">
        <ele>2853.6</ele>
        <time>2021-02-28T08:07:52Z</time>
      </trkpt>
      <trkpt lat="45.14058" lon="6.35758">
        <ele>2853.8</ele>
        <time>2021-02-28T08:07:53Z</time>
      </trkpt>
      <trkpt lat="45.14058" lon="6.35758">
        <ele>2854.4</ele>
        <time>2021-02-28T08:07:54Z</time>
      </trkpt>
      <trkpt lat="45.14059" lon="6.3576">
        <ele>2854.2</ele>
        <time>2021-02-28T08:07:55Z</time>
      </trkpt>
      <trkpt lat="45.14059" lon="6.3576">
        <ele>2854.2</ele>
        <time>2021-02-28T08:07:56Z</time>
      </trkpt>
      <trkpt lat="45.14059" lon="6.3576">
        <ele>2854.6</ele>
        <time>2021-02-28T08:07:57Z</time>
      </trkpt>
      <trkpt lat="45.14059" lon="6.3576">
        <ele>2854.8</ele>
        <time>2021-02-28T08:07:58Z</time>
      </trkpt>
      <trkpt lat="45.14059" lon="6.3576">
        <ele>2855.2</ele>
        <time>2021-02-28T08:07:59Z</time>
      </trkpt>
      <trkpt lat="45.14059" lon="6.3576">
        <ele>2855.8</ele>
        <time>2021-02-28T08:08:00Z</time>
      </trkpt>
      <trkpt lat="45.14059" lon="6.3576">
        <ele>2856.2</ele>
        <time>2021-02-28T08:08:01Z</time>
      </trkpt>
      <trkpt lat="45.1406" lon="6.35763">
        <ele>2856</ele>
        <time>2021-02-28T08:08:02Z</time>
      </trkpt>
      <trkpt lat="45.1406" lon="6.35763">
        <ele>2856</ele>
        <time>2021-02-28T08:08:03Z</time>
      </trkpt>
      <trkpt lat="45.1406" lon="6.35763">
        <ele>2856.2</ele>
        <time>2021-02-28T08:08:04Z</time>
      </trkpt>
      <trkpt lat="45.1406" lon="6.35763">
        <ele>2855.6</ele>
        <time>2021-02-28T08:08:05Z</time>
      </trkpt>
      <trkpt lat="45.14061" lon="6.35765">
        <ele>2856</ele>
        <time>2021-02-28T08:08:06Z</time>
      </trkpt>
      <trkpt lat="45.14061" lon="6.35765">
        <ele>2856.2</ele>
        <time>2021-02-28T08:08:07Z</time>
      </trkpt>
      <trkpt lat="45.14061" lon="6.35765">
        <ele>2856.2</ele>
        <time>2021-02-28T08:08:08Z</time>
      </trkpt>
      <trkpt lat="45.14061" lon="6.35765">
        <ele>2857</ele>
        <time>2021-02-28T08:08:09Z</time>
      </trkpt>
      <trkpt lat="45.14061" lon="6.35765">
        <ele>2857.8</ele>
        <time>2021-02-28T08:08:10Z</time>
      </trkpt>
      <trkpt lat="45.14061" lon="6.35765">
        <ele>2857.6</ele>
        <time>2021-02-28T08:08:11Z</time>
      </trkpt>
      <trkpt lat="45.14061" lon="6.35765">
        <ele>2858</ele>
        <time>2021-02-28T08:08:12Z</time>
      </trkpt>
      <trkpt lat="45.14061" lon="6.35765">
        <ele>2858.2</ele>
        <time>2021-02-28T08:08:13Z</time>
      </trkpt>
      <trkpt lat="45.14061" lon="6.35765">
        <ele>2858</ele>
        <time>2021-02-28T08:08:14Z</time>
      </trkpt>
      <trkpt lat="45.14062" lon="6.35768">
        <ele>2857.8</ele>
        <time>2021-02-28T08:08:15Z</time>
      </trkpt>
      <trkpt lat="45.14062" lon="6.35768">
        <ele>2858.4</ele>
        <time>2021-02-28T08:08:16Z</time>
      </trkpt>
      <trkpt lat="45.14062" lon="6.35768">
        <ele>2857.4</ele>
        <time>2021-02-28T08:08:17Z</time>
      </trkpt>
      <trkpt lat="45.14062" lon="6.35768">
        <ele>2858</ele>
        <time>2021-02-28T08:08:18Z</time>
      </trkpt>
      <trkpt lat="45.14062" lon="6.35768">
        <ele>2858.6</ele>
        <time>2021-02-28T08:08:19Z</time>
      </trkpt>
      <trkpt lat="45.14062" lon="6.35768">
        <ele>2859</ele>
        <time>2021-02-28T08:08:20Z</time>
      </trkpt>
      <trkpt lat="45.14062" lon="6.35768">
        <ele>2859</ele>
        <time>2021-02-28T08:08:21Z</time>
      </trkpt>
      <trkpt lat="45.14062" lon="6.35768">
        <ele>2858.8</ele>
        <time>2021-02-28T08:08:22Z</time>
      </trkpt>
      <trkpt lat="45.14062" lon="6.35768">
        <ele>2859.2</ele>
        <time>2021-02-28T08:08:23Z</time>
      </trkpt>
      <trkpt lat="45.14062" lon="6.35768">
        <ele>2859.8</ele>
        <time>2021-02-28T08:08:24Z</time>
      </trkpt>
      <trkpt lat="45.14062" lon="6.3577">
        <ele>2859.6</ele>
        <time>2021-02-28T08:08:25Z</time>
      </trkpt>
      <trkpt lat="45.14062" lon="6.3577">
        <ele>2860.4</ele>
        <time>2021-02-28T08:08:26Z</time>
      </trkpt>
      <trkpt lat="45.14062" lon="6.3577">
        <ele>2860.8</ele>
        <time>2021-02-28T08:08:27Z</time>
      </trkpt>
      <trkpt lat="45.14062" lon="6.3577">
        <ele>2860.6</ele>
        <time>2021-02-28T08:08:28Z</time>
      </trkpt>
      <trkpt lat="45.14062" lon="6.3577">
        <ele>2860.2</ele>
        <time>2021-02-28T08:08:29Z</time>
      </trkpt>
      <trkpt lat="45.14062" lon="6.3577">
        <ele>2861.4</ele>
        <time>2021-02-28T08:08:30Z</time>
      </trkpt>
      <trkpt lat="45.14062" lon="6.3577">
        <ele>2861.4</ele>
        <time>2021-02-28T08:08:31Z</time>
      </trkpt>
      <trkpt lat="45.14062" lon="6.3577">
        <ele>2860.8</ele>
        <time>2021-02-28T08:08:32Z</time>
      </trkpt>
      <trkpt lat="45.14062" lon="6.3577">
        <ele>2861.2</ele>
        <time>2021-02-28T08:08:33Z</time>
      </trkpt>
      <trkpt lat="45.14062" lon="6.3577">
        <ele>2861.2</ele>
        <time>2021-02-28T08:08:34Z</time>
      </trkpt>
      <trkpt lat="45.14064" lon="6.35772">
        <ele>2861.8</ele>
        <time>2021-02-28T08:08:35Z</time>
      </trkpt>
      <trkpt lat="45.14064" lon="6.35772">
        <ele>2862.4</ele>
        <time>2021-02-28T08:08:36Z</time>
      </trkpt>
      <trkpt lat="45.14064" lon="6.35772">
        <ele>2862.4</ele>
        <time>2021-02-28T08:08:37Z</time>
      </trkpt>
      <trkpt lat="45.14064" lon="6.35772">
        <ele>2862.8</ele>
        <time>2021-02-28T08:08:38Z</time>
      </trkpt>
      <trkpt lat="45.14064" lon="6.35772">
        <ele>2862.8</ele>
        <time>2021-02-28T08:08:39Z</time>
      </trkpt>
      <trkpt lat="45.14066" lon="6.35774">
        <ele>2863.4</ele>
        <time>2021-02-28T08:08:40Z</time>
      </trkpt>
      <trkpt lat="45.14066" lon="6.35774">
        <ele>2864</ele>
        <time>2021-02-28T08:08:41Z</time>
      </trkpt>
      <trkpt lat="45.14066" lon="6.35774">
        <ele>2863.8</ele>
        <time>2021-02-28T08:08:42Z</time>
      </trkpt>
      <trkpt lat="45.14066" lon="6.35774">
        <ele>2864.2</ele>
        <time>2021-02-28T08:08:43Z</time>
      </trkpt>
      <trkpt lat="45.14066" lon="6.35774">
        <ele>2864.6</ele>
        <time>2021-02-28T08:08:44Z</time>
      </trkpt>
      <trkpt lat="45.14066" lon="6.35774">
        <ele>2864.6</ele>
        <time>2021-02-28T08:08:45Z</time>
      </trkpt>
      <trkpt lat="45.14066" lon="6.35774">
        <ele>2865</ele>
        <time>2021-02-28T08:08:46Z</time>
      </trkpt>
      <trkpt lat="45.14066" lon="6.35774">
        <ele>2865</ele>
        <time>2021-02-28T08:08:47Z</time>
      </trkpt>
      <trkpt lat="45.14067" lon="6.35777">
        <ele>2864.8</ele>
        <time>2021-02-28T08:08:48Z</time>
      </trkpt>
      <trkpt lat="45.14067" lon="6.35777">
        <ele>2865.2</ele>
        <time>2021-02-28T08:08:49Z</time>
      </trkpt>
      <trkpt lat="45.14067" lon="6.35777">
        <ele>2865.8</ele>
        <time>2021-02-28T08:08:50Z</time>
      </trkpt>
      <trkpt lat="45.14067" lon="6.35777">
        <ele>2866.2</ele>
        <time>2021-02-28T08:08:51Z</time>
      </trkpt>
      <trkpt lat="45.14067" lon="6.35777">
        <ele>2866</ele>
        <time>2021-02-28T08:08:52Z</time>
      </trkpt>
      <trkpt lat="45.14067" lon="6.3578">
        <ele>2866.4</ele>
        <time>2021-02-28T08:08:53Z</time>
      </trkpt>
      <trkpt lat="45.14067" lon="6.3578">
        <ele>2866.8</ele>
        <time>2021-02-28T08:08:54Z</time>
      </trkpt>
      <trkpt lat="45.14067" lon="6.3578">
        <ele>2867</ele>
        <time>2021-02-28T08:08:55Z</time>
      </trkpt>
      <trkpt lat="45.14067" lon="6.3578">
        <ele>2867.4</ele>
        <time>2021-02-28T08:08:56Z</time>
      </trkpt>
      <trkpt lat="45.14067" lon="6.3578">
        <ele>2868</ele>
        <time>2021-02-28T08:08:57Z</time>
      </trkpt>
      <trkpt lat="45.14067" lon="6.3578">
        <ele>2868.2</ele>
        <time>2021-02-28T08:08:58Z</time>
      </trkpt>
      <trkpt lat="45.14067" lon="6.3578">
        <ele>2868</ele>
        <time>2021-02-28T08:08:59Z</time>
      </trkpt>
      <trkpt lat="45.14067" lon="6.3578">
        <ele>2868.2</ele>
        <time>2021-02-28T08:09:00Z</time>
      </trkpt>
      <trkpt lat="45.14069" lon="6.35782">
        <ele>2867.6</ele>
        <time>2021-02-28T08:09:01Z</time>
      </trkpt>
      <trkpt lat="45.14069" lon="6.35782">
        <ele>2868</ele>
        <time>2021-02-28T08:09:02Z</time>
      </trkpt>
      <trkpt lat="45.14069" lon="6.35782">
        <ele>2868.4</ele>
        <time>2021-02-28T08:09:03Z</time>
      </trkpt>
      <trkpt lat="45.14069" lon="6.35782">
        <ele>2868.6</ele>
        <time>2021-02-28T08:09:04Z</time>
      </trkpt>
      <trkpt lat="45.14069" lon="6.35782">
        <ele>2868.8</ele>
        <time>2021-02-28T08:09:05Z</time>
      </trkpt>
      <trkpt lat="45.14069" lon="6.35782">
        <ele>2868.6</ele>
        <time>2021-02-28T08:09:06Z</time>
      </trkpt>
      <trkpt lat="45.14069" lon="6.35782">
        <ele>2868.4</ele>
        <time>2021-02-28T08:09:07Z</time>
      </trkpt>
      <trkpt lat="45.14069" lon="6.35782">
        <ele>2868.4</ele>
        <time>2021-02-28T08:09:08Z</time>
      </trkpt>
      <trkpt lat="45.14069" lon="6.35782">
        <ele>2868.4</ele>
        <time>2021-02-28T08:09:09Z</time>
      </trkpt>
      <trkpt lat="45.14069" lon="6.35782">
        <ele>2868.8</ele>
        <time>2021-02-28T08:09:10Z</time>
      </trkpt>
      <trkpt lat="45.14068" lon="6.35785">
        <ele>2869.4</ele>
        <time>2021-02-28T08:09:11Z</time>
      </trkpt>
      <trkpt lat="45.14068" lon="6.35785">
        <ele>2869.4</ele>
        <time>2021-02-28T08:09:12Z</time>
      </trkpt>
      <trkpt lat="45.14068" lon="6.35785">
        <ele>2870</ele>
        <time>2021-02-28T08:09:13Z</time>
      </trkpt>
      <trkpt lat="45.14068" lon="6.35785">
        <ele>2870.2</ele>
        <time>2021-02-28T08:09:14Z</time>
      </trkpt>
      <trkpt lat="45.14068" lon="6.35785">
        <ele>2870.4</ele>
        <time>2021-02-28T08:09:15Z</time>
      </trkpt>
      <trkpt lat="45.14068" lon="6.35785">
        <ele>2870.6</ele>
        <time>2021-02-28T08:09:16Z</time>
      </trkpt>
      <trkpt lat="45.14068" lon="6.35785">
        <ele>2871.2</ele>
        <time>2021-02-28T08:09:17Z</time>
      </trkpt>
      <trkpt lat="45.14068" lon="6.35785">
        <ele>2871.4</ele>
        <time>2021-02-28T08:09:18Z</time>
      </trkpt>
      <trkpt lat="45.14068" lon="6.35785">
        <ele>2871.2</ele>
        <time>2021-02-28T08:09:19Z</time>
      </trkpt>
      <trkpt lat="45.14068" lon="6.35785">
        <ele>2870.6</ele>
        <time>2021-02-28T08:09:20Z</time>
      </trkpt>
      <trkpt lat="45.14068" lon="6.35785">
        <ele>2871</ele>
        <time>2021-02-28T08:09:21Z</time>
      </trkpt>
      <trkpt lat="45.14068" lon="6.35785">
        <ele>2871.2</ele>
        <time>2021-02-28T08:09:22Z</time>
      </trkpt>
      <trkpt lat="45.14068" lon="6.35785">
        <ele>2871</ele>
        <time>2021-02-28T08:09:23Z</time>
      </trkpt>
      <trkpt lat="45.14069" lon="6.35788">
        <ele>2871.6</ele>
        <time>2021-02-28T08:09:24Z</time>
      </trkpt>
      <trkpt lat="45.14069" lon="6.35788">
        <ele>2871.8</ele>
        <time>2021-02-28T08:09:25Z</time>
      </trkpt>
      <trkpt lat="45.14069" lon="6.35788">
        <ele>2871.4</ele>
        <time>2021-02-28T08:09:26Z</time>
      </trkpt>
      <trkpt lat="45.14069" lon="6.35788">
        <ele>2871.6</ele>
        <time>2021-02-28T08:09:27Z</time>
      </trkpt>
      <trkpt lat="45.14069" lon="6.35788">
        <ele>2870.8</ele>
        <time>2021-02-28T08:09:28Z</time>
      </trkpt>
      <trkpt lat="45.14071" lon="6.35789">
        <ele>2871.6</ele>
        <time>2021-02-28T08:09:29Z</time>
      </trkpt>
      <trkpt lat="45.14071" lon="6.35789">
        <ele>2871.8</ele>
        <time>2021-02-28T08:09:30Z</time>
      </trkpt>
      <trkpt lat="45.14071" lon="6.35789">
        <ele>2872</ele>
        <time>2021-02-28T08:09:31Z</time>
      </trkpt>
      <trkpt lat="45.14071" lon="6.35789">
        <ele>2872.6</ele>
        <time>2021-02-28T08:09:32Z</time>
      </trkpt>
      <trkpt lat="45.14071" lon="6.35789">
        <ele>2873.2</ele>
        <time>2021-02-28T08:09:33Z</time>
      </trkpt>
      <trkpt lat="45.14072" lon="6.35791">
        <ele>2872.8</ele>
        <time>2021-02-28T08:09:34Z</time>
      </trkpt>
      <trkpt lat="45.14072" lon="6.35791">
        <ele>2873.4</ele>
        <time>2021-02-28T08:09:35Z</time>
      </trkpt>
      <trkpt lat="45.14072" lon="6.35791">
        <ele>2873.6</ele>
        <time>2021-02-28T08:09:36Z</time>
      </trkpt>
      <trkpt lat="45.14072" lon="6.35791">
        <ele>2874.2</ele>
        <time>2021-02-28T08:09:37Z</time>
      </trkpt>
      <trkpt lat="45.14072" lon="6.35791">
        <ele>2874</ele>
        <time>2021-02-28T08:09:38Z</time>
      </trkpt>
      <trkpt lat="45.14072" lon="6.35791">
        <ele>2873.6</ele>
        <time>2021-02-28T08:09:39Z</time>
      </trkpt>
      <trkpt lat="45.14073" lon="6.35793">
        <ele>2873.4</ele>
        <time>2021-02-28T08:09:40Z</time>
      </trkpt>
      <trkpt lat="45.14073" lon="6.35793">
        <ele>2874.2</ele>
        <time>2021-02-28T08:09:41Z</time>
      </trkpt>
      <trkpt lat="45.14073" lon="6.35793">
        <ele>2874.8</ele>
        <time>2021-02-28T08:09:42Z</time>
      </trkpt>
      <trkpt lat="45.14073" lon="6.35793">
        <ele>2875.2</ele>
        <time>2021-02-28T08:09:43Z</time>
      </trkpt>
      <trkpt lat="45.14073" lon="6.35793">
        <ele>2875.4</ele>
        <time>2021-02-28T08:09:44Z</time>
      </trkpt>
      <trkpt lat="45.14073" lon="6.35793">
        <ele>2875.2</ele>
        <time>2021-02-28T08:09:45Z</time>
      </trkpt>
      <trkpt lat="45.14073" lon="6.35793">
        <ele>2876</ele>
        <time>2021-02-28T08:09:46Z</time>
      </trkpt>
      <trkpt lat="45.14073" lon="6.35793">
        <ele>2876.2</ele>
        <time>2021-02-28T08:09:47Z</time>
      </trkpt>
      <trkpt lat="45.14073" lon="6.35793">
        <ele>2875.8</ele>
        <time>2021-02-28T08:09:48Z</time>
      </trkpt>
      <trkpt lat="45.14074" lon="6.35796">
        <ele>2875.6</ele>
        <time>2021-02-28T08:09:49Z</time>
      </trkpt>
      <trkpt lat="45.14074" lon="6.35796">
        <ele>2876.2</ele>
        <time>2021-02-28T08:09:50Z</time>
      </trkpt>
      <trkpt lat="45.14074" lon="6.35796">
        <ele>2876</ele>
        <time>2021-02-28T08:09:51Z</time>
      </trkpt>
      <trkpt lat="45.14074" lon="6.35796">
        <ele>2877.4</ele>
        <time>2021-02-28T08:09:52Z</time>
      </trkpt>
      <trkpt lat="45.14074" lon="6.35796">
        <ele>2877.2</ele>
        <time>2021-02-28T08:09:53Z</time>
      </trkpt>
      <trkpt lat="45.14074" lon="6.35796">
        <ele>2877.2</ele>
        <time>2021-02-28T08:09:54Z</time>
      </trkpt>
      <trkpt lat="45.14074" lon="6.35796">
        <ele>2877.4</ele>
        <time>2021-02-28T08:09:55Z</time>
      </trkpt>
      <trkpt lat="45.14074" lon="6.35796">
        <ele>2877.4</ele>
        <time>2021-02-28T08:09:56Z</time>
      </trkpt>
      <trkpt lat="45.14075" lon="6.35799">
        <ele>2877</ele>
        <time>2021-02-28T08:09:57Z</time>
      </trkpt>
      <trkpt lat="45.14075" lon="6.35799">
        <ele>2878.8</ele>
        <time>2021-02-28T08:09:58Z</time>
      </trkpt>
      <trkpt lat="45.14075" lon="6.35799">
        <ele>2879.2</ele>
        <time>2021-02-28T08:09:59Z</time>
      </trkpt>
      <trkpt lat="45.14075" lon="6.35799">
        <ele>2878.4</ele>
        <time>2021-02-28T08:10:00Z</time>
      </trkpt>
      <trkpt lat="45.14075" lon="6.35799">
        <ele>2878</ele>
        <time>2021-02-28T08:10:01Z</time>
      </trkpt>
      <trkpt lat="45.14073" lon="6.358">
        <ele>2878.2</ele>
        <time>2021-02-28T08:10:02Z</time>
      </trkpt>
      <trkpt lat="45.14073" lon="6.358">
        <ele>2878.8</ele>
        <time>2021-02-28T08:10:03Z</time>
      </trkpt>
      <trkpt lat="45.14073" lon="6.358">
        <ele>2879.4</ele>
        <time>2021-02-28T08:10:04Z</time>
      </trkpt>
      <trkpt lat="45.14073" lon="6.358">
        <ele>2879.2</ele>
        <time>2021-02-28T08:10:05Z</time>
      </trkpt>
      <trkpt lat="45.14073" lon="6.358">
        <ele>2879.4</ele>
        <time>2021-02-28T08:10:06Z</time>
      </trkpt>
      <trkpt lat="45.14073" lon="6.358">
        <ele>2880.2</ele>
        <time>2021-02-28T08:10:07Z</time>
      </trkpt>
      <trkpt lat="45.14073" lon="6.358">
        <ele>2880.2</ele>
        <time>2021-02-28T08:10:08Z</time>
      </trkpt>
      <trkpt lat="45.14072" lon="6.35802">
        <ele>2880</ele>
        <time>2021-02-28T08:10:09Z</time>
      </trkpt>
      <trkpt lat="45.14072" lon="6.35802">
        <ele>2880</ele>
        <time>2021-02-28T08:10:10Z</time>
      </trkpt>
      <trkpt lat="45.14072" lon="6.35802">
        <ele>2880.6</ele>
        <time>2021-02-28T08:10:11Z</time>
      </trkpt>
      <trkpt lat="45.14072" lon="6.35802">
        <ele>2880.6</ele>
        <time>2021-02-28T08:10:12Z</time>
      </trkpt>
      <trkpt lat="45.14072" lon="6.35802">
        <ele>2881.2</ele>
        <time>2021-02-28T08:10:13Z</time>
      </trkpt>
      <trkpt lat="45.14072" lon="6.35802">
        <ele>2881.2</ele>
        <time>2021-02-28T08:10:14Z</time>
      </trkpt>
      <trkpt lat="45.14072" lon="6.35802">
        <ele>2881.4</ele>
        <time>2021-02-28T08:10:15Z</time>
      </trkpt>
      <trkpt lat="45.1407" lon="6.35804">
        <ele>2881.4</ele>
        <time>2021-02-28T08:10:16Z</time>
      </trkpt>
      <trkpt lat="45.1407" lon="6.35804">
        <ele>2881.6</ele>
        <time>2021-02-28T08:10:17Z</time>
      </trkpt>
      <trkpt lat="45.1407" lon="6.35804">
        <ele>2881.8</ele>
        <time>2021-02-28T08:10:18Z</time>
      </trkpt>
      <trkpt lat="45.1407" lon="6.35804">
        <ele>2882.2</ele>
        <time>2021-02-28T08:10:19Z</time>
      </trkpt>
      <trkpt lat="45.1407" lon="6.35804">
        <ele>2882.4</ele>
        <time>2021-02-28T08:10:20Z</time>
      </trkpt>
      <trkpt lat="45.1407" lon="6.35804">
        <ele>2883</ele>
        <time>2021-02-28T08:10:21Z</time>
      </trkpt>
      <trkpt lat="45.1407" lon="6.35807">
        <ele>2883</ele>
        <time>2021-02-28T08:10:22Z</time>
      </trkpt>
      <trkpt lat="45.1407" lon="6.35807">
        <ele>2883</ele>
        <time>2021-02-28T08:10:23Z</time>
      </trkpt>
      <trkpt lat="45.1407" lon="6.35807">
        <ele>2883</ele>
        <time>2021-02-28T08:10:24Z</time>
      </trkpt>
      <trkpt lat="45.1407" lon="6.35807">
        <ele>2882.8</ele>
        <time>2021-02-28T08:10:25Z</time>
      </trkpt>
      <trkpt lat="45.1407" lon="6.35807">
        <ele>2883.2</ele>
        <time>2021-02-28T08:10:26Z</time>
      </trkpt>
      <trkpt lat="45.1407" lon="6.35807">
        <ele>2883.4</ele>
        <time>2021-02-28T08:10:27Z</time>
      </trkpt>
      <trkpt lat="45.1407" lon="6.35807">
        <ele>2884</ele>
        <time>2021-02-28T08:10:28Z</time>
      </trkpt>
      <trkpt lat="45.1407" lon="6.35807">
        <ele>2884</ele>
        <time>2021-02-28T08:10:29Z</time>
      </trkpt>
      <trkpt lat="45.1407" lon="6.35807">
        <ele>2884.2</ele>
        <time>2021-02-28T08:10:30Z</time>
      </trkpt>
      <trkpt lat="45.1407" lon="6.35807">
        <ele>2884.2</ele>
        <time>2021-02-28T08:10:31Z</time>
      </trkpt>
      <trkpt lat="45.1407" lon="6.35807">
        <ele>2884.2</ele>
        <time>2021-02-28T08:10:32Z</time>
      </trkpt>
      <trkpt lat="45.1407" lon="6.35807">
        <ele>2884.6</ele>
        <time>2021-02-28T08:10:33Z</time>
      </trkpt>
      <trkpt lat="45.1407" lon="6.35807">
        <ele>2884.6</ele>
        <time>2021-02-28T08:10:34Z</time>
      </trkpt>
      <trkpt lat="45.1407" lon="6.35807">
        <ele>2884.8</ele>
        <time>2021-02-28T08:10:35Z</time>
      </trkpt>
      <trkpt lat="45.1407" lon="6.35807">
        <ele>2884.8</ele>
        <time>2021-02-28T08:10:36Z</time>
      </trkpt>
      <trkpt lat="45.1407" lon="6.35807">
        <ele>2884.6</ele>
        <time>2021-02-28T08:10:37Z</time>
      </trkpt>
      <trkpt lat="45.1407" lon="6.35807">
        <ele>2884.6</ele>
        <time>2021-02-28T08:10:38Z</time>
      </trkpt>
      <trkpt lat="45.1407" lon="6.35807">
        <ele>2884.8</ele>
        <time>2021-02-28T08:10:39Z</time>
      </trkpt>
      <trkpt lat="45.1407" lon="6.35807">
        <ele>2884.8</ele>
        <time>2021-02-28T08:10:40Z</time>
      </trkpt>
      <trkpt lat="45.1407" lon="6.35807">
        <ele>2885</ele>
        <time>2021-02-28T08:10:41Z</time>
      </trkpt>
      <trkpt lat="45.1407" lon="6.35807">
        <ele>2884.8</ele>
        <time>2021-02-28T08:10:42Z</time>
      </trkpt>
      <trkpt lat="45.1407" lon="6.35807">
        <ele>2884.8</ele>
        <time>2021-02-28T08:10:43Z</time>
      </trkpt>
      <trkpt lat="45.1407" lon="6.35807">
        <ele>2884.8</ele>
        <time>2021-02-28T08:10:44Z</time>
      </trkpt>
      <trkpt lat="45.1407" lon="6.35807">
        <ele>2884.8</ele>
        <time>2021-02-28T08:10:45Z</time>
      </trkpt>
      <trkpt lat="45.1407" lon="6.3581">
        <ele>2884.8</ele>
        <time>2021-02-28T08:10:46Z</time>
      </trkpt>
      <trkpt lat="45.1407" lon="6.3581">
        <ele>2884.2</ele>
        <time>2021-02-28T08:10:47Z</time>
      </trkpt>
      <trkpt lat="45.1407" lon="6.3581">
        <ele>2884.6</ele>
        <time>2021-02-28T08:10:48Z</time>
      </trkpt>
      <trkpt lat="45.1407" lon="6.3581">
        <ele>2885</ele>
        <time>2021-02-28T08:10:49Z</time>
      </trkpt>
      <trkpt lat="45.14069" lon="6.35813">
        <ele>2885.2</ele>
        <time>2021-02-28T08:10:50Z</time>
      </trkpt>
      <trkpt lat="45.14069" lon="6.35813">
        <ele>2885</ele>
        <time>2021-02-28T08:10:51Z</time>
      </trkpt>
      <trkpt lat="45.14069" lon="6.35813">
        <ele>2885.4</ele>
        <time>2021-02-28T08:10:52Z</time>
      </trkpt>
      <trkpt lat="45.14069" lon="6.35813">
        <ele>2885.2</ele>
        <time>2021-02-28T08:10:53Z</time>
      </trkpt>
      <trkpt lat="45.1407" lon="6.35815">
        <ele>2885.6</ele>
        <time>2021-02-28T08:10:54Z</time>
      </trkpt>
      <trkpt lat="45.1407" lon="6.35815">
        <ele>2885.8</ele>
        <time>2021-02-28T08:10:55Z</time>
      </trkpt>
      <trkpt lat="45.1407" lon="6.35815">
        <ele>2886.2</ele>
        <time>2021-02-28T08:10:56Z</time>
      </trkpt>
      <trkpt lat="45.1407" lon="6.35815">
        <ele>2886</ele>
        <time>2021-02-28T08:10:57Z</time>
      </trkpt>
      <trkpt lat="45.1407" lon="6.35815">
        <ele>2886.6</ele>
        <time>2021-02-28T08:10:58Z</time>
      </trkpt>
      <trkpt lat="45.1407" lon="6.35815">
        <ele>2886.2</ele>
        <time>2021-02-28T08:10:59Z</time>
      </trkpt>
      <trkpt lat="45.1407" lon="6.35815">
        <ele>2886.6</ele>
        <time>2021-02-28T08:11:00Z</time>
      </trkpt>
      <trkpt lat="45.14068" lon="6.35817">
        <ele>2887.2</ele>
        <time>2021-02-28T08:11:01Z</time>
      </trkpt>
      <trkpt lat="45.14068" lon="6.35817">
        <ele>2886.4</ele>
        <time>2021-02-28T08:11:02Z</time>
      </trkpt>
      <trkpt lat="45.14068" lon="6.35817">
        <ele>2887.2</ele>
        <time>2021-02-28T08:11:03Z</time>
      </trkpt>
      <trkpt lat="45.14068" lon="6.35817">
        <ele>2887.8</ele>
        <time>2021-02-28T08:11:04Z</time>
      </trkpt>
      <trkpt lat="45.14068" lon="6.35817">
        <ele>2887.6</ele>
        <time>2021-02-28T08:11:05Z</time>
      </trkpt>
      <trkpt lat="45.14068" lon="6.35817">
        <ele>2888</ele>
        <time>2021-02-28T08:11:06Z</time>
      </trkpt>
      <trkpt lat="45.14068" lon="6.35817">
        <ele>2888</ele>
        <time>2021-02-28T08:11:07Z</time>
      </trkpt>
      <trkpt lat="45.14068" lon="6.35817">
        <ele>2888.4</ele>
        <time>2021-02-28T08:11:08Z</time>
      </trkpt>
      <trkpt lat="45.14068" lon="6.35817">
        <ele>2888.4</ele>
        <time>2021-02-28T08:11:09Z</time>
      </trkpt>
      <trkpt lat="45.14068" lon="6.35817">
        <ele>2889</ele>
        <time>2021-02-28T08:11:10Z</time>
      </trkpt>
      <trkpt lat="45.14068" lon="6.3582">
        <ele>2889.2</ele>
        <time>2021-02-28T08:11:11Z</time>
      </trkpt>
      <trkpt lat="45.14068" lon="6.3582">
        <ele>2889.2</ele>
        <time>2021-02-28T08:11:12Z</time>
      </trkpt>
      <trkpt lat="45.14068" lon="6.3582">
        <ele>2889.4</ele>
        <time>2021-02-28T08:11:13Z</time>
      </trkpt>
      <trkpt lat="45.14068" lon="6.3582">
        <ele>2889.6</ele>
        <time>2021-02-28T08:11:14Z</time>
      </trkpt>
      <trkpt lat="45.14068" lon="6.3582">
        <ele>2890</ele>
        <time>2021-02-28T08:11:15Z</time>
      </trkpt>
      <trkpt lat="45.14068" lon="6.3582">
        <ele>2890.2</ele>
        <time>2021-02-28T08:11:16Z</time>
      </trkpt>
      <trkpt lat="45.14068" lon="6.3582">
        <ele>2890.4</ele>
        <time>2021-02-28T08:11:17Z</time>
      </trkpt>
      <trkpt lat="45.14068" lon="6.3582">
        <ele>2890</ele>
        <time>2021-02-28T08:11:18Z</time>
      </trkpt>
      <trkpt lat="45.14068" lon="6.3582">
        <ele>2890.4</ele>
        <time>2021-02-28T08:11:19Z</time>
      </trkpt>
      <trkpt lat="45.14068" lon="6.3582">
        <ele>2890.8</ele>
        <time>2021-02-28T08:11:20Z</time>
      </trkpt>
      <trkpt lat="45.14068" lon="6.3582">
        <ele>2891.2</ele>
        <time>2021-02-28T08:11:21Z</time>
      </trkpt>
      <trkpt lat="45.14068" lon="6.3582">
        <ele>2891.2</ele>
        <time>2021-02-28T08:11:22Z</time>
      </trkpt>
      <trkpt lat="45.14068" lon="6.3582">
        <ele>2891</ele>
        <time>2021-02-28T08:11:23Z</time>
      </trkpt>
      <trkpt lat="45.14067" lon="6.35822">
        <ele>2890.8</ele>
        <time>2021-02-28T08:11:24Z</time>
      </trkpt>
      <trkpt lat="45.14067" lon="6.35822">
        <ele>2891</ele>
        <time>2021-02-28T08:11:25Z</time>
      </trkpt>
      <trkpt lat="45.14067" lon="6.35822">
        <ele>2891.2</ele>
        <time>2021-02-28T08:11:26Z</time>
      </trkpt>
      <trkpt lat="45.14067" lon="6.35822">
        <ele>2891.2</ele>
        <time>2021-02-28T08:11:27Z</time>
      </trkpt>
      <trkpt lat="45.14067" lon="6.35822">
        <ele>2891.2</ele>
        <time>2021-02-28T08:11:28Z</time>
      </trkpt>
      <trkpt lat="45.14067" lon="6.35822">
        <ele>2891.2</ele>
        <time>2021-02-28T08:11:29Z</time>
      </trkpt>
      <trkpt lat="45.14067" lon="6.35822">
        <ele>2891.4</ele>
        <time>2021-02-28T08:11:30Z</time>
      </trkpt>
      <trkpt lat="45.14067" lon="6.35822">
        <ele>2891.4</ele>
        <time>2021-02-28T08:11:31Z</time>
      </trkpt>
      <trkpt lat="45.14067" lon="6.35822">
        <ele>2891.4</ele>
        <time>2021-02-28T08:11:32Z</time>
      </trkpt>
      <trkpt lat="45.14067" lon="6.35822">
        <ele>2891</ele>
        <time>2021-02-28T08:11:33Z</time>
      </trkpt>
      <trkpt lat="45.14067" lon="6.35822">
        <ele>2890.8</ele>
        <time>2021-02-28T08:11:34Z</time>
      </trkpt>
      <trkpt lat="45.14067" lon="6.35822">
        <ele>2891</ele>
        <time>2021-02-28T08:11:35Z</time>
      </trkpt>
      <trkpt lat="45.14067" lon="6.35822">
        <ele>2891.6</ele>
        <time>2021-02-28T08:11:36Z</time>
      </trkpt>
      <trkpt lat="45.14066" lon="6.35824">
        <ele>2892.2</ele>
        <time>2021-02-28T08:11:37Z</time>
      </trkpt>
      <trkpt lat="45.14066" lon="6.35824">
        <ele>2892.6</ele>
        <time>2021-02-28T08:11:38Z</time>
      </trkpt>
      <trkpt lat="45.14066" lon="6.35824">
        <ele>2892.4</ele>
        <time>2021-02-28T08:11:39Z</time>
      </trkpt>
      <trkpt lat="45.14066" lon="6.35824">
        <ele>2893.4</ele>
        <time>2021-02-28T08:11:40Z</time>
      </trkpt>
      <trkpt lat="45.14066" lon="6.35824">
        <ele>2893.4</ele>
        <time>2021-02-28T08:11:41Z</time>
      </trkpt>
      <trkpt lat="45.14066" lon="6.35824">
        <ele>2893.8</ele>
        <time>2021-02-28T08:11:42Z</time>
      </trkpt>
      <trkpt lat="45.14066" lon="6.35824">
        <ele>2894.2</ele>
        <time>2021-02-28T08:11:43Z</time>
      </trkpt>
      <trkpt lat="45.14066" lon="6.35824">
        <ele>2894.6</ele>
        <time>2021-02-28T08:11:44Z</time>
      </trkpt>
      <trkpt lat="45.14066" lon="6.35824">
        <ele>2894.8</ele>
        <time>2021-02-28T08:11:45Z</time>
      </trkpt>
      <trkpt lat="45.14066" lon="6.35824">
        <ele>2894.4</ele>
        <time>2021-02-28T08:11:46Z</time>
      </trkpt>
      <trkpt lat="45.14066" lon="6.35824">
        <ele>2894.8</ele>
        <time>2021-02-28T08:11:47Z</time>
      </trkpt>
      <trkpt lat="45.14066" lon="6.35824">
        <ele>2894</ele>
        <time>2021-02-28T08:11:48Z</time>
      </trkpt>
      <trkpt lat="45.14066" lon="6.35824">
        <ele>2893.2</ele>
        <time>2021-02-28T08:11:49Z</time>
      </trkpt>
      <trkpt lat="45.14066" lon="6.35824">
        <ele>2893</ele>
        <time>2021-02-28T08:11:50Z</time>
      </trkpt>
      <trkpt lat="45.14066" lon="6.35824">
        <ele>2892.8</ele>
        <time>2021-02-28T08:11:51Z</time>
      </trkpt>
      <trkpt lat="45.14066" lon="6.35824">
        <ele>2892.6</ele>
        <time>2021-02-28T08:11:52Z</time>
      </trkpt>
      <trkpt lat="45.14064" lon="6.35824">
        <ele>2892</ele>
        <time>2021-02-28T08:11:53Z</time>
      </trkpt>
      <trkpt lat="45.14064" lon="6.35824">
        <ele>2891.2</ele>
        <time>2021-02-28T08:11:54Z</time>
      </trkpt>
      <trkpt lat="45.14064" lon="6.35824">
        <ele>2890.8</ele>
        <time>2021-02-28T08:11:55Z</time>
      </trkpt>
      <trkpt lat="45.14061" lon="6.35823">
        <ele>2890</ele>
        <time>2021-02-28T08:11:56Z</time>
      </trkpt>
      <trkpt lat="45.14061" lon="6.35823">
        <ele>2889</ele>
        <time>2021-02-28T08:11:57Z</time>
      </trkpt>
      <trkpt lat="45.14061" lon="6.35823">
        <ele>2888.4</ele>
        <time>2021-02-28T08:11:58Z</time>
      </trkpt>
      <trkpt lat="45.14059" lon="6.35821">
        <ele>2888.2</ele>
        <time>2021-02-28T08:11:59Z</time>
      </trkpt>
      <trkpt lat="45.14059" lon="6.35821">
        <ele>2887.8</ele>
        <time>2021-02-28T08:12:00Z</time>
      </trkpt>
      <trkpt lat="45.14059" lon="6.35821">
        <ele>2888.8</ele>
        <time>2021-02-28T08:12:01Z</time>
      </trkpt>
      <trkpt lat="45.14059" lon="6.35821">
        <ele>2889.2</ele>
        <time>2021-02-28T08:12:02Z</time>
      </trkpt>
      <trkpt lat="45.14059" lon="6.35821">
        <ele>2889.2</ele>
        <time>2021-02-28T08:12:03Z</time>
      </trkpt>
      <trkpt lat="45.14057" lon="6.3582">
        <ele>2890.2</ele>
        <time>2021-02-28T08:12:04Z</time>
      </trkpt>
      <trkpt lat="45.14057" lon="6.3582">
        <ele>2890.6</ele>
        <time>2021-02-28T08:12:05Z</time>
      </trkpt>
      <trkpt lat="45.14057" lon="6.3582">
        <ele>2891</ele>
        <time>2021-02-28T08:12:06Z</time>
      </trkpt>
      <trkpt lat="45.14057" lon="6.3582">
        <ele>2890.4</ele>
        <time>2021-02-28T08:12:07Z</time>
      </trkpt>
      <trkpt lat="45.14057" lon="6.3582">
        <ele>2890.8</ele>
        <time>2021-02-28T08:12:08Z</time>
      </trkpt>
      <trkpt lat="45.14057" lon="6.3582">
        <ele>2890.4</ele>
        <time>2021-02-28T08:12:09Z</time>
      </trkpt>
      <trkpt lat="45.14057" lon="6.3582">
        <ele>2890.6</ele>
        <time>2021-02-28T08:12:10Z</time>
      </trkpt>
      <trkpt lat="45.14055" lon="6.35819">
        <ele>2889.8</ele>
        <time>2021-02-28T08:12:11Z</time>
      </trkpt>
      <trkpt lat="45.14055" lon="6.35819">
        <ele>2888.6</ele>
        <time>2021-02-28T08:12:12Z</time>
      </trkpt>
      <trkpt lat="45.14055" lon="6.35819">
        <ele>2888.8</ele>
        <time>2021-02-28T08:12:13Z</time>
      </trkpt>
      <trkpt lat="45.14054" lon="6.35817">
        <ele>2889</ele>
        <time>2021-02-28T08:12:14Z</time>
      </trkpt>
      <trkpt lat="45.14054" lon="6.35817">
        <ele>2888.6</ele>
        <time>2021-02-28T08:12:15Z</time>
      </trkpt>
      <trkpt lat="45.14054" lon="6.35817">
        <ele>2887</ele>
        <time>2021-02-28T08:12:16Z</time>
      </trkpt>
      <trkpt lat="45.14054" lon="6.35817">
        <ele>2887.8</ele>
        <time>2021-02-28T08:12:17Z</time>
      </trkpt>
      <trkpt lat="45.14054" lon="6.35817">
        <ele>2887.6</ele>
        <time>2021-02-28T08:12:18Z</time>
      </trkpt>
      <trkpt lat="45.14054" lon="6.35817">
        <ele>2886.4</ele>
        <time>2021-02-28T08:12:19Z</time>
      </trkpt>
      <trkpt lat="45.14054" lon="6.35817">
        <ele>2886.2</ele>
        <time>2021-02-28T08:12:20Z</time>
      </trkpt>
      <trkpt lat="45.14054" lon="6.35817">
        <ele>2886.4</ele>
        <time>2021-02-28T08:12:21Z</time>
      </trkpt>
      <trkpt lat="45.14054" lon="6.35817">
        <ele>2886.4</ele>
        <time>2021-02-28T08:12:22Z</time>
      </trkpt>
      <trkpt lat="45.14054" lon="6.35817">
        <ele>2886.6</ele>
        <time>2021-02-28T08:12:23Z</time>
      </trkpt>
      <trkpt lat="45.14054" lon="6.35817">
        <ele>2887</ele>
        <time>2021-02-28T08:12:24Z</time>
      </trkpt>
      <trkpt lat="45.14054" lon="6.35817">
        <ele>2887.4</ele>
        <time>2021-02-28T08:12:25Z</time>
      </trkpt>
      <trkpt lat="45.14054" lon="6.35817">
        <ele>2887.8</ele>
        <time>2021-02-28T08:12:26Z</time>
      </trkpt>
      <trkpt lat="45.14054" lon="6.35817">
        <ele>2888.2</ele>
        <time>2021-02-28T08:12:27Z</time>
      </trkpt>
      <trkpt lat="45.14054" lon="6.35817">
        <ele>2887.6</ele>
        <time>2021-02-28T08:12:28Z</time>
      </trkpt>
      <trkpt lat="45.14054" lon="6.35817">
        <ele>2888.8</ele>
        <time>2021-02-28T08:12:29Z</time>
      </trkpt>
      <trkpt lat="45.14054" lon="6.35817">
        <ele>2888.8</ele>
        <time>2021-02-28T08:12:30Z</time>
      </trkpt>
      <trkpt lat="45.14054" lon="6.35817">
        <ele>2888.4</ele>
        <time>2021-02-28T08:12:31Z</time>
      </trkpt>
      <trkpt lat="45.14054" lon="6.35817">
        <ele>2888.2</ele>
        <time>2021-02-28T08:12:32Z</time>
      </trkpt>
      <trkpt lat="45.14054" lon="6.35817">
        <ele>2887.2</ele>
        <time>2021-02-28T08:12:33Z</time>
      </trkpt>
      <trkpt lat="45.14054" lon="6.35817">
        <ele>2887</ele>
        <time>2021-02-28T08:12:34Z</time>
      </trkpt>
      <trkpt lat="45.14054" lon="6.35817">
        <ele>2886.8</ele>
        <time>2021-02-28T08:12:35Z</time>
      </trkpt>
      <trkpt lat="45.14054" lon="6.35817">
        <ele>2885.8</ele>
        <time>2021-02-28T08:12:36Z</time>
      </trkpt>
      <trkpt lat="45.14054" lon="6.35817">
        <ele>2885</ele>
        <time>2021-02-28T08:12:37Z</time>
      </trkpt>
      <trkpt lat="45.14055" lon="6.35819">
        <ele>2885.2</ele>
        <time>2021-02-28T08:12:38Z</time>
      </trkpt>
      <trkpt lat="45.14055" lon="6.35819">
        <ele>2885.4</ele>
        <time>2021-02-28T08:12:39Z</time>
      </trkpt>
      <trkpt lat="45.14055" lon="6.35819">
        <ele>2885</ele>
        <time>2021-02-28T08:12:40Z</time>
      </trkpt>
      <trkpt lat="45.14055" lon="6.35819">
        <ele>2885</ele>
        <time>2021-02-28T08:12:41Z</time>
      </trkpt>
      <trkpt lat="45.14055" lon="6.35819">
        <ele>2885.8</ele>
        <time>2021-02-28T08:12:42Z</time>
      </trkpt>
      <trkpt lat="45.14055" lon="6.35819">
        <ele>2886.4</ele>
        <time>2021-02-28T08:12:43Z</time>
      </trkpt>
      <trkpt lat="45.14055" lon="6.35819">
        <ele>2887</ele>
        <time>2021-02-28T08:12:44Z</time>
      </trkpt>
      <trkpt lat="45.14055" lon="6.35819">
        <ele>2887.6</ele>
        <time>2021-02-28T08:12:45Z</time>
      </trkpt>
      <trkpt lat="45.14055" lon="6.35819">
        <ele>2887.8</ele>
        <time>2021-02-28T08:12:46Z</time>
      </trkpt>
      <trkpt lat="45.14055" lon="6.35819">
        <ele>2887.6</ele>
        <time>2021-02-28T08:12:47Z</time>
      </trkpt>
      <trkpt lat="45.14055" lon="6.35819">
        <ele>2887.6</ele>
        <time>2021-02-28T08:12:48Z</time>
      </trkpt>
      <trkpt lat="45.14055" lon="6.35819">
        <ele>2887.4</ele>
        <time>2021-02-28T08:12:49Z</time>
      </trkpt>
      <trkpt lat="45.14055" lon="6.35819">
        <ele>2887.6</ele>
        <time>2021-02-28T08:12:50Z</time>
      </trkpt>
      <trkpt lat="45.14055" lon="6.35819">
        <ele>2887.6</ele>
        <time>2021-02-28T08:12:51Z</time>
      </trkpt>
      <trkpt lat="45.14055" lon="6.35819">
        <ele>2887.4</ele>
        <time>2021-02-28T08:12:52Z</time>
      </trkpt>
      <trkpt lat="45.14055" lon="6.35819">
        <ele>2887.4</ele>
        <time>2021-02-28T08:12:53Z</time>
      </trkpt>
      <trkpt lat="45.14055" lon="6.35819">
        <ele>2887.4</ele>
        <time>2021-02-28T08:12:54Z</time>
      </trkpt>
      <trkpt lat="45.14055" lon="6.35819">
        <ele>2886</ele>
        <time>2021-02-28T08:12:55Z</time>
      </trkpt>
      <trkpt lat="45.14055" lon="6.35819">
        <ele>2886.2</ele>
        <time>2021-02-28T08:12:56Z</time>
      </trkpt>
      <trkpt lat="45.14055" lon="6.35819">
        <ele>2887</ele>
        <time>2021-02-28T08:12:57Z</time>
      </trkpt>
      <trkpt lat="45.14055" lon="6.35819">
        <ele>2887.4</ele>
        <time>2021-02-28T08:12:58Z</time>
      </trkpt>
      <trkpt lat="45.14055" lon="6.35819">
        <ele>2887.4</ele>
        <time>2021-02-28T08:12:59Z</time>
      </trkpt>
      <trkpt lat="45.14055" lon="6.35819">
        <ele>2887.6</ele>
        <time>2021-02-28T08:13:00Z</time>
      </trkpt>
      <trkpt lat="45.14055" lon="6.35819">
        <ele>2888.4</ele>
        <time>2021-02-28T08:13:01Z</time>
      </trkpt>
      <trkpt lat="45.14055" lon="6.35819">
        <ele>2888.4</ele>
        <time>2021-02-28T08:13:02Z</time>
      </trkpt>
      <trkpt lat="45.14055" lon="6.35819">
        <ele>2888.4</ele>
        <time>2021-02-28T08:13:03Z</time>
      </trkpt>
      <trkpt lat="45.14055" lon="6.35819">
        <ele>2888</ele>
        <time>2021-02-28T08:13:04Z</time>
      </trkpt>
      <trkpt lat="45.14055" lon="6.35819">
        <ele>2887.4</ele>
        <time>2021-02-28T08:13:05Z</time>
      </trkpt>
      <trkpt lat="45.14055" lon="6.35819">
        <ele>2887.6</ele>
        <time>2021-02-28T08:13:06Z</time>
      </trkpt>
      <trkpt lat="45.14055" lon="6.35819">
        <ele>2887.6</ele>
        <time>2021-02-28T08:13:07Z</time>
      </trkpt>
      <trkpt lat="45.14055" lon="6.35819">
        <ele>2887.8</ele>
        <time>2021-02-28T08:13:08Z</time>
      </trkpt>
      <trkpt lat="45.14055" lon="6.35819">
        <ele>2887.8</ele>
        <time>2021-02-28T08:13:09Z</time>
      </trkpt>
      <trkpt lat="45.14055" lon="6.35819">
        <ele>2888.4</ele>
        <time>2021-02-28T08:13:10Z</time>
      </trkpt>
      <trkpt lat="45.14055" lon="6.35819">
        <ele>2888.6</ele>
        <time>2021-02-28T08:13:11Z</time>
      </trkpt>
      <trkpt lat="45.14055" lon="6.35819">
        <ele>2888.2</ele>
        <time>2021-02-28T08:13:12Z</time>
      </trkpt>
      <trkpt lat="45.14055" lon="6.35819">
        <ele>2888.2</ele>
        <time>2021-02-28T08:13:13Z</time>
      </trkpt>
      <trkpt lat="45.14055" lon="6.35819">
        <ele>2888</ele>
        <time>2021-02-28T08:13:14Z</time>
      </trkpt>
      <trkpt lat="45.14055" lon="6.35819">
        <ele>2888</ele>
        <time>2021-02-28T08:13:15Z</time>
      </trkpt>
      <trkpt lat="45.14055" lon="6.35819">
        <ele>2888.2</ele>
        <time>2021-02-28T08:13:16Z</time>
      </trkpt>
      <trkpt lat="45.14055" lon="6.35819">
        <ele>2888</ele>
        <time>2021-02-28T08:13:17Z</time>
      </trkpt>
      <trkpt lat="45.14055" lon="6.35819">
        <ele>2888</ele>
        <time>2021-02-28T08:13:18Z</time>
      </trkpt>
      <trkpt lat="45.14055" lon="6.35819">
        <ele>2887.6</ele>
        <time>2021-02-28T08:13:19Z</time>
      </trkpt>
      <trkpt lat="45.14055" lon="6.35819">
        <ele>2887.6</ele>
        <time>2021-02-28T08:13:20Z</time>
      </trkpt>
      <trkpt lat="45.14055" lon="6.35819">
        <ele>2887.6</ele>
        <time>2021-02-28T08:13:21Z</time>
      </trkpt>
      <trkpt lat="45.14055" lon="6.35819">
        <ele>2887.6</ele>
        <time>2021-02-28T08:13:22Z</time>
      </trkpt>
      <trkpt lat="45.14055" lon="6.35819">
        <ele>2887.8</ele>
        <time>2021-02-28T08:13:23Z</time>
      </trkpt>
      <trkpt lat="45.14055" lon="6.35819">
        <ele>2887.4</ele>
        <time>2021-02-28T08:13:24Z</time>
      </trkpt>
      <trkpt lat="45.14055" lon="6.35819">
        <ele>2887.2</ele>
        <time>2021-02-28T08:13:25Z</time>
      </trkpt>
      <trkpt lat="45.14055" lon="6.35819">
        <ele>2886.2</ele>
        <time>2021-02-28T08:13:26Z</time>
      </trkpt>
      <trkpt lat="45.14055" lon="6.35819">
        <ele>2886.8</ele>
        <time>2021-02-28T08:13:27Z</time>
      </trkpt>
      <trkpt lat="45.14055" lon="6.35819">
        <ele>2887.8</ele>
        <time>2021-02-28T08:13:28Z</time>
      </trkpt>
      <trkpt lat="45.14055" lon="6.35819">
        <ele>2887.6</ele>
        <time>2021-02-28T08:13:29Z</time>
      </trkpt>
      <trkpt lat="45.14055" lon="6.35819">
        <ele>2887.4</ele>
        <time>2021-02-28T08:13:30Z</time>
      </trkpt>
      <trkpt lat="45.14055" lon="6.35819">
        <ele>2887.6</ele>
        <time>2021-02-28T08:13:31Z</time>
      </trkpt>
      <trkpt lat="45.14055" lon="6.35819">
        <ele>2887.4</ele>
        <time>2021-02-28T08:13:32Z</time>
      </trkpt>
      <trkpt lat="45.14055" lon="6.35819">
        <ele>2886.8</ele>
        <time>2021-02-28T08:13:33Z</time>
      </trkpt>
      <trkpt lat="45.14055" lon="6.35819">
        <ele>2886.6</ele>
        <time>2021-02-28T08:13:34Z</time>
      </trkpt>
      <trkpt lat="45.14055" lon="6.35819">
        <ele>2886</ele>
        <time>2021-02-28T08:13:35Z</time>
      </trkpt>
      <trkpt lat="45.14055" lon="6.35819">
        <ele>2885.6</ele>
        <time>2021-02-28T08:13:36Z</time>
      </trkpt>
      <trkpt lat="45.14055" lon="6.35819">
        <ele>2885.6</ele>
        <time>2021-02-28T08:13:37Z</time>
      </trkpt>
      <trkpt lat="45.14055" lon="6.35819">
        <ele>2885.8</ele>
        <time>2021-02-28T08:13:38Z</time>
      </trkpt>
      <trkpt lat="45.14055" lon="6.35819">
        <ele>2886</ele>
        <time>2021-02-28T08:13:39Z</time>
      </trkpt>
      <trkpt lat="45.14055" lon="6.35819">
        <ele>2885.8</ele>
        <time>2021-02-28T08:13:40Z</time>
      </trkpt>
      <trkpt lat="45.14055" lon="6.35819">
        <ele>2886</ele>
        <time>2021-02-28T08:13:41Z</time>
      </trkpt>
      <trkpt lat="45.14055" lon="6.35819">
        <ele>2886</ele>
        <time>2021-02-28T08:13:42Z</time>
      </trkpt>
      <trkpt lat="45.14055" lon="6.35819">
        <ele>2886</ele>
        <time>2021-02-28T08:13:43Z</time>
      </trkpt>
      <trkpt lat="45.14055" lon="6.35819">
        <ele>2886</ele>
        <time>2021-02-28T08:13:44Z</time>
      </trkpt>
      <trkpt lat="45.14055" lon="6.35819">
        <ele>2886</ele>
        <time>2021-02-28T08:13:45Z</time>
      </trkpt>
      <trkpt lat="45.14055" lon="6.35819">
        <ele>2886.2</ele>
        <time>2021-02-28T08:13:46Z</time>
      </trkpt>
      <trkpt lat="45.14055" lon="6.35819">
        <ele>2886</ele>
        <time>2021-02-28T08:13:47Z</time>
      </trkpt>
      <trkpt lat="45.14055" lon="6.35819">
        <ele>2886.4</ele>
        <time>2021-02-28T08:13:48Z</time>
      </trkpt>
      <trkpt lat="45.14055" lon="6.35819">
        <ele>2885.6</ele>
        <time>2021-02-28T08:13:49Z</time>
      </trkpt>
      <trkpt lat="45.14055" lon="6.35819">
        <ele>2885.6</ele>
        <time>2021-02-28T08:13:50Z</time>
      </trkpt>
      <trkpt lat="45.14055" lon="6.35819">
        <ele>2885.8</ele>
        <time>2021-02-28T08:13:51Z</time>
      </trkpt>
      <trkpt lat="45.14055" lon="6.35819">
        <ele>2885.8</ele>
        <time>2021-02-28T08:13:52Z</time>
      </trkpt>
      <trkpt lat="45.14055" lon="6.35819">
        <ele>2886</ele>
        <time>2021-02-28T08:13:53Z</time>
      </trkpt>
      <trkpt lat="45.14055" lon="6.35819">
        <ele>2886.4</ele>
        <time>2021-02-28T08:13:54Z</time>
      </trkpt>
      <trkpt lat="45.14055" lon="6.35819">
        <ele>2886.6</ele>
        <time>2021-02-28T08:13:55Z</time>
      </trkpt>
      <trkpt lat="45.14055" lon="6.35819">
        <ele>2887</ele>
        <time>2021-02-28T08:13:56Z</time>
      </trkpt>
      <trkpt lat="45.14055" lon="6.35819">
        <ele>2886.8</ele>
        <time>2021-02-28T08:13:57Z</time>
      </trkpt>
      <trkpt lat="45.14055" lon="6.35819">
        <ele>2886.8</ele>
        <time>2021-02-28T08:13:58Z</time>
      </trkpt>
      <trkpt lat="45.14055" lon="6.35819">
        <ele>2886.6</ele>
        <time>2021-02-28T08:13:59Z</time>
      </trkpt>
      <trkpt lat="45.14055" lon="6.35819">
        <ele>2886.8</ele>
        <time>2021-02-28T08:14:00Z</time>
      </trkpt>
      <trkpt lat="45.14055" lon="6.35819">
        <ele>2886.6</ele>
        <time>2021-02-28T08:14:01Z</time>
      </trkpt>
      <trkpt lat="45.14055" lon="6.35819">
        <ele>2887</ele>
        <time>2021-02-28T08:14:02Z</time>
      </trkpt>
      <trkpt lat="45.14055" lon="6.35819">
        <ele>2886.6</ele>
        <time>2021-02-28T08:14:03Z</time>
      </trkpt>
      <trkpt lat="45.14055" lon="6.35819">
        <ele>2886.8</ele>
        <time>2021-02-28T08:14:04Z</time>
      </trkpt>
      <trkpt lat="45.14055" lon="6.35819">
        <ele>2886.8</ele>
        <time>2021-02-28T08:14:05Z</time>
      </trkpt>
      <trkpt lat="45.14055" lon="6.35819">
        <ele>2886.8</ele>
        <time>2021-02-28T08:14:06Z</time>
      </trkpt>
      <trkpt lat="45.14055" lon="6.35819">
        <ele>2886.8</ele>
        <time>2021-02-28T08:14:07Z</time>
      </trkpt>
      <trkpt lat="45.14055" lon="6.35819">
        <ele>2887</ele>
        <time>2021-02-28T08:14:08Z</time>
      </trkpt>
      <trkpt lat="45.14055" lon="6.35819">
        <ele>2887.4</ele>
        <time>2021-02-28T08:14:09Z</time>
      </trkpt>
      <trkpt lat="45.14055" lon="6.35819">
        <ele>2887.2</ele>
        <time>2021-02-28T08:14:10Z</time>
      </trkpt>
      <trkpt lat="45.14055" lon="6.35819">
        <ele>2887.2</ele>
        <time>2021-02-28T08:14:11Z</time>
      </trkpt>
      <trkpt lat="45.14055" lon="6.35819">
        <ele>2887.4</ele>
        <time>2021-02-28T08:14:12Z</time>
      </trkpt>
      <trkpt lat="45.14055" lon="6.35819">
        <ele>2887.8</ele>
        <time>2021-02-28T08:14:13Z</time>
      </trkpt>
      <trkpt lat="45.14055" lon="6.35819">
        <ele>2887.4</ele>
        <time>2021-02-28T08:14:14Z</time>
      </trkpt>
      <trkpt lat="45.14055" lon="6.35819">
        <ele>2886.6</ele>
        <time>2021-02-28T08:14:15Z</time>
      </trkpt>
      <trkpt lat="45.14057" lon="6.35818">
        <ele>2887</ele>
        <time>2021-02-28T08:14:16Z</time>
      </trkpt>
      <trkpt lat="45.14057" lon="6.35818">
        <ele>2886</ele>
        <time>2021-02-28T08:14:17Z</time>
      </trkpt>
      <trkpt lat="45.14057" lon="6.35818">
        <ele>2886.6</ele>
        <time>2021-02-28T08:14:18Z</time>
      </trkpt>
      <trkpt lat="45.14057" lon="6.35818">
        <ele>2887.2</ele>
        <time>2021-02-28T08:14:19Z</time>
      </trkpt>
      <trkpt lat="45.14057" lon="6.35818">
        <ele>2887.4</ele>
        <time>2021-02-28T08:14:20Z</time>
      </trkpt>
      <trkpt lat="45.14057" lon="6.35818">
        <ele>2886.6</ele>
        <time>2021-02-28T08:14:21Z</time>
      </trkpt>
      <trkpt lat="45.14057" lon="6.35818">
        <ele>2886.2</ele>
        <time>2021-02-28T08:14:22Z</time>
      </trkpt>
      <trkpt lat="45.14057" lon="6.35818">
        <ele>2885.8</ele>
        <time>2021-02-28T08:14:23Z</time>
      </trkpt>
      <trkpt lat="45.14057" lon="6.35818">
        <ele>2885.8</ele>
        <time>2021-02-28T08:14:24Z</time>
      </trkpt>
      <trkpt lat="45.14057" lon="6.35818">
        <ele>2885.6</ele>
        <time>2021-02-28T08:14:25Z</time>
      </trkpt>
      <trkpt lat="45.14057" lon="6.35818">
        <ele>2885.6</ele>
        <time>2021-02-28T08:14:26Z</time>
      </trkpt>
      <trkpt lat="45.14057" lon="6.35818">
        <ele>2886.4</ele>
        <time>2021-02-28T08:14:27Z</time>
      </trkpt>
      <trkpt lat="45.14059" lon="6.35817">
        <ele>2887</ele>
        <time>2021-02-28T08:14:28Z</time>
      </trkpt>
      <trkpt lat="45.14059" lon="6.35817">
        <ele>2887.6</ele>
        <time>2021-02-28T08:14:29Z</time>
      </trkpt>
      <trkpt lat="45.14059" lon="6.35817">
        <ele>2887.8</ele>
        <time>2021-02-28T08:14:30Z</time>
      </trkpt>
      <trkpt lat="45.14059" lon="6.35817">
        <ele>2887.8</ele>
        <time>2021-02-28T08:14:31Z</time>
      </trkpt>
      <trkpt lat="45.14059" lon="6.35817">
        <ele>2887.8</ele>
        <time>2021-02-28T08:14:32Z</time>
      </trkpt>
      <trkpt lat="45.14059" lon="6.35817">
        <ele>2887.8</ele>
        <time>2021-02-28T08:14:33Z</time>
      </trkpt>
      <trkpt lat="45.14059" lon="6.35817">
        <ele>2888</ele>
        <time>2021-02-28T08:14:34Z</time>
      </trkpt>
      <trkpt lat="45.14059" lon="6.35817">
        <ele>2887.8</ele>
        <time>2021-02-28T08:14:35Z</time>
      </trkpt>
      <trkpt lat="45.14059" lon="6.35817">
        <ele>2887.8</ele>
        <time>2021-02-28T08:14:36Z</time>
      </trkpt>
      <trkpt lat="45.14059" lon="6.35817">
        <ele>2887.8</ele>
        <time>2021-02-28T08:14:37Z</time>
      </trkpt>
      <trkpt lat="45.14059" lon="6.35817">
        <ele>2888</ele>
        <time>2021-02-28T08:14:38Z</time>
      </trkpt>
      <trkpt lat="45.14059" lon="6.35817">
        <ele>2888</ele>
        <time>2021-02-28T08:14:39Z</time>
      </trkpt>
      <trkpt lat="45.14059" lon="6.35817">
        <ele>2888.8</ele>
        <time>2021-02-28T08:14:40Z</time>
      </trkpt>
      <trkpt lat="45.14059" lon="6.35817">
        <ele>2888.6</ele>
        <time>2021-02-28T08:14:41Z</time>
      </trkpt>
      <trkpt lat="45.14059" lon="6.35817">
        <ele>2888.6</ele>
        <time>2021-02-28T08:14:42Z</time>
      </trkpt>
      <trkpt lat="45.14059" lon="6.35817">
        <ele>2888.8</ele>
        <time>2021-02-28T08:14:43Z</time>
      </trkpt>
      <trkpt lat="45.14059" lon="6.35817">
        <ele>2888.8</ele>
        <time>2021-02-28T08:14:44Z</time>
      </trkpt>
      <trkpt lat="45.14061" lon="6.35816">
        <ele>2889</ele>
        <time>2021-02-28T08:14:45Z</time>
      </trkpt>
      <trkpt lat="45.14061" lon="6.35816">
        <ele>2888.8</ele>
        <time>2021-02-28T08:14:46Z</time>
      </trkpt>
      <trkpt lat="45.14061" lon="6.35816">
        <ele>2889.2</ele>
        <time>2021-02-28T08:14:47Z</time>
      </trkpt>
      <trkpt lat="45.14061" lon="6.35816">
        <ele>2889</ele>
        <time>2021-02-28T08:14:48Z</time>
      </trkpt>
      <trkpt lat="45.14061" lon="6.35816">
        <ele>2888.8</ele>
        <time>2021-02-28T08:14:49Z</time>
      </trkpt>
      <trkpt lat="45.14061" lon="6.35816">
        <ele>2888.6</ele>
        <time>2021-02-28T08:14:50Z</time>
      </trkpt>
      <trkpt lat="45.14061" lon="6.35816">
        <ele>2888.8</ele>
        <time>2021-02-28T08:14:51Z</time>
      </trkpt>
      <trkpt lat="45.14061" lon="6.35816">
        <ele>2888.2</ele>
        <time>2021-02-28T08:14:52Z</time>
      </trkpt>
      <trkpt lat="45.14061" lon="6.35816">
        <ele>2888.2</ele>
        <time>2021-02-28T08:14:53Z</time>
      </trkpt>
      <trkpt lat="45.14061" lon="6.35816">
        <ele>2888.4</ele>
        <time>2021-02-28T08:14:54Z</time>
      </trkpt>
      <trkpt lat="45.14061" lon="6.35816">
        <ele>2888.6</ele>
        <time>2021-02-28T08:14:55Z</time>
      </trkpt>
      <trkpt lat="45.14061" lon="6.35816">
        <ele>2888.8</ele>
        <time>2021-02-28T08:14:56Z</time>
      </trkpt>
      <trkpt lat="45.14061" lon="6.35816">
        <ele>2888.8</ele>
        <time>2021-02-28T08:14:57Z</time>
      </trkpt>
      <trkpt lat="45.14061" lon="6.35816">
        <ele>2888.8</ele>
        <time>2021-02-28T08:14:58Z</time>
      </trkpt>
      <trkpt lat="45.14061" lon="6.35816">
        <ele>2888.8</ele>
        <time>2021-02-28T08:14:59Z</time>
      </trkpt>
      <trkpt lat="45.14061" lon="6.35816">
        <ele>2888.8</ele>
        <time>2021-02-28T08:15:00Z</time>
      </trkpt>
      <trkpt lat="45.14061" lon="6.35816">
        <ele>2888.8</ele>
        <time>2021-02-28T08:15:01Z</time>
      </trkpt>
      <trkpt lat="45.14061" lon="6.35816">
        <ele>2888.8</ele>
        <time>2021-02-28T08:15:02Z</time>
      </trkpt>
      <trkpt lat="45.14061" lon="6.35816">
        <ele>2888.8</ele>
        <time>2021-02-28T08:15:03Z</time>
      </trkpt>
      <trkpt lat="45.14061" lon="6.35816">
        <ele>2888.8</ele>
        <time>2021-02-28T08:15:04Z</time>
      </trkpt>
      <trkpt lat="45.14061" lon="6.35816">
        <ele>2888.8</ele>
        <time>2021-02-28T08:15:05Z</time>
      </trkpt>
      <trkpt lat="45.14061" lon="6.35816">
        <ele>2889.2</ele>
        <time>2021-02-28T08:15:06Z</time>
      </trkpt>
      <trkpt lat="45.14061" lon="6.35816">
        <ele>2889.4</ele>
        <time>2021-02-28T08:15:07Z</time>
      </trkpt>
      <trkpt lat="45.14061" lon="6.35816">
        <ele>2889.4</ele>
        <time>2021-02-28T08:15:08Z</time>
      </trkpt>
      <trkpt lat="45.14061" lon="6.35816">
        <ele>2889.4</ele>
        <time>2021-02-28T08:15:09Z</time>
      </trkpt>
      <trkpt lat="45.14061" lon="6.35816">
        <ele>2889.6</ele>
        <time>2021-02-28T08:15:10Z</time>
      </trkpt>
      <trkpt lat="45.14061" lon="6.35816">
        <ele>2889.8</ele>
        <time>2021-02-28T08:15:11Z</time>
      </trkpt>
      <trkpt lat="45.14061" lon="6.35816">
        <ele>2889.6</ele>
        <time>2021-02-28T08:15:12Z</time>
      </trkpt>
      <trkpt lat="45.14061" lon="6.35816">
        <ele>2889.4</ele>
        <time>2021-02-28T08:15:13Z</time>
      </trkpt>
      <trkpt lat="45.14061" lon="6.35816">
        <ele>2889.2</ele>
        <time>2021-02-28T08:15:14Z</time>
      </trkpt>
      <trkpt lat="45.14061" lon="6.35816">
        <ele>2889.4</ele>
        <time>2021-02-28T08:15:15Z</time>
      </trkpt>
      <trkpt lat="45.14061" lon="6.35816">
        <ele>2888.8</ele>
        <time>2021-02-28T08:15:16Z</time>
      </trkpt>
      <trkpt lat="45.14061" lon="6.35816">
        <ele>2889</ele>
        <time>2021-02-28T08:15:17Z</time>
      </trkpt>
      <trkpt lat="45.14061" lon="6.35816">
        <ele>2889.4</ele>
        <time>2021-02-28T08:15:18Z</time>
      </trkpt>
      <trkpt lat="45.14061" lon="6.35816">
        <ele>2889.2</ele>
        <time>2021-02-28T08:15:19Z</time>
      </trkpt>
      <trkpt lat="45.14061" lon="6.35816">
        <ele>2889.2</ele>
        <time>2021-02-28T08:15:20Z</time>
      </trkpt>
      <trkpt lat="45.14061" lon="6.35816">
        <ele>2889.6</ele>
        <time>2021-02-28T08:15:21Z</time>
      </trkpt>
      <trkpt lat="45.14063" lon="6.35817">
        <ele>2889.6</ele>
        <time>2021-02-28T08:15:22Z</time>
      </trkpt>
      <trkpt lat="45.14063" lon="6.35817">
        <ele>2889.8</ele>
        <time>2021-02-28T08:15:23Z</time>
      </trkpt>
      <trkpt lat="45.14063" lon="6.35817">
        <ele>2889.4</ele>
        <time>2021-02-28T08:15:24Z</time>
      </trkpt>
      <trkpt lat="45.14063" lon="6.35817">
        <ele>2888.6</ele>
        <time>2021-02-28T08:15:25Z</time>
      </trkpt>
      <trkpt lat="45.14063" lon="6.35817">
        <ele>2888.6</ele>
        <time>2021-02-28T08:15:26Z</time>
      </trkpt>
      <trkpt lat="45.14063" lon="6.35817">
        <ele>2888.6</ele>
        <time>2021-02-28T08:15:27Z</time>
      </trkpt>
      <trkpt lat="45.14063" lon="6.35817">
        <ele>2888.6</ele>
        <time>2021-02-28T08:15:28Z</time>
      </trkpt>
      <trkpt lat="45.14063" lon="6.35817">
        <ele>2888.4</ele>
        <time>2021-02-28T08:15:29Z</time>
      </trkpt>
      <trkpt lat="45.14063" lon="6.35817">
        <ele>2888.6</ele>
        <time>2021-02-28T08:15:30Z</time>
      </trkpt>
      <trkpt lat="45.14063" lon="6.35817">
        <ele>2888.4</ele>
        <time>2021-02-28T08:15:31Z</time>
      </trkpt>
      <trkpt lat="45.14063" lon="6.35817">
        <ele>2888.2</ele>
        <time>2021-02-28T08:15:32Z</time>
      </trkpt>
      <trkpt lat="45.14063" lon="6.35817">
        <ele>2888.2</ele>
        <time>2021-02-28T08:15:33Z</time>
      </trkpt>
      <trkpt lat="45.14063" lon="6.35817">
        <ele>2888.2</ele>
        <time>2021-02-28T08:15:34Z</time>
      </trkpt>
      <trkpt lat="45.14063" lon="6.35817">
        <ele>2888.4</ele>
        <time>2021-02-28T08:15:35Z</time>
      </trkpt>
      <trkpt lat="45.14063" lon="6.35817">
        <ele>2888.4</ele>
        <time>2021-02-28T08:15:36Z</time>
      </trkpt>
      <trkpt lat="45.14063" lon="6.35817">
        <ele>2888.6</ele>
        <time>2021-02-28T08:15:37Z</time>
      </trkpt>
      <trkpt lat="45.14063" lon="6.35817">
        <ele>2889</ele>
        <time>2021-02-28T08:15:38Z</time>
      </trkpt>
      <trkpt lat="45.14063" lon="6.35817">
        <ele>2889.2</ele>
        <time>2021-02-28T08:15:39Z</time>
      </trkpt>
      <trkpt lat="45.14063" lon="6.35817">
        <ele>2889.6</ele>
        <time>2021-02-28T08:15:40Z</time>
      </trkpt>
      <trkpt lat="45.14063" lon="6.35817">
        <ele>2889.8</ele>
        <time>2021-02-28T08:15:41Z</time>
      </trkpt>
      <trkpt lat="45.14063" lon="6.35817">
        <ele>2890</ele>
        <time>2021-02-28T08:15:42Z</time>
      </trkpt>
      <trkpt lat="45.14063" lon="6.35817">
        <ele>2889.8</ele>
        <time>2021-02-28T08:15:43Z</time>
      </trkpt>
      <trkpt lat="45.14063" lon="6.35817">
        <ele>2890</ele>
        <time>2021-02-28T08:15:44Z</time>
      </trkpt>
      <trkpt lat="45.14063" lon="6.35817">
        <ele>2890.4</ele>
        <time>2021-02-28T08:15:45Z</time>
      </trkpt>
      <trkpt lat="45.14063" lon="6.35817">
        <ele>2890.6</ele>
        <time>2021-02-28T08:15:46Z</time>
      </trkpt>
      <trkpt lat="45.14063" lon="6.35817">
        <ele>2890.8</ele>
        <time>2021-02-28T08:15:47Z</time>
      </trkpt>
      <trkpt lat="45.14063" lon="6.35817">
        <ele>2891.2</ele>
        <time>2021-02-28T08:15:48Z</time>
      </trkpt>
      <trkpt lat="45.14063" lon="6.35817">
        <ele>2891.6</ele>
        <time>2021-02-28T08:15:49Z</time>
      </trkpt>
      <trkpt lat="45.14063" lon="6.35817">
        <ele>2891.8</ele>
        <time>2021-02-28T08:15:50Z</time>
      </trkpt>
      <trkpt lat="45.14063" lon="6.35817">
        <ele>2891.6</ele>
        <time>2021-02-28T08:15:51Z</time>
      </trkpt>
      <trkpt lat="45.14063" lon="6.35817">
        <ele>2891.4</ele>
        <time>2021-02-28T08:15:52Z</time>
      </trkpt>
      <trkpt lat="45.14063" lon="6.35817">
        <ele>2891.2</ele>
        <time>2021-02-28T08:15:53Z</time>
      </trkpt>
      <trkpt lat="45.14063" lon="6.35817">
        <ele>2890.8</ele>
        <time>2021-02-28T08:15:54Z</time>
      </trkpt>
      <trkpt lat="45.14063" lon="6.35817">
        <ele>2890.8</ele>
        <time>2021-02-28T08:15:55Z</time>
      </trkpt>
      <trkpt lat="45.14063" lon="6.35817">
        <ele>2890.8</ele>
        <time>2021-02-28T08:15:56Z</time>
      </trkpt>
      <trkpt lat="45.14063" lon="6.35817">
        <ele>2890.4</ele>
        <time>2021-02-28T08:15:57Z</time>
      </trkpt>
      <trkpt lat="45.14063" lon="6.35817">
        <ele>2890.2</ele>
        <time>2021-02-28T08:15:58Z</time>
      </trkpt>
      <trkpt lat="45.14063" lon="6.35817">
        <ele>2890.2</ele>
        <time>2021-02-28T08:15:59Z</time>
      </trkpt>
      <trkpt lat="45.14063" lon="6.35817">
        <ele>2890.2</ele>
        <time>2021-02-28T08:16:00Z</time>
      </trkpt>
      <trkpt lat="45.14063" lon="6.35817">
        <ele>2890.4</ele>
        <time>2021-02-28T08:16:01Z</time>
      </trkpt>
      <trkpt lat="45.14063" lon="6.35817">
        <ele>2890.2</ele>
        <time>2021-02-28T08:16:02Z</time>
      </trkpt>
      <trkpt lat="45.14063" lon="6.35817">
        <ele>2890.2</ele>
        <time>2021-02-28T08:16:03Z</time>
      </trkpt>
      <trkpt lat="45.14063" lon="6.35817">
        <ele>2890.2</ele>
        <time>2021-02-28T08:16:04Z</time>
      </trkpt>
      <trkpt lat="45.14063" lon="6.35817">
        <ele>2890.2</ele>
        <time>2021-02-28T08:16:05Z</time>
      </trkpt>
      <trkpt lat="45.14063" lon="6.35817">
        <ele>2890.2</ele>
        <time>2021-02-28T08:16:06Z</time>
      </trkpt>
      <trkpt lat="45.14063" lon="6.35817">
        <ele>2890.4</ele>
        <time>2021-02-28T08:16:07Z</time>
      </trkpt>
      <trkpt lat="45.14063" lon="6.35817">
        <ele>2890.2</ele>
        <time>2021-02-28T08:16:08Z</time>
      </trkpt>
      <trkpt lat="45.14063" lon="6.35817">
        <ele>2890.4</ele>
        <time>2021-02-28T08:16:09Z</time>
      </trkpt>
      <trkpt lat="45.14063" lon="6.35817">
        <ele>2890.2</ele>
        <time>2021-02-28T08:16:10Z</time>
      </trkpt>
      <trkpt lat="45.14063" lon="6.35817">
        <ele>2890</ele>
        <time>2021-02-28T08:16:11Z</time>
      </trkpt>
      <trkpt lat="45.14063" lon="6.35817">
        <ele>2890.2</ele>
        <time>2021-02-28T08:16:12Z</time>
      </trkpt>
      <trkpt lat="45.14063" lon="6.35817">
        <ele>2890.2</ele>
        <time>2021-02-28T08:16:13Z</time>
      </trkpt>
      <trkpt lat="45.14063" lon="6.35817">
        <ele>2890</ele>
        <time>2021-02-28T08:16:14Z</time>
      </trkpt>
      <trkpt lat="45.14063" lon="6.35817">
        <ele>2890</ele>
        <time>2021-02-28T08:16:15Z</time>
      </trkpt>
      <trkpt lat="45.14063" lon="6.35817">
        <ele>2890.2</ele>
        <time>2021-02-28T08:16:16Z</time>
      </trkpt>
      <trkpt lat="45.14063" lon="6.35817">
        <ele>2890.2</ele>
        <time>2021-02-28T08:16:17Z</time>
      </trkpt>
      <trkpt lat="45.14063" lon="6.35817">
        <ele>2890.2</ele>
        <time>2021-02-28T08:16:18Z</time>
      </trkpt>
      <trkpt lat="45.14063" lon="6.35817">
        <ele>2890</ele>
        <time>2021-02-28T08:16:19Z</time>
      </trkpt>
      <trkpt lat="45.14063" lon="6.35817">
        <ele>2890.2</ele>
        <time>2021-02-28T08:16:20Z</time>
      </trkpt>
      <trkpt lat="45.14063" lon="6.35817">
        <ele>2890.4</ele>
        <time>2021-02-28T08:16:21Z</time>
      </trkpt>
      <trkpt lat="45.14063" lon="6.35817">
        <ele>2890.6</ele>
        <time>2021-02-28T08:16:22Z</time>
      </trkpt>
      <trkpt lat="45.14063" lon="6.35817">
        <ele>2891</ele>
        <time>2021-02-28T08:16:23Z</time>
      </trkpt>
      <trkpt lat="45.14063" lon="6.35817">
        <ele>2891</ele>
        <time>2021-02-28T08:16:24Z</time>
      </trkpt>
      <trkpt lat="45.14063" lon="6.35817">
        <ele>2891.2</ele>
        <time>2021-02-28T08:16:25Z</time>
      </trkpt>
      <trkpt lat="45.14063" lon="6.35817">
        <ele>2891.4</ele>
        <time>2021-02-28T08:16:26Z</time>
      </trkpt>
      <trkpt lat="45.14063" lon="6.35817">
        <ele>2891.2</ele>
        <time>2021-02-28T08:16:27Z</time>
      </trkpt>
      <trkpt lat="45.14063" lon="6.35817">
        <ele>2891.6</ele>
        <time>2021-02-28T08:16:28Z</time>
      </trkpt>
      <trkpt lat="45.14063" lon="6.35817">
        <ele>2892.2</ele>
        <time>2021-02-28T08:16:29Z</time>
      </trkpt>
      <trkpt lat="45.14063" lon="6.35817">
        <ele>2891.8</ele>
        <time>2021-02-28T08:16:30Z</time>
      </trkpt>
      <trkpt lat="45.14063" lon="6.35817">
        <ele>2891.6</ele>
        <time>2021-02-28T08:16:31Z</time>
      </trkpt>
      <trkpt lat="45.14063" lon="6.35817">
        <ele>2891.6</ele>
        <time>2021-02-28T08:16:32Z</time>
      </trkpt>
      <trkpt lat="45.14063" lon="6.35817">
        <ele>2891.6</ele>
        <time>2021-02-28T08:16:33Z</time>
      </trkpt>
      <trkpt lat="45.14063" lon="6.35817">
        <ele>2891.6</ele>
        <time>2021-02-28T08:16:34Z</time>
      </trkpt>
      <trkpt lat="45.14063" lon="6.35817">
        <ele>2891.2</ele>
        <time>2021-02-28T08:16:35Z</time>
      </trkpt>
      <trkpt lat="45.14063" lon="6.35817">
        <ele>2890.8</ele>
        <time>2021-02-28T08:16:36Z</time>
      </trkpt>
      <trkpt lat="45.14063" lon="6.35817">
        <ele>2890.8</ele>
        <time>2021-02-28T08:16:37Z</time>
      </trkpt>
      <trkpt lat="45.14063" lon="6.35817">
        <ele>2890.6</ele>
        <time>2021-02-28T08:16:38Z</time>
      </trkpt>
      <trkpt lat="45.14063" lon="6.35817">
        <ele>2890.4</ele>
        <time>2021-02-28T08:16:39Z</time>
      </trkpt>
      <trkpt lat="45.14063" lon="6.35817">
        <ele>2890.6</ele>
        <time>2021-02-28T08:16:40Z</time>
      </trkpt>
      <trkpt lat="45.14063" lon="6.35817">
        <ele>2890.6</ele>
        <time>2021-02-28T08:16:41Z</time>
      </trkpt>
      <trkpt lat="45.14063" lon="6.35817">
        <ele>2890.8</ele>
        <time>2021-02-28T08:16:42Z</time>
      </trkpt>
      <trkpt lat="45.14063" lon="6.35817">
        <ele>2890.6</ele>
        <time>2021-02-28T08:16:43Z</time>
      </trkpt>
      <trkpt lat="45.14063" lon="6.35817">
        <ele>2890.4</ele>
        <time>2021-02-28T08:16:44Z</time>
      </trkpt>
      <trkpt lat="45.14063" lon="6.35817">
        <ele>2890.4</ele>
        <time>2021-02-28T08:16:45Z</time>
      </trkpt>
      <trkpt lat="45.14063" lon="6.35817">
        <ele>2890.2</ele>
        <time>2021-02-28T08:16:46Z</time>
      </trkpt>
      <trkpt lat="45.14063" lon="6.35817">
        <ele>2890.2</ele>
        <time>2021-02-28T08:16:47Z</time>
      </trkpt>
      <trkpt lat="45.14063" lon="6.35817">
        <ele>2890.2</ele>
        <time>2021-02-28T08:16:48Z</time>
      </trkpt>
      <trkpt lat="45.14063" lon="6.35817">
        <ele>2890.2</ele>
        <time>2021-02-28T08:16:49Z</time>
      </trkpt>
      <trkpt lat="45.14063" lon="6.35817">
        <ele>2890.2</ele>
        <time>2021-02-28T08:16:50Z</time>
      </trkpt>
      <trkpt lat="45.14063" lon="6.35817">
        <ele>2890.2</ele>
        <time>2021-02-28T08:16:51Z</time>
      </trkpt>
      <trkpt lat="45.14063" lon="6.35817">
        <ele>2890.4</ele>
        <time>2021-02-28T08:16:52Z</time>
      </trkpt>
      <trkpt lat="45.14063" lon="6.35817">
        <ele>2890.4</ele>
        <time>2021-02-28T08:16:53Z</time>
      </trkpt>
      <trkpt lat="45.14063" lon="6.35817">
        <ele>2890.8</ele>
        <time>2021-02-28T08:16:54Z</time>
      </trkpt>
      <trkpt lat="45.14063" lon="6.35817">
        <ele>2890.6</ele>
        <time>2021-02-28T08:16:55Z</time>
      </trkpt>
      <trkpt lat="45.14063" lon="6.35817">
        <ele>2890.8</ele>
        <time>2021-02-28T08:16:56Z</time>
      </trkpt>
      <trkpt lat="45.14063" lon="6.35817">
        <ele>2890.8</ele>
        <time>2021-02-28T08:16:57Z</time>
      </trkpt>
      <trkpt lat="45.14061" lon="6.35819">
        <ele>2890</ele>
        <time>2021-02-28T08:16:58Z</time>
      </trkpt>
      <trkpt lat="45.14061" lon="6.35819">
        <ele>2890.4</ele>
        <time>2021-02-28T08:16:59Z</time>
      </trkpt>
      <trkpt lat="45.14061" lon="6.35819">
        <ele>2890.8</ele>
        <time>2021-02-28T08:17:00Z</time>
      </trkpt>
      <trkpt lat="45.14061" lon="6.35819">
        <ele>2891.6</ele>
        <time>2021-02-28T08:17:01Z</time>
      </trkpt>
      <trkpt lat="45.14061" lon="6.35819">
        <ele>2892</ele>
        <time>2021-02-28T08:17:02Z</time>
      </trkpt>
      <trkpt lat="45.14061" lon="6.35819">
        <ele>2892.4</ele>
        <time>2021-02-28T08:17:03Z</time>
      </trkpt>
      <trkpt lat="45.14061" lon="6.35819">
        <ele>2892.4</ele>
        <time>2021-02-28T08:17:04Z</time>
      </trkpt>
      <trkpt lat="45.14061" lon="6.35819">
        <ele>2891.8</ele>
        <time>2021-02-28T08:17:05Z</time>
      </trkpt>
      <trkpt lat="45.14061" lon="6.35819">
        <ele>2891.8</ele>
        <time>2021-02-28T08:17:06Z</time>
      </trkpt>
      <trkpt lat="45.14058" lon="6.35819">
        <ele>2890.8</ele>
        <time>2021-02-28T08:17:07Z</time>
      </trkpt>
      <trkpt lat="45.14058" lon="6.35819">
        <ele>2890.4</ele>
        <time>2021-02-28T08:17:08Z</time>
      </trkpt>
      <trkpt lat="45.14055" lon="6.35818">
        <ele>2890</ele>
        <time>2021-02-28T08:17:09Z</time>
      </trkpt>
      <trkpt lat="45.14055" lon="6.35818">
        <ele>2889</ele>
        <time>2021-02-28T08:17:10Z</time>
      </trkpt>
      <trkpt lat="45.14055" lon="6.35818">
        <ele>2888</ele>
        <time>2021-02-28T08:17:11Z</time>
      </trkpt>
      <trkpt lat="45.14055" lon="6.35818">
        <ele>2888</ele>
        <time>2021-02-28T08:17:12Z</time>
      </trkpt>
      <trkpt lat="45.14055" lon="6.35818">
        <ele>2887.2</ele>
        <time>2021-02-28T08:17:13Z</time>
      </trkpt>
      <trkpt lat="45.14055" lon="6.35818">
        <ele>2886.8</ele>
        <time>2021-02-28T08:17:14Z</time>
      </trkpt>
      <trkpt lat="45.14055" lon="6.35818">
        <ele>2887.8</ele>
        <time>2021-02-28T08:17:15Z</time>
      </trkpt>
      <trkpt lat="45.14055" lon="6.35818">
        <ele>2888.4</ele>
        <time>2021-02-28T08:17:16Z</time>
      </trkpt>
      <trkpt lat="45.14055" lon="6.35818">
        <ele>2889</ele>
        <time>2021-02-28T08:17:17Z</time>
      </trkpt>
      <trkpt lat="45.14055" lon="6.35818">
        <ele>2889</ele>
        <time>2021-02-28T08:17:18Z</time>
      </trkpt>
      <trkpt lat="45.14055" lon="6.35818">
        <ele>2889.2</ele>
        <time>2021-02-28T08:17:19Z</time>
      </trkpt>
      <trkpt lat="45.14055" lon="6.35818">
        <ele>2889.2</ele>
        <time>2021-02-28T08:17:20Z</time>
      </trkpt>
      <trkpt lat="45.14055" lon="6.35818">
        <ele>2888.6</ele>
        <time>2021-02-28T08:17:21Z</time>
      </trkpt>
      <trkpt lat="45.14055" lon="6.35818">
        <ele>2888.8</ele>
        <time>2021-02-28T08:17:22Z</time>
      </trkpt>
      <trkpt lat="45.14055" lon="6.35818">
        <ele>2889</ele>
        <time>2021-02-28T08:17:23Z</time>
      </trkpt>
      <trkpt lat="45.14055" lon="6.35818">
        <ele>2889.2</ele>
        <time>2021-02-28T08:17:24Z</time>
      </trkpt>
      <trkpt lat="45.14055" lon="6.35818">
        <ele>2889</ele>
        <time>2021-02-28T08:17:25Z</time>
      </trkpt>
      <trkpt lat="45.14055" lon="6.35818">
        <ele>2888.8</ele>
        <time>2021-02-28T08:17:26Z</time>
      </trkpt>
      <trkpt lat="45.14055" lon="6.35818">
        <ele>2889</ele>
        <time>2021-02-28T08:17:27Z</time>
      </trkpt>
      <trkpt lat="45.14055" lon="6.35818">
        <ele>2889.2</ele>
        <time>2021-02-28T08:17:28Z</time>
      </trkpt>
      <trkpt lat="45.14055" lon="6.35818">
        <ele>2889.2</ele>
        <time>2021-02-28T08:17:29Z</time>
      </trkpt>
      <trkpt lat="45.14055" lon="6.35818">
        <ele>2889.2</ele>
        <time>2021-02-28T08:17:30Z</time>
      </trkpt>
      <trkpt lat="45.14055" lon="6.35818">
        <ele>2889</ele>
        <time>2021-02-28T08:17:31Z</time>
      </trkpt>
      <trkpt lat="45.14055" lon="6.35818">
        <ele>2889.2</ele>
        <time>2021-02-28T08:17:32Z</time>
      </trkpt>
      <trkpt lat="45.14055" lon="6.35818">
        <ele>2889.2</ele>
        <time>2021-02-28T08:17:33Z</time>
      </trkpt>
      <trkpt lat="45.14055" lon="6.35818">
        <ele>2889.6</ele>
        <time>2021-02-28T08:17:34Z</time>
      </trkpt>
      <trkpt lat="45.14055" lon="6.35818">
        <ele>2889.4</ele>
        <time>2021-02-28T08:17:35Z</time>
      </trkpt>
      <trkpt lat="45.14055" lon="6.35818">
        <ele>2889.6</ele>
        <time>2021-02-28T08:17:36Z</time>
      </trkpt>
      <trkpt lat="45.14055" lon="6.35818">
        <ele>2890</ele>
        <time>2021-02-28T08:17:37Z</time>
      </trkpt>
      <trkpt lat="45.14055" lon="6.35818">
        <ele>2890.4</ele>
        <time>2021-02-28T08:17:38Z</time>
      </trkpt>
      <trkpt lat="45.14055" lon="6.35818">
        <ele>2890.6</ele>
        <time>2021-02-28T08:17:39Z</time>
      </trkpt>
      <trkpt lat="45.14055" lon="6.35818">
        <ele>2890.8</ele>
        <time>2021-02-28T08:17:40Z</time>
      </trkpt>
      <trkpt lat="45.14055" lon="6.35818">
        <ele>2891.2</ele>
        <time>2021-02-28T08:17:41Z</time>
      </trkpt>
      <trkpt lat="45.14055" lon="6.35818">
        <ele>2891.2</ele>
        <time>2021-02-28T08:17:42Z</time>
      </trkpt>
      <trkpt lat="45.14055" lon="6.35818">
        <ele>2891.2</ele>
        <time>2021-02-28T08:17:43Z</time>
      </trkpt>
      <trkpt lat="45.14055" lon="6.35818">
        <ele>2891.6</ele>
        <time>2021-02-28T08:17:44Z</time>
      </trkpt>
      <trkpt lat="45.14055" lon="6.35818">
        <ele>2891.4</ele>
        <time>2021-02-28T08:17:45Z</time>
      </trkpt>
      <trkpt lat="45.14055" lon="6.35818">
        <ele>2891.4</ele>
        <time>2021-02-28T08:17:46Z</time>
      </trkpt>
      <trkpt lat="45.14055" lon="6.35818">
        <ele>2891</ele>
        <time>2021-02-28T08:17:47Z</time>
      </trkpt>
      <trkpt lat="45.14055" lon="6.35818">
        <ele>2891.6</ele>
        <time>2021-02-28T08:17:48Z</time>
      </trkpt>
      <trkpt lat="45.14055" lon="6.35818">
        <ele>2891.8</ele>
        <time>2021-02-28T08:17:49Z</time>
      </trkpt>
      <trkpt lat="45.14055" lon="6.35818">
        <ele>2892</ele>
        <time>2021-02-28T08:17:50Z</time>
      </trkpt>
      <trkpt lat="45.14055" lon="6.35818">
        <ele>2892.2</ele>
        <time>2021-02-28T08:17:51Z</time>
      </trkpt>
      <trkpt lat="45.14055" lon="6.35818">
        <ele>2892.4</ele>
        <time>2021-02-28T08:17:52Z</time>
      </trkpt>
      <trkpt lat="45.14055" lon="6.35818">
        <ele>2891.6</ele>
        <time>2021-02-28T08:17:53Z</time>
      </trkpt>
      <trkpt lat="45.14055" lon="6.35818">
        <ele>2891.4</ele>
        <time>2021-02-28T08:17:54Z</time>
      </trkpt>
      <trkpt lat="45.14055" lon="6.35818">
        <ele>2892.4</ele>
        <time>2021-02-28T08:17:55Z</time>
      </trkpt>
      <trkpt lat="45.14055" lon="6.35818">
        <ele>2892.8</ele>
        <time>2021-02-28T08:17:56Z</time>
      </trkpt>
      <trkpt lat="45.14055" lon="6.35818">
        <ele>2892.6</ele>
        <time>2021-02-28T08:17:57Z</time>
      </trkpt>
      <trkpt lat="45.14055" lon="6.35818">
        <ele>2892</ele>
        <time>2021-02-28T08:17:58Z</time>
      </trkpt>
      <trkpt lat="45.14055" lon="6.35818">
        <ele>2893.4</ele>
        <time>2021-02-28T08:17:59Z</time>
      </trkpt>
      <trkpt lat="45.14055" lon="6.35818">
        <ele>2893.8</ele>
        <time>2021-02-28T08:18:00Z</time>
      </trkpt>
      <trkpt lat="45.14055" lon="6.35818">
        <ele>2893.4</ele>
        <time>2021-02-28T08:18:01Z</time>
      </trkpt>
      <trkpt lat="45.14055" lon="6.35818">
        <ele>2893</ele>
        <time>2021-02-28T08:18:02Z</time>
      </trkpt>
      <trkpt lat="45.14055" lon="6.35818">
        <ele>2892.8</ele>
        <time>2021-02-28T08:18:03Z</time>
      </trkpt>
      <trkpt lat="45.14055" lon="6.35818">
        <ele>2892.8</ele>
        <time>2021-02-28T08:18:04Z</time>
      </trkpt>
      <trkpt lat="45.14055" lon="6.35818">
        <ele>2892.6</ele>
        <time>2021-02-28T08:18:05Z</time>
      </trkpt>
      <trkpt lat="45.14055" lon="6.35818">
        <ele>2892.4</ele>
        <time>2021-02-28T08:18:06Z</time>
      </trkpt>
      <trkpt lat="45.14055" lon="6.35818">
        <ele>2892.2</ele>
        <time>2021-02-28T08:18:07Z</time>
      </trkpt>
      <trkpt lat="45.14055" lon="6.35818">
        <ele>2892.2</ele>
        <time>2021-02-28T08:18:08Z</time>
      </trkpt>
      <trkpt lat="45.14055" lon="6.35818">
        <ele>2891.2</ele>
        <time>2021-02-28T08:18:09Z</time>
      </trkpt>
      <trkpt lat="45.14055" lon="6.35818">
        <ele>2891.6</ele>
        <time>2021-02-28T08:18:10Z</time>
      </trkpt>
      <trkpt lat="45.14055" lon="6.35818">
        <ele>2892.2</ele>
        <time>2021-02-28T08:18:11Z</time>
      </trkpt>
      <trkpt lat="45.14055" lon="6.35818">
        <ele>2892.6</ele>
        <time>2021-02-28T08:18:12Z</time>
      </trkpt>
      <trkpt lat="45.14055" lon="6.35818">
        <ele>2892.8</ele>
        <time>2021-02-28T08:18:13Z</time>
      </trkpt>
      <trkpt lat="45.14055" lon="6.35818">
        <ele>2892.6</ele>
        <time>2021-02-28T08:18:14Z</time>
      </trkpt>
      <trkpt lat="45.14055" lon="6.35818">
        <ele>2892.6</ele>
        <time>2021-02-28T08:18:15Z</time>
      </trkpt>
      <trkpt lat="45.14055" lon="6.35818">
        <ele>2892.4</ele>
        <time>2021-02-28T08:18:16Z</time>
      </trkpt>
      <trkpt lat="45.14055" lon="6.35818">
        <ele>2892.4</ele>
        <time>2021-02-28T08:18:17Z</time>
      </trkpt>
      <trkpt lat="45.14055" lon="6.35818">
        <ele>2892.2</ele>
        <time>2021-02-28T08:18:18Z</time>
      </trkpt>
      <trkpt lat="45.14055" lon="6.35818">
        <ele>2892.2</ele>
        <time>2021-02-28T08:18:19Z</time>
      </trkpt>
      <trkpt lat="45.14055" lon="6.35818">
        <ele>2892.6</ele>
        <time>2021-02-28T08:18:20Z</time>
      </trkpt>
      <trkpt lat="45.14055" lon="6.35818">
        <ele>2892.8</ele>
        <time>2021-02-28T08:18:21Z</time>
      </trkpt>
      <trkpt lat="45.14055" lon="6.35818">
        <ele>2892.8</ele>
        <time>2021-02-28T08:18:22Z</time>
      </trkpt>
      <trkpt lat="45.14055" lon="6.35818">
        <ele>2893</ele>
        <time>2021-02-28T08:18:23Z</time>
      </trkpt>
      <trkpt lat="45.14055" lon="6.35818">
        <ele>2892.2</ele>
        <time>2021-02-28T08:18:24Z</time>
      </trkpt>
      <trkpt lat="45.14055" lon="6.35818">
        <ele>2893</ele>
        <time>2021-02-28T08:18:25Z</time>
      </trkpt>
      <trkpt lat="45.14055" lon="6.35818">
        <ele>2893.4</ele>
        <time>2021-02-28T08:18:26Z</time>
      </trkpt>
      <trkpt lat="45.14055" lon="6.35818">
        <ele>2893.2</ele>
        <time>2021-02-28T08:18:27Z</time>
      </trkpt>
      <trkpt lat="45.14055" lon="6.35818">
        <ele>2893.2</ele>
        <time>2021-02-28T08:18:28Z</time>
      </trkpt>
      <trkpt lat="45.14055" lon="6.35818">
        <ele>2893.6</ele>
        <time>2021-02-28T08:18:29Z</time>
      </trkpt>
      <trkpt lat="45.14055" lon="6.35818">
        <ele>2892.8</ele>
        <time>2021-02-28T08:18:30Z</time>
      </trkpt>
      <trkpt lat="45.14055" lon="6.35818">
        <ele>2892.2</ele>
        <time>2021-02-28T08:18:31Z</time>
      </trkpt>
      <trkpt lat="45.14055" lon="6.35818">
        <ele>2891.4</ele>
        <time>2021-02-28T08:18:32Z</time>
      </trkpt>
      <trkpt lat="45.14055" lon="6.35818">
        <ele>2891.2</ele>
        <time>2021-02-28T08:18:33Z</time>
      </trkpt>
      <trkpt lat="45.14055" lon="6.35818">
        <ele>2891.2</ele>
        <time>2021-02-28T08:18:34Z</time>
      </trkpt>
      <trkpt lat="45.14055" lon="6.35818">
        <ele>2890.6</ele>
        <time>2021-02-28T08:18:35Z</time>
      </trkpt>
      <trkpt lat="45.14055" lon="6.35818">
        <ele>2890.6</ele>
        <time>2021-02-28T08:18:36Z</time>
      </trkpt>
      <trkpt lat="45.14055" lon="6.35818">
        <ele>2890.4</ele>
        <time>2021-02-28T08:18:37Z</time>
      </trkpt>
      <trkpt lat="45.14055" lon="6.35818">
        <ele>2890.8</ele>
        <time>2021-02-28T08:18:38Z</time>
      </trkpt>
      <trkpt lat="45.14055" lon="6.35818">
        <ele>2890</ele>
        <time>2021-02-28T08:18:39Z</time>
      </trkpt>
      <trkpt lat="45.14055" lon="6.35818">
        <ele>2889.6</ele>
        <time>2021-02-28T08:18:40Z</time>
      </trkpt>
      <trkpt lat="45.14055" lon="6.35818">
        <ele>2889.6</ele>
        <time>2021-02-28T08:18:41Z</time>
      </trkpt>
      <trkpt lat="45.14055" lon="6.35818">
        <ele>2889.4</ele>
        <time>2021-02-28T08:18:42Z</time>
      </trkpt>
      <trkpt lat="45.14055" lon="6.35818">
        <ele>2889.4</ele>
        <time>2021-02-28T08:18:43Z</time>
      </trkpt>
      <trkpt lat="45.14055" lon="6.35818">
        <ele>2889.4</ele>
        <time>2021-02-28T08:18:44Z</time>
      </trkpt>
      <trkpt lat="45.14055" lon="6.35818">
        <ele>2889.4</ele>
        <time>2021-02-28T08:18:45Z</time>
      </trkpt>
      <trkpt lat="45.14055" lon="6.35818">
        <ele>2889.8</ele>
        <time>2021-02-28T08:18:46Z</time>
      </trkpt>
      <trkpt lat="45.14055" lon="6.35818">
        <ele>2889.4</ele>
        <time>2021-02-28T08:18:47Z</time>
      </trkpt>
      <trkpt lat="45.14055" lon="6.35818">
        <ele>2889.4</ele>
        <time>2021-02-28T08:18:48Z</time>
      </trkpt>
      <trkpt lat="45.14055" lon="6.35818">
        <ele>2889.8</ele>
        <time>2021-02-28T08:18:49Z</time>
      </trkpt>
      <trkpt lat="45.14055" lon="6.35818">
        <ele>2890</ele>
        <time>2021-02-28T08:18:50Z</time>
      </trkpt>
      <trkpt lat="45.14055" lon="6.35818">
        <ele>2890.2</ele>
        <time>2021-02-28T08:18:51Z</time>
      </trkpt>
      <trkpt lat="45.14055" lon="6.35818">
        <ele>2890.4</ele>
        <time>2021-02-28T08:18:52Z</time>
      </trkpt>
      <trkpt lat="45.14055" lon="6.35818">
        <ele>2890.2</ele>
        <time>2021-02-28T08:18:53Z</time>
      </trkpt>
      <trkpt lat="45.14055" lon="6.35818">
        <ele>2890</ele>
        <time>2021-02-28T08:18:54Z</time>
      </trkpt>
      <trkpt lat="45.14055" lon="6.35818">
        <ele>2890.2</ele>
        <time>2021-02-28T08:18:55Z</time>
      </trkpt>
      <trkpt lat="45.14055" lon="6.35818">
        <ele>2890</ele>
        <time>2021-02-28T08:18:56Z</time>
      </trkpt>
      <trkpt lat="45.14055" lon="6.35818">
        <ele>2890</ele>
        <time>2021-02-28T08:18:57Z</time>
      </trkpt>
      <trkpt lat="45.14055" lon="6.35818">
        <ele>2890</ele>
        <time>2021-02-28T08:18:58Z</time>
      </trkpt>
      <trkpt lat="45.14055" lon="6.35818">
        <ele>2890</ele>
        <time>2021-02-28T08:18:59Z</time>
      </trkpt>
      <trkpt lat="45.14055" lon="6.35818">
        <ele>2890.2</ele>
        <time>2021-02-28T08:19:00Z</time>
      </trkpt>
      <trkpt lat="45.14055" lon="6.35818">
        <ele>2890</ele>
        <time>2021-02-28T08:19:01Z</time>
      </trkpt>
      <trkpt lat="45.14055" lon="6.35818">
        <ele>2890.2</ele>
        <time>2021-02-28T08:19:02Z</time>
      </trkpt>
      <trkpt lat="45.14055" lon="6.35818">
        <ele>2890.2</ele>
        <time>2021-02-28T08:19:03Z</time>
      </trkpt>
      <trkpt lat="45.14055" lon="6.35818">
        <ele>2890.2</ele>
        <time>2021-02-28T08:19:04Z</time>
      </trkpt>
      <trkpt lat="45.14055" lon="6.35818">
        <ele>2890.4</ele>
        <time>2021-02-28T08:19:05Z</time>
      </trkpt>
      <trkpt lat="45.14055" lon="6.35818">
        <ele>2890.6</ele>
        <time>2021-02-28T08:19:06Z</time>
      </trkpt>
      <trkpt lat="45.14055" lon="6.35818">
        <ele>2890.8</ele>
        <time>2021-02-28T08:19:07Z</time>
      </trkpt>
      <trkpt lat="45.14055" lon="6.35818">
        <ele>2891.4</ele>
        <time>2021-02-28T08:19:08Z</time>
      </trkpt>
      <trkpt lat="45.14055" lon="6.35818">
        <ele>2891.6</ele>
        <time>2021-02-28T08:19:09Z</time>
      </trkpt>
      <trkpt lat="45.14055" lon="6.35818">
        <ele>2891.2</ele>
        <time>2021-02-28T08:19:10Z</time>
      </trkpt>
      <trkpt lat="45.14055" lon="6.35818">
        <ele>2890.8</ele>
        <time>2021-02-28T08:19:11Z</time>
      </trkpt>
      <trkpt lat="45.14055" lon="6.35818">
        <ele>2890.8</ele>
        <time>2021-02-28T08:19:12Z</time>
      </trkpt>
      <trkpt lat="45.14055" lon="6.35818">
        <ele>2890.8</ele>
        <time>2021-02-28T08:19:13Z</time>
      </trkpt>
      <trkpt lat="45.14055" lon="6.35818">
        <ele>2890.6</ele>
        <time>2021-02-28T08:19:14Z</time>
      </trkpt>
      <trkpt lat="45.14055" lon="6.35818">
        <ele>2891</ele>
        <time>2021-02-28T08:19:15Z</time>
      </trkpt>
      <trkpt lat="45.14055" lon="6.35818">
        <ele>2890.8</ele>
        <time>2021-02-28T08:19:16Z</time>
      </trkpt>
      <trkpt lat="45.14055" lon="6.35818">
        <ele>2891</ele>
        <time>2021-02-28T08:19:17Z</time>
      </trkpt>
      <trkpt lat="45.14055" lon="6.35818">
        <ele>2891</ele>
        <time>2021-02-28T08:19:18Z</time>
      </trkpt>
      <trkpt lat="45.14055" lon="6.35818">
        <ele>2891.2</ele>
        <time>2021-02-28T08:19:19Z</time>
      </trkpt>
      <trkpt lat="45.14055" lon="6.35818">
        <ele>2891.4</ele>
        <time>2021-02-28T08:19:20Z</time>
      </trkpt>
      <trkpt lat="45.14055" lon="6.35818">
        <ele>2891.2</ele>
        <time>2021-02-28T08:19:21Z</time>
      </trkpt>
      <trkpt lat="45.14055" lon="6.35818">
        <ele>2891</ele>
        <time>2021-02-28T08:19:22Z</time>
      </trkpt>
      <trkpt lat="45.14055" lon="6.35818">
        <ele>2891.4</ele>
        <time>2021-02-28T08:19:23Z</time>
      </trkpt>
      <trkpt lat="45.14055" lon="6.35818">
        <ele>2891.4</ele>
        <time>2021-02-28T08:19:24Z</time>
      </trkpt>
      <trkpt lat="45.14055" lon="6.35818">
        <ele>2891.4</ele>
        <time>2021-02-28T08:19:25Z</time>
      </trkpt>
      <trkpt lat="45.14057" lon="6.35818">
        <ele>2891.4</ele>
        <time>2021-02-28T08:19:26Z</time>
      </trkpt>
      <trkpt lat="45.14057" lon="6.35818">
        <ele>2892</ele>
        <time>2021-02-28T08:19:27Z</time>
      </trkpt>
      <trkpt lat="45.14057" lon="6.35818">
        <ele>2892.4</ele>
        <time>2021-02-28T08:19:28Z</time>
      </trkpt>
      <trkpt lat="45.14057" lon="6.35818">
        <ele>2892.2</ele>
        <time>2021-02-28T08:19:29Z</time>
      </trkpt>
      <trkpt lat="45.14057" lon="6.35818">
        <ele>2892</ele>
        <time>2021-02-28T08:19:30Z</time>
      </trkpt>
      <trkpt lat="45.14057" lon="6.35818">
        <ele>2891.6</ele>
        <time>2021-02-28T08:19:31Z</time>
      </trkpt>
      <trkpt lat="45.14057" lon="6.35818">
        <ele>2891.4</ele>
        <time>2021-02-28T08:19:32Z</time>
      </trkpt>
      <trkpt lat="45.14057" lon="6.35818">
        <ele>2891.4</ele>
        <time>2021-02-28T08:19:33Z</time>
      </trkpt>
      <trkpt lat="45.14057" lon="6.35818">
        <ele>2890.6</ele>
        <time>2021-02-28T08:19:34Z</time>
      </trkpt>
      <trkpt lat="45.14057" lon="6.35818">
        <ele>2890.6</ele>
        <time>2021-02-28T08:19:35Z</time>
      </trkpt>
      <trkpt lat="45.14057" lon="6.35818">
        <ele>2890.4</ele>
        <time>2021-02-28T08:19:36Z</time>
      </trkpt>
      <trkpt lat="45.14057" lon="6.35818">
        <ele>2890.6</ele>
        <time>2021-02-28T08:19:37Z</time>
      </trkpt>
      <trkpt lat="45.14057" lon="6.35818">
        <ele>2891.2</ele>
        <time>2021-02-28T08:19:38Z</time>
      </trkpt>
      <trkpt lat="45.14057" lon="6.35818">
        <ele>2892.2</ele>
        <time>2021-02-28T08:19:39Z</time>
      </trkpt>
      <trkpt lat="45.14057" lon="6.35818">
        <ele>2891.2</ele>
        <time>2021-02-28T08:19:40Z</time>
      </trkpt>
      <trkpt lat="45.14057" lon="6.35818">
        <ele>2890.8</ele>
        <time>2021-02-28T08:19:41Z</time>
      </trkpt>
      <trkpt lat="45.14057" lon="6.35818">
        <ele>2891.8</ele>
        <time>2021-02-28T08:19:42Z</time>
      </trkpt>
      <trkpt lat="45.14057" lon="6.35818">
        <ele>2892</ele>
        <time>2021-02-28T08:19:43Z</time>
      </trkpt>
      <trkpt lat="45.14057" lon="6.35818">
        <ele>2892.6</ele>
        <time>2021-02-28T08:19:44Z</time>
      </trkpt>
      <trkpt lat="45.14057" lon="6.35818">
        <ele>2893</ele>
        <time>2021-02-28T08:19:45Z</time>
      </trkpt>
      <trkpt lat="45.14057" lon="6.35818">
        <ele>2890.8</ele>
        <time>2021-02-28T08:19:46Z</time>
      </trkpt>
      <trkpt lat="45.14057" lon="6.35818">
        <ele>2891</ele>
        <time>2021-02-28T08:19:47Z</time>
      </trkpt>
      <trkpt lat="45.14057" lon="6.35818">
        <ele>2891.2</ele>
        <time>2021-02-28T08:19:48Z</time>
      </trkpt>
      <trkpt lat="45.14057" lon="6.35818">
        <ele>2891.6</ele>
        <time>2021-02-28T08:19:49Z</time>
      </trkpt>
      <trkpt lat="45.14057" lon="6.35818">
        <ele>2890.6</ele>
        <time>2021-02-28T08:19:50Z</time>
      </trkpt>
      <trkpt lat="45.14057" lon="6.35818">
        <ele>2891.4</ele>
        <time>2021-02-28T08:19:51Z</time>
      </trkpt>
      <trkpt lat="45.14057" lon="6.35818">
        <ele>2892.4</ele>
        <time>2021-02-28T08:19:52Z</time>
      </trkpt>
      <trkpt lat="45.14057" lon="6.35818">
        <ele>2892.4</ele>
        <time>2021-02-28T08:19:53Z</time>
      </trkpt>
      <trkpt lat="45.14057" lon="6.35818">
        <ele>2892.2</ele>
        <time>2021-02-28T08:19:54Z</time>
      </trkpt>
      <trkpt lat="45.14057" lon="6.35818">
        <ele>2892.6</ele>
        <time>2021-02-28T08:19:55Z</time>
      </trkpt>
      <trkpt lat="45.14055" lon="6.35818">
        <ele>2892.4</ele>
        <time>2021-02-28T08:19:56Z</time>
      </trkpt>
      <trkpt lat="45.14055" lon="6.35818">
        <ele>2892.4</ele>
        <time>2021-02-28T08:19:57Z</time>
      </trkpt>
      <trkpt lat="45.14055" lon="6.35818">
        <ele>2892.4</ele>
        <time>2021-02-28T08:19:58Z</time>
      </trkpt>
      <trkpt lat="45.14055" lon="6.35818">
        <ele>2892.2</ele>
        <time>2021-02-28T08:19:59Z</time>
      </trkpt>
      <trkpt lat="45.14055" lon="6.35818">
        <ele>2892.8</ele>
        <time>2021-02-28T08:20:00Z</time>
      </trkpt>
      <trkpt lat="45.14055" lon="6.35818">
        <ele>2892.6</ele>
        <time>2021-02-28T08:20:01Z</time>
      </trkpt>
      <trkpt lat="45.14055" lon="6.35818">
        <ele>2892.6</ele>
        <time>2021-02-28T08:20:02Z</time>
      </trkpt>
      <trkpt lat="45.14055" lon="6.35818">
        <ele>2892.6</ele>
        <time>2021-02-28T08:20:03Z</time>
      </trkpt>
      <trkpt lat="45.14055" lon="6.35818">
        <ele>2892.4</ele>
        <time>2021-02-28T08:20:04Z</time>
      </trkpt>
      <trkpt lat="45.14055" lon="6.35818">
        <ele>2892.4</ele>
        <time>2021-02-28T08:20:05Z</time>
      </trkpt>
      <trkpt lat="45.14055" lon="6.35818">
        <ele>2892.4</ele>
        <time>2021-02-28T08:20:06Z</time>
      </trkpt>
      <trkpt lat="45.14055" lon="6.35818">
        <ele>2892</ele>
        <time>2021-02-28T08:20:07Z</time>
      </trkpt>
      <trkpt lat="45.14055" lon="6.35818">
        <ele>2891</ele>
        <time>2021-02-28T08:20:08Z</time>
      </trkpt>
      <trkpt lat="45.14055" lon="6.35818">
        <ele>2891.8</ele>
        <time>2021-02-28T08:20:09Z</time>
      </trkpt>
      <trkpt lat="45.14055" lon="6.35818">
        <ele>2892.6</ele>
        <time>2021-02-28T08:20:10Z</time>
      </trkpt>
      <trkpt lat="45.14055" lon="6.35818">
        <ele>2893.2</ele>
        <time>2021-02-28T08:20:11Z</time>
      </trkpt>
      <trkpt lat="45.14055" lon="6.35818">
        <ele>2892.8</ele>
        <time>2021-02-28T08:20:12Z</time>
      </trkpt>
      <trkpt lat="45.14055" lon="6.35818">
        <ele>2892.4</ele>
        <time>2021-02-28T08:20:13Z</time>
      </trkpt>
      <trkpt lat="45.14055" lon="6.35818">
        <ele>2892.2</ele>
        <time>2021-02-28T08:20:14Z</time>
      </trkpt>
      <trkpt lat="45.14055" lon="6.35818">
        <ele>2892.2</ele>
        <time>2021-02-28T08:20:15Z</time>
      </trkpt>
      <trkpt lat="45.14055" lon="6.35818">
        <ele>2892.6</ele>
        <time>2021-02-28T08:20:16Z</time>
      </trkpt>
      <trkpt lat="45.14055" lon="6.35818">
        <ele>2892.2</ele>
        <time>2021-02-28T08:20:17Z</time>
      </trkpt>
      <trkpt lat="45.14055" lon="6.35818">
        <ele>2891</ele>
        <time>2021-02-28T08:20:18Z</time>
      </trkpt>
      <trkpt lat="45.14055" lon="6.35818">
        <ele>2890.8</ele>
        <time>2021-02-28T08:20:19Z</time>
      </trkpt>
      <trkpt lat="45.14055" lon="6.35818">
        <ele>2891.2</ele>
        <time>2021-02-28T08:20:20Z</time>
      </trkpt>
      <trkpt lat="45.14055" lon="6.35818">
        <ele>2891.4</ele>
        <time>2021-02-28T08:20:21Z</time>
      </trkpt>
      <trkpt lat="45.14055" lon="6.35818">
        <ele>2891.6</ele>
        <time>2021-02-28T08:20:22Z</time>
      </trkpt>
      <trkpt lat="45.14055" lon="6.35818">
        <ele>2891.6</ele>
        <time>2021-02-28T08:20:23Z</time>
      </trkpt>
      <trkpt lat="45.14055" lon="6.35818">
        <ele>2891.8</ele>
        <time>2021-02-28T08:20:24Z</time>
      </trkpt>
      <trkpt lat="45.14055" lon="6.35818">
        <ele>2891.2</ele>
        <time>2021-02-28T08:20:25Z</time>
      </trkpt>
      <trkpt lat="45.14057" lon="6.3582">
        <ele>2891.6</ele>
        <time>2021-02-28T08:20:26Z</time>
      </trkpt>
      <trkpt lat="45.14057" lon="6.3582">
        <ele>2892.2</ele>
        <time>2021-02-28T08:20:27Z</time>
      </trkpt>
      <trkpt lat="45.14057" lon="6.3582">
        <ele>2892.6</ele>
        <time>2021-02-28T08:20:28Z</time>
      </trkpt>
      <trkpt lat="45.14057" lon="6.3582">
        <ele>2892.8</ele>
        <time>2021-02-28T08:20:29Z</time>
      </trkpt>
      <trkpt lat="45.14057" lon="6.3582">
        <ele>2892.8</ele>
        <time>2021-02-28T08:20:30Z</time>
      </trkpt>
      <trkpt lat="45.14057" lon="6.3582">
        <ele>2892.8</ele>
        <time>2021-02-28T08:20:31Z</time>
      </trkpt>
      <trkpt lat="45.14057" lon="6.3582">
        <ele>2892.8</ele>
        <time>2021-02-28T08:20:32Z</time>
      </trkpt>
      <trkpt lat="45.14057" lon="6.3582">
        <ele>2892.8</ele>
        <time>2021-02-28T08:20:33Z</time>
      </trkpt>
      <trkpt lat="45.14057" lon="6.3582">
        <ele>2893.2</ele>
        <time>2021-02-28T08:20:34Z</time>
      </trkpt>
      <trkpt lat="45.14057" lon="6.3582">
        <ele>2893.2</ele>
        <time>2021-02-28T08:20:35Z</time>
      </trkpt>
      <trkpt lat="45.14057" lon="6.3582">
        <ele>2893.2</ele>
        <time>2021-02-28T08:20:36Z</time>
      </trkpt>
      <trkpt lat="45.14057" lon="6.3582">
        <ele>2892</ele>
        <time>2021-02-28T08:20:37Z</time>
      </trkpt>
      <trkpt lat="45.14057" lon="6.3582">
        <ele>2892.6</ele>
        <time>2021-02-28T08:20:38Z</time>
      </trkpt>
      <trkpt lat="45.14057" lon="6.3582">
        <ele>2892.4</ele>
        <time>2021-02-28T08:20:39Z</time>
      </trkpt>
      <trkpt lat="45.14057" lon="6.3582">
        <ele>2892.8</ele>
        <time>2021-02-28T08:20:40Z</time>
      </trkpt>
      <trkpt lat="45.14057" lon="6.3582">
        <ele>2893.2</ele>
        <time>2021-02-28T08:20:41Z</time>
      </trkpt>
      <trkpt lat="45.14057" lon="6.3582">
        <ele>2893</ele>
        <time>2021-02-28T08:20:42Z</time>
      </trkpt>
      <trkpt lat="45.14057" lon="6.3582">
        <ele>2893.2</ele>
        <time>2021-02-28T08:20:43Z</time>
      </trkpt>
      <trkpt lat="45.14058" lon="6.35821">
        <ele>2893.2</ele>
        <time>2021-02-28T08:20:44Z</time>
      </trkpt>
      <trkpt lat="45.14058" lon="6.35821">
        <ele>2893.4</ele>
        <time>2021-02-28T08:20:45Z</time>
      </trkpt>
      <trkpt lat="45.14058" lon="6.35821">
        <ele>2893</ele>
        <time>2021-02-28T08:20:46Z</time>
      </trkpt>
      <trkpt lat="45.14058" lon="6.35821">
        <ele>2893.8</ele>
        <time>2021-02-28T08:20:47Z</time>
      </trkpt>
      <trkpt lat="45.14058" lon="6.35821">
        <ele>2893.8</ele>
        <time>2021-02-28T08:20:48Z</time>
      </trkpt>
      <trkpt lat="45.14058" lon="6.35821">
        <ele>2893.6</ele>
        <time>2021-02-28T08:20:49Z</time>
      </trkpt>
      <trkpt lat="45.14058" lon="6.35821">
        <ele>2893.6</ele>
        <time>2021-02-28T08:20:50Z</time>
      </trkpt>
      <trkpt lat="45.14058" lon="6.35821">
        <ele>2893.6</ele>
        <time>2021-02-28T08:20:51Z</time>
      </trkpt>
      <trkpt lat="45.14058" lon="6.35821">
        <ele>2893.8</ele>
        <time>2021-02-28T08:20:52Z</time>
      </trkpt>
      <trkpt lat="45.14058" lon="6.35821">
        <ele>2894</ele>
        <time>2021-02-28T08:20:53Z</time>
      </trkpt>
      <trkpt lat="45.14058" lon="6.35821">
        <ele>2894</ele>
        <time>2021-02-28T08:20:54Z</time>
      </trkpt>
      <trkpt lat="45.14058" lon="6.35821">
        <ele>2893.8</ele>
        <time>2021-02-28T08:20:55Z</time>
      </trkpt>
      <trkpt lat="45.14058" lon="6.35821">
        <ele>2893.8</ele>
        <time>2021-02-28T08:20:56Z</time>
      </trkpt>
      <trkpt lat="45.14058" lon="6.35821">
        <ele>2893.8</ele>
        <time>2021-02-28T08:20:57Z</time>
      </trkpt>
      <trkpt lat="45.14058" lon="6.35821">
        <ele>2893.8</ele>
        <time>2021-02-28T08:20:58Z</time>
      </trkpt>
      <trkpt lat="45.14058" lon="6.35821">
        <ele>2893.6</ele>
        <time>2021-02-28T08:20:59Z</time>
      </trkpt>
      <trkpt lat="45.14058" lon="6.35821">
        <ele>2893.8</ele>
        <time>2021-02-28T08:21:00Z</time>
      </trkpt>
      <trkpt lat="45.14058" lon="6.35821">
        <ele>2893.8</ele>
        <time>2021-02-28T08:21:01Z</time>
      </trkpt>
      <trkpt lat="45.14058" lon="6.35821">
        <ele>2894</ele>
        <time>2021-02-28T08:21:02Z</time>
      </trkpt>
      <trkpt lat="45.14058" lon="6.35821">
        <ele>2893.2</ele>
        <time>2021-02-28T08:21:03Z</time>
      </trkpt>
      <trkpt lat="45.14058" lon="6.35821">
        <ele>2893.4</ele>
        <time>2021-02-28T08:21:04Z</time>
      </trkpt>
      <trkpt lat="45.14058" lon="6.35821">
        <ele>2893.4</ele>
        <time>2021-02-28T08:21:05Z</time>
      </trkpt>
      <trkpt lat="45.14058" lon="6.35821">
        <ele>2893.6</ele>
        <time>2021-02-28T08:21:06Z</time>
      </trkpt>
      <trkpt lat="45.14058" lon="6.35821">
        <ele>2893.6</ele>
        <time>2021-02-28T08:21:07Z</time>
      </trkpt>
      <trkpt lat="45.14058" lon="6.35821">
        <ele>2893</ele>
        <time>2021-02-28T08:21:08Z</time>
      </trkpt>
      <trkpt lat="45.14058" lon="6.35821">
        <ele>2892.8</ele>
        <time>2021-02-28T08:21:09Z</time>
      </trkpt>
      <trkpt lat="45.14058" lon="6.35821">
        <ele>2892.8</ele>
        <time>2021-02-28T08:21:10Z</time>
      </trkpt>
      <trkpt lat="45.14058" lon="6.35821">
        <ele>2892.8</ele>
        <time>2021-02-28T08:21:11Z</time>
      </trkpt>
      <trkpt lat="45.14058" lon="6.35821">
        <ele>2893</ele>
        <time>2021-02-28T08:21:12Z</time>
      </trkpt>
      <trkpt lat="45.14058" lon="6.35821">
        <ele>2893.2</ele>
        <time>2021-02-28T08:21:13Z</time>
      </trkpt>
      <trkpt lat="45.14058" lon="6.35821">
        <ele>2893.2</ele>
        <time>2021-02-28T08:21:14Z</time>
      </trkpt>
      <trkpt lat="45.14058" lon="6.35821">
        <ele>2893.2</ele>
        <time>2021-02-28T08:21:15Z</time>
      </trkpt>
      <trkpt lat="45.14058" lon="6.35821">
        <ele>2893</ele>
        <time>2021-02-28T08:21:16Z</time>
      </trkpt>
      <trkpt lat="45.14058" lon="6.35821">
        <ele>2894.4</ele>
        <time>2021-02-28T08:21:17Z</time>
      </trkpt>
      <trkpt lat="45.14058" lon="6.35821">
        <ele>2894.2</ele>
        <time>2021-02-28T08:21:18Z</time>
      </trkpt>
      <trkpt lat="45.14058" lon="6.35821">
        <ele>2893.8</ele>
        <time>2021-02-28T08:21:19Z</time>
      </trkpt>
      <trkpt lat="45.14058" lon="6.35821">
        <ele>2893.8</ele>
        <time>2021-02-28T08:21:20Z</time>
      </trkpt>
      <trkpt lat="45.14058" lon="6.35821">
        <ele>2893.4</ele>
        <time>2021-02-28T08:21:21Z</time>
      </trkpt>
      <trkpt lat="45.14058" lon="6.35821">
        <ele>2893.2</ele>
        <time>2021-02-28T08:21:22Z</time>
      </trkpt>
      <trkpt lat="45.14058" lon="6.35821">
        <ele>2893.2</ele>
        <time>2021-02-28T08:21:23Z</time>
      </trkpt>
      <trkpt lat="45.14058" lon="6.35821">
        <ele>2893</ele>
        <time>2021-02-28T08:21:24Z</time>
      </trkpt>
      <trkpt lat="45.14058" lon="6.35821">
        <ele>2893</ele>
        <time>2021-02-28T08:21:25Z</time>
      </trkpt>
      <trkpt lat="45.14058" lon="6.35821">
        <ele>2893.2</ele>
        <time>2021-02-28T08:21:26Z</time>
      </trkpt>
      <trkpt lat="45.14058" lon="6.35821">
        <ele>2893</ele>
        <time>2021-02-28T08:21:27Z</time>
      </trkpt>
      <trkpt lat="45.14058" lon="6.35821">
        <ele>2893.6</ele>
        <time>2021-02-28T08:21:28Z</time>
      </trkpt>
      <trkpt lat="45.14058" lon="6.35821">
        <ele>2893.2</ele>
        <time>2021-02-28T08:21:29Z</time>
      </trkpt>
      <trkpt lat="45.14058" lon="6.35821">
        <ele>2893.4</ele>
        <time>2021-02-28T08:21:30Z</time>
      </trkpt>
      <trkpt lat="45.14058" lon="6.35821">
        <ele>2892.4</ele>
        <time>2021-02-28T08:21:31Z</time>
      </trkpt>
      <trkpt lat="45.14058" lon="6.35821">
        <ele>2892.8</ele>
        <time>2021-02-28T08:21:32Z</time>
      </trkpt>
      <trkpt lat="45.14058" lon="6.35821">
        <ele>2892.6</ele>
        <time>2021-02-28T08:21:33Z</time>
      </trkpt>
      <trkpt lat="45.14058" lon="6.35821">
        <ele>2892.4</ele>
        <time>2021-02-28T08:21:34Z</time>
      </trkpt>
      <trkpt lat="45.14058" lon="6.35821">
        <ele>2892.4</ele>
        <time>2021-02-28T08:21:35Z</time>
      </trkpt>
      <trkpt lat="45.14058" lon="6.35821">
        <ele>2892.6</ele>
        <time>2021-02-28T08:21:36Z</time>
      </trkpt>
      <trkpt lat="45.14058" lon="6.35821">
        <ele>2892.6</ele>
        <time>2021-02-28T08:21:37Z</time>
      </trkpt>
      <trkpt lat="45.14058" lon="6.35821">
        <ele>2892.8</ele>
        <time>2021-02-28T08:21:38Z</time>
      </trkpt>
      <trkpt lat="45.14058" lon="6.35821">
        <ele>2893</ele>
        <time>2021-02-28T08:21:39Z</time>
      </trkpt>
      <trkpt lat="45.14058" lon="6.35821">
        <ele>2892.6</ele>
        <time>2021-02-28T08:21:40Z</time>
      </trkpt>
      <trkpt lat="45.14057" lon="6.35824">
        <ele>2892.8</ele>
        <time>2021-02-28T08:21:41Z</time>
      </trkpt>
      <trkpt lat="45.14057" lon="6.35824">
        <ele>2893</ele>
        <time>2021-02-28T08:21:42Z</time>
      </trkpt>
      <trkpt lat="45.14057" lon="6.35824">
        <ele>2892.6</ele>
        <time>2021-02-28T08:21:43Z</time>
      </trkpt>
      <trkpt lat="45.14057" lon="6.35824">
        <ele>2893.2</ele>
        <time>2021-02-28T08:21:44Z</time>
      </trkpt>
      <trkpt lat="45.14057" lon="6.35824">
        <ele>2893.8</ele>
        <time>2021-02-28T08:21:45Z</time>
      </trkpt>
      <trkpt lat="45.14057" lon="6.35824">
        <ele>2893.8</ele>
        <time>2021-02-28T08:21:46Z</time>
      </trkpt>
      <trkpt lat="45.14057" lon="6.35824">
        <ele>2894</ele>
        <time>2021-02-28T08:21:47Z</time>
      </trkpt>
      <trkpt lat="45.14057" lon="6.35824">
        <ele>2894.2</ele>
        <time>2021-02-28T08:21:48Z</time>
      </trkpt>
      <trkpt lat="45.14057" lon="6.35824">
        <ele>2894.4</ele>
        <time>2021-02-28T08:21:49Z</time>
      </trkpt>
      <trkpt lat="45.14057" lon="6.35824">
        <ele>2894.2</ele>
        <time>2021-02-28T08:21:50Z</time>
      </trkpt>
      <trkpt lat="45.14057" lon="6.35824">
        <ele>2894.2</ele>
        <time>2021-02-28T08:21:51Z</time>
      </trkpt>
      <trkpt lat="45.14057" lon="6.35824">
        <ele>2894.4</ele>
        <time>2021-02-28T08:21:52Z</time>
      </trkpt>
      <trkpt lat="45.14057" lon="6.35824">
        <ele>2894.6</ele>
        <time>2021-02-28T08:21:53Z</time>
      </trkpt>
      <trkpt lat="45.14057" lon="6.35824">
        <ele>2895</ele>
        <time>2021-02-28T08:21:54Z</time>
      </trkpt>
      <trkpt lat="45.14057" lon="6.35824">
        <ele>2895.2</ele>
        <time>2021-02-28T08:21:55Z</time>
      </trkpt>
      <trkpt lat="45.14057" lon="6.35824">
        <ele>2895</ele>
        <time>2021-02-28T08:21:56Z</time>
      </trkpt>
      <trkpt lat="45.14057" lon="6.35824">
        <ele>2895.6</ele>
        <time>2021-02-28T08:21:57Z</time>
      </trkpt>
      <trkpt lat="45.14057" lon="6.35824">
        <ele>2896</ele>
        <time>2021-02-28T08:21:58Z</time>
      </trkpt>
      <trkpt lat="45.14057" lon="6.35824">
        <ele>2896</ele>
        <time>2021-02-28T08:21:59Z</time>
      </trkpt>
      <trkpt lat="45.14057" lon="6.35824">
        <ele>2895.8</ele>
        <time>2021-02-28T08:22:00Z</time>
      </trkpt>
      <trkpt lat="45.14057" lon="6.35824">
        <ele>2895.8</ele>
        <time>2021-02-28T08:22:01Z</time>
      </trkpt>
      <trkpt lat="45.14057" lon="6.35824">
        <ele>2896.2</ele>
        <time>2021-02-28T08:22:02Z</time>
      </trkpt>
      <trkpt lat="45.14057" lon="6.35824">
        <ele>2896.6</ele>
        <time>2021-02-28T08:22:03Z</time>
      </trkpt>
      <trkpt lat="45.14057" lon="6.35824">
        <ele>2896.4</ele>
        <time>2021-02-28T08:22:04Z</time>
      </trkpt>
      <trkpt lat="45.14057" lon="6.35824">
        <ele>2896.4</ele>
        <time>2021-02-28T08:22:05Z</time>
      </trkpt>
      <trkpt lat="45.14057" lon="6.35824">
        <ele>2896.2</ele>
        <time>2021-02-28T08:22:06Z</time>
      </trkpt>
      <trkpt lat="45.14057" lon="6.35824">
        <ele>2896.2</ele>
        <time>2021-02-28T08:22:07Z</time>
      </trkpt>
      <trkpt lat="45.14057" lon="6.35824">
        <ele>2896</ele>
        <time>2021-02-28T08:22:08Z</time>
      </trkpt>
      <trkpt lat="45.14057" lon="6.35824">
        <ele>2896.6</ele>
        <time>2021-02-28T08:22:09Z</time>
      </trkpt>
      <trkpt lat="45.14057" lon="6.35824">
        <ele>2896.8</ele>
        <time>2021-02-28T08:22:10Z</time>
      </trkpt>
      <trkpt lat="45.14057" lon="6.35824">
        <ele>2896</ele>
        <time>2021-02-28T08:22:11Z</time>
      </trkpt>
      <trkpt lat="45.14057" lon="6.35824">
        <ele>2896</ele>
        <time>2021-02-28T08:22:12Z</time>
      </trkpt>
      <trkpt lat="45.14057" lon="6.35824">
        <ele>2895.4</ele>
        <time>2021-02-28T08:22:13Z</time>
      </trkpt>
      <trkpt lat="45.14057" lon="6.35824">
        <ele>2895.4</ele>
        <time>2021-02-28T08:22:14Z</time>
      </trkpt>
      <trkpt lat="45.14056" lon="6.35825">
        <ele>2895.8</ele>
        <time>2021-02-28T08:22:15Z</time>
      </trkpt>
      <trkpt lat="45.14056" lon="6.35825">
        <ele>2895.2</ele>
        <time>2021-02-28T08:22:16Z</time>
      </trkpt>
      <trkpt lat="45.14056" lon="6.35825">
        <ele>2895.2</ele>
        <time>2021-02-28T08:22:17Z</time>
      </trkpt>
      <trkpt lat="45.14056" lon="6.35825">
        <ele>2895.2</ele>
        <time>2021-02-28T08:22:18Z</time>
      </trkpt>
      <trkpt lat="45.14056" lon="6.35825">
        <ele>2893.4</ele>
        <time>2021-02-28T08:22:19Z</time>
      </trkpt>
      <trkpt lat="45.14056" lon="6.35825">
        <ele>2894</ele>
        <time>2021-02-28T08:22:20Z</time>
      </trkpt>
      <trkpt lat="45.14056" lon="6.35825">
        <ele>2894.6</ele>
        <time>2021-02-28T08:22:21Z</time>
      </trkpt>
      <trkpt lat="45.14056" lon="6.35825">
        <ele>2894.4</ele>
        <time>2021-02-28T08:22:22Z</time>
      </trkpt>
      <trkpt lat="45.14056" lon="6.35825">
        <ele>2894.8</ele>
        <time>2021-02-28T08:22:23Z</time>
      </trkpt>
      <trkpt lat="45.14056" lon="6.35825">
        <ele>2894.6</ele>
        <time>2021-02-28T08:22:24Z</time>
      </trkpt>
      <trkpt lat="45.14056" lon="6.35825">
        <ele>2894.8</ele>
        <time>2021-02-28T08:22:25Z</time>
      </trkpt>
      <trkpt lat="45.14056" lon="6.35825">
        <ele>2894.6</ele>
        <time>2021-02-28T08:22:26Z</time>
      </trkpt>
      <trkpt lat="45.14056" lon="6.35825">
        <ele>2894.8</ele>
        <time>2021-02-28T08:22:27Z</time>
      </trkpt>
      <trkpt lat="45.14056" lon="6.35825">
        <ele>2895.6</ele>
        <time>2021-02-28T08:22:28Z</time>
      </trkpt>
      <trkpt lat="45.14056" lon="6.35825">
        <ele>2895.4</ele>
        <time>2021-02-28T08:22:29Z</time>
      </trkpt>
      <trkpt lat="45.14056" lon="6.35825">
        <ele>2895.4</ele>
        <time>2021-02-28T08:22:30Z</time>
      </trkpt>
      <trkpt lat="45.14056" lon="6.35825">
        <ele>2896</ele>
        <time>2021-02-28T08:22:31Z</time>
      </trkpt>
      <trkpt lat="45.14056" lon="6.35825">
        <ele>2896.8</ele>
        <time>2021-02-28T08:22:32Z</time>
      </trkpt>
      <trkpt lat="45.14056" lon="6.35825">
        <ele>2896.8</ele>
        <time>2021-02-28T08:22:33Z</time>
      </trkpt>
      <trkpt lat="45.14056" lon="6.35825">
        <ele>2896.8</ele>
        <time>2021-02-28T08:22:34Z</time>
      </trkpt>
      <trkpt lat="45.14056" lon="6.35825">
        <ele>2897</ele>
        <time>2021-02-28T08:22:35Z</time>
      </trkpt>
      <trkpt lat="45.14056" lon="6.35825">
        <ele>2897.4</ele>
        <time>2021-02-28T08:22:36Z</time>
      </trkpt>
      <trkpt lat="45.14056" lon="6.35825">
        <ele>2897.4</ele>
        <time>2021-02-28T08:22:37Z</time>
      </trkpt>
      <trkpt lat="45.14056" lon="6.35825">
        <ele>2897.4</ele>
        <time>2021-02-28T08:22:38Z</time>
      </trkpt>
      <trkpt lat="45.14056" lon="6.35825">
        <ele>2897.8</ele>
        <time>2021-02-28T08:22:39Z</time>
      </trkpt>
      <trkpt lat="45.14056" lon="6.35825">
        <ele>2899</ele>
        <time>2021-02-28T08:22:40Z</time>
      </trkpt>
      <trkpt lat="45.14056" lon="6.35825">
        <ele>2898.8</ele>
        <time>2021-02-28T08:22:41Z</time>
      </trkpt>
      <trkpt lat="45.14056" lon="6.35825">
        <ele>2899</ele>
        <time>2021-02-28T08:22:42Z</time>
      </trkpt>
      <trkpt lat="45.14056" lon="6.35825">
        <ele>2899</ele>
        <time>2021-02-28T08:22:43Z</time>
      </trkpt>
      <trkpt lat="45.14056" lon="6.35825">
        <ele>2898.4</ele>
        <time>2021-02-28T08:22:44Z</time>
      </trkpt>
      <trkpt lat="45.14056" lon="6.35825">
        <ele>2898.4</ele>
        <time>2021-02-28T08:22:45Z</time>
      </trkpt>
      <trkpt lat="45.14056" lon="6.35825">
        <ele>2898.6</ele>
        <time>2021-02-28T08:22:46Z</time>
      </trkpt>
      <trkpt lat="45.14056" lon="6.35825">
        <ele>2898.8</ele>
        <time>2021-02-28T08:22:47Z</time>
      </trkpt>
      <trkpt lat="45.14056" lon="6.35825">
        <ele>2898.8</ele>
        <time>2021-02-28T08:22:48Z</time>
      </trkpt>
      <trkpt lat="45.14056" lon="6.35825">
        <ele>2898.6</ele>
        <time>2021-02-28T08:22:49Z</time>
      </trkpt>
      <trkpt lat="45.14056" lon="6.35825">
        <ele>2898.2</ele>
        <time>2021-02-28T08:22:50Z</time>
      </trkpt>
      <trkpt lat="45.14056" lon="6.35825">
        <ele>2898</ele>
        <time>2021-02-28T08:22:51Z</time>
      </trkpt>
      <trkpt lat="45.14056" lon="6.35825">
        <ele>2898.4</ele>
        <time>2021-02-28T08:22:52Z</time>
      </trkpt>
      <trkpt lat="45.14056" lon="6.35825">
        <ele>2897.8</ele>
        <time>2021-02-28T08:22:53Z</time>
      </trkpt>
      <trkpt lat="45.14056" lon="6.35825">
        <ele>2897.8</ele>
        <time>2021-02-28T08:22:54Z</time>
      </trkpt>
      <trkpt lat="45.14056" lon="6.35825">
        <ele>2898</ele>
        <time>2021-02-28T08:22:55Z</time>
      </trkpt>
      <trkpt lat="45.14056" lon="6.35825">
        <ele>2898.2</ele>
        <time>2021-02-28T08:22:56Z</time>
      </trkpt>
      <trkpt lat="45.14056" lon="6.35825">
        <ele>2898.6</ele>
        <time>2021-02-28T08:22:57Z</time>
      </trkpt>
      <trkpt lat="45.14056" lon="6.35825">
        <ele>2898.8</ele>
        <time>2021-02-28T08:22:58Z</time>
      </trkpt>
      <trkpt lat="45.14056" lon="6.35825">
        <ele>2898.6</ele>
        <time>2021-02-28T08:22:59Z</time>
      </trkpt>
      <trkpt lat="45.14056" lon="6.35825">
        <ele>2898</ele>
        <time>2021-02-28T08:23:00Z</time>
      </trkpt>
      <trkpt lat="45.14056" lon="6.35825">
        <ele>2898</ele>
        <time>2021-02-28T08:23:01Z</time>
      </trkpt>
      <trkpt lat="45.14056" lon="6.35825">
        <ele>2898.2</ele>
        <time>2021-02-28T08:23:02Z</time>
      </trkpt>
      <trkpt lat="45.14056" lon="6.35822">
        <ele>2898.2</ele>
        <time>2021-02-28T08:23:03Z</time>
      </trkpt>
      <trkpt lat="45.14056" lon="6.35822">
        <ele>2897.2</ele>
        <time>2021-02-28T08:23:04Z</time>
      </trkpt>
      <trkpt lat="45.14055" lon="6.3582">
        <ele>2897.6</ele>
        <time>2021-02-28T08:23:05Z</time>
      </trkpt>
      <trkpt lat="45.14055" lon="6.3582">
        <ele>2896.6</ele>
        <time>2021-02-28T08:23:06Z</time>
      </trkpt>
      <trkpt lat="45.14055" lon="6.3582">
        <ele>2895.8</ele>
        <time>2021-02-28T08:23:07Z</time>
      </trkpt>
      <trkpt lat="45.14055" lon="6.3582">
        <ele>2895.6</ele>
        <time>2021-02-28T08:23:08Z</time>
      </trkpt>
      <trkpt lat="45.14055" lon="6.3582">
        <ele>2896</ele>
        <time>2021-02-28T08:23:09Z</time>
      </trkpt>
      <trkpt lat="45.14055" lon="6.3582">
        <ele>2896</ele>
        <time>2021-02-28T08:23:10Z</time>
      </trkpt>
      <trkpt lat="45.14055" lon="6.3582">
        <ele>2895</ele>
        <time>2021-02-28T08:23:11Z</time>
      </trkpt>
      <trkpt lat="45.14055" lon="6.3582">
        <ele>2894.6</ele>
        <time>2021-02-28T08:23:12Z</time>
      </trkpt>
      <trkpt lat="45.14055" lon="6.3582">
        <ele>2894.6</ele>
        <time>2021-02-28T08:23:13Z</time>
      </trkpt>
      <trkpt lat="45.14055" lon="6.3582">
        <ele>2894.6</ele>
        <time>2021-02-28T08:23:14Z</time>
      </trkpt>
      <trkpt lat="45.14055" lon="6.3582">
        <ele>2894.8</ele>
        <time>2021-02-28T08:23:15Z</time>
      </trkpt>
      <trkpt lat="45.14055" lon="6.3582">
        <ele>2895</ele>
        <time>2021-02-28T08:23:16Z</time>
      </trkpt>
      <trkpt lat="45.14055" lon="6.3582">
        <ele>2895.4</ele>
        <time>2021-02-28T08:23:17Z</time>
      </trkpt>
      <trkpt lat="45.14055" lon="6.3582">
        <ele>2895.2</ele>
        <time>2021-02-28T08:23:18Z</time>
      </trkpt>
      <trkpt lat="45.14055" lon="6.3582">
        <ele>2895.2</ele>
        <time>2021-02-28T08:23:19Z</time>
      </trkpt>
      <trkpt lat="45.14055" lon="6.3582">
        <ele>2895.4</ele>
        <time>2021-02-28T08:23:20Z</time>
      </trkpt>
      <trkpt lat="45.14055" lon="6.3582">
        <ele>2894.2</ele>
        <time>2021-02-28T08:23:21Z</time>
      </trkpt>
      <trkpt lat="45.14055" lon="6.3582">
        <ele>2894.8</ele>
        <time>2021-02-28T08:23:22Z</time>
      </trkpt>
      <trkpt lat="45.14055" lon="6.3582">
        <ele>2895</ele>
        <time>2021-02-28T08:23:23Z</time>
      </trkpt>
      <trkpt lat="45.14055" lon="6.3582">
        <ele>2895.2</ele>
        <time>2021-02-28T08:23:24Z</time>
      </trkpt>
      <trkpt lat="45.14055" lon="6.3582">
        <ele>2894.4</ele>
        <time>2021-02-28T08:23:25Z</time>
      </trkpt>
      <trkpt lat="45.14055" lon="6.3582">
        <ele>2894.2</ele>
        <time>2021-02-28T08:23:26Z</time>
      </trkpt>
      <trkpt lat="45.14055" lon="6.3582">
        <ele>2895</ele>
        <time>2021-02-28T08:23:27Z</time>
      </trkpt>
      <trkpt lat="45.14055" lon="6.3582">
        <ele>2894.6</ele>
        <time>2021-02-28T08:23:28Z</time>
      </trkpt>
      <trkpt lat="45.14055" lon="6.3582">
        <ele>2895</ele>
        <time>2021-02-28T08:23:29Z</time>
      </trkpt>
      <trkpt lat="45.14055" lon="6.3582">
        <ele>2894.6</ele>
        <time>2021-02-28T08:23:30Z</time>
      </trkpt>
      <trkpt lat="45.14055" lon="6.3582">
        <ele>2894.6</ele>
        <time>2021-02-28T08:23:31Z</time>
      </trkpt>
      <trkpt lat="45.14055" lon="6.3582">
        <ele>2893.8</ele>
        <time>2021-02-28T08:23:32Z</time>
      </trkpt>
      <trkpt lat="45.14055" lon="6.3582">
        <ele>2893.8</ele>
        <time>2021-02-28T08:23:33Z</time>
      </trkpt>
      <trkpt lat="45.14055" lon="6.3582">
        <ele>2894.2</ele>
        <time>2021-02-28T08:23:34Z</time>
      </trkpt>
      <trkpt lat="45.14055" lon="6.3582">
        <ele>2895.2</ele>
        <time>2021-02-28T08:23:35Z</time>
      </trkpt>
      <trkpt lat="45.14055" lon="6.3582">
        <ele>2896</ele>
        <time>2021-02-28T08:23:36Z</time>
      </trkpt>
      <trkpt lat="45.14055" lon="6.3582">
        <ele>2896.8</ele>
        <time>2021-02-28T08:23:37Z</time>
      </trkpt>
      <trkpt lat="45.14055" lon="6.3582">
        <ele>2897.2</ele>
        <time>2021-02-28T08:23:38Z</time>
      </trkpt>
      <trkpt lat="45.14055" lon="6.3582">
        <ele>2897.6</ele>
        <time>2021-02-28T08:23:39Z</time>
      </trkpt>
      <trkpt lat="45.14055" lon="6.3582">
        <ele>2897.6</ele>
        <time>2021-02-28T08:23:40Z</time>
      </trkpt>
      <trkpt lat="45.14055" lon="6.3582">
        <ele>2897.8</ele>
        <time>2021-02-28T08:23:41Z</time>
      </trkpt>
      <trkpt lat="45.14055" lon="6.3582">
        <ele>2898</ele>
        <time>2021-02-28T08:23:42Z</time>
      </trkpt>
      <trkpt lat="45.14055" lon="6.3582">
        <ele>2898</ele>
        <time>2021-02-28T08:23:43Z</time>
      </trkpt>
      <trkpt lat="45.14055" lon="6.3582">
        <ele>2898.6</ele>
        <time>2021-02-28T08:23:44Z</time>
      </trkpt>
      <trkpt lat="45.14055" lon="6.3582">
        <ele>2898.6</ele>
        <time>2021-02-28T08:23:45Z</time>
      </trkpt>
      <trkpt lat="45.14055" lon="6.3582">
        <ele>2898.8</ele>
        <time>2021-02-28T08:23:46Z</time>
      </trkpt>
      <trkpt lat="45.14055" lon="6.3582">
        <ele>2898.6</ele>
        <time>2021-02-28T08:23:47Z</time>
      </trkpt>
      <trkpt lat="45.14055" lon="6.3582">
        <ele>2898.2</ele>
        <time>2021-02-28T08:23:48Z</time>
      </trkpt>
      <trkpt lat="45.14055" lon="6.3582">
        <ele>2898.2</ele>
        <time>2021-02-28T08:23:49Z</time>
      </trkpt>
      <trkpt lat="45.14055" lon="6.3582">
        <ele>2898.4</ele>
        <time>2021-02-28T08:23:50Z</time>
      </trkpt>
      <trkpt lat="45.14055" lon="6.3582">
        <ele>2899</ele>
        <time>2021-02-28T08:23:51Z</time>
      </trkpt>
      <trkpt lat="45.14055" lon="6.3582">
        <ele>2899.2</ele>
        <time>2021-02-28T08:23:52Z</time>
      </trkpt>
      <trkpt lat="45.14055" lon="6.3582">
        <ele>2899.6</ele>
        <time>2021-02-28T08:23:53Z</time>
      </trkpt>
      <trkpt lat="45.14055" lon="6.3582">
        <ele>2899.6</ele>
        <time>2021-02-28T08:23:54Z</time>
      </trkpt>
      <trkpt lat="45.14055" lon="6.3582">
        <ele>2899.6</ele>
        <time>2021-02-28T08:23:55Z</time>
      </trkpt>
      <trkpt lat="45.14055" lon="6.3582">
        <ele>2899.4</ele>
        <time>2021-02-28T08:23:56Z</time>
      </trkpt>
      <trkpt lat="45.14055" lon="6.3582">
        <ele>2899</ele>
        <time>2021-02-28T08:23:57Z</time>
      </trkpt>
      <trkpt lat="45.14055" lon="6.3582">
        <ele>2899.2</ele>
        <time>2021-02-28T08:23:58Z</time>
      </trkpt>
      <trkpt lat="45.14055" lon="6.3582">
        <ele>2899.6</ele>
        <time>2021-02-28T08:23:59Z</time>
      </trkpt>
      <trkpt lat="45.14055" lon="6.3582">
        <ele>2898.4</ele>
        <time>2021-02-28T08:24:00Z</time>
      </trkpt>
      <trkpt lat="45.14055" lon="6.3582">
        <ele>2897.2</ele>
        <time>2021-02-28T08:24:01Z</time>
      </trkpt>
      <trkpt lat="45.14055" lon="6.3582">
        <ele>2896.4</ele>
        <time>2021-02-28T08:24:02Z</time>
      </trkpt>
      <trkpt lat="45.14055" lon="6.3582">
        <ele>2895.8</ele>
        <time>2021-02-28T08:24:03Z</time>
      </trkpt>
      <trkpt lat="45.14055" lon="6.3582">
        <ele>2896</ele>
        <time>2021-02-28T08:24:04Z</time>
      </trkpt>
      <trkpt lat="45.14055" lon="6.3582">
        <ele>2895</ele>
        <time>2021-02-28T08:24:05Z</time>
      </trkpt>
      <trkpt lat="45.14055" lon="6.3582">
        <ele>2894.6</ele>
        <time>2021-02-28T08:24:06Z</time>
      </trkpt>
      <trkpt lat="45.14055" lon="6.3582">
        <ele>2893.4</ele>
        <time>2021-02-28T08:24:07Z</time>
      </trkpt>
      <trkpt lat="45.14055" lon="6.3582">
        <ele>2893.4</ele>
        <time>2021-02-28T08:24:08Z</time>
      </trkpt>
      <trkpt lat="45.14055" lon="6.3582">
        <ele>2893.2</ele>
        <time>2021-02-28T08:24:09Z</time>
      </trkpt>
      <trkpt lat="45.14055" lon="6.3582">
        <ele>2894.6</ele>
        <time>2021-02-28T08:24:10Z</time>
      </trkpt>
      <trkpt lat="45.14055" lon="6.3582">
        <ele>2895.6</ele>
        <time>2021-02-28T08:24:11Z</time>
      </trkpt>
      <trkpt lat="45.14055" lon="6.3582">
        <ele>2896.8</ele>
        <time>2021-02-28T08:24:12Z</time>
      </trkpt>
      <trkpt lat="45.14055" lon="6.3582">
        <ele>2897.4</ele>
        <time>2021-02-28T08:24:13Z</time>
      </trkpt>
      <trkpt lat="45.14055" lon="6.3582">
        <ele>2897.8</ele>
        <time>2021-02-28T08:24:14Z</time>
      </trkpt>
      <trkpt lat="45.14055" lon="6.3582">
        <ele>2898.4</ele>
        <time>2021-02-28T08:24:15Z</time>
      </trkpt>
      <trkpt lat="45.14055" lon="6.3582">
        <ele>2898</ele>
        <time>2021-02-28T08:24:16Z</time>
      </trkpt>
      <trkpt lat="45.14055" lon="6.3582">
        <ele>2898.2</ele>
        <time>2021-02-28T08:24:17Z</time>
      </trkpt>
      <trkpt lat="45.14055" lon="6.3582">
        <ele>2897</ele>
        <time>2021-02-28T08:24:18Z</time>
      </trkpt>
      <trkpt lat="45.14055" lon="6.3582">
        <ele>2896.8</ele>
        <time>2021-02-28T08:24:19Z</time>
      </trkpt>
      <trkpt lat="45.14055" lon="6.3582">
        <ele>2896.8</ele>
        <time>2021-02-28T08:24:20Z</time>
      </trkpt>
      <trkpt lat="45.14055" lon="6.3582">
        <ele>2897.8</ele>
        <time>2021-02-28T08:24:21Z</time>
      </trkpt>
      <trkpt lat="45.14055" lon="6.3582">
        <ele>2898</ele>
        <time>2021-02-28T08:24:22Z</time>
      </trkpt>
      <trkpt lat="45.14055" lon="6.3582">
        <ele>2897.8</ele>
        <time>2021-02-28T08:24:23Z</time>
      </trkpt>
      <trkpt lat="45.14055" lon="6.3582">
        <ele>2898.4</ele>
        <time>2021-02-28T08:24:24Z</time>
      </trkpt>
      <trkpt lat="45.14055" lon="6.3582">
        <ele>2898</ele>
        <time>2021-02-28T08:24:25Z</time>
      </trkpt>
      <trkpt lat="45.14055" lon="6.3582">
        <ele>2897.6</ele>
        <time>2021-02-28T08:24:26Z</time>
      </trkpt>
      <trkpt lat="45.14055" lon="6.3582">
        <ele>2897</ele>
        <time>2021-02-28T08:24:27Z</time>
      </trkpt>
      <trkpt lat="45.14055" lon="6.3582">
        <ele>2896.8</ele>
        <time>2021-02-28T08:24:28Z</time>
      </trkpt>
      <trkpt lat="45.14055" lon="6.3582">
        <ele>2896.2</ele>
        <time>2021-02-28T08:24:29Z</time>
      </trkpt>
      <trkpt lat="45.14055" lon="6.3582">
        <ele>2896.8</ele>
        <time>2021-02-28T08:24:30Z</time>
      </trkpt>
      <trkpt lat="45.14055" lon="6.3582">
        <ele>2896.8</ele>
        <time>2021-02-28T08:24:31Z</time>
      </trkpt>
      <trkpt lat="45.14055" lon="6.3582">
        <ele>2895.8</ele>
        <time>2021-02-28T08:24:32Z</time>
      </trkpt>
      <trkpt lat="45.14055" lon="6.3582">
        <ele>2896.2</ele>
        <time>2021-02-28T08:24:33Z</time>
      </trkpt>
      <trkpt lat="45.14055" lon="6.3582">
        <ele>2895.8</ele>
        <time>2021-02-28T08:24:34Z</time>
      </trkpt>
      <trkpt lat="45.14055" lon="6.35822">
        <ele>2895.8</ele>
        <time>2021-02-28T08:24:35Z</time>
      </trkpt>
      <trkpt lat="45.14055" lon="6.35822">
        <ele>2893.6</ele>
        <time>2021-02-28T08:24:36Z</time>
      </trkpt>
      <trkpt lat="45.14055" lon="6.35822">
        <ele>2894</ele>
        <time>2021-02-28T08:24:37Z</time>
      </trkpt>
      <trkpt lat="45.14054" lon="6.35828">
        <ele>2893.4</ele>
        <time>2021-02-28T08:24:38Z</time>
      </trkpt>
      <trkpt lat="45.14053" lon="6.35832">
        <ele>2892.8</ele>
        <time>2021-02-28T08:24:39Z</time>
      </trkpt>
      <trkpt lat="45.14053" lon="6.35837">
        <ele>2891.4</ele>
        <time>2021-02-28T08:24:40Z</time>
      </trkpt>
      <trkpt lat="45.14051" lon="6.35843">
        <ele>2891</ele>
        <time>2021-02-28T08:24:41Z</time>
      </trkpt>
      <trkpt lat="45.1405" lon="6.35848">
        <ele>2889.4</ele>
        <time>2021-02-28T08:24:42Z</time>
      </trkpt>
      <trkpt lat="45.14049" lon="6.35854">
        <ele>2888.8</ele>
        <time>2021-02-28T08:24:43Z</time>
      </trkpt>
      <trkpt lat="45.14048" lon="6.3586">
        <ele>2888.8</ele>
        <time>2021-02-28T08:24:44Z</time>
      </trkpt>
      <trkpt lat="45.14047" lon="6.35867">
        <ele>2887.4</ele>
        <time>2021-02-28T08:24:45Z</time>
      </trkpt>
      <trkpt lat="45.14046" lon="6.35873">
        <ele>2887</ele>
        <time>2021-02-28T08:24:46Z</time>
      </trkpt>
      <trkpt lat="45.14044" lon="6.35881">
        <ele>2885.8</ele>
        <time>2021-02-28T08:24:47Z</time>
      </trkpt>
      <trkpt lat="45.14043" lon="6.35889">
        <ele>2884.8</ele>
        <time>2021-02-28T08:24:48Z</time>
      </trkpt>
      <trkpt lat="45.14042" lon="6.35898">
        <ele>2883</ele>
        <time>2021-02-28T08:24:49Z</time>
      </trkpt>
      <trkpt lat="45.1404" lon="6.35907">
        <ele>2881.6</ele>
        <time>2021-02-28T08:24:50Z</time>
      </trkpt>
      <trkpt lat="45.14038" lon="6.35918">
        <ele>2879.8</ele>
        <time>2021-02-28T08:24:51Z</time>
      </trkpt>
      <trkpt lat="45.14037" lon="6.35929">
        <ele>2878.4</ele>
        <time>2021-02-28T08:24:52Z</time>
      </trkpt>
      <trkpt lat="45.14035" lon="6.35941">
        <ele>2877.2</ele>
        <time>2021-02-28T08:24:53Z</time>
      </trkpt>
      <trkpt lat="45.14034" lon="6.35952">
        <ele>2874.6</ele>
        <time>2021-02-28T08:24:54Z</time>
      </trkpt>
      <trkpt lat="45.14034" lon="6.35964">
        <ele>2872.4</ele>
        <time>2021-02-28T08:24:55Z</time>
      </trkpt>
      <trkpt lat="45.14033" lon="6.35974">
        <ele>2870.2</ele>
        <time>2021-02-28T08:24:56Z</time>
      </trkpt>
      <trkpt lat="45.14033" lon="6.35984">
        <ele>2868.2</ele>
        <time>2021-02-28T08:24:57Z</time>
      </trkpt>
      <trkpt lat="45.14032" lon="6.35993">
        <ele>2866.6</ele>
        <time>2021-02-28T08:24:58Z</time>
      </trkpt>
      <trkpt lat="45.1403" lon="6.36001">
        <ele>2864.4</ele>
        <time>2021-02-28T08:24:59Z</time>
      </trkpt>
      <trkpt lat="45.14026" lon="6.36002">
        <ele>2863</ele>
        <time>2021-02-28T08:25:00Z</time>
      </trkpt>
      <trkpt lat="45.14021" lon="6.35995">
        <ele>2861.2</ele>
        <time>2021-02-28T08:25:01Z</time>
      </trkpt>
      <trkpt lat="45.14017" lon="6.35987">
        <ele>2859.4</ele>
        <time>2021-02-28T08:25:02Z</time>
      </trkpt>
      <trkpt lat="45.14017" lon="6.35987">
        <ele>2857.6</ele>
        <time>2021-02-28T08:25:03Z</time>
      </trkpt>
      <trkpt lat="45.14012" lon="6.35973">
        <ele>2856.2</ele>
        <time>2021-02-28T08:25:04Z</time>
      </trkpt>
      <trkpt lat="45.14009" lon="6.35969">
        <ele>2855</ele>
        <time>2021-02-28T08:25:05Z</time>
      </trkpt>
      <trkpt lat="45.14008" lon="6.35969">
        <ele>2854</ele>
        <time>2021-02-28T08:25:06Z</time>
      </trkpt>
      <trkpt lat="45.14007" lon="6.35969">
        <ele>2852.6</ele>
        <time>2021-02-28T08:25:07Z</time>
      </trkpt>
      <trkpt lat="45.14007" lon="6.35969">
        <ele>2850.8</ele>
        <time>2021-02-28T08:25:08Z</time>
      </trkpt>
      <trkpt lat="45.14006" lon="6.35985">
        <ele>2849.8</ele>
        <time>2021-02-28T08:25:09Z</time>
      </trkpt>
      <trkpt lat="45.14005" lon="6.35989">
        <ele>2848.2</ele>
        <time>2021-02-28T08:25:10Z</time>
      </trkpt>
      <trkpt lat="45.14005" lon="6.35993">
        <ele>2847.2</ele>
        <time>2021-02-28T08:25:11Z</time>
      </trkpt>
      <trkpt lat="45.14002" lon="6.36008">
        <ele>2845.2</ele>
        <time>2021-02-28T08:25:12Z</time>
      </trkpt>
      <trkpt lat="45.14001" lon="6.36015">
        <ele>2844.6</ele>
        <time>2021-02-28T08:25:13Z</time>
      </trkpt>
      <trkpt lat="45.13998" lon="6.3603">
        <ele>2843.6</ele>
        <time>2021-02-28T08:25:14Z</time>
      </trkpt>
      <trkpt lat="45.13997" lon="6.36031">
        <ele>2840.2</ele>
        <time>2021-02-28T08:25:15Z</time>
      </trkpt>
      <trkpt lat="45.13995" lon="6.36034">
        <ele>2838.8</ele>
        <time>2021-02-28T08:25:16Z</time>
      </trkpt>
      <trkpt lat="45.13986" lon="6.36023">
        <ele>2837.4</ele>
        <time>2021-02-28T08:25:17Z</time>
      </trkpt>
      <trkpt lat="45.13985" lon="6.3602">
        <ele>2836</ele>
        <time>2021-02-28T08:25:18Z</time>
      </trkpt>
      <trkpt lat="45.13984" lon="6.36017">
        <ele>2834.6</ele>
        <time>2021-02-28T08:25:19Z</time>
      </trkpt>
      <trkpt lat="45.13978" lon="6.36017">
        <ele>2833.6</ele>
        <time>2021-02-28T08:25:20Z</time>
      </trkpt>
      <trkpt lat="45.13975" lon="6.36022">
        <ele>2831.2</ele>
        <time>2021-02-28T08:25:21Z</time>
      </trkpt>
      <trkpt lat="45.13974" lon="6.36033">
        <ele>2829.2</ele>
        <time>2021-02-28T08:25:22Z</time>
      </trkpt>
      <trkpt lat="45.13972" lon="6.36044">
        <ele>2827.4</ele>
        <time>2021-02-28T08:25:23Z</time>
      </trkpt>
      <trkpt lat="45.13971" lon="6.36052">
        <ele>2825.8</ele>
        <time>2021-02-28T08:25:24Z</time>
      </trkpt>
      <trkpt lat="45.13969" lon="6.36061">
        <ele>2824</ele>
        <time>2021-02-28T08:25:25Z</time>
      </trkpt>
      <trkpt lat="45.13965" lon="6.36085">
        <ele>2822.4</ele>
        <time>2021-02-28T08:25:26Z</time>
      </trkpt>
      <trkpt lat="45.13965" lon="6.36091">
        <ele>2821</ele>
        <time>2021-02-28T08:25:27Z</time>
      </trkpt>
      <trkpt lat="45.13963" lon="6.36104">
        <ele>2818.6</ele>
        <time>2021-02-28T08:25:28Z</time>
      </trkpt>
      <trkpt lat="45.13962" lon="6.3611">
        <ele>2817</ele>
        <time>2021-02-28T08:25:29Z</time>
      </trkpt>
      <trkpt lat="45.13961" lon="6.36116">
        <ele>2814.8</ele>
        <time>2021-02-28T08:25:30Z</time>
      </trkpt>
      <trkpt lat="45.13959" lon="6.36133">
        <ele>2813.2</ele>
        <time>2021-02-28T08:25:31Z</time>
      </trkpt>
      <trkpt lat="45.13958" lon="6.36139">
        <ele>2812</ele>
        <time>2021-02-28T08:25:32Z</time>
      </trkpt>
      <trkpt lat="45.13955" lon="6.36155">
        <ele>2811</ele>
        <time>2021-02-28T08:25:33Z</time>
      </trkpt>
      <trkpt lat="45.13954" lon="6.3616">
        <ele>2810</ele>
        <time>2021-02-28T08:25:34Z</time>
      </trkpt>
      <trkpt lat="45.13949" lon="6.3618">
        <ele>2808</ele>
        <time>2021-02-28T08:25:35Z</time>
      </trkpt>
      <trkpt lat="45.13946" lon="6.36189">
        <ele>2806.6</ele>
        <time>2021-02-28T08:25:36Z</time>
      </trkpt>
      <trkpt lat="45.13938" lon="6.36212">
        <ele>2805</ele>
        <time>2021-02-28T08:25:37Z</time>
      </trkpt>
      <trkpt lat="45.13936" lon="6.36218">
        <ele>2804</ele>
        <time>2021-02-28T08:25:38Z</time>
      </trkpt>
      <trkpt lat="45.13931" lon="6.36231">
        <ele>2801</ele>
        <time>2021-02-28T08:25:39Z</time>
      </trkpt>
      <trkpt lat="45.13926" lon="6.36244">
        <ele>2799.4</ele>
        <time>2021-02-28T08:25:40Z</time>
      </trkpt>
      <trkpt lat="45.13921" lon="6.36258">
        <ele>2797.2</ele>
        <time>2021-02-28T08:25:41Z</time>
      </trkpt>
      <trkpt lat="45.13916" lon="6.36272">
        <ele>2795.2</ele>
        <time>2021-02-28T08:25:42Z</time>
      </trkpt>
      <trkpt lat="45.1391" lon="6.36286">
        <ele>2792.2</ele>
        <time>2021-02-28T08:25:43Z</time>
      </trkpt>
      <trkpt lat="45.13905" lon="6.36299">
        <ele>2789.6</ele>
        <time>2021-02-28T08:25:44Z</time>
      </trkpt>
      <trkpt lat="45.13899" lon="6.36312">
        <ele>2786.8</ele>
        <time>2021-02-28T08:25:45Z</time>
      </trkpt>
      <trkpt lat="45.13893" lon="6.36325">
        <ele>2785</ele>
        <time>2021-02-28T08:25:46Z</time>
      </trkpt>
      <trkpt lat="45.13887" lon="6.36338">
        <ele>2782.8</ele>
        <time>2021-02-28T08:25:47Z</time>
      </trkpt>
      <trkpt lat="45.13881" lon="6.36351">
        <ele>2780.2</ele>
        <time>2021-02-28T08:25:48Z</time>
      </trkpt>
      <trkpt lat="45.13876" lon="6.36363">
        <ele>2779</ele>
        <time>2021-02-28T08:25:49Z</time>
      </trkpt>
      <trkpt lat="45.1387" lon="6.36374">
        <ele>2776.8</ele>
        <time>2021-02-28T08:25:50Z</time>
      </trkpt>
      <trkpt lat="45.1387" lon="6.36374">
        <ele>2775.6</ele>
        <time>2021-02-28T08:25:51Z</time>
      </trkpt>
      <trkpt lat="45.13861" lon="6.36394">
        <ele>2774.2</ele>
        <time>2021-02-28T08:25:52Z</time>
      </trkpt>
      <trkpt lat="45.13859" lon="6.36399">
        <ele>2773.2</ele>
        <time>2021-02-28T08:25:53Z</time>
      </trkpt>
      <trkpt lat="45.13857" lon="6.36404">
        <ele>2771.8</ele>
        <time>2021-02-28T08:25:54Z</time>
      </trkpt>
      <trkpt lat="45.1385" lon="6.36419">
        <ele>2771</ele>
        <time>2021-02-28T08:25:55Z</time>
      </trkpt>
      <trkpt lat="45.13847" lon="6.36426">
        <ele>2770.4</ele>
        <time>2021-02-28T08:25:56Z</time>
      </trkpt>
      <trkpt lat="45.13839" lon="6.36443">
        <ele>2769.2</ele>
        <time>2021-02-28T08:25:57Z</time>
      </trkpt>
      <trkpt lat="45.13837" lon="6.36447">
        <ele>2767.4</ele>
        <time>2021-02-28T08:25:58Z</time>
      </trkpt>
      <trkpt lat="45.13833" lon="6.36456">
        <ele>2767</ele>
        <time>2021-02-28T08:25:59Z</time>
      </trkpt>
      <trkpt lat="45.13831" lon="6.3646">
        <ele>2767</ele>
        <time>2021-02-28T08:26:00Z</time>
      </trkpt>
      <trkpt lat="45.13829" lon="6.36465">
        <ele>2766.6</ele>
        <time>2021-02-28T08:26:01Z</time>
      </trkpt>
      <trkpt lat="45.13824" lon="6.36477">
        <ele>2765.4</ele>
        <time>2021-02-28T08:26:02Z</time>
      </trkpt>
      <trkpt lat="45.13822" lon="6.36481">
        <ele>2764.8</ele>
        <time>2021-02-28T08:26:03Z</time>
      </trkpt>
      <trkpt lat="45.13816" lon="6.36492">
        <ele>2763.6</ele>
        <time>2021-02-28T08:26:04Z</time>
      </trkpt>
      <trkpt lat="45.13814" lon="6.36495">
        <ele>2762.2</ele>
        <time>2021-02-28T08:26:05Z</time>
      </trkpt>
      <trkpt lat="45.13805" lon="6.36507">
        <ele>2761.8</ele>
        <time>2021-02-28T08:26:06Z</time>
      </trkpt>
      <trkpt lat="45.13801" lon="6.36512">
        <ele>2760</ele>
        <time>2021-02-28T08:26:07Z</time>
      </trkpt>
      <trkpt lat="45.13789" lon="6.36528">
        <ele>2759.2</ele>
        <time>2021-02-28T08:26:08Z</time>
      </trkpt>
      <trkpt lat="45.13785" lon="6.36532">
        <ele>2757</ele>
        <time>2021-02-28T08:26:09Z</time>
      </trkpt>
      <trkpt lat="45.13779" lon="6.36542">
        <ele>2754.8</ele>
        <time>2021-02-28T08:26:10Z</time>
      </trkpt>
      <trkpt lat="45.13772" lon="6.36552">
        <ele>2752</ele>
        <time>2021-02-28T08:26:11Z</time>
      </trkpt>
      <trkpt lat="45.13767" lon="6.36563">
        <ele>2751</ele>
        <time>2021-02-28T08:26:12Z</time>
      </trkpt>
      <trkpt lat="45.13767" lon="6.36563">
        <ele>2750.2</ele>
        <time>2021-02-28T08:26:13Z</time>
      </trkpt>
      <trkpt lat="45.13758" lon="6.36584">
        <ele>2747.6</ele>
        <time>2021-02-28T08:26:14Z</time>
      </trkpt>
      <trkpt lat="45.13756" lon="6.3659">
        <ele>2746</ele>
        <time>2021-02-28T08:26:15Z</time>
      </trkpt>
      <trkpt lat="45.13754" lon="6.36595">
        <ele>2745.2</ele>
        <time>2021-02-28T08:26:16Z</time>
      </trkpt>
      <trkpt lat="45.13744" lon="6.36611">
        <ele>2744</ele>
        <time>2021-02-28T08:26:17Z</time>
      </trkpt>
      <trkpt lat="45.13739" lon="6.36618">
        <ele>2742</ele>
        <time>2021-02-28T08:26:18Z</time>
      </trkpt>
      <trkpt lat="45.13723" lon="6.3663">
        <ele>2741.4</ele>
        <time>2021-02-28T08:26:19Z</time>
      </trkpt>
      <trkpt lat="45.13717" lon="6.3663">
        <ele>2740</ele>
        <time>2021-02-28T08:26:20Z</time>
      </trkpt>
      <trkpt lat="45.13704" lon="6.3663">
        <ele>2738.4</ele>
        <time>2021-02-28T08:26:21Z</time>
      </trkpt>
      <trkpt lat="45.13694" lon="6.36628">
        <ele>2736.2</ele>
        <time>2021-02-28T08:26:22Z</time>
      </trkpt>
      <trkpt lat="45.13685" lon="6.36626">
        <ele>2735.8</ele>
        <time>2021-02-28T08:26:23Z</time>
      </trkpt>
      <trkpt lat="45.13685" lon="6.36626">
        <ele>2734.4</ele>
        <time>2021-02-28T08:26:24Z</time>
      </trkpt>
      <trkpt lat="45.13672" lon="6.36638">
        <ele>2733.2</ele>
        <time>2021-02-28T08:26:25Z</time>
      </trkpt>
      <trkpt lat="45.13671" lon="6.36642">
        <ele>2730.6</ele>
        <time>2021-02-28T08:26:26Z</time>
      </trkpt>
      <trkpt lat="45.13671" lon="6.36646">
        <ele>2729.2</ele>
        <time>2021-02-28T08:26:27Z</time>
      </trkpt>
      <trkpt lat="45.13671" lon="6.36653">
        <ele>2728.2</ele>
        <time>2021-02-28T08:26:28Z</time>
      </trkpt>
      <trkpt lat="45.13671" lon="6.36653">
        <ele>2726.2</ele>
        <time>2021-02-28T08:26:29Z</time>
      </trkpt>
      <trkpt lat="45.13671" lon="6.36653">
        <ele>2725.6</ele>
        <time>2021-02-28T08:26:30Z</time>
      </trkpt>
      <trkpt lat="45.1367" lon="6.36653">
        <ele>2724.8</ele>
        <time>2021-02-28T08:26:31Z</time>
      </trkpt>
      <trkpt lat="45.1367" lon="6.36652">
        <ele>2724.6</ele>
        <time>2021-02-28T08:26:32Z</time>
      </trkpt>
      <trkpt lat="45.1367" lon="6.36652">
        <ele>2724.8</ele>
        <time>2021-02-28T08:26:33Z</time>
      </trkpt>
      <trkpt lat="45.1367" lon="6.36651">
        <ele>2724.2</ele>
        <time>2021-02-28T08:26:34Z</time>
      </trkpt>
      <trkpt lat="45.1367" lon="6.36651">
        <ele>2724</ele>
        <time>2021-02-28T08:26:35Z</time>
      </trkpt>
      <trkpt lat="45.1367" lon="6.36651">
        <ele>2724</ele>
        <time>2021-02-28T08:26:36Z</time>
      </trkpt>
      <trkpt lat="45.1367" lon="6.3665">
        <ele>2723.8</ele>
        <time>2021-02-28T08:26:37Z</time>
      </trkpt>
      <trkpt lat="45.1367" lon="6.3665">
        <ele>2723.8</ele>
        <time>2021-02-28T08:26:38Z</time>
      </trkpt>
      <trkpt lat="45.13669" lon="6.36649">
        <ele>2725</ele>
        <time>2021-02-28T08:26:39Z</time>
      </trkpt>
      <trkpt lat="45.13669" lon="6.36649">
        <ele>2724.6</ele>
        <time>2021-02-28T08:26:40Z</time>
      </trkpt>
      <trkpt lat="45.13669" lon="6.36648">
        <ele>2723.8</ele>
        <time>2021-02-28T08:26:41Z</time>
      </trkpt>
      <trkpt lat="45.13669" lon="6.36648">
        <ele>2724</ele>
        <time>2021-02-28T08:26:42Z</time>
      </trkpt>
      <trkpt lat="45.13669" lon="6.36648">
        <ele>2724</ele>
        <time>2021-02-28T08:26:43Z</time>
      </trkpt>
      <trkpt lat="45.13669" lon="6.36648">
        <ele>2724.2</ele>
        <time>2021-02-28T08:26:44Z</time>
      </trkpt>
      <trkpt lat="45.13669" lon="6.36648">
        <ele>2724.6</ele>
        <time>2021-02-28T08:26:45Z</time>
      </trkpt>
      <trkpt lat="45.13668" lon="6.36648">
        <ele>2724.6</ele>
        <time>2021-02-28T08:26:46Z</time>
      </trkpt>
      <trkpt lat="45.13668" lon="6.36649">
        <ele>2725</ele>
        <time>2021-02-28T08:26:47Z</time>
      </trkpt>
      <trkpt lat="45.13668" lon="6.36649">
        <ele>2725</ele>
        <time>2021-02-28T08:26:48Z</time>
      </trkpt>
      <trkpt lat="45.13668" lon="6.36649">
        <ele>2724.8</ele>
        <time>2021-02-28T08:26:49Z</time>
      </trkpt>
      <trkpt lat="45.13668" lon="6.36649">
        <ele>2724.8</ele>
        <time>2021-02-28T08:26:50Z</time>
      </trkpt>
      <trkpt lat="45.13668" lon="6.36649">
        <ele>2724.8</ele>
        <time>2021-02-28T08:26:51Z</time>
      </trkpt>
      <trkpt lat="45.13667" lon="6.36649">
        <ele>2724.8</ele>
        <time>2021-02-28T08:26:52Z</time>
      </trkpt>
      <trkpt lat="45.13667" lon="6.36649">
        <ele>2724.8</ele>
        <time>2021-02-28T08:26:53Z</time>
      </trkpt>
      <trkpt lat="45.13667" lon="6.36649">
        <ele>2724.8</ele>
        <time>2021-02-28T08:26:54Z</time>
      </trkpt>
      <trkpt lat="45.13667" lon="6.36649">
        <ele>2725</ele>
        <time>2021-02-28T08:26:55Z</time>
      </trkpt>
      <trkpt lat="45.13667" lon="6.3665">
        <ele>2725</ele>
        <time>2021-02-28T08:26:56Z</time>
      </trkpt>
      <trkpt lat="45.13667" lon="6.3665">
        <ele>2725</ele>
        <time>2021-02-28T08:26:57Z</time>
      </trkpt>
      <trkpt lat="45.13666" lon="6.3665">
        <ele>2725.2</ele>
        <time>2021-02-28T08:26:58Z</time>
      </trkpt>
      <trkpt lat="45.13666" lon="6.3665">
        <ele>2724.8</ele>
        <time>2021-02-28T08:26:59Z</time>
      </trkpt>
      <trkpt lat="45.13666" lon="6.3665">
        <ele>2724.8</ele>
        <time>2021-02-28T08:27:00Z</time>
      </trkpt>
      <trkpt lat="45.13666" lon="6.3665">
        <ele>2724.8</ele>
        <time>2021-02-28T08:27:01Z</time>
      </trkpt>
      <trkpt lat="45.13666" lon="6.3665">
        <ele>2724.8</ele>
        <time>2021-02-28T08:27:02Z</time>
      </trkpt>
      <trkpt lat="45.13666" lon="6.3665">
        <ele>2724.8</ele>
        <time>2021-02-28T08:27:03Z</time>
      </trkpt>
      <trkpt lat="45.13665" lon="6.3665">
        <ele>2724.8</ele>
        <time>2021-02-28T08:27:04Z</time>
      </trkpt>
      <trkpt lat="45.13665" lon="6.36651">
        <ele>2724.8</ele>
        <time>2021-02-28T08:27:05Z</time>
      </trkpt>
      <trkpt lat="45.13665" lon="6.36651">
        <ele>2724.6</ele>
        <time>2021-02-28T08:27:06Z</time>
      </trkpt>
      <trkpt lat="45.13665" lon="6.36651">
        <ele>2724.6</ele>
        <time>2021-02-28T08:27:07Z</time>
      </trkpt>
      <trkpt lat="45.13665" lon="6.36651">
        <ele>2724.4</ele>
        <time>2021-02-28T08:27:08Z</time>
      </trkpt>
      <trkpt lat="45.13665" lon="6.36651">
        <ele>2723.6</ele>
        <time>2021-02-28T08:27:09Z</time>
      </trkpt>
      <trkpt lat="45.13664" lon="6.36651">
        <ele>2723.4</ele>
        <time>2021-02-28T08:27:10Z</time>
      </trkpt>
      <trkpt lat="45.13664" lon="6.36651">
        <ele>2723.2</ele>
        <time>2021-02-28T08:27:11Z</time>
      </trkpt>
      <trkpt lat="45.13664" lon="6.36651">
        <ele>2723.2</ele>
        <time>2021-02-28T08:27:12Z</time>
      </trkpt>
      <trkpt lat="45.13664" lon="6.36651">
        <ele>2723.6</ele>
        <time>2021-02-28T08:27:13Z</time>
      </trkpt>
      <trkpt lat="45.13664" lon="6.36652">
        <ele>2723.8</ele>
        <time>2021-02-28T08:27:14Z</time>
      </trkpt>
      <trkpt lat="45.13664" lon="6.36652">
        <ele>2724</ele>
        <time>2021-02-28T08:27:15Z</time>
      </trkpt>
      <trkpt lat="45.13663" lon="6.36652">
        <ele>2723.6</ele>
        <time>2021-02-28T08:27:16Z</time>
      </trkpt>
      <trkpt lat="45.13663" lon="6.36652">
        <ele>2723.6</ele>
        <time>2021-02-28T08:27:17Z</time>
      </trkpt>
      <trkpt lat="45.13663" lon="6.36652">
        <ele>2723.8</ele>
        <time>2021-02-28T08:27:18Z</time>
      </trkpt>
      <trkpt lat="45.13663" lon="6.36652">
        <ele>2723.6</ele>
        <time>2021-02-28T08:27:19Z</time>
      </trkpt>
      <trkpt lat="45.13663" lon="6.36652">
        <ele>2723.4</ele>
        <time>2021-02-28T08:27:20Z</time>
      </trkpt>
      <trkpt lat="45.13663" lon="6.36652">
        <ele>2723</ele>
        <time>2021-02-28T08:27:21Z</time>
      </trkpt>
      <trkpt lat="45.13662" lon="6.36652">
        <ele>2723.2</ele>
        <time>2021-02-28T08:27:22Z</time>
      </trkpt>
      <trkpt lat="45.13662" lon="6.36653">
        <ele>2723</ele>
        <time>2021-02-28T08:27:23Z</time>
      </trkpt>
      <trkpt lat="45.13662" lon="6.36653">
        <ele>2722.8</ele>
        <time>2021-02-28T08:27:24Z</time>
      </trkpt>
      <trkpt lat="45.13662" lon="6.36653">
        <ele>2722.8</ele>
        <time>2021-02-28T08:27:25Z</time>
      </trkpt>
      <trkpt lat="45.13662" lon="6.36653">
        <ele>2722.8</ele>
        <time>2021-02-28T08:27:26Z</time>
      </trkpt>
      <trkpt lat="45.13662" lon="6.36653">
        <ele>2723</ele>
        <time>2021-02-28T08:27:27Z</time>
      </trkpt>
      <trkpt lat="45.13661" lon="6.36653">
        <ele>2722.2</ele>
        <time>2021-02-28T08:27:28Z</time>
      </trkpt>
      <trkpt lat="45.13661" lon="6.36653">
        <ele>2722</ele>
        <time>2021-02-28T08:27:29Z</time>
      </trkpt>
      <trkpt lat="45.13661" lon="6.36653">
        <ele>2722.6</ele>
        <time>2021-02-28T08:27:30Z</time>
      </trkpt>
      <trkpt lat="45.13661" lon="6.36653">
        <ele>2722.8</ele>
        <time>2021-02-28T08:27:31Z</time>
      </trkpt>
      <trkpt lat="45.13661" lon="6.36653">
        <ele>2722.6</ele>
        <time>2021-02-28T08:27:32Z</time>
      </trkpt>
      <trkpt lat="45.13661" lon="6.36653">
        <ele>2722.6</ele>
        <time>2021-02-28T08:27:33Z</time>
      </trkpt>
      <trkpt lat="45.13661" lon="6.36653">
        <ele>2722.4</ele>
        <time>2021-02-28T08:27:34Z</time>
      </trkpt>
      <trkpt lat="45.13661" lon="6.36653">
        <ele>2722.4</ele>
        <time>2021-02-28T08:27:35Z</time>
      </trkpt>
      <trkpt lat="45.13661" lon="6.36653">
        <ele>2722.4</ele>
        <time>2021-02-28T08:27:36Z</time>
      </trkpt>
      <trkpt lat="45.13661" lon="6.36653">
        <ele>2722.2</ele>
        <time>2021-02-28T08:27:37Z</time>
      </trkpt>
      <trkpt lat="45.13661" lon="6.36653">
        <ele>2722.2</ele>
        <time>2021-02-28T08:27:38Z</time>
      </trkpt>
      <trkpt lat="45.13658" lon="6.36653">
        <ele>2722</ele>
        <time>2021-02-28T08:27:39Z</time>
      </trkpt>
      <trkpt lat="45.13658" lon="6.36653">
        <ele>2722.2</ele>
        <time>2021-02-28T08:27:40Z</time>
      </trkpt>
      <trkpt lat="45.13658" lon="6.36653">
        <ele>2721.6</ele>
        <time>2021-02-28T08:27:41Z</time>
      </trkpt>
      <trkpt lat="45.13658" lon="6.36653">
        <ele>2721.6</ele>
        <time>2021-02-28T08:27:42Z</time>
      </trkpt>
      <trkpt lat="45.13658" lon="6.36653">
        <ele>2721.6</ele>
        <time>2021-02-28T08:27:43Z</time>
      </trkpt>
      <trkpt lat="45.13658" lon="6.36653">
        <ele>2721.8</ele>
        <time>2021-02-28T08:27:44Z</time>
      </trkpt>
      <trkpt lat="45.13658" lon="6.36653">
        <ele>2721.8</ele>
        <time>2021-02-28T08:27:45Z</time>
      </trkpt>
      <trkpt lat="45.13658" lon="6.36653">
        <ele>2722</ele>
        <time>2021-02-28T08:27:46Z</time>
      </trkpt>
      <trkpt lat="45.13658" lon="6.36653">
        <ele>2722.4</ele>
        <time>2021-02-28T08:27:47Z</time>
      </trkpt>
      <trkpt lat="45.13658" lon="6.36653">
        <ele>2722.2</ele>
        <time>2021-02-28T08:27:48Z</time>
      </trkpt>
      <trkpt lat="45.13658" lon="6.36653">
        <ele>2721.8</ele>
        <time>2021-02-28T08:27:49Z</time>
      </trkpt>
      <trkpt lat="45.13658" lon="6.36653">
        <ele>2722.2</ele>
        <time>2021-02-28T08:27:50Z</time>
      </trkpt>
      <trkpt lat="45.13657" lon="6.36657">
        <ele>2722.2</ele>
        <time>2021-02-28T08:27:51Z</time>
      </trkpt>
      <trkpt lat="45.13657" lon="6.36657">
        <ele>2722.8</ele>
        <time>2021-02-28T08:27:52Z</time>
      </trkpt>
      <trkpt lat="45.13657" lon="6.36657">
        <ele>2722.4</ele>
        <time>2021-02-28T08:27:53Z</time>
      </trkpt>
      <trkpt lat="45.13654" lon="6.3666">
        <ele>2722</ele>
        <time>2021-02-28T08:27:54Z</time>
      </trkpt>
      <trkpt lat="45.13651" lon="6.36662">
        <ele>2721.6</ele>
        <time>2021-02-28T08:27:55Z</time>
      </trkpt>
      <trkpt lat="45.13648" lon="6.36664">
        <ele>2721.4</ele>
        <time>2021-02-28T08:27:56Z</time>
      </trkpt>
      <trkpt lat="45.13645" lon="6.36666">
        <ele>2721.4</ele>
        <time>2021-02-28T08:27:57Z</time>
      </trkpt>
      <trkpt lat="45.13642" lon="6.36669">
        <ele>2721</ele>
        <time>2021-02-28T08:27:58Z</time>
      </trkpt>
      <trkpt lat="45.13632" lon="6.36674">
        <ele>2720</ele>
        <time>2021-02-28T08:27:59Z</time>
      </trkpt>
      <trkpt lat="45.13628" lon="6.36677">
        <ele>2719.4</ele>
        <time>2021-02-28T08:28:00Z</time>
      </trkpt>
      <trkpt lat="45.13624" lon="6.36679">
        <ele>2718.8</ele>
        <time>2021-02-28T08:28:01Z</time>
      </trkpt>
      <trkpt lat="45.13617" lon="6.36683">
        <ele>2717.2</ele>
        <time>2021-02-28T08:28:02Z</time>
      </trkpt>
      <trkpt lat="45.1361" lon="6.36687">
        <ele>2716.2</ele>
        <time>2021-02-28T08:28:03Z</time>
      </trkpt>
      <trkpt lat="45.13598" lon="6.36695">
        <ele>2716.2</ele>
        <time>2021-02-28T08:28:04Z</time>
      </trkpt>
      <trkpt lat="45.13593" lon="6.36697">
        <ele>2712</ele>
        <time>2021-02-28T08:28:05Z</time>
      </trkpt>
      <trkpt lat="45.13585" lon="6.36702">
        <ele>2710</ele>
        <time>2021-02-28T08:28:06Z</time>
      </trkpt>
      <trkpt lat="45.13576" lon="6.36707">
        <ele>2708</ele>
        <time>2021-02-28T08:28:07Z</time>
      </trkpt>
      <trkpt lat="45.13567" lon="6.36712">
        <ele>2706</ele>
        <time>2021-02-28T08:28:08Z</time>
      </trkpt>
      <trkpt lat="45.13559" lon="6.36716">
        <ele>2705.4</ele>
        <time>2021-02-28T08:28:09Z</time>
      </trkpt>
      <trkpt lat="45.13559" lon="6.36716">
        <ele>2703.4</ele>
        <time>2021-02-28T08:28:10Z</time>
      </trkpt>
      <trkpt lat="45.13543" lon="6.36725">
        <ele>2702.6</ele>
        <time>2021-02-28T08:28:11Z</time>
      </trkpt>
      <trkpt lat="45.1354" lon="6.36727">
        <ele>2701.2</ele>
        <time>2021-02-28T08:28:12Z</time>
      </trkpt>
      <trkpt lat="45.13536" lon="6.3673">
        <ele>2700.2</ele>
        <time>2021-02-28T08:28:13Z</time>
      </trkpt>
      <trkpt lat="45.13526" lon="6.36741">
        <ele>2699.6</ele>
        <time>2021-02-28T08:28:14Z</time>
      </trkpt>
      <trkpt lat="45.13522" lon="6.36747">
        <ele>2699.4</ele>
        <time>2021-02-28T08:28:15Z</time>
      </trkpt>
      <trkpt lat="45.13512" lon="6.36761">
        <ele>2697.8</ele>
        <time>2021-02-28T08:28:16Z</time>
      </trkpt>
      <trkpt lat="45.1351" lon="6.36766">
        <ele>2697.8</ele>
        <time>2021-02-28T08:28:17Z</time>
      </trkpt>
      <trkpt lat="45.13507" lon="6.36774">
        <ele>2696.4</ele>
        <time>2021-02-28T08:28:18Z</time>
      </trkpt>
      <trkpt lat="45.13505" lon="6.36784">
        <ele>2695.2</ele>
        <time>2021-02-28T08:28:19Z</time>
      </trkpt>
      <trkpt lat="45.13502" lon="6.36794">
        <ele>2693.2</ele>
        <time>2021-02-28T08:28:20Z</time>
      </trkpt>
      <trkpt lat="45.135" lon="6.36805">
        <ele>2691.4</ele>
        <time>2021-02-28T08:28:21Z</time>
      </trkpt>
      <trkpt lat="45.135" lon="6.36805">
        <ele>2691.4</ele>
        <time>2021-02-28T08:28:22Z</time>
      </trkpt>
      <trkpt lat="45.13491" lon="6.36815">
        <ele>2690.2</ele>
        <time>2021-02-28T08:28:23Z</time>
      </trkpt>
      <trkpt lat="45.13491" lon="6.36815">
        <ele>2689</ele>
        <time>2021-02-28T08:28:24Z</time>
      </trkpt>
      <trkpt lat="45.13491" lon="6.36815">
        <ele>2688.8</ele>
        <time>2021-02-28T08:28:25Z</time>
      </trkpt>
      <trkpt lat="45.1349" lon="6.36814">
        <ele>2689</ele>
        <time>2021-02-28T08:28:26Z</time>
      </trkpt>
      <trkpt lat="45.1349" lon="6.36814">
        <ele>2689.6</ele>
        <time>2021-02-28T08:28:27Z</time>
      </trkpt>
      <trkpt lat="45.1349" lon="6.36813">
        <ele>2689.4</ele>
        <time>2021-02-28T08:28:28Z</time>
      </trkpt>
      <trkpt lat="45.13489" lon="6.36812">
        <ele>2689.4</ele>
        <time>2021-02-28T08:28:29Z</time>
      </trkpt>
      <trkpt lat="45.13489" lon="6.36812">
        <ele>2689</ele>
        <time>2021-02-28T08:28:30Z</time>
      </trkpt>
      <trkpt lat="45.13489" lon="6.36811">
        <ele>2689</ele>
        <time>2021-02-28T08:28:31Z</time>
      </trkpt>
      <trkpt lat="45.13488" lon="6.36811">
        <ele>2688.8</ele>
        <time>2021-02-28T08:28:32Z</time>
      </trkpt>
      <trkpt lat="45.13488" lon="6.3681">
        <ele>2688.8</ele>
        <time>2021-02-28T08:28:33Z</time>
      </trkpt>
      <trkpt lat="45.13488" lon="6.3681">
        <ele>2688.8</ele>
        <time>2021-02-28T08:28:34Z</time>
      </trkpt>
      <trkpt lat="45.13487" lon="6.36809">
        <ele>2688.8</ele>
        <time>2021-02-28T08:28:35Z</time>
      </trkpt>
      <trkpt lat="45.13487" lon="6.36808">
        <ele>2688.8</ele>
        <time>2021-02-28T08:28:36Z</time>
      </trkpt>
      <trkpt lat="45.13487" lon="6.36808">
        <ele>2688.8</ele>
        <time>2021-02-28T08:28:37Z</time>
      </trkpt>
      <trkpt lat="45.13486" lon="6.36807">
        <ele>2689</ele>
        <time>2021-02-28T08:28:38Z</time>
      </trkpt>
      <trkpt lat="45.13486" lon="6.36807">
        <ele>2688.8</ele>
        <time>2021-02-28T08:28:39Z</time>
      </trkpt>
      <trkpt lat="45.13485" lon="6.36806">
        <ele>2688.2</ele>
        <time>2021-02-28T08:28:40Z</time>
      </trkpt>
      <trkpt lat="45.13485" lon="6.36806">
        <ele>2687.6</ele>
        <time>2021-02-28T08:28:41Z</time>
      </trkpt>
      <trkpt lat="45.13485" lon="6.36806">
        <ele>2687.8</ele>
        <time>2021-02-28T08:28:42Z</time>
      </trkpt>
      <trkpt lat="45.13485" lon="6.36806">
        <ele>2687.8</ele>
        <time>2021-02-28T08:28:43Z</time>
      </trkpt>
      <trkpt lat="45.13485" lon="6.36806">
        <ele>2688</ele>
        <time>2021-02-28T08:28:44Z</time>
      </trkpt>
      <trkpt lat="45.13485" lon="6.36806">
        <ele>2688.2</ele>
        <time>2021-02-28T08:28:45Z</time>
      </trkpt>
      <trkpt lat="45.13485" lon="6.36806">
        <ele>2688.2</ele>
        <time>2021-02-28T08:28:46Z</time>
      </trkpt>
      <trkpt lat="45.13485" lon="6.36806">
        <ele>2687.8</ele>
        <time>2021-02-28T08:28:47Z</time>
      </trkpt>
      <trkpt lat="45.13485" lon="6.36806">
        <ele>2688.2</ele>
        <time>2021-02-28T08:28:48Z</time>
      </trkpt>
      <trkpt lat="45.13485" lon="6.36806">
        <ele>2688.2</ele>
        <time>2021-02-28T08:28:49Z</time>
      </trkpt>
      <trkpt lat="45.13485" lon="6.36806">
        <ele>2688</ele>
        <time>2021-02-28T08:28:50Z</time>
      </trkpt>
      <trkpt lat="45.13485" lon="6.36806">
        <ele>2687.8</ele>
        <time>2021-02-28T08:28:51Z</time>
      </trkpt>
      <trkpt lat="45.13485" lon="6.36806">
        <ele>2688.2</ele>
        <time>2021-02-28T08:28:52Z</time>
      </trkpt>
      <trkpt lat="45.13485" lon="6.36806">
        <ele>2688</ele>
        <time>2021-02-28T08:28:53Z</time>
      </trkpt>
      <trkpt lat="45.13485" lon="6.36806">
        <ele>2688.2</ele>
        <time>2021-02-28T08:28:54Z</time>
      </trkpt>
      <trkpt lat="45.13485" lon="6.36806">
        <ele>2688.2</ele>
        <time>2021-02-28T08:28:55Z</time>
      </trkpt>
      <trkpt lat="45.13485" lon="6.36806">
        <ele>2688.4</ele>
        <time>2021-02-28T08:28:56Z</time>
      </trkpt>
      <trkpt lat="45.13485" lon="6.36806">
        <ele>2688.4</ele>
        <time>2021-02-28T08:28:57Z</time>
      </trkpt>
      <trkpt lat="45.13485" lon="6.36806">
        <ele>2688.6</ele>
        <time>2021-02-28T08:28:58Z</time>
      </trkpt>
      <trkpt lat="45.13485" lon="6.36806">
        <ele>2688.6</ele>
        <time>2021-02-28T08:28:59Z</time>
      </trkpt>
      <trkpt lat="45.13485" lon="6.36806">
        <ele>2688.4</ele>
        <time>2021-02-28T08:29:00Z</time>
      </trkpt>
      <trkpt lat="45.13485" lon="6.36806">
        <ele>2688.4</ele>
        <time>2021-02-28T08:29:01Z</time>
      </trkpt>
      <trkpt lat="45.13485" lon="6.36806">
        <ele>2688.4</ele>
        <time>2021-02-28T08:29:02Z</time>
      </trkpt>
      <trkpt lat="45.13485" lon="6.36806">
        <ele>2688.4</ele>
        <time>2021-02-28T08:29:03Z</time>
      </trkpt>
      <trkpt lat="45.13485" lon="6.36806">
        <ele>2688.2</ele>
        <time>2021-02-28T08:29:04Z</time>
      </trkpt>
      <trkpt lat="45.13485" lon="6.36806">
        <ele>2688</ele>
        <time>2021-02-28T08:29:05Z</time>
      </trkpt>
      <trkpt lat="45.13485" lon="6.36806">
        <ele>2688</ele>
        <time>2021-02-28T08:29:06Z</time>
      </trkpt>
      <trkpt lat="45.13485" lon="6.36806">
        <ele>2688</ele>
        <time>2021-02-28T08:29:07Z</time>
      </trkpt>
      <trkpt lat="45.13485" lon="6.36806">
        <ele>2688</ele>
        <time>2021-02-28T08:29:08Z</time>
      </trkpt>
      <trkpt lat="45.13485" lon="6.36806">
        <ele>2687.8</ele>
        <time>2021-02-28T08:29:09Z</time>
      </trkpt>
      <trkpt lat="45.13485" lon="6.36806">
        <ele>2687.8</ele>
        <time>2021-02-28T08:29:10Z</time>
      </trkpt>
      <trkpt lat="45.13485" lon="6.36806">
        <ele>2688</ele>
        <time>2021-02-28T08:29:11Z</time>
      </trkpt>
      <trkpt lat="45.13485" lon="6.36806">
        <ele>2688.6</ele>
        <time>2021-02-28T08:29:12Z</time>
      </trkpt>
      <trkpt lat="45.13485" lon="6.36806">
        <ele>2688.8</ele>
        <time>2021-02-28T08:29:13Z</time>
      </trkpt>
      <trkpt lat="45.13485" lon="6.36806">
        <ele>2688.8</ele>
        <time>2021-02-28T08:29:14Z</time>
      </trkpt>
      <trkpt lat="45.13485" lon="6.36806">
        <ele>2688.8</ele>
        <time>2021-02-28T08:29:15Z</time>
      </trkpt>
      <trkpt lat="45.13485" lon="6.36806">
        <ele>2688.8</ele>
        <time>2021-02-28T08:29:16Z</time>
      </trkpt>
      <trkpt lat="45.13485" lon="6.36806">
        <ele>2689</ele>
        <time>2021-02-28T08:29:17Z</time>
      </trkpt>
      <trkpt lat="45.13485" lon="6.36806">
        <ele>2688.8</ele>
        <time>2021-02-28T08:29:18Z</time>
      </trkpt>
      <trkpt lat="45.13485" lon="6.36809">
        <ele>2688.4</ele>
        <time>2021-02-28T08:29:19Z</time>
      </trkpt>
      <trkpt lat="45.13485" lon="6.36809">
        <ele>2688.4</ele>
        <time>2021-02-28T08:29:20Z</time>
      </trkpt>
      <trkpt lat="45.13485" lon="6.36809">
        <ele>2688.4</ele>
        <time>2021-02-28T08:29:21Z</time>
      </trkpt>
      <trkpt lat="45.13485" lon="6.36809">
        <ele>2688.6</ele>
        <time>2021-02-28T08:29:22Z</time>
      </trkpt>
      <trkpt lat="45.13485" lon="6.36809">
        <ele>2688.6</ele>
        <time>2021-02-28T08:29:23Z</time>
      </trkpt>
      <trkpt lat="45.13485" lon="6.36809">
        <ele>2687.8</ele>
        <time>2021-02-28T08:29:24Z</time>
      </trkpt>
      <trkpt lat="45.13485" lon="6.36809">
        <ele>2687.8</ele>
        <time>2021-02-28T08:29:25Z</time>
      </trkpt>
      <trkpt lat="45.13485" lon="6.36809">
        <ele>2687.6</ele>
        <time>2021-02-28T08:29:26Z</time>
      </trkpt>
      <trkpt lat="45.13485" lon="6.36809">
        <ele>2687.4</ele>
        <time>2021-02-28T08:29:27Z</time>
      </trkpt>
      <trkpt lat="45.13485" lon="6.36809">
        <ele>2687.4</ele>
        <time>2021-02-28T08:29:28Z</time>
      </trkpt>
      <trkpt lat="45.13485" lon="6.36809">
        <ele>2687.2</ele>
        <time>2021-02-28T08:29:29Z</time>
      </trkpt>
      <trkpt lat="45.13485" lon="6.36809">
        <ele>2687.4</ele>
        <time>2021-02-28T08:29:30Z</time>
      </trkpt>
      <trkpt lat="45.13485" lon="6.36809">
        <ele>2687.2</ele>
        <time>2021-02-28T08:29:31Z</time>
      </trkpt>
      <trkpt lat="45.13485" lon="6.36809">
        <ele>2687.2</ele>
        <time>2021-02-28T08:29:32Z</time>
      </trkpt>
      <trkpt lat="45.13485" lon="6.36809">
        <ele>2687.2</ele>
        <time>2021-02-28T08:29:33Z</time>
      </trkpt>
      <trkpt lat="45.13485" lon="6.36809">
        <ele>2687.2</ele>
        <time>2021-02-28T08:29:34Z</time>
      </trkpt>
      <trkpt lat="45.13485" lon="6.36809">
        <ele>2687.2</ele>
        <time>2021-02-28T08:29:35Z</time>
      </trkpt>
      <trkpt lat="45.13485" lon="6.36809">
        <ele>2687</ele>
        <time>2021-02-28T08:29:36Z</time>
      </trkpt>
      <trkpt lat="45.13485" lon="6.36809">
        <ele>2687</ele>
        <time>2021-02-28T08:29:37Z</time>
      </trkpt>
      <trkpt lat="45.13485" lon="6.36809">
        <ele>2687.2</ele>
        <time>2021-02-28T08:29:38Z</time>
      </trkpt>
      <trkpt lat="45.13485" lon="6.36809">
        <ele>2687.4</ele>
        <time>2021-02-28T08:29:39Z</time>
      </trkpt>
      <trkpt lat="45.13485" lon="6.36809">
        <ele>2687</ele>
        <time>2021-02-28T08:29:40Z</time>
      </trkpt>
      <trkpt lat="45.13485" lon="6.36809">
        <ele>2687</ele>
        <time>2021-02-28T08:29:41Z</time>
      </trkpt>
      <trkpt lat="45.13485" lon="6.36809">
        <ele>2687</ele>
        <time>2021-02-28T08:29:42Z</time>
      </trkpt>
      <trkpt lat="45.13485" lon="6.36809">
        <ele>2687.2</ele>
        <time>2021-02-28T08:29:43Z</time>
      </trkpt>
      <trkpt lat="45.13485" lon="6.36809">
        <ele>2686.8</ele>
        <time>2021-02-28T08:29:44Z</time>
      </trkpt>
      <trkpt lat="45.13485" lon="6.36809">
        <ele>2686.8</ele>
        <time>2021-02-28T08:29:45Z</time>
      </trkpt>
      <trkpt lat="45.13485" lon="6.36809">
        <ele>2686.8</ele>
        <time>2021-02-28T08:29:46Z</time>
      </trkpt>
      <trkpt lat="45.13485" lon="6.36809">
        <ele>2687</ele>
        <time>2021-02-28T08:29:47Z</time>
      </trkpt>
      <trkpt lat="45.13485" lon="6.36809">
        <ele>2687</ele>
        <time>2021-02-28T08:29:48Z</time>
      </trkpt>
      <trkpt lat="45.13485" lon="6.36809">
        <ele>2687</ele>
        <time>2021-02-28T08:29:49Z</time>
      </trkpt>
      <trkpt lat="45.13485" lon="6.36809">
        <ele>2687.2</ele>
        <time>2021-02-28T08:29:50Z</time>
      </trkpt>
      <trkpt lat="45.13485" lon="6.36809">
        <ele>2687.2</ele>
        <time>2021-02-28T08:29:51Z</time>
      </trkpt>
      <trkpt lat="45.13485" lon="6.36809">
        <ele>2687.2</ele>
        <time>2021-02-28T08:29:52Z</time>
      </trkpt>
      <trkpt lat="45.13485" lon="6.36809">
        <ele>2687.2</ele>
        <time>2021-02-28T08:29:53Z</time>
      </trkpt>
      <trkpt lat="45.13485" lon="6.36809">
        <ele>2687.2</ele>
        <time>2021-02-28T08:29:54Z</time>
      </trkpt>
      <trkpt lat="45.13485" lon="6.36809">
        <ele>2687</ele>
        <time>2021-02-28T08:29:55Z</time>
      </trkpt>
      <trkpt lat="45.13485" lon="6.36809">
        <ele>2687.6</ele>
        <time>2021-02-28T08:29:56Z</time>
      </trkpt>
      <trkpt lat="45.13485" lon="6.36809">
        <ele>2687.6</ele>
        <time>2021-02-28T08:29:57Z</time>
      </trkpt>
      <trkpt lat="45.13484" lon="6.36812">
        <ele>2687</ele>
        <time>2021-02-28T08:29:58Z</time>
      </trkpt>
      <trkpt lat="45.13484" lon="6.36812">
        <ele>2687</ele>
        <time>2021-02-28T08:29:59Z</time>
      </trkpt>
      <trkpt lat="45.13484" lon="6.36812">
        <ele>2686.6</ele>
        <time>2021-02-28T08:30:00Z</time>
      </trkpt>
      <trkpt lat="45.13484" lon="6.36812">
        <ele>2686.4</ele>
        <time>2021-02-28T08:30:01Z</time>
      </trkpt>
      <trkpt lat="45.13484" lon="6.36812">
        <ele>2686.6</ele>
        <time>2021-02-28T08:30:02Z</time>
      </trkpt>
      <trkpt lat="45.13484" lon="6.36812">
        <ele>2686.6</ele>
        <time>2021-02-28T08:30:03Z</time>
      </trkpt>
      <trkpt lat="45.13484" lon="6.36817">
        <ele>2686.4</ele>
        <time>2021-02-28T08:30:04Z</time>
      </trkpt>
      <trkpt lat="45.13484" lon="6.36821">
        <ele>2686.4</ele>
        <time>2021-02-28T08:30:05Z</time>
      </trkpt>
      <trkpt lat="45.13484" lon="6.36827">
        <ele>2686</ele>
        <time>2021-02-28T08:30:06Z</time>
      </trkpt>
      <trkpt lat="45.13484" lon="6.36834">
        <ele>2685</ele>
        <time>2021-02-28T08:30:07Z</time>
      </trkpt>
      <trkpt lat="45.13484" lon="6.36843">
        <ele>2684.8</ele>
        <time>2021-02-28T08:30:08Z</time>
      </trkpt>
      <trkpt lat="45.13485" lon="6.36852">
        <ele>2683.8</ele>
        <time>2021-02-28T08:30:09Z</time>
      </trkpt>
      <trkpt lat="45.13486" lon="6.36862">
        <ele>2682.6</ele>
        <time>2021-02-28T08:30:10Z</time>
      </trkpt>
      <trkpt lat="45.13487" lon="6.36873">
        <ele>2681</ele>
        <time>2021-02-28T08:30:11Z</time>
      </trkpt>
      <trkpt lat="45.13488" lon="6.36885">
        <ele>2679.2</ele>
        <time>2021-02-28T08:30:12Z</time>
      </trkpt>
      <trkpt lat="45.13489" lon="6.36896">
        <ele>2678.6</ele>
        <time>2021-02-28T08:30:13Z</time>
      </trkpt>
      <trkpt lat="45.1349" lon="6.36908">
        <ele>2676.6</ele>
        <time>2021-02-28T08:30:14Z</time>
      </trkpt>
      <trkpt lat="45.1349" lon="6.36908">
        <ele>2675</ele>
        <time>2021-02-28T08:30:15Z</time>
      </trkpt>
      <trkpt lat="45.13492" lon="6.36933">
        <ele>2673</ele>
        <time>2021-02-28T08:30:16Z</time>
      </trkpt>
      <trkpt lat="45.13491" lon="6.36953">
        <ele>2671.4</ele>
        <time>2021-02-28T08:30:17Z</time>
      </trkpt>
      <trkpt lat="45.1349" lon="6.3696">
        <ele>2670.8</ele>
        <time>2021-02-28T08:30:18Z</time>
      </trkpt>
      <trkpt lat="45.13489" lon="6.36973">
        <ele>2669</ele>
        <time>2021-02-28T08:30:19Z</time>
      </trkpt>
      <trkpt lat="45.13487" lon="6.36985">
        <ele>2668.4</ele>
        <time>2021-02-28T08:30:20Z</time>
      </trkpt>
      <trkpt lat="45.13487" lon="6.36985">
        <ele>2667</ele>
        <time>2021-02-28T08:30:21Z</time>
      </trkpt>
      <trkpt lat="45.13483" lon="6.37008">
        <ele>2666.4</ele>
        <time>2021-02-28T08:30:22Z</time>
      </trkpt>
      <trkpt lat="45.13483" lon="6.37013">
        <ele>2665.8</ele>
        <time>2021-02-28T08:30:23Z</time>
      </trkpt>
      <trkpt lat="45.13482" lon="6.37018">
        <ele>2664.6</ele>
        <time>2021-02-28T08:30:24Z</time>
      </trkpt>
      <trkpt lat="45.1348" lon="6.37033">
        <ele>2663.8</ele>
        <time>2021-02-28T08:30:25Z</time>
      </trkpt>
      <trkpt lat="45.13479" lon="6.37038">
        <ele>2662.8</ele>
        <time>2021-02-28T08:30:26Z</time>
      </trkpt>
      <trkpt lat="45.13477" lon="6.37052">
        <ele>2662.4</ele>
        <time>2021-02-28T08:30:27Z</time>
      </trkpt>
      <trkpt lat="45.13477" lon="6.37057">
        <ele>2661.6</ele>
        <time>2021-02-28T08:30:28Z</time>
      </trkpt>
      <trkpt lat="45.13475" lon="6.37071">
        <ele>2661.4</ele>
        <time>2021-02-28T08:30:29Z</time>
      </trkpt>
      <trkpt lat="45.13473" lon="6.37076">
        <ele>2660.2</ele>
        <time>2021-02-28T08:30:30Z</time>
      </trkpt>
      <trkpt lat="45.1347" lon="6.37087">
        <ele>2659.8</ele>
        <time>2021-02-28T08:30:31Z</time>
      </trkpt>
      <trkpt lat="45.13468" lon="6.3709">
        <ele>2659.4</ele>
        <time>2021-02-28T08:30:32Z</time>
      </trkpt>
      <trkpt lat="45.13464" lon="6.37101">
        <ele>2659</ele>
        <time>2021-02-28T08:30:33Z</time>
      </trkpt>
      <trkpt lat="45.13463" lon="6.37106">
        <ele>2658.6</ele>
        <time>2021-02-28T08:30:34Z</time>
      </trkpt>
      <trkpt lat="45.13461" lon="6.37117">
        <ele>2657.8</ele>
        <time>2021-02-28T08:30:35Z</time>
      </trkpt>
      <trkpt lat="45.13461" lon="6.3712">
        <ele>2657.2</ele>
        <time>2021-02-28T08:30:36Z</time>
      </trkpt>
      <trkpt lat="45.1346" lon="6.37122">
        <ele>2657.2</ele>
        <time>2021-02-28T08:30:37Z</time>
      </trkpt>
      <trkpt lat="45.13458" lon="6.37132">
        <ele>2656.2</ele>
        <time>2021-02-28T08:30:38Z</time>
      </trkpt>
      <trkpt lat="45.13457" lon="6.37135">
        <ele>2656.4</ele>
        <time>2021-02-28T08:30:39Z</time>
      </trkpt>
      <trkpt lat="45.13454" lon="6.37141">
        <ele>2656</ele>
        <time>2021-02-28T08:30:40Z</time>
      </trkpt>
      <trkpt lat="45.13454" lon="6.37141">
        <ele>2656.6</ele>
        <time>2021-02-28T08:30:41Z</time>
      </trkpt>
      <trkpt lat="45.13451" lon="6.37161">
        <ele>2656.6</ele>
        <time>2021-02-28T08:30:42Z</time>
      </trkpt>
      <trkpt lat="45.1345" lon="6.37164">
        <ele>2656.4</ele>
        <time>2021-02-28T08:30:43Z</time>
      </trkpt>
      <trkpt lat="45.1345" lon="6.37167">
        <ele>2656.6</ele>
        <time>2021-02-28T08:30:44Z</time>
      </trkpt>
      <trkpt lat="45.13447" lon="6.37178">
        <ele>2656.8</ele>
        <time>2021-02-28T08:30:45Z</time>
      </trkpt>
      <trkpt lat="45.13446" lon="6.37181">
        <ele>2656.2</ele>
        <time>2021-02-28T08:30:46Z</time>
      </trkpt>
      <trkpt lat="45.13446" lon="6.37183">
        <ele>2654.6</ele>
        <time>2021-02-28T08:30:47Z</time>
      </trkpt>
      <trkpt lat="45.13443" lon="6.37191">
        <ele>2654.6</ele>
        <time>2021-02-28T08:30:48Z</time>
      </trkpt>
      <trkpt lat="45.13443" lon="6.37191">
        <ele>2654.2</ele>
        <time>2021-02-28T08:30:49Z</time>
      </trkpt>
      <trkpt lat="45.13443" lon="6.37191">
        <ele>2654.4</ele>
        <time>2021-02-28T08:30:50Z</time>
      </trkpt>
      <trkpt lat="45.13442" lon="6.37195">
        <ele>2654.4</ele>
        <time>2021-02-28T08:30:51Z</time>
      </trkpt>
      <trkpt lat="45.13441" lon="6.37199">
        <ele>2654.2</ele>
        <time>2021-02-28T08:30:52Z</time>
      </trkpt>
      <trkpt lat="45.13441" lon="6.37203">
        <ele>2654.4</ele>
        <time>2021-02-28T08:30:53Z</time>
      </trkpt>
      <trkpt lat="45.1344" lon="6.37207">
        <ele>2654.2</ele>
        <time>2021-02-28T08:30:54Z</time>
      </trkpt>
      <trkpt lat="45.13438" lon="6.3721">
        <ele>2654.4</ele>
        <time>2021-02-28T08:30:55Z</time>
      </trkpt>
      <trkpt lat="45.13436" lon="6.37212">
        <ele>2653.8</ele>
        <time>2021-02-28T08:30:56Z</time>
      </trkpt>
      <trkpt lat="45.13434" lon="6.37215">
        <ele>2654</ele>
        <time>2021-02-28T08:30:57Z</time>
      </trkpt>
      <trkpt lat="45.13432" lon="6.37218">
        <ele>2654.6</ele>
        <time>2021-02-28T08:30:58Z</time>
      </trkpt>
      <trkpt lat="45.13431" lon="6.37222">
        <ele>2653.8</ele>
        <time>2021-02-28T08:30:59Z</time>
      </trkpt>
      <trkpt lat="45.13429" lon="6.37227">
        <ele>2653.2</ele>
        <time>2021-02-28T08:31:00Z</time>
      </trkpt>
      <trkpt lat="45.13428" lon="6.37231">
        <ele>2653</ele>
        <time>2021-02-28T08:31:01Z</time>
      </trkpt>
      <trkpt lat="45.13426" lon="6.37236">
        <ele>2652.6</ele>
        <time>2021-02-28T08:31:02Z</time>
      </trkpt>
      <trkpt lat="45.13425" lon="6.37241">
        <ele>2652.6</ele>
        <time>2021-02-28T08:31:03Z</time>
      </trkpt>
      <trkpt lat="45.1342" lon="6.3725">
        <ele>2652.4</ele>
        <time>2021-02-28T08:31:04Z</time>
      </trkpt>
      <trkpt lat="45.13419" lon="6.37253">
        <ele>2652</ele>
        <time>2021-02-28T08:31:05Z</time>
      </trkpt>
      <trkpt lat="45.13417" lon="6.37263">
        <ele>2651.8</ele>
        <time>2021-02-28T08:31:06Z</time>
      </trkpt>
      <trkpt lat="45.13416" lon="6.37267">
        <ele>2651.6</ele>
        <time>2021-02-28T08:31:07Z</time>
      </trkpt>
      <trkpt lat="45.13415" lon="6.37271">
        <ele>2651.4</ele>
        <time>2021-02-28T08:31:08Z</time>
      </trkpt>
      <trkpt lat="45.13413" lon="6.37279">
        <ele>2651.2</ele>
        <time>2021-02-28T08:31:09Z</time>
      </trkpt>
      <trkpt lat="45.13412" lon="6.37287">
        <ele>2650.2</ele>
        <time>2021-02-28T08:31:10Z</time>
      </trkpt>
      <trkpt lat="45.1341" lon="6.37296">
        <ele>2649.2</ele>
        <time>2021-02-28T08:31:11Z</time>
      </trkpt>
      <trkpt lat="45.13408" lon="6.37305">
        <ele>2648.4</ele>
        <time>2021-02-28T08:31:12Z</time>
      </trkpt>
      <trkpt lat="45.13406" lon="6.37314">
        <ele>2647.4</ele>
        <time>2021-02-28T08:31:13Z</time>
      </trkpt>
      <trkpt lat="45.13405" lon="6.37322">
        <ele>2646.4</ele>
        <time>2021-02-28T08:31:14Z</time>
      </trkpt>
      <trkpt lat="45.13403" lon="6.3733">
        <ele>2645.8</ele>
        <time>2021-02-28T08:31:15Z</time>
      </trkpt>
      <trkpt lat="45.13401" lon="6.37338">
        <ele>2644.4</ele>
        <time>2021-02-28T08:31:16Z</time>
      </trkpt>
      <trkpt lat="45.134" lon="6.37345">
        <ele>2643.8</ele>
        <time>2021-02-28T08:31:17Z</time>
      </trkpt>
      <trkpt lat="45.13399" lon="6.37352">
        <ele>2643</ele>
        <time>2021-02-28T08:31:18Z</time>
      </trkpt>
      <trkpt lat="45.13398" lon="6.37358">
        <ele>2642.2</ele>
        <time>2021-02-28T08:31:19Z</time>
      </trkpt>
      <trkpt lat="45.13397" lon="6.37363">
        <ele>2641.6</ele>
        <time>2021-02-28T08:31:20Z</time>
      </trkpt>
      <trkpt lat="45.13396" lon="6.37368">
        <ele>2641.6</ele>
        <time>2021-02-28T08:31:21Z</time>
      </trkpt>
      <trkpt lat="45.13396" lon="6.37374">
        <ele>2641.2</ele>
        <time>2021-02-28T08:31:22Z</time>
      </trkpt>
      <trkpt lat="45.13397" lon="6.37379">
        <ele>2641</ele>
        <time>2021-02-28T08:31:23Z</time>
      </trkpt>
      <trkpt lat="45.13397" lon="6.37386">
        <ele>2640.6</ele>
        <time>2021-02-28T08:31:24Z</time>
      </trkpt>
      <trkpt lat="45.13398" lon="6.37392">
        <ele>2640.2</ele>
        <time>2021-02-28T08:31:25Z</time>
      </trkpt>
      <trkpt lat="45.13399" lon="6.37398">
        <ele>2640.2</ele>
        <time>2021-02-28T08:31:26Z</time>
      </trkpt>
      <trkpt lat="45.134" lon="6.37404">
        <ele>2639.8</ele>
        <time>2021-02-28T08:31:27Z</time>
      </trkpt>
      <trkpt lat="45.13401" lon="6.3741">
        <ele>2639.2</ele>
        <time>2021-02-28T08:31:28Z</time>
      </trkpt>
      <trkpt lat="45.13401" lon="6.37415">
        <ele>2638.4</ele>
        <time>2021-02-28T08:31:29Z</time>
      </trkpt>
      <trkpt lat="45.13402" lon="6.3742">
        <ele>2638.4</ele>
        <time>2021-02-28T08:31:30Z</time>
      </trkpt>
      <trkpt lat="45.13402" lon="6.37425">
        <ele>2638.4</ele>
        <time>2021-02-28T08:31:31Z</time>
      </trkpt>
      <trkpt lat="45.13402" lon="6.37425">
        <ele>2638.6</ele>
        <time>2021-02-28T08:31:32Z</time>
      </trkpt>
      <trkpt lat="45.13402" lon="6.37425">
        <ele>2638.8</ele>
        <time>2021-02-28T08:31:33Z</time>
      </trkpt>
      <trkpt lat="45.13402" lon="6.37441">
        <ele>2637.6</ele>
        <time>2021-02-28T08:31:34Z</time>
      </trkpt>
      <trkpt lat="45.13402" lon="6.37443">
        <ele>2637.4</ele>
        <time>2021-02-28T08:31:35Z</time>
      </trkpt>
      <trkpt lat="45.13402" lon="6.37445">
        <ele>2637.8</ele>
        <time>2021-02-28T08:31:36Z</time>
      </trkpt>
      <trkpt lat="45.13402" lon="6.37452">
        <ele>2637.6</ele>
        <time>2021-02-28T08:31:37Z</time>
      </trkpt>
      <trkpt lat="45.13402" lon="6.37452">
        <ele>2637.8</ele>
        <time>2021-02-28T08:31:38Z</time>
      </trkpt>
      <trkpt lat="45.13402" lon="6.37452">
        <ele>2637.8</ele>
        <time>2021-02-28T08:31:39Z</time>
      </trkpt>
      <trkpt lat="45.13402" lon="6.37455">
        <ele>2637.2</ele>
        <time>2021-02-28T08:31:40Z</time>
      </trkpt>
      <trkpt lat="45.13402" lon="6.37459">
        <ele>2637.8</ele>
        <time>2021-02-28T08:31:41Z</time>
      </trkpt>
      <trkpt lat="45.13402" lon="6.37462">
        <ele>2637.8</ele>
        <time>2021-02-28T08:31:42Z</time>
      </trkpt>
      <trkpt lat="45.13402" lon="6.37465">
        <ele>2638</ele>
        <time>2021-02-28T08:31:43Z</time>
      </trkpt>
      <trkpt lat="45.13394" lon="6.37483">
        <ele>2637.6</ele>
        <time>2021-02-28T08:31:44Z</time>
      </trkpt>
      <trkpt lat="45.13393" lon="6.37488">
        <ele>2637.2</ele>
        <time>2021-02-28T08:31:45Z</time>
      </trkpt>
      <trkpt lat="45.13392" lon="6.37493">
        <ele>2636</ele>
        <time>2021-02-28T08:31:46Z</time>
      </trkpt>
      <trkpt lat="45.13386" lon="6.37511">
        <ele>2634.8</ele>
        <time>2021-02-28T08:31:47Z</time>
      </trkpt>
      <trkpt lat="45.13384" lon="6.37516">
        <ele>2634.2</ele>
        <time>2021-02-28T08:31:48Z</time>
      </trkpt>
      <trkpt lat="45.13381" lon="6.37525">
        <ele>2633.2</ele>
        <time>2021-02-28T08:31:49Z</time>
      </trkpt>
      <trkpt lat="45.13378" lon="6.37534">
        <ele>2632.6</ele>
        <time>2021-02-28T08:31:50Z</time>
      </trkpt>
      <trkpt lat="45.13375" lon="6.37543">
        <ele>2631.8</ele>
        <time>2021-02-28T08:31:51Z</time>
      </trkpt>
      <trkpt lat="45.13371" lon="6.37551">
        <ele>2630.2</ele>
        <time>2021-02-28T08:31:52Z</time>
      </trkpt>
      <trkpt lat="45.13367" lon="6.37558">
        <ele>2630</ele>
        <time>2021-02-28T08:31:53Z</time>
      </trkpt>
      <trkpt lat="45.13364" lon="6.37564">
        <ele>2629.6</ele>
        <time>2021-02-28T08:31:54Z</time>
      </trkpt>
      <trkpt lat="45.1336" lon="6.3757">
        <ele>2629.2</ele>
        <time>2021-02-28T08:31:55Z</time>
      </trkpt>
      <trkpt lat="45.13356" lon="6.37575">
        <ele>2628.8</ele>
        <time>2021-02-28T08:31:56Z</time>
      </trkpt>
      <trkpt lat="45.13352" lon="6.3758">
        <ele>2629</ele>
        <time>2021-02-28T08:31:57Z</time>
      </trkpt>
      <trkpt lat="45.1335" lon="6.37585">
        <ele>2628.2</ele>
        <time>2021-02-28T08:31:58Z</time>
      </trkpt>
      <trkpt lat="45.1335" lon="6.37585">
        <ele>2628.2</ele>
        <time>2021-02-28T08:31:59Z</time>
      </trkpt>
      <trkpt lat="45.13343" lon="6.37593">
        <ele>2627.6</ele>
        <time>2021-02-28T08:32:00Z</time>
      </trkpt>
      <trkpt lat="45.13343" lon="6.37593">
        <ele>2627</ele>
        <time>2021-02-28T08:32:01Z</time>
      </trkpt>
      <trkpt lat="45.13343" lon="6.37593">
        <ele>2626.4</ele>
        <time>2021-02-28T08:32:02Z</time>
      </trkpt>
      <trkpt lat="45.13333" lon="6.37607">
        <ele>2626.2</ele>
        <time>2021-02-28T08:32:03Z</time>
      </trkpt>
      <trkpt lat="45.13331" lon="6.37609">
        <ele>2626.2</ele>
        <time>2021-02-28T08:32:04Z</time>
      </trkpt>
      <trkpt lat="45.1333" lon="6.3761">
        <ele>2625.8</ele>
        <time>2021-02-28T08:32:05Z</time>
      </trkpt>
      <trkpt lat="45.13323" lon="6.3762">
        <ele>2625.6</ele>
        <time>2021-02-28T08:32:06Z</time>
      </trkpt>
      <trkpt lat="45.13319" lon="6.37625">
        <ele>2624.8</ele>
        <time>2021-02-28T08:32:07Z</time>
      </trkpt>
      <trkpt lat="45.13315" lon="6.37629">
        <ele>2624.6</ele>
        <time>2021-02-28T08:32:08Z</time>
      </trkpt>
      <trkpt lat="45.13311" lon="6.37634">
        <ele>2623.4</ele>
        <time>2021-02-28T08:32:09Z</time>
      </trkpt>
      <trkpt lat="45.13308" lon="6.37636">
        <ele>2623.8</ele>
        <time>2021-02-28T08:32:10Z</time>
      </trkpt>
      <trkpt lat="45.13306" lon="6.37639">
        <ele>2623.6</ele>
        <time>2021-02-28T08:32:11Z</time>
      </trkpt>
      <trkpt lat="45.13299" lon="6.37645">
        <ele>2623.6</ele>
        <time>2021-02-28T08:32:12Z</time>
      </trkpt>
      <trkpt lat="45.13298" lon="6.37646">
        <ele>2622.8</ele>
        <time>2021-02-28T08:32:13Z</time>
      </trkpt>
      <trkpt lat="45.13296" lon="6.37647">
        <ele>2621.8</ele>
        <time>2021-02-28T08:32:14Z</time>
      </trkpt>
      <trkpt lat="45.13289" lon="6.37652">
        <ele>2622.2</ele>
        <time>2021-02-28T08:32:15Z</time>
      </trkpt>
      <trkpt lat="45.13288" lon="6.37653">
        <ele>2622.8</ele>
        <time>2021-02-28T08:32:16Z</time>
      </trkpt>
      <trkpt lat="45.13286" lon="6.37655">
        <ele>2621.6</ele>
        <time>2021-02-28T08:32:17Z</time>
      </trkpt>
      <trkpt lat="45.13279" lon="6.3766">
        <ele>2622</ele>
        <time>2021-02-28T08:32:18Z</time>
      </trkpt>
      <trkpt lat="45.13277" lon="6.37662">
        <ele>2621.8</ele>
        <time>2021-02-28T08:32:19Z</time>
      </trkpt>
      <trkpt lat="45.13275" lon="6.37663">
        <ele>2621.6</ele>
        <time>2021-02-28T08:32:20Z</time>
      </trkpt>
      <trkpt lat="45.13267" lon="6.37668">
        <ele>2621</ele>
        <time>2021-02-28T08:32:21Z</time>
      </trkpt>
      <trkpt lat="45.13265" lon="6.37669">
        <ele>2620.8</ele>
        <time>2021-02-28T08:32:22Z</time>
      </trkpt>
      <trkpt lat="45.13264" lon="6.3767">
        <ele>2620.2</ele>
        <time>2021-02-28T08:32:23Z</time>
      </trkpt>
      <trkpt lat="45.13254" lon="6.37678">
        <ele>2619.2</ele>
        <time>2021-02-28T08:32:24Z</time>
      </trkpt>
      <trkpt lat="45.13249" lon="6.37683">
        <ele>2618.4</ele>
        <time>2021-02-28T08:32:25Z</time>
      </trkpt>
      <trkpt lat="45.13237" lon="6.37694">
        <ele>2617.6</ele>
        <time>2021-02-28T08:32:26Z</time>
      </trkpt>
      <trkpt lat="45.13233" lon="6.37696">
        <ele>2616</ele>
        <time>2021-02-28T08:32:27Z</time>
      </trkpt>
      <trkpt lat="45.13227" lon="6.37702">
        <ele>2614.4</ele>
        <time>2021-02-28T08:32:28Z</time>
      </trkpt>
      <trkpt lat="45.13227" lon="6.37702">
        <ele>2613.8</ele>
        <time>2021-02-28T08:32:29Z</time>
      </trkpt>
      <trkpt lat="45.13216" lon="6.37712">
        <ele>2613.2</ele>
        <time>2021-02-28T08:32:30Z</time>
      </trkpt>
      <trkpt lat="45.13207" lon="6.3772">
        <ele>2612.2</ele>
        <time>2021-02-28T08:32:31Z</time>
      </trkpt>
      <trkpt lat="45.13204" lon="6.37722">
        <ele>2610.6</ele>
        <time>2021-02-28T08:32:32Z</time>
      </trkpt>
      <trkpt lat="45.13199" lon="6.37728">
        <ele>2609.8</ele>
        <time>2021-02-28T08:32:33Z</time>
      </trkpt>
      <trkpt lat="45.13193" lon="6.37733">
        <ele>2608.8</ele>
        <time>2021-02-28T08:32:34Z</time>
      </trkpt>
      <trkpt lat="45.13187" lon="6.37738">
        <ele>2607.8</ele>
        <time>2021-02-28T08:32:35Z</time>
      </trkpt>
      <trkpt lat="45.13182" lon="6.37743">
        <ele>2607</ele>
        <time>2021-02-28T08:32:36Z</time>
      </trkpt>
      <trkpt lat="45.13174" lon="6.37749">
        <ele>2606.2</ele>
        <time>2021-02-28T08:32:37Z</time>
      </trkpt>
      <trkpt lat="45.13169" lon="6.37753">
        <ele>2606.2</ele>
        <time>2021-02-28T08:32:38Z</time>
      </trkpt>
      <trkpt lat="45.13164" lon="6.37757">
        <ele>2606.4</ele>
        <time>2021-02-28T08:32:39Z</time>
      </trkpt>
      <trkpt lat="45.13159" lon="6.37761">
        <ele>2605.6</ele>
        <time>2021-02-28T08:32:40Z</time>
      </trkpt>
      <trkpt lat="45.13155" lon="6.37766">
        <ele>2605</ele>
        <time>2021-02-28T08:32:41Z</time>
      </trkpt>
      <trkpt lat="45.13151" lon="6.3777">
        <ele>2603.8</ele>
        <time>2021-02-28T08:32:42Z</time>
      </trkpt>
      <trkpt lat="45.13147" lon="6.37774">
        <ele>2603.2</ele>
        <time>2021-02-28T08:32:43Z</time>
      </trkpt>
      <trkpt lat="45.13144" lon="6.37778">
        <ele>2602.6</ele>
        <time>2021-02-28T08:32:44Z</time>
      </trkpt>
      <trkpt lat="45.13141" lon="6.37783">
        <ele>2602</ele>
        <time>2021-02-28T08:32:45Z</time>
      </trkpt>
      <trkpt lat="45.13138" lon="6.37788">
        <ele>2600.6</ele>
        <time>2021-02-28T08:32:46Z</time>
      </trkpt>
      <trkpt lat="45.13136" lon="6.37793">
        <ele>2600</ele>
        <time>2021-02-28T08:32:47Z</time>
      </trkpt>
      <trkpt lat="45.13133" lon="6.37798">
        <ele>2599.4</ele>
        <time>2021-02-28T08:32:48Z</time>
      </trkpt>
      <trkpt lat="45.13131" lon="6.37802">
        <ele>2598.6</ele>
        <time>2021-02-28T08:32:49Z</time>
      </trkpt>
      <trkpt lat="45.13129" lon="6.37807">
        <ele>2597.8</ele>
        <time>2021-02-28T08:32:50Z</time>
      </trkpt>
      <trkpt lat="45.13128" lon="6.37811">
        <ele>2597.4</ele>
        <time>2021-02-28T08:32:51Z</time>
      </trkpt>
      <trkpt lat="45.13126" lon="6.37815">
        <ele>2597</ele>
        <time>2021-02-28T08:32:52Z</time>
      </trkpt>
      <trkpt lat="45.13126" lon="6.37815">
        <ele>2597.4</ele>
        <time>2021-02-28T08:32:53Z</time>
      </trkpt>
      <trkpt lat="45.13123" lon="6.37823">
        <ele>2597</ele>
        <time>2021-02-28T08:32:54Z</time>
      </trkpt>
      <trkpt lat="45.13121" lon="6.3783">
        <ele>2596.2</ele>
        <time>2021-02-28T08:32:55Z</time>
      </trkpt>
      <trkpt lat="45.1312" lon="6.37832">
        <ele>2596.2</ele>
        <time>2021-02-28T08:32:56Z</time>
      </trkpt>
      <trkpt lat="45.13119" lon="6.37836">
        <ele>2596.4</ele>
        <time>2021-02-28T08:32:57Z</time>
      </trkpt>
      <trkpt lat="45.13117" lon="6.37839">
        <ele>2596</ele>
        <time>2021-02-28T08:32:58Z</time>
      </trkpt>
      <trkpt lat="45.13116" lon="6.37843">
        <ele>2596.2</ele>
        <time>2021-02-28T08:32:59Z</time>
      </trkpt>
      <trkpt lat="45.13115" lon="6.37847">
        <ele>2595.8</ele>
        <time>2021-02-28T08:33:00Z</time>
      </trkpt>
      <trkpt lat="45.13114" lon="6.37851">
        <ele>2595</ele>
        <time>2021-02-28T08:33:01Z</time>
      </trkpt>
      <trkpt lat="45.13113" lon="6.37855">
        <ele>2594.4</ele>
        <time>2021-02-28T08:33:02Z</time>
      </trkpt>
      <trkpt lat="45.13112" lon="6.3786">
        <ele>2593.8</ele>
        <time>2021-02-28T08:33:03Z</time>
      </trkpt>
      <trkpt lat="45.13111" lon="6.37864">
        <ele>2593.4</ele>
        <time>2021-02-28T08:33:04Z</time>
      </trkpt>
      <trkpt lat="45.13111" lon="6.37867">
        <ele>2593.2</ele>
        <time>2021-02-28T08:33:05Z</time>
      </trkpt>
      <trkpt lat="45.13111" lon="6.37871">
        <ele>2593</ele>
        <time>2021-02-28T08:33:06Z</time>
      </trkpt>
      <trkpt lat="45.13111" lon="6.37874">
        <ele>2592.8</ele>
        <time>2021-02-28T08:33:07Z</time>
      </trkpt>
      <trkpt lat="45.13111" lon="6.37874">
        <ele>2592.8</ele>
        <time>2021-02-28T08:33:08Z</time>
      </trkpt>
      <trkpt lat="45.13111" lon="6.37874">
        <ele>2592.6</ele>
        <time>2021-02-28T08:33:09Z</time>
      </trkpt>
      <trkpt lat="45.13111" lon="6.37874">
        <ele>2592.2</ele>
        <time>2021-02-28T08:33:10Z</time>
      </trkpt>
      <trkpt lat="45.13111" lon="6.37874">
        <ele>2591.2</ele>
        <time>2021-02-28T08:33:11Z</time>
      </trkpt>
      <trkpt lat="45.13111" lon="6.37874">
        <ele>2591.2</ele>
        <time>2021-02-28T08:33:12Z</time>
      </trkpt>
      <trkpt lat="45.13111" lon="6.37874">
        <ele>2591</ele>
        <time>2021-02-28T08:33:13Z</time>
      </trkpt>
      <trkpt lat="45.13111" lon="6.37874">
        <ele>2591.2</ele>
        <time>2021-02-28T08:33:14Z</time>
      </trkpt>
      <trkpt lat="45.13111" lon="6.37874">
        <ele>2591.4</ele>
        <time>2021-02-28T08:33:15Z</time>
      </trkpt>
      <trkpt lat="45.13111" lon="6.37874">
        <ele>2591.2</ele>
        <time>2021-02-28T08:33:16Z</time>
      </trkpt>
      <trkpt lat="45.13111" lon="6.37877">
        <ele>2591.4</ele>
        <time>2021-02-28T08:33:17Z</time>
      </trkpt>
      <trkpt lat="45.13111" lon="6.37877">
        <ele>2592.6</ele>
        <time>2021-02-28T08:33:18Z</time>
      </trkpt>
      <trkpt lat="45.13111" lon="6.37877">
        <ele>2592.8</ele>
        <time>2021-02-28T08:33:19Z</time>
      </trkpt>
      <trkpt lat="45.13111" lon="6.37877">
        <ele>2592.4</ele>
        <time>2021-02-28T08:33:20Z</time>
      </trkpt>
      <trkpt lat="45.13111" lon="6.37877">
        <ele>2592.4</ele>
        <time>2021-02-28T08:33:21Z</time>
      </trkpt>
      <trkpt lat="45.13111" lon="6.37877">
        <ele>2592.6</ele>
        <time>2021-02-28T08:33:22Z</time>
      </trkpt>
      <trkpt lat="45.13111" lon="6.37877">
        <ele>2592.6</ele>
        <time>2021-02-28T08:33:23Z</time>
      </trkpt>
      <trkpt lat="45.13111" lon="6.37877">
        <ele>2592.6</ele>
        <time>2021-02-28T08:33:24Z</time>
      </trkpt>
      <trkpt lat="45.13111" lon="6.37877">
        <ele>2593</ele>
        <time>2021-02-28T08:33:25Z</time>
      </trkpt>
      <trkpt lat="45.13111" lon="6.37877">
        <ele>2592.8</ele>
        <time>2021-02-28T08:33:26Z</time>
      </trkpt>
      <trkpt lat="45.13111" lon="6.37877">
        <ele>2593.2</ele>
        <time>2021-02-28T08:33:27Z</time>
      </trkpt>
      <trkpt lat="45.13111" lon="6.37877">
        <ele>2593.4</ele>
        <time>2021-02-28T08:33:28Z</time>
      </trkpt>
      <trkpt lat="45.13111" lon="6.37877">
        <ele>2593.8</ele>
        <time>2021-02-28T08:33:29Z</time>
      </trkpt>
      <trkpt lat="45.13111" lon="6.37877">
        <ele>2593.6</ele>
        <time>2021-02-28T08:33:30Z</time>
      </trkpt>
      <trkpt lat="45.13111" lon="6.37877">
        <ele>2593.4</ele>
        <time>2021-02-28T08:33:31Z</time>
      </trkpt>
      <trkpt lat="45.13111" lon="6.37877">
        <ele>2593.2</ele>
        <time>2021-02-28T08:33:32Z</time>
      </trkpt>
      <trkpt lat="45.13111" lon="6.37877">
        <ele>2593.2</ele>
        <time>2021-02-28T08:33:33Z</time>
      </trkpt>
      <trkpt lat="45.13111" lon="6.37877">
        <ele>2593.2</ele>
        <time>2021-02-28T08:33:34Z</time>
      </trkpt>
      <trkpt lat="45.13111" lon="6.37877">
        <ele>2592.8</ele>
        <time>2021-02-28T08:33:35Z</time>
      </trkpt>
      <trkpt lat="45.13111" lon="6.37877">
        <ele>2592.8</ele>
        <time>2021-02-28T08:33:36Z</time>
      </trkpt>
      <trkpt lat="45.13111" lon="6.37877">
        <ele>2592.8</ele>
        <time>2021-02-28T08:33:37Z</time>
      </trkpt>
      <trkpt lat="45.13111" lon="6.37877">
        <ele>2592.8</ele>
        <time>2021-02-28T08:33:38Z</time>
      </trkpt>
      <trkpt lat="45.13111" lon="6.37877">
        <ele>2592.8</ele>
        <time>2021-02-28T08:33:39Z</time>
      </trkpt>
      <trkpt lat="45.13111" lon="6.37877">
        <ele>2592.8</ele>
        <time>2021-02-28T08:33:40Z</time>
      </trkpt>
      <trkpt lat="45.13111" lon="6.37877">
        <ele>2593</ele>
        <time>2021-02-28T08:33:41Z</time>
      </trkpt>
      <trkpt lat="45.13111" lon="6.37877">
        <ele>2593</ele>
        <time>2021-02-28T08:33:42Z</time>
      </trkpt>
      <trkpt lat="45.13111" lon="6.37877">
        <ele>2593.2</ele>
        <time>2021-02-28T08:33:43Z</time>
      </trkpt>
      <trkpt lat="45.13111" lon="6.37877">
        <ele>2593.2</ele>
        <time>2021-02-28T08:33:44Z</time>
      </trkpt>
      <trkpt lat="45.13111" lon="6.37877">
        <ele>2593.4</ele>
        <time>2021-02-28T08:33:45Z</time>
      </trkpt>
      <trkpt lat="45.13112" lon="6.37875">
        <ele>2593</ele>
        <time>2021-02-28T08:33:46Z</time>
      </trkpt>
      <trkpt lat="45.13112" lon="6.37875">
        <ele>2592.4</ele>
        <time>2021-02-28T08:33:47Z</time>
      </trkpt>
      <trkpt lat="45.13112" lon="6.37875">
        <ele>2592.8</ele>
        <time>2021-02-28T08:33:48Z</time>
      </trkpt>
      <trkpt lat="45.13112" lon="6.37875">
        <ele>2592.6</ele>
        <time>2021-02-28T08:33:49Z</time>
      </trkpt>
      <trkpt lat="45.13112" lon="6.37875">
        <ele>2592.8</ele>
        <time>2021-02-28T08:33:50Z</time>
      </trkpt>
      <trkpt lat="45.13112" lon="6.37875">
        <ele>2593</ele>
        <time>2021-02-28T08:33:51Z</time>
      </trkpt>
      <trkpt lat="45.13112" lon="6.37875">
        <ele>2593.2</ele>
        <time>2021-02-28T08:33:52Z</time>
      </trkpt>
      <trkpt lat="45.13112" lon="6.37875">
        <ele>2593.2</ele>
        <time>2021-02-28T08:33:53Z</time>
      </trkpt>
      <trkpt lat="45.13112" lon="6.37875">
        <ele>2593.2</ele>
        <time>2021-02-28T08:33:54Z</time>
      </trkpt>
      <trkpt lat="45.13112" lon="6.37875">
        <ele>2593.4</ele>
        <time>2021-02-28T08:33:55Z</time>
      </trkpt>
      <trkpt lat="45.13112" lon="6.37875">
        <ele>2593.4</ele>
        <time>2021-02-28T08:33:56Z</time>
      </trkpt>
      <trkpt lat="45.13112" lon="6.37875">
        <ele>2593.4</ele>
        <time>2021-02-28T08:33:57Z</time>
      </trkpt>
      <trkpt lat="45.13112" lon="6.37875">
        <ele>2593.6</ele>
        <time>2021-02-28T08:33:58Z</time>
      </trkpt>
      <trkpt lat="45.13112" lon="6.37875">
        <ele>2593.6</ele>
        <time>2021-02-28T08:33:59Z</time>
      </trkpt>
      <trkpt lat="45.13112" lon="6.37875">
        <ele>2593.6</ele>
        <time>2021-02-28T08:34:00Z</time>
      </trkpt>
      <trkpt lat="45.13112" lon="6.37875">
        <ele>2593.2</ele>
        <time>2021-02-28T08:34:01Z</time>
      </trkpt>
      <trkpt lat="45.13112" lon="6.37875">
        <ele>2593.6</ele>
        <time>2021-02-28T08:34:02Z</time>
      </trkpt>
      <trkpt lat="45.13112" lon="6.37875">
        <ele>2593.4</ele>
        <time>2021-02-28T08:34:03Z</time>
      </trkpt>
      <trkpt lat="45.13112" lon="6.37875">
        <ele>2593.6</ele>
        <time>2021-02-28T08:34:04Z</time>
      </trkpt>
      <trkpt lat="45.13112" lon="6.37875">
        <ele>2593.8</ele>
        <time>2021-02-28T08:34:05Z</time>
      </trkpt>
      <trkpt lat="45.13112" lon="6.37875">
        <ele>2594</ele>
        <time>2021-02-28T08:34:06Z</time>
      </trkpt>
      <trkpt lat="45.13112" lon="6.37875">
        <ele>2593.8</ele>
        <time>2021-02-28T08:34:07Z</time>
      </trkpt>
      <trkpt lat="45.13112" lon="6.37875">
        <ele>2593.8</ele>
        <time>2021-02-28T08:34:08Z</time>
      </trkpt>
      <trkpt lat="45.13112" lon="6.37875">
        <ele>2593.6</ele>
        <time>2021-02-28T08:34:09Z</time>
      </trkpt>
      <trkpt lat="45.13112" lon="6.37875">
        <ele>2593.2</ele>
        <time>2021-02-28T08:34:10Z</time>
      </trkpt>
      <trkpt lat="45.13113" lon="6.37878">
        <ele>2592.6</ele>
        <time>2021-02-28T08:34:11Z</time>
      </trkpt>
      <trkpt lat="45.13113" lon="6.37878">
        <ele>2592.6</ele>
        <time>2021-02-28T08:34:12Z</time>
      </trkpt>
      <trkpt lat="45.13113" lon="6.37881">
        <ele>2592.6</ele>
        <time>2021-02-28T08:34:13Z</time>
      </trkpt>
      <trkpt lat="45.13112" lon="6.37883">
        <ele>2592</ele>
        <time>2021-02-28T08:34:14Z</time>
      </trkpt>
      <trkpt lat="45.13112" lon="6.37887">
        <ele>2592</ele>
        <time>2021-02-28T08:34:15Z</time>
      </trkpt>
      <trkpt lat="45.13112" lon="6.37891">
        <ele>2591.8</ele>
        <time>2021-02-28T08:34:16Z</time>
      </trkpt>
      <trkpt lat="45.13112" lon="6.37895">
        <ele>2591.8</ele>
        <time>2021-02-28T08:34:17Z</time>
      </trkpt>
      <trkpt lat="45.13112" lon="6.37899">
        <ele>2591.6</ele>
        <time>2021-02-28T08:34:18Z</time>
      </trkpt>
      <trkpt lat="45.13112" lon="6.37904">
        <ele>2591.4</ele>
        <time>2021-02-28T08:34:19Z</time>
      </trkpt>
      <trkpt lat="45.13112" lon="6.37909">
        <ele>2591</ele>
        <time>2021-02-28T08:34:20Z</time>
      </trkpt>
      <trkpt lat="45.13111" lon="6.37915">
        <ele>2590.4</ele>
        <time>2021-02-28T08:34:21Z</time>
      </trkpt>
      <trkpt lat="45.13111" lon="6.37921">
        <ele>2590</ele>
        <time>2021-02-28T08:34:22Z</time>
      </trkpt>
      <trkpt lat="45.13111" lon="6.37927">
        <ele>2589.6</ele>
        <time>2021-02-28T08:34:23Z</time>
      </trkpt>
      <trkpt lat="45.13111" lon="6.37933">
        <ele>2589.6</ele>
        <time>2021-02-28T08:34:24Z</time>
      </trkpt>
      <trkpt lat="45.13111" lon="6.37938">
        <ele>2589</ele>
        <time>2021-02-28T08:34:25Z</time>
      </trkpt>
      <trkpt lat="45.13111" lon="6.37943">
        <ele>2589</ele>
        <time>2021-02-28T08:34:26Z</time>
      </trkpt>
      <trkpt lat="45.13111" lon="6.37948">
        <ele>2588.8</ele>
        <time>2021-02-28T08:34:27Z</time>
      </trkpt>
      <trkpt lat="45.13111" lon="6.37953">
        <ele>2588.6</ele>
        <time>2021-02-28T08:34:28Z</time>
      </trkpt>
      <trkpt lat="45.13111" lon="6.37958">
        <ele>2588.2</ele>
        <time>2021-02-28T08:34:29Z</time>
      </trkpt>
      <trkpt lat="45.13111" lon="6.37963">
        <ele>2587.6</ele>
        <time>2021-02-28T08:34:30Z</time>
      </trkpt>
      <trkpt lat="45.1311" lon="6.37969">
        <ele>2587.2</ele>
        <time>2021-02-28T08:34:31Z</time>
      </trkpt>
      <trkpt lat="45.1311" lon="6.37975">
        <ele>2586.4</ele>
        <time>2021-02-28T08:34:32Z</time>
      </trkpt>
      <trkpt lat="45.13109" lon="6.37982">
        <ele>2585.6</ele>
        <time>2021-02-28T08:34:33Z</time>
      </trkpt>
      <trkpt lat="45.13108" lon="6.3799">
        <ele>2585</ele>
        <time>2021-02-28T08:34:34Z</time>
      </trkpt>
      <trkpt lat="45.13107" lon="6.37997">
        <ele>2584.2</ele>
        <time>2021-02-28T08:34:35Z</time>
      </trkpt>
      <trkpt lat="45.13106" lon="6.38004">
        <ele>2584</ele>
        <time>2021-02-28T08:34:36Z</time>
      </trkpt>
      <trkpt lat="45.13105" lon="6.38011">
        <ele>2583.4</ele>
        <time>2021-02-28T08:34:37Z</time>
      </trkpt>
      <trkpt lat="45.13105" lon="6.38018">
        <ele>2582.8</ele>
        <time>2021-02-28T08:34:38Z</time>
      </trkpt>
      <trkpt lat="45.13105" lon="6.38025">
        <ele>2582.4</ele>
        <time>2021-02-28T08:34:39Z</time>
      </trkpt>
      <trkpt lat="45.13104" lon="6.3803">
        <ele>2582.2</ele>
        <time>2021-02-28T08:34:40Z</time>
      </trkpt>
      <trkpt lat="45.13101" lon="6.38034">
        <ele>2581.4</ele>
        <time>2021-02-28T08:34:41Z</time>
      </trkpt>
      <trkpt lat="45.13096" lon="6.38034">
        <ele>2580.8</ele>
        <time>2021-02-28T08:34:42Z</time>
      </trkpt>
      <trkpt lat="45.13092" lon="6.38037">
        <ele>2579.8</ele>
        <time>2021-02-28T08:34:43Z</time>
      </trkpt>
      <trkpt lat="45.13092" lon="6.38043">
        <ele>2578.8</ele>
        <time>2021-02-28T08:34:44Z</time>
      </trkpt>
      <trkpt lat="45.13093" lon="6.3805">
        <ele>2577.4</ele>
        <time>2021-02-28T08:34:45Z</time>
      </trkpt>
      <trkpt lat="45.13094" lon="6.38058">
        <ele>2576.4</ele>
        <time>2021-02-28T08:34:46Z</time>
      </trkpt>
      <trkpt lat="45.13096" lon="6.38067">
        <ele>2575.6</ele>
        <time>2021-02-28T08:34:47Z</time>
      </trkpt>
      <trkpt lat="45.13097" lon="6.38076">
        <ele>2574.2</ele>
        <time>2021-02-28T08:34:48Z</time>
      </trkpt>
      <trkpt lat="45.13097" lon="6.38085">
        <ele>2573.2</ele>
        <time>2021-02-28T08:34:49Z</time>
      </trkpt>
      <trkpt lat="45.13096" lon="6.38093">
        <ele>2572.2</ele>
        <time>2021-02-28T08:34:50Z</time>
      </trkpt>
      <trkpt lat="45.13096" lon="6.381">
        <ele>2571.2</ele>
        <time>2021-02-28T08:34:51Z</time>
      </trkpt>
      <trkpt lat="45.13095" lon="6.38108">
        <ele>2570.6</ele>
        <time>2021-02-28T08:34:52Z</time>
      </trkpt>
      <trkpt lat="45.13095" lon="6.38117">
        <ele>2570</ele>
        <time>2021-02-28T08:34:53Z</time>
      </trkpt>
      <trkpt lat="45.13095" lon="6.38126">
        <ele>2569.6</ele>
        <time>2021-02-28T08:34:54Z</time>
      </trkpt>
      <trkpt lat="45.13095" lon="6.38135">
        <ele>2568.6</ele>
        <time>2021-02-28T08:34:55Z</time>
      </trkpt>
      <trkpt lat="45.13094" lon="6.38144">
        <ele>2567.4</ele>
        <time>2021-02-28T08:34:56Z</time>
      </trkpt>
      <trkpt lat="45.13093" lon="6.38152">
        <ele>2565.8</ele>
        <time>2021-02-28T08:34:57Z</time>
      </trkpt>
      <trkpt lat="45.13092" lon="6.38161">
        <ele>2565</ele>
        <time>2021-02-28T08:34:58Z</time>
      </trkpt>
      <trkpt lat="45.13091" lon="6.3817">
        <ele>2564.2</ele>
        <time>2021-02-28T08:34:59Z</time>
      </trkpt>
      <trkpt lat="45.13091" lon="6.38177">
        <ele>2563.6</ele>
        <time>2021-02-28T08:35:00Z</time>
      </trkpt>
      <trkpt lat="45.13091" lon="6.38185">
        <ele>2562.6</ele>
        <time>2021-02-28T08:35:01Z</time>
      </trkpt>
      <trkpt lat="45.13091" lon="6.38193">
        <ele>2562</ele>
        <time>2021-02-28T08:35:02Z</time>
      </trkpt>
      <trkpt lat="45.13089" lon="6.38201">
        <ele>2561.4</ele>
        <time>2021-02-28T08:35:03Z</time>
      </trkpt>
      <trkpt lat="45.13087" lon="6.38209">
        <ele>2560.8</ele>
        <time>2021-02-28T08:35:04Z</time>
      </trkpt>
      <trkpt lat="45.13085" lon="6.38217">
        <ele>2559.8</ele>
        <time>2021-02-28T08:35:05Z</time>
      </trkpt>
      <trkpt lat="45.13081" lon="6.38226">
        <ele>2558.8</ele>
        <time>2021-02-28T08:35:06Z</time>
      </trkpt>
      <trkpt lat="45.13077" lon="6.38235">
        <ele>2557.6</ele>
        <time>2021-02-28T08:35:07Z</time>
      </trkpt>
      <trkpt lat="45.13073" lon="6.38244">
        <ele>2556.4</ele>
        <time>2021-02-28T08:35:08Z</time>
      </trkpt>
      <trkpt lat="45.13068" lon="6.38251">
        <ele>2555.6</ele>
        <time>2021-02-28T08:35:09Z</time>
      </trkpt>
      <trkpt lat="45.13064" lon="6.38257">
        <ele>2554.8</ele>
        <time>2021-02-28T08:35:10Z</time>
      </trkpt>
      <trkpt lat="45.1306" lon="6.38262">
        <ele>2553.8</ele>
        <time>2021-02-28T08:35:11Z</time>
      </trkpt>
      <trkpt lat="45.13057" lon="6.38266">
        <ele>2552.8</ele>
        <time>2021-02-28T08:35:12Z</time>
      </trkpt>
      <trkpt lat="45.13052" lon="6.38267">
        <ele>2552.8</ele>
        <time>2021-02-28T08:35:13Z</time>
      </trkpt>
      <trkpt lat="45.13049" lon="6.38264">
        <ele>2551.4</ele>
        <time>2021-02-28T08:35:14Z</time>
      </trkpt>
      <trkpt lat="45.13049" lon="6.38264">
        <ele>2550</ele>
        <time>2021-02-28T08:35:15Z</time>
      </trkpt>
      <trkpt lat="45.13048" lon="6.3826">
        <ele>2550</ele>
        <time>2021-02-28T08:35:16Z</time>
      </trkpt>
      <trkpt lat="45.13048" lon="6.3826">
        <ele>2549</ele>
        <time>2021-02-28T08:35:17Z</time>
      </trkpt>
      <trkpt lat="45.13048" lon="6.3826">
        <ele>2548.2</ele>
        <time>2021-02-28T08:35:18Z</time>
      </trkpt>
      <trkpt lat="45.13048" lon="6.3826">
        <ele>2547.8</ele>
        <time>2021-02-28T08:35:19Z</time>
      </trkpt>
      <trkpt lat="45.13048" lon="6.3826">
        <ele>2547.8</ele>
        <time>2021-02-28T08:35:20Z</time>
      </trkpt>
      <trkpt lat="45.13048" lon="6.3826">
        <ele>2547.6</ele>
        <time>2021-02-28T08:35:21Z</time>
      </trkpt>
      <trkpt lat="45.13048" lon="6.3826">
        <ele>2547</ele>
        <time>2021-02-28T08:35:22Z</time>
      </trkpt>
      <trkpt lat="45.13049" lon="6.38257">
        <ele>2547.6</ele>
        <time>2021-02-28T08:35:23Z</time>
      </trkpt>
      <trkpt lat="45.13049" lon="6.38254">
        <ele>2547.4</ele>
        <time>2021-02-28T08:35:24Z</time>
      </trkpt>
      <trkpt lat="45.1305" lon="6.3825">
        <ele>2547</ele>
        <time>2021-02-28T08:35:25Z</time>
      </trkpt>
      <trkpt lat="45.13051" lon="6.38245">
        <ele>2546.6</ele>
        <time>2021-02-28T08:35:26Z</time>
      </trkpt>
      <trkpt lat="45.13052" lon="6.38239">
        <ele>2546</ele>
        <time>2021-02-28T08:35:27Z</time>
      </trkpt>
      <trkpt lat="45.13054" lon="6.38232">
        <ele>2545.4</ele>
        <time>2021-02-28T08:35:28Z</time>
      </trkpt>
      <trkpt lat="45.13055" lon="6.38226">
        <ele>2544.6</ele>
        <time>2021-02-28T08:35:29Z</time>
      </trkpt>
      <trkpt lat="45.13052" lon="6.38224">
        <ele>2543.6</ele>
        <time>2021-02-28T08:35:30Z</time>
      </trkpt>
      <trkpt lat="45.13047" lon="6.38224">
        <ele>2542.4</ele>
        <time>2021-02-28T08:35:31Z</time>
      </trkpt>
      <trkpt lat="45.13043" lon="6.38222">
        <ele>2541.2</ele>
        <time>2021-02-28T08:35:32Z</time>
      </trkpt>
      <trkpt lat="45.13038" lon="6.38219">
        <ele>2540.2</ele>
        <time>2021-02-28T08:35:33Z</time>
      </trkpt>
      <trkpt lat="45.13032" lon="6.38222">
        <ele>2538.4</ele>
        <time>2021-02-28T08:35:34Z</time>
      </trkpt>
      <trkpt lat="45.13028" lon="6.38229">
        <ele>2537</ele>
        <time>2021-02-28T08:35:35Z</time>
      </trkpt>
      <trkpt lat="45.13025" lon="6.38236">
        <ele>2535.4</ele>
        <time>2021-02-28T08:35:36Z</time>
      </trkpt>
      <trkpt lat="45.13022" lon="6.38242">
        <ele>2533.6</ele>
        <time>2021-02-28T08:35:37Z</time>
      </trkpt>
      <trkpt lat="45.13017" lon="6.38245">
        <ele>2532.4</ele>
        <time>2021-02-28T08:35:38Z</time>
      </trkpt>
      <trkpt lat="45.13011" lon="6.38247">
        <ele>2531.4</ele>
        <time>2021-02-28T08:35:39Z</time>
      </trkpt>
      <trkpt lat="45.13006" lon="6.38252">
        <ele>2530</ele>
        <time>2021-02-28T08:35:40Z</time>
      </trkpt>
      <trkpt lat="45.13001" lon="6.38259">
        <ele>2528.4</ele>
        <time>2021-02-28T08:35:41Z</time>
      </trkpt>
      <trkpt lat="45.12997" lon="6.38266">
        <ele>2526.2</ele>
        <time>2021-02-28T08:35:42Z</time>
      </trkpt>
      <trkpt lat="45.12992" lon="6.38271">
        <ele>2525</ele>
        <time>2021-02-28T08:35:43Z</time>
      </trkpt>
      <trkpt lat="45.12986" lon="6.38273">
        <ele>2523</ele>
        <time>2021-02-28T08:35:44Z</time>
      </trkpt>
      <trkpt lat="45.12978" lon="6.38275">
        <ele>2521</ele>
        <time>2021-02-28T08:35:45Z</time>
      </trkpt>
      <trkpt lat="45.12971" lon="6.3828">
        <ele>2518</ele>
        <time>2021-02-28T08:35:46Z</time>
      </trkpt>
      <trkpt lat="45.12967" lon="6.38289">
        <ele>2515.4</ele>
        <time>2021-02-28T08:35:47Z</time>
      </trkpt>
      <trkpt lat="45.12965" lon="6.38297">
        <ele>2513.2</ele>
        <time>2021-02-28T08:35:48Z</time>
      </trkpt>
      <trkpt lat="45.12962" lon="6.38303">
        <ele>2510.8</ele>
        <time>2021-02-28T08:35:49Z</time>
      </trkpt>
      <trkpt lat="45.1296" lon="6.3831">
        <ele>2509.8</ele>
        <time>2021-02-28T08:35:50Z</time>
      </trkpt>
      <trkpt lat="45.12957" lon="6.38317">
        <ele>2508.4</ele>
        <time>2021-02-28T08:35:51Z</time>
      </trkpt>
      <trkpt lat="45.12954" lon="6.38325">
        <ele>2507</ele>
        <time>2021-02-28T08:35:52Z</time>
      </trkpt>
      <trkpt lat="45.1295" lon="6.3833">
        <ele>2506</ele>
        <time>2021-02-28T08:35:53Z</time>
      </trkpt>
      <trkpt lat="45.1295" lon="6.3833">
        <ele>2504.6</ele>
        <time>2021-02-28T08:35:54Z</time>
      </trkpt>
      <trkpt lat="45.12943" lon="6.38322">
        <ele>2502.8</ele>
        <time>2021-02-28T08:35:55Z</time>
      </trkpt>
      <trkpt lat="45.12938" lon="6.38307">
        <ele>2501</ele>
        <time>2021-02-28T08:35:56Z</time>
      </trkpt>
      <trkpt lat="45.12937" lon="6.38303">
        <ele>2499.2</ele>
        <time>2021-02-28T08:35:57Z</time>
      </trkpt>
      <trkpt lat="45.12935" lon="6.38295">
        <ele>2496.8</ele>
        <time>2021-02-28T08:35:58Z</time>
      </trkpt>
      <trkpt lat="45.12933" lon="6.38289">
        <ele>2496.2</ele>
        <time>2021-02-28T08:35:59Z</time>
      </trkpt>
      <trkpt lat="45.1293" lon="6.38282">
        <ele>2495.2</ele>
        <time>2021-02-28T08:36:00Z</time>
      </trkpt>
      <trkpt lat="45.12928" lon="6.38276">
        <ele>2494.4</ele>
        <time>2021-02-28T08:36:01Z</time>
      </trkpt>
      <trkpt lat="45.12925" lon="6.3827">
        <ele>2493.4</ele>
        <time>2021-02-28T08:36:02Z</time>
      </trkpt>
      <trkpt lat="45.12922" lon="6.38265">
        <ele>2492.8</ele>
        <time>2021-02-28T08:36:03Z</time>
      </trkpt>
      <trkpt lat="45.12918" lon="6.3826">
        <ele>2491.8</ele>
        <time>2021-02-28T08:36:04Z</time>
      </trkpt>
      <trkpt lat="45.12912" lon="6.38256">
        <ele>2491.4</ele>
        <time>2021-02-28T08:36:05Z</time>
      </trkpt>
      <trkpt lat="45.12908" lon="6.3825">
        <ele>2490.4</ele>
        <time>2021-02-28T08:36:06Z</time>
      </trkpt>
      <trkpt lat="45.12903" lon="6.38245">
        <ele>2489.6</ele>
        <time>2021-02-28T08:36:07Z</time>
      </trkpt>
      <trkpt lat="45.129" lon="6.38247">
        <ele>2488.8</ele>
        <time>2021-02-28T08:36:08Z</time>
      </trkpt>
      <trkpt lat="45.12897" lon="6.38254">
        <ele>2488.6</ele>
        <time>2021-02-28T08:36:09Z</time>
      </trkpt>
      <trkpt lat="45.12894" lon="6.3826">
        <ele>2488</ele>
        <time>2021-02-28T08:36:10Z</time>
      </trkpt>
      <trkpt lat="45.1289" lon="6.38263">
        <ele>2486.4</ele>
        <time>2021-02-28T08:36:11Z</time>
      </trkpt>
      <trkpt lat="45.12887" lon="6.38262">
        <ele>2485.2</ele>
        <time>2021-02-28T08:36:12Z</time>
      </trkpt>
      <trkpt lat="45.12883" lon="6.3826">
        <ele>2484</ele>
        <time>2021-02-28T08:36:13Z</time>
      </trkpt>
      <trkpt lat="45.12879" lon="6.38263">
        <ele>2482.4</ele>
        <time>2021-02-28T08:36:14Z</time>
      </trkpt>
      <trkpt lat="45.12877" lon="6.3827">
        <ele>2480.6</ele>
        <time>2021-02-28T08:36:15Z</time>
      </trkpt>
      <trkpt lat="45.12875" lon="6.38277">
        <ele>2479.4</ele>
        <time>2021-02-28T08:36:16Z</time>
      </trkpt>
      <trkpt lat="45.12872" lon="6.38284">
        <ele>2478</ele>
        <time>2021-02-28T08:36:17Z</time>
      </trkpt>
      <trkpt lat="45.12868" lon="6.38284">
        <ele>2476.6</ele>
        <time>2021-02-28T08:36:18Z</time>
      </trkpt>
      <trkpt lat="45.12865" lon="6.38278">
        <ele>2474.4</ele>
        <time>2021-02-28T08:36:19Z</time>
      </trkpt>
      <trkpt lat="45.12863" lon="6.38272">
        <ele>2471.8</ele>
        <time>2021-02-28T08:36:20Z</time>
      </trkpt>
      <trkpt lat="45.1286" lon="6.38268">
        <ele>2470.6</ele>
        <time>2021-02-28T08:36:21Z</time>
      </trkpt>
      <trkpt lat="45.12856" lon="6.38267">
        <ele>2470.2</ele>
        <time>2021-02-28T08:36:22Z</time>
      </trkpt>
      <trkpt lat="45.12853" lon="6.38273">
        <ele>2468</ele>
        <time>2021-02-28T08:36:23Z</time>
      </trkpt>
      <trkpt lat="45.12849" lon="6.38278">
        <ele>2465.6</ele>
        <time>2021-02-28T08:36:24Z</time>
      </trkpt>
      <trkpt lat="45.12849" lon="6.38278">
        <ele>2463.4</ele>
        <time>2021-02-28T08:36:25Z</time>
      </trkpt>
      <trkpt lat="45.1284" lon="6.38273">
        <ele>2460.8</ele>
        <time>2021-02-28T08:36:26Z</time>
      </trkpt>
      <trkpt lat="45.12835" lon="6.38277">
        <ele>2458.6</ele>
        <time>2021-02-28T08:36:27Z</time>
      </trkpt>
      <trkpt lat="45.12831" lon="6.3828">
        <ele>2456</ele>
        <time>2021-02-28T08:36:28Z</time>
      </trkpt>
      <trkpt lat="45.12826" lon="6.38287">
        <ele>2453.2</ele>
        <time>2021-02-28T08:36:29Z</time>
      </trkpt>
      <trkpt lat="45.12821" lon="6.38295">
        <ele>2450.6</ele>
        <time>2021-02-28T08:36:30Z</time>
      </trkpt>
      <trkpt lat="45.12818" lon="6.38296">
        <ele>2447.6</ele>
        <time>2021-02-28T08:36:31Z</time>
      </trkpt>
      <trkpt lat="45.12815" lon="6.38298">
        <ele>2445.6</ele>
        <time>2021-02-28T08:36:32Z</time>
      </trkpt>
      <trkpt lat="45.12806" lon="6.38305">
        <ele>2442.2</ele>
        <time>2021-02-28T08:36:33Z</time>
      </trkpt>
      <trkpt lat="45.12803" lon="6.38308">
        <ele>2438.8</ele>
        <time>2021-02-28T08:36:34Z</time>
      </trkpt>
      <trkpt lat="45.12795" lon="6.38317">
        <ele>2436</ele>
        <time>2021-02-28T08:36:35Z</time>
      </trkpt>
      <trkpt lat="45.12794" lon="6.38319">
        <ele>2433</ele>
        <time>2021-02-28T08:36:36Z</time>
      </trkpt>
      <trkpt lat="45.12792" lon="6.38333">
        <ele>2430.4</ele>
        <time>2021-02-28T08:36:37Z</time>
      </trkpt>
      <trkpt lat="45.12794" lon="6.38341">
        <ele>2428</ele>
        <time>2021-02-28T08:36:38Z</time>
      </trkpt>
      <trkpt lat="45.12792" lon="6.38344">
        <ele>2426.4</ele>
        <time>2021-02-28T08:36:39Z</time>
      </trkpt>
      <trkpt lat="45.1279" lon="6.38348">
        <ele>2423.6</ele>
        <time>2021-02-28T08:36:40Z</time>
      </trkpt>
      <trkpt lat="45.12784" lon="6.38355">
        <ele>2421.8</ele>
        <time>2021-02-28T08:36:41Z</time>
      </trkpt>
      <trkpt lat="45.12782" lon="6.38355">
        <ele>2419.8</ele>
        <time>2021-02-28T08:36:42Z</time>
      </trkpt>
      <trkpt lat="45.1278" lon="6.38356">
        <ele>2417.2</ele>
        <time>2021-02-28T08:36:43Z</time>
      </trkpt>
      <trkpt lat="45.12775" lon="6.38357">
        <ele>2414.6</ele>
        <time>2021-02-28T08:36:44Z</time>
      </trkpt>
      <trkpt lat="45.12775" lon="6.38357">
        <ele>2412.2</ele>
        <time>2021-02-28T08:36:45Z</time>
      </trkpt>
      <trkpt lat="45.1276" lon="6.38358">
        <ele>2410</ele>
        <time>2021-02-28T08:36:46Z</time>
      </trkpt>
      <trkpt lat="45.12759" lon="6.38356">
        <ele>2407.4</ele>
        <time>2021-02-28T08:36:47Z</time>
      </trkpt>
      <trkpt lat="45.12758" lon="6.38354">
        <ele>2404.4</ele>
        <time>2021-02-28T08:36:48Z</time>
      </trkpt>
      <trkpt lat="45.12752" lon="6.38349">
        <ele>2402.2</ele>
        <time>2021-02-28T08:36:49Z</time>
      </trkpt>
      <trkpt lat="45.12748" lon="6.3835">
        <ele>2399.4</ele>
        <time>2021-02-28T08:36:50Z</time>
      </trkpt>
      <trkpt lat="45.1274" lon="6.3835">
        <ele>2397.2</ele>
        <time>2021-02-28T08:36:51Z</time>
      </trkpt>
      <trkpt lat="45.12737" lon="6.38348">
        <ele>2393.8</ele>
        <time>2021-02-28T08:36:52Z</time>
      </trkpt>
      <trkpt lat="45.12728" lon="6.38343">
        <ele>2391.2</ele>
        <time>2021-02-28T08:36:53Z</time>
      </trkpt>
      <trkpt lat="45.12725" lon="6.38342">
        <ele>2388.4</ele>
        <time>2021-02-28T08:36:54Z</time>
      </trkpt>
      <trkpt lat="45.12716" lon="6.3834">
        <ele>2385.8</ele>
        <time>2021-02-28T08:36:55Z</time>
      </trkpt>
      <trkpt lat="45.12713" lon="6.38341">
        <ele>2383.4</ele>
        <time>2021-02-28T08:36:56Z</time>
      </trkpt>
      <trkpt lat="45.12711" lon="6.38341">
        <ele>2380.4</ele>
        <time>2021-02-28T08:36:57Z</time>
      </trkpt>
      <trkpt lat="45.12702" lon="6.38344">
        <ele>2377.6</ele>
        <time>2021-02-28T08:36:58Z</time>
      </trkpt>
      <trkpt lat="45.12699" lon="6.38345">
        <ele>2375</ele>
        <time>2021-02-28T08:36:59Z</time>
      </trkpt>
      <trkpt lat="45.12688" lon="6.38347">
        <ele>2372.8</ele>
        <time>2021-02-28T08:37:00Z</time>
      </trkpt>
      <trkpt lat="45.12683" lon="6.38349">
        <ele>2370</ele>
        <time>2021-02-28T08:37:01Z</time>
      </trkpt>
      <trkpt lat="45.12669" lon="6.38352">
        <ele>2367.2</ele>
        <time>2021-02-28T08:37:02Z</time>
      </trkpt>
      <trkpt lat="45.12666" lon="6.38351">
        <ele>2364.8</ele>
        <time>2021-02-28T08:37:03Z</time>
      </trkpt>
      <trkpt lat="45.1266" lon="6.3835">
        <ele>2362.6</ele>
        <time>2021-02-28T08:37:04Z</time>
      </trkpt>
      <trkpt lat="45.12658" lon="6.38348">
        <ele>2360.8</ele>
        <time>2021-02-28T08:37:05Z</time>
      </trkpt>
      <trkpt lat="45.12655" lon="6.38346">
        <ele>2358.4</ele>
        <time>2021-02-28T08:37:06Z</time>
      </trkpt>
      <trkpt lat="45.12648" lon="6.38347">
        <ele>2356.2</ele>
        <time>2021-02-28T08:37:07Z</time>
      </trkpt>
      <trkpt lat="45.12646" lon="6.38351">
        <ele>2354.2</ele>
        <time>2021-02-28T08:37:08Z</time>
      </trkpt>
      <trkpt lat="45.1264" lon="6.38363">
        <ele>2351.6</ele>
        <time>2021-02-28T08:37:09Z</time>
      </trkpt>
      <trkpt lat="45.12638" lon="6.38365">
        <ele>2349.8</ele>
        <time>2021-02-28T08:37:10Z</time>
      </trkpt>
      <trkpt lat="45.12632" lon="6.38367">
        <ele>2346.8</ele>
        <time>2021-02-28T08:37:11Z</time>
      </trkpt>
      <trkpt lat="45.12631" lon="6.38363">
        <ele>2344.2</ele>
        <time>2021-02-28T08:37:12Z</time>
      </trkpt>
      <trkpt lat="45.12623" lon="6.38357">
        <ele>2341.8</ele>
        <time>2021-02-28T08:37:13Z</time>
      </trkpt>
      <trkpt lat="45.12618" lon="6.38359">
        <ele>2338.8</ele>
        <time>2021-02-28T08:37:14Z</time>
      </trkpt>
      <trkpt lat="45.12609" lon="6.38361">
        <ele>2335.8</ele>
        <time>2021-02-28T08:37:15Z</time>
      </trkpt>
      <trkpt lat="45.12609" lon="6.38361">
        <ele>2333.4</ele>
        <time>2021-02-28T08:37:16Z</time>
      </trkpt>
      <trkpt lat="45.12594" lon="6.38358">
        <ele>2331</ele>
        <time>2021-02-28T08:37:17Z</time>
      </trkpt>
      <trkpt lat="45.12586" lon="6.38359">
        <ele>2328.8</ele>
        <time>2021-02-28T08:37:18Z</time>
      </trkpt>
      <trkpt lat="45.12584" lon="6.38362">
        <ele>2326.6</ele>
        <time>2021-02-28T08:37:19Z</time>
      </trkpt>
      <trkpt lat="45.1258" lon="6.38368">
        <ele>2324.8</ele>
        <time>2021-02-28T08:37:20Z</time>
      </trkpt>
      <trkpt lat="45.12576" lon="6.38377">
        <ele>2323</ele>
        <time>2021-02-28T08:37:21Z</time>
      </trkpt>
      <trkpt lat="45.12571" lon="6.3838">
        <ele>2320.6</ele>
        <time>2021-02-28T08:37:22Z</time>
      </trkpt>
      <trkpt lat="45.12567" lon="6.38376">
        <ele>2317.8</ele>
        <time>2021-02-28T08:37:23Z</time>
      </trkpt>
      <trkpt lat="45.12563" lon="6.38372">
        <ele>2316</ele>
        <time>2021-02-28T08:37:24Z</time>
      </trkpt>
      <trkpt lat="45.12563" lon="6.38372">
        <ele>2314.8</ele>
        <time>2021-02-28T08:37:25Z</time>
      </trkpt>
      <trkpt lat="45.12558" lon="6.38359">
        <ele>2313.4</ele>
        <time>2021-02-28T08:37:26Z</time>
      </trkpt>
      <trkpt lat="45.12553" lon="6.38356">
        <ele>2311</ele>
        <time>2021-02-28T08:37:27Z</time>
      </trkpt>
      <trkpt lat="45.12551" lon="6.38357">
        <ele>2309.8</ele>
        <time>2021-02-28T08:37:28Z</time>
      </trkpt>
      <trkpt lat="45.12547" lon="6.38359">
        <ele>2308.2</ele>
        <time>2021-02-28T08:37:29Z</time>
      </trkpt>
      <trkpt lat="45.12542" lon="6.38363">
        <ele>2306.8</ele>
        <time>2021-02-28T08:37:30Z</time>
      </trkpt>
      <trkpt lat="45.12535" lon="6.38365">
        <ele>2305</ele>
        <time>2021-02-28T08:37:31Z</time>
      </trkpt>
      <trkpt lat="45.12529" lon="6.38368">
        <ele>2303</ele>
        <time>2021-02-28T08:37:32Z</time>
      </trkpt>
      <trkpt lat="45.12526" lon="6.38374">
        <ele>2301.2</ele>
        <time>2021-02-28T08:37:33Z</time>
      </trkpt>
      <trkpt lat="45.12525" lon="6.38381">
        <ele>2299.4</ele>
        <time>2021-02-28T08:37:34Z</time>
      </trkpt>
      <trkpt lat="45.12522" lon="6.38388">
        <ele>2298</ele>
        <time>2021-02-28T08:37:35Z</time>
      </trkpt>
      <trkpt lat="45.12517" lon="6.3839">
        <ele>2296.4</ele>
        <time>2021-02-28T08:37:36Z</time>
      </trkpt>
      <trkpt lat="45.12513" lon="6.38388">
        <ele>2294.4</ele>
        <time>2021-02-28T08:37:37Z</time>
      </trkpt>
      <trkpt lat="45.12508" lon="6.38388">
        <ele>2293</ele>
        <time>2021-02-28T08:37:38Z</time>
      </trkpt>
      <trkpt lat="45.12501" lon="6.38388">
        <ele>2291</ele>
        <time>2021-02-28T08:37:39Z</time>
      </trkpt>
      <trkpt lat="45.12495" lon="6.38386">
        <ele>2288.4</ele>
        <time>2021-02-28T08:37:40Z</time>
      </trkpt>
      <trkpt lat="45.1249" lon="6.3839">
        <ele>2286.6</ele>
        <time>2021-02-28T08:37:41Z</time>
      </trkpt>
      <trkpt lat="45.12486" lon="6.38397">
        <ele>2285</ele>
        <time>2021-02-28T08:37:42Z</time>
      </trkpt>
      <trkpt lat="45.12486" lon="6.38397">
        <ele>2282.8</ele>
        <time>2021-02-28T08:37:43Z</time>
      </trkpt>
      <trkpt lat="45.12479" lon="6.38392">
        <ele>2280.6</ele>
        <time>2021-02-28T08:37:44Z</time>
      </trkpt>
      <trkpt lat="45.12475" lon="6.3838">
        <ele>2278.6</ele>
        <time>2021-02-28T08:37:45Z</time>
      </trkpt>
      <trkpt lat="45.12474" lon="6.38376">
        <ele>2276.4</ele>
        <time>2021-02-28T08:37:46Z</time>
      </trkpt>
      <trkpt lat="45.1247" lon="6.38369">
        <ele>2275.4</ele>
        <time>2021-02-28T08:37:47Z</time>
      </trkpt>
      <trkpt lat="45.12467" lon="6.38367">
        <ele>2273.8</ele>
        <time>2021-02-28T08:37:48Z</time>
      </trkpt>
      <trkpt lat="45.12463" lon="6.3837">
        <ele>2272</ele>
        <time>2021-02-28T08:37:49Z</time>
      </trkpt>
      <trkpt lat="45.12461" lon="6.38372">
        <ele>2270.6</ele>
        <time>2021-02-28T08:37:50Z</time>
      </trkpt>
      <trkpt lat="45.12461" lon="6.38372">
        <ele>2268.6</ele>
        <time>2021-02-28T08:37:51Z</time>
      </trkpt>
      <trkpt lat="45.12461" lon="6.38372">
        <ele>2268.4</ele>
        <time>2021-02-28T08:37:52Z</time>
      </trkpt>
      <trkpt lat="45.12461" lon="6.38372">
        <ele>2268</ele>
        <time>2021-02-28T08:37:53Z</time>
      </trkpt>
      <trkpt lat="45.12461" lon="6.38372">
        <ele>2267.6</ele>
        <time>2021-02-28T08:37:54Z</time>
      </trkpt>
      <trkpt lat="45.12461" lon="6.38372">
        <ele>2267.2</ele>
        <time>2021-02-28T08:37:55Z</time>
      </trkpt>
      <trkpt lat="45.12461" lon="6.38372">
        <ele>2267</ele>
        <time>2021-02-28T08:37:56Z</time>
      </trkpt>
      <trkpt lat="45.12461" lon="6.38372">
        <ele>2266.6</ele>
        <time>2021-02-28T08:37:57Z</time>
      </trkpt>
      <trkpt lat="45.12461" lon="6.38372">
        <ele>2266.6</ele>
        <time>2021-02-28T08:37:58Z</time>
      </trkpt>
      <trkpt lat="45.12461" lon="6.38372">
        <ele>2266.2</ele>
        <time>2021-02-28T08:37:59Z</time>
      </trkpt>
      <trkpt lat="45.12461" lon="6.38372">
        <ele>2266.2</ele>
        <time>2021-02-28T08:38:00Z</time>
      </trkpt>
      <trkpt lat="45.12461" lon="6.38372">
        <ele>2266.6</ele>
        <time>2021-02-28T08:38:01Z</time>
      </trkpt>
      <trkpt lat="45.12461" lon="6.38372">
        <ele>2266.2</ele>
        <time>2021-02-28T08:38:02Z</time>
      </trkpt>
      <trkpt lat="45.12461" lon="6.38372">
        <ele>2266.4</ele>
        <time>2021-02-28T08:38:03Z</time>
      </trkpt>
      <trkpt lat="45.12461" lon="6.38372">
        <ele>2266.2</ele>
        <time>2021-02-28T08:38:04Z</time>
      </trkpt>
      <trkpt lat="45.12461" lon="6.38372">
        <ele>2266</ele>
        <time>2021-02-28T08:38:05Z</time>
      </trkpt>
      <trkpt lat="45.12461" lon="6.38372">
        <ele>2266</ele>
        <time>2021-02-28T08:38:06Z</time>
      </trkpt>
      <trkpt lat="45.12461" lon="6.38372">
        <ele>2265.8</ele>
        <time>2021-02-28T08:38:07Z</time>
      </trkpt>
      <trkpt lat="45.12461" lon="6.38372">
        <ele>2265.6</ele>
        <time>2021-02-28T08:38:08Z</time>
      </trkpt>
      <trkpt lat="45.12461" lon="6.38372">
        <ele>2265.6</ele>
        <time>2021-02-28T08:38:09Z</time>
      </trkpt>
      <trkpt lat="45.12461" lon="6.38372">
        <ele>2265.6</ele>
        <time>2021-02-28T08:38:10Z</time>
      </trkpt>
      <trkpt lat="45.12461" lon="6.38372">
        <ele>2265.4</ele>
        <time>2021-02-28T08:38:11Z</time>
      </trkpt>
      <trkpt lat="45.12461" lon="6.38372">
        <ele>2264.8</ele>
        <time>2021-02-28T08:38:12Z</time>
      </trkpt>
      <trkpt lat="45.12461" lon="6.38372">
        <ele>2264.4</ele>
        <time>2021-02-28T08:38:13Z</time>
      </trkpt>
      <trkpt lat="45.12461" lon="6.38372">
        <ele>2263.2</ele>
        <time>2021-02-28T08:38:14Z</time>
      </trkpt>
      <trkpt lat="45.12461" lon="6.38372">
        <ele>2263.6</ele>
        <time>2021-02-28T08:38:15Z</time>
      </trkpt>
      <trkpt lat="45.12461" lon="6.38372">
        <ele>2264.4</ele>
        <time>2021-02-28T08:38:16Z</time>
      </trkpt>
      <trkpt lat="45.12461" lon="6.38372">
        <ele>2264.6</ele>
        <time>2021-02-28T08:38:17Z</time>
      </trkpt>
      <trkpt lat="45.12461" lon="6.38372">
        <ele>2265.2</ele>
        <time>2021-02-28T08:38:18Z</time>
      </trkpt>
      <trkpt lat="45.12461" lon="6.38372">
        <ele>2265.6</ele>
        <time>2021-02-28T08:38:19Z</time>
      </trkpt>
      <trkpt lat="45.12461" lon="6.38372">
        <ele>2265.6</ele>
        <time>2021-02-28T08:38:20Z</time>
      </trkpt>
      <trkpt lat="45.12461" lon="6.38372">
        <ele>2265.4</ele>
        <time>2021-02-28T08:38:21Z</time>
      </trkpt>
      <trkpt lat="45.12461" lon="6.38372">
        <ele>2265.4</ele>
        <time>2021-02-28T08:38:22Z</time>
      </trkpt>
      <trkpt lat="45.12461" lon="6.38372">
        <ele>2265.2</ele>
        <time>2021-02-28T08:38:23Z</time>
      </trkpt>
      <trkpt lat="45.12461" lon="6.38372">
        <ele>2265.2</ele>
        <time>2021-02-28T08:38:24Z</time>
      </trkpt>
      <trkpt lat="45.12461" lon="6.38372">
        <ele>2265</ele>
        <time>2021-02-28T08:38:25Z</time>
      </trkpt>
      <trkpt lat="45.12461" lon="6.38372">
        <ele>2265.2</ele>
        <time>2021-02-28T08:38:26Z</time>
      </trkpt>
      <trkpt lat="45.12461" lon="6.38372">
        <ele>2264.2</ele>
        <time>2021-02-28T08:38:27Z</time>
      </trkpt>
      <trkpt lat="45.12462" lon="6.38373">
        <ele>2264.8</ele>
        <time>2021-02-28T08:38:28Z</time>
      </trkpt>
      <trkpt lat="45.12462" lon="6.38373">
        <ele>2265</ele>
        <time>2021-02-28T08:38:29Z</time>
      </trkpt>
      <trkpt lat="45.12462" lon="6.38373">
        <ele>2265.2</ele>
        <time>2021-02-28T08:38:30Z</time>
      </trkpt>
      <trkpt lat="45.12462" lon="6.38373">
        <ele>2265.4</ele>
        <time>2021-02-28T08:38:31Z</time>
      </trkpt>
      <trkpt lat="45.12462" lon="6.38373">
        <ele>2265.6</ele>
        <time>2021-02-28T08:38:32Z</time>
      </trkpt>
      <trkpt lat="45.12462" lon="6.38373">
        <ele>2265.6</ele>
        <time>2021-02-28T08:38:33Z</time>
      </trkpt>
      <trkpt lat="45.12462" lon="6.38373">
        <ele>2265.6</ele>
        <time>2021-02-28T08:38:34Z</time>
      </trkpt>
      <trkpt lat="45.12462" lon="6.38373">
        <ele>2265.8</ele>
        <time>2021-02-28T08:38:35Z</time>
      </trkpt>
      <trkpt lat="45.12462" lon="6.38373">
        <ele>2265.2</ele>
        <time>2021-02-28T08:38:36Z</time>
      </trkpt>
      <trkpt lat="45.12462" lon="6.38373">
        <ele>2264.8</ele>
        <time>2021-02-28T08:38:37Z</time>
      </trkpt>
      <trkpt lat="45.12462" lon="6.38373">
        <ele>2264.6</ele>
        <time>2021-02-28T08:38:38Z</time>
      </trkpt>
      <trkpt lat="45.12462" lon="6.38373">
        <ele>2264.6</ele>
        <time>2021-02-28T08:38:39Z</time>
      </trkpt>
      <trkpt lat="45.12462" lon="6.38373">
        <ele>2264.6</ele>
        <time>2021-02-28T08:38:40Z</time>
      </trkpt>
      <trkpt lat="45.12462" lon="6.38373">
        <ele>2264.4</ele>
        <time>2021-02-28T08:38:41Z</time>
      </trkpt>
      <trkpt lat="45.12462" lon="6.38373">
        <ele>2264.2</ele>
        <time>2021-02-28T08:38:42Z</time>
      </trkpt>
      <trkpt lat="45.12462" lon="6.38373">
        <ele>2264.8</ele>
        <time>2021-02-28T08:38:43Z</time>
      </trkpt>
      <trkpt lat="45.12462" lon="6.38373">
        <ele>2265.2</ele>
        <time>2021-02-28T08:38:44Z</time>
      </trkpt>
      <trkpt lat="45.12462" lon="6.38373">
        <ele>2265.2</ele>
        <time>2021-02-28T08:38:45Z</time>
      </trkpt>
      <trkpt lat="45.12462" lon="6.38373">
        <ele>2265.2</ele>
        <time>2021-02-28T08:38:46Z</time>
      </trkpt>
      <trkpt lat="45.12462" lon="6.38373">
        <ele>2265.4</ele>
        <time>2021-02-28T08:38:47Z</time>
      </trkpt>
      <trkpt lat="45.12462" lon="6.38373">
        <ele>2265.2</ele>
        <time>2021-02-28T08:38:48Z</time>
      </trkpt>
      <trkpt lat="45.12462" lon="6.38373">
        <ele>2265.4</ele>
        <time>2021-02-28T08:38:49Z</time>
      </trkpt>
      <trkpt lat="45.12462" lon="6.38373">
        <ele>2265.4</ele>
        <time>2021-02-28T08:38:50Z</time>
      </trkpt>
      <trkpt lat="45.12462" lon="6.38373">
        <ele>2265.4</ele>
        <time>2021-02-28T08:38:51Z</time>
      </trkpt>
      <trkpt lat="45.12462" lon="6.38373">
        <ele>2265.4</ele>
        <time>2021-02-28T08:38:52Z</time>
      </trkpt>
      <trkpt lat="45.12462" lon="6.38373">
        <ele>2265.4</ele>
        <time>2021-02-28T08:38:53Z</time>
      </trkpt>
      <trkpt lat="45.12462" lon="6.38373">
        <ele>2265.4</ele>
        <time>2021-02-28T08:38:54Z</time>
      </trkpt>
      <trkpt lat="45.12462" lon="6.38373">
        <ele>2265.6</ele>
        <time>2021-02-28T08:38:55Z</time>
      </trkpt>
      <trkpt lat="45.12462" lon="6.38373">
        <ele>2265.4</ele>
        <time>2021-02-28T08:38:56Z</time>
      </trkpt>
      <trkpt lat="45.12462" lon="6.38373">
        <ele>2265.4</ele>
        <time>2021-02-28T08:38:57Z</time>
      </trkpt>
      <trkpt lat="45.12462" lon="6.38373">
        <ele>2265.6</ele>
        <time>2021-02-28T08:38:58Z</time>
      </trkpt>
      <trkpt lat="45.12462" lon="6.38373">
        <ele>2265.2</ele>
        <time>2021-02-28T08:38:59Z</time>
      </trkpt>
      <trkpt lat="45.12462" lon="6.38373">
        <ele>2265</ele>
        <time>2021-02-28T08:39:00Z</time>
      </trkpt>
      <trkpt lat="45.12462" lon="6.38373">
        <ele>2265.4</ele>
        <time>2021-02-28T08:39:01Z</time>
      </trkpt>
      <trkpt lat="45.12462" lon="6.38373">
        <ele>2265.2</ele>
        <time>2021-02-28T08:39:02Z</time>
      </trkpt>
      <trkpt lat="45.12462" lon="6.38373">
        <ele>2265.4</ele>
        <time>2021-02-28T08:39:03Z</time>
      </trkpt>
      <trkpt lat="45.12462" lon="6.38373">
        <ele>2265.4</ele>
        <time>2021-02-28T08:39:04Z</time>
      </trkpt>
      <trkpt lat="45.12462" lon="6.38373">
        <ele>2265.4</ele>
        <time>2021-02-28T08:39:05Z</time>
      </trkpt>
      <trkpt lat="45.12462" lon="6.38373">
        <ele>2265.2</ele>
        <time>2021-02-28T08:39:06Z</time>
      </trkpt>
      <trkpt lat="45.12462" lon="6.38373">
        <ele>2265.2</ele>
        <time>2021-02-28T08:39:07Z</time>
      </trkpt>
      <trkpt lat="45.12462" lon="6.38373">
        <ele>2264.6</ele>
        <time>2021-02-28T08:39:08Z</time>
      </trkpt>
      <trkpt lat="45.12462" lon="6.38373">
        <ele>2264.6</ele>
        <time>2021-02-28T08:39:09Z</time>
      </trkpt>
      <trkpt lat="45.12462" lon="6.38373">
        <ele>2265</ele>
        <time>2021-02-28T08:39:10Z</time>
      </trkpt>
      <trkpt lat="45.12462" lon="6.38373">
        <ele>2265.2</ele>
        <time>2021-02-28T08:39:11Z</time>
      </trkpt>
      <trkpt lat="45.12462" lon="6.38373">
        <ele>2265.2</ele>
        <time>2021-02-28T08:39:12Z</time>
      </trkpt>
      <trkpt lat="45.12462" lon="6.38373">
        <ele>2265.2</ele>
        <time>2021-02-28T08:39:13Z</time>
      </trkpt>
      <trkpt lat="45.12462" lon="6.38373">
        <ele>2265.2</ele>
        <time>2021-02-28T08:39:14Z</time>
      </trkpt>
      <trkpt lat="45.12462" lon="6.38373">
        <ele>2265.2</ele>
        <time>2021-02-28T08:39:15Z</time>
      </trkpt>
      <trkpt lat="45.12462" lon="6.38373">
        <ele>2265</ele>
        <time>2021-02-28T08:39:16Z</time>
      </trkpt>
      <trkpt lat="45.12462" lon="6.38373">
        <ele>2264.8</ele>
        <time>2021-02-28T08:39:17Z</time>
      </trkpt>
      <trkpt lat="45.12462" lon="6.38373">
        <ele>2265.2</ele>
        <time>2021-02-28T08:39:18Z</time>
      </trkpt>
      <trkpt lat="45.12462" lon="6.38373">
        <ele>2265</ele>
        <time>2021-02-28T08:39:19Z</time>
      </trkpt>
      <trkpt lat="45.12462" lon="6.38373">
        <ele>2265.2</ele>
        <time>2021-02-28T08:39:20Z</time>
      </trkpt>
      <trkpt lat="45.12462" lon="6.38373">
        <ele>2265</ele>
        <time>2021-02-28T08:39:21Z</time>
      </trkpt>
      <trkpt lat="45.12462" lon="6.38373">
        <ele>2265</ele>
        <time>2021-02-28T08:39:22Z</time>
      </trkpt>
      <trkpt lat="45.12462" lon="6.38373">
        <ele>2264.8</ele>
        <time>2021-02-28T08:39:23Z</time>
      </trkpt>
      <trkpt lat="45.12462" lon="6.38373">
        <ele>2265.2</ele>
        <time>2021-02-28T08:39:24Z</time>
      </trkpt>
      <trkpt lat="45.12462" lon="6.38373">
        <ele>2265.2</ele>
        <time>2021-02-28T08:39:25Z</time>
      </trkpt>
      <trkpt lat="45.12462" lon="6.38373">
        <ele>2265.8</ele>
        <time>2021-02-28T08:39:26Z</time>
      </trkpt>
      <trkpt lat="45.12462" lon="6.38373">
        <ele>2266</ele>
        <time>2021-02-28T08:39:27Z</time>
      </trkpt>
      <trkpt lat="45.12462" lon="6.38373">
        <ele>2265.6</ele>
        <time>2021-02-28T08:39:28Z</time>
      </trkpt>
      <trkpt lat="45.12462" lon="6.38373">
        <ele>2265.4</ele>
        <time>2021-02-28T08:39:29Z</time>
      </trkpt>
      <trkpt lat="45.12462" lon="6.38373">
        <ele>2265.6</ele>
        <time>2021-02-28T08:39:30Z</time>
      </trkpt>
      <trkpt lat="45.12462" lon="6.38373">
        <ele>2265.6</ele>
        <time>2021-02-28T08:39:31Z</time>
      </trkpt>
      <trkpt lat="45.12462" lon="6.38373">
        <ele>2265.8</ele>
        <time>2021-02-28T08:39:32Z</time>
      </trkpt>
      <trkpt lat="45.12462" lon="6.38373">
        <ele>2266</ele>
        <time>2021-02-28T08:39:33Z</time>
      </trkpt>
      <trkpt lat="45.12462" lon="6.38373">
        <ele>2266</ele>
        <time>2021-02-28T08:39:34Z</time>
      </trkpt>
      <trkpt lat="45.12462" lon="6.38373">
        <ele>2266</ele>
        <time>2021-02-28T08:39:35Z</time>
      </trkpt>
      <trkpt lat="45.12462" lon="6.38373">
        <ele>2265.8</ele>
        <time>2021-02-28T08:39:36Z</time>
      </trkpt>
      <trkpt lat="45.12462" lon="6.38373">
        <ele>2266</ele>
        <time>2021-02-28T08:39:37Z</time>
      </trkpt>
      <trkpt lat="45.12462" lon="6.38373">
        <ele>2266</ele>
        <time>2021-02-28T08:39:38Z</time>
      </trkpt>
      <trkpt lat="45.12464" lon="6.38373">
        <ele>2266</ele>
        <time>2021-02-28T08:39:39Z</time>
      </trkpt>
      <trkpt lat="45.12464" lon="6.38373">
        <ele>2265.8</ele>
        <time>2021-02-28T08:39:40Z</time>
      </trkpt>
      <trkpt lat="45.12464" lon="6.38373">
        <ele>2265.4</ele>
        <time>2021-02-28T08:39:41Z</time>
      </trkpt>
      <trkpt lat="45.12464" lon="6.38373">
        <ele>2265.4</ele>
        <time>2021-02-28T08:39:42Z</time>
      </trkpt>
      <trkpt lat="45.12464" lon="6.38373">
        <ele>2265.4</ele>
        <time>2021-02-28T08:39:43Z</time>
      </trkpt>
      <trkpt lat="45.12464" lon="6.38373">
        <ele>2265.4</ele>
        <time>2021-02-28T08:39:44Z</time>
      </trkpt>
      <trkpt lat="45.12464" lon="6.38373">
        <ele>2265.4</ele>
        <time>2021-02-28T08:39:45Z</time>
      </trkpt>
      <trkpt lat="45.12464" lon="6.38373">
        <ele>2265.6</ele>
        <time>2021-02-28T08:39:46Z</time>
      </trkpt>
      <trkpt lat="45.12464" lon="6.38373">
        <ele>2266</ele>
        <time>2021-02-28T08:39:47Z</time>
      </trkpt>
      <trkpt lat="45.12464" lon="6.38373">
        <ele>2266</ele>
        <time>2021-02-28T08:39:48Z</time>
      </trkpt>
      <trkpt lat="45.12464" lon="6.38373">
        <ele>2266</ele>
        <time>2021-02-28T08:39:49Z</time>
      </trkpt>
      <trkpt lat="45.12464" lon="6.38373">
        <ele>2266.2</ele>
        <time>2021-02-28T08:39:50Z</time>
      </trkpt>
      <trkpt lat="45.12464" lon="6.38373">
        <ele>2265.8</ele>
        <time>2021-02-28T08:39:51Z</time>
      </trkpt>
      <trkpt lat="45.12464" lon="6.38373">
        <ele>2265.6</ele>
        <time>2021-02-28T08:39:52Z</time>
      </trkpt>
      <trkpt lat="45.12464" lon="6.38373">
        <ele>2266</ele>
        <time>2021-02-28T08:39:53Z</time>
      </trkpt>
      <trkpt lat="45.12464" lon="6.38373">
        <ele>2266</ele>
        <time>2021-02-28T08:39:54Z</time>
      </trkpt>
      <trkpt lat="45.12464" lon="6.38373">
        <ele>2265.8</ele>
        <time>2021-02-28T08:39:55Z</time>
      </trkpt>
      <trkpt lat="45.12464" lon="6.38373">
        <ele>2265.4</ele>
        <time>2021-02-28T08:39:56Z</time>
      </trkpt>
      <trkpt lat="45.12464" lon="6.38373">
        <ele>2265.4</ele>
        <time>2021-02-28T08:39:57Z</time>
      </trkpt>
      <trkpt lat="45.12464" lon="6.38373">
        <ele>2265.2</ele>
        <time>2021-02-28T08:39:58Z</time>
      </trkpt>
      <trkpt lat="45.12464" lon="6.38373">
        <ele>2265</ele>
        <time>2021-02-28T08:39:59Z</time>
      </trkpt>
      <trkpt lat="45.12464" lon="6.38373">
        <ele>2265</ele>
        <time>2021-02-28T08:40:00Z</time>
      </trkpt>
      <trkpt lat="45.12463" lon="6.38377">
        <ele>2264.6</ele>
        <time>2021-02-28T08:40:01Z</time>
      </trkpt>
      <trkpt lat="45.12461" lon="6.38381">
        <ele>2264.4</ele>
        <time>2021-02-28T08:40:02Z</time>
      </trkpt>
      <trkpt lat="45.12459" lon="6.38386">
        <ele>2264.2</ele>
        <time>2021-02-28T08:40:03Z</time>
      </trkpt>
      <trkpt lat="45.12456" lon="6.38391">
        <ele>2263.8</ele>
        <time>2021-02-28T08:40:04Z</time>
      </trkpt>
      <trkpt lat="45.12452" lon="6.38392">
        <ele>2263.2</ele>
        <time>2021-02-28T08:40:05Z</time>
      </trkpt>
      <trkpt lat="45.12448" lon="6.38387">
        <ele>2262.4</ele>
        <time>2021-02-28T08:40:06Z</time>
      </trkpt>
      <trkpt lat="45.12444" lon="6.38383">
        <ele>2261.2</ele>
        <time>2021-02-28T08:40:07Z</time>
      </trkpt>
      <trkpt lat="45.12439" lon="6.38385">
        <ele>2258.8</ele>
        <time>2021-02-28T08:40:08Z</time>
      </trkpt>
      <trkpt lat="45.12433" lon="6.38392">
        <ele>2256.6</ele>
        <time>2021-02-28T08:40:09Z</time>
      </trkpt>
      <trkpt lat="45.12427" lon="6.38392">
        <ele>2254.8</ele>
        <time>2021-02-28T08:40:10Z</time>
      </trkpt>
      <trkpt lat="45.12422" lon="6.38387">
        <ele>2252.4</ele>
        <time>2021-02-28T08:40:11Z</time>
      </trkpt>
      <trkpt lat="45.12417" lon="6.38382">
        <ele>2250</ele>
        <time>2021-02-28T08:40:12Z</time>
      </trkpt>
      <trkpt lat="45.12412" lon="6.38383">
        <ele>2247.8</ele>
        <time>2021-02-28T08:40:13Z</time>
      </trkpt>
      <trkpt lat="45.12412" lon="6.38383">
        <ele>2245.6</ele>
        <time>2021-02-28T08:40:14Z</time>
      </trkpt>
      <trkpt lat="45.12399" lon="6.38383">
        <ele>2243</ele>
        <time>2021-02-28T08:40:15Z</time>
      </trkpt>
      <trkpt lat="45.12393" lon="6.38385">
        <ele>2240.2</ele>
        <time>2021-02-28T08:40:16Z</time>
      </trkpt>
      <trkpt lat="45.12387" lon="6.38386">
        <ele>2237.6</ele>
        <time>2021-02-28T08:40:17Z</time>
      </trkpt>
      <trkpt lat="45.12372" lon="6.38389">
        <ele>2234.8</ele>
        <time>2021-02-28T08:40:18Z</time>
      </trkpt>
      <trkpt lat="45.12369" lon="6.38389">
        <ele>2232</ele>
        <time>2021-02-28T08:40:19Z</time>
      </trkpt>
      <trkpt lat="45.12362" lon="6.38388">
        <ele>2229.2</ele>
        <time>2021-02-28T08:40:20Z</time>
      </trkpt>
      <trkpt lat="45.12354" lon="6.38391">
        <ele>2225.8</ele>
        <time>2021-02-28T08:40:21Z</time>
      </trkpt>
      <trkpt lat="45.12352" lon="6.38392">
        <ele>2223</ele>
        <time>2021-02-28T08:40:22Z</time>
      </trkpt>
      <trkpt lat="45.12348" lon="6.38394">
        <ele>2220.2</ele>
        <time>2021-02-28T08:40:23Z</time>
      </trkpt>
      <trkpt lat="45.12336" lon="6.3841">
        <ele>2217.2</ele>
        <time>2021-02-28T08:40:24Z</time>
      </trkpt>
      <trkpt lat="45.12333" lon="6.38412">
        <ele>2214.2</ele>
        <time>2021-02-28T08:40:25Z</time>
      </trkpt>
      <trkpt lat="45.1233" lon="6.38414">
        <ele>2212.6</ele>
        <time>2021-02-28T08:40:26Z</time>
      </trkpt>
      <trkpt lat="45.1232" lon="6.38419">
        <ele>2210.6</ele>
        <time>2021-02-28T08:40:27Z</time>
      </trkpt>
      <trkpt lat="45.12316" lon="6.38419">
        <ele>2208</ele>
        <time>2021-02-28T08:40:28Z</time>
      </trkpt>
      <trkpt lat="45.12305" lon="6.38421">
        <ele>2205.2</ele>
        <time>2021-02-28T08:40:29Z</time>
      </trkpt>
      <trkpt lat="45.12301" lon="6.38423">
        <ele>2203</ele>
        <time>2021-02-28T08:40:30Z</time>
      </trkpt>
      <trkpt lat="45.12291" lon="6.38427">
        <ele>2201</ele>
        <time>2021-02-28T08:40:31Z</time>
      </trkpt>
      <trkpt lat="45.12288" lon="6.38428">
        <ele>2197.8</ele>
        <time>2021-02-28T08:40:32Z</time>
      </trkpt>
      <trkpt lat="45.12281" lon="6.38435">
        <ele>2194.8</ele>
        <time>2021-02-28T08:40:33Z</time>
      </trkpt>
      <trkpt lat="45.1228" lon="6.38439">
        <ele>2191.8</ele>
        <time>2021-02-28T08:40:34Z</time>
      </trkpt>
      <trkpt lat="45.12276" lon="6.38452">
        <ele>2189.2</ele>
        <time>2021-02-28T08:40:35Z</time>
      </trkpt>
      <trkpt lat="45.12275" lon="6.38457">
        <ele>2187.6</ele>
        <time>2021-02-28T08:40:36Z</time>
      </trkpt>
      <trkpt lat="45.1227" lon="6.3847">
        <ele>2186</ele>
        <time>2021-02-28T08:40:37Z</time>
      </trkpt>
      <trkpt lat="45.12268" lon="6.38474">
        <ele>2184.8</ele>
        <time>2021-02-28T08:40:38Z</time>
      </trkpt>
      <trkpt lat="45.12265" lon="6.38485">
        <ele>2183.8</ele>
        <time>2021-02-28T08:40:39Z</time>
      </trkpt>
      <trkpt lat="45.12264" lon="6.38488">
        <ele>2183</ele>
        <time>2021-02-28T08:40:40Z</time>
      </trkpt>
      <trkpt lat="45.12263" lon="6.38491">
        <ele>2182.6</ele>
        <time>2021-02-28T08:40:41Z</time>
      </trkpt>
      <trkpt lat="45.12262" lon="6.38496">
        <ele>2182.4</ele>
        <time>2021-02-28T08:40:42Z</time>
      </trkpt>
      <trkpt lat="45.12261" lon="6.38501">
        <ele>2182</ele>
        <time>2021-02-28T08:40:43Z</time>
      </trkpt>
      <trkpt lat="45.1226" lon="6.38506">
        <ele>2181.8</ele>
        <time>2021-02-28T08:40:44Z</time>
      </trkpt>
      <trkpt lat="45.12259" lon="6.38512">
        <ele>2181.2</ele>
        <time>2021-02-28T08:40:45Z</time>
      </trkpt>
      <trkpt lat="45.12257" lon="6.38519">
        <ele>2180.6</ele>
        <time>2021-02-28T08:40:46Z</time>
      </trkpt>
      <trkpt lat="45.12256" lon="6.38526">
        <ele>2180</ele>
        <time>2021-02-28T08:40:47Z</time>
      </trkpt>
      <trkpt lat="45.12254" lon="6.38533">
        <ele>2179.2</ele>
        <time>2021-02-28T08:40:48Z</time>
      </trkpt>
      <trkpt lat="45.12252" lon="6.38541">
        <ele>2178.4</ele>
        <time>2021-02-28T08:40:49Z</time>
      </trkpt>
      <trkpt lat="45.12251" lon="6.38551">
        <ele>2177.6</ele>
        <time>2021-02-28T08:40:50Z</time>
      </trkpt>
      <trkpt lat="45.1225" lon="6.38561">
        <ele>2176.4</ele>
        <time>2021-02-28T08:40:51Z</time>
      </trkpt>
      <trkpt lat="45.12246" lon="6.38565">
        <ele>2175.4</ele>
        <time>2021-02-28T08:40:52Z</time>
      </trkpt>
      <trkpt lat="45.1224" lon="6.38564">
        <ele>2174.6</ele>
        <time>2021-02-28T08:40:53Z</time>
      </trkpt>
      <trkpt lat="45.12233" lon="6.38565">
        <ele>2173.4</ele>
        <time>2021-02-28T08:40:54Z</time>
      </trkpt>
      <trkpt lat="45.12228" lon="6.38571">
        <ele>2171.6</ele>
        <time>2021-02-28T08:40:55Z</time>
      </trkpt>
      <trkpt lat="45.12226" lon="6.38579">
        <ele>2169.8</ele>
        <time>2021-02-28T08:40:56Z</time>
      </trkpt>
      <trkpt lat="45.12224" lon="6.38588">
        <ele>2167.8</ele>
        <time>2021-02-28T08:40:57Z</time>
      </trkpt>
      <trkpt lat="45.12223" lon="6.38596">
        <ele>2166.6</ele>
        <time>2021-02-28T08:40:58Z</time>
      </trkpt>
      <trkpt lat="45.12222" lon="6.38604">
        <ele>2165.4</ele>
        <time>2021-02-28T08:40:59Z</time>
      </trkpt>
      <trkpt lat="45.12221" lon="6.38613">
        <ele>2164</ele>
        <time>2021-02-28T08:41:00Z</time>
      </trkpt>
      <trkpt lat="45.12221" lon="6.38622">
        <ele>2162.4</ele>
        <time>2021-02-28T08:41:01Z</time>
      </trkpt>
      <trkpt lat="45.12219" lon="6.3863">
        <ele>2161.4</ele>
        <time>2021-02-28T08:41:02Z</time>
      </trkpt>
      <trkpt lat="45.12216" lon="6.38634">
        <ele>2160.4</ele>
        <time>2021-02-28T08:41:03Z</time>
      </trkpt>
      <trkpt lat="45.12213" lon="6.38637">
        <ele>2158.4</ele>
        <time>2021-02-28T08:41:04Z</time>
      </trkpt>
      <trkpt lat="45.12208" lon="6.38643">
        <ele>2156.8</ele>
        <time>2021-02-28T08:41:05Z</time>
      </trkpt>
      <trkpt lat="45.12204" lon="6.38652">
        <ele>2154</ele>
        <time>2021-02-28T08:41:06Z</time>
      </trkpt>
      <trkpt lat="45.12201" lon="6.38662">
        <ele>2152</ele>
        <time>2021-02-28T08:41:07Z</time>
      </trkpt>
      <trkpt lat="45.12197" lon="6.38671">
        <ele>2150</ele>
        <time>2021-02-28T08:41:08Z</time>
      </trkpt>
      <trkpt lat="45.12194" lon="6.38682">
        <ele>2148.4</ele>
        <time>2021-02-28T08:41:09Z</time>
      </trkpt>
      <trkpt lat="45.1219" lon="6.38694">
        <ele>2146.8</ele>
        <time>2021-02-28T08:41:10Z</time>
      </trkpt>
      <trkpt lat="45.12186" lon="6.38705">
        <ele>2145.2</ele>
        <time>2021-02-28T08:41:11Z</time>
      </trkpt>
      <trkpt lat="45.12182" lon="6.38716">
        <ele>2143.4</ele>
        <time>2021-02-28T08:41:12Z</time>
      </trkpt>
      <trkpt lat="45.12178" lon="6.38726">
        <ele>2141.8</ele>
        <time>2021-02-28T08:41:13Z</time>
      </trkpt>
      <trkpt lat="45.12175" lon="6.38735">
        <ele>2139.8</ele>
        <time>2021-02-28T08:41:14Z</time>
      </trkpt>
      <trkpt lat="45.12173" lon="6.38743">
        <ele>2138.4</ele>
        <time>2021-02-28T08:41:15Z</time>
      </trkpt>
      <trkpt lat="45.1217" lon="6.38751">
        <ele>2136.8</ele>
        <time>2021-02-28T08:41:16Z</time>
      </trkpt>
      <trkpt lat="45.12168" lon="6.38758">
        <ele>2136</ele>
        <time>2021-02-28T08:41:17Z</time>
      </trkpt>
      <trkpt lat="45.12167" lon="6.38765">
        <ele>2135.6</ele>
        <time>2021-02-28T08:41:18Z</time>
      </trkpt>
      <trkpt lat="45.12165" lon="6.38773">
        <ele>2135.2</ele>
        <time>2021-02-28T08:41:19Z</time>
      </trkpt>
      <trkpt lat="45.12162" lon="6.38781">
        <ele>2134</ele>
        <time>2021-02-28T08:41:20Z</time>
      </trkpt>
      <trkpt lat="45.1216" lon="6.38788">
        <ele>2134.2</ele>
        <time>2021-02-28T08:41:21Z</time>
      </trkpt>
      <trkpt lat="45.12158" lon="6.38795">
        <ele>2133.2</ele>
        <time>2021-02-28T08:41:22Z</time>
      </trkpt>
      <trkpt lat="45.12156" lon="6.38801">
        <ele>2133.2</ele>
        <time>2021-02-28T08:41:23Z</time>
      </trkpt>
      <trkpt lat="45.12154" lon="6.38807">
        <ele>2132</ele>
        <time>2021-02-28T08:41:24Z</time>
      </trkpt>
      <trkpt lat="45.12152" lon="6.38814">
        <ele>2130.8</ele>
        <time>2021-02-28T08:41:25Z</time>
      </trkpt>
      <trkpt lat="45.12149" lon="6.3882">
        <ele>2130.8</ele>
        <time>2021-02-28T08:41:26Z</time>
      </trkpt>
      <trkpt lat="45.12145" lon="6.38821">
        <ele>2129.8</ele>
        <time>2021-02-28T08:41:27Z</time>
      </trkpt>
      <trkpt lat="45.12139" lon="6.38822">
        <ele>2128</ele>
        <time>2021-02-28T08:41:28Z</time>
      </trkpt>
      <trkpt lat="45.12134" lon="6.38824">
        <ele>2126.4</ele>
        <time>2021-02-28T08:41:29Z</time>
      </trkpt>
      <trkpt lat="45.12131" lon="6.38831">
        <ele>2124.8</ele>
        <time>2021-02-28T08:41:30Z</time>
      </trkpt>
      <trkpt lat="45.12128" lon="6.38835">
        <ele>2122.8</ele>
        <time>2021-02-28T08:41:31Z</time>
      </trkpt>
      <trkpt lat="45.12122" lon="6.38838">
        <ele>2120.4</ele>
        <time>2021-02-28T08:41:32Z</time>
      </trkpt>
      <trkpt lat="45.12116" lon="6.38844">
        <ele>2118.6</ele>
        <time>2021-02-28T08:41:33Z</time>
      </trkpt>
      <trkpt lat="45.12111" lon="6.38854">
        <ele>2115.4</ele>
        <time>2021-02-28T08:41:34Z</time>
      </trkpt>
      <trkpt lat="45.12107" lon="6.38865">
        <ele>2112.2</ele>
        <time>2021-02-28T08:41:35Z</time>
      </trkpt>
      <trkpt lat="45.12105" lon="6.38876">
        <ele>2109.4</ele>
        <time>2021-02-28T08:41:36Z</time>
      </trkpt>
      <trkpt lat="45.12102" lon="6.38887">
        <ele>2107.6</ele>
        <time>2021-02-28T08:41:37Z</time>
      </trkpt>
      <trkpt lat="45.12099" lon="6.38898">
        <ele>2105.8</ele>
        <time>2021-02-28T08:41:38Z</time>
      </trkpt>
      <trkpt lat="45.12095" lon="6.3891">
        <ele>2103.8</ele>
        <time>2021-02-28T08:41:39Z</time>
      </trkpt>
      <trkpt lat="45.12092" lon="6.38921">
        <ele>2102.2</ele>
        <time>2021-02-28T08:41:40Z</time>
      </trkpt>
      <trkpt lat="45.12089" lon="6.38932">
        <ele>2100.6</ele>
        <time>2021-02-28T08:41:41Z</time>
      </trkpt>
      <trkpt lat="45.12086" lon="6.38943">
        <ele>2098.8</ele>
        <time>2021-02-28T08:41:42Z</time>
      </trkpt>
      <trkpt lat="45.12084" lon="6.38953">
        <ele>2097.4</ele>
        <time>2021-02-28T08:41:43Z</time>
      </trkpt>
      <trkpt lat="45.12083" lon="6.38963">
        <ele>2096.6</ele>
        <time>2021-02-28T08:41:44Z</time>
      </trkpt>
      <trkpt lat="45.12081" lon="6.38972">
        <ele>2095.8</ele>
        <time>2021-02-28T08:41:45Z</time>
      </trkpt>
      <trkpt lat="45.12079" lon="6.38984">
        <ele>2095</ele>
        <time>2021-02-28T08:41:46Z</time>
      </trkpt>
      <trkpt lat="45.12077" lon="6.38996">
        <ele>2093.8</ele>
        <time>2021-02-28T08:41:47Z</time>
      </trkpt>
      <trkpt lat="45.12075" lon="6.39009">
        <ele>2092.2</ele>
        <time>2021-02-28T08:41:48Z</time>
      </trkpt>
      <trkpt lat="45.12073" lon="6.39021">
        <ele>2090.6</ele>
        <time>2021-02-28T08:41:49Z</time>
      </trkpt>
      <trkpt lat="45.12072" lon="6.39033">
        <ele>2089</ele>
        <time>2021-02-28T08:41:50Z</time>
      </trkpt>
      <trkpt lat="45.12071" lon="6.39045">
        <ele>2087.6</ele>
        <time>2021-02-28T08:41:51Z</time>
      </trkpt>
      <trkpt lat="45.12071" lon="6.39055">
        <ele>2086.4</ele>
        <time>2021-02-28T08:41:52Z</time>
      </trkpt>
      <trkpt lat="45.12071" lon="6.39066">
        <ele>2085.8</ele>
        <time>2021-02-28T08:41:53Z</time>
      </trkpt>
      <trkpt lat="45.12071" lon="6.39076">
        <ele>2085.2</ele>
        <time>2021-02-28T08:41:54Z</time>
      </trkpt>
      <trkpt lat="45.12072" lon="6.39086">
        <ele>2084.6</ele>
        <time>2021-02-28T08:41:55Z</time>
      </trkpt>
      <trkpt lat="45.12072" lon="6.39096">
        <ele>2083.6</ele>
        <time>2021-02-28T08:41:56Z</time>
      </trkpt>
      <trkpt lat="45.12072" lon="6.39107">
        <ele>2082.8</ele>
        <time>2021-02-28T08:41:57Z</time>
      </trkpt>
      <trkpt lat="45.12071" lon="6.39117">
        <ele>2081</ele>
        <time>2021-02-28T08:41:58Z</time>
      </trkpt>
      <trkpt lat="45.12069" lon="6.39128">
        <ele>2080.2</ele>
        <time>2021-02-28T08:41:59Z</time>
      </trkpt>
      <trkpt lat="45.12067" lon="6.39138">
        <ele>2079.2</ele>
        <time>2021-02-28T08:42:00Z</time>
      </trkpt>
      <trkpt lat="45.12065" lon="6.39147">
        <ele>2078.2</ele>
        <time>2021-02-28T08:42:01Z</time>
      </trkpt>
      <trkpt lat="45.12063" lon="6.39155">
        <ele>2077.4</ele>
        <time>2021-02-28T08:42:02Z</time>
      </trkpt>
      <trkpt lat="45.12062" lon="6.39163">
        <ele>2076.8</ele>
        <time>2021-02-28T08:42:03Z</time>
      </trkpt>
      <trkpt lat="45.12061" lon="6.3917">
        <ele>2076.6</ele>
        <time>2021-02-28T08:42:04Z</time>
      </trkpt>
      <trkpt lat="45.1206" lon="6.39178">
        <ele>2076</ele>
        <time>2021-02-28T08:42:05Z</time>
      </trkpt>
      <trkpt lat="45.1206" lon="6.39183">
        <ele>2075.6</ele>
        <time>2021-02-28T08:42:06Z</time>
      </trkpt>
      <trkpt lat="45.12061" lon="6.39186">
        <ele>2074.8</ele>
        <time>2021-02-28T08:42:07Z</time>
      </trkpt>
      <trkpt lat="45.12061" lon="6.39186">
        <ele>2075.2</ele>
        <time>2021-02-28T08:42:08Z</time>
      </trkpt>
      <trkpt lat="45.12061" lon="6.39186">
        <ele>2075.6</ele>
        <time>2021-02-28T08:42:09Z</time>
      </trkpt>
      <trkpt lat="45.12061" lon="6.39186">
        <ele>2075.4</ele>
        <time>2021-02-28T08:42:10Z</time>
      </trkpt>
      <trkpt lat="45.12061" lon="6.39186">
        <ele>2075.4</ele>
        <time>2021-02-28T08:42:11Z</time>
      </trkpt>
      <trkpt lat="45.12061" lon="6.39186">
        <ele>2075.2</ele>
        <time>2021-02-28T08:42:12Z</time>
      </trkpt>
      <trkpt lat="45.12061" lon="6.39186">
        <ele>2075.2</ele>
        <time>2021-02-28T08:42:13Z</time>
      </trkpt>
      <trkpt lat="45.12061" lon="6.39186">
        <ele>2075.4</ele>
        <time>2021-02-28T08:42:14Z</time>
      </trkpt>
      <trkpt lat="45.12063" lon="6.39184">
        <ele>2075.2</ele>
        <time>2021-02-28T08:42:15Z</time>
      </trkpt>
      <trkpt lat="45.12063" lon="6.39184">
        <ele>2075.4</ele>
        <time>2021-02-28T08:42:16Z</time>
      </trkpt>
      <trkpt lat="45.12062" lon="6.39187">
        <ele>2075.6</ele>
        <time>2021-02-28T08:42:17Z</time>
      </trkpt>
      <trkpt lat="45.12061" lon="6.39191">
        <ele>2075.4</ele>
        <time>2021-02-28T08:42:18Z</time>
      </trkpt>
      <trkpt lat="45.1206" lon="6.39197">
        <ele>2074.8</ele>
        <time>2021-02-28T08:42:19Z</time>
      </trkpt>
      <trkpt lat="45.1206" lon="6.39203">
        <ele>2074.2</ele>
        <time>2021-02-28T08:42:20Z</time>
      </trkpt>
      <trkpt lat="45.1206" lon="6.3921">
        <ele>2073.6</ele>
        <time>2021-02-28T08:42:21Z</time>
      </trkpt>
      <trkpt lat="45.1206" lon="6.39219">
        <ele>2072.4</ele>
        <time>2021-02-28T08:42:22Z</time>
      </trkpt>
      <trkpt lat="45.1206" lon="6.39228">
        <ele>2071.2</ele>
        <time>2021-02-28T08:42:23Z</time>
      </trkpt>
      <trkpt lat="45.12061" lon="6.39239">
        <ele>2070</ele>
        <time>2021-02-28T08:42:24Z</time>
      </trkpt>
      <trkpt lat="45.12062" lon="6.39249">
        <ele>2069</ele>
        <time>2021-02-28T08:42:25Z</time>
      </trkpt>
      <trkpt lat="45.12063" lon="6.39259">
        <ele>2068</ele>
        <time>2021-02-28T08:42:26Z</time>
      </trkpt>
      <trkpt lat="45.12063" lon="6.39269">
        <ele>2066.8</ele>
        <time>2021-02-28T08:42:27Z</time>
      </trkpt>
      <trkpt lat="45.12063" lon="6.39277">
        <ele>2065.8</ele>
        <time>2021-02-28T08:42:28Z</time>
      </trkpt>
      <trkpt lat="45.12063" lon="6.39284">
        <ele>2064.6</ele>
        <time>2021-02-28T08:42:29Z</time>
      </trkpt>
      <trkpt lat="45.12062" lon="6.3929">
        <ele>2064.6</ele>
        <time>2021-02-28T08:42:30Z</time>
      </trkpt>
      <trkpt lat="45.12061" lon="6.39295">
        <ele>2064.6</ele>
        <time>2021-02-28T08:42:31Z</time>
      </trkpt>
      <trkpt lat="45.12059" lon="6.39301">
        <ele>2063.8</ele>
        <time>2021-02-28T08:42:32Z</time>
      </trkpt>
      <trkpt lat="45.12057" lon="6.39306">
        <ele>2063.6</ele>
        <time>2021-02-28T08:42:33Z</time>
      </trkpt>
      <trkpt lat="45.12056" lon="6.39312">
        <ele>2063.6</ele>
        <time>2021-02-28T08:42:34Z</time>
      </trkpt>
      <trkpt lat="45.12054" lon="6.39317">
        <ele>2063.2</ele>
        <time>2021-02-28T08:42:35Z</time>
      </trkpt>
      <trkpt lat="45.12052" lon="6.39323">
        <ele>2063</ele>
        <time>2021-02-28T08:42:36Z</time>
      </trkpt>
      <trkpt lat="45.12051" lon="6.3933">
        <ele>2062.2</ele>
        <time>2021-02-28T08:42:37Z</time>
      </trkpt>
      <trkpt lat="45.1205" lon="6.39337">
        <ele>2061.6</ele>
        <time>2021-02-28T08:42:38Z</time>
      </trkpt>
      <trkpt lat="45.12049" lon="6.39344">
        <ele>2061.2</ele>
        <time>2021-02-28T08:42:39Z</time>
      </trkpt>
      <trkpt lat="45.12048" lon="6.39351">
        <ele>2060.6</ele>
        <time>2021-02-28T08:42:40Z</time>
      </trkpt>
      <trkpt lat="45.12047" lon="6.39359">
        <ele>2060.2</ele>
        <time>2021-02-28T08:42:41Z</time>
      </trkpt>
      <trkpt lat="45.12046" lon="6.39369">
        <ele>2059.4</ele>
        <time>2021-02-28T08:42:42Z</time>
      </trkpt>
      <trkpt lat="45.12045" lon="6.39382">
        <ele>2058.4</ele>
        <time>2021-02-28T08:42:43Z</time>
      </trkpt>
      <trkpt lat="45.12043" lon="6.39396">
        <ele>2056.8</ele>
        <time>2021-02-28T08:42:44Z</time>
      </trkpt>
      <trkpt lat="45.12041" lon="6.39411">
        <ele>2054.6</ele>
        <time>2021-02-28T08:42:45Z</time>
      </trkpt>
      <trkpt lat="45.1204" lon="6.39425">
        <ele>2053</ele>
        <time>2021-02-28T08:42:46Z</time>
      </trkpt>
      <trkpt lat="45.12039" lon="6.39438">
        <ele>2051.2</ele>
        <time>2021-02-28T08:42:47Z</time>
      </trkpt>
      <trkpt lat="45.12037" lon="6.3945">
        <ele>2049.6</ele>
        <time>2021-02-28T08:42:48Z</time>
      </trkpt>
      <trkpt lat="45.12036" lon="6.39462">
        <ele>2048.2</ele>
        <time>2021-02-28T08:42:49Z</time>
      </trkpt>
      <trkpt lat="45.12035" lon="6.39474">
        <ele>2046.8</ele>
        <time>2021-02-28T08:42:50Z</time>
      </trkpt>
      <trkpt lat="45.12034" lon="6.39485">
        <ele>2045.6</ele>
        <time>2021-02-28T08:42:51Z</time>
      </trkpt>
      <trkpt lat="45.12034" lon="6.39496">
        <ele>2044.6</ele>
        <time>2021-02-28T08:42:52Z</time>
      </trkpt>
      <trkpt lat="45.12033" lon="6.39507">
        <ele>2043.4</ele>
        <time>2021-02-28T08:42:53Z</time>
      </trkpt>
      <trkpt lat="45.12031" lon="6.39518">
        <ele>2042.6</ele>
        <time>2021-02-28T08:42:54Z</time>
      </trkpt>
      <trkpt lat="45.1203" lon="6.3953">
        <ele>2042</ele>
        <time>2021-02-28T08:42:55Z</time>
      </trkpt>
      <trkpt lat="45.12028" lon="6.39542">
        <ele>2040.4</ele>
        <time>2021-02-28T08:42:56Z</time>
      </trkpt>
      <trkpt lat="45.12026" lon="6.39554">
        <ele>2039.4</ele>
        <time>2021-02-28T08:42:57Z</time>
      </trkpt>
      <trkpt lat="45.12024" lon="6.39565">
        <ele>2038.6</ele>
        <time>2021-02-28T08:42:58Z</time>
      </trkpt>
      <trkpt lat="45.12023" lon="6.39577">
        <ele>2037</ele>
        <time>2021-02-28T08:42:59Z</time>
      </trkpt>
      <trkpt lat="45.12022" lon="6.39588">
        <ele>2035.6</ele>
        <time>2021-02-28T08:43:00Z</time>
      </trkpt>
      <trkpt lat="45.12021" lon="6.39598">
        <ele>2035</ele>
        <time>2021-02-28T08:43:01Z</time>
      </trkpt>
      <trkpt lat="45.12021" lon="6.39607">
        <ele>2033.4</ele>
        <time>2021-02-28T08:43:02Z</time>
      </trkpt>
      <trkpt lat="45.1202" lon="6.39615">
        <ele>2032.4</ele>
        <time>2021-02-28T08:43:03Z</time>
      </trkpt>
      <trkpt lat="45.1202" lon="6.39624">
        <ele>2032.2</ele>
        <time>2021-02-28T08:43:04Z</time>
      </trkpt>
      <trkpt lat="45.12019" lon="6.39633">
        <ele>2031.6</ele>
        <time>2021-02-28T08:43:05Z</time>
      </trkpt>
      <trkpt lat="45.12019" lon="6.39641">
        <ele>2030.6</ele>
        <time>2021-02-28T08:43:06Z</time>
      </trkpt>
      <trkpt lat="45.12019" lon="6.3965">
        <ele>2030</ele>
        <time>2021-02-28T08:43:07Z</time>
      </trkpt>
      <trkpt lat="45.12019" lon="6.39659">
        <ele>2030</ele>
        <time>2021-02-28T08:43:08Z</time>
      </trkpt>
      <trkpt lat="45.12019" lon="6.39669">
        <ele>2029.2</ele>
        <time>2021-02-28T08:43:09Z</time>
      </trkpt>
      <trkpt lat="45.12019" lon="6.39679">
        <ele>2028.2</ele>
        <time>2021-02-28T08:43:10Z</time>
      </trkpt>
      <trkpt lat="45.12018" lon="6.39689">
        <ele>2027.6</ele>
        <time>2021-02-28T08:43:11Z</time>
      </trkpt>
      <trkpt lat="45.12018" lon="6.39699">
        <ele>2026.6</ele>
        <time>2021-02-28T08:43:12Z</time>
      </trkpt>
      <trkpt lat="45.12018" lon="6.39709">
        <ele>2025.6</ele>
        <time>2021-02-28T08:43:13Z</time>
      </trkpt>
      <trkpt lat="45.12019" lon="6.3972">
        <ele>2024.8</ele>
        <time>2021-02-28T08:43:14Z</time>
      </trkpt>
      <trkpt lat="45.12019" lon="6.39731">
        <ele>2024</ele>
        <time>2021-02-28T08:43:15Z</time>
      </trkpt>
      <trkpt lat="45.1202" lon="6.3974">
        <ele>2023.2</ele>
        <time>2021-02-28T08:43:16Z</time>
      </trkpt>
      <trkpt lat="45.12021" lon="6.39749">
        <ele>2022.4</ele>
        <time>2021-02-28T08:43:17Z</time>
      </trkpt>
      <trkpt lat="45.12022" lon="6.39758">
        <ele>2021.6</ele>
        <time>2021-02-28T08:43:18Z</time>
      </trkpt>
      <trkpt lat="45.12023" lon="6.39766">
        <ele>2021.2</ele>
        <time>2021-02-28T08:43:19Z</time>
      </trkpt>
      <trkpt lat="45.12024" lon="6.39774">
        <ele>2020.6</ele>
        <time>2021-02-28T08:43:20Z</time>
      </trkpt>
      <trkpt lat="45.12021" lon="6.39779">
        <ele>2019.6</ele>
        <time>2021-02-28T08:43:21Z</time>
      </trkpt>
      <trkpt lat="45.12015" lon="6.39778">
        <ele>2018</ele>
        <time>2021-02-28T08:43:22Z</time>
      </trkpt>
      <trkpt lat="45.12009" lon="6.39778">
        <ele>2015.6</ele>
        <time>2021-02-28T08:43:23Z</time>
      </trkpt>
      <trkpt lat="45.12003" lon="6.39782">
        <ele>2014.4</ele>
        <time>2021-02-28T08:43:24Z</time>
      </trkpt>
      <trkpt lat="45.11999" lon="6.39792">
        <ele>2012.4</ele>
        <time>2021-02-28T08:43:25Z</time>
      </trkpt>
      <trkpt lat="45.11998" lon="6.39805">
        <ele>2010</ele>
        <time>2021-02-28T08:43:26Z</time>
      </trkpt>
      <trkpt lat="45.11997" lon="6.39818">
        <ele>2008</ele>
        <time>2021-02-28T08:43:27Z</time>
      </trkpt>
      <trkpt lat="45.11998" lon="6.39831">
        <ele>2004.8</ele>
        <time>2021-02-28T08:43:28Z</time>
      </trkpt>
      <trkpt lat="45.11999" lon="6.39843">
        <ele>2002</ele>
        <time>2021-02-28T08:43:29Z</time>
      </trkpt>
      <trkpt lat="45.12" lon="6.39856">
        <ele>1999.4</ele>
        <time>2021-02-28T08:43:30Z</time>
      </trkpt>
      <trkpt lat="45.12" lon="6.39869">
        <ele>1997.6</ele>
        <time>2021-02-28T08:43:31Z</time>
      </trkpt>
      <trkpt lat="45.12001" lon="6.39881">
        <ele>1995.8</ele>
        <time>2021-02-28T08:43:32Z</time>
      </trkpt>
      <trkpt lat="45.12003" lon="6.39893">
        <ele>1993.2</ele>
        <time>2021-02-28T08:43:33Z</time>
      </trkpt>
      <trkpt lat="45.12004" lon="6.39905">
        <ele>1991.4</ele>
        <time>2021-02-28T08:43:34Z</time>
      </trkpt>
      <trkpt lat="45.12002" lon="6.39913">
        <ele>1990.4</ele>
        <time>2021-02-28T08:43:35Z</time>
      </trkpt>
      <trkpt lat="45.11998" lon="6.39921">
        <ele>1988.8</ele>
        <time>2021-02-28T08:43:36Z</time>
      </trkpt>
      <trkpt lat="45.11993" lon="6.39928">
        <ele>1986</ele>
        <time>2021-02-28T08:43:37Z</time>
      </trkpt>
      <trkpt lat="45.11989" lon="6.39935">
        <ele>1984</ele>
        <time>2021-02-28T08:43:38Z</time>
      </trkpt>
      <trkpt lat="45.11986" lon="6.39945">
        <ele>1981.2</ele>
        <time>2021-02-28T08:43:39Z</time>
      </trkpt>
      <trkpt lat="45.11984" lon="6.39956">
        <ele>1978.8</ele>
        <time>2021-02-28T08:43:40Z</time>
      </trkpt>
      <trkpt lat="45.11981" lon="6.39965">
        <ele>1976.8</ele>
        <time>2021-02-28T08:43:41Z</time>
      </trkpt>
      <trkpt lat="45.11978" lon="6.39973">
        <ele>1975.2</ele>
        <time>2021-02-28T08:43:42Z</time>
      </trkpt>
      <trkpt lat="45.11977" lon="6.39984">
        <ele>1973</ele>
        <time>2021-02-28T08:43:43Z</time>
      </trkpt>
      <trkpt lat="45.11976" lon="6.39994">
        <ele>1971</ele>
        <time>2021-02-28T08:43:44Z</time>
      </trkpt>
      <trkpt lat="45.11973" lon="6.40002">
        <ele>1969.2</ele>
        <time>2021-02-28T08:43:45Z</time>
      </trkpt>
      <trkpt lat="45.1197" lon="6.40009">
        <ele>1967.6</ele>
        <time>2021-02-28T08:43:46Z</time>
      </trkpt>
      <trkpt lat="45.11968" lon="6.40016">
        <ele>1965.6</ele>
        <time>2021-02-28T08:43:47Z</time>
      </trkpt>
      <trkpt lat="45.11969" lon="6.4002">
        <ele>1963.6</ele>
        <time>2021-02-28T08:43:48Z</time>
      </trkpt>
      <trkpt lat="45.11969" lon="6.4002">
        <ele>1961.4</ele>
        <time>2021-02-28T08:43:49Z</time>
      </trkpt>
      <trkpt lat="45.11971" lon="6.4002">
        <ele>1961.2</ele>
        <time>2021-02-28T08:43:50Z</time>
      </trkpt>
      <trkpt lat="45.11971" lon="6.4002">
        <ele>1961</ele>
        <time>2021-02-28T08:43:51Z</time>
      </trkpt>
      <trkpt lat="45.11971" lon="6.4002">
        <ele>1960.8</ele>
        <time>2021-02-28T08:43:52Z</time>
      </trkpt>
      <trkpt lat="45.11971" lon="6.4002">
        <ele>1960.2</ele>
        <time>2021-02-28T08:43:53Z</time>
      </trkpt>
      <trkpt lat="45.11971" lon="6.4002">
        <ele>1960</ele>
        <time>2021-02-28T08:43:54Z</time>
      </trkpt>
      <trkpt lat="45.11971" lon="6.4002">
        <ele>1959.8</ele>
        <time>2021-02-28T08:43:55Z</time>
      </trkpt>
      <trkpt lat="45.11971" lon="6.4002">
        <ele>1959.8</ele>
        <time>2021-02-28T08:43:56Z</time>
      </trkpt>
      <trkpt lat="45.11971" lon="6.4002">
        <ele>1959.6</ele>
        <time>2021-02-28T08:43:57Z</time>
      </trkpt>
      <trkpt lat="45.11971" lon="6.4002">
        <ele>1959.6</ele>
        <time>2021-02-28T08:43:58Z</time>
      </trkpt>
      <trkpt lat="45.11971" lon="6.4002">
        <ele>1959.8</ele>
        <time>2021-02-28T08:43:59Z</time>
      </trkpt>
      <trkpt lat="45.11971" lon="6.4002">
        <ele>1959.6</ele>
        <time>2021-02-28T08:44:00Z</time>
      </trkpt>
      <trkpt lat="45.11971" lon="6.4002">
        <ele>1959.8</ele>
        <time>2021-02-28T08:44:01Z</time>
      </trkpt>
      <trkpt lat="45.11973" lon="6.40019">
        <ele>1959.6</ele>
        <time>2021-02-28T08:44:02Z</time>
      </trkpt>
      <trkpt lat="45.11973" lon="6.40019">
        <ele>1959.2</ele>
        <time>2021-02-28T08:44:03Z</time>
      </trkpt>
      <trkpt lat="45.11973" lon="6.40019">
        <ele>1959.2</ele>
        <time>2021-02-28T08:44:04Z</time>
      </trkpt>
      <trkpt lat="45.11973" lon="6.40019">
        <ele>1959.4</ele>
        <time>2021-02-28T08:44:05Z</time>
      </trkpt>
      <trkpt lat="45.11973" lon="6.40019">
        <ele>1959.2</ele>
        <time>2021-02-28T08:44:06Z</time>
      </trkpt>
      <trkpt lat="45.11973" lon="6.40019">
        <ele>1959.2</ele>
        <time>2021-02-28T08:44:07Z</time>
      </trkpt>
      <trkpt lat="45.11976" lon="6.40019">
        <ele>1958.8</ele>
        <time>2021-02-28T08:44:08Z</time>
      </trkpt>
      <trkpt lat="45.11976" lon="6.40019">
        <ele>1958.8</ele>
        <time>2021-02-28T08:44:09Z</time>
      </trkpt>
      <trkpt lat="45.11976" lon="6.40019">
        <ele>1959</ele>
        <time>2021-02-28T08:44:10Z</time>
      </trkpt>
      <trkpt lat="45.11976" lon="6.40019">
        <ele>1959</ele>
        <time>2021-02-28T08:44:11Z</time>
      </trkpt>
      <trkpt lat="45.11976" lon="6.40019">
        <ele>1958.8</ele>
        <time>2021-02-28T08:44:12Z</time>
      </trkpt>
      <trkpt lat="45.11976" lon="6.40019">
        <ele>1958.6</ele>
        <time>2021-02-28T08:44:13Z</time>
      </trkpt>
      <trkpt lat="45.11976" lon="6.40019">
        <ele>1958.6</ele>
        <time>2021-02-28T08:44:14Z</time>
      </trkpt>
      <trkpt lat="45.11976" lon="6.40019">
        <ele>1957.4</ele>
        <time>2021-02-28T08:44:15Z</time>
      </trkpt>
      <trkpt lat="45.11976" lon="6.40019">
        <ele>1958</ele>
        <time>2021-02-28T08:44:16Z</time>
      </trkpt>
      <trkpt lat="45.11976" lon="6.40019">
        <ele>1958.6</ele>
        <time>2021-02-28T08:44:17Z</time>
      </trkpt>
      <trkpt lat="45.11976" lon="6.40019">
        <ele>1959</ele>
        <time>2021-02-28T08:44:18Z</time>
      </trkpt>
      <trkpt lat="45.11976" lon="6.40019">
        <ele>1959</ele>
        <time>2021-02-28T08:44:19Z</time>
      </trkpt>
      <trkpt lat="45.11976" lon="6.40019">
        <ele>1959</ele>
        <time>2021-02-28T08:44:20Z</time>
      </trkpt>
      <trkpt lat="45.11976" lon="6.40019">
        <ele>1958.8</ele>
        <time>2021-02-28T08:44:21Z</time>
      </trkpt>
      <trkpt lat="45.11976" lon="6.40019">
        <ele>1959</ele>
        <time>2021-02-28T08:44:22Z</time>
      </trkpt>
      <trkpt lat="45.11976" lon="6.40019">
        <ele>1959</ele>
        <time>2021-02-28T08:44:23Z</time>
      </trkpt>
      <trkpt lat="45.11976" lon="6.40019">
        <ele>1959</ele>
        <time>2021-02-28T08:44:24Z</time>
      </trkpt>
      <trkpt lat="45.11976" lon="6.40019">
        <ele>1959</ele>
        <time>2021-02-28T08:44:25Z</time>
      </trkpt>
      <trkpt lat="45.11976" lon="6.40019">
        <ele>1958.8</ele>
        <time>2021-02-28T08:44:26Z</time>
      </trkpt>
      <trkpt lat="45.11976" lon="6.40019">
        <ele>1958.6</ele>
        <time>2021-02-28T08:44:27Z</time>
      </trkpt>
      <trkpt lat="45.11976" lon="6.40019">
        <ele>1958.2</ele>
        <time>2021-02-28T08:44:28Z</time>
      </trkpt>
      <trkpt lat="45.11976" lon="6.40019">
        <ele>1958.4</ele>
        <time>2021-02-28T08:44:29Z</time>
      </trkpt>
      <trkpt lat="45.11976" lon="6.40019">
        <ele>1958.2</ele>
        <time>2021-02-28T08:44:30Z</time>
      </trkpt>
      <trkpt lat="45.11976" lon="6.40019">
        <ele>1958.2</ele>
        <time>2021-02-28T08:44:31Z</time>
      </trkpt>
      <trkpt lat="45.11976" lon="6.40019">
        <ele>1958.2</ele>
        <time>2021-02-28T08:44:32Z</time>
      </trkpt>
      <trkpt lat="45.11976" lon="6.40019">
        <ele>1958.2</ele>
        <time>2021-02-28T08:44:33Z</time>
      </trkpt>
      <trkpt lat="45.11976" lon="6.40019">
        <ele>1958</ele>
        <time>2021-02-28T08:44:34Z</time>
      </trkpt>
      <trkpt lat="45.11976" lon="6.40019">
        <ele>1958</ele>
        <time>2021-02-28T08:44:35Z</time>
      </trkpt>
      <trkpt lat="45.11976" lon="6.40019">
        <ele>1958.2</ele>
        <time>2021-02-28T08:44:36Z</time>
      </trkpt>
      <trkpt lat="45.11976" lon="6.40019">
        <ele>1958</ele>
        <time>2021-02-28T08:44:37Z</time>
      </trkpt>
      <trkpt lat="45.11976" lon="6.40019">
        <ele>1957.8</ele>
        <time>2021-02-28T08:44:38Z</time>
      </trkpt>
      <trkpt lat="45.11976" lon="6.40019">
        <ele>1958.4</ele>
        <time>2021-02-28T08:44:39Z</time>
      </trkpt>
      <trkpt lat="45.11976" lon="6.40019">
        <ele>1958.6</ele>
        <time>2021-02-28T08:44:40Z</time>
      </trkpt>
      <trkpt lat="45.11976" lon="6.40019">
        <ele>1958.8</ele>
        <time>2021-02-28T08:44:41Z</time>
      </trkpt>
      <trkpt lat="45.11976" lon="6.40019">
        <ele>1958.6</ele>
        <time>2021-02-28T08:44:42Z</time>
      </trkpt>
      <trkpt lat="45.11976" lon="6.40019">
        <ele>1958.6</ele>
        <time>2021-02-28T08:44:43Z</time>
      </trkpt>
      <trkpt lat="45.11976" lon="6.40019">
        <ele>1958.6</ele>
        <time>2021-02-28T08:44:44Z</time>
      </trkpt>
      <trkpt lat="45.11976" lon="6.40019">
        <ele>1958.4</ele>
        <time>2021-02-28T08:44:45Z</time>
      </trkpt>
      <trkpt lat="45.11976" lon="6.40019">
        <ele>1958.4</ele>
        <time>2021-02-28T08:44:46Z</time>
      </trkpt>
      <trkpt lat="45.11976" lon="6.40019">
        <ele>1958.4</ele>
        <time>2021-02-28T08:44:47Z</time>
      </trkpt>
      <trkpt lat="45.11976" lon="6.40019">
        <ele>1958.2</ele>
        <time>2021-02-28T08:44:48Z</time>
      </trkpt>
      <trkpt lat="45.11976" lon="6.40019">
        <ele>1958.2</ele>
        <time>2021-02-28T08:44:49Z</time>
      </trkpt>
      <trkpt lat="45.11976" lon="6.40019">
        <ele>1958</ele>
        <time>2021-02-28T08:44:50Z</time>
      </trkpt>
      <trkpt lat="45.11976" lon="6.40019">
        <ele>1957.8</ele>
        <time>2021-02-28T08:44:51Z</time>
      </trkpt>
      <trkpt lat="45.11976" lon="6.40019">
        <ele>1958</ele>
        <time>2021-02-28T08:44:52Z</time>
      </trkpt>
      <trkpt lat="45.11976" lon="6.40019">
        <ele>1957.8</ele>
        <time>2021-02-28T08:44:53Z</time>
      </trkpt>
      <trkpt lat="45.11976" lon="6.40019">
        <ele>1957.8</ele>
        <time>2021-02-28T08:44:54Z</time>
      </trkpt>
      <trkpt lat="45.11976" lon="6.40019">
        <ele>1957.8</ele>
        <time>2021-02-28T08:44:55Z</time>
      </trkpt>
      <trkpt lat="45.11976" lon="6.40019">
        <ele>1957</ele>
        <time>2021-02-28T08:44:56Z</time>
      </trkpt>
      <trkpt lat="45.11976" lon="6.40019">
        <ele>1957.6</ele>
        <time>2021-02-28T08:44:57Z</time>
      </trkpt>
      <trkpt lat="45.11976" lon="6.40019">
        <ele>1958.4</ele>
        <time>2021-02-28T08:44:58Z</time>
      </trkpt>
      <trkpt lat="45.11976" lon="6.40019">
        <ele>1958.6</ele>
        <time>2021-02-28T08:44:59Z</time>
      </trkpt>
      <trkpt lat="45.11976" lon="6.40019">
        <ele>1958.6</ele>
        <time>2021-02-28T08:45:00Z</time>
      </trkpt>
      <trkpt lat="45.11976" lon="6.40019">
        <ele>1958.6</ele>
        <time>2021-02-28T08:45:01Z</time>
      </trkpt>
      <trkpt lat="45.11976" lon="6.40019">
        <ele>1958.4</ele>
        <time>2021-02-28T08:45:02Z</time>
      </trkpt>
      <trkpt lat="45.11976" lon="6.40019">
        <ele>1958.4</ele>
        <time>2021-02-28T08:45:03Z</time>
      </trkpt>
      <trkpt lat="45.11974" lon="6.40017">
        <ele>1958.6</ele>
        <time>2021-02-28T08:45:04Z</time>
      </trkpt>
      <trkpt lat="45.11974" lon="6.40017">
        <ele>1959</ele>
        <time>2021-02-28T08:45:05Z</time>
      </trkpt>
      <trkpt lat="45.11974" lon="6.40017">
        <ele>1958</ele>
        <time>2021-02-28T08:45:06Z</time>
      </trkpt>
      <trkpt lat="45.11974" lon="6.40017">
        <ele>1958.2</ele>
        <time>2021-02-28T08:45:07Z</time>
      </trkpt>
      <trkpt lat="45.11974" lon="6.40017">
        <ele>1957.8</ele>
        <time>2021-02-28T08:45:08Z</time>
      </trkpt>
      <trkpt lat="45.11974" lon="6.40017">
        <ele>1958.4</ele>
        <time>2021-02-28T08:45:09Z</time>
      </trkpt>
      <trkpt lat="45.11974" lon="6.40017">
        <ele>1958.6</ele>
        <time>2021-02-28T08:45:10Z</time>
      </trkpt>
      <trkpt lat="45.11974" lon="6.40017">
        <ele>1958.2</ele>
        <time>2021-02-28T08:45:11Z</time>
      </trkpt>
      <trkpt lat="45.11974" lon="6.40017">
        <ele>1958</ele>
        <time>2021-02-28T08:45:12Z</time>
      </trkpt>
      <trkpt lat="45.11974" lon="6.40017">
        <ele>1957.8</ele>
        <time>2021-02-28T08:45:13Z</time>
      </trkpt>
      <trkpt lat="45.11974" lon="6.40017">
        <ele>1957.8</ele>
        <time>2021-02-28T08:45:14Z</time>
      </trkpt>
      <trkpt lat="45.11974" lon="6.40017">
        <ele>1957.8</ele>
        <time>2021-02-28T08:45:15Z</time>
      </trkpt>
      <trkpt lat="45.11974" lon="6.40017">
        <ele>1957.4</ele>
        <time>2021-02-28T08:45:16Z</time>
      </trkpt>
      <trkpt lat="45.11974" lon="6.40017">
        <ele>1957.4</ele>
        <time>2021-02-28T08:45:17Z</time>
      </trkpt>
      <trkpt lat="45.11974" lon="6.40017">
        <ele>1957.4</ele>
        <time>2021-02-28T08:45:18Z</time>
      </trkpt>
      <trkpt lat="45.11974" lon="6.40017">
        <ele>1957.4</ele>
        <time>2021-02-28T08:45:19Z</time>
      </trkpt>
      <trkpt lat="45.11974" lon="6.40017">
        <ele>1957.2</ele>
        <time>2021-02-28T08:45:20Z</time>
      </trkpt>
      <trkpt lat="45.11974" lon="6.40017">
        <ele>1957.4</ele>
        <time>2021-02-28T08:45:21Z</time>
      </trkpt>
      <trkpt lat="45.11974" lon="6.40017">
        <ele>1957</ele>
        <time>2021-02-28T08:45:22Z</time>
      </trkpt>
      <trkpt lat="45.11974" lon="6.40017">
        <ele>1956.8</ele>
        <time>2021-02-28T08:45:23Z</time>
      </trkpt>
      <trkpt lat="45.11974" lon="6.40017">
        <ele>1957</ele>
        <time>2021-02-28T08:45:24Z</time>
      </trkpt>
      <trkpt lat="45.11974" lon="6.40017">
        <ele>1957.2</ele>
        <time>2021-02-28T08:45:25Z</time>
      </trkpt>
      <trkpt lat="45.11974" lon="6.40017">
        <ele>1957.4</ele>
        <time>2021-02-28T08:45:26Z</time>
      </trkpt>
      <trkpt lat="45.11974" lon="6.40017">
        <ele>1957.4</ele>
        <time>2021-02-28T08:45:27Z</time>
      </trkpt>
      <trkpt lat="45.11974" lon="6.40017">
        <ele>1957.4</ele>
        <time>2021-02-28T08:45:28Z</time>
      </trkpt>
      <trkpt lat="45.11974" lon="6.40017">
        <ele>1957.2</ele>
        <time>2021-02-28T08:45:29Z</time>
      </trkpt>
      <trkpt lat="45.11974" lon="6.40017">
        <ele>1957.4</ele>
        <time>2021-02-28T08:45:30Z</time>
      </trkpt>
      <trkpt lat="45.11974" lon="6.40017">
        <ele>1957.4</ele>
        <time>2021-02-28T08:45:31Z</time>
      </trkpt>
      <trkpt lat="45.11974" lon="6.40017">
        <ele>1957.2</ele>
        <time>2021-02-28T08:45:32Z</time>
      </trkpt>
      <trkpt lat="45.11974" lon="6.40017">
        <ele>1957.2</ele>
        <time>2021-02-28T08:45:33Z</time>
      </trkpt>
      <trkpt lat="45.11974" lon="6.40017">
        <ele>1957.4</ele>
        <time>2021-02-28T08:45:34Z</time>
      </trkpt>
      <trkpt lat="45.11974" lon="6.40017">
        <ele>1957.4</ele>
        <time>2021-02-28T08:45:35Z</time>
      </trkpt>
      <trkpt lat="45.11974" lon="6.40017">
        <ele>1957.2</ele>
        <time>2021-02-28T08:45:36Z</time>
      </trkpt>
      <trkpt lat="45.11974" lon="6.40017">
        <ele>1957.2</ele>
        <time>2021-02-28T08:45:37Z</time>
      </trkpt>
      <trkpt lat="45.11974" lon="6.40017">
        <ele>1957.6</ele>
        <time>2021-02-28T08:45:38Z</time>
      </trkpt>
      <trkpt lat="45.11974" lon="6.40017">
        <ele>1957.4</ele>
        <time>2021-02-28T08:45:39Z</time>
      </trkpt>
      <trkpt lat="45.11974" lon="6.40017">
        <ele>1957.2</ele>
        <time>2021-02-28T08:45:40Z</time>
      </trkpt>
      <trkpt lat="45.11974" lon="6.40017">
        <ele>1957.2</ele>
        <time>2021-02-28T08:45:41Z</time>
      </trkpt>
      <trkpt lat="45.11974" lon="6.40017">
        <ele>1957.4</ele>
        <time>2021-02-28T08:45:42Z</time>
      </trkpt>
      <trkpt lat="45.11974" lon="6.40017">
        <ele>1957.6</ele>
        <time>2021-02-28T08:45:43Z</time>
      </trkpt>
      <trkpt lat="45.11974" lon="6.40017">
        <ele>1957.2</ele>
        <time>2021-02-28T08:45:44Z</time>
      </trkpt>
      <trkpt lat="45.11974" lon="6.40017">
        <ele>1956.8</ele>
        <time>2021-02-28T08:45:45Z</time>
      </trkpt>
      <trkpt lat="45.11974" lon="6.40017">
        <ele>1957</ele>
        <time>2021-02-28T08:45:46Z</time>
      </trkpt>
      <trkpt lat="45.11974" lon="6.40017">
        <ele>1956.8</ele>
        <time>2021-02-28T08:45:47Z</time>
      </trkpt>
      <trkpt lat="45.11974" lon="6.40017">
        <ele>1957</ele>
        <time>2021-02-28T08:45:48Z</time>
      </trkpt>
      <trkpt lat="45.11974" lon="6.40017">
        <ele>1957.4</ele>
        <time>2021-02-28T08:45:49Z</time>
      </trkpt>
      <trkpt lat="45.11974" lon="6.40017">
        <ele>1957.6</ele>
        <time>2021-02-28T08:45:50Z</time>
      </trkpt>
      <trkpt lat="45.11974" lon="6.40017">
        <ele>1957.8</ele>
        <time>2021-02-28T08:45:51Z</time>
      </trkpt>
      <trkpt lat="45.11974" lon="6.40017">
        <ele>1958</ele>
        <time>2021-02-28T08:45:52Z</time>
      </trkpt>
      <trkpt lat="45.11974" lon="6.40017">
        <ele>1958.4</ele>
        <time>2021-02-28T08:45:53Z</time>
      </trkpt>
      <trkpt lat="45.11974" lon="6.40017">
        <ele>1958.4</ele>
        <time>2021-02-28T08:45:54Z</time>
      </trkpt>
      <trkpt lat="45.11974" lon="6.40017">
        <ele>1958.6</ele>
        <time>2021-02-28T08:45:55Z</time>
      </trkpt>
      <trkpt lat="45.11974" lon="6.40017">
        <ele>1958.8</ele>
        <time>2021-02-28T08:45:56Z</time>
      </trkpt>
      <trkpt lat="45.11974" lon="6.40017">
        <ele>1958.8</ele>
        <time>2021-02-28T08:45:57Z</time>
      </trkpt>
      <trkpt lat="45.11974" lon="6.40017">
        <ele>1958.8</ele>
        <time>2021-02-28T08:45:58Z</time>
      </trkpt>
      <trkpt lat="45.11974" lon="6.40017">
        <ele>1958.6</ele>
        <time>2021-02-28T08:45:59Z</time>
      </trkpt>
      <trkpt lat="45.11974" lon="6.40017">
        <ele>1959.2</ele>
        <time>2021-02-28T08:46:00Z</time>
      </trkpt>
      <trkpt lat="45.11974" lon="6.40017">
        <ele>1959.2</ele>
        <time>2021-02-28T08:46:01Z</time>
      </trkpt>
      <trkpt lat="45.11974" lon="6.40017">
        <ele>1959.2</ele>
        <time>2021-02-28T08:46:02Z</time>
      </trkpt>
      <trkpt lat="45.11974" lon="6.40017">
        <ele>1959.2</ele>
        <time>2021-02-28T08:46:03Z</time>
      </trkpt>
      <trkpt lat="45.11974" lon="6.40017">
        <ele>1958.8</ele>
        <time>2021-02-28T08:46:04Z</time>
      </trkpt>
      <trkpt lat="45.11974" lon="6.40017">
        <ele>1958.6</ele>
        <time>2021-02-28T08:46:05Z</time>
      </trkpt>
      <trkpt lat="45.11974" lon="6.40017">
        <ele>1958.4</ele>
        <time>2021-02-28T08:46:06Z</time>
      </trkpt>
      <trkpt lat="45.11974" lon="6.40017">
        <ele>1958.6</ele>
        <time>2021-02-28T08:46:07Z</time>
      </trkpt>
      <trkpt lat="45.11974" lon="6.40017">
        <ele>1958.8</ele>
        <time>2021-02-28T08:46:08Z</time>
      </trkpt>
      <trkpt lat="45.11974" lon="6.40017">
        <ele>1958.8</ele>
        <time>2021-02-28T08:46:09Z</time>
      </trkpt>
      <trkpt lat="45.11974" lon="6.40017">
        <ele>1959</ele>
        <time>2021-02-28T08:46:10Z</time>
      </trkpt>
      <trkpt lat="45.11974" lon="6.40017">
        <ele>1959</ele>
        <time>2021-02-28T08:46:11Z</time>
      </trkpt>
      <trkpt lat="45.11974" lon="6.40017">
        <ele>1959</ele>
        <time>2021-02-28T08:46:12Z</time>
      </trkpt>
      <trkpt lat="45.11974" lon="6.40017">
        <ele>1958.8</ele>
        <time>2021-02-28T08:46:13Z</time>
      </trkpt>
      <trkpt lat="45.11974" lon="6.40017">
        <ele>1958.8</ele>
        <time>2021-02-28T08:46:14Z</time>
      </trkpt>
      <trkpt lat="45.11974" lon="6.40017">
        <ele>1959</ele>
        <time>2021-02-28T08:46:15Z</time>
      </trkpt>
      <trkpt lat="45.11974" lon="6.40017">
        <ele>1958.8</ele>
        <time>2021-02-28T08:46:16Z</time>
      </trkpt>
      <trkpt lat="45.11974" lon="6.40017">
        <ele>1958.4</ele>
        <time>2021-02-28T08:46:17Z</time>
      </trkpt>
      <trkpt lat="45.11973" lon="6.40019">
        <ele>1958.4</ele>
        <time>2021-02-28T08:46:18Z</time>
      </trkpt>
      <trkpt lat="45.11973" lon="6.40019">
        <ele>1958.6</ele>
        <time>2021-02-28T08:46:19Z</time>
      </trkpt>
      <trkpt lat="45.11973" lon="6.40023">
        <ele>1957.8</ele>
        <time>2021-02-28T08:46:20Z</time>
      </trkpt>
      <trkpt lat="45.11973" lon="6.40023">
        <ele>1957.4</ele>
        <time>2021-02-28T08:46:21Z</time>
      </trkpt>
      <trkpt lat="45.11974" lon="6.40027">
        <ele>1957</ele>
        <time>2021-02-28T08:46:22Z</time>
      </trkpt>
      <trkpt lat="45.11974" lon="6.40027">
        <ele>1956.8</ele>
        <time>2021-02-28T08:46:23Z</time>
      </trkpt>
      <trkpt lat="45.11973" lon="6.40033">
        <ele>1956.6</ele>
        <time>2021-02-28T08:46:24Z</time>
      </trkpt>
      <trkpt lat="45.11974" lon="6.40041">
        <ele>1956.2</ele>
        <time>2021-02-28T08:46:25Z</time>
      </trkpt>
      <trkpt lat="45.11974" lon="6.40045">
        <ele>1955.6</ele>
        <time>2021-02-28T08:46:26Z</time>
      </trkpt>
      <trkpt lat="45.11975" lon="6.40051">
        <ele>1955.2</ele>
        <time>2021-02-28T08:46:27Z</time>
      </trkpt>
      <trkpt lat="45.11975" lon="6.40056">
        <ele>1954.8</ele>
        <time>2021-02-28T08:46:28Z</time>
      </trkpt>
      <trkpt lat="45.11972" lon="6.40058">
        <ele>1954</ele>
        <time>2021-02-28T08:46:29Z</time>
      </trkpt>
      <trkpt lat="45.11968" lon="6.40059">
        <ele>1952.2</ele>
        <time>2021-02-28T08:46:30Z</time>
      </trkpt>
      <trkpt lat="45.11962" lon="6.40062">
        <ele>1952.2</ele>
        <time>2021-02-28T08:46:31Z</time>
      </trkpt>
      <trkpt lat="45.11955" lon="6.40068">
        <ele>1951.2</ele>
        <time>2021-02-28T08:46:32Z</time>
      </trkpt>
      <trkpt lat="45.11951" lon="6.40078">
        <ele>1950.2</ele>
        <time>2021-02-28T08:46:33Z</time>
      </trkpt>
      <trkpt lat="45.11949" lon="6.40088">
        <ele>1948.4</ele>
        <time>2021-02-28T08:46:34Z</time>
      </trkpt>
      <trkpt lat="45.11949" lon="6.40099">
        <ele>1947</ele>
        <time>2021-02-28T08:46:35Z</time>
      </trkpt>
      <trkpt lat="45.11945" lon="6.40107">
        <ele>1945.6</ele>
        <time>2021-02-28T08:46:36Z</time>
      </trkpt>
      <trkpt lat="45.1194" lon="6.40112">
        <ele>1943.4</ele>
        <time>2021-02-28T08:46:37Z</time>
      </trkpt>
      <trkpt lat="45.11934" lon="6.40114">
        <ele>1942</ele>
        <time>2021-02-28T08:46:38Z</time>
      </trkpt>
      <trkpt lat="45.11927" lon="6.40114">
        <ele>1941.2</ele>
        <time>2021-02-28T08:46:39Z</time>
      </trkpt>
      <trkpt lat="45.1192" lon="6.40114">
        <ele>1938.8</ele>
        <time>2021-02-28T08:46:40Z</time>
      </trkpt>
      <trkpt lat="45.11914" lon="6.40119">
        <ele>1937.6</ele>
        <time>2021-02-28T08:46:41Z</time>
      </trkpt>
      <trkpt lat="45.11912" lon="6.4013">
        <ele>1936.4</ele>
        <time>2021-02-28T08:46:42Z</time>
      </trkpt>
      <trkpt lat="45.11911" lon="6.40143">
        <ele>1934.8</ele>
        <time>2021-02-28T08:46:43Z</time>
      </trkpt>
      <trkpt lat="45.11909" lon="6.40156">
        <ele>1933</ele>
        <time>2021-02-28T08:46:44Z</time>
      </trkpt>
      <trkpt lat="45.11906" lon="6.4017">
        <ele>1930.8</ele>
        <time>2021-02-28T08:46:45Z</time>
      </trkpt>
      <trkpt lat="45.11904" lon="6.40183">
        <ele>1929</ele>
        <time>2021-02-28T08:46:46Z</time>
      </trkpt>
      <trkpt lat="45.11902" lon="6.40197">
        <ele>1927</ele>
        <time>2021-02-28T08:46:47Z</time>
      </trkpt>
      <trkpt lat="45.11901" lon="6.4021">
        <ele>1925.4</ele>
        <time>2021-02-28T08:46:48Z</time>
      </trkpt>
      <trkpt lat="45.11901" lon="6.40222">
        <ele>1924.2</ele>
        <time>2021-02-28T08:46:49Z</time>
      </trkpt>
      <trkpt lat="45.11902" lon="6.40233">
        <ele>1922.2</ele>
        <time>2021-02-28T08:46:50Z</time>
      </trkpt>
      <trkpt lat="45.11903" lon="6.40245">
        <ele>1921</ele>
        <time>2021-02-28T08:46:51Z</time>
      </trkpt>
      <trkpt lat="45.11904" lon="6.40256">
        <ele>1919.6</ele>
        <time>2021-02-28T08:46:52Z</time>
      </trkpt>
      <trkpt lat="45.11906" lon="6.40266">
        <ele>1918</ele>
        <time>2021-02-28T08:46:53Z</time>
      </trkpt>
      <trkpt lat="45.11906" lon="6.40274">
        <ele>1916.8</ele>
        <time>2021-02-28T08:46:54Z</time>
      </trkpt>
      <trkpt lat="45.11904" lon="6.40282">
        <ele>1916.2</ele>
        <time>2021-02-28T08:46:55Z</time>
      </trkpt>
      <trkpt lat="45.11901" lon="6.4029">
        <ele>1914.2</ele>
        <time>2021-02-28T08:46:56Z</time>
      </trkpt>
      <trkpt lat="45.11898" lon="6.40298">
        <ele>1913</ele>
        <time>2021-02-28T08:46:57Z</time>
      </trkpt>
      <trkpt lat="45.11897" lon="6.40307">
        <ele>1910.8</ele>
        <time>2021-02-28T08:46:58Z</time>
      </trkpt>
      <trkpt lat="45.11898" lon="6.40317">
        <ele>1909.2</ele>
        <time>2021-02-28T08:46:59Z</time>
      </trkpt>
      <trkpt lat="45.11899" lon="6.40326">
        <ele>1907.4</ele>
        <time>2021-02-28T08:47:00Z</time>
      </trkpt>
      <trkpt lat="45.11901" lon="6.40336">
        <ele>1906</ele>
        <time>2021-02-28T08:47:01Z</time>
      </trkpt>
      <trkpt lat="45.11902" lon="6.40345">
        <ele>1904.2</ele>
        <time>2021-02-28T08:47:02Z</time>
      </trkpt>
      <trkpt lat="45.11903" lon="6.40355">
        <ele>1903.4</ele>
        <time>2021-02-28T08:47:03Z</time>
      </trkpt>
      <trkpt lat="45.11905" lon="6.40364">
        <ele>1902.2</ele>
        <time>2021-02-28T08:47:04Z</time>
      </trkpt>
      <trkpt lat="45.11906" lon="6.40372">
        <ele>1901.4</ele>
        <time>2021-02-28T08:47:05Z</time>
      </trkpt>
      <trkpt lat="45.11907" lon="6.4038">
        <ele>1900.4</ele>
        <time>2021-02-28T08:47:06Z</time>
      </trkpt>
      <trkpt lat="45.11907" lon="6.40387">
        <ele>1899.4</ele>
        <time>2021-02-28T08:47:07Z</time>
      </trkpt>
      <trkpt lat="45.11908" lon="6.40394">
        <ele>1898.6</ele>
        <time>2021-02-28T08:47:08Z</time>
      </trkpt>
      <trkpt lat="45.11909" lon="6.40401">
        <ele>1897.2</ele>
        <time>2021-02-28T08:47:09Z</time>
      </trkpt>
      <trkpt lat="45.1191" lon="6.4041">
        <ele>1895.8</ele>
        <time>2021-02-28T08:47:10Z</time>
      </trkpt>
      <trkpt lat="45.1191" lon="6.40419">
        <ele>1895.8</ele>
        <time>2021-02-28T08:47:11Z</time>
      </trkpt>
      <trkpt lat="45.11911" lon="6.40429">
        <ele>1895.4</ele>
        <time>2021-02-28T08:47:12Z</time>
      </trkpt>
      <trkpt lat="45.11912" lon="6.40438">
        <ele>1895</ele>
        <time>2021-02-28T08:47:13Z</time>
      </trkpt>
      <trkpt lat="45.11913" lon="6.40448">
        <ele>1893.6</ele>
        <time>2021-02-28T08:47:14Z</time>
      </trkpt>
      <trkpt lat="45.11913" lon="6.40458">
        <ele>1893</ele>
        <time>2021-02-28T08:47:15Z</time>
      </trkpt>
      <trkpt lat="45.11914" lon="6.40467">
        <ele>1891.8</ele>
        <time>2021-02-28T08:47:16Z</time>
      </trkpt>
      <trkpt lat="45.11914" lon="6.40476">
        <ele>1890.6</ele>
        <time>2021-02-28T08:47:17Z</time>
      </trkpt>
      <trkpt lat="45.11914" lon="6.40484">
        <ele>1889.6</ele>
        <time>2021-02-28T08:47:18Z</time>
      </trkpt>
      <trkpt lat="45.11914" lon="6.40492">
        <ele>1888.8</ele>
        <time>2021-02-28T08:47:19Z</time>
      </trkpt>
      <trkpt lat="45.11912" lon="6.40498">
        <ele>1888</ele>
        <time>2021-02-28T08:47:20Z</time>
      </trkpt>
      <trkpt lat="45.11911" lon="6.40504">
        <ele>1887.6</ele>
        <time>2021-02-28T08:47:21Z</time>
      </trkpt>
      <trkpt lat="45.1191" lon="6.40509">
        <ele>1887</ele>
        <time>2021-02-28T08:47:22Z</time>
      </trkpt>
      <trkpt lat="45.11909" lon="6.40514">
        <ele>1887</ele>
        <time>2021-02-28T08:47:23Z</time>
      </trkpt>
      <trkpt lat="45.11908" lon="6.40519">
        <ele>1886.6</ele>
        <time>2021-02-28T08:47:24Z</time>
      </trkpt>
      <trkpt lat="45.11907" lon="6.40525">
        <ele>1885.8</ele>
        <time>2021-02-28T08:47:25Z</time>
      </trkpt>
      <trkpt lat="45.11907" lon="6.40531">
        <ele>1885.4</ele>
        <time>2021-02-28T08:47:26Z</time>
      </trkpt>
      <trkpt lat="45.11906" lon="6.40539">
        <ele>1884.8</ele>
        <time>2021-02-28T08:47:27Z</time>
      </trkpt>
      <trkpt lat="45.11905" lon="6.40545">
        <ele>1883.2</ele>
        <time>2021-02-28T08:47:28Z</time>
      </trkpt>
      <trkpt lat="45.119" lon="6.40547">
        <ele>1882.8</ele>
        <time>2021-02-28T08:47:29Z</time>
      </trkpt>
      <trkpt lat="45.11892" lon="6.40545">
        <ele>1881.8</ele>
        <time>2021-02-28T08:47:30Z</time>
      </trkpt>
      <trkpt lat="45.11887" lon="6.40543">
        <ele>1881</ele>
        <time>2021-02-28T08:47:31Z</time>
      </trkpt>
      <trkpt lat="45.11883" lon="6.40543">
        <ele>1880.6</ele>
        <time>2021-02-28T08:47:32Z</time>
      </trkpt>
      <trkpt lat="45.11883" lon="6.40543">
        <ele>1878.8</ele>
        <time>2021-02-28T08:47:33Z</time>
      </trkpt>
      <trkpt lat="45.11883" lon="6.40543">
        <ele>1877.8</ele>
        <time>2021-02-28T08:47:34Z</time>
      </trkpt>
      <trkpt lat="45.11883" lon="6.40567">
        <ele>1877.2</ele>
        <time>2021-02-28T08:47:35Z</time>
      </trkpt>
      <trkpt lat="45.11882" lon="6.40572">
        <ele>1876.6</ele>
        <time>2021-02-28T08:47:36Z</time>
      </trkpt>
      <trkpt lat="45.1188" lon="6.40577">
        <ele>1874.4</ele>
        <time>2021-02-28T08:47:37Z</time>
      </trkpt>
      <trkpt lat="45.1188" lon="6.40586">
        <ele>1873</ele>
        <time>2021-02-28T08:47:38Z</time>
      </trkpt>
      <trkpt lat="45.11881" lon="6.40592">
        <ele>1872</ele>
        <time>2021-02-28T08:47:39Z</time>
      </trkpt>
      <trkpt lat="45.11882" lon="6.40597">
        <ele>1870.8</ele>
        <time>2021-02-28T08:47:40Z</time>
      </trkpt>
      <trkpt lat="45.11883" lon="6.40612">
        <ele>1868.8</ele>
        <time>2021-02-28T08:47:41Z</time>
      </trkpt>
      <trkpt lat="45.11883" lon="6.40616">
        <ele>1867.4</ele>
        <time>2021-02-28T08:47:42Z</time>
      </trkpt>
      <trkpt lat="45.11884" lon="6.40628">
        <ele>1866.4</ele>
        <time>2021-02-28T08:47:43Z</time>
      </trkpt>
      <trkpt lat="45.11884" lon="6.40632">
        <ele>1865.2</ele>
        <time>2021-02-28T08:47:44Z</time>
      </trkpt>
      <trkpt lat="45.11884" lon="6.40638">
        <ele>1864.8</ele>
        <time>2021-02-28T08:47:45Z</time>
      </trkpt>
      <trkpt lat="45.11884" lon="6.40638">
        <ele>1864</ele>
        <time>2021-02-28T08:47:46Z</time>
      </trkpt>
      <trkpt lat="45.11887" lon="6.4066">
        <ele>1863.2</ele>
        <time>2021-02-28T08:47:47Z</time>
      </trkpt>
      <trkpt lat="45.11887" lon="6.40663">
        <ele>1862</ele>
        <time>2021-02-28T08:47:48Z</time>
      </trkpt>
      <trkpt lat="45.11887" lon="6.40666">
        <ele>1861.6</ele>
        <time>2021-02-28T08:47:49Z</time>
      </trkpt>
      <trkpt lat="45.11888" lon="6.40679">
        <ele>1861</ele>
        <time>2021-02-28T08:47:50Z</time>
      </trkpt>
      <trkpt lat="45.11889" lon="6.40684">
        <ele>1860</ele>
        <time>2021-02-28T08:47:51Z</time>
      </trkpt>
      <trkpt lat="45.11891" lon="6.407">
        <ele>1858.6</ele>
        <time>2021-02-28T08:47:52Z</time>
      </trkpt>
      <trkpt lat="45.11892" lon="6.40706">
        <ele>1857.4</ele>
        <time>2021-02-28T08:47:53Z</time>
      </trkpt>
      <trkpt lat="45.11894" lon="6.40723">
        <ele>1855.8</ele>
        <time>2021-02-28T08:47:54Z</time>
      </trkpt>
      <trkpt lat="45.11894" lon="6.40729">
        <ele>1855.2</ele>
        <time>2021-02-28T08:47:55Z</time>
      </trkpt>
      <trkpt lat="45.11893" lon="6.40746">
        <ele>1854</ele>
        <time>2021-02-28T08:47:56Z</time>
      </trkpt>
      <trkpt lat="45.11892" lon="6.40752">
        <ele>1853</ele>
        <time>2021-02-28T08:47:57Z</time>
      </trkpt>
      <trkpt lat="45.11891" lon="6.40768">
        <ele>1852.4</ele>
        <time>2021-02-28T08:47:58Z</time>
      </trkpt>
      <trkpt lat="45.1189" lon="6.40774">
        <ele>1851.6</ele>
        <time>2021-02-28T08:47:59Z</time>
      </trkpt>
      <trkpt lat="45.11889" lon="6.4079">
        <ele>1850.6</ele>
        <time>2021-02-28T08:48:00Z</time>
      </trkpt>
      <trkpt lat="45.11889" lon="6.40796">
        <ele>1849.4</ele>
        <time>2021-02-28T08:48:01Z</time>
      </trkpt>
      <trkpt lat="45.11889" lon="6.4081">
        <ele>1848.8</ele>
        <time>2021-02-28T08:48:02Z</time>
      </trkpt>
      <trkpt lat="45.1189" lon="6.40813">
        <ele>1847.8</ele>
        <time>2021-02-28T08:48:03Z</time>
      </trkpt>
      <trkpt lat="45.11893" lon="6.40824">
        <ele>1847</ele>
        <time>2021-02-28T08:48:04Z</time>
      </trkpt>
      <trkpt lat="45.11894" lon="6.40827">
        <ele>1845.8</ele>
        <time>2021-02-28T08:48:05Z</time>
      </trkpt>
      <trkpt lat="45.11895" lon="6.40842">
        <ele>1844.4</ele>
        <time>2021-02-28T08:48:06Z</time>
      </trkpt>
      <trkpt lat="45.11894" lon="6.40851">
        <ele>1843</ele>
        <time>2021-02-28T08:48:07Z</time>
      </trkpt>
      <trkpt lat="45.11883" lon="6.40861">
        <ele>1842</ele>
        <time>2021-02-28T08:48:08Z</time>
      </trkpt>
      <trkpt lat="45.11881" lon="6.40864">
        <ele>1840</ele>
        <time>2021-02-28T08:48:09Z</time>
      </trkpt>
      <trkpt lat="45.11875" lon="6.4087">
        <ele>1839.2</ele>
        <time>2021-02-28T08:48:10Z</time>
      </trkpt>
      <trkpt lat="45.11875" lon="6.4087">
        <ele>1837.8</ele>
        <time>2021-02-28T08:48:11Z</time>
      </trkpt>
      <trkpt lat="45.11879" lon="6.4089">
        <ele>1835.6</ele>
        <time>2021-02-28T08:48:12Z</time>
      </trkpt>
      <trkpt lat="45.11881" lon="6.40894">
        <ele>1833.6</ele>
        <time>2021-02-28T08:48:13Z</time>
      </trkpt>
      <trkpt lat="45.11883" lon="6.40899">
        <ele>1831.6</ele>
        <time>2021-02-28T08:48:14Z</time>
      </trkpt>
      <trkpt lat="45.11889" lon="6.40914">
        <ele>1830.8</ele>
        <time>2021-02-28T08:48:15Z</time>
      </trkpt>
      <trkpt lat="45.11891" lon="6.40919">
        <ele>1829.4</ele>
        <time>2021-02-28T08:48:16Z</time>
      </trkpt>
      <trkpt lat="45.11895" lon="6.40933">
        <ele>1828</ele>
        <time>2021-02-28T08:48:17Z</time>
      </trkpt>
      <trkpt lat="45.11895" lon="6.40937">
        <ele>1826.4</ele>
        <time>2021-02-28T08:48:18Z</time>
      </trkpt>
      <trkpt lat="45.11893" lon="6.40947">
        <ele>1824.8</ele>
        <time>2021-02-28T08:48:19Z</time>
      </trkpt>
      <trkpt lat="45.11891" lon="6.4095">
        <ele>1823.8</ele>
        <time>2021-02-28T08:48:20Z</time>
      </trkpt>
      <trkpt lat="45.11883" lon="6.40957">
        <ele>1822.2</ele>
        <time>2021-02-28T08:48:21Z</time>
      </trkpt>
      <trkpt lat="45.11881" lon="6.40959">
        <ele>1821.6</ele>
        <time>2021-02-28T08:48:22Z</time>
      </trkpt>
      <trkpt lat="45.11876" lon="6.40968">
        <ele>1821</ele>
        <time>2021-02-28T08:48:23Z</time>
      </trkpt>
      <trkpt lat="45.11875" lon="6.40971">
        <ele>1820.6</ele>
        <time>2021-02-28T08:48:24Z</time>
      </trkpt>
      <trkpt lat="45.11871" lon="6.40985">
        <ele>1820.4</ele>
        <time>2021-02-28T08:48:25Z</time>
      </trkpt>
      <trkpt lat="45.11868" lon="6.40992">
        <ele>1819.2</ele>
        <time>2021-02-28T08:48:26Z</time>
      </trkpt>
      <trkpt lat="45.11868" lon="6.40996">
        <ele>1818.4</ele>
        <time>2021-02-28T08:48:27Z</time>
      </trkpt>
      <trkpt lat="45.11868" lon="6.41001">
        <ele>1818</ele>
        <time>2021-02-28T08:48:28Z</time>
      </trkpt>
      <trkpt lat="45.11869" lon="6.41013">
        <ele>1815.8</ele>
        <time>2021-02-28T08:48:29Z</time>
      </trkpt>
      <trkpt lat="45.1187" lon="6.41016">
        <ele>1814.6</ele>
        <time>2021-02-28T08:48:30Z</time>
      </trkpt>
      <trkpt lat="45.1187" lon="6.41019">
        <ele>1813.4</ele>
        <time>2021-02-28T08:48:31Z</time>
      </trkpt>
      <trkpt lat="45.11872" lon="6.41031">
        <ele>1812.6</ele>
        <time>2021-02-28T08:48:32Z</time>
      </trkpt>
      <trkpt lat="45.11872" lon="6.41035">
        <ele>1812.2</ele>
        <time>2021-02-28T08:48:33Z</time>
      </trkpt>
      <trkpt lat="45.11874" lon="6.41047">
        <ele>1811.6</ele>
        <time>2021-02-28T08:48:34Z</time>
      </trkpt>
      <trkpt lat="45.11874" lon="6.41051">
        <ele>1811</ele>
        <time>2021-02-28T08:48:35Z</time>
      </trkpt>
      <trkpt lat="45.11875" lon="6.41064">
        <ele>1810.8</ele>
        <time>2021-02-28T08:48:36Z</time>
      </trkpt>
      <trkpt lat="45.11873" lon="6.41069">
        <ele>1809.6</ele>
        <time>2021-02-28T08:48:37Z</time>
      </trkpt>
      <trkpt lat="45.11872" lon="6.41083">
        <ele>1808.4</ele>
        <time>2021-02-28T08:48:38Z</time>
      </trkpt>
      <trkpt lat="45.11872" lon="6.41086">
        <ele>1807.2</ele>
        <time>2021-02-28T08:48:39Z</time>
      </trkpt>
      <trkpt lat="45.11874" lon="6.41093">
        <ele>1806.4</ele>
        <time>2021-02-28T08:48:40Z</time>
      </trkpt>
      <trkpt lat="45.11875" lon="6.411">
        <ele>1805</ele>
        <time>2021-02-28T08:48:41Z</time>
      </trkpt>
      <trkpt lat="45.11876" lon="6.41106">
        <ele>1803.8</ele>
        <time>2021-02-28T08:48:42Z</time>
      </trkpt>
      <trkpt lat="45.11878" lon="6.41113">
        <ele>1802.2</ele>
        <time>2021-02-28T08:48:43Z</time>
      </trkpt>
      <trkpt lat="45.11879" lon="6.4112">
        <ele>1801</ele>
        <time>2021-02-28T08:48:44Z</time>
      </trkpt>
      <trkpt lat="45.1188" lon="6.41127">
        <ele>1799.6</ele>
        <time>2021-02-28T08:48:45Z</time>
      </trkpt>
      <trkpt lat="45.11881" lon="6.41133">
        <ele>1798.4</ele>
        <time>2021-02-28T08:48:46Z</time>
      </trkpt>
      <trkpt lat="45.11881" lon="6.41133">
        <ele>1796.6</ele>
        <time>2021-02-28T08:48:47Z</time>
      </trkpt>
      <trkpt lat="45.11881" lon="6.41133">
        <ele>1795</ele>
        <time>2021-02-28T08:48:48Z</time>
      </trkpt>
      <trkpt lat="45.1188" lon="6.41134">
        <ele>1793.6</ele>
        <time>2021-02-28T08:48:49Z</time>
      </trkpt>
      <trkpt lat="45.11879" lon="6.41136">
        <ele>1792.8</ele>
        <time>2021-02-28T08:48:50Z</time>
      </trkpt>
      <trkpt lat="45.11877" lon="6.41137">
        <ele>1792</ele>
        <time>2021-02-28T08:48:51Z</time>
      </trkpt>
      <trkpt lat="45.11876" lon="6.41138">
        <ele>1791.4</ele>
        <time>2021-02-28T08:48:52Z</time>
      </trkpt>
      <trkpt lat="45.11875" lon="6.41139">
        <ele>1791.4</ele>
        <time>2021-02-28T08:48:53Z</time>
      </trkpt>
      <trkpt lat="45.11874" lon="6.41141">
        <ele>1790.4</ele>
        <time>2021-02-28T08:48:54Z</time>
      </trkpt>
      <trkpt lat="45.11874" lon="6.41141">
        <ele>1790</ele>
        <time>2021-02-28T08:48:55Z</time>
      </trkpt>
      <trkpt lat="45.11874" lon="6.41141">
        <ele>1790.2</ele>
        <time>2021-02-28T08:48:56Z</time>
      </trkpt>
      <trkpt lat="45.11874" lon="6.41141">
        <ele>1790.4</ele>
        <time>2021-02-28T08:48:57Z</time>
      </trkpt>
      <trkpt lat="45.11874" lon="6.41141">
        <ele>1790.2</ele>
        <time>2021-02-28T08:48:58Z</time>
      </trkpt>
      <trkpt lat="45.11874" lon="6.41141">
        <ele>1790.2</ele>
        <time>2021-02-28T08:48:59Z</time>
      </trkpt>
      <trkpt lat="45.11874" lon="6.41141">
        <ele>1790.2</ele>
        <time>2021-02-28T08:49:00Z</time>
      </trkpt>
      <trkpt lat="45.11874" lon="6.41141">
        <ele>1790.4</ele>
        <time>2021-02-28T08:49:01Z</time>
      </trkpt>
      <trkpt lat="45.11874" lon="6.41141">
        <ele>1790.2</ele>
        <time>2021-02-28T08:49:02Z</time>
      </trkpt>
      <trkpt lat="45.11874" lon="6.41141">
        <ele>1790.2</ele>
        <time>2021-02-28T08:49:03Z</time>
      </trkpt>
      <trkpt lat="45.11874" lon="6.41141">
        <ele>1790.2</ele>
        <time>2021-02-28T08:49:04Z</time>
      </trkpt>
      <trkpt lat="45.11874" lon="6.41141">
        <ele>1790.2</ele>
        <time>2021-02-28T08:49:05Z</time>
      </trkpt>
      <trkpt lat="45.11874" lon="6.41141">
        <ele>1790</ele>
        <time>2021-02-28T08:49:06Z</time>
      </trkpt>
      <trkpt lat="45.11874" lon="6.41141">
        <ele>1790.4</ele>
        <time>2021-02-28T08:49:07Z</time>
      </trkpt>
      <trkpt lat="45.11874" lon="6.41141">
        <ele>1790.2</ele>
        <time>2021-02-28T08:49:08Z</time>
      </trkpt>
      <trkpt lat="45.11874" lon="6.41141">
        <ele>1790</ele>
        <time>2021-02-28T08:49:09Z</time>
      </trkpt>
      <trkpt lat="45.11874" lon="6.41141">
        <ele>1790</ele>
        <time>2021-02-28T08:49:10Z</time>
      </trkpt>
      <trkpt lat="45.11874" lon="6.41141">
        <ele>1790</ele>
        <time>2021-02-28T08:49:11Z</time>
      </trkpt>
      <trkpt lat="45.11874" lon="6.41141">
        <ele>1790</ele>
        <time>2021-02-28T08:49:12Z</time>
      </trkpt>
      <trkpt lat="45.11874" lon="6.41141">
        <ele>1790</ele>
        <time>2021-02-28T08:49:13Z</time>
      </trkpt>
      <trkpt lat="45.11874" lon="6.41141">
        <ele>1790</ele>
        <time>2021-02-28T08:49:14Z</time>
      </trkpt>
      <trkpt lat="45.11874" lon="6.41141">
        <ele>1790.2</ele>
        <time>2021-02-28T08:49:15Z</time>
      </trkpt>
      <trkpt lat="45.11874" lon="6.41141">
        <ele>1790.2</ele>
        <time>2021-02-28T08:49:16Z</time>
      </trkpt>
      <trkpt lat="45.11874" lon="6.41141">
        <ele>1790.2</ele>
        <time>2021-02-28T08:49:17Z</time>
      </trkpt>
      <trkpt lat="45.11874" lon="6.41141">
        <ele>1790.6</ele>
        <time>2021-02-28T08:49:18Z</time>
      </trkpt>
      <trkpt lat="45.11872" lon="6.41141">
        <ele>1790.8</ele>
        <time>2021-02-28T08:49:19Z</time>
      </trkpt>
      <trkpt lat="45.11872" lon="6.41141">
        <ele>1790.4</ele>
        <time>2021-02-28T08:49:20Z</time>
      </trkpt>
      <trkpt lat="45.11872" lon="6.41141">
        <ele>1790.4</ele>
        <time>2021-02-28T08:49:21Z</time>
      </trkpt>
      <trkpt lat="45.11871" lon="6.4114">
        <ele>1790.4</ele>
        <time>2021-02-28T08:49:22Z</time>
      </trkpt>
      <trkpt lat="45.11869" lon="6.41139">
        <ele>1790.2</ele>
        <time>2021-02-28T08:49:23Z</time>
      </trkpt>
      <trkpt lat="45.11868" lon="6.41137">
        <ele>1790</ele>
        <time>2021-02-28T08:49:24Z</time>
      </trkpt>
      <trkpt lat="45.11867" lon="6.41136">
        <ele>1790.4</ele>
        <time>2021-02-28T08:49:25Z</time>
      </trkpt>
      <trkpt lat="45.11866" lon="6.41135">
        <ele>1790.2</ele>
        <time>2021-02-28T08:49:26Z</time>
      </trkpt>
      <trkpt lat="45.11865" lon="6.41134">
        <ele>1790.2</ele>
        <time>2021-02-28T08:49:27Z</time>
      </trkpt>
      <trkpt lat="45.11864" lon="6.41132">
        <ele>1790.6</ele>
        <time>2021-02-28T08:49:28Z</time>
      </trkpt>
      <trkpt lat="45.11864" lon="6.41132">
        <ele>1790.8</ele>
        <time>2021-02-28T08:49:29Z</time>
      </trkpt>
      <trkpt lat="45.11864" lon="6.41132">
        <ele>1790.8</ele>
        <time>2021-02-28T08:49:30Z</time>
      </trkpt>
      <trkpt lat="45.11864" lon="6.41132">
        <ele>1791</ele>
        <time>2021-02-28T08:49:31Z</time>
      </trkpt>
      <trkpt lat="45.11864" lon="6.41132">
        <ele>1790.2</ele>
        <time>2021-02-28T08:49:32Z</time>
      </trkpt>
      <trkpt lat="45.11864" lon="6.41132">
        <ele>1790.4</ele>
        <time>2021-02-28T08:49:33Z</time>
      </trkpt>
      <trkpt lat="45.11864" lon="6.41132">
        <ele>1790.8</ele>
        <time>2021-02-28T08:49:34Z</time>
      </trkpt>
      <trkpt lat="45.11864" lon="6.41132">
        <ele>1791.2</ele>
        <time>2021-02-28T08:49:35Z</time>
      </trkpt>
      <trkpt lat="45.11862" lon="6.41132">
        <ele>1791.4</ele>
        <time>2021-02-28T08:49:36Z</time>
      </trkpt>
      <trkpt lat="45.11862" lon="6.41132">
        <ele>1791.6</ele>
        <time>2021-02-28T08:49:37Z</time>
      </trkpt>
      <trkpt lat="45.11862" lon="6.41132">
        <ele>1791.2</ele>
        <time>2021-02-28T08:49:38Z</time>
      </trkpt>
      <trkpt lat="45.11862" lon="6.41132">
        <ele>1791.8</ele>
        <time>2021-02-28T08:49:39Z</time>
      </trkpt>
      <trkpt lat="45.1186" lon="6.41134">
        <ele>1791.8</ele>
        <time>2021-02-28T08:49:40Z</time>
      </trkpt>
      <trkpt lat="45.1186" lon="6.41134">
        <ele>1792.2</ele>
        <time>2021-02-28T08:49:41Z</time>
      </trkpt>
      <trkpt lat="45.1186" lon="6.41134">
        <ele>1791.8</ele>
        <time>2021-02-28T08:49:42Z</time>
      </trkpt>
      <trkpt lat="45.11857" lon="6.41134">
        <ele>1791.8</ele>
        <time>2021-02-28T08:49:43Z</time>
      </trkpt>
      <trkpt lat="45.11857" lon="6.41134">
        <ele>1791.8</ele>
        <time>2021-02-28T08:49:44Z</time>
      </trkpt>
      <trkpt lat="45.11853" lon="6.41134">
        <ele>1791.4</ele>
        <time>2021-02-28T08:49:45Z</time>
      </trkpt>
      <trkpt lat="45.11851" lon="6.41133">
        <ele>1790.8</ele>
        <time>2021-02-28T08:49:46Z</time>
      </trkpt>
      <trkpt lat="45.11851" lon="6.41133">
        <ele>1790.8</ele>
        <time>2021-02-28T08:49:47Z</time>
      </trkpt>
      <trkpt lat="45.11848" lon="6.41131">
        <ele>1790.6</ele>
        <time>2021-02-28T08:49:48Z</time>
      </trkpt>
      <trkpt lat="45.11848" lon="6.41131">
        <ele>1790.8</ele>
        <time>2021-02-28T08:49:49Z</time>
      </trkpt>
      <trkpt lat="45.11848" lon="6.41131">
        <ele>1790.6</ele>
        <time>2021-02-28T08:49:50Z</time>
      </trkpt>
      <trkpt lat="45.11848" lon="6.41131">
        <ele>1790.6</ele>
        <time>2021-02-28T08:49:51Z</time>
      </trkpt>
      <trkpt lat="45.11848" lon="6.41131">
        <ele>1788.4</ele>
        <time>2021-02-28T08:49:52Z</time>
      </trkpt>
      <trkpt lat="45.11848" lon="6.41131">
        <ele>1789.2</ele>
        <time>2021-02-28T08:49:53Z</time>
      </trkpt>
      <trkpt lat="45.11848" lon="6.41131">
        <ele>1789.2</ele>
        <time>2021-02-28T08:49:54Z</time>
      </trkpt>
      <trkpt lat="45.11848" lon="6.41131">
        <ele>1789.2</ele>
        <time>2021-02-28T08:49:55Z</time>
      </trkpt>
      <trkpt lat="45.11848" lon="6.41131">
        <ele>1788.8</ele>
        <time>2021-02-28T08:49:56Z</time>
      </trkpt>
      <trkpt lat="45.11848" lon="6.41131">
        <ele>1788.8</ele>
        <time>2021-02-28T08:49:57Z</time>
      </trkpt>
      <trkpt lat="45.11846" lon="6.41132">
        <ele>1788.4</ele>
        <time>2021-02-28T08:49:58Z</time>
      </trkpt>
      <trkpt lat="45.11846" lon="6.41132">
        <ele>1788.6</ele>
        <time>2021-02-28T08:49:59Z</time>
      </trkpt>
      <trkpt lat="45.11846" lon="6.41132">
        <ele>1788.4</ele>
        <time>2021-02-28T08:50:00Z</time>
      </trkpt>
      <trkpt lat="45.11846" lon="6.41132">
        <ele>1788.6</ele>
        <time>2021-02-28T08:50:01Z</time>
      </trkpt>
      <trkpt lat="45.11846" lon="6.41132">
        <ele>1788.8</ele>
        <time>2021-02-28T08:50:02Z</time>
      </trkpt>
      <trkpt lat="45.11846" lon="6.41132">
        <ele>1789</ele>
        <time>2021-02-28T08:50:03Z</time>
      </trkpt>
      <trkpt lat="45.11846" lon="6.41132">
        <ele>1788.6</ele>
        <time>2021-02-28T08:50:04Z</time>
      </trkpt>
      <trkpt lat="45.11846" lon="6.41132">
        <ele>1788.6</ele>
        <time>2021-02-28T08:50:05Z</time>
      </trkpt>
      <trkpt lat="45.11846" lon="6.41132">
        <ele>1788.8</ele>
        <time>2021-02-28T08:50:06Z</time>
      </trkpt>
      <trkpt lat="45.11846" lon="6.41132">
        <ele>1788.8</ele>
        <time>2021-02-28T08:50:07Z</time>
      </trkpt>
      <trkpt lat="45.11846" lon="6.41132">
        <ele>1788.8</ele>
        <time>2021-02-28T08:50:08Z</time>
      </trkpt>
      <trkpt lat="45.11846" lon="6.41132">
        <ele>1788.8</ele>
        <time>2021-02-28T08:50:09Z</time>
      </trkpt>
      <trkpt lat="45.11846" lon="6.41132">
        <ele>1789</ele>
        <time>2021-02-28T08:50:10Z</time>
      </trkpt>
      <trkpt lat="45.11846" lon="6.41132">
        <ele>1789</ele>
        <time>2021-02-28T08:50:11Z</time>
      </trkpt>
      <trkpt lat="45.11846" lon="6.41132">
        <ele>1789.4</ele>
        <time>2021-02-28T08:50:12Z</time>
      </trkpt>
      <trkpt lat="45.11846" lon="6.41132">
        <ele>1789</ele>
        <time>2021-02-28T08:50:13Z</time>
      </trkpt>
      <trkpt lat="45.11846" lon="6.41132">
        <ele>1789</ele>
        <time>2021-02-28T08:50:14Z</time>
      </trkpt>
      <trkpt lat="45.11846" lon="6.41132">
        <ele>1789</ele>
        <time>2021-02-28T08:50:15Z</time>
      </trkpt>
      <trkpt lat="45.11846" lon="6.41132">
        <ele>1788.8</ele>
        <time>2021-02-28T08:50:16Z</time>
      </trkpt>
      <trkpt lat="45.11846" lon="6.41132">
        <ele>1788</ele>
        <time>2021-02-28T08:50:17Z</time>
      </trkpt>
      <trkpt lat="45.11846" lon="6.41132">
        <ele>1788.4</ele>
        <time>2021-02-28T08:50:18Z</time>
      </trkpt>
      <trkpt lat="45.11846" lon="6.41132">
        <ele>1788.8</ele>
        <time>2021-02-28T08:50:19Z</time>
      </trkpt>
      <trkpt lat="45.11846" lon="6.41132">
        <ele>1789</ele>
        <time>2021-02-28T08:50:20Z</time>
      </trkpt>
      <trkpt lat="45.11846" lon="6.41132">
        <ele>1788.4</ele>
        <time>2021-02-28T08:50:21Z</time>
      </trkpt>
      <trkpt lat="45.11846" lon="6.41132">
        <ele>1788.2</ele>
        <time>2021-02-28T08:50:22Z</time>
      </trkpt>
      <trkpt lat="45.11846" lon="6.41132">
        <ele>1788</ele>
        <time>2021-02-28T08:50:23Z</time>
      </trkpt>
      <trkpt lat="45.11846" lon="6.41132">
        <ele>1788.4</ele>
        <time>2021-02-28T08:50:24Z</time>
      </trkpt>
      <trkpt lat="45.11846" lon="6.41132">
        <ele>1789</ele>
        <time>2021-02-28T08:50:25Z</time>
      </trkpt>
      <trkpt lat="45.11846" lon="6.41132">
        <ele>1789.2</ele>
        <time>2021-02-28T08:50:26Z</time>
      </trkpt>
      <trkpt lat="45.11846" lon="6.41132">
        <ele>1789.6</ele>
        <time>2021-02-28T08:50:27Z</time>
      </trkpt>
      <trkpt lat="45.11846" lon="6.41132">
        <ele>1790</ele>
        <time>2021-02-28T08:50:28Z</time>
      </trkpt>
      <trkpt lat="45.11846" lon="6.41132">
        <ele>1790.4</ele>
        <time>2021-02-28T08:50:29Z</time>
      </trkpt>
      <trkpt lat="45.11846" lon="6.41132">
        <ele>1790</ele>
        <time>2021-02-28T08:50:30Z</time>
      </trkpt>
      <trkpt lat="45.11844" lon="6.41134">
        <ele>1790.2</ele>
        <time>2021-02-28T08:50:31Z</time>
      </trkpt>
      <trkpt lat="45.11844" lon="6.41134">
        <ele>1789.8</ele>
        <time>2021-02-28T08:50:32Z</time>
      </trkpt>
      <trkpt lat="45.11844" lon="6.41134">
        <ele>1790</ele>
        <time>2021-02-28T08:50:33Z</time>
      </trkpt>
      <trkpt lat="45.11844" lon="6.41134">
        <ele>1790.2</ele>
        <time>2021-02-28T08:50:34Z</time>
      </trkpt>
      <trkpt lat="45.11844" lon="6.41133">
        <ele>1789.8</ele>
        <time>2021-02-28T08:50:35Z</time>
      </trkpt>
      <trkpt lat="45.11844" lon="6.41132">
        <ele>1789.6</ele>
        <time>2021-02-28T08:50:36Z</time>
      </trkpt>
      <trkpt lat="45.11844" lon="6.41132">
        <ele>1789.8</ele>
        <time>2021-02-28T08:50:37Z</time>
      </trkpt>
      <trkpt lat="45.11843" lon="6.41131">
        <ele>1789.4</ele>
        <time>2021-02-28T08:50:38Z</time>
      </trkpt>
      <trkpt lat="45.11843" lon="6.41131">
        <ele>1789.4</ele>
        <time>2021-02-28T08:50:39Z</time>
      </trkpt>
      <trkpt lat="45.11843" lon="6.4113">
        <ele>1789.2</ele>
        <time>2021-02-28T08:50:40Z</time>
      </trkpt>
      <trkpt lat="45.11843" lon="6.4113">
        <ele>1789</ele>
        <time>2021-02-28T08:50:41Z</time>
      </trkpt>
      <trkpt lat="45.11843" lon="6.41129">
        <ele>1788.6</ele>
        <time>2021-02-28T08:50:42Z</time>
      </trkpt>
      <trkpt lat="45.11843" lon="6.41129">
        <ele>1788.4</ele>
        <time>2021-02-28T08:50:43Z</time>
      </trkpt>
      <trkpt lat="45.11843" lon="6.41128">
        <ele>1789</ele>
        <time>2021-02-28T08:50:44Z</time>
      </trkpt>
      <trkpt lat="45.11843" lon="6.41128">
        <ele>1788.6</ele>
        <time>2021-02-28T08:50:45Z</time>
      </trkpt>
      <trkpt lat="45.11843" lon="6.41127">
        <ele>1788.4</ele>
        <time>2021-02-28T08:50:46Z</time>
      </trkpt>
      <trkpt lat="45.11843" lon="6.41127">
        <ele>1788.6</ele>
        <time>2021-02-28T08:50:47Z</time>
      </trkpt>
      <trkpt lat="45.11843" lon="6.41126">
        <ele>1788.4</ele>
        <time>2021-02-28T08:50:48Z</time>
      </trkpt>
      <trkpt lat="45.11843" lon="6.41126">
        <ele>1788.4</ele>
        <time>2021-02-28T08:50:49Z</time>
      </trkpt>
      <trkpt lat="45.11843" lon="6.41126">
        <ele>1788.4</ele>
        <time>2021-02-28T08:50:50Z</time>
      </trkpt>
      <trkpt lat="45.11843" lon="6.41126">
        <ele>1789.2</ele>
        <time>2021-02-28T08:50:51Z</time>
      </trkpt>
      <trkpt lat="45.11843" lon="6.41126">
        <ele>1789.4</ele>
        <time>2021-02-28T08:50:52Z</time>
      </trkpt>
      <trkpt lat="45.11843" lon="6.41126">
        <ele>1789.4</ele>
        <time>2021-02-28T08:50:53Z</time>
      </trkpt>
      <trkpt lat="45.11845" lon="6.41124">
        <ele>1789.8</ele>
        <time>2021-02-28T08:50:54Z</time>
      </trkpt>
      <trkpt lat="45.11845" lon="6.41124">
        <ele>1789.6</ele>
        <time>2021-02-28T08:50:55Z</time>
      </trkpt>
      <trkpt lat="45.11844" lon="6.41121">
        <ele>1789.2</ele>
        <time>2021-02-28T08:50:56Z</time>
      </trkpt>
      <trkpt lat="45.11844" lon="6.41121">
        <ele>1789.2</ele>
        <time>2021-02-28T08:50:57Z</time>
      </trkpt>
      <trkpt lat="45.11844" lon="6.41121">
        <ele>1789.2</ele>
        <time>2021-02-28T08:50:58Z</time>
      </trkpt>
      <trkpt lat="45.11844" lon="6.41119">
        <ele>1789.6</ele>
        <time>2021-02-28T08:50:59Z</time>
      </trkpt>
      <trkpt lat="45.11844" lon="6.41119">
        <ele>1789.6</ele>
        <time>2021-02-28T08:51:00Z</time>
      </trkpt>
      <trkpt lat="45.11844" lon="6.41119">
        <ele>1789.2</ele>
        <time>2021-02-28T08:51:01Z</time>
      </trkpt>
      <trkpt lat="45.11844" lon="6.41119">
        <ele>1789.4</ele>
        <time>2021-02-28T08:51:02Z</time>
      </trkpt>
      <trkpt lat="45.11844" lon="6.41119">
        <ele>1789.4</ele>
        <time>2021-02-28T08:51:03Z</time>
      </trkpt>
      <trkpt lat="45.11844" lon="6.41119">
        <ele>1789.4</ele>
        <time>2021-02-28T08:51:04Z</time>
      </trkpt>
      <trkpt lat="45.11844" lon="6.41119">
        <ele>1790</ele>
        <time>2021-02-28T08:51:05Z</time>
      </trkpt>
      <trkpt lat="45.11844" lon="6.41119">
        <ele>1789.8</ele>
        <time>2021-02-28T08:51:06Z</time>
      </trkpt>
      <trkpt lat="45.11844" lon="6.41119">
        <ele>1789.4</ele>
        <time>2021-02-28T08:51:07Z</time>
      </trkpt>
      <trkpt lat="45.11844" lon="6.41119">
        <ele>1789.2</ele>
        <time>2021-02-28T08:51:08Z</time>
      </trkpt>
      <trkpt lat="45.11844" lon="6.41119">
        <ele>1789</ele>
        <time>2021-02-28T08:51:09Z</time>
      </trkpt>
      <trkpt lat="45.11844" lon="6.41119">
        <ele>1789</ele>
        <time>2021-02-28T08:51:10Z</time>
      </trkpt>
      <trkpt lat="45.11844" lon="6.41119">
        <ele>1788.8</ele>
        <time>2021-02-28T08:51:11Z</time>
      </trkpt>
      <trkpt lat="45.11844" lon="6.41119">
        <ele>1788.8</ele>
        <time>2021-02-28T08:51:12Z</time>
      </trkpt>
      <trkpt lat="45.11844" lon="6.41119">
        <ele>1788.4</ele>
        <time>2021-02-28T08:51:13Z</time>
      </trkpt>
      <trkpt lat="45.11844" lon="6.41119">
        <ele>1788.2</ele>
        <time>2021-02-28T08:51:14Z</time>
      </trkpt>
      <trkpt lat="45.11845" lon="6.41121">
        <ele>1788.2</ele>
        <time>2021-02-28T08:51:15Z</time>
      </trkpt>
      <trkpt lat="45.11845" lon="6.41121">
        <ele>1788.4</ele>
        <time>2021-02-28T08:51:16Z</time>
      </trkpt>
      <trkpt lat="45.11845" lon="6.41121">
        <ele>1788.2</ele>
        <time>2021-02-28T08:51:17Z</time>
      </trkpt>
      <trkpt lat="45.11845" lon="6.41121">
        <ele>1788.2</ele>
        <time>2021-02-28T08:51:18Z</time>
      </trkpt>
      <trkpt lat="45.11845" lon="6.41121">
        <ele>1788.4</ele>
        <time>2021-02-28T08:51:19Z</time>
      </trkpt>
      <trkpt lat="45.11845" lon="6.41121">
        <ele>1788.6</ele>
        <time>2021-02-28T08:51:20Z</time>
      </trkpt>
      <trkpt lat="45.11845" lon="6.41121">
        <ele>1788.4</ele>
        <time>2021-02-28T08:51:21Z</time>
      </trkpt>
      <trkpt lat="45.11845" lon="6.41121">
        <ele>1788.6</ele>
        <time>2021-02-28T08:51:22Z</time>
      </trkpt>
      <trkpt lat="45.11845" lon="6.41121">
        <ele>1788.6</ele>
        <time>2021-02-28T08:51:23Z</time>
      </trkpt>
      <trkpt lat="45.11845" lon="6.41121">
        <ele>1788.8</ele>
        <time>2021-02-28T08:51:24Z</time>
      </trkpt>
      <trkpt lat="45.11845" lon="6.41121">
        <ele>1788.8</ele>
        <time>2021-02-28T08:51:25Z</time>
      </trkpt>
      <trkpt lat="45.11845" lon="6.41121">
        <ele>1788.8</ele>
        <time>2021-02-28T08:51:26Z</time>
      </trkpt>
      <trkpt lat="45.11845" lon="6.41121">
        <ele>1789</ele>
        <time>2021-02-28T08:51:27Z</time>
      </trkpt>
      <trkpt lat="45.11845" lon="6.41121">
        <ele>1788.8</ele>
        <time>2021-02-28T08:51:28Z</time>
      </trkpt>
      <trkpt lat="45.11845" lon="6.41121">
        <ele>1789</ele>
        <time>2021-02-28T08:51:29Z</time>
      </trkpt>
      <trkpt lat="45.11845" lon="6.41121">
        <ele>1789</ele>
        <time>2021-02-28T08:51:30Z</time>
      </trkpt>
      <trkpt lat="45.11845" lon="6.41121">
        <ele>1788.8</ele>
        <time>2021-02-28T08:51:31Z</time>
      </trkpt>
      <trkpt lat="45.11845" lon="6.41121">
        <ele>1788.8</ele>
        <time>2021-02-28T08:51:32Z</time>
      </trkpt>
      <trkpt lat="45.11845" lon="6.41121">
        <ele>1788.8</ele>
        <time>2021-02-28T08:51:33Z</time>
      </trkpt>
      <trkpt lat="45.11848" lon="6.41122">
        <ele>1788.8</ele>
        <time>2021-02-28T08:51:34Z</time>
      </trkpt>
      <trkpt lat="45.11848" lon="6.41122">
        <ele>1788.8</ele>
        <time>2021-02-28T08:51:35Z</time>
      </trkpt>
      <trkpt lat="45.11848" lon="6.41122">
        <ele>1789</ele>
        <time>2021-02-28T08:51:36Z</time>
      </trkpt>
      <trkpt lat="45.11848" lon="6.41122">
        <ele>1789</ele>
        <time>2021-02-28T08:51:37Z</time>
      </trkpt>
      <trkpt lat="45.11848" lon="6.41122">
        <ele>1788.6</ele>
        <time>2021-02-28T08:51:38Z</time>
      </trkpt>
      <trkpt lat="45.11848" lon="6.41122">
        <ele>1788.6</ele>
        <time>2021-02-28T08:51:39Z</time>
      </trkpt>
      <trkpt lat="45.11848" lon="6.41122">
        <ele>1788.4</ele>
        <time>2021-02-28T08:51:40Z</time>
      </trkpt>
      <trkpt lat="45.11848" lon="6.41122">
        <ele>1788.4</ele>
        <time>2021-02-28T08:51:41Z</time>
      </trkpt>
      <trkpt lat="45.11848" lon="6.41122">
        <ele>1788.4</ele>
        <time>2021-02-28T08:51:42Z</time>
      </trkpt>
      <trkpt lat="45.11848" lon="6.41122">
        <ele>1788.2</ele>
        <time>2021-02-28T08:51:43Z</time>
      </trkpt>
      <trkpt lat="45.11848" lon="6.41122">
        <ele>1787.4</ele>
        <time>2021-02-28T08:51:44Z</time>
      </trkpt>
      <trkpt lat="45.11848" lon="6.41122">
        <ele>1787.6</ele>
        <time>2021-02-28T08:51:45Z</time>
      </trkpt>
      <trkpt lat="45.11848" lon="6.41122">
        <ele>1787.6</ele>
        <time>2021-02-28T08:51:46Z</time>
      </trkpt>
      <trkpt lat="45.11848" lon="6.41122">
        <ele>1787.8</ele>
        <time>2021-02-28T08:51:47Z</time>
      </trkpt>
      <trkpt lat="45.11846" lon="6.41123">
        <ele>1788.2</ele>
        <time>2021-02-28T08:51:48Z</time>
      </trkpt>
      <trkpt lat="45.11846" lon="6.41123">
        <ele>1788.2</ele>
        <time>2021-02-28T08:51:49Z</time>
      </trkpt>
      <trkpt lat="45.11846" lon="6.41123">
        <ele>1788.4</ele>
        <time>2021-02-28T08:51:50Z</time>
      </trkpt>
      <trkpt lat="45.11846" lon="6.41123">
        <ele>1788.4</ele>
        <time>2021-02-28T08:51:51Z</time>
      </trkpt>
      <trkpt lat="45.11846" lon="6.41123">
        <ele>1788</ele>
        <time>2021-02-28T08:51:52Z</time>
      </trkpt>
      <trkpt lat="45.11846" lon="6.41123">
        <ele>1788.2</ele>
        <time>2021-02-28T08:51:53Z</time>
      </trkpt>
      <trkpt lat="45.11846" lon="6.41123">
        <ele>1788</ele>
        <time>2021-02-28T08:51:54Z</time>
      </trkpt>
      <trkpt lat="45.11846" lon="6.41123">
        <ele>1787.8</ele>
        <time>2021-02-28T08:51:55Z</time>
      </trkpt>
      <trkpt lat="45.11846" lon="6.41123">
        <ele>1787.6</ele>
        <time>2021-02-28T08:51:56Z</time>
      </trkpt>
      <trkpt lat="45.11846" lon="6.41123">
        <ele>1787.4</ele>
        <time>2021-02-28T08:51:57Z</time>
      </trkpt>
      <trkpt lat="45.11846" lon="6.41123">
        <ele>1787.4</ele>
        <time>2021-02-28T08:51:58Z</time>
      </trkpt>
      <trkpt lat="45.11846" lon="6.41123">
        <ele>1787.8</ele>
        <time>2021-02-28T08:51:59Z</time>
      </trkpt>
      <trkpt lat="45.11846" lon="6.41123">
        <ele>1788.2</ele>
        <time>2021-02-28T08:52:00Z</time>
      </trkpt>
      <trkpt lat="45.11846" lon="6.41123">
        <ele>1788.4</ele>
        <time>2021-02-28T08:52:01Z</time>
      </trkpt>
      <trkpt lat="45.11846" lon="6.41123">
        <ele>1788.6</ele>
        <time>2021-02-28T08:52:02Z</time>
      </trkpt>
      <trkpt lat="45.11846" lon="6.41123">
        <ele>1788.6</ele>
        <time>2021-02-28T08:52:03Z</time>
      </trkpt>
      <trkpt lat="45.11846" lon="6.41123">
        <ele>1788.8</ele>
        <time>2021-02-28T08:52:04Z</time>
      </trkpt>
      <trkpt lat="45.11846" lon="6.41123">
        <ele>1789</ele>
        <time>2021-02-28T08:52:05Z</time>
      </trkpt>
      <trkpt lat="45.11847" lon="6.41125">
        <ele>1788.6</ele>
        <time>2021-02-28T08:52:06Z</time>
      </trkpt>
      <trkpt lat="45.11847" lon="6.41125">
        <ele>1787.8</ele>
        <time>2021-02-28T08:52:07Z</time>
      </trkpt>
      <trkpt lat="45.11847" lon="6.41125">
        <ele>1787.4</ele>
        <time>2021-02-28T08:52:08Z</time>
      </trkpt>
      <trkpt lat="45.11847" lon="6.41125">
        <ele>1787.6</ele>
        <time>2021-02-28T08:52:09Z</time>
      </trkpt>
      <trkpt lat="45.11847" lon="6.41125">
        <ele>1788</ele>
        <time>2021-02-28T08:52:10Z</time>
      </trkpt>
      <trkpt lat="45.11847" lon="6.41125">
        <ele>1788.4</ele>
        <time>2021-02-28T08:52:11Z</time>
      </trkpt>
      <trkpt lat="45.11847" lon="6.41125">
        <ele>1788.6</ele>
        <time>2021-02-28T08:52:12Z</time>
      </trkpt>
      <trkpt lat="45.11847" lon="6.41125">
        <ele>1788.6</ele>
        <time>2021-02-28T08:52:13Z</time>
      </trkpt>
      <trkpt lat="45.11847" lon="6.41125">
        <ele>1788.8</ele>
        <time>2021-02-28T08:52:14Z</time>
      </trkpt>
      <trkpt lat="45.11847" lon="6.41125">
        <ele>1789</ele>
        <time>2021-02-28T08:52:15Z</time>
      </trkpt>
      <trkpt lat="45.11847" lon="6.41125">
        <ele>1789</ele>
        <time>2021-02-28T08:52:16Z</time>
      </trkpt>
      <trkpt lat="45.11847" lon="6.41125">
        <ele>1788.8</ele>
        <time>2021-02-28T08:52:17Z</time>
      </trkpt>
      <trkpt lat="45.11847" lon="6.41125">
        <ele>1788.8</ele>
        <time>2021-02-28T08:52:18Z</time>
      </trkpt>
      <trkpt lat="45.11847" lon="6.41125">
        <ele>1788.6</ele>
        <time>2021-02-28T08:52:19Z</time>
      </trkpt>
      <trkpt lat="45.11847" lon="6.41125">
        <ele>1788.8</ele>
        <time>2021-02-28T08:52:20Z</time>
      </trkpt>
      <trkpt lat="45.11847" lon="6.41125">
        <ele>1788.8</ele>
        <time>2021-02-28T08:52:21Z</time>
      </trkpt>
      <trkpt lat="45.11847" lon="6.41125">
        <ele>1789.2</ele>
        <time>2021-02-28T08:52:22Z</time>
      </trkpt>
      <trkpt lat="45.11847" lon="6.41125">
        <ele>1789.8</ele>
        <time>2021-02-28T08:52:23Z</time>
      </trkpt>
      <trkpt lat="45.11847" lon="6.41125">
        <ele>1790.2</ele>
        <time>2021-02-28T08:52:24Z</time>
      </trkpt>
      <trkpt lat="45.11847" lon="6.41125">
        <ele>1790.2</ele>
        <time>2021-02-28T08:52:25Z</time>
      </trkpt>
      <trkpt lat="45.11847" lon="6.41125">
        <ele>1790.2</ele>
        <time>2021-02-28T08:52:26Z</time>
      </trkpt>
      <trkpt lat="45.11848" lon="6.41122">
        <ele>1790.2</ele>
        <time>2021-02-28T08:52:27Z</time>
      </trkpt>
      <trkpt lat="45.11848" lon="6.41122">
        <ele>1791</ele>
        <time>2021-02-28T08:52:28Z</time>
      </trkpt>
      <trkpt lat="45.11848" lon="6.41122">
        <ele>1791</ele>
        <time>2021-02-28T08:52:29Z</time>
      </trkpt>
      <trkpt lat="45.11848" lon="6.41122">
        <ele>1790.4</ele>
        <time>2021-02-28T08:52:30Z</time>
      </trkpt>
      <trkpt lat="45.11848" lon="6.41122">
        <ele>1790.4</ele>
        <time>2021-02-28T08:52:31Z</time>
      </trkpt>
      <trkpt lat="45.11848" lon="6.41122">
        <ele>1789.8</ele>
        <time>2021-02-28T08:52:32Z</time>
      </trkpt>
      <trkpt lat="45.11848" lon="6.41122">
        <ele>1789.4</ele>
        <time>2021-02-28T08:52:33Z</time>
      </trkpt>
      <trkpt lat="45.11848" lon="6.41122">
        <ele>1789</ele>
        <time>2021-02-28T08:52:34Z</time>
      </trkpt>
      <trkpt lat="45.11849" lon="6.41125">
        <ele>1788.6</ele>
        <time>2021-02-28T08:52:35Z</time>
      </trkpt>
      <trkpt lat="45.11849" lon="6.41125">
        <ele>1788.4</ele>
        <time>2021-02-28T08:52:36Z</time>
      </trkpt>
      <trkpt lat="45.11849" lon="6.41125">
        <ele>1788.2</ele>
        <time>2021-02-28T08:52:37Z</time>
      </trkpt>
      <trkpt lat="45.11849" lon="6.41125">
        <ele>1788</ele>
        <time>2021-02-28T08:52:38Z</time>
      </trkpt>
      <trkpt lat="45.11849" lon="6.41125">
        <ele>1788</ele>
        <time>2021-02-28T08:52:39Z</time>
      </trkpt>
      <trkpt lat="45.11849" lon="6.41125">
        <ele>1788.2</ele>
        <time>2021-02-28T08:52:40Z</time>
      </trkpt>
      <trkpt lat="45.11849" lon="6.41125">
        <ele>1788.4</ele>
        <time>2021-02-28T08:52:41Z</time>
      </trkpt>
      <trkpt lat="45.11849" lon="6.41125">
        <ele>1788.4</ele>
        <time>2021-02-28T08:52:42Z</time>
      </trkpt>
      <trkpt lat="45.11849" lon="6.41125">
        <ele>1788.2</ele>
        <time>2021-02-28T08:52:43Z</time>
      </trkpt>
      <trkpt lat="45.11849" lon="6.41125">
        <ele>1788.2</ele>
        <time>2021-02-28T08:52:44Z</time>
      </trkpt>
      <trkpt lat="45.11849" lon="6.41125">
        <ele>1788.8</ele>
        <time>2021-02-28T08:52:45Z</time>
      </trkpt>
      <trkpt lat="45.11849" lon="6.41125">
        <ele>1788.6</ele>
        <time>2021-02-28T08:52:46Z</time>
      </trkpt>
      <trkpt lat="45.11849" lon="6.41125">
        <ele>1787.8</ele>
        <time>2021-02-28T08:52:47Z</time>
      </trkpt>
      <trkpt lat="45.11849" lon="6.41125">
        <ele>1788.6</ele>
        <time>2021-02-28T08:52:48Z</time>
      </trkpt>
      <trkpt lat="45.11849" lon="6.41125">
        <ele>1789</ele>
        <time>2021-02-28T08:52:49Z</time>
      </trkpt>
      <trkpt lat="45.11849" lon="6.41125">
        <ele>1789.2</ele>
        <time>2021-02-28T08:52:50Z</time>
      </trkpt>
      <trkpt lat="45.11849" lon="6.41125">
        <ele>1789.4</ele>
        <time>2021-02-28T08:52:51Z</time>
      </trkpt>
      <trkpt lat="45.11849" lon="6.41125">
        <ele>1789.6</ele>
        <time>2021-02-28T08:52:52Z</time>
      </trkpt>
      <trkpt lat="45.11849" lon="6.41125">
        <ele>1789.6</ele>
        <time>2021-02-28T08:52:53Z</time>
      </trkpt>
      <trkpt lat="45.11849" lon="6.41125">
        <ele>1789.2</ele>
        <time>2021-02-28T08:52:54Z</time>
      </trkpt>
      <trkpt lat="45.11849" lon="6.41126">
        <ele>1789.6</ele>
        <time>2021-02-28T08:52:55Z</time>
      </trkpt>
      <trkpt lat="45.11849" lon="6.41126">
        <ele>1789.4</ele>
        <time>2021-02-28T08:52:56Z</time>
      </trkpt>
      <trkpt lat="45.11849" lon="6.41126">
        <ele>1789.6</ele>
        <time>2021-02-28T08:52:57Z</time>
      </trkpt>
      <trkpt lat="45.11849" lon="6.41126">
        <ele>1789.6</ele>
        <time>2021-02-28T08:52:58Z</time>
      </trkpt>
      <trkpt lat="45.11849" lon="6.41126">
        <ele>1789.8</ele>
        <time>2021-02-28T08:52:59Z</time>
      </trkpt>
      <trkpt lat="45.11849" lon="6.41126">
        <ele>1790.2</ele>
        <time>2021-02-28T08:53:00Z</time>
      </trkpt>
      <trkpt lat="45.11849" lon="6.41126">
        <ele>1790.2</ele>
        <time>2021-02-28T08:53:01Z</time>
      </trkpt>
      <trkpt lat="45.11849" lon="6.41126">
        <ele>1790.4</ele>
        <time>2021-02-28T08:53:02Z</time>
      </trkpt>
      <trkpt lat="45.11849" lon="6.41126">
        <ele>1790.6</ele>
        <time>2021-02-28T08:53:03Z</time>
      </trkpt>
      <trkpt lat="45.11849" lon="6.41126">
        <ele>1790.4</ele>
        <time>2021-02-28T08:53:04Z</time>
      </trkpt>
      <trkpt lat="45.11849" lon="6.41126">
        <ele>1790.4</ele>
        <time>2021-02-28T08:53:05Z</time>
      </trkpt>
      <trkpt lat="45.11849" lon="6.41126">
        <ele>1790.4</ele>
        <time>2021-02-28T08:53:06Z</time>
      </trkpt>
      <trkpt lat="45.11849" lon="6.41126">
        <ele>1790.6</ele>
        <time>2021-02-28T08:53:07Z</time>
      </trkpt>
      <trkpt lat="45.11849" lon="6.41126">
        <ele>1790.4</ele>
        <time>2021-02-28T08:53:08Z</time>
      </trkpt>
      <trkpt lat="45.11849" lon="6.41126">
        <ele>1790.2</ele>
        <time>2021-02-28T08:53:09Z</time>
      </trkpt>
      <trkpt lat="45.11849" lon="6.41126">
        <ele>1790</ele>
        <time>2021-02-28T08:53:10Z</time>
      </trkpt>
      <trkpt lat="45.11849" lon="6.41126">
        <ele>1790</ele>
        <time>2021-02-28T08:53:11Z</time>
      </trkpt>
      <trkpt lat="45.11849" lon="6.41127">
        <ele>1789.8</ele>
        <time>2021-02-28T08:53:12Z</time>
      </trkpt>
      <trkpt lat="45.11849" lon="6.41127">
        <ele>1789.8</ele>
        <time>2021-02-28T08:53:13Z</time>
      </trkpt>
      <trkpt lat="45.11849" lon="6.41127">
        <ele>1790.2</ele>
        <time>2021-02-28T08:53:14Z</time>
      </trkpt>
      <trkpt lat="45.11849" lon="6.41127">
        <ele>1790</ele>
        <time>2021-02-28T08:53:15Z</time>
      </trkpt>
      <trkpt lat="45.11849" lon="6.41127">
        <ele>1789.8</ele>
        <time>2021-02-28T08:53:16Z</time>
      </trkpt>
      <trkpt lat="45.11849" lon="6.41127">
        <ele>1789.8</ele>
        <time>2021-02-28T08:53:17Z</time>
      </trkpt>
      <trkpt lat="45.11849" lon="6.41127">
        <ele>1790</ele>
        <time>2021-02-28T08:53:18Z</time>
      </trkpt>
      <trkpt lat="45.11849" lon="6.41127">
        <ele>1789.4</ele>
        <time>2021-02-28T08:53:19Z</time>
      </trkpt>
      <trkpt lat="45.11849" lon="6.41127">
        <ele>1789.4</ele>
        <time>2021-02-28T08:53:20Z</time>
      </trkpt>
      <trkpt lat="45.11849" lon="6.41127">
        <ele>1789.4</ele>
        <time>2021-02-28T08:53:21Z</time>
      </trkpt>
      <trkpt lat="45.11849" lon="6.41127">
        <ele>1789.2</ele>
        <time>2021-02-28T08:53:22Z</time>
      </trkpt>
      <trkpt lat="45.11849" lon="6.41127">
        <ele>1789.2</ele>
        <time>2021-02-28T08:53:23Z</time>
      </trkpt>
      <trkpt lat="45.11849" lon="6.41127">
        <ele>1789.4</ele>
        <time>2021-02-28T08:53:24Z</time>
      </trkpt>
      <trkpt lat="45.11849" lon="6.41127">
        <ele>1789</ele>
        <time>2021-02-28T08:53:25Z</time>
      </trkpt>
      <trkpt lat="45.11849" lon="6.41127">
        <ele>1789</ele>
        <time>2021-02-28T08:53:26Z</time>
      </trkpt>
      <trkpt lat="45.11849" lon="6.41127">
        <ele>1789.2</ele>
        <time>2021-02-28T08:53:27Z</time>
      </trkpt>
      <trkpt lat="45.11849" lon="6.41127">
        <ele>1789</ele>
        <time>2021-02-28T08:53:28Z</time>
      </trkpt>
      <trkpt lat="45.11849" lon="6.41127">
        <ele>1789.2</ele>
        <time>2021-02-28T08:53:29Z</time>
      </trkpt>
      <trkpt lat="45.11849" lon="6.41128">
        <ele>1789.4</ele>
        <time>2021-02-28T08:53:30Z</time>
      </trkpt>
      <trkpt lat="45.11849" lon="6.41128">
        <ele>1789.2</ele>
        <time>2021-02-28T08:53:31Z</time>
      </trkpt>
      <trkpt lat="45.11849" lon="6.41128">
        <ele>1789.4</ele>
        <time>2021-02-28T08:53:32Z</time>
      </trkpt>
      <trkpt lat="45.11849" lon="6.41128">
        <ele>1789.6</ele>
        <time>2021-02-28T08:53:33Z</time>
      </trkpt>
      <trkpt lat="45.11849" lon="6.41128">
        <ele>1789.6</ele>
        <time>2021-02-28T08:53:34Z</time>
      </trkpt>
      <trkpt lat="45.11849" lon="6.41128">
        <ele>1789.6</ele>
        <time>2021-02-28T08:53:35Z</time>
      </trkpt>
      <trkpt lat="45.11849" lon="6.41128">
        <ele>1789.4</ele>
        <time>2021-02-28T08:53:36Z</time>
      </trkpt>
      <trkpt lat="45.11849" lon="6.41128">
        <ele>1789.6</ele>
        <time>2021-02-28T08:53:37Z</time>
      </trkpt>
      <trkpt lat="45.11849" lon="6.41128">
        <ele>1789.4</ele>
        <time>2021-02-28T08:53:38Z</time>
      </trkpt>
      <trkpt lat="45.11849" lon="6.41128">
        <ele>1789.6</ele>
        <time>2021-02-28T08:53:39Z</time>
      </trkpt>
      <trkpt lat="45.11849" lon="6.41128">
        <ele>1789.8</ele>
        <time>2021-02-28T08:53:40Z</time>
      </trkpt>
      <trkpt lat="45.11849" lon="6.41128">
        <ele>1789.8</ele>
        <time>2021-02-28T08:53:41Z</time>
      </trkpt>
      <trkpt lat="45.11849" lon="6.41128">
        <ele>1789.8</ele>
        <time>2021-02-28T08:53:42Z</time>
      </trkpt>
      <trkpt lat="45.11849" lon="6.41128">
        <ele>1790</ele>
        <time>2021-02-28T08:53:43Z</time>
      </trkpt>
      <trkpt lat="45.11849" lon="6.41128">
        <ele>1790</ele>
        <time>2021-02-28T08:53:44Z</time>
      </trkpt>
      <trkpt lat="45.11849" lon="6.41128">
        <ele>1790</ele>
        <time>2021-02-28T08:53:45Z</time>
      </trkpt>
      <trkpt lat="45.11849" lon="6.41128">
        <ele>1790.2</ele>
        <time>2021-02-28T08:53:46Z</time>
      </trkpt>
      <trkpt lat="45.11849" lon="6.41128">
        <ele>1790.2</ele>
        <time>2021-02-28T08:53:47Z</time>
      </trkpt>
      <trkpt lat="45.11849" lon="6.41129">
        <ele>1790.2</ele>
        <time>2021-02-28T08:53:48Z</time>
      </trkpt>
      <trkpt lat="45.11849" lon="6.41129">
        <ele>1790</ele>
        <time>2021-02-28T08:53:49Z</time>
      </trkpt>
      <trkpt lat="45.11849" lon="6.41129">
        <ele>1790.2</ele>
        <time>2021-02-28T08:53:50Z</time>
      </trkpt>
      <trkpt lat="45.11849" lon="6.41129">
        <ele>1790.2</ele>
        <time>2021-02-28T08:53:51Z</time>
      </trkpt>
      <trkpt lat="45.11849" lon="6.41129">
        <ele>1789.8</ele>
        <time>2021-02-28T08:53:52Z</time>
      </trkpt>
      <trkpt lat="45.11849" lon="6.41129">
        <ele>1789.4</ele>
        <time>2021-02-28T08:53:53Z</time>
      </trkpt>
      <trkpt lat="45.11849" lon="6.41129">
        <ele>1789.4</ele>
        <time>2021-02-28T08:53:54Z</time>
      </trkpt>
      <trkpt lat="45.11849" lon="6.41129">
        <ele>1789.6</ele>
        <time>2021-02-28T08:53:55Z</time>
      </trkpt>
      <trkpt lat="45.11849" lon="6.41129">
        <ele>1789.4</ele>
        <time>2021-02-28T08:53:56Z</time>
      </trkpt>
      <trkpt lat="45.11849" lon="6.41129">
        <ele>1789.6</ele>
        <time>2021-02-28T08:53:57Z</time>
      </trkpt>
      <trkpt lat="45.11849" lon="6.41129">
        <ele>1789.6</ele>
        <time>2021-02-28T08:53:58Z</time>
      </trkpt>
      <trkpt lat="45.11848" lon="6.41129">
        <ele>1789.6</ele>
        <time>2021-02-28T08:53:59Z</time>
      </trkpt>
      <trkpt lat="45.11848" lon="6.41129">
        <ele>1789.6</ele>
        <time>2021-02-28T08:54:00Z</time>
      </trkpt>
      <trkpt lat="45.11848" lon="6.41129">
        <ele>1789.4</ele>
        <time>2021-02-28T08:54:01Z</time>
      </trkpt>
      <trkpt lat="45.11848" lon="6.41129">
        <ele>1789.4</ele>
        <time>2021-02-28T08:54:02Z</time>
      </trkpt>
      <trkpt lat="45.11848" lon="6.41129">
        <ele>1789.4</ele>
        <time>2021-02-28T08:54:03Z</time>
      </trkpt>
      <trkpt lat="45.11848" lon="6.41129">
        <ele>1789.4</ele>
        <time>2021-02-28T08:54:04Z</time>
      </trkpt>
      <trkpt lat="45.11848" lon="6.41129">
        <ele>1789.4</ele>
        <time>2021-02-28T08:54:05Z</time>
      </trkpt>
      <trkpt lat="45.11848" lon="6.4113">
        <ele>1789.6</ele>
        <time>2021-02-28T08:54:06Z</time>
      </trkpt>
      <trkpt lat="45.11848" lon="6.4113">
        <ele>1789.4</ele>
        <time>2021-02-28T08:54:07Z</time>
      </trkpt>
      <trkpt lat="45.11848" lon="6.4113">
        <ele>1789.4</ele>
        <time>2021-02-28T08:54:08Z</time>
      </trkpt>
      <trkpt lat="45.11848" lon="6.4113">
        <ele>1789.2</ele>
        <time>2021-02-28T08:54:09Z</time>
      </trkpt>
      <trkpt lat="45.11848" lon="6.4113">
        <ele>1789</ele>
        <time>2021-02-28T08:54:10Z</time>
      </trkpt>
      <trkpt lat="45.11848" lon="6.4113">
        <ele>1789.2</ele>
        <time>2021-02-28T08:54:11Z</time>
      </trkpt>
      <trkpt lat="45.11848" lon="6.4113">
        <ele>1789</ele>
        <time>2021-02-28T08:54:12Z</time>
      </trkpt>
      <trkpt lat="45.11848" lon="6.4113">
        <ele>1789.2</ele>
        <time>2021-02-28T08:54:13Z</time>
      </trkpt>
      <trkpt lat="45.11848" lon="6.4113">
        <ele>1789.2</ele>
        <time>2021-02-28T08:54:14Z</time>
      </trkpt>
      <trkpt lat="45.11848" lon="6.4113">
        <ele>1789.2</ele>
        <time>2021-02-28T08:54:15Z</time>
      </trkpt>
      <trkpt lat="45.11848" lon="6.4113">
        <ele>1789</ele>
        <time>2021-02-28T08:54:16Z</time>
      </trkpt>
      <trkpt lat="45.11848" lon="6.4113">
        <ele>1789</ele>
        <time>2021-02-28T08:54:17Z</time>
      </trkpt>
      <trkpt lat="45.11848" lon="6.4113">
        <ele>1789.2</ele>
        <time>2021-02-28T08:54:18Z</time>
      </trkpt>
      <trkpt lat="45.11848" lon="6.4113">
        <ele>1789</ele>
        <time>2021-02-28T08:54:19Z</time>
      </trkpt>
      <trkpt lat="45.11848" lon="6.4113">
        <ele>1789.2</ele>
        <time>2021-02-28T08:54:20Z</time>
      </trkpt>
      <trkpt lat="45.11848" lon="6.4113">
        <ele>1789.2</ele>
        <time>2021-02-28T08:54:21Z</time>
      </trkpt>
      <trkpt lat="45.11848" lon="6.4113">
        <ele>1789.2</ele>
        <time>2021-02-28T08:54:22Z</time>
      </trkpt>
      <trkpt lat="45.11848" lon="6.4113">
        <ele>1789.2</ele>
        <time>2021-02-28T08:54:23Z</time>
      </trkpt>
      <trkpt lat="45.11848" lon="6.41131">
        <ele>1789.2</ele>
        <time>2021-02-28T08:54:24Z</time>
      </trkpt>
      <trkpt lat="45.11848" lon="6.41131">
        <ele>1789.6</ele>
        <time>2021-02-28T08:54:25Z</time>
      </trkpt>
      <trkpt lat="45.11848" lon="6.41131">
        <ele>1789.6</ele>
        <time>2021-02-28T08:54:26Z</time>
      </trkpt>
      <trkpt lat="45.11848" lon="6.41131">
        <ele>1789.4</ele>
        <time>2021-02-28T08:54:27Z</time>
      </trkpt>
      <trkpt lat="45.11848" lon="6.41131">
        <ele>1789.6</ele>
        <time>2021-02-28T08:54:28Z</time>
      </trkpt>
      <trkpt lat="45.11848" lon="6.41131">
        <ele>1789.6</ele>
        <time>2021-02-28T08:54:29Z</time>
      </trkpt>
      <trkpt lat="45.11848" lon="6.41131">
        <ele>1789.4</ele>
        <time>2021-02-28T08:54:30Z</time>
      </trkpt>
      <trkpt lat="45.11848" lon="6.41131">
        <ele>1789.2</ele>
        <time>2021-02-28T08:54:31Z</time>
      </trkpt>
      <trkpt lat="45.11848" lon="6.41131">
        <ele>1789.4</ele>
        <time>2021-02-28T08:54:32Z</time>
      </trkpt>
      <trkpt lat="45.11848" lon="6.41131">
        <ele>1789.6</ele>
        <time>2021-02-28T08:54:33Z</time>
      </trkpt>
      <trkpt lat="45.11848" lon="6.41131">
        <ele>1789.6</ele>
        <time>2021-02-28T08:54:34Z</time>
      </trkpt>
      <trkpt lat="45.11848" lon="6.41131">
        <ele>1789.8</ele>
        <time>2021-02-28T08:54:35Z</time>
      </trkpt>
      <trkpt lat="45.11848" lon="6.41131">
        <ele>1789.8</ele>
        <time>2021-02-28T08:54:36Z</time>
      </trkpt>
      <trkpt lat="45.11848" lon="6.41131">
        <ele>1789.6</ele>
        <time>2021-02-28T08:54:37Z</time>
      </trkpt>
      <trkpt lat="45.11848" lon="6.41131">
        <ele>1789.8</ele>
        <time>2021-02-28T08:54:38Z</time>
      </trkpt>
      <trkpt lat="45.11848" lon="6.41131">
        <ele>1789.6</ele>
        <time>2021-02-28T08:54:39Z</time>
      </trkpt>
      <trkpt lat="45.11848" lon="6.41131">
        <ele>1789.6</ele>
        <time>2021-02-28T08:54:40Z</time>
      </trkpt>
      <trkpt lat="45.11848" lon="6.41131">
        <ele>1789.8</ele>
        <time>2021-02-28T08:54:41Z</time>
      </trkpt>
      <trkpt lat="45.11848" lon="6.41132">
        <ele>1789.4</ele>
        <time>2021-02-28T08:54:42Z</time>
      </trkpt>
      <trkpt lat="45.11848" lon="6.41132">
        <ele>1789.4</ele>
        <time>2021-02-28T08:54:43Z</time>
      </trkpt>
      <trkpt lat="45.11848" lon="6.41132">
        <ele>1789.4</ele>
        <time>2021-02-28T08:54:44Z</time>
      </trkpt>
      <trkpt lat="45.11848" lon="6.41132">
        <ele>1789.2</ele>
        <time>2021-02-28T08:54:45Z</time>
      </trkpt>
      <trkpt lat="45.11848" lon="6.41132">
        <ele>1788.8</ele>
        <time>2021-02-28T08:54:46Z</time>
      </trkpt>
      <trkpt lat="45.11848" lon="6.41132">
        <ele>1789</ele>
        <time>2021-02-28T08:54:47Z</time>
      </trkpt>
      <trkpt lat="45.11848" lon="6.41132">
        <ele>1789</ele>
        <time>2021-02-28T08:54:48Z</time>
      </trkpt>
      <trkpt lat="45.11848" lon="6.41132">
        <ele>1789.4</ele>
        <time>2021-02-28T08:54:49Z</time>
      </trkpt>
      <trkpt lat="45.11848" lon="6.41132">
        <ele>1789.2</ele>
        <time>2021-02-28T08:54:50Z</time>
      </trkpt>
      <trkpt lat="45.11848" lon="6.41132">
        <ele>1789.2</ele>
        <time>2021-02-28T08:54:51Z</time>
      </trkpt>
      <trkpt lat="45.11848" lon="6.41132">
        <ele>1789.2</ele>
        <time>2021-02-28T08:54:52Z</time>
      </trkpt>
      <trkpt lat="45.11848" lon="6.41132">
        <ele>1789.2</ele>
        <time>2021-02-28T08:54:53Z</time>
      </trkpt>
      <trkpt lat="45.11848" lon="6.41132">
        <ele>1789.2</ele>
        <time>2021-02-28T08:54:54Z</time>
      </trkpt>
      <trkpt lat="45.11848" lon="6.41132">
        <ele>1789.2</ele>
        <time>2021-02-28T08:54:55Z</time>
      </trkpt>
      <trkpt lat="45.11848" lon="6.41132">
        <ele>1789.2</ele>
        <time>2021-02-28T08:54:56Z</time>
      </trkpt>
      <trkpt lat="45.11848" lon="6.41132">
        <ele>1789.4</ele>
        <time>2021-02-28T08:54:57Z</time>
      </trkpt>
      <trkpt lat="45.11848" lon="6.41132">
        <ele>1789.2</ele>
        <time>2021-02-28T08:54:58Z</time>
      </trkpt>
      <trkpt lat="45.11848" lon="6.41132">
        <ele>1789.2</ele>
        <time>2021-02-28T08:54:59Z</time>
      </trkpt>
      <trkpt lat="45.11848" lon="6.41133">
        <ele>1789</ele>
        <time>2021-02-28T08:55:00Z</time>
      </trkpt>
      <trkpt lat="45.11848" lon="6.41133">
        <ele>1789.2</ele>
        <time>2021-02-28T08:55:01Z</time>
      </trkpt>
      <trkpt lat="45.11848" lon="6.41133">
        <ele>1789</ele>
        <time>2021-02-28T08:55:02Z</time>
      </trkpt>
      <trkpt lat="45.11848" lon="6.41133">
        <ele>1789</ele>
        <time>2021-02-28T08:55:03Z</time>
      </trkpt>
      <trkpt lat="45.11848" lon="6.41133">
        <ele>1788.8</ele>
        <time>2021-02-28T08:55:04Z</time>
      </trkpt>
      <trkpt lat="45.11848" lon="6.41133">
        <ele>1788.8</ele>
        <time>2021-02-28T08:55:05Z</time>
      </trkpt>
      <trkpt lat="45.11848" lon="6.41133">
        <ele>1788.6</ele>
        <time>2021-02-28T08:55:06Z</time>
      </trkpt>
      <trkpt lat="45.11848" lon="6.41133">
        <ele>1788.4</ele>
        <time>2021-02-28T08:55:07Z</time>
      </trkpt>
      <trkpt lat="45.11848" lon="6.41133">
        <ele>1788.6</ele>
        <time>2021-02-28T08:55:08Z</time>
      </trkpt>
      <trkpt lat="45.11848" lon="6.41133">
        <ele>1789</ele>
        <time>2021-02-28T08:55:09Z</time>
      </trkpt>
      <trkpt lat="45.11848" lon="6.41133">
        <ele>1788.8</ele>
        <time>2021-02-28T08:55:10Z</time>
      </trkpt>
      <trkpt lat="45.11848" lon="6.41133">
        <ele>1789</ele>
        <time>2021-02-28T08:55:11Z</time>
      </trkpt>
      <trkpt lat="45.11848" lon="6.41133">
        <ele>1789</ele>
        <time>2021-02-28T08:55:12Z</time>
      </trkpt>
      <trkpt lat="45.11848" lon="6.41133">
        <ele>1789.2</ele>
        <time>2021-02-28T08:55:13Z</time>
      </trkpt>
      <trkpt lat="45.11848" lon="6.41133">
        <ele>1789.2</ele>
        <time>2021-02-28T08:55:14Z</time>
      </trkpt>
      <trkpt lat="45.11848" lon="6.41133">
        <ele>1789.2</ele>
        <time>2021-02-28T08:55:15Z</time>
      </trkpt>
      <trkpt lat="45.11848" lon="6.41133">
        <ele>1789.2</ele>
        <time>2021-02-28T08:55:16Z</time>
      </trkpt>
      <trkpt lat="45.11848" lon="6.41133">
        <ele>1789</ele>
        <time>2021-02-28T08:55:17Z</time>
      </trkpt>
      <trkpt lat="45.11848" lon="6.41134">
        <ele>1789</ele>
        <time>2021-02-28T08:55:18Z</time>
      </trkpt>
      <trkpt lat="45.11848" lon="6.41134">
        <ele>1789</ele>
        <time>2021-02-28T08:55:19Z</time>
      </trkpt>
      <trkpt lat="45.11848" lon="6.41134">
        <ele>1789</ele>
        <time>2021-02-28T08:55:20Z</time>
      </trkpt>
      <trkpt lat="45.11848" lon="6.41134">
        <ele>1789.2</ele>
        <time>2021-02-28T08:55:21Z</time>
      </trkpt>
      <trkpt lat="45.11848" lon="6.41134">
        <ele>1789.2</ele>
        <time>2021-02-28T08:55:22Z</time>
      </trkpt>
      <trkpt lat="45.11848" lon="6.41134">
        <ele>1789.2</ele>
        <time>2021-02-28T08:55:23Z</time>
      </trkpt>
      <trkpt lat="45.11848" lon="6.41134">
        <ele>1789.4</ele>
        <time>2021-02-28T08:55:24Z</time>
      </trkpt>
      <trkpt lat="45.11848" lon="6.41134">
        <ele>1789.4</ele>
        <time>2021-02-28T08:55:25Z</time>
      </trkpt>
      <trkpt lat="45.11848" lon="6.41134">
        <ele>1789.4</ele>
        <time>2021-02-28T08:55:26Z</time>
      </trkpt>
      <trkpt lat="45.11848" lon="6.41134">
        <ele>1789.4</ele>
        <time>2021-02-28T08:55:27Z</time>
      </trkpt>
      <trkpt lat="45.11848" lon="6.41134">
        <ele>1789.2</ele>
        <time>2021-02-28T08:55:28Z</time>
      </trkpt>
      <trkpt lat="45.11848" lon="6.41134">
        <ele>1789.2</ele>
        <time>2021-02-28T08:55:29Z</time>
      </trkpt>
      <trkpt lat="45.11848" lon="6.41134">
        <ele>1789.4</ele>
        <time>2021-02-28T08:55:30Z</time>
      </trkpt>
      <trkpt lat="45.11848" lon="6.41134">
        <ele>1789.4</ele>
        <time>2021-02-28T08:55:31Z</time>
      </trkpt>
      <trkpt lat="45.11848" lon="6.41134">
        <ele>1789.4</ele>
        <time>2021-02-28T08:55:32Z</time>
      </trkpt>
      <trkpt lat="45.11848" lon="6.41134">
        <ele>1789.6</ele>
        <time>2021-02-28T08:55:33Z</time>
      </trkpt>
      <trkpt lat="45.11848" lon="6.41134">
        <ele>1789.4</ele>
        <time>2021-02-28T08:55:34Z</time>
      </trkpt>
      <trkpt lat="45.11848" lon="6.41134">
        <ele>1789.8</ele>
        <time>2021-02-28T08:55:35Z</time>
      </trkpt>
      <trkpt lat="45.11848" lon="6.41134">
        <ele>1790</ele>
        <time>2021-02-28T08:55:36Z</time>
      </trkpt>
      <trkpt lat="45.11848" lon="6.41133">
        <ele>1790</ele>
        <time>2021-02-28T08:55:37Z</time>
      </trkpt>
      <trkpt lat="45.11849" lon="6.41133">
        <ele>1790</ele>
        <time>2021-02-28T08:55:38Z</time>
      </trkpt>
      <trkpt lat="45.11849" lon="6.41133">
        <ele>1790</ele>
        <time>2021-02-28T08:55:39Z</time>
      </trkpt>
      <trkpt lat="45.11849" lon="6.41133">
        <ele>1790</ele>
        <time>2021-02-28T08:55:40Z</time>
      </trkpt>
      <trkpt lat="45.11849" lon="6.41133">
        <ele>1790</ele>
        <time>2021-02-28T08:55:41Z</time>
      </trkpt>
      <trkpt lat="45.11849" lon="6.41133">
        <ele>1790</ele>
        <time>2021-02-28T08:55:42Z</time>
      </trkpt>
      <trkpt lat="45.11849" lon="6.41133">
        <ele>1790.2</ele>
        <time>2021-02-28T08:55:43Z</time>
      </trkpt>
      <trkpt lat="45.11849" lon="6.41133">
        <ele>1790</ele>
        <time>2021-02-28T08:55:44Z</time>
      </trkpt>
      <trkpt lat="45.11849" lon="6.41133">
        <ele>1790.2</ele>
        <time>2021-02-28T08:55:45Z</time>
      </trkpt>
      <trkpt lat="45.11849" lon="6.41133">
        <ele>1790</ele>
        <time>2021-02-28T08:55:46Z</time>
      </trkpt>
      <trkpt lat="45.11849" lon="6.41133">
        <ele>1790</ele>
        <time>2021-02-28T08:55:47Z</time>
      </trkpt>
      <trkpt lat="45.11849" lon="6.41133">
        <ele>1789.8</ele>
        <time>2021-02-28T08:55:48Z</time>
      </trkpt>
      <trkpt lat="45.11849" lon="6.41133">
        <ele>1789.8</ele>
        <time>2021-02-28T08:55:49Z</time>
      </trkpt>
      <trkpt lat="45.11849" lon="6.41133">
        <ele>1790</ele>
        <time>2021-02-28T08:55:50Z</time>
      </trkpt>
      <trkpt lat="45.11849" lon="6.41133">
        <ele>1790</ele>
        <time>2021-02-28T08:55:51Z</time>
      </trkpt>
      <trkpt lat="45.11849" lon="6.41133">
        <ele>1790</ele>
        <time>2021-02-28T08:55:52Z</time>
      </trkpt>
      <trkpt lat="45.11849" lon="6.41133">
        <ele>1790.2</ele>
        <time>2021-02-28T08:55:53Z</time>
      </trkpt>
      <trkpt lat="45.11849" lon="6.41133">
        <ele>1790</ele>
        <time>2021-02-28T08:55:54Z</time>
      </trkpt>
      <trkpt lat="45.11849" lon="6.41133">
        <ele>1790</ele>
        <time>2021-02-28T08:55:55Z</time>
      </trkpt>
      <trkpt lat="45.11849" lon="6.41133">
        <ele>1789.4</ele>
        <time>2021-02-28T08:55:56Z</time>
      </trkpt>
      <trkpt lat="45.11849" lon="6.41133">
        <ele>1789.4</ele>
        <time>2021-02-28T08:55:57Z</time>
      </trkpt>
      <trkpt lat="45.11849" lon="6.41133">
        <ele>1790</ele>
        <time>2021-02-28T08:55:58Z</time>
      </trkpt>
      <trkpt lat="45.11849" lon="6.41133">
        <ele>1789.8</ele>
        <time>2021-02-28T08:55:59Z</time>
      </trkpt>
      <trkpt lat="45.11849" lon="6.41133">
        <ele>1790</ele>
        <time>2021-02-28T08:56:00Z</time>
      </trkpt>
      <trkpt lat="45.11849" lon="6.41133">
        <ele>1790.2</ele>
        <time>2021-02-28T08:56:01Z</time>
      </trkpt>
      <trkpt lat="45.11849" lon="6.41133">
        <ele>1790</ele>
        <time>2021-02-28T08:56:02Z</time>
      </trkpt>
      <trkpt lat="45.11849" lon="6.41133">
        <ele>1790.4</ele>
        <time>2021-02-28T08:56:03Z</time>
      </trkpt>
      <trkpt lat="45.11849" lon="6.41133">
        <ele>1790.4</ele>
        <time>2021-02-28T08:56:04Z</time>
      </trkpt>
      <trkpt lat="45.11849" lon="6.41133">
        <ele>1790.8</ele>
        <time>2021-02-28T08:56:05Z</time>
      </trkpt>
      <trkpt lat="45.11849" lon="6.41133">
        <ele>1790.8</ele>
        <time>2021-02-28T08:56:06Z</time>
      </trkpt>
      <trkpt lat="45.11849" lon="6.41133">
        <ele>1790.6</ele>
        <time>2021-02-28T08:56:07Z</time>
      </trkpt>
      <trkpt lat="45.11849" lon="6.41133">
        <ele>1790.8</ele>
        <time>2021-02-28T08:56:08Z</time>
      </trkpt>
      <trkpt lat="45.11849" lon="6.41133">
        <ele>1790.8</ele>
        <time>2021-02-28T08:56:09Z</time>
      </trkpt>
      <trkpt lat="45.11849" lon="6.41133">
        <ele>1791</ele>
        <time>2021-02-28T08:56:10Z</time>
      </trkpt>
      <trkpt lat="45.11849" lon="6.41133">
        <ele>1791.4</ele>
        <time>2021-02-28T08:56:11Z</time>
      </trkpt>
      <trkpt lat="45.11849" lon="6.41133">
        <ele>1791.2</ele>
        <time>2021-02-28T08:56:12Z</time>
      </trkpt>
      <trkpt lat="45.11849" lon="6.41133">
        <ele>1791.2</ele>
        <time>2021-02-28T08:56:13Z</time>
      </trkpt>
      <trkpt lat="45.11849" lon="6.41133">
        <ele>1791</ele>
        <time>2021-02-28T08:56:14Z</time>
      </trkpt>
      <trkpt lat="45.11849" lon="6.41133">
        <ele>1791.2</ele>
        <time>2021-02-28T08:56:15Z</time>
      </trkpt>
      <trkpt lat="45.11849" lon="6.41133">
        <ele>1791</ele>
        <time>2021-02-28T08:56:16Z</time>
      </trkpt>
      <trkpt lat="45.1185" lon="6.41133">
        <ele>1791</ele>
        <time>2021-02-28T08:56:17Z</time>
      </trkpt>
      <trkpt lat="45.1185" lon="6.41133">
        <ele>1791</ele>
        <time>2021-02-28T08:56:18Z</time>
      </trkpt>
      <trkpt lat="45.1185" lon="6.41133">
        <ele>1791.2</ele>
        <time>2021-02-28T08:56:19Z</time>
      </trkpt>
      <trkpt lat="45.1185" lon="6.41133">
        <ele>1791.2</ele>
        <time>2021-02-28T08:56:20Z</time>
      </trkpt>
      <trkpt lat="45.1185" lon="6.41133">
        <ele>1791</ele>
        <time>2021-02-28T08:56:21Z</time>
      </trkpt>
      <trkpt lat="45.1185" lon="6.41133">
        <ele>1790.8</ele>
        <time>2021-02-28T08:56:22Z</time>
      </trkpt>
      <trkpt lat="45.1185" lon="6.41133">
        <ele>1791</ele>
        <time>2021-02-28T08:56:23Z</time>
      </trkpt>
      <trkpt lat="45.1185" lon="6.41133">
        <ele>1791</ele>
        <time>2021-02-28T08:56:24Z</time>
      </trkpt>
      <trkpt lat="45.1185" lon="6.41133">
        <ele>1790.8</ele>
        <time>2021-02-28T08:56:25Z</time>
      </trkpt>
      <trkpt lat="45.1185" lon="6.41133">
        <ele>1791</ele>
        <time>2021-02-28T08:56:26Z</time>
      </trkpt>
      <trkpt lat="45.1185" lon="6.41133">
        <ele>1791</ele>
        <time>2021-02-28T08:56:27Z</time>
      </trkpt>
      <trkpt lat="45.1185" lon="6.41133">
        <ele>1791.2</ele>
        <time>2021-02-28T08:56:28Z</time>
      </trkpt>
      <trkpt lat="45.1185" lon="6.41133">
        <ele>1791.4</ele>
        <time>2021-02-28T08:56:29Z</time>
      </trkpt>
      <trkpt lat="45.1185" lon="6.41133">
        <ele>1791</ele>
        <time>2021-02-28T08:56:30Z</time>
      </trkpt>
      <trkpt lat="45.1185" lon="6.41133">
        <ele>1791.2</ele>
        <time>2021-02-28T08:56:31Z</time>
      </trkpt>
      <trkpt lat="45.1185" lon="6.41133">
        <ele>1791.2</ele>
        <time>2021-02-28T08:56:32Z</time>
      </trkpt>
      <trkpt lat="45.1185" lon="6.41133">
        <ele>1790.8</ele>
        <time>2021-02-28T08:56:33Z</time>
      </trkpt>
      <trkpt lat="45.1185" lon="6.41133">
        <ele>1790.6</ele>
        <time>2021-02-28T08:56:34Z</time>
      </trkpt>
      <trkpt lat="45.1185" lon="6.41133">
        <ele>1790.6</ele>
        <time>2021-02-28T08:56:35Z</time>
      </trkpt>
      <trkpt lat="45.1185" lon="6.41133">
        <ele>1790.6</ele>
        <time>2021-02-28T08:56:36Z</time>
      </trkpt>
      <trkpt lat="45.1185" lon="6.41133">
        <ele>1790.8</ele>
        <time>2021-02-28T08:56:37Z</time>
      </trkpt>
      <trkpt lat="45.1185" lon="6.41133">
        <ele>1791</ele>
        <time>2021-02-28T08:56:38Z</time>
      </trkpt>
      <trkpt lat="45.1185" lon="6.41133">
        <ele>1791</ele>
        <time>2021-02-28T08:56:39Z</time>
      </trkpt>
      <trkpt lat="45.1185" lon="6.41133">
        <ele>1791</ele>
        <time>2021-02-28T08:56:40Z</time>
      </trkpt>
      <trkpt lat="45.1185" lon="6.41133">
        <ele>1791.2</ele>
        <time>2021-02-28T08:56:41Z</time>
      </trkpt>
      <trkpt lat="45.1185" lon="6.41133">
        <ele>1791.2</ele>
        <time>2021-02-28T08:56:42Z</time>
      </trkpt>
      <trkpt lat="45.1185" lon="6.41133">
        <ele>1791.2</ele>
        <time>2021-02-28T08:56:43Z</time>
      </trkpt>
      <trkpt lat="45.1185" lon="6.41133">
        <ele>1791.4</ele>
        <time>2021-02-28T08:56:44Z</time>
      </trkpt>
      <trkpt lat="45.1185" lon="6.41133">
        <ele>1791.6</ele>
        <time>2021-02-28T08:56:45Z</time>
      </trkpt>
      <trkpt lat="45.1185" lon="6.41133">
        <ele>1791.8</ele>
        <time>2021-02-28T08:56:46Z</time>
      </trkpt>
      <trkpt lat="45.1185" lon="6.41133">
        <ele>1791.6</ele>
        <time>2021-02-28T08:56:47Z</time>
      </trkpt>
      <trkpt lat="45.1185" lon="6.41133">
        <ele>1791.6</ele>
        <time>2021-02-28T08:56:48Z</time>
      </trkpt>
      <trkpt lat="45.1185" lon="6.41133">
        <ele>1791.8</ele>
        <time>2021-02-28T08:56:49Z</time>
      </trkpt>
      <trkpt lat="45.1185" lon="6.41133">
        <ele>1791.6</ele>
        <time>2021-02-28T08:56:50Z</time>
      </trkpt>
      <trkpt lat="45.1185" lon="6.41133">
        <ele>1791.6</ele>
        <time>2021-02-28T08:56:51Z</time>
      </trkpt>
      <trkpt lat="45.1185" lon="6.41133">
        <ele>1791.6</ele>
        <time>2021-02-28T08:56:52Z</time>
      </trkpt>
      <trkpt lat="45.1185" lon="6.41133">
        <ele>1791.6</ele>
        <time>2021-02-28T08:56:53Z</time>
      </trkpt>
      <trkpt lat="45.1185" lon="6.41133">
        <ele>1791.6</ele>
        <time>2021-02-28T08:56:54Z</time>
      </trkpt>
      <trkpt lat="45.1185" lon="6.41133">
        <ele>1791.6</ele>
        <time>2021-02-28T08:56:55Z</time>
      </trkpt>
      <trkpt lat="45.1185" lon="6.41133">
        <ele>1791.6</ele>
        <time>2021-02-28T08:56:56Z</time>
      </trkpt>
      <trkpt lat="45.11851" lon="6.41133">
        <ele>1791.8</ele>
        <time>2021-02-28T08:56:57Z</time>
      </trkpt>
      <trkpt lat="45.11851" lon="6.41133">
        <ele>1791.6</ele>
        <time>2021-02-28T08:56:58Z</time>
      </trkpt>
      <trkpt lat="45.11851" lon="6.41133">
        <ele>1791.6</ele>
        <time>2021-02-28T08:56:59Z</time>
      </trkpt>
      <trkpt lat="45.11851" lon="6.41133">
        <ele>1791.6</ele>
        <time>2021-02-28T08:57:00Z</time>
      </trkpt>
      <trkpt lat="45.11851" lon="6.41133">
        <ele>1791.6</ele>
        <time>2021-02-28T08:57:01Z</time>
      </trkpt>
      <trkpt lat="45.11851" lon="6.41133">
        <ele>1791.6</ele>
        <time>2021-02-28T08:57:02Z</time>
      </trkpt>
      <trkpt lat="45.11851" lon="6.41133">
        <ele>1791.4</ele>
        <time>2021-02-28T08:57:03Z</time>
      </trkpt>
      <trkpt lat="45.11851" lon="6.41133">
        <ele>1791.4</ele>
        <time>2021-02-28T08:57:04Z</time>
      </trkpt>
      <trkpt lat="45.11851" lon="6.41133">
        <ele>1791.6</ele>
        <time>2021-02-28T08:57:05Z</time>
      </trkpt>
      <trkpt lat="45.11851" lon="6.41133">
        <ele>1791.8</ele>
        <time>2021-02-28T08:57:06Z</time>
      </trkpt>
      <trkpt lat="45.11851" lon="6.41133">
        <ele>1791.8</ele>
        <time>2021-02-28T08:57:07Z</time>
      </trkpt>
      <trkpt lat="45.11851" lon="6.41133">
        <ele>1791.8</ele>
        <time>2021-02-28T08:57:08Z</time>
      </trkpt>
      <trkpt lat="45.11851" lon="6.41133">
        <ele>1791.8</ele>
        <time>2021-02-28T08:57:09Z</time>
      </trkpt>
      <trkpt lat="45.11851" lon="6.41133">
        <ele>1791.6</ele>
        <time>2021-02-28T08:57:10Z</time>
      </trkpt>
      <trkpt lat="45.11851" lon="6.41133">
        <ele>1791.6</ele>
        <time>2021-02-28T08:57:11Z</time>
      </trkpt>
      <trkpt lat="45.11851" lon="6.41133">
        <ele>1791.6</ele>
        <time>2021-02-28T08:57:12Z</time>
      </trkpt>
      <trkpt lat="45.11851" lon="6.41133">
        <ele>1791.8</ele>
        <time>2021-02-28T08:57:13Z</time>
      </trkpt>
      <trkpt lat="45.11851" lon="6.41133">
        <ele>1791.8</ele>
        <time>2021-02-28T08:57:14Z</time>
      </trkpt>
      <trkpt lat="45.11851" lon="6.41133">
        <ele>1791.8</ele>
        <time>2021-02-28T08:57:15Z</time>
      </trkpt>
      <trkpt lat="45.11851" lon="6.41133">
        <ele>1791.8</ele>
        <time>2021-02-28T08:57:16Z</time>
      </trkpt>
      <trkpt lat="45.11851" lon="6.41133">
        <ele>1791.6</ele>
        <time>2021-02-28T08:57:17Z</time>
      </trkpt>
      <trkpt lat="45.11851" lon="6.41133">
        <ele>1791.6</ele>
        <time>2021-02-28T08:57:18Z</time>
      </trkpt>
      <trkpt lat="45.11851" lon="6.41133">
        <ele>1791.6</ele>
        <time>2021-02-28T08:57:19Z</time>
      </trkpt>
      <trkpt lat="45.11851" lon="6.41133">
        <ele>1791.4</ele>
        <time>2021-02-28T08:57:20Z</time>
      </trkpt>
      <trkpt lat="45.11851" lon="6.41133">
        <ele>1791.2</ele>
        <time>2021-02-28T08:57:21Z</time>
      </trkpt>
      <trkpt lat="45.11851" lon="6.41133">
        <ele>1791.4</ele>
        <time>2021-02-28T08:57:22Z</time>
      </trkpt>
      <trkpt lat="45.11851" lon="6.41133">
        <ele>1791.6</ele>
        <time>2021-02-28T08:57:23Z</time>
      </trkpt>
      <trkpt lat="45.11851" lon="6.41133">
        <ele>1791.8</ele>
        <time>2021-02-28T08:57:24Z</time>
      </trkpt>
      <trkpt lat="45.11851" lon="6.41133">
        <ele>1791.6</ele>
        <time>2021-02-28T08:57:25Z</time>
      </trkpt>
      <trkpt lat="45.11851" lon="6.41133">
        <ele>1791.8</ele>
        <time>2021-02-28T08:57:26Z</time>
      </trkpt>
      <trkpt lat="45.11851" lon="6.41133">
        <ele>1792</ele>
        <time>2021-02-28T08:57:27Z</time>
      </trkpt>
      <trkpt lat="45.11851" lon="6.41133">
        <ele>1792</ele>
        <time>2021-02-28T08:57:28Z</time>
      </trkpt>
      <trkpt lat="45.11851" lon="6.41133">
        <ele>1792</ele>
        <time>2021-02-28T08:57:29Z</time>
      </trkpt>
      <trkpt lat="45.11851" lon="6.41132">
        <ele>1792</ele>
        <time>2021-02-28T08:57:30Z</time>
      </trkpt>
      <trkpt lat="45.11851" lon="6.41132">
        <ele>1792</ele>
        <time>2021-02-28T08:57:31Z</time>
      </trkpt>
      <trkpt lat="45.11851" lon="6.41132">
        <ele>1792</ele>
        <time>2021-02-28T08:57:32Z</time>
      </trkpt>
      <trkpt lat="45.11851" lon="6.41132">
        <ele>1791.8</ele>
        <time>2021-02-28T08:57:33Z</time>
      </trkpt>
      <trkpt lat="45.11851" lon="6.41132">
        <ele>1792</ele>
        <time>2021-02-28T08:57:34Z</time>
      </trkpt>
      <trkpt lat="45.11851" lon="6.41132">
        <ele>1792</ele>
        <time>2021-02-28T08:57:35Z</time>
      </trkpt>
      <trkpt lat="45.11852" lon="6.41132">
        <ele>1792</ele>
        <time>2021-02-28T08:57:36Z</time>
      </trkpt>
      <trkpt lat="45.11852" lon="6.41132">
        <ele>1792</ele>
        <time>2021-02-28T08:57:37Z</time>
      </trkpt>
      <trkpt lat="45.11852" lon="6.41132">
        <ele>1792.2</ele>
        <time>2021-02-28T08:57:38Z</time>
      </trkpt>
      <trkpt lat="45.11852" lon="6.41132">
        <ele>1792.2</ele>
        <time>2021-02-28T08:57:39Z</time>
      </trkpt>
      <trkpt lat="45.11852" lon="6.41132">
        <ele>1792.2</ele>
        <time>2021-02-28T08:57:40Z</time>
      </trkpt>
      <trkpt lat="45.11852" lon="6.41132">
        <ele>1792</ele>
        <time>2021-02-28T08:57:41Z</time>
      </trkpt>
      <trkpt lat="45.11852" lon="6.41132">
        <ele>1792.2</ele>
        <time>2021-02-28T08:57:42Z</time>
      </trkpt>
      <trkpt lat="45.11852" lon="6.41132">
        <ele>1792</ele>
        <time>2021-02-28T08:57:43Z</time>
      </trkpt>
      <trkpt lat="45.11852" lon="6.41132">
        <ele>1792</ele>
        <time>2021-02-28T08:57:44Z</time>
      </trkpt>
      <trkpt lat="45.11852" lon="6.41132">
        <ele>1792</ele>
        <time>2021-02-28T08:57:45Z</time>
      </trkpt>
      <trkpt lat="45.11852" lon="6.41132">
        <ele>1792</ele>
        <time>2021-02-28T08:57:46Z</time>
      </trkpt>
      <trkpt lat="45.11852" lon="6.41132">
        <ele>1792</ele>
        <time>2021-02-28T08:57:47Z</time>
      </trkpt>
      <trkpt lat="45.11852" lon="6.41132">
        <ele>1792</ele>
        <time>2021-02-28T08:57:48Z</time>
      </trkpt>
      <trkpt lat="45.11852" lon="6.41132">
        <ele>1792</ele>
        <time>2021-02-28T08:57:49Z</time>
      </trkpt>
      <trkpt lat="45.11852" lon="6.41132">
        <ele>1792</ele>
        <time>2021-02-28T08:57:50Z</time>
      </trkpt>
      <trkpt lat="45.11852" lon="6.41132">
        <ele>1792.2</ele>
        <time>2021-02-28T08:57:51Z</time>
      </trkpt>
      <trkpt lat="45.11852" lon="6.41132">
        <ele>1792.2</ele>
        <time>2021-02-28T08:57:52Z</time>
      </trkpt>
      <trkpt lat="45.11852" lon="6.41132">
        <ele>1792.2</ele>
        <time>2021-02-28T08:57:53Z</time>
      </trkpt>
      <trkpt lat="45.11852" lon="6.41132">
        <ele>1792.4</ele>
        <time>2021-02-28T08:57:54Z</time>
      </trkpt>
      <trkpt lat="45.11852" lon="6.41132">
        <ele>1792.2</ele>
        <time>2021-02-28T08:57:55Z</time>
      </trkpt>
      <trkpt lat="45.11852" lon="6.41132">
        <ele>1792.6</ele>
        <time>2021-02-28T08:57:56Z</time>
      </trkpt>
      <trkpt lat="45.11852" lon="6.41132">
        <ele>1792.4</ele>
        <time>2021-02-28T08:57:57Z</time>
      </trkpt>
      <trkpt lat="45.11852" lon="6.41132">
        <ele>1792.2</ele>
        <time>2021-02-28T08:57:58Z</time>
      </trkpt>
      <trkpt lat="45.11852" lon="6.41132">
        <ele>1792.2</ele>
        <time>2021-02-28T08:57:59Z</time>
      </trkpt>
      <trkpt lat="45.11852" lon="6.41132">
        <ele>1792.2</ele>
        <time>2021-02-28T08:58:00Z</time>
      </trkpt>
      <trkpt lat="45.11852" lon="6.41132">
        <ele>1792</ele>
        <time>2021-02-28T08:58:01Z</time>
      </trkpt>
      <trkpt lat="45.11852" lon="6.41132">
        <ele>1792</ele>
        <time>2021-02-28T08:58:02Z</time>
      </trkpt>
      <trkpt lat="45.11852" lon="6.41132">
        <ele>1792.2</ele>
        <time>2021-02-28T08:58:03Z</time>
      </trkpt>
      <trkpt lat="45.11852" lon="6.41132">
        <ele>1792.4</ele>
        <time>2021-02-28T08:58:04Z</time>
      </trkpt>
      <trkpt lat="45.11852" lon="6.41132">
        <ele>1792.2</ele>
        <time>2021-02-28T08:58:05Z</time>
      </trkpt>
      <trkpt lat="45.11852" lon="6.41132">
        <ele>1792</ele>
        <time>2021-02-28T08:58:06Z</time>
      </trkpt>
      <trkpt lat="45.11852" lon="6.41132">
        <ele>1791.8</ele>
        <time>2021-02-28T08:58:07Z</time>
      </trkpt>
      <trkpt lat="45.11852" lon="6.41132">
        <ele>1791.8</ele>
        <time>2021-02-28T08:58:08Z</time>
      </trkpt>
      <trkpt lat="45.11852" lon="6.41132">
        <ele>1791.8</ele>
        <time>2021-02-28T08:58:09Z</time>
      </trkpt>
      <trkpt lat="45.11852" lon="6.41132">
        <ele>1791.8</ele>
        <time>2021-02-28T08:58:10Z</time>
      </trkpt>
      <trkpt lat="45.11852" lon="6.41132">
        <ele>1792</ele>
        <time>2021-02-28T08:58:11Z</time>
      </trkpt>
      <trkpt lat="45.11852" lon="6.41132">
        <ele>1792.2</ele>
        <time>2021-02-28T08:58:12Z</time>
      </trkpt>
      <trkpt lat="45.11852" lon="6.41132">
        <ele>1792</ele>
        <time>2021-02-28T08:58:13Z</time>
      </trkpt>
      <trkpt lat="45.11852" lon="6.41132">
        <ele>1792</ele>
        <time>2021-02-28T08:58:14Z</time>
      </trkpt>
      <trkpt lat="45.11853" lon="6.41132">
        <ele>1792</ele>
        <time>2021-02-28T08:58:15Z</time>
      </trkpt>
      <trkpt lat="45.11853" lon="6.41132">
        <ele>1792</ele>
        <time>2021-02-28T08:58:16Z</time>
      </trkpt>
      <trkpt lat="45.11853" lon="6.41132">
        <ele>1792</ele>
        <time>2021-02-28T08:58:17Z</time>
      </trkpt>
      <trkpt lat="45.11853" lon="6.41132">
        <ele>1792</ele>
        <time>2021-02-28T08:58:18Z</time>
      </trkpt>
      <trkpt lat="45.11853" lon="6.41132">
        <ele>1792</ele>
        <time>2021-02-28T08:58:19Z</time>
      </trkpt>
      <trkpt lat="45.11853" lon="6.41132">
        <ele>1792.2</ele>
        <time>2021-02-28T08:58:20Z</time>
      </trkpt>
      <trkpt lat="45.11853" lon="6.41132">
        <ele>1792.2</ele>
        <time>2021-02-28T08:58:21Z</time>
      </trkpt>
      <trkpt lat="45.11853" lon="6.41132">
        <ele>1792.4</ele>
        <time>2021-02-28T08:58:22Z</time>
      </trkpt>
      <trkpt lat="45.11853" lon="6.41132">
        <ele>1792.2</ele>
        <time>2021-02-28T08:58:23Z</time>
      </trkpt>
      <trkpt lat="45.11853" lon="6.41132">
        <ele>1792</ele>
        <time>2021-02-28T08:58:24Z</time>
      </trkpt>
      <trkpt lat="45.11853" lon="6.41132">
        <ele>1791.8</ele>
        <time>2021-02-28T08:58:25Z</time>
      </trkpt>
      <trkpt lat="45.11853" lon="6.41132">
        <ele>1792</ele>
        <time>2021-02-28T08:58:26Z</time>
      </trkpt>
      <trkpt lat="45.11853" lon="6.41132">
        <ele>1792</ele>
        <time>2021-02-28T08:58:27Z</time>
      </trkpt>
      <trkpt lat="45.11853" lon="6.41132">
        <ele>1792</ele>
        <time>2021-02-28T08:58:28Z</time>
      </trkpt>
      <trkpt lat="45.11853" lon="6.41132">
        <ele>1792</ele>
        <time>2021-02-28T08:58:29Z</time>
      </trkpt>
      <trkpt lat="45.11853" lon="6.41132">
        <ele>1792.2</ele>
        <time>2021-02-28T08:58:30Z</time>
      </trkpt>
      <trkpt lat="45.11853" lon="6.41132">
        <ele>1792.4</ele>
        <time>2021-02-28T08:58:31Z</time>
      </trkpt>
      <trkpt lat="45.11853" lon="6.41132">
        <ele>1792.6</ele>
        <time>2021-02-28T08:58:32Z</time>
      </trkpt>
      <trkpt lat="45.11853" lon="6.41132">
        <ele>1792.8</ele>
        <time>2021-02-28T08:58:33Z</time>
      </trkpt>
      <trkpt lat="45.11853" lon="6.41132">
        <ele>1792.6</ele>
        <time>2021-02-28T08:58:34Z</time>
      </trkpt>
      <trkpt lat="45.11853" lon="6.41132">
        <ele>1792.8</ele>
        <time>2021-02-28T08:58:35Z</time>
      </trkpt>
      <trkpt lat="45.11853" lon="6.41132">
        <ele>1792.8</ele>
        <time>2021-02-28T08:58:36Z</time>
      </trkpt>
      <trkpt lat="45.11853" lon="6.41132">
        <ele>1792.6</ele>
        <time>2021-02-28T08:58:37Z</time>
      </trkpt>
      <trkpt lat="45.11853" lon="6.41132">
        <ele>1792.4</ele>
        <time>2021-02-28T08:58:38Z</time>
      </trkpt>
      <trkpt lat="45.11853" lon="6.41132">
        <ele>1792.4</ele>
        <time>2021-02-28T08:58:39Z</time>
      </trkpt>
      <trkpt lat="45.11853" lon="6.41132">
        <ele>1792.4</ele>
        <time>2021-02-28T08:58:40Z</time>
      </trkpt>
      <trkpt lat="45.11853" lon="6.41132">
        <ele>1792.2</ele>
        <time>2021-02-28T08:58:41Z</time>
      </trkpt>
      <trkpt lat="45.11853" lon="6.41132">
        <ele>1792.2</ele>
        <time>2021-02-28T08:58:42Z</time>
      </trkpt>
      <trkpt lat="45.11853" lon="6.41132">
        <ele>1792.4</ele>
        <time>2021-02-28T08:58:43Z</time>
      </trkpt>
      <trkpt lat="45.11853" lon="6.41132">
        <ele>1792.2</ele>
        <time>2021-02-28T08:58:44Z</time>
      </trkpt>
      <trkpt lat="45.11853" lon="6.41132">
        <ele>1792.2</ele>
        <time>2021-02-28T08:58:45Z</time>
      </trkpt>
      <trkpt lat="45.11853" lon="6.41132">
        <ele>1792.2</ele>
        <time>2021-02-28T08:58:46Z</time>
      </trkpt>
      <trkpt lat="45.11853" lon="6.41132">
        <ele>1792.2</ele>
        <time>2021-02-28T08:58:47Z</time>
      </trkpt>
      <trkpt lat="45.11853" lon="6.41132">
        <ele>1792</ele>
        <time>2021-02-28T08:58:48Z</time>
      </trkpt>
      <trkpt lat="45.11853" lon="6.41132">
        <ele>1792.2</ele>
        <time>2021-02-28T08:58:49Z</time>
      </trkpt>
      <trkpt lat="45.11853" lon="6.41132">
        <ele>1792.2</ele>
        <time>2021-02-28T08:58:50Z</time>
      </trkpt>
      <trkpt lat="45.11853" lon="6.41132">
        <ele>1792.4</ele>
        <time>2021-02-28T08:58:51Z</time>
      </trkpt>
      <trkpt lat="45.11853" lon="6.41132">
        <ele>1792</ele>
        <time>2021-02-28T08:58:52Z</time>
      </trkpt>
      <trkpt lat="45.11853" lon="6.41132">
        <ele>1792</ele>
        <time>2021-02-28T08:58:53Z</time>
      </trkpt>
      <trkpt lat="45.11854" lon="6.41132">
        <ele>1791.8</ele>
        <time>2021-02-28T08:58:54Z</time>
      </trkpt>
      <trkpt lat="45.11854" lon="6.41132">
        <ele>1791.8</ele>
        <time>2021-02-28T08:58:55Z</time>
      </trkpt>
      <trkpt lat="45.11854" lon="6.41132">
        <ele>1791.8</ele>
        <time>2021-02-28T08:58:56Z</time>
      </trkpt>
      <trkpt lat="45.11854" lon="6.41132">
        <ele>1791.8</ele>
        <time>2021-02-28T08:58:57Z</time>
      </trkpt>
      <trkpt lat="45.11854" lon="6.41132">
        <ele>1791.8</ele>
        <time>2021-02-28T08:58:58Z</time>
      </trkpt>
      <trkpt lat="45.11854" lon="6.41132">
        <ele>1791.8</ele>
        <time>2021-02-28T08:58:59Z</time>
      </trkpt>
      <trkpt lat="45.11854" lon="6.41132">
        <ele>1791.6</ele>
        <time>2021-02-28T08:59:00Z</time>
      </trkpt>
      <trkpt lat="45.11854" lon="6.41132">
        <ele>1791.8</ele>
        <time>2021-02-28T08:59:01Z</time>
      </trkpt>
      <trkpt lat="45.11854" lon="6.41132">
        <ele>1791.8</ele>
        <time>2021-02-28T08:59:02Z</time>
      </trkpt>
      <trkpt lat="45.11854" lon="6.41132">
        <ele>1791.8</ele>
        <time>2021-02-28T08:59:03Z</time>
      </trkpt>
      <trkpt lat="45.11854" lon="6.41132">
        <ele>1791.8</ele>
        <time>2021-02-28T08:59:04Z</time>
      </trkpt>
      <trkpt lat="45.11854" lon="6.41132">
        <ele>1792</ele>
        <time>2021-02-28T08:59:05Z</time>
      </trkpt>
      <trkpt lat="45.11854" lon="6.41132">
        <ele>1791.8</ele>
        <time>2021-02-28T08:59:06Z</time>
      </trkpt>
      <trkpt lat="45.11854" lon="6.41132">
        <ele>1791.8</ele>
        <time>2021-02-28T08:59:07Z</time>
      </trkpt>
      <trkpt lat="45.11854" lon="6.41132">
        <ele>1791.8</ele>
        <time>2021-02-28T08:59:08Z</time>
      </trkpt>
      <trkpt lat="45.11854" lon="6.41132">
        <ele>1792</ele>
        <time>2021-02-28T08:59:09Z</time>
      </trkpt>
      <trkpt lat="45.11854" lon="6.41132">
        <ele>1792</ele>
        <time>2021-02-28T08:59:10Z</time>
      </trkpt>
      <trkpt lat="45.11854" lon="6.41132">
        <ele>1792.2</ele>
        <time>2021-02-28T08:59:11Z</time>
      </trkpt>
      <trkpt lat="45.11854" lon="6.41132">
        <ele>1792</ele>
        <time>2021-02-28T08:59:12Z</time>
      </trkpt>
      <trkpt lat="45.11854" lon="6.41132">
        <ele>1792</ele>
        <time>2021-02-28T08:59:13Z</time>
      </trkpt>
      <trkpt lat="45.11854" lon="6.41132">
        <ele>1791.8</ele>
        <time>2021-02-28T08:59:14Z</time>
      </trkpt>
      <trkpt lat="45.11854" lon="6.41132">
        <ele>1791.6</ele>
        <time>2021-02-28T08:59:15Z</time>
      </trkpt>
      <trkpt lat="45.11854" lon="6.41132">
        <ele>1791.4</ele>
        <time>2021-02-28T08:59:16Z</time>
      </trkpt>
      <trkpt lat="45.11854" lon="6.41132">
        <ele>1791.4</ele>
        <time>2021-02-28T08:59:17Z</time>
      </trkpt>
      <trkpt lat="45.11854" lon="6.41132">
        <ele>1791.4</ele>
        <time>2021-02-28T08:59:18Z</time>
      </trkpt>
      <trkpt lat="45.11854" lon="6.41132">
        <ele>1791.4</ele>
        <time>2021-02-28T08:59:19Z</time>
      </trkpt>
      <trkpt lat="45.11854" lon="6.41132">
        <ele>1791.4</ele>
        <time>2021-02-28T08:59:20Z</time>
      </trkpt>
      <trkpt lat="45.11854" lon="6.41132">
        <ele>1791.2</ele>
        <time>2021-02-28T08:59:21Z</time>
      </trkpt>
      <trkpt lat="45.11854" lon="6.41132">
        <ele>1791.4</ele>
        <time>2021-02-28T08:59:22Z</time>
      </trkpt>
      <trkpt lat="45.11854" lon="6.41132">
        <ele>1791.6</ele>
        <time>2021-02-28T08:59:23Z</time>
      </trkpt>
      <trkpt lat="45.11854" lon="6.41131">
        <ele>1791.6</ele>
        <time>2021-02-28T08:59:24Z</time>
      </trkpt>
      <trkpt lat="45.11854" lon="6.41131">
        <ele>1791.4</ele>
        <time>2021-02-28T08:59:25Z</time>
      </trkpt>
      <trkpt lat="45.11854" lon="6.41131">
        <ele>1791.2</ele>
        <time>2021-02-28T08:59:26Z</time>
      </trkpt>
      <trkpt lat="45.11854" lon="6.41131">
        <ele>1791</ele>
        <time>2021-02-28T08:59:27Z</time>
      </trkpt>
      <trkpt lat="45.11854" lon="6.41131">
        <ele>1790.8</ele>
        <time>2021-02-28T08:59:28Z</time>
      </trkpt>
      <trkpt lat="45.11854" lon="6.41131">
        <ele>1791</ele>
        <time>2021-02-28T08:59:29Z</time>
      </trkpt>
      <trkpt lat="45.11854" lon="6.41131">
        <ele>1790.8</ele>
        <time>2021-02-28T08:59:30Z</time>
      </trkpt>
      <trkpt lat="45.11854" lon="6.41131">
        <ele>1791</ele>
        <time>2021-02-28T08:59:31Z</time>
      </trkpt>
      <trkpt lat="45.11854" lon="6.41131">
        <ele>1790.8</ele>
        <time>2021-02-28T08:59:32Z</time>
      </trkpt>
      <trkpt lat="45.11854" lon="6.41131">
        <ele>1791</ele>
        <time>2021-02-28T08:59:33Z</time>
      </trkpt>
      <trkpt lat="45.11855" lon="6.41131">
        <ele>1791.2</ele>
        <time>2021-02-28T08:59:34Z</time>
      </trkpt>
      <trkpt lat="45.11855" lon="6.41131">
        <ele>1791.2</ele>
        <time>2021-02-28T08:59:35Z</time>
      </trkpt>
      <trkpt lat="45.11855" lon="6.41131">
        <ele>1791</ele>
        <time>2021-02-28T08:59:36Z</time>
      </trkpt>
      <trkpt lat="45.11855" lon="6.41131">
        <ele>1791</ele>
        <time>2021-02-28T08:59:37Z</time>
      </trkpt>
      <trkpt lat="45.11855" lon="6.41131">
        <ele>1791</ele>
        <time>2021-02-28T08:59:38Z</time>
      </trkpt>
      <trkpt lat="45.11855" lon="6.41131">
        <ele>1791</ele>
        <time>2021-02-28T08:59:39Z</time>
      </trkpt>
      <trkpt lat="45.11855" lon="6.41131">
        <ele>1791</ele>
        <time>2021-02-28T08:59:40Z</time>
      </trkpt>
      <trkpt lat="45.11855" lon="6.41131">
        <ele>1790.6</ele>
        <time>2021-02-28T08:59:41Z</time>
      </trkpt>
      <trkpt lat="45.11855" lon="6.41131">
        <ele>1790.6</ele>
        <time>2021-02-28T08:59:42Z</time>
      </trkpt>
      <trkpt lat="45.11855" lon="6.41131">
        <ele>1790.6</ele>
        <time>2021-02-28T08:59:43Z</time>
      </trkpt>
      <trkpt lat="45.11855" lon="6.41131">
        <ele>1790.6</ele>
        <time>2021-02-28T08:59:44Z</time>
      </trkpt>
      <trkpt lat="45.11855" lon="6.41131">
        <ele>1790.4</ele>
        <time>2021-02-28T08:59:45Z</time>
      </trkpt>
      <trkpt lat="45.11855" lon="6.41131">
        <ele>1790.4</ele>
        <time>2021-02-28T08:59:46Z</time>
      </trkpt>
      <trkpt lat="45.11855" lon="6.41131">
        <ele>1790.6</ele>
        <time>2021-02-28T08:59:47Z</time>
      </trkpt>
      <trkpt lat="45.11855" lon="6.41131">
        <ele>1790.4</ele>
        <time>2021-02-28T08:59:48Z</time>
      </trkpt>
      <trkpt lat="45.11855" lon="6.41131">
        <ele>1790.6</ele>
        <time>2021-02-28T08:59:49Z</time>
      </trkpt>
      <trkpt lat="45.11855" lon="6.41131">
        <ele>1790.6</ele>
        <time>2021-02-28T08:59:50Z</time>
      </trkpt>
      <trkpt lat="45.11855" lon="6.41131">
        <ele>1790.6</ele>
        <time>2021-02-28T08:59:51Z</time>
      </trkpt>
      <trkpt lat="45.11855" lon="6.41131">
        <ele>1790.4</ele>
        <time>2021-02-28T08:59:52Z</time>
      </trkpt>
      <trkpt lat="45.11855" lon="6.41131">
        <ele>1790.6</ele>
        <time>2021-02-28T08:59:53Z</time>
      </trkpt>
      <trkpt lat="45.11855" lon="6.41131">
        <ele>1790.6</ele>
        <time>2021-02-28T08:59:54Z</time>
      </trkpt>
      <trkpt lat="45.11855" lon="6.41131">
        <ele>1790.4</ele>
        <time>2021-02-28T08:59:55Z</time>
      </trkpt>
      <trkpt lat="45.11855" lon="6.41131">
        <ele>1790.6</ele>
        <time>2021-02-28T08:59:56Z</time>
      </trkpt>
      <trkpt lat="45.11855" lon="6.41131">
        <ele>1790.6</ele>
        <time>2021-02-28T08:59:57Z</time>
      </trkpt>
      <trkpt lat="45.11855" lon="6.41131">
        <ele>1790.8</ele>
        <time>2021-02-28T08:59:58Z</time>
      </trkpt>
      <trkpt lat="45.11855" lon="6.41131">
        <ele>1790.8</ele>
        <time>2021-02-28T08:59:59Z</time>
      </trkpt>
      <trkpt lat="45.11855" lon="6.41131">
        <ele>1790.6</ele>
        <time>2021-02-28T09:00:00Z</time>
      </trkpt>
      <trkpt lat="45.11855" lon="6.41131">
        <ele>1790.6</ele>
        <time>2021-02-28T09:00:01Z</time>
      </trkpt>
      <trkpt lat="45.11855" lon="6.41131">
        <ele>1790.6</ele>
        <time>2021-02-28T09:00:02Z</time>
      </trkpt>
      <trkpt lat="45.11855" lon="6.41131">
        <ele>1790.4</ele>
        <time>2021-02-28T09:00:03Z</time>
      </trkpt>
      <trkpt lat="45.11855" lon="6.41131">
        <ele>1790.2</ele>
        <time>2021-02-28T09:00:04Z</time>
      </trkpt>
      <trkpt lat="45.11855" lon="6.41131">
        <ele>1790.2</ele>
        <time>2021-02-28T09:00:05Z</time>
      </trkpt>
      <trkpt lat="45.11855" lon="6.41131">
        <ele>1790</ele>
        <time>2021-02-28T09:00:06Z</time>
      </trkpt>
      <trkpt lat="45.11855" lon="6.41131">
        <ele>1790</ele>
        <time>2021-02-28T09:00:07Z</time>
      </trkpt>
      <trkpt lat="45.11855" lon="6.41131">
        <ele>1790</ele>
        <time>2021-02-28T09:00:08Z</time>
      </trkpt>
      <trkpt lat="45.11855" lon="6.41131">
        <ele>1790</ele>
        <time>2021-02-28T09:00:09Z</time>
      </trkpt>
      <trkpt lat="45.11855" lon="6.41131">
        <ele>1790</ele>
        <time>2021-02-28T09:00:10Z</time>
      </trkpt>
      <trkpt lat="45.11855" lon="6.41131">
        <ele>1789.8</ele>
        <time>2021-02-28T09:00:11Z</time>
      </trkpt>
      <trkpt lat="45.11855" lon="6.41131">
        <ele>1789.8</ele>
        <time>2021-02-28T09:00:12Z</time>
      </trkpt>
      <trkpt lat="45.11856" lon="6.41131">
        <ele>1790</ele>
        <time>2021-02-28T09:00:13Z</time>
      </trkpt>
      <trkpt lat="45.11856" lon="6.41131">
        <ele>1790.2</ele>
        <time>2021-02-28T09:00:14Z</time>
      </trkpt>
      <trkpt lat="45.11856" lon="6.41131">
        <ele>1790.2</ele>
        <time>2021-02-28T09:00:15Z</time>
      </trkpt>
      <trkpt lat="45.11856" lon="6.41131">
        <ele>1790.6</ele>
        <time>2021-02-28T09:00:16Z</time>
      </trkpt>
      <trkpt lat="45.11856" lon="6.41131">
        <ele>1790.6</ele>
        <time>2021-02-28T09:00:17Z</time>
      </trkpt>
      <trkpt lat="45.11856" lon="6.41131">
        <ele>1790.6</ele>
        <time>2021-02-28T09:00:18Z</time>
      </trkpt>
      <trkpt lat="45.11856" lon="6.41131">
        <ele>1790.6</ele>
        <time>2021-02-28T09:00:19Z</time>
      </trkpt>
      <trkpt lat="45.11856" lon="6.41131">
        <ele>1790.8</ele>
        <time>2021-02-28T09:00:20Z</time>
      </trkpt>
      <trkpt lat="45.11856" lon="6.41131">
        <ele>1791.2</ele>
        <time>2021-02-28T09:00:21Z</time>
      </trkpt>
      <trkpt lat="45.11856" lon="6.41131">
        <ele>1791.2</ele>
        <time>2021-02-28T09:00:22Z</time>
      </trkpt>
      <trkpt lat="45.11856" lon="6.41131">
        <ele>1791</ele>
        <time>2021-02-28T09:00:23Z</time>
      </trkpt>
      <trkpt lat="45.11856" lon="6.41131">
        <ele>1791</ele>
        <time>2021-02-28T09:00:24Z</time>
      </trkpt>
      <trkpt lat="45.11856" lon="6.41131">
        <ele>1791.2</ele>
        <time>2021-02-28T09:00:25Z</time>
      </trkpt>
      <trkpt lat="45.11856" lon="6.41131">
        <ele>1791</ele>
        <time>2021-02-28T09:00:26Z</time>
      </trkpt>
      <trkpt lat="45.11856" lon="6.41131">
        <ele>1790.6</ele>
        <time>2021-02-28T09:00:27Z</time>
      </trkpt>
      <trkpt lat="45.11856" lon="6.41131">
        <ele>1790.6</ele>
        <time>2021-02-28T09:00:28Z</time>
      </trkpt>
      <trkpt lat="45.11856" lon="6.41131">
        <ele>1790.2</ele>
        <time>2021-02-28T09:00:29Z</time>
      </trkpt>
      <trkpt lat="45.11856" lon="6.41131">
        <ele>1790.4</ele>
        <time>2021-02-28T09:00:30Z</time>
      </trkpt>
      <trkpt lat="45.11856" lon="6.41131">
        <ele>1790.2</ele>
        <time>2021-02-28T09:00:31Z</time>
      </trkpt>
      <trkpt lat="45.11856" lon="6.41131">
        <ele>1790.2</ele>
        <time>2021-02-28T09:00:32Z</time>
      </trkpt>
      <trkpt lat="45.11856" lon="6.41131">
        <ele>1790.2</ele>
        <time>2021-02-28T09:00:33Z</time>
      </trkpt>
      <trkpt lat="45.11856" lon="6.41131">
        <ele>1790.2</ele>
        <time>2021-02-28T09:00:34Z</time>
      </trkpt>
      <trkpt lat="45.11856" lon="6.41131">
        <ele>1790.4</ele>
        <time>2021-02-28T09:00:35Z</time>
      </trkpt>
      <trkpt lat="45.11856" lon="6.41131">
        <ele>1790.2</ele>
        <time>2021-02-28T09:00:36Z</time>
      </trkpt>
      <trkpt lat="45.11856" lon="6.41131">
        <ele>1790.2</ele>
        <time>2021-02-28T09:00:37Z</time>
      </trkpt>
      <trkpt lat="45.11856" lon="6.41131">
        <ele>1790</ele>
        <time>2021-02-28T09:00:38Z</time>
      </trkpt>
      <trkpt lat="45.11856" lon="6.41131">
        <ele>1789.8</ele>
        <time>2021-02-28T09:00:39Z</time>
      </trkpt>
      <trkpt lat="45.11856" lon="6.41131">
        <ele>1790</ele>
        <time>2021-02-28T09:00:40Z</time>
      </trkpt>
      <trkpt lat="45.11856" lon="6.41131">
        <ele>1790.2</ele>
        <time>2021-02-28T09:00:41Z</time>
      </trkpt>
      <trkpt lat="45.11856" lon="6.41131">
        <ele>1790</ele>
        <time>2021-02-28T09:00:42Z</time>
      </trkpt>
      <trkpt lat="45.11856" lon="6.41131">
        <ele>1789.8</ele>
        <time>2021-02-28T09:00:43Z</time>
      </trkpt>
      <trkpt lat="45.11856" lon="6.41131">
        <ele>1790</ele>
        <time>2021-02-28T09:00:44Z</time>
      </trkpt>
      <trkpt lat="45.11856" lon="6.41131">
        <ele>1790.2</ele>
        <time>2021-02-28T09:00:45Z</time>
      </trkpt>
      <trkpt lat="45.11856" lon="6.41131">
        <ele>1790.4</ele>
        <time>2021-02-28T09:00:46Z</time>
      </trkpt>
      <trkpt lat="45.11856" lon="6.41131">
        <ele>1790.4</ele>
        <time>2021-02-28T09:00:47Z</time>
      </trkpt>
      <trkpt lat="45.11856" lon="6.41131">
        <ele>1790</ele>
        <time>2021-02-28T09:00:48Z</time>
      </trkpt>
      <trkpt lat="45.11856" lon="6.41131">
        <ele>1791.2</ele>
        <time>2021-02-28T09:00:49Z</time>
      </trkpt>
      <trkpt lat="45.11856" lon="6.41131">
        <ele>1791</ele>
        <time>2021-02-28T09:00:50Z</time>
      </trkpt>
      <trkpt lat="45.11856" lon="6.41131">
        <ele>1791.2</ele>
        <time>2021-02-28T09:00:51Z</time>
      </trkpt>
      <trkpt lat="45.11857" lon="6.41131">
        <ele>1790.4</ele>
        <time>2021-02-28T09:00:52Z</time>
      </trkpt>
      <trkpt lat="45.11857" lon="6.41131">
        <ele>1791.4</ele>
        <time>2021-02-28T09:00:53Z</time>
      </trkpt>
      <trkpt lat="45.11857" lon="6.41131">
        <ele>1791.2</ele>
        <time>2021-02-28T09:00:54Z</time>
      </trkpt>
      <trkpt lat="45.11857" lon="6.41131">
        <ele>1791.4</ele>
        <time>2021-02-28T09:00:55Z</time>
      </trkpt>
      <trkpt lat="45.11857" lon="6.41131">
        <ele>1791.2</ele>
        <time>2021-02-28T09:00:56Z</time>
      </trkpt>
      <trkpt lat="45.11857" lon="6.41131">
        <ele>1791</ele>
        <time>2021-02-28T09:00:57Z</time>
      </trkpt>
      <trkpt lat="45.11857" lon="6.41131">
        <ele>1791</ele>
        <time>2021-02-28T09:00:58Z</time>
      </trkpt>
      <trkpt lat="45.11857" lon="6.41131">
        <ele>1791.2</ele>
        <time>2021-02-28T09:00:59Z</time>
      </trkpt>
      <trkpt lat="45.11857" lon="6.41131">
        <ele>1791.2</ele>
        <time>2021-02-28T09:01:00Z</time>
      </trkpt>
      <trkpt lat="45.11857" lon="6.41131">
        <ele>1791.2</ele>
        <time>2021-02-28T09:01:01Z</time>
      </trkpt>
      <trkpt lat="45.11857" lon="6.41131">
        <ele>1791</ele>
        <time>2021-02-28T09:01:02Z</time>
      </trkpt>
      <trkpt lat="45.11857" lon="6.41131">
        <ele>1790.6</ele>
        <time>2021-02-28T09:01:03Z</time>
      </trkpt>
      <trkpt lat="45.11857" lon="6.41131">
        <ele>1790.4</ele>
        <time>2021-02-28T09:01:04Z</time>
      </trkpt>
      <trkpt lat="45.11857" lon="6.41131">
        <ele>1790.4</ele>
        <time>2021-02-28T09:01:05Z</time>
      </trkpt>
      <trkpt lat="45.11857" lon="6.41131">
        <ele>1790.4</ele>
        <time>2021-02-28T09:01:06Z</time>
      </trkpt>
      <trkpt lat="45.11857" lon="6.41131">
        <ele>1790.2</ele>
        <time>2021-02-28T09:01:07Z</time>
      </trkpt>
      <trkpt lat="45.11857" lon="6.41131">
        <ele>1790.4</ele>
        <time>2021-02-28T09:01:08Z</time>
      </trkpt>
      <trkpt lat="45.11857" lon="6.41131">
        <ele>1790.6</ele>
        <time>2021-02-28T09:01:09Z</time>
      </trkpt>
      <trkpt lat="45.11857" lon="6.41131">
        <ele>1790.4</ele>
        <time>2021-02-28T09:01:10Z</time>
      </trkpt>
      <trkpt lat="45.11857" lon="6.41131">
        <ele>1790.2</ele>
        <time>2021-02-28T09:01:11Z</time>
      </trkpt>
      <trkpt lat="45.11857" lon="6.41131">
        <ele>1790.6</ele>
        <time>2021-02-28T09:01:12Z</time>
      </trkpt>
      <trkpt lat="45.11857" lon="6.41131">
        <ele>1788.8</ele>
        <time>2021-02-28T09:01:13Z</time>
      </trkpt>
      <trkpt lat="45.11857" lon="6.41131">
        <ele>1789.2</ele>
        <time>2021-02-28T09:01:14Z</time>
      </trkpt>
      <trkpt lat="45.11857" lon="6.41131">
        <ele>1789.8</ele>
        <time>2021-02-28T09:01:15Z</time>
      </trkpt>
      <trkpt lat="45.11857" lon="6.41131">
        <ele>1790.4</ele>
        <time>2021-02-28T09:01:16Z</time>
      </trkpt>
      <trkpt lat="45.11857" lon="6.4113">
        <ele>1790</ele>
        <time>2021-02-28T09:01:17Z</time>
      </trkpt>
      <trkpt lat="45.11857" lon="6.4113">
        <ele>1790.2</ele>
        <time>2021-02-28T09:01:18Z</time>
      </trkpt>
      <trkpt lat="45.11857" lon="6.4113">
        <ele>1790</ele>
        <time>2021-02-28T09:01:19Z</time>
      </trkpt>
      <trkpt lat="45.11857" lon="6.4113">
        <ele>1790</ele>
        <time>2021-02-28T09:01:20Z</time>
      </trkpt>
      <trkpt lat="45.11857" lon="6.4113">
        <ele>1789.8</ele>
        <time>2021-02-28T09:01:21Z</time>
      </trkpt>
      <trkpt lat="45.11857" lon="6.4113">
        <ele>1789.6</ele>
        <time>2021-02-28T09:01:22Z</time>
      </trkpt>
      <trkpt lat="45.11857" lon="6.4113">
        <ele>1789.4</ele>
        <time>2021-02-28T09:01:23Z</time>
      </trkpt>
      <trkpt lat="45.11857" lon="6.4113">
        <ele>1789.6</ele>
        <time>2021-02-28T09:01:24Z</time>
      </trkpt>
      <trkpt lat="45.11857" lon="6.4113">
        <ele>1789.8</ele>
        <time>2021-02-28T09:01:25Z</time>
      </trkpt>
      <trkpt lat="45.11857" lon="6.4113">
        <ele>1790.2</ele>
        <time>2021-02-28T09:01:26Z</time>
      </trkpt>
      <trkpt lat="45.11857" lon="6.4113">
        <ele>1790.6</ele>
        <time>2021-02-28T09:01:27Z</time>
      </trkpt>
      <trkpt lat="45.11857" lon="6.4113">
        <ele>1790.2</ele>
        <time>2021-02-28T09:01:28Z</time>
      </trkpt>
      <trkpt lat="45.11857" lon="6.4113">
        <ele>1790.2</ele>
        <time>2021-02-28T09:01:29Z</time>
      </trkpt>
      <trkpt lat="45.11857" lon="6.4113">
        <ele>1790.4</ele>
        <time>2021-02-28T09:01:30Z</time>
      </trkpt>
      <trkpt lat="45.11857" lon="6.4113">
        <ele>1790.4</ele>
        <time>2021-02-28T09:01:31Z</time>
      </trkpt>
      <trkpt lat="45.11858" lon="6.4113">
        <ele>1790.6</ele>
        <time>2021-02-28T09:01:32Z</time>
      </trkpt>
      <trkpt lat="45.11858" lon="6.4113">
        <ele>1790.6</ele>
        <time>2021-02-28T09:01:33Z</time>
      </trkpt>
      <trkpt lat="45.11859" lon="6.41131">
        <ele>1790.8</ele>
        <time>2021-02-28T09:01:34Z</time>
      </trkpt>
      <trkpt lat="45.11861" lon="6.41131">
        <ele>1790.6</ele>
        <time>2021-02-28T09:01:35Z</time>
      </trkpt>
      <trkpt lat="45.11862" lon="6.41131">
        <ele>1790.6</ele>
        <time>2021-02-28T09:01:36Z</time>
      </trkpt>
      <trkpt lat="45.11864" lon="6.41131">
        <ele>1791</ele>
        <time>2021-02-28T09:01:37Z</time>
      </trkpt>
      <trkpt lat="45.11865" lon="6.41131">
        <ele>1790.6</ele>
        <time>2021-02-28T09:01:38Z</time>
      </trkpt>
      <trkpt lat="45.11867" lon="6.41132">
        <ele>1790.6</ele>
        <time>2021-02-28T09:01:39Z</time>
      </trkpt>
      <trkpt lat="45.11868" lon="6.41132">
        <ele>1790.6</ele>
        <time>2021-02-28T09:01:40Z</time>
      </trkpt>
      <trkpt lat="45.1187" lon="6.41132">
        <ele>1790.8</ele>
        <time>2021-02-28T09:01:41Z</time>
      </trkpt>
      <trkpt lat="45.11872" lon="6.41133">
        <ele>1790.8</ele>
        <time>2021-02-28T09:01:42Z</time>
      </trkpt>
      <trkpt lat="45.11872" lon="6.41133">
        <ele>1791</ele>
        <time>2021-02-28T09:01:43Z</time>
      </trkpt>
      <trkpt lat="45.11872" lon="6.41133">
        <ele>1791.4</ele>
        <time>2021-02-28T09:01:44Z</time>
      </trkpt>
      <trkpt lat="45.11872" lon="6.41133">
        <ele>1791.6</ele>
        <time>2021-02-28T09:01:45Z</time>
      </trkpt>
      <trkpt lat="45.11872" lon="6.41133">
        <ele>1791</ele>
        <time>2021-02-28T09:01:46Z</time>
      </trkpt>
      <trkpt lat="45.11872" lon="6.41133">
        <ele>1791</ele>
        <time>2021-02-28T09:01:47Z</time>
      </trkpt>
      <trkpt lat="45.11872" lon="6.41133">
        <ele>1791</ele>
        <time>2021-02-28T09:01:48Z</time>
      </trkpt>
      <trkpt lat="45.11872" lon="6.41133">
        <ele>1791</ele>
        <time>2021-02-28T09:01:49Z</time>
      </trkpt>
      <trkpt lat="45.11872" lon="6.41133">
        <ele>1791</ele>
        <time>2021-02-28T09:01:50Z</time>
      </trkpt>
      <trkpt lat="45.11872" lon="6.41133">
        <ele>1791.2</ele>
        <time>2021-02-28T09:01:51Z</time>
      </trkpt>
      <trkpt lat="45.11872" lon="6.41133">
        <ele>1791.2</ele>
        <time>2021-02-28T09:01:52Z</time>
      </trkpt>
      <trkpt lat="45.11872" lon="6.41133">
        <ele>1791.4</ele>
        <time>2021-02-28T09:01:53Z</time>
      </trkpt>
      <trkpt lat="45.11872" lon="6.41133">
        <ele>1791.6</ele>
        <time>2021-02-28T09:01:54Z</time>
      </trkpt>
      <trkpt lat="45.11872" lon="6.41133">
        <ele>1791.6</ele>
        <time>2021-02-28T09:01:55Z</time>
      </trkpt>
      <trkpt lat="45.11872" lon="6.41133">
        <ele>1791.8</ele>
        <time>2021-02-28T09:01:56Z</time>
      </trkpt>
      <trkpt lat="45.11872" lon="6.41133">
        <ele>1792</ele>
        <time>2021-02-28T09:01:57Z</time>
      </trkpt>
      <trkpt lat="45.11872" lon="6.41133">
        <ele>1791.8</ele>
        <time>2021-02-28T09:01:58Z</time>
      </trkpt>
      <trkpt lat="45.11872" lon="6.41133">
        <ele>1792</ele>
        <time>2021-02-28T09:01:59Z</time>
      </trkpt>
      <trkpt lat="45.11872" lon="6.41133">
        <ele>1791.8</ele>
        <time>2021-02-28T09:02:00Z</time>
      </trkpt>
      <trkpt lat="45.11872" lon="6.41133">
        <ele>1792</ele>
        <time>2021-02-28T09:02:01Z</time>
      </trkpt>
      <trkpt lat="45.11872" lon="6.41133">
        <ele>1791.6</ele>
        <time>2021-02-28T09:02:02Z</time>
      </trkpt>
      <trkpt lat="45.11872" lon="6.41133">
        <ele>1791.8</ele>
        <time>2021-02-28T09:02:03Z</time>
      </trkpt>
      <trkpt lat="45.11872" lon="6.41133">
        <ele>1791.6</ele>
        <time>2021-02-28T09:02:04Z</time>
      </trkpt>
      <trkpt lat="45.11872" lon="6.41133">
        <ele>1791.8</ele>
        <time>2021-02-28T09:02:05Z</time>
      </trkpt>
      <trkpt lat="45.11872" lon="6.41133">
        <ele>1792</ele>
        <time>2021-02-28T09:02:06Z</time>
      </trkpt>
      <trkpt lat="45.11872" lon="6.41133">
        <ele>1792</ele>
        <time>2021-02-28T09:02:07Z</time>
      </trkpt>
      <trkpt lat="45.11872" lon="6.41133">
        <ele>1791.8</ele>
        <time>2021-02-28T09:02:08Z</time>
      </trkpt>
      <trkpt lat="45.11872" lon="6.41133">
        <ele>1791.8</ele>
        <time>2021-02-28T09:02:09Z</time>
      </trkpt>
      <trkpt lat="45.11872" lon="6.41133">
        <ele>1792</ele>
        <time>2021-02-28T09:02:10Z</time>
      </trkpt>
      <trkpt lat="45.11872" lon="6.41133">
        <ele>1792.2</ele>
        <time>2021-02-28T09:02:11Z</time>
      </trkpt>
      <trkpt lat="45.11872" lon="6.41133">
        <ele>1792</ele>
        <time>2021-02-28T09:02:12Z</time>
      </trkpt>
      <trkpt lat="45.11872" lon="6.41133">
        <ele>1792.2</ele>
        <time>2021-02-28T09:02:13Z</time>
      </trkpt>
      <trkpt lat="45.11872" lon="6.41133">
        <ele>1792.2</ele>
        <time>2021-02-28T09:02:14Z</time>
      </trkpt>
      <trkpt lat="45.11872" lon="6.41133">
        <ele>1792.2</ele>
        <time>2021-02-28T09:02:15Z</time>
      </trkpt>
      <trkpt lat="45.11872" lon="6.41133">
        <ele>1791.8</ele>
        <time>2021-02-28T09:02:16Z</time>
      </trkpt>
      <trkpt lat="45.11872" lon="6.41133">
        <ele>1792.2</ele>
        <time>2021-02-28T09:02:17Z</time>
      </trkpt>
      <trkpt lat="45.11872" lon="6.41133">
        <ele>1792.4</ele>
        <time>2021-02-28T09:02:18Z</time>
      </trkpt>
      <trkpt lat="45.11872" lon="6.41133">
        <ele>1792.2</ele>
        <time>2021-02-28T09:02:19Z</time>
      </trkpt>
      <trkpt lat="45.11872" lon="6.41133">
        <ele>1792.4</ele>
        <time>2021-02-28T09:02:20Z</time>
      </trkpt>
      <trkpt lat="45.11872" lon="6.41133">
        <ele>1792.4</ele>
        <time>2021-02-28T09:02:21Z</time>
      </trkpt>
      <trkpt lat="45.11872" lon="6.41133">
        <ele>1792.8</ele>
        <time>2021-02-28T09:02:22Z</time>
      </trkpt>
      <trkpt lat="45.11872" lon="6.41133">
        <ele>1793</ele>
        <time>2021-02-28T09:02:23Z</time>
      </trkpt>
      <trkpt lat="45.11872" lon="6.41133">
        <ele>1793</ele>
        <time>2021-02-28T09:02:24Z</time>
      </trkpt>
      <trkpt lat="45.11872" lon="6.41133">
        <ele>1793</ele>
        <time>2021-02-28T09:02:25Z</time>
      </trkpt>
      <trkpt lat="45.11872" lon="6.41133">
        <ele>1792.8</ele>
        <time>2021-02-28T09:02:26Z</time>
      </trkpt>
      <trkpt lat="45.11872" lon="6.41133">
        <ele>1792.8</ele>
        <time>2021-02-28T09:02:27Z</time>
      </trkpt>
      <trkpt lat="45.11872" lon="6.41133">
        <ele>1793</ele>
        <time>2021-02-28T09:02:28Z</time>
      </trkpt>
      <trkpt lat="45.11872" lon="6.41133">
        <ele>1793</ele>
        <time>2021-02-28T09:02:29Z</time>
      </trkpt>
      <trkpt lat="45.11872" lon="6.41133">
        <ele>1793</ele>
        <time>2021-02-28T09:02:30Z</time>
      </trkpt>
      <trkpt lat="45.11872" lon="6.41133">
        <ele>1793</ele>
        <time>2021-02-28T09:02:31Z</time>
      </trkpt>
      <trkpt lat="45.11872" lon="6.41133">
        <ele>1793.2</ele>
        <time>2021-02-28T09:02:32Z</time>
      </trkpt>
      <trkpt lat="45.11872" lon="6.41133">
        <ele>1793.2</ele>
        <time>2021-02-28T09:02:33Z</time>
      </trkpt>
      <trkpt lat="45.11872" lon="6.41133">
        <ele>1793.4</ele>
        <time>2021-02-28T09:02:34Z</time>
      </trkpt>
      <trkpt lat="45.11872" lon="6.41133">
        <ele>1793.6</ele>
        <time>2021-02-28T09:02:35Z</time>
      </trkpt>
      <trkpt lat="45.11872" lon="6.41133">
        <ele>1793.4</ele>
        <time>2021-02-28T09:02:36Z</time>
      </trkpt>
      <trkpt lat="45.11872" lon="6.41133">
        <ele>1793.4</ele>
        <time>2021-02-28T09:02:37Z</time>
      </trkpt>
      <trkpt lat="45.11872" lon="6.41133">
        <ele>1794.2</ele>
        <time>2021-02-28T09:02:38Z</time>
      </trkpt>
      <trkpt lat="45.11872" lon="6.41133">
        <ele>1793.6</ele>
        <time>2021-02-28T09:02:39Z</time>
      </trkpt>
      <trkpt lat="45.11872" lon="6.41133">
        <ele>1794</ele>
        <time>2021-02-28T09:02:40Z</time>
      </trkpt>
      <trkpt lat="45.11872" lon="6.41133">
        <ele>1794.6</ele>
        <time>2021-02-28T09:02:41Z</time>
      </trkpt>
      <trkpt lat="45.11872" lon="6.41133">
        <ele>1795</ele>
        <time>2021-02-28T09:02:42Z</time>
      </trkpt>
      <trkpt lat="45.11872" lon="6.41133">
        <ele>1795.2</ele>
        <time>2021-02-28T09:02:43Z</time>
      </trkpt>
      <trkpt lat="45.11872" lon="6.41133">
        <ele>1795.4</ele>
        <time>2021-02-28T09:02:44Z</time>
      </trkpt>
      <trkpt lat="45.11872" lon="6.41133">
        <ele>1795.6</ele>
        <time>2021-02-28T09:02:45Z</time>
      </trkpt>
      <trkpt lat="45.11872" lon="6.41133">
        <ele>1795.8</ele>
        <time>2021-02-28T09:02:46Z</time>
      </trkpt>
      <trkpt lat="45.11872" lon="6.41133">
        <ele>1795.8</ele>
        <time>2021-02-28T09:02:47Z</time>
      </trkpt>
      <trkpt lat="45.11872" lon="6.41133">
        <ele>1795.4</ele>
        <time>2021-02-28T09:02:48Z</time>
      </trkpt>
      <trkpt lat="45.11872" lon="6.41133">
        <ele>1795.4</ele>
        <time>2021-02-28T09:02:49Z</time>
      </trkpt>
      <trkpt lat="45.11872" lon="6.41133">
        <ele>1795.4</ele>
        <time>2021-02-28T09:02:50Z</time>
      </trkpt>
      <trkpt lat="45.11872" lon="6.41133">
        <ele>1795.2</ele>
        <time>2021-02-28T09:02:51Z</time>
      </trkpt>
      <trkpt lat="45.11872" lon="6.41133">
        <ele>1795.4</ele>
        <time>2021-02-28T09:02:52Z</time>
      </trkpt>
      <trkpt lat="45.11872" lon="6.41133">
        <ele>1795</ele>
        <time>2021-02-28T09:02:53Z</time>
      </trkpt>
      <trkpt lat="45.11872" lon="6.41133">
        <ele>1795</ele>
        <time>2021-02-28T09:02:54Z</time>
      </trkpt>
      <trkpt lat="45.11873" lon="6.41135">
        <ele>1794.6</ele>
        <time>2021-02-28T09:02:55Z</time>
      </trkpt>
      <trkpt lat="45.11873" lon="6.41135">
        <ele>1794.4</ele>
        <time>2021-02-28T09:02:56Z</time>
      </trkpt>
      <trkpt lat="45.11874" lon="6.4114">
        <ele>1794</ele>
        <time>2021-02-28T09:02:57Z</time>
      </trkpt>
      <trkpt lat="45.11876" lon="6.41144">
        <ele>1793.4</ele>
        <time>2021-02-28T09:02:58Z</time>
      </trkpt>
      <trkpt lat="45.11878" lon="6.41149">
        <ele>1793.2</ele>
        <time>2021-02-28T09:02:59Z</time>
      </trkpt>
      <trkpt lat="45.11883" lon="6.41154">
        <ele>1792.6</ele>
        <time>2021-02-28T09:03:00Z</time>
      </trkpt>
      <trkpt lat="45.11888" lon="6.41157">
        <ele>1791.2</ele>
        <time>2021-02-28T09:03:01Z</time>
      </trkpt>
      <trkpt lat="45.11893" lon="6.41159">
        <ele>1790.2</ele>
        <time>2021-02-28T09:03:02Z</time>
      </trkpt>
      <trkpt lat="45.11898" lon="6.41161">
        <ele>1789</ele>
        <time>2021-02-28T09:03:03Z</time>
      </trkpt>
      <trkpt lat="45.11903" lon="6.41164">
        <ele>1788</ele>
        <time>2021-02-28T09:03:04Z</time>
      </trkpt>
      <trkpt lat="45.11906" lon="6.41167">
        <ele>1786.6</ele>
        <time>2021-02-28T09:03:05Z</time>
      </trkpt>
      <trkpt lat="45.11904" lon="6.41169">
        <ele>1785</ele>
        <time>2021-02-28T09:03:06Z</time>
      </trkpt>
      <trkpt lat="45.11899" lon="6.41172">
        <ele>1784</ele>
        <time>2021-02-28T09:03:07Z</time>
      </trkpt>
      <trkpt lat="45.11895" lon="6.41177">
        <ele>1783.2</ele>
        <time>2021-02-28T09:03:08Z</time>
      </trkpt>
      <trkpt lat="45.11895" lon="6.41177">
        <ele>1781.4</ele>
        <time>2021-02-28T09:03:09Z</time>
      </trkpt>
      <trkpt lat="45.11887" lon="6.41192">
        <ele>1779.2</ele>
        <time>2021-02-28T09:03:10Z</time>
      </trkpt>
      <trkpt lat="45.11885" lon="6.41194">
        <ele>1777.2</ele>
        <time>2021-02-28T09:03:11Z</time>
      </trkpt>
      <trkpt lat="45.11883" lon="6.41196">
        <ele>1775</ele>
        <time>2021-02-28T09:03:12Z</time>
      </trkpt>
      <trkpt lat="45.11876" lon="6.41203">
        <ele>1774</ele>
        <time>2021-02-28T09:03:13Z</time>
      </trkpt>
      <trkpt lat="45.11874" lon="6.41207">
        <ele>1772</ele>
        <time>2021-02-28T09:03:14Z</time>
      </trkpt>
      <trkpt lat="45.1187" lon="6.41213">
        <ele>1770.6</ele>
        <time>2021-02-28T09:03:15Z</time>
      </trkpt>
      <trkpt lat="45.1187" lon="6.41213">
        <ele>1769.2</ele>
        <time>2021-02-28T09:03:16Z</time>
      </trkpt>
      <trkpt lat="45.1187" lon="6.41213">
        <ele>1767.6</ele>
        <time>2021-02-28T09:03:17Z</time>
      </trkpt>
      <trkpt lat="45.11868" lon="6.41215">
        <ele>1765.8</ele>
        <time>2021-02-28T09:03:18Z</time>
      </trkpt>
      <trkpt lat="45.11866" lon="6.41217">
        <ele>1764</ele>
        <time>2021-02-28T09:03:19Z</time>
      </trkpt>
      <trkpt lat="45.11864" lon="6.41219">
        <ele>1762.6</ele>
        <time>2021-02-28T09:03:20Z</time>
      </trkpt>
      <trkpt lat="45.11862" lon="6.41221">
        <ele>1760.8</ele>
        <time>2021-02-28T09:03:21Z</time>
      </trkpt>
      <trkpt lat="45.11852" lon="6.41225">
        <ele>1759.8</ele>
        <time>2021-02-28T09:03:22Z</time>
      </trkpt>
      <trkpt lat="45.11852" lon="6.41225">
        <ele>1758.6</ele>
        <time>2021-02-28T09:03:23Z</time>
      </trkpt>
      <trkpt lat="45.11852" lon="6.41225">
        <ele>1757.6</ele>
        <time>2021-02-28T09:03:24Z</time>
      </trkpt>
      <trkpt lat="45.11857" lon="6.41238">
        <ele>1756.2</ele>
        <time>2021-02-28T09:03:25Z</time>
      </trkpt>
      <trkpt lat="45.11857" lon="6.41238">
        <ele>1754.6</ele>
        <time>2021-02-28T09:03:26Z</time>
      </trkpt>
      <trkpt lat="45.11857" lon="6.41238">
        <ele>1753.2</ele>
        <time>2021-02-28T09:03:27Z</time>
      </trkpt>
      <trkpt lat="45.11875" lon="6.41246">
        <ele>1752.2</ele>
        <time>2021-02-28T09:03:28Z</time>
      </trkpt>
      <trkpt lat="45.11877" lon="6.41246">
        <ele>1751.4</ele>
        <time>2021-02-28T09:03:29Z</time>
      </trkpt>
      <trkpt lat="45.11879" lon="6.41247">
        <ele>1750.4</ele>
        <time>2021-02-28T09:03:30Z</time>
      </trkpt>
      <trkpt lat="45.11888" lon="6.41251">
        <ele>1749</ele>
        <time>2021-02-28T09:03:31Z</time>
      </trkpt>
      <trkpt lat="45.11891" lon="6.41253">
        <ele>1747.2</ele>
        <time>2021-02-28T09:03:32Z</time>
      </trkpt>
      <trkpt lat="45.119" lon="6.41257">
        <ele>1746</ele>
        <time>2021-02-28T09:03:33Z</time>
      </trkpt>
      <trkpt lat="45.11904" lon="6.41259">
        <ele>1744.8</ele>
        <time>2021-02-28T09:03:34Z</time>
      </trkpt>
      <trkpt lat="45.11914" lon="6.41265">
        <ele>1743.6</ele>
        <time>2021-02-28T09:03:35Z</time>
      </trkpt>
      <trkpt lat="45.11916" lon="6.41268">
        <ele>1742.4</ele>
        <time>2021-02-28T09:03:36Z</time>
      </trkpt>
      <trkpt lat="45.1192" lon="6.41275">
        <ele>1740.6</ele>
        <time>2021-02-28T09:03:37Z</time>
      </trkpt>
      <trkpt lat="45.1192" lon="6.41275">
        <ele>1739.2</ele>
        <time>2021-02-28T09:03:38Z</time>
      </trkpt>
      <trkpt lat="45.11922" lon="6.41278">
        <ele>1737.6</ele>
        <time>2021-02-28T09:03:39Z</time>
      </trkpt>
      <trkpt lat="45.11924" lon="6.41281">
        <ele>1736.4</ele>
        <time>2021-02-28T09:03:40Z</time>
      </trkpt>
      <trkpt lat="45.11925" lon="6.41284">
        <ele>1735.2</ele>
        <time>2021-02-28T09:03:41Z</time>
      </trkpt>
      <trkpt lat="45.11927" lon="6.41287">
        <ele>1733.8</ele>
        <time>2021-02-28T09:03:42Z</time>
      </trkpt>
      <trkpt lat="45.11927" lon="6.4129">
        <ele>1732.6</ele>
        <time>2021-02-28T09:03:43Z</time>
      </trkpt>
      <trkpt lat="45.11927" lon="6.41293">
        <ele>1731.4</ele>
        <time>2021-02-28T09:03:44Z</time>
      </trkpt>
      <trkpt lat="45.11928" lon="6.41296">
        <ele>1730</ele>
        <time>2021-02-28T09:03:45Z</time>
      </trkpt>
      <trkpt lat="45.11928" lon="6.41299">
        <ele>1728.8</ele>
        <time>2021-02-28T09:03:46Z</time>
      </trkpt>
      <trkpt lat="45.11928" lon="6.41301">
        <ele>1727.8</ele>
        <time>2021-02-28T09:03:47Z</time>
      </trkpt>
      <trkpt lat="45.11928" lon="6.41304">
        <ele>1726.8</ele>
        <time>2021-02-28T09:03:48Z</time>
      </trkpt>
      <trkpt lat="45.11928" lon="6.41306">
        <ele>1725.4</ele>
        <time>2021-02-28T09:03:49Z</time>
      </trkpt>
      <trkpt lat="45.11928" lon="6.41308">
        <ele>1724.2</ele>
        <time>2021-02-28T09:03:50Z</time>
      </trkpt>
      <trkpt lat="45.11928" lon="6.41311">
        <ele>1722.6</ele>
        <time>2021-02-28T09:03:51Z</time>
      </trkpt>
      <trkpt lat="45.11928" lon="6.41313">
        <ele>1721.4</ele>
        <time>2021-02-28T09:03:52Z</time>
      </trkpt>
      <trkpt lat="45.11927" lon="6.41315">
        <ele>1720.6</ele>
        <time>2021-02-28T09:03:53Z</time>
      </trkpt>
      <trkpt lat="45.11928" lon="6.41319">
        <ele>1719.2</ele>
        <time>2021-02-28T09:03:54Z</time>
      </trkpt>
      <trkpt lat="45.11929" lon="6.41322">
        <ele>1718.8</ele>
        <time>2021-02-28T09:03:55Z</time>
      </trkpt>
      <trkpt lat="45.1193" lon="6.41325">
        <ele>1718.6</ele>
        <time>2021-02-28T09:03:56Z</time>
      </trkpt>
      <trkpt lat="45.11931" lon="6.41328">
        <ele>1718.2</ele>
        <time>2021-02-28T09:03:57Z</time>
      </trkpt>
      <trkpt lat="45.11931" lon="6.41329">
        <ele>1718</ele>
        <time>2021-02-28T09:03:58Z</time>
      </trkpt>
      <trkpt lat="45.11931" lon="6.4133">
        <ele>1717.8</ele>
        <time>2021-02-28T09:03:59Z</time>
      </trkpt>
      <trkpt lat="45.11931" lon="6.4133">
        <ele>1717.6</ele>
        <time>2021-02-28T09:04:00Z</time>
      </trkpt>
      <trkpt lat="45.11931" lon="6.41331">
        <ele>1717.4</ele>
        <time>2021-02-28T09:04:01Z</time>
      </trkpt>
      <trkpt lat="45.11931" lon="6.41332">
        <ele>1717.6</ele>
        <time>2021-02-28T09:04:02Z</time>
      </trkpt>
      <trkpt lat="45.11931" lon="6.41332">
        <ele>1717.8</ele>
        <time>2021-02-28T09:04:03Z</time>
      </trkpt>
      <trkpt lat="45.11931" lon="6.41333">
        <ele>1717.8</ele>
        <time>2021-02-28T09:04:04Z</time>
      </trkpt>
      <trkpt lat="45.11931" lon="6.41333">
        <ele>1718</ele>
        <time>2021-02-28T09:04:05Z</time>
      </trkpt>
      <trkpt lat="45.11931" lon="6.41334">
        <ele>1718</ele>
        <time>2021-02-28T09:04:06Z</time>
      </trkpt>
      <trkpt lat="45.11931" lon="6.41335">
        <ele>1717.6</ele>
        <time>2021-02-28T09:04:07Z</time>
      </trkpt>
      <trkpt lat="45.11931" lon="6.41335">
        <ele>1717.4</ele>
        <time>2021-02-28T09:04:08Z</time>
      </trkpt>
      <trkpt lat="45.11931" lon="6.41336">
        <ele>1717.4</ele>
        <time>2021-02-28T09:04:09Z</time>
      </trkpt>
      <trkpt lat="45.11931" lon="6.41337">
        <ele>1717.2</ele>
        <time>2021-02-28T09:04:10Z</time>
      </trkpt>
      <trkpt lat="45.11931" lon="6.41337">
        <ele>1717.2</ele>
        <time>2021-02-28T09:04:11Z</time>
      </trkpt>
      <trkpt lat="45.11931" lon="6.41338">
        <ele>1716.8</ele>
        <time>2021-02-28T09:04:12Z</time>
      </trkpt>
      <trkpt lat="45.11931" lon="6.41338">
        <ele>1716.6</ele>
        <time>2021-02-28T09:04:13Z</time>
      </trkpt>
      <trkpt lat="45.11931" lon="6.41339">
        <ele>1717</ele>
        <time>2021-02-28T09:04:14Z</time>
      </trkpt>
      <trkpt lat="45.11931" lon="6.4134">
        <ele>1716.8</ele>
        <time>2021-02-28T09:04:15Z</time>
      </trkpt>
      <trkpt lat="45.11931" lon="6.4134">
        <ele>1716.4</ele>
        <time>2021-02-28T09:04:16Z</time>
      </trkpt>
      <trkpt lat="45.11931" lon="6.41341">
        <ele>1716</ele>
        <time>2021-02-28T09:04:17Z</time>
      </trkpt>
      <trkpt lat="45.11931" lon="6.41342">
        <ele>1715.2</ele>
        <time>2021-02-28T09:04:18Z</time>
      </trkpt>
      <trkpt lat="45.11931" lon="6.41342">
        <ele>1714</ele>
        <time>2021-02-28T09:04:19Z</time>
      </trkpt>
      <trkpt lat="45.11932" lon="6.41349">
        <ele>1712.4</ele>
        <time>2021-02-28T09:04:20Z</time>
      </trkpt>
      <trkpt lat="45.11933" lon="6.41355">
        <ele>1710.6</ele>
        <time>2021-02-28T09:04:21Z</time>
      </trkpt>
      <trkpt lat="45.11934" lon="6.41361">
        <ele>1708.8</ele>
        <time>2021-02-28T09:04:22Z</time>
      </trkpt>
      <trkpt lat="45.11935" lon="6.41368">
        <ele>1706.4</ele>
        <time>2021-02-28T09:04:23Z</time>
      </trkpt>
      <trkpt lat="45.11935" lon="6.41379">
        <ele>1704.6</ele>
        <time>2021-02-28T09:04:24Z</time>
      </trkpt>
      <trkpt lat="45.11935" lon="6.41382">
        <ele>1703.2</ele>
        <time>2021-02-28T09:04:25Z</time>
      </trkpt>
      <trkpt lat="45.11935" lon="6.41393">
        <ele>1701.4</ele>
        <time>2021-02-28T09:04:26Z</time>
      </trkpt>
      <trkpt lat="45.11936" lon="6.41397">
        <ele>1699.8</ele>
        <time>2021-02-28T09:04:27Z</time>
      </trkpt>
      <trkpt lat="45.11937" lon="6.41401">
        <ele>1697.8</ele>
        <time>2021-02-28T09:04:28Z</time>
      </trkpt>
      <trkpt lat="45.1194" lon="6.41408">
        <ele>1695.8</ele>
        <time>2021-02-28T09:04:29Z</time>
      </trkpt>
      <trkpt lat="45.11944" lon="6.41414">
        <ele>1693.8</ele>
        <time>2021-02-28T09:04:30Z</time>
      </trkpt>
      <trkpt lat="45.11944" lon="6.41414">
        <ele>1692.2</ele>
        <time>2021-02-28T09:04:31Z</time>
      </trkpt>
      <trkpt lat="45.11944" lon="6.41414">
        <ele>1691</ele>
        <time>2021-02-28T09:04:32Z</time>
      </trkpt>
      <trkpt lat="45.11943" lon="6.41415">
        <ele>1689.8</ele>
        <time>2021-02-28T09:04:33Z</time>
      </trkpt>
      <trkpt lat="45.11942" lon="6.41416">
        <ele>1688.8</ele>
        <time>2021-02-28T09:04:34Z</time>
      </trkpt>
      <trkpt lat="45.11941" lon="6.41418">
        <ele>1687.4</ele>
        <time>2021-02-28T09:04:35Z</time>
      </trkpt>
      <trkpt lat="45.11941" lon="6.41419">
        <ele>1686.4</ele>
        <time>2021-02-28T09:04:36Z</time>
      </trkpt>
      <trkpt lat="45.1194" lon="6.4142">
        <ele>1685.6</ele>
        <time>2021-02-28T09:04:37Z</time>
      </trkpt>
      <trkpt lat="45.11939" lon="6.41421">
        <ele>1684.4</ele>
        <time>2021-02-28T09:04:38Z</time>
      </trkpt>
      <trkpt lat="45.11939" lon="6.41423">
        <ele>1683.6</ele>
        <time>2021-02-28T09:04:39Z</time>
      </trkpt>
      <trkpt lat="45.11938" lon="6.41424">
        <ele>1682.8</ele>
        <time>2021-02-28T09:04:40Z</time>
      </trkpt>
      <trkpt lat="45.11937" lon="6.41425">
        <ele>1682</ele>
        <time>2021-02-28T09:04:41Z</time>
      </trkpt>
      <trkpt lat="45.11936" lon="6.41426">
        <ele>1680.8</ele>
        <time>2021-02-28T09:04:42Z</time>
      </trkpt>
      <trkpt lat="45.11936" lon="6.41428">
        <ele>1679.4</ele>
        <time>2021-02-28T09:04:43Z</time>
      </trkpt>
      <trkpt lat="45.11937" lon="6.41429">
        <ele>1678.4</ele>
        <time>2021-02-28T09:04:44Z</time>
      </trkpt>
      <trkpt lat="45.11938" lon="6.41431">
        <ele>1677.2</ele>
        <time>2021-02-28T09:04:45Z</time>
      </trkpt>
      <trkpt lat="45.11939" lon="6.41433">
        <ele>1676.6</ele>
        <time>2021-02-28T09:04:46Z</time>
      </trkpt>
      <trkpt lat="45.1194" lon="6.41434">
        <ele>1675.6</ele>
        <time>2021-02-28T09:04:47Z</time>
      </trkpt>
      <trkpt lat="45.11942" lon="6.41436">
        <ele>1675.2</ele>
        <time>2021-02-28T09:04:48Z</time>
      </trkpt>
      <trkpt lat="45.11943" lon="6.41438">
        <ele>1674.4</ele>
        <time>2021-02-28T09:04:49Z</time>
      </trkpt>
      <trkpt lat="45.11941" lon="6.41453">
        <ele>1673</ele>
        <time>2021-02-28T09:04:50Z</time>
      </trkpt>
      <trkpt lat="45.11941" lon="6.41453">
        <ele>1672</ele>
        <time>2021-02-28T09:04:51Z</time>
      </trkpt>
      <trkpt lat="45.11941" lon="6.41453">
        <ele>1671</ele>
        <time>2021-02-28T09:04:52Z</time>
      </trkpt>
      <trkpt lat="45.11943" lon="6.41455">
        <ele>1670.2</ele>
        <time>2021-02-28T09:04:53Z</time>
      </trkpt>
      <trkpt lat="45.11944" lon="6.41457">
        <ele>1668.6</ele>
        <time>2021-02-28T09:04:54Z</time>
      </trkpt>
      <trkpt lat="45.11945" lon="6.41459">
        <ele>1668</ele>
        <time>2021-02-28T09:04:55Z</time>
      </trkpt>
      <trkpt lat="45.11947" lon="6.41461">
        <ele>1667.2</ele>
        <time>2021-02-28T09:04:56Z</time>
      </trkpt>
      <trkpt lat="45.11948" lon="6.41463">
        <ele>1666.6</ele>
        <time>2021-02-28T09:04:57Z</time>
      </trkpt>
      <trkpt lat="45.11949" lon="6.41469">
        <ele>1666.2</ele>
        <time>2021-02-28T09:04:58Z</time>
      </trkpt>
      <trkpt lat="45.11949" lon="6.41475">
        <ele>1665.4</ele>
        <time>2021-02-28T09:04:59Z</time>
      </trkpt>
      <trkpt lat="45.1195" lon="6.4148">
        <ele>1664.2</ele>
        <time>2021-02-28T09:05:00Z</time>
      </trkpt>
      <trkpt lat="45.11951" lon="6.41486">
        <ele>1662.8</ele>
        <time>2021-02-28T09:05:01Z</time>
      </trkpt>
      <trkpt lat="45.11953" lon="6.41492">
        <ele>1662</ele>
        <time>2021-02-28T09:05:02Z</time>
      </trkpt>
      <trkpt lat="45.11953" lon="6.41492">
        <ele>1660.6</ele>
        <time>2021-02-28T09:05:03Z</time>
      </trkpt>
      <trkpt lat="45.11955" lon="6.41495">
        <ele>1659.8</ele>
        <time>2021-02-28T09:05:04Z</time>
      </trkpt>
      <trkpt lat="45.11958" lon="6.41498">
        <ele>1658.8</ele>
        <time>2021-02-28T09:05:05Z</time>
      </trkpt>
      <trkpt lat="45.1196" lon="6.41501">
        <ele>1658</ele>
        <time>2021-02-28T09:05:06Z</time>
      </trkpt>
      <trkpt lat="45.11963" lon="6.41504">
        <ele>1656.6</ele>
        <time>2021-02-28T09:05:07Z</time>
      </trkpt>
      <trkpt lat="45.11965" lon="6.41507">
        <ele>1655.2</ele>
        <time>2021-02-28T09:05:08Z</time>
      </trkpt>
      <trkpt lat="45.11973" lon="6.41514">
        <ele>1654.2</ele>
        <time>2021-02-28T09:05:09Z</time>
      </trkpt>
      <trkpt lat="45.11976" lon="6.41518">
        <ele>1653</ele>
        <time>2021-02-28T09:05:10Z</time>
      </trkpt>
      <trkpt lat="45.11981" lon="6.4153">
        <ele>1651.8</ele>
        <time>2021-02-28T09:05:11Z</time>
      </trkpt>
      <trkpt lat="45.11981" lon="6.41534">
        <ele>1650.4</ele>
        <time>2021-02-28T09:05:12Z</time>
      </trkpt>
      <trkpt lat="45.1198" lon="6.41547">
        <ele>1649.6</ele>
        <time>2021-02-28T09:05:13Z</time>
      </trkpt>
      <trkpt lat="45.11978" lon="6.41551">
        <ele>1648.8</ele>
        <time>2021-02-28T09:05:14Z</time>
      </trkpt>
      <trkpt lat="45.11975" lon="6.4156">
        <ele>1648.4</ele>
        <time>2021-02-28T09:05:15Z</time>
      </trkpt>
      <trkpt lat="45.11975" lon="6.4156">
        <ele>1647.6</ele>
        <time>2021-02-28T09:05:16Z</time>
      </trkpt>
      <trkpt lat="45.11975" lon="6.4156">
        <ele>1647.4</ele>
        <time>2021-02-28T09:05:17Z</time>
      </trkpt>
      <trkpt lat="45.11974" lon="6.4156">
        <ele>1646.8</ele>
        <time>2021-02-28T09:05:18Z</time>
      </trkpt>
      <trkpt lat="45.11974" lon="6.41561">
        <ele>1646.8</ele>
        <time>2021-02-28T09:05:19Z</time>
      </trkpt>
      <trkpt lat="45.11973" lon="6.41561">
        <ele>1646.6</ele>
        <time>2021-02-28T09:05:20Z</time>
      </trkpt>
      <trkpt lat="45.11973" lon="6.41561">
        <ele>1646.6</ele>
        <time>2021-02-28T09:05:21Z</time>
      </trkpt>
      <trkpt lat="45.11972" lon="6.41562">
        <ele>1646.4</ele>
        <time>2021-02-28T09:05:22Z</time>
      </trkpt>
      <trkpt lat="45.11972" lon="6.41562">
        <ele>1646.2</ele>
        <time>2021-02-28T09:05:23Z</time>
      </trkpt>
      <trkpt lat="45.11971" lon="6.41563">
        <ele>1645.8</ele>
        <time>2021-02-28T09:05:24Z</time>
      </trkpt>
      <trkpt lat="45.11971" lon="6.41563">
        <ele>1646</ele>
        <time>2021-02-28T09:05:25Z</time>
      </trkpt>
      <trkpt lat="45.1197" lon="6.41563">
        <ele>1645.8</ele>
        <time>2021-02-28T09:05:26Z</time>
      </trkpt>
      <trkpt lat="45.11969" lon="6.41564">
        <ele>1645.6</ele>
        <time>2021-02-28T09:05:27Z</time>
      </trkpt>
      <trkpt lat="45.11969" lon="6.41564">
        <ele>1646</ele>
        <time>2021-02-28T09:05:28Z</time>
      </trkpt>
      <trkpt lat="45.11968" lon="6.41564">
        <ele>1646</ele>
        <time>2021-02-28T09:05:29Z</time>
      </trkpt>
      <trkpt lat="45.11968" lon="6.41565">
        <ele>1646.4</ele>
        <time>2021-02-28T09:05:30Z</time>
      </trkpt>
      <trkpt lat="45.11967" lon="6.41565">
        <ele>1646</ele>
        <time>2021-02-28T09:05:31Z</time>
      </trkpt>
      <trkpt lat="45.11967" lon="6.41566">
        <ele>1645.8</ele>
        <time>2021-02-28T09:05:32Z</time>
      </trkpt>
      <trkpt lat="45.11966" lon="6.41566">
        <ele>1646.4</ele>
        <time>2021-02-28T09:05:33Z</time>
      </trkpt>
      <trkpt lat="45.11965" lon="6.41566">
        <ele>1646.4</ele>
        <time>2021-02-28T09:05:34Z</time>
      </trkpt>
      <trkpt lat="45.11965" lon="6.41566">
        <ele>1646.4</ele>
        <time>2021-02-28T09:05:35Z</time>
      </trkpt>
      <trkpt lat="45.11964" lon="6.41566">
        <ele>1646.6</ele>
        <time>2021-02-28T09:05:36Z</time>
      </trkpt>
      <trkpt lat="45.11964" lon="6.41566">
        <ele>1646.4</ele>
        <time>2021-02-28T09:05:37Z</time>
      </trkpt>
      <trkpt lat="45.11963" lon="6.41566">
        <ele>1646.4</ele>
        <time>2021-02-28T09:05:38Z</time>
      </trkpt>
      <trkpt lat="45.11963" lon="6.41566">
        <ele>1646.4</ele>
        <time>2021-02-28T09:05:39Z</time>
      </trkpt>
      <trkpt lat="45.11962" lon="6.41566">
        <ele>1646.2</ele>
        <time>2021-02-28T09:05:40Z</time>
      </trkpt>
      <trkpt lat="45.11962" lon="6.41566">
        <ele>1646.4</ele>
        <time>2021-02-28T09:05:41Z</time>
      </trkpt>
      <trkpt lat="45.11961" lon="6.41567">
        <ele>1646.8</ele>
        <time>2021-02-28T09:05:42Z</time>
      </trkpt>
      <trkpt lat="45.1196" lon="6.41567">
        <ele>1647.2</ele>
        <time>2021-02-28T09:05:43Z</time>
      </trkpt>
      <trkpt lat="45.1196" lon="6.41567">
        <ele>1647</ele>
        <time>2021-02-28T09:05:44Z</time>
      </trkpt>
      <trkpt lat="45.11959" lon="6.41567">
        <ele>1646.6</ele>
        <time>2021-02-28T09:05:45Z</time>
      </trkpt>
      <trkpt lat="45.11959" lon="6.41567">
        <ele>1646.6</ele>
        <time>2021-02-28T09:05:46Z</time>
      </trkpt>
      <trkpt lat="45.11958" lon="6.41567">
        <ele>1646.6</ele>
        <time>2021-02-28T09:05:47Z</time>
      </trkpt>
      <trkpt lat="45.11958" lon="6.41567">
        <ele>1646.6</ele>
        <time>2021-02-28T09:05:48Z</time>
      </trkpt>
      <trkpt lat="45.11957" lon="6.41567">
        <ele>1646.6</ele>
        <time>2021-02-28T09:05:49Z</time>
      </trkpt>
      <trkpt lat="45.11957" lon="6.41567">
        <ele>1646.8</ele>
        <time>2021-02-28T09:05:50Z</time>
      </trkpt>
      <trkpt lat="45.11957" lon="6.41568">
        <ele>1647</ele>
        <time>2021-02-28T09:05:51Z</time>
      </trkpt>
      <trkpt lat="45.11957" lon="6.41569">
        <ele>1647</ele>
        <time>2021-02-28T09:05:52Z</time>
      </trkpt>
      <trkpt lat="45.11957" lon="6.41569">
        <ele>1647.2</ele>
        <time>2021-02-28T09:05:53Z</time>
      </trkpt>
      <trkpt lat="45.11957" lon="6.4157">
        <ele>1647.4</ele>
        <time>2021-02-28T09:05:54Z</time>
      </trkpt>
      <trkpt lat="45.11956" lon="6.41571">
        <ele>1647.6</ele>
        <time>2021-02-28T09:05:55Z</time>
      </trkpt>
      <trkpt lat="45.11956" lon="6.41572">
        <ele>1647.8</ele>
        <time>2021-02-28T09:05:56Z</time>
      </trkpt>
      <trkpt lat="45.11956" lon="6.41573">
        <ele>1647.4</ele>
        <time>2021-02-28T09:05:57Z</time>
      </trkpt>
      <trkpt lat="45.11956" lon="6.41573">
        <ele>1647.2</ele>
        <time>2021-02-28T09:05:58Z</time>
      </trkpt>
      <trkpt lat="45.11956" lon="6.41574">
        <ele>1647.2</ele>
        <time>2021-02-28T09:05:59Z</time>
      </trkpt>
      <trkpt lat="45.11956" lon="6.41575">
        <ele>1646.8</ele>
        <time>2021-02-28T09:06:00Z</time>
      </trkpt>
      <trkpt lat="45.11956" lon="6.41576">
        <ele>1647</ele>
        <time>2021-02-28T09:06:01Z</time>
      </trkpt>
      <trkpt lat="45.11956" lon="6.41577">
        <ele>1646.6</ele>
        <time>2021-02-28T09:06:02Z</time>
      </trkpt>
      <trkpt lat="45.11956" lon="6.41577">
        <ele>1646.6</ele>
        <time>2021-02-28T09:06:03Z</time>
      </trkpt>
      <trkpt lat="45.11956" lon="6.41578">
        <ele>1646.6</ele>
        <time>2021-02-28T09:06:04Z</time>
      </trkpt>
      <trkpt lat="45.11956" lon="6.41579">
        <ele>1646.6</ele>
        <time>2021-02-28T09:06:05Z</time>
      </trkpt>
      <trkpt lat="45.11956" lon="6.4158">
        <ele>1646.4</ele>
        <time>2021-02-28T09:06:06Z</time>
      </trkpt>
      <trkpt lat="45.11956" lon="6.41593">
        <ele>1646.2</ele>
        <time>2021-02-28T09:06:07Z</time>
      </trkpt>
      <trkpt lat="45.11956" lon="6.41593">
        <ele>1646</ele>
        <time>2021-02-28T09:06:08Z</time>
      </trkpt>
      <trkpt lat="45.11956" lon="6.41593">
        <ele>1645.6</ele>
        <time>2021-02-28T09:06:09Z</time>
      </trkpt>
      <trkpt lat="45.11958" lon="6.41613">
        <ele>1645.2</ele>
        <time>2021-02-28T09:06:10Z</time>
      </trkpt>
      <trkpt lat="45.11958" lon="6.41616">
        <ele>1644.6</ele>
        <time>2021-02-28T09:06:11Z</time>
      </trkpt>
      <trkpt lat="45.11958" lon="6.41619">
        <ele>1643.2</ele>
        <time>2021-02-28T09:06:12Z</time>
      </trkpt>
      <trkpt lat="45.11958" lon="6.41632">
        <ele>1641.8</ele>
        <time>2021-02-28T09:06:13Z</time>
      </trkpt>
      <trkpt lat="45.11958" lon="6.41637">
        <ele>1640.4</ele>
        <time>2021-02-28T09:06:14Z</time>
      </trkpt>
      <trkpt lat="45.11959" lon="6.4165">
        <ele>1639.6</ele>
        <time>2021-02-28T09:06:15Z</time>
      </trkpt>
      <trkpt lat="45.11958" lon="6.41655">
        <ele>1639</ele>
        <time>2021-02-28T09:06:16Z</time>
      </trkpt>
      <trkpt lat="45.11956" lon="6.41668">
        <ele>1637.8</ele>
        <time>2021-02-28T09:06:17Z</time>
      </trkpt>
      <trkpt lat="45.11955" lon="6.41673">
        <ele>1637.2</ele>
        <time>2021-02-28T09:06:18Z</time>
      </trkpt>
      <trkpt lat="45.11952" lon="6.41682">
        <ele>1636.6</ele>
        <time>2021-02-28T09:06:19Z</time>
      </trkpt>
      <trkpt lat="45.11952" lon="6.41682">
        <ele>1637.2</ele>
        <time>2021-02-28T09:06:20Z</time>
      </trkpt>
      <trkpt lat="45.11951" lon="6.41684">
        <ele>1637.2</ele>
        <time>2021-02-28T09:06:21Z</time>
      </trkpt>
      <trkpt lat="45.1195" lon="6.41686">
        <ele>1637.4</ele>
        <time>2021-02-28T09:06:22Z</time>
      </trkpt>
      <trkpt lat="45.11949" lon="6.41688">
        <ele>1637.6</ele>
        <time>2021-02-28T09:06:23Z</time>
      </trkpt>
      <trkpt lat="45.11948" lon="6.41689">
        <ele>1638.2</ele>
        <time>2021-02-28T09:06:24Z</time>
      </trkpt>
      <trkpt lat="45.11947" lon="6.41691">
        <ele>1638.4</ele>
        <time>2021-02-28T09:06:25Z</time>
      </trkpt>
      <trkpt lat="45.11946" lon="6.41693">
        <ele>1638.8</ele>
        <time>2021-02-28T09:06:26Z</time>
      </trkpt>
      <trkpt lat="45.11944" lon="6.41694">
        <ele>1639.4</ele>
        <time>2021-02-28T09:06:27Z</time>
      </trkpt>
      <trkpt lat="45.11942" lon="6.41695">
        <ele>1639.4</ele>
        <time>2021-02-28T09:06:28Z</time>
      </trkpt>
      <trkpt lat="45.1194" lon="6.41696">
        <ele>1639.6</ele>
        <time>2021-02-28T09:06:29Z</time>
      </trkpt>
      <trkpt lat="45.11939" lon="6.41697">
        <ele>1639.8</ele>
        <time>2021-02-28T09:06:30Z</time>
      </trkpt>
      <trkpt lat="45.11937" lon="6.41698">
        <ele>1640</ele>
        <time>2021-02-28T09:06:31Z</time>
      </trkpt>
      <trkpt lat="45.11935" lon="6.41699">
        <ele>1640.6</ele>
        <time>2021-02-28T09:06:32Z</time>
      </trkpt>
      <trkpt lat="45.11933" lon="6.417">
        <ele>1640.8</ele>
        <time>2021-02-28T09:06:33Z</time>
      </trkpt>
      <trkpt lat="45.11932" lon="6.41702">
        <ele>1640.8</ele>
        <time>2021-02-28T09:06:34Z</time>
      </trkpt>
      <trkpt lat="45.1193" lon="6.41703">
        <ele>1641</ele>
        <time>2021-02-28T09:06:35Z</time>
      </trkpt>
      <trkpt lat="45.11929" lon="6.41705">
        <ele>1641.2</ele>
        <time>2021-02-28T09:06:36Z</time>
      </trkpt>
      <trkpt lat="45.11927" lon="6.41706">
        <ele>1641.2</ele>
        <time>2021-02-28T09:06:37Z</time>
      </trkpt>
      <trkpt lat="45.11926" lon="6.41708">
        <ele>1641.4</ele>
        <time>2021-02-28T09:06:38Z</time>
      </trkpt>
      <trkpt lat="45.11924" lon="6.41711">
        <ele>1641.6</ele>
        <time>2021-02-28T09:06:39Z</time>
      </trkpt>
      <trkpt lat="45.11922" lon="6.41715">
        <ele>1641.8</ele>
        <time>2021-02-28T09:06:40Z</time>
      </trkpt>
      <trkpt lat="45.1192" lon="6.41718">
        <ele>1642</ele>
        <time>2021-02-28T09:06:41Z</time>
      </trkpt>
      <trkpt lat="45.11919" lon="6.41722">
        <ele>1641.8</ele>
        <time>2021-02-28T09:06:42Z</time>
      </trkpt>
      <trkpt lat="45.11917" lon="6.41725">
        <ele>1641.6</ele>
        <time>2021-02-28T09:06:43Z</time>
      </trkpt>
      <trkpt lat="45.11913" lon="6.41731">
        <ele>1641.6</ele>
        <time>2021-02-28T09:06:44Z</time>
      </trkpt>
      <trkpt lat="45.11913" lon="6.41731">
        <ele>1641.6</ele>
        <time>2021-02-28T09:06:45Z</time>
      </trkpt>
      <trkpt lat="45.11913" lon="6.41731">
        <ele>1641.4</ele>
        <time>2021-02-28T09:06:46Z</time>
      </trkpt>
      <trkpt lat="45.11913" lon="6.41733">
        <ele>1641.4</ele>
        <time>2021-02-28T09:06:47Z</time>
      </trkpt>
      <trkpt lat="45.11912" lon="6.41734">
        <ele>1641.4</ele>
        <time>2021-02-28T09:06:48Z</time>
      </trkpt>
      <trkpt lat="45.11911" lon="6.41736">
        <ele>1642</ele>
        <time>2021-02-28T09:06:49Z</time>
      </trkpt>
      <trkpt lat="45.1191" lon="6.41738">
        <ele>1642.2</ele>
        <time>2021-02-28T09:06:50Z</time>
      </trkpt>
      <trkpt lat="45.1191" lon="6.4174">
        <ele>1642</ele>
        <time>2021-02-28T09:06:51Z</time>
      </trkpt>
      <trkpt lat="45.11909" lon="6.41742">
        <ele>1641.6</ele>
        <time>2021-02-28T09:06:52Z</time>
      </trkpt>
      <trkpt lat="45.11909" lon="6.41743">
        <ele>1641.2</ele>
        <time>2021-02-28T09:06:53Z</time>
      </trkpt>
      <trkpt lat="45.1191" lon="6.41744">
        <ele>1641.4</ele>
        <time>2021-02-28T09:06:54Z</time>
      </trkpt>
      <trkpt lat="45.1191" lon="6.41744">
        <ele>1641.2</ele>
        <time>2021-02-28T09:06:55Z</time>
      </trkpt>
      <trkpt lat="45.1191" lon="6.41745">
        <ele>1641</ele>
        <time>2021-02-28T09:06:56Z</time>
      </trkpt>
      <trkpt lat="45.11911" lon="6.41746">
        <ele>1641.2</ele>
        <time>2021-02-28T09:06:57Z</time>
      </trkpt>
      <trkpt lat="45.11911" lon="6.41747">
        <ele>1641</ele>
        <time>2021-02-28T09:06:58Z</time>
      </trkpt>
      <trkpt lat="45.11912" lon="6.41747">
        <ele>1641.4</ele>
        <time>2021-02-28T09:06:59Z</time>
      </trkpt>
      <trkpt lat="45.11912" lon="6.41748">
        <ele>1641.8</ele>
        <time>2021-02-28T09:07:00Z</time>
      </trkpt>
      <trkpt lat="45.11912" lon="6.41749">
        <ele>1641.8</ele>
        <time>2021-02-28T09:07:01Z</time>
      </trkpt>
      <trkpt lat="45.11913" lon="6.4175">
        <ele>1641.8</ele>
        <time>2021-02-28T09:07:02Z</time>
      </trkpt>
      <trkpt lat="45.11913" lon="6.4175">
        <ele>1642</ele>
        <time>2021-02-28T09:07:03Z</time>
      </trkpt>
      <trkpt lat="45.11913" lon="6.41751">
        <ele>1642</ele>
        <time>2021-02-28T09:07:04Z</time>
      </trkpt>
      <trkpt lat="45.11914" lon="6.41752">
        <ele>1641.8</ele>
        <time>2021-02-28T09:07:05Z</time>
      </trkpt>
      <trkpt lat="45.11914" lon="6.41753">
        <ele>1641.6</ele>
        <time>2021-02-28T09:07:06Z</time>
      </trkpt>
      <trkpt lat="45.11914" lon="6.41753">
        <ele>1641.4</ele>
        <time>2021-02-28T09:07:07Z</time>
      </trkpt>
      <trkpt lat="45.11916" lon="6.41753">
        <ele>1641.8</ele>
        <time>2021-02-28T09:07:08Z</time>
      </trkpt>
      <trkpt lat="45.11917" lon="6.41752">
        <ele>1642.2</ele>
        <time>2021-02-28T09:07:09Z</time>
      </trkpt>
      <trkpt lat="45.11918" lon="6.41751">
        <ele>1642.2</ele>
        <time>2021-02-28T09:07:10Z</time>
      </trkpt>
      <trkpt lat="45.11919" lon="6.4175">
        <ele>1642</ele>
        <time>2021-02-28T09:07:11Z</time>
      </trkpt>
      <trkpt lat="45.11921" lon="6.4175">
        <ele>1642</ele>
        <time>2021-02-28T09:07:12Z</time>
      </trkpt>
      <trkpt lat="45.11922" lon="6.41749">
        <ele>1642.4</ele>
        <time>2021-02-28T09:07:13Z</time>
      </trkpt>
      <trkpt lat="45.11923" lon="6.41748">
        <ele>1642</ele>
        <time>2021-02-28T09:07:14Z</time>
      </trkpt>
      <trkpt lat="45.11924" lon="6.41748">
        <ele>1642</ele>
        <time>2021-02-28T09:07:15Z</time>
      </trkpt>
      <trkpt lat="45.11926" lon="6.41748">
        <ele>1642.2</ele>
        <time>2021-02-28T09:07:16Z</time>
      </trkpt>
      <trkpt lat="45.11928" lon="6.41748">
        <ele>1642.4</ele>
        <time>2021-02-28T09:07:17Z</time>
      </trkpt>
      <trkpt lat="45.11929" lon="6.41748">
        <ele>1642.4</ele>
        <time>2021-02-28T09:07:18Z</time>
      </trkpt>
      <trkpt lat="45.11931" lon="6.41748">
        <ele>1642.6</ele>
        <time>2021-02-28T09:07:19Z</time>
      </trkpt>
      <trkpt lat="45.11932" lon="6.41748">
        <ele>1642.8</ele>
        <time>2021-02-28T09:07:20Z</time>
      </trkpt>
      <trkpt lat="45.11934" lon="6.41748">
        <ele>1643</ele>
        <time>2021-02-28T09:07:21Z</time>
      </trkpt>
      <trkpt lat="45.11934" lon="6.41748">
        <ele>1643.4</ele>
        <time>2021-02-28T09:07:22Z</time>
      </trkpt>
      <trkpt lat="45.11934" lon="6.41748">
        <ele>1643.2</ele>
        <time>2021-02-28T09:07:23Z</time>
      </trkpt>
      <trkpt lat="45.11934" lon="6.41751">
        <ele>1643.4</ele>
        <time>2021-02-28T09:07:24Z</time>
      </trkpt>
      <trkpt lat="45.11934" lon="6.41751">
        <ele>1643.4</ele>
        <time>2021-02-28T09:07:25Z</time>
      </trkpt>
      <trkpt lat="45.11934" lon="6.41751">
        <ele>1643.2</ele>
        <time>2021-02-28T09:07:26Z</time>
      </trkpt>
      <trkpt lat="45.11934" lon="6.41751">
        <ele>1643</ele>
        <time>2021-02-28T09:07:27Z</time>
      </trkpt>
      <trkpt lat="45.11934" lon="6.41751">
        <ele>1643.4</ele>
        <time>2021-02-28T09:07:28Z</time>
      </trkpt>
      <trkpt lat="45.11934" lon="6.4175">
        <ele>1643.6</ele>
        <time>2021-02-28T09:07:29Z</time>
      </trkpt>
      <trkpt lat="45.11934" lon="6.4175">
        <ele>1644</ele>
        <time>2021-02-28T09:07:30Z</time>
      </trkpt>
      <trkpt lat="45.11933" lon="6.4175">
        <ele>1644</ele>
        <time>2021-02-28T09:07:31Z</time>
      </trkpt>
      <trkpt lat="45.11933" lon="6.4175">
        <ele>1644</ele>
        <time>2021-02-28T09:07:32Z</time>
      </trkpt>
      <trkpt lat="45.11933" lon="6.4175">
        <ele>1643.8</ele>
        <time>2021-02-28T09:07:33Z</time>
      </trkpt>
      <trkpt lat="45.11933" lon="6.41749">
        <ele>1643.4</ele>
        <time>2021-02-28T09:07:34Z</time>
      </trkpt>
      <trkpt lat="45.11933" lon="6.41749">
        <ele>1643.2</ele>
        <time>2021-02-28T09:07:35Z</time>
      </trkpt>
      <trkpt lat="45.11933" lon="6.41749">
        <ele>1643</ele>
        <time>2021-02-28T09:07:36Z</time>
      </trkpt>
      <trkpt lat="45.11933" lon="6.41749">
        <ele>1642.8</ele>
        <time>2021-02-28T09:07:37Z</time>
      </trkpt>
      <trkpt lat="45.11933" lon="6.41749">
        <ele>1643.2</ele>
        <time>2021-02-28T09:07:38Z</time>
      </trkpt>
      <trkpt lat="45.11933" lon="6.41749">
        <ele>1643.4</ele>
        <time>2021-02-28T09:07:39Z</time>
      </trkpt>
      <trkpt lat="45.11933" lon="6.41748">
        <ele>1643.6</ele>
        <time>2021-02-28T09:07:40Z</time>
      </trkpt>
      <trkpt lat="45.11933" lon="6.41748">
        <ele>1644</ele>
        <time>2021-02-28T09:07:41Z</time>
      </trkpt>
      <trkpt lat="45.11933" lon="6.41748">
        <ele>1643.2</ele>
        <time>2021-02-28T09:07:42Z</time>
      </trkpt>
      <trkpt lat="45.11933" lon="6.41748">
        <ele>1642.8</ele>
        <time>2021-02-28T09:07:43Z</time>
      </trkpt>
      <trkpt lat="45.11933" lon="6.41748">
        <ele>1642.8</ele>
        <time>2021-02-28T09:07:44Z</time>
      </trkpt>
      <trkpt lat="45.11933" lon="6.41748">
        <ele>1642.8</ele>
        <time>2021-02-28T09:07:45Z</time>
      </trkpt>
      <trkpt lat="45.11933" lon="6.41747">
        <ele>1642.6</ele>
        <time>2021-02-28T09:07:46Z</time>
      </trkpt>
      <trkpt lat="45.11933" lon="6.41747">
        <ele>1642.6</ele>
        <time>2021-02-28T09:07:47Z</time>
      </trkpt>
      <trkpt lat="45.11932" lon="6.41747">
        <ele>1642.4</ele>
        <time>2021-02-28T09:07:48Z</time>
      </trkpt>
      <trkpt lat="45.11932" lon="6.41747">
        <ele>1642.4</ele>
        <time>2021-02-28T09:07:49Z</time>
      </trkpt>
      <trkpt lat="45.11932" lon="6.41747">
        <ele>1642.2</ele>
        <time>2021-02-28T09:07:50Z</time>
      </trkpt>
      <trkpt lat="45.11932" lon="6.41747">
        <ele>1642.2</ele>
        <time>2021-02-28T09:07:51Z</time>
      </trkpt>
      <trkpt lat="45.11932" lon="6.41746">
        <ele>1642</ele>
        <time>2021-02-28T09:07:52Z</time>
      </trkpt>
      <trkpt lat="45.11932" lon="6.41746">
        <ele>1642.4</ele>
        <time>2021-02-28T09:07:53Z</time>
      </trkpt>
      <trkpt lat="45.11932" lon="6.41746">
        <ele>1643.4</ele>
        <time>2021-02-28T09:07:54Z</time>
      </trkpt>
      <trkpt lat="45.11932" lon="6.41746">
        <ele>1643.2</ele>
        <time>2021-02-28T09:07:55Z</time>
      </trkpt>
      <trkpt lat="45.11932" lon="6.41746">
        <ele>1643.4</ele>
        <time>2021-02-28T09:07:56Z</time>
      </trkpt>
      <trkpt lat="45.11932" lon="6.41746">
        <ele>1643.4</ele>
        <time>2021-02-28T09:07:57Z</time>
      </trkpt>
      <trkpt lat="45.11932" lon="6.41745">
        <ele>1643.8</ele>
        <time>2021-02-28T09:07:58Z</time>
      </trkpt>
      <trkpt lat="45.11932" lon="6.41745">
        <ele>1643.2</ele>
        <time>2021-02-28T09:07:59Z</time>
      </trkpt>
      <trkpt lat="45.11932" lon="6.41745">
        <ele>1643.6</ele>
        <time>2021-02-28T09:08:00Z</time>
      </trkpt>
      <trkpt lat="45.11932" lon="6.41745">
        <ele>1643.4</ele>
        <time>2021-02-28T09:08:01Z</time>
      </trkpt>
      <trkpt lat="45.11932" lon="6.41745">
        <ele>1643.4</ele>
        <time>2021-02-28T09:08:02Z</time>
      </trkpt>
      <trkpt lat="45.11932" lon="6.41745">
        <ele>1643.2</ele>
        <time>2021-02-28T09:08:03Z</time>
      </trkpt>
      <trkpt lat="45.11932" lon="6.41744">
        <ele>1643.4</ele>
        <time>2021-02-28T09:08:04Z</time>
      </trkpt>
      <trkpt lat="45.11932" lon="6.41744">
        <ele>1643.2</ele>
        <time>2021-02-28T09:08:05Z</time>
      </trkpt>
      <trkpt lat="45.11931" lon="6.41744">
        <ele>1643.6</ele>
        <time>2021-02-28T09:08:06Z</time>
      </trkpt>
      <trkpt lat="45.11931" lon="6.41744">
        <ele>1643.6</ele>
        <time>2021-02-28T09:08:07Z</time>
      </trkpt>
      <trkpt lat="45.11931" lon="6.41744">
        <ele>1643.8</ele>
        <time>2021-02-28T09:08:08Z</time>
      </trkpt>
      <trkpt lat="45.11931" lon="6.41744">
        <ele>1643.6</ele>
        <time>2021-02-28T09:08:09Z</time>
      </trkpt>
      <trkpt lat="45.11931" lon="6.41744">
        <ele>1643.6</ele>
        <time>2021-02-28T09:08:10Z</time>
      </trkpt>
      <trkpt lat="45.11931" lon="6.41744">
        <ele>1644</ele>
        <time>2021-02-28T09:08:11Z</time>
      </trkpt>
      <trkpt lat="45.11931" lon="6.41744">
        <ele>1644</ele>
        <time>2021-02-28T09:08:12Z</time>
      </trkpt>
      <trkpt lat="45.11931" lon="6.41744">
        <ele>1644</ele>
        <time>2021-02-28T09:08:13Z</time>
      </trkpt>
      <trkpt lat="45.11931" lon="6.41744">
        <ele>1643.8</ele>
        <time>2021-02-28T09:08:14Z</time>
      </trkpt>
      <trkpt lat="45.11931" lon="6.41744">
        <ele>1643.6</ele>
        <time>2021-02-28T09:08:15Z</time>
      </trkpt>
      <trkpt lat="45.11931" lon="6.41744">
        <ele>1643.4</ele>
        <time>2021-02-28T09:08:16Z</time>
      </trkpt>
      <trkpt lat="45.11931" lon="6.41744">
        <ele>1643.2</ele>
        <time>2021-02-28T09:08:17Z</time>
      </trkpt>
      <trkpt lat="45.11931" lon="6.41744">
        <ele>1643.2</ele>
        <time>2021-02-28T09:08:18Z</time>
      </trkpt>
      <trkpt lat="45.11931" lon="6.41744">
        <ele>1643.4</ele>
        <time>2021-02-28T09:08:19Z</time>
      </trkpt>
      <trkpt lat="45.11931" lon="6.41744">
        <ele>1643.6</ele>
        <time>2021-02-28T09:08:20Z</time>
      </trkpt>
      <trkpt lat="45.11931" lon="6.41744">
        <ele>1643.6</ele>
        <time>2021-02-28T09:08:21Z</time>
      </trkpt>
      <trkpt lat="45.11932" lon="6.41746">
        <ele>1644</ele>
        <time>2021-02-28T09:08:22Z</time>
      </trkpt>
      <trkpt lat="45.11932" lon="6.41746">
        <ele>1644.2</ele>
        <time>2021-02-28T09:08:23Z</time>
      </trkpt>
      <trkpt lat="45.11932" lon="6.41746">
        <ele>1644</ele>
        <time>2021-02-28T09:08:24Z</time>
      </trkpt>
      <trkpt lat="45.11932" lon="6.41746">
        <ele>1644</ele>
        <time>2021-02-28T09:08:25Z</time>
      </trkpt>
      <trkpt lat="45.11932" lon="6.41746">
        <ele>1643.8</ele>
        <time>2021-02-28T09:08:26Z</time>
      </trkpt>
      <trkpt lat="45.11932" lon="6.41746">
        <ele>1643.8</ele>
        <time>2021-02-28T09:08:27Z</time>
      </trkpt>
      <trkpt lat="45.11932" lon="6.41746">
        <ele>1643.8</ele>
        <time>2021-02-28T09:08:28Z</time>
      </trkpt>
      <trkpt lat="45.11932" lon="6.41746">
        <ele>1643.8</ele>
        <time>2021-02-28T09:08:29Z</time>
      </trkpt>
      <trkpt lat="45.11932" lon="6.41746">
        <ele>1643.8</ele>
        <time>2021-02-28T09:08:30Z</time>
      </trkpt>
      <trkpt lat="45.11932" lon="6.41746">
        <ele>1644</ele>
        <time>2021-02-28T09:08:31Z</time>
      </trkpt>
      <trkpt lat="45.11932" lon="6.41746">
        <ele>1644</ele>
        <time>2021-02-28T09:08:32Z</time>
      </trkpt>
      <trkpt lat="45.11932" lon="6.41746">
        <ele>1644</ele>
        <time>2021-02-28T09:08:33Z</time>
      </trkpt>
      <trkpt lat="45.11932" lon="6.41746">
        <ele>1644</ele>
        <time>2021-02-28T09:08:34Z</time>
      </trkpt>
      <trkpt lat="45.11932" lon="6.41746">
        <ele>1644</ele>
        <time>2021-02-28T09:08:35Z</time>
      </trkpt>
      <trkpt lat="45.11932" lon="6.41746">
        <ele>1643.6</ele>
        <time>2021-02-28T09:08:36Z</time>
      </trkpt>
      <trkpt lat="45.11932" lon="6.41746">
        <ele>1643.2</ele>
        <time>2021-02-28T09:08:37Z</time>
      </trkpt>
      <trkpt lat="45.11932" lon="6.41746">
        <ele>1642.8</ele>
        <time>2021-02-28T09:08:38Z</time>
      </trkpt>
      <trkpt lat="45.11932" lon="6.41746">
        <ele>1642.6</ele>
        <time>2021-02-28T09:08:39Z</time>
      </trkpt>
      <trkpt lat="45.11932" lon="6.4175">
        <ele>1642.6</ele>
        <time>2021-02-28T09:08:40Z</time>
      </trkpt>
      <trkpt lat="45.11932" lon="6.4175">
        <ele>1642.2</ele>
        <time>2021-02-28T09:08:41Z</time>
      </trkpt>
      <trkpt lat="45.11932" lon="6.4175">
        <ele>1642.6</ele>
        <time>2021-02-28T09:08:42Z</time>
      </trkpt>
      <trkpt lat="45.11932" lon="6.41751">
        <ele>1642.8</ele>
        <time>2021-02-28T09:08:43Z</time>
      </trkpt>
      <trkpt lat="45.11932" lon="6.41751">
        <ele>1643</ele>
        <time>2021-02-28T09:08:44Z</time>
      </trkpt>
      <trkpt lat="45.11932" lon="6.41751">
        <ele>1643.2</ele>
        <time>2021-02-28T09:08:45Z</time>
      </trkpt>
      <trkpt lat="45.11932" lon="6.41751">
        <ele>1643.2</ele>
        <time>2021-02-28T09:08:46Z</time>
      </trkpt>
      <trkpt lat="45.11932" lon="6.41751">
        <ele>1643</ele>
        <time>2021-02-28T09:08:47Z</time>
      </trkpt>
      <trkpt lat="45.11932" lon="6.41752">
        <ele>1643</ele>
        <time>2021-02-28T09:08:48Z</time>
      </trkpt>
      <trkpt lat="45.11932" lon="6.41752">
        <ele>1643.2</ele>
        <time>2021-02-28T09:08:49Z</time>
      </trkpt>
      <trkpt lat="45.11932" lon="6.41752">
        <ele>1643.4</ele>
        <time>2021-02-28T09:08:50Z</time>
      </trkpt>
      <trkpt lat="45.11932" lon="6.41752">
        <ele>1643</ele>
        <time>2021-02-28T09:08:51Z</time>
      </trkpt>
      <trkpt lat="45.11932" lon="6.41752">
        <ele>1643</ele>
        <time>2021-02-28T09:08:52Z</time>
      </trkpt>
      <trkpt lat="45.11932" lon="6.41753">
        <ele>1643</ele>
        <time>2021-02-28T09:08:53Z</time>
      </trkpt>
      <trkpt lat="45.11932" lon="6.41753">
        <ele>1643</ele>
        <time>2021-02-28T09:08:54Z</time>
      </trkpt>
      <trkpt lat="45.11932" lon="6.41753">
        <ele>1643</ele>
        <time>2021-02-28T09:08:55Z</time>
      </trkpt>
      <trkpt lat="45.11932" lon="6.41753">
        <ele>1643</ele>
        <time>2021-02-28T09:08:56Z</time>
      </trkpt>
      <trkpt lat="45.11932" lon="6.41753">
        <ele>1643</ele>
        <time>2021-02-28T09:08:57Z</time>
      </trkpt>
      <trkpt lat="45.11932" lon="6.41754">
        <ele>1643</ele>
        <time>2021-02-28T09:08:58Z</time>
      </trkpt>
      <trkpt lat="45.11932" lon="6.41754">
        <ele>1643.2</ele>
        <time>2021-02-28T09:08:59Z</time>
      </trkpt>
      <trkpt lat="45.11932" lon="6.41754">
        <ele>1643.2</ele>
        <time>2021-02-28T09:09:00Z</time>
      </trkpt>
      <trkpt lat="45.11932" lon="6.41754">
        <ele>1643.4</ele>
        <time>2021-02-28T09:09:01Z</time>
      </trkpt>
      <trkpt lat="45.11932" lon="6.41754">
        <ele>1643</ele>
        <time>2021-02-28T09:09:02Z</time>
      </trkpt>
      <trkpt lat="45.11932" lon="6.41754">
        <ele>1642.8</ele>
        <time>2021-02-28T09:09:03Z</time>
      </trkpt>
      <trkpt lat="45.11932" lon="6.41755">
        <ele>1642.6</ele>
        <time>2021-02-28T09:09:04Z</time>
      </trkpt>
      <trkpt lat="45.11932" lon="6.41755">
        <ele>1642.6</ele>
        <time>2021-02-28T09:09:05Z</time>
      </trkpt>
      <trkpt lat="45.11932" lon="6.41755">
        <ele>1642.6</ele>
        <time>2021-02-28T09:09:06Z</time>
      </trkpt>
      <trkpt lat="45.11932" lon="6.41755">
        <ele>1642.8</ele>
        <time>2021-02-28T09:09:07Z</time>
      </trkpt>
      <trkpt lat="45.11932" lon="6.41755">
        <ele>1643</ele>
        <time>2021-02-28T09:09:08Z</time>
      </trkpt>
      <trkpt lat="45.11932" lon="6.41756">
        <ele>1642.8</ele>
        <time>2021-02-28T09:09:09Z</time>
      </trkpt>
      <trkpt lat="45.11932" lon="6.41756">
        <ele>1642.8</ele>
        <time>2021-02-28T09:09:10Z</time>
      </trkpt>
      <trkpt lat="45.11932" lon="6.41756">
        <ele>1642.8</ele>
        <time>2021-02-28T09:09:11Z</time>
      </trkpt>
      <trkpt lat="45.11932" lon="6.41756">
        <ele>1643</ele>
        <time>2021-02-28T09:09:12Z</time>
      </trkpt>
      <trkpt lat="45.11932" lon="6.41756">
        <ele>1643.2</ele>
        <time>2021-02-28T09:09:13Z</time>
      </trkpt>
      <trkpt lat="45.11932" lon="6.41757">
        <ele>1643</ele>
        <time>2021-02-28T09:09:14Z</time>
      </trkpt>
      <trkpt lat="45.11932" lon="6.41757">
        <ele>1643</ele>
        <time>2021-02-28T09:09:15Z</time>
      </trkpt>
      <trkpt lat="45.11932" lon="6.41757">
        <ele>1642.6</ele>
        <time>2021-02-28T09:09:16Z</time>
      </trkpt>
      <trkpt lat="45.11932" lon="6.41757">
        <ele>1642.8</ele>
        <time>2021-02-28T09:09:17Z</time>
      </trkpt>
      <trkpt lat="45.11932" lon="6.41757">
        <ele>1643.2</ele>
        <time>2021-02-28T09:09:18Z</time>
      </trkpt>
      <trkpt lat="45.11932" lon="6.41757">
        <ele>1643.2</ele>
        <time>2021-02-28T09:09:19Z</time>
      </trkpt>
      <trkpt lat="45.11932" lon="6.41757">
        <ele>1643.6</ele>
        <time>2021-02-28T09:09:20Z</time>
      </trkpt>
      <trkpt lat="45.11932" lon="6.41757">
        <ele>1643.8</ele>
        <time>2021-02-28T09:09:21Z</time>
      </trkpt>
      <trkpt lat="45.11932" lon="6.41757">
        <ele>1644.2</ele>
        <time>2021-02-28T09:09:22Z</time>
      </trkpt>
      <trkpt lat="45.11932" lon="6.41757">
        <ele>1644.4</ele>
        <time>2021-02-28T09:09:23Z</time>
      </trkpt>
      <trkpt lat="45.11932" lon="6.41757">
        <ele>1644.2</ele>
        <time>2021-02-28T09:09:24Z</time>
      </trkpt>
      <trkpt lat="45.11932" lon="6.41757">
        <ele>1644.4</ele>
        <time>2021-02-28T09:09:25Z</time>
      </trkpt>
      <trkpt lat="45.11932" lon="6.41757">
        <ele>1644.2</ele>
        <time>2021-02-28T09:09:26Z</time>
      </trkpt>
      <trkpt lat="45.11932" lon="6.41757">
        <ele>1644</ele>
        <time>2021-02-28T09:09:27Z</time>
      </trkpt>
      <trkpt lat="45.11932" lon="6.41757">
        <ele>1644</ele>
        <time>2021-02-28T09:09:28Z</time>
      </trkpt>
      <trkpt lat="45.11932" lon="6.41757">
        <ele>1644</ele>
        <time>2021-02-28T09:09:29Z</time>
      </trkpt>
      <trkpt lat="45.11932" lon="6.41757">
        <ele>1644.4</ele>
        <time>2021-02-28T09:09:30Z</time>
      </trkpt>
      <trkpt lat="45.11932" lon="6.41757">
        <ele>1644.4</ele>
        <time>2021-02-28T09:09:31Z</time>
      </trkpt>
      <trkpt lat="45.11932" lon="6.41757">
        <ele>1644.4</ele>
        <time>2021-02-28T09:09:32Z</time>
      </trkpt>
      <trkpt lat="45.11932" lon="6.41754">
        <ele>1644.4</ele>
        <time>2021-02-28T09:09:33Z</time>
      </trkpt>
      <trkpt lat="45.11932" lon="6.41754">
        <ele>1644.2</ele>
        <time>2021-02-28T09:09:34Z</time>
      </trkpt>
      <trkpt lat="45.11932" lon="6.41754">
        <ele>1644</ele>
        <time>2021-02-28T09:09:35Z</time>
      </trkpt>
      <trkpt lat="45.11932" lon="6.41754">
        <ele>1643.8</ele>
        <time>2021-02-28T09:09:36Z</time>
      </trkpt>
      <trkpt lat="45.11932" lon="6.41754">
        <ele>1643.4</ele>
        <time>2021-02-28T09:09:37Z</time>
      </trkpt>
      <trkpt lat="45.11932" lon="6.41754">
        <ele>1643.4</ele>
        <time>2021-02-28T09:09:38Z</time>
      </trkpt>
      <trkpt lat="45.11932" lon="6.41754">
        <ele>1643.4</ele>
        <time>2021-02-28T09:09:39Z</time>
      </trkpt>
      <trkpt lat="45.11932" lon="6.41754">
        <ele>1643.4</ele>
        <time>2021-02-28T09:09:40Z</time>
      </trkpt>
      <trkpt lat="45.11932" lon="6.41755">
        <ele>1643</ele>
        <time>2021-02-28T09:09:41Z</time>
      </trkpt>
      <trkpt lat="45.11932" lon="6.41755">
        <ele>1643</ele>
        <time>2021-02-28T09:09:42Z</time>
      </trkpt>
      <trkpt lat="45.11932" lon="6.41755">
        <ele>1643</ele>
        <time>2021-02-28T09:09:43Z</time>
      </trkpt>
      <trkpt lat="45.11932" lon="6.41755">
        <ele>1643</ele>
        <time>2021-02-28T09:09:44Z</time>
      </trkpt>
      <trkpt lat="45.11932" lon="6.41755">
        <ele>1643.2</ele>
        <time>2021-02-28T09:09:45Z</time>
      </trkpt>
      <trkpt lat="45.11932" lon="6.41755">
        <ele>1643</ele>
        <time>2021-02-28T09:09:46Z</time>
      </trkpt>
      <trkpt lat="45.11932" lon="6.41755">
        <ele>1642.8</ele>
        <time>2021-02-28T09:09:47Z</time>
      </trkpt>
      <trkpt lat="45.11932" lon="6.41755">
        <ele>1642.6</ele>
        <time>2021-02-28T09:09:48Z</time>
      </trkpt>
      <trkpt lat="45.11932" lon="6.41755">
        <ele>1642.6</ele>
        <time>2021-02-28T09:09:49Z</time>
      </trkpt>
      <trkpt lat="45.11932" lon="6.41756">
        <ele>1643</ele>
        <time>2021-02-28T09:09:50Z</time>
      </trkpt>
      <trkpt lat="45.11932" lon="6.41756">
        <ele>1643</ele>
        <time>2021-02-28T09:09:51Z</time>
      </trkpt>
      <trkpt lat="45.11932" lon="6.41756">
        <ele>1643</ele>
        <time>2021-02-28T09:09:52Z</time>
      </trkpt>
      <trkpt lat="45.11932" lon="6.41756">
        <ele>1643</ele>
        <time>2021-02-28T09:09:53Z</time>
      </trkpt>
      <trkpt lat="45.11932" lon="6.41756">
        <ele>1642.8</ele>
        <time>2021-02-28T09:09:54Z</time>
      </trkpt>
      <trkpt lat="45.11932" lon="6.41756">
        <ele>1642.6</ele>
        <time>2021-02-28T09:09:55Z</time>
      </trkpt>
      <trkpt lat="45.11932" lon="6.41756">
        <ele>1642.8</ele>
        <time>2021-02-28T09:09:56Z</time>
      </trkpt>
      <trkpt lat="45.11932" lon="6.41756">
        <ele>1642.6</ele>
        <time>2021-02-28T09:09:57Z</time>
      </trkpt>
      <trkpt lat="45.11932" lon="6.41757">
        <ele>1642.8</ele>
        <time>2021-02-28T09:09:58Z</time>
      </trkpt>
      <trkpt lat="45.11932" lon="6.41757">
        <ele>1642.8</ele>
        <time>2021-02-28T09:09:59Z</time>
      </trkpt>
      <trkpt lat="45.11932" lon="6.41757">
        <ele>1642.6</ele>
        <time>2021-02-28T09:10:00Z</time>
      </trkpt>
      <trkpt lat="45.11932" lon="6.41757">
        <ele>1642.8</ele>
        <time>2021-02-28T09:10:01Z</time>
      </trkpt>
      <trkpt lat="45.11932" lon="6.41757">
        <ele>1642.8</ele>
        <time>2021-02-28T09:10:02Z</time>
      </trkpt>
      <trkpt lat="45.11932" lon="6.41757">
        <ele>1642.6</ele>
        <time>2021-02-28T09:10:03Z</time>
      </trkpt>
      <trkpt lat="45.11932" lon="6.41757">
        <ele>1642.6</ele>
        <time>2021-02-28T09:10:04Z</time>
      </trkpt>
      <trkpt lat="45.11932" lon="6.41757">
        <ele>1642.6</ele>
        <time>2021-02-28T09:10:05Z</time>
      </trkpt>
      <trkpt lat="45.11932" lon="6.41758">
        <ele>1642.6</ele>
        <time>2021-02-28T09:10:06Z</time>
      </trkpt>
      <trkpt lat="45.11932" lon="6.41758">
        <ele>1643.2</ele>
        <time>2021-02-28T09:10:07Z</time>
      </trkpt>
      <trkpt lat="45.11932" lon="6.41758">
        <ele>1643.6</ele>
        <time>2021-02-28T09:10:08Z</time>
      </trkpt>
      <trkpt lat="45.11932" lon="6.41758">
        <ele>1643.8</ele>
        <time>2021-02-28T09:10:09Z</time>
      </trkpt>
      <trkpt lat="45.11932" lon="6.41758">
        <ele>1644</ele>
        <time>2021-02-28T09:10:10Z</time>
      </trkpt>
      <trkpt lat="45.11932" lon="6.41758">
        <ele>1644</ele>
        <time>2021-02-28T09:10:11Z</time>
      </trkpt>
      <trkpt lat="45.11932" lon="6.41758">
        <ele>1643.4</ele>
        <time>2021-02-28T09:10:12Z</time>
      </trkpt>
      <trkpt lat="45.11932" lon="6.41758">
        <ele>1643.4</ele>
        <time>2021-02-28T09:10:13Z</time>
      </trkpt>
      <trkpt lat="45.11932" lon="6.41758">
        <ele>1643.8</ele>
        <time>2021-02-28T09:10:14Z</time>
      </trkpt>
      <trkpt lat="45.11932" lon="6.41759">
        <ele>1644.2</ele>
        <time>2021-02-28T09:10:15Z</time>
      </trkpt>
      <trkpt lat="45.11932" lon="6.41759">
        <ele>1644.4</ele>
        <time>2021-02-28T09:10:16Z</time>
      </trkpt>
      <trkpt lat="45.11932" lon="6.41759">
        <ele>1644.6</ele>
        <time>2021-02-28T09:10:17Z</time>
      </trkpt>
      <trkpt lat="45.11932" lon="6.41759">
        <ele>1644.6</ele>
        <time>2021-02-28T09:10:18Z</time>
      </trkpt>
      <trkpt lat="45.11932" lon="6.41759">
        <ele>1644.4</ele>
        <time>2021-02-28T09:10:19Z</time>
      </trkpt>
      <trkpt lat="45.11932" lon="6.41759">
        <ele>1644.4</ele>
        <time>2021-02-28T09:10:20Z</time>
      </trkpt>
      <trkpt lat="45.11932" lon="6.41759">
        <ele>1644.6</ele>
        <time>2021-02-28T09:10:21Z</time>
      </trkpt>
      <trkpt lat="45.11932" lon="6.41759">
        <ele>1644.4</ele>
        <time>2021-02-28T09:10:22Z</time>
      </trkpt>
      <trkpt lat="45.11932" lon="6.4176">
        <ele>1644.2</ele>
        <time>2021-02-28T09:10:23Z</time>
      </trkpt>
      <trkpt lat="45.11932" lon="6.4176">
        <ele>1644</ele>
        <time>2021-02-28T09:10:24Z</time>
      </trkpt>
      <trkpt lat="45.11932" lon="6.4176">
        <ele>1644</ele>
        <time>2021-02-28T09:10:25Z</time>
      </trkpt>
      <trkpt lat="45.11931" lon="6.4176">
        <ele>1643.6</ele>
        <time>2021-02-28T09:10:26Z</time>
      </trkpt>
      <trkpt lat="45.11931" lon="6.4176">
        <ele>1643.4</ele>
        <time>2021-02-28T09:10:27Z</time>
      </trkpt>
      <trkpt lat="45.11931" lon="6.4176">
        <ele>1643.2</ele>
        <time>2021-02-28T09:10:28Z</time>
      </trkpt>
      <trkpt lat="45.11931" lon="6.4176">
        <ele>1643.2</ele>
        <time>2021-02-28T09:10:29Z</time>
      </trkpt>
      <trkpt lat="45.11931" lon="6.4176">
        <ele>1643</ele>
        <time>2021-02-28T09:10:30Z</time>
      </trkpt>
      <trkpt lat="45.11931" lon="6.4176">
        <ele>1643</ele>
        <time>2021-02-28T09:10:31Z</time>
      </trkpt>
      <trkpt lat="45.11931" lon="6.41761">
        <ele>1643</ele>
        <time>2021-02-28T09:10:32Z</time>
      </trkpt>
      <trkpt lat="45.11931" lon="6.41761">
        <ele>1643.2</ele>
        <time>2021-02-28T09:10:33Z</time>
      </trkpt>
      <trkpt lat="45.11931" lon="6.41761">
        <ele>1643.6</ele>
        <time>2021-02-28T09:10:34Z</time>
      </trkpt>
      <trkpt lat="45.11931" lon="6.41761">
        <ele>1643.6</ele>
        <time>2021-02-28T09:10:35Z</time>
      </trkpt>
      <trkpt lat="45.11931" lon="6.41761">
        <ele>1643.8</ele>
        <time>2021-02-28T09:10:36Z</time>
      </trkpt>
      <trkpt lat="45.11931" lon="6.41761">
        <ele>1644</ele>
        <time>2021-02-28T09:10:37Z</time>
      </trkpt>
      <trkpt lat="45.11931" lon="6.41761">
        <ele>1644</ele>
        <time>2021-02-28T09:10:38Z</time>
      </trkpt>
      <trkpt lat="45.11931" lon="6.41761">
        <ele>1644.2</ele>
        <time>2021-02-28T09:10:39Z</time>
      </trkpt>
      <trkpt lat="45.11931" lon="6.41762">
        <ele>1644.6</ele>
        <time>2021-02-28T09:10:40Z</time>
      </trkpt>
      <trkpt lat="45.11931" lon="6.41762">
        <ele>1644.8</ele>
        <time>2021-02-28T09:10:41Z</time>
      </trkpt>
      <trkpt lat="45.11931" lon="6.41762">
        <ele>1645</ele>
        <time>2021-02-28T09:10:42Z</time>
      </trkpt>
      <trkpt lat="45.11931" lon="6.41762">
        <ele>1645</ele>
        <time>2021-02-28T09:10:43Z</time>
      </trkpt>
      <trkpt lat="45.11931" lon="6.41762">
        <ele>1645</ele>
        <time>2021-02-28T09:10:44Z</time>
      </trkpt>
      <trkpt lat="45.11931" lon="6.41762">
        <ele>1645</ele>
        <time>2021-02-28T09:10:45Z</time>
      </trkpt>
      <trkpt lat="45.11931" lon="6.41762">
        <ele>1645.2</ele>
        <time>2021-02-28T09:10:46Z</time>
      </trkpt>
      <trkpt lat="45.11931" lon="6.41762">
        <ele>1645</ele>
        <time>2021-02-28T09:10:47Z</time>
      </trkpt>
      <trkpt lat="45.11931" lon="6.41762">
        <ele>1645</ele>
        <time>2021-02-28T09:10:48Z</time>
      </trkpt>
      <trkpt lat="45.11931" lon="6.41763">
        <ele>1645</ele>
        <time>2021-02-28T09:10:49Z</time>
      </trkpt>
      <trkpt lat="45.11931" lon="6.41763">
        <ele>1645</ele>
        <time>2021-02-28T09:10:50Z</time>
      </trkpt>
      <trkpt lat="45.11931" lon="6.41763">
        <ele>1645.2</ele>
        <time>2021-02-28T09:10:51Z</time>
      </trkpt>
      <trkpt lat="45.11931" lon="6.41763">
        <ele>1644.6</ele>
        <time>2021-02-28T09:10:52Z</time>
      </trkpt>
      <trkpt lat="45.11931" lon="6.41763">
        <ele>1644.2</ele>
        <time>2021-02-28T09:10:53Z</time>
      </trkpt>
      <trkpt lat="45.11931" lon="6.41763">
        <ele>1644</ele>
        <time>2021-02-28T09:10:54Z</time>
      </trkpt>
      <trkpt lat="45.11931" lon="6.41763">
        <ele>1643.6</ele>
        <time>2021-02-28T09:10:55Z</time>
      </trkpt>
      <trkpt lat="45.11931" lon="6.41763">
        <ele>1643.4</ele>
        <time>2021-02-28T09:10:56Z</time>
      </trkpt>
      <trkpt lat="45.11931" lon="6.41764">
        <ele>1643.2</ele>
        <time>2021-02-28T09:10:57Z</time>
      </trkpt>
      <trkpt lat="45.11931" lon="6.41764">
        <ele>1643.4</ele>
        <time>2021-02-28T09:10:58Z</time>
      </trkpt>
      <trkpt lat="45.11931" lon="6.41764">
        <ele>1643.4</ele>
        <time>2021-02-28T09:10:59Z</time>
      </trkpt>
      <trkpt lat="45.11931" lon="6.41764">
        <ele>1643.2</ele>
        <time>2021-02-28T09:11:00Z</time>
      </trkpt>
      <trkpt lat="45.11931" lon="6.41764">
        <ele>1643.2</ele>
        <time>2021-02-28T09:11:01Z</time>
      </trkpt>
      <trkpt lat="45.11931" lon="6.41764">
        <ele>1643.2</ele>
        <time>2021-02-28T09:11:02Z</time>
      </trkpt>
      <trkpt lat="45.11931" lon="6.41764">
        <ele>1643.2</ele>
        <time>2021-02-28T09:11:03Z</time>
      </trkpt>
      <trkpt lat="45.11931" lon="6.41764">
        <ele>1643.2</ele>
        <time>2021-02-28T09:11:04Z</time>
      </trkpt>
      <trkpt lat="45.11931" lon="6.41764">
        <ele>1643</ele>
        <time>2021-02-28T09:11:05Z</time>
      </trkpt>
      <trkpt lat="45.11931" lon="6.41765">
        <ele>1643</ele>
        <time>2021-02-28T09:11:06Z</time>
      </trkpt>
      <trkpt lat="45.11931" lon="6.41765">
        <ele>1643.2</ele>
        <time>2021-02-28T09:11:07Z</time>
      </trkpt>
      <trkpt lat="45.11931" lon="6.41765">
        <ele>1643.4</ele>
        <time>2021-02-28T09:11:08Z</time>
      </trkpt>
      <trkpt lat="45.11931" lon="6.41765">
        <ele>1643.6</ele>
        <time>2021-02-28T09:11:09Z</time>
      </trkpt>
      <trkpt lat="45.11931" lon="6.41765">
        <ele>1643.2</ele>
        <time>2021-02-28T09:11:10Z</time>
      </trkpt>
      <trkpt lat="45.11931" lon="6.41765">
        <ele>1643.4</ele>
        <time>2021-02-28T09:11:11Z</time>
      </trkpt>
      <trkpt lat="45.11931" lon="6.41765">
        <ele>1643.2</ele>
        <time>2021-02-28T09:11:12Z</time>
      </trkpt>
      <trkpt lat="45.11931" lon="6.41765">
        <ele>1643</ele>
        <time>2021-02-28T09:11:13Z</time>
      </trkpt>
      <trkpt lat="45.11931" lon="6.41766">
        <ele>1643</ele>
        <time>2021-02-28T09:11:14Z</time>
      </trkpt>
      <trkpt lat="45.11931" lon="6.41766">
        <ele>1643</ele>
        <time>2021-02-28T09:11:15Z</time>
      </trkpt>
      <trkpt lat="45.11931" lon="6.41766">
        <ele>1642.8</ele>
        <time>2021-02-28T09:11:16Z</time>
      </trkpt>
      <trkpt lat="45.11931" lon="6.41766">
        <ele>1642.8</ele>
        <time>2021-02-28T09:11:17Z</time>
      </trkpt>
      <trkpt lat="45.11931" lon="6.41766">
        <ele>1643</ele>
        <time>2021-02-28T09:11:18Z</time>
      </trkpt>
      <trkpt lat="45.11931" lon="6.41766">
        <ele>1642.8</ele>
        <time>2021-02-28T09:11:19Z</time>
      </trkpt>
      <trkpt lat="45.1193" lon="6.41766">
        <ele>1642.8</ele>
        <time>2021-02-28T09:11:20Z</time>
      </trkpt>
      <trkpt lat="45.1193" lon="6.41766">
        <ele>1642.4</ele>
        <time>2021-02-28T09:11:21Z</time>
      </trkpt>
      <trkpt lat="45.1193" lon="6.41766">
        <ele>1642.2</ele>
        <time>2021-02-28T09:11:22Z</time>
      </trkpt>
      <trkpt lat="45.1193" lon="6.41767">
        <ele>1642</ele>
        <time>2021-02-28T09:11:23Z</time>
      </trkpt>
      <trkpt lat="45.1193" lon="6.41767">
        <ele>1642.2</ele>
        <time>2021-02-28T09:11:24Z</time>
      </trkpt>
      <trkpt lat="45.1193" lon="6.41767">
        <ele>1642.4</ele>
        <time>2021-02-28T09:11:25Z</time>
      </trkpt>
      <trkpt lat="45.1193" lon="6.41767">
        <ele>1642.6</ele>
        <time>2021-02-28T09:11:26Z</time>
      </trkpt>
      <trkpt lat="45.1193" lon="6.41767">
        <ele>1643</ele>
        <time>2021-02-28T09:11:27Z</time>
      </trkpt>
      <trkpt lat="45.1193" lon="6.41767">
        <ele>1643</ele>
        <time>2021-02-28T09:11:28Z</time>
      </trkpt>
      <trkpt lat="45.1193" lon="6.41767">
        <ele>1643.2</ele>
        <time>2021-02-28T09:11:29Z</time>
      </trkpt>
      <trkpt lat="45.1193" lon="6.41767">
        <ele>1643.2</ele>
        <time>2021-02-28T09:11:30Z</time>
      </trkpt>
      <trkpt lat="45.1193" lon="6.41768">
        <ele>1643.4</ele>
        <time>2021-02-28T09:11:31Z</time>
      </trkpt>
      <trkpt lat="45.1193" lon="6.41768">
        <ele>1643.6</ele>
        <time>2021-02-28T09:11:32Z</time>
      </trkpt>
      <trkpt lat="45.1193" lon="6.41768">
        <ele>1643.8</ele>
        <time>2021-02-28T09:11:33Z</time>
      </trkpt>
      <trkpt lat="45.1193" lon="6.41769">
        <ele>1644.2</ele>
        <time>2021-02-28T09:11:34Z</time>
      </trkpt>
      <trkpt lat="45.11929" lon="6.4177">
        <ele>1644.6</ele>
        <time>2021-02-28T09:11:35Z</time>
      </trkpt>
      <trkpt lat="45.11929" lon="6.41772">
        <ele>1644.6</ele>
        <time>2021-02-28T09:11:36Z</time>
      </trkpt>
      <trkpt lat="45.11928" lon="6.41773">
        <ele>1644.8</ele>
        <time>2021-02-28T09:11:37Z</time>
      </trkpt>
      <trkpt lat="45.11928" lon="6.41774">
        <ele>1644.8</ele>
        <time>2021-02-28T09:11:38Z</time>
      </trkpt>
      <trkpt lat="45.11927" lon="6.41776">
        <ele>1645</ele>
        <time>2021-02-28T09:11:39Z</time>
      </trkpt>
      <trkpt lat="45.11927" lon="6.41777">
        <ele>1644.8</ele>
        <time>2021-02-28T09:11:40Z</time>
      </trkpt>
      <trkpt lat="45.11926" lon="6.41778">
        <ele>1644.4</ele>
        <time>2021-02-28T09:11:41Z</time>
      </trkpt>
      <trkpt lat="45.11925" lon="6.4178">
        <ele>1644.4</ele>
        <time>2021-02-28T09:11:42Z</time>
      </trkpt>
      <trkpt lat="45.11925" lon="6.41782">
        <ele>1644.2</ele>
        <time>2021-02-28T09:11:43Z</time>
      </trkpt>
      <trkpt lat="45.11925" lon="6.41784">
        <ele>1644.2</ele>
        <time>2021-02-28T09:11:44Z</time>
      </trkpt>
      <trkpt lat="45.11924" lon="6.41786">
        <ele>1644.2</ele>
        <time>2021-02-28T09:11:45Z</time>
      </trkpt>
      <trkpt lat="45.11924" lon="6.41788">
        <ele>1644.4</ele>
        <time>2021-02-28T09:11:46Z</time>
      </trkpt>
      <trkpt lat="45.11923" lon="6.4179">
        <ele>1644.4</ele>
        <time>2021-02-28T09:11:47Z</time>
      </trkpt>
      <trkpt lat="45.11923" lon="6.41792">
        <ele>1644.6</ele>
        <time>2021-02-28T09:11:48Z</time>
      </trkpt>
      <trkpt lat="45.11922" lon="6.41794">
        <ele>1644.6</ele>
        <time>2021-02-28T09:11:49Z</time>
      </trkpt>
      <trkpt lat="45.11922" lon="6.41794">
        <ele>1644.8</ele>
        <time>2021-02-28T09:11:50Z</time>
      </trkpt>
      <trkpt lat="45.11922" lon="6.41794">
        <ele>1644.8</ele>
        <time>2021-02-28T09:11:51Z</time>
      </trkpt>
      <trkpt lat="45.11922" lon="6.41795">
        <ele>1644.8</ele>
        <time>2021-02-28T09:11:52Z</time>
      </trkpt>
      <trkpt lat="45.11921" lon="6.41796">
        <ele>1644.8</ele>
        <time>2021-02-28T09:11:53Z</time>
      </trkpt>
      <trkpt lat="45.11921" lon="6.41798">
        <ele>1645</ele>
        <time>2021-02-28T09:11:54Z</time>
      </trkpt>
      <trkpt lat="45.11921" lon="6.41799">
        <ele>1645.2</ele>
        <time>2021-02-28T09:11:55Z</time>
      </trkpt>
      <trkpt lat="45.1192" lon="6.418">
        <ele>1645.4</ele>
        <time>2021-02-28T09:11:56Z</time>
      </trkpt>
      <trkpt lat="45.1192" lon="6.41801">
        <ele>1645.4</ele>
        <time>2021-02-28T09:11:57Z</time>
      </trkpt>
      <trkpt lat="45.11919" lon="6.41802">
        <ele>1645.6</ele>
        <time>2021-02-28T09:11:58Z</time>
      </trkpt>
      <trkpt lat="45.11919" lon="6.41803">
        <ele>1645.8</ele>
        <time>2021-02-28T09:11:59Z</time>
      </trkpt>
      <trkpt lat="45.11919" lon="6.41804">
        <ele>1645.6</ele>
        <time>2021-02-28T09:12:00Z</time>
      </trkpt>
      <trkpt lat="45.11918" lon="6.41805">
        <ele>1646</ele>
        <time>2021-02-28T09:12:01Z</time>
      </trkpt>
      <trkpt lat="45.11918" lon="6.41807">
        <ele>1645.8</ele>
        <time>2021-02-28T09:12:02Z</time>
      </trkpt>
      <trkpt lat="45.11917" lon="6.41808">
        <ele>1646</ele>
        <time>2021-02-28T09:12:03Z</time>
      </trkpt>
      <trkpt lat="45.11916" lon="6.4181">
        <ele>1646.2</ele>
        <time>2021-02-28T09:12:04Z</time>
      </trkpt>
      <trkpt lat="45.11915" lon="6.41811">
        <ele>1646.4</ele>
        <time>2021-02-28T09:12:05Z</time>
      </trkpt>
      <trkpt lat="45.11915" lon="6.41813">
        <ele>1646.6</ele>
        <time>2021-02-28T09:12:06Z</time>
      </trkpt>
      <trkpt lat="45.11914" lon="6.41814">
        <ele>1646.8</ele>
        <time>2021-02-28T09:12:07Z</time>
      </trkpt>
      <trkpt lat="45.11913" lon="6.41816">
        <ele>1646.8</ele>
        <time>2021-02-28T09:12:08Z</time>
      </trkpt>
      <trkpt lat="45.11912" lon="6.41817">
        <ele>1647</ele>
        <time>2021-02-28T09:12:09Z</time>
      </trkpt>
      <trkpt lat="45.11911" lon="6.41819">
        <ele>1646.8</ele>
        <time>2021-02-28T09:12:10Z</time>
      </trkpt>
      <trkpt lat="45.1191" lon="6.4182">
        <ele>1646.6</ele>
        <time>2021-02-28T09:12:11Z</time>
      </trkpt>
      <trkpt lat="45.11909" lon="6.41821">
        <ele>1646.6</ele>
        <time>2021-02-28T09:12:12Z</time>
      </trkpt>
      <trkpt lat="45.11908" lon="6.41822">
        <ele>1646.6</ele>
        <time>2021-02-28T09:12:13Z</time>
      </trkpt>
      <trkpt lat="45.11907" lon="6.41824">
        <ele>1646.8</ele>
        <time>2021-02-28T09:12:14Z</time>
      </trkpt>
      <trkpt lat="45.11906" lon="6.41825">
        <ele>1647</ele>
        <time>2021-02-28T09:12:15Z</time>
      </trkpt>
      <trkpt lat="45.11905" lon="6.41826">
        <ele>1647.4</ele>
        <time>2021-02-28T09:12:16Z</time>
      </trkpt>
      <trkpt lat="45.11904" lon="6.41828">
        <ele>1647.8</ele>
        <time>2021-02-28T09:12:17Z</time>
      </trkpt>
      <trkpt lat="45.11903" lon="6.41829">
        <ele>1648</ele>
        <time>2021-02-28T09:12:18Z</time>
      </trkpt>
      <trkpt lat="45.11902" lon="6.4183">
        <ele>1648.2</ele>
        <time>2021-02-28T09:12:19Z</time>
      </trkpt>
      <trkpt lat="45.11901" lon="6.41831">
        <ele>1648.6</ele>
        <time>2021-02-28T09:12:20Z</time>
      </trkpt>
      <trkpt lat="45.119" lon="6.41832">
        <ele>1648.8</ele>
        <time>2021-02-28T09:12:21Z</time>
      </trkpt>
      <trkpt lat="45.11899" lon="6.41833">
        <ele>1648.8</ele>
        <time>2021-02-28T09:12:22Z</time>
      </trkpt>
      <trkpt lat="45.11898" lon="6.41834">
        <ele>1648.8</ele>
        <time>2021-02-28T09:12:23Z</time>
      </trkpt>
      <trkpt lat="45.11897" lon="6.41835">
        <ele>1648.6</ele>
        <time>2021-02-28T09:12:24Z</time>
      </trkpt>
      <trkpt lat="45.11896" lon="6.41837">
        <ele>1649.2</ele>
        <time>2021-02-28T09:12:25Z</time>
      </trkpt>
      <trkpt lat="45.11895" lon="6.41838">
        <ele>1649.2</ele>
        <time>2021-02-28T09:12:26Z</time>
      </trkpt>
      <trkpt lat="45.11893" lon="6.41839">
        <ele>1649.2</ele>
        <time>2021-02-28T09:12:27Z</time>
      </trkpt>
      <trkpt lat="45.11892" lon="6.4184">
        <ele>1649.4</ele>
        <time>2021-02-28T09:12:28Z</time>
      </trkpt>
      <trkpt lat="45.11891" lon="6.41841">
        <ele>1649.6</ele>
        <time>2021-02-28T09:12:29Z</time>
      </trkpt>
      <trkpt lat="45.11889" lon="6.41842">
        <ele>1649.8</ele>
        <time>2021-02-28T09:12:30Z</time>
      </trkpt>
      <trkpt lat="45.11888" lon="6.41843">
        <ele>1650</ele>
        <time>2021-02-28T09:12:31Z</time>
      </trkpt>
      <trkpt lat="45.11886" lon="6.41844">
        <ele>1649.8</ele>
        <time>2021-02-28T09:12:32Z</time>
      </trkpt>
      <trkpt lat="45.11885" lon="6.41845">
        <ele>1650</ele>
        <time>2021-02-28T09:12:33Z</time>
      </trkpt>
      <trkpt lat="45.11884" lon="6.41846">
        <ele>1650.2</ele>
        <time>2021-02-28T09:12:34Z</time>
      </trkpt>
      <trkpt lat="45.11883" lon="6.41847">
        <ele>1650.2</ele>
        <time>2021-02-28T09:12:35Z</time>
      </trkpt>
      <trkpt lat="45.11882" lon="6.41848">
        <ele>1650.6</ele>
        <time>2021-02-28T09:12:36Z</time>
      </trkpt>
      <trkpt lat="45.1188" lon="6.41849">
        <ele>1651</ele>
        <time>2021-02-28T09:12:37Z</time>
      </trkpt>
      <trkpt lat="45.11879" lon="6.4185">
        <ele>1651.4</ele>
        <time>2021-02-28T09:12:38Z</time>
      </trkpt>
      <trkpt lat="45.11878" lon="6.41851">
        <ele>1651.8</ele>
        <time>2021-02-28T09:12:39Z</time>
      </trkpt>
      <trkpt lat="45.11877" lon="6.41853">
        <ele>1651.8</ele>
        <time>2021-02-28T09:12:40Z</time>
      </trkpt>
      <trkpt lat="45.11876" lon="6.41854">
        <ele>1651.6</ele>
        <time>2021-02-28T09:12:41Z</time>
      </trkpt>
      <trkpt lat="45.11875" lon="6.41856">
        <ele>1651.8</ele>
        <time>2021-02-28T09:12:42Z</time>
      </trkpt>
      <trkpt lat="45.11875" lon="6.41857">
        <ele>1652</ele>
        <time>2021-02-28T09:12:43Z</time>
      </trkpt>
      <trkpt lat="45.11874" lon="6.41859">
        <ele>1652</ele>
        <time>2021-02-28T09:12:44Z</time>
      </trkpt>
      <trkpt lat="45.11873" lon="6.4186">
        <ele>1652.4</ele>
        <time>2021-02-28T09:12:45Z</time>
      </trkpt>
      <trkpt lat="45.11872" lon="6.41862">
        <ele>1652.8</ele>
        <time>2021-02-28T09:12:46Z</time>
      </trkpt>
      <trkpt lat="45.11872" lon="6.41863">
        <ele>1652.8</ele>
        <time>2021-02-28T09:12:47Z</time>
      </trkpt>
      <trkpt lat="45.11871" lon="6.41864">
        <ele>1652.6</ele>
        <time>2021-02-28T09:12:48Z</time>
      </trkpt>
      <trkpt lat="45.11871" lon="6.41866">
        <ele>1653</ele>
        <time>2021-02-28T09:12:49Z</time>
      </trkpt>
      <trkpt lat="45.1187" lon="6.41867">
        <ele>1652.8</ele>
        <time>2021-02-28T09:12:50Z</time>
      </trkpt>
      <trkpt lat="45.1187" lon="6.41868">
        <ele>1653</ele>
        <time>2021-02-28T09:12:51Z</time>
      </trkpt>
      <trkpt lat="45.11869" lon="6.41869">
        <ele>1653</ele>
        <time>2021-02-28T09:12:52Z</time>
      </trkpt>
      <trkpt lat="45.11868" lon="6.41871">
        <ele>1652.8</ele>
        <time>2021-02-28T09:12:53Z</time>
      </trkpt>
      <trkpt lat="45.11868" lon="6.41872">
        <ele>1653</ele>
        <time>2021-02-28T09:12:54Z</time>
      </trkpt>
      <trkpt lat="45.11867" lon="6.41874">
        <ele>1652.8</ele>
        <time>2021-02-28T09:12:55Z</time>
      </trkpt>
      <trkpt lat="45.11866" lon="6.41876">
        <ele>1653.2</ele>
        <time>2021-02-28T09:12:56Z</time>
      </trkpt>
      <trkpt lat="45.11866" lon="6.41878">
        <ele>1653.4</ele>
        <time>2021-02-28T09:12:57Z</time>
      </trkpt>
      <trkpt lat="45.11865" lon="6.41879">
        <ele>1653.6</ele>
        <time>2021-02-28T09:12:58Z</time>
      </trkpt>
      <trkpt lat="45.11864" lon="6.41881">
        <ele>1653.6</ele>
        <time>2021-02-28T09:12:59Z</time>
      </trkpt>
      <trkpt lat="45.11863" lon="6.41883">
        <ele>1653.8</ele>
        <time>2021-02-28T09:13:00Z</time>
      </trkpt>
      <trkpt lat="45.11862" lon="6.41885">
        <ele>1654.2</ele>
        <time>2021-02-28T09:13:01Z</time>
      </trkpt>
      <trkpt lat="45.11861" lon="6.41887">
        <ele>1654.4</ele>
        <time>2021-02-28T09:13:02Z</time>
      </trkpt>
      <trkpt lat="45.1186" lon="6.41888">
        <ele>1654.4</ele>
        <time>2021-02-28T09:13:03Z</time>
      </trkpt>
      <trkpt lat="45.11859" lon="6.4189">
        <ele>1654.4</ele>
        <time>2021-02-28T09:13:04Z</time>
      </trkpt>
      <trkpt lat="45.11858" lon="6.41892">
        <ele>1654.4</ele>
        <time>2021-02-28T09:13:05Z</time>
      </trkpt>
      <trkpt lat="45.11857" lon="6.41894">
        <ele>1654.8</ele>
        <time>2021-02-28T09:13:06Z</time>
      </trkpt>
      <trkpt lat="45.11857" lon="6.41895">
        <ele>1654.8</ele>
        <time>2021-02-28T09:13:07Z</time>
      </trkpt>
      <trkpt lat="45.11856" lon="6.41896">
        <ele>1655.2</ele>
        <time>2021-02-28T09:13:08Z</time>
      </trkpt>
      <trkpt lat="45.11855" lon="6.41897">
        <ele>1655.4</ele>
        <time>2021-02-28T09:13:09Z</time>
      </trkpt>
      <trkpt lat="45.11855" lon="6.41898">
        <ele>1655.8</ele>
        <time>2021-02-28T09:13:10Z</time>
      </trkpt>
      <trkpt lat="45.11854" lon="6.419">
        <ele>1655.8</ele>
        <time>2021-02-28T09:13:11Z</time>
      </trkpt>
      <trkpt lat="45.11853" lon="6.41901">
        <ele>1655.8</ele>
        <time>2021-02-28T09:13:12Z</time>
      </trkpt>
      <trkpt lat="45.11853" lon="6.41902">
        <ele>1655.8</ele>
        <time>2021-02-28T09:13:13Z</time>
      </trkpt>
      <trkpt lat="45.11852" lon="6.41903">
        <ele>1655.8</ele>
        <time>2021-02-28T09:13:14Z</time>
      </trkpt>
      <trkpt lat="45.11851" lon="6.41905">
        <ele>1655.8</ele>
        <time>2021-02-28T09:13:15Z</time>
      </trkpt>
      <trkpt lat="45.11849" lon="6.41907">
        <ele>1656</ele>
        <time>2021-02-28T09:13:16Z</time>
      </trkpt>
      <trkpt lat="45.11848" lon="6.41909">
        <ele>1656.2</ele>
        <time>2021-02-28T09:13:17Z</time>
      </trkpt>
      <trkpt lat="45.11846" lon="6.41911">
        <ele>1656.2</ele>
        <time>2021-02-28T09:13:18Z</time>
      </trkpt>
      <trkpt lat="45.11844" lon="6.41913">
        <ele>1656.6</ele>
        <time>2021-02-28T09:13:19Z</time>
      </trkpt>
      <trkpt lat="45.11843" lon="6.41915">
        <ele>1657</ele>
        <time>2021-02-28T09:13:20Z</time>
      </trkpt>
      <trkpt lat="45.11842" lon="6.41916">
        <ele>1657.2</ele>
        <time>2021-02-28T09:13:21Z</time>
      </trkpt>
      <trkpt lat="45.1184" lon="6.41918">
        <ele>1657.4</ele>
        <time>2021-02-28T09:13:22Z</time>
      </trkpt>
      <trkpt lat="45.11839" lon="6.4192">
        <ele>1657.6</ele>
        <time>2021-02-28T09:13:23Z</time>
      </trkpt>
      <trkpt lat="45.11838" lon="6.41921">
        <ele>1657.6</ele>
        <time>2021-02-28T09:13:24Z</time>
      </trkpt>
      <trkpt lat="45.11836" lon="6.41923">
        <ele>1657.6</ele>
        <time>2021-02-28T09:13:25Z</time>
      </trkpt>
      <trkpt lat="45.11833" lon="6.41924">
        <ele>1657.8</ele>
        <time>2021-02-28T09:13:26Z</time>
      </trkpt>
      <trkpt lat="45.11831" lon="6.41926">
        <ele>1657.6</ele>
        <time>2021-02-28T09:13:27Z</time>
      </trkpt>
      <trkpt lat="45.11829" lon="6.41927">
        <ele>1657.8</ele>
        <time>2021-02-28T09:13:28Z</time>
      </trkpt>
      <trkpt lat="45.11827" lon="6.41928">
        <ele>1657.8</ele>
        <time>2021-02-28T09:13:29Z</time>
      </trkpt>
      <trkpt lat="45.11826" lon="6.4193">
        <ele>1658</ele>
        <time>2021-02-28T09:13:30Z</time>
      </trkpt>
      <trkpt lat="45.11824" lon="6.41931">
        <ele>1658</ele>
        <time>2021-02-28T09:13:31Z</time>
      </trkpt>
      <trkpt lat="45.11823" lon="6.41933">
        <ele>1658.4</ele>
        <time>2021-02-28T09:13:32Z</time>
      </trkpt>
      <trkpt lat="45.11821" lon="6.41934">
        <ele>1658.6</ele>
        <time>2021-02-28T09:13:33Z</time>
      </trkpt>
      <trkpt lat="45.1182" lon="6.41935">
        <ele>1658.6</ele>
        <time>2021-02-28T09:13:34Z</time>
      </trkpt>
      <trkpt lat="45.11818" lon="6.41936">
        <ele>1658.8</ele>
        <time>2021-02-28T09:13:35Z</time>
      </trkpt>
      <trkpt lat="45.11816" lon="6.41938">
        <ele>1659</ele>
        <time>2021-02-28T09:13:36Z</time>
      </trkpt>
      <trkpt lat="45.11815" lon="6.41939">
        <ele>1659</ele>
        <time>2021-02-28T09:13:37Z</time>
      </trkpt>
      <trkpt lat="45.11813" lon="6.4194">
        <ele>1659</ele>
        <time>2021-02-28T09:13:38Z</time>
      </trkpt>
      <trkpt lat="45.11813" lon="6.41942">
        <ele>1659</ele>
        <time>2021-02-28T09:13:39Z</time>
      </trkpt>
      <trkpt lat="45.11812" lon="6.41943">
        <ele>1659.6</ele>
        <time>2021-02-28T09:13:40Z</time>
      </trkpt>
      <trkpt lat="45.11812" lon="6.41944">
        <ele>1659.8</ele>
        <time>2021-02-28T09:13:41Z</time>
      </trkpt>
      <trkpt lat="45.11811" lon="6.41945">
        <ele>1660</ele>
        <time>2021-02-28T09:13:42Z</time>
      </trkpt>
      <trkpt lat="45.11811" lon="6.41946">
        <ele>1660.4</ele>
        <time>2021-02-28T09:13:43Z</time>
      </trkpt>
      <trkpt lat="45.1181" lon="6.41948">
        <ele>1660.6</ele>
        <time>2021-02-28T09:13:44Z</time>
      </trkpt>
      <trkpt lat="45.1181" lon="6.41949">
        <ele>1660.8</ele>
        <time>2021-02-28T09:13:45Z</time>
      </trkpt>
      <trkpt lat="45.11809" lon="6.4195">
        <ele>1661</ele>
        <time>2021-02-28T09:13:46Z</time>
      </trkpt>
      <trkpt lat="45.11809" lon="6.41951">
        <ele>1661.2</ele>
        <time>2021-02-28T09:13:47Z</time>
      </trkpt>
      <trkpt lat="45.11809" lon="6.41952">
        <ele>1661</ele>
        <time>2021-02-28T09:13:48Z</time>
      </trkpt>
      <trkpt lat="45.11808" lon="6.41954">
        <ele>1661</ele>
        <time>2021-02-28T09:13:49Z</time>
      </trkpt>
      <trkpt lat="45.11807" lon="6.41956">
        <ele>1661.6</ele>
        <time>2021-02-28T09:13:50Z</time>
      </trkpt>
      <trkpt lat="45.11806" lon="6.41958">
        <ele>1661.8</ele>
        <time>2021-02-28T09:13:51Z</time>
      </trkpt>
      <trkpt lat="45.11805" lon="6.4196">
        <ele>1662</ele>
        <time>2021-02-28T09:13:52Z</time>
      </trkpt>
      <trkpt lat="45.11804" lon="6.41962">
        <ele>1662.2</ele>
        <time>2021-02-28T09:13:53Z</time>
      </trkpt>
      <trkpt lat="45.11804" lon="6.41964">
        <ele>1662.2</ele>
        <time>2021-02-28T09:13:54Z</time>
      </trkpt>
      <trkpt lat="45.11803" lon="6.41965">
        <ele>1662.4</ele>
        <time>2021-02-28T09:13:55Z</time>
      </trkpt>
      <trkpt lat="45.11803" lon="6.41968">
        <ele>1662.4</ele>
        <time>2021-02-28T09:13:56Z</time>
      </trkpt>
      <trkpt lat="45.11803" lon="6.4197">
        <ele>1662.8</ele>
        <time>2021-02-28T09:13:57Z</time>
      </trkpt>
      <trkpt lat="45.11802" lon="6.41972">
        <ele>1663.2</ele>
        <time>2021-02-28T09:13:58Z</time>
      </trkpt>
      <trkpt lat="45.11802" lon="6.41974">
        <ele>1663.4</ele>
        <time>2021-02-28T09:13:59Z</time>
      </trkpt>
      <trkpt lat="45.11802" lon="6.41976">
        <ele>1663.6</ele>
        <time>2021-02-28T09:14:00Z</time>
      </trkpt>
      <trkpt lat="45.11802" lon="6.41978">
        <ele>1663.8</ele>
        <time>2021-02-28T09:14:01Z</time>
      </trkpt>
      <trkpt lat="45.11802" lon="6.41981">
        <ele>1664</ele>
        <time>2021-02-28T09:14:02Z</time>
      </trkpt>
      <trkpt lat="45.11802" lon="6.41983">
        <ele>1664.4</ele>
        <time>2021-02-28T09:14:03Z</time>
      </trkpt>
      <trkpt lat="45.11802" lon="6.41985">
        <ele>1664.8</ele>
        <time>2021-02-28T09:14:04Z</time>
      </trkpt>
      <trkpt lat="45.11802" lon="6.41987">
        <ele>1665.2</ele>
        <time>2021-02-28T09:14:05Z</time>
      </trkpt>
      <trkpt lat="45.11802" lon="6.4199">
        <ele>1665.4</ele>
        <time>2021-02-28T09:14:06Z</time>
      </trkpt>
      <trkpt lat="45.11802" lon="6.41992">
        <ele>1665.6</ele>
        <time>2021-02-28T09:14:07Z</time>
      </trkpt>
      <trkpt lat="45.11802" lon="6.41994">
        <ele>1666</ele>
        <time>2021-02-28T09:14:08Z</time>
      </trkpt>
      <trkpt lat="45.11802" lon="6.41996">
        <ele>1666.2</ele>
        <time>2021-02-28T09:14:09Z</time>
      </trkpt>
      <trkpt lat="45.11802" lon="6.41998">
        <ele>1666.6</ele>
        <time>2021-02-28T09:14:10Z</time>
      </trkpt>
      <trkpt lat="45.11801" lon="6.42">
        <ele>1666.6</ele>
        <time>2021-02-28T09:14:11Z</time>
      </trkpt>
      <trkpt lat="45.11801" lon="6.42003">
        <ele>1666.4</ele>
        <time>2021-02-28T09:14:12Z</time>
      </trkpt>
      <trkpt lat="45.11801" lon="6.42005">
        <ele>1666.8</ele>
        <time>2021-02-28T09:14:13Z</time>
      </trkpt>
      <trkpt lat="45.118" lon="6.42007">
        <ele>1667.2</ele>
        <time>2021-02-28T09:14:14Z</time>
      </trkpt>
      <trkpt lat="45.118" lon="6.42009">
        <ele>1667.6</ele>
        <time>2021-02-28T09:14:15Z</time>
      </trkpt>
      <trkpt lat="45.11799" lon="6.42011">
        <ele>1667.8</ele>
        <time>2021-02-28T09:14:16Z</time>
      </trkpt>
      <trkpt lat="45.11799" lon="6.42013">
        <ele>1668</ele>
        <time>2021-02-28T09:14:17Z</time>
      </trkpt>
      <trkpt lat="45.11798" lon="6.42015">
        <ele>1668.2</ele>
        <time>2021-02-28T09:14:18Z</time>
      </trkpt>
      <trkpt lat="45.11798" lon="6.42017">
        <ele>1668.4</ele>
        <time>2021-02-28T09:14:19Z</time>
      </trkpt>
      <trkpt lat="45.11796" lon="6.42019">
        <ele>1668.6</ele>
        <time>2021-02-28T09:14:20Z</time>
      </trkpt>
      <trkpt lat="45.11795" lon="6.42021">
        <ele>1668.6</ele>
        <time>2021-02-28T09:14:21Z</time>
      </trkpt>
      <trkpt lat="45.11794" lon="6.42023">
        <ele>1669</ele>
        <time>2021-02-28T09:14:22Z</time>
      </trkpt>
      <trkpt lat="45.11793" lon="6.42025">
        <ele>1669.4</ele>
        <time>2021-02-28T09:14:23Z</time>
      </trkpt>
      <trkpt lat="45.11791" lon="6.42027">
        <ele>1669.8</ele>
        <time>2021-02-28T09:14:24Z</time>
      </trkpt>
      <trkpt lat="45.1179" lon="6.42028">
        <ele>1669.8</ele>
        <time>2021-02-28T09:14:25Z</time>
      </trkpt>
      <trkpt lat="45.11789" lon="6.4203">
        <ele>1670</ele>
        <time>2021-02-28T09:14:26Z</time>
      </trkpt>
      <trkpt lat="45.11788" lon="6.42031">
        <ele>1670.2</ele>
        <time>2021-02-28T09:14:27Z</time>
      </trkpt>
      <trkpt lat="45.11788" lon="6.42033">
        <ele>1670.6</ele>
        <time>2021-02-28T09:14:28Z</time>
      </trkpt>
      <trkpt lat="45.11787" lon="6.42034">
        <ele>1670.8</ele>
        <time>2021-02-28T09:14:29Z</time>
      </trkpt>
      <trkpt lat="45.11786" lon="6.42035">
        <ele>1671</ele>
        <time>2021-02-28T09:14:30Z</time>
      </trkpt>
      <trkpt lat="45.11785" lon="6.42037">
        <ele>1671</ele>
        <time>2021-02-28T09:14:31Z</time>
      </trkpt>
      <trkpt lat="45.11783" lon="6.42037">
        <ele>1671.4</ele>
        <time>2021-02-28T09:14:32Z</time>
      </trkpt>
      <trkpt lat="45.11781" lon="6.42038">
        <ele>1671.4</ele>
        <time>2021-02-28T09:14:33Z</time>
      </trkpt>
      <trkpt lat="45.11779" lon="6.42038">
        <ele>1671.2</ele>
        <time>2021-02-28T09:14:34Z</time>
      </trkpt>
      <trkpt lat="45.11777" lon="6.42038">
        <ele>1671.2</ele>
        <time>2021-02-28T09:14:35Z</time>
      </trkpt>
      <trkpt lat="45.11775" lon="6.42039">
        <ele>1671.6</ele>
        <time>2021-02-28T09:14:36Z</time>
      </trkpt>
      <trkpt lat="45.11773" lon="6.42039">
        <ele>1671.8</ele>
        <time>2021-02-28T09:14:37Z</time>
      </trkpt>
      <trkpt lat="45.11771" lon="6.42038">
        <ele>1672</ele>
        <time>2021-02-28T09:14:38Z</time>
      </trkpt>
      <trkpt lat="45.11769" lon="6.42038">
        <ele>1672.2</ele>
        <time>2021-02-28T09:14:39Z</time>
      </trkpt>
      <trkpt lat="45.11766" lon="6.42037">
        <ele>1672</ele>
        <time>2021-02-28T09:14:40Z</time>
      </trkpt>
      <trkpt lat="45.11764" lon="6.42037">
        <ele>1671.8</ele>
        <time>2021-02-28T09:14:41Z</time>
      </trkpt>
      <trkpt lat="45.11763" lon="6.42037">
        <ele>1672</ele>
        <time>2021-02-28T09:14:42Z</time>
      </trkpt>
      <trkpt lat="45.11761" lon="6.42038">
        <ele>1671.8</ele>
        <time>2021-02-28T09:14:43Z</time>
      </trkpt>
      <trkpt lat="45.11759" lon="6.42038">
        <ele>1671.8</ele>
        <time>2021-02-28T09:14:44Z</time>
      </trkpt>
      <trkpt lat="45.11758" lon="6.42038">
        <ele>1671.8</ele>
        <time>2021-02-28T09:14:45Z</time>
      </trkpt>
      <trkpt lat="45.11756" lon="6.42039">
        <ele>1672</ele>
        <time>2021-02-28T09:14:46Z</time>
      </trkpt>
      <trkpt lat="45.11754" lon="6.42039">
        <ele>1672</ele>
        <time>2021-02-28T09:14:47Z</time>
      </trkpt>
      <trkpt lat="45.11752" lon="6.4204">
        <ele>1672.4</ele>
        <time>2021-02-28T09:14:48Z</time>
      </trkpt>
      <trkpt lat="45.11751" lon="6.4204">
        <ele>1672.6</ele>
        <time>2021-02-28T09:14:49Z</time>
      </trkpt>
      <trkpt lat="45.11749" lon="6.42041">
        <ele>1672.6</ele>
        <time>2021-02-28T09:14:50Z</time>
      </trkpt>
      <trkpt lat="45.11747" lon="6.42041">
        <ele>1672.8</ele>
        <time>2021-02-28T09:14:51Z</time>
      </trkpt>
      <trkpt lat="45.11745" lon="6.42042">
        <ele>1673</ele>
        <time>2021-02-28T09:14:52Z</time>
      </trkpt>
      <trkpt lat="45.11744" lon="6.42043">
        <ele>1673.6</ele>
        <time>2021-02-28T09:14:53Z</time>
      </trkpt>
      <trkpt lat="45.11742" lon="6.42043">
        <ele>1674</ele>
        <time>2021-02-28T09:14:54Z</time>
      </trkpt>
      <trkpt lat="45.11741" lon="6.42044">
        <ele>1673.8</ele>
        <time>2021-02-28T09:14:55Z</time>
      </trkpt>
      <trkpt lat="45.11739" lon="6.42045">
        <ele>1673.8</ele>
        <time>2021-02-28T09:14:56Z</time>
      </trkpt>
      <trkpt lat="45.11737" lon="6.42046">
        <ele>1674</ele>
        <time>2021-02-28T09:14:57Z</time>
      </trkpt>
      <trkpt lat="45.11736" lon="6.42047">
        <ele>1674</ele>
        <time>2021-02-28T09:14:58Z</time>
      </trkpt>
      <trkpt lat="45.11734" lon="6.42048">
        <ele>1674</ele>
        <time>2021-02-28T09:14:59Z</time>
      </trkpt>
      <trkpt lat="45.11733" lon="6.42049">
        <ele>1674</ele>
        <time>2021-02-28T09:15:00Z</time>
      </trkpt>
      <trkpt lat="45.11731" lon="6.4205">
        <ele>1674</ele>
        <time>2021-02-28T09:15:01Z</time>
      </trkpt>
      <trkpt lat="45.1173" lon="6.42051">
        <ele>1674.2</ele>
        <time>2021-02-28T09:15:02Z</time>
      </trkpt>
      <trkpt lat="45.11728" lon="6.42052">
        <ele>1674.6</ele>
        <time>2021-02-28T09:15:03Z</time>
      </trkpt>
      <trkpt lat="45.11726" lon="6.42052">
        <ele>1674.8</ele>
        <time>2021-02-28T09:15:04Z</time>
      </trkpt>
      <trkpt lat="45.11725" lon="6.42053">
        <ele>1675.4</ele>
        <time>2021-02-28T09:15:05Z</time>
      </trkpt>
      <trkpt lat="45.11723" lon="6.42054">
        <ele>1675.8</ele>
        <time>2021-02-28T09:15:06Z</time>
      </trkpt>
      <trkpt lat="45.11722" lon="6.42056">
        <ele>1676.2</ele>
        <time>2021-02-28T09:15:07Z</time>
      </trkpt>
      <trkpt lat="45.1172" lon="6.42057">
        <ele>1676.2</ele>
        <time>2021-02-28T09:15:08Z</time>
      </trkpt>
      <trkpt lat="45.11719" lon="6.42058">
        <ele>1676.2</ele>
        <time>2021-02-28T09:15:09Z</time>
      </trkpt>
      <trkpt lat="45.11717" lon="6.42059">
        <ele>1676</ele>
        <time>2021-02-28T09:15:10Z</time>
      </trkpt>
      <trkpt lat="45.11716" lon="6.4206">
        <ele>1676</ele>
        <time>2021-02-28T09:15:11Z</time>
      </trkpt>
      <trkpt lat="45.11715" lon="6.42061">
        <ele>1676.2</ele>
        <time>2021-02-28T09:15:12Z</time>
      </trkpt>
      <trkpt lat="45.11713" lon="6.42063">
        <ele>1676.2</ele>
        <time>2021-02-28T09:15:13Z</time>
      </trkpt>
      <trkpt lat="45.11712" lon="6.42064">
        <ele>1676.8</ele>
        <time>2021-02-28T09:15:14Z</time>
      </trkpt>
      <trkpt lat="45.11711" lon="6.42065">
        <ele>1677.2</ele>
        <time>2021-02-28T09:15:15Z</time>
      </trkpt>
      <trkpt lat="45.11709" lon="6.42067">
        <ele>1677.8</ele>
        <time>2021-02-28T09:15:16Z</time>
      </trkpt>
      <trkpt lat="45.11708" lon="6.42068">
        <ele>1677.8</ele>
        <time>2021-02-28T09:15:17Z</time>
      </trkpt>
      <trkpt lat="45.11707" lon="6.4207">
        <ele>1677.8</ele>
        <time>2021-02-28T09:15:18Z</time>
      </trkpt>
      <trkpt lat="45.11706" lon="6.42072">
        <ele>1677.6</ele>
        <time>2021-02-28T09:15:19Z</time>
      </trkpt>
      <trkpt lat="45.11704" lon="6.42073">
        <ele>1677.2</ele>
        <time>2021-02-28T09:15:20Z</time>
      </trkpt>
      <trkpt lat="45.11703" lon="6.42075">
        <ele>1677</ele>
        <time>2021-02-28T09:15:21Z</time>
      </trkpt>
      <trkpt lat="45.11702" lon="6.42076">
        <ele>1676.8</ele>
        <time>2021-02-28T09:15:22Z</time>
      </trkpt>
      <trkpt lat="45.117" lon="6.42079">
        <ele>1676.6</ele>
        <time>2021-02-28T09:15:23Z</time>
      </trkpt>
      <trkpt lat="45.11699" lon="6.42081">
        <ele>1676.4</ele>
        <time>2021-02-28T09:15:24Z</time>
      </trkpt>
      <trkpt lat="45.11697" lon="6.42083">
        <ele>1676.8</ele>
        <time>2021-02-28T09:15:25Z</time>
      </trkpt>
      <trkpt lat="45.11696" lon="6.42086">
        <ele>1676.6</ele>
        <time>2021-02-28T09:15:26Z</time>
      </trkpt>
      <trkpt lat="45.11695" lon="6.42088">
        <ele>1676.6</ele>
        <time>2021-02-28T09:15:27Z</time>
      </trkpt>
      <trkpt lat="45.11693" lon="6.4209">
        <ele>1676.6</ele>
        <time>2021-02-28T09:15:28Z</time>
      </trkpt>
      <trkpt lat="45.11691" lon="6.42092">
        <ele>1676.8</ele>
        <time>2021-02-28T09:15:29Z</time>
      </trkpt>
      <trkpt lat="45.11689" lon="6.42094">
        <ele>1677.2</ele>
        <time>2021-02-28T09:15:30Z</time>
      </trkpt>
      <trkpt lat="45.11688" lon="6.42097">
        <ele>1677.2</ele>
        <time>2021-02-28T09:15:31Z</time>
      </trkpt>
      <trkpt lat="45.11686" lon="6.42098">
        <ele>1677.2</ele>
        <time>2021-02-28T09:15:32Z</time>
      </trkpt>
      <trkpt lat="45.11685" lon="6.421">
        <ele>1677.6</ele>
        <time>2021-02-28T09:15:33Z</time>
      </trkpt>
      <trkpt lat="45.11683" lon="6.42101">
        <ele>1677.6</ele>
        <time>2021-02-28T09:15:34Z</time>
      </trkpt>
      <trkpt lat="45.11682" lon="6.42103">
        <ele>1677.4</ele>
        <time>2021-02-28T09:15:35Z</time>
      </trkpt>
      <trkpt lat="45.1168" lon="6.42104">
        <ele>1677.4</ele>
        <time>2021-02-28T09:15:36Z</time>
      </trkpt>
      <trkpt lat="45.11678" lon="6.42106">
        <ele>1677.4</ele>
        <time>2021-02-28T09:15:37Z</time>
      </trkpt>
      <trkpt lat="45.11677" lon="6.42107">
        <ele>1677.4</ele>
        <time>2021-02-28T09:15:38Z</time>
      </trkpt>
      <trkpt lat="45.11675" lon="6.42109">
        <ele>1677.2</ele>
        <time>2021-02-28T09:15:39Z</time>
      </trkpt>
      <trkpt lat="45.11673" lon="6.4211">
        <ele>1677.4</ele>
        <time>2021-02-28T09:15:40Z</time>
      </trkpt>
      <trkpt lat="45.11672" lon="6.42112">
        <ele>1677.4</ele>
        <time>2021-02-28T09:15:41Z</time>
      </trkpt>
      <trkpt lat="45.1167" lon="6.42113">
        <ele>1677.6</ele>
        <time>2021-02-28T09:15:42Z</time>
      </trkpt>
      <trkpt lat="45.11669" lon="6.42114">
        <ele>1677.8</ele>
        <time>2021-02-28T09:15:43Z</time>
      </trkpt>
      <trkpt lat="45.11667" lon="6.42116">
        <ele>1678</ele>
        <time>2021-02-28T09:15:44Z</time>
      </trkpt>
      <trkpt lat="45.11665" lon="6.42117">
        <ele>1678.2</ele>
        <time>2021-02-28T09:15:45Z</time>
      </trkpt>
      <trkpt lat="45.11664" lon="6.42118">
        <ele>1678.6</ele>
        <time>2021-02-28T09:15:46Z</time>
      </trkpt>
      <trkpt lat="45.11662" lon="6.42119">
        <ele>1678.6</ele>
        <time>2021-02-28T09:15:47Z</time>
      </trkpt>
      <trkpt lat="45.11661" lon="6.4212">
        <ele>1678.8</ele>
        <time>2021-02-28T09:15:48Z</time>
      </trkpt>
      <trkpt lat="45.11659" lon="6.42121">
        <ele>1678.8</ele>
        <time>2021-02-28T09:15:49Z</time>
      </trkpt>
      <trkpt lat="45.11658" lon="6.42121">
        <ele>1679</ele>
        <time>2021-02-28T09:15:50Z</time>
      </trkpt>
      <trkpt lat="45.11657" lon="6.42122">
        <ele>1679.6</ele>
        <time>2021-02-28T09:15:51Z</time>
      </trkpt>
      <trkpt lat="45.11655" lon="6.42123">
        <ele>1679.8</ele>
        <time>2021-02-28T09:15:52Z</time>
      </trkpt>
      <trkpt lat="45.11654" lon="6.42124">
        <ele>1680</ele>
        <time>2021-02-28T09:15:53Z</time>
      </trkpt>
      <trkpt lat="45.11652" lon="6.42124">
        <ele>1680.6</ele>
        <time>2021-02-28T09:15:54Z</time>
      </trkpt>
      <trkpt lat="45.11651" lon="6.42125">
        <ele>1680.8</ele>
        <time>2021-02-28T09:15:55Z</time>
      </trkpt>
      <trkpt lat="45.11649" lon="6.42126">
        <ele>1681</ele>
        <time>2021-02-28T09:15:56Z</time>
      </trkpt>
      <trkpt lat="45.11647" lon="6.42126">
        <ele>1681.2</ele>
        <time>2021-02-28T09:15:57Z</time>
      </trkpt>
      <trkpt lat="45.11646" lon="6.42127">
        <ele>1681.4</ele>
        <time>2021-02-28T09:15:58Z</time>
      </trkpt>
      <trkpt lat="45.11644" lon="6.42128">
        <ele>1681</ele>
        <time>2021-02-28T09:15:59Z</time>
      </trkpt>
      <trkpt lat="45.11643" lon="6.42129">
        <ele>1681</ele>
        <time>2021-02-28T09:16:00Z</time>
      </trkpt>
      <trkpt lat="45.11641" lon="6.4213">
        <ele>1681.2</ele>
        <time>2021-02-28T09:16:01Z</time>
      </trkpt>
      <trkpt lat="45.11639" lon="6.42131">
        <ele>1681.4</ele>
        <time>2021-02-28T09:16:02Z</time>
      </trkpt>
      <trkpt lat="45.11638" lon="6.42132">
        <ele>1681.6</ele>
        <time>2021-02-28T09:16:03Z</time>
      </trkpt>
      <trkpt lat="45.11636" lon="6.42133">
        <ele>1681.6</ele>
        <time>2021-02-28T09:16:04Z</time>
      </trkpt>
      <trkpt lat="45.11634" lon="6.42134">
        <ele>1682</ele>
        <time>2021-02-28T09:16:05Z</time>
      </trkpt>
      <trkpt lat="45.11633" lon="6.42135">
        <ele>1682.6</ele>
        <time>2021-02-28T09:16:06Z</time>
      </trkpt>
      <trkpt lat="45.11631" lon="6.42136">
        <ele>1682.4</ele>
        <time>2021-02-28T09:16:07Z</time>
      </trkpt>
      <trkpt lat="45.11629" lon="6.42137">
        <ele>1682.8</ele>
        <time>2021-02-28T09:16:08Z</time>
      </trkpt>
      <trkpt lat="45.11627" lon="6.42138">
        <ele>1682.6</ele>
        <time>2021-02-28T09:16:09Z</time>
      </trkpt>
      <trkpt lat="45.11626" lon="6.42139">
        <ele>1683</ele>
        <time>2021-02-28T09:16:10Z</time>
      </trkpt>
      <trkpt lat="45.11625" lon="6.42141">
        <ele>1683.2</ele>
        <time>2021-02-28T09:16:11Z</time>
      </trkpt>
      <trkpt lat="45.11623" lon="6.42142">
        <ele>1683</ele>
        <time>2021-02-28T09:16:12Z</time>
      </trkpt>
      <trkpt lat="45.11622" lon="6.42143">
        <ele>1683</ele>
        <time>2021-02-28T09:16:13Z</time>
      </trkpt>
      <trkpt lat="45.11621" lon="6.42144">
        <ele>1683</ele>
        <time>2021-02-28T09:16:14Z</time>
      </trkpt>
      <trkpt lat="45.1162" lon="6.42145">
        <ele>1683</ele>
        <time>2021-02-28T09:16:15Z</time>
      </trkpt>
      <trkpt lat="45.11618" lon="6.42146">
        <ele>1683</ele>
        <time>2021-02-28T09:16:16Z</time>
      </trkpt>
      <trkpt lat="45.11617" lon="6.42147">
        <ele>1683</ele>
        <time>2021-02-28T09:16:17Z</time>
      </trkpt>
      <trkpt lat="45.11615" lon="6.42148">
        <ele>1683</ele>
        <time>2021-02-28T09:16:18Z</time>
      </trkpt>
      <trkpt lat="45.11614" lon="6.42149">
        <ele>1683.4</ele>
        <time>2021-02-28T09:16:19Z</time>
      </trkpt>
      <trkpt lat="45.11612" lon="6.4215">
        <ele>1683.4</ele>
        <time>2021-02-28T09:16:20Z</time>
      </trkpt>
      <trkpt lat="45.11611" lon="6.42151">
        <ele>1683.6</ele>
        <time>2021-02-28T09:16:21Z</time>
      </trkpt>
      <trkpt lat="45.1161" lon="6.42153">
        <ele>1684</ele>
        <time>2021-02-28T09:16:22Z</time>
      </trkpt>
      <trkpt lat="45.11608" lon="6.42154">
        <ele>1684.4</ele>
        <time>2021-02-28T09:16:23Z</time>
      </trkpt>
      <trkpt lat="45.11607" lon="6.42156">
        <ele>1684.4</ele>
        <time>2021-02-28T09:16:24Z</time>
      </trkpt>
      <trkpt lat="45.11606" lon="6.42157">
        <ele>1684.2</ele>
        <time>2021-02-28T09:16:25Z</time>
      </trkpt>
      <trkpt lat="45.11605" lon="6.42159">
        <ele>1684.4</ele>
        <time>2021-02-28T09:16:26Z</time>
      </trkpt>
      <trkpt lat="45.11604" lon="6.4216">
        <ele>1684.2</ele>
        <time>2021-02-28T09:16:27Z</time>
      </trkpt>
      <trkpt lat="45.11603" lon="6.42161">
        <ele>1684.2</ele>
        <time>2021-02-28T09:16:28Z</time>
      </trkpt>
      <trkpt lat="45.11602" lon="6.42163">
        <ele>1684.2</ele>
        <time>2021-02-28T09:16:29Z</time>
      </trkpt>
      <trkpt lat="45.116" lon="6.42164">
        <ele>1684.4</ele>
        <time>2021-02-28T09:16:30Z</time>
      </trkpt>
      <trkpt lat="45.11598" lon="6.42166">
        <ele>1684.8</ele>
        <time>2021-02-28T09:16:31Z</time>
      </trkpt>
      <trkpt lat="45.11596" lon="6.42167">
        <ele>1685</ele>
        <time>2021-02-28T09:16:32Z</time>
      </trkpt>
      <trkpt lat="45.11595" lon="6.42169">
        <ele>1685</ele>
        <time>2021-02-28T09:16:33Z</time>
      </trkpt>
      <trkpt lat="45.11593" lon="6.4217">
        <ele>1685.4</ele>
        <time>2021-02-28T09:16:34Z</time>
      </trkpt>
      <trkpt lat="45.11592" lon="6.42172">
        <ele>1685.6</ele>
        <time>2021-02-28T09:16:35Z</time>
      </trkpt>
      <trkpt lat="45.11591" lon="6.42173">
        <ele>1685.6</ele>
        <time>2021-02-28T09:16:36Z</time>
      </trkpt>
      <trkpt lat="45.1159" lon="6.42174">
        <ele>1685.6</ele>
        <time>2021-02-28T09:16:37Z</time>
      </trkpt>
      <trkpt lat="45.11589" lon="6.42176">
        <ele>1685.8</ele>
        <time>2021-02-28T09:16:38Z</time>
      </trkpt>
      <trkpt lat="45.11588" lon="6.42177">
        <ele>1686.2</ele>
        <time>2021-02-28T09:16:39Z</time>
      </trkpt>
      <trkpt lat="45.11586" lon="6.42179">
        <ele>1686.2</ele>
        <time>2021-02-28T09:16:40Z</time>
      </trkpt>
      <trkpt lat="45.11585" lon="6.4218">
        <ele>1686.4</ele>
        <time>2021-02-28T09:16:41Z</time>
      </trkpt>
      <trkpt lat="45.11584" lon="6.42182">
        <ele>1686.4</ele>
        <time>2021-02-28T09:16:42Z</time>
      </trkpt>
      <trkpt lat="45.11583" lon="6.42183">
        <ele>1686.8</ele>
        <time>2021-02-28T09:16:43Z</time>
      </trkpt>
      <trkpt lat="45.11582" lon="6.42185">
        <ele>1686.6</ele>
        <time>2021-02-28T09:16:44Z</time>
      </trkpt>
      <trkpt lat="45.11581" lon="6.42186">
        <ele>1687</ele>
        <time>2021-02-28T09:16:45Z</time>
      </trkpt>
      <trkpt lat="45.1158" lon="6.42188">
        <ele>1687.6</ele>
        <time>2021-02-28T09:16:46Z</time>
      </trkpt>
      <trkpt lat="45.11578" lon="6.42189">
        <ele>1687.4</ele>
        <time>2021-02-28T09:16:47Z</time>
      </trkpt>
      <trkpt lat="45.11577" lon="6.4219">
        <ele>1687.2</ele>
        <time>2021-02-28T09:16:48Z</time>
      </trkpt>
      <trkpt lat="45.11575" lon="6.42192">
        <ele>1687.4</ele>
        <time>2021-02-28T09:16:49Z</time>
      </trkpt>
      <trkpt lat="45.11574" lon="6.42193">
        <ele>1687.6</ele>
        <time>2021-02-28T09:16:50Z</time>
      </trkpt>
      <trkpt lat="45.11572" lon="6.42194">
        <ele>1687.6</ele>
        <time>2021-02-28T09:16:51Z</time>
      </trkpt>
      <trkpt lat="45.11571" lon="6.42196">
        <ele>1687.8</ele>
        <time>2021-02-28T09:16:52Z</time>
      </trkpt>
      <trkpt lat="45.1157" lon="6.42198">
        <ele>1688.2</ele>
        <time>2021-02-28T09:16:53Z</time>
      </trkpt>
      <trkpt lat="45.11569" lon="6.42199">
        <ele>1688.2</ele>
        <time>2021-02-28T09:16:54Z</time>
      </trkpt>
      <trkpt lat="45.11568" lon="6.42201">
        <ele>1688.2</ele>
        <time>2021-02-28T09:16:55Z</time>
      </trkpt>
      <trkpt lat="45.11567" lon="6.42202">
        <ele>1688.4</ele>
        <time>2021-02-28T09:16:56Z</time>
      </trkpt>
      <trkpt lat="45.11565" lon="6.42204">
        <ele>1688.6</ele>
        <time>2021-02-28T09:16:57Z</time>
      </trkpt>
      <trkpt lat="45.11565" lon="6.42205">
        <ele>1688.8</ele>
        <time>2021-02-28T09:16:58Z</time>
      </trkpt>
      <trkpt lat="45.11564" lon="6.42207">
        <ele>1689</ele>
        <time>2021-02-28T09:16:59Z</time>
      </trkpt>
      <trkpt lat="45.11563" lon="6.42208">
        <ele>1689.2</ele>
        <time>2021-02-28T09:17:00Z</time>
      </trkpt>
      <trkpt lat="45.11562" lon="6.4221">
        <ele>1689.2</ele>
        <time>2021-02-28T09:17:01Z</time>
      </trkpt>
      <trkpt lat="45.11561" lon="6.42211">
        <ele>1689.8</ele>
        <time>2021-02-28T09:17:02Z</time>
      </trkpt>
      <trkpt lat="45.11561" lon="6.42213">
        <ele>1690</ele>
        <time>2021-02-28T09:17:03Z</time>
      </trkpt>
      <trkpt lat="45.1156" lon="6.42214">
        <ele>1690.4</ele>
        <time>2021-02-28T09:17:04Z</time>
      </trkpt>
      <trkpt lat="45.11559" lon="6.42216">
        <ele>1690.6</ele>
        <time>2021-02-28T09:17:05Z</time>
      </trkpt>
      <trkpt lat="45.11558" lon="6.42218">
        <ele>1690.6</ele>
        <time>2021-02-28T09:17:06Z</time>
      </trkpt>
      <trkpt lat="45.11557" lon="6.42219">
        <ele>1690.6</ele>
        <time>2021-02-28T09:17:07Z</time>
      </trkpt>
      <trkpt lat="45.11556" lon="6.42221">
        <ele>1690.6</ele>
        <time>2021-02-28T09:17:08Z</time>
      </trkpt>
      <trkpt lat="45.11554" lon="6.42223">
        <ele>1690.6</ele>
        <time>2021-02-28T09:17:09Z</time>
      </trkpt>
      <trkpt lat="45.11553" lon="6.42224">
        <ele>1690.6</ele>
        <time>2021-02-28T09:17:10Z</time>
      </trkpt>
      <trkpt lat="45.11553" lon="6.42226">
        <ele>1690.8</ele>
        <time>2021-02-28T09:17:11Z</time>
      </trkpt>
      <trkpt lat="45.11552" lon="6.42227">
        <ele>1691.2</ele>
        <time>2021-02-28T09:17:12Z</time>
      </trkpt>
      <trkpt lat="45.11551" lon="6.42228">
        <ele>1691.2</ele>
        <time>2021-02-28T09:17:13Z</time>
      </trkpt>
      <trkpt lat="45.1155" lon="6.42229">
        <ele>1691.4</ele>
        <time>2021-02-28T09:17:14Z</time>
      </trkpt>
      <trkpt lat="45.1155" lon="6.4223">
        <ele>1691.8</ele>
        <time>2021-02-28T09:17:15Z</time>
      </trkpt>
      <trkpt lat="45.11549" lon="6.42231">
        <ele>1692</ele>
        <time>2021-02-28T09:17:16Z</time>
      </trkpt>
      <trkpt lat="45.11548" lon="6.42232">
        <ele>1692</ele>
        <time>2021-02-28T09:17:17Z</time>
      </trkpt>
      <trkpt lat="45.11547" lon="6.42233">
        <ele>1692.4</ele>
        <time>2021-02-28T09:17:18Z</time>
      </trkpt>
      <trkpt lat="45.11547" lon="6.42234">
        <ele>1692.6</ele>
        <time>2021-02-28T09:17:19Z</time>
      </trkpt>
      <trkpt lat="45.11545" lon="6.42236">
        <ele>1692.6</ele>
        <time>2021-02-28T09:17:20Z</time>
      </trkpt>
      <trkpt lat="45.11544" lon="6.42237">
        <ele>1692.8</ele>
        <time>2021-02-28T09:17:21Z</time>
      </trkpt>
      <trkpt lat="45.11543" lon="6.42239">
        <ele>1693</ele>
        <time>2021-02-28T09:17:22Z</time>
      </trkpt>
      <trkpt lat="45.11542" lon="6.4224">
        <ele>1693.2</ele>
        <time>2021-02-28T09:17:23Z</time>
      </trkpt>
      <trkpt lat="45.11541" lon="6.42242">
        <ele>1693.2</ele>
        <time>2021-02-28T09:17:24Z</time>
      </trkpt>
      <trkpt lat="45.11539" lon="6.42244">
        <ele>1693.2</ele>
        <time>2021-02-28T09:17:25Z</time>
      </trkpt>
      <trkpt lat="45.11537" lon="6.42246">
        <ele>1693.4</ele>
        <time>2021-02-28T09:17:26Z</time>
      </trkpt>
      <trkpt lat="45.11536" lon="6.42249">
        <ele>1693</ele>
        <time>2021-02-28T09:17:27Z</time>
      </trkpt>
      <trkpt lat="45.11536" lon="6.42249">
        <ele>1693.2</ele>
        <time>2021-02-28T09:17:28Z</time>
      </trkpt>
      <trkpt lat="45.11536" lon="6.42249">
        <ele>1693.2</ele>
        <time>2021-02-28T09:17:29Z</time>
      </trkpt>
      <trkpt lat="45.11534" lon="6.42251">
        <ele>1692.8</ele>
        <time>2021-02-28T09:17:30Z</time>
      </trkpt>
      <trkpt lat="45.11533" lon="6.42253">
        <ele>1692.8</ele>
        <time>2021-02-28T09:17:31Z</time>
      </trkpt>
      <trkpt lat="45.11531" lon="6.42254">
        <ele>1692.8</ele>
        <time>2021-02-28T09:17:32Z</time>
      </trkpt>
      <trkpt lat="45.1153" lon="6.42256">
        <ele>1692.4</ele>
        <time>2021-02-28T09:17:33Z</time>
      </trkpt>
      <trkpt lat="45.11528" lon="6.42258">
        <ele>1692.8</ele>
        <time>2021-02-28T09:17:34Z</time>
      </trkpt>
      <trkpt lat="45.11528" lon="6.42259">
        <ele>1693</ele>
        <time>2021-02-28T09:17:35Z</time>
      </trkpt>
      <trkpt lat="45.11527" lon="6.42259">
        <ele>1693</ele>
        <time>2021-02-28T09:17:36Z</time>
      </trkpt>
      <trkpt lat="45.11526" lon="6.42259">
        <ele>1692.8</ele>
        <time>2021-02-28T09:17:37Z</time>
      </trkpt>
      <trkpt lat="45.11526" lon="6.4226">
        <ele>1692.8</ele>
        <time>2021-02-28T09:17:38Z</time>
      </trkpt>
      <trkpt lat="45.11525" lon="6.4226">
        <ele>1692.6</ele>
        <time>2021-02-28T09:17:39Z</time>
      </trkpt>
      <trkpt lat="45.11525" lon="6.4226">
        <ele>1692.8</ele>
        <time>2021-02-28T09:17:40Z</time>
      </trkpt>
      <trkpt lat="45.11524" lon="6.42261">
        <ele>1692.8</ele>
        <time>2021-02-28T09:17:41Z</time>
      </trkpt>
      <trkpt lat="45.11524" lon="6.42261">
        <ele>1692.8</ele>
        <time>2021-02-28T09:17:42Z</time>
      </trkpt>
      <trkpt lat="45.11523" lon="6.42261">
        <ele>1692.8</ele>
        <time>2021-02-28T09:17:43Z</time>
      </trkpt>
      <trkpt lat="45.11523" lon="6.42262">
        <ele>1692.8</ele>
        <time>2021-02-28T09:17:44Z</time>
      </trkpt>
      <trkpt lat="45.11521" lon="6.42262">
        <ele>1693</ele>
        <time>2021-02-28T09:17:45Z</time>
      </trkpt>
      <trkpt lat="45.11521" lon="6.42262">
        <ele>1693.2</ele>
        <time>2021-02-28T09:17:46Z</time>
      </trkpt>
      <trkpt lat="45.11519" lon="6.42264">
        <ele>1693</ele>
        <time>2021-02-28T09:17:47Z</time>
      </trkpt>
      <trkpt lat="45.11519" lon="6.42264">
        <ele>1693</ele>
        <time>2021-02-28T09:17:48Z</time>
      </trkpt>
      <trkpt lat="45.11519" lon="6.42264">
        <ele>1693.2</ele>
        <time>2021-02-28T09:17:49Z</time>
      </trkpt>
      <trkpt lat="45.11518" lon="6.42266">
        <ele>1693</ele>
        <time>2021-02-28T09:17:50Z</time>
      </trkpt>
      <trkpt lat="45.11517" lon="6.42268">
        <ele>1693</ele>
        <time>2021-02-28T09:17:51Z</time>
      </trkpt>
      <trkpt lat="45.11517" lon="6.42269">
        <ele>1693.2</ele>
        <time>2021-02-28T09:17:52Z</time>
      </trkpt>
      <trkpt lat="45.11516" lon="6.42271">
        <ele>1693.2</ele>
        <time>2021-02-28T09:17:53Z</time>
      </trkpt>
      <trkpt lat="45.11515" lon="6.42273">
        <ele>1693.6</ele>
        <time>2021-02-28T09:17:54Z</time>
      </trkpt>
      <trkpt lat="45.11514" lon="6.42275">
        <ele>1693.8</ele>
        <time>2021-02-28T09:17:55Z</time>
      </trkpt>
      <trkpt lat="45.11513" lon="6.42276">
        <ele>1693.8</ele>
        <time>2021-02-28T09:17:56Z</time>
      </trkpt>
      <trkpt lat="45.11511" lon="6.42278">
        <ele>1693.8</ele>
        <time>2021-02-28T09:17:57Z</time>
      </trkpt>
      <trkpt lat="45.11511" lon="6.42278">
        <ele>1693.6</ele>
        <time>2021-02-28T09:17:58Z</time>
      </trkpt>
      <trkpt lat="45.11511" lon="6.42278">
        <ele>1693.8</ele>
        <time>2021-02-28T09:17:59Z</time>
      </trkpt>
      <trkpt lat="45.11511" lon="6.42278">
        <ele>1693.6</ele>
        <time>2021-02-28T09:18:00Z</time>
      </trkpt>
      <trkpt lat="45.11511" lon="6.42278">
        <ele>1694</ele>
        <time>2021-02-28T09:18:01Z</time>
      </trkpt>
      <trkpt lat="45.11511" lon="6.42282">
        <ele>1693.8</ele>
        <time>2021-02-28T09:18:02Z</time>
      </trkpt>
      <trkpt lat="45.1151" lon="6.42284">
        <ele>1693.8</ele>
        <time>2021-02-28T09:18:03Z</time>
      </trkpt>
      <trkpt lat="45.11509" lon="6.42286">
        <ele>1693.8</ele>
        <time>2021-02-28T09:18:04Z</time>
      </trkpt>
      <trkpt lat="45.11509" lon="6.42286">
        <ele>1693.4</ele>
        <time>2021-02-28T09:18:05Z</time>
      </trkpt>
      <trkpt lat="45.11506" lon="6.42289">
        <ele>1693.4</ele>
        <time>2021-02-28T09:18:06Z</time>
      </trkpt>
      <trkpt lat="45.11506" lon="6.42289">
        <ele>1693.4</ele>
        <time>2021-02-28T09:18:07Z</time>
      </trkpt>
      <trkpt lat="45.11506" lon="6.42289">
        <ele>1693.2</ele>
        <time>2021-02-28T09:18:08Z</time>
      </trkpt>
      <trkpt lat="45.11504" lon="6.42292">
        <ele>1693.4</ele>
        <time>2021-02-28T09:18:09Z</time>
      </trkpt>
      <trkpt lat="45.11502" lon="6.42294">
        <ele>1693.6</ele>
        <time>2021-02-28T09:18:10Z</time>
      </trkpt>
      <trkpt lat="45.115" lon="6.42297">
        <ele>1693.2</ele>
        <time>2021-02-28T09:18:11Z</time>
      </trkpt>
      <trkpt lat="45.11498" lon="6.42299">
        <ele>1693.4</ele>
        <time>2021-02-28T09:18:12Z</time>
      </trkpt>
      <trkpt lat="45.11496" lon="6.42301">
        <ele>1693.4</ele>
        <time>2021-02-28T09:18:13Z</time>
      </trkpt>
      <trkpt lat="45.11496" lon="6.42301">
        <ele>1693.6</ele>
        <time>2021-02-28T09:18:14Z</time>
      </trkpt>
      <trkpt lat="45.11494" lon="6.42304">
        <ele>1693.6</ele>
        <time>2021-02-28T09:18:15Z</time>
      </trkpt>
      <trkpt lat="45.11492" lon="6.42305">
        <ele>1693.6</ele>
        <time>2021-02-28T09:18:16Z</time>
      </trkpt>
      <trkpt lat="45.11492" lon="6.42305">
        <ele>1693.6</ele>
        <time>2021-02-28T09:18:17Z</time>
      </trkpt>
      <trkpt lat="45.1149" lon="6.42308">
        <ele>1693.8</ele>
        <time>2021-02-28T09:18:18Z</time>
      </trkpt>
      <trkpt lat="45.1149" lon="6.42308">
        <ele>1694</ele>
        <time>2021-02-28T09:18:19Z</time>
      </trkpt>
      <trkpt lat="45.1149" lon="6.42308">
        <ele>1694</ele>
        <time>2021-02-28T09:18:20Z</time>
      </trkpt>
      <trkpt lat="45.11489" lon="6.42309">
        <ele>1694.4</ele>
        <time>2021-02-28T09:18:21Z</time>
      </trkpt>
      <trkpt lat="45.11488" lon="6.4231">
        <ele>1694.6</ele>
        <time>2021-02-28T09:18:22Z</time>
      </trkpt>
      <trkpt lat="45.11488" lon="6.42311">
        <ele>1694.8</ele>
        <time>2021-02-28T09:18:23Z</time>
      </trkpt>
      <trkpt lat="45.11487" lon="6.42312">
        <ele>1694.8</ele>
        <time>2021-02-28T09:18:24Z</time>
      </trkpt>
      <trkpt lat="45.11486" lon="6.42313">
        <ele>1695.2</ele>
        <time>2021-02-28T09:18:25Z</time>
      </trkpt>
      <trkpt lat="45.11485" lon="6.42314">
        <ele>1695.4</ele>
        <time>2021-02-28T09:18:26Z</time>
      </trkpt>
      <trkpt lat="45.11485" lon="6.42315">
        <ele>1695.2</ele>
        <time>2021-02-28T09:18:27Z</time>
      </trkpt>
      <trkpt lat="45.11484" lon="6.42316">
        <ele>1695.4</ele>
        <time>2021-02-28T09:18:28Z</time>
      </trkpt>
      <trkpt lat="45.11483" lon="6.42317">
        <ele>1695.2</ele>
        <time>2021-02-28T09:18:29Z</time>
      </trkpt>
      <trkpt lat="45.11481" lon="6.42319">
        <ele>1695.4</ele>
        <time>2021-02-28T09:18:30Z</time>
      </trkpt>
      <trkpt lat="45.11479" lon="6.42321">
        <ele>1695.8</ele>
        <time>2021-02-28T09:18:31Z</time>
      </trkpt>
      <trkpt lat="45.11476" lon="6.42322">
        <ele>1696</ele>
        <time>2021-02-28T09:18:32Z</time>
      </trkpt>
      <trkpt lat="45.11474" lon="6.42324">
        <ele>1696.2</ele>
        <time>2021-02-28T09:18:33Z</time>
      </trkpt>
      <trkpt lat="45.11474" lon="6.42324">
        <ele>1696</ele>
        <time>2021-02-28T09:18:34Z</time>
      </trkpt>
      <trkpt lat="45.11474" lon="6.42324">
        <ele>1696.4</ele>
        <time>2021-02-28T09:18:35Z</time>
      </trkpt>
      <trkpt lat="45.11474" lon="6.42324">
        <ele>1696.4</ele>
        <time>2021-02-28T09:18:36Z</time>
      </trkpt>
      <trkpt lat="45.11473" lon="6.42326">
        <ele>1696.4</ele>
        <time>2021-02-28T09:18:37Z</time>
      </trkpt>
      <trkpt lat="45.11473" lon="6.42326">
        <ele>1696.8</ele>
        <time>2021-02-28T09:18:38Z</time>
      </trkpt>
      <trkpt lat="45.11473" lon="6.42326">
        <ele>1696.8</ele>
        <time>2021-02-28T09:18:39Z</time>
      </trkpt>
      <trkpt lat="45.11471" lon="6.42331">
        <ele>1697</ele>
        <time>2021-02-28T09:18:40Z</time>
      </trkpt>
      <trkpt lat="45.11471" lon="6.42331">
        <ele>1697</ele>
        <time>2021-02-28T09:18:41Z</time>
      </trkpt>
      <trkpt lat="45.11471" lon="6.42331">
        <ele>1697.2</ele>
        <time>2021-02-28T09:18:42Z</time>
      </trkpt>
      <trkpt lat="45.11467" lon="6.42338">
        <ele>1697.4</ele>
        <time>2021-02-28T09:18:43Z</time>
      </trkpt>
      <trkpt lat="45.11466" lon="6.42339">
        <ele>1697.4</ele>
        <time>2021-02-28T09:18:44Z</time>
      </trkpt>
      <trkpt lat="45.11465" lon="6.4234">
        <ele>1697.8</ele>
        <time>2021-02-28T09:18:45Z</time>
      </trkpt>
      <trkpt lat="45.11465" lon="6.4234">
        <ele>1697.8</ele>
        <time>2021-02-28T09:18:46Z</time>
      </trkpt>
      <trkpt lat="45.11465" lon="6.4234">
        <ele>1697.8</ele>
        <time>2021-02-28T09:18:47Z</time>
      </trkpt>
      <trkpt lat="45.11463" lon="6.42341">
        <ele>1698</ele>
        <time>2021-02-28T09:18:48Z</time>
      </trkpt>
      <trkpt lat="45.11461" lon="6.42342">
        <ele>1698</ele>
        <time>2021-02-28T09:18:49Z</time>
      </trkpt>
      <trkpt lat="45.11459" lon="6.42343">
        <ele>1698.2</ele>
        <time>2021-02-28T09:18:50Z</time>
      </trkpt>
      <trkpt lat="45.11457" lon="6.42344">
        <ele>1698.2</ele>
        <time>2021-02-28T09:18:51Z</time>
      </trkpt>
      <trkpt lat="45.11455" lon="6.42345">
        <ele>1698.2</ele>
        <time>2021-02-28T09:18:52Z</time>
      </trkpt>
      <trkpt lat="45.11453" lon="6.42346">
        <ele>1698.2</ele>
        <time>2021-02-28T09:18:53Z</time>
      </trkpt>
      <trkpt lat="45.1145" lon="6.42347">
        <ele>1698.4</ele>
        <time>2021-02-28T09:18:54Z</time>
      </trkpt>
      <trkpt lat="45.11449" lon="6.42347">
        <ele>1698.8</ele>
        <time>2021-02-28T09:18:55Z</time>
      </trkpt>
      <trkpt lat="45.11448" lon="6.42348">
        <ele>1699</ele>
        <time>2021-02-28T09:18:56Z</time>
      </trkpt>
      <trkpt lat="45.11448" lon="6.42348">
        <ele>1699.4</ele>
        <time>2021-02-28T09:18:57Z</time>
      </trkpt>
      <trkpt lat="45.11445" lon="6.42348">
        <ele>1699.6</ele>
        <time>2021-02-28T09:18:58Z</time>
      </trkpt>
      <trkpt lat="45.11445" lon="6.42348">
        <ele>1700</ele>
        <time>2021-02-28T09:18:59Z</time>
      </trkpt>
      <trkpt lat="45.11443" lon="6.42349">
        <ele>1700.2</ele>
        <time>2021-02-28T09:19:00Z</time>
      </trkpt>
      <trkpt lat="45.11443" lon="6.42349">
        <ele>1700.6</ele>
        <time>2021-02-28T09:19:01Z</time>
      </trkpt>
      <trkpt lat="45.1144" lon="6.42349">
        <ele>1701</ele>
        <time>2021-02-28T09:19:02Z</time>
      </trkpt>
      <trkpt lat="45.1144" lon="6.42349">
        <ele>1701.2</ele>
        <time>2021-02-28T09:19:03Z</time>
      </trkpt>
      <trkpt lat="45.11437" lon="6.42349">
        <ele>1701.4</ele>
        <time>2021-02-28T09:19:04Z</time>
      </trkpt>
      <trkpt lat="45.11437" lon="6.42349">
        <ele>1701.8</ele>
        <time>2021-02-28T09:19:05Z</time>
      </trkpt>
      <trkpt lat="45.11434" lon="6.4235">
        <ele>1702.2</ele>
        <time>2021-02-28T09:19:06Z</time>
      </trkpt>
      <trkpt lat="45.11432" lon="6.4235">
        <ele>1702.4</ele>
        <time>2021-02-28T09:19:07Z</time>
      </trkpt>
      <trkpt lat="45.11432" lon="6.4235">
        <ele>1702.8</ele>
        <time>2021-02-28T09:19:08Z</time>
      </trkpt>
      <trkpt lat="45.1143" lon="6.4235">
        <ele>1703.2</ele>
        <time>2021-02-28T09:19:09Z</time>
      </trkpt>
      <trkpt lat="45.1143" lon="6.4235">
        <ele>1703.2</ele>
        <time>2021-02-28T09:19:10Z</time>
      </trkpt>
      <trkpt lat="45.11427" lon="6.42349">
        <ele>1703.6</ele>
        <time>2021-02-28T09:19:11Z</time>
      </trkpt>
      <trkpt lat="45.11426" lon="6.42348">
        <ele>1703.4</ele>
        <time>2021-02-28T09:19:12Z</time>
      </trkpt>
      <trkpt lat="45.11424" lon="6.42348">
        <ele>1703.2</ele>
        <time>2021-02-28T09:19:13Z</time>
      </trkpt>
      <trkpt lat="45.11424" lon="6.42348">
        <ele>1703.2</ele>
        <time>2021-02-28T09:19:14Z</time>
      </trkpt>
      <trkpt lat="45.11421" lon="6.42348">
        <ele>1703.2</ele>
        <time>2021-02-28T09:19:15Z</time>
      </trkpt>
      <trkpt lat="45.11421" lon="6.42348">
        <ele>1703</ele>
        <time>2021-02-28T09:19:16Z</time>
      </trkpt>
      <trkpt lat="45.11418" lon="6.42347">
        <ele>1703</ele>
        <time>2021-02-28T09:19:17Z</time>
      </trkpt>
      <trkpt lat="45.11418" lon="6.42347">
        <ele>1703.2</ele>
        <time>2021-02-28T09:19:18Z</time>
      </trkpt>
      <trkpt lat="45.11415" lon="6.42347">
        <ele>1703.6</ele>
        <time>2021-02-28T09:19:19Z</time>
      </trkpt>
      <trkpt lat="45.11415" lon="6.42347">
        <ele>1703.4</ele>
        <time>2021-02-28T09:19:20Z</time>
      </trkpt>
      <trkpt lat="45.11412" lon="6.42347">
        <ele>1703.6</ele>
        <time>2021-02-28T09:19:21Z</time>
      </trkpt>
      <trkpt lat="45.11412" lon="6.42347">
        <ele>1703.6</ele>
        <time>2021-02-28T09:19:22Z</time>
      </trkpt>
      <trkpt lat="45.11409" lon="6.42348">
        <ele>1703.8</ele>
        <time>2021-02-28T09:19:23Z</time>
      </trkpt>
      <trkpt lat="45.11409" lon="6.42348">
        <ele>1704.2</ele>
        <time>2021-02-28T09:19:24Z</time>
      </trkpt>
      <trkpt lat="45.11406" lon="6.42348">
        <ele>1704.4</ele>
        <time>2021-02-28T09:19:25Z</time>
      </trkpt>
      <trkpt lat="45.11406" lon="6.42348">
        <ele>1704.8</ele>
        <time>2021-02-28T09:19:26Z</time>
      </trkpt>
      <trkpt lat="45.11404" lon="6.42348">
        <ele>1704.8</ele>
        <time>2021-02-28T09:19:27Z</time>
      </trkpt>
      <trkpt lat="45.11402" lon="6.42348">
        <ele>1704.8</ele>
        <time>2021-02-28T09:19:28Z</time>
      </trkpt>
      <trkpt lat="45.11402" lon="6.42348">
        <ele>1705</ele>
        <time>2021-02-28T09:19:29Z</time>
      </trkpt>
      <trkpt lat="45.11399" lon="6.42347">
        <ele>1705.4</ele>
        <time>2021-02-28T09:19:30Z</time>
      </trkpt>
      <trkpt lat="45.11399" lon="6.42347">
        <ele>1705.8</ele>
        <time>2021-02-28T09:19:31Z</time>
      </trkpt>
      <trkpt lat="45.11396" lon="6.42347">
        <ele>1706</ele>
        <time>2021-02-28T09:19:32Z</time>
      </trkpt>
      <trkpt lat="45.11396" lon="6.42347">
        <ele>1706.2</ele>
        <time>2021-02-28T09:19:33Z</time>
      </trkpt>
      <trkpt lat="45.11393" lon="6.42348">
        <ele>1706.2</ele>
        <time>2021-02-28T09:19:34Z</time>
      </trkpt>
      <trkpt lat="45.11393" lon="6.42348">
        <ele>1706.2</ele>
        <time>2021-02-28T09:19:35Z</time>
      </trkpt>
      <trkpt lat="45.1139" lon="6.42349">
        <ele>1706.4</ele>
        <time>2021-02-28T09:19:36Z</time>
      </trkpt>
      <trkpt lat="45.1139" lon="6.42349">
        <ele>1706.4</ele>
        <time>2021-02-28T09:19:37Z</time>
      </trkpt>
      <trkpt lat="45.11387" lon="6.4235">
        <ele>1707</ele>
        <time>2021-02-28T09:19:38Z</time>
      </trkpt>
      <trkpt lat="45.11387" lon="6.4235">
        <ele>1707.4</ele>
        <time>2021-02-28T09:19:39Z</time>
      </trkpt>
      <trkpt lat="45.11387" lon="6.4235">
        <ele>1707.8</ele>
        <time>2021-02-28T09:19:40Z</time>
      </trkpt>
      <trkpt lat="45.11387" lon="6.4235">
        <ele>1708.4</ele>
        <time>2021-02-28T09:19:41Z</time>
      </trkpt>
      <trkpt lat="45.11386" lon="6.42353">
        <ele>1708.4</ele>
        <time>2021-02-28T09:19:42Z</time>
      </trkpt>
      <trkpt lat="45.11386" lon="6.42353">
        <ele>1708.4</ele>
        <time>2021-02-28T09:19:43Z</time>
      </trkpt>
      <trkpt lat="45.11385" lon="6.42357">
        <ele>1709</ele>
        <time>2021-02-28T09:19:44Z</time>
      </trkpt>
      <trkpt lat="45.11385" lon="6.42357">
        <ele>1709.2</ele>
        <time>2021-02-28T09:19:45Z</time>
      </trkpt>
      <trkpt lat="45.11383" lon="6.4236">
        <ele>1709.4</ele>
        <time>2021-02-28T09:19:46Z</time>
      </trkpt>
      <trkpt lat="45.11383" lon="6.4236">
        <ele>1709.6</ele>
        <time>2021-02-28T09:19:47Z</time>
      </trkpt>
      <trkpt lat="45.11381" lon="6.42363">
        <ele>1709.8</ele>
        <time>2021-02-28T09:19:48Z</time>
      </trkpt>
      <trkpt lat="45.11381" lon="6.42363">
        <ele>1709.8</ele>
        <time>2021-02-28T09:19:49Z</time>
      </trkpt>
      <trkpt lat="45.11378" lon="6.42364">
        <ele>1710</ele>
        <time>2021-02-28T09:19:50Z</time>
      </trkpt>
      <trkpt lat="45.11376" lon="6.42365">
        <ele>1710.2</ele>
        <time>2021-02-28T09:19:51Z</time>
      </trkpt>
      <trkpt lat="45.11376" lon="6.42365">
        <ele>1710.4</ele>
        <time>2021-02-28T09:19:52Z</time>
      </trkpt>
      <trkpt lat="45.11373" lon="6.42366">
        <ele>1710.6</ele>
        <time>2021-02-28T09:19:53Z</time>
      </trkpt>
      <trkpt lat="45.11373" lon="6.42366">
        <ele>1711.2</ele>
        <time>2021-02-28T09:19:54Z</time>
      </trkpt>
      <trkpt lat="45.1137" lon="6.42368">
        <ele>1711.2</ele>
        <time>2021-02-28T09:19:55Z</time>
      </trkpt>
      <trkpt lat="45.1137" lon="6.42368">
        <ele>1711.6</ele>
        <time>2021-02-28T09:19:56Z</time>
      </trkpt>
      <trkpt lat="45.11367" lon="6.42369">
        <ele>1711.2</ele>
        <time>2021-02-28T09:19:57Z</time>
      </trkpt>
      <trkpt lat="45.11367" lon="6.42369">
        <ele>1711.2</ele>
        <time>2021-02-28T09:19:58Z</time>
      </trkpt>
      <trkpt lat="45.11365" lon="6.42369">
        <ele>1711.4</ele>
        <time>2021-02-28T09:19:59Z</time>
      </trkpt>
      <trkpt lat="45.11365" lon="6.42369">
        <ele>1711.6</ele>
        <time>2021-02-28T09:20:00Z</time>
      </trkpt>
      <trkpt lat="45.11362" lon="6.4237">
        <ele>1711.8</ele>
        <time>2021-02-28T09:20:01Z</time>
      </trkpt>
      <trkpt lat="45.11362" lon="6.4237">
        <ele>1712.2</ele>
        <time>2021-02-28T09:20:02Z</time>
      </trkpt>
      <trkpt lat="45.11359" lon="6.42371">
        <ele>1712.2</ele>
        <time>2021-02-28T09:20:03Z</time>
      </trkpt>
      <trkpt lat="45.11359" lon="6.42371">
        <ele>1712.4</ele>
        <time>2021-02-28T09:20:04Z</time>
      </trkpt>
      <trkpt lat="45.11356" lon="6.42371">
        <ele>1712.2</ele>
        <time>2021-02-28T09:20:05Z</time>
      </trkpt>
      <trkpt lat="45.11354" lon="6.42372">
        <ele>1712.2</ele>
        <time>2021-02-28T09:20:06Z</time>
      </trkpt>
      <trkpt lat="45.11352" lon="6.42372">
        <ele>1712.4</ele>
        <time>2021-02-28T09:20:07Z</time>
      </trkpt>
      <trkpt lat="45.11352" lon="6.42372">
        <ele>1712.4</ele>
        <time>2021-02-28T09:20:08Z</time>
      </trkpt>
      <trkpt lat="45.11348" lon="6.42373">
        <ele>1712.6</ele>
        <time>2021-02-28T09:20:09Z</time>
      </trkpt>
      <trkpt lat="45.11348" lon="6.42373">
        <ele>1712.8</ele>
        <time>2021-02-28T09:20:10Z</time>
      </trkpt>
      <trkpt lat="45.11345" lon="6.42373">
        <ele>1713.4</ele>
        <time>2021-02-28T09:20:11Z</time>
      </trkpt>
      <trkpt lat="45.11345" lon="6.42373">
        <ele>1713.4</ele>
        <time>2021-02-28T09:20:12Z</time>
      </trkpt>
      <trkpt lat="45.11343" lon="6.42373">
        <ele>1713.4</ele>
        <time>2021-02-28T09:20:13Z</time>
      </trkpt>
      <trkpt lat="45.11343" lon="6.42373">
        <ele>1713.4</ele>
        <time>2021-02-28T09:20:14Z</time>
      </trkpt>
      <trkpt lat="45.11339" lon="6.42374">
        <ele>1713.2</ele>
        <time>2021-02-28T09:20:15Z</time>
      </trkpt>
      <trkpt lat="45.11339" lon="6.42374">
        <ele>1713.2</ele>
        <time>2021-02-28T09:20:16Z</time>
      </trkpt>
      <trkpt lat="45.11336" lon="6.42375">
        <ele>1713.6</ele>
        <time>2021-02-28T09:20:17Z</time>
      </trkpt>
      <trkpt lat="45.11334" lon="6.42375">
        <ele>1713.8</ele>
        <time>2021-02-28T09:20:18Z</time>
      </trkpt>
      <trkpt lat="45.11332" lon="6.42375">
        <ele>1714</ele>
        <time>2021-02-28T09:20:19Z</time>
      </trkpt>
      <trkpt lat="45.1133" lon="6.42375">
        <ele>1714.2</ele>
        <time>2021-02-28T09:20:20Z</time>
      </trkpt>
      <trkpt lat="45.11328" lon="6.42376">
        <ele>1714.4</ele>
        <time>2021-02-28T09:20:21Z</time>
      </trkpt>
      <trkpt lat="45.11328" lon="6.42376">
        <ele>1714.8</ele>
        <time>2021-02-28T09:20:22Z</time>
      </trkpt>
      <trkpt lat="45.11325" lon="6.42377">
        <ele>1715.2</ele>
        <time>2021-02-28T09:20:23Z</time>
      </trkpt>
      <trkpt lat="45.11323" lon="6.42377">
        <ele>1715</ele>
        <time>2021-02-28T09:20:24Z</time>
      </trkpt>
      <trkpt lat="45.11321" lon="6.42378">
        <ele>1715.2</ele>
        <time>2021-02-28T09:20:25Z</time>
      </trkpt>
      <trkpt lat="45.11321" lon="6.42378">
        <ele>1715.4</ele>
        <time>2021-02-28T09:20:26Z</time>
      </trkpt>
      <trkpt lat="45.11318" lon="6.42379">
        <ele>1715.2</ele>
        <time>2021-02-28T09:20:27Z</time>
      </trkpt>
      <trkpt lat="45.11318" lon="6.42379">
        <ele>1715.4</ele>
        <time>2021-02-28T09:20:28Z</time>
      </trkpt>
      <trkpt lat="45.11315" lon="6.4238">
        <ele>1715.4</ele>
        <time>2021-02-28T09:20:29Z</time>
      </trkpt>
      <trkpt lat="45.11315" lon="6.4238">
        <ele>1715.8</ele>
        <time>2021-02-28T09:20:30Z</time>
      </trkpt>
      <trkpt lat="45.11312" lon="6.42381">
        <ele>1716</ele>
        <time>2021-02-28T09:20:31Z</time>
      </trkpt>
      <trkpt lat="45.1131" lon="6.42382">
        <ele>1716.2</ele>
        <time>2021-02-28T09:20:32Z</time>
      </trkpt>
      <trkpt lat="45.11308" lon="6.42382">
        <ele>1716.2</ele>
        <time>2021-02-28T09:20:33Z</time>
      </trkpt>
      <trkpt lat="45.11308" lon="6.42382">
        <ele>1716</ele>
        <time>2021-02-28T09:20:34Z</time>
      </trkpt>
      <trkpt lat="45.11305" lon="6.42383">
        <ele>1716</ele>
        <time>2021-02-28T09:20:35Z</time>
      </trkpt>
      <trkpt lat="45.11305" lon="6.42383">
        <ele>1716.2</ele>
        <time>2021-02-28T09:20:36Z</time>
      </trkpt>
      <trkpt lat="45.11303" lon="6.42384">
        <ele>1716.4</ele>
        <time>2021-02-28T09:20:37Z</time>
      </trkpt>
      <trkpt lat="45.11303" lon="6.42384">
        <ele>1716.8</ele>
        <time>2021-02-28T09:20:38Z</time>
      </trkpt>
      <trkpt lat="45.11299" lon="6.42387">
        <ele>1717</ele>
        <time>2021-02-28T09:20:39Z</time>
      </trkpt>
      <trkpt lat="45.11299" lon="6.42387">
        <ele>1717.2</ele>
        <time>2021-02-28T09:20:40Z</time>
      </trkpt>
      <trkpt lat="45.11296" lon="6.42388">
        <ele>1717.4</ele>
        <time>2021-02-28T09:20:41Z</time>
      </trkpt>
      <trkpt lat="45.11296" lon="6.42388">
        <ele>1717.4</ele>
        <time>2021-02-28T09:20:42Z</time>
      </trkpt>
      <trkpt lat="45.11294" lon="6.42389">
        <ele>1717.6</ele>
        <time>2021-02-28T09:20:43Z</time>
      </trkpt>
      <trkpt lat="45.11294" lon="6.42389">
        <ele>1717.6</ele>
        <time>2021-02-28T09:20:44Z</time>
      </trkpt>
      <trkpt lat="45.11291" lon="6.42391">
        <ele>1717.4</ele>
        <time>2021-02-28T09:20:45Z</time>
      </trkpt>
      <trkpt lat="45.11289" lon="6.42393">
        <ele>1717.4</ele>
        <time>2021-02-28T09:20:46Z</time>
      </trkpt>
      <trkpt lat="45.11287" lon="6.42395">
        <ele>1717.6</ele>
        <time>2021-02-28T09:20:47Z</time>
      </trkpt>
      <trkpt lat="45.11287" lon="6.42395">
        <ele>1717.8</ele>
        <time>2021-02-28T09:20:48Z</time>
      </trkpt>
      <trkpt lat="45.11287" lon="6.42395">
        <ele>1718</ele>
        <time>2021-02-28T09:20:49Z</time>
      </trkpt>
      <trkpt lat="45.11282" lon="6.42401">
        <ele>1718.2</ele>
        <time>2021-02-28T09:20:50Z</time>
      </trkpt>
      <trkpt lat="45.11281" lon="6.42402">
        <ele>1718.4</ele>
        <time>2021-02-28T09:20:51Z</time>
      </trkpt>
      <trkpt lat="45.1128" lon="6.42403">
        <ele>1718.8</ele>
        <time>2021-02-28T09:20:52Z</time>
      </trkpt>
      <trkpt lat="45.1128" lon="6.42403">
        <ele>1719</ele>
        <time>2021-02-28T09:20:53Z</time>
      </trkpt>
      <trkpt lat="45.1128" lon="6.42403">
        <ele>1719</ele>
        <time>2021-02-28T09:20:54Z</time>
      </trkpt>
      <trkpt lat="45.11278" lon="6.42405">
        <ele>1719.2</ele>
        <time>2021-02-28T09:20:55Z</time>
      </trkpt>
      <trkpt lat="45.11276" lon="6.42408">
        <ele>1719.6</ele>
        <time>2021-02-28T09:20:56Z</time>
      </trkpt>
      <trkpt lat="45.11274" lon="6.4241">
        <ele>1719.8</ele>
        <time>2021-02-28T09:20:57Z</time>
      </trkpt>
      <trkpt lat="45.11272" lon="6.42412">
        <ele>1719.8</ele>
        <time>2021-02-28T09:20:58Z</time>
      </trkpt>
      <trkpt lat="45.11271" lon="6.42414">
        <ele>1720.2</ele>
        <time>2021-02-28T09:20:59Z</time>
      </trkpt>
      <trkpt lat="45.11271" lon="6.42414">
        <ele>1720.4</ele>
        <time>2021-02-28T09:21:00Z</time>
      </trkpt>
      <trkpt lat="45.11268" lon="6.42416">
        <ele>1720.6</ele>
        <time>2021-02-28T09:21:01Z</time>
      </trkpt>
      <trkpt lat="45.11268" lon="6.42416">
        <ele>1720.8</ele>
        <time>2021-02-28T09:21:02Z</time>
      </trkpt>
      <trkpt lat="45.11268" lon="6.42416">
        <ele>1720.8</ele>
        <time>2021-02-28T09:21:03Z</time>
      </trkpt>
      <trkpt lat="45.11267" lon="6.42417">
        <ele>1721.2</ele>
        <time>2021-02-28T09:21:04Z</time>
      </trkpt>
      <trkpt lat="45.11266" lon="6.42419">
        <ele>1721.6</ele>
        <time>2021-02-28T09:21:05Z</time>
      </trkpt>
      <trkpt lat="45.11264" lon="6.4242">
        <ele>1721.8</ele>
        <time>2021-02-28T09:21:06Z</time>
      </trkpt>
      <trkpt lat="45.11263" lon="6.42421">
        <ele>1721.4</ele>
        <time>2021-02-28T09:21:07Z</time>
      </trkpt>
      <trkpt lat="45.11262" lon="6.42422">
        <ele>1721.6</ele>
        <time>2021-02-28T09:21:08Z</time>
      </trkpt>
      <trkpt lat="45.1126" lon="6.42423">
        <ele>1721.4</ele>
        <time>2021-02-28T09:21:09Z</time>
      </trkpt>
      <trkpt lat="45.11259" lon="6.42424">
        <ele>1721.4</ele>
        <time>2021-02-28T09:21:10Z</time>
      </trkpt>
      <trkpt lat="45.11258" lon="6.42425">
        <ele>1721.6</ele>
        <time>2021-02-28T09:21:11Z</time>
      </trkpt>
      <trkpt lat="45.11256" lon="6.42426">
        <ele>1721.8</ele>
        <time>2021-02-28T09:21:12Z</time>
      </trkpt>
      <trkpt lat="45.11255" lon="6.42427">
        <ele>1721.8</ele>
        <time>2021-02-28T09:21:13Z</time>
      </trkpt>
      <trkpt lat="45.11254" lon="6.42429">
        <ele>1722</ele>
        <time>2021-02-28T09:21:14Z</time>
      </trkpt>
      <trkpt lat="45.11253" lon="6.4243">
        <ele>1722</ele>
        <time>2021-02-28T09:21:15Z</time>
      </trkpt>
      <trkpt lat="45.11251" lon="6.42431">
        <ele>1722.4</ele>
        <time>2021-02-28T09:21:16Z</time>
      </trkpt>
      <trkpt lat="45.1125" lon="6.42431">
        <ele>1722.4</ele>
        <time>2021-02-28T09:21:17Z</time>
      </trkpt>
      <trkpt lat="45.11248" lon="6.42432">
        <ele>1722.4</ele>
        <time>2021-02-28T09:21:18Z</time>
      </trkpt>
      <trkpt lat="45.11247" lon="6.42433">
        <ele>1722.8</ele>
        <time>2021-02-28T09:21:19Z</time>
      </trkpt>
      <trkpt lat="45.11246" lon="6.42434">
        <ele>1723.2</ele>
        <time>2021-02-28T09:21:20Z</time>
      </trkpt>
      <trkpt lat="45.11244" lon="6.42434">
        <ele>1723.6</ele>
        <time>2021-02-28T09:21:21Z</time>
      </trkpt>
      <trkpt lat="45.11243" lon="6.42435">
        <ele>1723.6</ele>
        <time>2021-02-28T09:21:22Z</time>
      </trkpt>
      <trkpt lat="45.11241" lon="6.42436">
        <ele>1723.6</ele>
        <time>2021-02-28T09:21:23Z</time>
      </trkpt>
      <trkpt lat="45.1124" lon="6.42436">
        <ele>1723.4</ele>
        <time>2021-02-28T09:21:24Z</time>
      </trkpt>
      <trkpt lat="45.11238" lon="6.42436">
        <ele>1723.6</ele>
        <time>2021-02-28T09:21:25Z</time>
      </trkpt>
      <trkpt lat="45.11236" lon="6.42437">
        <ele>1723.6</ele>
        <time>2021-02-28T09:21:26Z</time>
      </trkpt>
      <trkpt lat="45.11234" lon="6.42437">
        <ele>1723.6</ele>
        <time>2021-02-28T09:21:27Z</time>
      </trkpt>
      <trkpt lat="45.11232" lon="6.42438">
        <ele>1723.6</ele>
        <time>2021-02-28T09:21:28Z</time>
      </trkpt>
      <trkpt lat="45.11231" lon="6.42438">
        <ele>1723.8</ele>
        <time>2021-02-28T09:21:29Z</time>
      </trkpt>
      <trkpt lat="45.11229" lon="6.42438">
        <ele>1723.8</ele>
        <time>2021-02-28T09:21:30Z</time>
      </trkpt>
      <trkpt lat="45.11227" lon="6.42438">
        <ele>1724.2</ele>
        <time>2021-02-28T09:21:31Z</time>
      </trkpt>
      <trkpt lat="45.11226" lon="6.42438">
        <ele>1724.4</ele>
        <time>2021-02-28T09:21:32Z</time>
      </trkpt>
      <trkpt lat="45.11224" lon="6.42439">
        <ele>1724.6</ele>
        <time>2021-02-28T09:21:33Z</time>
      </trkpt>
      <trkpt lat="45.11223" lon="6.42439">
        <ele>1724.6</ele>
        <time>2021-02-28T09:21:34Z</time>
      </trkpt>
      <trkpt lat="45.11221" lon="6.42439">
        <ele>1724.6</ele>
        <time>2021-02-28T09:21:35Z</time>
      </trkpt>
      <trkpt lat="45.1122" lon="6.42438">
        <ele>1724.8</ele>
        <time>2021-02-28T09:21:36Z</time>
      </trkpt>
      <trkpt lat="45.11218" lon="6.42438">
        <ele>1724.8</ele>
        <time>2021-02-28T09:21:37Z</time>
      </trkpt>
      <trkpt lat="45.11217" lon="6.42438">
        <ele>1724.8</ele>
        <time>2021-02-28T09:21:38Z</time>
      </trkpt>
      <trkpt lat="45.11215" lon="6.42438">
        <ele>1724.8</ele>
        <time>2021-02-28T09:21:39Z</time>
      </trkpt>
      <trkpt lat="45.11214" lon="6.42438">
        <ele>1725</ele>
        <time>2021-02-28T09:21:40Z</time>
      </trkpt>
      <trkpt lat="45.11212" lon="6.42438">
        <ele>1725.2</ele>
        <time>2021-02-28T09:21:41Z</time>
      </trkpt>
      <trkpt lat="45.1121" lon="6.42438">
        <ele>1725.4</ele>
        <time>2021-02-28T09:21:42Z</time>
      </trkpt>
      <trkpt lat="45.11208" lon="6.42438">
        <ele>1725.8</ele>
        <time>2021-02-28T09:21:43Z</time>
      </trkpt>
      <trkpt lat="45.11207" lon="6.42438">
        <ele>1725.8</ele>
        <time>2021-02-28T09:21:44Z</time>
      </trkpt>
      <trkpt lat="45.11205" lon="6.42438">
        <ele>1725.6</ele>
        <time>2021-02-28T09:21:45Z</time>
      </trkpt>
      <trkpt lat="45.11203" lon="6.42439">
        <ele>1725.8</ele>
        <time>2021-02-28T09:21:46Z</time>
      </trkpt>
      <trkpt lat="45.11201" lon="6.42438">
        <ele>1726.2</ele>
        <time>2021-02-28T09:21:47Z</time>
      </trkpt>
      <trkpt lat="45.11199" lon="6.42438">
        <ele>1726.8</ele>
        <time>2021-02-28T09:21:48Z</time>
      </trkpt>
      <trkpt lat="45.11197" lon="6.42437">
        <ele>1726.6</ele>
        <time>2021-02-28T09:21:49Z</time>
      </trkpt>
      <trkpt lat="45.11195" lon="6.42437">
        <ele>1726.6</ele>
        <time>2021-02-28T09:21:50Z</time>
      </trkpt>
      <trkpt lat="45.11193" lon="6.42436">
        <ele>1726.6</ele>
        <time>2021-02-28T09:21:51Z</time>
      </trkpt>
      <trkpt lat="45.11191" lon="6.42436">
        <ele>1726.6</ele>
        <time>2021-02-28T09:21:52Z</time>
      </trkpt>
      <trkpt lat="45.11191" lon="6.42436">
        <ele>1726.6</ele>
        <time>2021-02-28T09:21:53Z</time>
      </trkpt>
      <trkpt lat="45.11188" lon="6.42436">
        <ele>1726.8</ele>
        <time>2021-02-28T09:21:54Z</time>
      </trkpt>
      <trkpt lat="45.11188" lon="6.42436">
        <ele>1726.8</ele>
        <time>2021-02-28T09:21:55Z</time>
      </trkpt>
      <trkpt lat="45.11185" lon="6.42436">
        <ele>1727</ele>
        <time>2021-02-28T09:21:56Z</time>
      </trkpt>
      <trkpt lat="45.11183" lon="6.42436">
        <ele>1727</ele>
        <time>2021-02-28T09:21:57Z</time>
      </trkpt>
      <trkpt lat="45.11181" lon="6.42436">
        <ele>1727.4</ele>
        <time>2021-02-28T09:21:58Z</time>
      </trkpt>
      <trkpt lat="45.11181" lon="6.42436">
        <ele>1727.4</ele>
        <time>2021-02-28T09:21:59Z</time>
      </trkpt>
      <trkpt lat="45.11177" lon="6.42436">
        <ele>1727.6</ele>
        <time>2021-02-28T09:22:00Z</time>
      </trkpt>
      <trkpt lat="45.11177" lon="6.42436">
        <ele>1727.8</ele>
        <time>2021-02-28T09:22:01Z</time>
      </trkpt>
      <trkpt lat="45.11174" lon="6.42437">
        <ele>1727.6</ele>
        <time>2021-02-28T09:22:02Z</time>
      </trkpt>
      <trkpt lat="45.11172" lon="6.42437">
        <ele>1727.8</ele>
        <time>2021-02-28T09:22:03Z</time>
      </trkpt>
      <trkpt lat="45.11172" lon="6.42437">
        <ele>1728</ele>
        <time>2021-02-28T09:22:04Z</time>
      </trkpt>
      <trkpt lat="45.11172" lon="6.42437">
        <ele>1728</ele>
        <time>2021-02-28T09:22:05Z</time>
      </trkpt>
      <trkpt lat="45.1117" lon="6.42437">
        <ele>1728.2</ele>
        <time>2021-02-28T09:22:06Z</time>
      </trkpt>
      <trkpt lat="45.11167" lon="6.42437">
        <ele>1728.4</ele>
        <time>2021-02-28T09:22:07Z</time>
      </trkpt>
      <trkpt lat="45.11165" lon="6.42437">
        <ele>1728.4</ele>
        <time>2021-02-28T09:22:08Z</time>
      </trkpt>
      <trkpt lat="45.11163" lon="6.42437">
        <ele>1728.4</ele>
        <time>2021-02-28T09:22:09Z</time>
      </trkpt>
      <trkpt lat="45.11161" lon="6.42437">
        <ele>1728.4</ele>
        <time>2021-02-28T09:22:10Z</time>
      </trkpt>
      <trkpt lat="45.11159" lon="6.42437">
        <ele>1728.8</ele>
        <time>2021-02-28T09:22:11Z</time>
      </trkpt>
      <trkpt lat="45.11159" lon="6.42437">
        <ele>1729</ele>
        <time>2021-02-28T09:22:12Z</time>
      </trkpt>
      <trkpt lat="45.11155" lon="6.42438">
        <ele>1729.2</ele>
        <time>2021-02-28T09:22:13Z</time>
      </trkpt>
      <trkpt lat="45.11155" lon="6.42438">
        <ele>1729</ele>
        <time>2021-02-28T09:22:14Z</time>
      </trkpt>
      <trkpt lat="45.11152" lon="6.42438">
        <ele>1729</ele>
        <time>2021-02-28T09:22:15Z</time>
      </trkpt>
      <trkpt lat="45.11152" lon="6.42438">
        <ele>1729.4</ele>
        <time>2021-02-28T09:22:16Z</time>
      </trkpt>
      <trkpt lat="45.11149" lon="6.42437">
        <ele>1729.4</ele>
        <time>2021-02-28T09:22:17Z</time>
      </trkpt>
      <trkpt lat="45.11149" lon="6.42437">
        <ele>1729.6</ele>
        <time>2021-02-28T09:22:18Z</time>
      </trkpt>
      <trkpt lat="45.11147" lon="6.42437">
        <ele>1730.2</ele>
        <time>2021-02-28T09:22:19Z</time>
      </trkpt>
      <trkpt lat="45.11147" lon="6.42437">
        <ele>1730</ele>
        <time>2021-02-28T09:22:20Z</time>
      </trkpt>
      <trkpt lat="45.11144" lon="6.42437">
        <ele>1730.2</ele>
        <time>2021-02-28T09:22:21Z</time>
      </trkpt>
      <trkpt lat="45.11144" lon="6.42437">
        <ele>1730</ele>
        <time>2021-02-28T09:22:22Z</time>
      </trkpt>
      <trkpt lat="45.11144" lon="6.42437">
        <ele>1730</ele>
        <time>2021-02-28T09:22:23Z</time>
      </trkpt>
      <trkpt lat="45.11143" lon="6.42437">
        <ele>1730.4</ele>
        <time>2021-02-28T09:22:24Z</time>
      </trkpt>
      <trkpt lat="45.11141" lon="6.42438">
        <ele>1730.6</ele>
        <time>2021-02-28T09:22:25Z</time>
      </trkpt>
      <trkpt lat="45.1114" lon="6.42438">
        <ele>1730.6</ele>
        <time>2021-02-28T09:22:26Z</time>
      </trkpt>
      <trkpt lat="45.11138" lon="6.42438">
        <ele>1730.4</ele>
        <time>2021-02-28T09:22:27Z</time>
      </trkpt>
      <trkpt lat="45.11136" lon="6.42438">
        <ele>1730.4</ele>
        <time>2021-02-28T09:22:28Z</time>
      </trkpt>
      <trkpt lat="45.11135" lon="6.42438">
        <ele>1730.6</ele>
        <time>2021-02-28T09:22:29Z</time>
      </trkpt>
      <trkpt lat="45.11133" lon="6.42438">
        <ele>1730.8</ele>
        <time>2021-02-28T09:22:30Z</time>
      </trkpt>
      <trkpt lat="45.11132" lon="6.42439">
        <ele>1731.2</ele>
        <time>2021-02-28T09:22:31Z</time>
      </trkpt>
      <trkpt lat="45.1113" lon="6.42439">
        <ele>1731.2</ele>
        <time>2021-02-28T09:22:32Z</time>
      </trkpt>
      <trkpt lat="45.11129" lon="6.4244">
        <ele>1731.2</ele>
        <time>2021-02-28T09:22:33Z</time>
      </trkpt>
      <trkpt lat="45.11127" lon="6.4244">
        <ele>1731.4</ele>
        <time>2021-02-28T09:22:34Z</time>
      </trkpt>
      <trkpt lat="45.11126" lon="6.4244">
        <ele>1731.2</ele>
        <time>2021-02-28T09:22:35Z</time>
      </trkpt>
      <trkpt lat="45.11124" lon="6.42441">
        <ele>1731.4</ele>
        <time>2021-02-28T09:22:36Z</time>
      </trkpt>
      <trkpt lat="45.11123" lon="6.42441">
        <ele>1731.8</ele>
        <time>2021-02-28T09:22:37Z</time>
      </trkpt>
      <trkpt lat="45.11121" lon="6.42442">
        <ele>1732.6</ele>
        <time>2021-02-28T09:22:38Z</time>
      </trkpt>
      <trkpt lat="45.11119" lon="6.42443">
        <ele>1732.4</ele>
        <time>2021-02-28T09:22:39Z</time>
      </trkpt>
      <trkpt lat="45.11117" lon="6.42443">
        <ele>1732.4</ele>
        <time>2021-02-28T09:22:40Z</time>
      </trkpt>
      <trkpt lat="45.11116" lon="6.42444">
        <ele>1732.8</ele>
        <time>2021-02-28T09:22:41Z</time>
      </trkpt>
      <trkpt lat="45.11114" lon="6.42445">
        <ele>1732.8</ele>
        <time>2021-02-28T09:22:42Z</time>
      </trkpt>
      <trkpt lat="45.11113" lon="6.42445">
        <ele>1733.2</ele>
        <time>2021-02-28T09:22:43Z</time>
      </trkpt>
      <trkpt lat="45.11111" lon="6.42446">
        <ele>1733.2</ele>
        <time>2021-02-28T09:22:44Z</time>
      </trkpt>
      <trkpt lat="45.1111" lon="6.42446">
        <ele>1733.2</ele>
        <time>2021-02-28T09:22:45Z</time>
      </trkpt>
      <trkpt lat="45.11109" lon="6.42447">
        <ele>1733.4</ele>
        <time>2021-02-28T09:22:46Z</time>
      </trkpt>
      <trkpt lat="45.11107" lon="6.42447">
        <ele>1733.6</ele>
        <time>2021-02-28T09:22:47Z</time>
      </trkpt>
      <trkpt lat="45.11106" lon="6.42448">
        <ele>1733.4</ele>
        <time>2021-02-28T09:22:48Z</time>
      </trkpt>
      <trkpt lat="45.11104" lon="6.42449">
        <ele>1733.4</ele>
        <time>2021-02-28T09:22:49Z</time>
      </trkpt>
      <trkpt lat="45.11103" lon="6.4245">
        <ele>1733.4</ele>
        <time>2021-02-28T09:22:50Z</time>
      </trkpt>
      <trkpt lat="45.11101" lon="6.42451">
        <ele>1733.8</ele>
        <time>2021-02-28T09:22:51Z</time>
      </trkpt>
      <trkpt lat="45.111" lon="6.42452">
        <ele>1734.4</ele>
        <time>2021-02-28T09:22:52Z</time>
      </trkpt>
      <trkpt lat="45.11098" lon="6.42453">
        <ele>1734.4</ele>
        <time>2021-02-28T09:22:53Z</time>
      </trkpt>
      <trkpt lat="45.11097" lon="6.42454">
        <ele>1734.6</ele>
        <time>2021-02-28T09:22:54Z</time>
      </trkpt>
      <trkpt lat="45.11095" lon="6.42455">
        <ele>1734.2</ele>
        <time>2021-02-28T09:22:55Z</time>
      </trkpt>
      <trkpt lat="45.11093" lon="6.42456">
        <ele>1734.4</ele>
        <time>2021-02-28T09:22:56Z</time>
      </trkpt>
      <trkpt lat="45.11092" lon="6.42457">
        <ele>1734.2</ele>
        <time>2021-02-28T09:22:57Z</time>
      </trkpt>
      <trkpt lat="45.1109" lon="6.42458">
        <ele>1734.2</ele>
        <time>2021-02-28T09:22:58Z</time>
      </trkpt>
      <trkpt lat="45.11088" lon="6.42459">
        <ele>1734.2</ele>
        <time>2021-02-28T09:22:59Z</time>
      </trkpt>
      <trkpt lat="45.11087" lon="6.4246">
        <ele>1734.6</ele>
        <time>2021-02-28T09:23:00Z</time>
      </trkpt>
      <trkpt lat="45.11085" lon="6.42461">
        <ele>1734.8</ele>
        <time>2021-02-28T09:23:01Z</time>
      </trkpt>
      <trkpt lat="45.11084" lon="6.42462">
        <ele>1735</ele>
        <time>2021-02-28T09:23:02Z</time>
      </trkpt>
      <trkpt lat="45.11083" lon="6.42463">
        <ele>1735.2</ele>
        <time>2021-02-28T09:23:03Z</time>
      </trkpt>
      <trkpt lat="45.11081" lon="6.42463">
        <ele>1735</ele>
        <time>2021-02-28T09:23:04Z</time>
      </trkpt>
      <trkpt lat="45.1108" lon="6.42464">
        <ele>1735.2</ele>
        <time>2021-02-28T09:23:05Z</time>
      </trkpt>
      <trkpt lat="45.11078" lon="6.42465">
        <ele>1735</ele>
        <time>2021-02-28T09:23:06Z</time>
      </trkpt>
      <trkpt lat="45.11077" lon="6.42467">
        <ele>1735.2</ele>
        <time>2021-02-28T09:23:07Z</time>
      </trkpt>
      <trkpt lat="45.11075" lon="6.42468">
        <ele>1735.4</ele>
        <time>2021-02-28T09:23:08Z</time>
      </trkpt>
      <trkpt lat="45.11073" lon="6.4247">
        <ele>1735.8</ele>
        <time>2021-02-28T09:23:09Z</time>
      </trkpt>
      <trkpt lat="45.11071" lon="6.42472">
        <ele>1736</ele>
        <time>2021-02-28T09:23:10Z</time>
      </trkpt>
      <trkpt lat="45.1107" lon="6.42473">
        <ele>1736.4</ele>
        <time>2021-02-28T09:23:11Z</time>
      </trkpt>
      <trkpt lat="45.11068" lon="6.42474">
        <ele>1736.2</ele>
        <time>2021-02-28T09:23:12Z</time>
      </trkpt>
      <trkpt lat="45.11066" lon="6.42476">
        <ele>1736.2</ele>
        <time>2021-02-28T09:23:13Z</time>
      </trkpt>
      <trkpt lat="45.11065" lon="6.42477">
        <ele>1736.2</ele>
        <time>2021-02-28T09:23:14Z</time>
      </trkpt>
      <trkpt lat="45.11063" lon="6.42478">
        <ele>1736.4</ele>
        <time>2021-02-28T09:23:15Z</time>
      </trkpt>
      <trkpt lat="45.11061" lon="6.42479">
        <ele>1737.2</ele>
        <time>2021-02-28T09:23:16Z</time>
      </trkpt>
      <trkpt lat="45.11059" lon="6.4248">
        <ele>1737</ele>
        <time>2021-02-28T09:23:17Z</time>
      </trkpt>
      <trkpt lat="45.11058" lon="6.42481">
        <ele>1737</ele>
        <time>2021-02-28T09:23:18Z</time>
      </trkpt>
      <trkpt lat="45.11056" lon="6.42483">
        <ele>1737</ele>
        <time>2021-02-28T09:23:19Z</time>
      </trkpt>
      <trkpt lat="45.11054" lon="6.42484">
        <ele>1737</ele>
        <time>2021-02-28T09:23:20Z</time>
      </trkpt>
      <trkpt lat="45.11053" lon="6.42485">
        <ele>1737.2</ele>
        <time>2021-02-28T09:23:21Z</time>
      </trkpt>
      <trkpt lat="45.11051" lon="6.42486">
        <ele>1737.4</ele>
        <time>2021-02-28T09:23:22Z</time>
      </trkpt>
      <trkpt lat="45.11049" lon="6.42487">
        <ele>1737.4</ele>
        <time>2021-02-28T09:23:23Z</time>
      </trkpt>
      <trkpt lat="45.11048" lon="6.42488">
        <ele>1737.2</ele>
        <time>2021-02-28T09:23:24Z</time>
      </trkpt>
      <trkpt lat="45.11046" lon="6.42489">
        <ele>1737.4</ele>
        <time>2021-02-28T09:23:25Z</time>
      </trkpt>
      <trkpt lat="45.11045" lon="6.4249">
        <ele>1737.6</ele>
        <time>2021-02-28T09:23:26Z</time>
      </trkpt>
      <trkpt lat="45.11043" lon="6.42491">
        <ele>1737.6</ele>
        <time>2021-02-28T09:23:27Z</time>
      </trkpt>
      <trkpt lat="45.11041" lon="6.42492">
        <ele>1738</ele>
        <time>2021-02-28T09:23:28Z</time>
      </trkpt>
      <trkpt lat="45.1104" lon="6.42493">
        <ele>1738</ele>
        <time>2021-02-28T09:23:29Z</time>
      </trkpt>
      <trkpt lat="45.11038" lon="6.42494">
        <ele>1738.4</ele>
        <time>2021-02-28T09:23:30Z</time>
      </trkpt>
      <trkpt lat="45.11037" lon="6.42495">
        <ele>1738.6</ele>
        <time>2021-02-28T09:23:31Z</time>
      </trkpt>
      <trkpt lat="45.11035" lon="6.42495">
        <ele>1738.6</ele>
        <time>2021-02-28T09:23:32Z</time>
      </trkpt>
      <trkpt lat="45.11034" lon="6.42496">
        <ele>1738.6</ele>
        <time>2021-02-28T09:23:33Z</time>
      </trkpt>
      <trkpt lat="45.11033" lon="6.42497">
        <ele>1738.8</ele>
        <time>2021-02-28T09:23:34Z</time>
      </trkpt>
      <trkpt lat="45.11031" lon="6.42498">
        <ele>1738.8</ele>
        <time>2021-02-28T09:23:35Z</time>
      </trkpt>
      <trkpt lat="45.11029" lon="6.42499">
        <ele>1738.8</ele>
        <time>2021-02-28T09:23:36Z</time>
      </trkpt>
      <trkpt lat="45.11028" lon="6.425">
        <ele>1739</ele>
        <time>2021-02-28T09:23:37Z</time>
      </trkpt>
      <trkpt lat="45.11026" lon="6.42501">
        <ele>1739</ele>
        <time>2021-02-28T09:23:38Z</time>
      </trkpt>
      <trkpt lat="45.11025" lon="6.42502">
        <ele>1739.4</ele>
        <time>2021-02-28T09:23:39Z</time>
      </trkpt>
      <trkpt lat="45.11023" lon="6.42503">
        <ele>1739.4</ele>
        <time>2021-02-28T09:23:40Z</time>
      </trkpt>
      <trkpt lat="45.11021" lon="6.42504">
        <ele>1739</ele>
        <time>2021-02-28T09:23:41Z</time>
      </trkpt>
      <trkpt lat="45.1102" lon="6.42505">
        <ele>1739</ele>
        <time>2021-02-28T09:23:42Z</time>
      </trkpt>
      <trkpt lat="45.11018" lon="6.42506">
        <ele>1739.2</ele>
        <time>2021-02-28T09:23:43Z</time>
      </trkpt>
      <trkpt lat="45.11016" lon="6.42506">
        <ele>1739.4</ele>
        <time>2021-02-28T09:23:44Z</time>
      </trkpt>
      <trkpt lat="45.11014" lon="6.42507">
        <ele>1739.4</ele>
        <time>2021-02-28T09:23:45Z</time>
      </trkpt>
      <trkpt lat="45.11013" lon="6.42508">
        <ele>1739.4</ele>
        <time>2021-02-28T09:23:46Z</time>
      </trkpt>
      <trkpt lat="45.11012" lon="6.42509">
        <ele>1739.4</ele>
        <time>2021-02-28T09:23:47Z</time>
      </trkpt>
      <trkpt lat="45.11011" lon="6.42509">
        <ele>1739.4</ele>
        <time>2021-02-28T09:23:48Z</time>
      </trkpt>
      <trkpt lat="45.11009" lon="6.4251">
        <ele>1739.6</ele>
        <time>2021-02-28T09:23:49Z</time>
      </trkpt>
      <trkpt lat="45.11008" lon="6.42511">
        <ele>1739.8</ele>
        <time>2021-02-28T09:23:50Z</time>
      </trkpt>
      <trkpt lat="45.11007" lon="6.42511">
        <ele>1740</ele>
        <time>2021-02-28T09:23:51Z</time>
      </trkpt>
      <trkpt lat="45.11005" lon="6.42512">
        <ele>1740.2</ele>
        <time>2021-02-28T09:23:52Z</time>
      </trkpt>
      <trkpt lat="45.11004" lon="6.42513">
        <ele>1740.2</ele>
        <time>2021-02-28T09:23:53Z</time>
      </trkpt>
      <trkpt lat="45.11002" lon="6.42514">
        <ele>1740.4</ele>
        <time>2021-02-28T09:23:54Z</time>
      </trkpt>
      <trkpt lat="45.11001" lon="6.42515">
        <ele>1740.2</ele>
        <time>2021-02-28T09:23:55Z</time>
      </trkpt>
      <trkpt lat="45.10999" lon="6.42515">
        <ele>1740.4</ele>
        <time>2021-02-28T09:23:56Z</time>
      </trkpt>
      <trkpt lat="45.10998" lon="6.42516">
        <ele>1740.4</ele>
        <time>2021-02-28T09:23:57Z</time>
      </trkpt>
      <trkpt lat="45.10996" lon="6.42517">
        <ele>1740.6</ele>
        <time>2021-02-28T09:23:58Z</time>
      </trkpt>
      <trkpt lat="45.10995" lon="6.42518">
        <ele>1741.2</ele>
        <time>2021-02-28T09:23:59Z</time>
      </trkpt>
      <trkpt lat="45.10994" lon="6.42519">
        <ele>1741.2</ele>
        <time>2021-02-28T09:24:00Z</time>
      </trkpt>
      <trkpt lat="45.10992" lon="6.4252">
        <ele>1741.2</ele>
        <time>2021-02-28T09:24:01Z</time>
      </trkpt>
      <trkpt lat="45.10991" lon="6.42521">
        <ele>1741.2</ele>
        <time>2021-02-28T09:24:02Z</time>
      </trkpt>
      <trkpt lat="45.1099" lon="6.42522">
        <ele>1741.6</ele>
        <time>2021-02-28T09:24:03Z</time>
      </trkpt>
      <trkpt lat="45.10988" lon="6.42523">
        <ele>1741.6</ele>
        <time>2021-02-28T09:24:04Z</time>
      </trkpt>
      <trkpt lat="45.10987" lon="6.42525">
        <ele>1742</ele>
        <time>2021-02-28T09:24:05Z</time>
      </trkpt>
      <trkpt lat="45.10986" lon="6.42526">
        <ele>1742.4</ele>
        <time>2021-02-28T09:24:06Z</time>
      </trkpt>
      <trkpt lat="45.10985" lon="6.42527">
        <ele>1742.6</ele>
        <time>2021-02-28T09:24:07Z</time>
      </trkpt>
      <trkpt lat="45.10983" lon="6.42528">
        <ele>1742.8</ele>
        <time>2021-02-28T09:24:08Z</time>
      </trkpt>
      <trkpt lat="45.10982" lon="6.42529">
        <ele>1742.6</ele>
        <time>2021-02-28T09:24:09Z</time>
      </trkpt>
      <trkpt lat="45.10981" lon="6.4253">
        <ele>1742.6</ele>
        <time>2021-02-28T09:24:10Z</time>
      </trkpt>
      <trkpt lat="45.1098" lon="6.42531">
        <ele>1742.6</ele>
        <time>2021-02-28T09:24:11Z</time>
      </trkpt>
      <trkpt lat="45.10978" lon="6.42533">
        <ele>1742.4</ele>
        <time>2021-02-28T09:24:12Z</time>
      </trkpt>
      <trkpt lat="45.10977" lon="6.42534">
        <ele>1742.6</ele>
        <time>2021-02-28T09:24:13Z</time>
      </trkpt>
      <trkpt lat="45.10976" lon="6.42536">
        <ele>1743.2</ele>
        <time>2021-02-28T09:24:14Z</time>
      </trkpt>
      <trkpt lat="45.10975" lon="6.42537">
        <ele>1743.2</ele>
        <time>2021-02-28T09:24:15Z</time>
      </trkpt>
      <trkpt lat="45.10973" lon="6.42539">
        <ele>1743</ele>
        <time>2021-02-28T09:24:16Z</time>
      </trkpt>
      <trkpt lat="45.10972" lon="6.4254">
        <ele>1743.2</ele>
        <time>2021-02-28T09:24:17Z</time>
      </trkpt>
      <trkpt lat="45.1097" lon="6.42542">
        <ele>1743.2</ele>
        <time>2021-02-28T09:24:18Z</time>
      </trkpt>
      <trkpt lat="45.10968" lon="6.42544">
        <ele>1743</ele>
        <time>2021-02-28T09:24:19Z</time>
      </trkpt>
      <trkpt lat="45.10966" lon="6.42546">
        <ele>1743.2</ele>
        <time>2021-02-28T09:24:20Z</time>
      </trkpt>
      <trkpt lat="45.10965" lon="6.42548">
        <ele>1743.6</ele>
        <time>2021-02-28T09:24:21Z</time>
      </trkpt>
      <trkpt lat="45.10964" lon="6.4255">
        <ele>1743.6</ele>
        <time>2021-02-28T09:24:22Z</time>
      </trkpt>
      <trkpt lat="45.10963" lon="6.42552">
        <ele>1743.8</ele>
        <time>2021-02-28T09:24:23Z</time>
      </trkpt>
      <trkpt lat="45.10962" lon="6.42553">
        <ele>1743.8</ele>
        <time>2021-02-28T09:24:24Z</time>
      </trkpt>
      <trkpt lat="45.10961" lon="6.42555">
        <ele>1744</ele>
        <time>2021-02-28T09:24:25Z</time>
      </trkpt>
      <trkpt lat="45.1096" lon="6.42556">
        <ele>1744.2</ele>
        <time>2021-02-28T09:24:26Z</time>
      </trkpt>
      <trkpt lat="45.10959" lon="6.42558">
        <ele>1744.2</ele>
        <time>2021-02-28T09:24:27Z</time>
      </trkpt>
      <trkpt lat="45.10958" lon="6.4256">
        <ele>1744.4</ele>
        <time>2021-02-28T09:24:28Z</time>
      </trkpt>
      <trkpt lat="45.10957" lon="6.42561">
        <ele>1744.4</ele>
        <time>2021-02-28T09:24:29Z</time>
      </trkpt>
      <trkpt lat="45.10956" lon="6.42563">
        <ele>1744.4</ele>
        <time>2021-02-28T09:24:30Z</time>
      </trkpt>
      <trkpt lat="45.10955" lon="6.42564">
        <ele>1744.4</ele>
        <time>2021-02-28T09:24:31Z</time>
      </trkpt>
      <trkpt lat="45.10954" lon="6.42565">
        <ele>1744.6</ele>
        <time>2021-02-28T09:24:32Z</time>
      </trkpt>
      <trkpt lat="45.10953" lon="6.42567">
        <ele>1744.8</ele>
        <time>2021-02-28T09:24:33Z</time>
      </trkpt>
      <trkpt lat="45.10952" lon="6.42568">
        <ele>1744.8</ele>
        <time>2021-02-28T09:24:34Z</time>
      </trkpt>
      <trkpt lat="45.10951" lon="6.4257">
        <ele>1744.8</ele>
        <time>2021-02-28T09:24:35Z</time>
      </trkpt>
      <trkpt lat="45.1095" lon="6.42571">
        <ele>1745</ele>
        <time>2021-02-28T09:24:36Z</time>
      </trkpt>
      <trkpt lat="45.10949" lon="6.42573">
        <ele>1745.2</ele>
        <time>2021-02-28T09:24:37Z</time>
      </trkpt>
      <trkpt lat="45.10947" lon="6.42575">
        <ele>1745.4</ele>
        <time>2021-02-28T09:24:38Z</time>
      </trkpt>
      <trkpt lat="45.10946" lon="6.42577">
        <ele>1745.2</ele>
        <time>2021-02-28T09:24:39Z</time>
      </trkpt>
      <trkpt lat="45.10945" lon="6.42579">
        <ele>1745.4</ele>
        <time>2021-02-28T09:24:40Z</time>
      </trkpt>
      <trkpt lat="45.10944" lon="6.42581">
        <ele>1745.6</ele>
        <time>2021-02-28T09:24:41Z</time>
      </trkpt>
      <trkpt lat="45.10942" lon="6.42582">
        <ele>1745.6</ele>
        <time>2021-02-28T09:24:42Z</time>
      </trkpt>
      <trkpt lat="45.10941" lon="6.42583">
        <ele>1745.8</ele>
        <time>2021-02-28T09:24:43Z</time>
      </trkpt>
      <trkpt lat="45.1094" lon="6.42585">
        <ele>1746</ele>
        <time>2021-02-28T09:24:44Z</time>
      </trkpt>
      <trkpt lat="45.10939" lon="6.42586">
        <ele>1746</ele>
        <time>2021-02-28T09:24:45Z</time>
      </trkpt>
      <trkpt lat="45.10937" lon="6.42588">
        <ele>1746</ele>
        <time>2021-02-28T09:24:46Z</time>
      </trkpt>
      <trkpt lat="45.10936" lon="6.42589">
        <ele>1746</ele>
        <time>2021-02-28T09:24:47Z</time>
      </trkpt>
      <trkpt lat="45.10934" lon="6.4259">
        <ele>1746.4</ele>
        <time>2021-02-28T09:24:48Z</time>
      </trkpt>
      <trkpt lat="45.10933" lon="6.42592">
        <ele>1746.2</ele>
        <time>2021-02-28T09:24:49Z</time>
      </trkpt>
      <trkpt lat="45.10931" lon="6.42593">
        <ele>1746.4</ele>
        <time>2021-02-28T09:24:50Z</time>
      </trkpt>
      <trkpt lat="45.1093" lon="6.42595">
        <ele>1746.6</ele>
        <time>2021-02-28T09:24:51Z</time>
      </trkpt>
      <trkpt lat="45.10928" lon="6.42596">
        <ele>1746.4</ele>
        <time>2021-02-28T09:24:52Z</time>
      </trkpt>
      <trkpt lat="45.10927" lon="6.42598">
        <ele>1746.6</ele>
        <time>2021-02-28T09:24:53Z</time>
      </trkpt>
      <trkpt lat="45.10925" lon="6.42599">
        <ele>1746.6</ele>
        <time>2021-02-28T09:24:54Z</time>
      </trkpt>
      <trkpt lat="45.10924" lon="6.426">
        <ele>1746.6</ele>
        <time>2021-02-28T09:24:55Z</time>
      </trkpt>
      <trkpt lat="45.10922" lon="6.42602">
        <ele>1746.8</ele>
        <time>2021-02-28T09:24:56Z</time>
      </trkpt>
      <trkpt lat="45.10921" lon="6.42603">
        <ele>1746.8</ele>
        <time>2021-02-28T09:24:57Z</time>
      </trkpt>
      <trkpt lat="45.1092" lon="6.42604">
        <ele>1747</ele>
        <time>2021-02-28T09:24:58Z</time>
      </trkpt>
      <trkpt lat="45.10918" lon="6.42605">
        <ele>1747.2</ele>
        <time>2021-02-28T09:24:59Z</time>
      </trkpt>
      <trkpt lat="45.10917" lon="6.42606">
        <ele>1747.2</ele>
        <time>2021-02-28T09:25:00Z</time>
      </trkpt>
      <trkpt lat="45.10915" lon="6.42607">
        <ele>1747.2</ele>
        <time>2021-02-28T09:25:01Z</time>
      </trkpt>
      <trkpt lat="45.10914" lon="6.42608">
        <ele>1747.8</ele>
        <time>2021-02-28T09:25:02Z</time>
      </trkpt>
      <trkpt lat="45.10912" lon="6.42608">
        <ele>1748</ele>
        <time>2021-02-28T09:25:03Z</time>
      </trkpt>
      <trkpt lat="45.10911" lon="6.42609">
        <ele>1748.2</ele>
        <time>2021-02-28T09:25:04Z</time>
      </trkpt>
      <trkpt lat="45.10909" lon="6.42609">
        <ele>1748.2</ele>
        <time>2021-02-28T09:25:05Z</time>
      </trkpt>
      <trkpt lat="45.10908" lon="6.42609">
        <ele>1748.2</ele>
        <time>2021-02-28T09:25:06Z</time>
      </trkpt>
      <trkpt lat="45.10906" lon="6.42608">
        <ele>1748.2</ele>
        <time>2021-02-28T09:25:07Z</time>
      </trkpt>
      <trkpt lat="45.10905" lon="6.42608">
        <ele>1748.2</ele>
        <time>2021-02-28T09:25:08Z</time>
      </trkpt>
      <trkpt lat="45.10903" lon="6.42608">
        <ele>1748.6</ele>
        <time>2021-02-28T09:25:09Z</time>
      </trkpt>
      <trkpt lat="45.10902" lon="6.42607">
        <ele>1749</ele>
        <time>2021-02-28T09:25:10Z</time>
      </trkpt>
      <trkpt lat="45.10901" lon="6.42607">
        <ele>1749</ele>
        <time>2021-02-28T09:25:11Z</time>
      </trkpt>
      <trkpt lat="45.10899" lon="6.42606">
        <ele>1749.2</ele>
        <time>2021-02-28T09:25:12Z</time>
      </trkpt>
      <trkpt lat="45.10897" lon="6.42606">
        <ele>1749.2</ele>
        <time>2021-02-28T09:25:13Z</time>
      </trkpt>
      <trkpt lat="45.10895" lon="6.42605">
        <ele>1749.2</ele>
        <time>2021-02-28T09:25:14Z</time>
      </trkpt>
      <trkpt lat="45.10894" lon="6.42605">
        <ele>1749.2</ele>
        <time>2021-02-28T09:25:15Z</time>
      </trkpt>
      <trkpt lat="45.10892" lon="6.42604">
        <ele>1749.4</ele>
        <time>2021-02-28T09:25:16Z</time>
      </trkpt>
      <trkpt lat="45.1089" lon="6.42603">
        <ele>1749.4</ele>
        <time>2021-02-28T09:25:17Z</time>
      </trkpt>
      <trkpt lat="45.10888" lon="6.42602">
        <ele>1749.6</ele>
        <time>2021-02-28T09:25:18Z</time>
      </trkpt>
      <trkpt lat="45.10887" lon="6.42602">
        <ele>1749.8</ele>
        <time>2021-02-28T09:25:19Z</time>
      </trkpt>
      <trkpt lat="45.10885" lon="6.42601">
        <ele>1750</ele>
        <time>2021-02-28T09:25:20Z</time>
      </trkpt>
      <trkpt lat="45.10884" lon="6.426">
        <ele>1750</ele>
        <time>2021-02-28T09:25:21Z</time>
      </trkpt>
      <trkpt lat="45.10882" lon="6.42599">
        <ele>1750</ele>
        <time>2021-02-28T09:25:22Z</time>
      </trkpt>
      <trkpt lat="45.1088" lon="6.42599">
        <ele>1750</ele>
        <time>2021-02-28T09:25:23Z</time>
      </trkpt>
      <trkpt lat="45.10879" lon="6.42598">
        <ele>1750.2</ele>
        <time>2021-02-28T09:25:24Z</time>
      </trkpt>
      <trkpt lat="45.10877" lon="6.42597">
        <ele>1750.4</ele>
        <time>2021-02-28T09:25:25Z</time>
      </trkpt>
      <trkpt lat="45.10876" lon="6.42597">
        <ele>1750.4</ele>
        <time>2021-02-28T09:25:26Z</time>
      </trkpt>
      <trkpt lat="45.10874" lon="6.42596">
        <ele>1750.8</ele>
        <time>2021-02-28T09:25:27Z</time>
      </trkpt>
      <trkpt lat="45.10872" lon="6.42595">
        <ele>1750.6</ele>
        <time>2021-02-28T09:25:28Z</time>
      </trkpt>
      <trkpt lat="45.10871" lon="6.42594">
        <ele>1750.2</ele>
        <time>2021-02-28T09:25:29Z</time>
      </trkpt>
      <trkpt lat="45.10869" lon="6.42594">
        <ele>1750.6</ele>
        <time>2021-02-28T09:25:30Z</time>
      </trkpt>
      <trkpt lat="45.10868" lon="6.42593">
        <ele>1750.8</ele>
        <time>2021-02-28T09:25:31Z</time>
      </trkpt>
      <trkpt lat="45.10867" lon="6.42593">
        <ele>1750.8</ele>
        <time>2021-02-28T09:25:32Z</time>
      </trkpt>
      <trkpt lat="45.10865" lon="6.42592">
        <ele>1751</ele>
        <time>2021-02-28T09:25:33Z</time>
      </trkpt>
      <trkpt lat="45.10864" lon="6.42592">
        <ele>1751</ele>
        <time>2021-02-28T09:25:34Z</time>
      </trkpt>
      <trkpt lat="45.10863" lon="6.42592">
        <ele>1751.2</ele>
        <time>2021-02-28T09:25:35Z</time>
      </trkpt>
      <trkpt lat="45.10861" lon="6.42591">
        <ele>1751.2</ele>
        <time>2021-02-28T09:25:36Z</time>
      </trkpt>
      <trkpt lat="45.1086" lon="6.4259">
        <ele>1751.2</ele>
        <time>2021-02-28T09:25:37Z</time>
      </trkpt>
      <trkpt lat="45.10859" lon="6.4259">
        <ele>1751.4</ele>
        <time>2021-02-28T09:25:38Z</time>
      </trkpt>
      <trkpt lat="45.10857" lon="6.42589">
        <ele>1751.4</ele>
        <time>2021-02-28T09:25:39Z</time>
      </trkpt>
      <trkpt lat="45.10856" lon="6.42588">
        <ele>1751.6</ele>
        <time>2021-02-28T09:25:40Z</time>
      </trkpt>
      <trkpt lat="45.10854" lon="6.42587">
        <ele>1752.2</ele>
        <time>2021-02-28T09:25:41Z</time>
      </trkpt>
      <trkpt lat="45.10853" lon="6.42586">
        <ele>1752</ele>
        <time>2021-02-28T09:25:42Z</time>
      </trkpt>
      <trkpt lat="45.10852" lon="6.42586">
        <ele>1752.2</ele>
        <time>2021-02-28T09:25:43Z</time>
      </trkpt>
      <trkpt lat="45.1085" lon="6.42585">
        <ele>1752.2</ele>
        <time>2021-02-28T09:25:44Z</time>
      </trkpt>
      <trkpt lat="45.10848" lon="6.42585">
        <ele>1752.2</ele>
        <time>2021-02-28T09:25:45Z</time>
      </trkpt>
      <trkpt lat="45.10847" lon="6.42584">
        <ele>1752.2</ele>
        <time>2021-02-28T09:25:46Z</time>
      </trkpt>
      <trkpt lat="45.10845" lon="6.42584">
        <ele>1752.4</ele>
        <time>2021-02-28T09:25:47Z</time>
      </trkpt>
      <trkpt lat="45.10844" lon="6.42583">
        <ele>1752.8</ele>
        <time>2021-02-28T09:25:48Z</time>
      </trkpt>
      <trkpt lat="45.10842" lon="6.42583">
        <ele>1753</ele>
        <time>2021-02-28T09:25:49Z</time>
      </trkpt>
      <trkpt lat="45.1084" lon="6.42582">
        <ele>1752.8</ele>
        <time>2021-02-28T09:25:50Z</time>
      </trkpt>
      <trkpt lat="45.10839" lon="6.42582">
        <ele>1752.8</ele>
        <time>2021-02-28T09:25:51Z</time>
      </trkpt>
      <trkpt lat="45.10837" lon="6.42581">
        <ele>1753</ele>
        <time>2021-02-28T09:25:52Z</time>
      </trkpt>
      <trkpt lat="45.10836" lon="6.42581">
        <ele>1753.2</ele>
        <time>2021-02-28T09:25:53Z</time>
      </trkpt>
      <trkpt lat="45.10834" lon="6.42581">
        <ele>1753.4</ele>
        <time>2021-02-28T09:25:54Z</time>
      </trkpt>
      <trkpt lat="45.10833" lon="6.4258">
        <ele>1753.8</ele>
        <time>2021-02-28T09:25:55Z</time>
      </trkpt>
      <trkpt lat="45.10831" lon="6.4258">
        <ele>1753.6</ele>
        <time>2021-02-28T09:25:56Z</time>
      </trkpt>
      <trkpt lat="45.1083" lon="6.42579">
        <ele>1753.4</ele>
        <time>2021-02-28T09:25:57Z</time>
      </trkpt>
      <trkpt lat="45.10828" lon="6.42579">
        <ele>1753.4</ele>
        <time>2021-02-28T09:25:58Z</time>
      </trkpt>
      <trkpt lat="45.10827" lon="6.42579">
        <ele>1753.2</ele>
        <time>2021-02-28T09:25:59Z</time>
      </trkpt>
      <trkpt lat="45.10825" lon="6.42578">
        <ele>1753.4</ele>
        <time>2021-02-28T09:26:00Z</time>
      </trkpt>
      <trkpt lat="45.10824" lon="6.42578">
        <ele>1753.8</ele>
        <time>2021-02-28T09:26:01Z</time>
      </trkpt>
      <trkpt lat="45.10822" lon="6.42577">
        <ele>1753.8</ele>
        <time>2021-02-28T09:26:02Z</time>
      </trkpt>
      <trkpt lat="45.10821" lon="6.42577">
        <ele>1753.8</ele>
        <time>2021-02-28T09:26:03Z</time>
      </trkpt>
      <trkpt lat="45.1082" lon="6.42577">
        <ele>1754</ele>
        <time>2021-02-28T09:26:04Z</time>
      </trkpt>
      <trkpt lat="45.10818" lon="6.42577">
        <ele>1753.8</ele>
        <time>2021-02-28T09:26:05Z</time>
      </trkpt>
      <trkpt lat="45.10817" lon="6.42577">
        <ele>1753.8</ele>
        <time>2021-02-28T09:26:06Z</time>
      </trkpt>
      <trkpt lat="45.10815" lon="6.42576">
        <ele>1754.2</ele>
        <time>2021-02-28T09:26:07Z</time>
      </trkpt>
      <trkpt lat="45.10814" lon="6.42576">
        <ele>1754.4</ele>
        <time>2021-02-28T09:26:08Z</time>
      </trkpt>
      <trkpt lat="45.10813" lon="6.42576">
        <ele>1754.6</ele>
        <time>2021-02-28T09:26:09Z</time>
      </trkpt>
      <trkpt lat="45.10811" lon="6.42576">
        <ele>1754.8</ele>
        <time>2021-02-28T09:26:10Z</time>
      </trkpt>
      <trkpt lat="45.10809" lon="6.42575">
        <ele>1755.4</ele>
        <time>2021-02-28T09:26:11Z</time>
      </trkpt>
      <trkpt lat="45.10807" lon="6.42575">
        <ele>1755.6</ele>
        <time>2021-02-28T09:26:12Z</time>
      </trkpt>
      <trkpt lat="45.10805" lon="6.42575">
        <ele>1755.8</ele>
        <time>2021-02-28T09:26:13Z</time>
      </trkpt>
      <trkpt lat="45.10803" lon="6.42574">
        <ele>1755.6</ele>
        <time>2021-02-28T09:26:14Z</time>
      </trkpt>
      <trkpt lat="45.10801" lon="6.42574">
        <ele>1756</ele>
        <time>2021-02-28T09:26:15Z</time>
      </trkpt>
      <trkpt lat="45.10799" lon="6.42573">
        <ele>1755.8</ele>
        <time>2021-02-28T09:26:16Z</time>
      </trkpt>
      <trkpt lat="45.10798" lon="6.42573">
        <ele>1756</ele>
        <time>2021-02-28T09:26:17Z</time>
      </trkpt>
      <trkpt lat="45.10796" lon="6.42573">
        <ele>1756.4</ele>
        <time>2021-02-28T09:26:18Z</time>
      </trkpt>
      <trkpt lat="45.10794" lon="6.42572">
        <ele>1756.2</ele>
        <time>2021-02-28T09:26:19Z</time>
      </trkpt>
      <trkpt lat="45.10793" lon="6.42572">
        <ele>1756.2</ele>
        <time>2021-02-28T09:26:20Z</time>
      </trkpt>
      <trkpt lat="45.10791" lon="6.42571">
        <ele>1756.4</ele>
        <time>2021-02-28T09:26:21Z</time>
      </trkpt>
      <trkpt lat="45.10789" lon="6.42571">
        <ele>1756.8</ele>
        <time>2021-02-28T09:26:22Z</time>
      </trkpt>
      <trkpt lat="45.10787" lon="6.4257">
        <ele>1756.8</ele>
        <time>2021-02-28T09:26:23Z</time>
      </trkpt>
      <trkpt lat="45.10785" lon="6.4257">
        <ele>1757.2</ele>
        <time>2021-02-28T09:26:24Z</time>
      </trkpt>
      <trkpt lat="45.10783" lon="6.42569">
        <ele>1757.4</ele>
        <time>2021-02-28T09:26:25Z</time>
      </trkpt>
      <trkpt lat="45.10781" lon="6.42568">
        <ele>1757.6</ele>
        <time>2021-02-28T09:26:26Z</time>
      </trkpt>
      <trkpt lat="45.1078" lon="6.42568">
        <ele>1757.6</ele>
        <time>2021-02-28T09:26:27Z</time>
      </trkpt>
      <trkpt lat="45.10779" lon="6.42567">
        <ele>1757.6</ele>
        <time>2021-02-28T09:26:28Z</time>
      </trkpt>
      <trkpt lat="45.10777" lon="6.42567">
        <ele>1757.8</ele>
        <time>2021-02-28T09:26:29Z</time>
      </trkpt>
      <trkpt lat="45.10776" lon="6.42566">
        <ele>1758</ele>
        <time>2021-02-28T09:26:30Z</time>
      </trkpt>
      <trkpt lat="45.10775" lon="6.42566">
        <ele>1758.4</ele>
        <time>2021-02-28T09:26:31Z</time>
      </trkpt>
      <trkpt lat="45.10773" lon="6.42565">
        <ele>1758.6</ele>
        <time>2021-02-28T09:26:32Z</time>
      </trkpt>
      <trkpt lat="45.10772" lon="6.42565">
        <ele>1758.8</ele>
        <time>2021-02-28T09:26:33Z</time>
      </trkpt>
      <trkpt lat="45.1077" lon="6.42565">
        <ele>1758.8</ele>
        <time>2021-02-28T09:26:34Z</time>
      </trkpt>
      <trkpt lat="45.10768" lon="6.42564">
        <ele>1758.8</ele>
        <time>2021-02-28T09:26:35Z</time>
      </trkpt>
      <trkpt lat="45.10767" lon="6.42564">
        <ele>1759</ele>
        <time>2021-02-28T09:26:36Z</time>
      </trkpt>
      <trkpt lat="45.10765" lon="6.42563">
        <ele>1759.2</ele>
        <time>2021-02-28T09:26:37Z</time>
      </trkpt>
      <trkpt lat="45.10763" lon="6.42563">
        <ele>1759.4</ele>
        <time>2021-02-28T09:26:38Z</time>
      </trkpt>
      <trkpt lat="45.10762" lon="6.42562">
        <ele>1759.4</ele>
        <time>2021-02-28T09:26:39Z</time>
      </trkpt>
      <trkpt lat="45.1076" lon="6.42562">
        <ele>1759.6</ele>
        <time>2021-02-28T09:26:40Z</time>
      </trkpt>
      <trkpt lat="45.10759" lon="6.42561">
        <ele>1759.4</ele>
        <time>2021-02-28T09:26:41Z</time>
      </trkpt>
      <trkpt lat="45.10757" lon="6.42561">
        <ele>1759.6</ele>
        <time>2021-02-28T09:26:42Z</time>
      </trkpt>
      <trkpt lat="45.10756" lon="6.4256">
        <ele>1759.8</ele>
        <time>2021-02-28T09:26:43Z</time>
      </trkpt>
      <trkpt lat="45.10754" lon="6.4256">
        <ele>1760</ele>
        <time>2021-02-28T09:26:44Z</time>
      </trkpt>
      <trkpt lat="45.10752" lon="6.42559">
        <ele>1760.4</ele>
        <time>2021-02-28T09:26:45Z</time>
      </trkpt>
      <trkpt lat="45.10751" lon="6.42559">
        <ele>1760.8</ele>
        <time>2021-02-28T09:26:46Z</time>
      </trkpt>
      <trkpt lat="45.10749" lon="6.42558">
        <ele>1761.2</ele>
        <time>2021-02-28T09:26:47Z</time>
      </trkpt>
      <trkpt lat="45.10748" lon="6.42558">
        <ele>1762</ele>
        <time>2021-02-28T09:26:48Z</time>
      </trkpt>
      <trkpt lat="45.10746" lon="6.42557">
        <ele>1762</ele>
        <time>2021-02-28T09:26:49Z</time>
      </trkpt>
      <trkpt lat="45.10744" lon="6.42556">
        <ele>1762</ele>
        <time>2021-02-28T09:26:50Z</time>
      </trkpt>
      <trkpt lat="45.10743" lon="6.42556">
        <ele>1761.8</ele>
        <time>2021-02-28T09:26:51Z</time>
      </trkpt>
      <trkpt lat="45.10741" lon="6.42555">
        <ele>1761.6</ele>
        <time>2021-02-28T09:26:52Z</time>
      </trkpt>
      <trkpt lat="45.10739" lon="6.42555">
        <ele>1761.6</ele>
        <time>2021-02-28T09:26:53Z</time>
      </trkpt>
      <trkpt lat="45.10737" lon="6.42554">
        <ele>1761.8</ele>
        <time>2021-02-28T09:26:54Z</time>
      </trkpt>
      <trkpt lat="45.10735" lon="6.42554">
        <ele>1762.2</ele>
        <time>2021-02-28T09:26:55Z</time>
      </trkpt>
      <trkpt lat="45.10733" lon="6.42553">
        <ele>1762.6</ele>
        <time>2021-02-28T09:26:56Z</time>
      </trkpt>
      <trkpt lat="45.10732" lon="6.42552">
        <ele>1763</ele>
        <time>2021-02-28T09:26:57Z</time>
      </trkpt>
      <trkpt lat="45.1073" lon="6.42552">
        <ele>1763.2</ele>
        <time>2021-02-28T09:26:58Z</time>
      </trkpt>
      <trkpt lat="45.10728" lon="6.42551">
        <ele>1763.4</ele>
        <time>2021-02-28T09:26:59Z</time>
      </trkpt>
      <trkpt lat="45.10727" lon="6.42551">
        <ele>1763.4</ele>
        <time>2021-02-28T09:27:00Z</time>
      </trkpt>
      <trkpt lat="45.10725" lon="6.4255">
        <ele>1763.4</ele>
        <time>2021-02-28T09:27:01Z</time>
      </trkpt>
      <trkpt lat="45.10723" lon="6.4255">
        <ele>1763.6</ele>
        <time>2021-02-28T09:27:02Z</time>
      </trkpt>
      <trkpt lat="45.10722" lon="6.42549">
        <ele>1763.8</ele>
        <time>2021-02-28T09:27:03Z</time>
      </trkpt>
      <trkpt lat="45.1072" lon="6.42549">
        <ele>1764</ele>
        <time>2021-02-28T09:27:04Z</time>
      </trkpt>
      <trkpt lat="45.10718" lon="6.42549">
        <ele>1764.2</ele>
        <time>2021-02-28T09:27:05Z</time>
      </trkpt>
      <trkpt lat="45.10717" lon="6.42548">
        <ele>1764.2</ele>
        <time>2021-02-28T09:27:06Z</time>
      </trkpt>
      <trkpt lat="45.10715" lon="6.42548">
        <ele>1764.6</ele>
        <time>2021-02-28T09:27:07Z</time>
      </trkpt>
      <trkpt lat="45.10714" lon="6.42547">
        <ele>1765</ele>
        <time>2021-02-28T09:27:08Z</time>
      </trkpt>
      <trkpt lat="45.10712" lon="6.42547">
        <ele>1765.6</ele>
        <time>2021-02-28T09:27:09Z</time>
      </trkpt>
      <trkpt lat="45.10711" lon="6.42546">
        <ele>1765.6</ele>
        <time>2021-02-28T09:27:10Z</time>
      </trkpt>
      <trkpt lat="45.1071" lon="6.42546">
        <ele>1765.8</ele>
        <time>2021-02-28T09:27:11Z</time>
      </trkpt>
      <trkpt lat="45.10708" lon="6.42546">
        <ele>1765.6</ele>
        <time>2021-02-28T09:27:12Z</time>
      </trkpt>
      <trkpt lat="45.10707" lon="6.42545">
        <ele>1765.8</ele>
        <time>2021-02-28T09:27:13Z</time>
      </trkpt>
      <trkpt lat="45.10705" lon="6.42545">
        <ele>1766</ele>
        <time>2021-02-28T09:27:14Z</time>
      </trkpt>
      <trkpt lat="45.10704" lon="6.42544">
        <ele>1766.4</ele>
        <time>2021-02-28T09:27:15Z</time>
      </trkpt>
      <trkpt lat="45.10702" lon="6.42544">
        <ele>1767</ele>
        <time>2021-02-28T09:27:16Z</time>
      </trkpt>
      <trkpt lat="45.10701" lon="6.42544">
        <ele>1767.2</ele>
        <time>2021-02-28T09:27:17Z</time>
      </trkpt>
      <trkpt lat="45.10699" lon="6.42544">
        <ele>1767.2</ele>
        <time>2021-02-28T09:27:18Z</time>
      </trkpt>
      <trkpt lat="45.10698" lon="6.42544">
        <ele>1767</ele>
        <time>2021-02-28T09:27:19Z</time>
      </trkpt>
      <trkpt lat="45.10696" lon="6.42544">
        <ele>1767</ele>
        <time>2021-02-28T09:27:20Z</time>
      </trkpt>
      <trkpt lat="45.10695" lon="6.42544">
        <ele>1767</ele>
        <time>2021-02-28T09:27:21Z</time>
      </trkpt>
      <trkpt lat="45.10693" lon="6.42543">
        <ele>1767.2</ele>
        <time>2021-02-28T09:27:22Z</time>
      </trkpt>
      <trkpt lat="45.10692" lon="6.42543">
        <ele>1767.6</ele>
        <time>2021-02-28T09:27:23Z</time>
      </trkpt>
      <trkpt lat="45.1069" lon="6.42543">
        <ele>1768</ele>
        <time>2021-02-28T09:27:24Z</time>
      </trkpt>
      <trkpt lat="45.10689" lon="6.42543">
        <ele>1768.2</ele>
        <time>2021-02-28T09:27:25Z</time>
      </trkpt>
      <trkpt lat="45.10688" lon="6.42543">
        <ele>1768.4</ele>
        <time>2021-02-28T09:27:26Z</time>
      </trkpt>
      <trkpt lat="45.10686" lon="6.42543">
        <ele>1768.2</ele>
        <time>2021-02-28T09:27:27Z</time>
      </trkpt>
      <trkpt lat="45.10685" lon="6.42542">
        <ele>1768.2</ele>
        <time>2021-02-28T09:27:28Z</time>
      </trkpt>
      <trkpt lat="45.10684" lon="6.42542">
        <ele>1768.2</ele>
        <time>2021-02-28T09:27:29Z</time>
      </trkpt>
      <trkpt lat="45.10682" lon="6.42542">
        <ele>1768.4</ele>
        <time>2021-02-28T09:27:30Z</time>
      </trkpt>
      <trkpt lat="45.10681" lon="6.42542">
        <ele>1768.6</ele>
        <time>2021-02-28T09:27:31Z</time>
      </trkpt>
      <trkpt lat="45.10679" lon="6.42542">
        <ele>1768.8</ele>
        <time>2021-02-28T09:27:32Z</time>
      </trkpt>
      <trkpt lat="45.10678" lon="6.42541">
        <ele>1769.2</ele>
        <time>2021-02-28T09:27:33Z</time>
      </trkpt>
      <trkpt lat="45.10677" lon="6.42541">
        <ele>1769.4</ele>
        <time>2021-02-28T09:27:34Z</time>
      </trkpt>
      <trkpt lat="45.10675" lon="6.42541">
        <ele>1769.4</ele>
        <time>2021-02-28T09:27:35Z</time>
      </trkpt>
      <trkpt lat="45.10673" lon="6.42542">
        <ele>1769.4</ele>
        <time>2021-02-28T09:27:36Z</time>
      </trkpt>
      <trkpt lat="45.10672" lon="6.42542">
        <ele>1769.6</ele>
        <time>2021-02-28T09:27:37Z</time>
      </trkpt>
      <trkpt lat="45.1067" lon="6.42542">
        <ele>1769.6</ele>
        <time>2021-02-28T09:27:38Z</time>
      </trkpt>
      <trkpt lat="45.10669" lon="6.42542">
        <ele>1770.2</ele>
        <time>2021-02-28T09:27:39Z</time>
      </trkpt>
      <trkpt lat="45.10667" lon="6.42542">
        <ele>1770.4</ele>
        <time>2021-02-28T09:27:40Z</time>
      </trkpt>
      <trkpt lat="45.10665" lon="6.42543">
        <ele>1770.6</ele>
        <time>2021-02-28T09:27:41Z</time>
      </trkpt>
      <trkpt lat="45.10664" lon="6.42543">
        <ele>1770.8</ele>
        <time>2021-02-28T09:27:42Z</time>
      </trkpt>
      <trkpt lat="45.10662" lon="6.42544">
        <ele>1770.8</ele>
        <time>2021-02-28T09:27:43Z</time>
      </trkpt>
      <trkpt lat="45.10661" lon="6.42544">
        <ele>1771</ele>
        <time>2021-02-28T09:27:44Z</time>
      </trkpt>
      <trkpt lat="45.10659" lon="6.42544">
        <ele>1771.2</ele>
        <time>2021-02-28T09:27:45Z</time>
      </trkpt>
      <trkpt lat="45.10658" lon="6.42545">
        <ele>1771.2</ele>
        <time>2021-02-28T09:27:46Z</time>
      </trkpt>
      <trkpt lat="45.10656" lon="6.42545">
        <ele>1771.4</ele>
        <time>2021-02-28T09:27:47Z</time>
      </trkpt>
      <trkpt lat="45.10655" lon="6.42546">
        <ele>1771.6</ele>
        <time>2021-02-28T09:27:48Z</time>
      </trkpt>
      <trkpt lat="45.10653" lon="6.42546">
        <ele>1771.6</ele>
        <time>2021-02-28T09:27:49Z</time>
      </trkpt>
      <trkpt lat="45.10652" lon="6.42546">
        <ele>1772</ele>
        <time>2021-02-28T09:27:50Z</time>
      </trkpt>
      <trkpt lat="45.1065" lon="6.42547">
        <ele>1771.8</ele>
        <time>2021-02-28T09:27:51Z</time>
      </trkpt>
      <trkpt lat="45.10649" lon="6.42547">
        <ele>1771.8</ele>
        <time>2021-02-28T09:27:52Z</time>
      </trkpt>
      <trkpt lat="45.10647" lon="6.42547">
        <ele>1771.8</ele>
        <time>2021-02-28T09:27:53Z</time>
      </trkpt>
      <trkpt lat="45.10646" lon="6.42548">
        <ele>1772</ele>
        <time>2021-02-28T09:27:54Z</time>
      </trkpt>
      <trkpt lat="45.10645" lon="6.42548">
        <ele>1772.6</ele>
        <time>2021-02-28T09:27:55Z</time>
      </trkpt>
      <trkpt lat="45.10643" lon="6.42548">
        <ele>1773</ele>
        <time>2021-02-28T09:27:56Z</time>
      </trkpt>
      <trkpt lat="45.10642" lon="6.42548">
        <ele>1773</ele>
        <time>2021-02-28T09:27:57Z</time>
      </trkpt>
      <trkpt lat="45.10641" lon="6.42548">
        <ele>1773.2</ele>
        <time>2021-02-28T09:27:58Z</time>
      </trkpt>
      <trkpt lat="45.10639" lon="6.42549">
        <ele>1773.6</ele>
        <time>2021-02-28T09:27:59Z</time>
      </trkpt>
      <trkpt lat="45.10638" lon="6.42549">
        <ele>1773.6</ele>
        <time>2021-02-28T09:28:00Z</time>
      </trkpt>
      <trkpt lat="45.10637" lon="6.42549">
        <ele>1773.8</ele>
        <time>2021-02-28T09:28:01Z</time>
      </trkpt>
      <trkpt lat="45.10635" lon="6.42549">
        <ele>1774</ele>
        <time>2021-02-28T09:28:02Z</time>
      </trkpt>
      <trkpt lat="45.10634" lon="6.4255">
        <ele>1774.2</ele>
        <time>2021-02-28T09:28:03Z</time>
      </trkpt>
      <trkpt lat="45.10633" lon="6.4255">
        <ele>1774.4</ele>
        <time>2021-02-28T09:28:04Z</time>
      </trkpt>
      <trkpt lat="45.10632" lon="6.4255">
        <ele>1774.6</ele>
        <time>2021-02-28T09:28:05Z</time>
      </trkpt>
      <trkpt lat="45.1063" lon="6.4255">
        <ele>1774.6</ele>
        <time>2021-02-28T09:28:06Z</time>
      </trkpt>
      <trkpt lat="45.10629" lon="6.42551">
        <ele>1774.6</ele>
        <time>2021-02-28T09:28:07Z</time>
      </trkpt>
      <trkpt lat="45.10627" lon="6.42551">
        <ele>1774.8</ele>
        <time>2021-02-28T09:28:08Z</time>
      </trkpt>
      <trkpt lat="45.10626" lon="6.42551">
        <ele>1775.2</ele>
        <time>2021-02-28T09:28:09Z</time>
      </trkpt>
      <trkpt lat="45.10624" lon="6.42552">
        <ele>1775.4</ele>
        <time>2021-02-28T09:28:10Z</time>
      </trkpt>
      <trkpt lat="45.10622" lon="6.42552">
        <ele>1776</ele>
        <time>2021-02-28T09:28:11Z</time>
      </trkpt>
      <trkpt lat="45.1062" lon="6.42552">
        <ele>1776.2</ele>
        <time>2021-02-28T09:28:12Z</time>
      </trkpt>
      <trkpt lat="45.10619" lon="6.42553">
        <ele>1776</ele>
        <time>2021-02-28T09:28:13Z</time>
      </trkpt>
      <trkpt lat="45.10617" lon="6.42553">
        <ele>1775.8</ele>
        <time>2021-02-28T09:28:14Z</time>
      </trkpt>
      <trkpt lat="45.10615" lon="6.42554">
        <ele>1776</ele>
        <time>2021-02-28T09:28:15Z</time>
      </trkpt>
      <trkpt lat="45.10614" lon="6.42554">
        <ele>1776.2</ele>
        <time>2021-02-28T09:28:16Z</time>
      </trkpt>
      <trkpt lat="45.10612" lon="6.42555">
        <ele>1776.6</ele>
        <time>2021-02-28T09:28:17Z</time>
      </trkpt>
      <trkpt lat="45.1061" lon="6.42555">
        <ele>1777</ele>
        <time>2021-02-28T09:28:18Z</time>
      </trkpt>
      <trkpt lat="45.10609" lon="6.42556">
        <ele>1777.8</ele>
        <time>2021-02-28T09:28:19Z</time>
      </trkpt>
      <trkpt lat="45.10607" lon="6.42556">
        <ele>1778</ele>
        <time>2021-02-28T09:28:20Z</time>
      </trkpt>
      <trkpt lat="45.10606" lon="6.42557">
        <ele>1777.6</ele>
        <time>2021-02-28T09:28:21Z</time>
      </trkpt>
      <trkpt lat="45.10604" lon="6.42558">
        <ele>1777.8</ele>
        <time>2021-02-28T09:28:22Z</time>
      </trkpt>
      <trkpt lat="45.10602" lon="6.42558">
        <ele>1777.8</ele>
        <time>2021-02-28T09:28:23Z</time>
      </trkpt>
      <trkpt lat="45.10601" lon="6.42559">
        <ele>1777.8</ele>
        <time>2021-02-28T09:28:24Z</time>
      </trkpt>
      <trkpt lat="45.10599" lon="6.4256">
        <ele>1778.2</ele>
        <time>2021-02-28T09:28:25Z</time>
      </trkpt>
      <trkpt lat="45.10598" lon="6.4256">
        <ele>1778.4</ele>
        <time>2021-02-28T09:28:26Z</time>
      </trkpt>
      <trkpt lat="45.10596" lon="6.42561">
        <ele>1778.8</ele>
        <time>2021-02-28T09:28:27Z</time>
      </trkpt>
      <trkpt lat="45.10594" lon="6.42562">
        <ele>1778.8</ele>
        <time>2021-02-28T09:28:28Z</time>
      </trkpt>
      <trkpt lat="45.10592" lon="6.42563">
        <ele>1778.8</ele>
        <time>2021-02-28T09:28:29Z</time>
      </trkpt>
      <trkpt lat="45.10591" lon="6.42564">
        <ele>1778.8</ele>
        <time>2021-02-28T09:28:30Z</time>
      </trkpt>
      <trkpt lat="45.10589" lon="6.42564">
        <ele>1778.8</ele>
        <time>2021-02-28T09:28:31Z</time>
      </trkpt>
      <trkpt lat="45.10588" lon="6.42565">
        <ele>1779</ele>
        <time>2021-02-28T09:28:32Z</time>
      </trkpt>
      <trkpt lat="45.10587" lon="6.42565">
        <ele>1779</ele>
        <time>2021-02-28T09:28:33Z</time>
      </trkpt>
      <trkpt lat="45.10586" lon="6.42566">
        <ele>1779.2</ele>
        <time>2021-02-28T09:28:34Z</time>
      </trkpt>
      <trkpt lat="45.10584" lon="6.42566">
        <ele>1779.6</ele>
        <time>2021-02-28T09:28:35Z</time>
      </trkpt>
      <trkpt lat="45.10583" lon="6.42567">
        <ele>1779.4</ele>
        <time>2021-02-28T09:28:36Z</time>
      </trkpt>
      <trkpt lat="45.10582" lon="6.42567">
        <ele>1779.4</ele>
        <time>2021-02-28T09:28:37Z</time>
      </trkpt>
      <trkpt lat="45.1058" lon="6.42568">
        <ele>1779.4</ele>
        <time>2021-02-28T09:28:38Z</time>
      </trkpt>
      <trkpt lat="45.10578" lon="6.42569">
        <ele>1779.6</ele>
        <time>2021-02-28T09:28:39Z</time>
      </trkpt>
      <trkpt lat="45.10576" lon="6.4257">
        <ele>1779.8</ele>
        <time>2021-02-28T09:28:40Z</time>
      </trkpt>
      <trkpt lat="45.10575" lon="6.42571">
        <ele>1780.2</ele>
        <time>2021-02-28T09:28:41Z</time>
      </trkpt>
      <trkpt lat="45.10573" lon="6.42571">
        <ele>1780</ele>
        <time>2021-02-28T09:28:42Z</time>
      </trkpt>
      <trkpt lat="45.10571" lon="6.42572">
        <ele>1780.2</ele>
        <time>2021-02-28T09:28:43Z</time>
      </trkpt>
      <trkpt lat="45.10569" lon="6.42573">
        <ele>1780</ele>
        <time>2021-02-28T09:28:44Z</time>
      </trkpt>
      <trkpt lat="45.10568" lon="6.42574">
        <ele>1779.8</ele>
        <time>2021-02-28T09:28:45Z</time>
      </trkpt>
      <trkpt lat="45.10566" lon="6.42575">
        <ele>1780</ele>
        <time>2021-02-28T09:28:46Z</time>
      </trkpt>
      <trkpt lat="45.10564" lon="6.42576">
        <ele>1780.2</ele>
        <time>2021-02-28T09:28:47Z</time>
      </trkpt>
      <trkpt lat="45.10563" lon="6.42576">
        <ele>1780.2</ele>
        <time>2021-02-28T09:28:48Z</time>
      </trkpt>
      <trkpt lat="45.10561" lon="6.42577">
        <ele>1780.6</ele>
        <time>2021-02-28T09:28:49Z</time>
      </trkpt>
      <trkpt lat="45.10561" lon="6.42577">
        <ele>1780.8</ele>
        <time>2021-02-28T09:28:50Z</time>
      </trkpt>
      <trkpt lat="45.10559" lon="6.42578">
        <ele>1781.2</ele>
        <time>2021-02-28T09:28:51Z</time>
      </trkpt>
      <trkpt lat="45.10558" lon="6.42579">
        <ele>1781.2</ele>
        <time>2021-02-28T09:28:52Z</time>
      </trkpt>
      <trkpt lat="45.10556" lon="6.4258">
        <ele>1781.2</ele>
        <time>2021-02-28T09:28:53Z</time>
      </trkpt>
      <trkpt lat="45.10555" lon="6.42582">
        <ele>1781.2</ele>
        <time>2021-02-28T09:28:54Z</time>
      </trkpt>
      <trkpt lat="45.10553" lon="6.42583">
        <ele>1781.2</ele>
        <time>2021-02-28T09:28:55Z</time>
      </trkpt>
      <trkpt lat="45.10552" lon="6.42584">
        <ele>1781.2</ele>
        <time>2021-02-28T09:28:56Z</time>
      </trkpt>
      <trkpt lat="45.10551" lon="6.42584">
        <ele>1781.6</ele>
        <time>2021-02-28T09:28:57Z</time>
      </trkpt>
      <trkpt lat="45.10549" lon="6.42585">
        <ele>1781.6</ele>
        <time>2021-02-28T09:28:58Z</time>
      </trkpt>
      <trkpt lat="45.10548" lon="6.42586">
        <ele>1782.2</ele>
        <time>2021-02-28T09:28:59Z</time>
      </trkpt>
      <trkpt lat="45.10547" lon="6.42587">
        <ele>1782.4</ele>
        <time>2021-02-28T09:29:00Z</time>
      </trkpt>
      <trkpt lat="45.10546" lon="6.42588">
        <ele>1782.2</ele>
        <time>2021-02-28T09:29:01Z</time>
      </trkpt>
      <trkpt lat="45.10545" lon="6.42589">
        <ele>1782.4</ele>
        <time>2021-02-28T09:29:02Z</time>
      </trkpt>
      <trkpt lat="45.10543" lon="6.4259">
        <ele>1782.6</ele>
        <time>2021-02-28T09:29:03Z</time>
      </trkpt>
      <trkpt lat="45.10542" lon="6.42591">
        <ele>1782.6</ele>
        <time>2021-02-28T09:29:04Z</time>
      </trkpt>
      <trkpt lat="45.10541" lon="6.42592">
        <ele>1783</ele>
        <time>2021-02-28T09:29:05Z</time>
      </trkpt>
      <trkpt lat="45.10539" lon="6.42593">
        <ele>1783.2</ele>
        <time>2021-02-28T09:29:06Z</time>
      </trkpt>
      <trkpt lat="45.10538" lon="6.42594">
        <ele>1783.4</ele>
        <time>2021-02-28T09:29:07Z</time>
      </trkpt>
      <trkpt lat="45.10537" lon="6.42595">
        <ele>1783.4</ele>
        <time>2021-02-28T09:29:08Z</time>
      </trkpt>
      <trkpt lat="45.10535" lon="6.42596">
        <ele>1783.4</ele>
        <time>2021-02-28T09:29:09Z</time>
      </trkpt>
      <trkpt lat="45.10534" lon="6.42597">
        <ele>1783.6</ele>
        <time>2021-02-28T09:29:10Z</time>
      </trkpt>
      <trkpt lat="45.10532" lon="6.42599">
        <ele>1783.6</ele>
        <time>2021-02-28T09:29:11Z</time>
      </trkpt>
      <trkpt lat="45.10531" lon="6.426">
        <ele>1783.8</ele>
        <time>2021-02-28T09:29:12Z</time>
      </trkpt>
      <trkpt lat="45.10529" lon="6.42602">
        <ele>1784</ele>
        <time>2021-02-28T09:29:13Z</time>
      </trkpt>
      <trkpt lat="45.10528" lon="6.42603">
        <ele>1784.2</ele>
        <time>2021-02-28T09:29:14Z</time>
      </trkpt>
      <trkpt lat="45.10526" lon="6.42604">
        <ele>1784.4</ele>
        <time>2021-02-28T09:29:15Z</time>
      </trkpt>
      <trkpt lat="45.10525" lon="6.42605">
        <ele>1784.4</ele>
        <time>2021-02-28T09:29:16Z</time>
      </trkpt>
      <trkpt lat="45.10524" lon="6.42606">
        <ele>1784.6</ele>
        <time>2021-02-28T09:29:17Z</time>
      </trkpt>
      <trkpt lat="45.10522" lon="6.42607">
        <ele>1784.6</ele>
        <time>2021-02-28T09:29:18Z</time>
      </trkpt>
      <trkpt lat="45.10521" lon="6.42608">
        <ele>1784.6</ele>
        <time>2021-02-28T09:29:19Z</time>
      </trkpt>
      <trkpt lat="45.1052" lon="6.42609">
        <ele>1784.8</ele>
        <time>2021-02-28T09:29:20Z</time>
      </trkpt>
      <trkpt lat="45.10518" lon="6.4261">
        <ele>1785</ele>
        <time>2021-02-28T09:29:21Z</time>
      </trkpt>
      <trkpt lat="45.10517" lon="6.42611">
        <ele>1785</ele>
        <time>2021-02-28T09:29:22Z</time>
      </trkpt>
      <trkpt lat="45.10516" lon="6.42612">
        <ele>1785.4</ele>
        <time>2021-02-28T09:29:23Z</time>
      </trkpt>
      <trkpt lat="45.10515" lon="6.42613">
        <ele>1785.4</ele>
        <time>2021-02-28T09:29:24Z</time>
      </trkpt>
      <trkpt lat="45.10513" lon="6.42614">
        <ele>1785.8</ele>
        <time>2021-02-28T09:29:25Z</time>
      </trkpt>
      <trkpt lat="45.10512" lon="6.42615">
        <ele>1785.8</ele>
        <time>2021-02-28T09:29:26Z</time>
      </trkpt>
      <trkpt lat="45.10511" lon="6.42616">
        <ele>1786</ele>
        <time>2021-02-28T09:29:27Z</time>
      </trkpt>
      <trkpt lat="45.10509" lon="6.42617">
        <ele>1786</ele>
        <time>2021-02-28T09:29:28Z</time>
      </trkpt>
      <trkpt lat="45.10508" lon="6.42618">
        <ele>1786.2</ele>
        <time>2021-02-28T09:29:29Z</time>
      </trkpt>
      <trkpt lat="45.10506" lon="6.42619">
        <ele>1786.6</ele>
        <time>2021-02-28T09:29:30Z</time>
      </trkpt>
      <trkpt lat="45.10505" lon="6.4262">
        <ele>1786.6</ele>
        <time>2021-02-28T09:29:31Z</time>
      </trkpt>
      <trkpt lat="45.10503" lon="6.42621">
        <ele>1787</ele>
        <time>2021-02-28T09:29:32Z</time>
      </trkpt>
      <trkpt lat="45.10502" lon="6.42622">
        <ele>1787.4</ele>
        <time>2021-02-28T09:29:33Z</time>
      </trkpt>
      <trkpt lat="45.10501" lon="6.42623">
        <ele>1787.2</ele>
        <time>2021-02-28T09:29:34Z</time>
      </trkpt>
      <trkpt lat="45.10499" lon="6.42624">
        <ele>1787.2</ele>
        <time>2021-02-28T09:29:35Z</time>
      </trkpt>
      <trkpt lat="45.10498" lon="6.42625">
        <ele>1787.2</ele>
        <time>2021-02-28T09:29:36Z</time>
      </trkpt>
      <trkpt lat="45.10497" lon="6.42626">
        <ele>1787.2</ele>
        <time>2021-02-28T09:29:37Z</time>
      </trkpt>
      <trkpt lat="45.10495" lon="6.42627">
        <ele>1787.6</ele>
        <time>2021-02-28T09:29:38Z</time>
      </trkpt>
      <trkpt lat="45.10494" lon="6.42628">
        <ele>1788</ele>
        <time>2021-02-28T09:29:39Z</time>
      </trkpt>
      <trkpt lat="45.10492" lon="6.42629">
        <ele>1788.2</ele>
        <time>2021-02-28T09:29:40Z</time>
      </trkpt>
      <trkpt lat="45.10491" lon="6.42631">
        <ele>1788</ele>
        <time>2021-02-28T09:29:41Z</time>
      </trkpt>
      <trkpt lat="45.10489" lon="6.42632">
        <ele>1788</ele>
        <time>2021-02-28T09:29:42Z</time>
      </trkpt>
      <trkpt lat="45.10487" lon="6.42633">
        <ele>1788.4</ele>
        <time>2021-02-28T09:29:43Z</time>
      </trkpt>
      <trkpt lat="45.10486" lon="6.42634">
        <ele>1788.6</ele>
        <time>2021-02-28T09:29:44Z</time>
      </trkpt>
      <trkpt lat="45.10484" lon="6.42635">
        <ele>1788.8</ele>
        <time>2021-02-28T09:29:45Z</time>
      </trkpt>
      <trkpt lat="45.10483" lon="6.42636">
        <ele>1788.8</ele>
        <time>2021-02-28T09:29:46Z</time>
      </trkpt>
      <trkpt lat="45.10481" lon="6.42637">
        <ele>1788.8</ele>
        <time>2021-02-28T09:29:47Z</time>
      </trkpt>
      <trkpt lat="45.1048" lon="6.42638">
        <ele>1788.8</ele>
        <time>2021-02-28T09:29:48Z</time>
      </trkpt>
      <trkpt lat="45.10478" lon="6.4264">
        <ele>1789</ele>
        <time>2021-02-28T09:29:49Z</time>
      </trkpt>
      <trkpt lat="45.10477" lon="6.42641">
        <ele>1789</ele>
        <time>2021-02-28T09:29:50Z</time>
      </trkpt>
      <trkpt lat="45.10476" lon="6.42642">
        <ele>1789</ele>
        <time>2021-02-28T09:29:51Z</time>
      </trkpt>
      <trkpt lat="45.10474" lon="6.42643">
        <ele>1789.2</ele>
        <time>2021-02-28T09:29:52Z</time>
      </trkpt>
      <trkpt lat="45.10473" lon="6.42644">
        <ele>1789.6</ele>
        <time>2021-02-28T09:29:53Z</time>
      </trkpt>
      <trkpt lat="45.10471" lon="6.42645">
        <ele>1789.6</ele>
        <time>2021-02-28T09:29:54Z</time>
      </trkpt>
      <trkpt lat="45.1047" lon="6.42646">
        <ele>1789.6</ele>
        <time>2021-02-28T09:29:55Z</time>
      </trkpt>
      <trkpt lat="45.10469" lon="6.42648">
        <ele>1789.8</ele>
        <time>2021-02-28T09:29:56Z</time>
      </trkpt>
      <trkpt lat="45.10467" lon="6.42649">
        <ele>1789.8</ele>
        <time>2021-02-28T09:29:57Z</time>
      </trkpt>
      <trkpt lat="45.10466" lon="6.42651">
        <ele>1790</ele>
        <time>2021-02-28T09:29:58Z</time>
      </trkpt>
      <trkpt lat="45.10464" lon="6.42652">
        <ele>1790.2</ele>
        <time>2021-02-28T09:29:59Z</time>
      </trkpt>
      <trkpt lat="45.10463" lon="6.42654">
        <ele>1790.2</ele>
        <time>2021-02-28T09:30:00Z</time>
      </trkpt>
      <trkpt lat="45.10461" lon="6.42656">
        <ele>1790.4</ele>
        <time>2021-02-28T09:30:01Z</time>
      </trkpt>
      <trkpt lat="45.1046" lon="6.42657">
        <ele>1790.6</ele>
        <time>2021-02-28T09:30:02Z</time>
      </trkpt>
      <trkpt lat="45.10458" lon="6.42659">
        <ele>1790.8</ele>
        <time>2021-02-28T09:30:03Z</time>
      </trkpt>
      <trkpt lat="45.10458" lon="6.42659">
        <ele>1790.8</ele>
        <time>2021-02-28T09:30:04Z</time>
      </trkpt>
      <trkpt lat="45.10456" lon="6.42661">
        <ele>1791.2</ele>
        <time>2021-02-28T09:30:05Z</time>
      </trkpt>
      <trkpt lat="45.10456" lon="6.42661">
        <ele>1791.2</ele>
        <time>2021-02-28T09:30:06Z</time>
      </trkpt>
      <trkpt lat="45.10454" lon="6.42663">
        <ele>1791</ele>
        <time>2021-02-28T09:30:07Z</time>
      </trkpt>
      <trkpt lat="45.10454" lon="6.42663">
        <ele>1791.6</ele>
        <time>2021-02-28T09:30:08Z</time>
      </trkpt>
      <trkpt lat="45.10452" lon="6.42665">
        <ele>1791.8</ele>
        <time>2021-02-28T09:30:09Z</time>
      </trkpt>
      <trkpt lat="45.10452" lon="6.42665">
        <ele>1792.2</ele>
        <time>2021-02-28T09:30:10Z</time>
      </trkpt>
      <trkpt lat="45.1045" lon="6.42667">
        <ele>1792.2</ele>
        <time>2021-02-28T09:30:11Z</time>
      </trkpt>
      <trkpt lat="45.1045" lon="6.42667">
        <ele>1792.2</ele>
        <time>2021-02-28T09:30:12Z</time>
      </trkpt>
      <trkpt lat="45.10447" lon="6.42669">
        <ele>1792.2</ele>
        <time>2021-02-28T09:30:13Z</time>
      </trkpt>
      <trkpt lat="45.10447" lon="6.42669">
        <ele>1792.2</ele>
        <time>2021-02-28T09:30:14Z</time>
      </trkpt>
      <trkpt lat="45.10445" lon="6.42672">
        <ele>1792.4</ele>
        <time>2021-02-28T09:30:15Z</time>
      </trkpt>
      <trkpt lat="45.10445" lon="6.42672">
        <ele>1792.6</ele>
        <time>2021-02-28T09:30:16Z</time>
      </trkpt>
      <trkpt lat="45.10442" lon="6.42675">
        <ele>1792.8</ele>
        <time>2021-02-28T09:30:17Z</time>
      </trkpt>
      <trkpt lat="45.10442" lon="6.42675">
        <ele>1793</ele>
        <time>2021-02-28T09:30:18Z</time>
      </trkpt>
      <trkpt lat="45.10439" lon="6.42677">
        <ele>1793.2</ele>
        <time>2021-02-28T09:30:19Z</time>
      </trkpt>
      <trkpt lat="45.10439" lon="6.42677">
        <ele>1793.6</ele>
        <time>2021-02-28T09:30:20Z</time>
      </trkpt>
      <trkpt lat="45.10439" lon="6.42677">
        <ele>1793.6</ele>
        <time>2021-02-28T09:30:21Z</time>
      </trkpt>
      <trkpt lat="45.10438" lon="6.42679">
        <ele>1793.6</ele>
        <time>2021-02-28T09:30:22Z</time>
      </trkpt>
      <trkpt lat="45.10436" lon="6.4268">
        <ele>1794</ele>
        <time>2021-02-28T09:30:23Z</time>
      </trkpt>
      <trkpt lat="45.10435" lon="6.42682">
        <ele>1794.2</ele>
        <time>2021-02-28T09:30:24Z</time>
      </trkpt>
      <trkpt lat="45.10433" lon="6.42684">
        <ele>1794.4</ele>
        <time>2021-02-28T09:30:25Z</time>
      </trkpt>
      <trkpt lat="45.10432" lon="6.42685">
        <ele>1794.6</ele>
        <time>2021-02-28T09:30:26Z</time>
      </trkpt>
      <trkpt lat="45.10431" lon="6.42687">
        <ele>1794.4</ele>
        <time>2021-02-28T09:30:27Z</time>
      </trkpt>
      <trkpt lat="45.1043" lon="6.42689">
        <ele>1794.6</ele>
        <time>2021-02-28T09:30:28Z</time>
      </trkpt>
      <trkpt lat="45.10429" lon="6.42691">
        <ele>1794.6</ele>
        <time>2021-02-28T09:30:29Z</time>
      </trkpt>
      <trkpt lat="45.10428" lon="6.42693">
        <ele>1795</ele>
        <time>2021-02-28T09:30:30Z</time>
      </trkpt>
      <trkpt lat="45.10427" lon="6.42694">
        <ele>1795.2</ele>
        <time>2021-02-28T09:30:31Z</time>
      </trkpt>
      <trkpt lat="45.10426" lon="6.42696">
        <ele>1795.4</ele>
        <time>2021-02-28T09:30:32Z</time>
      </trkpt>
      <trkpt lat="45.10425" lon="6.42699">
        <ele>1795.4</ele>
        <time>2021-02-28T09:30:33Z</time>
      </trkpt>
      <trkpt lat="45.10424" lon="6.42701">
        <ele>1795.4</ele>
        <time>2021-02-28T09:30:34Z</time>
      </trkpt>
      <trkpt lat="45.10423" lon="6.42703">
        <ele>1795.8</ele>
        <time>2021-02-28T09:30:35Z</time>
      </trkpt>
      <trkpt lat="45.10422" lon="6.42705">
        <ele>1796</ele>
        <time>2021-02-28T09:30:36Z</time>
      </trkpt>
      <trkpt lat="45.10421" lon="6.42708">
        <ele>1796.2</ele>
        <time>2021-02-28T09:30:37Z</time>
      </trkpt>
      <trkpt lat="45.1042" lon="6.4271">
        <ele>1796.4</ele>
        <time>2021-02-28T09:30:38Z</time>
      </trkpt>
      <trkpt lat="45.1042" lon="6.42712">
        <ele>1796.8</ele>
        <time>2021-02-28T09:30:39Z</time>
      </trkpt>
      <trkpt lat="45.10419" lon="6.42714">
        <ele>1796.8</ele>
        <time>2021-02-28T09:30:40Z</time>
      </trkpt>
      <trkpt lat="45.10418" lon="6.42716">
        <ele>1796.8</ele>
        <time>2021-02-28T09:30:41Z</time>
      </trkpt>
      <trkpt lat="45.10418" lon="6.42718">
        <ele>1797</ele>
        <time>2021-02-28T09:30:42Z</time>
      </trkpt>
      <trkpt lat="45.10417" lon="6.4272">
        <ele>1797</ele>
        <time>2021-02-28T09:30:43Z</time>
      </trkpt>
      <trkpt lat="45.10416" lon="6.42723">
        <ele>1797.2</ele>
        <time>2021-02-28T09:30:44Z</time>
      </trkpt>
      <trkpt lat="45.10415" lon="6.42724">
        <ele>1797.2</ele>
        <time>2021-02-28T09:30:45Z</time>
      </trkpt>
      <trkpt lat="45.10414" lon="6.42726">
        <ele>1797.6</ele>
        <time>2021-02-28T09:30:46Z</time>
      </trkpt>
      <trkpt lat="45.10413" lon="6.42728">
        <ele>1797.6</ele>
        <time>2021-02-28T09:30:47Z</time>
      </trkpt>
      <trkpt lat="45.10412" lon="6.4273">
        <ele>1797.6</ele>
        <time>2021-02-28T09:30:48Z</time>
      </trkpt>
      <trkpt lat="45.10411" lon="6.42732">
        <ele>1797.4</ele>
        <time>2021-02-28T09:30:49Z</time>
      </trkpt>
      <trkpt lat="45.1041" lon="6.42734">
        <ele>1797.6</ele>
        <time>2021-02-28T09:30:50Z</time>
      </trkpt>
      <trkpt lat="45.10408" lon="6.42735">
        <ele>1797.6</ele>
        <time>2021-02-28T09:30:51Z</time>
      </trkpt>
      <trkpt lat="45.10406" lon="6.42737">
        <ele>1798.2</ele>
        <time>2021-02-28T09:30:52Z</time>
      </trkpt>
      <trkpt lat="45.10405" lon="6.42738">
        <ele>1798.6</ele>
        <time>2021-02-28T09:30:53Z</time>
      </trkpt>
      <trkpt lat="45.10403" lon="6.42739">
        <ele>1798.8</ele>
        <time>2021-02-28T09:30:54Z</time>
      </trkpt>
      <trkpt lat="45.10402" lon="6.42741">
        <ele>1798.8</ele>
        <time>2021-02-28T09:30:55Z</time>
      </trkpt>
      <trkpt lat="45.104" lon="6.42742">
        <ele>1799</ele>
        <time>2021-02-28T09:30:56Z</time>
      </trkpt>
      <trkpt lat="45.10398" lon="6.42743">
        <ele>1799.2</ele>
        <time>2021-02-28T09:30:57Z</time>
      </trkpt>
      <trkpt lat="45.10396" lon="6.42744">
        <ele>1799.2</ele>
        <time>2021-02-28T09:30:58Z</time>
      </trkpt>
      <trkpt lat="45.10394" lon="6.42745">
        <ele>1799.4</ele>
        <time>2021-02-28T09:30:59Z</time>
      </trkpt>
      <trkpt lat="45.10392" lon="6.42746">
        <ele>1799.6</ele>
        <time>2021-02-28T09:31:00Z</time>
      </trkpt>
      <trkpt lat="45.10391" lon="6.42747">
        <ele>1799.6</ele>
        <time>2021-02-28T09:31:01Z</time>
      </trkpt>
      <trkpt lat="45.10389" lon="6.42748">
        <ele>1799.8</ele>
        <time>2021-02-28T09:31:02Z</time>
      </trkpt>
      <trkpt lat="45.10388" lon="6.42748">
        <ele>1800.2</ele>
        <time>2021-02-28T09:31:03Z</time>
      </trkpt>
      <trkpt lat="45.10386" lon="6.42749">
        <ele>1800.4</ele>
        <time>2021-02-28T09:31:04Z</time>
      </trkpt>
      <trkpt lat="45.10385" lon="6.4275">
        <ele>1800.8</ele>
        <time>2021-02-28T09:31:05Z</time>
      </trkpt>
      <trkpt lat="45.10383" lon="6.42751">
        <ele>1801</ele>
        <time>2021-02-28T09:31:06Z</time>
      </trkpt>
      <trkpt lat="45.10382" lon="6.42752">
        <ele>1801</ele>
        <time>2021-02-28T09:31:07Z</time>
      </trkpt>
      <trkpt lat="45.1038" lon="6.42753">
        <ele>1801.2</ele>
        <time>2021-02-28T09:31:08Z</time>
      </trkpt>
      <trkpt lat="45.10378" lon="6.42754">
        <ele>1801.2</ele>
        <time>2021-02-28T09:31:09Z</time>
      </trkpt>
      <trkpt lat="45.10377" lon="6.42755">
        <ele>1801.4</ele>
        <time>2021-02-28T09:31:10Z</time>
      </trkpt>
      <trkpt lat="45.10375" lon="6.42756">
        <ele>1801.6</ele>
        <time>2021-02-28T09:31:11Z</time>
      </trkpt>
      <trkpt lat="45.10373" lon="6.42756">
        <ele>1801.4</ele>
        <time>2021-02-28T09:31:12Z</time>
      </trkpt>
      <trkpt lat="45.10373" lon="6.42756">
        <ele>1801.6</ele>
        <time>2021-02-28T09:31:13Z</time>
      </trkpt>
      <trkpt lat="45.1037" lon="6.42757">
        <ele>1802</ele>
        <time>2021-02-28T09:31:14Z</time>
      </trkpt>
      <trkpt lat="45.1037" lon="6.42757">
        <ele>1802</ele>
        <time>2021-02-28T09:31:15Z</time>
      </trkpt>
      <trkpt lat="45.10368" lon="6.42759">
        <ele>1802.2</ele>
        <time>2021-02-28T09:31:16Z</time>
      </trkpt>
      <trkpt lat="45.10368" lon="6.42759">
        <ele>1802.2</ele>
        <time>2021-02-28T09:31:17Z</time>
      </trkpt>
      <trkpt lat="45.10365" lon="6.42761">
        <ele>1802.2</ele>
        <time>2021-02-28T09:31:18Z</time>
      </trkpt>
      <trkpt lat="45.10363" lon="6.42763">
        <ele>1802.4</ele>
        <time>2021-02-28T09:31:19Z</time>
      </trkpt>
      <trkpt lat="45.10362" lon="6.42764">
        <ele>1802.2</ele>
        <time>2021-02-28T09:31:20Z</time>
      </trkpt>
      <trkpt lat="45.10362" lon="6.42764">
        <ele>1802.4</ele>
        <time>2021-02-28T09:31:21Z</time>
      </trkpt>
      <trkpt lat="45.10359" lon="6.42766">
        <ele>1802.6</ele>
        <time>2021-02-28T09:31:22Z</time>
      </trkpt>
      <trkpt lat="45.10359" lon="6.42766">
        <ele>1803.2</ele>
        <time>2021-02-28T09:31:23Z</time>
      </trkpt>
      <trkpt lat="45.10357" lon="6.42767">
        <ele>1803</ele>
        <time>2021-02-28T09:31:24Z</time>
      </trkpt>
      <trkpt lat="45.10357" lon="6.42767">
        <ele>1802.8</ele>
        <time>2021-02-28T09:31:25Z</time>
      </trkpt>
      <trkpt lat="45.10354" lon="6.42769">
        <ele>1803.2</ele>
        <time>2021-02-28T09:31:26Z</time>
      </trkpt>
      <trkpt lat="45.10354" lon="6.42769">
        <ele>1803.2</ele>
        <time>2021-02-28T09:31:27Z</time>
      </trkpt>
      <trkpt lat="45.10352" lon="6.4277">
        <ele>1803.2</ele>
        <time>2021-02-28T09:31:28Z</time>
      </trkpt>
      <trkpt lat="45.10352" lon="6.4277">
        <ele>1803.2</ele>
        <time>2021-02-28T09:31:29Z</time>
      </trkpt>
      <trkpt lat="45.10352" lon="6.4277">
        <ele>1803.4</ele>
        <time>2021-02-28T09:31:30Z</time>
      </trkpt>
      <trkpt lat="45.1035" lon="6.42771">
        <ele>1803.6</ele>
        <time>2021-02-28T09:31:31Z</time>
      </trkpt>
      <trkpt lat="45.10349" lon="6.42771">
        <ele>1803.8</ele>
        <time>2021-02-28T09:31:32Z</time>
      </trkpt>
      <trkpt lat="45.10348" lon="6.42772">
        <ele>1804.4</ele>
        <time>2021-02-28T09:31:33Z</time>
      </trkpt>
      <trkpt lat="45.10347" lon="6.42773">
        <ele>1804.6</ele>
        <time>2021-02-28T09:31:34Z</time>
      </trkpt>
      <trkpt lat="45.10345" lon="6.42773">
        <ele>1804.8</ele>
        <time>2021-02-28T09:31:35Z</time>
      </trkpt>
      <trkpt lat="45.10344" lon="6.42774">
        <ele>1804.8</ele>
        <time>2021-02-28T09:31:36Z</time>
      </trkpt>
      <trkpt lat="45.10343" lon="6.42775">
        <ele>1805</ele>
        <time>2021-02-28T09:31:37Z</time>
      </trkpt>
      <trkpt lat="45.10341" lon="6.42775">
        <ele>1805.2</ele>
        <time>2021-02-28T09:31:38Z</time>
      </trkpt>
      <trkpt lat="45.1034" lon="6.42776">
        <ele>1805.4</ele>
        <time>2021-02-28T09:31:39Z</time>
      </trkpt>
      <trkpt lat="45.10338" lon="6.42776">
        <ele>1805.2</ele>
        <time>2021-02-28T09:31:40Z</time>
      </trkpt>
      <trkpt lat="45.10337" lon="6.42777">
        <ele>1805.6</ele>
        <time>2021-02-28T09:31:41Z</time>
      </trkpt>
      <trkpt lat="45.10335" lon="6.42777">
        <ele>1806</ele>
        <time>2021-02-28T09:31:42Z</time>
      </trkpt>
      <trkpt lat="45.10333" lon="6.42778">
        <ele>1806.6</ele>
        <time>2021-02-28T09:31:43Z</time>
      </trkpt>
      <trkpt lat="45.10332" lon="6.42779">
        <ele>1806.8</ele>
        <time>2021-02-28T09:31:44Z</time>
      </trkpt>
      <trkpt lat="45.1033" lon="6.4278">
        <ele>1806.8</ele>
        <time>2021-02-28T09:31:45Z</time>
      </trkpt>
      <trkpt lat="45.10329" lon="6.42781">
        <ele>1806.8</ele>
        <time>2021-02-28T09:31:46Z</time>
      </trkpt>
      <trkpt lat="45.10327" lon="6.42782">
        <ele>1807</ele>
        <time>2021-02-28T09:31:47Z</time>
      </trkpt>
      <trkpt lat="45.10326" lon="6.42782">
        <ele>1807</ele>
        <time>2021-02-28T09:31:48Z</time>
      </trkpt>
      <trkpt lat="45.10324" lon="6.42783">
        <ele>1807.2</ele>
        <time>2021-02-28T09:31:49Z</time>
      </trkpt>
      <trkpt lat="45.10322" lon="6.42784">
        <ele>1807.4</ele>
        <time>2021-02-28T09:31:50Z</time>
      </trkpt>
      <trkpt lat="45.1032" lon="6.42785">
        <ele>1807.4</ele>
        <time>2021-02-28T09:31:51Z</time>
      </trkpt>
      <trkpt lat="45.10317" lon="6.42786">
        <ele>1808</ele>
        <time>2021-02-28T09:31:52Z</time>
      </trkpt>
      <trkpt lat="45.10315" lon="6.42786">
        <ele>1808.2</ele>
        <time>2021-02-28T09:31:53Z</time>
      </trkpt>
      <trkpt lat="45.10315" lon="6.42786">
        <ele>1808.8</ele>
        <time>2021-02-28T09:31:54Z</time>
      </trkpt>
      <trkpt lat="45.10313" lon="6.42788">
        <ele>1808.6</ele>
        <time>2021-02-28T09:31:55Z</time>
      </trkpt>
      <trkpt lat="45.10311" lon="6.42789">
        <ele>1808.4</ele>
        <time>2021-02-28T09:31:56Z</time>
      </trkpt>
      <trkpt lat="45.10311" lon="6.42789">
        <ele>1808.4</ele>
        <time>2021-02-28T09:31:57Z</time>
      </trkpt>
      <trkpt lat="45.10308" lon="6.42791">
        <ele>1808.6</ele>
        <time>2021-02-28T09:31:58Z</time>
      </trkpt>
      <trkpt lat="45.10308" lon="6.42791">
        <ele>1808.8</ele>
        <time>2021-02-28T09:31:59Z</time>
      </trkpt>
      <trkpt lat="45.10305" lon="6.42792">
        <ele>1809.2</ele>
        <time>2021-02-28T09:32:00Z</time>
      </trkpt>
      <trkpt lat="45.10305" lon="6.42792">
        <ele>1809.2</ele>
        <time>2021-02-28T09:32:01Z</time>
      </trkpt>
      <trkpt lat="45.10303" lon="6.42794">
        <ele>1809.6</ele>
        <time>2021-02-28T09:32:02Z</time>
      </trkpt>
      <trkpt lat="45.10303" lon="6.42794">
        <ele>1810.2</ele>
        <time>2021-02-28T09:32:03Z</time>
      </trkpt>
      <trkpt lat="45.10303" lon="6.42794">
        <ele>1810.4</ele>
        <time>2021-02-28T09:32:04Z</time>
      </trkpt>
      <trkpt lat="45.10303" lon="6.42794">
        <ele>1810.6</ele>
        <time>2021-02-28T09:32:05Z</time>
      </trkpt>
      <trkpt lat="45.103" lon="6.42797">
        <ele>1810.2</ele>
        <time>2021-02-28T09:32:06Z</time>
      </trkpt>
      <trkpt lat="45.103" lon="6.42797">
        <ele>1810.2</ele>
        <time>2021-02-28T09:32:07Z</time>
      </trkpt>
      <trkpt lat="45.10297" lon="6.42799">
        <ele>1810.4</ele>
        <time>2021-02-28T09:32:08Z</time>
      </trkpt>
      <trkpt lat="45.10297" lon="6.42799">
        <ele>1810.4</ele>
        <time>2021-02-28T09:32:09Z</time>
      </trkpt>
      <trkpt lat="45.10294" lon="6.42802">
        <ele>1810.6</ele>
        <time>2021-02-28T09:32:10Z</time>
      </trkpt>
      <trkpt lat="45.10294" lon="6.42802">
        <ele>1810.6</ele>
        <time>2021-02-28T09:32:11Z</time>
      </trkpt>
      <trkpt lat="45.10292" lon="6.42805">
        <ele>1810.8</ele>
        <time>2021-02-28T09:32:12Z</time>
      </trkpt>
      <trkpt lat="45.10292" lon="6.42805">
        <ele>1811</ele>
        <time>2021-02-28T09:32:13Z</time>
      </trkpt>
      <trkpt lat="45.1029" lon="6.42808">
        <ele>1811.6</ele>
        <time>2021-02-28T09:32:14Z</time>
      </trkpt>
      <trkpt lat="45.1029" lon="6.42808">
        <ele>1812</ele>
        <time>2021-02-28T09:32:15Z</time>
      </trkpt>
      <trkpt lat="45.10288" lon="6.42811">
        <ele>1812.4</ele>
        <time>2021-02-28T09:32:16Z</time>
      </trkpt>
      <trkpt lat="45.10288" lon="6.42811">
        <ele>1812.6</ele>
        <time>2021-02-28T09:32:17Z</time>
      </trkpt>
      <trkpt lat="45.10286" lon="6.42814">
        <ele>1812.4</ele>
        <time>2021-02-28T09:32:18Z</time>
      </trkpt>
      <trkpt lat="45.10286" lon="6.42814">
        <ele>1812.4</ele>
        <time>2021-02-28T09:32:19Z</time>
      </trkpt>
      <trkpt lat="45.10284" lon="6.42818">
        <ele>1812.4</ele>
        <time>2021-02-28T09:32:20Z</time>
      </trkpt>
      <trkpt lat="45.10284" lon="6.42818">
        <ele>1812.4</ele>
        <time>2021-02-28T09:32:21Z</time>
      </trkpt>
      <trkpt lat="45.10282" lon="6.42821">
        <ele>1812.4</ele>
        <time>2021-02-28T09:32:22Z</time>
      </trkpt>
      <trkpt lat="45.10282" lon="6.42821">
        <ele>1812.6</ele>
        <time>2021-02-28T09:32:23Z</time>
      </trkpt>
      <trkpt lat="45.1028" lon="6.42824">
        <ele>1813</ele>
        <time>2021-02-28T09:32:24Z</time>
      </trkpt>
      <trkpt lat="45.1028" lon="6.42824">
        <ele>1813.2</ele>
        <time>2021-02-28T09:32:25Z</time>
      </trkpt>
      <trkpt lat="45.10278" lon="6.42828">
        <ele>1813.4</ele>
        <time>2021-02-28T09:32:26Z</time>
      </trkpt>
      <trkpt lat="45.10278" lon="6.42828">
        <ele>1813.8</ele>
        <time>2021-02-28T09:32:27Z</time>
      </trkpt>
      <trkpt lat="45.10276" lon="6.4283">
        <ele>1814</ele>
        <time>2021-02-28T09:32:28Z</time>
      </trkpt>
      <trkpt lat="45.10276" lon="6.4283">
        <ele>1814</ele>
        <time>2021-02-28T09:32:29Z</time>
      </trkpt>
      <trkpt lat="45.10276" lon="6.4283">
        <ele>1814.2</ele>
        <time>2021-02-28T09:32:30Z</time>
      </trkpt>
      <trkpt lat="45.10275" lon="6.42832">
        <ele>1813.8</ele>
        <time>2021-02-28T09:32:31Z</time>
      </trkpt>
      <trkpt lat="45.10274" lon="6.42834">
        <ele>1814</ele>
        <time>2021-02-28T09:32:32Z</time>
      </trkpt>
      <trkpt lat="45.10273" lon="6.42835">
        <ele>1814.4</ele>
        <time>2021-02-28T09:32:33Z</time>
      </trkpt>
      <trkpt lat="45.10271" lon="6.42837">
        <ele>1814.4</ele>
        <time>2021-02-28T09:32:34Z</time>
      </trkpt>
      <trkpt lat="45.1027" lon="6.42839">
        <ele>1815</ele>
        <time>2021-02-28T09:32:35Z</time>
      </trkpt>
      <trkpt lat="45.10269" lon="6.42841">
        <ele>1815.2</ele>
        <time>2021-02-28T09:32:36Z</time>
      </trkpt>
      <trkpt lat="45.10268" lon="6.42842">
        <ele>1815.2</ele>
        <time>2021-02-28T09:32:37Z</time>
      </trkpt>
      <trkpt lat="45.10267" lon="6.42844">
        <ele>1815.4</ele>
        <time>2021-02-28T09:32:38Z</time>
      </trkpt>
      <trkpt lat="45.10267" lon="6.42846">
        <ele>1815.4</ele>
        <time>2021-02-28T09:32:39Z</time>
      </trkpt>
      <trkpt lat="45.10266" lon="6.42848">
        <ele>1815.4</ele>
        <time>2021-02-28T09:32:40Z</time>
      </trkpt>
      <trkpt lat="45.10265" lon="6.4285">
        <ele>1815.4</ele>
        <time>2021-02-28T09:32:41Z</time>
      </trkpt>
      <trkpt lat="45.10264" lon="6.42852">
        <ele>1815.6</ele>
        <time>2021-02-28T09:32:42Z</time>
      </trkpt>
      <trkpt lat="45.10263" lon="6.42853">
        <ele>1815.6</ele>
        <time>2021-02-28T09:32:43Z</time>
      </trkpt>
      <trkpt lat="45.10262" lon="6.42855">
        <ele>1815.6</ele>
        <time>2021-02-28T09:32:44Z</time>
      </trkpt>
      <trkpt lat="45.10261" lon="6.42857">
        <ele>1816</ele>
        <time>2021-02-28T09:32:45Z</time>
      </trkpt>
      <trkpt lat="45.10261" lon="6.42858">
        <ele>1816</ele>
        <time>2021-02-28T09:32:46Z</time>
      </trkpt>
      <trkpt lat="45.1026" lon="6.4286">
        <ele>1816.4</ele>
        <time>2021-02-28T09:32:47Z</time>
      </trkpt>
      <trkpt lat="45.10259" lon="6.42862">
        <ele>1817</ele>
        <time>2021-02-28T09:32:48Z</time>
      </trkpt>
      <trkpt lat="45.10258" lon="6.42863">
        <ele>1817.2</ele>
        <time>2021-02-28T09:32:49Z</time>
      </trkpt>
      <trkpt lat="45.10257" lon="6.42865">
        <ele>1817.2</ele>
        <time>2021-02-28T09:32:50Z</time>
      </trkpt>
      <trkpt lat="45.10257" lon="6.42866">
        <ele>1817.4</ele>
        <time>2021-02-28T09:32:51Z</time>
      </trkpt>
      <trkpt lat="45.10256" lon="6.42868">
        <ele>1817.6</ele>
        <time>2021-02-28T09:32:52Z</time>
      </trkpt>
      <trkpt lat="45.10255" lon="6.42869">
        <ele>1817.6</ele>
        <time>2021-02-28T09:32:53Z</time>
      </trkpt>
      <trkpt lat="45.10254" lon="6.42871">
        <ele>1817.6</ele>
        <time>2021-02-28T09:32:54Z</time>
      </trkpt>
      <trkpt lat="45.10253" lon="6.42873">
        <ele>1817.8</ele>
        <time>2021-02-28T09:32:55Z</time>
      </trkpt>
      <trkpt lat="45.10251" lon="6.42874">
        <ele>1817.6</ele>
        <time>2021-02-28T09:32:56Z</time>
      </trkpt>
      <trkpt lat="45.1025" lon="6.42876">
        <ele>1818</ele>
        <time>2021-02-28T09:32:57Z</time>
      </trkpt>
      <trkpt lat="45.10249" lon="6.42878">
        <ele>1818</ele>
        <time>2021-02-28T09:32:58Z</time>
      </trkpt>
      <trkpt lat="45.10248" lon="6.42879">
        <ele>1818</ele>
        <time>2021-02-28T09:32:59Z</time>
      </trkpt>
      <trkpt lat="45.10246" lon="6.42881">
        <ele>1818.4</ele>
        <time>2021-02-28T09:33:00Z</time>
      </trkpt>
      <trkpt lat="45.10244" lon="6.42884">
        <ele>1819</ele>
        <time>2021-02-28T09:33:01Z</time>
      </trkpt>
      <trkpt lat="45.10242" lon="6.42886">
        <ele>1819.2</ele>
        <time>2021-02-28T09:33:02Z</time>
      </trkpt>
      <trkpt lat="45.1024" lon="6.42889">
        <ele>1819.2</ele>
        <time>2021-02-28T09:33:03Z</time>
      </trkpt>
      <trkpt lat="45.10237" lon="6.42891">
        <ele>1819.2</ele>
        <time>2021-02-28T09:33:04Z</time>
      </trkpt>
      <trkpt lat="45.10237" lon="6.42891">
        <ele>1819.4</ele>
        <time>2021-02-28T09:33:05Z</time>
      </trkpt>
      <trkpt lat="45.10237" lon="6.42891">
        <ele>1819.2</ele>
        <time>2021-02-28T09:33:06Z</time>
      </trkpt>
      <trkpt lat="45.10235" lon="6.42892">
        <ele>1819.4</ele>
        <time>2021-02-28T09:33:07Z</time>
      </trkpt>
      <trkpt lat="45.10232" lon="6.42894">
        <ele>1819.4</ele>
        <time>2021-02-28T09:33:08Z</time>
      </trkpt>
      <trkpt lat="45.10229" lon="6.42895">
        <ele>1819.2</ele>
        <time>2021-02-28T09:33:09Z</time>
      </trkpt>
      <trkpt lat="45.10226" lon="6.42897">
        <ele>1819.6</ele>
        <time>2021-02-28T09:33:10Z</time>
      </trkpt>
      <trkpt lat="45.10224" lon="6.42898">
        <ele>1819.6</ele>
        <time>2021-02-28T09:33:11Z</time>
      </trkpt>
      <trkpt lat="45.10224" lon="6.42898">
        <ele>1819.8</ele>
        <time>2021-02-28T09:33:12Z</time>
      </trkpt>
      <trkpt lat="45.10221" lon="6.42899">
        <ele>1820.2</ele>
        <time>2021-02-28T09:33:13Z</time>
      </trkpt>
      <trkpt lat="45.10221" lon="6.42899">
        <ele>1820.6</ele>
        <time>2021-02-28T09:33:14Z</time>
      </trkpt>
      <trkpt lat="45.10218" lon="6.42902">
        <ele>1820.8</ele>
        <time>2021-02-28T09:33:15Z</time>
      </trkpt>
      <trkpt lat="45.10218" lon="6.42902">
        <ele>1820.8</ele>
        <time>2021-02-28T09:33:16Z</time>
      </trkpt>
      <trkpt lat="45.10215" lon="6.42904">
        <ele>1821</ele>
        <time>2021-02-28T09:33:17Z</time>
      </trkpt>
      <trkpt lat="45.10215" lon="6.42904">
        <ele>1821</ele>
        <time>2021-02-28T09:33:18Z</time>
      </trkpt>
      <trkpt lat="45.10212" lon="6.42904">
        <ele>1821.4</ele>
        <time>2021-02-28T09:33:19Z</time>
      </trkpt>
      <trkpt lat="45.10212" lon="6.42904">
        <ele>1821.8</ele>
        <time>2021-02-28T09:33:20Z</time>
      </trkpt>
      <trkpt lat="45.10209" lon="6.42904">
        <ele>1822</ele>
        <time>2021-02-28T09:33:21Z</time>
      </trkpt>
      <trkpt lat="45.10209" lon="6.42904">
        <ele>1822.2</ele>
        <time>2021-02-28T09:33:22Z</time>
      </trkpt>
      <trkpt lat="45.10207" lon="6.42905">
        <ele>1822.4</ele>
        <time>2021-02-28T09:33:23Z</time>
      </trkpt>
      <trkpt lat="45.10207" lon="6.42905">
        <ele>1822.2</ele>
        <time>2021-02-28T09:33:24Z</time>
      </trkpt>
      <trkpt lat="45.10207" lon="6.42905">
        <ele>1822.8</ele>
        <time>2021-02-28T09:33:25Z</time>
      </trkpt>
      <trkpt lat="45.10204" lon="6.42907">
        <ele>1822.8</ele>
        <time>2021-02-28T09:33:26Z</time>
      </trkpt>
      <trkpt lat="45.10204" lon="6.42907">
        <ele>1823.2</ele>
        <time>2021-02-28T09:33:27Z</time>
      </trkpt>
      <trkpt lat="45.10201" lon="6.42908">
        <ele>1823.2</ele>
        <time>2021-02-28T09:33:28Z</time>
      </trkpt>
      <trkpt lat="45.10201" lon="6.42908">
        <ele>1823.2</ele>
        <time>2021-02-28T09:33:29Z</time>
      </trkpt>
      <trkpt lat="45.10198" lon="6.42908">
        <ele>1823.2</ele>
        <time>2021-02-28T09:33:30Z</time>
      </trkpt>
      <trkpt lat="45.10198" lon="6.42908">
        <ele>1823.4</ele>
        <time>2021-02-28T09:33:31Z</time>
      </trkpt>
      <trkpt lat="45.10195" lon="6.42908">
        <ele>1823.2</ele>
        <time>2021-02-28T09:33:32Z</time>
      </trkpt>
      <trkpt lat="45.10195" lon="6.42908">
        <ele>1823.4</ele>
        <time>2021-02-28T09:33:33Z</time>
      </trkpt>
      <trkpt lat="45.10193" lon="6.42908">
        <ele>1823.6</ele>
        <time>2021-02-28T09:33:34Z</time>
      </trkpt>
      <trkpt lat="45.10193" lon="6.42908">
        <ele>1823.8</ele>
        <time>2021-02-28T09:33:35Z</time>
      </trkpt>
      <trkpt lat="45.1019" lon="6.42909">
        <ele>1823.8</ele>
        <time>2021-02-28T09:33:36Z</time>
      </trkpt>
      <trkpt lat="45.1019" lon="6.42909">
        <ele>1824</ele>
        <time>2021-02-28T09:33:37Z</time>
      </trkpt>
      <trkpt lat="45.10188" lon="6.4291">
        <ele>1824.4</ele>
        <time>2021-02-28T09:33:38Z</time>
      </trkpt>
      <trkpt lat="45.10188" lon="6.4291">
        <ele>1824.4</ele>
        <time>2021-02-28T09:33:39Z</time>
      </trkpt>
      <trkpt lat="45.10185" lon="6.42911">
        <ele>1824.6</ele>
        <time>2021-02-28T09:33:40Z</time>
      </trkpt>
      <trkpt lat="45.10185" lon="6.42911">
        <ele>1824.8</ele>
        <time>2021-02-28T09:33:41Z</time>
      </trkpt>
      <trkpt lat="45.10182" lon="6.42912">
        <ele>1824.8</ele>
        <time>2021-02-28T09:33:42Z</time>
      </trkpt>
      <trkpt lat="45.10182" lon="6.42912">
        <ele>1824.8</ele>
        <time>2021-02-28T09:33:43Z</time>
      </trkpt>
      <trkpt lat="45.1018" lon="6.42914">
        <ele>1825</ele>
        <time>2021-02-28T09:33:44Z</time>
      </trkpt>
      <trkpt lat="45.1018" lon="6.42914">
        <ele>1825.2</ele>
        <time>2021-02-28T09:33:45Z</time>
      </trkpt>
      <trkpt lat="45.10177" lon="6.42916">
        <ele>1825.4</ele>
        <time>2021-02-28T09:33:46Z</time>
      </trkpt>
      <trkpt lat="45.10177" lon="6.42916">
        <ele>1825.4</ele>
        <time>2021-02-28T09:33:47Z</time>
      </trkpt>
      <trkpt lat="45.10174" lon="6.42918">
        <ele>1825.4</ele>
        <time>2021-02-28T09:33:48Z</time>
      </trkpt>
      <trkpt lat="45.10174" lon="6.42918">
        <ele>1825.4</ele>
        <time>2021-02-28T09:33:49Z</time>
      </trkpt>
      <trkpt lat="45.10171" lon="6.42921">
        <ele>1825.6</ele>
        <time>2021-02-28T09:33:50Z</time>
      </trkpt>
      <trkpt lat="45.10171" lon="6.42921">
        <ele>1825.8</ele>
        <time>2021-02-28T09:33:51Z</time>
      </trkpt>
      <trkpt lat="45.10169" lon="6.42923">
        <ele>1826.2</ele>
        <time>2021-02-28T09:33:52Z</time>
      </trkpt>
      <trkpt lat="45.10169" lon="6.42923">
        <ele>1826.2</ele>
        <time>2021-02-28T09:33:53Z</time>
      </trkpt>
      <trkpt lat="45.10166" lon="6.42925">
        <ele>1826.2</ele>
        <time>2021-02-28T09:33:54Z</time>
      </trkpt>
      <trkpt lat="45.10166" lon="6.42925">
        <ele>1826.2</ele>
        <time>2021-02-28T09:33:55Z</time>
      </trkpt>
      <trkpt lat="45.10164" lon="6.42926">
        <ele>1826.4</ele>
        <time>2021-02-28T09:33:56Z</time>
      </trkpt>
      <trkpt lat="45.10164" lon="6.42926">
        <ele>1826.6</ele>
        <time>2021-02-28T09:33:57Z</time>
      </trkpt>
      <trkpt lat="45.10162" lon="6.42928">
        <ele>1826.6</ele>
        <time>2021-02-28T09:33:58Z</time>
      </trkpt>
      <trkpt lat="45.10162" lon="6.42928">
        <ele>1826.8</ele>
        <time>2021-02-28T09:33:59Z</time>
      </trkpt>
      <trkpt lat="45.10159" lon="6.4293">
        <ele>1826.8</ele>
        <time>2021-02-28T09:34:00Z</time>
      </trkpt>
      <trkpt lat="45.10159" lon="6.4293">
        <ele>1826.8</ele>
        <time>2021-02-28T09:34:01Z</time>
      </trkpt>
      <trkpt lat="45.10157" lon="6.42933">
        <ele>1827</ele>
        <time>2021-02-28T09:34:02Z</time>
      </trkpt>
      <trkpt lat="45.10157" lon="6.42933">
        <ele>1827.2</ele>
        <time>2021-02-28T09:34:03Z</time>
      </trkpt>
      <trkpt lat="45.10154" lon="6.42936">
        <ele>1827.2</ele>
        <time>2021-02-28T09:34:04Z</time>
      </trkpt>
      <trkpt lat="45.10154" lon="6.42936">
        <ele>1827.4</ele>
        <time>2021-02-28T09:34:05Z</time>
      </trkpt>
      <trkpt lat="45.10151" lon="6.42938">
        <ele>1827.6</ele>
        <time>2021-02-28T09:34:06Z</time>
      </trkpt>
      <trkpt lat="45.10151" lon="6.42938">
        <ele>1828</ele>
        <time>2021-02-28T09:34:07Z</time>
      </trkpt>
      <trkpt lat="45.10149" lon="6.42941">
        <ele>1828.2</ele>
        <time>2021-02-28T09:34:08Z</time>
      </trkpt>
      <trkpt lat="45.10149" lon="6.42941">
        <ele>1828.2</ele>
        <time>2021-02-28T09:34:09Z</time>
      </trkpt>
      <trkpt lat="45.10145" lon="6.42942">
        <ele>1828.2</ele>
        <time>2021-02-28T09:34:10Z</time>
      </trkpt>
      <trkpt lat="45.10144" lon="6.42944">
        <ele>1828.6</ele>
        <time>2021-02-28T09:34:11Z</time>
      </trkpt>
      <trkpt lat="45.10142" lon="6.42945">
        <ele>1828.6</ele>
        <time>2021-02-28T09:34:12Z</time>
      </trkpt>
      <trkpt lat="45.1014" lon="6.42946">
        <ele>1828.6</ele>
        <time>2021-02-28T09:34:13Z</time>
      </trkpt>
      <trkpt lat="45.1014" lon="6.42946">
        <ele>1828.6</ele>
        <time>2021-02-28T09:34:14Z</time>
      </trkpt>
      <trkpt lat="45.10138" lon="6.42947">
        <ele>1828.8</ele>
        <time>2021-02-28T09:34:15Z</time>
      </trkpt>
      <trkpt lat="45.10138" lon="6.42947">
        <ele>1829.2</ele>
        <time>2021-02-28T09:34:16Z</time>
      </trkpt>
      <trkpt lat="45.10135" lon="6.4295">
        <ele>1829.4</ele>
        <time>2021-02-28T09:34:17Z</time>
      </trkpt>
      <trkpt lat="45.10135" lon="6.4295">
        <ele>1829.4</ele>
        <time>2021-02-28T09:34:18Z</time>
      </trkpt>
      <trkpt lat="45.10132" lon="6.42951">
        <ele>1829.6</ele>
        <time>2021-02-28T09:34:19Z</time>
      </trkpt>
      <trkpt lat="45.10132" lon="6.42951">
        <ele>1829.6</ele>
        <time>2021-02-28T09:34:20Z</time>
      </trkpt>
      <trkpt lat="45.10129" lon="6.42953">
        <ele>1830</ele>
        <time>2021-02-28T09:34:21Z</time>
      </trkpt>
      <trkpt lat="45.10129" lon="6.42953">
        <ele>1830</ele>
        <time>2021-02-28T09:34:22Z</time>
      </trkpt>
      <trkpt lat="45.10126" lon="6.42954">
        <ele>1830.2</ele>
        <time>2021-02-28T09:34:23Z</time>
      </trkpt>
      <trkpt lat="45.10126" lon="6.42954">
        <ele>1830.2</ele>
        <time>2021-02-28T09:34:24Z</time>
      </trkpt>
      <trkpt lat="45.10122" lon="6.42954">
        <ele>1830.6</ele>
        <time>2021-02-28T09:34:25Z</time>
      </trkpt>
      <trkpt lat="45.10122" lon="6.42954">
        <ele>1830.6</ele>
        <time>2021-02-28T09:34:26Z</time>
      </trkpt>
      <trkpt lat="45.1012" lon="6.42957">
        <ele>1830.8</ele>
        <time>2021-02-28T09:34:27Z</time>
      </trkpt>
      <trkpt lat="45.1012" lon="6.42957">
        <ele>1831</ele>
        <time>2021-02-28T09:34:28Z</time>
      </trkpt>
      <trkpt lat="45.10117" lon="6.42958">
        <ele>1831.4</ele>
        <time>2021-02-28T09:34:29Z</time>
      </trkpt>
      <trkpt lat="45.10117" lon="6.42958">
        <ele>1831.6</ele>
        <time>2021-02-28T09:34:30Z</time>
      </trkpt>
      <trkpt lat="45.10114" lon="6.4296">
        <ele>1831.8</ele>
        <time>2021-02-28T09:34:31Z</time>
      </trkpt>
      <trkpt lat="45.10114" lon="6.4296">
        <ele>1831.6</ele>
        <time>2021-02-28T09:34:32Z</time>
      </trkpt>
      <trkpt lat="45.10111" lon="6.42961">
        <ele>1831.6</ele>
        <time>2021-02-28T09:34:33Z</time>
      </trkpt>
      <trkpt lat="45.10111" lon="6.42961">
        <ele>1832</ele>
        <time>2021-02-28T09:34:34Z</time>
      </trkpt>
      <trkpt lat="45.10107" lon="6.42962">
        <ele>1832.6</ele>
        <time>2021-02-28T09:34:35Z</time>
      </trkpt>
      <trkpt lat="45.10107" lon="6.42962">
        <ele>1832.8</ele>
        <time>2021-02-28T09:34:36Z</time>
      </trkpt>
      <trkpt lat="45.10104" lon="6.42963">
        <ele>1833.2</ele>
        <time>2021-02-28T09:34:37Z</time>
      </trkpt>
      <trkpt lat="45.10104" lon="6.42963">
        <ele>1833.2</ele>
        <time>2021-02-28T09:34:38Z</time>
      </trkpt>
      <trkpt lat="45.10104" lon="6.42963">
        <ele>1833.2</ele>
        <time>2021-02-28T09:34:39Z</time>
      </trkpt>
      <trkpt lat="45.10098" lon="6.42964">
        <ele>1833.2</ele>
        <time>2021-02-28T09:34:40Z</time>
      </trkpt>
      <trkpt lat="45.10098" lon="6.42964">
        <ele>1833.4</ele>
        <time>2021-02-28T09:34:41Z</time>
      </trkpt>
      <trkpt lat="45.10097" lon="6.42964">
        <ele>1833.4</ele>
        <time>2021-02-28T09:34:42Z</time>
      </trkpt>
      <trkpt lat="45.10094" lon="6.42964">
        <ele>1833.8</ele>
        <time>2021-02-28T09:34:43Z</time>
      </trkpt>
      <trkpt lat="45.10094" lon="6.42964">
        <ele>1833.8</ele>
        <time>2021-02-28T09:34:44Z</time>
      </trkpt>
      <trkpt lat="45.10091" lon="6.42964">
        <ele>1833.8</ele>
        <time>2021-02-28T09:34:45Z</time>
      </trkpt>
      <trkpt lat="45.10091" lon="6.42964">
        <ele>1833.8</ele>
        <time>2021-02-28T09:34:46Z</time>
      </trkpt>
      <trkpt lat="45.10089" lon="6.42964">
        <ele>1833.8</ele>
        <time>2021-02-28T09:34:47Z</time>
      </trkpt>
      <trkpt lat="45.10087" lon="6.42963">
        <ele>1834.2</ele>
        <time>2021-02-28T09:34:48Z</time>
      </trkpt>
      <trkpt lat="45.10087" lon="6.42963">
        <ele>1834.2</ele>
        <time>2021-02-28T09:34:49Z</time>
      </trkpt>
      <trkpt lat="45.10084" lon="6.42962">
        <ele>1834.4</ele>
        <time>2021-02-28T09:34:50Z</time>
      </trkpt>
      <trkpt lat="45.10084" lon="6.42962">
        <ele>1834.4</ele>
        <time>2021-02-28T09:34:51Z</time>
      </trkpt>
      <trkpt lat="45.10081" lon="6.4296">
        <ele>1834.6</ele>
        <time>2021-02-28T09:34:52Z</time>
      </trkpt>
      <trkpt lat="45.10081" lon="6.4296">
        <ele>1834.8</ele>
        <time>2021-02-28T09:34:53Z</time>
      </trkpt>
      <trkpt lat="45.10078" lon="6.42958">
        <ele>1835</ele>
        <time>2021-02-28T09:34:54Z</time>
      </trkpt>
      <trkpt lat="45.10076" lon="6.42957">
        <ele>1835.2</ele>
        <time>2021-02-28T09:34:55Z</time>
      </trkpt>
      <trkpt lat="45.10076" lon="6.42957">
        <ele>1835.6</ele>
        <time>2021-02-28T09:34:56Z</time>
      </trkpt>
      <trkpt lat="45.10073" lon="6.42955">
        <ele>1835.6</ele>
        <time>2021-02-28T09:34:57Z</time>
      </trkpt>
      <trkpt lat="45.10073" lon="6.42955">
        <ele>1835.6</ele>
        <time>2021-02-28T09:34:58Z</time>
      </trkpt>
      <trkpt lat="45.1007" lon="6.42953">
        <ele>1835.4</ele>
        <time>2021-02-28T09:34:59Z</time>
      </trkpt>
      <trkpt lat="45.1007" lon="6.42953">
        <ele>1835.4</ele>
        <time>2021-02-28T09:35:00Z</time>
      </trkpt>
      <trkpt lat="45.10068" lon="6.4295">
        <ele>1835.6</ele>
        <time>2021-02-28T09:35:01Z</time>
      </trkpt>
      <trkpt lat="45.10068" lon="6.4295">
        <ele>1835.8</ele>
        <time>2021-02-28T09:35:02Z</time>
      </trkpt>
      <trkpt lat="45.10066" lon="6.42948">
        <ele>1835.8</ele>
        <time>2021-02-28T09:35:03Z</time>
      </trkpt>
      <trkpt lat="45.10066" lon="6.42948">
        <ele>1836.2</ele>
        <time>2021-02-28T09:35:04Z</time>
      </trkpt>
      <trkpt lat="45.10063" lon="6.42946">
        <ele>1836.6</ele>
        <time>2021-02-28T09:35:05Z</time>
      </trkpt>
      <trkpt lat="45.10063" lon="6.42946">
        <ele>1836.4</ele>
        <time>2021-02-28T09:35:06Z</time>
      </trkpt>
      <trkpt lat="45.10061" lon="6.42943">
        <ele>1836.6</ele>
        <time>2021-02-28T09:35:07Z</time>
      </trkpt>
      <trkpt lat="45.10061" lon="6.42943">
        <ele>1836.8</ele>
        <time>2021-02-28T09:35:08Z</time>
      </trkpt>
      <trkpt lat="45.10059" lon="6.4294">
        <ele>1836.8</ele>
        <time>2021-02-28T09:35:09Z</time>
      </trkpt>
      <trkpt lat="45.10059" lon="6.4294">
        <ele>1837</ele>
        <time>2021-02-28T09:35:10Z</time>
      </trkpt>
      <trkpt lat="45.10059" lon="6.4294">
        <ele>1837</ele>
        <time>2021-02-28T09:35:11Z</time>
      </trkpt>
      <trkpt lat="45.10058" lon="6.42938">
        <ele>1837.2</ele>
        <time>2021-02-28T09:35:12Z</time>
      </trkpt>
      <trkpt lat="45.10057" lon="6.42937">
        <ele>1837.6</ele>
        <time>2021-02-28T09:35:13Z</time>
      </trkpt>
      <trkpt lat="45.10056" lon="6.42935">
        <ele>1837.6</ele>
        <time>2021-02-28T09:35:14Z</time>
      </trkpt>
      <trkpt lat="45.10054" lon="6.42934">
        <ele>1837.8</ele>
        <time>2021-02-28T09:35:15Z</time>
      </trkpt>
      <trkpt lat="45.10053" lon="6.42932">
        <ele>1837.8</ele>
        <time>2021-02-28T09:35:16Z</time>
      </trkpt>
      <trkpt lat="45.10052" lon="6.42931">
        <ele>1838</ele>
        <time>2021-02-28T09:35:17Z</time>
      </trkpt>
      <trkpt lat="45.10051" lon="6.42929">
        <ele>1838.2</ele>
        <time>2021-02-28T09:35:18Z</time>
      </trkpt>
      <trkpt lat="45.10051" lon="6.42928">
        <ele>1838.2</ele>
        <time>2021-02-28T09:35:19Z</time>
      </trkpt>
      <trkpt lat="45.1005" lon="6.42926">
        <ele>1838.2</ele>
        <time>2021-02-28T09:35:20Z</time>
      </trkpt>
      <trkpt lat="45.10049" lon="6.42925">
        <ele>1838.4</ele>
        <time>2021-02-28T09:35:21Z</time>
      </trkpt>
      <trkpt lat="45.10048" lon="6.42923">
        <ele>1838.8</ele>
        <time>2021-02-28T09:35:22Z</time>
      </trkpt>
      <trkpt lat="45.10047" lon="6.42922">
        <ele>1838.8</ele>
        <time>2021-02-28T09:35:23Z</time>
      </trkpt>
      <trkpt lat="45.10046" lon="6.4292">
        <ele>1839</ele>
        <time>2021-02-28T09:35:24Z</time>
      </trkpt>
      <trkpt lat="45.10045" lon="6.42919">
        <ele>1839.2</ele>
        <time>2021-02-28T09:35:25Z</time>
      </trkpt>
      <trkpt lat="45.10044" lon="6.42917">
        <ele>1839.2</ele>
        <time>2021-02-28T09:35:26Z</time>
      </trkpt>
      <trkpt lat="45.10043" lon="6.42915">
        <ele>1839.4</ele>
        <time>2021-02-28T09:35:27Z</time>
      </trkpt>
      <trkpt lat="45.10041" lon="6.42913">
        <ele>1839.6</ele>
        <time>2021-02-28T09:35:28Z</time>
      </trkpt>
      <trkpt lat="45.1004" lon="6.42911">
        <ele>1839.6</ele>
        <time>2021-02-28T09:35:29Z</time>
      </trkpt>
      <trkpt lat="45.10039" lon="6.4291">
        <ele>1839.8</ele>
        <time>2021-02-28T09:35:30Z</time>
      </trkpt>
      <trkpt lat="45.10037" lon="6.42908">
        <ele>1839.8</ele>
        <time>2021-02-28T09:35:31Z</time>
      </trkpt>
      <trkpt lat="45.10036" lon="6.42907">
        <ele>1839.8</ele>
        <time>2021-02-28T09:35:32Z</time>
      </trkpt>
      <trkpt lat="45.10035" lon="6.42905">
        <ele>1839.6</ele>
        <time>2021-02-28T09:35:33Z</time>
      </trkpt>
      <trkpt lat="45.10033" lon="6.42904">
        <ele>1839.8</ele>
        <time>2021-02-28T09:35:34Z</time>
      </trkpt>
      <trkpt lat="45.10032" lon="6.42902">
        <ele>1840</ele>
        <time>2021-02-28T09:35:35Z</time>
      </trkpt>
      <trkpt lat="45.1003" lon="6.42901">
        <ele>1840.2</ele>
        <time>2021-02-28T09:35:36Z</time>
      </trkpt>
      <trkpt lat="45.10029" lon="6.42899">
        <ele>1840.2</ele>
        <time>2021-02-28T09:35:37Z</time>
      </trkpt>
      <trkpt lat="45.10028" lon="6.42899">
        <ele>1840.2</ele>
        <time>2021-02-28T09:35:38Z</time>
      </trkpt>
      <trkpt lat="45.10028" lon="6.42899">
        <ele>1840.4</ele>
        <time>2021-02-28T09:35:39Z</time>
      </trkpt>
      <trkpt lat="45.10026" lon="6.42898">
        <ele>1840.4</ele>
        <time>2021-02-28T09:35:40Z</time>
      </trkpt>
      <trkpt lat="45.10025" lon="6.42897">
        <ele>1840.6</ele>
        <time>2021-02-28T09:35:41Z</time>
      </trkpt>
      <trkpt lat="45.10023" lon="6.42896">
        <ele>1840.8</ele>
        <time>2021-02-28T09:35:42Z</time>
      </trkpt>
      <trkpt lat="45.10022" lon="6.42895">
        <ele>1841</ele>
        <time>2021-02-28T09:35:43Z</time>
      </trkpt>
      <trkpt lat="45.1002" lon="6.42894">
        <ele>1841.2</ele>
        <time>2021-02-28T09:35:44Z</time>
      </trkpt>
      <trkpt lat="45.10019" lon="6.42893">
        <ele>1841.2</ele>
        <time>2021-02-28T09:35:45Z</time>
      </trkpt>
      <trkpt lat="45.10019" lon="6.42893">
        <ele>1841.4</ele>
        <time>2021-02-28T09:35:46Z</time>
      </trkpt>
      <trkpt lat="45.10016" lon="6.42891">
        <ele>1841.4</ele>
        <time>2021-02-28T09:35:47Z</time>
      </trkpt>
      <trkpt lat="45.10016" lon="6.42891">
        <ele>1841.4</ele>
        <time>2021-02-28T09:35:48Z</time>
      </trkpt>
      <trkpt lat="45.10013" lon="6.4289">
        <ele>1841.6</ele>
        <time>2021-02-28T09:35:49Z</time>
      </trkpt>
      <trkpt lat="45.10013" lon="6.4289">
        <ele>1841.8</ele>
        <time>2021-02-28T09:35:50Z</time>
      </trkpt>
      <trkpt lat="45.10011" lon="6.4289">
        <ele>1842.2</ele>
        <time>2021-02-28T09:35:51Z</time>
      </trkpt>
      <trkpt lat="45.10011" lon="6.4289">
        <ele>1842.2</ele>
        <time>2021-02-28T09:35:52Z</time>
      </trkpt>
      <trkpt lat="45.10008" lon="6.42889">
        <ele>1842.4</ele>
        <time>2021-02-28T09:35:53Z</time>
      </trkpt>
      <trkpt lat="45.10008" lon="6.42889">
        <ele>1842.4</ele>
        <time>2021-02-28T09:35:54Z</time>
      </trkpt>
      <trkpt lat="45.10004" lon="6.42889">
        <ele>1842.6</ele>
        <time>2021-02-28T09:35:55Z</time>
      </trkpt>
      <trkpt lat="45.10004" lon="6.42889">
        <ele>1843</ele>
        <time>2021-02-28T09:35:56Z</time>
      </trkpt>
      <trkpt lat="45.10001" lon="6.42889">
        <ele>1843</ele>
        <time>2021-02-28T09:35:57Z</time>
      </trkpt>
      <trkpt lat="45.10001" lon="6.42889">
        <ele>1843.4</ele>
        <time>2021-02-28T09:35:58Z</time>
      </trkpt>
      <trkpt lat="45.10001" lon="6.42889">
        <ele>1843.8</ele>
        <time>2021-02-28T09:35:59Z</time>
      </trkpt>
      <trkpt lat="45.09999" lon="6.4289">
        <ele>1844</ele>
        <time>2021-02-28T09:36:00Z</time>
      </trkpt>
      <trkpt lat="45.09998" lon="6.4289">
        <ele>1843.8</ele>
        <time>2021-02-28T09:36:01Z</time>
      </trkpt>
      <trkpt lat="45.09996" lon="6.42891">
        <ele>1843.8</ele>
        <time>2021-02-28T09:36:02Z</time>
      </trkpt>
      <trkpt lat="45.09994" lon="6.42892">
        <ele>1844.2</ele>
        <time>2021-02-28T09:36:03Z</time>
      </trkpt>
      <trkpt lat="45.09992" lon="6.42893">
        <ele>1844.2</ele>
        <time>2021-02-28T09:36:04Z</time>
      </trkpt>
      <trkpt lat="45.09992" lon="6.42893">
        <ele>1844.2</ele>
        <time>2021-02-28T09:36:05Z</time>
      </trkpt>
      <trkpt lat="45.09989" lon="6.42894">
        <ele>1844.4</ele>
        <time>2021-02-28T09:36:06Z</time>
      </trkpt>
      <trkpt lat="45.09989" lon="6.42894">
        <ele>1844.6</ele>
        <time>2021-02-28T09:36:07Z</time>
      </trkpt>
      <trkpt lat="45.09987" lon="6.42895">
        <ele>1844.8</ele>
        <time>2021-02-28T09:36:08Z</time>
      </trkpt>
      <trkpt lat="45.09987" lon="6.42895">
        <ele>1845</ele>
        <time>2021-02-28T09:36:09Z</time>
      </trkpt>
      <trkpt lat="45.09985" lon="6.42895">
        <ele>1845</ele>
        <time>2021-02-28T09:36:10Z</time>
      </trkpt>
      <trkpt lat="45.09985" lon="6.42895">
        <ele>1845</ele>
        <time>2021-02-28T09:36:11Z</time>
      </trkpt>
      <trkpt lat="45.09983" lon="6.42895">
        <ele>1845.2</ele>
        <time>2021-02-28T09:36:12Z</time>
      </trkpt>
      <trkpt lat="45.09983" lon="6.42895">
        <ele>1845.6</ele>
        <time>2021-02-28T09:36:13Z</time>
      </trkpt>
      <trkpt lat="45.09979" lon="6.42896">
        <ele>1845.8</ele>
        <time>2021-02-28T09:36:14Z</time>
      </trkpt>
      <trkpt lat="45.09978" lon="6.42896">
        <ele>1846</ele>
        <time>2021-02-28T09:36:15Z</time>
      </trkpt>
      <trkpt lat="45.09978" lon="6.42896">
        <ele>1846.4</ele>
        <time>2021-02-28T09:36:16Z</time>
      </trkpt>
      <trkpt lat="45.09974" lon="6.42896">
        <ele>1846.6</ele>
        <time>2021-02-28T09:36:17Z</time>
      </trkpt>
      <trkpt lat="45.09974" lon="6.42896">
        <ele>1846.8</ele>
        <time>2021-02-28T09:36:18Z</time>
      </trkpt>
      <trkpt lat="45.09971" lon="6.42896">
        <ele>1846.8</ele>
        <time>2021-02-28T09:36:19Z</time>
      </trkpt>
      <trkpt lat="45.09971" lon="6.42896">
        <ele>1847.2</ele>
        <time>2021-02-28T09:36:20Z</time>
      </trkpt>
      <trkpt lat="45.09968" lon="6.42896">
        <ele>1847.6</ele>
        <time>2021-02-28T09:36:21Z</time>
      </trkpt>
      <trkpt lat="45.09966" lon="6.42895">
        <ele>1847.8</ele>
        <time>2021-02-28T09:36:22Z</time>
      </trkpt>
      <trkpt lat="45.09966" lon="6.42895">
        <ele>1848.4</ele>
        <time>2021-02-28T09:36:23Z</time>
      </trkpt>
      <trkpt lat="45.09963" lon="6.42895">
        <ele>1849</ele>
        <time>2021-02-28T09:36:24Z</time>
      </trkpt>
      <trkpt lat="45.09963" lon="6.42895">
        <ele>1849.2</ele>
        <time>2021-02-28T09:36:25Z</time>
      </trkpt>
      <trkpt lat="45.0996" lon="6.42894">
        <ele>1849</ele>
        <time>2021-02-28T09:36:26Z</time>
      </trkpt>
      <trkpt lat="45.0996" lon="6.42894">
        <ele>1849</ele>
        <time>2021-02-28T09:36:27Z</time>
      </trkpt>
      <trkpt lat="45.09957" lon="6.42894">
        <ele>1848.8</ele>
        <time>2021-02-28T09:36:28Z</time>
      </trkpt>
      <trkpt lat="45.09957" lon="6.42894">
        <ele>1849.2</ele>
        <time>2021-02-28T09:36:29Z</time>
      </trkpt>
      <trkpt lat="45.09953" lon="6.42894">
        <ele>1849.2</ele>
        <time>2021-02-28T09:36:30Z</time>
      </trkpt>
      <trkpt lat="45.09951" lon="6.42894">
        <ele>1849.2</ele>
        <time>2021-02-28T09:36:31Z</time>
      </trkpt>
      <trkpt lat="45.09951" lon="6.42894">
        <ele>1848.8</ele>
        <time>2021-02-28T09:36:32Z</time>
      </trkpt>
      <trkpt lat="45.09949" lon="6.42894">
        <ele>1849.2</ele>
        <time>2021-02-28T09:36:33Z</time>
      </trkpt>
      <trkpt lat="45.09949" lon="6.42894">
        <ele>1849.6</ele>
        <time>2021-02-28T09:36:34Z</time>
      </trkpt>
      <trkpt lat="45.09946" lon="6.42894">
        <ele>1850</ele>
        <time>2021-02-28T09:36:35Z</time>
      </trkpt>
      <trkpt lat="45.09944" lon="6.42894">
        <ele>1850.6</ele>
        <time>2021-02-28T09:36:36Z</time>
      </trkpt>
      <trkpt lat="45.09942" lon="6.42894">
        <ele>1850.8</ele>
        <time>2021-02-28T09:36:37Z</time>
      </trkpt>
      <trkpt lat="45.0994" lon="6.42894">
        <ele>1851.2</ele>
        <time>2021-02-28T09:36:38Z</time>
      </trkpt>
      <trkpt lat="45.0994" lon="6.42894">
        <ele>1851.6</ele>
        <time>2021-02-28T09:36:39Z</time>
      </trkpt>
      <trkpt lat="45.09937" lon="6.42895">
        <ele>1851.8</ele>
        <time>2021-02-28T09:36:40Z</time>
      </trkpt>
      <trkpt lat="45.09937" lon="6.42895">
        <ele>1852</ele>
        <time>2021-02-28T09:36:41Z</time>
      </trkpt>
      <trkpt lat="45.09934" lon="6.42894">
        <ele>1852.4</ele>
        <time>2021-02-28T09:36:42Z</time>
      </trkpt>
      <trkpt lat="45.09934" lon="6.42894">
        <ele>1852.6</ele>
        <time>2021-02-28T09:36:43Z</time>
      </trkpt>
      <trkpt lat="45.09931" lon="6.42894">
        <ele>1852.8</ele>
        <time>2021-02-28T09:36:44Z</time>
      </trkpt>
      <trkpt lat="45.09931" lon="6.42894">
        <ele>1852.6</ele>
        <time>2021-02-28T09:36:45Z</time>
      </trkpt>
      <trkpt lat="45.09928" lon="6.42894">
        <ele>1852.6</ele>
        <time>2021-02-28T09:36:46Z</time>
      </trkpt>
      <trkpt lat="45.09928" lon="6.42894">
        <ele>1852.8</ele>
        <time>2021-02-28T09:36:47Z</time>
      </trkpt>
      <trkpt lat="45.09925" lon="6.42895">
        <ele>1852.8</ele>
        <time>2021-02-28T09:36:48Z</time>
      </trkpt>
      <trkpt lat="45.09925" lon="6.42895">
        <ele>1853</ele>
        <time>2021-02-28T09:36:49Z</time>
      </trkpt>
      <trkpt lat="45.09922" lon="6.42895">
        <ele>1853.2</ele>
        <time>2021-02-28T09:36:50Z</time>
      </trkpt>
      <trkpt lat="45.09922" lon="6.42895">
        <ele>1853.8</ele>
        <time>2021-02-28T09:36:51Z</time>
      </trkpt>
      <trkpt lat="45.0992" lon="6.42897">
        <ele>1854</ele>
        <time>2021-02-28T09:36:52Z</time>
      </trkpt>
      <trkpt lat="45.0992" lon="6.42897">
        <ele>1854</ele>
        <time>2021-02-28T09:36:53Z</time>
      </trkpt>
      <trkpt lat="45.09917" lon="6.42898">
        <ele>1854</ele>
        <time>2021-02-28T09:36:54Z</time>
      </trkpt>
      <trkpt lat="45.09917" lon="6.42898">
        <ele>1854.2</ele>
        <time>2021-02-28T09:36:55Z</time>
      </trkpt>
      <trkpt lat="45.09915" lon="6.429">
        <ele>1854.4</ele>
        <time>2021-02-28T09:36:56Z</time>
      </trkpt>
      <trkpt lat="45.09915" lon="6.429">
        <ele>1854.6</ele>
        <time>2021-02-28T09:36:57Z</time>
      </trkpt>
      <trkpt lat="45.09912" lon="6.42902">
        <ele>1854.6</ele>
        <time>2021-02-28T09:36:58Z</time>
      </trkpt>
      <trkpt lat="45.09912" lon="6.42902">
        <ele>1855</ele>
        <time>2021-02-28T09:36:59Z</time>
      </trkpt>
      <trkpt lat="45.0991" lon="6.42905">
        <ele>1855.4</ele>
        <time>2021-02-28T09:37:00Z</time>
      </trkpt>
      <trkpt lat="45.0991" lon="6.42905">
        <ele>1855.6</ele>
        <time>2021-02-28T09:37:01Z</time>
      </trkpt>
      <trkpt lat="45.09908" lon="6.42907">
        <ele>1855.6</ele>
        <time>2021-02-28T09:37:02Z</time>
      </trkpt>
      <trkpt lat="45.09908" lon="6.42907">
        <ele>1855.6</ele>
        <time>2021-02-28T09:37:03Z</time>
      </trkpt>
      <trkpt lat="45.09906" lon="6.4291">
        <ele>1855.8</ele>
        <time>2021-02-28T09:37:04Z</time>
      </trkpt>
      <trkpt lat="45.09906" lon="6.4291">
        <ele>1855.8</ele>
        <time>2021-02-28T09:37:05Z</time>
      </trkpt>
      <trkpt lat="45.09904" lon="6.42913">
        <ele>1856.4</ele>
        <time>2021-02-28T09:37:06Z</time>
      </trkpt>
      <trkpt lat="45.09904" lon="6.42913">
        <ele>1856.6</ele>
        <time>2021-02-28T09:37:07Z</time>
      </trkpt>
      <trkpt lat="45.09903" lon="6.42916">
        <ele>1857</ele>
        <time>2021-02-28T09:37:08Z</time>
      </trkpt>
      <trkpt lat="45.09903" lon="6.42916">
        <ele>1857.4</ele>
        <time>2021-02-28T09:37:09Z</time>
      </trkpt>
      <trkpt lat="45.09901" lon="6.42919">
        <ele>1857.4</ele>
        <time>2021-02-28T09:37:10Z</time>
      </trkpt>
      <trkpt lat="45.09901" lon="6.42919">
        <ele>1857.6</ele>
        <time>2021-02-28T09:37:11Z</time>
      </trkpt>
      <trkpt lat="45.09899" lon="6.42923">
        <ele>1857.4</ele>
        <time>2021-02-28T09:37:12Z</time>
      </trkpt>
      <trkpt lat="45.09899" lon="6.42923">
        <ele>1857.4</ele>
        <time>2021-02-28T09:37:13Z</time>
      </trkpt>
      <trkpt lat="45.09897" lon="6.42926">
        <ele>1857.4</ele>
        <time>2021-02-28T09:37:14Z</time>
      </trkpt>
      <trkpt lat="45.09897" lon="6.42926">
        <ele>1857.2</ele>
        <time>2021-02-28T09:37:15Z</time>
      </trkpt>
      <trkpt lat="45.09895" lon="6.4293">
        <ele>1857.4</ele>
        <time>2021-02-28T09:37:16Z</time>
      </trkpt>
      <trkpt lat="45.09895" lon="6.4293">
        <ele>1857.6</ele>
        <time>2021-02-28T09:37:17Z</time>
      </trkpt>
      <trkpt lat="45.09893" lon="6.42933">
        <ele>1857.8</ele>
        <time>2021-02-28T09:37:18Z</time>
      </trkpt>
      <trkpt lat="45.09893" lon="6.42933">
        <ele>1858</ele>
        <time>2021-02-28T09:37:19Z</time>
      </trkpt>
      <trkpt lat="45.09891" lon="6.42937">
        <ele>1858</ele>
        <time>2021-02-28T09:37:20Z</time>
      </trkpt>
      <trkpt lat="45.09891" lon="6.42937">
        <ele>1858</ele>
        <time>2021-02-28T09:37:21Z</time>
      </trkpt>
      <trkpt lat="45.09889" lon="6.4294">
        <ele>1858.2</ele>
        <time>2021-02-28T09:37:22Z</time>
      </trkpt>
      <trkpt lat="45.09889" lon="6.4294">
        <ele>1858.4</ele>
        <time>2021-02-28T09:37:23Z</time>
      </trkpt>
      <trkpt lat="45.09887" lon="6.42943">
        <ele>1858.2</ele>
        <time>2021-02-28T09:37:24Z</time>
      </trkpt>
      <trkpt lat="45.09887" lon="6.42943">
        <ele>1858.4</ele>
        <time>2021-02-28T09:37:25Z</time>
      </trkpt>
      <trkpt lat="45.09884" lon="6.42946">
        <ele>1858.4</ele>
        <time>2021-02-28T09:37:26Z</time>
      </trkpt>
      <trkpt lat="45.09882" lon="6.42947">
        <ele>1858.4</ele>
        <time>2021-02-28T09:37:27Z</time>
      </trkpt>
      <trkpt lat="45.09882" lon="6.42947">
        <ele>1858.6</ele>
        <time>2021-02-28T09:37:28Z</time>
      </trkpt>
      <trkpt lat="45.0988" lon="6.4295">
        <ele>1858.6</ele>
        <time>2021-02-28T09:37:29Z</time>
      </trkpt>
      <trkpt lat="45.0988" lon="6.4295">
        <ele>1858.8</ele>
        <time>2021-02-28T09:37:30Z</time>
      </trkpt>
      <trkpt lat="45.09877" lon="6.42952">
        <ele>1859</ele>
        <time>2021-02-28T09:37:31Z</time>
      </trkpt>
      <trkpt lat="45.09877" lon="6.42952">
        <ele>1859.2</ele>
        <time>2021-02-28T09:37:32Z</time>
      </trkpt>
      <trkpt lat="45.09874" lon="6.42953">
        <ele>1859.6</ele>
        <time>2021-02-28T09:37:33Z</time>
      </trkpt>
      <trkpt lat="45.09874" lon="6.42953">
        <ele>1859.8</ele>
        <time>2021-02-28T09:37:34Z</time>
      </trkpt>
      <trkpt lat="45.09872" lon="6.42955">
        <ele>1859.8</ele>
        <time>2021-02-28T09:37:35Z</time>
      </trkpt>
      <trkpt lat="45.09872" lon="6.42955">
        <ele>1859.8</ele>
        <time>2021-02-28T09:37:36Z</time>
      </trkpt>
      <trkpt lat="45.09869" lon="6.42956">
        <ele>1860</ele>
        <time>2021-02-28T09:37:37Z</time>
      </trkpt>
      <trkpt lat="45.09869" lon="6.42956">
        <ele>1860</ele>
        <time>2021-02-28T09:37:38Z</time>
      </trkpt>
      <trkpt lat="45.09866" lon="6.42958">
        <ele>1860.2</ele>
        <time>2021-02-28T09:37:39Z</time>
      </trkpt>
      <trkpt lat="45.09866" lon="6.42958">
        <ele>1860.4</ele>
        <time>2021-02-28T09:37:40Z</time>
      </trkpt>
      <trkpt lat="45.09863" lon="6.4296">
        <ele>1860.6</ele>
        <time>2021-02-28T09:37:41Z</time>
      </trkpt>
      <trkpt lat="45.09863" lon="6.4296">
        <ele>1861</ele>
        <time>2021-02-28T09:37:42Z</time>
      </trkpt>
      <trkpt lat="45.0986" lon="6.42962">
        <ele>1861.4</ele>
        <time>2021-02-28T09:37:43Z</time>
      </trkpt>
      <trkpt lat="45.0986" lon="6.42962">
        <ele>1861.6</ele>
        <time>2021-02-28T09:37:44Z</time>
      </trkpt>
      <trkpt lat="45.09857" lon="6.42964">
        <ele>1861.8</ele>
        <time>2021-02-28T09:37:45Z</time>
      </trkpt>
      <trkpt lat="45.09857" lon="6.42964">
        <ele>1861.6</ele>
        <time>2021-02-28T09:37:46Z</time>
      </trkpt>
      <trkpt lat="45.09855" lon="6.42965">
        <ele>1862</ele>
        <time>2021-02-28T09:37:47Z</time>
      </trkpt>
      <trkpt lat="45.09855" lon="6.42965">
        <ele>1862</ele>
        <time>2021-02-28T09:37:48Z</time>
      </trkpt>
      <trkpt lat="45.09851" lon="6.42966">
        <ele>1862</ele>
        <time>2021-02-28T09:37:49Z</time>
      </trkpt>
      <trkpt lat="45.09851" lon="6.42966">
        <ele>1862.2</ele>
        <time>2021-02-28T09:37:50Z</time>
      </trkpt>
      <trkpt lat="45.09848" lon="6.42967">
        <ele>1862.2</ele>
        <time>2021-02-28T09:37:51Z</time>
      </trkpt>
      <trkpt lat="45.09848" lon="6.42967">
        <ele>1862.4</ele>
        <time>2021-02-28T09:37:52Z</time>
      </trkpt>
      <trkpt lat="45.09846" lon="6.42968">
        <ele>1862.8</ele>
        <time>2021-02-28T09:37:53Z</time>
      </trkpt>
      <trkpt lat="45.09846" lon="6.42968">
        <ele>1862.8</ele>
        <time>2021-02-28T09:37:54Z</time>
      </trkpt>
      <trkpt lat="45.09843" lon="6.42969">
        <ele>1862.6</ele>
        <time>2021-02-28T09:37:55Z</time>
      </trkpt>
      <trkpt lat="45.09843" lon="6.42969">
        <ele>1862.8</ele>
        <time>2021-02-28T09:37:56Z</time>
      </trkpt>
      <trkpt lat="45.09839" lon="6.42971">
        <ele>1863</ele>
        <time>2021-02-28T09:37:57Z</time>
      </trkpt>
      <trkpt lat="45.09839" lon="6.42971">
        <ele>1863</ele>
        <time>2021-02-28T09:37:58Z</time>
      </trkpt>
      <trkpt lat="45.09836" lon="6.42972">
        <ele>1863</ele>
        <time>2021-02-28T09:37:59Z</time>
      </trkpt>
      <trkpt lat="45.09836" lon="6.42972">
        <ele>1863.4</ele>
        <time>2021-02-28T09:38:00Z</time>
      </trkpt>
      <trkpt lat="45.09833" lon="6.42972">
        <ele>1863.4</ele>
        <time>2021-02-28T09:38:01Z</time>
      </trkpt>
      <trkpt lat="45.09833" lon="6.42972">
        <ele>1863.4</ele>
        <time>2021-02-28T09:38:02Z</time>
      </trkpt>
      <trkpt lat="45.0983" lon="6.42973">
        <ele>1863.6</ele>
        <time>2021-02-28T09:38:03Z</time>
      </trkpt>
      <trkpt lat="45.0983" lon="6.42973">
        <ele>1863.6</ele>
        <time>2021-02-28T09:38:04Z</time>
      </trkpt>
      <trkpt lat="45.09827" lon="6.42974">
        <ele>1863.8</ele>
        <time>2021-02-28T09:38:05Z</time>
      </trkpt>
      <trkpt lat="45.09825" lon="6.42974">
        <ele>1863.8</ele>
        <time>2021-02-28T09:38:06Z</time>
      </trkpt>
      <trkpt lat="45.09825" lon="6.42974">
        <ele>1864.2</ele>
        <time>2021-02-28T09:38:07Z</time>
      </trkpt>
      <trkpt lat="45.09823" lon="6.42975">
        <ele>1864.2</ele>
        <time>2021-02-28T09:38:08Z</time>
      </trkpt>
      <trkpt lat="45.09823" lon="6.42975">
        <ele>1864.8</ele>
        <time>2021-02-28T09:38:09Z</time>
      </trkpt>
      <trkpt lat="45.0982" lon="6.42976">
        <ele>1864.6</ele>
        <time>2021-02-28T09:38:10Z</time>
      </trkpt>
      <trkpt lat="45.0982" lon="6.42976">
        <ele>1864.6</ele>
        <time>2021-02-28T09:38:11Z</time>
      </trkpt>
      <trkpt lat="45.09817" lon="6.42977">
        <ele>1864.6</ele>
        <time>2021-02-28T09:38:12Z</time>
      </trkpt>
      <trkpt lat="45.09817" lon="6.42977">
        <ele>1864.8</ele>
        <time>2021-02-28T09:38:13Z</time>
      </trkpt>
      <trkpt lat="45.09814" lon="6.42978">
        <ele>1864.8</ele>
        <time>2021-02-28T09:38:14Z</time>
      </trkpt>
      <trkpt lat="45.09812" lon="6.42978">
        <ele>1865</ele>
        <time>2021-02-28T09:38:15Z</time>
      </trkpt>
      <trkpt lat="45.0981" lon="6.42979">
        <ele>1865</ele>
        <time>2021-02-28T09:38:16Z</time>
      </trkpt>
      <trkpt lat="45.0981" lon="6.42979">
        <ele>1865.4</ele>
        <time>2021-02-28T09:38:17Z</time>
      </trkpt>
      <trkpt lat="45.09807" lon="6.42979">
        <ele>1865.6</ele>
        <time>2021-02-28T09:38:18Z</time>
      </trkpt>
      <trkpt lat="45.09807" lon="6.42979">
        <ele>1865.6</ele>
        <time>2021-02-28T09:38:19Z</time>
      </trkpt>
      <trkpt lat="45.09804" lon="6.4298">
        <ele>1866</ele>
        <time>2021-02-28T09:38:20Z</time>
      </trkpt>
      <trkpt lat="45.09804" lon="6.4298">
        <ele>1866.4</ele>
        <time>2021-02-28T09:38:21Z</time>
      </trkpt>
      <trkpt lat="45.09801" lon="6.42979">
        <ele>1866.8</ele>
        <time>2021-02-28T09:38:22Z</time>
      </trkpt>
      <trkpt lat="45.09801" lon="6.42979">
        <ele>1867</ele>
        <time>2021-02-28T09:38:23Z</time>
      </trkpt>
      <trkpt lat="45.09799" lon="6.4298">
        <ele>1867</ele>
        <time>2021-02-28T09:38:24Z</time>
      </trkpt>
      <trkpt lat="45.09799" lon="6.4298">
        <ele>1867.4</ele>
        <time>2021-02-28T09:38:25Z</time>
      </trkpt>
      <trkpt lat="45.09796" lon="6.42981">
        <ele>1867.2</ele>
        <time>2021-02-28T09:38:26Z</time>
      </trkpt>
      <trkpt lat="45.09796" lon="6.42981">
        <ele>1867.4</ele>
        <time>2021-02-28T09:38:27Z</time>
      </trkpt>
      <trkpt lat="45.09794" lon="6.42982">
        <ele>1867.2</ele>
        <time>2021-02-28T09:38:28Z</time>
      </trkpt>
      <trkpt lat="45.09794" lon="6.42982">
        <ele>1867.6</ele>
        <time>2021-02-28T09:38:29Z</time>
      </trkpt>
      <trkpt lat="45.09791" lon="6.42982">
        <ele>1868</ele>
        <time>2021-02-28T09:38:30Z</time>
      </trkpt>
      <trkpt lat="45.09791" lon="6.42982">
        <ele>1868.2</ele>
        <time>2021-02-28T09:38:31Z</time>
      </trkpt>
      <trkpt lat="45.09788" lon="6.42984">
        <ele>1868.8</ele>
        <time>2021-02-28T09:38:32Z</time>
      </trkpt>
      <trkpt lat="45.09788" lon="6.42984">
        <ele>1868.8</ele>
        <time>2021-02-28T09:38:33Z</time>
      </trkpt>
      <trkpt lat="45.09786" lon="6.42986">
        <ele>1868.6</ele>
        <time>2021-02-28T09:38:34Z</time>
      </trkpt>
      <trkpt lat="45.09786" lon="6.42986">
        <ele>1868.6</ele>
        <time>2021-02-28T09:38:35Z</time>
      </trkpt>
      <trkpt lat="45.09783" lon="6.42987">
        <ele>1868.6</ele>
        <time>2021-02-28T09:38:36Z</time>
      </trkpt>
      <trkpt lat="45.09783" lon="6.42987">
        <ele>1868.8</ele>
        <time>2021-02-28T09:38:37Z</time>
      </trkpt>
      <trkpt lat="45.0978" lon="6.42988">
        <ele>1869.2</ele>
        <time>2021-02-28T09:38:38Z</time>
      </trkpt>
      <trkpt lat="45.0978" lon="6.42988">
        <ele>1869.2</ele>
        <time>2021-02-28T09:38:39Z</time>
      </trkpt>
      <trkpt lat="45.09778" lon="6.42989">
        <ele>1869.4</ele>
        <time>2021-02-28T09:38:40Z</time>
      </trkpt>
      <trkpt lat="45.09778" lon="6.42989">
        <ele>1869.6</ele>
        <time>2021-02-28T09:38:41Z</time>
      </trkpt>
      <trkpt lat="45.09775" lon="6.4299">
        <ele>1869.6</ele>
        <time>2021-02-28T09:38:42Z</time>
      </trkpt>
      <trkpt lat="45.09775" lon="6.4299">
        <ele>1869.6</ele>
        <time>2021-02-28T09:38:43Z</time>
      </trkpt>
      <trkpt lat="45.09771" lon="6.42991">
        <ele>1869.8</ele>
        <time>2021-02-28T09:38:44Z</time>
      </trkpt>
      <trkpt lat="45.09771" lon="6.42991">
        <ele>1869.8</ele>
        <time>2021-02-28T09:38:45Z</time>
      </trkpt>
      <trkpt lat="45.09768" lon="6.42992">
        <ele>1869.8</ele>
        <time>2021-02-28T09:38:46Z</time>
      </trkpt>
      <trkpt lat="45.09768" lon="6.42992">
        <ele>1870.2</ele>
        <time>2021-02-28T09:38:47Z</time>
      </trkpt>
      <trkpt lat="45.09766" lon="6.42994">
        <ele>1870.6</ele>
        <time>2021-02-28T09:38:48Z</time>
      </trkpt>
      <trkpt lat="45.09766" lon="6.42994">
        <ele>1870.6</ele>
        <time>2021-02-28T09:38:49Z</time>
      </trkpt>
      <trkpt lat="45.09764" lon="6.42995">
        <ele>1870.4</ele>
        <time>2021-02-28T09:38:50Z</time>
      </trkpt>
      <trkpt lat="45.09764" lon="6.42995">
        <ele>1870.4</ele>
        <time>2021-02-28T09:38:51Z</time>
      </trkpt>
      <trkpt lat="45.09761" lon="6.42996">
        <ele>1870.6</ele>
        <time>2021-02-28T09:38:52Z</time>
      </trkpt>
      <trkpt lat="45.09761" lon="6.42996">
        <ele>1870.8</ele>
        <time>2021-02-28T09:38:53Z</time>
      </trkpt>
      <trkpt lat="45.09757" lon="6.42996">
        <ele>1871</ele>
        <time>2021-02-28T09:38:54Z</time>
      </trkpt>
      <trkpt lat="45.09757" lon="6.42996">
        <ele>1871.4</ele>
        <time>2021-02-28T09:38:55Z</time>
      </trkpt>
      <trkpt lat="45.09755" lon="6.42997">
        <ele>1871.8</ele>
        <time>2021-02-28T09:38:56Z</time>
      </trkpt>
      <trkpt lat="45.09755" lon="6.42997">
        <ele>1872.2</ele>
        <time>2021-02-28T09:38:57Z</time>
      </trkpt>
      <trkpt lat="45.09752" lon="6.42999">
        <ele>1872</ele>
        <time>2021-02-28T09:38:58Z</time>
      </trkpt>
      <trkpt lat="45.0975" lon="6.42999">
        <ele>1872</ele>
        <time>2021-02-28T09:38:59Z</time>
      </trkpt>
      <trkpt lat="45.09748" lon="6.43">
        <ele>1871.8</ele>
        <time>2021-02-28T09:39:00Z</time>
      </trkpt>
      <trkpt lat="45.09748" lon="6.43">
        <ele>1871.8</ele>
        <time>2021-02-28T09:39:01Z</time>
      </trkpt>
      <trkpt lat="45.09745" lon="6.43001">
        <ele>1872</ele>
        <time>2021-02-28T09:39:02Z</time>
      </trkpt>
      <trkpt lat="45.09745" lon="6.43001">
        <ele>1872.2</ele>
        <time>2021-02-28T09:39:03Z</time>
      </trkpt>
      <trkpt lat="45.09742" lon="6.43002">
        <ele>1872.4</ele>
        <time>2021-02-28T09:39:04Z</time>
      </trkpt>
      <trkpt lat="45.09742" lon="6.43002">
        <ele>1872.6</ele>
        <time>2021-02-28T09:39:05Z</time>
      </trkpt>
      <trkpt lat="45.09739" lon="6.43002">
        <ele>1873.2</ele>
        <time>2021-02-28T09:39:06Z</time>
      </trkpt>
      <trkpt lat="45.09739" lon="6.43002">
        <ele>1873.2</ele>
        <time>2021-02-28T09:39:07Z</time>
      </trkpt>
      <trkpt lat="45.09737" lon="6.43004">
        <ele>1873</ele>
        <time>2021-02-28T09:39:08Z</time>
      </trkpt>
      <trkpt lat="45.09737" lon="6.43004">
        <ele>1873.2</ele>
        <time>2021-02-28T09:39:09Z</time>
      </trkpt>
      <trkpt lat="45.09734" lon="6.43006">
        <ele>1873.4</ele>
        <time>2021-02-28T09:39:10Z</time>
      </trkpt>
      <trkpt lat="45.09734" lon="6.43006">
        <ele>1873.4</ele>
        <time>2021-02-28T09:39:11Z</time>
      </trkpt>
      <trkpt lat="45.09731" lon="6.43007">
        <ele>1873.6</ele>
        <time>2021-02-28T09:39:12Z</time>
      </trkpt>
      <trkpt lat="45.09731" lon="6.43007">
        <ele>1873.6</ele>
        <time>2021-02-28T09:39:13Z</time>
      </trkpt>
      <trkpt lat="45.09728" lon="6.43009">
        <ele>1873.8</ele>
        <time>2021-02-28T09:39:14Z</time>
      </trkpt>
      <trkpt lat="45.09728" lon="6.43009">
        <ele>1874.4</ele>
        <time>2021-02-28T09:39:15Z</time>
      </trkpt>
      <trkpt lat="45.09726" lon="6.43011">
        <ele>1874.6</ele>
        <time>2021-02-28T09:39:16Z</time>
      </trkpt>
      <trkpt lat="45.09726" lon="6.43011">
        <ele>1874.6</ele>
        <time>2021-02-28T09:39:17Z</time>
      </trkpt>
      <trkpt lat="45.09724" lon="6.43012">
        <ele>1874.8</ele>
        <time>2021-02-28T09:39:18Z</time>
      </trkpt>
      <trkpt lat="45.09724" lon="6.43012">
        <ele>1875.2</ele>
        <time>2021-02-28T09:39:19Z</time>
      </trkpt>
      <trkpt lat="45.09721" lon="6.43014">
        <ele>1875.2</ele>
        <time>2021-02-28T09:39:20Z</time>
      </trkpt>
      <trkpt lat="45.09721" lon="6.43014">
        <ele>1875.4</ele>
        <time>2021-02-28T09:39:21Z</time>
      </trkpt>
      <trkpt lat="45.09718" lon="6.43016">
        <ele>1875.8</ele>
        <time>2021-02-28T09:39:22Z</time>
      </trkpt>
      <trkpt lat="45.09718" lon="6.43016">
        <ele>1876.2</ele>
        <time>2021-02-28T09:39:23Z</time>
      </trkpt>
      <trkpt lat="45.09715" lon="6.43018">
        <ele>1876</ele>
        <time>2021-02-28T09:39:24Z</time>
      </trkpt>
      <trkpt lat="45.09715" lon="6.43018">
        <ele>1876</ele>
        <time>2021-02-28T09:39:25Z</time>
      </trkpt>
      <trkpt lat="45.09713" lon="6.43021">
        <ele>1875.8</ele>
        <time>2021-02-28T09:39:26Z</time>
      </trkpt>
      <trkpt lat="45.09713" lon="6.43021">
        <ele>1876</ele>
        <time>2021-02-28T09:39:27Z</time>
      </trkpt>
      <trkpt lat="45.0971" lon="6.43022">
        <ele>1876</ele>
        <time>2021-02-28T09:39:28Z</time>
      </trkpt>
      <trkpt lat="45.09708" lon="6.43023">
        <ele>1876.2</ele>
        <time>2021-02-28T09:39:29Z</time>
      </trkpt>
      <trkpt lat="45.09708" lon="6.43023">
        <ele>1876.4</ele>
        <time>2021-02-28T09:39:30Z</time>
      </trkpt>
      <trkpt lat="45.09706" lon="6.43026">
        <ele>1877</ele>
        <time>2021-02-28T09:39:31Z</time>
      </trkpt>
      <trkpt lat="45.09706" lon="6.43026">
        <ele>1877.4</ele>
        <time>2021-02-28T09:39:32Z</time>
      </trkpt>
      <trkpt lat="45.09704" lon="6.43028">
        <ele>1877.2</ele>
        <time>2021-02-28T09:39:33Z</time>
      </trkpt>
      <trkpt lat="45.09704" lon="6.43028">
        <ele>1877.2</ele>
        <time>2021-02-28T09:39:34Z</time>
      </trkpt>
      <trkpt lat="45.09701" lon="6.43031">
        <ele>1877</ele>
        <time>2021-02-28T09:39:35Z</time>
      </trkpt>
      <trkpt lat="45.09701" lon="6.43031">
        <ele>1877.2</ele>
        <time>2021-02-28T09:39:36Z</time>
      </trkpt>
      <trkpt lat="45.09698" lon="6.43033">
        <ele>1877.4</ele>
        <time>2021-02-28T09:39:37Z</time>
      </trkpt>
      <trkpt lat="45.09698" lon="6.43033">
        <ele>1877.4</ele>
        <time>2021-02-28T09:39:38Z</time>
      </trkpt>
      <trkpt lat="45.09696" lon="6.43036">
        <ele>1878</ele>
        <time>2021-02-28T09:39:39Z</time>
      </trkpt>
      <trkpt lat="45.09696" lon="6.43036">
        <ele>1878</ele>
        <time>2021-02-28T09:39:40Z</time>
      </trkpt>
      <trkpt lat="45.09693" lon="6.43038">
        <ele>1878</ele>
        <time>2021-02-28T09:39:41Z</time>
      </trkpt>
      <trkpt lat="45.09693" lon="6.43038">
        <ele>1878</ele>
        <time>2021-02-28T09:39:42Z</time>
      </trkpt>
      <trkpt lat="45.09691" lon="6.4304">
        <ele>1877.8</ele>
        <time>2021-02-28T09:39:43Z</time>
      </trkpt>
      <trkpt lat="45.09691" lon="6.4304">
        <ele>1878</ele>
        <time>2021-02-28T09:39:44Z</time>
      </trkpt>
      <trkpt lat="45.09688" lon="6.43041">
        <ele>1878</ele>
        <time>2021-02-28T09:39:45Z</time>
      </trkpt>
      <trkpt lat="45.09688" lon="6.43041">
        <ele>1878.4</ele>
        <time>2021-02-28T09:39:46Z</time>
      </trkpt>
      <trkpt lat="45.09685" lon="6.43044">
        <ele>1879</ele>
        <time>2021-02-28T09:39:47Z</time>
      </trkpt>
      <trkpt lat="45.09685" lon="6.43044">
        <ele>1879.2</ele>
        <time>2021-02-28T09:39:48Z</time>
      </trkpt>
      <trkpt lat="45.09683" lon="6.43046">
        <ele>1879.4</ele>
        <time>2021-02-28T09:39:49Z</time>
      </trkpt>
      <trkpt lat="45.09683" lon="6.43046">
        <ele>1879.2</ele>
        <time>2021-02-28T09:39:50Z</time>
      </trkpt>
      <trkpt lat="45.0968" lon="6.43048">
        <ele>1879.4</ele>
        <time>2021-02-28T09:39:51Z</time>
      </trkpt>
      <trkpt lat="45.0968" lon="6.43048">
        <ele>1879.4</ele>
        <time>2021-02-28T09:39:52Z</time>
      </trkpt>
      <trkpt lat="45.09677" lon="6.43049">
        <ele>1879.4</ele>
        <time>2021-02-28T09:39:53Z</time>
      </trkpt>
      <trkpt lat="45.09677" lon="6.43049">
        <ele>1879.4</ele>
        <time>2021-02-28T09:39:54Z</time>
      </trkpt>
      <trkpt lat="45.09674" lon="6.4305">
        <ele>1879.6</ele>
        <time>2021-02-28T09:39:55Z</time>
      </trkpt>
      <trkpt lat="45.09674" lon="6.4305">
        <ele>1880</ele>
        <time>2021-02-28T09:39:56Z</time>
      </trkpt>
      <trkpt lat="45.09672" lon="6.43052">
        <ele>1880</ele>
        <time>2021-02-28T09:39:57Z</time>
      </trkpt>
      <trkpt lat="45.09672" lon="6.43052">
        <ele>1880</ele>
        <time>2021-02-28T09:39:58Z</time>
      </trkpt>
      <trkpt lat="45.09669" lon="6.43053">
        <ele>1880.2</ele>
        <time>2021-02-28T09:39:59Z</time>
      </trkpt>
      <trkpt lat="45.09669" lon="6.43053">
        <ele>1880.2</ele>
        <time>2021-02-28T09:40:00Z</time>
      </trkpt>
      <trkpt lat="45.09666" lon="6.43053">
        <ele>1880.4</ele>
        <time>2021-02-28T09:40:01Z</time>
      </trkpt>
      <trkpt lat="45.09666" lon="6.43053">
        <ele>1880.8</ele>
        <time>2021-02-28T09:40:02Z</time>
      </trkpt>
      <trkpt lat="45.09663" lon="6.43054">
        <ele>1880.8</ele>
        <time>2021-02-28T09:40:03Z</time>
      </trkpt>
      <trkpt lat="45.09663" lon="6.43054">
        <ele>1881.4</ele>
        <time>2021-02-28T09:40:04Z</time>
      </trkpt>
      <trkpt lat="45.0966" lon="6.43054">
        <ele>1881.2</ele>
        <time>2021-02-28T09:40:05Z</time>
      </trkpt>
      <trkpt lat="45.0966" lon="6.43054">
        <ele>1881.4</ele>
        <time>2021-02-28T09:40:06Z</time>
      </trkpt>
      <trkpt lat="45.09658" lon="6.43054">
        <ele>1881.6</ele>
        <time>2021-02-28T09:40:07Z</time>
      </trkpt>
      <trkpt lat="45.09658" lon="6.43054">
        <ele>1881.6</ele>
        <time>2021-02-28T09:40:08Z</time>
      </trkpt>
      <trkpt lat="45.09655" lon="6.43054">
        <ele>1881.6</ele>
        <time>2021-02-28T09:40:09Z</time>
      </trkpt>
      <trkpt lat="45.09655" lon="6.43054">
        <ele>1881.8</ele>
        <time>2021-02-28T09:40:10Z</time>
      </trkpt>
      <trkpt lat="45.09652" lon="6.43055">
        <ele>1881.8</ele>
        <time>2021-02-28T09:40:11Z</time>
      </trkpt>
      <trkpt lat="45.09652" lon="6.43055">
        <ele>1882.2</ele>
        <time>2021-02-28T09:40:12Z</time>
      </trkpt>
      <trkpt lat="45.09649" lon="6.43055">
        <ele>1882.2</ele>
        <time>2021-02-28T09:40:13Z</time>
      </trkpt>
      <trkpt lat="45.09649" lon="6.43055">
        <ele>1882.2</ele>
        <time>2021-02-28T09:40:14Z</time>
      </trkpt>
      <trkpt lat="45.09646" lon="6.43055">
        <ele>1882.4</ele>
        <time>2021-02-28T09:40:15Z</time>
      </trkpt>
      <trkpt lat="45.09646" lon="6.43055">
        <ele>1882.4</ele>
        <time>2021-02-28T09:40:16Z</time>
      </trkpt>
      <trkpt lat="45.09643" lon="6.43054">
        <ele>1882.4</ele>
        <time>2021-02-28T09:40:17Z</time>
      </trkpt>
      <trkpt lat="45.09641" lon="6.43054">
        <ele>1882.6</ele>
        <time>2021-02-28T09:40:18Z</time>
      </trkpt>
      <trkpt lat="45.09641" lon="6.43054">
        <ele>1882.8</ele>
        <time>2021-02-28T09:40:19Z</time>
      </trkpt>
      <trkpt lat="45.09638" lon="6.43054">
        <ele>1883</ele>
        <time>2021-02-28T09:40:20Z</time>
      </trkpt>
      <trkpt lat="45.09638" lon="6.43054">
        <ele>1883.4</ele>
        <time>2021-02-28T09:40:21Z</time>
      </trkpt>
      <trkpt lat="45.09636" lon="6.43054">
        <ele>1883.2</ele>
        <time>2021-02-28T09:40:22Z</time>
      </trkpt>
      <trkpt lat="45.09636" lon="6.43054">
        <ele>1883.4</ele>
        <time>2021-02-28T09:40:23Z</time>
      </trkpt>
      <trkpt lat="45.09632" lon="6.43053">
        <ele>1883.4</ele>
        <time>2021-02-28T09:40:24Z</time>
      </trkpt>
      <trkpt lat="45.0963" lon="6.43053">
        <ele>1883.4</ele>
        <time>2021-02-28T09:40:25Z</time>
      </trkpt>
      <trkpt lat="45.09628" lon="6.43053">
        <ele>1883.6</ele>
        <time>2021-02-28T09:40:26Z</time>
      </trkpt>
      <trkpt lat="45.09628" lon="6.43053">
        <ele>1883.6</ele>
        <time>2021-02-28T09:40:27Z</time>
      </trkpt>
      <trkpt lat="45.09625" lon="6.43053">
        <ele>1883.8</ele>
        <time>2021-02-28T09:40:28Z</time>
      </trkpt>
      <trkpt lat="45.09625" lon="6.43053">
        <ele>1884</ele>
        <time>2021-02-28T09:40:29Z</time>
      </trkpt>
      <trkpt lat="45.09622" lon="6.43053">
        <ele>1884.2</ele>
        <time>2021-02-28T09:40:30Z</time>
      </trkpt>
      <trkpt lat="45.09622" lon="6.43053">
        <ele>1884.4</ele>
        <time>2021-02-28T09:40:31Z</time>
      </trkpt>
      <trkpt lat="45.0962" lon="6.43053">
        <ele>1884.4</ele>
        <time>2021-02-28T09:40:32Z</time>
      </trkpt>
      <trkpt lat="45.0962" lon="6.43053">
        <ele>1884.4</ele>
        <time>2021-02-28T09:40:33Z</time>
      </trkpt>
      <trkpt lat="45.09616" lon="6.43053">
        <ele>1884.6</ele>
        <time>2021-02-28T09:40:34Z</time>
      </trkpt>
      <trkpt lat="45.09616" lon="6.43053">
        <ele>1884.6</ele>
        <time>2021-02-28T09:40:35Z</time>
      </trkpt>
      <trkpt lat="45.09613" lon="6.43053">
        <ele>1884.8</ele>
        <time>2021-02-28T09:40:36Z</time>
      </trkpt>
      <trkpt lat="45.09613" lon="6.43053">
        <ele>1885.2</ele>
        <time>2021-02-28T09:40:37Z</time>
      </trkpt>
      <trkpt lat="45.09611" lon="6.43053">
        <ele>1885.6</ele>
        <time>2021-02-28T09:40:38Z</time>
      </trkpt>
      <trkpt lat="45.09611" lon="6.43053">
        <ele>1885.6</ele>
        <time>2021-02-28T09:40:39Z</time>
      </trkpt>
      <trkpt lat="45.09608" lon="6.43053">
        <ele>1885.6</ele>
        <time>2021-02-28T09:40:40Z</time>
      </trkpt>
      <trkpt lat="45.09608" lon="6.43053">
        <ele>1885.8</ele>
        <time>2021-02-28T09:40:41Z</time>
      </trkpt>
      <trkpt lat="45.09604" lon="6.43052">
        <ele>1886</ele>
        <time>2021-02-28T09:40:42Z</time>
      </trkpt>
      <trkpt lat="45.09604" lon="6.43052">
        <ele>1886</ele>
        <time>2021-02-28T09:40:43Z</time>
      </trkpt>
      <trkpt lat="45.09601" lon="6.43052">
        <ele>1886</ele>
        <time>2021-02-28T09:40:44Z</time>
      </trkpt>
      <trkpt lat="45.09601" lon="6.43052">
        <ele>1886</ele>
        <time>2021-02-28T09:40:45Z</time>
      </trkpt>
      <trkpt lat="45.09598" lon="6.43052">
        <ele>1886.4</ele>
        <time>2021-02-28T09:40:46Z</time>
      </trkpt>
      <trkpt lat="45.09598" lon="6.43052">
        <ele>1886.6</ele>
        <time>2021-02-28T09:40:47Z</time>
      </trkpt>
      <trkpt lat="45.09595" lon="6.43052">
        <ele>1886.6</ele>
        <time>2021-02-28T09:40:48Z</time>
      </trkpt>
      <trkpt lat="45.09594" lon="6.43051">
        <ele>1886.8</ele>
        <time>2021-02-28T09:40:49Z</time>
      </trkpt>
      <trkpt lat="45.09594" lon="6.43051">
        <ele>1886.8</ele>
        <time>2021-02-28T09:40:50Z</time>
      </trkpt>
      <trkpt lat="45.0959" lon="6.43051">
        <ele>1887</ele>
        <time>2021-02-28T09:40:51Z</time>
      </trkpt>
      <trkpt lat="45.0959" lon="6.43051">
        <ele>1887.2</ele>
        <time>2021-02-28T09:40:52Z</time>
      </trkpt>
      <trkpt lat="45.09587" lon="6.43051">
        <ele>1887.4</ele>
        <time>2021-02-28T09:40:53Z</time>
      </trkpt>
      <trkpt lat="45.09587" lon="6.43051">
        <ele>1887.6</ele>
        <time>2021-02-28T09:40:54Z</time>
      </trkpt>
      <trkpt lat="45.09584" lon="6.4305">
        <ele>1887.8</ele>
        <time>2021-02-28T09:40:55Z</time>
      </trkpt>
      <trkpt lat="45.09584" lon="6.4305">
        <ele>1888</ele>
        <time>2021-02-28T09:40:56Z</time>
      </trkpt>
      <trkpt lat="45.09581" lon="6.4305">
        <ele>1888</ele>
        <time>2021-02-28T09:40:57Z</time>
      </trkpt>
      <trkpt lat="45.09581" lon="6.4305">
        <ele>1888.2</ele>
        <time>2021-02-28T09:40:58Z</time>
      </trkpt>
      <trkpt lat="45.09578" lon="6.4305">
        <ele>1888.6</ele>
        <time>2021-02-28T09:40:59Z</time>
      </trkpt>
      <trkpt lat="45.09576" lon="6.4305">
        <ele>1888.8</ele>
        <time>2021-02-28T09:41:00Z</time>
      </trkpt>
      <trkpt lat="45.09576" lon="6.4305">
        <ele>1889</ele>
        <time>2021-02-28T09:41:01Z</time>
      </trkpt>
      <trkpt lat="45.09573" lon="6.43049">
        <ele>1889.2</ele>
        <time>2021-02-28T09:41:02Z</time>
      </trkpt>
      <trkpt lat="45.09573" lon="6.43049">
        <ele>1889.6</ele>
        <time>2021-02-28T09:41:03Z</time>
      </trkpt>
      <trkpt lat="45.0957" lon="6.4305">
        <ele>1889.6</ele>
        <time>2021-02-28T09:41:04Z</time>
      </trkpt>
      <trkpt lat="45.0957" lon="6.4305">
        <ele>1889.8</ele>
        <time>2021-02-28T09:41:05Z</time>
      </trkpt>
      <trkpt lat="45.09568" lon="6.43051">
        <ele>1890</ele>
        <time>2021-02-28T09:41:06Z</time>
      </trkpt>
      <trkpt lat="45.09568" lon="6.43051">
        <ele>1890.2</ele>
        <time>2021-02-28T09:41:07Z</time>
      </trkpt>
      <trkpt lat="45.09566" lon="6.43051">
        <ele>1890.2</ele>
        <time>2021-02-28T09:41:08Z</time>
      </trkpt>
      <trkpt lat="45.09566" lon="6.43051">
        <ele>1890.2</ele>
        <time>2021-02-28T09:41:09Z</time>
      </trkpt>
      <trkpt lat="45.09563" lon="6.43052">
        <ele>1890.6</ele>
        <time>2021-02-28T09:41:10Z</time>
      </trkpt>
      <trkpt lat="45.09563" lon="6.43052">
        <ele>1890.8</ele>
        <time>2021-02-28T09:41:11Z</time>
      </trkpt>
      <trkpt lat="45.0956" lon="6.43052">
        <ele>1891.2</ele>
        <time>2021-02-28T09:41:12Z</time>
      </trkpt>
      <trkpt lat="45.0956" lon="6.43052">
        <ele>1891.4</ele>
        <time>2021-02-28T09:41:13Z</time>
      </trkpt>
      <trkpt lat="45.09557" lon="6.43052">
        <ele>1891.2</ele>
        <time>2021-02-28T09:41:14Z</time>
      </trkpt>
      <trkpt lat="45.09557" lon="6.43052">
        <ele>1891.4</ele>
        <time>2021-02-28T09:41:15Z</time>
      </trkpt>
      <trkpt lat="45.09554" lon="6.43053">
        <ele>1891.4</ele>
        <time>2021-02-28T09:41:16Z</time>
      </trkpt>
      <trkpt lat="45.09554" lon="6.43053">
        <ele>1891.8</ele>
        <time>2021-02-28T09:41:17Z</time>
      </trkpt>
      <trkpt lat="45.09552" lon="6.43053">
        <ele>1892.2</ele>
        <time>2021-02-28T09:41:18Z</time>
      </trkpt>
      <trkpt lat="45.09552" lon="6.43053">
        <ele>1892.2</ele>
        <time>2021-02-28T09:41:19Z</time>
      </trkpt>
      <trkpt lat="45.09549" lon="6.43054">
        <ele>1892.4</ele>
        <time>2021-02-28T09:41:20Z</time>
      </trkpt>
      <trkpt lat="45.09549" lon="6.43054">
        <ele>1892.4</ele>
        <time>2021-02-28T09:41:21Z</time>
      </trkpt>
      <trkpt lat="45.09546" lon="6.43054">
        <ele>1892.4</ele>
        <time>2021-02-28T09:41:22Z</time>
      </trkpt>
      <trkpt lat="45.09546" lon="6.43054">
        <ele>1892.4</ele>
        <time>2021-02-28T09:41:23Z</time>
      </trkpt>
      <trkpt lat="45.09543" lon="6.43054">
        <ele>1892.4</ele>
        <time>2021-02-28T09:41:24Z</time>
      </trkpt>
      <trkpt lat="45.09541" lon="6.43053">
        <ele>1893</ele>
        <time>2021-02-28T09:41:25Z</time>
      </trkpt>
      <trkpt lat="45.09541" lon="6.43053">
        <ele>1893.4</ele>
        <time>2021-02-28T09:41:26Z</time>
      </trkpt>
      <trkpt lat="45.09538" lon="6.43053">
        <ele>1894</ele>
        <time>2021-02-28T09:41:27Z</time>
      </trkpt>
      <trkpt lat="45.09538" lon="6.43053">
        <ele>1893.8</ele>
        <time>2021-02-28T09:41:28Z</time>
      </trkpt>
      <trkpt lat="45.09535" lon="6.43054">
        <ele>1893.6</ele>
        <time>2021-02-28T09:41:29Z</time>
      </trkpt>
      <trkpt lat="45.09535" lon="6.43054">
        <ele>1893.4</ele>
        <time>2021-02-28T09:41:30Z</time>
      </trkpt>
      <trkpt lat="45.09533" lon="6.43053">
        <ele>1893.4</ele>
        <time>2021-02-28T09:41:31Z</time>
      </trkpt>
      <trkpt lat="45.09533" lon="6.43053">
        <ele>1894</ele>
        <time>2021-02-28T09:41:32Z</time>
      </trkpt>
      <trkpt lat="45.0953" lon="6.43053">
        <ele>1894.2</ele>
        <time>2021-02-28T09:41:33Z</time>
      </trkpt>
      <trkpt lat="45.0953" lon="6.43053">
        <ele>1894.6</ele>
        <time>2021-02-28T09:41:34Z</time>
      </trkpt>
      <trkpt lat="45.09527" lon="6.43053">
        <ele>1895.2</ele>
        <time>2021-02-28T09:41:35Z</time>
      </trkpt>
      <trkpt lat="45.09527" lon="6.43053">
        <ele>1895.4</ele>
        <time>2021-02-28T09:41:36Z</time>
      </trkpt>
      <trkpt lat="45.09523" lon="6.43053">
        <ele>1895.2</ele>
        <time>2021-02-28T09:41:37Z</time>
      </trkpt>
      <trkpt lat="45.09523" lon="6.43053">
        <ele>1895.2</ele>
        <time>2021-02-28T09:41:38Z</time>
      </trkpt>
      <trkpt lat="45.0952" lon="6.43053">
        <ele>1894.8</ele>
        <time>2021-02-28T09:41:39Z</time>
      </trkpt>
      <trkpt lat="45.0952" lon="6.43053">
        <ele>1894.8</ele>
        <time>2021-02-28T09:41:40Z</time>
      </trkpt>
      <trkpt lat="45.09517" lon="6.43053">
        <ele>1895.2</ele>
        <time>2021-02-28T09:41:41Z</time>
      </trkpt>
      <trkpt lat="45.09517" lon="6.43053">
        <ele>1895.2</ele>
        <time>2021-02-28T09:41:42Z</time>
      </trkpt>
      <trkpt lat="45.09515" lon="6.43053">
        <ele>1895.6</ele>
        <time>2021-02-28T09:41:43Z</time>
      </trkpt>
      <trkpt lat="45.09515" lon="6.43053">
        <ele>1896</ele>
        <time>2021-02-28T09:41:44Z</time>
      </trkpt>
      <trkpt lat="45.09512" lon="6.43053">
        <ele>1896</ele>
        <time>2021-02-28T09:41:45Z</time>
      </trkpt>
      <trkpt lat="45.09512" lon="6.43053">
        <ele>1896</ele>
        <time>2021-02-28T09:41:46Z</time>
      </trkpt>
      <trkpt lat="45.09509" lon="6.43053">
        <ele>1896</ele>
        <time>2021-02-28T09:41:47Z</time>
      </trkpt>
      <trkpt lat="45.09509" lon="6.43053">
        <ele>1896.2</ele>
        <time>2021-02-28T09:41:48Z</time>
      </trkpt>
      <trkpt lat="45.09506" lon="6.43053">
        <ele>1896.2</ele>
        <time>2021-02-28T09:41:49Z</time>
      </trkpt>
      <trkpt lat="45.09506" lon="6.43053">
        <ele>1896.6</ele>
        <time>2021-02-28T09:41:50Z</time>
      </trkpt>
      <trkpt lat="45.09504" lon="6.43054">
        <ele>1897</ele>
        <time>2021-02-28T09:41:51Z</time>
      </trkpt>
      <trkpt lat="45.09504" lon="6.43054">
        <ele>1897.8</ele>
        <time>2021-02-28T09:41:52Z</time>
      </trkpt>
      <trkpt lat="45.09501" lon="6.43055">
        <ele>1897.4</ele>
        <time>2021-02-28T09:41:53Z</time>
      </trkpt>
      <trkpt lat="45.09501" lon="6.43055">
        <ele>1897.2</ele>
        <time>2021-02-28T09:41:54Z</time>
      </trkpt>
      <trkpt lat="45.09498" lon="6.43055">
        <ele>1897</ele>
        <time>2021-02-28T09:41:55Z</time>
      </trkpt>
      <trkpt lat="45.09498" lon="6.43055">
        <ele>1896.8</ele>
        <time>2021-02-28T09:41:56Z</time>
      </trkpt>
      <trkpt lat="45.09495" lon="6.43055">
        <ele>1897.2</ele>
        <time>2021-02-28T09:41:57Z</time>
      </trkpt>
      <trkpt lat="45.09495" lon="6.43055">
        <ele>1897.4</ele>
        <time>2021-02-28T09:41:58Z</time>
      </trkpt>
      <trkpt lat="45.09492" lon="6.43057">
        <ele>1897.8</ele>
        <time>2021-02-28T09:41:59Z</time>
      </trkpt>
      <trkpt lat="45.09492" lon="6.43057">
        <ele>1898</ele>
        <time>2021-02-28T09:42:00Z</time>
      </trkpt>
      <trkpt lat="45.09489" lon="6.43058">
        <ele>1897.8</ele>
        <time>2021-02-28T09:42:01Z</time>
      </trkpt>
      <trkpt lat="45.09489" lon="6.43058">
        <ele>1897.6</ele>
        <time>2021-02-28T09:42:02Z</time>
      </trkpt>
      <trkpt lat="45.09486" lon="6.43059">
        <ele>1897.4</ele>
        <time>2021-02-28T09:42:03Z</time>
      </trkpt>
      <trkpt lat="45.09486" lon="6.43059">
        <ele>1897.6</ele>
        <time>2021-02-28T09:42:04Z</time>
      </trkpt>
      <trkpt lat="45.09483" lon="6.43061">
        <ele>1898</ele>
        <time>2021-02-28T09:42:05Z</time>
      </trkpt>
      <trkpt lat="45.09483" lon="6.43061">
        <ele>1898</ele>
        <time>2021-02-28T09:42:06Z</time>
      </trkpt>
      <trkpt lat="45.0948" lon="6.43063">
        <ele>1898.4</ele>
        <time>2021-02-28T09:42:07Z</time>
      </trkpt>
      <trkpt lat="45.0948" lon="6.43063">
        <ele>1899</ele>
        <time>2021-02-28T09:42:08Z</time>
      </trkpt>
      <trkpt lat="45.09478" lon="6.43065">
        <ele>1899.2</ele>
        <time>2021-02-28T09:42:09Z</time>
      </trkpt>
      <trkpt lat="45.09478" lon="6.43065">
        <ele>1899</ele>
        <time>2021-02-28T09:42:10Z</time>
      </trkpt>
      <trkpt lat="45.09475" lon="6.43067">
        <ele>1898.8</ele>
        <time>2021-02-28T09:42:11Z</time>
      </trkpt>
      <trkpt lat="45.09475" lon="6.43067">
        <ele>1898.8</ele>
        <time>2021-02-28T09:42:12Z</time>
      </trkpt>
      <trkpt lat="45.09473" lon="6.4307">
        <ele>1899</ele>
        <time>2021-02-28T09:42:13Z</time>
      </trkpt>
      <trkpt lat="45.09473" lon="6.4307">
        <ele>1899</ele>
        <time>2021-02-28T09:42:14Z</time>
      </trkpt>
      <trkpt lat="45.09471" lon="6.43072">
        <ele>1899.2</ele>
        <time>2021-02-28T09:42:15Z</time>
      </trkpt>
      <trkpt lat="45.09471" lon="6.43072">
        <ele>1899.6</ele>
        <time>2021-02-28T09:42:16Z</time>
      </trkpt>
      <trkpt lat="45.09468" lon="6.43075">
        <ele>1899.4</ele>
        <time>2021-02-28T09:42:17Z</time>
      </trkpt>
      <trkpt lat="45.09468" lon="6.43075">
        <ele>1899.4</ele>
        <time>2021-02-28T09:42:18Z</time>
      </trkpt>
      <trkpt lat="45.09466" lon="6.43078">
        <ele>1899.2</ele>
        <time>2021-02-28T09:42:19Z</time>
      </trkpt>
      <trkpt lat="45.09464" lon="6.4308">
        <ele>1899.2</ele>
        <time>2021-02-28T09:42:20Z</time>
      </trkpt>
      <trkpt lat="45.09464" lon="6.4308">
        <ele>1899.4</ele>
        <time>2021-02-28T09:42:21Z</time>
      </trkpt>
      <trkpt lat="45.09461" lon="6.43082">
        <ele>1899.6</ele>
        <time>2021-02-28T09:42:22Z</time>
      </trkpt>
      <trkpt lat="45.09461" lon="6.43082">
        <ele>1899.8</ele>
        <time>2021-02-28T09:42:23Z</time>
      </trkpt>
      <trkpt lat="45.09459" lon="6.43085">
        <ele>1899.8</ele>
        <time>2021-02-28T09:42:24Z</time>
      </trkpt>
      <trkpt lat="45.09459" lon="6.43085">
        <ele>1900</ele>
        <time>2021-02-28T09:42:25Z</time>
      </trkpt>
      <trkpt lat="45.09456" lon="6.43087">
        <ele>1899.8</ele>
        <time>2021-02-28T09:42:26Z</time>
      </trkpt>
      <trkpt lat="45.09456" lon="6.43087">
        <ele>1899.8</ele>
        <time>2021-02-28T09:42:27Z</time>
      </trkpt>
      <trkpt lat="45.09453" lon="6.4309">
        <ele>1900</ele>
        <time>2021-02-28T09:42:28Z</time>
      </trkpt>
      <trkpt lat="45.09453" lon="6.4309">
        <ele>1900.4</ele>
        <time>2021-02-28T09:42:29Z</time>
      </trkpt>
      <trkpt lat="45.09451" lon="6.43093">
        <ele>1900.2</ele>
        <time>2021-02-28T09:42:30Z</time>
      </trkpt>
      <trkpt lat="45.09449" lon="6.43095">
        <ele>1900.4</ele>
        <time>2021-02-28T09:42:31Z</time>
      </trkpt>
      <trkpt lat="45.09448" lon="6.43097">
        <ele>1900.8</ele>
        <time>2021-02-28T09:42:32Z</time>
      </trkpt>
      <trkpt lat="45.09446" lon="6.43099">
        <ele>1901</ele>
        <time>2021-02-28T09:42:33Z</time>
      </trkpt>
      <trkpt lat="45.09444" lon="6.431">
        <ele>1901</ele>
        <time>2021-02-28T09:42:34Z</time>
      </trkpt>
      <trkpt lat="45.09444" lon="6.431">
        <ele>1900.8</ele>
        <time>2021-02-28T09:42:35Z</time>
      </trkpt>
      <trkpt lat="45.09441" lon="6.43103">
        <ele>1900.6</ele>
        <time>2021-02-28T09:42:36Z</time>
      </trkpt>
      <trkpt lat="45.0944" lon="6.43104">
        <ele>1900.4</ele>
        <time>2021-02-28T09:42:37Z</time>
      </trkpt>
      <trkpt lat="45.0944" lon="6.43104">
        <ele>1900.2</ele>
        <time>2021-02-28T09:42:38Z</time>
      </trkpt>
      <trkpt lat="45.09436" lon="6.43106">
        <ele>1900.6</ele>
        <time>2021-02-28T09:42:39Z</time>
      </trkpt>
      <trkpt lat="45.09435" lon="6.43107">
        <ele>1900.6</ele>
        <time>2021-02-28T09:42:40Z</time>
      </trkpt>
      <trkpt lat="45.09435" lon="6.43107">
        <ele>1900.6</ele>
        <time>2021-02-28T09:42:41Z</time>
      </trkpt>
      <trkpt lat="45.09432" lon="6.4311">
        <ele>1900.4</ele>
        <time>2021-02-28T09:42:42Z</time>
      </trkpt>
      <trkpt lat="45.0943" lon="6.43111">
        <ele>1900.6</ele>
        <time>2021-02-28T09:42:43Z</time>
      </trkpt>
      <trkpt lat="45.0943" lon="6.43111">
        <ele>1900.8</ele>
        <time>2021-02-28T09:42:44Z</time>
      </trkpt>
      <trkpt lat="45.09427" lon="6.43113">
        <ele>1900.8</ele>
        <time>2021-02-28T09:42:45Z</time>
      </trkpt>
      <trkpt lat="45.09427" lon="6.43113">
        <ele>1901</ele>
        <time>2021-02-28T09:42:46Z</time>
      </trkpt>
      <trkpt lat="45.09424" lon="6.43114">
        <ele>1900.8</ele>
        <time>2021-02-28T09:42:47Z</time>
      </trkpt>
      <trkpt lat="45.09422" lon="6.43115">
        <ele>1901</ele>
        <time>2021-02-28T09:42:48Z</time>
      </trkpt>
      <trkpt lat="45.0942" lon="6.43116">
        <ele>1900.8</ele>
        <time>2021-02-28T09:42:49Z</time>
      </trkpt>
      <trkpt lat="45.09418" lon="6.43117">
        <ele>1901</ele>
        <time>2021-02-28T09:42:50Z</time>
      </trkpt>
      <trkpt lat="45.09417" lon="6.43118">
        <ele>1901</ele>
        <time>2021-02-28T09:42:51Z</time>
      </trkpt>
      <trkpt lat="45.09417" lon="6.43118">
        <ele>1901.2</ele>
        <time>2021-02-28T09:42:52Z</time>
      </trkpt>
      <trkpt lat="45.09413" lon="6.4312">
        <ele>1901.8</ele>
        <time>2021-02-28T09:42:53Z</time>
      </trkpt>
      <trkpt lat="45.09413" lon="6.4312">
        <ele>1901.6</ele>
        <time>2021-02-28T09:42:54Z</time>
      </trkpt>
      <trkpt lat="45.09411" lon="6.43121">
        <ele>1901.8</ele>
        <time>2021-02-28T09:42:55Z</time>
      </trkpt>
      <trkpt lat="45.09411" lon="6.43121">
        <ele>1901.6</ele>
        <time>2021-02-28T09:42:56Z</time>
      </trkpt>
      <trkpt lat="45.09407" lon="6.43123">
        <ele>1901.4</ele>
        <time>2021-02-28T09:42:57Z</time>
      </trkpt>
      <trkpt lat="45.09406" lon="6.43125">
        <ele>1901.6</ele>
        <time>2021-02-28T09:42:58Z</time>
      </trkpt>
      <trkpt lat="45.09404" lon="6.43126">
        <ele>1901.8</ele>
        <time>2021-02-28T09:42:59Z</time>
      </trkpt>
      <trkpt lat="45.09402" lon="6.43127">
        <ele>1902</ele>
        <time>2021-02-28T09:43:00Z</time>
      </trkpt>
      <trkpt lat="45.09402" lon="6.43127">
        <ele>1902.2</ele>
        <time>2021-02-28T09:43:01Z</time>
      </trkpt>
      <trkpt lat="45.09399" lon="6.43129">
        <ele>1902.6</ele>
        <time>2021-02-28T09:43:02Z</time>
      </trkpt>
      <trkpt lat="45.09399" lon="6.43129">
        <ele>1903</ele>
        <time>2021-02-28T09:43:03Z</time>
      </trkpt>
      <trkpt lat="45.09396" lon="6.43131">
        <ele>1903.2</ele>
        <time>2021-02-28T09:43:04Z</time>
      </trkpt>
      <trkpt lat="45.09396" lon="6.43131">
        <ele>1903.4</ele>
        <time>2021-02-28T09:43:05Z</time>
      </trkpt>
      <trkpt lat="45.09393" lon="6.43133">
        <ele>1903</ele>
        <time>2021-02-28T09:43:06Z</time>
      </trkpt>
      <trkpt lat="45.09391" lon="6.43135">
        <ele>1902.8</ele>
        <time>2021-02-28T09:43:07Z</time>
      </trkpt>
      <trkpt lat="45.0939" lon="6.43136">
        <ele>1902.6</ele>
        <time>2021-02-28T09:43:08Z</time>
      </trkpt>
      <trkpt lat="45.09388" lon="6.43138">
        <ele>1902.2</ele>
        <time>2021-02-28T09:43:09Z</time>
      </trkpt>
      <trkpt lat="45.09386" lon="6.43139">
        <ele>1902.4</ele>
        <time>2021-02-28T09:43:10Z</time>
      </trkpt>
      <trkpt lat="45.09386" lon="6.43139">
        <ele>1902.4</ele>
        <time>2021-02-28T09:43:11Z</time>
      </trkpt>
      <trkpt lat="45.09383" lon="6.43141">
        <ele>1902.8</ele>
        <time>2021-02-28T09:43:12Z</time>
      </trkpt>
      <trkpt lat="45.09383" lon="6.43141">
        <ele>1903</ele>
        <time>2021-02-28T09:43:13Z</time>
      </trkpt>
      <trkpt lat="45.0938" lon="6.43144">
        <ele>1903</ele>
        <time>2021-02-28T09:43:14Z</time>
      </trkpt>
      <trkpt lat="45.0938" lon="6.43144">
        <ele>1902.8</ele>
        <time>2021-02-28T09:43:15Z</time>
      </trkpt>
      <trkpt lat="45.09377" lon="6.43146">
        <ele>1902.8</ele>
        <time>2021-02-28T09:43:16Z</time>
      </trkpt>
      <trkpt lat="45.09376" lon="6.43147">
        <ele>1903</ele>
        <time>2021-02-28T09:43:17Z</time>
      </trkpt>
      <trkpt lat="45.09376" lon="6.43147">
        <ele>1902.8</ele>
        <time>2021-02-28T09:43:18Z</time>
      </trkpt>
      <trkpt lat="45.09373" lon="6.43149">
        <ele>1902.8</ele>
        <time>2021-02-28T09:43:19Z</time>
      </trkpt>
      <trkpt lat="45.09373" lon="6.43149">
        <ele>1903</ele>
        <time>2021-02-28T09:43:20Z</time>
      </trkpt>
      <trkpt lat="45.0937" lon="6.43152">
        <ele>1903</ele>
        <time>2021-02-28T09:43:21Z</time>
      </trkpt>
      <trkpt lat="45.09368" lon="6.43154">
        <ele>1903.6</ele>
        <time>2021-02-28T09:43:22Z</time>
      </trkpt>
      <trkpt lat="45.09367" lon="6.43155">
        <ele>1903.6</ele>
        <time>2021-02-28T09:43:23Z</time>
      </trkpt>
      <trkpt lat="45.09365" lon="6.43156">
        <ele>1903.6</ele>
        <time>2021-02-28T09:43:24Z</time>
      </trkpt>
      <trkpt lat="45.09363" lon="6.43158">
        <ele>1903.4</ele>
        <time>2021-02-28T09:43:25Z</time>
      </trkpt>
      <trkpt lat="45.09361" lon="6.43159">
        <ele>1903.6</ele>
        <time>2021-02-28T09:43:26Z</time>
      </trkpt>
      <trkpt lat="45.09359" lon="6.4316">
        <ele>1903.6</ele>
        <time>2021-02-28T09:43:27Z</time>
      </trkpt>
      <trkpt lat="45.09357" lon="6.43161">
        <ele>1903.6</ele>
        <time>2021-02-28T09:43:28Z</time>
      </trkpt>
      <trkpt lat="45.09355" lon="6.43162">
        <ele>1903.8</ele>
        <time>2021-02-28T09:43:29Z</time>
      </trkpt>
      <trkpt lat="45.09354" lon="6.43163">
        <ele>1903.8</ele>
        <time>2021-02-28T09:43:30Z</time>
      </trkpt>
      <trkpt lat="45.09352" lon="6.43164">
        <ele>1904</ele>
        <time>2021-02-28T09:43:31Z</time>
      </trkpt>
      <trkpt lat="45.0935" lon="6.43165">
        <ele>1904.4</ele>
        <time>2021-02-28T09:43:32Z</time>
      </trkpt>
      <trkpt lat="45.0935" lon="6.43165">
        <ele>1904.6</ele>
        <time>2021-02-28T09:43:33Z</time>
      </trkpt>
      <trkpt lat="45.09347" lon="6.43166">
        <ele>1904.6</ele>
        <time>2021-02-28T09:43:34Z</time>
      </trkpt>
      <trkpt lat="45.09347" lon="6.43166">
        <ele>1904.8</ele>
        <time>2021-02-28T09:43:35Z</time>
      </trkpt>
      <trkpt lat="45.09343" lon="6.43168">
        <ele>1904.6</ele>
        <time>2021-02-28T09:43:36Z</time>
      </trkpt>
      <trkpt lat="45.09341" lon="6.4317">
        <ele>1904.4</ele>
        <time>2021-02-28T09:43:37Z</time>
      </trkpt>
      <trkpt lat="45.09339" lon="6.43171">
        <ele>1904.2</ele>
        <time>2021-02-28T09:43:38Z</time>
      </trkpt>
      <trkpt lat="45.09337" lon="6.43172">
        <ele>1904.2</ele>
        <time>2021-02-28T09:43:39Z</time>
      </trkpt>
      <trkpt lat="45.09335" lon="6.43173">
        <ele>1904.4</ele>
        <time>2021-02-28T09:43:40Z</time>
      </trkpt>
      <trkpt lat="45.09334" lon="6.43173">
        <ele>1904.4</ele>
        <time>2021-02-28T09:43:41Z</time>
      </trkpt>
      <trkpt lat="45.09332" lon="6.43175">
        <ele>1905</ele>
        <time>2021-02-28T09:43:42Z</time>
      </trkpt>
      <trkpt lat="45.0933" lon="6.43176">
        <ele>1905.4</ele>
        <time>2021-02-28T09:43:43Z</time>
      </trkpt>
      <trkpt lat="45.09329" lon="6.43177">
        <ele>1905.2</ele>
        <time>2021-02-28T09:43:44Z</time>
      </trkpt>
      <trkpt lat="45.09327" lon="6.43179">
        <ele>1905</ele>
        <time>2021-02-28T09:43:45Z</time>
      </trkpt>
      <trkpt lat="45.09325" lon="6.4318">
        <ele>1905.2</ele>
        <time>2021-02-28T09:43:46Z</time>
      </trkpt>
      <trkpt lat="45.09323" lon="6.43182">
        <ele>1905.2</ele>
        <time>2021-02-28T09:43:47Z</time>
      </trkpt>
      <trkpt lat="45.09322" lon="6.43183">
        <ele>1905</ele>
        <time>2021-02-28T09:43:48Z</time>
      </trkpt>
      <trkpt lat="45.0932" lon="6.43185">
        <ele>1904.8</ele>
        <time>2021-02-28T09:43:49Z</time>
      </trkpt>
      <trkpt lat="45.09318" lon="6.43186">
        <ele>1904.6</ele>
        <time>2021-02-28T09:43:50Z</time>
      </trkpt>
      <trkpt lat="45.09317" lon="6.43188">
        <ele>1904.4</ele>
        <time>2021-02-28T09:43:51Z</time>
      </trkpt>
      <trkpt lat="45.09315" lon="6.4319">
        <ele>1904.6</ele>
        <time>2021-02-28T09:43:52Z</time>
      </trkpt>
      <trkpt lat="45.09314" lon="6.43192">
        <ele>1904.6</ele>
        <time>2021-02-28T09:43:53Z</time>
      </trkpt>
      <trkpt lat="45.09313" lon="6.43194">
        <ele>1905</ele>
        <time>2021-02-28T09:43:54Z</time>
      </trkpt>
      <trkpt lat="45.09313" lon="6.43194">
        <ele>1905.2</ele>
        <time>2021-02-28T09:43:55Z</time>
      </trkpt>
      <trkpt lat="45.0931" lon="6.43197">
        <ele>1905.8</ele>
        <time>2021-02-28T09:43:56Z</time>
      </trkpt>
      <trkpt lat="45.0931" lon="6.43197">
        <ele>1905.4</ele>
        <time>2021-02-28T09:43:57Z</time>
      </trkpt>
      <trkpt lat="45.09308" lon="6.432">
        <ele>1905.4</ele>
        <time>2021-02-28T09:43:58Z</time>
      </trkpt>
      <trkpt lat="45.09308" lon="6.432">
        <ele>1905.2</ele>
        <time>2021-02-28T09:43:59Z</time>
      </trkpt>
      <trkpt lat="45.09306" lon="6.43204">
        <ele>1905.2</ele>
        <time>2021-02-28T09:44:00Z</time>
      </trkpt>
      <trkpt lat="45.09306" lon="6.43204">
        <ele>1905.4</ele>
        <time>2021-02-28T09:44:01Z</time>
      </trkpt>
      <trkpt lat="45.09303" lon="6.43207">
        <ele>1905.4</ele>
        <time>2021-02-28T09:44:02Z</time>
      </trkpt>
      <trkpt lat="45.09303" lon="6.43207">
        <ele>1905.6</ele>
        <time>2021-02-28T09:44:03Z</time>
      </trkpt>
      <trkpt lat="45.09301" lon="6.43211">
        <ele>1905.8</ele>
        <time>2021-02-28T09:44:04Z</time>
      </trkpt>
      <trkpt lat="45.09301" lon="6.43211">
        <ele>1905.6</ele>
        <time>2021-02-28T09:44:05Z</time>
      </trkpt>
      <trkpt lat="45.09299" lon="6.43214">
        <ele>1905.6</ele>
        <time>2021-02-28T09:44:06Z</time>
      </trkpt>
      <trkpt lat="45.09299" lon="6.43214">
        <ele>1905.6</ele>
        <time>2021-02-28T09:44:07Z</time>
      </trkpt>
      <trkpt lat="45.09297" lon="6.43218">
        <ele>1905.8</ele>
        <time>2021-02-28T09:44:08Z</time>
      </trkpt>
      <trkpt lat="45.09295" lon="6.43221">
        <ele>1905.8</ele>
        <time>2021-02-28T09:44:09Z</time>
      </trkpt>
      <trkpt lat="45.09294" lon="6.43223">
        <ele>1905.8</ele>
        <time>2021-02-28T09:44:10Z</time>
      </trkpt>
      <trkpt lat="45.09294" lon="6.43223">
        <ele>1905.8</ele>
        <time>2021-02-28T09:44:11Z</time>
      </trkpt>
      <trkpt lat="45.09292" lon="6.43226">
        <ele>1906</ele>
        <time>2021-02-28T09:44:12Z</time>
      </trkpt>
      <trkpt lat="45.0929" lon="6.43227">
        <ele>1906</ele>
        <time>2021-02-28T09:44:13Z</time>
      </trkpt>
      <trkpt lat="45.09289" lon="6.43229">
        <ele>1906</ele>
        <time>2021-02-28T09:44:14Z</time>
      </trkpt>
      <trkpt lat="45.09287" lon="6.4323">
        <ele>1906</ele>
        <time>2021-02-28T09:44:15Z</time>
      </trkpt>
      <trkpt lat="45.09287" lon="6.4323">
        <ele>1906</ele>
        <time>2021-02-28T09:44:16Z</time>
      </trkpt>
      <trkpt lat="45.09284" lon="6.43232">
        <ele>1905.8</ele>
        <time>2021-02-28T09:44:17Z</time>
      </trkpt>
      <trkpt lat="45.09284" lon="6.43232">
        <ele>1906</ele>
        <time>2021-02-28T09:44:18Z</time>
      </trkpt>
      <trkpt lat="45.09281" lon="6.43234">
        <ele>1906.2</ele>
        <time>2021-02-28T09:44:19Z</time>
      </trkpt>
      <trkpt lat="45.09281" lon="6.43234">
        <ele>1906.4</ele>
        <time>2021-02-28T09:44:20Z</time>
      </trkpt>
      <trkpt lat="45.09277" lon="6.43236">
        <ele>1906.6</ele>
        <time>2021-02-28T09:44:21Z</time>
      </trkpt>
      <trkpt lat="45.09275" lon="6.43237">
        <ele>1906.4</ele>
        <time>2021-02-28T09:44:22Z</time>
      </trkpt>
      <trkpt lat="45.09274" lon="6.43238">
        <ele>1906.2</ele>
        <time>2021-02-28T09:44:23Z</time>
      </trkpt>
      <trkpt lat="45.09274" lon="6.43238">
        <ele>1906.2</ele>
        <time>2021-02-28T09:44:24Z</time>
      </trkpt>
      <trkpt lat="45.0927" lon="6.4324">
        <ele>1906</ele>
        <time>2021-02-28T09:44:25Z</time>
      </trkpt>
      <trkpt lat="45.09268" lon="6.43241">
        <ele>1906.4</ele>
        <time>2021-02-28T09:44:26Z</time>
      </trkpt>
      <trkpt lat="45.09267" lon="6.43241">
        <ele>1906.6</ele>
        <time>2021-02-28T09:44:27Z</time>
      </trkpt>
      <trkpt lat="45.09267" lon="6.43241">
        <ele>1907</ele>
        <time>2021-02-28T09:44:28Z</time>
      </trkpt>
      <trkpt lat="45.09263" lon="6.43243">
        <ele>1907</ele>
        <time>2021-02-28T09:44:29Z</time>
      </trkpt>
      <trkpt lat="45.09263" lon="6.43243">
        <ele>1906.8</ele>
        <time>2021-02-28T09:44:30Z</time>
      </trkpt>
      <trkpt lat="45.0926" lon="6.43245">
        <ele>1906.8</ele>
        <time>2021-02-28T09:44:31Z</time>
      </trkpt>
      <trkpt lat="45.09258" lon="6.43245">
        <ele>1906.6</ele>
        <time>2021-02-28T09:44:32Z</time>
      </trkpt>
      <trkpt lat="45.09257" lon="6.43246">
        <ele>1906.4</ele>
        <time>2021-02-28T09:44:33Z</time>
      </trkpt>
      <trkpt lat="45.09255" lon="6.43248">
        <ele>1906.6</ele>
        <time>2021-02-28T09:44:34Z</time>
      </trkpt>
      <trkpt lat="45.09255" lon="6.43248">
        <ele>1906.8</ele>
        <time>2021-02-28T09:44:35Z</time>
      </trkpt>
      <trkpt lat="45.09252" lon="6.4325">
        <ele>1907.2</ele>
        <time>2021-02-28T09:44:36Z</time>
      </trkpt>
      <trkpt lat="45.09252" lon="6.4325">
        <ele>1907</ele>
        <time>2021-02-28T09:44:37Z</time>
      </trkpt>
      <trkpt lat="45.09249" lon="6.43251">
        <ele>1907</ele>
        <time>2021-02-28T09:44:38Z</time>
      </trkpt>
      <trkpt lat="45.09249" lon="6.43251">
        <ele>1907</ele>
        <time>2021-02-28T09:44:39Z</time>
      </trkpt>
      <trkpt lat="45.09245" lon="6.43254">
        <ele>1906.8</ele>
        <time>2021-02-28T09:44:40Z</time>
      </trkpt>
      <trkpt lat="45.09242" lon="6.43255">
        <ele>1906.8</ele>
        <time>2021-02-28T09:44:41Z</time>
      </trkpt>
      <trkpt lat="45.09242" lon="6.43256">
        <ele>1906.8</ele>
        <time>2021-02-28T09:44:42Z</time>
      </trkpt>
      <trkpt lat="45.09242" lon="6.43256">
        <ele>1906.8</ele>
        <time>2021-02-28T09:44:43Z</time>
      </trkpt>
      <trkpt lat="45.09239" lon="6.43258">
        <ele>1907.2</ele>
        <time>2021-02-28T09:44:44Z</time>
      </trkpt>
      <trkpt lat="45.09239" lon="6.43258">
        <ele>1907.6</ele>
        <time>2021-02-28T09:44:45Z</time>
      </trkpt>
      <trkpt lat="45.09236" lon="6.4326">
        <ele>1907.6</ele>
        <time>2021-02-28T09:44:46Z</time>
      </trkpt>
      <trkpt lat="45.09234" lon="6.43261">
        <ele>1907.2</ele>
        <time>2021-02-28T09:44:47Z</time>
      </trkpt>
      <trkpt lat="45.09234" lon="6.43261">
        <ele>1907</ele>
        <time>2021-02-28T09:44:48Z</time>
      </trkpt>
      <trkpt lat="45.09231" lon="6.43263">
        <ele>1907</ele>
        <time>2021-02-28T09:44:49Z</time>
      </trkpt>
      <trkpt lat="45.09231" lon="6.43263">
        <ele>1907</ele>
        <time>2021-02-28T09:44:50Z</time>
      </trkpt>
      <trkpt lat="45.09228" lon="6.43265">
        <ele>1907.2</ele>
        <time>2021-02-28T09:44:51Z</time>
      </trkpt>
      <trkpt lat="45.09228" lon="6.43265">
        <ele>1907.4</ele>
        <time>2021-02-28T09:44:52Z</time>
      </trkpt>
      <trkpt lat="45.09225" lon="6.43267">
        <ele>1907.6</ele>
        <time>2021-02-28T09:44:53Z</time>
      </trkpt>
      <trkpt lat="45.09225" lon="6.43267">
        <ele>1907.8</ele>
        <time>2021-02-28T09:44:54Z</time>
      </trkpt>
      <trkpt lat="45.09222" lon="6.4327">
        <ele>1907.6</ele>
        <time>2021-02-28T09:44:55Z</time>
      </trkpt>
      <trkpt lat="45.09222" lon="6.4327">
        <ele>1907.4</ele>
        <time>2021-02-28T09:44:56Z</time>
      </trkpt>
      <trkpt lat="45.09219" lon="6.43272">
        <ele>1907</ele>
        <time>2021-02-28T09:44:57Z</time>
      </trkpt>
      <trkpt lat="45.09217" lon="6.43274">
        <ele>1907</ele>
        <time>2021-02-28T09:44:58Z</time>
      </trkpt>
      <trkpt lat="45.09216" lon="6.43276">
        <ele>1907.2</ele>
        <time>2021-02-28T09:44:59Z</time>
      </trkpt>
      <trkpt lat="45.09216" lon="6.43276">
        <ele>1907.2</ele>
        <time>2021-02-28T09:45:00Z</time>
      </trkpt>
      <trkpt lat="45.09213" lon="6.43279">
        <ele>1907.6</ele>
        <time>2021-02-28T09:45:01Z</time>
      </trkpt>
      <trkpt lat="45.09213" lon="6.43279">
        <ele>1908</ele>
        <time>2021-02-28T09:45:02Z</time>
      </trkpt>
      <trkpt lat="45.09211" lon="6.43282">
        <ele>1907.8</ele>
        <time>2021-02-28T09:45:03Z</time>
      </trkpt>
      <trkpt lat="45.0921" lon="6.43284">
        <ele>1907.4</ele>
        <time>2021-02-28T09:45:04Z</time>
      </trkpt>
      <trkpt lat="45.09208" lon="6.43286">
        <ele>1907</ele>
        <time>2021-02-28T09:45:05Z</time>
      </trkpt>
      <trkpt lat="45.09208" lon="6.43286">
        <ele>1907</ele>
        <time>2021-02-28T09:45:06Z</time>
      </trkpt>
      <trkpt lat="45.09206" lon="6.43289">
        <ele>1906.8</ele>
        <time>2021-02-28T09:45:07Z</time>
      </trkpt>
      <trkpt lat="45.09204" lon="6.4329">
        <ele>1907.2</ele>
        <time>2021-02-28T09:45:08Z</time>
      </trkpt>
      <trkpt lat="45.09202" lon="6.43292">
        <ele>1907</ele>
        <time>2021-02-28T09:45:09Z</time>
      </trkpt>
      <trkpt lat="45.09201" lon="6.43293">
        <ele>1907.2</ele>
        <time>2021-02-28T09:45:10Z</time>
      </trkpt>
      <trkpt lat="45.09201" lon="6.43293">
        <ele>1907.4</ele>
        <time>2021-02-28T09:45:11Z</time>
      </trkpt>
      <trkpt lat="45.09198" lon="6.43296">
        <ele>1907.8</ele>
        <time>2021-02-28T09:45:12Z</time>
      </trkpt>
      <trkpt lat="45.09198" lon="6.43296">
        <ele>1908.2</ele>
        <time>2021-02-28T09:45:13Z</time>
      </trkpt>
      <trkpt lat="45.09196" lon="6.43299">
        <ele>1908.2</ele>
        <time>2021-02-28T09:45:14Z</time>
      </trkpt>
      <trkpt lat="45.09196" lon="6.43299">
        <ele>1908.2</ele>
        <time>2021-02-28T09:45:15Z</time>
      </trkpt>
      <trkpt lat="45.09194" lon="6.43303">
        <ele>1907.8</ele>
        <time>2021-02-28T09:45:16Z</time>
      </trkpt>
      <trkpt lat="45.09192" lon="6.43305">
        <ele>1907.6</ele>
        <time>2021-02-28T09:45:17Z</time>
      </trkpt>
      <trkpt lat="45.09191" lon="6.43307">
        <ele>1907.8</ele>
        <time>2021-02-28T09:45:18Z</time>
      </trkpt>
      <trkpt lat="45.09191" lon="6.43307">
        <ele>1907.8</ele>
        <time>2021-02-28T09:45:19Z</time>
      </trkpt>
      <trkpt lat="45.09189" lon="6.4331">
        <ele>1908</ele>
        <time>2021-02-28T09:45:20Z</time>
      </trkpt>
      <trkpt lat="45.09187" lon="6.43313">
        <ele>1908</ele>
        <time>2021-02-28T09:45:21Z</time>
      </trkpt>
      <trkpt lat="45.09187" lon="6.43313">
        <ele>1908.2</ele>
        <time>2021-02-28T09:45:22Z</time>
      </trkpt>
      <trkpt lat="45.09186" lon="6.43316">
        <ele>1908</ele>
        <time>2021-02-28T09:45:23Z</time>
      </trkpt>
      <trkpt lat="45.09186" lon="6.43316">
        <ele>1907.8</ele>
        <time>2021-02-28T09:45:24Z</time>
      </trkpt>
      <trkpt lat="45.09184" lon="6.43321">
        <ele>1907.8</ele>
        <time>2021-02-28T09:45:25Z</time>
      </trkpt>
      <trkpt lat="45.09183" lon="6.43324">
        <ele>1907.6</ele>
        <time>2021-02-28T09:45:26Z</time>
      </trkpt>
      <trkpt lat="45.09182" lon="6.43326">
        <ele>1907.4</ele>
        <time>2021-02-28T09:45:27Z</time>
      </trkpt>
      <trkpt lat="45.09181" lon="6.43329">
        <ele>1907.4</ele>
        <time>2021-02-28T09:45:28Z</time>
      </trkpt>
      <trkpt lat="45.0918" lon="6.43331">
        <ele>1907.6</ele>
        <time>2021-02-28T09:45:29Z</time>
      </trkpt>
      <trkpt lat="45.09179" lon="6.43333">
        <ele>1907.8</ele>
        <time>2021-02-28T09:45:30Z</time>
      </trkpt>
      <trkpt lat="45.09179" lon="6.43333">
        <ele>1907.8</ele>
        <time>2021-02-28T09:45:31Z</time>
      </trkpt>
      <trkpt lat="45.09178" lon="6.43337">
        <ele>1908.2</ele>
        <time>2021-02-28T09:45:32Z</time>
      </trkpt>
      <trkpt lat="45.09178" lon="6.43337">
        <ele>1908.6</ele>
        <time>2021-02-28T09:45:33Z</time>
      </trkpt>
      <trkpt lat="45.09176" lon="6.43342">
        <ele>1908.6</ele>
        <time>2021-02-28T09:45:34Z</time>
      </trkpt>
      <trkpt lat="45.09175" lon="6.43344">
        <ele>1908.6</ele>
        <time>2021-02-28T09:45:35Z</time>
      </trkpt>
      <trkpt lat="45.09174" lon="6.43346">
        <ele>1908.4</ele>
        <time>2021-02-28T09:45:36Z</time>
      </trkpt>
      <trkpt lat="45.09173" lon="6.43348">
        <ele>1908.6</ele>
        <time>2021-02-28T09:45:37Z</time>
      </trkpt>
      <trkpt lat="45.09173" lon="6.43348">
        <ele>1908.8</ele>
        <time>2021-02-28T09:45:38Z</time>
      </trkpt>
      <trkpt lat="45.09171" lon="6.43352">
        <ele>1908.6</ele>
        <time>2021-02-28T09:45:39Z</time>
      </trkpt>
      <trkpt lat="45.0917" lon="6.43355">
        <ele>1908.8</ele>
        <time>2021-02-28T09:45:40Z</time>
      </trkpt>
      <trkpt lat="45.09168" lon="6.43358">
        <ele>1908.6</ele>
        <time>2021-02-28T09:45:41Z</time>
      </trkpt>
      <trkpt lat="45.09167" lon="6.43359">
        <ele>1908.8</ele>
        <time>2021-02-28T09:45:42Z</time>
      </trkpt>
      <trkpt lat="45.09167" lon="6.43359">
        <ele>1908.6</ele>
        <time>2021-02-28T09:45:43Z</time>
      </trkpt>
      <trkpt lat="45.09165" lon="6.43364">
        <ele>1908.8</ele>
        <time>2021-02-28T09:45:44Z</time>
      </trkpt>
      <trkpt lat="45.09164" lon="6.43366">
        <ele>1908.8</ele>
        <time>2021-02-28T09:45:45Z</time>
      </trkpt>
      <trkpt lat="45.09164" lon="6.43366">
        <ele>1909.2</ele>
        <time>2021-02-28T09:45:46Z</time>
      </trkpt>
      <trkpt lat="45.09163" lon="6.4337">
        <ele>1909.4</ele>
        <time>2021-02-28T09:45:47Z</time>
      </trkpt>
      <trkpt lat="45.09163" lon="6.4337">
        <ele>1909.4</ele>
        <time>2021-02-28T09:45:48Z</time>
      </trkpt>
      <trkpt lat="45.0916" lon="6.43373">
        <ele>1909.4</ele>
        <time>2021-02-28T09:45:49Z</time>
      </trkpt>
      <trkpt lat="45.0916" lon="6.43373">
        <ele>1909.2</ele>
        <time>2021-02-28T09:45:50Z</time>
      </trkpt>
      <trkpt lat="45.09158" lon="6.43377">
        <ele>1909.2</ele>
        <time>2021-02-28T09:45:51Z</time>
      </trkpt>
      <trkpt lat="45.09156" lon="6.43379">
        <ele>1909.4</ele>
        <time>2021-02-28T09:45:52Z</time>
      </trkpt>
      <trkpt lat="45.09155" lon="6.43381">
        <ele>1909.6</ele>
        <time>2021-02-28T09:45:53Z</time>
      </trkpt>
      <trkpt lat="45.09155" lon="6.43381">
        <ele>1909.8</ele>
        <time>2021-02-28T09:45:54Z</time>
      </trkpt>
      <trkpt lat="45.09153" lon="6.43385">
        <ele>1909.8</ele>
        <time>2021-02-28T09:45:55Z</time>
      </trkpt>
      <trkpt lat="45.09151" lon="6.43386">
        <ele>1909.8</ele>
        <time>2021-02-28T09:45:56Z</time>
      </trkpt>
      <trkpt lat="45.09151" lon="6.43386">
        <ele>1909.6</ele>
        <time>2021-02-28T09:45:57Z</time>
      </trkpt>
      <trkpt lat="45.09149" lon="6.4339">
        <ele>1909.6</ele>
        <time>2021-02-28T09:45:58Z</time>
      </trkpt>
      <trkpt lat="45.09149" lon="6.4339">
        <ele>1909.6</ele>
        <time>2021-02-28T09:45:59Z</time>
      </trkpt>
      <trkpt lat="45.09147" lon="6.43394">
        <ele>1909.6</ele>
        <time>2021-02-28T09:46:00Z</time>
      </trkpt>
      <trkpt lat="45.09147" lon="6.43394">
        <ele>1909.6</ele>
        <time>2021-02-28T09:46:01Z</time>
      </trkpt>
      <trkpt lat="45.09145" lon="6.43398">
        <ele>1909.8</ele>
        <time>2021-02-28T09:46:02Z</time>
      </trkpt>
      <trkpt lat="45.09145" lon="6.43398">
        <ele>1910.2</ele>
        <time>2021-02-28T09:46:03Z</time>
      </trkpt>
      <trkpt lat="45.09143" lon="6.43402">
        <ele>1910.4</ele>
        <time>2021-02-28T09:46:04Z</time>
      </trkpt>
      <trkpt lat="45.09142" lon="6.43405">
        <ele>1910.8</ele>
        <time>2021-02-28T09:46:05Z</time>
      </trkpt>
      <trkpt lat="45.09142" lon="6.43407">
        <ele>1910.8</ele>
        <time>2021-02-28T09:46:06Z</time>
      </trkpt>
      <trkpt lat="45.09142" lon="6.43407">
        <ele>1911</ele>
        <time>2021-02-28T09:46:07Z</time>
      </trkpt>
      <trkpt lat="45.0914" lon="6.43412">
        <ele>1911.4</ele>
        <time>2021-02-28T09:46:08Z</time>
      </trkpt>
      <trkpt lat="45.0914" lon="6.43412">
        <ele>1911.2</ele>
        <time>2021-02-28T09:46:09Z</time>
      </trkpt>
      <trkpt lat="45.09139" lon="6.43416">
        <ele>1911</ele>
        <time>2021-02-28T09:46:10Z</time>
      </trkpt>
      <trkpt lat="45.09139" lon="6.43416">
        <ele>1910.8</ele>
        <time>2021-02-28T09:46:11Z</time>
      </trkpt>
      <trkpt lat="45.09138" lon="6.43421">
        <ele>1910.6</ele>
        <time>2021-02-28T09:46:12Z</time>
      </trkpt>
      <trkpt lat="45.09138" lon="6.43423">
        <ele>1910.6</ele>
        <time>2021-02-28T09:46:13Z</time>
      </trkpt>
      <trkpt lat="45.09138" lon="6.43423">
        <ele>1910.8</ele>
        <time>2021-02-28T09:46:14Z</time>
      </trkpt>
      <trkpt lat="45.09137" lon="6.43428">
        <ele>1911.2</ele>
        <time>2021-02-28T09:46:15Z</time>
      </trkpt>
      <trkpt lat="45.09137" lon="6.43428">
        <ele>1911.4</ele>
        <time>2021-02-28T09:46:16Z</time>
      </trkpt>
      <trkpt lat="45.09136" lon="6.43432">
        <ele>1911.6</ele>
        <time>2021-02-28T09:46:17Z</time>
      </trkpt>
      <trkpt lat="45.09136" lon="6.43432">
        <ele>1911.6</ele>
        <time>2021-02-28T09:46:18Z</time>
      </trkpt>
      <trkpt lat="45.09135" lon="6.43436">
        <ele>1911.6</ele>
        <time>2021-02-28T09:46:19Z</time>
      </trkpt>
      <trkpt lat="45.09135" lon="6.43439">
        <ele>1911.8</ele>
        <time>2021-02-28T09:46:20Z</time>
      </trkpt>
      <trkpt lat="45.09134" lon="6.43442">
        <ele>1911.6</ele>
        <time>2021-02-28T09:46:21Z</time>
      </trkpt>
      <trkpt lat="45.09133" lon="6.43445">
        <ele>1911.6</ele>
        <time>2021-02-28T09:46:22Z</time>
      </trkpt>
      <trkpt lat="45.09132" lon="6.43447">
        <ele>1911.8</ele>
        <time>2021-02-28T09:46:23Z</time>
      </trkpt>
      <trkpt lat="45.09132" lon="6.43447">
        <ele>1912</ele>
        <time>2021-02-28T09:46:24Z</time>
      </trkpt>
      <trkpt lat="45.09132" lon="6.43452">
        <ele>1912.2</ele>
        <time>2021-02-28T09:46:25Z</time>
      </trkpt>
      <trkpt lat="45.09131" lon="6.43455">
        <ele>1912.6</ele>
        <time>2021-02-28T09:46:26Z</time>
      </trkpt>
      <trkpt lat="45.09131" lon="6.43458">
        <ele>1912.6</ele>
        <time>2021-02-28T09:46:27Z</time>
      </trkpt>
      <trkpt lat="45.09131" lon="6.43458">
        <ele>1912.2</ele>
        <time>2021-02-28T09:46:28Z</time>
      </trkpt>
      <trkpt lat="45.0913" lon="6.43462">
        <ele>1912.2</ele>
        <time>2021-02-28T09:46:29Z</time>
      </trkpt>
      <trkpt lat="45.09129" lon="6.43465">
        <ele>1912</ele>
        <time>2021-02-28T09:46:30Z</time>
      </trkpt>
      <trkpt lat="45.09128" lon="6.43468">
        <ele>1912</ele>
        <time>2021-02-28T09:46:31Z</time>
      </trkpt>
      <trkpt lat="45.09127" lon="6.43471">
        <ele>1912.2</ele>
        <time>2021-02-28T09:46:32Z</time>
      </trkpt>
      <trkpt lat="45.09126" lon="6.43473">
        <ele>1912.2</ele>
        <time>2021-02-28T09:46:33Z</time>
      </trkpt>
      <trkpt lat="45.09125" lon="6.43476">
        <ele>1912.6</ele>
        <time>2021-02-28T09:46:34Z</time>
      </trkpt>
      <trkpt lat="45.09124" lon="6.43479">
        <ele>1912.8</ele>
        <time>2021-02-28T09:46:35Z</time>
      </trkpt>
      <trkpt lat="45.09124" lon="6.43481">
        <ele>1913.2</ele>
        <time>2021-02-28T09:46:36Z</time>
      </trkpt>
      <trkpt lat="45.09124" lon="6.43481">
        <ele>1913.8</ele>
        <time>2021-02-28T09:46:37Z</time>
      </trkpt>
      <trkpt lat="45.09121" lon="6.43485">
        <ele>1914.4</ele>
        <time>2021-02-28T09:46:38Z</time>
      </trkpt>
      <trkpt lat="45.0912" lon="6.43487">
        <ele>1915.2</ele>
        <time>2021-02-28T09:46:39Z</time>
      </trkpt>
      <trkpt lat="45.09119" lon="6.43489">
        <ele>1914.8</ele>
        <time>2021-02-28T09:46:40Z</time>
      </trkpt>
      <trkpt lat="45.09119" lon="6.43489">
        <ele>1914.4</ele>
        <time>2021-02-28T09:46:41Z</time>
      </trkpt>
      <trkpt lat="45.09116" lon="6.43494">
        <ele>1914</ele>
        <time>2021-02-28T09:46:42Z</time>
      </trkpt>
      <trkpt lat="45.09115" lon="6.43495">
        <ele>1913.8</ele>
        <time>2021-02-28T09:46:43Z</time>
      </trkpt>
      <trkpt lat="45.09114" lon="6.43496">
        <ele>1914</ele>
        <time>2021-02-28T09:46:44Z</time>
      </trkpt>
      <trkpt lat="45.09114" lon="6.43496">
        <ele>1913.8</ele>
        <time>2021-02-28T09:46:45Z</time>
      </trkpt>
      <trkpt lat="45.09111" lon="6.43499">
        <ele>1913.8</ele>
        <time>2021-02-28T09:46:46Z</time>
      </trkpt>
      <trkpt lat="45.0911" lon="6.43501">
        <ele>1914</ele>
        <time>2021-02-28T09:46:47Z</time>
      </trkpt>
      <trkpt lat="45.09108" lon="6.43503">
        <ele>1914.6</ele>
        <time>2021-02-28T09:46:48Z</time>
      </trkpt>
      <trkpt lat="45.09107" lon="6.43504">
        <ele>1915</ele>
        <time>2021-02-28T09:46:49Z</time>
      </trkpt>
      <trkpt lat="45.09107" lon="6.43504">
        <ele>1915</ele>
        <time>2021-02-28T09:46:50Z</time>
      </trkpt>
      <trkpt lat="45.09104" lon="6.43506">
        <ele>1915</ele>
        <time>2021-02-28T09:46:51Z</time>
      </trkpt>
      <trkpt lat="45.09104" lon="6.43506">
        <ele>1915</ele>
        <time>2021-02-28T09:46:52Z</time>
      </trkpt>
      <trkpt lat="45.09101" lon="6.43508">
        <ele>1915</ele>
        <time>2021-02-28T09:46:53Z</time>
      </trkpt>
      <trkpt lat="45.09101" lon="6.43508">
        <ele>1915</ele>
        <time>2021-02-28T09:46:54Z</time>
      </trkpt>
      <trkpt lat="45.09099" lon="6.4351">
        <ele>1914.8</ele>
        <time>2021-02-28T09:46:55Z</time>
      </trkpt>
      <trkpt lat="45.09097" lon="6.43511">
        <ele>1915</ele>
        <time>2021-02-28T09:46:56Z</time>
      </trkpt>
      <trkpt lat="45.09095" lon="6.43512">
        <ele>1915</ele>
        <time>2021-02-28T09:46:57Z</time>
      </trkpt>
      <trkpt lat="45.09093" lon="6.43513">
        <ele>1914.8</ele>
        <time>2021-02-28T09:46:58Z</time>
      </trkpt>
      <trkpt lat="45.09092" lon="6.43514">
        <ele>1915</ele>
        <time>2021-02-28T09:46:59Z</time>
      </trkpt>
      <trkpt lat="45.0909" lon="6.43515">
        <ele>1915</ele>
        <time>2021-02-28T09:47:00Z</time>
      </trkpt>
      <trkpt lat="45.09088" lon="6.43516">
        <ele>1915.4</ele>
        <time>2021-02-28T09:47:01Z</time>
      </trkpt>
      <trkpt lat="45.09086" lon="6.43517">
        <ele>1915.6</ele>
        <time>2021-02-28T09:47:02Z</time>
      </trkpt>
      <trkpt lat="45.09086" lon="6.43517">
        <ele>1916.2</ele>
        <time>2021-02-28T09:47:03Z</time>
      </trkpt>
      <trkpt lat="45.09082" lon="6.43518">
        <ele>1916.2</ele>
        <time>2021-02-28T09:47:04Z</time>
      </trkpt>
      <trkpt lat="45.09082" lon="6.43518">
        <ele>1916.8</ele>
        <time>2021-02-28T09:47:05Z</time>
      </trkpt>
      <trkpt lat="45.09079" lon="6.43519">
        <ele>1917</ele>
        <time>2021-02-28T09:47:06Z</time>
      </trkpt>
      <trkpt lat="45.09079" lon="6.43519">
        <ele>1917</ele>
        <time>2021-02-28T09:47:07Z</time>
      </trkpt>
      <trkpt lat="45.09077" lon="6.4352">
        <ele>1917</ele>
        <time>2021-02-28T09:47:08Z</time>
      </trkpt>
      <trkpt lat="45.09077" lon="6.4352">
        <ele>1917.2</ele>
        <time>2021-02-28T09:47:09Z</time>
      </trkpt>
      <trkpt lat="45.09074" lon="6.43522">
        <ele>1917</ele>
        <time>2021-02-28T09:47:10Z</time>
      </trkpt>
      <trkpt lat="45.09074" lon="6.43522">
        <ele>1917.4</ele>
        <time>2021-02-28T09:47:11Z</time>
      </trkpt>
      <trkpt lat="45.09071" lon="6.43523">
        <ele>1917.6</ele>
        <time>2021-02-28T09:47:12Z</time>
      </trkpt>
      <trkpt lat="45.09071" lon="6.43523">
        <ele>1917.4</ele>
        <time>2021-02-28T09:47:13Z</time>
      </trkpt>
      <trkpt lat="45.09069" lon="6.43524">
        <ele>1917.4</ele>
        <time>2021-02-28T09:47:14Z</time>
      </trkpt>
      <trkpt lat="45.09069" lon="6.43524">
        <ele>1917.4</ele>
        <time>2021-02-28T09:47:15Z</time>
      </trkpt>
      <trkpt lat="45.09069" lon="6.43524">
        <ele>1917.6</ele>
        <time>2021-02-28T09:47:16Z</time>
      </trkpt>
      <trkpt lat="45.09069" lon="6.43524">
        <ele>1917.8</ele>
        <time>2021-02-28T09:47:17Z</time>
      </trkpt>
      <trkpt lat="45.09069" lon="6.43524">
        <ele>1918.2</ele>
        <time>2021-02-28T09:47:18Z</time>
      </trkpt>
      <trkpt lat="45.09069" lon="6.43524">
        <ele>1918.2</ele>
        <time>2021-02-28T09:47:19Z</time>
      </trkpt>
      <trkpt lat="45.09069" lon="6.43524">
        <ele>1918.2</ele>
        <time>2021-02-28T09:47:20Z</time>
      </trkpt>
      <trkpt lat="45.09069" lon="6.43524">
        <ele>1918.4</ele>
        <time>2021-02-28T09:47:21Z</time>
      </trkpt>
      <trkpt lat="45.09069" lon="6.43524">
        <ele>1918.6</ele>
        <time>2021-02-28T09:47:22Z</time>
      </trkpt>
      <trkpt lat="45.09069" lon="6.43524">
        <ele>1918.8</ele>
        <time>2021-02-28T09:47:23Z</time>
      </trkpt>
      <trkpt lat="45.09069" lon="6.43524">
        <ele>1918.8</ele>
        <time>2021-02-28T09:47:24Z</time>
      </trkpt>
      <trkpt lat="45.09069" lon="6.43524">
        <ele>1918.8</ele>
        <time>2021-02-28T09:47:25Z</time>
      </trkpt>
      <trkpt lat="45.09069" lon="6.43524">
        <ele>1918.6</ele>
        <time>2021-02-28T09:47:26Z</time>
      </trkpt>
      <trkpt lat="45.09069" lon="6.43524">
        <ele>1918.4</ele>
        <time>2021-02-28T09:47:27Z</time>
      </trkpt>
      <trkpt lat="45.09069" lon="6.43524">
        <ele>1918</ele>
        <time>2021-02-28T09:47:28Z</time>
      </trkpt>
      <trkpt lat="45.09069" lon="6.43524">
        <ele>1917.8</ele>
        <time>2021-02-28T09:47:29Z</time>
      </trkpt>
      <trkpt lat="45.09069" lon="6.43524">
        <ele>1917.6</ele>
        <time>2021-02-28T09:47:30Z</time>
      </trkpt>
      <trkpt lat="45.09069" lon="6.43524">
        <ele>1918</ele>
        <time>2021-02-28T09:47:31Z</time>
      </trkpt>
      <trkpt lat="45.09069" lon="6.43524">
        <ele>1918.6</ele>
        <time>2021-02-28T09:47:32Z</time>
      </trkpt>
      <trkpt lat="45.09069" lon="6.43524">
        <ele>1919</ele>
        <time>2021-02-28T09:47:33Z</time>
      </trkpt>
      <trkpt lat="45.09069" lon="6.43524">
        <ele>1919</ele>
        <time>2021-02-28T09:47:34Z</time>
      </trkpt>
      <trkpt lat="45.09069" lon="6.43524">
        <ele>1919.4</ele>
        <time>2021-02-28T09:47:35Z</time>
      </trkpt>
      <trkpt lat="45.09069" lon="6.43524">
        <ele>1919.4</ele>
        <time>2021-02-28T09:47:36Z</time>
      </trkpt>
      <trkpt lat="45.09069" lon="6.43524">
        <ele>1919.2</ele>
        <time>2021-02-28T09:47:37Z</time>
      </trkpt>
      <trkpt lat="45.09069" lon="6.43524">
        <ele>1919</ele>
        <time>2021-02-28T09:47:38Z</time>
      </trkpt>
      <trkpt lat="45.09069" lon="6.43524">
        <ele>1919.2</ele>
        <time>2021-02-28T09:47:39Z</time>
      </trkpt>
      <trkpt lat="45.09069" lon="6.43524">
        <ele>1919.2</ele>
        <time>2021-02-28T09:47:40Z</time>
      </trkpt>
      <trkpt lat="45.09069" lon="6.43524">
        <ele>1919</ele>
        <time>2021-02-28T09:47:41Z</time>
      </trkpt>
      <trkpt lat="45.09069" lon="6.43524">
        <ele>1919</ele>
        <time>2021-02-28T09:47:42Z</time>
      </trkpt>
      <trkpt lat="45.09069" lon="6.43524">
        <ele>1918.8</ele>
        <time>2021-02-28T09:47:43Z</time>
      </trkpt>
      <trkpt lat="45.09069" lon="6.43524">
        <ele>1918.4</ele>
        <time>2021-02-28T09:47:44Z</time>
      </trkpt>
      <trkpt lat="45.09069" lon="6.43524">
        <ele>1918.2</ele>
        <time>2021-02-28T09:47:45Z</time>
      </trkpt>
      <trkpt lat="45.09069" lon="6.43524">
        <ele>1918</ele>
        <time>2021-02-28T09:47:46Z</time>
      </trkpt>
      <trkpt lat="45.09069" lon="6.43524">
        <ele>1917.8</ele>
        <time>2021-02-28T09:47:47Z</time>
      </trkpt>
      <trkpt lat="45.09069" lon="6.43524">
        <ele>1917.8</ele>
        <time>2021-02-28T09:47:48Z</time>
      </trkpt>
      <trkpt lat="45.09069" lon="6.43524">
        <ele>1917.6</ele>
        <time>2021-02-28T09:47:49Z</time>
      </trkpt>
      <trkpt lat="45.09069" lon="6.43524">
        <ele>1917.6</ele>
        <time>2021-02-28T09:47:50Z</time>
      </trkpt>
      <trkpt lat="45.09069" lon="6.43524">
        <ele>1917.6</ele>
        <time>2021-02-28T09:47:51Z</time>
      </trkpt>
      <trkpt lat="45.09069" lon="6.43524">
        <ele>1917.8</ele>
        <time>2021-02-28T09:47:52Z</time>
      </trkpt>
      <trkpt lat="45.09069" lon="6.43524">
        <ele>1917.8</ele>
        <time>2021-02-28T09:47:53Z</time>
      </trkpt>
      <trkpt lat="45.09069" lon="6.43524">
        <ele>1917.4</ele>
        <time>2021-02-28T09:47:54Z</time>
      </trkpt>
      <trkpt lat="45.09069" lon="6.43524">
        <ele>1917.4</ele>
        <time>2021-02-28T09:47:55Z</time>
      </trkpt>
      <trkpt lat="45.09069" lon="6.43524">
        <ele>1917.2</ele>
        <time>2021-02-28T09:47:56Z</time>
      </trkpt>
      <trkpt lat="45.09069" lon="6.43524">
        <ele>1917.2</ele>
        <time>2021-02-28T09:47:57Z</time>
      </trkpt>
      <trkpt lat="45.09069" lon="6.43524">
        <ele>1917.2</ele>
        <time>2021-02-28T09:47:58Z</time>
      </trkpt>
      <trkpt lat="45.09069" lon="6.43524">
        <ele>1917.2</ele>
        <time>2021-02-28T09:47:59Z</time>
      </trkpt>
      <trkpt lat="45.09069" lon="6.43524">
        <ele>1917</ele>
        <time>2021-02-28T09:48:00Z</time>
      </trkpt>
      <trkpt lat="45.09069" lon="6.43524">
        <ele>1917</ele>
        <time>2021-02-28T09:48:01Z</time>
      </trkpt>
      <trkpt lat="45.09069" lon="6.43524">
        <ele>1917</ele>
        <time>2021-02-28T09:48:02Z</time>
      </trkpt>
      <trkpt lat="45.09069" lon="6.43524">
        <ele>1916.8</ele>
        <time>2021-02-28T09:48:03Z</time>
      </trkpt>
      <trkpt lat="45.09069" lon="6.43524">
        <ele>1916.6</ele>
        <time>2021-02-28T09:48:04Z</time>
      </trkpt>
      <trkpt lat="45.09069" lon="6.43524">
        <ele>1916.4</ele>
        <time>2021-02-28T09:48:05Z</time>
      </trkpt>
      <trkpt lat="45.09069" lon="6.43524">
        <ele>1916.6</ele>
        <time>2021-02-28T09:48:06Z</time>
      </trkpt>
      <trkpt lat="45.09069" lon="6.43524">
        <ele>1916.6</ele>
        <time>2021-02-28T09:48:07Z</time>
      </trkpt>
      <trkpt lat="45.09069" lon="6.43524">
        <ele>1916.8</ele>
        <time>2021-02-28T09:48:08Z</time>
      </trkpt>
      <trkpt lat="45.09069" lon="6.43524">
        <ele>1916.6</ele>
        <time>2021-02-28T09:48:09Z</time>
      </trkpt>
      <trkpt lat="45.09069" lon="6.43524">
        <ele>1916.6</ele>
        <time>2021-02-28T09:48:10Z</time>
      </trkpt>
      <trkpt lat="45.09069" lon="6.43524">
        <ele>1916.6</ele>
        <time>2021-02-28T09:48:11Z</time>
      </trkpt>
      <trkpt lat="45.09069" lon="6.43524">
        <ele>1916.6</ele>
        <time>2021-02-28T09:48:12Z</time>
      </trkpt>
      <trkpt lat="45.09069" lon="6.43524">
        <ele>1916.6</ele>
        <time>2021-02-28T09:48:13Z</time>
      </trkpt>
      <trkpt lat="45.09069" lon="6.43524">
        <ele>1916.4</ele>
        <time>2021-02-28T09:48:14Z</time>
      </trkpt>
      <trkpt lat="45.09069" lon="6.43524">
        <ele>1916.6</ele>
        <time>2021-02-28T09:48:15Z</time>
      </trkpt>
      <trkpt lat="45.09069" lon="6.43524">
        <ele>1916.4</ele>
        <time>2021-02-28T09:48:16Z</time>
      </trkpt>
      <trkpt lat="45.09069" lon="6.43524">
        <ele>1916.4</ele>
        <time>2021-02-28T09:48:17Z</time>
      </trkpt>
      <trkpt lat="45.09069" lon="6.43524">
        <ele>1916.4</ele>
        <time>2021-02-28T09:48:18Z</time>
      </trkpt>
      <trkpt lat="45.09069" lon="6.43524">
        <ele>1916.4</ele>
        <time>2021-02-28T09:48:19Z</time>
      </trkpt>
      <trkpt lat="45.09069" lon="6.43524">
        <ele>1916.4</ele>
        <time>2021-02-28T09:48:20Z</time>
      </trkpt>
      <trkpt lat="45.09069" lon="6.43524">
        <ele>1916.4</ele>
        <time>2021-02-28T09:48:21Z</time>
      </trkpt>
      <trkpt lat="45.09069" lon="6.43524">
        <ele>1916.4</ele>
        <time>2021-02-28T09:48:22Z</time>
      </trkpt>
      <trkpt lat="45.09069" lon="6.43524">
        <ele>1916.2</ele>
        <time>2021-02-28T09:48:23Z</time>
      </trkpt>
      <trkpt lat="45.09069" lon="6.43524">
        <ele>1916</ele>
        <time>2021-02-28T09:48:24Z</time>
      </trkpt>
      <trkpt lat="45.09069" lon="6.43524">
        <ele>1916.2</ele>
        <time>2021-02-28T09:48:25Z</time>
      </trkpt>
      <trkpt lat="45.09069" lon="6.43524">
        <ele>1916.2</ele>
        <time>2021-02-28T09:48:26Z</time>
      </trkpt>
      <trkpt lat="45.09069" lon="6.43524">
        <ele>1915.8</ele>
        <time>2021-02-28T09:48:27Z</time>
      </trkpt>
      <trkpt lat="45.09069" lon="6.43524">
        <ele>1916</ele>
        <time>2021-02-28T09:48:28Z</time>
      </trkpt>
      <trkpt lat="45.09069" lon="6.43524">
        <ele>1916</ele>
        <time>2021-02-28T09:48:29Z</time>
      </trkpt>
      <trkpt lat="45.09069" lon="6.43524">
        <ele>1916</ele>
        <time>2021-02-28T09:48:30Z</time>
      </trkpt>
      <trkpt lat="45.09069" lon="6.43524">
        <ele>1915.8</ele>
        <time>2021-02-28T09:48:31Z</time>
      </trkpt>
      <trkpt lat="45.09069" lon="6.43524">
        <ele>1916</ele>
        <time>2021-02-28T09:48:32Z</time>
      </trkpt>
      <trkpt lat="45.09069" lon="6.43524">
        <ele>1916.2</ele>
        <time>2021-02-28T09:48:33Z</time>
      </trkpt>
      <trkpt lat="45.09069" lon="6.43524">
        <ele>1916.2</ele>
        <time>2021-02-28T09:48:34Z</time>
      </trkpt>
      <trkpt lat="45.09069" lon="6.43524">
        <ele>1916</ele>
        <time>2021-02-28T09:48:35Z</time>
      </trkpt>
      <trkpt lat="45.09069" lon="6.43524">
        <ele>1915.8</ele>
        <time>2021-02-28T09:48:36Z</time>
      </trkpt>
      <trkpt lat="45.09069" lon="6.43524">
        <ele>1915.8</ele>
        <time>2021-02-28T09:48:37Z</time>
      </trkpt>
      <trkpt lat="45.09069" lon="6.43524">
        <ele>1916</ele>
        <time>2021-02-28T09:48:38Z</time>
      </trkpt>
      <trkpt lat="45.09069" lon="6.43524">
        <ele>1916</ele>
        <time>2021-02-28T09:48:39Z</time>
      </trkpt>
      <trkpt lat="45.09069" lon="6.43524">
        <ele>1916</ele>
        <time>2021-02-28T09:48:40Z</time>
      </trkpt>
      <trkpt lat="45.09069" lon="6.43524">
        <ele>1916</ele>
        <time>2021-02-28T09:48:41Z</time>
      </trkpt>
      <trkpt lat="45.09069" lon="6.43524">
        <ele>1915.8</ele>
        <time>2021-02-28T09:48:42Z</time>
      </trkpt>
      <trkpt lat="45.09069" lon="6.43524">
        <ele>1915.8</ele>
        <time>2021-02-28T09:48:43Z</time>
      </trkpt>
      <trkpt lat="45.09069" lon="6.43524">
        <ele>1915.6</ele>
        <time>2021-02-28T09:48:44Z</time>
      </trkpt>
      <trkpt lat="45.09069" lon="6.43524">
        <ele>1915.4</ele>
        <time>2021-02-28T09:48:45Z</time>
      </trkpt>
      <trkpt lat="45.09069" lon="6.43524">
        <ele>1915.4</ele>
        <time>2021-02-28T09:48:46Z</time>
      </trkpt>
      <trkpt lat="45.09069" lon="6.43524">
        <ele>1915.4</ele>
        <time>2021-02-28T09:48:47Z</time>
      </trkpt>
      <trkpt lat="45.09069" lon="6.43524">
        <ele>1915.4</ele>
        <time>2021-02-28T09:48:48Z</time>
      </trkpt>
      <trkpt lat="45.09069" lon="6.43524">
        <ele>1915.2</ele>
        <time>2021-02-28T09:48:49Z</time>
      </trkpt>
      <trkpt lat="45.09069" lon="6.43524">
        <ele>1915.2</ele>
        <time>2021-02-28T09:48:50Z</time>
      </trkpt>
      <trkpt lat="45.09069" lon="6.43524">
        <ele>1915.2</ele>
        <time>2021-02-28T09:48:51Z</time>
      </trkpt>
      <trkpt lat="45.09069" lon="6.43524">
        <ele>1915.2</ele>
        <time>2021-02-28T09:48:52Z</time>
      </trkpt>
      <trkpt lat="45.09069" lon="6.43524">
        <ele>1915.2</ele>
        <time>2021-02-28T09:48:53Z</time>
      </trkpt>
      <trkpt lat="45.09069" lon="6.43524">
        <ele>1915</ele>
        <time>2021-02-28T09:48:54Z</time>
      </trkpt>
      <trkpt lat="45.09069" lon="6.43524">
        <ele>1914.8</ele>
        <time>2021-02-28T09:48:55Z</time>
      </trkpt>
      <trkpt lat="45.09069" lon="6.43524">
        <ele>1915</ele>
        <time>2021-02-28T09:48:56Z</time>
      </trkpt>
      <trkpt lat="45.09069" lon="6.43524">
        <ele>1915</ele>
        <time>2021-02-28T09:48:57Z</time>
      </trkpt>
      <trkpt lat="45.09069" lon="6.43524">
        <ele>1915</ele>
        <time>2021-02-28T09:48:58Z</time>
      </trkpt>
      <trkpt lat="45.09069" lon="6.43524">
        <ele>1915</ele>
        <time>2021-02-28T09:48:59Z</time>
      </trkpt>
      <trkpt lat="45.09069" lon="6.43524">
        <ele>1915.2</ele>
        <time>2021-02-28T09:49:00Z</time>
      </trkpt>
      <trkpt lat="45.09069" lon="6.43524">
        <ele>1915.2</ele>
        <time>2021-02-28T09:49:01Z</time>
      </trkpt>
      <trkpt lat="45.09069" lon="6.43524">
        <ele>1915.4</ele>
        <time>2021-02-28T09:49:02Z</time>
      </trkpt>
      <trkpt lat="45.09069" lon="6.43524">
        <ele>1915.6</ele>
        <time>2021-02-28T09:49:03Z</time>
      </trkpt>
      <trkpt lat="45.09069" lon="6.43524">
        <ele>1915.2</ele>
        <time>2021-02-28T09:49:04Z</time>
      </trkpt>
      <trkpt lat="45.09069" lon="6.43524">
        <ele>1915.4</ele>
        <time>2021-02-28T09:49:05Z</time>
      </trkpt>
      <trkpt lat="45.09069" lon="6.43524">
        <ele>1915.2</ele>
        <time>2021-02-28T09:49:06Z</time>
      </trkpt>
      <trkpt lat="45.09069" lon="6.43524">
        <ele>1915</ele>
        <time>2021-02-28T09:49:07Z</time>
      </trkpt>
      <trkpt lat="45.09069" lon="6.43524">
        <ele>1915</ele>
        <time>2021-02-28T09:49:08Z</time>
      </trkpt>
      <trkpt lat="45.09069" lon="6.43524">
        <ele>1915</ele>
        <time>2021-02-28T09:49:09Z</time>
      </trkpt>
      <trkpt lat="45.09069" lon="6.43524">
        <ele>1915</ele>
        <time>2021-02-28T09:49:10Z</time>
      </trkpt>
      <trkpt lat="45.09069" lon="6.43524">
        <ele>1914.8</ele>
        <time>2021-02-28T09:49:11Z</time>
      </trkpt>
      <trkpt lat="45.09069" lon="6.43524">
        <ele>1914.8</ele>
        <time>2021-02-28T09:49:12Z</time>
      </trkpt>
      <trkpt lat="45.09069" lon="6.43524">
        <ele>1914.8</ele>
        <time>2021-02-28T09:49:13Z</time>
      </trkpt>
      <trkpt lat="45.09069" lon="6.43524">
        <ele>1914.8</ele>
        <time>2021-02-28T09:49:14Z</time>
      </trkpt>
      <trkpt lat="45.09069" lon="6.43524">
        <ele>1914.6</ele>
        <time>2021-02-28T09:49:15Z</time>
      </trkpt>
      <trkpt lat="45.09069" lon="6.43524">
        <ele>1914.6</ele>
        <time>2021-02-28T09:49:16Z</time>
      </trkpt>
      <trkpt lat="45.09069" lon="6.43524">
        <ele>1914.6</ele>
        <time>2021-02-28T09:49:17Z</time>
      </trkpt>
      <trkpt lat="45.09069" lon="6.43524">
        <ele>1914.8</ele>
        <time>2021-02-28T09:49:18Z</time>
      </trkpt>
      <trkpt lat="45.09066" lon="6.43525">
        <ele>1915</ele>
        <time>2021-02-28T09:49:19Z</time>
      </trkpt>
      <trkpt lat="45.09066" lon="6.43525">
        <ele>1914.6</ele>
        <time>2021-02-28T09:49:20Z</time>
      </trkpt>
      <trkpt lat="45.09064" lon="6.43526">
        <ele>1914.6</ele>
        <time>2021-02-28T09:49:21Z</time>
      </trkpt>
      <trkpt lat="45.09064" lon="6.43526">
        <ele>1914.6</ele>
        <time>2021-02-28T09:49:22Z</time>
      </trkpt>
      <trkpt lat="45.09061" lon="6.43528">
        <ele>1914.6</ele>
        <time>2021-02-28T09:49:23Z</time>
      </trkpt>
      <trkpt lat="45.09061" lon="6.43528">
        <ele>1914.4</ele>
        <time>2021-02-28T09:49:24Z</time>
      </trkpt>
      <trkpt lat="45.09059" lon="6.43529">
        <ele>1914.6</ele>
        <time>2021-02-28T09:49:25Z</time>
      </trkpt>
      <trkpt lat="45.09059" lon="6.43529">
        <ele>1914.4</ele>
        <time>2021-02-28T09:49:26Z</time>
      </trkpt>
      <trkpt lat="45.09057" lon="6.4353">
        <ele>1914.6</ele>
        <time>2021-02-28T09:49:27Z</time>
      </trkpt>
      <trkpt lat="45.09057" lon="6.4353">
        <ele>1914.8</ele>
        <time>2021-02-28T09:49:28Z</time>
      </trkpt>
      <trkpt lat="45.09055" lon="6.43532">
        <ele>1914.8</ele>
        <time>2021-02-28T09:49:29Z</time>
      </trkpt>
      <trkpt lat="45.09055" lon="6.43532">
        <ele>1914.6</ele>
        <time>2021-02-28T09:49:30Z</time>
      </trkpt>
      <trkpt lat="45.09052" lon="6.43533">
        <ele>1914.6</ele>
        <time>2021-02-28T09:49:31Z</time>
      </trkpt>
      <trkpt lat="45.09052" lon="6.43533">
        <ele>1914.8</ele>
        <time>2021-02-28T09:49:32Z</time>
      </trkpt>
      <trkpt lat="45.0905" lon="6.43534">
        <ele>1914.6</ele>
        <time>2021-02-28T09:49:33Z</time>
      </trkpt>
      <trkpt lat="45.0905" lon="6.43534">
        <ele>1914.6</ele>
        <time>2021-02-28T09:49:34Z</time>
      </trkpt>
      <trkpt lat="45.09048" lon="6.43535">
        <ele>1914.6</ele>
        <time>2021-02-28T09:49:35Z</time>
      </trkpt>
      <trkpt lat="45.09048" lon="6.43535">
        <ele>1914.6</ele>
        <time>2021-02-28T09:49:36Z</time>
      </trkpt>
      <trkpt lat="45.09048" lon="6.43535">
        <ele>1914.6</ele>
        <time>2021-02-28T09:49:37Z</time>
      </trkpt>
      <trkpt lat="45.09046" lon="6.43537">
        <ele>1914.6</ele>
        <time>2021-02-28T09:49:38Z</time>
      </trkpt>
      <trkpt lat="45.09046" lon="6.43537">
        <ele>1914.8</ele>
        <time>2021-02-28T09:49:39Z</time>
      </trkpt>
      <trkpt lat="45.09043" lon="6.43539">
        <ele>1914.6</ele>
        <time>2021-02-28T09:49:40Z</time>
      </trkpt>
      <trkpt lat="45.09043" lon="6.43539">
        <ele>1914.6</ele>
        <time>2021-02-28T09:49:41Z</time>
      </trkpt>
      <trkpt lat="45.09041" lon="6.43541">
        <ele>1914.6</ele>
        <time>2021-02-28T09:49:42Z</time>
      </trkpt>
      <trkpt lat="45.09041" lon="6.43541">
        <ele>1914.6</ele>
        <time>2021-02-28T09:49:43Z</time>
      </trkpt>
      <trkpt lat="45.09038" lon="6.43543">
        <ele>1914.8</ele>
        <time>2021-02-28T09:49:44Z</time>
      </trkpt>
      <trkpt lat="45.09038" lon="6.43543">
        <ele>1914.8</ele>
        <time>2021-02-28T09:49:45Z</time>
      </trkpt>
      <trkpt lat="45.09036" lon="6.43545">
        <ele>1914.8</ele>
        <time>2021-02-28T09:49:46Z</time>
      </trkpt>
      <trkpt lat="45.09036" lon="6.43545">
        <ele>1915</ele>
        <time>2021-02-28T09:49:47Z</time>
      </trkpt>
      <trkpt lat="45.09034" lon="6.43548">
        <ele>1915</ele>
        <time>2021-02-28T09:49:48Z</time>
      </trkpt>
      <trkpt lat="45.09034" lon="6.43548">
        <ele>1915.2</ele>
        <time>2021-02-28T09:49:49Z</time>
      </trkpt>
      <trkpt lat="45.09032" lon="6.4355">
        <ele>1915.4</ele>
        <time>2021-02-28T09:49:50Z</time>
      </trkpt>
      <trkpt lat="45.09032" lon="6.4355">
        <ele>1915.2</ele>
        <time>2021-02-28T09:49:51Z</time>
      </trkpt>
      <trkpt lat="45.09029" lon="6.43553">
        <ele>1915.8</ele>
        <time>2021-02-28T09:49:52Z</time>
      </trkpt>
      <trkpt lat="45.09029" lon="6.43553">
        <ele>1916</ele>
        <time>2021-02-28T09:49:53Z</time>
      </trkpt>
      <trkpt lat="45.09028" lon="6.43554">
        <ele>1916.2</ele>
        <time>2021-02-28T09:49:54Z</time>
      </trkpt>
      <trkpt lat="45.09028" lon="6.43554">
        <ele>1916.6</ele>
        <time>2021-02-28T09:49:55Z</time>
      </trkpt>
      <trkpt lat="45.09025" lon="6.43557">
        <ele>1917</ele>
        <time>2021-02-28T09:49:56Z</time>
      </trkpt>
      <trkpt lat="45.09025" lon="6.43557">
        <ele>1917</ele>
        <time>2021-02-28T09:49:57Z</time>
      </trkpt>
      <trkpt lat="45.09024" lon="6.43559">
        <ele>1916.8</ele>
        <time>2021-02-28T09:49:58Z</time>
      </trkpt>
      <trkpt lat="45.09024" lon="6.43559">
        <ele>1917</ele>
        <time>2021-02-28T09:49:59Z</time>
      </trkpt>
      <trkpt lat="45.09022" lon="6.43561">
        <ele>1917.4</ele>
        <time>2021-02-28T09:50:00Z</time>
      </trkpt>
      <trkpt lat="45.09022" lon="6.43561">
        <ele>1917.4</ele>
        <time>2021-02-28T09:50:01Z</time>
      </trkpt>
      <trkpt lat="45.09021" lon="6.43564">
        <ele>1917.4</ele>
        <time>2021-02-28T09:50:02Z</time>
      </trkpt>
      <trkpt lat="45.09021" lon="6.43564">
        <ele>1917.6</ele>
        <time>2021-02-28T09:50:03Z</time>
      </trkpt>
      <trkpt lat="45.0902" lon="6.43567">
        <ele>1917.6</ele>
        <time>2021-02-28T09:50:04Z</time>
      </trkpt>
      <trkpt lat="45.0902" lon="6.43567">
        <ele>1917.6</ele>
        <time>2021-02-28T09:50:05Z</time>
      </trkpt>
      <trkpt lat="45.09018" lon="6.4357">
        <ele>1917.6</ele>
        <time>2021-02-28T09:50:06Z</time>
      </trkpt>
      <trkpt lat="45.09018" lon="6.4357">
        <ele>1917.8</ele>
        <time>2021-02-28T09:50:07Z</time>
      </trkpt>
      <trkpt lat="45.09017" lon="6.43572">
        <ele>1918.4</ele>
        <time>2021-02-28T09:50:08Z</time>
      </trkpt>
      <trkpt lat="45.09017" lon="6.43572">
        <ele>1918.6</ele>
        <time>2021-02-28T09:50:09Z</time>
      </trkpt>
      <trkpt lat="45.09017" lon="6.43575">
        <ele>1918.8</ele>
        <time>2021-02-28T09:50:10Z</time>
      </trkpt>
      <trkpt lat="45.09017" lon="6.43575">
        <ele>1919.2</ele>
        <time>2021-02-28T09:50:11Z</time>
      </trkpt>
      <trkpt lat="45.09016" lon="6.43579">
        <ele>1919.2</ele>
        <time>2021-02-28T09:50:12Z</time>
      </trkpt>
      <trkpt lat="45.09016" lon="6.43579">
        <ele>1919.4</ele>
        <time>2021-02-28T09:50:13Z</time>
      </trkpt>
      <trkpt lat="45.09015" lon="6.43582">
        <ele>1919.4</ele>
        <time>2021-02-28T09:50:14Z</time>
      </trkpt>
      <trkpt lat="45.09015" lon="6.43582">
        <ele>1919.6</ele>
        <time>2021-02-28T09:50:15Z</time>
      </trkpt>
      <trkpt lat="45.09014" lon="6.43585">
        <ele>1919.6</ele>
        <time>2021-02-28T09:50:16Z</time>
      </trkpt>
      <trkpt lat="45.09014" lon="6.43585">
        <ele>1919.8</ele>
        <time>2021-02-28T09:50:17Z</time>
      </trkpt>
      <trkpt lat="45.09013" lon="6.43588">
        <ele>1920</ele>
        <time>2021-02-28T09:50:18Z</time>
      </trkpt>
      <trkpt lat="45.09013" lon="6.43588">
        <ele>1920.2</ele>
        <time>2021-02-28T09:50:19Z</time>
      </trkpt>
      <trkpt lat="45.09012" lon="6.43591">
        <ele>1920.6</ele>
        <time>2021-02-28T09:50:20Z</time>
      </trkpt>
      <trkpt lat="45.09012" lon="6.43591">
        <ele>1920.6</ele>
        <time>2021-02-28T09:50:21Z</time>
      </trkpt>
      <trkpt lat="45.09011" lon="6.43595">
        <ele>1920.4</ele>
        <time>2021-02-28T09:50:22Z</time>
      </trkpt>
      <trkpt lat="45.09011" lon="6.43595">
        <ele>1920.6</ele>
        <time>2021-02-28T09:50:23Z</time>
      </trkpt>
      <trkpt lat="45.0901" lon="6.43598">
        <ele>1920.8</ele>
        <time>2021-02-28T09:50:24Z</time>
      </trkpt>
      <trkpt lat="45.0901" lon="6.43598">
        <ele>1921.2</ele>
        <time>2021-02-28T09:50:25Z</time>
      </trkpt>
      <trkpt lat="45.09008" lon="6.43601">
        <ele>1921.6</ele>
        <time>2021-02-28T09:50:26Z</time>
      </trkpt>
      <trkpt lat="45.09008" lon="6.43601">
        <ele>1922</ele>
        <time>2021-02-28T09:50:27Z</time>
      </trkpt>
      <trkpt lat="45.09008" lon="6.43603">
        <ele>1921.8</ele>
        <time>2021-02-28T09:50:28Z</time>
      </trkpt>
      <trkpt lat="45.09008" lon="6.43603">
        <ele>1922</ele>
        <time>2021-02-28T09:50:29Z</time>
      </trkpt>
      <trkpt lat="45.09006" lon="6.43607">
        <ele>1922.2</ele>
        <time>2021-02-28T09:50:30Z</time>
      </trkpt>
      <trkpt lat="45.09006" lon="6.43607">
        <ele>1922.2</ele>
        <time>2021-02-28T09:50:31Z</time>
      </trkpt>
      <trkpt lat="45.09005" lon="6.4361">
        <ele>1922.4</ele>
        <time>2021-02-28T09:50:32Z</time>
      </trkpt>
      <trkpt lat="45.09005" lon="6.4361">
        <ele>1922.8</ele>
        <time>2021-02-28T09:50:33Z</time>
      </trkpt>
      <trkpt lat="45.09003" lon="6.43613">
        <ele>1922.8</ele>
        <time>2021-02-28T09:50:34Z</time>
      </trkpt>
      <trkpt lat="45.09003" lon="6.43613">
        <ele>1923.2</ele>
        <time>2021-02-28T09:50:35Z</time>
      </trkpt>
      <trkpt lat="45.09002" lon="6.43615">
        <ele>1923.2</ele>
        <time>2021-02-28T09:50:36Z</time>
      </trkpt>
      <trkpt lat="45.09002" lon="6.43615">
        <ele>1923.4</ele>
        <time>2021-02-28T09:50:37Z</time>
      </trkpt>
      <trkpt lat="45.09" lon="6.43616">
        <ele>1923.8</ele>
        <time>2021-02-28T09:50:38Z</time>
      </trkpt>
      <trkpt lat="45.09" lon="6.43616">
        <ele>1924</ele>
        <time>2021-02-28T09:50:39Z</time>
      </trkpt>
      <trkpt lat="45.08998" lon="6.43619">
        <ele>1924</ele>
        <time>2021-02-28T09:50:40Z</time>
      </trkpt>
      <trkpt lat="45.08998" lon="6.43619">
        <ele>1924</ele>
        <time>2021-02-28T09:50:41Z</time>
      </trkpt>
      <trkpt lat="45.08996" lon="6.43621">
        <ele>1924</ele>
        <time>2021-02-28T09:50:42Z</time>
      </trkpt>
      <trkpt lat="45.08996" lon="6.43621">
        <ele>1924.4</ele>
        <time>2021-02-28T09:50:43Z</time>
      </trkpt>
      <trkpt lat="45.08994" lon="6.43624">
        <ele>1924.6</ele>
        <time>2021-02-28T09:50:44Z</time>
      </trkpt>
      <trkpt lat="45.08994" lon="6.43624">
        <ele>1925</ele>
        <time>2021-02-28T09:50:45Z</time>
      </trkpt>
      <trkpt lat="45.08992" lon="6.43626">
        <ele>1925.2</ele>
        <time>2021-02-28T09:50:46Z</time>
      </trkpt>
      <trkpt lat="45.08992" lon="6.43626">
        <ele>1925.2</ele>
        <time>2021-02-28T09:50:47Z</time>
      </trkpt>
      <trkpt lat="45.0899" lon="6.43628">
        <ele>1925.4</ele>
        <time>2021-02-28T09:50:48Z</time>
      </trkpt>
      <trkpt lat="45.0899" lon="6.43628">
        <ele>1925.8</ele>
        <time>2021-02-28T09:50:49Z</time>
      </trkpt>
      <trkpt lat="45.08989" lon="6.4363">
        <ele>1926</ele>
        <time>2021-02-28T09:50:50Z</time>
      </trkpt>
      <trkpt lat="45.08989" lon="6.4363">
        <ele>1926.2</ele>
        <time>2021-02-28T09:50:51Z</time>
      </trkpt>
      <trkpt lat="45.08987" lon="6.43633">
        <ele>1926.6</ele>
        <time>2021-02-28T09:50:52Z</time>
      </trkpt>
      <trkpt lat="45.08987" lon="6.43633">
        <ele>1926.6</ele>
        <time>2021-02-28T09:50:53Z</time>
      </trkpt>
      <trkpt lat="45.08985" lon="6.43635">
        <ele>1927</ele>
        <time>2021-02-28T09:50:54Z</time>
      </trkpt>
      <trkpt lat="45.08985" lon="6.43635">
        <ele>1927.4</ele>
        <time>2021-02-28T09:50:55Z</time>
      </trkpt>
      <trkpt lat="45.08984" lon="6.43638">
        <ele>1927.2</ele>
        <time>2021-02-28T09:50:56Z</time>
      </trkpt>
      <trkpt lat="45.08984" lon="6.43638">
        <ele>1927.6</ele>
        <time>2021-02-28T09:50:57Z</time>
      </trkpt>
      <trkpt lat="45.08982" lon="6.4364">
        <ele>1927.6</ele>
        <time>2021-02-28T09:50:58Z</time>
      </trkpt>
      <trkpt lat="45.08982" lon="6.4364">
        <ele>1927.8</ele>
        <time>2021-02-28T09:50:59Z</time>
      </trkpt>
      <trkpt lat="45.08981" lon="6.43642">
        <ele>1928</ele>
        <time>2021-02-28T09:51:00Z</time>
      </trkpt>
      <trkpt lat="45.08981" lon="6.43642">
        <ele>1928</ele>
        <time>2021-02-28T09:51:01Z</time>
      </trkpt>
      <trkpt lat="45.08979" lon="6.43645">
        <ele>1928.2</ele>
        <time>2021-02-28T09:51:02Z</time>
      </trkpt>
      <trkpt lat="45.08979" lon="6.43645">
        <ele>1928.8</ele>
        <time>2021-02-28T09:51:03Z</time>
      </trkpt>
      <trkpt lat="45.08978" lon="6.43648">
        <ele>1928.8</ele>
        <time>2021-02-28T09:51:04Z</time>
      </trkpt>
      <trkpt lat="45.08978" lon="6.43648">
        <ele>1929.2</ele>
        <time>2021-02-28T09:51:05Z</time>
      </trkpt>
      <trkpt lat="45.08976" lon="6.4365">
        <ele>1929.4</ele>
        <time>2021-02-28T09:51:06Z</time>
      </trkpt>
      <trkpt lat="45.08976" lon="6.4365">
        <ele>1929.8</ele>
        <time>2021-02-28T09:51:07Z</time>
      </trkpt>
      <trkpt lat="45.08974" lon="6.43653">
        <ele>1929.6</ele>
        <time>2021-02-28T09:51:08Z</time>
      </trkpt>
      <trkpt lat="45.08974" lon="6.43653">
        <ele>1930</ele>
        <time>2021-02-28T09:51:09Z</time>
      </trkpt>
      <trkpt lat="45.08973" lon="6.43655">
        <ele>1930.8</ele>
        <time>2021-02-28T09:51:10Z</time>
      </trkpt>
      <trkpt lat="45.08973" lon="6.43655">
        <ele>1930.8</ele>
        <time>2021-02-28T09:51:11Z</time>
      </trkpt>
      <trkpt lat="45.08971" lon="6.43658">
        <ele>1931.2</ele>
        <time>2021-02-28T09:51:12Z</time>
      </trkpt>
      <trkpt lat="45.08971" lon="6.43658">
        <ele>1931.2</ele>
        <time>2021-02-28T09:51:13Z</time>
      </trkpt>
      <trkpt lat="45.0897" lon="6.43661">
        <ele>1931.4</ele>
        <time>2021-02-28T09:51:14Z</time>
      </trkpt>
      <trkpt lat="45.0897" lon="6.43661">
        <ele>1932</ele>
        <time>2021-02-28T09:51:15Z</time>
      </trkpt>
      <trkpt lat="45.08968" lon="6.43663">
        <ele>1932</ele>
        <time>2021-02-28T09:51:16Z</time>
      </trkpt>
      <trkpt lat="45.08968" lon="6.43663">
        <ele>1932.2</ele>
        <time>2021-02-28T09:51:17Z</time>
      </trkpt>
      <trkpt lat="45.08966" lon="6.43666">
        <ele>1932.2</ele>
        <time>2021-02-28T09:51:18Z</time>
      </trkpt>
      <trkpt lat="45.08966" lon="6.43666">
        <ele>1932.4</ele>
        <time>2021-02-28T09:51:19Z</time>
      </trkpt>
      <trkpt lat="45.08965" lon="6.43667">
        <ele>1932.8</ele>
        <time>2021-02-28T09:51:20Z</time>
      </trkpt>
      <trkpt lat="45.08965" lon="6.43667">
        <ele>1933</ele>
        <time>2021-02-28T09:51:21Z</time>
      </trkpt>
      <trkpt lat="45.08963" lon="6.43669">
        <ele>1933</ele>
        <time>2021-02-28T09:51:22Z</time>
      </trkpt>
      <trkpt lat="45.08963" lon="6.43669">
        <ele>1933</ele>
        <time>2021-02-28T09:51:23Z</time>
      </trkpt>
      <trkpt lat="45.08961" lon="6.43671">
        <ele>1933.4</ele>
        <time>2021-02-28T09:51:24Z</time>
      </trkpt>
      <trkpt lat="45.08961" lon="6.43671">
        <ele>1933.8</ele>
        <time>2021-02-28T09:51:25Z</time>
      </trkpt>
      <trkpt lat="45.0896" lon="6.43674">
        <ele>1934.2</ele>
        <time>2021-02-28T09:51:26Z</time>
      </trkpt>
      <trkpt lat="45.0896" lon="6.43674">
        <ele>1934.2</ele>
        <time>2021-02-28T09:51:27Z</time>
      </trkpt>
      <trkpt lat="45.08958" lon="6.43676">
        <ele>1934.4</ele>
        <time>2021-02-28T09:51:28Z</time>
      </trkpt>
      <trkpt lat="45.08958" lon="6.43676">
        <ele>1934.4</ele>
        <time>2021-02-28T09:51:29Z</time>
      </trkpt>
      <trkpt lat="45.08957" lon="6.43679">
        <ele>1934.6</ele>
        <time>2021-02-28T09:51:30Z</time>
      </trkpt>
      <trkpt lat="45.08957" lon="6.43679">
        <ele>1934.8</ele>
        <time>2021-02-28T09:51:31Z</time>
      </trkpt>
      <trkpt lat="45.08955" lon="6.43681">
        <ele>1935.2</ele>
        <time>2021-02-28T09:51:32Z</time>
      </trkpt>
      <trkpt lat="45.08955" lon="6.43681">
        <ele>1935.6</ele>
        <time>2021-02-28T09:51:33Z</time>
      </trkpt>
      <trkpt lat="45.08954" lon="6.43683">
        <ele>1935.6</ele>
        <time>2021-02-28T09:51:34Z</time>
      </trkpt>
      <trkpt lat="45.08954" lon="6.43683">
        <ele>1936</ele>
        <time>2021-02-28T09:51:35Z</time>
      </trkpt>
      <trkpt lat="45.08953" lon="6.43685">
        <ele>1936.4</ele>
        <time>2021-02-28T09:51:36Z</time>
      </trkpt>
      <trkpt lat="45.08953" lon="6.43685">
        <ele>1936.8</ele>
        <time>2021-02-28T09:51:37Z</time>
      </trkpt>
      <trkpt lat="45.08951" lon="6.43687">
        <ele>1937</ele>
        <time>2021-02-28T09:51:38Z</time>
      </trkpt>
      <trkpt lat="45.08951" lon="6.43687">
        <ele>1937</ele>
        <time>2021-02-28T09:51:39Z</time>
      </trkpt>
      <trkpt lat="45.0895" lon="6.43689">
        <ele>1937.4</ele>
        <time>2021-02-28T09:51:40Z</time>
      </trkpt>
      <trkpt lat="45.0895" lon="6.43689">
        <ele>1937.6</ele>
        <time>2021-02-28T09:51:41Z</time>
      </trkpt>
      <trkpt lat="45.08949" lon="6.43692">
        <ele>1938</ele>
        <time>2021-02-28T09:51:42Z</time>
      </trkpt>
      <trkpt lat="45.08949" lon="6.43692">
        <ele>1938.2</ele>
        <time>2021-02-28T09:51:43Z</time>
      </trkpt>
      <trkpt lat="45.08947" lon="6.43695">
        <ele>1938.2</ele>
        <time>2021-02-28T09:51:44Z</time>
      </trkpt>
      <trkpt lat="45.08947" lon="6.43695">
        <ele>1938.4</ele>
        <time>2021-02-28T09:51:45Z</time>
      </trkpt>
      <trkpt lat="45.08946" lon="6.43697">
        <ele>1938.6</ele>
        <time>2021-02-28T09:51:46Z</time>
      </trkpt>
      <trkpt lat="45.08946" lon="6.43697">
        <ele>1939</ele>
        <time>2021-02-28T09:51:47Z</time>
      </trkpt>
      <trkpt lat="45.08945" lon="6.437">
        <ele>1939.2</ele>
        <time>2021-02-28T09:51:48Z</time>
      </trkpt>
      <trkpt lat="45.08945" lon="6.437">
        <ele>1939.6</ele>
        <time>2021-02-28T09:51:49Z</time>
      </trkpt>
      <trkpt lat="45.08944" lon="6.43702">
        <ele>1939.8</ele>
        <time>2021-02-28T09:51:50Z</time>
      </trkpt>
      <trkpt lat="45.08944" lon="6.43702">
        <ele>1940.2</ele>
        <time>2021-02-28T09:51:51Z</time>
      </trkpt>
      <trkpt lat="45.08942" lon="6.43705">
        <ele>1940.2</ele>
        <time>2021-02-28T09:51:52Z</time>
      </trkpt>
      <trkpt lat="45.08942" lon="6.43705">
        <ele>1940.4</ele>
        <time>2021-02-28T09:51:53Z</time>
      </trkpt>
      <trkpt lat="45.08941" lon="6.43707">
        <ele>1940.4</ele>
        <time>2021-02-28T09:51:54Z</time>
      </trkpt>
      <trkpt lat="45.08941" lon="6.43707">
        <ele>1940.8</ele>
        <time>2021-02-28T09:51:55Z</time>
      </trkpt>
      <trkpt lat="45.08939" lon="6.43709">
        <ele>1941</ele>
        <time>2021-02-28T09:51:56Z</time>
      </trkpt>
      <trkpt lat="45.08939" lon="6.43709">
        <ele>1941.2</ele>
        <time>2021-02-28T09:51:57Z</time>
      </trkpt>
      <trkpt lat="45.08937" lon="6.43712">
        <ele>1941.2</ele>
        <time>2021-02-28T09:51:58Z</time>
      </trkpt>
      <trkpt lat="45.08937" lon="6.43712">
        <ele>1941.4</ele>
        <time>2021-02-28T09:51:59Z</time>
      </trkpt>
      <trkpt lat="45.08936" lon="6.43713">
        <ele>1941.8</ele>
        <time>2021-02-28T09:52:00Z</time>
      </trkpt>
      <trkpt lat="45.08936" lon="6.43713">
        <ele>1942</ele>
        <time>2021-02-28T09:52:01Z</time>
      </trkpt>
      <trkpt lat="45.08934" lon="6.43716">
        <ele>1942.2</ele>
        <time>2021-02-28T09:52:02Z</time>
      </trkpt>
      <trkpt lat="45.08934" lon="6.43716">
        <ele>1942.4</ele>
        <time>2021-02-28T09:52:03Z</time>
      </trkpt>
      <trkpt lat="45.08933" lon="6.43719">
        <ele>1942.6</ele>
        <time>2021-02-28T09:52:04Z</time>
      </trkpt>
      <trkpt lat="45.08933" lon="6.43719">
        <ele>1943</ele>
        <time>2021-02-28T09:52:05Z</time>
      </trkpt>
      <trkpt lat="45.08931" lon="6.43722">
        <ele>1943</ele>
        <time>2021-02-28T09:52:06Z</time>
      </trkpt>
      <trkpt lat="45.08931" lon="6.43722">
        <ele>1943</ele>
        <time>2021-02-28T09:52:07Z</time>
      </trkpt>
      <trkpt lat="45.08929" lon="6.43724">
        <ele>1943.4</ele>
        <time>2021-02-28T09:52:08Z</time>
      </trkpt>
      <trkpt lat="45.08929" lon="6.43724">
        <ele>1943.6</ele>
        <time>2021-02-28T09:52:09Z</time>
      </trkpt>
      <trkpt lat="45.08928" lon="6.43726">
        <ele>1944</ele>
        <time>2021-02-28T09:52:10Z</time>
      </trkpt>
      <trkpt lat="45.08928" lon="6.43726">
        <ele>1944</ele>
        <time>2021-02-28T09:52:11Z</time>
      </trkpt>
      <trkpt lat="45.08926" lon="6.43729">
        <ele>1944</ele>
        <time>2021-02-28T09:52:12Z</time>
      </trkpt>
      <trkpt lat="45.08926" lon="6.43729">
        <ele>1943.8</ele>
        <time>2021-02-28T09:52:13Z</time>
      </trkpt>
      <trkpt lat="45.08925" lon="6.43731">
        <ele>1944</ele>
        <time>2021-02-28T09:52:14Z</time>
      </trkpt>
      <trkpt lat="45.08925" lon="6.43731">
        <ele>1944.2</ele>
        <time>2021-02-28T09:52:15Z</time>
      </trkpt>
      <trkpt lat="45.08923" lon="6.43733">
        <ele>1944.8</ele>
        <time>2021-02-28T09:52:16Z</time>
      </trkpt>
      <trkpt lat="45.08923" lon="6.43733">
        <ele>1944.8</ele>
        <time>2021-02-28T09:52:17Z</time>
      </trkpt>
      <trkpt lat="45.08921" lon="6.43735">
        <ele>1945.4</ele>
        <time>2021-02-28T09:52:18Z</time>
      </trkpt>
      <trkpt lat="45.08921" lon="6.43735">
        <ele>1945.4</ele>
        <time>2021-02-28T09:52:19Z</time>
      </trkpt>
      <trkpt lat="45.0892" lon="6.43738">
        <ele>1945.6</ele>
        <time>2021-02-28T09:52:20Z</time>
      </trkpt>
      <trkpt lat="45.0892" lon="6.43738">
        <ele>1945.6</ele>
        <time>2021-02-28T09:52:21Z</time>
      </trkpt>
      <trkpt lat="45.08918" lon="6.4374">
        <ele>1945.8</ele>
        <time>2021-02-28T09:52:22Z</time>
      </trkpt>
      <trkpt lat="45.08918" lon="6.4374">
        <ele>1946</ele>
        <time>2021-02-28T09:52:23Z</time>
      </trkpt>
      <trkpt lat="45.08916" lon="6.43743">
        <ele>1946.2</ele>
        <time>2021-02-28T09:52:24Z</time>
      </trkpt>
      <trkpt lat="45.08916" lon="6.43743">
        <ele>1946</ele>
        <time>2021-02-28T09:52:25Z</time>
      </trkpt>
      <trkpt lat="45.08914" lon="6.43746">
        <ele>1946.2</ele>
        <time>2021-02-28T09:52:26Z</time>
      </trkpt>
      <trkpt lat="45.08913" lon="6.43748">
        <ele>1946.2</ele>
        <time>2021-02-28T09:52:27Z</time>
      </trkpt>
      <trkpt lat="45.08913" lon="6.43748">
        <ele>1946.6</ele>
        <time>2021-02-28T09:52:28Z</time>
      </trkpt>
      <trkpt lat="45.08911" lon="6.43751">
        <ele>1946.8</ele>
        <time>2021-02-28T09:52:29Z</time>
      </trkpt>
      <trkpt lat="45.08911" lon="6.43751">
        <ele>1947</ele>
        <time>2021-02-28T09:52:30Z</time>
      </trkpt>
      <trkpt lat="45.0891" lon="6.43753">
        <ele>1947.2</ele>
        <time>2021-02-28T09:52:31Z</time>
      </trkpt>
      <trkpt lat="45.0891" lon="6.43753">
        <ele>1947.4</ele>
        <time>2021-02-28T09:52:32Z</time>
      </trkpt>
      <trkpt lat="45.08909" lon="6.43756">
        <ele>1947.8</ele>
        <time>2021-02-28T09:52:33Z</time>
      </trkpt>
      <trkpt lat="45.08909" lon="6.43756">
        <ele>1948.2</ele>
        <time>2021-02-28T09:52:34Z</time>
      </trkpt>
      <trkpt lat="45.08907" lon="6.43759">
        <ele>1948.4</ele>
        <time>2021-02-28T09:52:35Z</time>
      </trkpt>
      <trkpt lat="45.08907" lon="6.43759">
        <ele>1948.6</ele>
        <time>2021-02-28T09:52:36Z</time>
      </trkpt>
      <trkpt lat="45.08905" lon="6.43762">
        <ele>1948.6</ele>
        <time>2021-02-28T09:52:37Z</time>
      </trkpt>
      <trkpt lat="45.08905" lon="6.43762">
        <ele>1949.2</ele>
        <time>2021-02-28T09:52:38Z</time>
      </trkpt>
      <trkpt lat="45.08903" lon="6.43764">
        <ele>1949.2</ele>
        <time>2021-02-28T09:52:39Z</time>
      </trkpt>
      <trkpt lat="45.08903" lon="6.43764">
        <ele>1949.4</ele>
        <time>2021-02-28T09:52:40Z</time>
      </trkpt>
      <trkpt lat="45.08901" lon="6.43767">
        <ele>1949.4</ele>
        <time>2021-02-28T09:52:41Z</time>
      </trkpt>
      <trkpt lat="45.08901" lon="6.43767">
        <ele>1949.6</ele>
        <time>2021-02-28T09:52:42Z</time>
      </trkpt>
      <trkpt lat="45.08899" lon="6.43769">
        <ele>1949.6</ele>
        <time>2021-02-28T09:52:43Z</time>
      </trkpt>
      <trkpt lat="45.08899" lon="6.43769">
        <ele>1949.8</ele>
        <time>2021-02-28T09:52:44Z</time>
      </trkpt>
      <trkpt lat="45.08898" lon="6.43772">
        <ele>1950.2</ele>
        <time>2021-02-28T09:52:45Z</time>
      </trkpt>
      <trkpt lat="45.08898" lon="6.43772">
        <ele>1950.2</ele>
        <time>2021-02-28T09:52:46Z</time>
      </trkpt>
      <trkpt lat="45.08896" lon="6.43776">
        <ele>1950.4</ele>
        <time>2021-02-28T09:52:47Z</time>
      </trkpt>
      <trkpt lat="45.08896" lon="6.43776">
        <ele>1950.4</ele>
        <time>2021-02-28T09:52:48Z</time>
      </trkpt>
      <trkpt lat="45.08895" lon="6.43779">
        <ele>1950.6</ele>
        <time>2021-02-28T09:52:49Z</time>
      </trkpt>
      <trkpt lat="45.08895" lon="6.43779">
        <ele>1950.8</ele>
        <time>2021-02-28T09:52:50Z</time>
      </trkpt>
      <trkpt lat="45.08893" lon="6.43782">
        <ele>1951</ele>
        <time>2021-02-28T09:52:51Z</time>
      </trkpt>
      <trkpt lat="45.08893" lon="6.43782">
        <ele>1951</ele>
        <time>2021-02-28T09:52:52Z</time>
      </trkpt>
      <trkpt lat="45.08891" lon="6.43785">
        <ele>1951.2</ele>
        <time>2021-02-28T09:52:53Z</time>
      </trkpt>
      <trkpt lat="45.08891" lon="6.43785">
        <ele>1951.4</ele>
        <time>2021-02-28T09:52:54Z</time>
      </trkpt>
      <trkpt lat="45.0889" lon="6.43787">
        <ele>1951.8</ele>
        <time>2021-02-28T09:52:55Z</time>
      </trkpt>
      <trkpt lat="45.0889" lon="6.43787">
        <ele>1951.8</ele>
        <time>2021-02-28T09:52:56Z</time>
      </trkpt>
      <trkpt lat="45.08888" lon="6.4379">
        <ele>1952</ele>
        <time>2021-02-28T09:52:57Z</time>
      </trkpt>
      <trkpt lat="45.08888" lon="6.4379">
        <ele>1952.2</ele>
        <time>2021-02-28T09:52:58Z</time>
      </trkpt>
      <trkpt lat="45.08886" lon="6.43793">
        <ele>1952.6</ele>
        <time>2021-02-28T09:52:59Z</time>
      </trkpt>
      <trkpt lat="45.08886" lon="6.43793">
        <ele>1953.2</ele>
        <time>2021-02-28T09:53:00Z</time>
      </trkpt>
      <trkpt lat="45.08884" lon="6.43796">
        <ele>1953.2</ele>
        <time>2021-02-28T09:53:01Z</time>
      </trkpt>
      <trkpt lat="45.08884" lon="6.43796">
        <ele>1953.4</ele>
        <time>2021-02-28T09:53:02Z</time>
      </trkpt>
      <trkpt lat="45.08883" lon="6.43799">
        <ele>1953.6</ele>
        <time>2021-02-28T09:53:03Z</time>
      </trkpt>
      <trkpt lat="45.08883" lon="6.43799">
        <ele>1953.8</ele>
        <time>2021-02-28T09:53:04Z</time>
      </trkpt>
      <trkpt lat="45.08881" lon="6.43802">
        <ele>1953.8</ele>
        <time>2021-02-28T09:53:05Z</time>
      </trkpt>
      <trkpt lat="45.08881" lon="6.43802">
        <ele>1954</ele>
        <time>2021-02-28T09:53:06Z</time>
      </trkpt>
      <trkpt lat="45.0888" lon="6.43805">
        <ele>1954.2</ele>
        <time>2021-02-28T09:53:07Z</time>
      </trkpt>
      <trkpt lat="45.0888" lon="6.43805">
        <ele>1954.4</ele>
        <time>2021-02-28T09:53:08Z</time>
      </trkpt>
      <trkpt lat="45.08878" lon="6.43808">
        <ele>1954.8</ele>
        <time>2021-02-28T09:53:09Z</time>
      </trkpt>
      <trkpt lat="45.08878" lon="6.43808">
        <ele>1954.8</ele>
        <time>2021-02-28T09:53:10Z</time>
      </trkpt>
      <trkpt lat="45.08876" lon="6.43811">
        <ele>1955</ele>
        <time>2021-02-28T09:53:11Z</time>
      </trkpt>
      <trkpt lat="45.08876" lon="6.43811">
        <ele>1955.4</ele>
        <time>2021-02-28T09:53:12Z</time>
      </trkpt>
      <trkpt lat="45.08874" lon="6.43814">
        <ele>1955.4</ele>
        <time>2021-02-28T09:53:13Z</time>
      </trkpt>
      <trkpt lat="45.08874" lon="6.43814">
        <ele>1955.8</ele>
        <time>2021-02-28T09:53:14Z</time>
      </trkpt>
      <trkpt lat="45.08872" lon="6.43817">
        <ele>1956</ele>
        <time>2021-02-28T09:53:15Z</time>
      </trkpt>
      <trkpt lat="45.08872" lon="6.43817">
        <ele>1956.4</ele>
        <time>2021-02-28T09:53:16Z</time>
      </trkpt>
      <trkpt lat="45.08871" lon="6.43819">
        <ele>1956.2</ele>
        <time>2021-02-28T09:53:17Z</time>
      </trkpt>
      <trkpt lat="45.08871" lon="6.43819">
        <ele>1956.8</ele>
        <time>2021-02-28T09:53:18Z</time>
      </trkpt>
      <trkpt lat="45.08869" lon="6.43821">
        <ele>1956.8</ele>
        <time>2021-02-28T09:53:19Z</time>
      </trkpt>
      <trkpt lat="45.08869" lon="6.43821">
        <ele>1957</ele>
        <time>2021-02-28T09:53:20Z</time>
      </trkpt>
      <trkpt lat="45.08867" lon="6.43824">
        <ele>1957.2</ele>
        <time>2021-02-28T09:53:21Z</time>
      </trkpt>
      <trkpt lat="45.08867" lon="6.43824">
        <ele>1957.4</ele>
        <time>2021-02-28T09:53:22Z</time>
      </trkpt>
      <trkpt lat="45.08865" lon="6.43826">
        <ele>1957.6</ele>
        <time>2021-02-28T09:53:23Z</time>
      </trkpt>
      <trkpt lat="45.08865" lon="6.43826">
        <ele>1958</ele>
        <time>2021-02-28T09:53:24Z</time>
      </trkpt>
      <trkpt lat="45.08864" lon="6.43829">
        <ele>1958</ele>
        <time>2021-02-28T09:53:25Z</time>
      </trkpt>
      <trkpt lat="45.08864" lon="6.43829">
        <ele>1958.4</ele>
        <time>2021-02-28T09:53:26Z</time>
      </trkpt>
      <trkpt lat="45.08862" lon="6.43832">
        <ele>1958.6</ele>
        <time>2021-02-28T09:53:27Z</time>
      </trkpt>
      <trkpt lat="45.08862" lon="6.43832">
        <ele>1958.8</ele>
        <time>2021-02-28T09:53:28Z</time>
      </trkpt>
      <trkpt lat="45.08861" lon="6.43834">
        <ele>1959</ele>
        <time>2021-02-28T09:53:29Z</time>
      </trkpt>
      <trkpt lat="45.08861" lon="6.43834">
        <ele>1959.2</ele>
        <time>2021-02-28T09:53:30Z</time>
      </trkpt>
      <trkpt lat="45.0886" lon="6.43837">
        <ele>1959.6</ele>
        <time>2021-02-28T09:53:31Z</time>
      </trkpt>
      <trkpt lat="45.0886" lon="6.43837">
        <ele>1959.4</ele>
        <time>2021-02-28T09:53:32Z</time>
      </trkpt>
      <trkpt lat="45.08858" lon="6.43839">
        <ele>1959.4</ele>
        <time>2021-02-28T09:53:33Z</time>
      </trkpt>
      <trkpt lat="45.08858" lon="6.43839">
        <ele>1959.8</ele>
        <time>2021-02-28T09:53:34Z</time>
      </trkpt>
      <trkpt lat="45.08857" lon="6.43842">
        <ele>1959.8</ele>
        <time>2021-02-28T09:53:35Z</time>
      </trkpt>
      <trkpt lat="45.08857" lon="6.43842">
        <ele>1960</ele>
        <time>2021-02-28T09:53:36Z</time>
      </trkpt>
      <trkpt lat="45.08855" lon="6.43844">
        <ele>1960.2</ele>
        <time>2021-02-28T09:53:37Z</time>
      </trkpt>
      <trkpt lat="45.08855" lon="6.43844">
        <ele>1960.2</ele>
        <time>2021-02-28T09:53:38Z</time>
      </trkpt>
      <trkpt lat="45.08853" lon="6.43847">
        <ele>1960.4</ele>
        <time>2021-02-28T09:53:39Z</time>
      </trkpt>
      <trkpt lat="45.08853" lon="6.43847">
        <ele>1960.6</ele>
        <time>2021-02-28T09:53:40Z</time>
      </trkpt>
      <trkpt lat="45.08852" lon="6.43849">
        <ele>1961.2</ele>
        <time>2021-02-28T09:53:41Z</time>
      </trkpt>
      <trkpt lat="45.08852" lon="6.43849">
        <ele>1961.2</ele>
        <time>2021-02-28T09:53:42Z</time>
      </trkpt>
      <trkpt lat="45.0885" lon="6.43852">
        <ele>1961.4</ele>
        <time>2021-02-28T09:53:43Z</time>
      </trkpt>
      <trkpt lat="45.0885" lon="6.43852">
        <ele>1961.6</ele>
        <time>2021-02-28T09:53:44Z</time>
      </trkpt>
      <trkpt lat="45.08849" lon="6.43854">
        <ele>1961.8</ele>
        <time>2021-02-28T09:53:45Z</time>
      </trkpt>
      <trkpt lat="45.08849" lon="6.43854">
        <ele>1962</ele>
        <time>2021-02-28T09:53:46Z</time>
      </trkpt>
      <trkpt lat="45.08847" lon="6.43857">
        <ele>1962.2</ele>
        <time>2021-02-28T09:53:47Z</time>
      </trkpt>
      <trkpt lat="45.08847" lon="6.43857">
        <ele>1962.2</ele>
        <time>2021-02-28T09:53:48Z</time>
      </trkpt>
      <trkpt lat="45.08846" lon="6.4386">
        <ele>1962.6</ele>
        <time>2021-02-28T09:53:49Z</time>
      </trkpt>
      <trkpt lat="45.08846" lon="6.4386">
        <ele>1962.8</ele>
        <time>2021-02-28T09:53:50Z</time>
      </trkpt>
      <trkpt lat="45.08844" lon="6.43863">
        <ele>1963</ele>
        <time>2021-02-28T09:53:51Z</time>
      </trkpt>
      <trkpt lat="45.08844" lon="6.43863">
        <ele>1963.4</ele>
        <time>2021-02-28T09:53:52Z</time>
      </trkpt>
      <trkpt lat="45.08842" lon="6.43866">
        <ele>1963.4</ele>
        <time>2021-02-28T09:53:53Z</time>
      </trkpt>
      <trkpt lat="45.08842" lon="6.43866">
        <ele>1963.6</ele>
        <time>2021-02-28T09:53:54Z</time>
      </trkpt>
      <trkpt lat="45.08841" lon="6.4387">
        <ele>1963.8</ele>
        <time>2021-02-28T09:53:55Z</time>
      </trkpt>
      <trkpt lat="45.08841" lon="6.4387">
        <ele>1963.8</ele>
        <time>2021-02-28T09:53:56Z</time>
      </trkpt>
      <trkpt lat="45.08839" lon="6.43873">
        <ele>1964.2</ele>
        <time>2021-02-28T09:53:57Z</time>
      </trkpt>
      <trkpt lat="45.08839" lon="6.43873">
        <ele>1964.4</ele>
        <time>2021-02-28T09:53:58Z</time>
      </trkpt>
      <trkpt lat="45.08838" lon="6.43877">
        <ele>1964.6</ele>
        <time>2021-02-28T09:53:59Z</time>
      </trkpt>
      <trkpt lat="45.08838" lon="6.43877">
        <ele>1964.6</ele>
        <time>2021-02-28T09:54:00Z</time>
      </trkpt>
      <trkpt lat="45.08837" lon="6.4388">
        <ele>1965</ele>
        <time>2021-02-28T09:54:01Z</time>
      </trkpt>
      <trkpt lat="45.08837" lon="6.4388">
        <ele>1965.2</ele>
        <time>2021-02-28T09:54:02Z</time>
      </trkpt>
      <trkpt lat="45.08836" lon="6.43883">
        <ele>1965.2</ele>
        <time>2021-02-28T09:54:03Z</time>
      </trkpt>
      <trkpt lat="45.08836" lon="6.43883">
        <ele>1965.4</ele>
        <time>2021-02-28T09:54:04Z</time>
      </trkpt>
      <trkpt lat="45.08835" lon="6.43885">
        <ele>1965.4</ele>
        <time>2021-02-28T09:54:05Z</time>
      </trkpt>
      <trkpt lat="45.08835" lon="6.43885">
        <ele>1965.6</ele>
        <time>2021-02-28T09:54:06Z</time>
      </trkpt>
      <trkpt lat="45.08834" lon="6.43888">
        <ele>1965.8</ele>
        <time>2021-02-28T09:54:07Z</time>
      </trkpt>
      <trkpt lat="45.08834" lon="6.43888">
        <ele>1966</ele>
        <time>2021-02-28T09:54:08Z</time>
      </trkpt>
      <trkpt lat="45.08833" lon="6.43891">
        <ele>1966.2</ele>
        <time>2021-02-28T09:54:09Z</time>
      </trkpt>
      <trkpt lat="45.08833" lon="6.43891">
        <ele>1966.4</ele>
        <time>2021-02-28T09:54:10Z</time>
      </trkpt>
      <trkpt lat="45.08831" lon="6.43895">
        <ele>1966.6</ele>
        <time>2021-02-28T09:54:11Z</time>
      </trkpt>
      <trkpt lat="45.08831" lon="6.43895">
        <ele>1966.8</ele>
        <time>2021-02-28T09:54:12Z</time>
      </trkpt>
      <trkpt lat="45.08831" lon="6.43897">
        <ele>1967</ele>
        <time>2021-02-28T09:54:13Z</time>
      </trkpt>
      <trkpt lat="45.08831" lon="6.43897">
        <ele>1967.2</ele>
        <time>2021-02-28T09:54:14Z</time>
      </trkpt>
      <trkpt lat="45.08829" lon="6.439">
        <ele>1967.4</ele>
        <time>2021-02-28T09:54:15Z</time>
      </trkpt>
      <trkpt lat="45.08829" lon="6.439">
        <ele>1967.6</ele>
        <time>2021-02-28T09:54:16Z</time>
      </trkpt>
      <trkpt lat="45.08828" lon="6.43903">
        <ele>1967.8</ele>
        <time>2021-02-28T09:54:17Z</time>
      </trkpt>
      <trkpt lat="45.08828" lon="6.43903">
        <ele>1968.2</ele>
        <time>2021-02-28T09:54:18Z</time>
      </trkpt>
      <trkpt lat="45.08826" lon="6.43906">
        <ele>1968.6</ele>
        <time>2021-02-28T09:54:19Z</time>
      </trkpt>
      <trkpt lat="45.08826" lon="6.43906">
        <ele>1968.6</ele>
        <time>2021-02-28T09:54:20Z</time>
      </trkpt>
      <trkpt lat="45.08825" lon="6.4391">
        <ele>1968.6</ele>
        <time>2021-02-28T09:54:21Z</time>
      </trkpt>
      <trkpt lat="45.08825" lon="6.4391">
        <ele>1969</ele>
        <time>2021-02-28T09:54:22Z</time>
      </trkpt>
      <trkpt lat="45.08824" lon="6.43912">
        <ele>1968.8</ele>
        <time>2021-02-28T09:54:23Z</time>
      </trkpt>
      <trkpt lat="45.08824" lon="6.43912">
        <ele>1969</ele>
        <time>2021-02-28T09:54:24Z</time>
      </trkpt>
      <trkpt lat="45.08822" lon="6.43916">
        <ele>1969.2</ele>
        <time>2021-02-28T09:54:25Z</time>
      </trkpt>
      <trkpt lat="45.08822" lon="6.43916">
        <ele>1969.4</ele>
        <time>2021-02-28T09:54:26Z</time>
      </trkpt>
      <trkpt lat="45.08821" lon="6.43919">
        <ele>1969.8</ele>
        <time>2021-02-28T09:54:27Z</time>
      </trkpt>
      <trkpt lat="45.08821" lon="6.43919">
        <ele>1970</ele>
        <time>2021-02-28T09:54:28Z</time>
      </trkpt>
      <trkpt lat="45.0882" lon="6.43922">
        <ele>1970.4</ele>
        <time>2021-02-28T09:54:29Z</time>
      </trkpt>
      <trkpt lat="45.0882" lon="6.43922">
        <ele>1970.6</ele>
        <time>2021-02-28T09:54:30Z</time>
      </trkpt>
      <trkpt lat="45.08819" lon="6.43926">
        <ele>1970.8</ele>
        <time>2021-02-28T09:54:31Z</time>
      </trkpt>
      <trkpt lat="45.08819" lon="6.43926">
        <ele>1971</ele>
        <time>2021-02-28T09:54:32Z</time>
      </trkpt>
      <trkpt lat="45.08818" lon="6.4393">
        <ele>1971.4</ele>
        <time>2021-02-28T09:54:33Z</time>
      </trkpt>
      <trkpt lat="45.08818" lon="6.4393">
        <ele>1971.4</ele>
        <time>2021-02-28T09:54:34Z</time>
      </trkpt>
      <trkpt lat="45.08817" lon="6.43932">
        <ele>1971.2</ele>
        <time>2021-02-28T09:54:35Z</time>
      </trkpt>
      <trkpt lat="45.08817" lon="6.43932">
        <ele>1971.4</ele>
        <time>2021-02-28T09:54:36Z</time>
      </trkpt>
      <trkpt lat="45.08817" lon="6.43936">
        <ele>1971.6</ele>
        <time>2021-02-28T09:54:37Z</time>
      </trkpt>
      <trkpt lat="45.08817" lon="6.43936">
        <ele>1972</ele>
        <time>2021-02-28T09:54:38Z</time>
      </trkpt>
      <trkpt lat="45.08816" lon="6.43939">
        <ele>1972.2</ele>
        <time>2021-02-28T09:54:39Z</time>
      </trkpt>
      <trkpt lat="45.08816" lon="6.43939">
        <ele>1972.6</ele>
        <time>2021-02-28T09:54:40Z</time>
      </trkpt>
      <trkpt lat="45.08814" lon="6.43942">
        <ele>1973</ele>
        <time>2021-02-28T09:54:41Z</time>
      </trkpt>
      <trkpt lat="45.08814" lon="6.43942">
        <ele>1973</ele>
        <time>2021-02-28T09:54:42Z</time>
      </trkpt>
      <trkpt lat="45.08814" lon="6.43945">
        <ele>1973.4</ele>
        <time>2021-02-28T09:54:43Z</time>
      </trkpt>
      <trkpt lat="45.08814" lon="6.43945">
        <ele>1973.6</ele>
        <time>2021-02-28T09:54:44Z</time>
      </trkpt>
      <trkpt lat="45.08813" lon="6.43948">
        <ele>1973.8</ele>
        <time>2021-02-28T09:54:45Z</time>
      </trkpt>
      <trkpt lat="45.08813" lon="6.43948">
        <ele>1974.2</ele>
        <time>2021-02-28T09:54:46Z</time>
      </trkpt>
      <trkpt lat="45.08812" lon="6.43951">
        <ele>1974.2</ele>
        <time>2021-02-28T09:54:47Z</time>
      </trkpt>
      <trkpt lat="45.08812" lon="6.43951">
        <ele>1974.4</ele>
        <time>2021-02-28T09:54:48Z</time>
      </trkpt>
      <trkpt lat="45.08812" lon="6.43954">
        <ele>1974.6</ele>
        <time>2021-02-28T09:54:49Z</time>
      </trkpt>
      <trkpt lat="45.08812" lon="6.43954">
        <ele>1975</ele>
        <time>2021-02-28T09:54:50Z</time>
      </trkpt>
      <trkpt lat="45.08811" lon="6.43956">
        <ele>1975.4</ele>
        <time>2021-02-28T09:54:51Z</time>
      </trkpt>
      <trkpt lat="45.08811" lon="6.43956">
        <ele>1975.8</ele>
        <time>2021-02-28T09:54:52Z</time>
      </trkpt>
      <trkpt lat="45.0881" lon="6.43959">
        <ele>1976.2</ele>
        <time>2021-02-28T09:54:53Z</time>
      </trkpt>
      <trkpt lat="45.0881" lon="6.43959">
        <ele>1976.4</ele>
        <time>2021-02-28T09:54:54Z</time>
      </trkpt>
      <trkpt lat="45.08808" lon="6.43962">
        <ele>1976.6</ele>
        <time>2021-02-28T09:54:55Z</time>
      </trkpt>
      <trkpt lat="45.08808" lon="6.43962">
        <ele>1976.6</ele>
        <time>2021-02-28T09:54:56Z</time>
      </trkpt>
      <trkpt lat="45.08807" lon="6.43964">
        <ele>1977.2</ele>
        <time>2021-02-28T09:54:57Z</time>
      </trkpt>
      <trkpt lat="45.08807" lon="6.43964">
        <ele>1977.6</ele>
        <time>2021-02-28T09:54:58Z</time>
      </trkpt>
      <trkpt lat="45.08805" lon="6.43967">
        <ele>1977.8</ele>
        <time>2021-02-28T09:54:59Z</time>
      </trkpt>
      <trkpt lat="45.08805" lon="6.43967">
        <ele>1977.6</ele>
        <time>2021-02-28T09:55:00Z</time>
      </trkpt>
      <trkpt lat="45.08803" lon="6.4397">
        <ele>1977.6</ele>
        <time>2021-02-28T09:55:01Z</time>
      </trkpt>
      <trkpt lat="45.08803" lon="6.4397">
        <ele>1977.8</ele>
        <time>2021-02-28T09:55:02Z</time>
      </trkpt>
      <trkpt lat="45.08802" lon="6.43972">
        <ele>1978.2</ele>
        <time>2021-02-28T09:55:03Z</time>
      </trkpt>
      <trkpt lat="45.08802" lon="6.43972">
        <ele>1978.8</ele>
        <time>2021-02-28T09:55:04Z</time>
      </trkpt>
      <trkpt lat="45.08802" lon="6.43972">
        <ele>1979</ele>
        <time>2021-02-28T09:55:05Z</time>
      </trkpt>
      <trkpt lat="45.088" lon="6.43977">
        <ele>1979.2</ele>
        <time>2021-02-28T09:55:06Z</time>
      </trkpt>
      <trkpt lat="45.088" lon="6.43977">
        <ele>1979.4</ele>
        <time>2021-02-28T09:55:07Z</time>
      </trkpt>
      <trkpt lat="45.08799" lon="6.4398">
        <ele>1979.6</ele>
        <time>2021-02-28T09:55:08Z</time>
      </trkpt>
      <trkpt lat="45.08799" lon="6.4398">
        <ele>1980</ele>
        <time>2021-02-28T09:55:09Z</time>
      </trkpt>
      <trkpt lat="45.08798" lon="6.43982">
        <ele>1980.2</ele>
        <time>2021-02-28T09:55:10Z</time>
      </trkpt>
      <trkpt lat="45.08798" lon="6.43982">
        <ele>1980.2</ele>
        <time>2021-02-28T09:55:11Z</time>
      </trkpt>
      <trkpt lat="45.08797" lon="6.43986">
        <ele>1980.4</ele>
        <time>2021-02-28T09:55:12Z</time>
      </trkpt>
      <trkpt lat="45.08797" lon="6.43986">
        <ele>1980.8</ele>
        <time>2021-02-28T09:55:13Z</time>
      </trkpt>
      <trkpt lat="45.08796" lon="6.43989">
        <ele>1981</ele>
        <time>2021-02-28T09:55:14Z</time>
      </trkpt>
      <trkpt lat="45.08796" lon="6.43989">
        <ele>1981.6</ele>
        <time>2021-02-28T09:55:15Z</time>
      </trkpt>
      <trkpt lat="45.08794" lon="6.43992">
        <ele>1981.6</ele>
        <time>2021-02-28T09:55:16Z</time>
      </trkpt>
      <trkpt lat="45.08794" lon="6.43992">
        <ele>1981.6</ele>
        <time>2021-02-28T09:55:17Z</time>
      </trkpt>
      <trkpt lat="45.08793" lon="6.43994">
        <ele>1981.8</ele>
        <time>2021-02-28T09:55:18Z</time>
      </trkpt>
      <trkpt lat="45.08793" lon="6.43994">
        <ele>1982</ele>
        <time>2021-02-28T09:55:19Z</time>
      </trkpt>
      <trkpt lat="45.08791" lon="6.43997">
        <ele>1982.4</ele>
        <time>2021-02-28T09:55:20Z</time>
      </trkpt>
      <trkpt lat="45.08791" lon="6.43997">
        <ele>1982.8</ele>
        <time>2021-02-28T09:55:21Z</time>
      </trkpt>
      <trkpt lat="45.0879" lon="6.44">
        <ele>1982.8</ele>
        <time>2021-02-28T09:55:22Z</time>
      </trkpt>
      <trkpt lat="45.0879" lon="6.44">
        <ele>1983</ele>
        <time>2021-02-28T09:55:23Z</time>
      </trkpt>
      <trkpt lat="45.08789" lon="6.44002">
        <ele>1983.4</ele>
        <time>2021-02-28T09:55:24Z</time>
      </trkpt>
      <trkpt lat="45.08789" lon="6.44002">
        <ele>1983.6</ele>
        <time>2021-02-28T09:55:25Z</time>
      </trkpt>
      <trkpt lat="45.08787" lon="6.44004">
        <ele>1983.6</ele>
        <time>2021-02-28T09:55:26Z</time>
      </trkpt>
      <trkpt lat="45.08787" lon="6.44004">
        <ele>1983.8</ele>
        <time>2021-02-28T09:55:27Z</time>
      </trkpt>
      <trkpt lat="45.08786" lon="6.44007">
        <ele>1984</ele>
        <time>2021-02-28T09:55:28Z</time>
      </trkpt>
      <trkpt lat="45.08786" lon="6.44007">
        <ele>1984</ele>
        <time>2021-02-28T09:55:29Z</time>
      </trkpt>
      <trkpt lat="45.08785" lon="6.4401">
        <ele>1984.4</ele>
        <time>2021-02-28T09:55:30Z</time>
      </trkpt>
      <trkpt lat="45.08785" lon="6.4401">
        <ele>1984.8</ele>
        <time>2021-02-28T09:55:31Z</time>
      </trkpt>
      <trkpt lat="45.08784" lon="6.44012">
        <ele>1985.2</ele>
        <time>2021-02-28T09:55:32Z</time>
      </trkpt>
      <trkpt lat="45.08784" lon="6.44012">
        <ele>1985.2</ele>
        <time>2021-02-28T09:55:33Z</time>
      </trkpt>
      <trkpt lat="45.08782" lon="6.44015">
        <ele>1985.6</ele>
        <time>2021-02-28T09:55:34Z</time>
      </trkpt>
      <trkpt lat="45.08782" lon="6.44015">
        <ele>1986</ele>
        <time>2021-02-28T09:55:35Z</time>
      </trkpt>
      <trkpt lat="45.0878" lon="6.44018">
        <ele>1986.2</ele>
        <time>2021-02-28T09:55:36Z</time>
      </trkpt>
      <trkpt lat="45.0878" lon="6.44018">
        <ele>1986.4</ele>
        <time>2021-02-28T09:55:37Z</time>
      </trkpt>
      <trkpt lat="45.08778" lon="6.4402">
        <ele>1986.8</ele>
        <time>2021-02-28T09:55:38Z</time>
      </trkpt>
      <trkpt lat="45.08778" lon="6.4402">
        <ele>1987</ele>
        <time>2021-02-28T09:55:39Z</time>
      </trkpt>
      <trkpt lat="45.08776" lon="6.44022">
        <ele>1987.2</ele>
        <time>2021-02-28T09:55:40Z</time>
      </trkpt>
      <trkpt lat="45.08776" lon="6.44022">
        <ele>1987.6</ele>
        <time>2021-02-28T09:55:41Z</time>
      </trkpt>
      <trkpt lat="45.08774" lon="6.44025">
        <ele>1987.8</ele>
        <time>2021-02-28T09:55:42Z</time>
      </trkpt>
      <trkpt lat="45.08774" lon="6.44025">
        <ele>1988</ele>
        <time>2021-02-28T09:55:43Z</time>
      </trkpt>
      <trkpt lat="45.08773" lon="6.44028">
        <ele>1988.2</ele>
        <time>2021-02-28T09:55:44Z</time>
      </trkpt>
      <trkpt lat="45.08773" lon="6.44028">
        <ele>1988.2</ele>
        <time>2021-02-28T09:55:45Z</time>
      </trkpt>
      <trkpt lat="45.0877" lon="6.44031">
        <ele>1988.4</ele>
        <time>2021-02-28T09:55:46Z</time>
      </trkpt>
      <trkpt lat="45.0877" lon="6.44031">
        <ele>1988.6</ele>
        <time>2021-02-28T09:55:47Z</time>
      </trkpt>
      <trkpt lat="45.08769" lon="6.44033">
        <ele>1988.8</ele>
        <time>2021-02-28T09:55:48Z</time>
      </trkpt>
      <trkpt lat="45.08769" lon="6.44033">
        <ele>1989</ele>
        <time>2021-02-28T09:55:49Z</time>
      </trkpt>
      <trkpt lat="45.08768" lon="6.44036">
        <ele>1989.2</ele>
        <time>2021-02-28T09:55:50Z</time>
      </trkpt>
      <trkpt lat="45.08768" lon="6.44036">
        <ele>1989.4</ele>
        <time>2021-02-28T09:55:51Z</time>
      </trkpt>
      <trkpt lat="45.08766" lon="6.44038">
        <ele>1989.4</ele>
        <time>2021-02-28T09:55:52Z</time>
      </trkpt>
      <trkpt lat="45.08766" lon="6.44038">
        <ele>1989.6</ele>
        <time>2021-02-28T09:55:53Z</time>
      </trkpt>
      <trkpt lat="45.08765" lon="6.44041">
        <ele>1990</ele>
        <time>2021-02-28T09:55:54Z</time>
      </trkpt>
      <trkpt lat="45.08765" lon="6.44041">
        <ele>1990</ele>
        <time>2021-02-28T09:55:55Z</time>
      </trkpt>
      <trkpt lat="45.08764" lon="6.44043">
        <ele>1989.8</ele>
        <time>2021-02-28T09:55:56Z</time>
      </trkpt>
      <trkpt lat="45.08764" lon="6.44043">
        <ele>1989.8</ele>
        <time>2021-02-28T09:55:57Z</time>
      </trkpt>
      <trkpt lat="45.08763" lon="6.44046">
        <ele>1990.2</ele>
        <time>2021-02-28T09:55:58Z</time>
      </trkpt>
      <trkpt lat="45.08763" lon="6.44046">
        <ele>1990.8</ele>
        <time>2021-02-28T09:55:59Z</time>
      </trkpt>
      <trkpt lat="45.08762" lon="6.44049">
        <ele>1990.8</ele>
        <time>2021-02-28T09:56:00Z</time>
      </trkpt>
      <trkpt lat="45.08762" lon="6.44049">
        <ele>1990.8</ele>
        <time>2021-02-28T09:56:01Z</time>
      </trkpt>
      <trkpt lat="45.0876" lon="6.44052">
        <ele>1990.8</ele>
        <time>2021-02-28T09:56:02Z</time>
      </trkpt>
      <trkpt lat="45.0876" lon="6.44052">
        <ele>1991</ele>
        <time>2021-02-28T09:56:03Z</time>
      </trkpt>
      <trkpt lat="45.08759" lon="6.44056">
        <ele>1991.4</ele>
        <time>2021-02-28T09:56:04Z</time>
      </trkpt>
      <trkpt lat="45.08759" lon="6.44056">
        <ele>1992.4</ele>
        <time>2021-02-28T09:56:05Z</time>
      </trkpt>
      <trkpt lat="45.08758" lon="6.44059">
        <ele>1992.2</ele>
        <time>2021-02-28T09:56:06Z</time>
      </trkpt>
      <trkpt lat="45.08758" lon="6.44059">
        <ele>1992.4</ele>
        <time>2021-02-28T09:56:07Z</time>
      </trkpt>
      <trkpt lat="45.08757" lon="6.44063">
        <ele>1992.4</ele>
        <time>2021-02-28T09:56:08Z</time>
      </trkpt>
      <trkpt lat="45.08757" lon="6.44063">
        <ele>1992.8</ele>
        <time>2021-02-28T09:56:09Z</time>
      </trkpt>
      <trkpt lat="45.08756" lon="6.44066">
        <ele>1994</ele>
        <time>2021-02-28T09:56:10Z</time>
      </trkpt>
      <trkpt lat="45.08756" lon="6.44066">
        <ele>1994.2</ele>
        <time>2021-02-28T09:56:11Z</time>
      </trkpt>
      <trkpt lat="45.08755" lon="6.4407">
        <ele>1994</ele>
        <time>2021-02-28T09:56:12Z</time>
      </trkpt>
      <trkpt lat="45.08755" lon="6.4407">
        <ele>1994</ele>
        <time>2021-02-28T09:56:13Z</time>
      </trkpt>
      <trkpt lat="45.08754" lon="6.44073">
        <ele>1994.4</ele>
        <time>2021-02-28T09:56:14Z</time>
      </trkpt>
      <trkpt lat="45.08754" lon="6.44073">
        <ele>1994.6</ele>
        <time>2021-02-28T09:56:15Z</time>
      </trkpt>
      <trkpt lat="45.08753" lon="6.44076">
        <ele>1995</ele>
        <time>2021-02-28T09:56:16Z</time>
      </trkpt>
      <trkpt lat="45.08753" lon="6.44076">
        <ele>1995.2</ele>
        <time>2021-02-28T09:56:17Z</time>
      </trkpt>
      <trkpt lat="45.08753" lon="6.44079">
        <ele>1995.2</ele>
        <time>2021-02-28T09:56:18Z</time>
      </trkpt>
      <trkpt lat="45.08753" lon="6.44079">
        <ele>1995</ele>
        <time>2021-02-28T09:56:19Z</time>
      </trkpt>
      <trkpt lat="45.08751" lon="6.44082">
        <ele>1995.2</ele>
        <time>2021-02-28T09:56:20Z</time>
      </trkpt>
      <trkpt lat="45.08751" lon="6.44082">
        <ele>1995.6</ele>
        <time>2021-02-28T09:56:21Z</time>
      </trkpt>
      <trkpt lat="45.0875" lon="6.44086">
        <ele>1996</ele>
        <time>2021-02-28T09:56:22Z</time>
      </trkpt>
      <trkpt lat="45.0875" lon="6.44086">
        <ele>1995.8</ele>
        <time>2021-02-28T09:56:23Z</time>
      </trkpt>
      <trkpt lat="45.08749" lon="6.44089">
        <ele>1996</ele>
        <time>2021-02-28T09:56:24Z</time>
      </trkpt>
      <trkpt lat="45.08749" lon="6.44089">
        <ele>1996</ele>
        <time>2021-02-28T09:56:25Z</time>
      </trkpt>
      <trkpt lat="45.08747" lon="6.44092">
        <ele>1996.2</ele>
        <time>2021-02-28T09:56:26Z</time>
      </trkpt>
      <trkpt lat="45.08747" lon="6.44092">
        <ele>1996.6</ele>
        <time>2021-02-28T09:56:27Z</time>
      </trkpt>
      <trkpt lat="45.08746" lon="6.44095">
        <ele>1997.2</ele>
        <time>2021-02-28T09:56:28Z</time>
      </trkpt>
      <trkpt lat="45.08746" lon="6.44095">
        <ele>1997.2</ele>
        <time>2021-02-28T09:56:29Z</time>
      </trkpt>
      <trkpt lat="45.08745" lon="6.44099">
        <ele>1997.4</ele>
        <time>2021-02-28T09:56:30Z</time>
      </trkpt>
      <trkpt lat="45.08745" lon="6.44099">
        <ele>1997.4</ele>
        <time>2021-02-28T09:56:31Z</time>
      </trkpt>
      <trkpt lat="45.08742" lon="6.44102">
        <ele>1997.6</ele>
        <time>2021-02-28T09:56:32Z</time>
      </trkpt>
      <trkpt lat="45.08742" lon="6.44102">
        <ele>1997.8</ele>
        <time>2021-02-28T09:56:33Z</time>
      </trkpt>
      <trkpt lat="45.08741" lon="6.44104">
        <ele>1998</ele>
        <time>2021-02-28T09:56:34Z</time>
      </trkpt>
      <trkpt lat="45.08741" lon="6.44104">
        <ele>1998</ele>
        <time>2021-02-28T09:56:35Z</time>
      </trkpt>
      <trkpt lat="45.08739" lon="6.44108">
        <ele>1998.4</ele>
        <time>2021-02-28T09:56:36Z</time>
      </trkpt>
      <trkpt lat="45.08739" lon="6.44108">
        <ele>1998.6</ele>
        <time>2021-02-28T09:56:37Z</time>
      </trkpt>
      <trkpt lat="45.08737" lon="6.4411">
        <ele>1999</ele>
        <time>2021-02-28T09:56:38Z</time>
      </trkpt>
      <trkpt lat="45.08737" lon="6.4411">
        <ele>1999.4</ele>
        <time>2021-02-28T09:56:39Z</time>
      </trkpt>
      <trkpt lat="45.08736" lon="6.44113">
        <ele>1999.6</ele>
        <time>2021-02-28T09:56:40Z</time>
      </trkpt>
      <trkpt lat="45.08736" lon="6.44113">
        <ele>1999.8</ele>
        <time>2021-02-28T09:56:41Z</time>
      </trkpt>
      <trkpt lat="45.08734" lon="6.44116">
        <ele>1999.6</ele>
        <time>2021-02-28T09:56:42Z</time>
      </trkpt>
      <trkpt lat="45.08734" lon="6.44116">
        <ele>1999.6</ele>
        <time>2021-02-28T09:56:43Z</time>
      </trkpt>
      <trkpt lat="45.08733" lon="6.44119">
        <ele>1999.8</ele>
        <time>2021-02-28T09:56:44Z</time>
      </trkpt>
      <trkpt lat="45.08733" lon="6.44119">
        <ele>2000.2</ele>
        <time>2021-02-28T09:56:45Z</time>
      </trkpt>
      <trkpt lat="45.08731" lon="6.44122">
        <ele>2000</ele>
        <time>2021-02-28T09:56:46Z</time>
      </trkpt>
      <trkpt lat="45.08731" lon="6.44122">
        <ele>2000</ele>
        <time>2021-02-28T09:56:47Z</time>
      </trkpt>
      <trkpt lat="45.08729" lon="6.44125">
        <ele>2000.2</ele>
        <time>2021-02-28T09:56:48Z</time>
      </trkpt>
      <trkpt lat="45.08729" lon="6.44125">
        <ele>2000.6</ele>
        <time>2021-02-28T09:56:49Z</time>
      </trkpt>
      <trkpt lat="45.08728" lon="6.44128">
        <ele>2001</ele>
        <time>2021-02-28T09:56:50Z</time>
      </trkpt>
      <trkpt lat="45.08728" lon="6.44128">
        <ele>2001.2</ele>
        <time>2021-02-28T09:56:51Z</time>
      </trkpt>
      <trkpt lat="45.08726" lon="6.44132">
        <ele>2001</ele>
        <time>2021-02-28T09:56:52Z</time>
      </trkpt>
      <trkpt lat="45.08726" lon="6.44132">
        <ele>2001.4</ele>
        <time>2021-02-28T09:56:53Z</time>
      </trkpt>
      <trkpt lat="45.08725" lon="6.44135">
        <ele>2001.8</ele>
        <time>2021-02-28T09:56:54Z</time>
      </trkpt>
      <trkpt lat="45.08725" lon="6.44135">
        <ele>2002.2</ele>
        <time>2021-02-28T09:56:55Z</time>
      </trkpt>
      <trkpt lat="45.08723" lon="6.44139">
        <ele>2002.2</ele>
        <time>2021-02-28T09:56:56Z</time>
      </trkpt>
      <trkpt lat="45.08723" lon="6.44139">
        <ele>2002</ele>
        <time>2021-02-28T09:56:57Z</time>
      </trkpt>
      <trkpt lat="45.08721" lon="6.44142">
        <ele>2002.2</ele>
        <time>2021-02-28T09:56:58Z</time>
      </trkpt>
      <trkpt lat="45.08721" lon="6.44142">
        <ele>2002.6</ele>
        <time>2021-02-28T09:56:59Z</time>
      </trkpt>
      <trkpt lat="45.08719" lon="6.44145">
        <ele>2003.2</ele>
        <time>2021-02-28T09:57:00Z</time>
      </trkpt>
      <trkpt lat="45.08719" lon="6.44145">
        <ele>2003</ele>
        <time>2021-02-28T09:57:01Z</time>
      </trkpt>
      <trkpt lat="45.08717" lon="6.44148">
        <ele>2003</ele>
        <time>2021-02-28T09:57:02Z</time>
      </trkpt>
      <trkpt lat="45.08717" lon="6.44148">
        <ele>2002.8</ele>
        <time>2021-02-28T09:57:03Z</time>
      </trkpt>
      <trkpt lat="45.08716" lon="6.44151">
        <ele>2003</ele>
        <time>2021-02-28T09:57:04Z</time>
      </trkpt>
      <trkpt lat="45.08716" lon="6.44151">
        <ele>2003.4</ele>
        <time>2021-02-28T09:57:05Z</time>
      </trkpt>
      <trkpt lat="45.08714" lon="6.44154">
        <ele>2003.6</ele>
        <time>2021-02-28T09:57:06Z</time>
      </trkpt>
      <trkpt lat="45.08714" lon="6.44154">
        <ele>2003.6</ele>
        <time>2021-02-28T09:57:07Z</time>
      </trkpt>
      <trkpt lat="45.08712" lon="6.44157">
        <ele>2003.4</ele>
        <time>2021-02-28T09:57:08Z</time>
      </trkpt>
      <trkpt lat="45.08712" lon="6.44157">
        <ele>2003.4</ele>
        <time>2021-02-28T09:57:09Z</time>
      </trkpt>
      <trkpt lat="45.08711" lon="6.4416">
        <ele>2003.4</ele>
        <time>2021-02-28T09:57:10Z</time>
      </trkpt>
      <trkpt lat="45.08711" lon="6.4416">
        <ele>2003.4</ele>
        <time>2021-02-28T09:57:11Z</time>
      </trkpt>
      <trkpt lat="45.08709" lon="6.44163">
        <ele>2004</ele>
        <time>2021-02-28T09:57:12Z</time>
      </trkpt>
      <trkpt lat="45.08709" lon="6.44163">
        <ele>2004</ele>
        <time>2021-02-28T09:57:13Z</time>
      </trkpt>
      <trkpt lat="45.08707" lon="6.44166">
        <ele>2003.8</ele>
        <time>2021-02-28T09:57:14Z</time>
      </trkpt>
      <trkpt lat="45.08707" lon="6.44166">
        <ele>2003.8</ele>
        <time>2021-02-28T09:57:15Z</time>
      </trkpt>
      <trkpt lat="45.08705" lon="6.4417">
        <ele>2003.8</ele>
        <time>2021-02-28T09:57:16Z</time>
      </trkpt>
      <trkpt lat="45.08705" lon="6.4417">
        <ele>2004.4</ele>
        <time>2021-02-28T09:57:17Z</time>
      </trkpt>
      <trkpt lat="45.08704" lon="6.44174">
        <ele>2005</ele>
        <time>2021-02-28T09:57:18Z</time>
      </trkpt>
      <trkpt lat="45.08704" lon="6.44174">
        <ele>2005.4</ele>
        <time>2021-02-28T09:57:19Z</time>
      </trkpt>
      <trkpt lat="45.08702" lon="6.44177">
        <ele>2005.4</ele>
        <time>2021-02-28T09:57:20Z</time>
      </trkpt>
      <trkpt lat="45.08702" lon="6.44177">
        <ele>2005.2</ele>
        <time>2021-02-28T09:57:21Z</time>
      </trkpt>
      <trkpt lat="45.08701" lon="6.4418">
        <ele>2005</ele>
        <time>2021-02-28T09:57:22Z</time>
      </trkpt>
      <trkpt lat="45.08701" lon="6.4418">
        <ele>2005</ele>
        <time>2021-02-28T09:57:23Z</time>
      </trkpt>
      <trkpt lat="45.087" lon="6.44184">
        <ele>2005.2</ele>
        <time>2021-02-28T09:57:24Z</time>
      </trkpt>
      <trkpt lat="45.087" lon="6.44184">
        <ele>2005.8</ele>
        <time>2021-02-28T09:57:25Z</time>
      </trkpt>
      <trkpt lat="45.08699" lon="6.44187">
        <ele>2005.8</ele>
        <time>2021-02-28T09:57:26Z</time>
      </trkpt>
      <trkpt lat="45.08699" lon="6.44187">
        <ele>2006</ele>
        <time>2021-02-28T09:57:27Z</time>
      </trkpt>
      <trkpt lat="45.08698" lon="6.44191">
        <ele>2006</ele>
        <time>2021-02-28T09:57:28Z</time>
      </trkpt>
      <trkpt lat="45.08698" lon="6.44191">
        <ele>2006</ele>
        <time>2021-02-28T09:57:29Z</time>
      </trkpt>
      <trkpt lat="45.08696" lon="6.44195">
        <ele>2006</ele>
        <time>2021-02-28T09:57:30Z</time>
      </trkpt>
      <trkpt lat="45.08696" lon="6.44195">
        <ele>2006.2</ele>
        <time>2021-02-28T09:57:31Z</time>
      </trkpt>
      <trkpt lat="45.08695" lon="6.44199">
        <ele>2006.2</ele>
        <time>2021-02-28T09:57:32Z</time>
      </trkpt>
      <trkpt lat="45.08695" lon="6.44199">
        <ele>2006</ele>
        <time>2021-02-28T09:57:33Z</time>
      </trkpt>
      <trkpt lat="45.08693" lon="6.44202">
        <ele>2006</ele>
        <time>2021-02-28T09:57:34Z</time>
      </trkpt>
      <trkpt lat="45.08692" lon="6.44204">
        <ele>2006</ele>
        <time>2021-02-28T09:57:35Z</time>
      </trkpt>
      <trkpt lat="45.08692" lon="6.44204">
        <ele>2006</ele>
        <time>2021-02-28T09:57:36Z</time>
      </trkpt>
      <trkpt lat="45.08691" lon="6.44208">
        <ele>2006</ele>
        <time>2021-02-28T09:57:37Z</time>
      </trkpt>
      <trkpt lat="45.08691" lon="6.44208">
        <ele>2006</ele>
        <time>2021-02-28T09:57:38Z</time>
      </trkpt>
      <trkpt lat="45.08691" lon="6.44211">
        <ele>2006.2</ele>
        <time>2021-02-28T09:57:39Z</time>
      </trkpt>
      <trkpt lat="45.0869" lon="6.44213">
        <ele>2006.2</ele>
        <time>2021-02-28T09:57:40Z</time>
      </trkpt>
      <trkpt lat="45.0869" lon="6.44213">
        <ele>2006.2</ele>
        <time>2021-02-28T09:57:41Z</time>
      </trkpt>
      <trkpt lat="45.08689" lon="6.44218">
        <ele>2006.2</ele>
        <time>2021-02-28T09:57:42Z</time>
      </trkpt>
      <trkpt lat="45.08689" lon="6.44218">
        <ele>2006.2</ele>
        <time>2021-02-28T09:57:43Z</time>
      </trkpt>
      <trkpt lat="45.08688" lon="6.44222">
        <ele>2006.4</ele>
        <time>2021-02-28T09:57:44Z</time>
      </trkpt>
      <trkpt lat="45.08688" lon="6.44222">
        <ele>2006.6</ele>
        <time>2021-02-28T09:57:45Z</time>
      </trkpt>
      <trkpt lat="45.08687" lon="6.44225">
        <ele>2007</ele>
        <time>2021-02-28T09:57:46Z</time>
      </trkpt>
      <trkpt lat="45.08687" lon="6.44225">
        <ele>2006.8</ele>
        <time>2021-02-28T09:57:47Z</time>
      </trkpt>
      <trkpt lat="45.08686" lon="6.44229">
        <ele>2007</ele>
        <time>2021-02-28T09:57:48Z</time>
      </trkpt>
      <trkpt lat="45.08686" lon="6.44229">
        <ele>2007</ele>
        <time>2021-02-28T09:57:49Z</time>
      </trkpt>
      <trkpt lat="45.08685" lon="6.44233">
        <ele>2007</ele>
        <time>2021-02-28T09:57:50Z</time>
      </trkpt>
      <trkpt lat="45.08685" lon="6.44233">
        <ele>2007.4</ele>
        <time>2021-02-28T09:57:51Z</time>
      </trkpt>
      <trkpt lat="45.08684" lon="6.44236">
        <ele>2007.6</ele>
        <time>2021-02-28T09:57:52Z</time>
      </trkpt>
      <trkpt lat="45.08684" lon="6.44236">
        <ele>2007.8</ele>
        <time>2021-02-28T09:57:53Z</time>
      </trkpt>
      <trkpt lat="45.08683" lon="6.4424">
        <ele>2007.6</ele>
        <time>2021-02-28T09:57:54Z</time>
      </trkpt>
      <trkpt lat="45.08683" lon="6.4424">
        <ele>2008</ele>
        <time>2021-02-28T09:57:55Z</time>
      </trkpt>
      <trkpt lat="45.08682" lon="6.44244">
        <ele>2007.8</ele>
        <time>2021-02-28T09:57:56Z</time>
      </trkpt>
      <trkpt lat="45.08682" lon="6.44244">
        <ele>2008</ele>
        <time>2021-02-28T09:57:57Z</time>
      </trkpt>
      <trkpt lat="45.08681" lon="6.44247">
        <ele>2008.2</ele>
        <time>2021-02-28T09:57:58Z</time>
      </trkpt>
      <trkpt lat="45.08681" lon="6.44247">
        <ele>2008.2</ele>
        <time>2021-02-28T09:57:59Z</time>
      </trkpt>
      <trkpt lat="45.08679" lon="6.44251">
        <ele>2008.6</ele>
        <time>2021-02-28T09:58:00Z</time>
      </trkpt>
      <trkpt lat="45.08679" lon="6.44251">
        <ele>2008.8</ele>
        <time>2021-02-28T09:58:01Z</time>
      </trkpt>
      <trkpt lat="45.08678" lon="6.44255">
        <ele>2009</ele>
        <time>2021-02-28T09:58:02Z</time>
      </trkpt>
      <trkpt lat="45.08678" lon="6.44255">
        <ele>2009</ele>
        <time>2021-02-28T09:58:03Z</time>
      </trkpt>
      <trkpt lat="45.08677" lon="6.44259">
        <ele>2009</ele>
        <time>2021-02-28T09:58:04Z</time>
      </trkpt>
      <trkpt lat="45.08677" lon="6.44259">
        <ele>2009.2</ele>
        <time>2021-02-28T09:58:05Z</time>
      </trkpt>
      <trkpt lat="45.08676" lon="6.44262">
        <ele>2009.4</ele>
        <time>2021-02-28T09:58:06Z</time>
      </trkpt>
      <trkpt lat="45.08676" lon="6.44262">
        <ele>2009.4</ele>
        <time>2021-02-28T09:58:07Z</time>
      </trkpt>
      <trkpt lat="45.08675" lon="6.44267">
        <ele>2009.4</ele>
        <time>2021-02-28T09:58:08Z</time>
      </trkpt>
      <trkpt lat="45.08675" lon="6.44267">
        <ele>2009.6</ele>
        <time>2021-02-28T09:58:09Z</time>
      </trkpt>
      <trkpt lat="45.08674" lon="6.44271">
        <ele>2009.8</ele>
        <time>2021-02-28T09:58:10Z</time>
      </trkpt>
      <trkpt lat="45.08674" lon="6.44271">
        <ele>2009.8</ele>
        <time>2021-02-28T09:58:11Z</time>
      </trkpt>
      <trkpt lat="45.08674" lon="6.44274">
        <ele>2010</ele>
        <time>2021-02-28T09:58:12Z</time>
      </trkpt>
      <trkpt lat="45.08674" lon="6.44274">
        <ele>2010</ele>
        <time>2021-02-28T09:58:13Z</time>
      </trkpt>
      <trkpt lat="45.08673" lon="6.44278">
        <ele>2010.2</ele>
        <time>2021-02-28T09:58:14Z</time>
      </trkpt>
      <trkpt lat="45.08673" lon="6.44278">
        <ele>2010.4</ele>
        <time>2021-02-28T09:58:15Z</time>
      </trkpt>
      <trkpt lat="45.08673" lon="6.44282">
        <ele>2010.6</ele>
        <time>2021-02-28T09:58:16Z</time>
      </trkpt>
      <trkpt lat="45.08673" lon="6.44282">
        <ele>2010.6</ele>
        <time>2021-02-28T09:58:17Z</time>
      </trkpt>
      <trkpt lat="45.08672" lon="6.44285">
        <ele>2010.6</ele>
        <time>2021-02-28T09:58:18Z</time>
      </trkpt>
      <trkpt lat="45.08672" lon="6.44285">
        <ele>2010.6</ele>
        <time>2021-02-28T09:58:19Z</time>
      </trkpt>
      <trkpt lat="45.08672" lon="6.44289">
        <ele>2011</ele>
        <time>2021-02-28T09:58:20Z</time>
      </trkpt>
      <trkpt lat="45.08672" lon="6.44289">
        <ele>2011.2</ele>
        <time>2021-02-28T09:58:21Z</time>
      </trkpt>
      <trkpt lat="45.08672" lon="6.44293">
        <ele>2011.6</ele>
        <time>2021-02-28T09:58:22Z</time>
      </trkpt>
      <trkpt lat="45.08672" lon="6.44293">
        <ele>2011.6</ele>
        <time>2021-02-28T09:58:23Z</time>
      </trkpt>
      <trkpt lat="45.08671" lon="6.44297">
        <ele>2011.6</ele>
        <time>2021-02-28T09:58:24Z</time>
      </trkpt>
      <trkpt lat="45.08671" lon="6.44297">
        <ele>2012</ele>
        <time>2021-02-28T09:58:25Z</time>
      </trkpt>
      <trkpt lat="45.0867" lon="6.44301">
        <ele>2012.2</ele>
        <time>2021-02-28T09:58:26Z</time>
      </trkpt>
      <trkpt lat="45.0867" lon="6.44301">
        <ele>2012.4</ele>
        <time>2021-02-28T09:58:27Z</time>
      </trkpt>
      <trkpt lat="45.08669" lon="6.44305">
        <ele>2012.6</ele>
        <time>2021-02-28T09:58:28Z</time>
      </trkpt>
      <trkpt lat="45.08669" lon="6.44307">
        <ele>2012.4</ele>
        <time>2021-02-28T09:58:29Z</time>
      </trkpt>
      <trkpt lat="45.08669" lon="6.44307">
        <ele>2012.8</ele>
        <time>2021-02-28T09:58:30Z</time>
      </trkpt>
      <trkpt lat="45.08668" lon="6.44311">
        <ele>2012.8</ele>
        <time>2021-02-28T09:58:31Z</time>
      </trkpt>
      <trkpt lat="45.08668" lon="6.44311">
        <ele>2013</ele>
        <time>2021-02-28T09:58:32Z</time>
      </trkpt>
      <trkpt lat="45.08668" lon="6.44315">
        <ele>2013</ele>
        <time>2021-02-28T09:58:33Z</time>
      </trkpt>
      <trkpt lat="45.08668" lon="6.44315">
        <ele>2013.2</ele>
        <time>2021-02-28T09:58:34Z</time>
      </trkpt>
      <trkpt lat="45.08668" lon="6.44319">
        <ele>2013.2</ele>
        <time>2021-02-28T09:58:35Z</time>
      </trkpt>
      <trkpt lat="45.08668" lon="6.44319">
        <ele>2013.4</ele>
        <time>2021-02-28T09:58:36Z</time>
      </trkpt>
      <trkpt lat="45.08667" lon="6.44323">
        <ele>2013.8</ele>
        <time>2021-02-28T09:58:37Z</time>
      </trkpt>
      <trkpt lat="45.08667" lon="6.44323">
        <ele>2013.6</ele>
        <time>2021-02-28T09:58:38Z</time>
      </trkpt>
      <trkpt lat="45.08666" lon="6.44327">
        <ele>2013.8</ele>
        <time>2021-02-28T09:58:39Z</time>
      </trkpt>
      <trkpt lat="45.08666" lon="6.44327">
        <ele>2013.8</ele>
        <time>2021-02-28T09:58:40Z</time>
      </trkpt>
      <trkpt lat="45.08666" lon="6.4433">
        <ele>2014.4</ele>
        <time>2021-02-28T09:58:41Z</time>
      </trkpt>
      <trkpt lat="45.08666" lon="6.4433">
        <ele>2014.2</ele>
        <time>2021-02-28T09:58:42Z</time>
      </trkpt>
      <trkpt lat="45.08665" lon="6.44334">
        <ele>2014.2</ele>
        <time>2021-02-28T09:58:43Z</time>
      </trkpt>
      <trkpt lat="45.08665" lon="6.44337">
        <ele>2014.4</ele>
        <time>2021-02-28T09:58:44Z</time>
      </trkpt>
      <trkpt lat="45.08665" lon="6.44337">
        <ele>2014.6</ele>
        <time>2021-02-28T09:58:45Z</time>
      </trkpt>
      <trkpt lat="45.08665" lon="6.44341">
        <ele>2014.8</ele>
        <time>2021-02-28T09:58:46Z</time>
      </trkpt>
      <trkpt lat="45.08665" lon="6.44341">
        <ele>2015</ele>
        <time>2021-02-28T09:58:47Z</time>
      </trkpt>
      <trkpt lat="45.08664" lon="6.44344">
        <ele>2015.2</ele>
        <time>2021-02-28T09:58:48Z</time>
      </trkpt>
      <trkpt lat="45.08664" lon="6.44344">
        <ele>2015</ele>
        <time>2021-02-28T09:58:49Z</time>
      </trkpt>
      <trkpt lat="45.08663" lon="6.44348">
        <ele>2015</ele>
        <time>2021-02-28T09:58:50Z</time>
      </trkpt>
      <trkpt lat="45.08663" lon="6.44348">
        <ele>2015.2</ele>
        <time>2021-02-28T09:58:51Z</time>
      </trkpt>
      <trkpt lat="45.08663" lon="6.44352">
        <ele>2015.6</ele>
        <time>2021-02-28T09:58:52Z</time>
      </trkpt>
      <trkpt lat="45.08663" lon="6.44352">
        <ele>2015.8</ele>
        <time>2021-02-28T09:58:53Z</time>
      </trkpt>
      <trkpt lat="45.08661" lon="6.44356">
        <ele>2015.8</ele>
        <time>2021-02-28T09:58:54Z</time>
      </trkpt>
      <trkpt lat="45.08661" lon="6.44359">
        <ele>2015.4</ele>
        <time>2021-02-28T09:58:55Z</time>
      </trkpt>
      <trkpt lat="45.08661" lon="6.44359">
        <ele>2015.4</ele>
        <time>2021-02-28T09:58:56Z</time>
      </trkpt>
      <trkpt lat="45.0866" lon="6.44362">
        <ele>2015.4</ele>
        <time>2021-02-28T09:58:57Z</time>
      </trkpt>
      <trkpt lat="45.0866" lon="6.44362">
        <ele>2015.6</ele>
        <time>2021-02-28T09:58:58Z</time>
      </trkpt>
      <trkpt lat="45.08659" lon="6.44367">
        <ele>2015.4</ele>
        <time>2021-02-28T09:58:59Z</time>
      </trkpt>
      <trkpt lat="45.08659" lon="6.44367">
        <ele>2015.2</ele>
        <time>2021-02-28T09:59:00Z</time>
      </trkpt>
      <trkpt lat="45.08658" lon="6.4437">
        <ele>2015.8</ele>
        <time>2021-02-28T09:59:01Z</time>
      </trkpt>
      <trkpt lat="45.08658" lon="6.4437">
        <ele>2015.8</ele>
        <time>2021-02-28T09:59:02Z</time>
      </trkpt>
      <trkpt lat="45.08656" lon="6.44374">
        <ele>2016</ele>
        <time>2021-02-28T09:59:03Z</time>
      </trkpt>
      <trkpt lat="45.08656" lon="6.44374">
        <ele>2016</ele>
        <time>2021-02-28T09:59:04Z</time>
      </trkpt>
      <trkpt lat="45.08655" lon="6.44378">
        <ele>2016.2</ele>
        <time>2021-02-28T09:59:05Z</time>
      </trkpt>
      <trkpt lat="45.08655" lon="6.44378">
        <ele>2016.6</ele>
        <time>2021-02-28T09:59:06Z</time>
      </trkpt>
      <trkpt lat="45.08654" lon="6.44382">
        <ele>2016.6</ele>
        <time>2021-02-28T09:59:07Z</time>
      </trkpt>
      <trkpt lat="45.08654" lon="6.44382">
        <ele>2016.6</ele>
        <time>2021-02-28T09:59:08Z</time>
      </trkpt>
      <trkpt lat="45.08653" lon="6.44386">
        <ele>2017</ele>
        <time>2021-02-28T09:59:09Z</time>
      </trkpt>
      <trkpt lat="45.08653" lon="6.44386">
        <ele>2018</ele>
        <time>2021-02-28T09:59:10Z</time>
      </trkpt>
      <trkpt lat="45.08652" lon="6.44389">
        <ele>2017.6</ele>
        <time>2021-02-28T09:59:11Z</time>
      </trkpt>
      <trkpt lat="45.08652" lon="6.44389">
        <ele>2017.6</ele>
        <time>2021-02-28T09:59:12Z</time>
      </trkpt>
      <trkpt lat="45.08651" lon="6.44393">
        <ele>2017.6</ele>
        <time>2021-02-28T09:59:13Z</time>
      </trkpt>
      <trkpt lat="45.08651" lon="6.44393">
        <ele>2017.6</ele>
        <time>2021-02-28T09:59:14Z</time>
      </trkpt>
      <trkpt lat="45.08651" lon="6.44397">
        <ele>2018.8</ele>
        <time>2021-02-28T09:59:15Z</time>
      </trkpt>
      <trkpt lat="45.08651" lon="6.44397">
        <ele>2018.8</ele>
        <time>2021-02-28T09:59:16Z</time>
      </trkpt>
      <trkpt lat="45.08651" lon="6.44401">
        <ele>2018</ele>
        <time>2021-02-28T09:59:17Z</time>
      </trkpt>
      <trkpt lat="45.08651" lon="6.44404">
        <ele>2017.6</ele>
        <time>2021-02-28T09:59:18Z</time>
      </trkpt>
      <trkpt lat="45.08651" lon="6.44407">
        <ele>2017.6</ele>
        <time>2021-02-28T09:59:19Z</time>
      </trkpt>
      <trkpt lat="45.08651" lon="6.44407">
        <ele>2017.6</ele>
        <time>2021-02-28T09:59:20Z</time>
      </trkpt>
      <trkpt lat="45.08651" lon="6.44411">
        <ele>2018.2</ele>
        <time>2021-02-28T09:59:21Z</time>
      </trkpt>
      <trkpt lat="45.08651" lon="6.44411">
        <ele>2018.4</ele>
        <time>2021-02-28T09:59:22Z</time>
      </trkpt>
      <trkpt lat="45.08652" lon="6.44415">
        <ele>2018</ele>
        <time>2021-02-28T09:59:23Z</time>
      </trkpt>
      <trkpt lat="45.08652" lon="6.44415">
        <ele>2018</ele>
        <time>2021-02-28T09:59:24Z</time>
      </trkpt>
      <trkpt lat="45.08652" lon="6.44419">
        <ele>2018.2</ele>
        <time>2021-02-28T09:59:25Z</time>
      </trkpt>
      <trkpt lat="45.08652" lon="6.44419">
        <ele>2018.2</ele>
        <time>2021-02-28T09:59:26Z</time>
      </trkpt>
      <trkpt lat="45.08652" lon="6.44423">
        <ele>2018.4</ele>
        <time>2021-02-28T09:59:27Z</time>
      </trkpt>
      <trkpt lat="45.08652" lon="6.44423">
        <ele>2018.4</ele>
        <time>2021-02-28T09:59:28Z</time>
      </trkpt>
      <trkpt lat="45.08652" lon="6.44428">
        <ele>2018.6</ele>
        <time>2021-02-28T09:59:29Z</time>
      </trkpt>
      <trkpt lat="45.08652" lon="6.44428">
        <ele>2018.6</ele>
        <time>2021-02-28T09:59:30Z</time>
      </trkpt>
      <trkpt lat="45.08653" lon="6.44432">
        <ele>2018.8</ele>
        <time>2021-02-28T09:59:31Z</time>
      </trkpt>
      <trkpt lat="45.08653" lon="6.44432">
        <ele>2018.8</ele>
        <time>2021-02-28T09:59:32Z</time>
      </trkpt>
      <trkpt lat="45.08654" lon="6.44437">
        <ele>2018.6</ele>
        <time>2021-02-28T09:59:33Z</time>
      </trkpt>
      <trkpt lat="45.08654" lon="6.44437">
        <ele>2018.4</ele>
        <time>2021-02-28T09:59:34Z</time>
      </trkpt>
      <trkpt lat="45.08654" lon="6.44441">
        <ele>2019</ele>
        <time>2021-02-28T09:59:35Z</time>
      </trkpt>
      <trkpt lat="45.08654" lon="6.44441">
        <ele>2019</ele>
        <time>2021-02-28T09:59:36Z</time>
      </trkpt>
      <trkpt lat="45.08655" lon="6.44445">
        <ele>2019</ele>
        <time>2021-02-28T09:59:37Z</time>
      </trkpt>
      <trkpt lat="45.08655" lon="6.44448">
        <ele>2019.2</ele>
        <time>2021-02-28T09:59:38Z</time>
      </trkpt>
      <trkpt lat="45.08655" lon="6.44448">
        <ele>2019.2</ele>
        <time>2021-02-28T09:59:39Z</time>
      </trkpt>
      <trkpt lat="45.08656" lon="6.44452">
        <ele>2019.6</ele>
        <time>2021-02-28T09:59:40Z</time>
      </trkpt>
      <trkpt lat="45.08656" lon="6.44455">
        <ele>2019.6</ele>
        <time>2021-02-28T09:59:41Z</time>
      </trkpt>
      <trkpt lat="45.08656" lon="6.44457">
        <ele>2019.4</ele>
        <time>2021-02-28T09:59:42Z</time>
      </trkpt>
      <trkpt lat="45.08656" lon="6.4446">
        <ele>2019.2</ele>
        <time>2021-02-28T09:59:43Z</time>
      </trkpt>
      <trkpt lat="45.08656" lon="6.4446">
        <ele>2019.2</ele>
        <time>2021-02-28T09:59:44Z</time>
      </trkpt>
      <trkpt lat="45.08656" lon="6.44464">
        <ele>2019.2</ele>
        <time>2021-02-28T09:59:45Z</time>
      </trkpt>
      <trkpt lat="45.08656" lon="6.44464">
        <ele>2019.2</ele>
        <time>2021-02-28T09:59:46Z</time>
      </trkpt>
      <trkpt lat="45.08655" lon="6.44468">
        <ele>2019.4</ele>
        <time>2021-02-28T09:59:47Z</time>
      </trkpt>
      <trkpt lat="45.08655" lon="6.44468">
        <ele>2019.4</ele>
        <time>2021-02-28T09:59:48Z</time>
      </trkpt>
      <trkpt lat="45.08655" lon="6.44472">
        <ele>2019.4</ele>
        <time>2021-02-28T09:59:49Z</time>
      </trkpt>
      <trkpt lat="45.08655" lon="6.44472">
        <ele>2019.8</ele>
        <time>2021-02-28T09:59:50Z</time>
      </trkpt>
      <trkpt lat="45.08654" lon="6.44476">
        <ele>2019.8</ele>
        <time>2021-02-28T09:59:51Z</time>
      </trkpt>
      <trkpt lat="45.08654" lon="6.44476">
        <ele>2020.2</ele>
        <time>2021-02-28T09:59:52Z</time>
      </trkpt>
      <trkpt lat="45.08652" lon="6.4448">
        <ele>2020.2</ele>
        <time>2021-02-28T09:59:53Z</time>
      </trkpt>
      <trkpt lat="45.08652" lon="6.4448">
        <ele>2020.4</ele>
        <time>2021-02-28T09:59:54Z</time>
      </trkpt>
      <trkpt lat="45.0865" lon="6.44483">
        <ele>2020.4</ele>
        <time>2021-02-28T09:59:55Z</time>
      </trkpt>
      <trkpt lat="45.0865" lon="6.44483">
        <ele>2020.6</ele>
        <time>2021-02-28T09:59:56Z</time>
      </trkpt>
      <trkpt lat="45.08649" lon="6.44486">
        <ele>2020.6</ele>
        <time>2021-02-28T09:59:57Z</time>
      </trkpt>
      <trkpt lat="45.08649" lon="6.44486">
        <ele>2020.8</ele>
        <time>2021-02-28T09:59:58Z</time>
      </trkpt>
      <trkpt lat="45.08647" lon="6.44489">
        <ele>2021</ele>
        <time>2021-02-28T09:59:59Z</time>
      </trkpt>
      <trkpt lat="45.08647" lon="6.44489">
        <ele>2021</ele>
        <time>2021-02-28T10:00:00Z</time>
      </trkpt>
      <trkpt lat="45.08645" lon="6.44492">
        <ele>2021.2</ele>
        <time>2021-02-28T10:00:01Z</time>
      </trkpt>
      <trkpt lat="45.08645" lon="6.44492">
        <ele>2021.2</ele>
        <time>2021-02-28T10:00:02Z</time>
      </trkpt>
      <trkpt lat="45.08643" lon="6.44496">
        <ele>2021.2</ele>
        <time>2021-02-28T10:00:03Z</time>
      </trkpt>
      <trkpt lat="45.08643" lon="6.44496">
        <ele>2021</ele>
        <time>2021-02-28T10:00:04Z</time>
      </trkpt>
      <trkpt lat="45.08642" lon="6.44498">
        <ele>2021.4</ele>
        <time>2021-02-28T10:00:05Z</time>
      </trkpt>
      <trkpt lat="45.08642" lon="6.44498">
        <ele>2021.6</ele>
        <time>2021-02-28T10:00:06Z</time>
      </trkpt>
      <trkpt lat="45.0864" lon="6.44501">
        <ele>2021.8</ele>
        <time>2021-02-28T10:00:07Z</time>
      </trkpt>
      <trkpt lat="45.0864" lon="6.44501">
        <ele>2022</ele>
        <time>2021-02-28T10:00:08Z</time>
      </trkpt>
      <trkpt lat="45.08638" lon="6.44504">
        <ele>2021.8</ele>
        <time>2021-02-28T10:00:09Z</time>
      </trkpt>
      <trkpt lat="45.08638" lon="6.44504">
        <ele>2022.2</ele>
        <time>2021-02-28T10:00:10Z</time>
      </trkpt>
      <trkpt lat="45.08636" lon="6.44507">
        <ele>2022.2</ele>
        <time>2021-02-28T10:00:11Z</time>
      </trkpt>
      <trkpt lat="45.08636" lon="6.44507">
        <ele>2022.2</ele>
        <time>2021-02-28T10:00:12Z</time>
      </trkpt>
      <trkpt lat="45.08634" lon="6.4451">
        <ele>2022.2</ele>
        <time>2021-02-28T10:00:13Z</time>
      </trkpt>
      <trkpt lat="45.08634" lon="6.4451">
        <ele>2022.2</ele>
        <time>2021-02-28T10:00:14Z</time>
      </trkpt>
      <trkpt lat="45.08632" lon="6.44512">
        <ele>2022.6</ele>
        <time>2021-02-28T10:00:15Z</time>
      </trkpt>
      <trkpt lat="45.08632" lon="6.44512">
        <ele>2022.6</ele>
        <time>2021-02-28T10:00:16Z</time>
      </trkpt>
      <trkpt lat="45.0863" lon="6.44515">
        <ele>2023</ele>
        <time>2021-02-28T10:00:17Z</time>
      </trkpt>
      <trkpt lat="45.0863" lon="6.44515">
        <ele>2023</ele>
        <time>2021-02-28T10:00:18Z</time>
      </trkpt>
      <trkpt lat="45.08628" lon="6.44517">
        <ele>2023.4</ele>
        <time>2021-02-28T10:00:19Z</time>
      </trkpt>
      <trkpt lat="45.08628" lon="6.44517">
        <ele>2023.6</ele>
        <time>2021-02-28T10:00:20Z</time>
      </trkpt>
      <trkpt lat="45.08626" lon="6.44519">
        <ele>2024</ele>
        <time>2021-02-28T10:00:21Z</time>
      </trkpt>
      <trkpt lat="45.08626" lon="6.44519">
        <ele>2024</ele>
        <time>2021-02-28T10:00:22Z</time>
      </trkpt>
      <trkpt lat="45.08624" lon="6.44522">
        <ele>2024.2</ele>
        <time>2021-02-28T10:00:23Z</time>
      </trkpt>
      <trkpt lat="45.08624" lon="6.44522">
        <ele>2024.4</ele>
        <time>2021-02-28T10:00:24Z</time>
      </trkpt>
      <trkpt lat="45.08622" lon="6.44525">
        <ele>2024.8</ele>
        <time>2021-02-28T10:00:25Z</time>
      </trkpt>
      <trkpt lat="45.08622" lon="6.44525">
        <ele>2025</ele>
        <time>2021-02-28T10:00:26Z</time>
      </trkpt>
      <trkpt lat="45.0862" lon="6.44527">
        <ele>2025.2</ele>
        <time>2021-02-28T10:00:27Z</time>
      </trkpt>
      <trkpt lat="45.0862" lon="6.44527">
        <ele>2025.4</ele>
        <time>2021-02-28T10:00:28Z</time>
      </trkpt>
      <trkpt lat="45.08618" lon="6.44529">
        <ele>2025.8</ele>
        <time>2021-02-28T10:00:29Z</time>
      </trkpt>
      <trkpt lat="45.08618" lon="6.44529">
        <ele>2026.6</ele>
        <time>2021-02-28T10:00:30Z</time>
      </trkpt>
      <trkpt lat="45.08616" lon="6.44531">
        <ele>2026.4</ele>
        <time>2021-02-28T10:00:31Z</time>
      </trkpt>
      <trkpt lat="45.08616" lon="6.44531">
        <ele>2025.8</ele>
        <time>2021-02-28T10:00:32Z</time>
      </trkpt>
      <trkpt lat="45.08613" lon="6.44534">
        <ele>2026</ele>
        <time>2021-02-28T10:00:33Z</time>
      </trkpt>
      <trkpt lat="45.08613" lon="6.44534">
        <ele>2026</ele>
        <time>2021-02-28T10:00:34Z</time>
      </trkpt>
      <trkpt lat="45.08611" lon="6.44536">
        <ele>2026.2</ele>
        <time>2021-02-28T10:00:35Z</time>
      </trkpt>
      <trkpt lat="45.08611" lon="6.44536">
        <ele>2026.2</ele>
        <time>2021-02-28T10:00:36Z</time>
      </trkpt>
      <trkpt lat="45.08608" lon="6.44538">
        <ele>2026</ele>
        <time>2021-02-28T10:00:37Z</time>
      </trkpt>
      <trkpt lat="45.08608" lon="6.44538">
        <ele>2026.2</ele>
        <time>2021-02-28T10:00:38Z</time>
      </trkpt>
      <trkpt lat="45.08606" lon="6.44541">
        <ele>2026.2</ele>
        <time>2021-02-28T10:00:39Z</time>
      </trkpt>
      <trkpt lat="45.08606" lon="6.44541">
        <ele>2026.4</ele>
        <time>2021-02-28T10:00:40Z</time>
      </trkpt>
      <trkpt lat="45.08604" lon="6.44543">
        <ele>2026.4</ele>
        <time>2021-02-28T10:00:41Z</time>
      </trkpt>
      <trkpt lat="45.08604" lon="6.44543">
        <ele>2026.6</ele>
        <time>2021-02-28T10:00:42Z</time>
      </trkpt>
      <trkpt lat="45.08602" lon="6.44546">
        <ele>2026.6</ele>
        <time>2021-02-28T10:00:43Z</time>
      </trkpt>
      <trkpt lat="45.08602" lon="6.44546">
        <ele>2026.6</ele>
        <time>2021-02-28T10:00:44Z</time>
      </trkpt>
      <trkpt lat="45.086" lon="6.44548">
        <ele>2026.6</ele>
        <time>2021-02-28T10:00:45Z</time>
      </trkpt>
      <trkpt lat="45.086" lon="6.44548">
        <ele>2026.6</ele>
        <time>2021-02-28T10:00:46Z</time>
      </trkpt>
      <trkpt lat="45.08598" lon="6.44551">
        <ele>2026.8</ele>
        <time>2021-02-28T10:00:47Z</time>
      </trkpt>
      <trkpt lat="45.08598" lon="6.44551">
        <ele>2027</ele>
        <time>2021-02-28T10:00:48Z</time>
      </trkpt>
      <trkpt lat="45.08597" lon="6.44554">
        <ele>2027.4</ele>
        <time>2021-02-28T10:00:49Z</time>
      </trkpt>
      <trkpt lat="45.08597" lon="6.44554">
        <ele>2027.4</ele>
        <time>2021-02-28T10:00:50Z</time>
      </trkpt>
      <trkpt lat="45.08595" lon="6.44556">
        <ele>2027.8</ele>
        <time>2021-02-28T10:00:51Z</time>
      </trkpt>
      <trkpt lat="45.08595" lon="6.44556">
        <ele>2028</ele>
        <time>2021-02-28T10:00:52Z</time>
      </trkpt>
      <trkpt lat="45.08593" lon="6.44559">
        <ele>2028</ele>
        <time>2021-02-28T10:00:53Z</time>
      </trkpt>
      <trkpt lat="45.08593" lon="6.44559">
        <ele>2028.2</ele>
        <time>2021-02-28T10:00:54Z</time>
      </trkpt>
      <trkpt lat="45.08592" lon="6.44561">
        <ele>2028</ele>
        <time>2021-02-28T10:00:55Z</time>
      </trkpt>
      <trkpt lat="45.08592" lon="6.44561">
        <ele>2028.2</ele>
        <time>2021-02-28T10:00:56Z</time>
      </trkpt>
      <trkpt lat="45.0859" lon="6.44564">
        <ele>2028.4</ele>
        <time>2021-02-28T10:00:57Z</time>
      </trkpt>
      <trkpt lat="45.0859" lon="6.44564">
        <ele>2028.6</ele>
        <time>2021-02-28T10:00:58Z</time>
      </trkpt>
      <trkpt lat="45.08588" lon="6.44566">
        <ele>2028.8</ele>
        <time>2021-02-28T10:00:59Z</time>
      </trkpt>
      <trkpt lat="45.08588" lon="6.44566">
        <ele>2028.8</ele>
        <time>2021-02-28T10:01:00Z</time>
      </trkpt>
      <trkpt lat="45.08587" lon="6.44569">
        <ele>2029</ele>
        <time>2021-02-28T10:01:01Z</time>
      </trkpt>
      <trkpt lat="45.08587" lon="6.44569">
        <ele>2029</ele>
        <time>2021-02-28T10:01:02Z</time>
      </trkpt>
      <trkpt lat="45.08585" lon="6.44572">
        <ele>2029.2</ele>
        <time>2021-02-28T10:01:03Z</time>
      </trkpt>
      <trkpt lat="45.08585" lon="6.44572">
        <ele>2029.2</ele>
        <time>2021-02-28T10:01:04Z</time>
      </trkpt>
      <trkpt lat="45.08584" lon="6.44575">
        <ele>2029.4</ele>
        <time>2021-02-28T10:01:05Z</time>
      </trkpt>
      <trkpt lat="45.08584" lon="6.44575">
        <ele>2029.8</ele>
        <time>2021-02-28T10:01:06Z</time>
      </trkpt>
      <trkpt lat="45.08582" lon="6.44578">
        <ele>2029.8</ele>
        <time>2021-02-28T10:01:07Z</time>
      </trkpt>
      <trkpt lat="45.08582" lon="6.44578">
        <ele>2029.8</ele>
        <time>2021-02-28T10:01:08Z</time>
      </trkpt>
      <trkpt lat="45.08581" lon="6.44581">
        <ele>2030.2</ele>
        <time>2021-02-28T10:01:09Z</time>
      </trkpt>
      <trkpt lat="45.08581" lon="6.44581">
        <ele>2030.2</ele>
        <time>2021-02-28T10:01:10Z</time>
      </trkpt>
      <trkpt lat="45.0858" lon="6.44584">
        <ele>2030.2</ele>
        <time>2021-02-28T10:01:11Z</time>
      </trkpt>
      <trkpt lat="45.0858" lon="6.44584">
        <ele>2030.4</ele>
        <time>2021-02-28T10:01:12Z</time>
      </trkpt>
      <trkpt lat="45.08579" lon="6.44587">
        <ele>2030.6</ele>
        <time>2021-02-28T10:01:13Z</time>
      </trkpt>
      <trkpt lat="45.08579" lon="6.44587">
        <ele>2030.6</ele>
        <time>2021-02-28T10:01:14Z</time>
      </trkpt>
      <trkpt lat="45.08578" lon="6.44591">
        <ele>2030.8</ele>
        <time>2021-02-28T10:01:15Z</time>
      </trkpt>
      <trkpt lat="45.08578" lon="6.44591">
        <ele>2030.8</ele>
        <time>2021-02-28T10:01:16Z</time>
      </trkpt>
      <trkpt lat="45.08577" lon="6.44593">
        <ele>2031</ele>
        <time>2021-02-28T10:01:17Z</time>
      </trkpt>
      <trkpt lat="45.08577" lon="6.44593">
        <ele>2031.2</ele>
        <time>2021-02-28T10:01:18Z</time>
      </trkpt>
      <trkpt lat="45.08575" lon="6.44597">
        <ele>2031</ele>
        <time>2021-02-28T10:01:19Z</time>
      </trkpt>
      <trkpt lat="45.08575" lon="6.44597">
        <ele>2031.4</ele>
        <time>2021-02-28T10:01:20Z</time>
      </trkpt>
      <trkpt lat="45.08573" lon="6.446">
        <ele>2031.8</ele>
        <time>2021-02-28T10:01:21Z</time>
      </trkpt>
      <trkpt lat="45.08573" lon="6.446">
        <ele>2032.2</ele>
        <time>2021-02-28T10:01:22Z</time>
      </trkpt>
      <trkpt lat="45.08572" lon="6.44604">
        <ele>2032</ele>
        <time>2021-02-28T10:01:23Z</time>
      </trkpt>
      <trkpt lat="45.08572" lon="6.44604">
        <ele>2031.8</ele>
        <time>2021-02-28T10:01:24Z</time>
      </trkpt>
      <trkpt lat="45.08571" lon="6.44607">
        <ele>2032</ele>
        <time>2021-02-28T10:01:25Z</time>
      </trkpt>
      <trkpt lat="45.08571" lon="6.44607">
        <ele>2032.6</ele>
        <time>2021-02-28T10:01:26Z</time>
      </trkpt>
      <trkpt lat="45.08569" lon="6.44611">
        <ele>2033.6</ele>
        <time>2021-02-28T10:01:27Z</time>
      </trkpt>
      <trkpt lat="45.08569" lon="6.44611">
        <ele>2033.4</ele>
        <time>2021-02-28T10:01:28Z</time>
      </trkpt>
      <trkpt lat="45.08568" lon="6.44614">
        <ele>2033</ele>
        <time>2021-02-28T10:01:29Z</time>
      </trkpt>
      <trkpt lat="45.08568" lon="6.44614">
        <ele>2032.8</ele>
        <time>2021-02-28T10:01:30Z</time>
      </trkpt>
      <trkpt lat="45.08566" lon="6.44618">
        <ele>2033</ele>
        <time>2021-02-28T10:01:31Z</time>
      </trkpt>
      <trkpt lat="45.08566" lon="6.44618">
        <ele>2033.2</ele>
        <time>2021-02-28T10:01:32Z</time>
      </trkpt>
      <trkpt lat="45.08565" lon="6.4462">
        <ele>2033.2</ele>
        <time>2021-02-28T10:01:33Z</time>
      </trkpt>
      <trkpt lat="45.08565" lon="6.4462">
        <ele>2033</ele>
        <time>2021-02-28T10:01:34Z</time>
      </trkpt>
      <trkpt lat="45.08564" lon="6.44623">
        <ele>2033.2</ele>
        <time>2021-02-28T10:01:35Z</time>
      </trkpt>
      <trkpt lat="45.08564" lon="6.44623">
        <ele>2033.4</ele>
        <time>2021-02-28T10:01:36Z</time>
      </trkpt>
      <trkpt lat="45.08563" lon="6.44625">
        <ele>2033.6</ele>
        <time>2021-02-28T10:01:37Z</time>
      </trkpt>
      <trkpt lat="45.08563" lon="6.44625">
        <ele>2033.6</ele>
        <time>2021-02-28T10:01:38Z</time>
      </trkpt>
      <trkpt lat="45.08561" lon="6.44629">
        <ele>2033.6</ele>
        <time>2021-02-28T10:01:39Z</time>
      </trkpt>
      <trkpt lat="45.08561" lon="6.44629">
        <ele>2033.8</ele>
        <time>2021-02-28T10:01:40Z</time>
      </trkpt>
      <trkpt lat="45.0856" lon="6.44633">
        <ele>2033.8</ele>
        <time>2021-02-28T10:01:41Z</time>
      </trkpt>
      <trkpt lat="45.0856" lon="6.44633">
        <ele>2034.2</ele>
        <time>2021-02-28T10:01:42Z</time>
      </trkpt>
      <trkpt lat="45.08558" lon="6.44637">
        <ele>2034.4</ele>
        <time>2021-02-28T10:01:43Z</time>
      </trkpt>
      <trkpt lat="45.08558" lon="6.44637">
        <ele>2034.6</ele>
        <time>2021-02-28T10:01:44Z</time>
      </trkpt>
      <trkpt lat="45.08556" lon="6.44641">
        <ele>2034.4</ele>
        <time>2021-02-28T10:01:45Z</time>
      </trkpt>
      <trkpt lat="45.08556" lon="6.44641">
        <ele>2034.4</ele>
        <time>2021-02-28T10:01:46Z</time>
      </trkpt>
      <trkpt lat="45.08555" lon="6.44644">
        <ele>2034.6</ele>
        <time>2021-02-28T10:01:47Z</time>
      </trkpt>
      <trkpt lat="45.08555" lon="6.44644">
        <ele>2034.8</ele>
        <time>2021-02-28T10:01:48Z</time>
      </trkpt>
      <trkpt lat="45.08554" lon="6.44647">
        <ele>2034.6</ele>
        <time>2021-02-28T10:01:49Z</time>
      </trkpt>
      <trkpt lat="45.08554" lon="6.44647">
        <ele>2034.6</ele>
        <time>2021-02-28T10:01:50Z</time>
      </trkpt>
      <trkpt lat="45.08552" lon="6.44651">
        <ele>2034.8</ele>
        <time>2021-02-28T10:01:51Z</time>
      </trkpt>
      <trkpt lat="45.08552" lon="6.44651">
        <ele>2035</ele>
        <time>2021-02-28T10:01:52Z</time>
      </trkpt>
      <trkpt lat="45.08551" lon="6.44655">
        <ele>2035.2</ele>
        <time>2021-02-28T10:01:53Z</time>
      </trkpt>
      <trkpt lat="45.0855" lon="6.44658">
        <ele>2035</ele>
        <time>2021-02-28T10:01:54Z</time>
      </trkpt>
      <trkpt lat="45.0855" lon="6.44658">
        <ele>2035.2</ele>
        <time>2021-02-28T10:01:55Z</time>
      </trkpt>
      <trkpt lat="45.08549" lon="6.44662">
        <ele>2035.4</ele>
        <time>2021-02-28T10:01:56Z</time>
      </trkpt>
      <trkpt lat="45.08549" lon="6.44662">
        <ele>2035.6</ele>
        <time>2021-02-28T10:01:57Z</time>
      </trkpt>
      <trkpt lat="45.08547" lon="6.44665">
        <ele>2035.6</ele>
        <time>2021-02-28T10:01:58Z</time>
      </trkpt>
      <trkpt lat="45.08546" lon="6.44668">
        <ele>2035.8</ele>
        <time>2021-02-28T10:01:59Z</time>
      </trkpt>
      <trkpt lat="45.08545" lon="6.4467">
        <ele>2035.6</ele>
        <time>2021-02-28T10:02:00Z</time>
      </trkpt>
      <trkpt lat="45.08545" lon="6.4467">
        <ele>2035.8</ele>
        <time>2021-02-28T10:02:01Z</time>
      </trkpt>
      <trkpt lat="45.08544" lon="6.44673">
        <ele>2035.8</ele>
        <time>2021-02-28T10:02:02Z</time>
      </trkpt>
      <trkpt lat="45.08543" lon="6.44676">
        <ele>2036</ele>
        <time>2021-02-28T10:02:03Z</time>
      </trkpt>
      <trkpt lat="45.08542" lon="6.44678">
        <ele>2036.2</ele>
        <time>2021-02-28T10:02:04Z</time>
      </trkpt>
      <trkpt lat="45.08542" lon="6.44678">
        <ele>2036.2</ele>
        <time>2021-02-28T10:02:05Z</time>
      </trkpt>
      <trkpt lat="45.08541" lon="6.44681">
        <ele>2036.4</ele>
        <time>2021-02-28T10:02:06Z</time>
      </trkpt>
      <trkpt lat="45.08541" lon="6.44681">
        <ele>2036.6</ele>
        <time>2021-02-28T10:02:07Z</time>
      </trkpt>
      <trkpt lat="45.0854" lon="6.44685">
        <ele>2036.6</ele>
        <time>2021-02-28T10:02:08Z</time>
      </trkpt>
      <trkpt lat="45.0854" lon="6.44685">
        <ele>2036.4</ele>
        <time>2021-02-28T10:02:09Z</time>
      </trkpt>
      <trkpt lat="45.08539" lon="6.44689">
        <ele>2036.2</ele>
        <time>2021-02-28T10:02:10Z</time>
      </trkpt>
      <trkpt lat="45.08539" lon="6.44689">
        <ele>2036.4</ele>
        <time>2021-02-28T10:02:11Z</time>
      </trkpt>
      <trkpt lat="45.08538" lon="6.44693">
        <ele>2037</ele>
        <time>2021-02-28T10:02:12Z</time>
      </trkpt>
      <trkpt lat="45.08538" lon="6.44693">
        <ele>2037</ele>
        <time>2021-02-28T10:02:13Z</time>
      </trkpt>
      <trkpt lat="45.08537" lon="6.44697">
        <ele>2037</ele>
        <time>2021-02-28T10:02:14Z</time>
      </trkpt>
      <trkpt lat="45.08537" lon="6.44697">
        <ele>2037</ele>
        <time>2021-02-28T10:02:15Z</time>
      </trkpt>
      <trkpt lat="45.08536" lon="6.44701">
        <ele>2037.2</ele>
        <time>2021-02-28T10:02:16Z</time>
      </trkpt>
      <trkpt lat="45.08536" lon="6.44701">
        <ele>2037.4</ele>
        <time>2021-02-28T10:02:17Z</time>
      </trkpt>
      <trkpt lat="45.08536" lon="6.44705">
        <ele>2037.2</ele>
        <time>2021-02-28T10:02:18Z</time>
      </trkpt>
      <trkpt lat="45.08536" lon="6.44705">
        <ele>2037</ele>
        <time>2021-02-28T10:02:19Z</time>
      </trkpt>
      <trkpt lat="45.08535" lon="6.44709">
        <ele>2036.8</ele>
        <time>2021-02-28T10:02:20Z</time>
      </trkpt>
      <trkpt lat="45.08535" lon="6.44709">
        <ele>2037</ele>
        <time>2021-02-28T10:02:21Z</time>
      </trkpt>
      <trkpt lat="45.08534" lon="6.44713">
        <ele>2037.4</ele>
        <time>2021-02-28T10:02:22Z</time>
      </trkpt>
      <trkpt lat="45.08534" lon="6.44713">
        <ele>2037.6</ele>
        <time>2021-02-28T10:02:23Z</time>
      </trkpt>
      <trkpt lat="45.08534" lon="6.44718">
        <ele>2037.2</ele>
        <time>2021-02-28T10:02:24Z</time>
      </trkpt>
      <trkpt lat="45.08534" lon="6.44718">
        <ele>2037.2</ele>
        <time>2021-02-28T10:02:25Z</time>
      </trkpt>
      <trkpt lat="45.08534" lon="6.44722">
        <ele>2037.4</ele>
        <time>2021-02-28T10:02:26Z</time>
      </trkpt>
      <trkpt lat="45.08534" lon="6.44722">
        <ele>2037.8</ele>
        <time>2021-02-28T10:02:27Z</time>
      </trkpt>
      <trkpt lat="45.08534" lon="6.44726">
        <ele>2038</ele>
        <time>2021-02-28T10:02:28Z</time>
      </trkpt>
      <trkpt lat="45.08534" lon="6.44726">
        <ele>2037.8</ele>
        <time>2021-02-28T10:02:29Z</time>
      </trkpt>
      <trkpt lat="45.08533" lon="6.4473">
        <ele>2038</ele>
        <time>2021-02-28T10:02:30Z</time>
      </trkpt>
      <trkpt lat="45.08533" lon="6.4473">
        <ele>2037.8</ele>
        <time>2021-02-28T10:02:31Z</time>
      </trkpt>
      <trkpt lat="45.08533" lon="6.44734">
        <ele>2038</ele>
        <time>2021-02-28T10:02:32Z</time>
      </trkpt>
      <trkpt lat="45.08533" lon="6.44734">
        <ele>2038.2</ele>
        <time>2021-02-28T10:02:33Z</time>
      </trkpt>
      <trkpt lat="45.08533" lon="6.44734">
        <ele>2038.2</ele>
        <time>2021-02-28T10:02:34Z</time>
      </trkpt>
      <trkpt lat="45.08533" lon="6.4474">
        <ele>2038.4</ele>
        <time>2021-02-28T10:02:35Z</time>
      </trkpt>
      <trkpt lat="45.08533" lon="6.4474">
        <ele>2038.4</ele>
        <time>2021-02-28T10:02:36Z</time>
      </trkpt>
      <trkpt lat="45.08533" lon="6.4474">
        <ele>2038.8</ele>
        <time>2021-02-28T10:02:37Z</time>
      </trkpt>
      <trkpt lat="45.08533" lon="6.44742">
        <ele>2039</ele>
        <time>2021-02-28T10:02:38Z</time>
      </trkpt>
      <trkpt lat="45.08533" lon="6.44744">
        <ele>2039</ele>
        <time>2021-02-28T10:02:39Z</time>
      </trkpt>
      <trkpt lat="45.08533" lon="6.44746">
        <ele>2039.2</ele>
        <time>2021-02-28T10:02:40Z</time>
      </trkpt>
      <trkpt lat="45.08533" lon="6.44748">
        <ele>2039.4</ele>
        <time>2021-02-28T10:02:41Z</time>
      </trkpt>
      <trkpt lat="45.08533" lon="6.4475">
        <ele>2039.4</ele>
        <time>2021-02-28T10:02:42Z</time>
      </trkpt>
      <trkpt lat="45.08533" lon="6.44752">
        <ele>2039.6</ele>
        <time>2021-02-28T10:02:43Z</time>
      </trkpt>
      <trkpt lat="45.08532" lon="6.44754">
        <ele>2039.6</ele>
        <time>2021-02-28T10:02:44Z</time>
      </trkpt>
      <trkpt lat="45.08532" lon="6.44759">
        <ele>2039.8</ele>
        <time>2021-02-28T10:02:45Z</time>
      </trkpt>
      <trkpt lat="45.08532" lon="6.44759">
        <ele>2040</ele>
        <time>2021-02-28T10:02:46Z</time>
      </trkpt>
      <trkpt lat="45.08532" lon="6.44763">
        <ele>2040.4</ele>
        <time>2021-02-28T10:02:47Z</time>
      </trkpt>
      <trkpt lat="45.08532" lon="6.44763">
        <ele>2040.6</ele>
        <time>2021-02-28T10:02:48Z</time>
      </trkpt>
      <trkpt lat="45.08533" lon="6.44767">
        <ele>2040.6</ele>
        <time>2021-02-28T10:02:49Z</time>
      </trkpt>
      <trkpt lat="45.08533" lon="6.44767">
        <ele>2040.6</ele>
        <time>2021-02-28T10:02:50Z</time>
      </trkpt>
      <trkpt lat="45.08532" lon="6.44771">
        <ele>2041</ele>
        <time>2021-02-28T10:02:51Z</time>
      </trkpt>
      <trkpt lat="45.08532" lon="6.44771">
        <ele>2041.4</ele>
        <time>2021-02-28T10:02:52Z</time>
      </trkpt>
      <trkpt lat="45.08531" lon="6.44774">
        <ele>2041.8</ele>
        <time>2021-02-28T10:02:53Z</time>
      </trkpt>
      <trkpt lat="45.08531" lon="6.44774">
        <ele>2042</ele>
        <time>2021-02-28T10:02:54Z</time>
      </trkpt>
      <trkpt lat="45.08531" lon="6.44778">
        <ele>2042</ele>
        <time>2021-02-28T10:02:55Z</time>
      </trkpt>
      <trkpt lat="45.08531" lon="6.44778">
        <ele>2042</ele>
        <time>2021-02-28T10:02:56Z</time>
      </trkpt>
      <trkpt lat="45.08532" lon="6.44782">
        <ele>2042</ele>
        <time>2021-02-28T10:02:57Z</time>
      </trkpt>
      <trkpt lat="45.08532" lon="6.44782">
        <ele>2042.4</ele>
        <time>2021-02-28T10:02:58Z</time>
      </trkpt>
      <trkpt lat="45.08531" lon="6.44785">
        <ele>2042.2</ele>
        <time>2021-02-28T10:02:59Z</time>
      </trkpt>
      <trkpt lat="45.08531" lon="6.44785">
        <ele>2042.2</ele>
        <time>2021-02-28T10:03:00Z</time>
      </trkpt>
      <trkpt lat="45.08531" lon="6.4479">
        <ele>2042.2</ele>
        <time>2021-02-28T10:03:01Z</time>
      </trkpt>
      <trkpt lat="45.08531" lon="6.4479">
        <ele>2042.4</ele>
        <time>2021-02-28T10:03:02Z</time>
      </trkpt>
      <trkpt lat="45.08531" lon="6.44793">
        <ele>2042.8</ele>
        <time>2021-02-28T10:03:03Z</time>
      </trkpt>
      <trkpt lat="45.08531" lon="6.44793">
        <ele>2042.8</ele>
        <time>2021-02-28T10:03:04Z</time>
      </trkpt>
      <trkpt lat="45.08531" lon="6.44798">
        <ele>2043</ele>
        <time>2021-02-28T10:03:05Z</time>
      </trkpt>
      <trkpt lat="45.08531" lon="6.44798">
        <ele>2043.4</ele>
        <time>2021-02-28T10:03:06Z</time>
      </trkpt>
      <trkpt lat="45.08531" lon="6.44802">
        <ele>2043.8</ele>
        <time>2021-02-28T10:03:07Z</time>
      </trkpt>
      <trkpt lat="45.08531" lon="6.44802">
        <ele>2043.8</ele>
        <time>2021-02-28T10:03:08Z</time>
      </trkpt>
      <trkpt lat="45.08531" lon="6.44806">
        <ele>2043.8</ele>
        <time>2021-02-28T10:03:09Z</time>
      </trkpt>
      <trkpt lat="45.08531" lon="6.44806">
        <ele>2044</ele>
        <time>2021-02-28T10:03:10Z</time>
      </trkpt>
      <trkpt lat="45.08531" lon="6.4481">
        <ele>2044.2</ele>
        <time>2021-02-28T10:03:11Z</time>
      </trkpt>
      <trkpt lat="45.08531" lon="6.4481">
        <ele>2044.4</ele>
        <time>2021-02-28T10:03:12Z</time>
      </trkpt>
      <trkpt lat="45.0853" lon="6.44813">
        <ele>2044.6</ele>
        <time>2021-02-28T10:03:13Z</time>
      </trkpt>
      <trkpt lat="45.0853" lon="6.44813">
        <ele>2044.6</ele>
        <time>2021-02-28T10:03:14Z</time>
      </trkpt>
      <trkpt lat="45.0853" lon="6.44816">
        <ele>2044.4</ele>
        <time>2021-02-28T10:03:15Z</time>
      </trkpt>
      <trkpt lat="45.0853" lon="6.44816">
        <ele>2044.4</ele>
        <time>2021-02-28T10:03:16Z</time>
      </trkpt>
      <trkpt lat="45.0853" lon="6.4482">
        <ele>2044.6</ele>
        <time>2021-02-28T10:03:17Z</time>
      </trkpt>
      <trkpt lat="45.0853" lon="6.4482">
        <ele>2045</ele>
        <time>2021-02-28T10:03:18Z</time>
      </trkpt>
      <trkpt lat="45.08529" lon="6.44824">
        <ele>2045.4</ele>
        <time>2021-02-28T10:03:19Z</time>
      </trkpt>
      <trkpt lat="45.08529" lon="6.44824">
        <ele>2045.8</ele>
        <time>2021-02-28T10:03:20Z</time>
      </trkpt>
      <trkpt lat="45.08529" lon="6.44828">
        <ele>2046</ele>
        <time>2021-02-28T10:03:21Z</time>
      </trkpt>
      <trkpt lat="45.08529" lon="6.44828">
        <ele>2046.2</ele>
        <time>2021-02-28T10:03:22Z</time>
      </trkpt>
      <trkpt lat="45.08529" lon="6.44832">
        <ele>2046.6</ele>
        <time>2021-02-28T10:03:23Z</time>
      </trkpt>
      <trkpt lat="45.08529" lon="6.44832">
        <ele>2046.4</ele>
        <time>2021-02-28T10:03:24Z</time>
      </trkpt>
      <trkpt lat="45.08528" lon="6.44836">
        <ele>2046.8</ele>
        <time>2021-02-28T10:03:25Z</time>
      </trkpt>
      <trkpt lat="45.08528" lon="6.44836">
        <ele>2046.6</ele>
        <time>2021-02-28T10:03:26Z</time>
      </trkpt>
      <trkpt lat="45.08527" lon="6.4484">
        <ele>2046.8</ele>
        <time>2021-02-28T10:03:27Z</time>
      </trkpt>
      <trkpt lat="45.08527" lon="6.4484">
        <ele>2047</ele>
        <time>2021-02-28T10:03:28Z</time>
      </trkpt>
      <trkpt lat="45.08527" lon="6.44843">
        <ele>2047</ele>
        <time>2021-02-28T10:03:29Z</time>
      </trkpt>
      <trkpt lat="45.08527" lon="6.44843">
        <ele>2047</ele>
        <time>2021-02-28T10:03:30Z</time>
      </trkpt>
      <trkpt lat="45.08527" lon="6.44848">
        <ele>2047</ele>
        <time>2021-02-28T10:03:31Z</time>
      </trkpt>
      <trkpt lat="45.08527" lon="6.44848">
        <ele>2047.4</ele>
        <time>2021-02-28T10:03:32Z</time>
      </trkpt>
      <trkpt lat="45.08528" lon="6.44851">
        <ele>2047.6</ele>
        <time>2021-02-28T10:03:33Z</time>
      </trkpt>
      <trkpt lat="45.08528" lon="6.44851">
        <ele>2048</ele>
        <time>2021-02-28T10:03:34Z</time>
      </trkpt>
      <trkpt lat="45.08528" lon="6.44855">
        <ele>2048</ele>
        <time>2021-02-28T10:03:35Z</time>
      </trkpt>
      <trkpt lat="45.08528" lon="6.44855">
        <ele>2048</ele>
        <time>2021-02-28T10:03:36Z</time>
      </trkpt>
      <trkpt lat="45.08529" lon="6.44859">
        <ele>2048.4</ele>
        <time>2021-02-28T10:03:37Z</time>
      </trkpt>
      <trkpt lat="45.08529" lon="6.44859">
        <ele>2048.4</ele>
        <time>2021-02-28T10:03:38Z</time>
      </trkpt>
      <trkpt lat="45.08529" lon="6.44862">
        <ele>2048.6</ele>
        <time>2021-02-28T10:03:39Z</time>
      </trkpt>
      <trkpt lat="45.08529" lon="6.44862">
        <ele>2048.6</ele>
        <time>2021-02-28T10:03:40Z</time>
      </trkpt>
      <trkpt lat="45.08529" lon="6.44867">
        <ele>2048.4</ele>
        <time>2021-02-28T10:03:41Z</time>
      </trkpt>
      <trkpt lat="45.08529" lon="6.44867">
        <ele>2048.8</ele>
        <time>2021-02-28T10:03:42Z</time>
      </trkpt>
      <trkpt lat="45.08529" lon="6.44872">
        <ele>2049</ele>
        <time>2021-02-28T10:03:43Z</time>
      </trkpt>
      <trkpt lat="45.08529" lon="6.44872">
        <ele>2049</ele>
        <time>2021-02-28T10:03:44Z</time>
      </trkpt>
      <trkpt lat="45.08528" lon="6.44876">
        <ele>2049.2</ele>
        <time>2021-02-28T10:03:45Z</time>
      </trkpt>
      <trkpt lat="45.08528" lon="6.44876">
        <ele>2049.4</ele>
        <time>2021-02-28T10:03:46Z</time>
      </trkpt>
      <trkpt lat="45.08527" lon="6.4488">
        <ele>2049.4</ele>
        <time>2021-02-28T10:03:47Z</time>
      </trkpt>
      <trkpt lat="45.08527" lon="6.4488">
        <ele>2049.8</ele>
        <time>2021-02-28T10:03:48Z</time>
      </trkpt>
      <trkpt lat="45.08526" lon="6.44884">
        <ele>2049.6</ele>
        <time>2021-02-28T10:03:49Z</time>
      </trkpt>
      <trkpt lat="45.08526" lon="6.44884">
        <ele>2050</ele>
        <time>2021-02-28T10:03:50Z</time>
      </trkpt>
      <trkpt lat="45.08526" lon="6.44888">
        <ele>2050</ele>
        <time>2021-02-28T10:03:51Z</time>
      </trkpt>
      <trkpt lat="45.08526" lon="6.44888">
        <ele>2050.2</ele>
        <time>2021-02-28T10:03:52Z</time>
      </trkpt>
      <trkpt lat="45.08526" lon="6.44891">
        <ele>2050.2</ele>
        <time>2021-02-28T10:03:53Z</time>
      </trkpt>
      <trkpt lat="45.08526" lon="6.44891">
        <ele>2050</ele>
        <time>2021-02-28T10:03:54Z</time>
      </trkpt>
      <trkpt lat="45.08525" lon="6.44896">
        <ele>2050</ele>
        <time>2021-02-28T10:03:55Z</time>
      </trkpt>
      <trkpt lat="45.08525" lon="6.44896">
        <ele>2050</ele>
        <time>2021-02-28T10:03:56Z</time>
      </trkpt>
      <trkpt lat="45.08525" lon="6.44899">
        <ele>2050.2</ele>
        <time>2021-02-28T10:03:57Z</time>
      </trkpt>
      <trkpt lat="45.08525" lon="6.44899">
        <ele>2050.4</ele>
        <time>2021-02-28T10:03:58Z</time>
      </trkpt>
      <trkpt lat="45.08525" lon="6.44903">
        <ele>2050.8</ele>
        <time>2021-02-28T10:03:59Z</time>
      </trkpt>
      <trkpt lat="45.08525" lon="6.44903">
        <ele>2050.6</ele>
        <time>2021-02-28T10:04:00Z</time>
      </trkpt>
      <trkpt lat="45.08523" lon="6.44907">
        <ele>2050.6</ele>
        <time>2021-02-28T10:04:01Z</time>
      </trkpt>
      <trkpt lat="45.08523" lon="6.44907">
        <ele>2051</ele>
        <time>2021-02-28T10:04:02Z</time>
      </trkpt>
      <trkpt lat="45.08523" lon="6.4491">
        <ele>2051</ele>
        <time>2021-02-28T10:04:03Z</time>
      </trkpt>
      <trkpt lat="45.08523" lon="6.4491">
        <ele>2051.4</ele>
        <time>2021-02-28T10:04:04Z</time>
      </trkpt>
      <trkpt lat="45.08522" lon="6.44914">
        <ele>2051.4</ele>
        <time>2021-02-28T10:04:05Z</time>
      </trkpt>
      <trkpt lat="45.08522" lon="6.44914">
        <ele>2051.6</ele>
        <time>2021-02-28T10:04:06Z</time>
      </trkpt>
      <trkpt lat="45.08522" lon="6.44918">
        <ele>2051.6</ele>
        <time>2021-02-28T10:04:07Z</time>
      </trkpt>
      <trkpt lat="45.08522" lon="6.44918">
        <ele>2051.6</ele>
        <time>2021-02-28T10:04:08Z</time>
      </trkpt>
      <trkpt lat="45.08522" lon="6.44922">
        <ele>2051.6</ele>
        <time>2021-02-28T10:04:09Z</time>
      </trkpt>
      <trkpt lat="45.08522" lon="6.44922">
        <ele>2051.6</ele>
        <time>2021-02-28T10:04:10Z</time>
      </trkpt>
      <trkpt lat="45.08522" lon="6.44926">
        <ele>2051.8</ele>
        <time>2021-02-28T10:04:11Z</time>
      </trkpt>
      <trkpt lat="45.08522" lon="6.44926">
        <ele>2052.2</ele>
        <time>2021-02-28T10:04:12Z</time>
      </trkpt>
      <trkpt lat="45.08522" lon="6.44929">
        <ele>2052.4</ele>
        <time>2021-02-28T10:04:13Z</time>
      </trkpt>
      <trkpt lat="45.08522" lon="6.44929">
        <ele>2052.6</ele>
        <time>2021-02-28T10:04:14Z</time>
      </trkpt>
      <trkpt lat="45.08522" lon="6.44933">
        <ele>2052.8</ele>
        <time>2021-02-28T10:04:15Z</time>
      </trkpt>
      <trkpt lat="45.08522" lon="6.44933">
        <ele>2052.6</ele>
        <time>2021-02-28T10:04:16Z</time>
      </trkpt>
      <trkpt lat="45.08522" lon="6.44936">
        <ele>2052.6</ele>
        <time>2021-02-28T10:04:17Z</time>
      </trkpt>
      <trkpt lat="45.08522" lon="6.44936">
        <ele>2052.6</ele>
        <time>2021-02-28T10:04:18Z</time>
      </trkpt>
      <trkpt lat="45.08522" lon="6.44936">
        <ele>2052.6</ele>
        <time>2021-02-28T10:04:19Z</time>
      </trkpt>
      <trkpt lat="45.08522" lon="6.44939">
        <ele>2052.6</ele>
        <time>2021-02-28T10:04:20Z</time>
      </trkpt>
      <trkpt lat="45.08522" lon="6.44942">
        <ele>2052.8</ele>
        <time>2021-02-28T10:04:21Z</time>
      </trkpt>
      <trkpt lat="45.08522" lon="6.44945">
        <ele>2052.8</ele>
        <time>2021-02-28T10:04:22Z</time>
      </trkpt>
      <trkpt lat="45.08522" lon="6.44948">
        <ele>2053.2</ele>
        <time>2021-02-28T10:04:23Z</time>
      </trkpt>
      <trkpt lat="45.08522" lon="6.44948">
        <ele>2053.4</ele>
        <time>2021-02-28T10:04:24Z</time>
      </trkpt>
      <trkpt lat="45.08523" lon="6.44951">
        <ele>2053.6</ele>
        <time>2021-02-28T10:04:25Z</time>
      </trkpt>
      <trkpt lat="45.08523" lon="6.44951">
        <ele>2053.8</ele>
        <time>2021-02-28T10:04:26Z</time>
      </trkpt>
      <trkpt lat="45.08523" lon="6.44955">
        <ele>2054</ele>
        <time>2021-02-28T10:04:27Z</time>
      </trkpt>
      <trkpt lat="45.08523" lon="6.44955">
        <ele>2054.4</ele>
        <time>2021-02-28T10:04:28Z</time>
      </trkpt>
      <trkpt lat="45.08522" lon="6.44958">
        <ele>2054.8</ele>
        <time>2021-02-28T10:04:29Z</time>
      </trkpt>
      <trkpt lat="45.08522" lon="6.44958">
        <ele>2054.8</ele>
        <time>2021-02-28T10:04:30Z</time>
      </trkpt>
      <trkpt lat="45.08522" lon="6.44962">
        <ele>2055</ele>
        <time>2021-02-28T10:04:31Z</time>
      </trkpt>
      <trkpt lat="45.08522" lon="6.44962">
        <ele>2055</ele>
        <time>2021-02-28T10:04:32Z</time>
      </trkpt>
      <trkpt lat="45.08521" lon="6.44966">
        <ele>2055</ele>
        <time>2021-02-28T10:04:33Z</time>
      </trkpt>
      <trkpt lat="45.08521" lon="6.44966">
        <ele>2055.2</ele>
        <time>2021-02-28T10:04:34Z</time>
      </trkpt>
      <trkpt lat="45.08522" lon="6.44969">
        <ele>2055</ele>
        <time>2021-02-28T10:04:35Z</time>
      </trkpt>
      <trkpt lat="45.08522" lon="6.44969">
        <ele>2055.2</ele>
        <time>2021-02-28T10:04:36Z</time>
      </trkpt>
      <trkpt lat="45.08522" lon="6.44973">
        <ele>2055.2</ele>
        <time>2021-02-28T10:04:37Z</time>
      </trkpt>
      <trkpt lat="45.08522" lon="6.44973">
        <ele>2055.2</ele>
        <time>2021-02-28T10:04:38Z</time>
      </trkpt>
      <trkpt lat="45.08522" lon="6.44976">
        <ele>2055.4</ele>
        <time>2021-02-28T10:04:39Z</time>
      </trkpt>
      <trkpt lat="45.08522" lon="6.44976">
        <ele>2055.8</ele>
        <time>2021-02-28T10:04:40Z</time>
      </trkpt>
      <trkpt lat="45.08521" lon="6.4498">
        <ele>2055.8</ele>
        <time>2021-02-28T10:04:41Z</time>
      </trkpt>
      <trkpt lat="45.08521" lon="6.4498">
        <ele>2055.8</ele>
        <time>2021-02-28T10:04:42Z</time>
      </trkpt>
      <trkpt lat="45.08521" lon="6.44984">
        <ele>2056</ele>
        <time>2021-02-28T10:04:43Z</time>
      </trkpt>
      <trkpt lat="45.08521" lon="6.44984">
        <ele>2056</ele>
        <time>2021-02-28T10:04:44Z</time>
      </trkpt>
      <trkpt lat="45.08521" lon="6.44988">
        <ele>2056</ele>
        <time>2021-02-28T10:04:45Z</time>
      </trkpt>
      <trkpt lat="45.08521" lon="6.44988">
        <ele>2056.2</ele>
        <time>2021-02-28T10:04:46Z</time>
      </trkpt>
      <trkpt lat="45.08522" lon="6.44991">
        <ele>2056.4</ele>
        <time>2021-02-28T10:04:47Z</time>
      </trkpt>
      <trkpt lat="45.08522" lon="6.44991">
        <ele>2056.4</ele>
        <time>2021-02-28T10:04:48Z</time>
      </trkpt>
      <trkpt lat="45.08521" lon="6.44995">
        <ele>2056.6</ele>
        <time>2021-02-28T10:04:49Z</time>
      </trkpt>
      <trkpt lat="45.08521" lon="6.44995">
        <ele>2056.6</ele>
        <time>2021-02-28T10:04:50Z</time>
      </trkpt>
      <trkpt lat="45.08521" lon="6.44999">
        <ele>2056.8</ele>
        <time>2021-02-28T10:04:51Z</time>
      </trkpt>
      <trkpt lat="45.08521" lon="6.44999">
        <ele>2056.8</ele>
        <time>2021-02-28T10:04:52Z</time>
      </trkpt>
      <trkpt lat="45.08521" lon="6.45002">
        <ele>2057</ele>
        <time>2021-02-28T10:04:53Z</time>
      </trkpt>
      <trkpt lat="45.08521" lon="6.45002">
        <ele>2057.4</ele>
        <time>2021-02-28T10:04:54Z</time>
      </trkpt>
      <trkpt lat="45.0852" lon="6.45006">
        <ele>2057.6</ele>
        <time>2021-02-28T10:04:55Z</time>
      </trkpt>
      <trkpt lat="45.0852" lon="6.45006">
        <ele>2057.6</ele>
        <time>2021-02-28T10:04:56Z</time>
      </trkpt>
      <trkpt lat="45.0852" lon="6.4501">
        <ele>2058.2</ele>
        <time>2021-02-28T10:04:57Z</time>
      </trkpt>
      <trkpt lat="45.0852" lon="6.4501">
        <ele>2058.2</ele>
        <time>2021-02-28T10:04:58Z</time>
      </trkpt>
      <trkpt lat="45.08519" lon="6.45014">
        <ele>2058.2</ele>
        <time>2021-02-28T10:04:59Z</time>
      </trkpt>
      <trkpt lat="45.08519" lon="6.45014">
        <ele>2058.2</ele>
        <time>2021-02-28T10:05:00Z</time>
      </trkpt>
      <trkpt lat="45.08519" lon="6.45017">
        <ele>2058.4</ele>
        <time>2021-02-28T10:05:01Z</time>
      </trkpt>
      <trkpt lat="45.08519" lon="6.45017">
        <ele>2058.4</ele>
        <time>2021-02-28T10:05:02Z</time>
      </trkpt>
      <trkpt lat="45.08519" lon="6.4502">
        <ele>2058.4</ele>
        <time>2021-02-28T10:05:03Z</time>
      </trkpt>
      <trkpt lat="45.08519" lon="6.4502">
        <ele>2058.6</ele>
        <time>2021-02-28T10:05:04Z</time>
      </trkpt>
      <trkpt lat="45.08517" lon="6.45024">
        <ele>2058.8</ele>
        <time>2021-02-28T10:05:05Z</time>
      </trkpt>
      <trkpt lat="45.08517" lon="6.45024">
        <ele>2059.2</ele>
        <time>2021-02-28T10:05:06Z</time>
      </trkpt>
      <trkpt lat="45.08516" lon="6.45027">
        <ele>2059</ele>
        <time>2021-02-28T10:05:07Z</time>
      </trkpt>
      <trkpt lat="45.08516" lon="6.45027">
        <ele>2059.2</ele>
        <time>2021-02-28T10:05:08Z</time>
      </trkpt>
      <trkpt lat="45.08515" lon="6.4503">
        <ele>2059.2</ele>
        <time>2021-02-28T10:05:09Z</time>
      </trkpt>
      <trkpt lat="45.08515" lon="6.4503">
        <ele>2059.8</ele>
        <time>2021-02-28T10:05:10Z</time>
      </trkpt>
      <trkpt lat="45.08513" lon="6.45033">
        <ele>2060</ele>
        <time>2021-02-28T10:05:11Z</time>
      </trkpt>
      <trkpt lat="45.08513" lon="6.45033">
        <ele>2060.2</ele>
        <time>2021-02-28T10:05:12Z</time>
      </trkpt>
      <trkpt lat="45.08511" lon="6.45036">
        <ele>2060.4</ele>
        <time>2021-02-28T10:05:13Z</time>
      </trkpt>
      <trkpt lat="45.08511" lon="6.45036">
        <ele>2060.2</ele>
        <time>2021-02-28T10:05:14Z</time>
      </trkpt>
      <trkpt lat="45.0851" lon="6.45039">
        <ele>2060.2</ele>
        <time>2021-02-28T10:05:15Z</time>
      </trkpt>
      <trkpt lat="45.0851" lon="6.45039">
        <ele>2060.4</ele>
        <time>2021-02-28T10:05:16Z</time>
      </trkpt>
      <trkpt lat="45.08508" lon="6.45043">
        <ele>2060.8</ele>
        <time>2021-02-28T10:05:17Z</time>
      </trkpt>
      <trkpt lat="45.08508" lon="6.45043">
        <ele>2061.2</ele>
        <time>2021-02-28T10:05:18Z</time>
      </trkpt>
      <trkpt lat="45.08507" lon="6.45046">
        <ele>2061</ele>
        <time>2021-02-28T10:05:19Z</time>
      </trkpt>
      <trkpt lat="45.08507" lon="6.45046">
        <ele>2061.4</ele>
        <time>2021-02-28T10:05:20Z</time>
      </trkpt>
      <trkpt lat="45.08505" lon="6.45048">
        <ele>2061.6</ele>
        <time>2021-02-28T10:05:21Z</time>
      </trkpt>
      <trkpt lat="45.08505" lon="6.45048">
        <ele>2061.8</ele>
        <time>2021-02-28T10:05:22Z</time>
      </trkpt>
      <trkpt lat="45.08503" lon="6.45051">
        <ele>2062</ele>
        <time>2021-02-28T10:05:23Z</time>
      </trkpt>
      <trkpt lat="45.08503" lon="6.45051">
        <ele>2062.2</ele>
        <time>2021-02-28T10:05:24Z</time>
      </trkpt>
      <trkpt lat="45.08502" lon="6.45053">
        <ele>2062.4</ele>
        <time>2021-02-28T10:05:25Z</time>
      </trkpt>
      <trkpt lat="45.08502" lon="6.45053">
        <ele>2062.2</ele>
        <time>2021-02-28T10:05:26Z</time>
      </trkpt>
      <trkpt lat="45.08501" lon="6.45056">
        <ele>2062.2</ele>
        <time>2021-02-28T10:05:27Z</time>
      </trkpt>
      <trkpt lat="45.08501" lon="6.45056">
        <ele>2062.8</ele>
        <time>2021-02-28T10:05:28Z</time>
      </trkpt>
      <trkpt lat="45.08499" lon="6.45058">
        <ele>2063</ele>
        <time>2021-02-28T10:05:29Z</time>
      </trkpt>
      <trkpt lat="45.08499" lon="6.45058">
        <ele>2063.2</ele>
        <time>2021-02-28T10:05:30Z</time>
      </trkpt>
      <trkpt lat="45.08498" lon="6.45061">
        <ele>2063.4</ele>
        <time>2021-02-28T10:05:31Z</time>
      </trkpt>
      <trkpt lat="45.08498" lon="6.45061">
        <ele>2064.2</ele>
        <time>2021-02-28T10:05:32Z</time>
      </trkpt>
      <trkpt lat="45.08496" lon="6.45063">
        <ele>2064.2</ele>
        <time>2021-02-28T10:05:33Z</time>
      </trkpt>
      <trkpt lat="45.08496" lon="6.45063">
        <ele>2064.2</ele>
        <time>2021-02-28T10:05:34Z</time>
      </trkpt>
      <trkpt lat="45.08495" lon="6.45066">
        <ele>2064.4</ele>
        <time>2021-02-28T10:05:35Z</time>
      </trkpt>
      <trkpt lat="45.08495" lon="6.45066">
        <ele>2064.6</ele>
        <time>2021-02-28T10:05:36Z</time>
      </trkpt>
      <trkpt lat="45.08493" lon="6.45068">
        <ele>2065</ele>
        <time>2021-02-28T10:05:37Z</time>
      </trkpt>
      <trkpt lat="45.08493" lon="6.45068">
        <ele>2065</ele>
        <time>2021-02-28T10:05:38Z</time>
      </trkpt>
      <trkpt lat="45.08491" lon="6.45072">
        <ele>2065</ele>
        <time>2021-02-28T10:05:39Z</time>
      </trkpt>
      <trkpt lat="45.08491" lon="6.45072">
        <ele>2065</ele>
        <time>2021-02-28T10:05:40Z</time>
      </trkpt>
      <trkpt lat="45.0849" lon="6.45074">
        <ele>2065.2</ele>
        <time>2021-02-28T10:05:41Z</time>
      </trkpt>
      <trkpt lat="45.0849" lon="6.45074">
        <ele>2065.2</ele>
        <time>2021-02-28T10:05:42Z</time>
      </trkpt>
      <trkpt lat="45.08488" lon="6.45077">
        <ele>2065.2</ele>
        <time>2021-02-28T10:05:43Z</time>
      </trkpt>
      <trkpt lat="45.08488" lon="6.45077">
        <ele>2065.4</ele>
        <time>2021-02-28T10:05:44Z</time>
      </trkpt>
      <trkpt lat="45.08486" lon="6.4508">
        <ele>2065.6</ele>
        <time>2021-02-28T10:05:45Z</time>
      </trkpt>
      <trkpt lat="45.08486" lon="6.4508">
        <ele>2066</ele>
        <time>2021-02-28T10:05:46Z</time>
      </trkpt>
      <trkpt lat="45.08485" lon="6.45083">
        <ele>2066.2</ele>
        <time>2021-02-28T10:05:47Z</time>
      </trkpt>
      <trkpt lat="45.08485" lon="6.45083">
        <ele>2066.2</ele>
        <time>2021-02-28T10:05:48Z</time>
      </trkpt>
      <trkpt lat="45.08483" lon="6.45086">
        <ele>2066.4</ele>
        <time>2021-02-28T10:05:49Z</time>
      </trkpt>
      <trkpt lat="45.08483" lon="6.45086">
        <ele>2066.8</ele>
        <time>2021-02-28T10:05:50Z</time>
      </trkpt>
      <trkpt lat="45.08482" lon="6.45089">
        <ele>2066.8</ele>
        <time>2021-02-28T10:05:51Z</time>
      </trkpt>
      <trkpt lat="45.08482" lon="6.45089">
        <ele>2067.2</ele>
        <time>2021-02-28T10:05:52Z</time>
      </trkpt>
      <trkpt lat="45.0848" lon="6.45092">
        <ele>2067</ele>
        <time>2021-02-28T10:05:53Z</time>
      </trkpt>
      <trkpt lat="45.0848" lon="6.45092">
        <ele>2067.2</ele>
        <time>2021-02-28T10:05:54Z</time>
      </trkpt>
      <trkpt lat="45.08478" lon="6.45095">
        <ele>2067.2</ele>
        <time>2021-02-28T10:05:55Z</time>
      </trkpt>
      <trkpt lat="45.08478" lon="6.45095">
        <ele>2067</ele>
        <time>2021-02-28T10:05:56Z</time>
      </trkpt>
      <trkpt lat="45.08476" lon="6.45099">
        <ele>2067.2</ele>
        <time>2021-02-28T10:05:57Z</time>
      </trkpt>
      <trkpt lat="45.08476" lon="6.45099">
        <ele>2067.4</ele>
        <time>2021-02-28T10:05:58Z</time>
      </trkpt>
      <trkpt lat="45.08475" lon="6.45102">
        <ele>2067.6</ele>
        <time>2021-02-28T10:05:59Z</time>
      </trkpt>
      <trkpt lat="45.08475" lon="6.45102">
        <ele>2067.8</ele>
        <time>2021-02-28T10:06:00Z</time>
      </trkpt>
      <trkpt lat="45.08473" lon="6.45104">
        <ele>2067.6</ele>
        <time>2021-02-28T10:06:01Z</time>
      </trkpt>
      <trkpt lat="45.08473" lon="6.45104">
        <ele>2068</ele>
        <time>2021-02-28T10:06:02Z</time>
      </trkpt>
      <trkpt lat="45.08471" lon="6.45107">
        <ele>2068</ele>
        <time>2021-02-28T10:06:03Z</time>
      </trkpt>
      <trkpt lat="45.08471" lon="6.45107">
        <ele>2068</ele>
        <time>2021-02-28T10:06:04Z</time>
      </trkpt>
      <trkpt lat="45.08469" lon="6.4511">
        <ele>2068.2</ele>
        <time>2021-02-28T10:06:05Z</time>
      </trkpt>
      <trkpt lat="45.08469" lon="6.4511">
        <ele>2068.2</ele>
        <time>2021-02-28T10:06:06Z</time>
      </trkpt>
      <trkpt lat="45.08468" lon="6.45113">
        <ele>2068.6</ele>
        <time>2021-02-28T10:06:07Z</time>
      </trkpt>
      <trkpt lat="45.08468" lon="6.45113">
        <ele>2068.6</ele>
        <time>2021-02-28T10:06:08Z</time>
      </trkpt>
      <trkpt lat="45.08466" lon="6.45116">
        <ele>2068.4</ele>
        <time>2021-02-28T10:06:09Z</time>
      </trkpt>
      <trkpt lat="45.08466" lon="6.45116">
        <ele>2068.6</ele>
        <time>2021-02-28T10:06:10Z</time>
      </trkpt>
      <trkpt lat="45.08465" lon="6.45119">
        <ele>2068.8</ele>
        <time>2021-02-28T10:06:11Z</time>
      </trkpt>
      <trkpt lat="45.08465" lon="6.45119">
        <ele>2069</ele>
        <time>2021-02-28T10:06:12Z</time>
      </trkpt>
      <trkpt lat="45.08463" lon="6.45122">
        <ele>2069</ele>
        <time>2021-02-28T10:06:13Z</time>
      </trkpt>
      <trkpt lat="45.08463" lon="6.45122">
        <ele>2069</ele>
        <time>2021-02-28T10:06:14Z</time>
      </trkpt>
      <trkpt lat="45.08462" lon="6.45125">
        <ele>2069.2</ele>
        <time>2021-02-28T10:06:15Z</time>
      </trkpt>
      <trkpt lat="45.08462" lon="6.45125">
        <ele>2069.6</ele>
        <time>2021-02-28T10:06:16Z</time>
      </trkpt>
      <trkpt lat="45.0846" lon="6.45128">
        <ele>2069.6</ele>
        <time>2021-02-28T10:06:17Z</time>
      </trkpt>
      <trkpt lat="45.0846" lon="6.45128">
        <ele>2070.6</ele>
        <time>2021-02-28T10:06:18Z</time>
      </trkpt>
      <trkpt lat="45.08458" lon="6.4513">
        <ele>2070.4</ele>
        <time>2021-02-28T10:06:19Z</time>
      </trkpt>
      <trkpt lat="45.08458" lon="6.4513">
        <ele>2070</ele>
        <time>2021-02-28T10:06:20Z</time>
      </trkpt>
      <trkpt lat="45.08457" lon="6.45132">
        <ele>2070</ele>
        <time>2021-02-28T10:06:21Z</time>
      </trkpt>
      <trkpt lat="45.08457" lon="6.45132">
        <ele>2070.4</ele>
        <time>2021-02-28T10:06:22Z</time>
      </trkpt>
      <trkpt lat="45.08455" lon="6.45135">
        <ele>2070.4</ele>
        <time>2021-02-28T10:06:23Z</time>
      </trkpt>
      <trkpt lat="45.08455" lon="6.45135">
        <ele>2070</ele>
        <time>2021-02-28T10:06:24Z</time>
      </trkpt>
      <trkpt lat="45.08453" lon="6.45138">
        <ele>2070</ele>
        <time>2021-02-28T10:06:25Z</time>
      </trkpt>
      <trkpt lat="45.08453" lon="6.45138">
        <ele>2070.4</ele>
        <time>2021-02-28T10:06:26Z</time>
      </trkpt>
      <trkpt lat="45.08451" lon="6.45141">
        <ele>2071.2</ele>
        <time>2021-02-28T10:06:27Z</time>
      </trkpt>
      <trkpt lat="45.08451" lon="6.45141">
        <ele>2071</ele>
        <time>2021-02-28T10:06:28Z</time>
      </trkpt>
      <trkpt lat="45.08448" lon="6.45143">
        <ele>2071</ele>
        <time>2021-02-28T10:06:29Z</time>
      </trkpt>
      <trkpt lat="45.08448" lon="6.45143">
        <ele>2071.2</ele>
        <time>2021-02-28T10:06:30Z</time>
      </trkpt>
      <trkpt lat="45.08446" lon="6.45145">
        <ele>2071.4</ele>
        <time>2021-02-28T10:06:31Z</time>
      </trkpt>
      <trkpt lat="45.08446" lon="6.45145">
        <ele>2071.4</ele>
        <time>2021-02-28T10:06:32Z</time>
      </trkpt>
      <trkpt lat="45.08444" lon="6.45148">
        <ele>2071.6</ele>
        <time>2021-02-28T10:06:33Z</time>
      </trkpt>
      <trkpt lat="45.08444" lon="6.45148">
        <ele>2071.6</ele>
        <time>2021-02-28T10:06:34Z</time>
      </trkpt>
      <trkpt lat="45.08442" lon="6.45151">
        <ele>2072</ele>
        <time>2021-02-28T10:06:35Z</time>
      </trkpt>
      <trkpt lat="45.08442" lon="6.45151">
        <ele>2072.4</ele>
        <time>2021-02-28T10:06:36Z</time>
      </trkpt>
      <trkpt lat="45.08441" lon="6.45153">
        <ele>2072.2</ele>
        <time>2021-02-28T10:06:37Z</time>
      </trkpt>
      <trkpt lat="45.08441" lon="6.45153">
        <ele>2072</ele>
        <time>2021-02-28T10:06:38Z</time>
      </trkpt>
      <trkpt lat="45.08438" lon="6.45155">
        <ele>2072.4</ele>
        <time>2021-02-28T10:06:39Z</time>
      </trkpt>
      <trkpt lat="45.08438" lon="6.45155">
        <ele>2072.8</ele>
        <time>2021-02-28T10:06:40Z</time>
      </trkpt>
      <trkpt lat="45.08437" lon="6.45157">
        <ele>2072.8</ele>
        <time>2021-02-28T10:06:41Z</time>
      </trkpt>
      <trkpt lat="45.08437" lon="6.45157">
        <ele>2072.6</ele>
        <time>2021-02-28T10:06:42Z</time>
      </trkpt>
      <trkpt lat="45.08435" lon="6.45159">
        <ele>2072.6</ele>
        <time>2021-02-28T10:06:43Z</time>
      </trkpt>
      <trkpt lat="45.08435" lon="6.45159">
        <ele>2073.4</ele>
        <time>2021-02-28T10:06:44Z</time>
      </trkpt>
      <trkpt lat="45.08434" lon="6.45162">
        <ele>2073.2</ele>
        <time>2021-02-28T10:06:45Z</time>
      </trkpt>
      <trkpt lat="45.08434" lon="6.45162">
        <ele>2073.4</ele>
        <time>2021-02-28T10:06:46Z</time>
      </trkpt>
      <trkpt lat="45.08432" lon="6.45165">
        <ele>2073.6</ele>
        <time>2021-02-28T10:06:47Z</time>
      </trkpt>
      <trkpt lat="45.08432" lon="6.45165">
        <ele>2073.6</ele>
        <time>2021-02-28T10:06:48Z</time>
      </trkpt>
      <trkpt lat="45.08432" lon="6.45165">
        <ele>2074</ele>
        <time>2021-02-28T10:06:49Z</time>
      </trkpt>
      <trkpt lat="45.08431" lon="6.45167">
        <ele>2074.2</ele>
        <time>2021-02-28T10:06:50Z</time>
      </trkpt>
      <trkpt lat="45.08431" lon="6.45167">
        <ele>2074.2</ele>
        <time>2021-02-28T10:06:51Z</time>
      </trkpt>
      <trkpt lat="45.08431" lon="6.45167">
        <ele>2074.4</ele>
        <time>2021-02-28T10:06:52Z</time>
      </trkpt>
      <trkpt lat="45.0843" lon="6.45169">
        <ele>2074.6</ele>
        <time>2021-02-28T10:06:53Z</time>
      </trkpt>
      <trkpt lat="45.0843" lon="6.45169">
        <ele>2074.8</ele>
        <time>2021-02-28T10:06:54Z</time>
      </trkpt>
      <trkpt lat="45.08428" lon="6.45171">
        <ele>2074.6</ele>
        <time>2021-02-28T10:06:55Z</time>
      </trkpt>
      <trkpt lat="45.08428" lon="6.45171">
        <ele>2074.6</ele>
        <time>2021-02-28T10:06:56Z</time>
      </trkpt>
      <trkpt lat="45.08427" lon="6.45174">
        <ele>2075</ele>
        <time>2021-02-28T10:06:57Z</time>
      </trkpt>
      <trkpt lat="45.08427" lon="6.45174">
        <ele>2074.8</ele>
        <time>2021-02-28T10:06:58Z</time>
      </trkpt>
      <trkpt lat="45.08425" lon="6.45176">
        <ele>2075</ele>
        <time>2021-02-28T10:06:59Z</time>
      </trkpt>
      <trkpt lat="45.08425" lon="6.45176">
        <ele>2075</ele>
        <time>2021-02-28T10:07:00Z</time>
      </trkpt>
      <trkpt lat="45.08424" lon="6.45179">
        <ele>2075.4</ele>
        <time>2021-02-28T10:07:01Z</time>
      </trkpt>
      <trkpt lat="45.08424" lon="6.45179">
        <ele>2076</ele>
        <time>2021-02-28T10:07:02Z</time>
      </trkpt>
      <trkpt lat="45.08423" lon="6.45182">
        <ele>2076</ele>
        <time>2021-02-28T10:07:03Z</time>
      </trkpt>
      <trkpt lat="45.08423" lon="6.45182">
        <ele>2076.4</ele>
        <time>2021-02-28T10:07:04Z</time>
      </trkpt>
      <trkpt lat="45.08422" lon="6.45185">
        <ele>2076</ele>
        <time>2021-02-28T10:07:05Z</time>
      </trkpt>
      <trkpt lat="45.08422" lon="6.45185">
        <ele>2076.2</ele>
        <time>2021-02-28T10:07:06Z</time>
      </trkpt>
      <trkpt lat="45.08421" lon="6.45188">
        <ele>2076.6</ele>
        <time>2021-02-28T10:07:07Z</time>
      </trkpt>
      <trkpt lat="45.08421" lon="6.45188">
        <ele>2076.8</ele>
        <time>2021-02-28T10:07:08Z</time>
      </trkpt>
      <trkpt lat="45.0842" lon="6.45192">
        <ele>2076.8</ele>
        <time>2021-02-28T10:07:09Z</time>
      </trkpt>
      <trkpt lat="45.0842" lon="6.45192">
        <ele>2076.8</ele>
        <time>2021-02-28T10:07:10Z</time>
      </trkpt>
      <trkpt lat="45.08419" lon="6.45196">
        <ele>2077</ele>
        <time>2021-02-28T10:07:11Z</time>
      </trkpt>
      <trkpt lat="45.08419" lon="6.45196">
        <ele>2077.2</ele>
        <time>2021-02-28T10:07:12Z</time>
      </trkpt>
      <trkpt lat="45.08418" lon="6.45199">
        <ele>2077.4</ele>
        <time>2021-02-28T10:07:13Z</time>
      </trkpt>
      <trkpt lat="45.08418" lon="6.45199">
        <ele>2077.4</ele>
        <time>2021-02-28T10:07:14Z</time>
      </trkpt>
      <trkpt lat="45.08416" lon="6.45202">
        <ele>2077.4</ele>
        <time>2021-02-28T10:07:15Z</time>
      </trkpt>
      <trkpt lat="45.08416" lon="6.45202">
        <ele>2077.6</ele>
        <time>2021-02-28T10:07:16Z</time>
      </trkpt>
      <trkpt lat="45.08415" lon="6.45205">
        <ele>2078</ele>
        <time>2021-02-28T10:07:17Z</time>
      </trkpt>
      <trkpt lat="45.08415" lon="6.45205">
        <ele>2077.8</ele>
        <time>2021-02-28T10:07:18Z</time>
      </trkpt>
      <trkpt lat="45.08413" lon="6.45208">
        <ele>2078</ele>
        <time>2021-02-28T10:07:19Z</time>
      </trkpt>
      <trkpt lat="45.08413" lon="6.45208">
        <ele>2078.2</ele>
        <time>2021-02-28T10:07:20Z</time>
      </trkpt>
      <trkpt lat="45.08411" lon="6.45211">
        <ele>2078.2</ele>
        <time>2021-02-28T10:07:21Z</time>
      </trkpt>
      <trkpt lat="45.08411" lon="6.45211">
        <ele>2078.2</ele>
        <time>2021-02-28T10:07:22Z</time>
      </trkpt>
      <trkpt lat="45.0841" lon="6.45213">
        <ele>2078.4</ele>
        <time>2021-02-28T10:07:23Z</time>
      </trkpt>
      <trkpt lat="45.0841" lon="6.45213">
        <ele>2078.4</ele>
        <time>2021-02-28T10:07:24Z</time>
      </trkpt>
      <trkpt lat="45.08408" lon="6.45216">
        <ele>2078.8</ele>
        <time>2021-02-28T10:07:25Z</time>
      </trkpt>
      <trkpt lat="45.08408" lon="6.45216">
        <ele>2078.6</ele>
        <time>2021-02-28T10:07:26Z</time>
      </trkpt>
      <trkpt lat="45.08406" lon="6.45219">
        <ele>2078.8</ele>
        <time>2021-02-28T10:07:27Z</time>
      </trkpt>
      <trkpt lat="45.08406" lon="6.45219">
        <ele>2079</ele>
        <time>2021-02-28T10:07:28Z</time>
      </trkpt>
      <trkpt lat="45.08405" lon="6.45222">
        <ele>2079.4</ele>
        <time>2021-02-28T10:07:29Z</time>
      </trkpt>
      <trkpt lat="45.08405" lon="6.45222">
        <ele>2079.4</ele>
        <time>2021-02-28T10:07:30Z</time>
      </trkpt>
      <trkpt lat="45.08403" lon="6.45224">
        <ele>2079.6</ele>
        <time>2021-02-28T10:07:31Z</time>
      </trkpt>
      <trkpt lat="45.08403" lon="6.45224">
        <ele>2079.6</ele>
        <time>2021-02-28T10:07:32Z</time>
      </trkpt>
      <trkpt lat="45.08401" lon="6.45227">
        <ele>2079.8</ele>
        <time>2021-02-28T10:07:33Z</time>
      </trkpt>
      <trkpt lat="45.08401" lon="6.45227">
        <ele>2080</ele>
        <time>2021-02-28T10:07:34Z</time>
      </trkpt>
      <trkpt lat="45.084" lon="6.4523">
        <ele>2080</ele>
        <time>2021-02-28T10:07:35Z</time>
      </trkpt>
      <trkpt lat="45.084" lon="6.4523">
        <ele>2080.2</ele>
        <time>2021-02-28T10:07:36Z</time>
      </trkpt>
      <trkpt lat="45.08398" lon="6.45232">
        <ele>2080.6</ele>
        <time>2021-02-28T10:07:37Z</time>
      </trkpt>
      <trkpt lat="45.08398" lon="6.45232">
        <ele>2080.8</ele>
        <time>2021-02-28T10:07:38Z</time>
      </trkpt>
      <trkpt lat="45.08396" lon="6.45234">
        <ele>2080.6</ele>
        <time>2021-02-28T10:07:39Z</time>
      </trkpt>
      <trkpt lat="45.08396" lon="6.45234">
        <ele>2080.6</ele>
        <time>2021-02-28T10:07:40Z</time>
      </trkpt>
      <trkpt lat="45.08394" lon="6.45237">
        <ele>2080.6</ele>
        <time>2021-02-28T10:07:41Z</time>
      </trkpt>
      <trkpt lat="45.08394" lon="6.45237">
        <ele>2080.8</ele>
        <time>2021-02-28T10:07:42Z</time>
      </trkpt>
      <trkpt lat="45.08392" lon="6.45238">
        <ele>2081</ele>
        <time>2021-02-28T10:07:43Z</time>
      </trkpt>
      <trkpt lat="45.08392" lon="6.45238">
        <ele>2081.4</ele>
        <time>2021-02-28T10:07:44Z</time>
      </trkpt>
      <trkpt lat="45.0839" lon="6.4524">
        <ele>2081.4</ele>
        <time>2021-02-28T10:07:45Z</time>
      </trkpt>
      <trkpt lat="45.0839" lon="6.4524">
        <ele>2081.6</ele>
        <time>2021-02-28T10:07:46Z</time>
      </trkpt>
      <trkpt lat="45.08389" lon="6.45243">
        <ele>2081.6</ele>
        <time>2021-02-28T10:07:47Z</time>
      </trkpt>
      <trkpt lat="45.08389" lon="6.45243">
        <ele>2081.6</ele>
        <time>2021-02-28T10:07:48Z</time>
      </trkpt>
      <trkpt lat="45.08387" lon="6.45246">
        <ele>2081.6</ele>
        <time>2021-02-28T10:07:49Z</time>
      </trkpt>
      <trkpt lat="45.08387" lon="6.45246">
        <ele>2081.8</ele>
        <time>2021-02-28T10:07:50Z</time>
      </trkpt>
      <trkpt lat="45.08385" lon="6.45249">
        <ele>2082</ele>
        <time>2021-02-28T10:07:51Z</time>
      </trkpt>
      <trkpt lat="45.08385" lon="6.45249">
        <ele>2082.2</ele>
        <time>2021-02-28T10:07:52Z</time>
      </trkpt>
      <trkpt lat="45.08383" lon="6.45251">
        <ele>2082.2</ele>
        <time>2021-02-28T10:07:53Z</time>
      </trkpt>
      <trkpt lat="45.08383" lon="6.45251">
        <ele>2082.4</ele>
        <time>2021-02-28T10:07:54Z</time>
      </trkpt>
      <trkpt lat="45.08382" lon="6.45254">
        <ele>2082.6</ele>
        <time>2021-02-28T10:07:55Z</time>
      </trkpt>
      <trkpt lat="45.08382" lon="6.45254">
        <ele>2083</ele>
        <time>2021-02-28T10:07:56Z</time>
      </trkpt>
      <trkpt lat="45.08382" lon="6.45254">
        <ele>2083.2</ele>
        <time>2021-02-28T10:07:57Z</time>
      </trkpt>
      <trkpt lat="45.0838" lon="6.45257">
        <ele>2083.4</ele>
        <time>2021-02-28T10:07:58Z</time>
      </trkpt>
      <trkpt lat="45.0838" lon="6.45257">
        <ele>2083.4</ele>
        <time>2021-02-28T10:07:59Z</time>
      </trkpt>
      <trkpt lat="45.0838" lon="6.4526">
        <ele>2083.6</ele>
        <time>2021-02-28T10:08:00Z</time>
      </trkpt>
      <trkpt lat="45.0838" lon="6.4526">
        <ele>2083.8</ele>
        <time>2021-02-28T10:08:01Z</time>
      </trkpt>
      <trkpt lat="45.0838" lon="6.4526">
        <ele>2084</ele>
        <time>2021-02-28T10:08:02Z</time>
      </trkpt>
      <trkpt lat="45.08378" lon="6.45263">
        <ele>2084.4</ele>
        <time>2021-02-28T10:08:03Z</time>
      </trkpt>
      <trkpt lat="45.08378" lon="6.45263">
        <ele>2084.6</ele>
        <time>2021-02-28T10:08:04Z</time>
      </trkpt>
      <trkpt lat="45.08377" lon="6.45265">
        <ele>2084.6</ele>
        <time>2021-02-28T10:08:05Z</time>
      </trkpt>
      <trkpt lat="45.08377" lon="6.45265">
        <ele>2085</ele>
        <time>2021-02-28T10:08:06Z</time>
      </trkpt>
      <trkpt lat="45.08377" lon="6.45265">
        <ele>2085.4</ele>
        <time>2021-02-28T10:08:07Z</time>
      </trkpt>
      <trkpt lat="45.08375" lon="6.45269">
        <ele>2085.4</ele>
        <time>2021-02-28T10:08:08Z</time>
      </trkpt>
      <trkpt lat="45.08375" lon="6.45269">
        <ele>2085.6</ele>
        <time>2021-02-28T10:08:09Z</time>
      </trkpt>
      <trkpt lat="45.08374" lon="6.45271">
        <ele>2085.8</ele>
        <time>2021-02-28T10:08:10Z</time>
      </trkpt>
      <trkpt lat="45.08374" lon="6.45271">
        <ele>2086</ele>
        <time>2021-02-28T10:08:11Z</time>
      </trkpt>
      <trkpt lat="45.08372" lon="6.45273">
        <ele>2086.4</ele>
        <time>2021-02-28T10:08:12Z</time>
      </trkpt>
      <trkpt lat="45.08372" lon="6.45273">
        <ele>2086.6</ele>
        <time>2021-02-28T10:08:13Z</time>
      </trkpt>
      <trkpt lat="45.08371" lon="6.45275">
        <ele>2087</ele>
        <time>2021-02-28T10:08:14Z</time>
      </trkpt>
      <trkpt lat="45.08371" lon="6.45275">
        <ele>2087.6</ele>
        <time>2021-02-28T10:08:15Z</time>
      </trkpt>
      <trkpt lat="45.08371" lon="6.45275">
        <ele>2088.2</ele>
        <time>2021-02-28T10:08:16Z</time>
      </trkpt>
      <trkpt lat="45.0837" lon="6.45278">
        <ele>2088.4</ele>
        <time>2021-02-28T10:08:17Z</time>
      </trkpt>
      <trkpt lat="45.0837" lon="6.45278">
        <ele>2088.4</ele>
        <time>2021-02-28T10:08:18Z</time>
      </trkpt>
      <trkpt lat="45.0837" lon="6.45278">
        <ele>2088.4</ele>
        <time>2021-02-28T10:08:19Z</time>
      </trkpt>
      <trkpt lat="45.08369" lon="6.45281">
        <ele>2089</ele>
        <time>2021-02-28T10:08:20Z</time>
      </trkpt>
      <trkpt lat="45.08369" lon="6.45281">
        <ele>2089</ele>
        <time>2021-02-28T10:08:21Z</time>
      </trkpt>
      <trkpt lat="45.08367" lon="6.45284">
        <ele>2089.2</ele>
        <time>2021-02-28T10:08:22Z</time>
      </trkpt>
      <trkpt lat="45.08367" lon="6.45284">
        <ele>2089.4</ele>
        <time>2021-02-28T10:08:23Z</time>
      </trkpt>
      <trkpt lat="45.08367" lon="6.45284">
        <ele>2089.8</ele>
        <time>2021-02-28T10:08:24Z</time>
      </trkpt>
      <trkpt lat="45.08366" lon="6.45287">
        <ele>2090</ele>
        <time>2021-02-28T10:08:25Z</time>
      </trkpt>
      <trkpt lat="45.08366" lon="6.45287">
        <ele>2090.4</ele>
        <time>2021-02-28T10:08:26Z</time>
      </trkpt>
      <trkpt lat="45.08365" lon="6.45289">
        <ele>2090.8</ele>
        <time>2021-02-28T10:08:27Z</time>
      </trkpt>
      <trkpt lat="45.08365" lon="6.45289">
        <ele>2091</ele>
        <time>2021-02-28T10:08:28Z</time>
      </trkpt>
      <trkpt lat="45.08364" lon="6.45292">
        <ele>2091.2</ele>
        <time>2021-02-28T10:08:29Z</time>
      </trkpt>
      <trkpt lat="45.08364" lon="6.45292">
        <ele>2091.6</ele>
        <time>2021-02-28T10:08:30Z</time>
      </trkpt>
      <trkpt lat="45.08363" lon="6.45294">
        <ele>2091.8</ele>
        <time>2021-02-28T10:08:31Z</time>
      </trkpt>
      <trkpt lat="45.08363" lon="6.45294">
        <ele>2092</ele>
        <time>2021-02-28T10:08:32Z</time>
      </trkpt>
      <trkpt lat="45.08363" lon="6.45294">
        <ele>2092.4</ele>
        <time>2021-02-28T10:08:33Z</time>
      </trkpt>
      <trkpt lat="45.08362" lon="6.45297">
        <ele>2092.8</ele>
        <time>2021-02-28T10:08:34Z</time>
      </trkpt>
      <trkpt lat="45.08362" lon="6.45297">
        <ele>2092.8</ele>
        <time>2021-02-28T10:08:35Z</time>
      </trkpt>
      <trkpt lat="45.08361" lon="6.45299">
        <ele>2093.2</ele>
        <time>2021-02-28T10:08:36Z</time>
      </trkpt>
      <trkpt lat="45.08361" lon="6.45299">
        <ele>2093.4</ele>
        <time>2021-02-28T10:08:37Z</time>
      </trkpt>
      <trkpt lat="45.08361" lon="6.45299">
        <ele>2094</ele>
        <time>2021-02-28T10:08:38Z</time>
      </trkpt>
      <trkpt lat="45.0836" lon="6.45302">
        <ele>2094.2</ele>
        <time>2021-02-28T10:08:39Z</time>
      </trkpt>
      <trkpt lat="45.0836" lon="6.45302">
        <ele>2094.6</ele>
        <time>2021-02-28T10:08:40Z</time>
      </trkpt>
      <trkpt lat="45.08359" lon="6.45304">
        <ele>2094.8</ele>
        <time>2021-02-28T10:08:41Z</time>
      </trkpt>
      <trkpt lat="45.08359" lon="6.45304">
        <ele>2094.8</ele>
        <time>2021-02-28T10:08:42Z</time>
      </trkpt>
      <trkpt lat="45.08359" lon="6.45304">
        <ele>2095.2</ele>
        <time>2021-02-28T10:08:43Z</time>
      </trkpt>
      <trkpt lat="45.08356" lon="6.45307">
        <ele>2095.4</ele>
        <time>2021-02-28T10:08:44Z</time>
      </trkpt>
      <trkpt lat="45.08356" lon="6.45307">
        <ele>2095.6</ele>
        <time>2021-02-28T10:08:45Z</time>
      </trkpt>
      <trkpt lat="45.08355" lon="6.45309">
        <ele>2095.8</ele>
        <time>2021-02-28T10:08:46Z</time>
      </trkpt>
      <trkpt lat="45.08355" lon="6.45309">
        <ele>2096.2</ele>
        <time>2021-02-28T10:08:47Z</time>
      </trkpt>
      <trkpt lat="45.08355" lon="6.45309">
        <ele>2096.8</ele>
        <time>2021-02-28T10:08:48Z</time>
      </trkpt>
      <trkpt lat="45.08354" lon="6.45312">
        <ele>2097.2</ele>
        <time>2021-02-28T10:08:49Z</time>
      </trkpt>
      <trkpt lat="45.08354" lon="6.45312">
        <ele>2097.4</ele>
        <time>2021-02-28T10:08:50Z</time>
      </trkpt>
      <trkpt lat="45.08352" lon="6.45314">
        <ele>2097.6</ele>
        <time>2021-02-28T10:08:51Z</time>
      </trkpt>
      <trkpt lat="45.08352" lon="6.45314">
        <ele>2098</ele>
        <time>2021-02-28T10:08:52Z</time>
      </trkpt>
      <trkpt lat="45.08352" lon="6.45314">
        <ele>2098.2</ele>
        <time>2021-02-28T10:08:53Z</time>
      </trkpt>
      <trkpt lat="45.0835" lon="6.45316">
        <ele>2098.8</ele>
        <time>2021-02-28T10:08:54Z</time>
      </trkpt>
      <trkpt lat="45.0835" lon="6.45316">
        <ele>2098.8</ele>
        <time>2021-02-28T10:08:55Z</time>
      </trkpt>
      <trkpt lat="45.08348" lon="6.45319">
        <ele>2099.2</ele>
        <time>2021-02-28T10:08:56Z</time>
      </trkpt>
      <trkpt lat="45.08348" lon="6.45319">
        <ele>2099.6</ele>
        <time>2021-02-28T10:08:57Z</time>
      </trkpt>
      <trkpt lat="45.08348" lon="6.45319">
        <ele>2099.8</ele>
        <time>2021-02-28T10:08:58Z</time>
      </trkpt>
      <trkpt lat="45.08346" lon="6.45321">
        <ele>2100</ele>
        <time>2021-02-28T10:08:59Z</time>
      </trkpt>
      <trkpt lat="45.08346" lon="6.45321">
        <ele>2100.2</ele>
        <time>2021-02-28T10:09:00Z</time>
      </trkpt>
      <trkpt lat="45.08345" lon="6.45323">
        <ele>2100.6</ele>
        <time>2021-02-28T10:09:01Z</time>
      </trkpt>
      <trkpt lat="45.08345" lon="6.45323">
        <ele>2100.8</ele>
        <time>2021-02-28T10:09:02Z</time>
      </trkpt>
      <trkpt lat="45.08343" lon="6.45325">
        <ele>2101.2</ele>
        <time>2021-02-28T10:09:03Z</time>
      </trkpt>
      <trkpt lat="45.08343" lon="6.45325">
        <ele>2101.4</ele>
        <time>2021-02-28T10:09:04Z</time>
      </trkpt>
      <trkpt lat="45.08341" lon="6.45326">
        <ele>2101.4</ele>
        <time>2021-02-28T10:09:05Z</time>
      </trkpt>
      <trkpt lat="45.08341" lon="6.45326">
        <ele>2101.6</ele>
        <time>2021-02-28T10:09:06Z</time>
      </trkpt>
      <trkpt lat="45.08341" lon="6.45326">
        <ele>2101.8</ele>
        <time>2021-02-28T10:09:07Z</time>
      </trkpt>
      <trkpt lat="45.08339" lon="6.45328">
        <ele>2101.8</ele>
        <time>2021-02-28T10:09:08Z</time>
      </trkpt>
      <trkpt lat="45.08339" lon="6.45328">
        <ele>2102.4</ele>
        <time>2021-02-28T10:09:09Z</time>
      </trkpt>
      <trkpt lat="45.08339" lon="6.45328">
        <ele>2103</ele>
        <time>2021-02-28T10:09:10Z</time>
      </trkpt>
      <trkpt lat="45.08337" lon="6.45331">
        <ele>2103.2</ele>
        <time>2021-02-28T10:09:11Z</time>
      </trkpt>
      <trkpt lat="45.08337" lon="6.45331">
        <ele>2103.2</ele>
        <time>2021-02-28T10:09:12Z</time>
      </trkpt>
      <trkpt lat="45.08337" lon="6.45331">
        <ele>2103.6</ele>
        <time>2021-02-28T10:09:13Z</time>
      </trkpt>
      <trkpt lat="45.08337" lon="6.45331">
        <ele>2104.2</ele>
        <time>2021-02-28T10:09:14Z</time>
      </trkpt>
      <trkpt lat="45.08337" lon="6.45331">
        <ele>2104.2</ele>
        <time>2021-02-28T10:09:15Z</time>
      </trkpt>
      <trkpt lat="45.08337" lon="6.45331">
        <ele>2104.2</ele>
        <time>2021-02-28T10:09:16Z</time>
      </trkpt>
      <trkpt lat="45.08337" lon="6.45331">
        <ele>2104.4</ele>
        <time>2021-02-28T10:09:17Z</time>
      </trkpt>
      <trkpt lat="45.08337" lon="6.45331">
        <ele>2104.4</ele>
        <time>2021-02-28T10:09:18Z</time>
      </trkpt>
      <trkpt lat="45.08336" lon="6.45333">
        <ele>2104.6</ele>
        <time>2021-02-28T10:09:19Z</time>
      </trkpt>
      <trkpt lat="45.08336" lon="6.45333">
        <ele>2104.6</ele>
        <time>2021-02-28T10:09:20Z</time>
      </trkpt>
      <trkpt lat="45.08334" lon="6.45335">
        <ele>2104.6</ele>
        <time>2021-02-28T10:09:21Z</time>
      </trkpt>
      <trkpt lat="45.08334" lon="6.45335">
        <ele>2105</ele>
        <time>2021-02-28T10:09:22Z</time>
      </trkpt>
      <trkpt lat="45.08332" lon="6.45337">
        <ele>2104.8</ele>
        <time>2021-02-28T10:09:23Z</time>
      </trkpt>
      <trkpt lat="45.08332" lon="6.45337">
        <ele>2104.4</ele>
        <time>2021-02-28T10:09:24Z</time>
      </trkpt>
      <trkpt lat="45.0833" lon="6.45339">
        <ele>2104.6</ele>
        <time>2021-02-28T10:09:25Z</time>
      </trkpt>
      <trkpt lat="45.0833" lon="6.45339">
        <ele>2105.6</ele>
        <time>2021-02-28T10:09:26Z</time>
      </trkpt>
      <trkpt lat="45.08328" lon="6.4534">
        <ele>2105.2</ele>
        <time>2021-02-28T10:09:27Z</time>
      </trkpt>
      <trkpt lat="45.08328" lon="6.4534">
        <ele>2105</ele>
        <time>2021-02-28T10:09:28Z</time>
      </trkpt>
      <trkpt lat="45.08326" lon="6.45342">
        <ele>2105.2</ele>
        <time>2021-02-28T10:09:29Z</time>
      </trkpt>
      <trkpt lat="45.08326" lon="6.45342">
        <ele>2106</ele>
        <time>2021-02-28T10:09:30Z</time>
      </trkpt>
      <trkpt lat="45.08324" lon="6.45343">
        <ele>2106.2</ele>
        <time>2021-02-28T10:09:31Z</time>
      </trkpt>
      <trkpt lat="45.08324" lon="6.45343">
        <ele>2106</ele>
        <time>2021-02-28T10:09:32Z</time>
      </trkpt>
      <trkpt lat="45.08322" lon="6.45344">
        <ele>2106.2</ele>
        <time>2021-02-28T10:09:33Z</time>
      </trkpt>
      <trkpt lat="45.08322" lon="6.45344">
        <ele>2107.2</ele>
        <time>2021-02-28T10:09:34Z</time>
      </trkpt>
      <trkpt lat="45.0832" lon="6.45346">
        <ele>2106.6</ele>
        <time>2021-02-28T10:09:35Z</time>
      </trkpt>
      <trkpt lat="45.0832" lon="6.45346">
        <ele>2105.8</ele>
        <time>2021-02-28T10:09:36Z</time>
      </trkpt>
      <trkpt lat="45.08318" lon="6.45348">
        <ele>2107</ele>
        <time>2021-02-28T10:09:37Z</time>
      </trkpt>
      <trkpt lat="45.08318" lon="6.45348">
        <ele>2107.4</ele>
        <time>2021-02-28T10:09:38Z</time>
      </trkpt>
      <trkpt lat="45.08316" lon="6.45351">
        <ele>2107</ele>
        <time>2021-02-28T10:09:39Z</time>
      </trkpt>
      <trkpt lat="45.08316" lon="6.45351">
        <ele>2106.4</ele>
        <time>2021-02-28T10:09:40Z</time>
      </trkpt>
      <trkpt lat="45.08314" lon="6.45355">
        <ele>2106.6</ele>
        <time>2021-02-28T10:09:41Z</time>
      </trkpt>
      <trkpt lat="45.08314" lon="6.45355">
        <ele>2106.8</ele>
        <time>2021-02-28T10:09:42Z</time>
      </trkpt>
      <trkpt lat="45.08312" lon="6.45358">
        <ele>2106.8</ele>
        <time>2021-02-28T10:09:43Z</time>
      </trkpt>
      <trkpt lat="45.08312" lon="6.45358">
        <ele>2106.8</ele>
        <time>2021-02-28T10:09:44Z</time>
      </trkpt>
      <trkpt lat="45.08312" lon="6.45358">
        <ele>2106.8</ele>
        <time>2021-02-28T10:09:45Z</time>
      </trkpt>
      <trkpt lat="45.08311" lon="6.45361">
        <ele>2106.4</ele>
        <time>2021-02-28T10:09:46Z</time>
      </trkpt>
      <trkpt lat="45.08311" lon="6.45361">
        <ele>2106.4</ele>
        <time>2021-02-28T10:09:47Z</time>
      </trkpt>
      <trkpt lat="45.08311" lon="6.45361">
        <ele>2106.8</ele>
        <time>2021-02-28T10:09:48Z</time>
      </trkpt>
      <trkpt lat="45.08311" lon="6.45361">
        <ele>2106.6</ele>
        <time>2021-02-28T10:09:49Z</time>
      </trkpt>
      <trkpt lat="45.08311" lon="6.45361">
        <ele>2106.6</ele>
        <time>2021-02-28T10:09:50Z</time>
      </trkpt>
      <trkpt lat="45.08311" lon="6.45361">
        <ele>2106.8</ele>
        <time>2021-02-28T10:09:51Z</time>
      </trkpt>
      <trkpt lat="45.08311" lon="6.45361">
        <ele>2107.2</ele>
        <time>2021-02-28T10:09:52Z</time>
      </trkpt>
      <trkpt lat="45.08311" lon="6.45361">
        <ele>2107</ele>
        <time>2021-02-28T10:09:53Z</time>
      </trkpt>
      <trkpt lat="45.08311" lon="6.45361">
        <ele>2106.8</ele>
        <time>2021-02-28T10:09:54Z</time>
      </trkpt>
      <trkpt lat="45.08311" lon="6.45361">
        <ele>2107.4</ele>
        <time>2021-02-28T10:09:55Z</time>
      </trkpt>
      <trkpt lat="45.08311" lon="6.45361">
        <ele>2107.2</ele>
        <time>2021-02-28T10:09:56Z</time>
      </trkpt>
      <trkpt lat="45.08311" lon="6.45361">
        <ele>2107.2</ele>
        <time>2021-02-28T10:09:57Z</time>
      </trkpt>
      <trkpt lat="45.08311" lon="6.45361">
        <ele>2107</ele>
        <time>2021-02-28T10:09:58Z</time>
      </trkpt>
      <trkpt lat="45.08311" lon="6.45361">
        <ele>2107</ele>
        <time>2021-02-28T10:09:59Z</time>
      </trkpt>
      <trkpt lat="45.08311" lon="6.45361">
        <ele>2107.2</ele>
        <time>2021-02-28T10:10:00Z</time>
      </trkpt>
      <trkpt lat="45.08311" lon="6.45361">
        <ele>2107</ele>
        <time>2021-02-28T10:10:01Z</time>
      </trkpt>
      <trkpt lat="45.08311" lon="6.45361">
        <ele>2107</ele>
        <time>2021-02-28T10:10:02Z</time>
      </trkpt>
      <trkpt lat="45.08311" lon="6.45361">
        <ele>2107</ele>
        <time>2021-02-28T10:10:03Z</time>
      </trkpt>
      <trkpt lat="45.08311" lon="6.45361">
        <ele>2107.2</ele>
        <time>2021-02-28T10:10:04Z</time>
      </trkpt>
      <trkpt lat="45.08311" lon="6.45361">
        <ele>2107</ele>
        <time>2021-02-28T10:10:05Z</time>
      </trkpt>
      <trkpt lat="45.08311" lon="6.45361">
        <ele>2106.6</ele>
        <time>2021-02-28T10:10:06Z</time>
      </trkpt>
      <trkpt lat="45.08311" lon="6.45361">
        <ele>2106.6</ele>
        <time>2021-02-28T10:10:07Z</time>
      </trkpt>
      <trkpt lat="45.08311" lon="6.45361">
        <ele>2106.6</ele>
        <time>2021-02-28T10:10:08Z</time>
      </trkpt>
      <trkpt lat="45.08311" lon="6.45361">
        <ele>2106.8</ele>
        <time>2021-02-28T10:10:09Z</time>
      </trkpt>
      <trkpt lat="45.08311" lon="6.45361">
        <ele>2106.6</ele>
        <time>2021-02-28T10:10:10Z</time>
      </trkpt>
      <trkpt lat="45.08311" lon="6.45361">
        <ele>2106.6</ele>
        <time>2021-02-28T10:10:11Z</time>
      </trkpt>
      <trkpt lat="45.08311" lon="6.45361">
        <ele>2106.6</ele>
        <time>2021-02-28T10:10:12Z</time>
      </trkpt>
      <trkpt lat="45.08311" lon="6.45361">
        <ele>2106.8</ele>
        <time>2021-02-28T10:10:13Z</time>
      </trkpt>
      <trkpt lat="45.08311" lon="6.45361">
        <ele>2106.8</ele>
        <time>2021-02-28T10:10:14Z</time>
      </trkpt>
      <trkpt lat="45.08311" lon="6.45361">
        <ele>2107</ele>
        <time>2021-02-28T10:10:15Z</time>
      </trkpt>
      <trkpt lat="45.08311" lon="6.45361">
        <ele>2107</ele>
        <time>2021-02-28T10:10:16Z</time>
      </trkpt>
      <trkpt lat="45.08311" lon="6.45361">
        <ele>2106.8</ele>
        <time>2021-02-28T10:10:17Z</time>
      </trkpt>
      <trkpt lat="45.08311" lon="6.45361">
        <ele>2106.8</ele>
        <time>2021-02-28T10:10:18Z</time>
      </trkpt>
      <trkpt lat="45.08311" lon="6.45361">
        <ele>2106.8</ele>
        <time>2021-02-28T10:10:19Z</time>
      </trkpt>
      <trkpt lat="45.08311" lon="6.45361">
        <ele>2107</ele>
        <time>2021-02-28T10:10:20Z</time>
      </trkpt>
      <trkpt lat="45.08311" lon="6.45361">
        <ele>2107</ele>
        <time>2021-02-28T10:10:21Z</time>
      </trkpt>
      <trkpt lat="45.08311" lon="6.45361">
        <ele>2107</ele>
        <time>2021-02-28T10:10:22Z</time>
      </trkpt>
      <trkpt lat="45.08311" lon="6.45361">
        <ele>2106.8</ele>
        <time>2021-02-28T10:10:23Z</time>
      </trkpt>
      <trkpt lat="45.08311" lon="6.45361">
        <ele>2107</ele>
        <time>2021-02-28T10:10:24Z</time>
      </trkpt>
      <trkpt lat="45.08311" lon="6.45361">
        <ele>2107</ele>
        <time>2021-02-28T10:10:25Z</time>
      </trkpt>
      <trkpt lat="45.08311" lon="6.45361">
        <ele>2107</ele>
        <time>2021-02-28T10:10:26Z</time>
      </trkpt>
      <trkpt lat="45.08311" lon="6.45361">
        <ele>2107</ele>
        <time>2021-02-28T10:10:27Z</time>
      </trkpt>
      <trkpt lat="45.08311" lon="6.45361">
        <ele>2107</ele>
        <time>2021-02-28T10:10:28Z</time>
      </trkpt>
      <trkpt lat="45.08311" lon="6.45361">
        <ele>2106.8</ele>
        <time>2021-02-28T10:10:29Z</time>
      </trkpt>
      <trkpt lat="45.08311" lon="6.45361">
        <ele>2107</ele>
        <time>2021-02-28T10:10:30Z</time>
      </trkpt>
      <trkpt lat="45.08311" lon="6.45361">
        <ele>2106.8</ele>
        <time>2021-02-28T10:10:31Z</time>
      </trkpt>
      <trkpt lat="45.08311" lon="6.45361">
        <ele>2106.6</ele>
        <time>2021-02-28T10:10:32Z</time>
      </trkpt>
      <trkpt lat="45.08311" lon="6.45361">
        <ele>2106.4</ele>
        <time>2021-02-28T10:10:33Z</time>
      </trkpt>
      <trkpt lat="45.08311" lon="6.45361">
        <ele>2106.2</ele>
        <time>2021-02-28T10:10:34Z</time>
      </trkpt>
      <trkpt lat="45.08311" lon="6.45361">
        <ele>2106.2</ele>
        <time>2021-02-28T10:10:35Z</time>
      </trkpt>
      <trkpt lat="45.08311" lon="6.45361">
        <ele>2106</ele>
        <time>2021-02-28T10:10:36Z</time>
      </trkpt>
      <trkpt lat="45.08311" lon="6.45361">
        <ele>2106.2</ele>
        <time>2021-02-28T10:10:37Z</time>
      </trkpt>
      <trkpt lat="45.08311" lon="6.45361">
        <ele>2106.2</ele>
        <time>2021-02-28T10:10:38Z</time>
      </trkpt>
      <trkpt lat="45.08311" lon="6.45361">
        <ele>2106.2</ele>
        <time>2021-02-28T10:10:39Z</time>
      </trkpt>
      <trkpt lat="45.08311" lon="6.45361">
        <ele>2106.4</ele>
        <time>2021-02-28T10:10:40Z</time>
      </trkpt>
      <trkpt lat="45.08311" lon="6.45361">
        <ele>2106.4</ele>
        <time>2021-02-28T10:10:41Z</time>
      </trkpt>
      <trkpt lat="45.08311" lon="6.45361">
        <ele>2106.2</ele>
        <time>2021-02-28T10:10:42Z</time>
      </trkpt>
      <trkpt lat="45.08311" lon="6.45361">
        <ele>2106</ele>
        <time>2021-02-28T10:10:43Z</time>
      </trkpt>
      <trkpt lat="45.08311" lon="6.45361">
        <ele>2106</ele>
        <time>2021-02-28T10:10:44Z</time>
      </trkpt>
      <trkpt lat="45.08311" lon="6.45361">
        <ele>2106</ele>
        <time>2021-02-28T10:10:45Z</time>
      </trkpt>
      <trkpt lat="45.08311" lon="6.45361">
        <ele>2105.6</ele>
        <time>2021-02-28T10:10:46Z</time>
      </trkpt>
      <trkpt lat="45.08311" lon="6.45361">
        <ele>2105.4</ele>
        <time>2021-02-28T10:10:47Z</time>
      </trkpt>
      <trkpt lat="45.08311" lon="6.45361">
        <ele>2105.4</ele>
        <time>2021-02-28T10:10:48Z</time>
      </trkpt>
      <trkpt lat="45.08311" lon="6.45361">
        <ele>2105.4</ele>
        <time>2021-02-28T10:10:49Z</time>
      </trkpt>
      <trkpt lat="45.08311" lon="6.45361">
        <ele>2105.4</ele>
        <time>2021-02-28T10:10:50Z</time>
      </trkpt>
      <trkpt lat="45.08311" lon="6.45361">
        <ele>2105.8</ele>
        <time>2021-02-28T10:10:51Z</time>
      </trkpt>
      <trkpt lat="45.08311" lon="6.45361">
        <ele>2105.8</ele>
        <time>2021-02-28T10:10:52Z</time>
      </trkpt>
      <trkpt lat="45.08311" lon="6.45361">
        <ele>2105.8</ele>
        <time>2021-02-28T10:10:53Z</time>
      </trkpt>
      <trkpt lat="45.08311" lon="6.45361">
        <ele>2106</ele>
        <time>2021-02-28T10:10:54Z</time>
      </trkpt>
      <trkpt lat="45.08311" lon="6.45361">
        <ele>2105.8</ele>
        <time>2021-02-28T10:10:55Z</time>
      </trkpt>
      <trkpt lat="45.08311" lon="6.45361">
        <ele>2105.6</ele>
        <time>2021-02-28T10:10:56Z</time>
      </trkpt>
      <trkpt lat="45.08311" lon="6.45361">
        <ele>2105.8</ele>
        <time>2021-02-28T10:10:57Z</time>
      </trkpt>
      <trkpt lat="45.08311" lon="6.45361">
        <ele>2105.8</ele>
        <time>2021-02-28T10:10:58Z</time>
      </trkpt>
      <trkpt lat="45.08311" lon="6.45361">
        <ele>2105.6</ele>
        <time>2021-02-28T10:10:59Z</time>
      </trkpt>
      <trkpt lat="45.08311" lon="6.45361">
        <ele>2105.6</ele>
        <time>2021-02-28T10:11:00Z</time>
      </trkpt>
      <trkpt lat="45.08311" lon="6.45361">
        <ele>2105.8</ele>
        <time>2021-02-28T10:11:01Z</time>
      </trkpt>
      <trkpt lat="45.08311" lon="6.45361">
        <ele>2105.6</ele>
        <time>2021-02-28T10:11:02Z</time>
      </trkpt>
      <trkpt lat="45.08311" lon="6.45361">
        <ele>2105.6</ele>
        <time>2021-02-28T10:11:03Z</time>
      </trkpt>
      <trkpt lat="45.08311" lon="6.45361">
        <ele>2105.2</ele>
        <time>2021-02-28T10:11:04Z</time>
      </trkpt>
      <trkpt lat="45.08311" lon="6.45361">
        <ele>2105.4</ele>
        <time>2021-02-28T10:11:05Z</time>
      </trkpt>
      <trkpt lat="45.08311" lon="6.45361">
        <ele>2105.4</ele>
        <time>2021-02-28T10:11:06Z</time>
      </trkpt>
      <trkpt lat="45.08311" lon="6.45361">
        <ele>2105.4</ele>
        <time>2021-02-28T10:11:07Z</time>
      </trkpt>
      <trkpt lat="45.08311" lon="6.45361">
        <ele>2105.6</ele>
        <time>2021-02-28T10:11:08Z</time>
      </trkpt>
      <trkpt lat="45.08311" lon="6.45361">
        <ele>2105.6</ele>
        <time>2021-02-28T10:11:09Z</time>
      </trkpt>
      <trkpt lat="45.08311" lon="6.45361">
        <ele>2105.6</ele>
        <time>2021-02-28T10:11:10Z</time>
      </trkpt>
      <trkpt lat="45.08311" lon="6.45361">
        <ele>2105.6</ele>
        <time>2021-02-28T10:11:11Z</time>
      </trkpt>
      <trkpt lat="45.08311" lon="6.45361">
        <ele>2105.4</ele>
        <time>2021-02-28T10:11:12Z</time>
      </trkpt>
      <trkpt lat="45.08311" lon="6.45361">
        <ele>2105.6</ele>
        <time>2021-02-28T10:11:13Z</time>
      </trkpt>
      <trkpt lat="45.08311" lon="6.45361">
        <ele>2105.6</ele>
        <time>2021-02-28T10:11:14Z</time>
      </trkpt>
      <trkpt lat="45.08311" lon="6.45361">
        <ele>2105.4</ele>
        <time>2021-02-28T10:11:15Z</time>
      </trkpt>
      <trkpt lat="45.08311" lon="6.45361">
        <ele>2105.6</ele>
        <time>2021-02-28T10:11:16Z</time>
      </trkpt>
      <trkpt lat="45.08311" lon="6.45361">
        <ele>2105.6</ele>
        <time>2021-02-28T10:11:17Z</time>
      </trkpt>
      <trkpt lat="45.08311" lon="6.45361">
        <ele>2105.4</ele>
        <time>2021-02-28T10:11:18Z</time>
      </trkpt>
      <trkpt lat="45.08311" lon="6.45361">
        <ele>2105.2</ele>
        <time>2021-02-28T10:11:19Z</time>
      </trkpt>
      <trkpt lat="45.08311" lon="6.45361">
        <ele>2105.2</ele>
        <time>2021-02-28T10:11:20Z</time>
      </trkpt>
      <trkpt lat="45.08311" lon="6.45361">
        <ele>2105.2</ele>
        <time>2021-02-28T10:11:21Z</time>
      </trkpt>
      <trkpt lat="45.08311" lon="6.45361">
        <ele>2105.2</ele>
        <time>2021-02-28T10:11:22Z</time>
      </trkpt>
      <trkpt lat="45.08311" lon="6.45361">
        <ele>2105.2</ele>
        <time>2021-02-28T10:11:23Z</time>
      </trkpt>
      <trkpt lat="45.08311" lon="6.45361">
        <ele>2105.2</ele>
        <time>2021-02-28T10:11:24Z</time>
      </trkpt>
      <trkpt lat="45.08311" lon="6.45361">
        <ele>2105.2</ele>
        <time>2021-02-28T10:11:25Z</time>
      </trkpt>
      <trkpt lat="45.08311" lon="6.45361">
        <ele>2105.2</ele>
        <time>2021-02-28T10:11:26Z</time>
      </trkpt>
      <trkpt lat="45.08311" lon="6.45361">
        <ele>2105.2</ele>
        <time>2021-02-28T10:11:27Z</time>
      </trkpt>
      <trkpt lat="45.08311" lon="6.45361">
        <ele>2105</ele>
        <time>2021-02-28T10:11:28Z</time>
      </trkpt>
      <trkpt lat="45.08311" lon="6.45361">
        <ele>2105</ele>
        <time>2021-02-28T10:11:29Z</time>
      </trkpt>
      <trkpt lat="45.08311" lon="6.45361">
        <ele>2105</ele>
        <time>2021-02-28T10:11:30Z</time>
      </trkpt>
      <trkpt lat="45.08311" lon="6.45361">
        <ele>2105</ele>
        <time>2021-02-28T10:11:31Z</time>
      </trkpt>
      <trkpt lat="45.08311" lon="6.45361">
        <ele>2105</ele>
        <time>2021-02-28T10:11:32Z</time>
      </trkpt>
      <trkpt lat="45.08311" lon="6.45361">
        <ele>2105.2</ele>
        <time>2021-02-28T10:11:33Z</time>
      </trkpt>
      <trkpt lat="45.08311" lon="6.45361">
        <ele>2105.2</ele>
        <time>2021-02-28T10:11:34Z</time>
      </trkpt>
      <trkpt lat="45.08311" lon="6.45361">
        <ele>2105.2</ele>
        <time>2021-02-28T10:11:35Z</time>
      </trkpt>
      <trkpt lat="45.08311" lon="6.45361">
        <ele>2105</ele>
        <time>2021-02-28T10:11:36Z</time>
      </trkpt>
      <trkpt lat="45.08311" lon="6.45361">
        <ele>2105</ele>
        <time>2021-02-28T10:11:37Z</time>
      </trkpt>
      <trkpt lat="45.08311" lon="6.45361">
        <ele>2105.2</ele>
        <time>2021-02-28T10:11:38Z</time>
      </trkpt>
      <trkpt lat="45.0831" lon="6.45364">
        <ele>2105.4</ele>
        <time>2021-02-28T10:11:39Z</time>
      </trkpt>
      <trkpt lat="45.0831" lon="6.45364">
        <ele>2105.8</ele>
        <time>2021-02-28T10:11:40Z</time>
      </trkpt>
      <trkpt lat="45.08307" lon="6.45366">
        <ele>2105.4</ele>
        <time>2021-02-28T10:11:41Z</time>
      </trkpt>
      <trkpt lat="45.08304" lon="6.45368">
        <ele>2104.8</ele>
        <time>2021-02-28T10:11:42Z</time>
      </trkpt>
      <trkpt lat="45.08302" lon="6.45369">
        <ele>2105.2</ele>
        <time>2021-02-28T10:11:43Z</time>
      </trkpt>
      <trkpt lat="45.08299" lon="6.4537">
        <ele>2104.6</ele>
        <time>2021-02-28T10:11:44Z</time>
      </trkpt>
      <trkpt lat="45.08296" lon="6.45372">
        <ele>2104.2</ele>
        <time>2021-02-28T10:11:45Z</time>
      </trkpt>
      <trkpt lat="45.08293" lon="6.45374">
        <ele>2104</ele>
        <time>2021-02-28T10:11:46Z</time>
      </trkpt>
      <trkpt lat="45.0829" lon="6.45377">
        <ele>2103.6</ele>
        <time>2021-02-28T10:11:47Z</time>
      </trkpt>
      <trkpt lat="45.08288" lon="6.4538">
        <ele>2103.2</ele>
        <time>2021-02-28T10:11:48Z</time>
      </trkpt>
      <trkpt lat="45.08286" lon="6.45384">
        <ele>2102.6</ele>
        <time>2021-02-28T10:11:49Z</time>
      </trkpt>
      <trkpt lat="45.08284" lon="6.45387">
        <ele>2102</ele>
        <time>2021-02-28T10:11:50Z</time>
      </trkpt>
      <trkpt lat="45.08281" lon="6.4539">
        <ele>2101.6</ele>
        <time>2021-02-28T10:11:51Z</time>
      </trkpt>
      <trkpt lat="45.08279" lon="6.45392">
        <ele>2101</ele>
        <time>2021-02-28T10:11:52Z</time>
      </trkpt>
      <trkpt lat="45.08275" lon="6.45394">
        <ele>2100.6</ele>
        <time>2021-02-28T10:11:53Z</time>
      </trkpt>
      <trkpt lat="45.08271" lon="6.45397">
        <ele>2100.2</ele>
        <time>2021-02-28T10:11:54Z</time>
      </trkpt>
      <trkpt lat="45.08266" lon="6.45399">
        <ele>2099.8</ele>
        <time>2021-02-28T10:11:55Z</time>
      </trkpt>
      <trkpt lat="45.08261" lon="6.45402">
        <ele>2099.6</ele>
        <time>2021-02-28T10:11:56Z</time>
      </trkpt>
      <trkpt lat="45.08256" lon="6.45404">
        <ele>2097.8</ele>
        <time>2021-02-28T10:11:57Z</time>
      </trkpt>
      <trkpt lat="45.0825" lon="6.45405">
        <ele>2097</ele>
        <time>2021-02-28T10:11:58Z</time>
      </trkpt>
      <trkpt lat="45.08244" lon="6.45406">
        <ele>2095.8</ele>
        <time>2021-02-28T10:11:59Z</time>
      </trkpt>
      <trkpt lat="45.08238" lon="6.45407">
        <ele>2094.8</ele>
        <time>2021-02-28T10:12:00Z</time>
      </trkpt>
      <trkpt lat="45.08233" lon="6.45407">
        <ele>2093.8</ele>
        <time>2021-02-28T10:12:01Z</time>
      </trkpt>
      <trkpt lat="45.08227" lon="6.45405">
        <ele>2092.4</ele>
        <time>2021-02-28T10:12:02Z</time>
      </trkpt>
      <trkpt lat="45.08223" lon="6.45404">
        <ele>2092</ele>
        <time>2021-02-28T10:12:03Z</time>
      </trkpt>
      <trkpt lat="45.08219" lon="6.45403">
        <ele>2091.2</ele>
        <time>2021-02-28T10:12:04Z</time>
      </trkpt>
      <trkpt lat="45.08215" lon="6.45403">
        <ele>2089.8</ele>
        <time>2021-02-28T10:12:05Z</time>
      </trkpt>
      <trkpt lat="45.08212" lon="6.45403">
        <ele>2089</ele>
        <time>2021-02-28T10:12:06Z</time>
      </trkpt>
      <trkpt lat="45.0821" lon="6.45404">
        <ele>2088.4</ele>
        <time>2021-02-28T10:12:07Z</time>
      </trkpt>
      <trkpt lat="45.08208" lon="6.45405">
        <ele>2087.6</ele>
        <time>2021-02-28T10:12:08Z</time>
      </trkpt>
      <trkpt lat="45.08206" lon="6.45406">
        <ele>2087.2</ele>
        <time>2021-02-28T10:12:09Z</time>
      </trkpt>
      <trkpt lat="45.08204" lon="6.45407">
        <ele>2087</ele>
        <time>2021-02-28T10:12:10Z</time>
      </trkpt>
      <trkpt lat="45.08204" lon="6.45407">
        <ele>2087.2</ele>
        <time>2021-02-28T10:12:11Z</time>
      </trkpt>
      <trkpt lat="45.08201" lon="6.4541">
        <ele>2086.8</ele>
        <time>2021-02-28T10:12:12Z</time>
      </trkpt>
      <trkpt lat="45.08201" lon="6.4541">
        <ele>2087.4</ele>
        <time>2021-02-28T10:12:13Z</time>
      </trkpt>
      <trkpt lat="45.08199" lon="6.45411">
        <ele>2087.2</ele>
        <time>2021-02-28T10:12:14Z</time>
      </trkpt>
      <trkpt lat="45.08199" lon="6.45411">
        <ele>2086.8</ele>
        <time>2021-02-28T10:12:15Z</time>
      </trkpt>
      <trkpt lat="45.08196" lon="6.45413">
        <ele>2086.6</ele>
        <time>2021-02-28T10:12:16Z</time>
      </trkpt>
      <trkpt lat="45.08196" lon="6.45413">
        <ele>2086.8</ele>
        <time>2021-02-28T10:12:17Z</time>
      </trkpt>
      <trkpt lat="45.08193" lon="6.45414">
        <ele>2086.8</ele>
        <time>2021-02-28T10:12:18Z</time>
      </trkpt>
      <trkpt lat="45.08193" lon="6.45414">
        <ele>2087.2</ele>
        <time>2021-02-28T10:12:19Z</time>
      </trkpt>
      <trkpt lat="45.08193" lon="6.45414">
        <ele>2087.2</ele>
        <time>2021-02-28T10:12:20Z</time>
      </trkpt>
      <trkpt lat="45.08193" lon="6.45414">
        <ele>2087.4</ele>
        <time>2021-02-28T10:12:21Z</time>
      </trkpt>
      <trkpt lat="45.08193" lon="6.45414">
        <ele>2087.6</ele>
        <time>2021-02-28T10:12:22Z</time>
      </trkpt>
      <trkpt lat="45.08191" lon="6.45414">
        <ele>2087.6</ele>
        <time>2021-02-28T10:12:23Z</time>
      </trkpt>
      <trkpt lat="45.08191" lon="6.45414">
        <ele>2087.4</ele>
        <time>2021-02-28T10:12:24Z</time>
      </trkpt>
      <trkpt lat="45.08191" lon="6.45414">
        <ele>2087.2</ele>
        <time>2021-02-28T10:12:25Z</time>
      </trkpt>
      <trkpt lat="45.08191" lon="6.45414">
        <ele>2086.8</ele>
        <time>2021-02-28T10:12:26Z</time>
      </trkpt>
      <trkpt lat="45.08191" lon="6.45414">
        <ele>2086.6</ele>
        <time>2021-02-28T10:12:27Z</time>
      </trkpt>
      <trkpt lat="45.08191" lon="6.45414">
        <ele>2086.2</ele>
        <time>2021-02-28T10:12:28Z</time>
      </trkpt>
      <trkpt lat="45.08191" lon="6.45414">
        <ele>2086.2</ele>
        <time>2021-02-28T10:12:29Z</time>
      </trkpt>
      <trkpt lat="45.08191" lon="6.45414">
        <ele>2086.2</ele>
        <time>2021-02-28T10:12:30Z</time>
      </trkpt>
      <trkpt lat="45.08191" lon="6.45414">
        <ele>2086</ele>
        <time>2021-02-28T10:12:31Z</time>
      </trkpt>
      <trkpt lat="45.08191" lon="6.45414">
        <ele>2086.2</ele>
        <time>2021-02-28T10:12:32Z</time>
      </trkpt>
      <trkpt lat="45.08191" lon="6.45414">
        <ele>2086</ele>
        <time>2021-02-28T10:12:33Z</time>
      </trkpt>
      <trkpt lat="45.08191" lon="6.45414">
        <ele>2086</ele>
        <time>2021-02-28T10:12:34Z</time>
      </trkpt>
      <trkpt lat="45.08191" lon="6.45414">
        <ele>2086</ele>
        <time>2021-02-28T10:12:35Z</time>
      </trkpt>
      <trkpt lat="45.08191" lon="6.45414">
        <ele>2086.4</ele>
        <time>2021-02-28T10:12:36Z</time>
      </trkpt>
      <trkpt lat="45.08191" lon="6.45414">
        <ele>2087</ele>
        <time>2021-02-28T10:12:37Z</time>
      </trkpt>
      <trkpt lat="45.08191" lon="6.45414">
        <ele>2087.4</ele>
        <time>2021-02-28T10:12:38Z</time>
      </trkpt>
      <trkpt lat="45.08191" lon="6.45414">
        <ele>2087.6</ele>
        <time>2021-02-28T10:12:39Z</time>
      </trkpt>
      <trkpt lat="45.08191" lon="6.45414">
        <ele>2087.8</ele>
        <time>2021-02-28T10:12:40Z</time>
      </trkpt>
      <trkpt lat="45.08191" lon="6.45414">
        <ele>2087.8</ele>
        <time>2021-02-28T10:12:41Z</time>
      </trkpt>
      <trkpt lat="45.08191" lon="6.45414">
        <ele>2087.8</ele>
        <time>2021-02-28T10:12:42Z</time>
      </trkpt>
      <trkpt lat="45.08191" lon="6.45414">
        <ele>2088</ele>
        <time>2021-02-28T10:12:43Z</time>
      </trkpt>
      <trkpt lat="45.08191" lon="6.45414">
        <ele>2088</ele>
        <time>2021-02-28T10:12:44Z</time>
      </trkpt>
      <trkpt lat="45.08191" lon="6.45414">
        <ele>2088.2</ele>
        <time>2021-02-28T10:12:45Z</time>
      </trkpt>
      <trkpt lat="45.08191" lon="6.45414">
        <ele>2088.6</ele>
        <time>2021-02-28T10:12:46Z</time>
      </trkpt>
      <trkpt lat="45.08191" lon="6.45414">
        <ele>2088.6</ele>
        <time>2021-02-28T10:12:47Z</time>
      </trkpt>
      <trkpt lat="45.08191" lon="6.45414">
        <ele>2088.4</ele>
        <time>2021-02-28T10:12:48Z</time>
      </trkpt>
      <trkpt lat="45.08191" lon="6.45414">
        <ele>2087.8</ele>
        <time>2021-02-28T10:12:49Z</time>
      </trkpt>
      <trkpt lat="45.08191" lon="6.45414">
        <ele>2087.4</ele>
        <time>2021-02-28T10:12:50Z</time>
      </trkpt>
      <trkpt lat="45.08191" lon="6.45414">
        <ele>2087.4</ele>
        <time>2021-02-28T10:12:51Z</time>
      </trkpt>
      <trkpt lat="45.08191" lon="6.45414">
        <ele>2087.2</ele>
        <time>2021-02-28T10:12:52Z</time>
      </trkpt>
      <trkpt lat="45.08191" lon="6.45414">
        <ele>2087</ele>
        <time>2021-02-28T10:12:53Z</time>
      </trkpt>
      <trkpt lat="45.08191" lon="6.45414">
        <ele>2087</ele>
        <time>2021-02-28T10:12:54Z</time>
      </trkpt>
      <trkpt lat="45.08191" lon="6.45414">
        <ele>2086.8</ele>
        <time>2021-02-28T10:12:55Z</time>
      </trkpt>
      <trkpt lat="45.08191" lon="6.45414">
        <ele>2087</ele>
        <time>2021-02-28T10:12:56Z</time>
      </trkpt>
      <trkpt lat="45.08191" lon="6.45414">
        <ele>2086.8</ele>
        <time>2021-02-28T10:12:57Z</time>
      </trkpt>
      <trkpt lat="45.08191" lon="6.45414">
        <ele>2086.8</ele>
        <time>2021-02-28T10:12:58Z</time>
      </trkpt>
      <trkpt lat="45.08191" lon="6.45414">
        <ele>2086.6</ele>
        <time>2021-02-28T10:12:59Z</time>
      </trkpt>
      <trkpt lat="45.08191" lon="6.45414">
        <ele>2086.6</ele>
        <time>2021-02-28T10:13:00Z</time>
      </trkpt>
      <trkpt lat="45.08191" lon="6.45414">
        <ele>2086.6</ele>
        <time>2021-02-28T10:13:01Z</time>
      </trkpt>
      <trkpt lat="45.08191" lon="6.45414">
        <ele>2086.4</ele>
        <time>2021-02-28T10:13:02Z</time>
      </trkpt>
      <trkpt lat="45.08191" lon="6.45414">
        <ele>2086.2</ele>
        <time>2021-02-28T10:13:03Z</time>
      </trkpt>
      <trkpt lat="45.08191" lon="6.45414">
        <ele>2086.4</ele>
        <time>2021-02-28T10:13:04Z</time>
      </trkpt>
      <trkpt lat="45.08191" lon="6.45414">
        <ele>2086.4</ele>
        <time>2021-02-28T10:13:05Z</time>
      </trkpt>
      <trkpt lat="45.08191" lon="6.45414">
        <ele>2086.2</ele>
        <time>2021-02-28T10:13:06Z</time>
      </trkpt>
      <trkpt lat="45.08191" lon="6.45414">
        <ele>2086.2</ele>
        <time>2021-02-28T10:13:07Z</time>
      </trkpt>
      <trkpt lat="45.08191" lon="6.45414">
        <ele>2086.4</ele>
        <time>2021-02-28T10:13:08Z</time>
      </trkpt>
      <trkpt lat="45.08191" lon="6.45414">
        <ele>2086.2</ele>
        <time>2021-02-28T10:13:09Z</time>
      </trkpt>
      <trkpt lat="45.08191" lon="6.45414">
        <ele>2086.4</ele>
        <time>2021-02-28T10:13:10Z</time>
      </trkpt>
      <trkpt lat="45.08191" lon="6.45414">
        <ele>2086.6</ele>
        <time>2021-02-28T10:13:11Z</time>
      </trkpt>
      <trkpt lat="45.08189" lon="6.45416">
        <ele>2086.8</ele>
        <time>2021-02-28T10:13:12Z</time>
      </trkpt>
      <trkpt lat="45.08189" lon="6.45416">
        <ele>2087.2</ele>
        <time>2021-02-28T10:13:13Z</time>
      </trkpt>
      <trkpt lat="45.08186" lon="6.45419">
        <ele>2086.8</ele>
        <time>2021-02-28T10:13:14Z</time>
      </trkpt>
      <trkpt lat="45.08186" lon="6.45419">
        <ele>2087</ele>
        <time>2021-02-28T10:13:15Z</time>
      </trkpt>
      <trkpt lat="45.08184" lon="6.45421">
        <ele>2087.2</ele>
        <time>2021-02-28T10:13:16Z</time>
      </trkpt>
      <trkpt lat="45.08184" lon="6.45421">
        <ele>2087.4</ele>
        <time>2021-02-28T10:13:17Z</time>
      </trkpt>
      <trkpt lat="45.08181" lon="6.45423">
        <ele>2087.6</ele>
        <time>2021-02-28T10:13:18Z</time>
      </trkpt>
      <trkpt lat="45.08181" lon="6.45423">
        <ele>2087.4</ele>
        <time>2021-02-28T10:13:19Z</time>
      </trkpt>
      <trkpt lat="45.08178" lon="6.45425">
        <ele>2087.2</ele>
        <time>2021-02-28T10:13:20Z</time>
      </trkpt>
      <trkpt lat="45.08178" lon="6.45425">
        <ele>2087.6</ele>
        <time>2021-02-28T10:13:21Z</time>
      </trkpt>
      <trkpt lat="45.08175" lon="6.45427">
        <ele>2088.4</ele>
        <time>2021-02-28T10:13:22Z</time>
      </trkpt>
      <trkpt lat="45.08175" lon="6.45427">
        <ele>2088.2</ele>
        <time>2021-02-28T10:13:23Z</time>
      </trkpt>
      <trkpt lat="45.08172" lon="6.45428">
        <ele>2087.6</ele>
        <time>2021-02-28T10:13:24Z</time>
      </trkpt>
      <trkpt lat="45.0817" lon="6.45429">
        <ele>2087.4</ele>
        <time>2021-02-28T10:13:25Z</time>
      </trkpt>
      <trkpt lat="45.08169" lon="6.4543">
        <ele>2087.6</ele>
        <time>2021-02-28T10:13:26Z</time>
      </trkpt>
      <trkpt lat="45.08169" lon="6.4543">
        <ele>2087.8</ele>
        <time>2021-02-28T10:13:27Z</time>
      </trkpt>
      <trkpt lat="45.08166" lon="6.45432">
        <ele>2087.8</ele>
        <time>2021-02-28T10:13:28Z</time>
      </trkpt>
      <trkpt lat="45.08166" lon="6.45432">
        <ele>2087.8</ele>
        <time>2021-02-28T10:13:29Z</time>
      </trkpt>
      <trkpt lat="45.08163" lon="6.45434">
        <ele>2087.6</ele>
        <time>2021-02-28T10:13:30Z</time>
      </trkpt>
      <trkpt lat="45.08161" lon="6.45435">
        <ele>2087.4</ele>
        <time>2021-02-28T10:13:31Z</time>
      </trkpt>
      <trkpt lat="45.0816" lon="6.45437">
        <ele>2087</ele>
        <time>2021-02-28T10:13:32Z</time>
      </trkpt>
      <trkpt lat="45.0816" lon="6.45437">
        <ele>2086.8</ele>
        <time>2021-02-28T10:13:33Z</time>
      </trkpt>
      <trkpt lat="45.08157" lon="6.45438">
        <ele>2087</ele>
        <time>2021-02-28T10:13:34Z</time>
      </trkpt>
      <trkpt lat="45.08157" lon="6.45438">
        <ele>2087.6</ele>
        <time>2021-02-28T10:13:35Z</time>
      </trkpt>
      <trkpt lat="45.08155" lon="6.45439">
        <ele>2087.4</ele>
        <time>2021-02-28T10:13:36Z</time>
      </trkpt>
      <trkpt lat="45.08155" lon="6.45439">
        <ele>2087.4</ele>
        <time>2021-02-28T10:13:37Z</time>
      </trkpt>
      <trkpt lat="45.08152" lon="6.4544">
        <ele>2087.4</ele>
        <time>2021-02-28T10:13:38Z</time>
      </trkpt>
      <trkpt lat="45.0815" lon="6.45442">
        <ele>2087.4</ele>
        <time>2021-02-28T10:13:39Z</time>
      </trkpt>
      <trkpt lat="45.0815" lon="6.45442">
        <ele>2087.6</ele>
        <time>2021-02-28T10:13:40Z</time>
      </trkpt>
      <trkpt lat="45.08147" lon="6.45443">
        <ele>2088.4</ele>
        <time>2021-02-28T10:13:41Z</time>
      </trkpt>
      <trkpt lat="45.08145" lon="6.45445">
        <ele>2088.4</ele>
        <time>2021-02-28T10:13:42Z</time>
      </trkpt>
      <trkpt lat="45.08144" lon="6.45446">
        <ele>2087.8</ele>
        <time>2021-02-28T10:13:43Z</time>
      </trkpt>
      <trkpt lat="45.08142" lon="6.45447">
        <ele>2087.4</ele>
        <time>2021-02-28T10:13:44Z</time>
      </trkpt>
      <trkpt lat="45.08142" lon="6.45447">
        <ele>2087.4</ele>
        <time>2021-02-28T10:13:45Z</time>
      </trkpt>
      <trkpt lat="45.0814" lon="6.45449">
        <ele>2087.4</ele>
        <time>2021-02-28T10:13:46Z</time>
      </trkpt>
      <trkpt lat="45.0814" lon="6.45449">
        <ele>2087.6</ele>
        <time>2021-02-28T10:13:47Z</time>
      </trkpt>
      <trkpt lat="45.08138" lon="6.4545">
        <ele>2087.8</ele>
        <time>2021-02-28T10:13:48Z</time>
      </trkpt>
      <trkpt lat="45.08138" lon="6.4545">
        <ele>2087.4</ele>
        <time>2021-02-28T10:13:49Z</time>
      </trkpt>
      <trkpt lat="45.08135" lon="6.45452">
        <ele>2087.2</ele>
        <time>2021-02-28T10:13:50Z</time>
      </trkpt>
      <trkpt lat="45.08135" lon="6.45452">
        <ele>2087.2</ele>
        <time>2021-02-28T10:13:51Z</time>
      </trkpt>
      <trkpt lat="45.08132" lon="6.45453">
        <ele>2087.4</ele>
        <time>2021-02-28T10:13:52Z</time>
      </trkpt>
      <trkpt lat="45.08132" lon="6.45453">
        <ele>2087.2</ele>
        <time>2021-02-28T10:13:53Z</time>
      </trkpt>
      <trkpt lat="45.08129" lon="6.45455">
        <ele>2087</ele>
        <time>2021-02-28T10:13:54Z</time>
      </trkpt>
      <trkpt lat="45.08129" lon="6.45455">
        <ele>2086.8</ele>
        <time>2021-02-28T10:13:55Z</time>
      </trkpt>
      <trkpt lat="45.08126" lon="6.45457">
        <ele>2087</ele>
        <time>2021-02-28T10:13:56Z</time>
      </trkpt>
      <trkpt lat="45.08126" lon="6.45457">
        <ele>2087.2</ele>
        <time>2021-02-28T10:13:57Z</time>
      </trkpt>
      <trkpt lat="45.08123" lon="6.45459">
        <ele>2087.4</ele>
        <time>2021-02-28T10:13:58Z</time>
      </trkpt>
      <trkpt lat="45.08123" lon="6.45459">
        <ele>2087.2</ele>
        <time>2021-02-28T10:13:59Z</time>
      </trkpt>
      <trkpt lat="45.0812" lon="6.45461">
        <ele>2087</ele>
        <time>2021-02-28T10:14:00Z</time>
      </trkpt>
      <trkpt lat="45.0812" lon="6.45461">
        <ele>2086.6</ele>
        <time>2021-02-28T10:14:01Z</time>
      </trkpt>
      <trkpt lat="45.08117" lon="6.45462">
        <ele>2087</ele>
        <time>2021-02-28T10:14:02Z</time>
      </trkpt>
      <trkpt lat="45.08117" lon="6.45462">
        <ele>2087.8</ele>
        <time>2021-02-28T10:14:03Z</time>
      </trkpt>
      <trkpt lat="45.08114" lon="6.45463">
        <ele>2087.6</ele>
        <time>2021-02-28T10:14:04Z</time>
      </trkpt>
      <trkpt lat="45.08114" lon="6.45463">
        <ele>2087.6</ele>
        <time>2021-02-28T10:14:05Z</time>
      </trkpt>
      <trkpt lat="45.08111" lon="6.45464">
        <ele>2087.4</ele>
        <time>2021-02-28T10:14:06Z</time>
      </trkpt>
      <trkpt lat="45.08111" lon="6.45464">
        <ele>2087.4</ele>
        <time>2021-02-28T10:14:07Z</time>
      </trkpt>
      <trkpt lat="45.08108" lon="6.45466">
        <ele>2087.8</ele>
        <time>2021-02-28T10:14:08Z</time>
      </trkpt>
      <trkpt lat="45.08108" lon="6.45466">
        <ele>2087.8</ele>
        <time>2021-02-28T10:14:09Z</time>
      </trkpt>
      <trkpt lat="45.08106" lon="6.45467">
        <ele>2087.2</ele>
        <time>2021-02-28T10:14:10Z</time>
      </trkpt>
      <trkpt lat="45.08104" lon="6.45467">
        <ele>2086.8</ele>
        <time>2021-02-28T10:14:11Z</time>
      </trkpt>
      <trkpt lat="45.08104" lon="6.45467">
        <ele>2086.8</ele>
        <time>2021-02-28T10:14:12Z</time>
      </trkpt>
      <trkpt lat="45.08101" lon="6.45468">
        <ele>2087</ele>
        <time>2021-02-28T10:14:13Z</time>
      </trkpt>
      <trkpt lat="45.08101" lon="6.45468">
        <ele>2087</ele>
        <time>2021-02-28T10:14:14Z</time>
      </trkpt>
      <trkpt lat="45.08097" lon="6.45469">
        <ele>2086.6</ele>
        <time>2021-02-28T10:14:15Z</time>
      </trkpt>
      <trkpt lat="45.08097" lon="6.45469">
        <ele>2086.6</ele>
        <time>2021-02-28T10:14:16Z</time>
      </trkpt>
      <trkpt lat="45.08094" lon="6.4547">
        <ele>2086.8</ele>
        <time>2021-02-28T10:14:17Z</time>
      </trkpt>
      <trkpt lat="45.08094" lon="6.4547">
        <ele>2087.4</ele>
        <time>2021-02-28T10:14:18Z</time>
      </trkpt>
      <trkpt lat="45.08092" lon="6.45471">
        <ele>2087.8</ele>
        <time>2021-02-28T10:14:19Z</time>
      </trkpt>
      <trkpt lat="45.08092" lon="6.45471">
        <ele>2087.6</ele>
        <time>2021-02-28T10:14:20Z</time>
      </trkpt>
      <trkpt lat="45.08089" lon="6.45473">
        <ele>2087</ele>
        <time>2021-02-28T10:14:21Z</time>
      </trkpt>
      <trkpt lat="45.08089" lon="6.45473">
        <ele>2087</ele>
        <time>2021-02-28T10:14:22Z</time>
      </trkpt>
      <trkpt lat="45.08086" lon="6.45474">
        <ele>2087</ele>
        <time>2021-02-28T10:14:23Z</time>
      </trkpt>
      <trkpt lat="45.08086" lon="6.45474">
        <ele>2088</ele>
        <time>2021-02-28T10:14:24Z</time>
      </trkpt>
      <trkpt lat="45.08083" lon="6.45476">
        <ele>2087.8</ele>
        <time>2021-02-28T10:14:25Z</time>
      </trkpt>
      <trkpt lat="45.08083" lon="6.45476">
        <ele>2087.6</ele>
        <time>2021-02-28T10:14:26Z</time>
      </trkpt>
      <trkpt lat="45.0808" lon="6.45477">
        <ele>2087.4</ele>
        <time>2021-02-28T10:14:27Z</time>
      </trkpt>
      <trkpt lat="45.0808" lon="6.45477">
        <ele>2087.2</ele>
        <time>2021-02-28T10:14:28Z</time>
      </trkpt>
      <trkpt lat="45.08077" lon="6.45478">
        <ele>2087.2</ele>
        <time>2021-02-28T10:14:29Z</time>
      </trkpt>
      <trkpt lat="45.08077" lon="6.45478">
        <ele>2087.4</ele>
        <time>2021-02-28T10:14:30Z</time>
      </trkpt>
      <trkpt lat="45.08075" lon="6.45479">
        <ele>2087.2</ele>
        <time>2021-02-28T10:14:31Z</time>
      </trkpt>
      <trkpt lat="45.08075" lon="6.45479">
        <ele>2087.2</ele>
        <time>2021-02-28T10:14:32Z</time>
      </trkpt>
      <trkpt lat="45.08072" lon="6.45481">
        <ele>2087.6</ele>
        <time>2021-02-28T10:14:33Z</time>
      </trkpt>
      <trkpt lat="45.08072" lon="6.45481">
        <ele>2088</ele>
        <time>2021-02-28T10:14:34Z</time>
      </trkpt>
      <trkpt lat="45.08069" lon="6.45483">
        <ele>2087.6</ele>
        <time>2021-02-28T10:14:35Z</time>
      </trkpt>
      <trkpt lat="45.08069" lon="6.45483">
        <ele>2087.2</ele>
        <time>2021-02-28T10:14:36Z</time>
      </trkpt>
      <trkpt lat="45.08066" lon="6.45484">
        <ele>2086.8</ele>
        <time>2021-02-28T10:14:37Z</time>
      </trkpt>
      <trkpt lat="45.08066" lon="6.45484">
        <ele>2087.2</ele>
        <time>2021-02-28T10:14:38Z</time>
      </trkpt>
      <trkpt lat="45.08063" lon="6.45486">
        <ele>2087.4</ele>
        <time>2021-02-28T10:14:39Z</time>
      </trkpt>
      <trkpt lat="45.08063" lon="6.45486">
        <ele>2088</ele>
        <time>2021-02-28T10:14:40Z</time>
      </trkpt>
      <trkpt lat="45.0806" lon="6.45487">
        <ele>2087.4</ele>
        <time>2021-02-28T10:14:41Z</time>
      </trkpt>
      <trkpt lat="45.0806" lon="6.45487">
        <ele>2087.2</ele>
        <time>2021-02-28T10:14:42Z</time>
      </trkpt>
      <trkpt lat="45.08057" lon="6.45489">
        <ele>2087.2</ele>
        <time>2021-02-28T10:14:43Z</time>
      </trkpt>
      <trkpt lat="45.08057" lon="6.45489">
        <ele>2087.4</ele>
        <time>2021-02-28T10:14:44Z</time>
      </trkpt>
      <trkpt lat="45.08055" lon="6.45491">
        <ele>2087.8</ele>
        <time>2021-02-28T10:14:45Z</time>
      </trkpt>
      <trkpt lat="45.08055" lon="6.45491">
        <ele>2087.4</ele>
        <time>2021-02-28T10:14:46Z</time>
      </trkpt>
      <trkpt lat="45.08051" lon="6.45492">
        <ele>2087.2</ele>
        <time>2021-02-28T10:14:47Z</time>
      </trkpt>
      <trkpt lat="45.08051" lon="6.45492">
        <ele>2087</ele>
        <time>2021-02-28T10:14:48Z</time>
      </trkpt>
      <trkpt lat="45.08048" lon="6.45494">
        <ele>2087</ele>
        <time>2021-02-28T10:14:49Z</time>
      </trkpt>
      <trkpt lat="45.08048" lon="6.45494">
        <ele>2087.2</ele>
        <time>2021-02-28T10:14:50Z</time>
      </trkpt>
      <trkpt lat="45.08046" lon="6.45496">
        <ele>2087.8</ele>
        <time>2021-02-28T10:14:51Z</time>
      </trkpt>
      <trkpt lat="45.08046" lon="6.45496">
        <ele>2087.8</ele>
        <time>2021-02-28T10:14:52Z</time>
      </trkpt>
      <trkpt lat="45.08044" lon="6.45498">
        <ele>2087.4</ele>
        <time>2021-02-28T10:14:53Z</time>
      </trkpt>
      <trkpt lat="45.08044" lon="6.45498">
        <ele>2087.2</ele>
        <time>2021-02-28T10:14:54Z</time>
      </trkpt>
      <trkpt lat="45.0804" lon="6.455">
        <ele>2086.8</ele>
        <time>2021-02-28T10:14:55Z</time>
      </trkpt>
      <trkpt lat="45.0804" lon="6.455">
        <ele>2087.2</ele>
        <time>2021-02-28T10:14:56Z</time>
      </trkpt>
      <trkpt lat="45.08038" lon="6.45502">
        <ele>2087.4</ele>
        <time>2021-02-28T10:14:57Z</time>
      </trkpt>
      <trkpt lat="45.08038" lon="6.45502">
        <ele>2088</ele>
        <time>2021-02-28T10:14:58Z</time>
      </trkpt>
      <trkpt lat="45.08035" lon="6.45504">
        <ele>2087.8</ele>
        <time>2021-02-28T10:14:59Z</time>
      </trkpt>
      <trkpt lat="45.08035" lon="6.45504">
        <ele>2087.4</ele>
        <time>2021-02-28T10:15:00Z</time>
      </trkpt>
      <trkpt lat="45.08032" lon="6.45506">
        <ele>2087.2</ele>
        <time>2021-02-28T10:15:01Z</time>
      </trkpt>
      <trkpt lat="45.08032" lon="6.45506">
        <ele>2087.4</ele>
        <time>2021-02-28T10:15:02Z</time>
      </trkpt>
      <trkpt lat="45.08029" lon="6.45508">
        <ele>2088</ele>
        <time>2021-02-28T10:15:03Z</time>
      </trkpt>
      <trkpt lat="45.08029" lon="6.45508">
        <ele>2088.4</ele>
        <time>2021-02-28T10:15:04Z</time>
      </trkpt>
      <trkpt lat="45.08026" lon="6.45509">
        <ele>2088.6</ele>
        <time>2021-02-28T10:15:05Z</time>
      </trkpt>
      <trkpt lat="45.08026" lon="6.45509">
        <ele>2088.2</ele>
        <time>2021-02-28T10:15:06Z</time>
      </trkpt>
      <trkpt lat="45.08023" lon="6.45511">
        <ele>2087.6</ele>
        <time>2021-02-28T10:15:07Z</time>
      </trkpt>
      <trkpt lat="45.08023" lon="6.45511">
        <ele>2087.8</ele>
        <time>2021-02-28T10:15:08Z</time>
      </trkpt>
      <trkpt lat="45.0802" lon="6.45512">
        <ele>2088.2</ele>
        <time>2021-02-28T10:15:09Z</time>
      </trkpt>
      <trkpt lat="45.0802" lon="6.45512">
        <ele>2088.8</ele>
        <time>2021-02-28T10:15:10Z</time>
      </trkpt>
      <trkpt lat="45.08018" lon="6.45514">
        <ele>2089</ele>
        <time>2021-02-28T10:15:11Z</time>
      </trkpt>
      <trkpt lat="45.08018" lon="6.45514">
        <ele>2089</ele>
        <time>2021-02-28T10:15:12Z</time>
      </trkpt>
      <trkpt lat="45.08015" lon="6.45515">
        <ele>2088.6</ele>
        <time>2021-02-28T10:15:13Z</time>
      </trkpt>
      <trkpt lat="45.08015" lon="6.45515">
        <ele>2088.6</ele>
        <time>2021-02-28T10:15:14Z</time>
      </trkpt>
      <trkpt lat="45.08011" lon="6.45516">
        <ele>2088.8</ele>
        <time>2021-02-28T10:15:15Z</time>
      </trkpt>
      <trkpt lat="45.08011" lon="6.45516">
        <ele>2089</ele>
        <time>2021-02-28T10:15:16Z</time>
      </trkpt>
      <trkpt lat="45.08009" lon="6.45517">
        <ele>2089</ele>
        <time>2021-02-28T10:15:17Z</time>
      </trkpt>
      <trkpt lat="45.08009" lon="6.45517">
        <ele>2088.8</ele>
        <time>2021-02-28T10:15:18Z</time>
      </trkpt>
      <trkpt lat="45.08006" lon="6.45518">
        <ele>2088.6</ele>
        <time>2021-02-28T10:15:19Z</time>
      </trkpt>
      <trkpt lat="45.08006" lon="6.45518">
        <ele>2088.8</ele>
        <time>2021-02-28T10:15:20Z</time>
      </trkpt>
      <trkpt lat="45.08003" lon="6.4552">
        <ele>2089.2</ele>
        <time>2021-02-28T10:15:21Z</time>
      </trkpt>
      <trkpt lat="45.08003" lon="6.4552">
        <ele>2089.4</ele>
        <time>2021-02-28T10:15:22Z</time>
      </trkpt>
      <trkpt lat="45.08" lon="6.45522">
        <ele>2089</ele>
        <time>2021-02-28T10:15:23Z</time>
      </trkpt>
      <trkpt lat="45.08" lon="6.45522">
        <ele>2089</ele>
        <time>2021-02-28T10:15:24Z</time>
      </trkpt>
      <trkpt lat="45.07997" lon="6.45524">
        <ele>2089</ele>
        <time>2021-02-28T10:15:25Z</time>
      </trkpt>
      <trkpt lat="45.07997" lon="6.45524">
        <ele>2089.6</ele>
        <time>2021-02-28T10:15:26Z</time>
      </trkpt>
      <trkpt lat="45.07994" lon="6.45527">
        <ele>2090</ele>
        <time>2021-02-28T10:15:27Z</time>
      </trkpt>
      <trkpt lat="45.07994" lon="6.45527">
        <ele>2090.2</ele>
        <time>2021-02-28T10:15:28Z</time>
      </trkpt>
      <trkpt lat="45.07992" lon="6.45529">
        <ele>2089.8</ele>
        <time>2021-02-28T10:15:29Z</time>
      </trkpt>
      <trkpt lat="45.07992" lon="6.45529">
        <ele>2089.4</ele>
        <time>2021-02-28T10:15:30Z</time>
      </trkpt>
      <trkpt lat="45.07989" lon="6.45531">
        <ele>2089.4</ele>
        <time>2021-02-28T10:15:31Z</time>
      </trkpt>
      <trkpt lat="45.07989" lon="6.45531">
        <ele>2089.8</ele>
        <time>2021-02-28T10:15:32Z</time>
      </trkpt>
      <trkpt lat="45.07987" lon="6.45533">
        <ele>2089.8</ele>
        <time>2021-02-28T10:15:33Z</time>
      </trkpt>
      <trkpt lat="45.07987" lon="6.45533">
        <ele>2090.2</ele>
        <time>2021-02-28T10:15:34Z</time>
      </trkpt>
      <trkpt lat="45.07984" lon="6.45534">
        <ele>2090</ele>
        <time>2021-02-28T10:15:35Z</time>
      </trkpt>
      <trkpt lat="45.07984" lon="6.45534">
        <ele>2089.8</ele>
        <time>2021-02-28T10:15:36Z</time>
      </trkpt>
      <trkpt lat="45.07981" lon="6.45535">
        <ele>2090</ele>
        <time>2021-02-28T10:15:37Z</time>
      </trkpt>
      <trkpt lat="45.07981" lon="6.45535">
        <ele>2090.4</ele>
        <time>2021-02-28T10:15:38Z</time>
      </trkpt>
      <trkpt lat="45.07979" lon="6.45537">
        <ele>2090.6</ele>
        <time>2021-02-28T10:15:39Z</time>
      </trkpt>
      <trkpt lat="45.07979" lon="6.45537">
        <ele>2090.4</ele>
        <time>2021-02-28T10:15:40Z</time>
      </trkpt>
      <trkpt lat="45.07976" lon="6.45538">
        <ele>2090.2</ele>
        <time>2021-02-28T10:15:41Z</time>
      </trkpt>
      <trkpt lat="45.07976" lon="6.45538">
        <ele>2090</ele>
        <time>2021-02-28T10:15:42Z</time>
      </trkpt>
      <trkpt lat="45.07973" lon="6.4554">
        <ele>2090</ele>
        <time>2021-02-28T10:15:43Z</time>
      </trkpt>
      <trkpt lat="45.07973" lon="6.4554">
        <ele>2090.6</ele>
        <time>2021-02-28T10:15:44Z</time>
      </trkpt>
      <trkpt lat="45.07971" lon="6.45542">
        <ele>2090.6</ele>
        <time>2021-02-28T10:15:45Z</time>
      </trkpt>
      <trkpt lat="45.07971" lon="6.45542">
        <ele>2090.4</ele>
        <time>2021-02-28T10:15:46Z</time>
      </trkpt>
      <trkpt lat="45.07968" lon="6.45543">
        <ele>2090.8</ele>
        <time>2021-02-28T10:15:47Z</time>
      </trkpt>
      <trkpt lat="45.07968" lon="6.45543">
        <ele>2090.8</ele>
        <time>2021-02-28T10:15:48Z</time>
      </trkpt>
      <trkpt lat="45.07965" lon="6.45546">
        <ele>2091.2</ele>
        <time>2021-02-28T10:15:49Z</time>
      </trkpt>
      <trkpt lat="45.07965" lon="6.45546">
        <ele>2091.6</ele>
        <time>2021-02-28T10:15:50Z</time>
      </trkpt>
      <trkpt lat="45.07963" lon="6.45547">
        <ele>2091.8</ele>
        <time>2021-02-28T10:15:51Z</time>
      </trkpt>
      <trkpt lat="45.07963" lon="6.45547">
        <ele>2091.8</ele>
        <time>2021-02-28T10:15:52Z</time>
      </trkpt>
      <trkpt lat="45.07961" lon="6.45549">
        <ele>2091.6</ele>
        <time>2021-02-28T10:15:53Z</time>
      </trkpt>
      <trkpt lat="45.07961" lon="6.45549">
        <ele>2091.8</ele>
        <time>2021-02-28T10:15:54Z</time>
      </trkpt>
      <trkpt lat="45.07958" lon="6.45551">
        <ele>2092</ele>
        <time>2021-02-28T10:15:55Z</time>
      </trkpt>
      <trkpt lat="45.07958" lon="6.45551">
        <ele>2092.4</ele>
        <time>2021-02-28T10:15:56Z</time>
      </trkpt>
      <trkpt lat="45.07956" lon="6.45553">
        <ele>2092.2</ele>
        <time>2021-02-28T10:15:57Z</time>
      </trkpt>
      <trkpt lat="45.07956" lon="6.45553">
        <ele>2092.2</ele>
        <time>2021-02-28T10:15:58Z</time>
      </trkpt>
      <trkpt lat="45.07953" lon="6.45555">
        <ele>2092.4</ele>
        <time>2021-02-28T10:15:59Z</time>
      </trkpt>
      <trkpt lat="45.07953" lon="6.45555">
        <ele>2092.4</ele>
        <time>2021-02-28T10:16:00Z</time>
      </trkpt>
      <trkpt lat="45.07951" lon="6.45557">
        <ele>2092.2</ele>
        <time>2021-02-28T10:16:01Z</time>
      </trkpt>
      <trkpt lat="45.07951" lon="6.45557">
        <ele>2092.2</ele>
        <time>2021-02-28T10:16:02Z</time>
      </trkpt>
      <trkpt lat="45.07949" lon="6.45559">
        <ele>2092</ele>
        <time>2021-02-28T10:16:03Z</time>
      </trkpt>
      <trkpt lat="45.07949" lon="6.45559">
        <ele>2092</ele>
        <time>2021-02-28T10:16:04Z</time>
      </trkpt>
      <trkpt lat="45.07947" lon="6.45561">
        <ele>2092.2</ele>
        <time>2021-02-28T10:16:05Z</time>
      </trkpt>
      <trkpt lat="45.07947" lon="6.45561">
        <ele>2092.4</ele>
        <time>2021-02-28T10:16:06Z</time>
      </trkpt>
      <trkpt lat="45.07946" lon="6.45563">
        <ele>2092.8</ele>
        <time>2021-02-28T10:16:07Z</time>
      </trkpt>
      <trkpt lat="45.07946" lon="6.45563">
        <ele>2093</ele>
        <time>2021-02-28T10:16:08Z</time>
      </trkpt>
      <trkpt lat="45.07944" lon="6.45566">
        <ele>2093.2</ele>
        <time>2021-02-28T10:16:09Z</time>
      </trkpt>
      <trkpt lat="45.07944" lon="6.45566">
        <ele>2093.2</ele>
        <time>2021-02-28T10:16:10Z</time>
      </trkpt>
      <trkpt lat="45.07941" lon="6.45568">
        <ele>2093.4</ele>
        <time>2021-02-28T10:16:11Z</time>
      </trkpt>
      <trkpt lat="45.07941" lon="6.45568">
        <ele>2093.6</ele>
        <time>2021-02-28T10:16:12Z</time>
      </trkpt>
      <trkpt lat="45.07939" lon="6.45571">
        <ele>2093.6</ele>
        <time>2021-02-28T10:16:13Z</time>
      </trkpt>
      <trkpt lat="45.07939" lon="6.45571">
        <ele>2093.8</ele>
        <time>2021-02-28T10:16:14Z</time>
      </trkpt>
      <trkpt lat="45.07937" lon="6.45573">
        <ele>2093.8</ele>
        <time>2021-02-28T10:16:15Z</time>
      </trkpt>
      <trkpt lat="45.07937" lon="6.45573">
        <ele>2093.8</ele>
        <time>2021-02-28T10:16:16Z</time>
      </trkpt>
      <trkpt lat="45.07935" lon="6.45575">
        <ele>2093.8</ele>
        <time>2021-02-28T10:16:17Z</time>
      </trkpt>
      <trkpt lat="45.07935" lon="6.45575">
        <ele>2093.6</ele>
        <time>2021-02-28T10:16:18Z</time>
      </trkpt>
      <trkpt lat="45.07933" lon="6.45576">
        <ele>2093.6</ele>
        <time>2021-02-28T10:16:19Z</time>
      </trkpt>
      <trkpt lat="45.07933" lon="6.45576">
        <ele>2093.8</ele>
        <time>2021-02-28T10:16:20Z</time>
      </trkpt>
      <trkpt lat="45.07931" lon="6.45578">
        <ele>2093.8</ele>
        <time>2021-02-28T10:16:21Z</time>
      </trkpt>
      <trkpt lat="45.07931" lon="6.45578">
        <ele>2093.8</ele>
        <time>2021-02-28T10:16:22Z</time>
      </trkpt>
      <trkpt lat="45.07929" lon="6.4558">
        <ele>2093.8</ele>
        <time>2021-02-28T10:16:23Z</time>
      </trkpt>
      <trkpt lat="45.07929" lon="6.4558">
        <ele>2094</ele>
        <time>2021-02-28T10:16:24Z</time>
      </trkpt>
      <trkpt lat="45.07927" lon="6.45582">
        <ele>2093.8</ele>
        <time>2021-02-28T10:16:25Z</time>
      </trkpt>
      <trkpt lat="45.07927" lon="6.45582">
        <ele>2093.8</ele>
        <time>2021-02-28T10:16:26Z</time>
      </trkpt>
      <trkpt lat="45.07925" lon="6.45583">
        <ele>2094</ele>
        <time>2021-02-28T10:16:27Z</time>
      </trkpt>
      <trkpt lat="45.07925" lon="6.45583">
        <ele>2094.2</ele>
        <time>2021-02-28T10:16:28Z</time>
      </trkpt>
      <trkpt lat="45.07923" lon="6.45584">
        <ele>2094</ele>
        <time>2021-02-28T10:16:29Z</time>
      </trkpt>
      <trkpt lat="45.07923" lon="6.45584">
        <ele>2093.8</ele>
        <time>2021-02-28T10:16:30Z</time>
      </trkpt>
      <trkpt lat="45.0792" lon="6.45585">
        <ele>2094</ele>
        <time>2021-02-28T10:16:31Z</time>
      </trkpt>
      <trkpt lat="45.0792" lon="6.45585">
        <ele>2094</ele>
        <time>2021-02-28T10:16:32Z</time>
      </trkpt>
      <trkpt lat="45.07918" lon="6.45586">
        <ele>2094</ele>
        <time>2021-02-28T10:16:33Z</time>
      </trkpt>
      <trkpt lat="45.07918" lon="6.45586">
        <ele>2094</ele>
        <time>2021-02-28T10:16:34Z</time>
      </trkpt>
      <trkpt lat="45.07915" lon="6.45588">
        <ele>2094</ele>
        <time>2021-02-28T10:16:35Z</time>
      </trkpt>
      <trkpt lat="45.07915" lon="6.45588">
        <ele>2094.4</ele>
        <time>2021-02-28T10:16:36Z</time>
      </trkpt>
      <trkpt lat="45.07913" lon="6.45589">
        <ele>2094.6</ele>
        <time>2021-02-28T10:16:37Z</time>
      </trkpt>
      <trkpt lat="45.07913" lon="6.45589">
        <ele>2094.8</ele>
        <time>2021-02-28T10:16:38Z</time>
      </trkpt>
      <trkpt lat="45.07911" lon="6.4559">
        <ele>2094.8</ele>
        <time>2021-02-28T10:16:39Z</time>
      </trkpt>
      <trkpt lat="45.07911" lon="6.4559">
        <ele>2094.6</ele>
        <time>2021-02-28T10:16:40Z</time>
      </trkpt>
      <trkpt lat="45.07908" lon="6.45592">
        <ele>2094.6</ele>
        <time>2021-02-28T10:16:41Z</time>
      </trkpt>
      <trkpt lat="45.07908" lon="6.45592">
        <ele>2094.6</ele>
        <time>2021-02-28T10:16:42Z</time>
      </trkpt>
      <trkpt lat="45.07906" lon="6.45594">
        <ele>2095</ele>
        <time>2021-02-28T10:16:43Z</time>
      </trkpt>
      <trkpt lat="45.07906" lon="6.45594">
        <ele>2095</ele>
        <time>2021-02-28T10:16:44Z</time>
      </trkpt>
      <trkpt lat="45.07904" lon="6.45595">
        <ele>2095</ele>
        <time>2021-02-28T10:16:45Z</time>
      </trkpt>
      <trkpt lat="45.07904" lon="6.45595">
        <ele>2095</ele>
        <time>2021-02-28T10:16:46Z</time>
      </trkpt>
      <trkpt lat="45.07902" lon="6.45596">
        <ele>2095.2</ele>
        <time>2021-02-28T10:16:47Z</time>
      </trkpt>
      <trkpt lat="45.07902" lon="6.45596">
        <ele>2095.4</ele>
        <time>2021-02-28T10:16:48Z</time>
      </trkpt>
      <trkpt lat="45.079" lon="6.45598">
        <ele>2095.4</ele>
        <time>2021-02-28T10:16:49Z</time>
      </trkpt>
      <trkpt lat="45.079" lon="6.45598">
        <ele>2095.6</ele>
        <time>2021-02-28T10:16:50Z</time>
      </trkpt>
      <trkpt lat="45.07898" lon="6.45599">
        <ele>2095.6</ele>
        <time>2021-02-28T10:16:51Z</time>
      </trkpt>
      <trkpt lat="45.07898" lon="6.45599">
        <ele>2095.8</ele>
        <time>2021-02-28T10:16:52Z</time>
      </trkpt>
      <trkpt lat="45.07896" lon="6.456">
        <ele>2096</ele>
        <time>2021-02-28T10:16:53Z</time>
      </trkpt>
      <trkpt lat="45.07896" lon="6.456">
        <ele>2096</ele>
        <time>2021-02-28T10:16:54Z</time>
      </trkpt>
      <trkpt lat="45.07896" lon="6.456">
        <ele>2096.2</ele>
        <time>2021-02-28T10:16:55Z</time>
      </trkpt>
      <trkpt lat="45.07894" lon="6.45601">
        <ele>2096.4</ele>
        <time>2021-02-28T10:16:56Z</time>
      </trkpt>
      <trkpt lat="45.07894" lon="6.45601">
        <ele>2096.6</ele>
        <time>2021-02-28T10:16:57Z</time>
      </trkpt>
      <trkpt lat="45.07892" lon="6.45603">
        <ele>2096.8</ele>
        <time>2021-02-28T10:16:58Z</time>
      </trkpt>
      <trkpt lat="45.07892" lon="6.45603">
        <ele>2097</ele>
        <time>2021-02-28T10:16:59Z</time>
      </trkpt>
      <trkpt lat="45.07892" lon="6.45603">
        <ele>2097.2</ele>
        <time>2021-02-28T10:17:00Z</time>
      </trkpt>
      <trkpt lat="45.0789" lon="6.45604">
        <ele>2097.2</ele>
        <time>2021-02-28T10:17:01Z</time>
      </trkpt>
      <trkpt lat="45.0789" lon="6.45604">
        <ele>2097.4</ele>
        <time>2021-02-28T10:17:02Z</time>
      </trkpt>
      <trkpt lat="45.0789" lon="6.45604">
        <ele>2097.6</ele>
        <time>2021-02-28T10:17:03Z</time>
      </trkpt>
      <trkpt lat="45.07888" lon="6.45605">
        <ele>2097.8</ele>
        <time>2021-02-28T10:17:04Z</time>
      </trkpt>
      <trkpt lat="45.07888" lon="6.45605">
        <ele>2097.8</ele>
        <time>2021-02-28T10:17:05Z</time>
      </trkpt>
      <trkpt lat="45.07888" lon="6.45605">
        <ele>2098.2</ele>
        <time>2021-02-28T10:17:06Z</time>
      </trkpt>
      <trkpt lat="45.07888" lon="6.45605">
        <ele>2098.4</ele>
        <time>2021-02-28T10:17:07Z</time>
      </trkpt>
      <trkpt lat="45.07886" lon="6.45607">
        <ele>2098.6</ele>
        <time>2021-02-28T10:17:08Z</time>
      </trkpt>
      <trkpt lat="45.07886" lon="6.45607">
        <ele>2098.6</ele>
        <time>2021-02-28T10:17:09Z</time>
      </trkpt>
      <trkpt lat="45.07886" lon="6.45607">
        <ele>2098.8</ele>
        <time>2021-02-28T10:17:10Z</time>
      </trkpt>
      <trkpt lat="45.07884" lon="6.45608">
        <ele>2099</ele>
        <time>2021-02-28T10:17:11Z</time>
      </trkpt>
      <trkpt lat="45.07884" lon="6.45608">
        <ele>2099.2</ele>
        <time>2021-02-28T10:17:12Z</time>
      </trkpt>
      <trkpt lat="45.07884" lon="6.45608">
        <ele>2099.2</ele>
        <time>2021-02-28T10:17:13Z</time>
      </trkpt>
      <trkpt lat="45.07884" lon="6.45608">
        <ele>2099.6</ele>
        <time>2021-02-28T10:17:14Z</time>
      </trkpt>
      <trkpt lat="45.07884" lon="6.45608">
        <ele>2100</ele>
        <time>2021-02-28T10:17:15Z</time>
      </trkpt>
      <trkpt lat="45.07884" lon="6.45608">
        <ele>2100.2</ele>
        <time>2021-02-28T10:17:16Z</time>
      </trkpt>
      <trkpt lat="45.07884" lon="6.45608">
        <ele>2100.2</ele>
        <time>2021-02-28T10:17:17Z</time>
      </trkpt>
      <trkpt lat="45.07884" lon="6.45608">
        <ele>2100.2</ele>
        <time>2021-02-28T10:17:18Z</time>
      </trkpt>
      <trkpt lat="45.07884" lon="6.45608">
        <ele>2100.6</ele>
        <time>2021-02-28T10:17:19Z</time>
      </trkpt>
      <trkpt lat="45.07884" lon="6.45608">
        <ele>2101</ele>
        <time>2021-02-28T10:17:20Z</time>
      </trkpt>
      <trkpt lat="45.07884" lon="6.45608">
        <ele>2101</ele>
        <time>2021-02-28T10:17:21Z</time>
      </trkpt>
      <trkpt lat="45.07884" lon="6.45608">
        <ele>2101.4</ele>
        <time>2021-02-28T10:17:22Z</time>
      </trkpt>
      <trkpt lat="45.07884" lon="6.45608">
        <ele>2101.4</ele>
        <time>2021-02-28T10:17:23Z</time>
      </trkpt>
      <trkpt lat="45.07884" lon="6.45608">
        <ele>2101.2</ele>
        <time>2021-02-28T10:17:24Z</time>
      </trkpt>
      <trkpt lat="45.07884" lon="6.45608">
        <ele>2101.2</ele>
        <time>2021-02-28T10:17:25Z</time>
      </trkpt>
      <trkpt lat="45.07884" lon="6.45608">
        <ele>2101.4</ele>
        <time>2021-02-28T10:17:26Z</time>
      </trkpt>
      <trkpt lat="45.07884" lon="6.45608">
        <ele>2101.4</ele>
        <time>2021-02-28T10:17:27Z</time>
      </trkpt>
      <trkpt lat="45.07884" lon="6.45608">
        <ele>2101.4</ele>
        <time>2021-02-28T10:17:28Z</time>
      </trkpt>
      <trkpt lat="45.07884" lon="6.45608">
        <ele>2101.6</ele>
        <time>2021-02-28T10:17:29Z</time>
      </trkpt>
      <trkpt lat="45.07884" lon="6.45608">
        <ele>2101.6</ele>
        <time>2021-02-28T10:17:30Z</time>
      </trkpt>
      <trkpt lat="45.07884" lon="6.45608">
        <ele>2101.6</ele>
        <time>2021-02-28T10:17:31Z</time>
      </trkpt>
      <trkpt lat="45.07882" lon="6.45609">
        <ele>2102</ele>
        <time>2021-02-28T10:17:32Z</time>
      </trkpt>
      <trkpt lat="45.07882" lon="6.45609">
        <ele>2102</ele>
        <time>2021-02-28T10:17:33Z</time>
      </trkpt>
      <trkpt lat="45.0788" lon="6.45611">
        <ele>2102.2</ele>
        <time>2021-02-28T10:17:34Z</time>
      </trkpt>
      <trkpt lat="45.0788" lon="6.45611">
        <ele>2102.4</ele>
        <time>2021-02-28T10:17:35Z</time>
      </trkpt>
      <trkpt lat="45.0788" lon="6.45611">
        <ele>2102.2</ele>
        <time>2021-02-28T10:17:36Z</time>
      </trkpt>
      <trkpt lat="45.07878" lon="6.45613">
        <ele>2102.4</ele>
        <time>2021-02-28T10:17:37Z</time>
      </trkpt>
      <trkpt lat="45.07878" lon="6.45613">
        <ele>2103</ele>
        <time>2021-02-28T10:17:38Z</time>
      </trkpt>
      <trkpt lat="45.07878" lon="6.45613">
        <ele>2103.2</ele>
        <time>2021-02-28T10:17:39Z</time>
      </trkpt>
      <trkpt lat="45.07875" lon="6.45615">
        <ele>2103.2</ele>
        <time>2021-02-28T10:17:40Z</time>
      </trkpt>
      <trkpt lat="45.07875" lon="6.45615">
        <ele>2103.4</ele>
        <time>2021-02-28T10:17:41Z</time>
      </trkpt>
      <trkpt lat="45.07875" lon="6.45615">
        <ele>2103.6</ele>
        <time>2021-02-28T10:17:42Z</time>
      </trkpt>
      <trkpt lat="45.07873" lon="6.45616">
        <ele>2103.6</ele>
        <time>2021-02-28T10:17:43Z</time>
      </trkpt>
      <trkpt lat="45.07873" lon="6.45616">
        <ele>2103.8</ele>
        <time>2021-02-28T10:17:44Z</time>
      </trkpt>
      <trkpt lat="45.07873" lon="6.45616">
        <ele>2104.2</ele>
        <time>2021-02-28T10:17:45Z</time>
      </trkpt>
      <trkpt lat="45.07871" lon="6.45618">
        <ele>2104.4</ele>
        <time>2021-02-28T10:17:46Z</time>
      </trkpt>
      <trkpt lat="45.07871" lon="6.45618">
        <ele>2104.6</ele>
        <time>2021-02-28T10:17:47Z</time>
      </trkpt>
      <trkpt lat="45.07871" lon="6.45618">
        <ele>2105.2</ele>
        <time>2021-02-28T10:17:48Z</time>
      </trkpt>
      <trkpt lat="45.07869" lon="6.45619">
        <ele>2105.2</ele>
        <time>2021-02-28T10:17:49Z</time>
      </trkpt>
      <trkpt lat="45.07869" lon="6.45619">
        <ele>2105.6</ele>
        <time>2021-02-28T10:17:50Z</time>
      </trkpt>
      <trkpt lat="45.07869" lon="6.45619">
        <ele>2105.6</ele>
        <time>2021-02-28T10:17:51Z</time>
      </trkpt>
      <trkpt lat="45.07867" lon="6.4562">
        <ele>2105.8</ele>
        <time>2021-02-28T10:17:52Z</time>
      </trkpt>
      <trkpt lat="45.07867" lon="6.4562">
        <ele>2106.2</ele>
        <time>2021-02-28T10:17:53Z</time>
      </trkpt>
      <trkpt lat="45.07865" lon="6.45621">
        <ele>2106.4</ele>
        <time>2021-02-28T10:17:54Z</time>
      </trkpt>
      <trkpt lat="45.07865" lon="6.45621">
        <ele>2106.6</ele>
        <time>2021-02-28T10:17:55Z</time>
      </trkpt>
      <trkpt lat="45.07863" lon="6.45623">
        <ele>2106.8</ele>
        <time>2021-02-28T10:17:56Z</time>
      </trkpt>
      <trkpt lat="45.07863" lon="6.45623">
        <ele>2107</ele>
        <time>2021-02-28T10:17:57Z</time>
      </trkpt>
      <trkpt lat="45.0786" lon="6.45624">
        <ele>2107</ele>
        <time>2021-02-28T10:17:58Z</time>
      </trkpt>
      <trkpt lat="45.0786" lon="6.45624">
        <ele>2107.4</ele>
        <time>2021-02-28T10:17:59Z</time>
      </trkpt>
      <trkpt lat="45.0786" lon="6.45624">
        <ele>2107.6</ele>
        <time>2021-02-28T10:18:00Z</time>
      </trkpt>
      <trkpt lat="45.07857" lon="6.45625">
        <ele>2107.8</ele>
        <time>2021-02-28T10:18:01Z</time>
      </trkpt>
      <trkpt lat="45.07857" lon="6.45625">
        <ele>2107.8</ele>
        <time>2021-02-28T10:18:02Z</time>
      </trkpt>
      <trkpt lat="45.07855" lon="6.45626">
        <ele>2108.2</ele>
        <time>2021-02-28T10:18:03Z</time>
      </trkpt>
      <trkpt lat="45.07855" lon="6.45626">
        <ele>2108.4</ele>
        <time>2021-02-28T10:18:04Z</time>
      </trkpt>
      <trkpt lat="45.07853" lon="6.45627">
        <ele>2108.4</ele>
        <time>2021-02-28T10:18:05Z</time>
      </trkpt>
      <trkpt lat="45.07853" lon="6.45627">
        <ele>2108.8</ele>
        <time>2021-02-28T10:18:06Z</time>
      </trkpt>
      <trkpt lat="45.07851" lon="6.45628">
        <ele>2109.2</ele>
        <time>2021-02-28T10:18:07Z</time>
      </trkpt>
      <trkpt lat="45.07851" lon="6.45628">
        <ele>2109</ele>
        <time>2021-02-28T10:18:08Z</time>
      </trkpt>
      <trkpt lat="45.07849" lon="6.4563">
        <ele>2109</ele>
        <time>2021-02-28T10:18:09Z</time>
      </trkpt>
      <trkpt lat="45.07849" lon="6.4563">
        <ele>2109.4</ele>
        <time>2021-02-28T10:18:10Z</time>
      </trkpt>
      <trkpt lat="45.07847" lon="6.45631">
        <ele>2109.4</ele>
        <time>2021-02-28T10:18:11Z</time>
      </trkpt>
      <trkpt lat="45.07847" lon="6.45631">
        <ele>2109.8</ele>
        <time>2021-02-28T10:18:12Z</time>
      </trkpt>
      <trkpt lat="45.07845" lon="6.45632">
        <ele>2110</ele>
        <time>2021-02-28T10:18:13Z</time>
      </trkpt>
      <trkpt lat="45.07845" lon="6.45632">
        <ele>2110</ele>
        <time>2021-02-28T10:18:14Z</time>
      </trkpt>
      <trkpt lat="45.07845" lon="6.45632">
        <ele>2110.2</ele>
        <time>2021-02-28T10:18:15Z</time>
      </trkpt>
      <trkpt lat="45.07843" lon="6.45634">
        <ele>2110.4</ele>
        <time>2021-02-28T10:18:16Z</time>
      </trkpt>
      <trkpt lat="45.07843" lon="6.45634">
        <ele>2110.4</ele>
        <time>2021-02-28T10:18:17Z</time>
      </trkpt>
      <trkpt lat="45.07841" lon="6.45636">
        <ele>2110.4</ele>
        <time>2021-02-28T10:18:18Z</time>
      </trkpt>
      <trkpt lat="45.07841" lon="6.45636">
        <ele>2110.6</ele>
        <time>2021-02-28T10:18:19Z</time>
      </trkpt>
      <trkpt lat="45.07841" lon="6.45636">
        <ele>2110.8</ele>
        <time>2021-02-28T10:18:20Z</time>
      </trkpt>
      <trkpt lat="45.07839" lon="6.45639">
        <ele>2111</ele>
        <time>2021-02-28T10:18:21Z</time>
      </trkpt>
      <trkpt lat="45.07839" lon="6.45639">
        <ele>2111.2</ele>
        <time>2021-02-28T10:18:22Z</time>
      </trkpt>
      <trkpt lat="45.07839" lon="6.45639">
        <ele>2111.4</ele>
        <time>2021-02-28T10:18:23Z</time>
      </trkpt>
      <trkpt lat="45.07837" lon="6.45641">
        <ele>2111.8</ele>
        <time>2021-02-28T10:18:24Z</time>
      </trkpt>
      <trkpt lat="45.07837" lon="6.45641">
        <ele>2111.8</ele>
        <time>2021-02-28T10:18:25Z</time>
      </trkpt>
      <trkpt lat="45.07837" lon="6.45641">
        <ele>2112.2</ele>
        <time>2021-02-28T10:18:26Z</time>
      </trkpt>
      <trkpt lat="45.07835" lon="6.45643">
        <ele>2112.6</ele>
        <time>2021-02-28T10:18:27Z</time>
      </trkpt>
      <trkpt lat="45.07835" lon="6.45643">
        <ele>2112.8</ele>
        <time>2021-02-28T10:18:28Z</time>
      </trkpt>
      <trkpt lat="45.07835" lon="6.45643">
        <ele>2112.8</ele>
        <time>2021-02-28T10:18:29Z</time>
      </trkpt>
      <trkpt lat="45.07833" lon="6.45645">
        <ele>2113.2</ele>
        <time>2021-02-28T10:18:30Z</time>
      </trkpt>
      <trkpt lat="45.07833" lon="6.45645">
        <ele>2113.2</ele>
        <time>2021-02-28T10:18:31Z</time>
      </trkpt>
      <trkpt lat="45.07833" lon="6.45645">
        <ele>2113.2</ele>
        <time>2021-02-28T10:18:32Z</time>
      </trkpt>
      <trkpt lat="45.07831" lon="6.45647">
        <ele>2113.4</ele>
        <time>2021-02-28T10:18:33Z</time>
      </trkpt>
      <trkpt lat="45.07831" lon="6.45647">
        <ele>2114</ele>
        <time>2021-02-28T10:18:34Z</time>
      </trkpt>
      <trkpt lat="45.07831" lon="6.45647">
        <ele>2114.2</ele>
        <time>2021-02-28T10:18:35Z</time>
      </trkpt>
      <trkpt lat="45.07829" lon="6.45649">
        <ele>2114.4</ele>
        <time>2021-02-28T10:18:36Z</time>
      </trkpt>
      <trkpt lat="45.07829" lon="6.45649">
        <ele>2114.4</ele>
        <time>2021-02-28T10:18:37Z</time>
      </trkpt>
      <trkpt lat="45.07829" lon="6.45649">
        <ele>2114.8</ele>
        <time>2021-02-28T10:18:38Z</time>
      </trkpt>
      <trkpt lat="45.07827" lon="6.45651">
        <ele>2115</ele>
        <time>2021-02-28T10:18:39Z</time>
      </trkpt>
      <trkpt lat="45.07827" lon="6.45651">
        <ele>2115.2</ele>
        <time>2021-02-28T10:18:40Z</time>
      </trkpt>
      <trkpt lat="45.07825" lon="6.45653">
        <ele>2115.4</ele>
        <time>2021-02-28T10:18:41Z</time>
      </trkpt>
      <trkpt lat="45.07825" lon="6.45653">
        <ele>2115.8</ele>
        <time>2021-02-28T10:18:42Z</time>
      </trkpt>
      <trkpt lat="45.07823" lon="6.45654">
        <ele>2116</ele>
        <time>2021-02-28T10:18:43Z</time>
      </trkpt>
      <trkpt lat="45.07823" lon="6.45654">
        <ele>2116.4</ele>
        <time>2021-02-28T10:18:44Z</time>
      </trkpt>
      <trkpt lat="45.07821" lon="6.45655">
        <ele>2116.8</ele>
        <time>2021-02-28T10:18:45Z</time>
      </trkpt>
      <trkpt lat="45.07821" lon="6.45655">
        <ele>2117.2</ele>
        <time>2021-02-28T10:18:46Z</time>
      </trkpt>
      <trkpt lat="45.0782" lon="6.45656">
        <ele>2117.2</ele>
        <time>2021-02-28T10:18:47Z</time>
      </trkpt>
      <trkpt lat="45.0782" lon="6.45656">
        <ele>2117.4</ele>
        <time>2021-02-28T10:18:48Z</time>
      </trkpt>
      <trkpt lat="45.0782" lon="6.45656">
        <ele>2117.8</ele>
        <time>2021-02-28T10:18:49Z</time>
      </trkpt>
      <trkpt lat="45.07818" lon="6.45657">
        <ele>2118</ele>
        <time>2021-02-28T10:18:50Z</time>
      </trkpt>
      <trkpt lat="45.07818" lon="6.45657">
        <ele>2118</ele>
        <time>2021-02-28T10:18:51Z</time>
      </trkpt>
      <trkpt lat="45.07815" lon="6.45658">
        <ele>2118.2</ele>
        <time>2021-02-28T10:18:52Z</time>
      </trkpt>
      <trkpt lat="45.07815" lon="6.45658">
        <ele>2118.4</ele>
        <time>2021-02-28T10:18:53Z</time>
      </trkpt>
      <trkpt lat="45.07814" lon="6.4566">
        <ele>2119</ele>
        <time>2021-02-28T10:18:54Z</time>
      </trkpt>
      <trkpt lat="45.07814" lon="6.4566">
        <ele>2118.8</ele>
        <time>2021-02-28T10:18:55Z</time>
      </trkpt>
      <trkpt lat="45.07812" lon="6.45661">
        <ele>2119</ele>
        <time>2021-02-28T10:18:56Z</time>
      </trkpt>
      <trkpt lat="45.07812" lon="6.45661">
        <ele>2119.4</ele>
        <time>2021-02-28T10:18:57Z</time>
      </trkpt>
      <trkpt lat="45.07812" lon="6.45661">
        <ele>2119.4</ele>
        <time>2021-02-28T10:18:58Z</time>
      </trkpt>
      <trkpt lat="45.0781" lon="6.45663">
        <ele>2119.6</ele>
        <time>2021-02-28T10:18:59Z</time>
      </trkpt>
      <trkpt lat="45.0781" lon="6.45663">
        <ele>2119.6</ele>
        <time>2021-02-28T10:19:00Z</time>
      </trkpt>
      <trkpt lat="45.07808" lon="6.45665">
        <ele>2120</ele>
        <time>2021-02-28T10:19:01Z</time>
      </trkpt>
      <trkpt lat="45.07808" lon="6.45665">
        <ele>2120.4</ele>
        <time>2021-02-28T10:19:02Z</time>
      </trkpt>
      <trkpt lat="45.07808" lon="6.45665">
        <ele>2120.4</ele>
        <time>2021-02-28T10:19:03Z</time>
      </trkpt>
      <trkpt lat="45.07806" lon="6.45667">
        <ele>2120.4</ele>
        <time>2021-02-28T10:19:04Z</time>
      </trkpt>
      <trkpt lat="45.07806" lon="6.45667">
        <ele>2120.6</ele>
        <time>2021-02-28T10:19:05Z</time>
      </trkpt>
      <trkpt lat="45.07804" lon="6.45669">
        <ele>2121</ele>
        <time>2021-02-28T10:19:06Z</time>
      </trkpt>
      <trkpt lat="45.07804" lon="6.45669">
        <ele>2121.4</ele>
        <time>2021-02-28T10:19:07Z</time>
      </trkpt>
      <trkpt lat="45.07804" lon="6.45669">
        <ele>2121.8</ele>
        <time>2021-02-28T10:19:08Z</time>
      </trkpt>
      <trkpt lat="45.07801" lon="6.45671">
        <ele>2121.8</ele>
        <time>2021-02-28T10:19:09Z</time>
      </trkpt>
      <trkpt lat="45.07801" lon="6.45671">
        <ele>2122</ele>
        <time>2021-02-28T10:19:10Z</time>
      </trkpt>
      <trkpt lat="45.078" lon="6.45673">
        <ele>2122.6</ele>
        <time>2021-02-28T10:19:11Z</time>
      </trkpt>
      <trkpt lat="45.078" lon="6.45673">
        <ele>2122.6</ele>
        <time>2021-02-28T10:19:12Z</time>
      </trkpt>
      <trkpt lat="45.07798" lon="6.45674">
        <ele>2122.8</ele>
        <time>2021-02-28T10:19:13Z</time>
      </trkpt>
      <trkpt lat="45.07798" lon="6.45674">
        <ele>2123</ele>
        <time>2021-02-28T10:19:14Z</time>
      </trkpt>
      <trkpt lat="45.07796" lon="6.45676">
        <ele>2123.2</ele>
        <time>2021-02-28T10:19:15Z</time>
      </trkpt>
      <trkpt lat="45.07796" lon="6.45676">
        <ele>2123.6</ele>
        <time>2021-02-28T10:19:16Z</time>
      </trkpt>
      <trkpt lat="45.07794" lon="6.45678">
        <ele>2123.6</ele>
        <time>2021-02-28T10:19:17Z</time>
      </trkpt>
      <trkpt lat="45.07794" lon="6.45678">
        <ele>2123.6</ele>
        <time>2021-02-28T10:19:18Z</time>
      </trkpt>
      <trkpt lat="45.07792" lon="6.45679">
        <ele>2124</ele>
        <time>2021-02-28T10:19:19Z</time>
      </trkpt>
      <trkpt lat="45.07792" lon="6.45679">
        <ele>2124.2</ele>
        <time>2021-02-28T10:19:20Z</time>
      </trkpt>
      <trkpt lat="45.0779" lon="6.45681">
        <ele>2124.2</ele>
        <time>2021-02-28T10:19:21Z</time>
      </trkpt>
      <trkpt lat="45.0779" lon="6.45681">
        <ele>2124.2</ele>
        <time>2021-02-28T10:19:22Z</time>
      </trkpt>
      <trkpt lat="45.07788" lon="6.45682">
        <ele>2124.8</ele>
        <time>2021-02-28T10:19:23Z</time>
      </trkpt>
      <trkpt lat="45.07788" lon="6.45682">
        <ele>2125.2</ele>
        <time>2021-02-28T10:19:24Z</time>
      </trkpt>
      <trkpt lat="45.07786" lon="6.45683">
        <ele>2125.2</ele>
        <time>2021-02-28T10:19:25Z</time>
      </trkpt>
      <trkpt lat="45.07786" lon="6.45683">
        <ele>2125.4</ele>
        <time>2021-02-28T10:19:26Z</time>
      </trkpt>
      <trkpt lat="45.07783" lon="6.45684">
        <ele>2125.6</ele>
        <time>2021-02-28T10:19:27Z</time>
      </trkpt>
      <trkpt lat="45.07783" lon="6.45684">
        <ele>2126</ele>
        <time>2021-02-28T10:19:28Z</time>
      </trkpt>
      <trkpt lat="45.07781" lon="6.45685">
        <ele>2126.2</ele>
        <time>2021-02-28T10:19:29Z</time>
      </trkpt>
      <trkpt lat="45.07781" lon="6.45685">
        <ele>2126.2</ele>
        <time>2021-02-28T10:19:30Z</time>
      </trkpt>
      <trkpt lat="45.07779" lon="6.45686">
        <ele>2126.4</ele>
        <time>2021-02-28T10:19:31Z</time>
      </trkpt>
      <trkpt lat="45.07779" lon="6.45686">
        <ele>2126.8</ele>
        <time>2021-02-28T10:19:32Z</time>
      </trkpt>
      <trkpt lat="45.07777" lon="6.45687">
        <ele>2127.6</ele>
        <time>2021-02-28T10:19:33Z</time>
      </trkpt>
      <trkpt lat="45.07777" lon="6.45687">
        <ele>2127.6</ele>
        <time>2021-02-28T10:19:34Z</time>
      </trkpt>
      <trkpt lat="45.07775" lon="6.45688">
        <ele>2127.8</ele>
        <time>2021-02-28T10:19:35Z</time>
      </trkpt>
      <trkpt lat="45.07775" lon="6.45688">
        <ele>2128.2</ele>
        <time>2021-02-28T10:19:36Z</time>
      </trkpt>
      <trkpt lat="45.07773" lon="6.45689">
        <ele>2128.6</ele>
        <time>2021-02-28T10:19:37Z</time>
      </trkpt>
      <trkpt lat="45.07773" lon="6.45689">
        <ele>2129.4</ele>
        <time>2021-02-28T10:19:38Z</time>
      </trkpt>
      <trkpt lat="45.07771" lon="6.4569">
        <ele>2129.2</ele>
        <time>2021-02-28T10:19:39Z</time>
      </trkpt>
      <trkpt lat="45.07771" lon="6.4569">
        <ele>2129</ele>
        <time>2021-02-28T10:19:40Z</time>
      </trkpt>
      <trkpt lat="45.07769" lon="6.45691">
        <ele>2129.4</ele>
        <time>2021-02-28T10:19:41Z</time>
      </trkpt>
      <trkpt lat="45.07769" lon="6.45691">
        <ele>2130</ele>
        <time>2021-02-28T10:19:42Z</time>
      </trkpt>
      <trkpt lat="45.07767" lon="6.45691">
        <ele>2129.6</ele>
        <time>2021-02-28T10:19:43Z</time>
      </trkpt>
      <trkpt lat="45.07767" lon="6.45691">
        <ele>2129.8</ele>
        <time>2021-02-28T10:19:44Z</time>
      </trkpt>
      <trkpt lat="45.07765" lon="6.45692">
        <ele>2130</ele>
        <time>2021-02-28T10:19:45Z</time>
      </trkpt>
      <trkpt lat="45.07765" lon="6.45692">
        <ele>2130.2</ele>
        <time>2021-02-28T10:19:46Z</time>
      </trkpt>
      <trkpt lat="45.07765" lon="6.45692">
        <ele>2130.4</ele>
        <time>2021-02-28T10:19:47Z</time>
      </trkpt>
      <trkpt lat="45.07762" lon="6.45694">
        <ele>2130.6</ele>
        <time>2021-02-28T10:19:48Z</time>
      </trkpt>
      <trkpt lat="45.07762" lon="6.45694">
        <ele>2130.6</ele>
        <time>2021-02-28T10:19:49Z</time>
      </trkpt>
      <trkpt lat="45.0776" lon="6.45695">
        <ele>2131.2</ele>
        <time>2021-02-28T10:19:50Z</time>
      </trkpt>
      <trkpt lat="45.0776" lon="6.45695">
        <ele>2131.8</ele>
        <time>2021-02-28T10:19:51Z</time>
      </trkpt>
      <trkpt lat="45.0776" lon="6.45695">
        <ele>2132</ele>
        <time>2021-02-28T10:19:52Z</time>
      </trkpt>
      <trkpt lat="45.07758" lon="6.45697">
        <ele>2132</ele>
        <time>2021-02-28T10:19:53Z</time>
      </trkpt>
      <trkpt lat="45.07758" lon="6.45697">
        <ele>2132.4</ele>
        <time>2021-02-28T10:19:54Z</time>
      </trkpt>
      <trkpt lat="45.07756" lon="6.45698">
        <ele>2132.6</ele>
        <time>2021-02-28T10:19:55Z</time>
      </trkpt>
      <trkpt lat="45.07756" lon="6.45698">
        <ele>2132.8</ele>
        <time>2021-02-28T10:19:56Z</time>
      </trkpt>
      <trkpt lat="45.07755" lon="6.45699">
        <ele>2132.8</ele>
        <time>2021-02-28T10:19:57Z</time>
      </trkpt>
      <trkpt lat="45.07755" lon="6.45699">
        <ele>2132.8</ele>
        <time>2021-02-28T10:19:58Z</time>
      </trkpt>
      <trkpt lat="45.07753" lon="6.45701">
        <ele>2133</ele>
        <time>2021-02-28T10:19:59Z</time>
      </trkpt>
      <trkpt lat="45.07753" lon="6.45701">
        <ele>2133.8</ele>
        <time>2021-02-28T10:20:00Z</time>
      </trkpt>
      <trkpt lat="45.07753" lon="6.45701">
        <ele>2133.8</ele>
        <time>2021-02-28T10:20:01Z</time>
      </trkpt>
      <trkpt lat="45.0775" lon="6.45702">
        <ele>2134</ele>
        <time>2021-02-28T10:20:02Z</time>
      </trkpt>
      <trkpt lat="45.0775" lon="6.45702">
        <ele>2134.2</ele>
        <time>2021-02-28T10:20:03Z</time>
      </trkpt>
      <trkpt lat="45.0775" lon="6.45702">
        <ele>2134.4</ele>
        <time>2021-02-28T10:20:04Z</time>
      </trkpt>
      <trkpt lat="45.07748" lon="6.45704">
        <ele>2134.6</ele>
        <time>2021-02-28T10:20:05Z</time>
      </trkpt>
      <trkpt lat="45.07748" lon="6.45704">
        <ele>2134.8</ele>
        <time>2021-02-28T10:20:06Z</time>
      </trkpt>
      <trkpt lat="45.07746" lon="6.45705">
        <ele>2135</ele>
        <time>2021-02-28T10:20:07Z</time>
      </trkpt>
      <trkpt lat="45.07746" lon="6.45705">
        <ele>2135.4</ele>
        <time>2021-02-28T10:20:08Z</time>
      </trkpt>
      <trkpt lat="45.07743" lon="6.45706">
        <ele>2135.8</ele>
        <time>2021-02-28T10:20:09Z</time>
      </trkpt>
      <trkpt lat="45.07743" lon="6.45706">
        <ele>2135.8</ele>
        <time>2021-02-28T10:20:10Z</time>
      </trkpt>
      <trkpt lat="45.07741" lon="6.45707">
        <ele>2136</ele>
        <time>2021-02-28T10:20:11Z</time>
      </trkpt>
      <trkpt lat="45.07741" lon="6.45707">
        <ele>2136.2</ele>
        <time>2021-02-28T10:20:12Z</time>
      </trkpt>
      <trkpt lat="45.07738" lon="6.45708">
        <ele>2136.6</ele>
        <time>2021-02-28T10:20:13Z</time>
      </trkpt>
      <trkpt lat="45.07738" lon="6.45708">
        <ele>2136.8</ele>
        <time>2021-02-28T10:20:14Z</time>
      </trkpt>
      <trkpt lat="45.07737" lon="6.45709">
        <ele>2137</ele>
        <time>2021-02-28T10:20:15Z</time>
      </trkpt>
      <trkpt lat="45.07737" lon="6.45709">
        <ele>2137.2</ele>
        <time>2021-02-28T10:20:16Z</time>
      </trkpt>
      <trkpt lat="45.07737" lon="6.45709">
        <ele>2137.8</ele>
        <time>2021-02-28T10:20:17Z</time>
      </trkpt>
      <trkpt lat="45.07735" lon="6.4571">
        <ele>2138</ele>
        <time>2021-02-28T10:20:18Z</time>
      </trkpt>
      <trkpt lat="45.07735" lon="6.4571">
        <ele>2138.2</ele>
        <time>2021-02-28T10:20:19Z</time>
      </trkpt>
      <trkpt lat="45.07733" lon="6.4571">
        <ele>2138.4</ele>
        <time>2021-02-28T10:20:20Z</time>
      </trkpt>
      <trkpt lat="45.07733" lon="6.4571">
        <ele>2138.6</ele>
        <time>2021-02-28T10:20:21Z</time>
      </trkpt>
      <trkpt lat="45.07733" lon="6.4571">
        <ele>2139</ele>
        <time>2021-02-28T10:20:22Z</time>
      </trkpt>
      <trkpt lat="45.07731" lon="6.45712">
        <ele>2139.4</ele>
        <time>2021-02-28T10:20:23Z</time>
      </trkpt>
      <trkpt lat="45.07731" lon="6.45712">
        <ele>2139.6</ele>
        <time>2021-02-28T10:20:24Z</time>
      </trkpt>
      <trkpt lat="45.07728" lon="6.45713">
        <ele>2140.4</ele>
        <time>2021-02-28T10:20:25Z</time>
      </trkpt>
      <trkpt lat="45.07728" lon="6.45713">
        <ele>2140.8</ele>
        <time>2021-02-28T10:20:26Z</time>
      </trkpt>
      <trkpt lat="45.07728" lon="6.45713">
        <ele>2140.6</ele>
        <time>2021-02-28T10:20:27Z</time>
      </trkpt>
      <trkpt lat="45.07727" lon="6.45716">
        <ele>2141.2</ele>
        <time>2021-02-28T10:20:28Z</time>
      </trkpt>
      <trkpt lat="45.07727" lon="6.45716">
        <ele>2141.2</ele>
        <time>2021-02-28T10:20:29Z</time>
      </trkpt>
      <trkpt lat="45.07727" lon="6.45716">
        <ele>2141.2</ele>
        <time>2021-02-28T10:20:30Z</time>
      </trkpt>
      <trkpt lat="45.07725" lon="6.45718">
        <ele>2141.8</ele>
        <time>2021-02-28T10:20:31Z</time>
      </trkpt>
      <trkpt lat="45.07725" lon="6.45718">
        <ele>2142.2</ele>
        <time>2021-02-28T10:20:32Z</time>
      </trkpt>
      <trkpt lat="45.07723" lon="6.4572">
        <ele>2142.4</ele>
        <time>2021-02-28T10:20:33Z</time>
      </trkpt>
      <trkpt lat="45.07723" lon="6.4572">
        <ele>2142.6</ele>
        <time>2021-02-28T10:20:34Z</time>
      </trkpt>
      <trkpt lat="45.0772" lon="6.45721">
        <ele>2142.6</ele>
        <time>2021-02-28T10:20:35Z</time>
      </trkpt>
      <trkpt lat="45.0772" lon="6.45721">
        <ele>2143</ele>
        <time>2021-02-28T10:20:36Z</time>
      </trkpt>
      <trkpt lat="45.07718" lon="6.45722">
        <ele>2143.2</ele>
        <time>2021-02-28T10:20:37Z</time>
      </trkpt>
      <trkpt lat="45.07718" lon="6.45722">
        <ele>2143.2</ele>
        <time>2021-02-28T10:20:38Z</time>
      </trkpt>
      <trkpt lat="45.07716" lon="6.45723">
        <ele>2143.4</ele>
        <time>2021-02-28T10:20:39Z</time>
      </trkpt>
      <trkpt lat="45.07716" lon="6.45723">
        <ele>2144.2</ele>
        <time>2021-02-28T10:20:40Z</time>
      </trkpt>
      <trkpt lat="45.07714" lon="6.45724">
        <ele>2144.2</ele>
        <time>2021-02-28T10:20:41Z</time>
      </trkpt>
      <trkpt lat="45.07714" lon="6.45724">
        <ele>2144.2</ele>
        <time>2021-02-28T10:20:42Z</time>
      </trkpt>
      <trkpt lat="45.07712" lon="6.45725">
        <ele>2144.6</ele>
        <time>2021-02-28T10:20:43Z</time>
      </trkpt>
      <trkpt lat="45.07712" lon="6.45725">
        <ele>2145.2</ele>
        <time>2021-02-28T10:20:44Z</time>
      </trkpt>
      <trkpt lat="45.07712" lon="6.45725">
        <ele>2145.8</ele>
        <time>2021-02-28T10:20:45Z</time>
      </trkpt>
      <trkpt lat="45.0771" lon="6.45727">
        <ele>2145.4</ele>
        <time>2021-02-28T10:20:46Z</time>
      </trkpt>
      <trkpt lat="45.0771" lon="6.45727">
        <ele>2145.2</ele>
        <time>2021-02-28T10:20:47Z</time>
      </trkpt>
      <trkpt lat="45.0771" lon="6.45727">
        <ele>2145.8</ele>
        <time>2021-02-28T10:20:48Z</time>
      </trkpt>
      <trkpt lat="45.07708" lon="6.45729">
        <ele>2146.2</ele>
        <time>2021-02-28T10:20:49Z</time>
      </trkpt>
      <trkpt lat="45.07708" lon="6.45729">
        <ele>2146.4</ele>
        <time>2021-02-28T10:20:50Z</time>
      </trkpt>
      <trkpt lat="45.07706" lon="6.45731">
        <ele>2146.4</ele>
        <time>2021-02-28T10:20:51Z</time>
      </trkpt>
      <trkpt lat="45.07706" lon="6.45731">
        <ele>2146.6</ele>
        <time>2021-02-28T10:20:52Z</time>
      </trkpt>
      <trkpt lat="45.07706" lon="6.45731">
        <ele>2147.2</ele>
        <time>2021-02-28T10:20:53Z</time>
      </trkpt>
      <trkpt lat="45.07705" lon="6.45732">
        <ele>2147.2</ele>
        <time>2021-02-28T10:20:54Z</time>
      </trkpt>
      <trkpt lat="45.07705" lon="6.45732">
        <ele>2147.6</ele>
        <time>2021-02-28T10:20:55Z</time>
      </trkpt>
      <trkpt lat="45.07702" lon="6.45732">
        <ele>2148.2</ele>
        <time>2021-02-28T10:20:56Z</time>
      </trkpt>
      <trkpt lat="45.07702" lon="6.45732">
        <ele>2148.6</ele>
        <time>2021-02-28T10:20:57Z</time>
      </trkpt>
      <trkpt lat="45.07702" lon="6.45732">
        <ele>2148.6</ele>
        <time>2021-02-28T10:20:58Z</time>
      </trkpt>
      <trkpt lat="45.077" lon="6.45734">
        <ele>2148.6</ele>
        <time>2021-02-28T10:20:59Z</time>
      </trkpt>
      <trkpt lat="45.077" lon="6.45734">
        <ele>2149</ele>
        <time>2021-02-28T10:21:00Z</time>
      </trkpt>
      <trkpt lat="45.07698" lon="6.45735">
        <ele>2149.6</ele>
        <time>2021-02-28T10:21:01Z</time>
      </trkpt>
      <trkpt lat="45.07698" lon="6.45735">
        <ele>2149.6</ele>
        <time>2021-02-28T10:21:02Z</time>
      </trkpt>
      <trkpt lat="45.07696" lon="6.45736">
        <ele>2149.6</ele>
        <time>2021-02-28T10:21:03Z</time>
      </trkpt>
      <trkpt lat="45.07696" lon="6.45736">
        <ele>2150.2</ele>
        <time>2021-02-28T10:21:04Z</time>
      </trkpt>
      <trkpt lat="45.07696" lon="6.45736">
        <ele>2151</ele>
        <time>2021-02-28T10:21:05Z</time>
      </trkpt>
      <trkpt lat="45.07693" lon="6.45737">
        <ele>2151.2</ele>
        <time>2021-02-28T10:21:06Z</time>
      </trkpt>
      <trkpt lat="45.07693" lon="6.45737">
        <ele>2150.8</ele>
        <time>2021-02-28T10:21:07Z</time>
      </trkpt>
      <trkpt lat="45.07691" lon="6.45738">
        <ele>2150.6</ele>
        <time>2021-02-28T10:21:08Z</time>
      </trkpt>
      <trkpt lat="45.07691" lon="6.45738">
        <ele>2151.2</ele>
        <time>2021-02-28T10:21:09Z</time>
      </trkpt>
      <trkpt lat="45.07689" lon="6.45739">
        <ele>2151.8</ele>
        <time>2021-02-28T10:21:10Z</time>
      </trkpt>
      <trkpt lat="45.07689" lon="6.45739">
        <ele>2151.8</ele>
        <time>2021-02-28T10:21:11Z</time>
      </trkpt>
      <trkpt lat="45.07686" lon="6.45741">
        <ele>2151.6</ele>
        <time>2021-02-28T10:21:12Z</time>
      </trkpt>
      <trkpt lat="45.07686" lon="6.45741">
        <ele>2151.8</ele>
        <time>2021-02-28T10:21:13Z</time>
      </trkpt>
      <trkpt lat="45.07683" lon="6.45743">
        <ele>2152.2</ele>
        <time>2021-02-28T10:21:14Z</time>
      </trkpt>
      <trkpt lat="45.07683" lon="6.45743">
        <ele>2152.4</ele>
        <time>2021-02-28T10:21:15Z</time>
      </trkpt>
      <trkpt lat="45.07681" lon="6.45744">
        <ele>2152.4</ele>
        <time>2021-02-28T10:21:16Z</time>
      </trkpt>
      <trkpt lat="45.07681" lon="6.45744">
        <ele>2152.4</ele>
        <time>2021-02-28T10:21:17Z</time>
      </trkpt>
      <trkpt lat="45.07679" lon="6.45745">
        <ele>2152.4</ele>
        <time>2021-02-28T10:21:18Z</time>
      </trkpt>
      <trkpt lat="45.07679" lon="6.45745">
        <ele>2153</ele>
        <time>2021-02-28T10:21:19Z</time>
      </trkpt>
      <trkpt lat="45.07677" lon="6.45745">
        <ele>2153.2</ele>
        <time>2021-02-28T10:21:20Z</time>
      </trkpt>
      <trkpt lat="45.07677" lon="6.45745">
        <ele>2153.2</ele>
        <time>2021-02-28T10:21:21Z</time>
      </trkpt>
      <trkpt lat="45.07675" lon="6.45747">
        <ele>2153.4</ele>
        <time>2021-02-28T10:21:22Z</time>
      </trkpt>
      <trkpt lat="45.07675" lon="6.45747">
        <ele>2153.8</ele>
        <time>2021-02-28T10:21:23Z</time>
      </trkpt>
      <trkpt lat="45.07675" lon="6.45747">
        <ele>2154.4</ele>
        <time>2021-02-28T10:21:24Z</time>
      </trkpt>
      <trkpt lat="45.07673" lon="6.45749">
        <ele>2154.6</ele>
        <time>2021-02-28T10:21:25Z</time>
      </trkpt>
      <trkpt lat="45.07673" lon="6.45749">
        <ele>2154.6</ele>
        <time>2021-02-28T10:21:26Z</time>
      </trkpt>
      <trkpt lat="45.07673" lon="6.45749">
        <ele>2154.6</ele>
        <time>2021-02-28T10:21:27Z</time>
      </trkpt>
      <trkpt lat="45.07672" lon="6.45751">
        <ele>2155.4</ele>
        <time>2021-02-28T10:21:28Z</time>
      </trkpt>
      <trkpt lat="45.07672" lon="6.45751">
        <ele>2155.8</ele>
        <time>2021-02-28T10:21:29Z</time>
      </trkpt>
      <trkpt lat="45.07672" lon="6.45751">
        <ele>2156</ele>
        <time>2021-02-28T10:21:30Z</time>
      </trkpt>
      <trkpt lat="45.07669" lon="6.45752">
        <ele>2156.2</ele>
        <time>2021-02-28T10:21:31Z</time>
      </trkpt>
      <trkpt lat="45.07669" lon="6.45752">
        <ele>2156.4</ele>
        <time>2021-02-28T10:21:32Z</time>
      </trkpt>
      <trkpt lat="45.07669" lon="6.45752">
        <ele>2157</ele>
        <time>2021-02-28T10:21:33Z</time>
      </trkpt>
      <trkpt lat="45.07668" lon="6.45754">
        <ele>2157</ele>
        <time>2021-02-28T10:21:34Z</time>
      </trkpt>
      <trkpt lat="45.07668" lon="6.45754">
        <ele>2156.8</ele>
        <time>2021-02-28T10:21:35Z</time>
      </trkpt>
      <trkpt lat="45.07666" lon="6.45755">
        <ele>2157.2</ele>
        <time>2021-02-28T10:21:36Z</time>
      </trkpt>
      <trkpt lat="45.07666" lon="6.45755">
        <ele>2158</ele>
        <time>2021-02-28T10:21:37Z</time>
      </trkpt>
      <trkpt lat="45.07666" lon="6.45755">
        <ele>2158.2</ele>
        <time>2021-02-28T10:21:38Z</time>
      </trkpt>
      <trkpt lat="45.07663" lon="6.45756">
        <ele>2158.2</ele>
        <time>2021-02-28T10:21:39Z</time>
      </trkpt>
      <trkpt lat="45.07663" lon="6.45756">
        <ele>2158.4</ele>
        <time>2021-02-28T10:21:40Z</time>
      </trkpt>
      <trkpt lat="45.07663" lon="6.45756">
        <ele>2158.8</ele>
        <time>2021-02-28T10:21:41Z</time>
      </trkpt>
      <trkpt lat="45.07661" lon="6.45756">
        <ele>2158.8</ele>
        <time>2021-02-28T10:21:42Z</time>
      </trkpt>
      <trkpt lat="45.07661" lon="6.45756">
        <ele>2159</ele>
        <time>2021-02-28T10:21:43Z</time>
      </trkpt>
      <trkpt lat="45.07659" lon="6.45756">
        <ele>2159.2</ele>
        <time>2021-02-28T10:21:44Z</time>
      </trkpt>
      <trkpt lat="45.07659" lon="6.45756">
        <ele>2159.4</ele>
        <time>2021-02-28T10:21:45Z</time>
      </trkpt>
      <trkpt lat="45.07659" lon="6.45756">
        <ele>2159.8</ele>
        <time>2021-02-28T10:21:46Z</time>
      </trkpt>
      <trkpt lat="45.07656" lon="6.45756">
        <ele>2159.8</ele>
        <time>2021-02-28T10:21:47Z</time>
      </trkpt>
      <trkpt lat="45.07656" lon="6.45756">
        <ele>2160.4</ele>
        <time>2021-02-28T10:21:48Z</time>
      </trkpt>
      <trkpt lat="45.07654" lon="6.45757">
        <ele>2160.6</ele>
        <time>2021-02-28T10:21:49Z</time>
      </trkpt>
      <trkpt lat="45.07654" lon="6.45757">
        <ele>2161.2</ele>
        <time>2021-02-28T10:21:50Z</time>
      </trkpt>
      <trkpt lat="45.07654" lon="6.45757">
        <ele>2161.4</ele>
        <time>2021-02-28T10:21:51Z</time>
      </trkpt>
      <trkpt lat="45.07652" lon="6.45758">
        <ele>2161.2</ele>
        <time>2021-02-28T10:21:52Z</time>
      </trkpt>
      <trkpt lat="45.07652" lon="6.45758">
        <ele>2161.6</ele>
        <time>2021-02-28T10:21:53Z</time>
      </trkpt>
      <trkpt lat="45.07652" lon="6.45758">
        <ele>2161.8</ele>
        <time>2021-02-28T10:21:54Z</time>
      </trkpt>
      <trkpt lat="45.07649" lon="6.45758">
        <ele>2161.8</ele>
        <time>2021-02-28T10:21:55Z</time>
      </trkpt>
      <trkpt lat="45.07649" lon="6.45758">
        <ele>2162.4</ele>
        <time>2021-02-28T10:21:56Z</time>
      </trkpt>
      <trkpt lat="45.07649" lon="6.45758">
        <ele>2163</ele>
        <time>2021-02-28T10:21:57Z</time>
      </trkpt>
      <trkpt lat="45.07647" lon="6.45759">
        <ele>2163.6</ele>
        <time>2021-02-28T10:21:58Z</time>
      </trkpt>
      <trkpt lat="45.07647" lon="6.45759">
        <ele>2163.6</ele>
        <time>2021-02-28T10:21:59Z</time>
      </trkpt>
      <trkpt lat="45.07645" lon="6.4576">
        <ele>2163.8</ele>
        <time>2021-02-28T10:22:00Z</time>
      </trkpt>
      <trkpt lat="45.07645" lon="6.4576">
        <ele>2163.8</ele>
        <time>2021-02-28T10:22:01Z</time>
      </trkpt>
      <trkpt lat="45.07642" lon="6.4576">
        <ele>2163.8</ele>
        <time>2021-02-28T10:22:02Z</time>
      </trkpt>
      <trkpt lat="45.07642" lon="6.4576">
        <ele>2163.8</ele>
        <time>2021-02-28T10:22:03Z</time>
      </trkpt>
      <trkpt lat="45.0764" lon="6.4576">
        <ele>2164.2</ele>
        <time>2021-02-28T10:22:04Z</time>
      </trkpt>
      <trkpt lat="45.0764" lon="6.4576">
        <ele>2164.8</ele>
        <time>2021-02-28T10:22:05Z</time>
      </trkpt>
      <trkpt lat="45.07638" lon="6.45761">
        <ele>2165</ele>
        <time>2021-02-28T10:22:06Z</time>
      </trkpt>
      <trkpt lat="45.07638" lon="6.45761">
        <ele>2165.2</ele>
        <time>2021-02-28T10:22:07Z</time>
      </trkpt>
      <trkpt lat="45.07638" lon="6.45761">
        <ele>2166</ele>
        <time>2021-02-28T10:22:08Z</time>
      </trkpt>
      <trkpt lat="45.07636" lon="6.45761">
        <ele>2166</ele>
        <time>2021-02-28T10:22:09Z</time>
      </trkpt>
      <trkpt lat="45.07636" lon="6.45761">
        <ele>2166</ele>
        <time>2021-02-28T10:22:10Z</time>
      </trkpt>
      <trkpt lat="45.07634" lon="6.45762">
        <ele>2166.2</ele>
        <time>2021-02-28T10:22:11Z</time>
      </trkpt>
      <trkpt lat="45.07634" lon="6.45762">
        <ele>2166.8</ele>
        <time>2021-02-28T10:22:12Z</time>
      </trkpt>
      <trkpt lat="45.07631" lon="6.45762">
        <ele>2166.8</ele>
        <time>2021-02-28T10:22:13Z</time>
      </trkpt>
      <trkpt lat="45.07631" lon="6.45762">
        <ele>2166.8</ele>
        <time>2021-02-28T10:22:14Z</time>
      </trkpt>
      <trkpt lat="45.07629" lon="6.45762">
        <ele>2167</ele>
        <time>2021-02-28T10:22:15Z</time>
      </trkpt>
      <trkpt lat="45.07629" lon="6.45762">
        <ele>2167.4</ele>
        <time>2021-02-28T10:22:16Z</time>
      </trkpt>
      <trkpt lat="45.07627" lon="6.45762">
        <ele>2167.4</ele>
        <time>2021-02-28T10:22:17Z</time>
      </trkpt>
      <trkpt lat="45.07627" lon="6.45762">
        <ele>2167.6</ele>
        <time>2021-02-28T10:22:18Z</time>
      </trkpt>
      <trkpt lat="45.07625" lon="6.45762">
        <ele>2168</ele>
        <time>2021-02-28T10:22:19Z</time>
      </trkpt>
      <trkpt lat="45.07625" lon="6.45762">
        <ele>2168.2</ele>
        <time>2021-02-28T10:22:20Z</time>
      </trkpt>
      <trkpt lat="45.07622" lon="6.45761">
        <ele>2168.4</ele>
        <time>2021-02-28T10:22:21Z</time>
      </trkpt>
      <trkpt lat="45.07622" lon="6.45761">
        <ele>2168.8</ele>
        <time>2021-02-28T10:22:22Z</time>
      </trkpt>
      <trkpt lat="45.0762" lon="6.45761">
        <ele>2169.2</ele>
        <time>2021-02-28T10:22:23Z</time>
      </trkpt>
      <trkpt lat="45.0762" lon="6.45761">
        <ele>2169.6</ele>
        <time>2021-02-28T10:22:24Z</time>
      </trkpt>
      <trkpt lat="45.07618" lon="6.45761">
        <ele>2169.6</ele>
        <time>2021-02-28T10:22:25Z</time>
      </trkpt>
      <trkpt lat="45.07618" lon="6.45761">
        <ele>2170.2</ele>
        <time>2021-02-28T10:22:26Z</time>
      </trkpt>
      <trkpt lat="45.07616" lon="6.45761">
        <ele>2170.2</ele>
        <time>2021-02-28T10:22:27Z</time>
      </trkpt>
      <trkpt lat="45.07616" lon="6.45761">
        <ele>2170.4</ele>
        <time>2021-02-28T10:22:28Z</time>
      </trkpt>
      <trkpt lat="45.07614" lon="6.45761">
        <ele>2170.4</ele>
        <time>2021-02-28T10:22:29Z</time>
      </trkpt>
      <trkpt lat="45.07614" lon="6.45761">
        <ele>2170.6</ele>
        <time>2021-02-28T10:22:30Z</time>
      </trkpt>
      <trkpt lat="45.07612" lon="6.45761">
        <ele>2171.2</ele>
        <time>2021-02-28T10:22:31Z</time>
      </trkpt>
      <trkpt lat="45.07612" lon="6.45761">
        <ele>2171.2</ele>
        <time>2021-02-28T10:22:32Z</time>
      </trkpt>
      <trkpt lat="45.0761" lon="6.45762">
        <ele>2171.4</ele>
        <time>2021-02-28T10:22:33Z</time>
      </trkpt>
      <trkpt lat="45.0761" lon="6.45762">
        <ele>2171.4</ele>
        <time>2021-02-28T10:22:34Z</time>
      </trkpt>
      <trkpt lat="45.07607" lon="6.45762">
        <ele>2171.8</ele>
        <time>2021-02-28T10:22:35Z</time>
      </trkpt>
      <trkpt lat="45.07607" lon="6.45762">
        <ele>2172</ele>
        <time>2021-02-28T10:22:36Z</time>
      </trkpt>
      <trkpt lat="45.07605" lon="6.45762">
        <ele>2172.2</ele>
        <time>2021-02-28T10:22:37Z</time>
      </trkpt>
      <trkpt lat="45.07605" lon="6.45762">
        <ele>2172.4</ele>
        <time>2021-02-28T10:22:38Z</time>
      </trkpt>
      <trkpt lat="45.07603" lon="6.45762">
        <ele>2172.6</ele>
        <time>2021-02-28T10:22:39Z</time>
      </trkpt>
      <trkpt lat="45.07603" lon="6.45762">
        <ele>2172.6</ele>
        <time>2021-02-28T10:22:40Z</time>
      </trkpt>
      <trkpt lat="45.07601" lon="6.45763">
        <ele>2172.8</ele>
        <time>2021-02-28T10:22:41Z</time>
      </trkpt>
      <trkpt lat="45.07601" lon="6.45763">
        <ele>2173.2</ele>
        <time>2021-02-28T10:22:42Z</time>
      </trkpt>
      <trkpt lat="45.07599" lon="6.45763">
        <ele>2173.6</ele>
        <time>2021-02-28T10:22:43Z</time>
      </trkpt>
      <trkpt lat="45.07599" lon="6.45763">
        <ele>2173.8</ele>
        <time>2021-02-28T10:22:44Z</time>
      </trkpt>
      <trkpt lat="45.07597" lon="6.45763">
        <ele>2173.8</ele>
        <time>2021-02-28T10:22:45Z</time>
      </trkpt>
      <trkpt lat="45.07597" lon="6.45763">
        <ele>2174</ele>
        <time>2021-02-28T10:22:46Z</time>
      </trkpt>
      <trkpt lat="45.07594" lon="6.45763">
        <ele>2174</ele>
        <time>2021-02-28T10:22:47Z</time>
      </trkpt>
      <trkpt lat="45.07594" lon="6.45763">
        <ele>2174</ele>
        <time>2021-02-28T10:22:48Z</time>
      </trkpt>
      <trkpt lat="45.07592" lon="6.45763">
        <ele>2174.6</ele>
        <time>2021-02-28T10:22:49Z</time>
      </trkpt>
      <trkpt lat="45.07592" lon="6.45763">
        <ele>2175</ele>
        <time>2021-02-28T10:22:50Z</time>
      </trkpt>
      <trkpt lat="45.0759" lon="6.45763">
        <ele>2175</ele>
        <time>2021-02-28T10:22:51Z</time>
      </trkpt>
      <trkpt lat="45.0759" lon="6.45763">
        <ele>2175.4</ele>
        <time>2021-02-28T10:22:52Z</time>
      </trkpt>
      <trkpt lat="45.0759" lon="6.45763">
        <ele>2175.8</ele>
        <time>2021-02-28T10:22:53Z</time>
      </trkpt>
      <trkpt lat="45.07587" lon="6.45763">
        <ele>2175.8</ele>
        <time>2021-02-28T10:22:54Z</time>
      </trkpt>
      <trkpt lat="45.07587" lon="6.45763">
        <ele>2176.2</ele>
        <time>2021-02-28T10:22:55Z</time>
      </trkpt>
      <trkpt lat="45.07587" lon="6.45763">
        <ele>2176.2</ele>
        <time>2021-02-28T10:22:56Z</time>
      </trkpt>
      <trkpt lat="45.07585" lon="6.45764">
        <ele>2176.6</ele>
        <time>2021-02-28T10:22:57Z</time>
      </trkpt>
      <trkpt lat="45.07585" lon="6.45764">
        <ele>2177</ele>
        <time>2021-02-28T10:22:58Z</time>
      </trkpt>
      <trkpt lat="45.07585" lon="6.45764">
        <ele>2177.4</ele>
        <time>2021-02-28T10:22:59Z</time>
      </trkpt>
      <trkpt lat="45.07582" lon="6.45765">
        <ele>2178</ele>
        <time>2021-02-28T10:23:00Z</time>
      </trkpt>
      <trkpt lat="45.07582" lon="6.45765">
        <ele>2177.8</ele>
        <time>2021-02-28T10:23:01Z</time>
      </trkpt>
      <trkpt lat="45.0758" lon="6.45765">
        <ele>2178</ele>
        <time>2021-02-28T10:23:02Z</time>
      </trkpt>
      <trkpt lat="45.0758" lon="6.45765">
        <ele>2178.2</ele>
        <time>2021-02-28T10:23:03Z</time>
      </trkpt>
      <trkpt lat="45.07578" lon="6.45766">
        <ele>2178.2</ele>
        <time>2021-02-28T10:23:04Z</time>
      </trkpt>
      <trkpt lat="45.07578" lon="6.45766">
        <ele>2178.6</ele>
        <time>2021-02-28T10:23:05Z</time>
      </trkpt>
      <trkpt lat="45.07578" lon="6.45766">
        <ele>2178.8</ele>
        <time>2021-02-28T10:23:06Z</time>
      </trkpt>
      <trkpt lat="45.07575" lon="6.45767">
        <ele>2179</ele>
        <time>2021-02-28T10:23:07Z</time>
      </trkpt>
      <trkpt lat="45.07575" lon="6.45767">
        <ele>2179</ele>
        <time>2021-02-28T10:23:08Z</time>
      </trkpt>
      <trkpt lat="45.07574" lon="6.45768">
        <ele>2179</ele>
        <time>2021-02-28T10:23:09Z</time>
      </trkpt>
      <trkpt lat="45.07574" lon="6.45768">
        <ele>2179.4</ele>
        <time>2021-02-28T10:23:10Z</time>
      </trkpt>
      <trkpt lat="45.07574" lon="6.45768">
        <ele>2179.8</ele>
        <time>2021-02-28T10:23:11Z</time>
      </trkpt>
      <trkpt lat="45.07572" lon="6.4577">
        <ele>2180</ele>
        <time>2021-02-28T10:23:12Z</time>
      </trkpt>
      <trkpt lat="45.07572" lon="6.4577">
        <ele>2180.2</ele>
        <time>2021-02-28T10:23:13Z</time>
      </trkpt>
      <trkpt lat="45.0757" lon="6.45772">
        <ele>2180.4</ele>
        <time>2021-02-28T10:23:14Z</time>
      </trkpt>
      <trkpt lat="45.0757" lon="6.45772">
        <ele>2180.6</ele>
        <time>2021-02-28T10:23:15Z</time>
      </trkpt>
      <trkpt lat="45.0757" lon="6.45772">
        <ele>2181.4</ele>
        <time>2021-02-28T10:23:16Z</time>
      </trkpt>
      <trkpt lat="45.07569" lon="6.45774">
        <ele>2181.8</ele>
        <time>2021-02-28T10:23:17Z</time>
      </trkpt>
      <trkpt lat="45.07569" lon="6.45774">
        <ele>2182</ele>
        <time>2021-02-28T10:23:18Z</time>
      </trkpt>
      <trkpt lat="45.07569" lon="6.45774">
        <ele>2182.4</ele>
        <time>2021-02-28T10:23:19Z</time>
      </trkpt>
      <trkpt lat="45.07567" lon="6.45776">
        <ele>2182.2</ele>
        <time>2021-02-28T10:23:20Z</time>
      </trkpt>
      <trkpt lat="45.07567" lon="6.45776">
        <ele>2182.4</ele>
        <time>2021-02-28T10:23:21Z</time>
      </trkpt>
      <trkpt lat="45.07567" lon="6.45776">
        <ele>2182.6</ele>
        <time>2021-02-28T10:23:22Z</time>
      </trkpt>
      <trkpt lat="45.07565" lon="6.45779">
        <ele>2182.8</ele>
        <time>2021-02-28T10:23:23Z</time>
      </trkpt>
      <trkpt lat="45.07565" lon="6.45779">
        <ele>2183.2</ele>
        <time>2021-02-28T10:23:24Z</time>
      </trkpt>
      <trkpt lat="45.07565" lon="6.45779">
        <ele>2183.4</ele>
        <time>2021-02-28T10:23:25Z</time>
      </trkpt>
      <trkpt lat="45.07564" lon="6.4578">
        <ele>2184.2</ele>
        <time>2021-02-28T10:23:26Z</time>
      </trkpt>
      <trkpt lat="45.07564" lon="6.4578">
        <ele>2184.6</ele>
        <time>2021-02-28T10:23:27Z</time>
      </trkpt>
      <trkpt lat="45.07564" lon="6.4578">
        <ele>2184.6</ele>
        <time>2021-02-28T10:23:28Z</time>
      </trkpt>
      <trkpt lat="45.07562" lon="6.45782">
        <ele>2184.8</ele>
        <time>2021-02-28T10:23:29Z</time>
      </trkpt>
      <trkpt lat="45.07562" lon="6.45782">
        <ele>2184.8</ele>
        <time>2021-02-28T10:23:30Z</time>
      </trkpt>
      <trkpt lat="45.07562" lon="6.45782">
        <ele>2185.2</ele>
        <time>2021-02-28T10:23:31Z</time>
      </trkpt>
      <trkpt lat="45.07561" lon="6.45784">
        <ele>2185.4</ele>
        <time>2021-02-28T10:23:32Z</time>
      </trkpt>
      <trkpt lat="45.07561" lon="6.45784">
        <ele>2185.2</ele>
        <time>2021-02-28T10:23:33Z</time>
      </trkpt>
      <trkpt lat="45.07561" lon="6.45784">
        <ele>2185.6</ele>
        <time>2021-02-28T10:23:34Z</time>
      </trkpt>
      <trkpt lat="45.07561" lon="6.45784">
        <ele>2186.2</ele>
        <time>2021-02-28T10:23:35Z</time>
      </trkpt>
      <trkpt lat="45.0756" lon="6.45787">
        <ele>2186.2</ele>
        <time>2021-02-28T10:23:36Z</time>
      </trkpt>
      <trkpt lat="45.0756" lon="6.45787">
        <ele>2186.2</ele>
        <time>2021-02-28T10:23:37Z</time>
      </trkpt>
      <trkpt lat="45.0756" lon="6.45787">
        <ele>2186.6</ele>
        <time>2021-02-28T10:23:38Z</time>
      </trkpt>
      <trkpt lat="45.0756" lon="6.4579">
        <ele>2187.2</ele>
        <time>2021-02-28T10:23:39Z</time>
      </trkpt>
      <trkpt lat="45.0756" lon="6.4579">
        <ele>2187</ele>
        <time>2021-02-28T10:23:40Z</time>
      </trkpt>
      <trkpt lat="45.0756" lon="6.4579">
        <ele>2187.2</ele>
        <time>2021-02-28T10:23:41Z</time>
      </trkpt>
      <trkpt lat="45.07562" lon="6.45793">
        <ele>2187.4</ele>
        <time>2021-02-28T10:23:42Z</time>
      </trkpt>
      <trkpt lat="45.07562" lon="6.45793">
        <ele>2187.4</ele>
        <time>2021-02-28T10:23:43Z</time>
      </trkpt>
      <trkpt lat="45.07562" lon="6.45793">
        <ele>2187.8</ele>
        <time>2021-02-28T10:23:44Z</time>
      </trkpt>
      <trkpt lat="45.07563" lon="6.45796">
        <ele>2188</ele>
        <time>2021-02-28T10:23:45Z</time>
      </trkpt>
      <trkpt lat="45.07563" lon="6.45796">
        <ele>2188.4</ele>
        <time>2021-02-28T10:23:46Z</time>
      </trkpt>
      <trkpt lat="45.07563" lon="6.45796">
        <ele>2189</ele>
        <time>2021-02-28T10:23:47Z</time>
      </trkpt>
      <trkpt lat="45.07564" lon="6.45799">
        <ele>2189.2</ele>
        <time>2021-02-28T10:23:48Z</time>
      </trkpt>
      <trkpt lat="45.07564" lon="6.45799">
        <ele>2189.2</ele>
        <time>2021-02-28T10:23:49Z</time>
      </trkpt>
      <trkpt lat="45.07564" lon="6.45799">
        <ele>2189.4</ele>
        <time>2021-02-28T10:23:50Z</time>
      </trkpt>
      <trkpt lat="45.07565" lon="6.45803">
        <ele>2189.8</ele>
        <time>2021-02-28T10:23:51Z</time>
      </trkpt>
      <trkpt lat="45.07565" lon="6.45803">
        <ele>2190</ele>
        <time>2021-02-28T10:23:52Z</time>
      </trkpt>
      <trkpt lat="45.07564" lon="6.45805">
        <ele>2190.4</ele>
        <time>2021-02-28T10:23:53Z</time>
      </trkpt>
      <trkpt lat="45.07564" lon="6.45805">
        <ele>2190.6</ele>
        <time>2021-02-28T10:23:54Z</time>
      </trkpt>
      <trkpt lat="45.07564" lon="6.45805">
        <ele>2190.8</ele>
        <time>2021-02-28T10:23:55Z</time>
      </trkpt>
      <trkpt lat="45.07562" lon="6.45807">
        <ele>2190.8</ele>
        <time>2021-02-28T10:23:56Z</time>
      </trkpt>
      <trkpt lat="45.07562" lon="6.45807">
        <ele>2191</ele>
        <time>2021-02-28T10:23:57Z</time>
      </trkpt>
      <trkpt lat="45.07562" lon="6.45807">
        <ele>2191.2</ele>
        <time>2021-02-28T10:23:58Z</time>
      </trkpt>
      <trkpt lat="45.0756" lon="6.45809">
        <ele>2191.6</ele>
        <time>2021-02-28T10:23:59Z</time>
      </trkpt>
      <trkpt lat="45.0756" lon="6.45809">
        <ele>2191.8</ele>
        <time>2021-02-28T10:24:00Z</time>
      </trkpt>
      <trkpt lat="45.0756" lon="6.45809">
        <ele>2192.2</ele>
        <time>2021-02-28T10:24:01Z</time>
      </trkpt>
      <trkpt lat="45.07557" lon="6.45811">
        <ele>2192.4</ele>
        <time>2021-02-28T10:24:02Z</time>
      </trkpt>
      <trkpt lat="45.07557" lon="6.45811">
        <ele>2192.6</ele>
        <time>2021-02-28T10:24:03Z</time>
      </trkpt>
      <trkpt lat="45.07557" lon="6.45811">
        <ele>2192.8</ele>
        <time>2021-02-28T10:24:04Z</time>
      </trkpt>
      <trkpt lat="45.07556" lon="6.45813">
        <ele>2192.6</ele>
        <time>2021-02-28T10:24:05Z</time>
      </trkpt>
      <trkpt lat="45.07556" lon="6.45813">
        <ele>2193.2</ele>
        <time>2021-02-28T10:24:06Z</time>
      </trkpt>
      <trkpt lat="45.07556" lon="6.45813">
        <ele>2193.2</ele>
        <time>2021-02-28T10:24:07Z</time>
      </trkpt>
      <trkpt lat="45.07555" lon="6.45816">
        <ele>2193.4</ele>
        <time>2021-02-28T10:24:08Z</time>
      </trkpt>
      <trkpt lat="45.07555" lon="6.45816">
        <ele>2193.8</ele>
        <time>2021-02-28T10:24:09Z</time>
      </trkpt>
      <trkpt lat="45.07555" lon="6.45816">
        <ele>2194</ele>
        <time>2021-02-28T10:24:10Z</time>
      </trkpt>
      <trkpt lat="45.07552" lon="6.45818">
        <ele>2194</ele>
        <time>2021-02-28T10:24:11Z</time>
      </trkpt>
      <trkpt lat="45.07552" lon="6.45818">
        <ele>2194.8</ele>
        <time>2021-02-28T10:24:12Z</time>
      </trkpt>
      <trkpt lat="45.07552" lon="6.45818">
        <ele>2194.8</ele>
        <time>2021-02-28T10:24:13Z</time>
      </trkpt>
      <trkpt lat="45.0755" lon="6.45819">
        <ele>2195</ele>
        <time>2021-02-28T10:24:14Z</time>
      </trkpt>
      <trkpt lat="45.0755" lon="6.45819">
        <ele>2195.2</ele>
        <time>2021-02-28T10:24:15Z</time>
      </trkpt>
      <trkpt lat="45.0755" lon="6.45819">
        <ele>2195.6</ele>
        <time>2021-02-28T10:24:16Z</time>
      </trkpt>
      <trkpt lat="45.07547" lon="6.45819">
        <ele>2195.4</ele>
        <time>2021-02-28T10:24:17Z</time>
      </trkpt>
      <trkpt lat="45.07547" lon="6.45819">
        <ele>2196</ele>
        <time>2021-02-28T10:24:18Z</time>
      </trkpt>
      <trkpt lat="45.07547" lon="6.45819">
        <ele>2196.2</ele>
        <time>2021-02-28T10:24:19Z</time>
      </trkpt>
      <trkpt lat="45.07544" lon="6.4582">
        <ele>2196.2</ele>
        <time>2021-02-28T10:24:20Z</time>
      </trkpt>
      <trkpt lat="45.07544" lon="6.4582">
        <ele>2196.4</ele>
        <time>2021-02-28T10:24:21Z</time>
      </trkpt>
      <trkpt lat="45.07542" lon="6.45821">
        <ele>2197.2</ele>
        <time>2021-02-28T10:24:22Z</time>
      </trkpt>
      <trkpt lat="45.07542" lon="6.45821">
        <ele>2197.2</ele>
        <time>2021-02-28T10:24:23Z</time>
      </trkpt>
      <trkpt lat="45.0754" lon="6.45821">
        <ele>2197.2</ele>
        <time>2021-02-28T10:24:24Z</time>
      </trkpt>
      <trkpt lat="45.0754" lon="6.45821">
        <ele>2197.2</ele>
        <time>2021-02-28T10:24:25Z</time>
      </trkpt>
      <trkpt lat="45.07538" lon="6.45821">
        <ele>2197.2</ele>
        <time>2021-02-28T10:24:26Z</time>
      </trkpt>
      <trkpt lat="45.07538" lon="6.45821">
        <ele>2197.4</ele>
        <time>2021-02-28T10:24:27Z</time>
      </trkpt>
      <trkpt lat="45.07536" lon="6.45822">
        <ele>2197.4</ele>
        <time>2021-02-28T10:24:28Z</time>
      </trkpt>
      <trkpt lat="45.07536" lon="6.45822">
        <ele>2198</ele>
        <time>2021-02-28T10:24:29Z</time>
      </trkpt>
      <trkpt lat="45.07534" lon="6.45823">
        <ele>2198</ele>
        <time>2021-02-28T10:24:30Z</time>
      </trkpt>
      <trkpt lat="45.07534" lon="6.45823">
        <ele>2198.6</ele>
        <time>2021-02-28T10:24:31Z</time>
      </trkpt>
      <trkpt lat="45.07532" lon="6.45824">
        <ele>2199</ele>
        <time>2021-02-28T10:24:32Z</time>
      </trkpt>
      <trkpt lat="45.07532" lon="6.45824">
        <ele>2199.4</ele>
        <time>2021-02-28T10:24:33Z</time>
      </trkpt>
      <trkpt lat="45.07531" lon="6.45826">
        <ele>2199.4</ele>
        <time>2021-02-28T10:24:34Z</time>
      </trkpt>
      <trkpt lat="45.07531" lon="6.45826">
        <ele>2199.4</ele>
        <time>2021-02-28T10:24:35Z</time>
      </trkpt>
      <trkpt lat="45.07529" lon="6.45827">
        <ele>2200</ele>
        <time>2021-02-28T10:24:36Z</time>
      </trkpt>
      <trkpt lat="45.07529" lon="6.45827">
        <ele>2199.8</ele>
        <time>2021-02-28T10:24:37Z</time>
      </trkpt>
      <trkpt lat="45.07527" lon="6.45829">
        <ele>2200</ele>
        <time>2021-02-28T10:24:38Z</time>
      </trkpt>
      <trkpt lat="45.07527" lon="6.45829">
        <ele>2200.4</ele>
        <time>2021-02-28T10:24:39Z</time>
      </trkpt>
      <trkpt lat="45.07527" lon="6.45829">
        <ele>2200.6</ele>
        <time>2021-02-28T10:24:40Z</time>
      </trkpt>
      <trkpt lat="45.07525" lon="6.45831">
        <ele>2200.8</ele>
        <time>2021-02-28T10:24:41Z</time>
      </trkpt>
      <trkpt lat="45.07525" lon="6.45831">
        <ele>2201.2</ele>
        <time>2021-02-28T10:24:42Z</time>
      </trkpt>
      <trkpt lat="45.07525" lon="6.45831">
        <ele>2201.4</ele>
        <time>2021-02-28T10:24:43Z</time>
      </trkpt>
      <trkpt lat="45.07523" lon="6.45834">
        <ele>2201.4</ele>
        <time>2021-02-28T10:24:44Z</time>
      </trkpt>
      <trkpt lat="45.07523" lon="6.45834">
        <ele>2202</ele>
        <time>2021-02-28T10:24:45Z</time>
      </trkpt>
      <trkpt lat="45.07521" lon="6.45835">
        <ele>2202.6</ele>
        <time>2021-02-28T10:24:46Z</time>
      </trkpt>
      <trkpt lat="45.07521" lon="6.45835">
        <ele>2202.6</ele>
        <time>2021-02-28T10:24:47Z</time>
      </trkpt>
      <trkpt lat="45.07519" lon="6.45837">
        <ele>2203</ele>
        <time>2021-02-28T10:24:48Z</time>
      </trkpt>
      <trkpt lat="45.07519" lon="6.45837">
        <ele>2203.2</ele>
        <time>2021-02-28T10:24:49Z</time>
      </trkpt>
      <trkpt lat="45.07517" lon="6.45838">
        <ele>2203.4</ele>
        <time>2021-02-28T10:24:50Z</time>
      </trkpt>
      <trkpt lat="45.07517" lon="6.45838">
        <ele>2203.8</ele>
        <time>2021-02-28T10:24:51Z</time>
      </trkpt>
      <trkpt lat="45.07515" lon="6.45839">
        <ele>2203.8</ele>
        <time>2021-02-28T10:24:52Z</time>
      </trkpt>
      <trkpt lat="45.07515" lon="6.45839">
        <ele>2203.8</ele>
        <time>2021-02-28T10:24:53Z</time>
      </trkpt>
      <trkpt lat="45.07513" lon="6.4584">
        <ele>2204</ele>
        <time>2021-02-28T10:24:54Z</time>
      </trkpt>
      <trkpt lat="45.07513" lon="6.4584">
        <ele>2204</ele>
        <time>2021-02-28T10:24:55Z</time>
      </trkpt>
      <trkpt lat="45.07511" lon="6.45842">
        <ele>2203.8</ele>
        <time>2021-02-28T10:24:56Z</time>
      </trkpt>
      <trkpt lat="45.07511" lon="6.45842">
        <ele>2204.4</ele>
        <time>2021-02-28T10:24:57Z</time>
      </trkpt>
      <trkpt lat="45.07509" lon="6.45844">
        <ele>2204.4</ele>
        <time>2021-02-28T10:24:58Z</time>
      </trkpt>
      <trkpt lat="45.07509" lon="6.45844">
        <ele>2204.4</ele>
        <time>2021-02-28T10:24:59Z</time>
      </trkpt>
      <trkpt lat="45.07508" lon="6.45845">
        <ele>2204.8</ele>
        <time>2021-02-28T10:25:00Z</time>
      </trkpt>
      <trkpt lat="45.07508" lon="6.45845">
        <ele>2204.8</ele>
        <time>2021-02-28T10:25:01Z</time>
      </trkpt>
      <trkpt lat="45.07506" lon="6.45847">
        <ele>2205</ele>
        <time>2021-02-28T10:25:02Z</time>
      </trkpt>
      <trkpt lat="45.07506" lon="6.45847">
        <ele>2205.4</ele>
        <time>2021-02-28T10:25:03Z</time>
      </trkpt>
      <trkpt lat="45.07504" lon="6.45849">
        <ele>2205.8</ele>
        <time>2021-02-28T10:25:04Z</time>
      </trkpt>
      <trkpt lat="45.07504" lon="6.45849">
        <ele>2206</ele>
        <time>2021-02-28T10:25:05Z</time>
      </trkpt>
      <trkpt lat="45.07502" lon="6.45851">
        <ele>2206.2</ele>
        <time>2021-02-28T10:25:06Z</time>
      </trkpt>
      <trkpt lat="45.07502" lon="6.45851">
        <ele>2206.2</ele>
        <time>2021-02-28T10:25:07Z</time>
      </trkpt>
      <trkpt lat="45.07501" lon="6.45853">
        <ele>2206.8</ele>
        <time>2021-02-28T10:25:08Z</time>
      </trkpt>
      <trkpt lat="45.07501" lon="6.45853">
        <ele>2206.8</ele>
        <time>2021-02-28T10:25:09Z</time>
      </trkpt>
      <trkpt lat="45.07499" lon="6.45854">
        <ele>2206.6</ele>
        <time>2021-02-28T10:25:10Z</time>
      </trkpt>
      <trkpt lat="45.07499" lon="6.45854">
        <ele>2206.6</ele>
        <time>2021-02-28T10:25:11Z</time>
      </trkpt>
      <trkpt lat="45.07498" lon="6.45856">
        <ele>2206.8</ele>
        <time>2021-02-28T10:25:12Z</time>
      </trkpt>
      <trkpt lat="45.07498" lon="6.45856">
        <ele>2207.2</ele>
        <time>2021-02-28T10:25:13Z</time>
      </trkpt>
      <trkpt lat="45.07496" lon="6.45858">
        <ele>2207.4</ele>
        <time>2021-02-28T10:25:14Z</time>
      </trkpt>
      <trkpt lat="45.07496" lon="6.45858">
        <ele>2207.8</ele>
        <time>2021-02-28T10:25:15Z</time>
      </trkpt>
      <trkpt lat="45.07494" lon="6.4586">
        <ele>2208.4</ele>
        <time>2021-02-28T10:25:16Z</time>
      </trkpt>
      <trkpt lat="45.07494" lon="6.4586">
        <ele>2208.2</ele>
        <time>2021-02-28T10:25:17Z</time>
      </trkpt>
      <trkpt lat="45.07492" lon="6.45862">
        <ele>2208.2</ele>
        <time>2021-02-28T10:25:18Z</time>
      </trkpt>
      <trkpt lat="45.07492" lon="6.45862">
        <ele>2209.4</ele>
        <time>2021-02-28T10:25:19Z</time>
      </trkpt>
      <trkpt lat="45.0749" lon="6.45864">
        <ele>2209.8</ele>
        <time>2021-02-28T10:25:20Z</time>
      </trkpt>
      <trkpt lat="45.0749" lon="6.45864">
        <ele>2210</ele>
        <time>2021-02-28T10:25:21Z</time>
      </trkpt>
      <trkpt lat="45.07489" lon="6.45866">
        <ele>2210.6</ele>
        <time>2021-02-28T10:25:22Z</time>
      </trkpt>
      <trkpt lat="45.07489" lon="6.45866">
        <ele>2210.6</ele>
        <time>2021-02-28T10:25:23Z</time>
      </trkpt>
      <trkpt lat="45.07487" lon="6.45868">
        <ele>2210.2</ele>
        <time>2021-02-28T10:25:24Z</time>
      </trkpt>
      <trkpt lat="45.07487" lon="6.45868">
        <ele>2209.8</ele>
        <time>2021-02-28T10:25:25Z</time>
      </trkpt>
      <trkpt lat="45.07485" lon="6.4587">
        <ele>2209.8</ele>
        <time>2021-02-28T10:25:26Z</time>
      </trkpt>
      <trkpt lat="45.07485" lon="6.4587">
        <ele>2209.6</ele>
        <time>2021-02-28T10:25:27Z</time>
      </trkpt>
      <trkpt lat="45.07485" lon="6.4587">
        <ele>2209.6</ele>
        <time>2021-02-28T10:25:28Z</time>
      </trkpt>
      <trkpt lat="45.07483" lon="6.45872">
        <ele>2209.4</ele>
        <time>2021-02-28T10:25:29Z</time>
      </trkpt>
      <trkpt lat="45.07483" lon="6.45872">
        <ele>2209.6</ele>
        <time>2021-02-28T10:25:30Z</time>
      </trkpt>
      <trkpt lat="45.07483" lon="6.45872">
        <ele>2210</ele>
        <time>2021-02-28T10:25:31Z</time>
      </trkpt>
      <trkpt lat="45.07483" lon="6.45872">
        <ele>2210.6</ele>
        <time>2021-02-28T10:25:32Z</time>
      </trkpt>
      <trkpt lat="45.07483" lon="6.45872">
        <ele>2210.2</ele>
        <time>2021-02-28T10:25:33Z</time>
      </trkpt>
      <trkpt lat="45.07483" lon="6.45872">
        <ele>2209.8</ele>
        <time>2021-02-28T10:25:34Z</time>
      </trkpt>
      <trkpt lat="45.07481" lon="6.45873">
        <ele>2209.6</ele>
        <time>2021-02-28T10:25:35Z</time>
      </trkpt>
      <trkpt lat="45.07481" lon="6.45873">
        <ele>2209.4</ele>
        <time>2021-02-28T10:25:36Z</time>
      </trkpt>
      <trkpt lat="45.07481" lon="6.45873">
        <ele>2209.6</ele>
        <time>2021-02-28T10:25:37Z</time>
      </trkpt>
      <trkpt lat="45.07481" lon="6.45873">
        <ele>2209.4</ele>
        <time>2021-02-28T10:25:38Z</time>
      </trkpt>
      <trkpt lat="45.07481" lon="6.45873">
        <ele>2209</ele>
        <time>2021-02-28T10:25:39Z</time>
      </trkpt>
      <trkpt lat="45.07481" lon="6.45873">
        <ele>2208.8</ele>
        <time>2021-02-28T10:25:40Z</time>
      </trkpt>
      <trkpt lat="45.07481" lon="6.45873">
        <ele>2209</ele>
        <time>2021-02-28T10:25:41Z</time>
      </trkpt>
      <trkpt lat="45.07481" lon="6.45873">
        <ele>2209</ele>
        <time>2021-02-28T10:25:42Z</time>
      </trkpt>
      <trkpt lat="45.07481" lon="6.45873">
        <ele>2209</ele>
        <time>2021-02-28T10:25:43Z</time>
      </trkpt>
      <trkpt lat="45.07481" lon="6.45873">
        <ele>2208.8</ele>
        <time>2021-02-28T10:25:44Z</time>
      </trkpt>
      <trkpt lat="45.07481" lon="6.45873">
        <ele>2208.8</ele>
        <time>2021-02-28T10:25:45Z</time>
      </trkpt>
      <trkpt lat="45.07481" lon="6.45873">
        <ele>2208.8</ele>
        <time>2021-02-28T10:25:46Z</time>
      </trkpt>
      <trkpt lat="45.07481" lon="6.45873">
        <ele>2208.8</ele>
        <time>2021-02-28T10:25:47Z</time>
      </trkpt>
      <trkpt lat="45.07481" lon="6.45873">
        <ele>2208.8</ele>
        <time>2021-02-28T10:25:48Z</time>
      </trkpt>
      <trkpt lat="45.07481" lon="6.45873">
        <ele>2208.6</ele>
        <time>2021-02-28T10:25:49Z</time>
      </trkpt>
      <trkpt lat="45.07481" lon="6.45873">
        <ele>2208.6</ele>
        <time>2021-02-28T10:25:50Z</time>
      </trkpt>
      <trkpt lat="45.07481" lon="6.45873">
        <ele>2208.4</ele>
        <time>2021-02-28T10:25:51Z</time>
      </trkpt>
      <trkpt lat="45.07481" lon="6.45873">
        <ele>2208.6</ele>
        <time>2021-02-28T10:25:52Z</time>
      </trkpt>
      <trkpt lat="45.07481" lon="6.45873">
        <ele>2208.6</ele>
        <time>2021-02-28T10:25:53Z</time>
      </trkpt>
      <trkpt lat="45.07481" lon="6.45873">
        <ele>2208.6</ele>
        <time>2021-02-28T10:25:54Z</time>
      </trkpt>
      <trkpt lat="45.07481" lon="6.45873">
        <ele>2208.8</ele>
        <time>2021-02-28T10:25:55Z</time>
      </trkpt>
      <trkpt lat="45.07481" lon="6.45873">
        <ele>2209.4</ele>
        <time>2021-02-28T10:25:56Z</time>
      </trkpt>
      <trkpt lat="45.07481" lon="6.45873">
        <ele>2209.6</ele>
        <time>2021-02-28T10:25:57Z</time>
      </trkpt>
      <trkpt lat="45.07481" lon="6.45873">
        <ele>2209.6</ele>
        <time>2021-02-28T10:25:58Z</time>
      </trkpt>
      <trkpt lat="45.07481" lon="6.45873">
        <ele>2209.6</ele>
        <time>2021-02-28T10:25:59Z</time>
      </trkpt>
      <trkpt lat="45.07481" lon="6.45873">
        <ele>2209.8</ele>
        <time>2021-02-28T10:26:00Z</time>
      </trkpt>
      <trkpt lat="45.07481" lon="6.45873">
        <ele>2209.8</ele>
        <time>2021-02-28T10:26:01Z</time>
      </trkpt>
      <trkpt lat="45.07481" lon="6.45873">
        <ele>2209.6</ele>
        <time>2021-02-28T10:26:02Z</time>
      </trkpt>
      <trkpt lat="45.07481" lon="6.45873">
        <ele>2210</ele>
        <time>2021-02-28T10:26:03Z</time>
      </trkpt>
      <trkpt lat="45.07481" lon="6.45873">
        <ele>2209.8</ele>
        <time>2021-02-28T10:26:04Z</time>
      </trkpt>
      <trkpt lat="45.07481" lon="6.45873">
        <ele>2209.8</ele>
        <time>2021-02-28T10:26:05Z</time>
      </trkpt>
      <trkpt lat="45.07481" lon="6.45873">
        <ele>2209.8</ele>
        <time>2021-02-28T10:26:06Z</time>
      </trkpt>
      <trkpt lat="45.07481" lon="6.45873">
        <ele>2209.8</ele>
        <time>2021-02-28T10:26:07Z</time>
      </trkpt>
      <trkpt lat="45.07481" lon="6.45873">
        <ele>2209.6</ele>
        <time>2021-02-28T10:26:08Z</time>
      </trkpt>
      <trkpt lat="45.07481" lon="6.45873">
        <ele>2209.6</ele>
        <time>2021-02-28T10:26:09Z</time>
      </trkpt>
      <trkpt lat="45.07481" lon="6.45873">
        <ele>2209.6</ele>
        <time>2021-02-28T10:26:10Z</time>
      </trkpt>
      <trkpt lat="45.07481" lon="6.45873">
        <ele>2209.4</ele>
        <time>2021-02-28T10:26:11Z</time>
      </trkpt>
      <trkpt lat="45.07481" lon="6.45873">
        <ele>2209.4</ele>
        <time>2021-02-28T10:26:12Z</time>
      </trkpt>
      <trkpt lat="45.07481" lon="6.45873">
        <ele>2209.6</ele>
        <time>2021-02-28T10:26:13Z</time>
      </trkpt>
      <trkpt lat="45.07481" lon="6.45873">
        <ele>2209.6</ele>
        <time>2021-02-28T10:26:14Z</time>
      </trkpt>
      <trkpt lat="45.07481" lon="6.45873">
        <ele>2209.4</ele>
        <time>2021-02-28T10:26:15Z</time>
      </trkpt>
      <trkpt lat="45.07481" lon="6.45873">
        <ele>2209.4</ele>
        <time>2021-02-28T10:26:16Z</time>
      </trkpt>
      <trkpt lat="45.07481" lon="6.45873">
        <ele>2209.8</ele>
        <time>2021-02-28T10:26:17Z</time>
      </trkpt>
      <trkpt lat="45.07481" lon="6.45873">
        <ele>2210</ele>
        <time>2021-02-28T10:26:18Z</time>
      </trkpt>
      <trkpt lat="45.07481" lon="6.45873">
        <ele>2210.4</ele>
        <time>2021-02-28T10:26:19Z</time>
      </trkpt>
      <trkpt lat="45.07481" lon="6.45873">
        <ele>2210.6</ele>
        <time>2021-02-28T10:26:20Z</time>
      </trkpt>
      <trkpt lat="45.07481" lon="6.45873">
        <ele>2210.8</ele>
        <time>2021-02-28T10:26:21Z</time>
      </trkpt>
      <trkpt lat="45.07481" lon="6.45873">
        <ele>2210.8</ele>
        <time>2021-02-28T10:26:22Z</time>
      </trkpt>
      <trkpt lat="45.07481" lon="6.45873">
        <ele>2210.6</ele>
        <time>2021-02-28T10:26:23Z</time>
      </trkpt>
      <trkpt lat="45.07481" lon="6.45873">
        <ele>2210.4</ele>
        <time>2021-02-28T10:26:24Z</time>
      </trkpt>
      <trkpt lat="45.07481" lon="6.45873">
        <ele>2210.6</ele>
        <time>2021-02-28T10:26:25Z</time>
      </trkpt>
      <trkpt lat="45.07481" lon="6.45873">
        <ele>2210.8</ele>
        <time>2021-02-28T10:26:26Z</time>
      </trkpt>
      <trkpt lat="45.07481" lon="6.45873">
        <ele>2210.8</ele>
        <time>2021-02-28T10:26:27Z</time>
      </trkpt>
      <trkpt lat="45.07481" lon="6.45873">
        <ele>2210.6</ele>
        <time>2021-02-28T10:26:28Z</time>
      </trkpt>
      <trkpt lat="45.07481" lon="6.45873">
        <ele>2210.6</ele>
        <time>2021-02-28T10:26:29Z</time>
      </trkpt>
      <trkpt lat="45.07481" lon="6.45873">
        <ele>2210.4</ele>
        <time>2021-02-28T10:26:30Z</time>
      </trkpt>
      <trkpt lat="45.07481" lon="6.45873">
        <ele>2210.4</ele>
        <time>2021-02-28T10:26:31Z</time>
      </trkpt>
      <trkpt lat="45.07481" lon="6.45873">
        <ele>2210.4</ele>
        <time>2021-02-28T10:26:32Z</time>
      </trkpt>
      <trkpt lat="45.07481" lon="6.45873">
        <ele>2210.4</ele>
        <time>2021-02-28T10:26:33Z</time>
      </trkpt>
      <trkpt lat="45.07481" lon="6.45873">
        <ele>2210</ele>
        <time>2021-02-28T10:26:34Z</time>
      </trkpt>
      <trkpt lat="45.07481" lon="6.45873">
        <ele>2209.6</ele>
        <time>2021-02-28T10:26:35Z</time>
      </trkpt>
      <trkpt lat="45.07481" lon="6.45873">
        <ele>2209.6</ele>
        <time>2021-02-28T10:26:36Z</time>
      </trkpt>
      <trkpt lat="45.07481" lon="6.45873">
        <ele>2209.6</ele>
        <time>2021-02-28T10:26:37Z</time>
      </trkpt>
      <trkpt lat="45.07481" lon="6.45873">
        <ele>2209.6</ele>
        <time>2021-02-28T10:26:38Z</time>
      </trkpt>
      <trkpt lat="45.07481" lon="6.45873">
        <ele>2209.6</ele>
        <time>2021-02-28T10:26:39Z</time>
      </trkpt>
      <trkpt lat="45.07481" lon="6.45873">
        <ele>2209.6</ele>
        <time>2021-02-28T10:26:40Z</time>
      </trkpt>
      <trkpt lat="45.07481" lon="6.45873">
        <ele>2209.6</ele>
        <time>2021-02-28T10:26:41Z</time>
      </trkpt>
      <trkpt lat="45.07481" lon="6.45873">
        <ele>2209.4</ele>
        <time>2021-02-28T10:26:42Z</time>
      </trkpt>
      <trkpt lat="45.07481" lon="6.45873">
        <ele>2209.4</ele>
        <time>2021-02-28T10:26:43Z</time>
      </trkpt>
      <trkpt lat="45.07481" lon="6.45873">
        <ele>2209.2</ele>
        <time>2021-02-28T10:26:44Z</time>
      </trkpt>
      <trkpt lat="45.07481" lon="6.45873">
        <ele>2209.4</ele>
        <time>2021-02-28T10:26:45Z</time>
      </trkpt>
      <trkpt lat="45.07481" lon="6.45873">
        <ele>2209.4</ele>
        <time>2021-02-28T10:26:46Z</time>
      </trkpt>
      <trkpt lat="45.07481" lon="6.45873">
        <ele>2209.4</ele>
        <time>2021-02-28T10:26:47Z</time>
      </trkpt>
      <trkpt lat="45.07481" lon="6.45873">
        <ele>2209.2</ele>
        <time>2021-02-28T10:26:48Z</time>
      </trkpt>
      <trkpt lat="45.07481" lon="6.45873">
        <ele>2209.6</ele>
        <time>2021-02-28T10:26:49Z</time>
      </trkpt>
      <trkpt lat="45.07481" lon="6.45873">
        <ele>2209.6</ele>
        <time>2021-02-28T10:26:50Z</time>
      </trkpt>
      <trkpt lat="45.07481" lon="6.45873">
        <ele>2209.4</ele>
        <time>2021-02-28T10:26:51Z</time>
      </trkpt>
      <trkpt lat="45.07481" lon="6.45873">
        <ele>2209.4</ele>
        <time>2021-02-28T10:26:52Z</time>
      </trkpt>
      <trkpt lat="45.07481" lon="6.45873">
        <ele>2209.4</ele>
        <time>2021-02-28T10:26:53Z</time>
      </trkpt>
      <trkpt lat="45.07481" lon="6.45873">
        <ele>2209.6</ele>
        <time>2021-02-28T10:26:54Z</time>
      </trkpt>
      <trkpt lat="45.07481" lon="6.45873">
        <ele>2209.6</ele>
        <time>2021-02-28T10:26:55Z</time>
      </trkpt>
      <trkpt lat="45.07481" lon="6.45873">
        <ele>2209.6</ele>
        <time>2021-02-28T10:26:56Z</time>
      </trkpt>
      <trkpt lat="45.07481" lon="6.45873">
        <ele>2209.8</ele>
        <time>2021-02-28T10:26:57Z</time>
      </trkpt>
      <trkpt lat="45.07481" lon="6.45873">
        <ele>2210</ele>
        <time>2021-02-28T10:26:58Z</time>
      </trkpt>
      <trkpt lat="45.07481" lon="6.45873">
        <ele>2210.2</ele>
        <time>2021-02-28T10:26:59Z</time>
      </trkpt>
      <trkpt lat="45.07481" lon="6.45873">
        <ele>2210.4</ele>
        <time>2021-02-28T10:27:00Z</time>
      </trkpt>
      <trkpt lat="45.07481" lon="6.45873">
        <ele>2210.4</ele>
        <time>2021-02-28T10:27:01Z</time>
      </trkpt>
      <trkpt lat="45.07481" lon="6.45873">
        <ele>2211</ele>
        <time>2021-02-28T10:27:02Z</time>
      </trkpt>
      <trkpt lat="45.07481" lon="6.45873">
        <ele>2211.2</ele>
        <time>2021-02-28T10:27:03Z</time>
      </trkpt>
      <trkpt lat="45.07481" lon="6.45873">
        <ele>2211.4</ele>
        <time>2021-02-28T10:27:04Z</time>
      </trkpt>
      <trkpt lat="45.07481" lon="6.45873">
        <ele>2211.4</ele>
        <time>2021-02-28T10:27:05Z</time>
      </trkpt>
      <trkpt lat="45.07481" lon="6.45873">
        <ele>2211.4</ele>
        <time>2021-02-28T10:27:06Z</time>
      </trkpt>
      <trkpt lat="45.07481" lon="6.45873">
        <ele>2211.4</ele>
        <time>2021-02-28T10:27:07Z</time>
      </trkpt>
      <trkpt lat="45.07481" lon="6.45873">
        <ele>2211.2</ele>
        <time>2021-02-28T10:27:08Z</time>
      </trkpt>
      <trkpt lat="45.07481" lon="6.45873">
        <ele>2211.2</ele>
        <time>2021-02-28T10:27:09Z</time>
      </trkpt>
      <trkpt lat="45.07481" lon="6.45873">
        <ele>2210.8</ele>
        <time>2021-02-28T10:27:10Z</time>
      </trkpt>
      <trkpt lat="45.07481" lon="6.45873">
        <ele>2210.6</ele>
        <time>2021-02-28T10:27:11Z</time>
      </trkpt>
      <trkpt lat="45.07481" lon="6.45873">
        <ele>2210.6</ele>
        <time>2021-02-28T10:27:12Z</time>
      </trkpt>
      <trkpt lat="45.07481" lon="6.45873">
        <ele>2210.2</ele>
        <time>2021-02-28T10:27:13Z</time>
      </trkpt>
      <trkpt lat="45.07481" lon="6.45873">
        <ele>2210</ele>
        <time>2021-02-28T10:27:14Z</time>
      </trkpt>
      <trkpt lat="45.07481" lon="6.45873">
        <ele>2209.8</ele>
        <time>2021-02-28T10:27:15Z</time>
      </trkpt>
      <trkpt lat="45.07481" lon="6.45873">
        <ele>2209.6</ele>
        <time>2021-02-28T10:27:16Z</time>
      </trkpt>
      <trkpt lat="45.07481" lon="6.45873">
        <ele>2209.6</ele>
        <time>2021-02-28T10:27:17Z</time>
      </trkpt>
      <trkpt lat="45.0748" lon="6.45875">
        <ele>2209.6</ele>
        <time>2021-02-28T10:27:18Z</time>
      </trkpt>
      <trkpt lat="45.0748" lon="6.45875">
        <ele>2209.8</ele>
        <time>2021-02-28T10:27:19Z</time>
      </trkpt>
      <trkpt lat="45.0748" lon="6.45875">
        <ele>2210</ele>
        <time>2021-02-28T10:27:20Z</time>
      </trkpt>
      <trkpt lat="45.0748" lon="6.45875">
        <ele>2210.2</ele>
        <time>2021-02-28T10:27:21Z</time>
      </trkpt>
      <trkpt lat="45.0748" lon="6.45875">
        <ele>2210</ele>
        <time>2021-02-28T10:27:22Z</time>
      </trkpt>
      <trkpt lat="45.0748" lon="6.45875">
        <ele>2210</ele>
        <time>2021-02-28T10:27:23Z</time>
      </trkpt>
      <trkpt lat="45.07479" lon="6.45879">
        <ele>2210</ele>
        <time>2021-02-28T10:27:24Z</time>
      </trkpt>
      <trkpt lat="45.07479" lon="6.45879">
        <ele>2210</ele>
        <time>2021-02-28T10:27:25Z</time>
      </trkpt>
      <trkpt lat="45.07479" lon="6.45879">
        <ele>2210.2</ele>
        <time>2021-02-28T10:27:26Z</time>
      </trkpt>
      <trkpt lat="45.07477" lon="6.45881">
        <ele>2210</ele>
        <time>2021-02-28T10:27:27Z</time>
      </trkpt>
      <trkpt lat="45.07477" lon="6.45881">
        <ele>2210</ele>
        <time>2021-02-28T10:27:28Z</time>
      </trkpt>
      <trkpt lat="45.07476" lon="6.45883">
        <ele>2210</ele>
        <time>2021-02-28T10:27:29Z</time>
      </trkpt>
      <trkpt lat="45.07476" lon="6.45883">
        <ele>2210</ele>
        <time>2021-02-28T10:27:30Z</time>
      </trkpt>
      <trkpt lat="45.07474" lon="6.45885">
        <ele>2209.8</ele>
        <time>2021-02-28T10:27:31Z</time>
      </trkpt>
      <trkpt lat="45.07474" lon="6.45885">
        <ele>2209.6</ele>
        <time>2021-02-28T10:27:32Z</time>
      </trkpt>
      <trkpt lat="45.07472" lon="6.45887">
        <ele>2210</ele>
        <time>2021-02-28T10:27:33Z</time>
      </trkpt>
      <trkpt lat="45.07472" lon="6.45887">
        <ele>2209.8</ele>
        <time>2021-02-28T10:27:34Z</time>
      </trkpt>
      <trkpt lat="45.07471" lon="6.4589">
        <ele>2210</ele>
        <time>2021-02-28T10:27:35Z</time>
      </trkpt>
      <trkpt lat="45.07471" lon="6.4589">
        <ele>2209.8</ele>
        <time>2021-02-28T10:27:36Z</time>
      </trkpt>
      <trkpt lat="45.07471" lon="6.45892">
        <ele>2210</ele>
        <time>2021-02-28T10:27:37Z</time>
      </trkpt>
      <trkpt lat="45.07471" lon="6.45892">
        <ele>2210</ele>
        <time>2021-02-28T10:27:38Z</time>
      </trkpt>
      <trkpt lat="45.0747" lon="6.45896">
        <ele>2210.2</ele>
        <time>2021-02-28T10:27:39Z</time>
      </trkpt>
      <trkpt lat="45.0747" lon="6.45896">
        <ele>2210.2</ele>
        <time>2021-02-28T10:27:40Z</time>
      </trkpt>
      <trkpt lat="45.07471" lon="6.459">
        <ele>2210</ele>
        <time>2021-02-28T10:27:41Z</time>
      </trkpt>
      <trkpt lat="45.07471" lon="6.459">
        <ele>2210</ele>
        <time>2021-02-28T10:27:42Z</time>
      </trkpt>
      <trkpt lat="45.0747" lon="6.45904">
        <ele>2210.2</ele>
        <time>2021-02-28T10:27:43Z</time>
      </trkpt>
      <trkpt lat="45.0747" lon="6.45904">
        <ele>2210.4</ele>
        <time>2021-02-28T10:27:44Z</time>
      </trkpt>
      <trkpt lat="45.0747" lon="6.45908">
        <ele>2210.2</ele>
        <time>2021-02-28T10:27:45Z</time>
      </trkpt>
      <trkpt lat="45.0747" lon="6.45908">
        <ele>2210</ele>
        <time>2021-02-28T10:27:46Z</time>
      </trkpt>
      <trkpt lat="45.07469" lon="6.45912">
        <ele>2210</ele>
        <time>2021-02-28T10:27:47Z</time>
      </trkpt>
      <trkpt lat="45.07469" lon="6.45912">
        <ele>2209.8</ele>
        <time>2021-02-28T10:27:48Z</time>
      </trkpt>
      <trkpt lat="45.07467" lon="6.45915">
        <ele>2210</ele>
        <time>2021-02-28T10:27:49Z</time>
      </trkpt>
      <trkpt lat="45.07467" lon="6.45915">
        <ele>2210</ele>
        <time>2021-02-28T10:27:50Z</time>
      </trkpt>
      <trkpt lat="45.07466" lon="6.45918">
        <ele>2210</ele>
        <time>2021-02-28T10:27:51Z</time>
      </trkpt>
      <trkpt lat="45.07466" lon="6.45918">
        <ele>2210</ele>
        <time>2021-02-28T10:27:52Z</time>
      </trkpt>
      <trkpt lat="45.07465" lon="6.45921">
        <ele>2210.2</ele>
        <time>2021-02-28T10:27:53Z</time>
      </trkpt>
      <trkpt lat="45.07465" lon="6.45921">
        <ele>2210</ele>
        <time>2021-02-28T10:27:54Z</time>
      </trkpt>
      <trkpt lat="45.07465" lon="6.45924">
        <ele>2210.6</ele>
        <time>2021-02-28T10:27:55Z</time>
      </trkpt>
      <trkpt lat="45.07465" lon="6.45924">
        <ele>2210.6</ele>
        <time>2021-02-28T10:27:56Z</time>
      </trkpt>
      <trkpt lat="45.07464" lon="6.45927">
        <ele>2210.8</ele>
        <time>2021-02-28T10:27:57Z</time>
      </trkpt>
      <trkpt lat="45.07464" lon="6.45927">
        <ele>2211.2</ele>
        <time>2021-02-28T10:27:58Z</time>
      </trkpt>
      <trkpt lat="45.07463" lon="6.4593">
        <ele>2211.8</ele>
        <time>2021-02-28T10:27:59Z</time>
      </trkpt>
      <trkpt lat="45.07463" lon="6.4593">
        <ele>2212.2</ele>
        <time>2021-02-28T10:28:00Z</time>
      </trkpt>
      <trkpt lat="45.07462" lon="6.45933">
        <ele>2212.4</ele>
        <time>2021-02-28T10:28:01Z</time>
      </trkpt>
      <trkpt lat="45.07462" lon="6.45933">
        <ele>2212.2</ele>
        <time>2021-02-28T10:28:02Z</time>
      </trkpt>
      <trkpt lat="45.07461" lon="6.45936">
        <ele>2213</ele>
        <time>2021-02-28T10:28:03Z</time>
      </trkpt>
      <trkpt lat="45.07461" lon="6.45936">
        <ele>2213</ele>
        <time>2021-02-28T10:28:04Z</time>
      </trkpt>
      <trkpt lat="45.0746" lon="6.45939">
        <ele>2212.8</ele>
        <time>2021-02-28T10:28:05Z</time>
      </trkpt>
      <trkpt lat="45.0746" lon="6.45939">
        <ele>2213.2</ele>
        <time>2021-02-28T10:28:06Z</time>
      </trkpt>
      <trkpt lat="45.07459" lon="6.45942">
        <ele>2213.2</ele>
        <time>2021-02-28T10:28:07Z</time>
      </trkpt>
      <trkpt lat="45.07459" lon="6.45942">
        <ele>2213.6</ele>
        <time>2021-02-28T10:28:08Z</time>
      </trkpt>
      <trkpt lat="45.07458" lon="6.45944">
        <ele>2214</ele>
        <time>2021-02-28T10:28:09Z</time>
      </trkpt>
      <trkpt lat="45.07458" lon="6.45944">
        <ele>2214</ele>
        <time>2021-02-28T10:28:10Z</time>
      </trkpt>
      <trkpt lat="45.07457" lon="6.45946">
        <ele>2214.4</ele>
        <time>2021-02-28T10:28:11Z</time>
      </trkpt>
      <trkpt lat="45.07457" lon="6.45946">
        <ele>2214.8</ele>
        <time>2021-02-28T10:28:12Z</time>
      </trkpt>
      <trkpt lat="45.07456" lon="6.45948">
        <ele>2215</ele>
        <time>2021-02-28T10:28:13Z</time>
      </trkpt>
      <trkpt lat="45.07456" lon="6.45948">
        <ele>2215</ele>
        <time>2021-02-28T10:28:14Z</time>
      </trkpt>
      <trkpt lat="45.07455" lon="6.4595">
        <ele>2215.2</ele>
        <time>2021-02-28T10:28:15Z</time>
      </trkpt>
      <trkpt lat="45.07455" lon="6.4595">
        <ele>2215.8</ele>
        <time>2021-02-28T10:28:16Z</time>
      </trkpt>
      <trkpt lat="45.07455" lon="6.4595">
        <ele>2215.8</ele>
        <time>2021-02-28T10:28:17Z</time>
      </trkpt>
      <trkpt lat="45.07453" lon="6.45953">
        <ele>2216</ele>
        <time>2021-02-28T10:28:18Z</time>
      </trkpt>
      <trkpt lat="45.07453" lon="6.45953">
        <ele>2216.6</ele>
        <time>2021-02-28T10:28:19Z</time>
      </trkpt>
      <trkpt lat="45.07453" lon="6.45953">
        <ele>2217.2</ele>
        <time>2021-02-28T10:28:20Z</time>
      </trkpt>
      <trkpt lat="45.07451" lon="6.45957">
        <ele>2217.2</ele>
        <time>2021-02-28T10:28:21Z</time>
      </trkpt>
      <trkpt lat="45.07451" lon="6.45957">
        <ele>2217.2</ele>
        <time>2021-02-28T10:28:22Z</time>
      </trkpt>
      <trkpt lat="45.0745" lon="6.45959">
        <ele>2217.2</ele>
        <time>2021-02-28T10:28:23Z</time>
      </trkpt>
      <trkpt lat="45.0745" lon="6.45959">
        <ele>2217.8</ele>
        <time>2021-02-28T10:28:24Z</time>
      </trkpt>
      <trkpt lat="45.07449" lon="6.45961">
        <ele>2218</ele>
        <time>2021-02-28T10:28:25Z</time>
      </trkpt>
      <trkpt lat="45.07449" lon="6.45961">
        <ele>2218.2</ele>
        <time>2021-02-28T10:28:26Z</time>
      </trkpt>
      <trkpt lat="45.07449" lon="6.45961">
        <ele>2219</ele>
        <time>2021-02-28T10:28:27Z</time>
      </trkpt>
      <trkpt lat="45.07447" lon="6.45964">
        <ele>2219</ele>
        <time>2021-02-28T10:28:28Z</time>
      </trkpt>
      <trkpt lat="45.07447" lon="6.45964">
        <ele>2219</ele>
        <time>2021-02-28T10:28:29Z</time>
      </trkpt>
      <trkpt lat="45.07446" lon="6.45966">
        <ele>2219.4</ele>
        <time>2021-02-28T10:28:30Z</time>
      </trkpt>
      <trkpt lat="45.07446" lon="6.45966">
        <ele>2219.8</ele>
        <time>2021-02-28T10:28:31Z</time>
      </trkpt>
      <trkpt lat="45.07445" lon="6.45968">
        <ele>2219.6</ele>
        <time>2021-02-28T10:28:32Z</time>
      </trkpt>
      <trkpt lat="45.07445" lon="6.45968">
        <ele>2220.2</ele>
        <time>2021-02-28T10:28:33Z</time>
      </trkpt>
      <trkpt lat="45.07445" lon="6.45968">
        <ele>2220.2</ele>
        <time>2021-02-28T10:28:34Z</time>
      </trkpt>
      <trkpt lat="45.07443" lon="6.45971">
        <ele>2220.6</ele>
        <time>2021-02-28T10:28:35Z</time>
      </trkpt>
      <trkpt lat="45.07443" lon="6.45971">
        <ele>2221</ele>
        <time>2021-02-28T10:28:36Z</time>
      </trkpt>
      <trkpt lat="45.07443" lon="6.45971">
        <ele>2221.2</ele>
        <time>2021-02-28T10:28:37Z</time>
      </trkpt>
      <trkpt lat="45.07441" lon="6.45973">
        <ele>2221.4</ele>
        <time>2021-02-28T10:28:38Z</time>
      </trkpt>
      <trkpt lat="45.07441" lon="6.45973">
        <ele>2221.2</ele>
        <time>2021-02-28T10:28:39Z</time>
      </trkpt>
      <trkpt lat="45.07439" lon="6.45976">
        <ele>2221.4</ele>
        <time>2021-02-28T10:28:40Z</time>
      </trkpt>
      <trkpt lat="45.07439" lon="6.45976">
        <ele>2221.4</ele>
        <time>2021-02-28T10:28:41Z</time>
      </trkpt>
      <trkpt lat="45.07437" lon="6.45978">
        <ele>2222</ele>
        <time>2021-02-28T10:28:42Z</time>
      </trkpt>
      <trkpt lat="45.07437" lon="6.45978">
        <ele>2222.2</ele>
        <time>2021-02-28T10:28:43Z</time>
      </trkpt>
      <trkpt lat="45.07435" lon="6.4598">
        <ele>2222.6</ele>
        <time>2021-02-28T10:28:44Z</time>
      </trkpt>
      <trkpt lat="45.07435" lon="6.4598">
        <ele>2222.4</ele>
        <time>2021-02-28T10:28:45Z</time>
      </trkpt>
      <trkpt lat="45.07434" lon="6.45983">
        <ele>2222.8</ele>
        <time>2021-02-28T10:28:46Z</time>
      </trkpt>
      <trkpt lat="45.07434" lon="6.45983">
        <ele>2223</ele>
        <time>2021-02-28T10:28:47Z</time>
      </trkpt>
      <trkpt lat="45.07432" lon="6.45985">
        <ele>2223.2</ele>
        <time>2021-02-28T10:28:48Z</time>
      </trkpt>
      <trkpt lat="45.07432" lon="6.45985">
        <ele>2223</ele>
        <time>2021-02-28T10:28:49Z</time>
      </trkpt>
      <trkpt lat="45.0743" lon="6.45987">
        <ele>2223.2</ele>
        <time>2021-02-28T10:28:50Z</time>
      </trkpt>
      <trkpt lat="45.0743" lon="6.45987">
        <ele>2223.8</ele>
        <time>2021-02-28T10:28:51Z</time>
      </trkpt>
      <trkpt lat="45.07428" lon="6.45989">
        <ele>2223.6</ele>
        <time>2021-02-28T10:28:52Z</time>
      </trkpt>
      <trkpt lat="45.07428" lon="6.45989">
        <ele>2223.6</ele>
        <time>2021-02-28T10:28:53Z</time>
      </trkpt>
      <trkpt lat="45.07426" lon="6.45991">
        <ele>2223.6</ele>
        <time>2021-02-28T10:28:54Z</time>
      </trkpt>
      <trkpt lat="45.07426" lon="6.45991">
        <ele>2224.2</ele>
        <time>2021-02-28T10:28:55Z</time>
      </trkpt>
      <trkpt lat="45.07424" lon="6.45993">
        <ele>2224.4</ele>
        <time>2021-02-28T10:28:56Z</time>
      </trkpt>
      <trkpt lat="45.07424" lon="6.45993">
        <ele>2224.6</ele>
        <time>2021-02-28T10:28:57Z</time>
      </trkpt>
      <trkpt lat="45.07423" lon="6.45995">
        <ele>2224.6</ele>
        <time>2021-02-28T10:28:58Z</time>
      </trkpt>
      <trkpt lat="45.07423" lon="6.45995">
        <ele>2225.2</ele>
        <time>2021-02-28T10:28:59Z</time>
      </trkpt>
      <trkpt lat="45.07421" lon="6.45997">
        <ele>2225.2</ele>
        <time>2021-02-28T10:29:00Z</time>
      </trkpt>
      <trkpt lat="45.07421" lon="6.45997">
        <ele>2225.4</ele>
        <time>2021-02-28T10:29:01Z</time>
      </trkpt>
      <trkpt lat="45.07419" lon="6.45999">
        <ele>2225.6</ele>
        <time>2021-02-28T10:29:02Z</time>
      </trkpt>
      <trkpt lat="45.07419" lon="6.45999">
        <ele>2226.4</ele>
        <time>2021-02-28T10:29:03Z</time>
      </trkpt>
      <trkpt lat="45.07418" lon="6.46001">
        <ele>2226.6</ele>
        <time>2021-02-28T10:29:04Z</time>
      </trkpt>
      <trkpt lat="45.07418" lon="6.46001">
        <ele>2226.6</ele>
        <time>2021-02-28T10:29:05Z</time>
      </trkpt>
      <trkpt lat="45.07416" lon="6.46003">
        <ele>2226.6</ele>
        <time>2021-02-28T10:29:06Z</time>
      </trkpt>
      <trkpt lat="45.07416" lon="6.46003">
        <ele>2226.8</ele>
        <time>2021-02-28T10:29:07Z</time>
      </trkpt>
      <trkpt lat="45.07415" lon="6.46005">
        <ele>2226.8</ele>
        <time>2021-02-28T10:29:08Z</time>
      </trkpt>
      <trkpt lat="45.07415" lon="6.46005">
        <ele>2227</ele>
        <time>2021-02-28T10:29:09Z</time>
      </trkpt>
      <trkpt lat="45.07412" lon="6.46007">
        <ele>2226.8</ele>
        <time>2021-02-28T10:29:10Z</time>
      </trkpt>
      <trkpt lat="45.07412" lon="6.46007">
        <ele>2227</ele>
        <time>2021-02-28T10:29:11Z</time>
      </trkpt>
      <trkpt lat="45.07411" lon="6.46009">
        <ele>2226.8</ele>
        <time>2021-02-28T10:29:12Z</time>
      </trkpt>
      <trkpt lat="45.07411" lon="6.46009">
        <ele>2227</ele>
        <time>2021-02-28T10:29:13Z</time>
      </trkpt>
      <trkpt lat="45.07409" lon="6.46011">
        <ele>2227.4</ele>
        <time>2021-02-28T10:29:14Z</time>
      </trkpt>
      <trkpt lat="45.07409" lon="6.46011">
        <ele>2227.8</ele>
        <time>2021-02-28T10:29:15Z</time>
      </trkpt>
      <trkpt lat="45.07407" lon="6.46012">
        <ele>2227.8</ele>
        <time>2021-02-28T10:29:16Z</time>
      </trkpt>
      <trkpt lat="45.07407" lon="6.46012">
        <ele>2228</ele>
        <time>2021-02-28T10:29:17Z</time>
      </trkpt>
      <trkpt lat="45.07405" lon="6.46014">
        <ele>2228</ele>
        <time>2021-02-28T10:29:18Z</time>
      </trkpt>
      <trkpt lat="45.07405" lon="6.46014">
        <ele>2228.4</ele>
        <time>2021-02-28T10:29:19Z</time>
      </trkpt>
      <trkpt lat="45.07403" lon="6.46016">
        <ele>2228.6</ele>
        <time>2021-02-28T10:29:20Z</time>
      </trkpt>
      <trkpt lat="45.07403" lon="6.46016">
        <ele>2229</ele>
        <time>2021-02-28T10:29:21Z</time>
      </trkpt>
      <trkpt lat="45.07402" lon="6.46018">
        <ele>2229.2</ele>
        <time>2021-02-28T10:29:22Z</time>
      </trkpt>
      <trkpt lat="45.07402" lon="6.46018">
        <ele>2229.4</ele>
        <time>2021-02-28T10:29:23Z</time>
      </trkpt>
      <trkpt lat="45.07402" lon="6.46018">
        <ele>2229.4</ele>
        <time>2021-02-28T10:29:24Z</time>
      </trkpt>
      <trkpt lat="45.074" lon="6.4602">
        <ele>2229.8</ele>
        <time>2021-02-28T10:29:25Z</time>
      </trkpt>
      <trkpt lat="45.074" lon="6.4602">
        <ele>2230</ele>
        <time>2021-02-28T10:29:26Z</time>
      </trkpt>
      <trkpt lat="45.07399" lon="6.46022">
        <ele>2230</ele>
        <time>2021-02-28T10:29:27Z</time>
      </trkpt>
      <trkpt lat="45.07399" lon="6.46022">
        <ele>2230.2</ele>
        <time>2021-02-28T10:29:28Z</time>
      </trkpt>
      <trkpt lat="45.07397" lon="6.46023">
        <ele>2230.4</ele>
        <time>2021-02-28T10:29:29Z</time>
      </trkpt>
      <trkpt lat="45.07397" lon="6.46023">
        <ele>2230.2</ele>
        <time>2021-02-28T10:29:30Z</time>
      </trkpt>
      <trkpt lat="45.07395" lon="6.46025">
        <ele>2230.6</ele>
        <time>2021-02-28T10:29:31Z</time>
      </trkpt>
      <trkpt lat="45.07395" lon="6.46025">
        <ele>2231</ele>
        <time>2021-02-28T10:29:32Z</time>
      </trkpt>
      <trkpt lat="45.07393" lon="6.46027">
        <ele>2231.2</ele>
        <time>2021-02-28T10:29:33Z</time>
      </trkpt>
      <trkpt lat="45.07393" lon="6.46027">
        <ele>2231.2</ele>
        <time>2021-02-28T10:29:34Z</time>
      </trkpt>
      <trkpt lat="45.07393" lon="6.46027">
        <ele>2231.4</ele>
        <time>2021-02-28T10:29:35Z</time>
      </trkpt>
      <trkpt lat="45.07393" lon="6.46027">
        <ele>2231.6</ele>
        <time>2021-02-28T10:29:36Z</time>
      </trkpt>
      <trkpt lat="45.07393" lon="6.46027">
        <ele>2231.8</ele>
        <time>2021-02-28T10:29:37Z</time>
      </trkpt>
      <trkpt lat="45.07393" lon="6.46027">
        <ele>2232</ele>
        <time>2021-02-28T10:29:38Z</time>
      </trkpt>
      <trkpt lat="45.07393" lon="6.46027">
        <ele>2232</ele>
        <time>2021-02-28T10:29:39Z</time>
      </trkpt>
      <trkpt lat="45.07391" lon="6.46029">
        <ele>2232.2</ele>
        <time>2021-02-28T10:29:40Z</time>
      </trkpt>
      <trkpt lat="45.07391" lon="6.46029">
        <ele>2232</ele>
        <time>2021-02-28T10:29:41Z</time>
      </trkpt>
      <trkpt lat="45.0739" lon="6.46031">
        <ele>2232.4</ele>
        <time>2021-02-28T10:29:42Z</time>
      </trkpt>
      <trkpt lat="45.0739" lon="6.46031">
        <ele>2232.8</ele>
        <time>2021-02-28T10:29:43Z</time>
      </trkpt>
      <trkpt lat="45.07388" lon="6.46033">
        <ele>2233</ele>
        <time>2021-02-28T10:29:44Z</time>
      </trkpt>
      <trkpt lat="45.07388" lon="6.46033">
        <ele>2233.2</ele>
        <time>2021-02-28T10:29:45Z</time>
      </trkpt>
      <trkpt lat="45.07386" lon="6.46035">
        <ele>2233.4</ele>
        <time>2021-02-28T10:29:46Z</time>
      </trkpt>
      <trkpt lat="45.07386" lon="6.46035">
        <ele>2233.4</ele>
        <time>2021-02-28T10:29:47Z</time>
      </trkpt>
      <trkpt lat="45.07384" lon="6.46037">
        <ele>2233.4</ele>
        <time>2021-02-28T10:29:48Z</time>
      </trkpt>
      <trkpt lat="45.07384" lon="6.46037">
        <ele>2233.6</ele>
        <time>2021-02-28T10:29:49Z</time>
      </trkpt>
      <trkpt lat="45.07382" lon="6.4604">
        <ele>2233.6</ele>
        <time>2021-02-28T10:29:50Z</time>
      </trkpt>
      <trkpt lat="45.07382" lon="6.4604">
        <ele>2234</ele>
        <time>2021-02-28T10:29:51Z</time>
      </trkpt>
      <trkpt lat="45.07381" lon="6.46041">
        <ele>2234.2</ele>
        <time>2021-02-28T10:29:52Z</time>
      </trkpt>
      <trkpt lat="45.07381" lon="6.46041">
        <ele>2234.8</ele>
        <time>2021-02-28T10:29:53Z</time>
      </trkpt>
      <trkpt lat="45.0738" lon="6.46043">
        <ele>2235.4</ele>
        <time>2021-02-28T10:29:54Z</time>
      </trkpt>
      <trkpt lat="45.0738" lon="6.46043">
        <ele>2235.6</ele>
        <time>2021-02-28T10:29:55Z</time>
      </trkpt>
      <trkpt lat="45.07378" lon="6.46045">
        <ele>2235.4</ele>
        <time>2021-02-28T10:29:56Z</time>
      </trkpt>
      <trkpt lat="45.07378" lon="6.46045">
        <ele>2235.6</ele>
        <time>2021-02-28T10:29:57Z</time>
      </trkpt>
      <trkpt lat="45.07378" lon="6.46045">
        <ele>2236</ele>
        <time>2021-02-28T10:29:58Z</time>
      </trkpt>
      <trkpt lat="45.07376" lon="6.46048">
        <ele>2236.4</ele>
        <time>2021-02-28T10:29:59Z</time>
      </trkpt>
      <trkpt lat="45.07376" lon="6.46048">
        <ele>2236.2</ele>
        <time>2021-02-28T10:30:00Z</time>
      </trkpt>
      <trkpt lat="45.07375" lon="6.46049">
        <ele>2236.4</ele>
        <time>2021-02-28T10:30:01Z</time>
      </trkpt>
      <trkpt lat="45.07375" lon="6.46049">
        <ele>2236.8</ele>
        <time>2021-02-28T10:30:02Z</time>
      </trkpt>
      <trkpt lat="45.07373" lon="6.46051">
        <ele>2237.2</ele>
        <time>2021-02-28T10:30:03Z</time>
      </trkpt>
      <trkpt lat="45.07373" lon="6.46051">
        <ele>2237.4</ele>
        <time>2021-02-28T10:30:04Z</time>
      </trkpt>
      <trkpt lat="45.07372" lon="6.46053">
        <ele>2238</ele>
        <time>2021-02-28T10:30:05Z</time>
      </trkpt>
      <trkpt lat="45.07372" lon="6.46053">
        <ele>2238.8</ele>
        <time>2021-02-28T10:30:06Z</time>
      </trkpt>
      <trkpt lat="45.0737" lon="6.46054">
        <ele>2238.6</ele>
        <time>2021-02-28T10:30:07Z</time>
      </trkpt>
      <trkpt lat="45.0737" lon="6.46054">
        <ele>2238.8</ele>
        <time>2021-02-28T10:30:08Z</time>
      </trkpt>
      <trkpt lat="45.0737" lon="6.46054">
        <ele>2239.2</ele>
        <time>2021-02-28T10:30:09Z</time>
      </trkpt>
      <trkpt lat="45.07368" lon="6.46056">
        <ele>2239.6</ele>
        <time>2021-02-28T10:30:10Z</time>
      </trkpt>
      <trkpt lat="45.07368" lon="6.46056">
        <ele>2239.6</ele>
        <time>2021-02-28T10:30:11Z</time>
      </trkpt>
      <trkpt lat="45.07366" lon="6.46058">
        <ele>2239.6</ele>
        <time>2021-02-28T10:30:12Z</time>
      </trkpt>
      <trkpt lat="45.07366" lon="6.46058">
        <ele>2239.8</ele>
        <time>2021-02-28T10:30:13Z</time>
      </trkpt>
      <trkpt lat="45.07366" lon="6.46058">
        <ele>2240</ele>
        <time>2021-02-28T10:30:14Z</time>
      </trkpt>
      <trkpt lat="45.07364" lon="6.46059">
        <ele>2240</ele>
        <time>2021-02-28T10:30:15Z</time>
      </trkpt>
      <trkpt lat="45.07364" lon="6.46059">
        <ele>2240.6</ele>
        <time>2021-02-28T10:30:16Z</time>
      </trkpt>
      <trkpt lat="45.07364" lon="6.46059">
        <ele>2241</ele>
        <time>2021-02-28T10:30:17Z</time>
      </trkpt>
      <trkpt lat="45.07362" lon="6.46062">
        <ele>2241.2</ele>
        <time>2021-02-28T10:30:18Z</time>
      </trkpt>
      <trkpt lat="45.07362" lon="6.46062">
        <ele>2241.4</ele>
        <time>2021-02-28T10:30:19Z</time>
      </trkpt>
      <trkpt lat="45.07361" lon="6.46063">
        <ele>2241.6</ele>
        <time>2021-02-28T10:30:20Z</time>
      </trkpt>
      <trkpt lat="45.07361" lon="6.46063">
        <ele>2241.8</ele>
        <time>2021-02-28T10:30:21Z</time>
      </trkpt>
      <trkpt lat="45.07359" lon="6.46065">
        <ele>2241.8</ele>
        <time>2021-02-28T10:30:22Z</time>
      </trkpt>
      <trkpt lat="45.07359" lon="6.46065">
        <ele>2242</ele>
        <time>2021-02-28T10:30:23Z</time>
      </trkpt>
      <trkpt lat="45.07358" lon="6.46067">
        <ele>2242.8</ele>
        <time>2021-02-28T10:30:24Z</time>
      </trkpt>
      <trkpt lat="45.07358" lon="6.46067">
        <ele>2242.8</ele>
        <time>2021-02-28T10:30:25Z</time>
      </trkpt>
      <trkpt lat="45.07356" lon="6.46069">
        <ele>2243</ele>
        <time>2021-02-28T10:30:26Z</time>
      </trkpt>
      <trkpt lat="45.07356" lon="6.46069">
        <ele>2243.4</ele>
        <time>2021-02-28T10:30:27Z</time>
      </trkpt>
      <trkpt lat="45.07356" lon="6.46069">
        <ele>2244.4</ele>
        <time>2021-02-28T10:30:28Z</time>
      </trkpt>
      <trkpt lat="45.07354" lon="6.46071">
        <ele>2244.6</ele>
        <time>2021-02-28T10:30:29Z</time>
      </trkpt>
      <trkpt lat="45.07354" lon="6.46071">
        <ele>2244.4</ele>
        <time>2021-02-28T10:30:30Z</time>
      </trkpt>
      <trkpt lat="45.07354" lon="6.46071">
        <ele>2244.8</ele>
        <time>2021-02-28T10:30:31Z</time>
      </trkpt>
      <trkpt lat="45.07353" lon="6.46073">
        <ele>2245.4</ele>
        <time>2021-02-28T10:30:32Z</time>
      </trkpt>
      <trkpt lat="45.07353" lon="6.46073">
        <ele>2245</ele>
        <time>2021-02-28T10:30:33Z</time>
      </trkpt>
      <trkpt lat="45.07353" lon="6.46073">
        <ele>2245.2</ele>
        <time>2021-02-28T10:30:34Z</time>
      </trkpt>
      <trkpt lat="45.07351" lon="6.46076">
        <ele>2245.6</ele>
        <time>2021-02-28T10:30:35Z</time>
      </trkpt>
      <trkpt lat="45.07351" lon="6.46076">
        <ele>2245.6</ele>
        <time>2021-02-28T10:30:36Z</time>
      </trkpt>
      <trkpt lat="45.07349" lon="6.46077">
        <ele>2246</ele>
        <time>2021-02-28T10:30:37Z</time>
      </trkpt>
      <trkpt lat="45.07349" lon="6.46077">
        <ele>2246.2</ele>
        <time>2021-02-28T10:30:38Z</time>
      </trkpt>
      <trkpt lat="45.07348" lon="6.46079">
        <ele>2246.6</ele>
        <time>2021-02-28T10:30:39Z</time>
      </trkpt>
      <trkpt lat="45.07348" lon="6.46079">
        <ele>2247.2</ele>
        <time>2021-02-28T10:30:40Z</time>
      </trkpt>
      <trkpt lat="45.07347" lon="6.46081">
        <ele>2247.4</ele>
        <time>2021-02-28T10:30:41Z</time>
      </trkpt>
      <trkpt lat="45.07347" lon="6.46081">
        <ele>2247.4</ele>
        <time>2021-02-28T10:30:42Z</time>
      </trkpt>
      <trkpt lat="45.07345" lon="6.46083">
        <ele>2247.4</ele>
        <time>2021-02-28T10:30:43Z</time>
      </trkpt>
      <trkpt lat="45.07345" lon="6.46083">
        <ele>2247.8</ele>
        <time>2021-02-28T10:30:44Z</time>
      </trkpt>
      <trkpt lat="45.07343" lon="6.46084">
        <ele>2247.6</ele>
        <time>2021-02-28T10:30:45Z</time>
      </trkpt>
      <trkpt lat="45.07343" lon="6.46084">
        <ele>2248</ele>
        <time>2021-02-28T10:30:46Z</time>
      </trkpt>
      <trkpt lat="45.07343" lon="6.46084">
        <ele>2248.2</ele>
        <time>2021-02-28T10:30:47Z</time>
      </trkpt>
      <trkpt lat="45.07341" lon="6.46086">
        <ele>2248.6</ele>
        <time>2021-02-28T10:30:48Z</time>
      </trkpt>
      <trkpt lat="45.07341" lon="6.46086">
        <ele>2248.4</ele>
        <time>2021-02-28T10:30:49Z</time>
      </trkpt>
      <trkpt lat="45.07341" lon="6.46086">
        <ele>2248.6</ele>
        <time>2021-02-28T10:30:50Z</time>
      </trkpt>
      <trkpt lat="45.07339" lon="6.46088">
        <ele>2248.8</ele>
        <time>2021-02-28T10:30:51Z</time>
      </trkpt>
      <trkpt lat="45.07339" lon="6.46088">
        <ele>2248.8</ele>
        <time>2021-02-28T10:30:52Z</time>
      </trkpt>
      <trkpt lat="45.07337" lon="6.4609">
        <ele>2249</ele>
        <time>2021-02-28T10:30:53Z</time>
      </trkpt>
      <trkpt lat="45.07337" lon="6.4609">
        <ele>2249.2</ele>
        <time>2021-02-28T10:30:54Z</time>
      </trkpt>
      <trkpt lat="45.07337" lon="6.4609">
        <ele>2249.4</ele>
        <time>2021-02-28T10:30:55Z</time>
      </trkpt>
      <trkpt lat="45.07335" lon="6.46093">
        <ele>2249.8</ele>
        <time>2021-02-28T10:30:56Z</time>
      </trkpt>
      <trkpt lat="45.07335" lon="6.46093">
        <ele>2250.4</ele>
        <time>2021-02-28T10:30:57Z</time>
      </trkpt>
      <trkpt lat="45.07333" lon="6.46094">
        <ele>2250.6</ele>
        <time>2021-02-28T10:30:58Z</time>
      </trkpt>
      <trkpt lat="45.07333" lon="6.46094">
        <ele>2250.6</ele>
        <time>2021-02-28T10:30:59Z</time>
      </trkpt>
      <trkpt lat="45.07333" lon="6.46094">
        <ele>2250.6</ele>
        <time>2021-02-28T10:31:00Z</time>
      </trkpt>
      <trkpt lat="45.07332" lon="6.46097">
        <ele>2250.8</ele>
        <time>2021-02-28T10:31:01Z</time>
      </trkpt>
      <trkpt lat="45.07332" lon="6.46097">
        <ele>2250.8</ele>
        <time>2021-02-28T10:31:02Z</time>
      </trkpt>
      <trkpt lat="45.07332" lon="6.46097">
        <ele>2251.4</ele>
        <time>2021-02-28T10:31:03Z</time>
      </trkpt>
      <trkpt lat="45.0733" lon="6.46099">
        <ele>2251.2</ele>
        <time>2021-02-28T10:31:04Z</time>
      </trkpt>
      <trkpt lat="45.0733" lon="6.46099">
        <ele>2251.4</ele>
        <time>2021-02-28T10:31:05Z</time>
      </trkpt>
      <trkpt lat="45.0733" lon="6.46099">
        <ele>2251.6</ele>
        <time>2021-02-28T10:31:06Z</time>
      </trkpt>
      <trkpt lat="45.0733" lon="6.46099">
        <ele>2251.8</ele>
        <time>2021-02-28T10:31:07Z</time>
      </trkpt>
      <trkpt lat="45.0733" lon="6.46099">
        <ele>2251.8</ele>
        <time>2021-02-28T10:31:08Z</time>
      </trkpt>
      <trkpt lat="45.0733" lon="6.46099">
        <ele>2251.8</ele>
        <time>2021-02-28T10:31:09Z</time>
      </trkpt>
      <trkpt lat="45.0733" lon="6.46099">
        <ele>2251.8</ele>
        <time>2021-02-28T10:31:10Z</time>
      </trkpt>
      <trkpt lat="45.0733" lon="6.46099">
        <ele>2251.8</ele>
        <time>2021-02-28T10:31:11Z</time>
      </trkpt>
      <trkpt lat="45.0733" lon="6.46099">
        <ele>2252.2</ele>
        <time>2021-02-28T10:31:12Z</time>
      </trkpt>
      <trkpt lat="45.0733" lon="6.46099">
        <ele>2252.2</ele>
        <time>2021-02-28T10:31:13Z</time>
      </trkpt>
      <trkpt lat="45.0733" lon="6.46099">
        <ele>2252</ele>
        <time>2021-02-28T10:31:14Z</time>
      </trkpt>
      <trkpt lat="45.07328" lon="6.46101">
        <ele>2252.2</ele>
        <time>2021-02-28T10:31:15Z</time>
      </trkpt>
      <trkpt lat="45.07328" lon="6.46101">
        <ele>2252.2</ele>
        <time>2021-02-28T10:31:16Z</time>
      </trkpt>
      <trkpt lat="45.07326" lon="6.46103">
        <ele>2252.2</ele>
        <time>2021-02-28T10:31:17Z</time>
      </trkpt>
      <trkpt lat="45.07326" lon="6.46103">
        <ele>2252.4</ele>
        <time>2021-02-28T10:31:18Z</time>
      </trkpt>
      <trkpt lat="45.07324" lon="6.46105">
        <ele>2252.6</ele>
        <time>2021-02-28T10:31:19Z</time>
      </trkpt>
      <trkpt lat="45.07324" lon="6.46105">
        <ele>2253</ele>
        <time>2021-02-28T10:31:20Z</time>
      </trkpt>
      <trkpt lat="45.07323" lon="6.46106">
        <ele>2253.2</ele>
        <time>2021-02-28T10:31:21Z</time>
      </trkpt>
      <trkpt lat="45.07323" lon="6.46106">
        <ele>2253.2</ele>
        <time>2021-02-28T10:31:22Z</time>
      </trkpt>
      <trkpt lat="45.07321" lon="6.46108">
        <ele>2253.4</ele>
        <time>2021-02-28T10:31:23Z</time>
      </trkpt>
      <trkpt lat="45.07321" lon="6.46108">
        <ele>2253.6</ele>
        <time>2021-02-28T10:31:24Z</time>
      </trkpt>
      <trkpt lat="45.07319" lon="6.46109">
        <ele>2254.2</ele>
        <time>2021-02-28T10:31:25Z</time>
      </trkpt>
      <trkpt lat="45.07319" lon="6.46109">
        <ele>2254</ele>
        <time>2021-02-28T10:31:26Z</time>
      </trkpt>
      <trkpt lat="45.07317" lon="6.4611">
        <ele>2254.2</ele>
        <time>2021-02-28T10:31:27Z</time>
      </trkpt>
      <trkpt lat="45.07317" lon="6.4611">
        <ele>2254.4</ele>
        <time>2021-02-28T10:31:28Z</time>
      </trkpt>
      <trkpt lat="45.07315" lon="6.46112">
        <ele>2255.2</ele>
        <time>2021-02-28T10:31:29Z</time>
      </trkpt>
      <trkpt lat="45.07315" lon="6.46112">
        <ele>2255.8</ele>
        <time>2021-02-28T10:31:30Z</time>
      </trkpt>
      <trkpt lat="45.07315" lon="6.46112">
        <ele>2256</ele>
        <time>2021-02-28T10:31:31Z</time>
      </trkpt>
      <trkpt lat="45.07313" lon="6.46113">
        <ele>2256</ele>
        <time>2021-02-28T10:31:32Z</time>
      </trkpt>
      <trkpt lat="45.07313" lon="6.46113">
        <ele>2256</ele>
        <time>2021-02-28T10:31:33Z</time>
      </trkpt>
      <trkpt lat="45.07311" lon="6.46115">
        <ele>2256.4</ele>
        <time>2021-02-28T10:31:34Z</time>
      </trkpt>
      <trkpt lat="45.07311" lon="6.46115">
        <ele>2256.6</ele>
        <time>2021-02-28T10:31:35Z</time>
      </trkpt>
      <trkpt lat="45.07311" lon="6.46115">
        <ele>2256.6</ele>
        <time>2021-02-28T10:31:36Z</time>
      </trkpt>
      <trkpt lat="45.07308" lon="6.46116">
        <ele>2256.8</ele>
        <time>2021-02-28T10:31:37Z</time>
      </trkpt>
      <trkpt lat="45.07308" lon="6.46116">
        <ele>2257.2</ele>
        <time>2021-02-28T10:31:38Z</time>
      </trkpt>
      <trkpt lat="45.07308" lon="6.46116">
        <ele>2258.2</ele>
        <time>2021-02-28T10:31:39Z</time>
      </trkpt>
      <trkpt lat="45.07306" lon="6.46118">
        <ele>2258.2</ele>
        <time>2021-02-28T10:31:40Z</time>
      </trkpt>
      <trkpt lat="45.07306" lon="6.46118">
        <ele>2258.2</ele>
        <time>2021-02-28T10:31:41Z</time>
      </trkpt>
      <trkpt lat="45.07306" lon="6.46118">
        <ele>2258.6</ele>
        <time>2021-02-28T10:31:42Z</time>
      </trkpt>
      <trkpt lat="45.07304" lon="6.46121">
        <ele>2259</ele>
        <time>2021-02-28T10:31:43Z</time>
      </trkpt>
      <trkpt lat="45.07304" lon="6.46121">
        <ele>2259</ele>
        <time>2021-02-28T10:31:44Z</time>
      </trkpt>
      <trkpt lat="45.07302" lon="6.46122">
        <ele>2259.4</ele>
        <time>2021-02-28T10:31:45Z</time>
      </trkpt>
      <trkpt lat="45.07302" lon="6.46122">
        <ele>2259.6</ele>
        <time>2021-02-28T10:31:46Z</time>
      </trkpt>
      <trkpt lat="45.073" lon="6.46124">
        <ele>2260</ele>
        <time>2021-02-28T10:31:47Z</time>
      </trkpt>
      <trkpt lat="45.073" lon="6.46124">
        <ele>2260.2</ele>
        <time>2021-02-28T10:31:48Z</time>
      </trkpt>
      <trkpt lat="45.073" lon="6.46124">
        <ele>2260.4</ele>
        <time>2021-02-28T10:31:49Z</time>
      </trkpt>
      <trkpt lat="45.07298" lon="6.46126">
        <ele>2260.6</ele>
        <time>2021-02-28T10:31:50Z</time>
      </trkpt>
      <trkpt lat="45.07298" lon="6.46126">
        <ele>2261</ele>
        <time>2021-02-28T10:31:51Z</time>
      </trkpt>
      <trkpt lat="45.07297" lon="6.46127">
        <ele>2261.2</ele>
        <time>2021-02-28T10:31:52Z</time>
      </trkpt>
      <trkpt lat="45.07297" lon="6.46127">
        <ele>2261.6</ele>
        <time>2021-02-28T10:31:53Z</time>
      </trkpt>
      <trkpt lat="45.07297" lon="6.46127">
        <ele>2261.8</ele>
        <time>2021-02-28T10:31:54Z</time>
      </trkpt>
      <trkpt lat="45.07294" lon="6.4613">
        <ele>2261.6</ele>
        <time>2021-02-28T10:31:55Z</time>
      </trkpt>
      <trkpt lat="45.07294" lon="6.4613">
        <ele>2262.2</ele>
        <time>2021-02-28T10:31:56Z</time>
      </trkpt>
      <trkpt lat="45.07294" lon="6.4613">
        <ele>2262.6</ele>
        <time>2021-02-28T10:31:57Z</time>
      </trkpt>
      <trkpt lat="45.07291" lon="6.46132">
        <ele>2262.6</ele>
        <time>2021-02-28T10:31:58Z</time>
      </trkpt>
      <trkpt lat="45.07291" lon="6.46132">
        <ele>2262.4</ele>
        <time>2021-02-28T10:31:59Z</time>
      </trkpt>
      <trkpt lat="45.07291" lon="6.46132">
        <ele>2262.8</ele>
        <time>2021-02-28T10:32:00Z</time>
      </trkpt>
      <trkpt lat="45.07291" lon="6.46132">
        <ele>2263.2</ele>
        <time>2021-02-28T10:32:01Z</time>
      </trkpt>
      <trkpt lat="45.0729" lon="6.46133">
        <ele>2263.6</ele>
        <time>2021-02-28T10:32:02Z</time>
      </trkpt>
      <trkpt lat="45.0729" lon="6.46133">
        <ele>2263.8</ele>
        <time>2021-02-28T10:32:03Z</time>
      </trkpt>
      <trkpt lat="45.0729" lon="6.46133">
        <ele>2263.8</ele>
        <time>2021-02-28T10:32:04Z</time>
      </trkpt>
      <trkpt lat="45.07288" lon="6.46135">
        <ele>2264</ele>
        <time>2021-02-28T10:32:05Z</time>
      </trkpt>
      <trkpt lat="45.07288" lon="6.46135">
        <ele>2264.8</ele>
        <time>2021-02-28T10:32:06Z</time>
      </trkpt>
      <trkpt lat="45.07288" lon="6.46135">
        <ele>2264.8</ele>
        <time>2021-02-28T10:32:07Z</time>
      </trkpt>
      <trkpt lat="45.07285" lon="6.46137">
        <ele>2265</ele>
        <time>2021-02-28T10:32:08Z</time>
      </trkpt>
      <trkpt lat="45.07285" lon="6.46137">
        <ele>2265.4</ele>
        <time>2021-02-28T10:32:09Z</time>
      </trkpt>
      <trkpt lat="45.07284" lon="6.4614">
        <ele>2265.8</ele>
        <time>2021-02-28T10:32:10Z</time>
      </trkpt>
      <trkpt lat="45.07284" lon="6.4614">
        <ele>2266</ele>
        <time>2021-02-28T10:32:11Z</time>
      </trkpt>
      <trkpt lat="45.07282" lon="6.46142">
        <ele>2266.2</ele>
        <time>2021-02-28T10:32:12Z</time>
      </trkpt>
      <trkpt lat="45.07282" lon="6.46142">
        <ele>2266.6</ele>
        <time>2021-02-28T10:32:13Z</time>
      </trkpt>
      <trkpt lat="45.0728" lon="6.46143">
        <ele>2267.2</ele>
        <time>2021-02-28T10:32:14Z</time>
      </trkpt>
      <trkpt lat="45.0728" lon="6.46143">
        <ele>2267.4</ele>
        <time>2021-02-28T10:32:15Z</time>
      </trkpt>
      <trkpt lat="45.07279" lon="6.46144">
        <ele>2268</ele>
        <time>2021-02-28T10:32:16Z</time>
      </trkpt>
      <trkpt lat="45.07279" lon="6.46144">
        <ele>2268.2</ele>
        <time>2021-02-28T10:32:17Z</time>
      </trkpt>
      <trkpt lat="45.07279" lon="6.46144">
        <ele>2268.6</ele>
        <time>2021-02-28T10:32:18Z</time>
      </trkpt>
      <trkpt lat="45.07277" lon="6.46147">
        <ele>2268.8</ele>
        <time>2021-02-28T10:32:19Z</time>
      </trkpt>
      <trkpt lat="45.07277" lon="6.46147">
        <ele>2269</ele>
        <time>2021-02-28T10:32:20Z</time>
      </trkpt>
      <trkpt lat="45.07275" lon="6.46149">
        <ele>2269.4</ele>
        <time>2021-02-28T10:32:21Z</time>
      </trkpt>
      <trkpt lat="45.07275" lon="6.46149">
        <ele>2269.8</ele>
        <time>2021-02-28T10:32:22Z</time>
      </trkpt>
      <trkpt lat="45.07273" lon="6.46151">
        <ele>2269.8</ele>
        <time>2021-02-28T10:32:23Z</time>
      </trkpt>
      <trkpt lat="45.07273" lon="6.46151">
        <ele>2269.6</ele>
        <time>2021-02-28T10:32:24Z</time>
      </trkpt>
      <trkpt lat="45.07271" lon="6.46152">
        <ele>2270</ele>
        <time>2021-02-28T10:32:25Z</time>
      </trkpt>
      <trkpt lat="45.07271" lon="6.46152">
        <ele>2270.6</ele>
        <time>2021-02-28T10:32:26Z</time>
      </trkpt>
      <trkpt lat="45.07271" lon="6.46152">
        <ele>2270.4</ele>
        <time>2021-02-28T10:32:27Z</time>
      </trkpt>
      <trkpt lat="45.07269" lon="6.46154">
        <ele>2270.2</ele>
        <time>2021-02-28T10:32:28Z</time>
      </trkpt>
      <trkpt lat="45.07269" lon="6.46154">
        <ele>2270.6</ele>
        <time>2021-02-28T10:32:29Z</time>
      </trkpt>
      <trkpt lat="45.07267" lon="6.46156">
        <ele>2270.6</ele>
        <time>2021-02-28T10:32:30Z</time>
      </trkpt>
      <trkpt lat="45.07267" lon="6.46156">
        <ele>2270.6</ele>
        <time>2021-02-28T10:32:31Z</time>
      </trkpt>
      <trkpt lat="45.07265" lon="6.46158">
        <ele>2270.8</ele>
        <time>2021-02-28T10:32:32Z</time>
      </trkpt>
      <trkpt lat="45.07265" lon="6.46158">
        <ele>2270.8</ele>
        <time>2021-02-28T10:32:33Z</time>
      </trkpt>
      <trkpt lat="45.07264" lon="6.46159">
        <ele>2271.2</ele>
        <time>2021-02-28T10:32:34Z</time>
      </trkpt>
      <trkpt lat="45.07264" lon="6.46159">
        <ele>2271.6</ele>
        <time>2021-02-28T10:32:35Z</time>
      </trkpt>
      <trkpt lat="45.07262" lon="6.46162">
        <ele>2271.4</ele>
        <time>2021-02-28T10:32:36Z</time>
      </trkpt>
      <trkpt lat="45.07262" lon="6.46162">
        <ele>2271.2</ele>
        <time>2021-02-28T10:32:37Z</time>
      </trkpt>
      <trkpt lat="45.0726" lon="6.46164">
        <ele>2271.2</ele>
        <time>2021-02-28T10:32:38Z</time>
      </trkpt>
      <trkpt lat="45.0726" lon="6.46164">
        <ele>2272</ele>
        <time>2021-02-28T10:32:39Z</time>
      </trkpt>
      <trkpt lat="45.07259" lon="6.46166">
        <ele>2272.2</ele>
        <time>2021-02-28T10:32:40Z</time>
      </trkpt>
      <trkpt lat="45.07259" lon="6.46166">
        <ele>2272</ele>
        <time>2021-02-28T10:32:41Z</time>
      </trkpt>
      <trkpt lat="45.07257" lon="6.46168">
        <ele>2272.6</ele>
        <time>2021-02-28T10:32:42Z</time>
      </trkpt>
      <trkpt lat="45.07257" lon="6.46168">
        <ele>2273.2</ele>
        <time>2021-02-28T10:32:43Z</time>
      </trkpt>
      <trkpt lat="45.07255" lon="6.4617">
        <ele>2273.2</ele>
        <time>2021-02-28T10:32:44Z</time>
      </trkpt>
      <trkpt lat="45.07255" lon="6.4617">
        <ele>2273.4</ele>
        <time>2021-02-28T10:32:45Z</time>
      </trkpt>
      <trkpt lat="45.07253" lon="6.46172">
        <ele>2273.2</ele>
        <time>2021-02-28T10:32:46Z</time>
      </trkpt>
      <trkpt lat="45.07253" lon="6.46172">
        <ele>2273.6</ele>
        <time>2021-02-28T10:32:47Z</time>
      </trkpt>
      <trkpt lat="45.07252" lon="6.46174">
        <ele>2274.4</ele>
        <time>2021-02-28T10:32:48Z</time>
      </trkpt>
      <trkpt lat="45.07252" lon="6.46174">
        <ele>2274.4</ele>
        <time>2021-02-28T10:32:49Z</time>
      </trkpt>
      <trkpt lat="45.0725" lon="6.46176">
        <ele>2274.2</ele>
        <time>2021-02-28T10:32:50Z</time>
      </trkpt>
      <trkpt lat="45.0725" lon="6.46176">
        <ele>2274.2</ele>
        <time>2021-02-28T10:32:51Z</time>
      </trkpt>
      <trkpt lat="45.07249" lon="6.46178">
        <ele>2274.8</ele>
        <time>2021-02-28T10:32:52Z</time>
      </trkpt>
      <trkpt lat="45.07249" lon="6.46178">
        <ele>2274.6</ele>
        <time>2021-02-28T10:32:53Z</time>
      </trkpt>
      <trkpt lat="45.07247" lon="6.4618">
        <ele>2274.8</ele>
        <time>2021-02-28T10:32:54Z</time>
      </trkpt>
      <trkpt lat="45.07247" lon="6.4618">
        <ele>2275.6</ele>
        <time>2021-02-28T10:32:55Z</time>
      </trkpt>
      <trkpt lat="45.07245" lon="6.46181">
        <ele>2275.8</ele>
        <time>2021-02-28T10:32:56Z</time>
      </trkpt>
      <trkpt lat="45.07245" lon="6.46181">
        <ele>2276.2</ele>
        <time>2021-02-28T10:32:57Z</time>
      </trkpt>
      <trkpt lat="45.07244" lon="6.46183">
        <ele>2276.6</ele>
        <time>2021-02-28T10:32:58Z</time>
      </trkpt>
      <trkpt lat="45.07244" lon="6.46183">
        <ele>2276.6</ele>
        <time>2021-02-28T10:32:59Z</time>
      </trkpt>
      <trkpt lat="45.07243" lon="6.46185">
        <ele>2277</ele>
        <time>2021-02-28T10:33:00Z</time>
      </trkpt>
      <trkpt lat="45.07243" lon="6.46185">
        <ele>2277.2</ele>
        <time>2021-02-28T10:33:01Z</time>
      </trkpt>
      <trkpt lat="45.07241" lon="6.46187">
        <ele>2277.2</ele>
        <time>2021-02-28T10:33:02Z</time>
      </trkpt>
      <trkpt lat="45.07241" lon="6.46187">
        <ele>2277.6</ele>
        <time>2021-02-28T10:33:03Z</time>
      </trkpt>
      <trkpt lat="45.07239" lon="6.46189">
        <ele>2277.4</ele>
        <time>2021-02-28T10:33:04Z</time>
      </trkpt>
      <trkpt lat="45.07239" lon="6.46189">
        <ele>2277.4</ele>
        <time>2021-02-28T10:33:05Z</time>
      </trkpt>
      <trkpt lat="45.07238" lon="6.4619">
        <ele>2277.8</ele>
        <time>2021-02-28T10:33:06Z</time>
      </trkpt>
      <trkpt lat="45.07238" lon="6.4619">
        <ele>2277.8</ele>
        <time>2021-02-28T10:33:07Z</time>
      </trkpt>
      <trkpt lat="45.07236" lon="6.46192">
        <ele>2278.4</ele>
        <time>2021-02-28T10:33:08Z</time>
      </trkpt>
      <trkpt lat="45.07236" lon="6.46192">
        <ele>2278.6</ele>
        <time>2021-02-28T10:33:09Z</time>
      </trkpt>
      <trkpt lat="45.07234" lon="6.46193">
        <ele>2279</ele>
        <time>2021-02-28T10:33:10Z</time>
      </trkpt>
      <trkpt lat="45.07234" lon="6.46193">
        <ele>2279</ele>
        <time>2021-02-28T10:33:11Z</time>
      </trkpt>
      <trkpt lat="45.07232" lon="6.46195">
        <ele>2279.4</ele>
        <time>2021-02-28T10:33:12Z</time>
      </trkpt>
      <trkpt lat="45.07232" lon="6.46195">
        <ele>2279.6</ele>
        <time>2021-02-28T10:33:13Z</time>
      </trkpt>
      <trkpt lat="45.07231" lon="6.46197">
        <ele>2279.8</ele>
        <time>2021-02-28T10:33:14Z</time>
      </trkpt>
      <trkpt lat="45.07231" lon="6.46197">
        <ele>2280</ele>
        <time>2021-02-28T10:33:15Z</time>
      </trkpt>
      <trkpt lat="45.07229" lon="6.46199">
        <ele>2280.2</ele>
        <time>2021-02-28T10:33:16Z</time>
      </trkpt>
      <trkpt lat="45.07229" lon="6.46199">
        <ele>2280.8</ele>
        <time>2021-02-28T10:33:17Z</time>
      </trkpt>
      <trkpt lat="45.07228" lon="6.46201">
        <ele>2281</ele>
        <time>2021-02-28T10:33:18Z</time>
      </trkpt>
      <trkpt lat="45.07228" lon="6.46201">
        <ele>2281</ele>
        <time>2021-02-28T10:33:19Z</time>
      </trkpt>
      <trkpt lat="45.07226" lon="6.46204">
        <ele>2281.2</ele>
        <time>2021-02-28T10:33:20Z</time>
      </trkpt>
      <trkpt lat="45.07226" lon="6.46204">
        <ele>2281.4</ele>
        <time>2021-02-28T10:33:21Z</time>
      </trkpt>
      <trkpt lat="45.07226" lon="6.46204">
        <ele>2281.6</ele>
        <time>2021-02-28T10:33:22Z</time>
      </trkpt>
      <trkpt lat="45.07224" lon="6.46206">
        <ele>2281.6</ele>
        <time>2021-02-28T10:33:23Z</time>
      </trkpt>
      <trkpt lat="45.07224" lon="6.46206">
        <ele>2281.4</ele>
        <time>2021-02-28T10:33:24Z</time>
      </trkpt>
      <trkpt lat="45.07224" lon="6.46206">
        <ele>2282</ele>
        <time>2021-02-28T10:33:25Z</time>
      </trkpt>
      <trkpt lat="45.07224" lon="6.46206">
        <ele>2283</ele>
        <time>2021-02-28T10:33:26Z</time>
      </trkpt>
      <trkpt lat="45.07222" lon="6.46207">
        <ele>2282.8</ele>
        <time>2021-02-28T10:33:27Z</time>
      </trkpt>
      <trkpt lat="45.07222" lon="6.46207">
        <ele>2282.6</ele>
        <time>2021-02-28T10:33:28Z</time>
      </trkpt>
      <trkpt lat="45.0722" lon="6.46209">
        <ele>2283.2</ele>
        <time>2021-02-28T10:33:29Z</time>
      </trkpt>
      <trkpt lat="45.0722" lon="6.46209">
        <ele>2283.6</ele>
        <time>2021-02-28T10:33:30Z</time>
      </trkpt>
      <trkpt lat="45.07219" lon="6.4621">
        <ele>2283.6</ele>
        <time>2021-02-28T10:33:31Z</time>
      </trkpt>
      <trkpt lat="45.07219" lon="6.4621">
        <ele>2284</ele>
        <time>2021-02-28T10:33:32Z</time>
      </trkpt>
      <trkpt lat="45.07217" lon="6.46213">
        <ele>2284.6</ele>
        <time>2021-02-28T10:33:33Z</time>
      </trkpt>
      <trkpt lat="45.07217" lon="6.46213">
        <ele>2284.6</ele>
        <time>2021-02-28T10:33:34Z</time>
      </trkpt>
      <trkpt lat="45.07215" lon="6.46215">
        <ele>2284.8</ele>
        <time>2021-02-28T10:33:35Z</time>
      </trkpt>
      <trkpt lat="45.07215" lon="6.46215">
        <ele>2284.8</ele>
        <time>2021-02-28T10:33:36Z</time>
      </trkpt>
      <trkpt lat="45.07213" lon="6.46217">
        <ele>2284.8</ele>
        <time>2021-02-28T10:33:37Z</time>
      </trkpt>
      <trkpt lat="45.07213" lon="6.46217">
        <ele>2284.8</ele>
        <time>2021-02-28T10:33:38Z</time>
      </trkpt>
      <trkpt lat="45.07212" lon="6.46219">
        <ele>2285.4</ele>
        <time>2021-02-28T10:33:39Z</time>
      </trkpt>
      <trkpt lat="45.07212" lon="6.46219">
        <ele>2285.6</ele>
        <time>2021-02-28T10:33:40Z</time>
      </trkpt>
      <trkpt lat="45.0721" lon="6.4622">
        <ele>2285.8</ele>
        <time>2021-02-28T10:33:41Z</time>
      </trkpt>
      <trkpt lat="45.0721" lon="6.4622">
        <ele>2286.2</ele>
        <time>2021-02-28T10:33:42Z</time>
      </trkpt>
      <trkpt lat="45.07208" lon="6.46222">
        <ele>2286.6</ele>
        <time>2021-02-28T10:33:43Z</time>
      </trkpt>
      <trkpt lat="45.07208" lon="6.46222">
        <ele>2286.4</ele>
        <time>2021-02-28T10:33:44Z</time>
      </trkpt>
      <trkpt lat="45.07206" lon="6.46225">
        <ele>2286.8</ele>
        <time>2021-02-28T10:33:45Z</time>
      </trkpt>
      <trkpt lat="45.07206" lon="6.46225">
        <ele>2287</ele>
        <time>2021-02-28T10:33:46Z</time>
      </trkpt>
      <trkpt lat="45.07204" lon="6.46226">
        <ele>2287.8</ele>
        <time>2021-02-28T10:33:47Z</time>
      </trkpt>
      <trkpt lat="45.07204" lon="6.46226">
        <ele>2287.4</ele>
        <time>2021-02-28T10:33:48Z</time>
      </trkpt>
      <trkpt lat="45.07204" lon="6.46226">
        <ele>2288</ele>
        <time>2021-02-28T10:33:49Z</time>
      </trkpt>
      <trkpt lat="45.07203" lon="6.46228">
        <ele>2287.8</ele>
        <time>2021-02-28T10:33:50Z</time>
      </trkpt>
      <trkpt lat="45.07203" lon="6.46228">
        <ele>2288.4</ele>
        <time>2021-02-28T10:33:51Z</time>
      </trkpt>
      <trkpt lat="45.07203" lon="6.46228">
        <ele>2288.4</ele>
        <time>2021-02-28T10:33:52Z</time>
      </trkpt>
      <trkpt lat="45.07203" lon="6.46228">
        <ele>2288.4</ele>
        <time>2021-02-28T10:33:53Z</time>
      </trkpt>
      <trkpt lat="45.07203" lon="6.46228">
        <ele>2288</ele>
        <time>2021-02-28T10:33:54Z</time>
      </trkpt>
      <trkpt lat="45.07201" lon="6.46229">
        <ele>2287.8</ele>
        <time>2021-02-28T10:33:55Z</time>
      </trkpt>
      <trkpt lat="45.07201" lon="6.46229">
        <ele>2288.2</ele>
        <time>2021-02-28T10:33:56Z</time>
      </trkpt>
      <trkpt lat="45.07201" lon="6.46229">
        <ele>2288.4</ele>
        <time>2021-02-28T10:33:57Z</time>
      </trkpt>
      <trkpt lat="45.07199" lon="6.46231">
        <ele>2288.8</ele>
        <time>2021-02-28T10:33:58Z</time>
      </trkpt>
      <trkpt lat="45.07199" lon="6.46231">
        <ele>2288.6</ele>
        <time>2021-02-28T10:33:59Z</time>
      </trkpt>
      <trkpt lat="45.07198" lon="6.46233">
        <ele>2289</ele>
        <time>2021-02-28T10:34:00Z</time>
      </trkpt>
      <trkpt lat="45.07198" lon="6.46233">
        <ele>2288.8</ele>
        <time>2021-02-28T10:34:01Z</time>
      </trkpt>
      <trkpt lat="45.07196" lon="6.46235">
        <ele>2288.6</ele>
        <time>2021-02-28T10:34:02Z</time>
      </trkpt>
      <trkpt lat="45.07196" lon="6.46235">
        <ele>2289.2</ele>
        <time>2021-02-28T10:34:03Z</time>
      </trkpt>
      <trkpt lat="45.07194" lon="6.46237">
        <ele>2289.6</ele>
        <time>2021-02-28T10:34:04Z</time>
      </trkpt>
      <trkpt lat="45.07194" lon="6.46237">
        <ele>2289.2</ele>
        <time>2021-02-28T10:34:05Z</time>
      </trkpt>
      <trkpt lat="45.07193" lon="6.4624">
        <ele>2289.2</ele>
        <time>2021-02-28T10:34:06Z</time>
      </trkpt>
      <trkpt lat="45.07193" lon="6.4624">
        <ele>2289.6</ele>
        <time>2021-02-28T10:34:07Z</time>
      </trkpt>
      <trkpt lat="45.07191" lon="6.46243">
        <ele>2289.6</ele>
        <time>2021-02-28T10:34:08Z</time>
      </trkpt>
      <trkpt lat="45.07191" lon="6.46243">
        <ele>2289.2</ele>
        <time>2021-02-28T10:34:09Z</time>
      </trkpt>
      <trkpt lat="45.07189" lon="6.46245">
        <ele>2289.6</ele>
        <time>2021-02-28T10:34:10Z</time>
      </trkpt>
      <trkpt lat="45.07189" lon="6.46245">
        <ele>2289.4</ele>
        <time>2021-02-28T10:34:11Z</time>
      </trkpt>
      <trkpt lat="45.07187" lon="6.46248">
        <ele>2289.4</ele>
        <time>2021-02-28T10:34:12Z</time>
      </trkpt>
      <trkpt lat="45.07187" lon="6.46248">
        <ele>2289.2</ele>
        <time>2021-02-28T10:34:13Z</time>
      </trkpt>
      <trkpt lat="45.07185" lon="6.46251">
        <ele>2289.2</ele>
        <time>2021-02-28T10:34:14Z</time>
      </trkpt>
      <trkpt lat="45.07185" lon="6.46251">
        <ele>2289.8</ele>
        <time>2021-02-28T10:34:15Z</time>
      </trkpt>
      <trkpt lat="45.07184" lon="6.46254">
        <ele>2289.6</ele>
        <time>2021-02-28T10:34:16Z</time>
      </trkpt>
      <trkpt lat="45.07184" lon="6.46254">
        <ele>2289.6</ele>
        <time>2021-02-28T10:34:17Z</time>
      </trkpt>
      <trkpt lat="45.07182" lon="6.46256">
        <ele>2290</ele>
        <time>2021-02-28T10:34:18Z</time>
      </trkpt>
      <trkpt lat="45.07182" lon="6.46256">
        <ele>2290</ele>
        <time>2021-02-28T10:34:19Z</time>
      </trkpt>
      <trkpt lat="45.07181" lon="6.46259">
        <ele>2290.2</ele>
        <time>2021-02-28T10:34:20Z</time>
      </trkpt>
      <trkpt lat="45.07181" lon="6.46259">
        <ele>2290.2</ele>
        <time>2021-02-28T10:34:21Z</time>
      </trkpt>
      <trkpt lat="45.0718" lon="6.46262">
        <ele>2290.2</ele>
        <time>2021-02-28T10:34:22Z</time>
      </trkpt>
      <trkpt lat="45.0718" lon="6.46262">
        <ele>2290.8</ele>
        <time>2021-02-28T10:34:23Z</time>
      </trkpt>
      <trkpt lat="45.07178" lon="6.46264">
        <ele>2290.8</ele>
        <time>2021-02-28T10:34:24Z</time>
      </trkpt>
      <trkpt lat="45.07178" lon="6.46264">
        <ele>2290.8</ele>
        <time>2021-02-28T10:34:25Z</time>
      </trkpt>
      <trkpt lat="45.07177" lon="6.46266">
        <ele>2291.4</ele>
        <time>2021-02-28T10:34:26Z</time>
      </trkpt>
      <trkpt lat="45.07177" lon="6.46266">
        <ele>2291.4</ele>
        <time>2021-02-28T10:34:27Z</time>
      </trkpt>
      <trkpt lat="45.07176" lon="6.46269">
        <ele>2291.6</ele>
        <time>2021-02-28T10:34:28Z</time>
      </trkpt>
      <trkpt lat="45.07176" lon="6.46269">
        <ele>2291.8</ele>
        <time>2021-02-28T10:34:29Z</time>
      </trkpt>
      <trkpt lat="45.07175" lon="6.46271">
        <ele>2292</ele>
        <time>2021-02-28T10:34:30Z</time>
      </trkpt>
      <trkpt lat="45.07175" lon="6.46271">
        <ele>2292.2</ele>
        <time>2021-02-28T10:34:31Z</time>
      </trkpt>
      <trkpt lat="45.07174" lon="6.46273">
        <ele>2292.4</ele>
        <time>2021-02-28T10:34:32Z</time>
      </trkpt>
      <trkpt lat="45.07174" lon="6.46273">
        <ele>2292.4</ele>
        <time>2021-02-28T10:34:33Z</time>
      </trkpt>
      <trkpt lat="45.07173" lon="6.46276">
        <ele>2292.4</ele>
        <time>2021-02-28T10:34:34Z</time>
      </trkpt>
      <trkpt lat="45.07173" lon="6.46276">
        <ele>2293</ele>
        <time>2021-02-28T10:34:35Z</time>
      </trkpt>
      <trkpt lat="45.07172" lon="6.46278">
        <ele>2293</ele>
        <time>2021-02-28T10:34:36Z</time>
      </trkpt>
      <trkpt lat="45.07172" lon="6.46278">
        <ele>2293</ele>
        <time>2021-02-28T10:34:37Z</time>
      </trkpt>
      <trkpt lat="45.07171" lon="6.46281">
        <ele>2293</ele>
        <time>2021-02-28T10:34:38Z</time>
      </trkpt>
      <trkpt lat="45.07171" lon="6.46281">
        <ele>2292.8</ele>
        <time>2021-02-28T10:34:39Z</time>
      </trkpt>
      <trkpt lat="45.0717" lon="6.46283">
        <ele>2293.2</ele>
        <time>2021-02-28T10:34:40Z</time>
      </trkpt>
      <trkpt lat="45.0717" lon="6.46283">
        <ele>2293.2</ele>
        <time>2021-02-28T10:34:41Z</time>
      </trkpt>
      <trkpt lat="45.0717" lon="6.46283">
        <ele>2293.6</ele>
        <time>2021-02-28T10:34:42Z</time>
      </trkpt>
      <trkpt lat="45.07169" lon="6.46286">
        <ele>2294.2</ele>
        <time>2021-02-28T10:34:43Z</time>
      </trkpt>
      <trkpt lat="45.07169" lon="6.46286">
        <ele>2294.6</ele>
        <time>2021-02-28T10:34:44Z</time>
      </trkpt>
      <trkpt lat="45.07168" lon="6.46289">
        <ele>2294.8</ele>
        <time>2021-02-28T10:34:45Z</time>
      </trkpt>
      <trkpt lat="45.07168" lon="6.46289">
        <ele>2295.2</ele>
        <time>2021-02-28T10:34:46Z</time>
      </trkpt>
      <trkpt lat="45.07168" lon="6.46289">
        <ele>2295.6</ele>
        <time>2021-02-28T10:34:47Z</time>
      </trkpt>
      <trkpt lat="45.07167" lon="6.46292">
        <ele>2295.8</ele>
        <time>2021-02-28T10:34:48Z</time>
      </trkpt>
      <trkpt lat="45.07167" lon="6.46292">
        <ele>2296</ele>
        <time>2021-02-28T10:34:49Z</time>
      </trkpt>
      <trkpt lat="45.07167" lon="6.46292">
        <ele>2296.2</ele>
        <time>2021-02-28T10:34:50Z</time>
      </trkpt>
      <trkpt lat="45.07166" lon="6.46294">
        <ele>2296.6</ele>
        <time>2021-02-28T10:34:51Z</time>
      </trkpt>
      <trkpt lat="45.07166" lon="6.46294">
        <ele>2297</ele>
        <time>2021-02-28T10:34:52Z</time>
      </trkpt>
      <trkpt lat="45.07166" lon="6.46297">
        <ele>2297.2</ele>
        <time>2021-02-28T10:34:53Z</time>
      </trkpt>
      <trkpt lat="45.07166" lon="6.46297">
        <ele>2297.6</ele>
        <time>2021-02-28T10:34:54Z</time>
      </trkpt>
      <trkpt lat="45.07166" lon="6.46297">
        <ele>2298</ele>
        <time>2021-02-28T10:34:55Z</time>
      </trkpt>
      <trkpt lat="45.07165" lon="6.463">
        <ele>2297.8</ele>
        <time>2021-02-28T10:34:56Z</time>
      </trkpt>
      <trkpt lat="45.07165" lon="6.463">
        <ele>2298</ele>
        <time>2021-02-28T10:34:57Z</time>
      </trkpt>
      <trkpt lat="45.07165" lon="6.463">
        <ele>2298.2</ele>
        <time>2021-02-28T10:34:58Z</time>
      </trkpt>
      <trkpt lat="45.07165" lon="6.46303">
        <ele>2299.2</ele>
        <time>2021-02-28T10:34:59Z</time>
      </trkpt>
      <trkpt lat="45.07165" lon="6.46303">
        <ele>2299.4</ele>
        <time>2021-02-28T10:35:00Z</time>
      </trkpt>
      <trkpt lat="45.07165" lon="6.46306">
        <ele>2299.4</ele>
        <time>2021-02-28T10:35:01Z</time>
      </trkpt>
      <trkpt lat="45.07165" lon="6.46306">
        <ele>2299.6</ele>
        <time>2021-02-28T10:35:02Z</time>
      </trkpt>
      <trkpt lat="45.07165" lon="6.46306">
        <ele>2300.2</ele>
        <time>2021-02-28T10:35:03Z</time>
      </trkpt>
      <trkpt lat="45.07163" lon="6.4631">
        <ele>2300.2</ele>
        <time>2021-02-28T10:35:04Z</time>
      </trkpt>
      <trkpt lat="45.07163" lon="6.4631">
        <ele>2300.2</ele>
        <time>2021-02-28T10:35:05Z</time>
      </trkpt>
      <trkpt lat="45.07163" lon="6.4631">
        <ele>2300.6</ele>
        <time>2021-02-28T10:35:06Z</time>
      </trkpt>
      <trkpt lat="45.07163" lon="6.46313">
        <ele>2301</ele>
        <time>2021-02-28T10:35:07Z</time>
      </trkpt>
      <trkpt lat="45.07163" lon="6.46313">
        <ele>2301.4</ele>
        <time>2021-02-28T10:35:08Z</time>
      </trkpt>
      <trkpt lat="45.07163" lon="6.46313">
        <ele>2301.6</ele>
        <time>2021-02-28T10:35:09Z</time>
      </trkpt>
      <trkpt lat="45.07162" lon="6.46316">
        <ele>2302.2</ele>
        <time>2021-02-28T10:35:10Z</time>
      </trkpt>
      <trkpt lat="45.07162" lon="6.46316">
        <ele>2302.2</ele>
        <time>2021-02-28T10:35:11Z</time>
      </trkpt>
      <trkpt lat="45.07162" lon="6.46316">
        <ele>2302.4</ele>
        <time>2021-02-28T10:35:12Z</time>
      </trkpt>
      <trkpt lat="45.07162" lon="6.46318">
        <ele>2302.8</ele>
        <time>2021-02-28T10:35:13Z</time>
      </trkpt>
      <trkpt lat="45.07162" lon="6.46318">
        <ele>2302.8</ele>
        <time>2021-02-28T10:35:14Z</time>
      </trkpt>
      <trkpt lat="45.07162" lon="6.46321">
        <ele>2303.2</ele>
        <time>2021-02-28T10:35:15Z</time>
      </trkpt>
      <trkpt lat="45.07162" lon="6.46321">
        <ele>2303.4</ele>
        <time>2021-02-28T10:35:16Z</time>
      </trkpt>
      <trkpt lat="45.07162" lon="6.46321">
        <ele>2303.6</ele>
        <time>2021-02-28T10:35:17Z</time>
      </trkpt>
      <trkpt lat="45.07161" lon="6.46324">
        <ele>2304</ele>
        <time>2021-02-28T10:35:18Z</time>
      </trkpt>
      <trkpt lat="45.07161" lon="6.46324">
        <ele>2304.8</ele>
        <time>2021-02-28T10:35:19Z</time>
      </trkpt>
      <trkpt lat="45.07161" lon="6.46324">
        <ele>2305</ele>
        <time>2021-02-28T10:35:20Z</time>
      </trkpt>
      <trkpt lat="45.07161" lon="6.46327">
        <ele>2305.4</ele>
        <time>2021-02-28T10:35:21Z</time>
      </trkpt>
      <trkpt lat="45.07161" lon="6.46327">
        <ele>2305.8</ele>
        <time>2021-02-28T10:35:22Z</time>
      </trkpt>
      <trkpt lat="45.07161" lon="6.46329">
        <ele>2306.2</ele>
        <time>2021-02-28T10:35:23Z</time>
      </trkpt>
      <trkpt lat="45.07161" lon="6.46329">
        <ele>2306.6</ele>
        <time>2021-02-28T10:35:24Z</time>
      </trkpt>
      <trkpt lat="45.07161" lon="6.46329">
        <ele>2306.8</ele>
        <time>2021-02-28T10:35:25Z</time>
      </trkpt>
      <trkpt lat="45.0716" lon="6.46333">
        <ele>2307</ele>
        <time>2021-02-28T10:35:26Z</time>
      </trkpt>
      <trkpt lat="45.0716" lon="6.46333">
        <ele>2307.2</ele>
        <time>2021-02-28T10:35:27Z</time>
      </trkpt>
      <trkpt lat="45.0716" lon="6.46333">
        <ele>2307.4</ele>
        <time>2021-02-28T10:35:28Z</time>
      </trkpt>
      <trkpt lat="45.0716" lon="6.46336">
        <ele>2307.6</ele>
        <time>2021-02-28T10:35:29Z</time>
      </trkpt>
      <trkpt lat="45.0716" lon="6.46336">
        <ele>2308</ele>
        <time>2021-02-28T10:35:30Z</time>
      </trkpt>
      <trkpt lat="45.0716" lon="6.46336">
        <ele>2308</ele>
        <time>2021-02-28T10:35:31Z</time>
      </trkpt>
      <trkpt lat="45.0716" lon="6.4634">
        <ele>2308.2</ele>
        <time>2021-02-28T10:35:32Z</time>
      </trkpt>
      <trkpt lat="45.0716" lon="6.4634">
        <ele>2308.4</ele>
        <time>2021-02-28T10:35:33Z</time>
      </trkpt>
      <trkpt lat="45.0716" lon="6.4634">
        <ele>2308.4</ele>
        <time>2021-02-28T10:35:34Z</time>
      </trkpt>
      <trkpt lat="45.07161" lon="6.46343">
        <ele>2308.6</ele>
        <time>2021-02-28T10:35:35Z</time>
      </trkpt>
      <trkpt lat="45.07161" lon="6.46343">
        <ele>2309.2</ele>
        <time>2021-02-28T10:35:36Z</time>
      </trkpt>
      <trkpt lat="45.07161" lon="6.46347">
        <ele>2309</ele>
        <time>2021-02-28T10:35:37Z</time>
      </trkpt>
      <trkpt lat="45.07161" lon="6.46347">
        <ele>2309.6</ele>
        <time>2021-02-28T10:35:38Z</time>
      </trkpt>
      <trkpt lat="45.07161" lon="6.46347">
        <ele>2310</ele>
        <time>2021-02-28T10:35:39Z</time>
      </trkpt>
      <trkpt lat="45.0716" lon="6.4635">
        <ele>2310.4</ele>
        <time>2021-02-28T10:35:40Z</time>
      </trkpt>
      <trkpt lat="45.0716" lon="6.4635">
        <ele>2310.8</ele>
        <time>2021-02-28T10:35:41Z</time>
      </trkpt>
      <trkpt lat="45.0716" lon="6.4635">
        <ele>2311.2</ele>
        <time>2021-02-28T10:35:42Z</time>
      </trkpt>
      <trkpt lat="45.07159" lon="6.46353">
        <ele>2311.4</ele>
        <time>2021-02-28T10:35:43Z</time>
      </trkpt>
      <trkpt lat="45.07159" lon="6.46353">
        <ele>2311.6</ele>
        <time>2021-02-28T10:35:44Z</time>
      </trkpt>
      <trkpt lat="45.07159" lon="6.46353">
        <ele>2312</ele>
        <time>2021-02-28T10:35:45Z</time>
      </trkpt>
      <trkpt lat="45.07159" lon="6.46356">
        <ele>2312.6</ele>
        <time>2021-02-28T10:35:46Z</time>
      </trkpt>
      <trkpt lat="45.07159" lon="6.46356">
        <ele>2312.6</ele>
        <time>2021-02-28T10:35:47Z</time>
      </trkpt>
      <trkpt lat="45.07159" lon="6.46356">
        <ele>2313</ele>
        <time>2021-02-28T10:35:48Z</time>
      </trkpt>
      <trkpt lat="45.07158" lon="6.46358">
        <ele>2313.8</ele>
        <time>2021-02-28T10:35:49Z</time>
      </trkpt>
      <trkpt lat="45.07158" lon="6.46358">
        <ele>2313.6</ele>
        <time>2021-02-28T10:35:50Z</time>
      </trkpt>
      <trkpt lat="45.07158" lon="6.46358">
        <ele>2314.4</ele>
        <time>2021-02-28T10:35:51Z</time>
      </trkpt>
      <trkpt lat="45.07158" lon="6.46358">
        <ele>2314.8</ele>
        <time>2021-02-28T10:35:52Z</time>
      </trkpt>
      <trkpt lat="45.07158" lon="6.46361">
        <ele>2315</ele>
        <time>2021-02-28T10:35:53Z</time>
      </trkpt>
      <trkpt lat="45.07158" lon="6.46361">
        <ele>2315.4</ele>
        <time>2021-02-28T10:35:54Z</time>
      </trkpt>
      <trkpt lat="45.07158" lon="6.46361">
        <ele>2315.8</ele>
        <time>2021-02-28T10:35:55Z</time>
      </trkpt>
      <trkpt lat="45.07159" lon="6.46364">
        <ele>2315.8</ele>
        <time>2021-02-28T10:35:56Z</time>
      </trkpt>
      <trkpt lat="45.07159" lon="6.46364">
        <ele>2316.2</ele>
        <time>2021-02-28T10:35:57Z</time>
      </trkpt>
      <trkpt lat="45.07159" lon="6.46364">
        <ele>2316.6</ele>
        <time>2021-02-28T10:35:58Z</time>
      </trkpt>
      <trkpt lat="45.07159" lon="6.46367">
        <ele>2316.6</ele>
        <time>2021-02-28T10:35:59Z</time>
      </trkpt>
      <trkpt lat="45.07159" lon="6.46367">
        <ele>2317</ele>
        <time>2021-02-28T10:36:00Z</time>
      </trkpt>
      <trkpt lat="45.07158" lon="6.4637">
        <ele>2317.4</ele>
        <time>2021-02-28T10:36:01Z</time>
      </trkpt>
      <trkpt lat="45.07158" lon="6.4637">
        <ele>2317.4</ele>
        <time>2021-02-28T10:36:02Z</time>
      </trkpt>
      <trkpt lat="45.07158" lon="6.4637">
        <ele>2318</ele>
        <time>2021-02-28T10:36:03Z</time>
      </trkpt>
      <trkpt lat="45.07157" lon="6.46373">
        <ele>2318</ele>
        <time>2021-02-28T10:36:04Z</time>
      </trkpt>
      <trkpt lat="45.07157" lon="6.46373">
        <ele>2318.2</ele>
        <time>2021-02-28T10:36:05Z</time>
      </trkpt>
      <trkpt lat="45.07157" lon="6.46373">
        <ele>2318.6</ele>
        <time>2021-02-28T10:36:06Z</time>
      </trkpt>
      <trkpt lat="45.07156" lon="6.46376">
        <ele>2319</ele>
        <time>2021-02-28T10:36:07Z</time>
      </trkpt>
      <trkpt lat="45.07156" lon="6.46376">
        <ele>2319.4</ele>
        <time>2021-02-28T10:36:08Z</time>
      </trkpt>
      <trkpt lat="45.07156" lon="6.46376">
        <ele>2319.6</ele>
        <time>2021-02-28T10:36:09Z</time>
      </trkpt>
      <trkpt lat="45.07154" lon="6.46379">
        <ele>2319.8</ele>
        <time>2021-02-28T10:36:10Z</time>
      </trkpt>
      <trkpt lat="45.07154" lon="6.46379">
        <ele>2320.2</ele>
        <time>2021-02-28T10:36:11Z</time>
      </trkpt>
      <trkpt lat="45.07153" lon="6.46381">
        <ele>2320</ele>
        <time>2021-02-28T10:36:12Z</time>
      </trkpt>
      <trkpt lat="45.07153" lon="6.46381">
        <ele>2320.6</ele>
        <time>2021-02-28T10:36:13Z</time>
      </trkpt>
      <trkpt lat="45.07153" lon="6.46381">
        <ele>2320.4</ele>
        <time>2021-02-28T10:36:14Z</time>
      </trkpt>
      <trkpt lat="45.07151" lon="6.46383">
        <ele>2320.8</ele>
        <time>2021-02-28T10:36:15Z</time>
      </trkpt>
      <trkpt lat="45.07151" lon="6.46383">
        <ele>2321.2</ele>
        <time>2021-02-28T10:36:16Z</time>
      </trkpt>
      <trkpt lat="45.07151" lon="6.46383">
        <ele>2321.6</ele>
        <time>2021-02-28T10:36:17Z</time>
      </trkpt>
      <trkpt lat="45.07149" lon="6.46384">
        <ele>2321.6</ele>
        <time>2021-02-28T10:36:18Z</time>
      </trkpt>
      <trkpt lat="45.07149" lon="6.46384">
        <ele>2322.2</ele>
        <time>2021-02-28T10:36:19Z</time>
      </trkpt>
      <trkpt lat="45.07149" lon="6.46384">
        <ele>2322.8</ele>
        <time>2021-02-28T10:36:20Z</time>
      </trkpt>
      <trkpt lat="45.07147" lon="6.46385">
        <ele>2322.6</ele>
        <time>2021-02-28T10:36:21Z</time>
      </trkpt>
      <trkpt lat="45.07147" lon="6.46385">
        <ele>2323</ele>
        <time>2021-02-28T10:36:22Z</time>
      </trkpt>
      <trkpt lat="45.07145" lon="6.46387">
        <ele>2323.4</ele>
        <time>2021-02-28T10:36:23Z</time>
      </trkpt>
      <trkpt lat="45.07145" lon="6.46387">
        <ele>2324</ele>
        <time>2021-02-28T10:36:24Z</time>
      </trkpt>
      <trkpt lat="45.07144" lon="6.46389">
        <ele>2324</ele>
        <time>2021-02-28T10:36:25Z</time>
      </trkpt>
      <trkpt lat="45.07144" lon="6.46389">
        <ele>2324.4</ele>
        <time>2021-02-28T10:36:26Z</time>
      </trkpt>
      <trkpt lat="45.07142" lon="6.4639">
        <ele>2324.4</ele>
        <time>2021-02-28T10:36:27Z</time>
      </trkpt>
      <trkpt lat="45.07142" lon="6.4639">
        <ele>2324.8</ele>
        <time>2021-02-28T10:36:28Z</time>
      </trkpt>
      <trkpt lat="45.0714" lon="6.46392">
        <ele>2325.2</ele>
        <time>2021-02-28T10:36:29Z</time>
      </trkpt>
      <trkpt lat="45.0714" lon="6.46392">
        <ele>2325.4</ele>
        <time>2021-02-28T10:36:30Z</time>
      </trkpt>
      <trkpt lat="45.07139" lon="6.46394">
        <ele>2325.8</ele>
        <time>2021-02-28T10:36:31Z</time>
      </trkpt>
      <trkpt lat="45.07139" lon="6.46394">
        <ele>2326.2</ele>
        <time>2021-02-28T10:36:32Z</time>
      </trkpt>
      <trkpt lat="45.07137" lon="6.46395">
        <ele>2326.2</ele>
        <time>2021-02-28T10:36:33Z</time>
      </trkpt>
      <trkpt lat="45.07137" lon="6.46395">
        <ele>2326.2</ele>
        <time>2021-02-28T10:36:34Z</time>
      </trkpt>
      <trkpt lat="45.07136" lon="6.46397">
        <ele>2326.4</ele>
        <time>2021-02-28T10:36:35Z</time>
      </trkpt>
      <trkpt lat="45.07136" lon="6.46397">
        <ele>2326.8</ele>
        <time>2021-02-28T10:36:36Z</time>
      </trkpt>
      <trkpt lat="45.07134" lon="6.46399">
        <ele>2326.8</ele>
        <time>2021-02-28T10:36:37Z</time>
      </trkpt>
      <trkpt lat="45.07134" lon="6.46399">
        <ele>2327</ele>
        <time>2021-02-28T10:36:38Z</time>
      </trkpt>
      <trkpt lat="45.07134" lon="6.46399">
        <ele>2327</ele>
        <time>2021-02-28T10:36:39Z</time>
      </trkpt>
      <trkpt lat="45.07132" lon="6.464">
        <ele>2327.2</ele>
        <time>2021-02-28T10:36:40Z</time>
      </trkpt>
      <trkpt lat="45.07132" lon="6.464">
        <ele>2327</ele>
        <time>2021-02-28T10:36:41Z</time>
      </trkpt>
      <trkpt lat="45.0713" lon="6.46402">
        <ele>2327.6</ele>
        <time>2021-02-28T10:36:42Z</time>
      </trkpt>
      <trkpt lat="45.0713" lon="6.46402">
        <ele>2328.4</ele>
        <time>2021-02-28T10:36:43Z</time>
      </trkpt>
      <trkpt lat="45.07128" lon="6.46403">
        <ele>2328.4</ele>
        <time>2021-02-28T10:36:44Z</time>
      </trkpt>
      <trkpt lat="45.07128" lon="6.46403">
        <ele>2328.4</ele>
        <time>2021-02-28T10:36:45Z</time>
      </trkpt>
      <trkpt lat="45.07126" lon="6.46405">
        <ele>2328.4</ele>
        <time>2021-02-28T10:36:46Z</time>
      </trkpt>
      <trkpt lat="45.07126" lon="6.46405">
        <ele>2328.8</ele>
        <time>2021-02-28T10:36:47Z</time>
      </trkpt>
      <trkpt lat="45.07123" lon="6.46406">
        <ele>2328.6</ele>
        <time>2021-02-28T10:36:48Z</time>
      </trkpt>
      <trkpt lat="45.07123" lon="6.46406">
        <ele>2328.6</ele>
        <time>2021-02-28T10:36:49Z</time>
      </trkpt>
      <trkpt lat="45.07121" lon="6.46407">
        <ele>2328.8</ele>
        <time>2021-02-28T10:36:50Z</time>
      </trkpt>
      <trkpt lat="45.07121" lon="6.46407">
        <ele>2328.6</ele>
        <time>2021-02-28T10:36:51Z</time>
      </trkpt>
      <trkpt lat="45.07118" lon="6.46409">
        <ele>2328.6</ele>
        <time>2021-02-28T10:36:52Z</time>
      </trkpt>
      <trkpt lat="45.07118" lon="6.46409">
        <ele>2328.6</ele>
        <time>2021-02-28T10:36:53Z</time>
      </trkpt>
      <trkpt lat="45.07117" lon="6.46411">
        <ele>2328.8</ele>
        <time>2021-02-28T10:36:54Z</time>
      </trkpt>
      <trkpt lat="45.07117" lon="6.46411">
        <ele>2329.4</ele>
        <time>2021-02-28T10:36:55Z</time>
      </trkpt>
      <trkpt lat="45.07115" lon="6.46414">
        <ele>2329.4</ele>
        <time>2021-02-28T10:36:56Z</time>
      </trkpt>
      <trkpt lat="45.07115" lon="6.46414">
        <ele>2329.4</ele>
        <time>2021-02-28T10:36:57Z</time>
      </trkpt>
      <trkpt lat="45.07113" lon="6.46417">
        <ele>2329.4</ele>
        <time>2021-02-28T10:36:58Z</time>
      </trkpt>
      <trkpt lat="45.07113" lon="6.46417">
        <ele>2330</ele>
        <time>2021-02-28T10:36:59Z</time>
      </trkpt>
      <trkpt lat="45.07111" lon="6.4642">
        <ele>2330</ele>
        <time>2021-02-28T10:37:00Z</time>
      </trkpt>
      <trkpt lat="45.07111" lon="6.4642">
        <ele>2330.2</ele>
        <time>2021-02-28T10:37:01Z</time>
      </trkpt>
      <trkpt lat="45.07109" lon="6.46422">
        <ele>2330.4</ele>
        <time>2021-02-28T10:37:02Z</time>
      </trkpt>
      <trkpt lat="45.07109" lon="6.46422">
        <ele>2330.4</ele>
        <time>2021-02-28T10:37:03Z</time>
      </trkpt>
      <trkpt lat="45.07106" lon="6.46425">
        <ele>2330.6</ele>
        <time>2021-02-28T10:37:04Z</time>
      </trkpt>
      <trkpt lat="45.07106" lon="6.46425">
        <ele>2331</ele>
        <time>2021-02-28T10:37:05Z</time>
      </trkpt>
      <trkpt lat="45.07104" lon="6.46429">
        <ele>2331.2</ele>
        <time>2021-02-28T10:37:06Z</time>
      </trkpt>
      <trkpt lat="45.07103" lon="6.46431">
        <ele>2331</ele>
        <time>2021-02-28T10:37:07Z</time>
      </trkpt>
      <trkpt lat="45.07102" lon="6.46433">
        <ele>2331.4</ele>
        <time>2021-02-28T10:37:08Z</time>
      </trkpt>
      <trkpt lat="45.07102" lon="6.46433">
        <ele>2331</ele>
        <time>2021-02-28T10:37:09Z</time>
      </trkpt>
      <trkpt lat="45.07101" lon="6.46437">
        <ele>2332</ele>
        <time>2021-02-28T10:37:10Z</time>
      </trkpt>
      <trkpt lat="45.07101" lon="6.46437">
        <ele>2332.6</ele>
        <time>2021-02-28T10:37:11Z</time>
      </trkpt>
      <trkpt lat="45.071" lon="6.46441">
        <ele>2332.6</ele>
        <time>2021-02-28T10:37:12Z</time>
      </trkpt>
      <trkpt lat="45.071" lon="6.46441">
        <ele>2332.4</ele>
        <time>2021-02-28T10:37:13Z</time>
      </trkpt>
      <trkpt lat="45.07099" lon="6.46444">
        <ele>2332.6</ele>
        <time>2021-02-28T10:37:14Z</time>
      </trkpt>
      <trkpt lat="45.07099" lon="6.46444">
        <ele>2332.6</ele>
        <time>2021-02-28T10:37:15Z</time>
      </trkpt>
      <trkpt lat="45.07098" lon="6.46447">
        <ele>2332.4</ele>
        <time>2021-02-28T10:37:16Z</time>
      </trkpt>
      <trkpt lat="45.07098" lon="6.46447">
        <ele>2332.8</ele>
        <time>2021-02-28T10:37:17Z</time>
      </trkpt>
      <trkpt lat="45.07097" lon="6.46449">
        <ele>2332.2</ele>
        <time>2021-02-28T10:37:18Z</time>
      </trkpt>
      <trkpt lat="45.07097" lon="6.46449">
        <ele>2332.4</ele>
        <time>2021-02-28T10:37:19Z</time>
      </trkpt>
      <trkpt lat="45.07096" lon="6.46451">
        <ele>2332.2</ele>
        <time>2021-02-28T10:37:20Z</time>
      </trkpt>
      <trkpt lat="45.07096" lon="6.46451">
        <ele>2332</ele>
        <time>2021-02-28T10:37:21Z</time>
      </trkpt>
      <trkpt lat="45.07095" lon="6.46454">
        <ele>2332</ele>
        <time>2021-02-28T10:37:22Z</time>
      </trkpt>
      <trkpt lat="45.07095" lon="6.46454">
        <ele>2331.8</ele>
        <time>2021-02-28T10:37:23Z</time>
      </trkpt>
      <trkpt lat="45.07095" lon="6.46457">
        <ele>2332.2</ele>
        <time>2021-02-28T10:37:24Z</time>
      </trkpt>
      <trkpt lat="45.07095" lon="6.46457">
        <ele>2332.6</ele>
        <time>2021-02-28T10:37:25Z</time>
      </trkpt>
      <trkpt lat="45.07094" lon="6.4646">
        <ele>2332.4</ele>
        <time>2021-02-28T10:37:26Z</time>
      </trkpt>
      <trkpt lat="45.07094" lon="6.4646">
        <ele>2332.6</ele>
        <time>2021-02-28T10:37:27Z</time>
      </trkpt>
      <trkpt lat="45.07093" lon="6.46463">
        <ele>2332.8</ele>
        <time>2021-02-28T10:37:28Z</time>
      </trkpt>
      <trkpt lat="45.07093" lon="6.46463">
        <ele>2332.6</ele>
        <time>2021-02-28T10:37:29Z</time>
      </trkpt>
      <trkpt lat="45.07092" lon="6.46466">
        <ele>2332.6</ele>
        <time>2021-02-28T10:37:30Z</time>
      </trkpt>
      <trkpt lat="45.07092" lon="6.46466">
        <ele>2333</ele>
        <time>2021-02-28T10:37:31Z</time>
      </trkpt>
      <trkpt lat="45.07091" lon="6.46468">
        <ele>2332.8</ele>
        <time>2021-02-28T10:37:32Z</time>
      </trkpt>
      <trkpt lat="45.07091" lon="6.46468">
        <ele>2333</ele>
        <time>2021-02-28T10:37:33Z</time>
      </trkpt>
      <trkpt lat="45.07091" lon="6.46468">
        <ele>2333</ele>
        <time>2021-02-28T10:37:34Z</time>
      </trkpt>
      <trkpt lat="45.0709" lon="6.46471">
        <ele>2333.4</ele>
        <time>2021-02-28T10:37:35Z</time>
      </trkpt>
      <trkpt lat="45.0709" lon="6.46471">
        <ele>2333.4</ele>
        <time>2021-02-28T10:37:36Z</time>
      </trkpt>
      <trkpt lat="45.0709" lon="6.46471">
        <ele>2333.4</ele>
        <time>2021-02-28T10:37:37Z</time>
      </trkpt>
      <trkpt lat="45.07089" lon="6.46474">
        <ele>2333.6</ele>
        <time>2021-02-28T10:37:38Z</time>
      </trkpt>
      <trkpt lat="45.07089" lon="6.46474">
        <ele>2333.6</ele>
        <time>2021-02-28T10:37:39Z</time>
      </trkpt>
      <trkpt lat="45.07089" lon="6.46474">
        <ele>2333.8</ele>
        <time>2021-02-28T10:37:40Z</time>
      </trkpt>
      <trkpt lat="45.07089" lon="6.46474">
        <ele>2333.8</ele>
        <time>2021-02-28T10:37:41Z</time>
      </trkpt>
      <trkpt lat="45.07089" lon="6.46474">
        <ele>2333.4</ele>
        <time>2021-02-28T10:37:42Z</time>
      </trkpt>
      <trkpt lat="45.07089" lon="6.46474">
        <ele>2333.4</ele>
        <time>2021-02-28T10:37:43Z</time>
      </trkpt>
      <trkpt lat="45.07089" lon="6.46474">
        <ele>2333.4</ele>
        <time>2021-02-28T10:37:44Z</time>
      </trkpt>
      <trkpt lat="45.07089" lon="6.46474">
        <ele>2333.4</ele>
        <time>2021-02-28T10:37:45Z</time>
      </trkpt>
      <trkpt lat="45.07089" lon="6.46474">
        <ele>2333.4</ele>
        <time>2021-02-28T10:37:46Z</time>
      </trkpt>
      <trkpt lat="45.07089" lon="6.46474">
        <ele>2333.6</ele>
        <time>2021-02-28T10:37:47Z</time>
      </trkpt>
      <trkpt lat="45.07089" lon="6.46474">
        <ele>2333.6</ele>
        <time>2021-02-28T10:37:48Z</time>
      </trkpt>
      <trkpt lat="45.07089" lon="6.46474">
        <ele>2333.4</ele>
        <time>2021-02-28T10:37:49Z</time>
      </trkpt>
      <trkpt lat="45.07089" lon="6.46474">
        <ele>2333.4</ele>
        <time>2021-02-28T10:37:50Z</time>
      </trkpt>
      <trkpt lat="45.07089" lon="6.46474">
        <ele>2333.6</ele>
        <time>2021-02-28T10:37:51Z</time>
      </trkpt>
      <trkpt lat="45.07089" lon="6.46474">
        <ele>2333.8</ele>
        <time>2021-02-28T10:37:52Z</time>
      </trkpt>
      <trkpt lat="45.07089" lon="6.46474">
        <ele>2333.8</ele>
        <time>2021-02-28T10:37:53Z</time>
      </trkpt>
      <trkpt lat="45.07088" lon="6.46476">
        <ele>2333.6</ele>
        <time>2021-02-28T10:37:54Z</time>
      </trkpt>
      <trkpt lat="45.07088" lon="6.46476">
        <ele>2333.8</ele>
        <time>2021-02-28T10:37:55Z</time>
      </trkpt>
      <trkpt lat="45.07088" lon="6.46476">
        <ele>2334</ele>
        <time>2021-02-28T10:37:56Z</time>
      </trkpt>
      <trkpt lat="45.07088" lon="6.46476">
        <ele>2334.2</ele>
        <time>2021-02-28T10:37:57Z</time>
      </trkpt>
      <trkpt lat="45.07088" lon="6.46476">
        <ele>2334.4</ele>
        <time>2021-02-28T10:37:58Z</time>
      </trkpt>
      <trkpt lat="45.07088" lon="6.46476">
        <ele>2334.4</ele>
        <time>2021-02-28T10:37:59Z</time>
      </trkpt>
      <trkpt lat="45.07088" lon="6.46476">
        <ele>2334.6</ele>
        <time>2021-02-28T10:38:00Z</time>
      </trkpt>
      <trkpt lat="45.07088" lon="6.46476">
        <ele>2334.6</ele>
        <time>2021-02-28T10:38:01Z</time>
      </trkpt>
      <trkpt lat="45.07088" lon="6.46476">
        <ele>2334.4</ele>
        <time>2021-02-28T10:38:02Z</time>
      </trkpt>
      <trkpt lat="45.07088" lon="6.46476">
        <ele>2334.4</ele>
        <time>2021-02-28T10:38:03Z</time>
      </trkpt>
      <trkpt lat="45.07088" lon="6.46476">
        <ele>2334.6</ele>
        <time>2021-02-28T10:38:04Z</time>
      </trkpt>
      <trkpt lat="45.07088" lon="6.46476">
        <ele>2334.4</ele>
        <time>2021-02-28T10:38:05Z</time>
      </trkpt>
      <trkpt lat="45.07088" lon="6.46476">
        <ele>2334.6</ele>
        <time>2021-02-28T10:38:06Z</time>
      </trkpt>
      <trkpt lat="45.07088" lon="6.46476">
        <ele>2335.2</ele>
        <time>2021-02-28T10:38:07Z</time>
      </trkpt>
      <trkpt lat="45.07088" lon="6.46476">
        <ele>2335.4</ele>
        <time>2021-02-28T10:38:08Z</time>
      </trkpt>
      <trkpt lat="45.07088" lon="6.46476">
        <ele>2335.4</ele>
        <time>2021-02-28T10:38:09Z</time>
      </trkpt>
      <trkpt lat="45.07088" lon="6.46476">
        <ele>2335.6</ele>
        <time>2021-02-28T10:38:10Z</time>
      </trkpt>
      <trkpt lat="45.07088" lon="6.46476">
        <ele>2335.6</ele>
        <time>2021-02-28T10:38:11Z</time>
      </trkpt>
      <trkpt lat="45.07088" lon="6.46476">
        <ele>2335.4</ele>
        <time>2021-02-28T10:38:12Z</time>
      </trkpt>
      <trkpt lat="45.07088" lon="6.46476">
        <ele>2335.2</ele>
        <time>2021-02-28T10:38:13Z</time>
      </trkpt>
      <trkpt lat="45.07088" lon="6.46476">
        <ele>2334.8</ele>
        <time>2021-02-28T10:38:14Z</time>
      </trkpt>
      <trkpt lat="45.07089" lon="6.46478">
        <ele>2335</ele>
        <time>2021-02-28T10:38:15Z</time>
      </trkpt>
      <trkpt lat="45.07089" lon="6.46478">
        <ele>2335.2</ele>
        <time>2021-02-28T10:38:16Z</time>
      </trkpt>
      <trkpt lat="45.07089" lon="6.46478">
        <ele>2335</ele>
        <time>2021-02-28T10:38:17Z</time>
      </trkpt>
      <trkpt lat="45.07089" lon="6.46481">
        <ele>2335</ele>
        <time>2021-02-28T10:38:18Z</time>
      </trkpt>
      <trkpt lat="45.07089" lon="6.46481">
        <ele>2334.6</ele>
        <time>2021-02-28T10:38:19Z</time>
      </trkpt>
      <trkpt lat="45.07089" lon="6.46481">
        <ele>2334.2</ele>
        <time>2021-02-28T10:38:20Z</time>
      </trkpt>
      <trkpt lat="45.07087" lon="6.46482">
        <ele>2334.2</ele>
        <time>2021-02-28T10:38:21Z</time>
      </trkpt>
      <trkpt lat="45.07087" lon="6.46482">
        <ele>2334.2</ele>
        <time>2021-02-28T10:38:22Z</time>
      </trkpt>
      <trkpt lat="45.07087" lon="6.46482">
        <ele>2334.2</ele>
        <time>2021-02-28T10:38:23Z</time>
      </trkpt>
      <trkpt lat="45.07087" lon="6.46482">
        <ele>2333.8</ele>
        <time>2021-02-28T10:38:24Z</time>
      </trkpt>
      <trkpt lat="45.07087" lon="6.46482">
        <ele>2333.6</ele>
        <time>2021-02-28T10:38:25Z</time>
      </trkpt>
      <trkpt lat="45.07087" lon="6.46482">
        <ele>2334</ele>
        <time>2021-02-28T10:38:26Z</time>
      </trkpt>
      <trkpt lat="45.07087" lon="6.46482">
        <ele>2333.8</ele>
        <time>2021-02-28T10:38:27Z</time>
      </trkpt>
      <trkpt lat="45.07087" lon="6.46482">
        <ele>2333.8</ele>
        <time>2021-02-28T10:38:28Z</time>
      </trkpt>
      <trkpt lat="45.07087" lon="6.46482">
        <ele>2333.6</ele>
        <time>2021-02-28T10:38:29Z</time>
      </trkpt>
      <trkpt lat="45.07087" lon="6.46482">
        <ele>2333.6</ele>
        <time>2021-02-28T10:38:30Z</time>
      </trkpt>
      <trkpt lat="45.07087" lon="6.46482">
        <ele>2333.8</ele>
        <time>2021-02-28T10:38:31Z</time>
      </trkpt>
      <trkpt lat="45.07087" lon="6.46482">
        <ele>2333.6</ele>
        <time>2021-02-28T10:38:32Z</time>
      </trkpt>
      <trkpt lat="45.07087" lon="6.46482">
        <ele>2333.2</ele>
        <time>2021-02-28T10:38:33Z</time>
      </trkpt>
      <trkpt lat="45.07087" lon="6.46482">
        <ele>2333</ele>
        <time>2021-02-28T10:38:34Z</time>
      </trkpt>
      <trkpt lat="45.07087" lon="6.46482">
        <ele>2332.8</ele>
        <time>2021-02-28T10:38:35Z</time>
      </trkpt>
      <trkpt lat="45.07087" lon="6.46482">
        <ele>2333</ele>
        <time>2021-02-28T10:38:36Z</time>
      </trkpt>
      <trkpt lat="45.07087" lon="6.46482">
        <ele>2333.2</ele>
        <time>2021-02-28T10:38:37Z</time>
      </trkpt>
      <trkpt lat="45.07087" lon="6.46482">
        <ele>2333.4</ele>
        <time>2021-02-28T10:38:38Z</time>
      </trkpt>
      <trkpt lat="45.07087" lon="6.46482">
        <ele>2333.4</ele>
        <time>2021-02-28T10:38:39Z</time>
      </trkpt>
      <trkpt lat="45.07087" lon="6.46482">
        <ele>2333.2</ele>
        <time>2021-02-28T10:38:40Z</time>
      </trkpt>
      <trkpt lat="45.07087" lon="6.46482">
        <ele>2333.2</ele>
        <time>2021-02-28T10:38:41Z</time>
      </trkpt>
      <trkpt lat="45.07087" lon="6.46482">
        <ele>2333</ele>
        <time>2021-02-28T10:38:42Z</time>
      </trkpt>
      <trkpt lat="45.07087" lon="6.46482">
        <ele>2332.8</ele>
        <time>2021-02-28T10:38:43Z</time>
      </trkpt>
      <trkpt lat="45.07087" lon="6.46482">
        <ele>2333</ele>
        <time>2021-02-28T10:38:44Z</time>
      </trkpt>
      <trkpt lat="45.07087" lon="6.46482">
        <ele>2333.2</ele>
        <time>2021-02-28T10:38:45Z</time>
      </trkpt>
      <trkpt lat="45.07087" lon="6.46482">
        <ele>2333.4</ele>
        <time>2021-02-28T10:38:46Z</time>
      </trkpt>
      <trkpt lat="45.07087" lon="6.46482">
        <ele>2333</ele>
        <time>2021-02-28T10:38:47Z</time>
      </trkpt>
      <trkpt lat="45.07087" lon="6.46482">
        <ele>2333</ele>
        <time>2021-02-28T10:38:48Z</time>
      </trkpt>
      <trkpt lat="45.07087" lon="6.46482">
        <ele>2332.8</ele>
        <time>2021-02-28T10:38:49Z</time>
      </trkpt>
      <trkpt lat="45.07087" lon="6.46482">
        <ele>2332.8</ele>
        <time>2021-02-28T10:38:50Z</time>
      </trkpt>
      <trkpt lat="45.07087" lon="6.46482">
        <ele>2332.8</ele>
        <time>2021-02-28T10:38:51Z</time>
      </trkpt>
      <trkpt lat="45.07087" lon="6.46482">
        <ele>2332.8</ele>
        <time>2021-02-28T10:38:52Z</time>
      </trkpt>
      <trkpt lat="45.07087" lon="6.46482">
        <ele>2332.6</ele>
        <time>2021-02-28T10:38:53Z</time>
      </trkpt>
      <trkpt lat="45.07087" lon="6.46482">
        <ele>2332.8</ele>
        <time>2021-02-28T10:38:54Z</time>
      </trkpt>
      <trkpt lat="45.07087" lon="6.46482">
        <ele>2332.6</ele>
        <time>2021-02-28T10:38:55Z</time>
      </trkpt>
      <trkpt lat="45.07087" lon="6.46482">
        <ele>2332.6</ele>
        <time>2021-02-28T10:38:56Z</time>
      </trkpt>
      <trkpt lat="45.07087" lon="6.46482">
        <ele>2332.8</ele>
        <time>2021-02-28T10:38:57Z</time>
      </trkpt>
      <trkpt lat="45.07087" lon="6.46482">
        <ele>2333.2</ele>
        <time>2021-02-28T10:38:58Z</time>
      </trkpt>
      <trkpt lat="45.07087" lon="6.46482">
        <ele>2333</ele>
        <time>2021-02-28T10:38:59Z</time>
      </trkpt>
      <trkpt lat="45.07087" lon="6.46482">
        <ele>2333.2</ele>
        <time>2021-02-28T10:39:00Z</time>
      </trkpt>
      <trkpt lat="45.07087" lon="6.46482">
        <ele>2332.8</ele>
        <time>2021-02-28T10:39:01Z</time>
      </trkpt>
      <trkpt lat="45.07087" lon="6.46482">
        <ele>2333</ele>
        <time>2021-02-28T10:39:02Z</time>
      </trkpt>
      <trkpt lat="45.07087" lon="6.46482">
        <ele>2333</ele>
        <time>2021-02-28T10:39:03Z</time>
      </trkpt>
      <trkpt lat="45.07087" lon="6.46482">
        <ele>2333</ele>
        <time>2021-02-28T10:39:04Z</time>
      </trkpt>
      <trkpt lat="45.07087" lon="6.46482">
        <ele>2333</ele>
        <time>2021-02-28T10:39:05Z</time>
      </trkpt>
      <trkpt lat="45.07087" lon="6.46482">
        <ele>2332.6</ele>
        <time>2021-02-28T10:39:06Z</time>
      </trkpt>
      <trkpt lat="45.07087" lon="6.46482">
        <ele>2333</ele>
        <time>2021-02-28T10:39:07Z</time>
      </trkpt>
      <trkpt lat="45.07087" lon="6.46482">
        <ele>2333.2</ele>
        <time>2021-02-28T10:39:08Z</time>
      </trkpt>
      <trkpt lat="45.07087" lon="6.46482">
        <ele>2333.6</ele>
        <time>2021-02-28T10:39:09Z</time>
      </trkpt>
      <trkpt lat="45.07087" lon="6.46482">
        <ele>2333.8</ele>
        <time>2021-02-28T10:39:10Z</time>
      </trkpt>
      <trkpt lat="45.07087" lon="6.46482">
        <ele>2334</ele>
        <time>2021-02-28T10:39:11Z</time>
      </trkpt>
      <trkpt lat="45.07087" lon="6.46482">
        <ele>2334</ele>
        <time>2021-02-28T10:39:12Z</time>
      </trkpt>
      <trkpt lat="45.07087" lon="6.46482">
        <ele>2334</ele>
        <time>2021-02-28T10:39:13Z</time>
      </trkpt>
      <trkpt lat="45.07087" lon="6.46482">
        <ele>2334.2</ele>
        <time>2021-02-28T10:39:14Z</time>
      </trkpt>
      <trkpt lat="45.07087" lon="6.46482">
        <ele>2334.2</ele>
        <time>2021-02-28T10:39:15Z</time>
      </trkpt>
      <trkpt lat="45.07087" lon="6.46482">
        <ele>2334</ele>
        <time>2021-02-28T10:39:16Z</time>
      </trkpt>
      <trkpt lat="45.07087" lon="6.46482">
        <ele>2334</ele>
        <time>2021-02-28T10:39:17Z</time>
      </trkpt>
      <trkpt lat="45.07087" lon="6.46482">
        <ele>2334.2</ele>
        <time>2021-02-28T10:39:18Z</time>
      </trkpt>
      <trkpt lat="45.07087" lon="6.46482">
        <ele>2334.2</ele>
        <time>2021-02-28T10:39:19Z</time>
      </trkpt>
      <trkpt lat="45.07087" lon="6.46482">
        <ele>2334</ele>
        <time>2021-02-28T10:39:20Z</time>
      </trkpt>
      <trkpt lat="45.07087" lon="6.46482">
        <ele>2334</ele>
        <time>2021-02-28T10:39:21Z</time>
      </trkpt>
      <trkpt lat="45.07087" lon="6.46482">
        <ele>2334</ele>
        <time>2021-02-28T10:39:22Z</time>
      </trkpt>
      <trkpt lat="45.07087" lon="6.46482">
        <ele>2333.8</ele>
        <time>2021-02-28T10:39:23Z</time>
      </trkpt>
      <trkpt lat="45.07087" lon="6.46482">
        <ele>2333.6</ele>
        <time>2021-02-28T10:39:24Z</time>
      </trkpt>
      <trkpt lat="45.07087" lon="6.46482">
        <ele>2333.6</ele>
        <time>2021-02-28T10:39:25Z</time>
      </trkpt>
      <trkpt lat="45.07087" lon="6.46482">
        <ele>2333.4</ele>
        <time>2021-02-28T10:39:26Z</time>
      </trkpt>
      <trkpt lat="45.07087" lon="6.46482">
        <ele>2333.4</ele>
        <time>2021-02-28T10:39:27Z</time>
      </trkpt>
      <trkpt lat="45.07087" lon="6.46482">
        <ele>2333.6</ele>
        <time>2021-02-28T10:39:28Z</time>
      </trkpt>
      <trkpt lat="45.07087" lon="6.46482">
        <ele>2333.4</ele>
        <time>2021-02-28T10:39:29Z</time>
      </trkpt>
      <trkpt lat="45.07087" lon="6.46482">
        <ele>2333.4</ele>
        <time>2021-02-28T10:39:30Z</time>
      </trkpt>
      <trkpt lat="45.07087" lon="6.46482">
        <ele>2333.6</ele>
        <time>2021-02-28T10:39:31Z</time>
      </trkpt>
      <trkpt lat="45.07087" lon="6.46482">
        <ele>2333.6</ele>
        <time>2021-02-28T10:39:32Z</time>
      </trkpt>
      <trkpt lat="45.07087" lon="6.46482">
        <ele>2333.6</ele>
        <time>2021-02-28T10:39:33Z</time>
      </trkpt>
      <trkpt lat="45.07087" lon="6.46482">
        <ele>2333.4</ele>
        <time>2021-02-28T10:39:34Z</time>
      </trkpt>
      <trkpt lat="45.07087" lon="6.46482">
        <ele>2333.4</ele>
        <time>2021-02-28T10:39:35Z</time>
      </trkpt>
      <trkpt lat="45.07087" lon="6.46482">
        <ele>2333.4</ele>
        <time>2021-02-28T10:39:36Z</time>
      </trkpt>
      <trkpt lat="45.07087" lon="6.46482">
        <ele>2333</ele>
        <time>2021-02-28T10:39:37Z</time>
      </trkpt>
      <trkpt lat="45.07087" lon="6.46482">
        <ele>2333</ele>
        <time>2021-02-28T10:39:38Z</time>
      </trkpt>
      <trkpt lat="45.07087" lon="6.46482">
        <ele>2333</ele>
        <time>2021-02-28T10:39:39Z</time>
      </trkpt>
      <trkpt lat="45.07087" lon="6.46482">
        <ele>2333.2</ele>
        <time>2021-02-28T10:39:40Z</time>
      </trkpt>
      <trkpt lat="45.07087" lon="6.46482">
        <ele>2333.2</ele>
        <time>2021-02-28T10:39:41Z</time>
      </trkpt>
      <trkpt lat="45.07087" lon="6.46482">
        <ele>2333.4</ele>
        <time>2021-02-28T10:39:42Z</time>
      </trkpt>
      <trkpt lat="45.07087" lon="6.46482">
        <ele>2333.2</ele>
        <time>2021-02-28T10:39:43Z</time>
      </trkpt>
      <trkpt lat="45.07087" lon="6.46482">
        <ele>2333</ele>
        <time>2021-02-28T10:39:44Z</time>
      </trkpt>
      <trkpt lat="45.07087" lon="6.46482">
        <ele>2333.2</ele>
        <time>2021-02-28T10:39:45Z</time>
      </trkpt>
      <trkpt lat="45.07087" lon="6.46482">
        <ele>2333</ele>
        <time>2021-02-28T10:39:46Z</time>
      </trkpt>
      <trkpt lat="45.07087" lon="6.46482">
        <ele>2333</ele>
        <time>2021-02-28T10:39:47Z</time>
      </trkpt>
      <trkpt lat="45.07087" lon="6.46482">
        <ele>2332.8</ele>
        <time>2021-02-28T10:39:48Z</time>
      </trkpt>
      <trkpt lat="45.07087" lon="6.46482">
        <ele>2332.6</ele>
        <time>2021-02-28T10:39:49Z</time>
      </trkpt>
      <trkpt lat="45.07087" lon="6.46482">
        <ele>2332.8</ele>
        <time>2021-02-28T10:39:50Z</time>
      </trkpt>
      <trkpt lat="45.07087" lon="6.46482">
        <ele>2332.8</ele>
        <time>2021-02-28T10:39:51Z</time>
      </trkpt>
      <trkpt lat="45.07087" lon="6.46482">
        <ele>2332.6</ele>
        <time>2021-02-28T10:39:52Z</time>
      </trkpt>
      <trkpt lat="45.07087" lon="6.46482">
        <ele>2332.6</ele>
        <time>2021-02-28T10:39:53Z</time>
      </trkpt>
      <trkpt lat="45.07087" lon="6.46482">
        <ele>2332.8</ele>
        <time>2021-02-28T10:39:54Z</time>
      </trkpt>
      <trkpt lat="45.07087" lon="6.46482">
        <ele>2333.2</ele>
        <time>2021-02-28T10:39:55Z</time>
      </trkpt>
      <trkpt lat="45.07087" lon="6.46482">
        <ele>2333.2</ele>
        <time>2021-02-28T10:39:56Z</time>
      </trkpt>
      <trkpt lat="45.07087" lon="6.46482">
        <ele>2333</ele>
        <time>2021-02-28T10:39:57Z</time>
      </trkpt>
      <trkpt lat="45.07089" lon="6.46482">
        <ele>2332.6</ele>
        <time>2021-02-28T10:39:58Z</time>
      </trkpt>
      <trkpt lat="45.07089" lon="6.46482">
        <ele>2332.6</ele>
        <time>2021-02-28T10:39:59Z</time>
      </trkpt>
      <trkpt lat="45.07089" lon="6.46482">
        <ele>2332.8</ele>
        <time>2021-02-28T10:40:00Z</time>
      </trkpt>
      <trkpt lat="45.07089" lon="6.46482">
        <ele>2332.8</ele>
        <time>2021-02-28T10:40:01Z</time>
      </trkpt>
      <trkpt lat="45.07089" lon="6.46482">
        <ele>2333</ele>
        <time>2021-02-28T10:40:02Z</time>
      </trkpt>
      <trkpt lat="45.07089" lon="6.46482">
        <ele>2332.4</ele>
        <time>2021-02-28T10:40:03Z</time>
      </trkpt>
      <trkpt lat="45.07089" lon="6.46482">
        <ele>2332.2</ele>
        <time>2021-02-28T10:40:04Z</time>
      </trkpt>
      <trkpt lat="45.07089" lon="6.46482">
        <ele>2332.2</ele>
        <time>2021-02-28T10:40:05Z</time>
      </trkpt>
      <trkpt lat="45.07089" lon="6.46482">
        <ele>2332.2</ele>
        <time>2021-02-28T10:40:06Z</time>
      </trkpt>
      <trkpt lat="45.07089" lon="6.46482">
        <ele>2332.2</ele>
        <time>2021-02-28T10:40:07Z</time>
      </trkpt>
      <trkpt lat="45.07089" lon="6.46482">
        <ele>2331.8</ele>
        <time>2021-02-28T10:40:08Z</time>
      </trkpt>
      <trkpt lat="45.07089" lon="6.46482">
        <ele>2331.6</ele>
        <time>2021-02-28T10:40:09Z</time>
      </trkpt>
      <trkpt lat="45.07089" lon="6.46482">
        <ele>2331.6</ele>
        <time>2021-02-28T10:40:10Z</time>
      </trkpt>
      <trkpt lat="45.07089" lon="6.46482">
        <ele>2331.8</ele>
        <time>2021-02-28T10:40:11Z</time>
      </trkpt>
      <trkpt lat="45.07089" lon="6.46482">
        <ele>2331.8</ele>
        <time>2021-02-28T10:40:12Z</time>
      </trkpt>
      <trkpt lat="45.07089" lon="6.46482">
        <ele>2331.8</ele>
        <time>2021-02-28T10:40:13Z</time>
      </trkpt>
      <trkpt lat="45.07089" lon="6.46482">
        <ele>2331.6</ele>
        <time>2021-02-28T10:40:14Z</time>
      </trkpt>
      <trkpt lat="45.07089" lon="6.46482">
        <ele>2331.6</ele>
        <time>2021-02-28T10:40:15Z</time>
      </trkpt>
      <trkpt lat="45.07089" lon="6.46482">
        <ele>2331.4</ele>
        <time>2021-02-28T10:40:16Z</time>
      </trkpt>
      <trkpt lat="45.07089" lon="6.46482">
        <ele>2331.4</ele>
        <time>2021-02-28T10:40:17Z</time>
      </trkpt>
      <trkpt lat="45.07089" lon="6.46482">
        <ele>2331.4</ele>
        <time>2021-02-28T10:40:18Z</time>
      </trkpt>
      <trkpt lat="45.07089" lon="6.46482">
        <ele>2331.2</ele>
        <time>2021-02-28T10:40:19Z</time>
      </trkpt>
      <trkpt lat="45.07089" lon="6.46482">
        <ele>2331.2</ele>
        <time>2021-02-28T10:40:20Z</time>
      </trkpt>
      <trkpt lat="45.07089" lon="6.46482">
        <ele>2331.4</ele>
        <time>2021-02-28T10:40:21Z</time>
      </trkpt>
      <trkpt lat="45.07089" lon="6.46482">
        <ele>2331.6</ele>
        <time>2021-02-28T10:40:22Z</time>
      </trkpt>
      <trkpt lat="45.07089" lon="6.46482">
        <ele>2331.6</ele>
        <time>2021-02-28T10:40:23Z</time>
      </trkpt>
      <trkpt lat="45.07089" lon="6.46482">
        <ele>2332</ele>
        <time>2021-02-28T10:40:24Z</time>
      </trkpt>
      <trkpt lat="45.07089" lon="6.46482">
        <ele>2332</ele>
        <time>2021-02-28T10:40:25Z</time>
      </trkpt>
      <trkpt lat="45.07089" lon="6.46482">
        <ele>2332</ele>
        <time>2021-02-28T10:40:26Z</time>
      </trkpt>
      <trkpt lat="45.07089" lon="6.46482">
        <ele>2332.2</ele>
        <time>2021-02-28T10:40:27Z</time>
      </trkpt>
      <trkpt lat="45.07089" lon="6.46482">
        <ele>2332.2</ele>
        <time>2021-02-28T10:40:28Z</time>
      </trkpt>
      <trkpt lat="45.07089" lon="6.46482">
        <ele>2332</ele>
        <time>2021-02-28T10:40:29Z</time>
      </trkpt>
      <trkpt lat="45.07089" lon="6.46482">
        <ele>2332.2</ele>
        <time>2021-02-28T10:40:30Z</time>
      </trkpt>
      <trkpt lat="45.07089" lon="6.46482">
        <ele>2332.2</ele>
        <time>2021-02-28T10:40:31Z</time>
      </trkpt>
      <trkpt lat="45.07089" lon="6.46482">
        <ele>2332.2</ele>
        <time>2021-02-28T10:40:32Z</time>
      </trkpt>
      <trkpt lat="45.07089" lon="6.46482">
        <ele>2332.4</ele>
        <time>2021-02-28T10:40:33Z</time>
      </trkpt>
      <trkpt lat="45.07089" lon="6.46482">
        <ele>2332</ele>
        <time>2021-02-28T10:40:34Z</time>
      </trkpt>
      <trkpt lat="45.07089" lon="6.46482">
        <ele>2331.8</ele>
        <time>2021-02-28T10:40:35Z</time>
      </trkpt>
      <trkpt lat="45.07089" lon="6.46482">
        <ele>2331.2</ele>
        <time>2021-02-28T10:40:36Z</time>
      </trkpt>
      <trkpt lat="45.07089" lon="6.46482">
        <ele>2330.8</ele>
        <time>2021-02-28T10:40:37Z</time>
      </trkpt>
      <trkpt lat="45.07089" lon="6.46482">
        <ele>2331</ele>
        <time>2021-02-28T10:40:38Z</time>
      </trkpt>
      <trkpt lat="45.0709" lon="6.4648">
        <ele>2331.2</ele>
        <time>2021-02-28T10:40:39Z</time>
      </trkpt>
      <trkpt lat="45.0709" lon="6.4648">
        <ele>2330.8</ele>
        <time>2021-02-28T10:40:40Z</time>
      </trkpt>
      <trkpt lat="45.0709" lon="6.4648">
        <ele>2330.8</ele>
        <time>2021-02-28T10:40:41Z</time>
      </trkpt>
      <trkpt lat="45.0709" lon="6.4648">
        <ele>2330.6</ele>
        <time>2021-02-28T10:40:42Z</time>
      </trkpt>
      <trkpt lat="45.0709" lon="6.4648">
        <ele>2330.6</ele>
        <time>2021-02-28T10:40:43Z</time>
      </trkpt>
      <trkpt lat="45.0709" lon="6.4648">
        <ele>2330.6</ele>
        <time>2021-02-28T10:40:44Z</time>
      </trkpt>
      <trkpt lat="45.0709" lon="6.4648">
        <ele>2330.8</ele>
        <time>2021-02-28T10:40:45Z</time>
      </trkpt>
      <trkpt lat="45.0709" lon="6.4648">
        <ele>2331</ele>
        <time>2021-02-28T10:40:46Z</time>
      </trkpt>
      <trkpt lat="45.0709" lon="6.4648">
        <ele>2330.6</ele>
        <time>2021-02-28T10:40:47Z</time>
      </trkpt>
      <trkpt lat="45.0709" lon="6.4648">
        <ele>2330.8</ele>
        <time>2021-02-28T10:40:48Z</time>
      </trkpt>
      <trkpt lat="45.0709" lon="6.4648">
        <ele>2330.6</ele>
        <time>2021-02-28T10:40:49Z</time>
      </trkpt>
      <trkpt lat="45.0709" lon="6.4648">
        <ele>2330.8</ele>
        <time>2021-02-28T10:40:50Z</time>
      </trkpt>
      <trkpt lat="45.0709" lon="6.4648">
        <ele>2330.4</ele>
        <time>2021-02-28T10:40:51Z</time>
      </trkpt>
      <trkpt lat="45.0709" lon="6.4648">
        <ele>2330.8</ele>
        <time>2021-02-28T10:40:52Z</time>
      </trkpt>
      <trkpt lat="45.0709" lon="6.4648">
        <ele>2330.6</ele>
        <time>2021-02-28T10:40:53Z</time>
      </trkpt>
      <trkpt lat="45.0709" lon="6.4648">
        <ele>2330.2</ele>
        <time>2021-02-28T10:40:54Z</time>
      </trkpt>
      <trkpt lat="45.0709" lon="6.4648">
        <ele>2330</ele>
        <time>2021-02-28T10:40:55Z</time>
      </trkpt>
      <trkpt lat="45.0709" lon="6.4648">
        <ele>2330.4</ele>
        <time>2021-02-28T10:40:56Z</time>
      </trkpt>
      <trkpt lat="45.0709" lon="6.4648">
        <ele>2330.4</ele>
        <time>2021-02-28T10:40:57Z</time>
      </trkpt>
      <trkpt lat="45.0709" lon="6.4648">
        <ele>2330.2</ele>
        <time>2021-02-28T10:40:58Z</time>
      </trkpt>
      <trkpt lat="45.0709" lon="6.4648">
        <ele>2330</ele>
        <time>2021-02-28T10:40:59Z</time>
      </trkpt>
      <trkpt lat="45.0709" lon="6.4648">
        <ele>2330</ele>
        <time>2021-02-28T10:41:00Z</time>
      </trkpt>
      <trkpt lat="45.0709" lon="6.4648">
        <ele>2329.8</ele>
        <time>2021-02-28T10:41:01Z</time>
      </trkpt>
      <trkpt lat="45.0709" lon="6.4648">
        <ele>2330</ele>
        <time>2021-02-28T10:41:02Z</time>
      </trkpt>
      <trkpt lat="45.0709" lon="6.4648">
        <ele>2329.6</ele>
        <time>2021-02-28T10:41:03Z</time>
      </trkpt>
      <trkpt lat="45.0709" lon="6.4648">
        <ele>2329.6</ele>
        <time>2021-02-28T10:41:04Z</time>
      </trkpt>
      <trkpt lat="45.0709" lon="6.4648">
        <ele>2329.8</ele>
        <time>2021-02-28T10:41:05Z</time>
      </trkpt>
      <trkpt lat="45.0709" lon="6.4648">
        <ele>2330</ele>
        <time>2021-02-28T10:41:06Z</time>
      </trkpt>
      <trkpt lat="45.0709" lon="6.4648">
        <ele>2330.2</ele>
        <time>2021-02-28T10:41:07Z</time>
      </trkpt>
      <trkpt lat="45.0709" lon="6.4648">
        <ele>2330.4</ele>
        <time>2021-02-28T10:41:08Z</time>
      </trkpt>
      <trkpt lat="45.0709" lon="6.4648">
        <ele>2330.2</ele>
        <time>2021-02-28T10:41:09Z</time>
      </trkpt>
      <trkpt lat="45.0709" lon="6.4648">
        <ele>2330.4</ele>
        <time>2021-02-28T10:41:10Z</time>
      </trkpt>
      <trkpt lat="45.0709" lon="6.4648">
        <ele>2330.2</ele>
        <time>2021-02-28T10:41:11Z</time>
      </trkpt>
      <trkpt lat="45.0709" lon="6.4648">
        <ele>2330.2</ele>
        <time>2021-02-28T10:41:12Z</time>
      </trkpt>
      <trkpt lat="45.0709" lon="6.4648">
        <ele>2330.4</ele>
        <time>2021-02-28T10:41:13Z</time>
      </trkpt>
      <trkpt lat="45.0709" lon="6.4648">
        <ele>2330.2</ele>
        <time>2021-02-28T10:41:14Z</time>
      </trkpt>
      <trkpt lat="45.0709" lon="6.4648">
        <ele>2330.2</ele>
        <time>2021-02-28T10:41:15Z</time>
      </trkpt>
      <trkpt lat="45.0709" lon="6.4648">
        <ele>2330.2</ele>
        <time>2021-02-28T10:41:16Z</time>
      </trkpt>
      <trkpt lat="45.0709" lon="6.4648">
        <ele>2330.6</ele>
        <time>2021-02-28T10:41:17Z</time>
      </trkpt>
      <trkpt lat="45.07091" lon="6.46483">
        <ele>2330.8</ele>
        <time>2021-02-28T10:41:18Z</time>
      </trkpt>
      <trkpt lat="45.07091" lon="6.46483">
        <ele>2331</ele>
        <time>2021-02-28T10:41:19Z</time>
      </trkpt>
      <trkpt lat="45.07091" lon="6.46483">
        <ele>2331.2</ele>
        <time>2021-02-28T10:41:20Z</time>
      </trkpt>
      <trkpt lat="45.07091" lon="6.46483">
        <ele>2331.2</ele>
        <time>2021-02-28T10:41:21Z</time>
      </trkpt>
      <trkpt lat="45.07091" lon="6.46483">
        <ele>2331.2</ele>
        <time>2021-02-28T10:41:22Z</time>
      </trkpt>
      <trkpt lat="45.07091" lon="6.46483">
        <ele>2331.2</ele>
        <time>2021-02-28T10:41:23Z</time>
      </trkpt>
      <trkpt lat="45.07091" lon="6.46483">
        <ele>2331.2</ele>
        <time>2021-02-28T10:41:24Z</time>
      </trkpt>
      <trkpt lat="45.07091" lon="6.46483">
        <ele>2331</ele>
        <time>2021-02-28T10:41:25Z</time>
      </trkpt>
      <trkpt lat="45.07091" lon="6.46483">
        <ele>2329</ele>
        <time>2021-02-28T10:41:26Z</time>
      </trkpt>
      <trkpt lat="45.07091" lon="6.46483">
        <ele>2329.8</ele>
        <time>2021-02-28T10:41:27Z</time>
      </trkpt>
      <trkpt lat="45.07091" lon="6.46483">
        <ele>2330.2</ele>
        <time>2021-02-28T10:41:28Z</time>
      </trkpt>
      <trkpt lat="45.07091" lon="6.46483">
        <ele>2330</ele>
        <time>2021-02-28T10:41:29Z</time>
      </trkpt>
      <trkpt lat="45.07091" lon="6.46483">
        <ele>2329.6</ele>
        <time>2021-02-28T10:41:30Z</time>
      </trkpt>
      <trkpt lat="45.07091" lon="6.46483">
        <ele>2329.2</ele>
        <time>2021-02-28T10:41:31Z</time>
      </trkpt>
      <trkpt lat="45.07091" lon="6.46483">
        <ele>2328.8</ele>
        <time>2021-02-28T10:41:32Z</time>
      </trkpt>
      <trkpt lat="45.07091" lon="6.46483">
        <ele>2329</ele>
        <time>2021-02-28T10:41:33Z</time>
      </trkpt>
      <trkpt lat="45.07091" lon="6.46483">
        <ele>2328.6</ele>
        <time>2021-02-28T10:41:34Z</time>
      </trkpt>
      <trkpt lat="45.07091" lon="6.46483">
        <ele>2328.6</ele>
        <time>2021-02-28T10:41:35Z</time>
      </trkpt>
      <trkpt lat="45.07091" lon="6.46483">
        <ele>2328.2</ele>
        <time>2021-02-28T10:41:36Z</time>
      </trkpt>
      <trkpt lat="45.07091" lon="6.46483">
        <ele>2328.2</ele>
        <time>2021-02-28T10:41:37Z</time>
      </trkpt>
      <trkpt lat="45.07091" lon="6.46483">
        <ele>2327.8</ele>
        <time>2021-02-28T10:41:38Z</time>
      </trkpt>
      <trkpt lat="45.07091" lon="6.46483">
        <ele>2328.2</ele>
        <time>2021-02-28T10:41:39Z</time>
      </trkpt>
      <trkpt lat="45.07091" lon="6.46483">
        <ele>2328.8</ele>
        <time>2021-02-28T10:41:40Z</time>
      </trkpt>
      <trkpt lat="45.07091" lon="6.46483">
        <ele>2329</ele>
        <time>2021-02-28T10:41:41Z</time>
      </trkpt>
      <trkpt lat="45.07091" lon="6.46483">
        <ele>2329</ele>
        <time>2021-02-28T10:41:42Z</time>
      </trkpt>
      <trkpt lat="45.07091" lon="6.46483">
        <ele>2329.2</ele>
        <time>2021-02-28T10:41:43Z</time>
      </trkpt>
      <trkpt lat="45.07091" lon="6.46483">
        <ele>2327.8</ele>
        <time>2021-02-28T10:41:44Z</time>
      </trkpt>
      <trkpt lat="45.07091" lon="6.46483">
        <ele>2327.4</ele>
        <time>2021-02-28T10:41:45Z</time>
      </trkpt>
      <trkpt lat="45.07091" lon="6.46483">
        <ele>2328</ele>
        <time>2021-02-28T10:41:46Z</time>
      </trkpt>
      <trkpt lat="45.07091" lon="6.46483">
        <ele>2328.4</ele>
        <time>2021-02-28T10:41:47Z</time>
      </trkpt>
      <trkpt lat="45.07091" lon="6.46483">
        <ele>2328.2</ele>
        <time>2021-02-28T10:41:48Z</time>
      </trkpt>
      <trkpt lat="45.07091" lon="6.46483">
        <ele>2328.4</ele>
        <time>2021-02-28T10:41:49Z</time>
      </trkpt>
      <trkpt lat="45.07091" lon="6.46483">
        <ele>2329.2</ele>
        <time>2021-02-28T10:41:50Z</time>
      </trkpt>
      <trkpt lat="45.07091" lon="6.46483">
        <ele>2329.4</ele>
        <time>2021-02-28T10:41:51Z</time>
      </trkpt>
      <trkpt lat="45.07091" lon="6.46483">
        <ele>2329.6</ele>
        <time>2021-02-28T10:41:52Z</time>
      </trkpt>
      <trkpt lat="45.07091" lon="6.46483">
        <ele>2328.8</ele>
        <time>2021-02-28T10:41:53Z</time>
      </trkpt>
      <trkpt lat="45.07091" lon="6.46483">
        <ele>2328.8</ele>
        <time>2021-02-28T10:41:54Z</time>
      </trkpt>
      <trkpt lat="45.07091" lon="6.46483">
        <ele>2329.2</ele>
        <time>2021-02-28T10:41:55Z</time>
      </trkpt>
      <trkpt lat="45.07091" lon="6.46483">
        <ele>2329</ele>
        <time>2021-02-28T10:41:56Z</time>
      </trkpt>
      <trkpt lat="45.07091" lon="6.46483">
        <ele>2328.8</ele>
        <time>2021-02-28T10:41:57Z</time>
      </trkpt>
      <trkpt lat="45.07091" lon="6.46483">
        <ele>2329.2</ele>
        <time>2021-02-28T10:41:58Z</time>
      </trkpt>
      <trkpt lat="45.07091" lon="6.46483">
        <ele>2328.6</ele>
        <time>2021-02-28T10:41:59Z</time>
      </trkpt>
      <trkpt lat="45.07091" lon="6.46483">
        <ele>2328</ele>
        <time>2021-02-28T10:42:00Z</time>
      </trkpt>
      <trkpt lat="45.07091" lon="6.46483">
        <ele>2328.2</ele>
        <time>2021-02-28T10:42:01Z</time>
      </trkpt>
      <trkpt lat="45.07091" lon="6.46483">
        <ele>2327.8</ele>
        <time>2021-02-28T10:42:02Z</time>
      </trkpt>
      <trkpt lat="45.07091" lon="6.46483">
        <ele>2327.2</ele>
        <time>2021-02-28T10:42:03Z</time>
      </trkpt>
      <trkpt lat="45.07091" lon="6.46483">
        <ele>2326.8</ele>
        <time>2021-02-28T10:42:04Z</time>
      </trkpt>
      <trkpt lat="45.07091" lon="6.46483">
        <ele>2326.4</ele>
        <time>2021-02-28T10:42:05Z</time>
      </trkpt>
      <trkpt lat="45.07091" lon="6.46483">
        <ele>2326.4</ele>
        <time>2021-02-28T10:42:06Z</time>
      </trkpt>
      <trkpt lat="45.07091" lon="6.46483">
        <ele>2327</ele>
        <time>2021-02-28T10:42:07Z</time>
      </trkpt>
      <trkpt lat="45.07091" lon="6.46483">
        <ele>2327.4</ele>
        <time>2021-02-28T10:42:08Z</time>
      </trkpt>
      <trkpt lat="45.07089" lon="6.46483">
        <ele>2327</ele>
        <time>2021-02-28T10:42:09Z</time>
      </trkpt>
      <trkpt lat="45.07089" lon="6.46483">
        <ele>2326.2</ele>
        <time>2021-02-28T10:42:10Z</time>
      </trkpt>
      <trkpt lat="45.07089" lon="6.46483">
        <ele>2326.2</ele>
        <time>2021-02-28T10:42:11Z</time>
      </trkpt>
      <trkpt lat="45.07089" lon="6.46483">
        <ele>2326.2</ele>
        <time>2021-02-28T10:42:12Z</time>
      </trkpt>
      <trkpt lat="45.07089" lon="6.46483">
        <ele>2326</ele>
        <time>2021-02-28T10:42:13Z</time>
      </trkpt>
      <trkpt lat="45.07089" lon="6.46483">
        <ele>2325.4</ele>
        <time>2021-02-28T10:42:14Z</time>
      </trkpt>
      <trkpt lat="45.07089" lon="6.46483">
        <ele>2325.6</ele>
        <time>2021-02-28T10:42:15Z</time>
      </trkpt>
      <trkpt lat="45.07089" lon="6.46483">
        <ele>2325.4</ele>
        <time>2021-02-28T10:42:16Z</time>
      </trkpt>
      <trkpt lat="45.07089" lon="6.46483">
        <ele>2325.6</ele>
        <time>2021-02-28T10:42:17Z</time>
      </trkpt>
      <trkpt lat="45.07089" lon="6.46483">
        <ele>2325.8</ele>
        <time>2021-02-28T10:42:18Z</time>
      </trkpt>
      <trkpt lat="45.07089" lon="6.46483">
        <ele>2325.6</ele>
        <time>2021-02-28T10:42:19Z</time>
      </trkpt>
      <trkpt lat="45.07089" lon="6.46483">
        <ele>2325</ele>
        <time>2021-02-28T10:42:20Z</time>
      </trkpt>
      <trkpt lat="45.07089" lon="6.46483">
        <ele>2324.8</ele>
        <time>2021-02-28T10:42:21Z</time>
      </trkpt>
      <trkpt lat="45.07089" lon="6.46483">
        <ele>2324.8</ele>
        <time>2021-02-28T10:42:22Z</time>
      </trkpt>
      <trkpt lat="45.07089" lon="6.46483">
        <ele>2324.2</ele>
        <time>2021-02-28T10:42:23Z</time>
      </trkpt>
      <trkpt lat="45.07089" lon="6.46483">
        <ele>2323.6</ele>
        <time>2021-02-28T10:42:24Z</time>
      </trkpt>
      <trkpt lat="45.07089" lon="6.46483">
        <ele>2323.2</ele>
        <time>2021-02-28T10:42:25Z</time>
      </trkpt>
      <trkpt lat="45.07089" lon="6.46483">
        <ele>2323.2</ele>
        <time>2021-02-28T10:42:26Z</time>
      </trkpt>
      <trkpt lat="45.07089" lon="6.46483">
        <ele>2323.4</ele>
        <time>2021-02-28T10:42:27Z</time>
      </trkpt>
      <trkpt lat="45.07089" lon="6.46483">
        <ele>2323.6</ele>
        <time>2021-02-28T10:42:28Z</time>
      </trkpt>
      <trkpt lat="45.07089" lon="6.46483">
        <ele>2324.2</ele>
        <time>2021-02-28T10:42:29Z</time>
      </trkpt>
      <trkpt lat="45.07089" lon="6.46483">
        <ele>2324.2</ele>
        <time>2021-02-28T10:42:30Z</time>
      </trkpt>
      <trkpt lat="45.07089" lon="6.46483">
        <ele>2322.2</ele>
        <time>2021-02-28T10:42:31Z</time>
      </trkpt>
      <trkpt lat="45.07089" lon="6.46483">
        <ele>2322.4</ele>
        <time>2021-02-28T10:42:32Z</time>
      </trkpt>
      <trkpt lat="45.07089" lon="6.46483">
        <ele>2322.6</ele>
        <time>2021-02-28T10:42:33Z</time>
      </trkpt>
      <trkpt lat="45.07089" lon="6.46483">
        <ele>2322.6</ele>
        <time>2021-02-28T10:42:34Z</time>
      </trkpt>
      <trkpt lat="45.07089" lon="6.46483">
        <ele>2324</ele>
        <time>2021-02-28T10:42:35Z</time>
      </trkpt>
      <trkpt lat="45.07089" lon="6.46483">
        <ele>2324.4</ele>
        <time>2021-02-28T10:42:36Z</time>
      </trkpt>
      <trkpt lat="45.07089" lon="6.46483">
        <ele>2324.2</ele>
        <time>2021-02-28T10:42:37Z</time>
      </trkpt>
      <trkpt lat="45.07089" lon="6.46483">
        <ele>2324.6</ele>
        <time>2021-02-28T10:42:38Z</time>
      </trkpt>
      <trkpt lat="45.07089" lon="6.46483">
        <ele>2324.8</ele>
        <time>2021-02-28T10:42:39Z</time>
      </trkpt>
      <trkpt lat="45.07089" lon="6.46483">
        <ele>2324.6</ele>
        <time>2021-02-28T10:42:40Z</time>
      </trkpt>
      <trkpt lat="45.07089" lon="6.46483">
        <ele>2324.4</ele>
        <time>2021-02-28T10:42:41Z</time>
      </trkpt>
      <trkpt lat="45.07089" lon="6.46483">
        <ele>2323.8</ele>
        <time>2021-02-28T10:42:42Z</time>
      </trkpt>
      <trkpt lat="45.07089" lon="6.46483">
        <ele>2324.2</ele>
        <time>2021-02-28T10:42:43Z</time>
      </trkpt>
      <trkpt lat="45.07089" lon="6.46483">
        <ele>2324</ele>
        <time>2021-02-28T10:42:44Z</time>
      </trkpt>
      <trkpt lat="45.07089" lon="6.46483">
        <ele>2324.4</ele>
        <time>2021-02-28T10:42:45Z</time>
      </trkpt>
      <trkpt lat="45.07089" lon="6.46483">
        <ele>2323.8</ele>
        <time>2021-02-28T10:42:46Z</time>
      </trkpt>
      <trkpt lat="45.07089" lon="6.46483">
        <ele>2324.2</ele>
        <time>2021-02-28T10:42:47Z</time>
      </trkpt>
      <trkpt lat="45.07089" lon="6.46483">
        <ele>2324</ele>
        <time>2021-02-28T10:42:48Z</time>
      </trkpt>
      <trkpt lat="45.07089" lon="6.46483">
        <ele>2323.8</ele>
        <time>2021-02-28T10:42:49Z</time>
      </trkpt>
      <trkpt lat="45.07089" lon="6.46483">
        <ele>2323.8</ele>
        <time>2021-02-28T10:42:50Z</time>
      </trkpt>
      <trkpt lat="45.07089" lon="6.46483">
        <ele>2324</ele>
        <time>2021-02-28T10:42:51Z</time>
      </trkpt>
      <trkpt lat="45.07089" lon="6.46483">
        <ele>2324.6</ele>
        <time>2021-02-28T10:42:52Z</time>
      </trkpt>
      <trkpt lat="45.07089" lon="6.46483">
        <ele>2325.2</ele>
        <time>2021-02-28T10:42:53Z</time>
      </trkpt>
      <trkpt lat="45.07089" lon="6.46483">
        <ele>2325.2</ele>
        <time>2021-02-28T10:42:54Z</time>
      </trkpt>
      <trkpt lat="45.0709" lon="6.46481">
        <ele>2325.2</ele>
        <time>2021-02-28T10:42:55Z</time>
      </trkpt>
      <trkpt lat="45.0709" lon="6.46481">
        <ele>2325</ele>
        <time>2021-02-28T10:42:56Z</time>
      </trkpt>
      <trkpt lat="45.0709" lon="6.46481">
        <ele>2325.8</ele>
        <time>2021-02-28T10:42:57Z</time>
      </trkpt>
      <trkpt lat="45.0709" lon="6.46481">
        <ele>2326.2</ele>
        <time>2021-02-28T10:42:58Z</time>
      </trkpt>
      <trkpt lat="45.0709" lon="6.46481">
        <ele>2326.2</ele>
        <time>2021-02-28T10:42:59Z</time>
      </trkpt>
      <trkpt lat="45.0709" lon="6.46481">
        <ele>2325.2</ele>
        <time>2021-02-28T10:43:00Z</time>
      </trkpt>
      <trkpt lat="45.0709" lon="6.46481">
        <ele>2324.2</ele>
        <time>2021-02-28T10:43:01Z</time>
      </trkpt>
      <trkpt lat="45.0709" lon="6.46481">
        <ele>2323.2</ele>
        <time>2021-02-28T10:43:02Z</time>
      </trkpt>
      <trkpt lat="45.07088" lon="6.46484">
        <ele>2322.6</ele>
        <time>2021-02-28T10:43:03Z</time>
      </trkpt>
      <trkpt lat="45.07088" lon="6.46484">
        <ele>2322.2</ele>
        <time>2021-02-28T10:43:04Z</time>
      </trkpt>
      <trkpt lat="45.07086" lon="6.46487">
        <ele>2322.4</ele>
        <time>2021-02-28T10:43:05Z</time>
      </trkpt>
      <trkpt lat="45.07086" lon="6.46487">
        <ele>2323.2</ele>
        <time>2021-02-28T10:43:06Z</time>
      </trkpt>
      <trkpt lat="45.07084" lon="6.4649">
        <ele>2323.8</ele>
        <time>2021-02-28T10:43:07Z</time>
      </trkpt>
      <trkpt lat="45.07084" lon="6.4649">
        <ele>2323.6</ele>
        <time>2021-02-28T10:43:08Z</time>
      </trkpt>
      <trkpt lat="45.07082" lon="6.46494">
        <ele>2324.2</ele>
        <time>2021-02-28T10:43:09Z</time>
      </trkpt>
      <trkpt lat="45.07082" lon="6.46494">
        <ele>2324.6</ele>
        <time>2021-02-28T10:43:10Z</time>
      </trkpt>
      <trkpt lat="45.07081" lon="6.46496">
        <ele>2324.6</ele>
        <time>2021-02-28T10:43:11Z</time>
      </trkpt>
      <trkpt lat="45.07081" lon="6.46496">
        <ele>2325</ele>
        <time>2021-02-28T10:43:12Z</time>
      </trkpt>
      <trkpt lat="45.07079" lon="6.46498">
        <ele>2325.2</ele>
        <time>2021-02-28T10:43:13Z</time>
      </trkpt>
      <trkpt lat="45.07079" lon="6.46498">
        <ele>2325.2</ele>
        <time>2021-02-28T10:43:14Z</time>
      </trkpt>
      <trkpt lat="45.07079" lon="6.46498">
        <ele>2325.2</ele>
        <time>2021-02-28T10:43:15Z</time>
      </trkpt>
      <trkpt lat="45.07077" lon="6.46501">
        <ele>2325.2</ele>
        <time>2021-02-28T10:43:16Z</time>
      </trkpt>
      <trkpt lat="45.07077" lon="6.46501">
        <ele>2324.6</ele>
        <time>2021-02-28T10:43:17Z</time>
      </trkpt>
      <trkpt lat="45.07075" lon="6.46504">
        <ele>2324.8</ele>
        <time>2021-02-28T10:43:18Z</time>
      </trkpt>
      <trkpt lat="45.07075" lon="6.46504">
        <ele>2325</ele>
        <time>2021-02-28T10:43:19Z</time>
      </trkpt>
      <trkpt lat="45.07073" lon="6.46507">
        <ele>2324.8</ele>
        <time>2021-02-28T10:43:20Z</time>
      </trkpt>
      <trkpt lat="45.07073" lon="6.46507">
        <ele>2325.2</ele>
        <time>2021-02-28T10:43:21Z</time>
      </trkpt>
      <trkpt lat="45.0707" lon="6.46509">
        <ele>2325.2</ele>
        <time>2021-02-28T10:43:22Z</time>
      </trkpt>
      <trkpt lat="45.0707" lon="6.46509">
        <ele>2325</ele>
        <time>2021-02-28T10:43:23Z</time>
      </trkpt>
      <trkpt lat="45.07068" lon="6.46512">
        <ele>2325.2</ele>
        <time>2021-02-28T10:43:24Z</time>
      </trkpt>
      <trkpt lat="45.07068" lon="6.46512">
        <ele>2325.2</ele>
        <time>2021-02-28T10:43:25Z</time>
      </trkpt>
      <trkpt lat="45.07066" lon="6.46514">
        <ele>2325.2</ele>
        <time>2021-02-28T10:43:26Z</time>
      </trkpt>
      <trkpt lat="45.07066" lon="6.46514">
        <ele>2325.2</ele>
        <time>2021-02-28T10:43:27Z</time>
      </trkpt>
      <trkpt lat="45.07064" lon="6.46517">
        <ele>2325.6</ele>
        <time>2021-02-28T10:43:28Z</time>
      </trkpt>
      <trkpt lat="45.07064" lon="6.46517">
        <ele>2325.4</ele>
        <time>2021-02-28T10:43:29Z</time>
      </trkpt>
      <trkpt lat="45.07062" lon="6.4652">
        <ele>2325</ele>
        <time>2021-02-28T10:43:30Z</time>
      </trkpt>
      <trkpt lat="45.07062" lon="6.4652">
        <ele>2325.4</ele>
        <time>2021-02-28T10:43:31Z</time>
      </trkpt>
      <trkpt lat="45.07059" lon="6.46523">
        <ele>2325.2</ele>
        <time>2021-02-28T10:43:32Z</time>
      </trkpt>
      <trkpt lat="45.07059" lon="6.46523">
        <ele>2325.6</ele>
        <time>2021-02-28T10:43:33Z</time>
      </trkpt>
      <trkpt lat="45.07057" lon="6.46526">
        <ele>2325</ele>
        <time>2021-02-28T10:43:34Z</time>
      </trkpt>
      <trkpt lat="45.07057" lon="6.46526">
        <ele>2324.6</ele>
        <time>2021-02-28T10:43:35Z</time>
      </trkpt>
      <trkpt lat="45.07056" lon="6.46529">
        <ele>2325.2</ele>
        <time>2021-02-28T10:43:36Z</time>
      </trkpt>
      <trkpt lat="45.07056" lon="6.46529">
        <ele>2325</ele>
        <time>2021-02-28T10:43:37Z</time>
      </trkpt>
      <trkpt lat="45.07054" lon="6.46531">
        <ele>2325.4</ele>
        <time>2021-02-28T10:43:38Z</time>
      </trkpt>
      <trkpt lat="45.07054" lon="6.46531">
        <ele>2325.8</ele>
        <time>2021-02-28T10:43:39Z</time>
      </trkpt>
      <trkpt lat="45.07053" lon="6.46533">
        <ele>2325.8</ele>
        <time>2021-02-28T10:43:40Z</time>
      </trkpt>
      <trkpt lat="45.07053" lon="6.46533">
        <ele>2325.6</ele>
        <time>2021-02-28T10:43:41Z</time>
      </trkpt>
      <trkpt lat="45.07051" lon="6.46536">
        <ele>2326</ele>
        <time>2021-02-28T10:43:42Z</time>
      </trkpt>
      <trkpt lat="45.07051" lon="6.46536">
        <ele>2326.6</ele>
        <time>2021-02-28T10:43:43Z</time>
      </trkpt>
      <trkpt lat="45.0705" lon="6.46539">
        <ele>2326.2</ele>
        <time>2021-02-28T10:43:44Z</time>
      </trkpt>
      <trkpt lat="45.0705" lon="6.46539">
        <ele>2326.4</ele>
        <time>2021-02-28T10:43:45Z</time>
      </trkpt>
      <trkpt lat="45.07048" lon="6.46541">
        <ele>2326.8</ele>
        <time>2021-02-28T10:43:46Z</time>
      </trkpt>
      <trkpt lat="45.07048" lon="6.46541">
        <ele>2326.8</ele>
        <time>2021-02-28T10:43:47Z</time>
      </trkpt>
      <trkpt lat="45.07047" lon="6.46544">
        <ele>2327.6</ele>
        <time>2021-02-28T10:43:48Z</time>
      </trkpt>
      <trkpt lat="45.07047" lon="6.46544">
        <ele>2327.6</ele>
        <time>2021-02-28T10:43:49Z</time>
      </trkpt>
      <trkpt lat="45.07045" lon="6.46546">
        <ele>2327.2</ele>
        <time>2021-02-28T10:43:50Z</time>
      </trkpt>
      <trkpt lat="45.07045" lon="6.46546">
        <ele>2328</ele>
        <time>2021-02-28T10:43:51Z</time>
      </trkpt>
      <trkpt lat="45.07044" lon="6.46549">
        <ele>2328</ele>
        <time>2021-02-28T10:43:52Z</time>
      </trkpt>
      <trkpt lat="45.07044" lon="6.46549">
        <ele>2328.6</ele>
        <time>2021-02-28T10:43:53Z</time>
      </trkpt>
      <trkpt lat="45.07043" lon="6.46551">
        <ele>2328.4</ele>
        <time>2021-02-28T10:43:54Z</time>
      </trkpt>
      <trkpt lat="45.07043" lon="6.46551">
        <ele>2328.2</ele>
        <time>2021-02-28T10:43:55Z</time>
      </trkpt>
      <trkpt lat="45.07041" lon="6.46553">
        <ele>2328.6</ele>
        <time>2021-02-28T10:43:56Z</time>
      </trkpt>
      <trkpt lat="45.07041" lon="6.46553">
        <ele>2328</ele>
        <time>2021-02-28T10:43:57Z</time>
      </trkpt>
      <trkpt lat="45.07039" lon="6.46555">
        <ele>2327.6</ele>
        <time>2021-02-28T10:43:58Z</time>
      </trkpt>
      <trkpt lat="45.07039" lon="6.46555">
        <ele>2328.2</ele>
        <time>2021-02-28T10:43:59Z</time>
      </trkpt>
      <trkpt lat="45.07038" lon="6.46557">
        <ele>2328.4</ele>
        <time>2021-02-28T10:44:00Z</time>
      </trkpt>
      <trkpt lat="45.07038" lon="6.46557">
        <ele>2328.8</ele>
        <time>2021-02-28T10:44:01Z</time>
      </trkpt>
      <trkpt lat="45.07036" lon="6.4656">
        <ele>2328.4</ele>
        <time>2021-02-28T10:44:02Z</time>
      </trkpt>
      <trkpt lat="45.07036" lon="6.4656">
        <ele>2328</ele>
        <time>2021-02-28T10:44:03Z</time>
      </trkpt>
      <trkpt lat="45.07035" lon="6.46562">
        <ele>2328.8</ele>
        <time>2021-02-28T10:44:04Z</time>
      </trkpt>
      <trkpt lat="45.07035" lon="6.46562">
        <ele>2328.6</ele>
        <time>2021-02-28T10:44:05Z</time>
      </trkpt>
      <trkpt lat="45.07034" lon="6.46565">
        <ele>2329</ele>
        <time>2021-02-28T10:44:06Z</time>
      </trkpt>
      <trkpt lat="45.07034" lon="6.46565">
        <ele>2329.4</ele>
        <time>2021-02-28T10:44:07Z</time>
      </trkpt>
      <trkpt lat="45.07032" lon="6.46567">
        <ele>2329.6</ele>
        <time>2021-02-28T10:44:08Z</time>
      </trkpt>
      <trkpt lat="45.07032" lon="6.46567">
        <ele>2330</ele>
        <time>2021-02-28T10:44:09Z</time>
      </trkpt>
      <trkpt lat="45.07031" lon="6.4657">
        <ele>2330</ele>
        <time>2021-02-28T10:44:10Z</time>
      </trkpt>
      <trkpt lat="45.07031" lon="6.4657">
        <ele>2329.8</ele>
        <time>2021-02-28T10:44:11Z</time>
      </trkpt>
      <trkpt lat="45.07029" lon="6.46573">
        <ele>2330.4</ele>
        <time>2021-02-28T10:44:12Z</time>
      </trkpt>
      <trkpt lat="45.07029" lon="6.46573">
        <ele>2330.6</ele>
        <time>2021-02-28T10:44:13Z</time>
      </trkpt>
      <trkpt lat="45.07028" lon="6.46575">
        <ele>2331</ele>
        <time>2021-02-28T10:44:14Z</time>
      </trkpt>
      <trkpt lat="45.07028" lon="6.46575">
        <ele>2330.8</ele>
        <time>2021-02-28T10:44:15Z</time>
      </trkpt>
      <trkpt lat="45.07026" lon="6.46578">
        <ele>2330.4</ele>
        <time>2021-02-28T10:44:16Z</time>
      </trkpt>
      <trkpt lat="45.07026" lon="6.46578">
        <ele>2331</ele>
        <time>2021-02-28T10:44:17Z</time>
      </trkpt>
      <trkpt lat="45.07025" lon="6.4658">
        <ele>2330.4</ele>
        <time>2021-02-28T10:44:18Z</time>
      </trkpt>
      <trkpt lat="45.07025" lon="6.4658">
        <ele>2330.6</ele>
        <time>2021-02-28T10:44:19Z</time>
      </trkpt>
      <trkpt lat="45.07024" lon="6.46583">
        <ele>2331.2</ele>
        <time>2021-02-28T10:44:20Z</time>
      </trkpt>
      <trkpt lat="45.07024" lon="6.46583">
        <ele>2331.2</ele>
        <time>2021-02-28T10:44:21Z</time>
      </trkpt>
      <trkpt lat="45.07023" lon="6.46585">
        <ele>2331.8</ele>
        <time>2021-02-28T10:44:22Z</time>
      </trkpt>
      <trkpt lat="45.07023" lon="6.46585">
        <ele>2331.2</ele>
        <time>2021-02-28T10:44:23Z</time>
      </trkpt>
      <trkpt lat="45.07021" lon="6.46588">
        <ele>2331.2</ele>
        <time>2021-02-28T10:44:24Z</time>
      </trkpt>
      <trkpt lat="45.07021" lon="6.46588">
        <ele>2331.8</ele>
        <time>2021-02-28T10:44:25Z</time>
      </trkpt>
      <trkpt lat="45.0702" lon="6.46591">
        <ele>2332.2</ele>
        <time>2021-02-28T10:44:26Z</time>
      </trkpt>
      <trkpt lat="45.0702" lon="6.46591">
        <ele>2332.8</ele>
        <time>2021-02-28T10:44:27Z</time>
      </trkpt>
      <trkpt lat="45.07019" lon="6.46593">
        <ele>2333</ele>
        <time>2021-02-28T10:44:28Z</time>
      </trkpt>
      <trkpt lat="45.07019" lon="6.46593">
        <ele>2333.2</ele>
        <time>2021-02-28T10:44:29Z</time>
      </trkpt>
      <trkpt lat="45.07017" lon="6.46596">
        <ele>2333.8</ele>
        <time>2021-02-28T10:44:30Z</time>
      </trkpt>
      <trkpt lat="45.07017" lon="6.46596">
        <ele>2333.2</ele>
        <time>2021-02-28T10:44:31Z</time>
      </trkpt>
      <trkpt lat="45.07016" lon="6.46598">
        <ele>2333.2</ele>
        <time>2021-02-28T10:44:32Z</time>
      </trkpt>
      <trkpt lat="45.07016" lon="6.46598">
        <ele>2333.4</ele>
        <time>2021-02-28T10:44:33Z</time>
      </trkpt>
      <trkpt lat="45.07015" lon="6.46601">
        <ele>2333.8</ele>
        <time>2021-02-28T10:44:34Z</time>
      </trkpt>
      <trkpt lat="45.07015" lon="6.46601">
        <ele>2334.4</ele>
        <time>2021-02-28T10:44:35Z</time>
      </trkpt>
      <trkpt lat="45.07014" lon="6.46603">
        <ele>2334.4</ele>
        <time>2021-02-28T10:44:36Z</time>
      </trkpt>
      <trkpt lat="45.07014" lon="6.46603">
        <ele>2334.4</ele>
        <time>2021-02-28T10:44:37Z</time>
      </trkpt>
      <trkpt lat="45.07013" lon="6.46606">
        <ele>2334.6</ele>
        <time>2021-02-28T10:44:38Z</time>
      </trkpt>
      <trkpt lat="45.07013" lon="6.46606">
        <ele>2334</ele>
        <time>2021-02-28T10:44:39Z</time>
      </trkpt>
      <trkpt lat="45.07012" lon="6.46608">
        <ele>2334.6</ele>
        <time>2021-02-28T10:44:40Z</time>
      </trkpt>
      <trkpt lat="45.07012" lon="6.46608">
        <ele>2334.6</ele>
        <time>2021-02-28T10:44:41Z</time>
      </trkpt>
      <trkpt lat="45.07012" lon="6.46611">
        <ele>2334.6</ele>
        <time>2021-02-28T10:44:42Z</time>
      </trkpt>
      <trkpt lat="45.07012" lon="6.46611">
        <ele>2335.4</ele>
        <time>2021-02-28T10:44:43Z</time>
      </trkpt>
      <trkpt lat="45.0701" lon="6.46614">
        <ele>2335</ele>
        <time>2021-02-28T10:44:44Z</time>
      </trkpt>
      <trkpt lat="45.0701" lon="6.46614">
        <ele>2334.6</ele>
        <time>2021-02-28T10:44:45Z</time>
      </trkpt>
      <trkpt lat="45.07009" lon="6.46616">
        <ele>2335.2</ele>
        <time>2021-02-28T10:44:46Z</time>
      </trkpt>
      <trkpt lat="45.07009" lon="6.46616">
        <ele>2335.4</ele>
        <time>2021-02-28T10:44:47Z</time>
      </trkpt>
      <trkpt lat="45.07008" lon="6.46619">
        <ele>2336</ele>
        <time>2021-02-28T10:44:48Z</time>
      </trkpt>
      <trkpt lat="45.07008" lon="6.46619">
        <ele>2335.8</ele>
        <time>2021-02-28T10:44:49Z</time>
      </trkpt>
      <trkpt lat="45.07006" lon="6.46622">
        <ele>2336.2</ele>
        <time>2021-02-28T10:44:50Z</time>
      </trkpt>
      <trkpt lat="45.07006" lon="6.46622">
        <ele>2336.6</ele>
        <time>2021-02-28T10:44:51Z</time>
      </trkpt>
      <trkpt lat="45.07005" lon="6.46625">
        <ele>2336.2</ele>
        <time>2021-02-28T10:44:52Z</time>
      </trkpt>
      <trkpt lat="45.07005" lon="6.46625">
        <ele>2336.6</ele>
        <time>2021-02-28T10:44:53Z</time>
      </trkpt>
      <trkpt lat="45.07004" lon="6.46627">
        <ele>2336.8</ele>
        <time>2021-02-28T10:44:54Z</time>
      </trkpt>
      <trkpt lat="45.07004" lon="6.46627">
        <ele>2336.8</ele>
        <time>2021-02-28T10:44:55Z</time>
      </trkpt>
      <trkpt lat="45.07003" lon="6.4663">
        <ele>2337.6</ele>
        <time>2021-02-28T10:44:56Z</time>
      </trkpt>
      <trkpt lat="45.07003" lon="6.4663">
        <ele>2337.2</ele>
        <time>2021-02-28T10:44:57Z</time>
      </trkpt>
      <trkpt lat="45.07001" lon="6.46633">
        <ele>2337.4</ele>
        <time>2021-02-28T10:44:58Z</time>
      </trkpt>
      <trkpt lat="45.07001" lon="6.46633">
        <ele>2337.8</ele>
        <time>2021-02-28T10:44:59Z</time>
      </trkpt>
      <trkpt lat="45.06999" lon="6.46636">
        <ele>2337.8</ele>
        <time>2021-02-28T10:45:00Z</time>
      </trkpt>
      <trkpt lat="45.06999" lon="6.46636">
        <ele>2338.4</ele>
        <time>2021-02-28T10:45:01Z</time>
      </trkpt>
      <trkpt lat="45.06998" lon="6.46639">
        <ele>2338.6</ele>
        <time>2021-02-28T10:45:02Z</time>
      </trkpt>
      <trkpt lat="45.06998" lon="6.46639">
        <ele>2338.6</ele>
        <time>2021-02-28T10:45:03Z</time>
      </trkpt>
      <trkpt lat="45.06997" lon="6.46642">
        <ele>2339.4</ele>
        <time>2021-02-28T10:45:04Z</time>
      </trkpt>
      <trkpt lat="45.06997" lon="6.46642">
        <ele>2339</ele>
        <time>2021-02-28T10:45:05Z</time>
      </trkpt>
      <trkpt lat="45.06995" lon="6.46644">
        <ele>2338.4</ele>
        <time>2021-02-28T10:45:06Z</time>
      </trkpt>
      <trkpt lat="45.06995" lon="6.46644">
        <ele>2339</ele>
        <time>2021-02-28T10:45:07Z</time>
      </trkpt>
      <trkpt lat="45.06994" lon="6.46648">
        <ele>2337.8</ele>
        <time>2021-02-28T10:45:08Z</time>
      </trkpt>
      <trkpt lat="45.06994" lon="6.46648">
        <ele>2337.8</ele>
        <time>2021-02-28T10:45:09Z</time>
      </trkpt>
      <trkpt lat="45.06993" lon="6.4665">
        <ele>2338.6</ele>
        <time>2021-02-28T10:45:10Z</time>
      </trkpt>
      <trkpt lat="45.06993" lon="6.4665">
        <ele>2339</ele>
        <time>2021-02-28T10:45:11Z</time>
      </trkpt>
      <trkpt lat="45.06991" lon="6.46653">
        <ele>2339.8</ele>
        <time>2021-02-28T10:45:12Z</time>
      </trkpt>
      <trkpt lat="45.06991" lon="6.46653">
        <ele>2339.6</ele>
        <time>2021-02-28T10:45:13Z</time>
      </trkpt>
      <trkpt lat="45.0699" lon="6.46656">
        <ele>2339.8</ele>
        <time>2021-02-28T10:45:14Z</time>
      </trkpt>
      <trkpt lat="45.0699" lon="6.46656">
        <ele>2340.6</ele>
        <time>2021-02-28T10:45:15Z</time>
      </trkpt>
      <trkpt lat="45.06989" lon="6.46658">
        <ele>2340.8</ele>
        <time>2021-02-28T10:45:16Z</time>
      </trkpt>
      <trkpt lat="45.06989" lon="6.46658">
        <ele>2340.6</ele>
        <time>2021-02-28T10:45:17Z</time>
      </trkpt>
      <trkpt lat="45.06988" lon="6.46662">
        <ele>2340.2</ele>
        <time>2021-02-28T10:45:18Z</time>
      </trkpt>
      <trkpt lat="45.06988" lon="6.46662">
        <ele>2340.8</ele>
        <time>2021-02-28T10:45:19Z</time>
      </trkpt>
      <trkpt lat="45.06987" lon="6.46664">
        <ele>2341.4</ele>
        <time>2021-02-28T10:45:20Z</time>
      </trkpt>
      <trkpt lat="45.06987" lon="6.46664">
        <ele>2341.4</ele>
        <time>2021-02-28T10:45:21Z</time>
      </trkpt>
      <trkpt lat="45.06986" lon="6.46667">
        <ele>2341.6</ele>
        <time>2021-02-28T10:45:22Z</time>
      </trkpt>
      <trkpt lat="45.06986" lon="6.46667">
        <ele>2341</ele>
        <time>2021-02-28T10:45:23Z</time>
      </trkpt>
      <trkpt lat="45.06985" lon="6.4667">
        <ele>2341</ele>
        <time>2021-02-28T10:45:24Z</time>
      </trkpt>
      <trkpt lat="45.06985" lon="6.4667">
        <ele>2341</ele>
        <time>2021-02-28T10:45:25Z</time>
      </trkpt>
      <trkpt lat="45.06984" lon="6.46674">
        <ele>2340.8</ele>
        <time>2021-02-28T10:45:26Z</time>
      </trkpt>
      <trkpt lat="45.06984" lon="6.46674">
        <ele>2341.4</ele>
        <time>2021-02-28T10:45:27Z</time>
      </trkpt>
      <trkpt lat="45.06983" lon="6.46678">
        <ele>2341.2</ele>
        <time>2021-02-28T10:45:28Z</time>
      </trkpt>
      <trkpt lat="45.06983" lon="6.46678">
        <ele>2342</ele>
        <time>2021-02-28T10:45:29Z</time>
      </trkpt>
      <trkpt lat="45.06982" lon="6.46681">
        <ele>2342.2</ele>
        <time>2021-02-28T10:45:30Z</time>
      </trkpt>
      <trkpt lat="45.06981" lon="6.46684">
        <ele>2341.6</ele>
        <time>2021-02-28T10:45:31Z</time>
      </trkpt>
      <trkpt lat="45.06981" lon="6.46684">
        <ele>2342.4</ele>
        <time>2021-02-28T10:45:32Z</time>
      </trkpt>
      <trkpt lat="45.0698" lon="6.46688">
        <ele>2342.2</ele>
        <time>2021-02-28T10:45:33Z</time>
      </trkpt>
      <trkpt lat="45.0698" lon="6.46688">
        <ele>2342.8</ele>
        <time>2021-02-28T10:45:34Z</time>
      </trkpt>
      <trkpt lat="45.06978" lon="6.46692">
        <ele>2342.2</ele>
        <time>2021-02-28T10:45:35Z</time>
      </trkpt>
      <trkpt lat="45.06978" lon="6.46692">
        <ele>2342.6</ele>
        <time>2021-02-28T10:45:36Z</time>
      </trkpt>
      <trkpt lat="45.06976" lon="6.46696">
        <ele>2342.2</ele>
        <time>2021-02-28T10:45:37Z</time>
      </trkpt>
      <trkpt lat="45.06976" lon="6.46696">
        <ele>2342.2</ele>
        <time>2021-02-28T10:45:38Z</time>
      </trkpt>
      <trkpt lat="45.06975" lon="6.467">
        <ele>2341.8</ele>
        <time>2021-02-28T10:45:39Z</time>
      </trkpt>
      <trkpt lat="45.06975" lon="6.467">
        <ele>2342.6</ele>
        <time>2021-02-28T10:45:40Z</time>
      </trkpt>
      <trkpt lat="45.06973" lon="6.46704">
        <ele>2342.2</ele>
        <time>2021-02-28T10:45:41Z</time>
      </trkpt>
      <trkpt lat="45.06973" lon="6.46704">
        <ele>2342.8</ele>
        <time>2021-02-28T10:45:42Z</time>
      </trkpt>
      <trkpt lat="45.06972" lon="6.46707">
        <ele>2343</ele>
        <time>2021-02-28T10:45:43Z</time>
      </trkpt>
      <trkpt lat="45.06972" lon="6.46707">
        <ele>2342.8</ele>
        <time>2021-02-28T10:45:44Z</time>
      </trkpt>
      <trkpt lat="45.06971" lon="6.4671">
        <ele>2343</ele>
        <time>2021-02-28T10:45:45Z</time>
      </trkpt>
      <trkpt lat="45.06971" lon="6.4671">
        <ele>2342.6</ele>
        <time>2021-02-28T10:45:46Z</time>
      </trkpt>
      <trkpt lat="45.06969" lon="6.46713">
        <ele>2343</ele>
        <time>2021-02-28T10:45:47Z</time>
      </trkpt>
      <trkpt lat="45.06969" lon="6.46713">
        <ele>2343.4</ele>
        <time>2021-02-28T10:45:48Z</time>
      </trkpt>
      <trkpt lat="45.06967" lon="6.46717">
        <ele>2343.6</ele>
        <time>2021-02-28T10:45:49Z</time>
      </trkpt>
      <trkpt lat="45.06967" lon="6.46717">
        <ele>2344.2</ele>
        <time>2021-02-28T10:45:50Z</time>
      </trkpt>
      <trkpt lat="45.06966" lon="6.46721">
        <ele>2343.6</ele>
        <time>2021-02-28T10:45:51Z</time>
      </trkpt>
      <trkpt lat="45.06966" lon="6.46721">
        <ele>2343.6</ele>
        <time>2021-02-28T10:45:52Z</time>
      </trkpt>
      <trkpt lat="45.06964" lon="6.46725">
        <ele>2344.6</ele>
        <time>2021-02-28T10:45:53Z</time>
      </trkpt>
      <trkpt lat="45.06964" lon="6.46725">
        <ele>2344.4</ele>
        <time>2021-02-28T10:45:54Z</time>
      </trkpt>
      <trkpt lat="45.06963" lon="6.46727">
        <ele>2345.2</ele>
        <time>2021-02-28T10:45:55Z</time>
      </trkpt>
      <trkpt lat="45.06963" lon="6.46727">
        <ele>2344.6</ele>
        <time>2021-02-28T10:45:56Z</time>
      </trkpt>
      <trkpt lat="45.06962" lon="6.4673">
        <ele>2344.2</ele>
        <time>2021-02-28T10:45:57Z</time>
      </trkpt>
      <trkpt lat="45.06962" lon="6.4673">
        <ele>2344.8</ele>
        <time>2021-02-28T10:45:58Z</time>
      </trkpt>
      <trkpt lat="45.06961" lon="6.46734">
        <ele>2344.8</ele>
        <time>2021-02-28T10:45:59Z</time>
      </trkpt>
      <trkpt lat="45.06961" lon="6.46734">
        <ele>2345.6</ele>
        <time>2021-02-28T10:46:00Z</time>
      </trkpt>
      <trkpt lat="45.0696" lon="6.46737">
        <ele>2346</ele>
        <time>2021-02-28T10:46:01Z</time>
      </trkpt>
      <trkpt lat="45.0696" lon="6.46737">
        <ele>2346.2</ele>
        <time>2021-02-28T10:46:02Z</time>
      </trkpt>
      <trkpt lat="45.0696" lon="6.46741">
        <ele>2346.6</ele>
        <time>2021-02-28T10:46:03Z</time>
      </trkpt>
      <trkpt lat="45.0696" lon="6.46741">
        <ele>2346.8</ele>
        <time>2021-02-28T10:46:04Z</time>
      </trkpt>
      <trkpt lat="45.06959" lon="6.46745">
        <ele>2346</ele>
        <time>2021-02-28T10:46:05Z</time>
      </trkpt>
      <trkpt lat="45.06959" lon="6.46745">
        <ele>2346.6</ele>
        <time>2021-02-28T10:46:06Z</time>
      </trkpt>
      <trkpt lat="45.0696" lon="6.46749">
        <ele>2346.6</ele>
        <time>2021-02-28T10:46:07Z</time>
      </trkpt>
      <trkpt lat="45.0696" lon="6.46749">
        <ele>2346.6</ele>
        <time>2021-02-28T10:46:08Z</time>
      </trkpt>
      <trkpt lat="45.06959" lon="6.46752">
        <ele>2346.6</ele>
        <time>2021-02-28T10:46:09Z</time>
      </trkpt>
      <trkpt lat="45.06959" lon="6.46752">
        <ele>2346.8</ele>
        <time>2021-02-28T10:46:10Z</time>
      </trkpt>
      <trkpt lat="45.0696" lon="6.46756">
        <ele>2346.6</ele>
        <time>2021-02-28T10:46:11Z</time>
      </trkpt>
      <trkpt lat="45.0696" lon="6.46756">
        <ele>2347</ele>
        <time>2021-02-28T10:46:12Z</time>
      </trkpt>
      <trkpt lat="45.0696" lon="6.46761">
        <ele>2347</ele>
        <time>2021-02-28T10:46:13Z</time>
      </trkpt>
      <trkpt lat="45.0696" lon="6.46764">
        <ele>2346.6</ele>
        <time>2021-02-28T10:46:14Z</time>
      </trkpt>
      <trkpt lat="45.0696" lon="6.46764">
        <ele>2346.6</ele>
        <time>2021-02-28T10:46:15Z</time>
      </trkpt>
      <trkpt lat="45.0696" lon="6.46768">
        <ele>2346.4</ele>
        <time>2021-02-28T10:46:16Z</time>
      </trkpt>
      <trkpt lat="45.0696" lon="6.4677">
        <ele>2345.8</ele>
        <time>2021-02-28T10:46:17Z</time>
      </trkpt>
      <trkpt lat="45.0696" lon="6.4677">
        <ele>2345.6</ele>
        <time>2021-02-28T10:46:18Z</time>
      </trkpt>
      <trkpt lat="45.06961" lon="6.46775">
        <ele>2345.6</ele>
        <time>2021-02-28T10:46:19Z</time>
      </trkpt>
      <trkpt lat="45.06961" lon="6.46778">
        <ele>2345.4</ele>
        <time>2021-02-28T10:46:20Z</time>
      </trkpt>
      <trkpt lat="45.06961" lon="6.46778">
        <ele>2345.6</ele>
        <time>2021-02-28T10:46:21Z</time>
      </trkpt>
      <trkpt lat="45.06961" lon="6.46782">
        <ele>2345.6</ele>
        <time>2021-02-28T10:46:22Z</time>
      </trkpt>
      <trkpt lat="45.06961" lon="6.46782">
        <ele>2346</ele>
        <time>2021-02-28T10:46:23Z</time>
      </trkpt>
      <trkpt lat="45.06961" lon="6.46787">
        <ele>2345.6</ele>
        <time>2021-02-28T10:46:24Z</time>
      </trkpt>
      <trkpt lat="45.06961" lon="6.4679">
        <ele>2346.2</ele>
        <time>2021-02-28T10:46:25Z</time>
      </trkpt>
      <trkpt lat="45.0696" lon="6.46792">
        <ele>2345.6</ele>
        <time>2021-02-28T10:46:26Z</time>
      </trkpt>
      <trkpt lat="45.0696" lon="6.46792">
        <ele>2345.2</ele>
        <time>2021-02-28T10:46:27Z</time>
      </trkpt>
      <trkpt lat="45.0696" lon="6.46797">
        <ele>2345.2</ele>
        <time>2021-02-28T10:46:28Z</time>
      </trkpt>
      <trkpt lat="45.0696" lon="6.46799">
        <ele>2345.8</ele>
        <time>2021-02-28T10:46:29Z</time>
      </trkpt>
      <trkpt lat="45.06959" lon="6.46802">
        <ele>2345.8</ele>
        <time>2021-02-28T10:46:30Z</time>
      </trkpt>
      <trkpt lat="45.06959" lon="6.46802">
        <ele>2346.4</ele>
        <time>2021-02-28T10:46:31Z</time>
      </trkpt>
      <trkpt lat="45.06959" lon="6.46807">
        <ele>2345.4</ele>
        <time>2021-02-28T10:46:32Z</time>
      </trkpt>
      <trkpt lat="45.06959" lon="6.46807">
        <ele>2345.4</ele>
        <time>2021-02-28T10:46:33Z</time>
      </trkpt>
      <trkpt lat="45.06958" lon="6.46811">
        <ele>2346.2</ele>
        <time>2021-02-28T10:46:34Z</time>
      </trkpt>
      <trkpt lat="45.06958" lon="6.46811">
        <ele>2345.6</ele>
        <time>2021-02-28T10:46:35Z</time>
      </trkpt>
      <trkpt lat="45.06958" lon="6.46816">
        <ele>2346</ele>
        <time>2021-02-28T10:46:36Z</time>
      </trkpt>
      <trkpt lat="45.06958" lon="6.46816">
        <ele>2345.4</ele>
        <time>2021-02-28T10:46:37Z</time>
      </trkpt>
      <trkpt lat="45.06957" lon="6.4682">
        <ele>2346.4</ele>
        <time>2021-02-28T10:46:38Z</time>
      </trkpt>
      <trkpt lat="45.06957" lon="6.4682">
        <ele>2346.4</ele>
        <time>2021-02-28T10:46:39Z</time>
      </trkpt>
      <trkpt lat="45.06957" lon="6.46824">
        <ele>2346.6</ele>
        <time>2021-02-28T10:46:40Z</time>
      </trkpt>
      <trkpt lat="45.06957" lon="6.46824">
        <ele>2347</ele>
        <time>2021-02-28T10:46:41Z</time>
      </trkpt>
      <trkpt lat="45.06956" lon="6.46827">
        <ele>2347.6</ele>
        <time>2021-02-28T10:46:42Z</time>
      </trkpt>
      <trkpt lat="45.06956" lon="6.46827">
        <ele>2347.6</ele>
        <time>2021-02-28T10:46:43Z</time>
      </trkpt>
      <trkpt lat="45.06955" lon="6.4683">
        <ele>2347.4</ele>
        <time>2021-02-28T10:46:44Z</time>
      </trkpt>
      <trkpt lat="45.06955" lon="6.4683">
        <ele>2348</ele>
        <time>2021-02-28T10:46:45Z</time>
      </trkpt>
      <trkpt lat="45.06955" lon="6.46833">
        <ele>2348</ele>
        <time>2021-02-28T10:46:46Z</time>
      </trkpt>
      <trkpt lat="45.06955" lon="6.46833">
        <ele>2348.8</ele>
        <time>2021-02-28T10:46:47Z</time>
      </trkpt>
      <trkpt lat="45.06954" lon="6.46836">
        <ele>2348.6</ele>
        <time>2021-02-28T10:46:48Z</time>
      </trkpt>
      <trkpt lat="45.06954" lon="6.46836">
        <ele>2348.6</ele>
        <time>2021-02-28T10:46:49Z</time>
      </trkpt>
      <trkpt lat="45.06953" lon="6.46839">
        <ele>2348.8</ele>
        <time>2021-02-28T10:46:50Z</time>
      </trkpt>
      <trkpt lat="45.06953" lon="6.46839">
        <ele>2348.6</ele>
        <time>2021-02-28T10:46:51Z</time>
      </trkpt>
      <trkpt lat="45.06951" lon="6.46842">
        <ele>2349.4</ele>
        <time>2021-02-28T10:46:52Z</time>
      </trkpt>
      <trkpt lat="45.06951" lon="6.46842">
        <ele>2349</ele>
        <time>2021-02-28T10:46:53Z</time>
      </trkpt>
      <trkpt lat="45.0695" lon="6.46845">
        <ele>2349.8</ele>
        <time>2021-02-28T10:46:54Z</time>
      </trkpt>
      <trkpt lat="45.0695" lon="6.46845">
        <ele>2349.6</ele>
        <time>2021-02-28T10:46:55Z</time>
      </trkpt>
      <trkpt lat="45.06948" lon="6.46847">
        <ele>2350.4</ele>
        <time>2021-02-28T10:46:56Z</time>
      </trkpt>
      <trkpt lat="45.06948" lon="6.46847">
        <ele>2350.8</ele>
        <time>2021-02-28T10:46:57Z</time>
      </trkpt>
      <trkpt lat="45.06946" lon="6.4685">
        <ele>2350.8</ele>
        <time>2021-02-28T10:46:58Z</time>
      </trkpt>
      <trkpt lat="45.06946" lon="6.4685">
        <ele>2351.4</ele>
        <time>2021-02-28T10:46:59Z</time>
      </trkpt>
      <trkpt lat="45.06944" lon="6.46853">
        <ele>2351.8</ele>
        <time>2021-02-28T10:47:00Z</time>
      </trkpt>
      <trkpt lat="45.06944" lon="6.46853">
        <ele>2351.6</ele>
        <time>2021-02-28T10:47:01Z</time>
      </trkpt>
      <trkpt lat="45.06942" lon="6.46856">
        <ele>2351.6</ele>
        <time>2021-02-28T10:47:02Z</time>
      </trkpt>
      <trkpt lat="45.06942" lon="6.46856">
        <ele>2351.8</ele>
        <time>2021-02-28T10:47:03Z</time>
      </trkpt>
      <trkpt lat="45.0694" lon="6.46858">
        <ele>2351.8</ele>
        <time>2021-02-28T10:47:04Z</time>
      </trkpt>
      <trkpt lat="45.0694" lon="6.46858">
        <ele>2351.6</ele>
        <time>2021-02-28T10:47:05Z</time>
      </trkpt>
      <trkpt lat="45.06939" lon="6.4686">
        <ele>2352</ele>
        <time>2021-02-28T10:47:06Z</time>
      </trkpt>
      <trkpt lat="45.06939" lon="6.4686">
        <ele>2352.2</ele>
        <time>2021-02-28T10:47:07Z</time>
      </trkpt>
      <trkpt lat="45.06937" lon="6.46863">
        <ele>2352</ele>
        <time>2021-02-28T10:47:08Z</time>
      </trkpt>
      <trkpt lat="45.06937" lon="6.46863">
        <ele>2352.2</ele>
        <time>2021-02-28T10:47:09Z</time>
      </trkpt>
      <trkpt lat="45.06935" lon="6.46865">
        <ele>2351.2</ele>
        <time>2021-02-28T10:47:10Z</time>
      </trkpt>
      <trkpt lat="45.06935" lon="6.46865">
        <ele>2351.4</ele>
        <time>2021-02-28T10:47:11Z</time>
      </trkpt>
      <trkpt lat="45.06934" lon="6.46868">
        <ele>2352</ele>
        <time>2021-02-28T10:47:12Z</time>
      </trkpt>
      <trkpt lat="45.06934" lon="6.46868">
        <ele>2351.8</ele>
        <time>2021-02-28T10:47:13Z</time>
      </trkpt>
      <trkpt lat="45.06932" lon="6.4687">
        <ele>2352.6</ele>
        <time>2021-02-28T10:47:14Z</time>
      </trkpt>
      <trkpt lat="45.06932" lon="6.4687">
        <ele>2352.4</ele>
        <time>2021-02-28T10:47:15Z</time>
      </trkpt>
      <trkpt lat="45.06931" lon="6.46873">
        <ele>2353.4</ele>
        <time>2021-02-28T10:47:16Z</time>
      </trkpt>
      <trkpt lat="45.06931" lon="6.46873">
        <ele>2353</ele>
        <time>2021-02-28T10:47:17Z</time>
      </trkpt>
      <trkpt lat="45.0693" lon="6.46876">
        <ele>2353.6</ele>
        <time>2021-02-28T10:47:18Z</time>
      </trkpt>
      <trkpt lat="45.0693" lon="6.46876">
        <ele>2353.2</ele>
        <time>2021-02-28T10:47:19Z</time>
      </trkpt>
      <trkpt lat="45.06928" lon="6.46878">
        <ele>2353.4</ele>
        <time>2021-02-28T10:47:20Z</time>
      </trkpt>
      <trkpt lat="45.06928" lon="6.46878">
        <ele>2354</ele>
        <time>2021-02-28T10:47:21Z</time>
      </trkpt>
      <trkpt lat="45.06927" lon="6.46881">
        <ele>2354</ele>
        <time>2021-02-28T10:47:22Z</time>
      </trkpt>
      <trkpt lat="45.06927" lon="6.46881">
        <ele>2353.8</ele>
        <time>2021-02-28T10:47:23Z</time>
      </trkpt>
      <trkpt lat="45.06925" lon="6.46885">
        <ele>2354.2</ele>
        <time>2021-02-28T10:47:24Z</time>
      </trkpt>
      <trkpt lat="45.06925" lon="6.46885">
        <ele>2353.4</ele>
        <time>2021-02-28T10:47:25Z</time>
      </trkpt>
      <trkpt lat="45.06923" lon="6.46888">
        <ele>2353.6</ele>
        <time>2021-02-28T10:47:26Z</time>
      </trkpt>
      <trkpt lat="45.06923" lon="6.46888">
        <ele>2353.4</ele>
        <time>2021-02-28T10:47:27Z</time>
      </trkpt>
      <trkpt lat="45.06922" lon="6.46891">
        <ele>2353.4</ele>
        <time>2021-02-28T10:47:28Z</time>
      </trkpt>
      <trkpt lat="45.06922" lon="6.46891">
        <ele>2354.4</ele>
        <time>2021-02-28T10:47:29Z</time>
      </trkpt>
      <trkpt lat="45.0692" lon="6.46894">
        <ele>2354.8</ele>
        <time>2021-02-28T10:47:30Z</time>
      </trkpt>
      <trkpt lat="45.0692" lon="6.46894">
        <ele>2354.6</ele>
        <time>2021-02-28T10:47:31Z</time>
      </trkpt>
      <trkpt lat="45.06918" lon="6.46897">
        <ele>2354.8</ele>
        <time>2021-02-28T10:47:32Z</time>
      </trkpt>
      <trkpt lat="45.06918" lon="6.46897">
        <ele>2355.2</ele>
        <time>2021-02-28T10:47:33Z</time>
      </trkpt>
      <trkpt lat="45.06917" lon="6.46901">
        <ele>2355.6</ele>
        <time>2021-02-28T10:47:34Z</time>
      </trkpt>
      <trkpt lat="45.06917" lon="6.46901">
        <ele>2356</ele>
        <time>2021-02-28T10:47:35Z</time>
      </trkpt>
      <trkpt lat="45.06915" lon="6.46903">
        <ele>2356</ele>
        <time>2021-02-28T10:47:36Z</time>
      </trkpt>
      <trkpt lat="45.06915" lon="6.46903">
        <ele>2356</ele>
        <time>2021-02-28T10:47:37Z</time>
      </trkpt>
      <trkpt lat="45.06914" lon="6.46906">
        <ele>2356.6</ele>
        <time>2021-02-28T10:47:38Z</time>
      </trkpt>
      <trkpt lat="45.06914" lon="6.46906">
        <ele>2356</ele>
        <time>2021-02-28T10:47:39Z</time>
      </trkpt>
      <trkpt lat="45.06912" lon="6.46909">
        <ele>2356.4</ele>
        <time>2021-02-28T10:47:40Z</time>
      </trkpt>
      <trkpt lat="45.06912" lon="6.46909">
        <ele>2356.8</ele>
        <time>2021-02-28T10:47:41Z</time>
      </trkpt>
      <trkpt lat="45.06911" lon="6.46912">
        <ele>2356.4</ele>
        <time>2021-02-28T10:47:42Z</time>
      </trkpt>
      <trkpt lat="45.06911" lon="6.46912">
        <ele>2356.4</ele>
        <time>2021-02-28T10:47:43Z</time>
      </trkpt>
      <trkpt lat="45.06909" lon="6.46914">
        <ele>2356.6</ele>
        <time>2021-02-28T10:47:44Z</time>
      </trkpt>
      <trkpt lat="45.06909" lon="6.46914">
        <ele>2357</ele>
        <time>2021-02-28T10:47:45Z</time>
      </trkpt>
      <trkpt lat="45.06908" lon="6.46918">
        <ele>2357</ele>
        <time>2021-02-28T10:47:46Z</time>
      </trkpt>
      <trkpt lat="45.06908" lon="6.46918">
        <ele>2357.8</ele>
        <time>2021-02-28T10:47:47Z</time>
      </trkpt>
      <trkpt lat="45.06906" lon="6.46922">
        <ele>2358.2</ele>
        <time>2021-02-28T10:47:48Z</time>
      </trkpt>
      <trkpt lat="45.06906" lon="6.46922">
        <ele>2358</ele>
        <time>2021-02-28T10:47:49Z</time>
      </trkpt>
      <trkpt lat="45.06905" lon="6.46925">
        <ele>2358.4</ele>
        <time>2021-02-28T10:47:50Z</time>
      </trkpt>
      <trkpt lat="45.06905" lon="6.46925">
        <ele>2358</ele>
        <time>2021-02-28T10:47:51Z</time>
      </trkpt>
      <trkpt lat="45.06903" lon="6.46928">
        <ele>2358</ele>
        <time>2021-02-28T10:47:52Z</time>
      </trkpt>
      <trkpt lat="45.06903" lon="6.46928">
        <ele>2357.8</ele>
        <time>2021-02-28T10:47:53Z</time>
      </trkpt>
      <trkpt lat="45.06901" lon="6.46931">
        <ele>2358.4</ele>
        <time>2021-02-28T10:47:54Z</time>
      </trkpt>
      <trkpt lat="45.06901" lon="6.46931">
        <ele>2358.4</ele>
        <time>2021-02-28T10:47:55Z</time>
      </trkpt>
      <trkpt lat="45.069" lon="6.46934">
        <ele>2358.8</ele>
        <time>2021-02-28T10:47:56Z</time>
      </trkpt>
      <trkpt lat="45.069" lon="6.46934">
        <ele>2358.4</ele>
        <time>2021-02-28T10:47:57Z</time>
      </trkpt>
      <trkpt lat="45.06899" lon="6.46937">
        <ele>2359</ele>
        <time>2021-02-28T10:47:58Z</time>
      </trkpt>
      <trkpt lat="45.06899" lon="6.46937">
        <ele>2359.2</ele>
        <time>2021-02-28T10:47:59Z</time>
      </trkpt>
      <trkpt lat="45.06898" lon="6.46941">
        <ele>2358.8</ele>
        <time>2021-02-28T10:48:00Z</time>
      </trkpt>
      <trkpt lat="45.06898" lon="6.46941">
        <ele>2359.4</ele>
        <time>2021-02-28T10:48:01Z</time>
      </trkpt>
      <trkpt lat="45.06897" lon="6.46944">
        <ele>2359</ele>
        <time>2021-02-28T10:48:02Z</time>
      </trkpt>
      <trkpt lat="45.06897" lon="6.46944">
        <ele>2358.6</ele>
        <time>2021-02-28T10:48:03Z</time>
      </trkpt>
      <trkpt lat="45.06895" lon="6.46948">
        <ele>2359.2</ele>
        <time>2021-02-28T10:48:04Z</time>
      </trkpt>
      <trkpt lat="45.06895" lon="6.46948">
        <ele>2359.4</ele>
        <time>2021-02-28T10:48:05Z</time>
      </trkpt>
      <trkpt lat="45.06894" lon="6.46952">
        <ele>2360</ele>
        <time>2021-02-28T10:48:06Z</time>
      </trkpt>
      <trkpt lat="45.06894" lon="6.46952">
        <ele>2360.2</ele>
        <time>2021-02-28T10:48:07Z</time>
      </trkpt>
      <trkpt lat="45.06892" lon="6.46956">
        <ele>2359.4</ele>
        <time>2021-02-28T10:48:08Z</time>
      </trkpt>
      <trkpt lat="45.06892" lon="6.46956">
        <ele>2358.8</ele>
        <time>2021-02-28T10:48:09Z</time>
      </trkpt>
      <trkpt lat="45.06891" lon="6.46959">
        <ele>2358</ele>
        <time>2021-02-28T10:48:10Z</time>
      </trkpt>
      <trkpt lat="45.06891" lon="6.46959">
        <ele>2358.2</ele>
        <time>2021-02-28T10:48:11Z</time>
      </trkpt>
      <trkpt lat="45.0689" lon="6.46963">
        <ele>2358</ele>
        <time>2021-02-28T10:48:12Z</time>
      </trkpt>
      <trkpt lat="45.0689" lon="6.46963">
        <ele>2358.6</ele>
        <time>2021-02-28T10:48:13Z</time>
      </trkpt>
      <trkpt lat="45.06889" lon="6.46966">
        <ele>2356.8</ele>
        <time>2021-02-28T10:48:14Z</time>
      </trkpt>
      <trkpt lat="45.06889" lon="6.46966">
        <ele>2357</ele>
        <time>2021-02-28T10:48:15Z</time>
      </trkpt>
      <trkpt lat="45.06888" lon="6.4697">
        <ele>2358</ele>
        <time>2021-02-28T10:48:16Z</time>
      </trkpt>
      <trkpt lat="45.06888" lon="6.4697">
        <ele>2357.4</ele>
        <time>2021-02-28T10:48:17Z</time>
      </trkpt>
      <trkpt lat="45.06887" lon="6.46973">
        <ele>2358.4</ele>
        <time>2021-02-28T10:48:18Z</time>
      </trkpt>
      <trkpt lat="45.06887" lon="6.46973">
        <ele>2358.8</ele>
        <time>2021-02-28T10:48:19Z</time>
      </trkpt>
      <trkpt lat="45.06885" lon="6.46976">
        <ele>2358.8</ele>
        <time>2021-02-28T10:48:20Z</time>
      </trkpt>
      <trkpt lat="45.06885" lon="6.46976">
        <ele>2359.2</ele>
        <time>2021-02-28T10:48:21Z</time>
      </trkpt>
      <trkpt lat="45.06884" lon="6.46979">
        <ele>2359.2</ele>
        <time>2021-02-28T10:48:22Z</time>
      </trkpt>
      <trkpt lat="45.06884" lon="6.46979">
        <ele>2359.2</ele>
        <time>2021-02-28T10:48:23Z</time>
      </trkpt>
      <trkpt lat="45.06883" lon="6.46982">
        <ele>2359.4</ele>
        <time>2021-02-28T10:48:24Z</time>
      </trkpt>
      <trkpt lat="45.06883" lon="6.46982">
        <ele>2359.2</ele>
        <time>2021-02-28T10:48:25Z</time>
      </trkpt>
      <trkpt lat="45.06882" lon="6.46985">
        <ele>2360</ele>
        <time>2021-02-28T10:48:26Z</time>
      </trkpt>
      <trkpt lat="45.06882" lon="6.46985">
        <ele>2360</ele>
        <time>2021-02-28T10:48:27Z</time>
      </trkpt>
      <trkpt lat="45.06881" lon="6.46988">
        <ele>2359.8</ele>
        <time>2021-02-28T10:48:28Z</time>
      </trkpt>
      <trkpt lat="45.06881" lon="6.46988">
        <ele>2360.4</ele>
        <time>2021-02-28T10:48:29Z</time>
      </trkpt>
      <trkpt lat="45.0688" lon="6.4699">
        <ele>2360.4</ele>
        <time>2021-02-28T10:48:30Z</time>
      </trkpt>
      <trkpt lat="45.0688" lon="6.4699">
        <ele>2360.2</ele>
        <time>2021-02-28T10:48:31Z</time>
      </trkpt>
      <trkpt lat="45.06879" lon="6.46993">
        <ele>2360.6</ele>
        <time>2021-02-28T10:48:32Z</time>
      </trkpt>
      <trkpt lat="45.06879" lon="6.46993">
        <ele>2359.6</ele>
        <time>2021-02-28T10:48:33Z</time>
      </trkpt>
      <trkpt lat="45.06877" lon="6.46996">
        <ele>2359.8</ele>
        <time>2021-02-28T10:48:34Z</time>
      </trkpt>
      <trkpt lat="45.06877" lon="6.46996">
        <ele>2360.6</ele>
        <time>2021-02-28T10:48:35Z</time>
      </trkpt>
      <trkpt lat="45.06877" lon="6.46999">
        <ele>2360.8</ele>
        <time>2021-02-28T10:48:36Z</time>
      </trkpt>
      <trkpt lat="45.06877" lon="6.46999">
        <ele>2361.2</ele>
        <time>2021-02-28T10:48:37Z</time>
      </trkpt>
      <trkpt lat="45.06876" lon="6.47002">
        <ele>2361.4</ele>
        <time>2021-02-28T10:48:38Z</time>
      </trkpt>
      <trkpt lat="45.06876" lon="6.47002">
        <ele>2361.6</ele>
        <time>2021-02-28T10:48:39Z</time>
      </trkpt>
      <trkpt lat="45.06875" lon="6.47005">
        <ele>2361.4</ele>
        <time>2021-02-28T10:48:40Z</time>
      </trkpt>
      <trkpt lat="45.06875" lon="6.47005">
        <ele>2361.6</ele>
        <time>2021-02-28T10:48:41Z</time>
      </trkpt>
      <trkpt lat="45.06874" lon="6.47008">
        <ele>2361.4</ele>
        <time>2021-02-28T10:48:42Z</time>
      </trkpt>
      <trkpt lat="45.06874" lon="6.47008">
        <ele>2362.2</ele>
        <time>2021-02-28T10:48:43Z</time>
      </trkpt>
      <trkpt lat="45.06873" lon="6.47011">
        <ele>2362.2</ele>
        <time>2021-02-28T10:48:44Z</time>
      </trkpt>
      <trkpt lat="45.06873" lon="6.47011">
        <ele>2362.2</ele>
        <time>2021-02-28T10:48:45Z</time>
      </trkpt>
      <trkpt lat="45.06873" lon="6.47013">
        <ele>2362.4</ele>
        <time>2021-02-28T10:48:46Z</time>
      </trkpt>
      <trkpt lat="45.06873" lon="6.47013">
        <ele>2362.6</ele>
        <time>2021-02-28T10:48:47Z</time>
      </trkpt>
      <trkpt lat="45.06871" lon="6.47016">
        <ele>2362.6</ele>
        <time>2021-02-28T10:48:48Z</time>
      </trkpt>
      <trkpt lat="45.06871" lon="6.47016">
        <ele>2363</ele>
        <time>2021-02-28T10:48:49Z</time>
      </trkpt>
      <trkpt lat="45.06871" lon="6.47019">
        <ele>2362.6</ele>
        <time>2021-02-28T10:48:50Z</time>
      </trkpt>
      <trkpt lat="45.06871" lon="6.47019">
        <ele>2362.2</ele>
        <time>2021-02-28T10:48:51Z</time>
      </trkpt>
      <trkpt lat="45.0687" lon="6.47022">
        <ele>2362.6</ele>
        <time>2021-02-28T10:48:52Z</time>
      </trkpt>
      <trkpt lat="45.0687" lon="6.47022">
        <ele>2362.8</ele>
        <time>2021-02-28T10:48:53Z</time>
      </trkpt>
      <trkpt lat="45.06869" lon="6.47025">
        <ele>2362.8</ele>
        <time>2021-02-28T10:48:54Z</time>
      </trkpt>
      <trkpt lat="45.06869" lon="6.47025">
        <ele>2363.4</ele>
        <time>2021-02-28T10:48:55Z</time>
      </trkpt>
      <trkpt lat="45.06868" lon="6.47028">
        <ele>2363.6</ele>
        <time>2021-02-28T10:48:56Z</time>
      </trkpt>
      <trkpt lat="45.06868" lon="6.47028">
        <ele>2364</ele>
        <time>2021-02-28T10:48:57Z</time>
      </trkpt>
      <trkpt lat="45.06867" lon="6.4703">
        <ele>2364.4</ele>
        <time>2021-02-28T10:48:58Z</time>
      </trkpt>
      <trkpt lat="45.06867" lon="6.4703">
        <ele>2364.4</ele>
        <time>2021-02-28T10:48:59Z</time>
      </trkpt>
      <trkpt lat="45.06867" lon="6.47033">
        <ele>2364.8</ele>
        <time>2021-02-28T10:49:00Z</time>
      </trkpt>
      <trkpt lat="45.06867" lon="6.47033">
        <ele>2364.8</ele>
        <time>2021-02-28T10:49:01Z</time>
      </trkpt>
      <trkpt lat="45.06866" lon="6.47036">
        <ele>2364.6</ele>
        <time>2021-02-28T10:49:02Z</time>
      </trkpt>
      <trkpt lat="45.06866" lon="6.47036">
        <ele>2365</ele>
        <time>2021-02-28T10:49:03Z</time>
      </trkpt>
      <trkpt lat="45.06866" lon="6.47039">
        <ele>2365.2</ele>
        <time>2021-02-28T10:49:04Z</time>
      </trkpt>
      <trkpt lat="45.06866" lon="6.47039">
        <ele>2364.4</ele>
        <time>2021-02-28T10:49:05Z</time>
      </trkpt>
      <trkpt lat="45.06866" lon="6.47042">
        <ele>2365</ele>
        <time>2021-02-28T10:49:06Z</time>
      </trkpt>
      <trkpt lat="45.06866" lon="6.47042">
        <ele>2365</ele>
        <time>2021-02-28T10:49:07Z</time>
      </trkpt>
      <trkpt lat="45.06867" lon="6.47045">
        <ele>2365</ele>
        <time>2021-02-28T10:49:08Z</time>
      </trkpt>
      <trkpt lat="45.06867" lon="6.47045">
        <ele>2365.4</ele>
        <time>2021-02-28T10:49:09Z</time>
      </trkpt>
      <trkpt lat="45.06867" lon="6.47048">
        <ele>2365.4</ele>
        <time>2021-02-28T10:49:10Z</time>
      </trkpt>
      <trkpt lat="45.06867" lon="6.47048">
        <ele>2365.6</ele>
        <time>2021-02-28T10:49:11Z</time>
      </trkpt>
      <trkpt lat="45.06868" lon="6.4705">
        <ele>2365.8</ele>
        <time>2021-02-28T10:49:12Z</time>
      </trkpt>
      <trkpt lat="45.06868" lon="6.4705">
        <ele>2365.8</ele>
        <time>2021-02-28T10:49:13Z</time>
      </trkpt>
      <trkpt lat="45.06869" lon="6.47053">
        <ele>2365.8</ele>
        <time>2021-02-28T10:49:14Z</time>
      </trkpt>
      <trkpt lat="45.06869" lon="6.47053">
        <ele>2366.6</ele>
        <time>2021-02-28T10:49:15Z</time>
      </trkpt>
      <trkpt lat="45.06869" lon="6.47056">
        <ele>2366.6</ele>
        <time>2021-02-28T10:49:16Z</time>
      </trkpt>
      <trkpt lat="45.06869" lon="6.47056">
        <ele>2366.6</ele>
        <time>2021-02-28T10:49:17Z</time>
      </trkpt>
      <trkpt lat="45.06869" lon="6.47059">
        <ele>2366.8</ele>
        <time>2021-02-28T10:49:18Z</time>
      </trkpt>
      <trkpt lat="45.06869" lon="6.47059">
        <ele>2366.6</ele>
        <time>2021-02-28T10:49:19Z</time>
      </trkpt>
      <trkpt lat="45.0687" lon="6.47064">
        <ele>2366.8</ele>
        <time>2021-02-28T10:49:20Z</time>
      </trkpt>
      <trkpt lat="45.0687" lon="6.47064">
        <ele>2367</ele>
        <time>2021-02-28T10:49:21Z</time>
      </trkpt>
      <trkpt lat="45.0687" lon="6.47067">
        <ele>2366.4</ele>
        <time>2021-02-28T10:49:22Z</time>
      </trkpt>
      <trkpt lat="45.0687" lon="6.47067">
        <ele>2366.6</ele>
        <time>2021-02-28T10:49:23Z</time>
      </trkpt>
      <trkpt lat="45.0687" lon="6.47067">
        <ele>2366.8</ele>
        <time>2021-02-28T10:49:24Z</time>
      </trkpt>
      <trkpt lat="45.0687" lon="6.47071">
        <ele>2366.8</ele>
        <time>2021-02-28T10:49:25Z</time>
      </trkpt>
      <trkpt lat="45.0687" lon="6.47071">
        <ele>2367.2</ele>
        <time>2021-02-28T10:49:26Z</time>
      </trkpt>
      <trkpt lat="45.06871" lon="6.47073">
        <ele>2367</ele>
        <time>2021-02-28T10:49:27Z</time>
      </trkpt>
      <trkpt lat="45.06871" lon="6.47073">
        <ele>2367</ele>
        <time>2021-02-28T10:49:28Z</time>
      </trkpt>
      <trkpt lat="45.06871" lon="6.47076">
        <ele>2367.4</ele>
        <time>2021-02-28T10:49:29Z</time>
      </trkpt>
      <trkpt lat="45.06871" lon="6.47076">
        <ele>2367.8</ele>
        <time>2021-02-28T10:49:30Z</time>
      </trkpt>
      <trkpt lat="45.06872" lon="6.47079">
        <ele>2366.6</ele>
        <time>2021-02-28T10:49:31Z</time>
      </trkpt>
      <trkpt lat="45.06872" lon="6.47079">
        <ele>2367.4</ele>
        <time>2021-02-28T10:49:32Z</time>
      </trkpt>
      <trkpt lat="45.06873" lon="6.47082">
        <ele>2366.8</ele>
        <time>2021-02-28T10:49:33Z</time>
      </trkpt>
      <trkpt lat="45.06873" lon="6.47082">
        <ele>2366.6</ele>
        <time>2021-02-28T10:49:34Z</time>
      </trkpt>
      <trkpt lat="45.06874" lon="6.47085">
        <ele>2367</ele>
        <time>2021-02-28T10:49:35Z</time>
      </trkpt>
      <trkpt lat="45.06874" lon="6.47085">
        <ele>2367.4</ele>
        <time>2021-02-28T10:49:36Z</time>
      </trkpt>
      <trkpt lat="45.06874" lon="6.47088">
        <ele>2367.8</ele>
        <time>2021-02-28T10:49:37Z</time>
      </trkpt>
      <trkpt lat="45.06874" lon="6.47088">
        <ele>2367.6</ele>
        <time>2021-02-28T10:49:38Z</time>
      </trkpt>
      <trkpt lat="45.06874" lon="6.47091">
        <ele>2368</ele>
        <time>2021-02-28T10:49:39Z</time>
      </trkpt>
      <trkpt lat="45.06874" lon="6.47091">
        <ele>2368.4</ele>
        <time>2021-02-28T10:49:40Z</time>
      </trkpt>
      <trkpt lat="45.06875" lon="6.47093">
        <ele>2368</ele>
        <time>2021-02-28T10:49:41Z</time>
      </trkpt>
      <trkpt lat="45.06875" lon="6.47093">
        <ele>2368.2</ele>
        <time>2021-02-28T10:49:42Z</time>
      </trkpt>
      <trkpt lat="45.06875" lon="6.47093">
        <ele>2368.8</ele>
        <time>2021-02-28T10:49:43Z</time>
      </trkpt>
      <trkpt lat="45.06875" lon="6.47097">
        <ele>2368.8</ele>
        <time>2021-02-28T10:49:44Z</time>
      </trkpt>
      <trkpt lat="45.06875" lon="6.47097">
        <ele>2368.8</ele>
        <time>2021-02-28T10:49:45Z</time>
      </trkpt>
      <trkpt lat="45.06875" lon="6.47097">
        <ele>2369.4</ele>
        <time>2021-02-28T10:49:46Z</time>
      </trkpt>
      <trkpt lat="45.06875" lon="6.47101">
        <ele>2369.4</ele>
        <time>2021-02-28T10:49:47Z</time>
      </trkpt>
      <trkpt lat="45.06875" lon="6.47101">
        <ele>2370.2</ele>
        <time>2021-02-28T10:49:48Z</time>
      </trkpt>
      <trkpt lat="45.06875" lon="6.47101">
        <ele>2370.2</ele>
        <time>2021-02-28T10:49:49Z</time>
      </trkpt>
      <trkpt lat="45.06875" lon="6.47105">
        <ele>2370.2</ele>
        <time>2021-02-28T10:49:50Z</time>
      </trkpt>
      <trkpt lat="45.06875" lon="6.47105">
        <ele>2371.2</ele>
        <time>2021-02-28T10:49:51Z</time>
      </trkpt>
      <trkpt lat="45.06876" lon="6.47107">
        <ele>2370.2</ele>
        <time>2021-02-28T10:49:52Z</time>
      </trkpt>
      <trkpt lat="45.06876" lon="6.47107">
        <ele>2370.2</ele>
        <time>2021-02-28T10:49:53Z</time>
      </trkpt>
      <trkpt lat="45.06876" lon="6.4711">
        <ele>2371</ele>
        <time>2021-02-28T10:49:54Z</time>
      </trkpt>
      <trkpt lat="45.06876" lon="6.4711">
        <ele>2370.6</ele>
        <time>2021-02-28T10:49:55Z</time>
      </trkpt>
      <trkpt lat="45.06877" lon="6.47113">
        <ele>2371</ele>
        <time>2021-02-28T10:49:56Z</time>
      </trkpt>
      <trkpt lat="45.06877" lon="6.47113">
        <ele>2371.4</ele>
        <time>2021-02-28T10:49:57Z</time>
      </trkpt>
      <trkpt lat="45.06877" lon="6.47117">
        <ele>2371.8</ele>
        <time>2021-02-28T10:49:58Z</time>
      </trkpt>
      <trkpt lat="45.06877" lon="6.47117">
        <ele>2372.4</ele>
        <time>2021-02-28T10:49:59Z</time>
      </trkpt>
      <trkpt lat="45.06877" lon="6.47119">
        <ele>2372.4</ele>
        <time>2021-02-28T10:50:00Z</time>
      </trkpt>
      <trkpt lat="45.06877" lon="6.47119">
        <ele>2372.8</ele>
        <time>2021-02-28T10:50:01Z</time>
      </trkpt>
      <trkpt lat="45.06877" lon="6.47122">
        <ele>2373</ele>
        <time>2021-02-28T10:50:02Z</time>
      </trkpt>
      <trkpt lat="45.06877" lon="6.47122">
        <ele>2372.8</ele>
        <time>2021-02-28T10:50:03Z</time>
      </trkpt>
      <trkpt lat="45.06877" lon="6.47122">
        <ele>2372.8</ele>
        <time>2021-02-28T10:50:04Z</time>
      </trkpt>
      <trkpt lat="45.06877" lon="6.47125">
        <ele>2373.2</ele>
        <time>2021-02-28T10:50:05Z</time>
      </trkpt>
      <trkpt lat="45.06877" lon="6.47125">
        <ele>2373</ele>
        <time>2021-02-28T10:50:06Z</time>
      </trkpt>
      <trkpt lat="45.06877" lon="6.47128">
        <ele>2373.4</ele>
        <time>2021-02-28T10:50:07Z</time>
      </trkpt>
      <trkpt lat="45.06877" lon="6.47128">
        <ele>2373.6</ele>
        <time>2021-02-28T10:50:08Z</time>
      </trkpt>
      <trkpt lat="45.06877" lon="6.4713">
        <ele>2373.8</ele>
        <time>2021-02-28T10:50:09Z</time>
      </trkpt>
      <trkpt lat="45.06877" lon="6.4713">
        <ele>2373.6</ele>
        <time>2021-02-28T10:50:10Z</time>
      </trkpt>
      <trkpt lat="45.06877" lon="6.4713">
        <ele>2374.2</ele>
        <time>2021-02-28T10:50:11Z</time>
      </trkpt>
      <trkpt lat="45.06876" lon="6.47134">
        <ele>2374.8</ele>
        <time>2021-02-28T10:50:12Z</time>
      </trkpt>
      <trkpt lat="45.06876" lon="6.47134">
        <ele>2374.6</ele>
        <time>2021-02-28T10:50:13Z</time>
      </trkpt>
      <trkpt lat="45.06876" lon="6.47134">
        <ele>2374.8</ele>
        <time>2021-02-28T10:50:14Z</time>
      </trkpt>
      <trkpt lat="45.06876" lon="6.47138">
        <ele>2374.8</ele>
        <time>2021-02-28T10:50:15Z</time>
      </trkpt>
      <trkpt lat="45.06876" lon="6.47138">
        <ele>2375</ele>
        <time>2021-02-28T10:50:16Z</time>
      </trkpt>
      <trkpt lat="45.06876" lon="6.47138">
        <ele>2375.6</ele>
        <time>2021-02-28T10:50:17Z</time>
      </trkpt>
      <trkpt lat="45.06876" lon="6.47141">
        <ele>2376</ele>
        <time>2021-02-28T10:50:18Z</time>
      </trkpt>
      <trkpt lat="45.06876" lon="6.47141">
        <ele>2375.8</ele>
        <time>2021-02-28T10:50:19Z</time>
      </trkpt>
      <trkpt lat="45.06876" lon="6.47144">
        <ele>2376</ele>
        <time>2021-02-28T10:50:20Z</time>
      </trkpt>
      <trkpt lat="45.06876" lon="6.47144">
        <ele>2376.2</ele>
        <time>2021-02-28T10:50:21Z</time>
      </trkpt>
      <trkpt lat="45.06876" lon="6.47147">
        <ele>2376.8</ele>
        <time>2021-02-28T10:50:22Z</time>
      </trkpt>
      <trkpt lat="45.06876" lon="6.47147">
        <ele>2377</ele>
        <time>2021-02-28T10:50:23Z</time>
      </trkpt>
      <trkpt lat="45.06876" lon="6.47147">
        <ele>2377.6</ele>
        <time>2021-02-28T10:50:24Z</time>
      </trkpt>
      <trkpt lat="45.06875" lon="6.4715">
        <ele>2378.2</ele>
        <time>2021-02-28T10:50:25Z</time>
      </trkpt>
      <trkpt lat="45.06875" lon="6.4715">
        <ele>2377.4</ele>
        <time>2021-02-28T10:50:26Z</time>
      </trkpt>
      <trkpt lat="45.06875" lon="6.4715">
        <ele>2377.4</ele>
        <time>2021-02-28T10:50:27Z</time>
      </trkpt>
      <trkpt lat="45.06875" lon="6.47154">
        <ele>2378</ele>
        <time>2021-02-28T10:50:28Z</time>
      </trkpt>
      <trkpt lat="45.06875" lon="6.47154">
        <ele>2378.6</ele>
        <time>2021-02-28T10:50:29Z</time>
      </trkpt>
      <trkpt lat="45.06875" lon="6.47154">
        <ele>2378.6</ele>
        <time>2021-02-28T10:50:30Z</time>
      </trkpt>
      <trkpt lat="45.06875" lon="6.47157">
        <ele>2378.6</ele>
        <time>2021-02-28T10:50:31Z</time>
      </trkpt>
      <trkpt lat="45.06875" lon="6.47157">
        <ele>2379.2</ele>
        <time>2021-02-28T10:50:32Z</time>
      </trkpt>
      <trkpt lat="45.06875" lon="6.47157">
        <ele>2379.4</ele>
        <time>2021-02-28T10:50:33Z</time>
      </trkpt>
      <trkpt lat="45.06875" lon="6.4716">
        <ele>2379.8</ele>
        <time>2021-02-28T10:50:34Z</time>
      </trkpt>
      <trkpt lat="45.06875" lon="6.4716">
        <ele>2380.4</ele>
        <time>2021-02-28T10:50:35Z</time>
      </trkpt>
      <trkpt lat="45.06875" lon="6.4716">
        <ele>2380.4</ele>
        <time>2021-02-28T10:50:36Z</time>
      </trkpt>
      <trkpt lat="45.06875" lon="6.4716">
        <ele>2380.6</ele>
        <time>2021-02-28T10:50:37Z</time>
      </trkpt>
      <trkpt lat="45.06874" lon="6.47163">
        <ele>2380.8</ele>
        <time>2021-02-28T10:50:38Z</time>
      </trkpt>
      <trkpt lat="45.06874" lon="6.47163">
        <ele>2381</ele>
        <time>2021-02-28T10:50:39Z</time>
      </trkpt>
      <trkpt lat="45.06874" lon="6.47163">
        <ele>2381.6</ele>
        <time>2021-02-28T10:50:40Z</time>
      </trkpt>
      <trkpt lat="45.06874" lon="6.47166">
        <ele>2381</ele>
        <time>2021-02-28T10:50:41Z</time>
      </trkpt>
      <trkpt lat="45.06874" lon="6.47166">
        <ele>2381.4</ele>
        <time>2021-02-28T10:50:42Z</time>
      </trkpt>
      <trkpt lat="45.06874" lon="6.47166">
        <ele>2382</ele>
        <time>2021-02-28T10:50:43Z</time>
      </trkpt>
      <trkpt lat="45.06874" lon="6.47169">
        <ele>2382.4</ele>
        <time>2021-02-28T10:50:44Z</time>
      </trkpt>
      <trkpt lat="45.06874" lon="6.47169">
        <ele>2383</ele>
        <time>2021-02-28T10:50:45Z</time>
      </trkpt>
      <trkpt lat="45.06874" lon="6.47169">
        <ele>2383.2</ele>
        <time>2021-02-28T10:50:46Z</time>
      </trkpt>
      <trkpt lat="45.06873" lon="6.47172">
        <ele>2383</ele>
        <time>2021-02-28T10:50:47Z</time>
      </trkpt>
      <trkpt lat="45.06873" lon="6.47172">
        <ele>2383.4</ele>
        <time>2021-02-28T10:50:48Z</time>
      </trkpt>
      <trkpt lat="45.06873" lon="6.47172">
        <ele>2384</ele>
        <time>2021-02-28T10:50:49Z</time>
      </trkpt>
      <trkpt lat="45.06873" lon="6.47174">
        <ele>2383.6</ele>
        <time>2021-02-28T10:50:50Z</time>
      </trkpt>
      <trkpt lat="45.06873" lon="6.47174">
        <ele>2383.8</ele>
        <time>2021-02-28T10:50:51Z</time>
      </trkpt>
      <trkpt lat="45.06873" lon="6.47174">
        <ele>2384.4</ele>
        <time>2021-02-28T10:50:52Z</time>
      </trkpt>
      <trkpt lat="45.06873" lon="6.47174">
        <ele>2384.2</ele>
        <time>2021-02-28T10:50:53Z</time>
      </trkpt>
      <trkpt lat="45.06872" lon="6.47177">
        <ele>2384.4</ele>
        <time>2021-02-28T10:50:54Z</time>
      </trkpt>
      <trkpt lat="45.06872" lon="6.47177">
        <ele>2385</ele>
        <time>2021-02-28T10:50:55Z</time>
      </trkpt>
      <trkpt lat="45.06872" lon="6.47177">
        <ele>2384.8</ele>
        <time>2021-02-28T10:50:56Z</time>
      </trkpt>
      <trkpt lat="45.06872" lon="6.47177">
        <ele>2385.4</ele>
        <time>2021-02-28T10:50:57Z</time>
      </trkpt>
      <trkpt lat="45.06872" lon="6.47181">
        <ele>2385.8</ele>
        <time>2021-02-28T10:50:58Z</time>
      </trkpt>
      <trkpt lat="45.06872" lon="6.47181">
        <ele>2386</ele>
        <time>2021-02-28T10:50:59Z</time>
      </trkpt>
      <trkpt lat="45.06872" lon="6.47181">
        <ele>2386.6</ele>
        <time>2021-02-28T10:51:00Z</time>
      </trkpt>
      <trkpt lat="45.06872" lon="6.47184">
        <ele>2386.8</ele>
        <time>2021-02-28T10:51:01Z</time>
      </trkpt>
      <trkpt lat="45.06872" lon="6.47184">
        <ele>2387</ele>
        <time>2021-02-28T10:51:02Z</time>
      </trkpt>
      <trkpt lat="45.06872" lon="6.47184">
        <ele>2387.8</ele>
        <time>2021-02-28T10:51:03Z</time>
      </trkpt>
      <trkpt lat="45.06872" lon="6.47184">
        <ele>2387.8</ele>
        <time>2021-02-28T10:51:04Z</time>
      </trkpt>
      <trkpt lat="45.06872" lon="6.47187">
        <ele>2387.6</ele>
        <time>2021-02-28T10:51:05Z</time>
      </trkpt>
      <trkpt lat="45.06872" lon="6.47187">
        <ele>2387.8</ele>
        <time>2021-02-28T10:51:06Z</time>
      </trkpt>
      <trkpt lat="45.06872" lon="6.47187">
        <ele>2388</ele>
        <time>2021-02-28T10:51:07Z</time>
      </trkpt>
      <trkpt lat="45.06872" lon="6.4719">
        <ele>2388.2</ele>
        <time>2021-02-28T10:51:08Z</time>
      </trkpt>
      <trkpt lat="45.06872" lon="6.4719">
        <ele>2389</ele>
        <time>2021-02-28T10:51:09Z</time>
      </trkpt>
      <trkpt lat="45.06872" lon="6.4719">
        <ele>2389</ele>
        <time>2021-02-28T10:51:10Z</time>
      </trkpt>
      <trkpt lat="45.06871" lon="6.47193">
        <ele>2389.2</ele>
        <time>2021-02-28T10:51:11Z</time>
      </trkpt>
      <trkpt lat="45.06871" lon="6.47193">
        <ele>2389</ele>
        <time>2021-02-28T10:51:12Z</time>
      </trkpt>
      <trkpt lat="45.06871" lon="6.47193">
        <ele>2389.4</ele>
        <time>2021-02-28T10:51:13Z</time>
      </trkpt>
      <trkpt lat="45.06871" lon="6.47196">
        <ele>2390</ele>
        <time>2021-02-28T10:51:14Z</time>
      </trkpt>
      <trkpt lat="45.06871" lon="6.47196">
        <ele>2390.2</ele>
        <time>2021-02-28T10:51:15Z</time>
      </trkpt>
      <trkpt lat="45.06871" lon="6.47196">
        <ele>2390.4</ele>
        <time>2021-02-28T10:51:16Z</time>
      </trkpt>
      <trkpt lat="45.0687" lon="6.47199">
        <ele>2390.4</ele>
        <time>2021-02-28T10:51:17Z</time>
      </trkpt>
      <trkpt lat="45.0687" lon="6.47199">
        <ele>2391.2</ele>
        <time>2021-02-28T10:51:18Z</time>
      </trkpt>
      <trkpt lat="45.0687" lon="6.47199">
        <ele>2389.8</ele>
        <time>2021-02-28T10:51:19Z</time>
      </trkpt>
      <trkpt lat="45.06869" lon="6.47201">
        <ele>2390.6</ele>
        <time>2021-02-28T10:51:20Z</time>
      </trkpt>
      <trkpt lat="45.06869" lon="6.47201">
        <ele>2390.6</ele>
        <time>2021-02-28T10:51:21Z</time>
      </trkpt>
      <trkpt lat="45.06869" lon="6.47201">
        <ele>2391.8</ele>
        <time>2021-02-28T10:51:22Z</time>
      </trkpt>
      <trkpt lat="45.06869" lon="6.47204">
        <ele>2392</ele>
        <time>2021-02-28T10:51:23Z</time>
      </trkpt>
      <trkpt lat="45.06869" lon="6.47204">
        <ele>2391.8</ele>
        <time>2021-02-28T10:51:24Z</time>
      </trkpt>
      <trkpt lat="45.06869" lon="6.47204">
        <ele>2392.4</ele>
        <time>2021-02-28T10:51:25Z</time>
      </trkpt>
      <trkpt lat="45.06868" lon="6.47207">
        <ele>2392.8</ele>
        <time>2021-02-28T10:51:26Z</time>
      </trkpt>
      <trkpt lat="45.06868" lon="6.47207">
        <ele>2393</ele>
        <time>2021-02-28T10:51:27Z</time>
      </trkpt>
      <trkpt lat="45.06868" lon="6.47207">
        <ele>2393.2</ele>
        <time>2021-02-28T10:51:28Z</time>
      </trkpt>
      <trkpt lat="45.06868" lon="6.4721">
        <ele>2393.2</ele>
        <time>2021-02-28T10:51:29Z</time>
      </trkpt>
      <trkpt lat="45.06868" lon="6.4721">
        <ele>2393.2</ele>
        <time>2021-02-28T10:51:30Z</time>
      </trkpt>
      <trkpt lat="45.06868" lon="6.4721">
        <ele>2394.2</ele>
        <time>2021-02-28T10:51:31Z</time>
      </trkpt>
      <trkpt lat="45.06867" lon="6.47213">
        <ele>2394.4</ele>
        <time>2021-02-28T10:51:32Z</time>
      </trkpt>
      <trkpt lat="45.06867" lon="6.47213">
        <ele>2394.2</ele>
        <time>2021-02-28T10:51:33Z</time>
      </trkpt>
      <trkpt lat="45.06867" lon="6.47213">
        <ele>2394.6</ele>
        <time>2021-02-28T10:51:34Z</time>
      </trkpt>
      <trkpt lat="45.06867" lon="6.47213">
        <ele>2395.2</ele>
        <time>2021-02-28T10:51:35Z</time>
      </trkpt>
      <trkpt lat="45.06866" lon="6.47216">
        <ele>2395.2</ele>
        <time>2021-02-28T10:51:36Z</time>
      </trkpt>
      <trkpt lat="45.06866" lon="6.47216">
        <ele>2395.4</ele>
        <time>2021-02-28T10:51:37Z</time>
      </trkpt>
      <trkpt lat="45.06866" lon="6.47216">
        <ele>2395.2</ele>
        <time>2021-02-28T10:51:38Z</time>
      </trkpt>
      <trkpt lat="45.06867" lon="6.47219">
        <ele>2395.8</ele>
        <time>2021-02-28T10:51:39Z</time>
      </trkpt>
      <trkpt lat="45.06867" lon="6.47219">
        <ele>2395.8</ele>
        <time>2021-02-28T10:51:40Z</time>
      </trkpt>
      <trkpt lat="45.06867" lon="6.47219">
        <ele>2396.2</ele>
        <time>2021-02-28T10:51:41Z</time>
      </trkpt>
      <trkpt lat="45.06866" lon="6.47222">
        <ele>2397.4</ele>
        <time>2021-02-28T10:51:42Z</time>
      </trkpt>
      <trkpt lat="45.06866" lon="6.47222">
        <ele>2398</ele>
        <time>2021-02-28T10:51:43Z</time>
      </trkpt>
      <trkpt lat="45.06866" lon="6.47222">
        <ele>2398.2</ele>
        <time>2021-02-28T10:51:44Z</time>
      </trkpt>
      <trkpt lat="45.06865" lon="6.47225">
        <ele>2398.4</ele>
        <time>2021-02-28T10:51:45Z</time>
      </trkpt>
      <trkpt lat="45.06865" lon="6.47225">
        <ele>2399</ele>
        <time>2021-02-28T10:51:46Z</time>
      </trkpt>
      <trkpt lat="45.06865" lon="6.47225">
        <ele>2399</ele>
        <time>2021-02-28T10:51:47Z</time>
      </trkpt>
      <trkpt lat="45.06864" lon="6.47227">
        <ele>2399</ele>
        <time>2021-02-28T10:51:48Z</time>
      </trkpt>
      <trkpt lat="45.06864" lon="6.47227">
        <ele>2399</ele>
        <time>2021-02-28T10:51:49Z</time>
      </trkpt>
      <trkpt lat="45.06864" lon="6.47227">
        <ele>2399.6</ele>
        <time>2021-02-28T10:51:50Z</time>
      </trkpt>
      <trkpt lat="45.06864" lon="6.47227">
        <ele>2400.4</ele>
        <time>2021-02-28T10:51:51Z</time>
      </trkpt>
      <trkpt lat="45.06864" lon="6.4723">
        <ele>2400.2</ele>
        <time>2021-02-28T10:51:52Z</time>
      </trkpt>
      <trkpt lat="45.06864" lon="6.4723">
        <ele>2400</ele>
        <time>2021-02-28T10:51:53Z</time>
      </trkpt>
      <trkpt lat="45.06864" lon="6.4723">
        <ele>2400.2</ele>
        <time>2021-02-28T10:51:54Z</time>
      </trkpt>
      <trkpt lat="45.06863" lon="6.47233">
        <ele>2400.6</ele>
        <time>2021-02-28T10:51:55Z</time>
      </trkpt>
      <trkpt lat="45.06863" lon="6.47233">
        <ele>2400.6</ele>
        <time>2021-02-28T10:51:56Z</time>
      </trkpt>
      <trkpt lat="45.06863" lon="6.47233">
        <ele>2400.2</ele>
        <time>2021-02-28T10:51:57Z</time>
      </trkpt>
      <trkpt lat="45.06863" lon="6.47236">
        <ele>2401</ele>
        <time>2021-02-28T10:51:58Z</time>
      </trkpt>
      <trkpt lat="45.06863" lon="6.47236">
        <ele>2401</ele>
        <time>2021-02-28T10:51:59Z</time>
      </trkpt>
      <trkpt lat="45.06863" lon="6.47236">
        <ele>2401.4</ele>
        <time>2021-02-28T10:52:00Z</time>
      </trkpt>
      <trkpt lat="45.06863" lon="6.47239">
        <ele>2402.4</ele>
        <time>2021-02-28T10:52:01Z</time>
      </trkpt>
      <trkpt lat="45.06863" lon="6.47239">
        <ele>2402.2</ele>
        <time>2021-02-28T10:52:02Z</time>
      </trkpt>
      <trkpt lat="45.06863" lon="6.47242">
        <ele>2402.6</ele>
        <time>2021-02-28T10:52:03Z</time>
      </trkpt>
      <trkpt lat="45.06863" lon="6.47242">
        <ele>2403.2</ele>
        <time>2021-02-28T10:52:04Z</time>
      </trkpt>
      <trkpt lat="45.06863" lon="6.47242">
        <ele>2402.8</ele>
        <time>2021-02-28T10:52:05Z</time>
      </trkpt>
      <trkpt lat="45.06861" lon="6.47245">
        <ele>2403.2</ele>
        <time>2021-02-28T10:52:06Z</time>
      </trkpt>
      <trkpt lat="45.06861" lon="6.47245">
        <ele>2403.2</ele>
        <time>2021-02-28T10:52:07Z</time>
      </trkpt>
      <trkpt lat="45.0686" lon="6.47247">
        <ele>2403.8</ele>
        <time>2021-02-28T10:52:08Z</time>
      </trkpt>
      <trkpt lat="45.0686" lon="6.47247">
        <ele>2403.8</ele>
        <time>2021-02-28T10:52:09Z</time>
      </trkpt>
      <trkpt lat="45.0686" lon="6.47247">
        <ele>2404.2</ele>
        <time>2021-02-28T10:52:10Z</time>
      </trkpt>
      <trkpt lat="45.06859" lon="6.47249">
        <ele>2404.8</ele>
        <time>2021-02-28T10:52:11Z</time>
      </trkpt>
      <trkpt lat="45.06859" lon="6.47249">
        <ele>2404.4</ele>
        <time>2021-02-28T10:52:12Z</time>
      </trkpt>
      <trkpt lat="45.06859" lon="6.47249">
        <ele>2404.2</ele>
        <time>2021-02-28T10:52:13Z</time>
      </trkpt>
      <trkpt lat="45.06857" lon="6.47251">
        <ele>2404.4</ele>
        <time>2021-02-28T10:52:14Z</time>
      </trkpt>
      <trkpt lat="45.06857" lon="6.47251">
        <ele>2404.8</ele>
        <time>2021-02-28T10:52:15Z</time>
      </trkpt>
      <trkpt lat="45.06857" lon="6.47251">
        <ele>2405.6</ele>
        <time>2021-02-28T10:52:16Z</time>
      </trkpt>
      <trkpt lat="45.06855" lon="6.47253">
        <ele>2405.8</ele>
        <time>2021-02-28T10:52:17Z</time>
      </trkpt>
      <trkpt lat="45.06855" lon="6.47253">
        <ele>2405.8</ele>
        <time>2021-02-28T10:52:18Z</time>
      </trkpt>
      <trkpt lat="45.06855" lon="6.47253">
        <ele>2406.4</ele>
        <time>2021-02-28T10:52:19Z</time>
      </trkpt>
      <trkpt lat="45.06853" lon="6.47255">
        <ele>2406.2</ele>
        <time>2021-02-28T10:52:20Z</time>
      </trkpt>
      <trkpt lat="45.06853" lon="6.47255">
        <ele>2406.2</ele>
        <time>2021-02-28T10:52:21Z</time>
      </trkpt>
      <trkpt lat="45.06853" lon="6.47255">
        <ele>2406.8</ele>
        <time>2021-02-28T10:52:22Z</time>
      </trkpt>
      <trkpt lat="45.06851" lon="6.47257">
        <ele>2406.4</ele>
        <time>2021-02-28T10:52:23Z</time>
      </trkpt>
      <trkpt lat="45.06851" lon="6.47257">
        <ele>2406.8</ele>
        <time>2021-02-28T10:52:24Z</time>
      </trkpt>
      <trkpt lat="45.0685" lon="6.47259">
        <ele>2407</ele>
        <time>2021-02-28T10:52:25Z</time>
      </trkpt>
      <trkpt lat="45.0685" lon="6.47259">
        <ele>2406.8</ele>
        <time>2021-02-28T10:52:26Z</time>
      </trkpt>
      <trkpt lat="45.0685" lon="6.47259">
        <ele>2407</ele>
        <time>2021-02-28T10:52:27Z</time>
      </trkpt>
      <trkpt lat="45.0685" lon="6.47259">
        <ele>2407.8</ele>
        <time>2021-02-28T10:52:28Z</time>
      </trkpt>
      <trkpt lat="45.06848" lon="6.47261">
        <ele>2407.6</ele>
        <time>2021-02-28T10:52:29Z</time>
      </trkpt>
      <trkpt lat="45.06848" lon="6.47261">
        <ele>2407.6</ele>
        <time>2021-02-28T10:52:30Z</time>
      </trkpt>
      <trkpt lat="45.06847" lon="6.47263">
        <ele>2408.2</ele>
        <time>2021-02-28T10:52:31Z</time>
      </trkpt>
      <trkpt lat="45.06847" lon="6.47263">
        <ele>2408.4</ele>
        <time>2021-02-28T10:52:32Z</time>
      </trkpt>
      <trkpt lat="45.06845" lon="6.47265">
        <ele>2408.8</ele>
        <time>2021-02-28T10:52:33Z</time>
      </trkpt>
      <trkpt lat="45.06845" lon="6.47265">
        <ele>2408.4</ele>
        <time>2021-02-28T10:52:34Z</time>
      </trkpt>
      <trkpt lat="45.06845" lon="6.47265">
        <ele>2408.4</ele>
        <time>2021-02-28T10:52:35Z</time>
      </trkpt>
      <trkpt lat="45.06843" lon="6.47267">
        <ele>2408.2</ele>
        <time>2021-02-28T10:52:36Z</time>
      </trkpt>
      <trkpt lat="45.06843" lon="6.47267">
        <ele>2408.6</ele>
        <time>2021-02-28T10:52:37Z</time>
      </trkpt>
      <trkpt lat="45.06842" lon="6.47269">
        <ele>2408</ele>
        <time>2021-02-28T10:52:38Z</time>
      </trkpt>
      <trkpt lat="45.06842" lon="6.47269">
        <ele>2408.4</ele>
        <time>2021-02-28T10:52:39Z</time>
      </trkpt>
      <trkpt lat="45.0684" lon="6.4727">
        <ele>2409</ele>
        <time>2021-02-28T10:52:40Z</time>
      </trkpt>
      <trkpt lat="45.0684" lon="6.4727">
        <ele>2409</ele>
        <time>2021-02-28T10:52:41Z</time>
      </trkpt>
      <trkpt lat="45.06838" lon="6.47271">
        <ele>2409.2</ele>
        <time>2021-02-28T10:52:42Z</time>
      </trkpt>
      <trkpt lat="45.06838" lon="6.47271">
        <ele>2409.8</ele>
        <time>2021-02-28T10:52:43Z</time>
      </trkpt>
      <trkpt lat="45.06838" lon="6.47271">
        <ele>2409.6</ele>
        <time>2021-02-28T10:52:44Z</time>
      </trkpt>
      <trkpt lat="45.06838" lon="6.47271">
        <ele>2409.8</ele>
        <time>2021-02-28T10:52:45Z</time>
      </trkpt>
      <trkpt lat="45.06838" lon="6.47271">
        <ele>2409.8</ele>
        <time>2021-02-28T10:52:46Z</time>
      </trkpt>
      <trkpt lat="45.06838" lon="6.47271">
        <ele>2409.8</ele>
        <time>2021-02-28T10:52:47Z</time>
      </trkpt>
      <trkpt lat="45.06838" lon="6.47271">
        <ele>2410.4</ele>
        <time>2021-02-28T10:52:48Z</time>
      </trkpt>
      <trkpt lat="45.06838" lon="6.47271">
        <ele>2410.6</ele>
        <time>2021-02-28T10:52:49Z</time>
      </trkpt>
      <trkpt lat="45.06836" lon="6.47272">
        <ele>2410.6</ele>
        <time>2021-02-28T10:52:50Z</time>
      </trkpt>
      <trkpt lat="45.06836" lon="6.47272">
        <ele>2410.4</ele>
        <time>2021-02-28T10:52:51Z</time>
      </trkpt>
      <trkpt lat="45.06836" lon="6.47272">
        <ele>2410.8</ele>
        <time>2021-02-28T10:52:52Z</time>
      </trkpt>
      <trkpt lat="45.06836" lon="6.47272">
        <ele>2410.4</ele>
        <time>2021-02-28T10:52:53Z</time>
      </trkpt>
      <trkpt lat="45.06834" lon="6.47274">
        <ele>2410.6</ele>
        <time>2021-02-28T10:52:54Z</time>
      </trkpt>
      <trkpt lat="45.06834" lon="6.47274">
        <ele>2410.6</ele>
        <time>2021-02-28T10:52:55Z</time>
      </trkpt>
      <trkpt lat="45.06834" lon="6.47274">
        <ele>2410.6</ele>
        <time>2021-02-28T10:52:56Z</time>
      </trkpt>
      <trkpt lat="45.06831" lon="6.47275">
        <ele>2410.4</ele>
        <time>2021-02-28T10:52:57Z</time>
      </trkpt>
      <trkpt lat="45.06831" lon="6.47275">
        <ele>2410.4</ele>
        <time>2021-02-28T10:52:58Z</time>
      </trkpt>
      <trkpt lat="45.0683" lon="6.47277">
        <ele>2410.8</ele>
        <time>2021-02-28T10:52:59Z</time>
      </trkpt>
      <trkpt lat="45.0683" lon="6.47277">
        <ele>2411</ele>
        <time>2021-02-28T10:53:00Z</time>
      </trkpt>
      <trkpt lat="45.06828" lon="6.47278">
        <ele>2411.2</ele>
        <time>2021-02-28T10:53:01Z</time>
      </trkpt>
      <trkpt lat="45.06828" lon="6.47278">
        <ele>2411.2</ele>
        <time>2021-02-28T10:53:02Z</time>
      </trkpt>
      <trkpt lat="45.06826" lon="6.47279">
        <ele>2411.2</ele>
        <time>2021-02-28T10:53:03Z</time>
      </trkpt>
      <trkpt lat="45.06826" lon="6.47279">
        <ele>2410.8</ele>
        <time>2021-02-28T10:53:04Z</time>
      </trkpt>
      <trkpt lat="45.06824" lon="6.47281">
        <ele>2411</ele>
        <time>2021-02-28T10:53:05Z</time>
      </trkpt>
      <trkpt lat="45.06824" lon="6.47281">
        <ele>2410.8</ele>
        <time>2021-02-28T10:53:06Z</time>
      </trkpt>
      <trkpt lat="45.06824" lon="6.47281">
        <ele>2410.8</ele>
        <time>2021-02-28T10:53:07Z</time>
      </trkpt>
      <trkpt lat="45.06821" lon="6.47282">
        <ele>2411.2</ele>
        <time>2021-02-28T10:53:08Z</time>
      </trkpt>
      <trkpt lat="45.06821" lon="6.47282">
        <ele>2411.2</ele>
        <time>2021-02-28T10:53:09Z</time>
      </trkpt>
      <trkpt lat="45.06819" lon="6.47283">
        <ele>2411.6</ele>
        <time>2021-02-28T10:53:10Z</time>
      </trkpt>
      <trkpt lat="45.06819" lon="6.47283">
        <ele>2412</ele>
        <time>2021-02-28T10:53:11Z</time>
      </trkpt>
      <trkpt lat="45.06816" lon="6.47283">
        <ele>2412.2</ele>
        <time>2021-02-28T10:53:12Z</time>
      </trkpt>
      <trkpt lat="45.06816" lon="6.47283">
        <ele>2412.2</ele>
        <time>2021-02-28T10:53:13Z</time>
      </trkpt>
      <trkpt lat="45.06814" lon="6.47284">
        <ele>2412.2</ele>
        <time>2021-02-28T10:53:14Z</time>
      </trkpt>
      <trkpt lat="45.06814" lon="6.47284">
        <ele>2412.4</ele>
        <time>2021-02-28T10:53:15Z</time>
      </trkpt>
      <trkpt lat="45.06811" lon="6.47284">
        <ele>2412.4</ele>
        <time>2021-02-28T10:53:16Z</time>
      </trkpt>
      <trkpt lat="45.06811" lon="6.47284">
        <ele>2412.4</ele>
        <time>2021-02-28T10:53:17Z</time>
      </trkpt>
      <trkpt lat="45.06809" lon="6.47284">
        <ele>2412.8</ele>
        <time>2021-02-28T10:53:18Z</time>
      </trkpt>
      <trkpt lat="45.06809" lon="6.47284">
        <ele>2413</ele>
        <time>2021-02-28T10:53:19Z</time>
      </trkpt>
      <trkpt lat="45.06807" lon="6.47285">
        <ele>2413</ele>
        <time>2021-02-28T10:53:20Z</time>
      </trkpt>
      <trkpt lat="45.06807" lon="6.47285">
        <ele>2413.4</ele>
        <time>2021-02-28T10:53:21Z</time>
      </trkpt>
      <trkpt lat="45.06805" lon="6.47285">
        <ele>2413.4</ele>
        <time>2021-02-28T10:53:22Z</time>
      </trkpt>
      <trkpt lat="45.06805" lon="6.47285">
        <ele>2413.6</ele>
        <time>2021-02-28T10:53:23Z</time>
      </trkpt>
      <trkpt lat="45.06802" lon="6.47286">
        <ele>2414.4</ele>
        <time>2021-02-28T10:53:24Z</time>
      </trkpt>
      <trkpt lat="45.06802" lon="6.47286">
        <ele>2414.4</ele>
        <time>2021-02-28T10:53:25Z</time>
      </trkpt>
      <trkpt lat="45.068" lon="6.47286">
        <ele>2414.4</ele>
        <time>2021-02-28T10:53:26Z</time>
      </trkpt>
      <trkpt lat="45.068" lon="6.47286">
        <ele>2414.6</ele>
        <time>2021-02-28T10:53:27Z</time>
      </trkpt>
      <trkpt lat="45.06797" lon="6.47287">
        <ele>2414.6</ele>
        <time>2021-02-28T10:53:28Z</time>
      </trkpt>
      <trkpt lat="45.06797" lon="6.47287">
        <ele>2414.6</ele>
        <time>2021-02-28T10:53:29Z</time>
      </trkpt>
      <trkpt lat="45.06795" lon="6.47288">
        <ele>2414.4</ele>
        <time>2021-02-28T10:53:30Z</time>
      </trkpt>
      <trkpt lat="45.06795" lon="6.47288">
        <ele>2413.8</ele>
        <time>2021-02-28T10:53:31Z</time>
      </trkpt>
      <trkpt lat="45.06792" lon="6.47289">
        <ele>2413.8</ele>
        <time>2021-02-28T10:53:32Z</time>
      </trkpt>
      <trkpt lat="45.06792" lon="6.47289">
        <ele>2414</ele>
        <time>2021-02-28T10:53:33Z</time>
      </trkpt>
      <trkpt lat="45.06789" lon="6.4729">
        <ele>2413.6</ele>
        <time>2021-02-28T10:53:34Z</time>
      </trkpt>
      <trkpt lat="45.06789" lon="6.4729">
        <ele>2413.6</ele>
        <time>2021-02-28T10:53:35Z</time>
      </trkpt>
      <trkpt lat="45.06786" lon="6.47291">
        <ele>2413.8</ele>
        <time>2021-02-28T10:53:36Z</time>
      </trkpt>
      <trkpt lat="45.06786" lon="6.47291">
        <ele>2413.8</ele>
        <time>2021-02-28T10:53:37Z</time>
      </trkpt>
      <trkpt lat="45.06784" lon="6.47292">
        <ele>2413.6</ele>
        <time>2021-02-28T10:53:38Z</time>
      </trkpt>
      <trkpt lat="45.06784" lon="6.47292">
        <ele>2413.4</ele>
        <time>2021-02-28T10:53:39Z</time>
      </trkpt>
      <trkpt lat="45.06781" lon="6.47293">
        <ele>2413.6</ele>
        <time>2021-02-28T10:53:40Z</time>
      </trkpt>
      <trkpt lat="45.06781" lon="6.47293">
        <ele>2413.8</ele>
        <time>2021-02-28T10:53:41Z</time>
      </trkpt>
      <trkpt lat="45.06778" lon="6.47294">
        <ele>2413.8</ele>
        <time>2021-02-28T10:53:42Z</time>
      </trkpt>
      <trkpt lat="45.06778" lon="6.47294">
        <ele>2413.4</ele>
        <time>2021-02-28T10:53:43Z</time>
      </trkpt>
      <trkpt lat="45.06776" lon="6.47295">
        <ele>2413.2</ele>
        <time>2021-02-28T10:53:44Z</time>
      </trkpt>
      <trkpt lat="45.06776" lon="6.47295">
        <ele>2413.2</ele>
        <time>2021-02-28T10:53:45Z</time>
      </trkpt>
      <trkpt lat="45.06774" lon="6.47296">
        <ele>2413.4</ele>
        <time>2021-02-28T10:53:46Z</time>
      </trkpt>
      <trkpt lat="45.06774" lon="6.47296">
        <ele>2413.2</ele>
        <time>2021-02-28T10:53:47Z</time>
      </trkpt>
      <trkpt lat="45.06771" lon="6.47296">
        <ele>2413.2</ele>
        <time>2021-02-28T10:53:48Z</time>
      </trkpt>
      <trkpt lat="45.06771" lon="6.47296">
        <ele>2413</ele>
        <time>2021-02-28T10:53:49Z</time>
      </trkpt>
      <trkpt lat="45.06769" lon="6.47296">
        <ele>2412.6</ele>
        <time>2021-02-28T10:53:50Z</time>
      </trkpt>
      <trkpt lat="45.06769" lon="6.47296">
        <ele>2413</ele>
        <time>2021-02-28T10:53:51Z</time>
      </trkpt>
      <trkpt lat="45.06766" lon="6.47296">
        <ele>2413</ele>
        <time>2021-02-28T10:53:52Z</time>
      </trkpt>
      <trkpt lat="45.06766" lon="6.47296">
        <ele>2413</ele>
        <time>2021-02-28T10:53:53Z</time>
      </trkpt>
      <trkpt lat="45.06764" lon="6.47296">
        <ele>2413</ele>
        <time>2021-02-28T10:53:54Z</time>
      </trkpt>
      <trkpt lat="45.06764" lon="6.47296">
        <ele>2413.4</ele>
        <time>2021-02-28T10:53:55Z</time>
      </trkpt>
      <trkpt lat="45.06762" lon="6.47295">
        <ele>2413.4</ele>
        <time>2021-02-28T10:53:56Z</time>
      </trkpt>
      <trkpt lat="45.06762" lon="6.47295">
        <ele>2414</ele>
        <time>2021-02-28T10:53:57Z</time>
      </trkpt>
      <trkpt lat="45.0676" lon="6.47295">
        <ele>2413.8</ele>
        <time>2021-02-28T10:53:58Z</time>
      </trkpt>
      <trkpt lat="45.0676" lon="6.47295">
        <ele>2413.6</ele>
        <time>2021-02-28T10:53:59Z</time>
      </trkpt>
      <trkpt lat="45.06757" lon="6.47295">
        <ele>2413.4</ele>
        <time>2021-02-28T10:54:00Z</time>
      </trkpt>
      <trkpt lat="45.06757" lon="6.47295">
        <ele>2413.4</ele>
        <time>2021-02-28T10:54:01Z</time>
      </trkpt>
      <trkpt lat="45.06755" lon="6.47295">
        <ele>2414</ele>
        <time>2021-02-28T10:54:02Z</time>
      </trkpt>
      <trkpt lat="45.06755" lon="6.47295">
        <ele>2414.4</ele>
        <time>2021-02-28T10:54:03Z</time>
      </trkpt>
      <trkpt lat="45.06753" lon="6.47294">
        <ele>2414</ele>
        <time>2021-02-28T10:54:04Z</time>
      </trkpt>
      <trkpt lat="45.06753" lon="6.47294">
        <ele>2414.2</ele>
        <time>2021-02-28T10:54:05Z</time>
      </trkpt>
      <trkpt lat="45.06753" lon="6.47294">
        <ele>2414.2</ele>
        <time>2021-02-28T10:54:06Z</time>
      </trkpt>
      <trkpt lat="45.06751" lon="6.47291">
        <ele>2414.2</ele>
        <time>2021-02-28T10:54:07Z</time>
      </trkpt>
      <trkpt lat="45.06751" lon="6.47291">
        <ele>2414.2</ele>
        <time>2021-02-28T10:54:08Z</time>
      </trkpt>
      <trkpt lat="45.06749" lon="6.47291">
        <ele>2415</ele>
        <time>2021-02-28T10:54:09Z</time>
      </trkpt>
      <trkpt lat="45.06749" lon="6.47291">
        <ele>2415.2</ele>
        <time>2021-02-28T10:54:10Z</time>
      </trkpt>
      <trkpt lat="45.06746" lon="6.47289">
        <ele>2415</ele>
        <time>2021-02-28T10:54:11Z</time>
      </trkpt>
      <trkpt lat="45.06746" lon="6.47289">
        <ele>2415.6</ele>
        <time>2021-02-28T10:54:12Z</time>
      </trkpt>
      <trkpt lat="45.06744" lon="6.47288">
        <ele>2415.4</ele>
        <time>2021-02-28T10:54:13Z</time>
      </trkpt>
      <trkpt lat="45.06744" lon="6.47288">
        <ele>2415.4</ele>
        <time>2021-02-28T10:54:14Z</time>
      </trkpt>
      <trkpt lat="45.06743" lon="6.47287">
        <ele>2415.8</ele>
        <time>2021-02-28T10:54:15Z</time>
      </trkpt>
      <trkpt lat="45.06743" lon="6.47287">
        <ele>2415.6</ele>
        <time>2021-02-28T10:54:16Z</time>
      </trkpt>
      <trkpt lat="45.06741" lon="6.47285">
        <ele>2415.6</ele>
        <time>2021-02-28T10:54:17Z</time>
      </trkpt>
      <trkpt lat="45.06741" lon="6.47285">
        <ele>2416.2</ele>
        <time>2021-02-28T10:54:18Z</time>
      </trkpt>
      <trkpt lat="45.06741" lon="6.47285">
        <ele>2415.4</ele>
        <time>2021-02-28T10:54:19Z</time>
      </trkpt>
      <trkpt lat="45.06739" lon="6.47284">
        <ele>2415</ele>
        <time>2021-02-28T10:54:20Z</time>
      </trkpt>
      <trkpt lat="45.06739" lon="6.47284">
        <ele>2415.8</ele>
        <time>2021-02-28T10:54:21Z</time>
      </trkpt>
      <trkpt lat="45.06739" lon="6.47284">
        <ele>2415.6</ele>
        <time>2021-02-28T10:54:22Z</time>
      </trkpt>
      <trkpt lat="45.06738" lon="6.47281">
        <ele>2416.2</ele>
        <time>2021-02-28T10:54:23Z</time>
      </trkpt>
      <trkpt lat="45.06738" lon="6.47281">
        <ele>2416.6</ele>
        <time>2021-02-28T10:54:24Z</time>
      </trkpt>
      <trkpt lat="45.06738" lon="6.47281">
        <ele>2416.6</ele>
        <time>2021-02-28T10:54:25Z</time>
      </trkpt>
      <trkpt lat="45.06736" lon="6.47278">
        <ele>2416.4</ele>
        <time>2021-02-28T10:54:26Z</time>
      </trkpt>
      <trkpt lat="45.06736" lon="6.47278">
        <ele>2416.6</ele>
        <time>2021-02-28T10:54:27Z</time>
      </trkpt>
      <trkpt lat="45.06736" lon="6.47278">
        <ele>2417.2</ele>
        <time>2021-02-28T10:54:28Z</time>
      </trkpt>
      <trkpt lat="45.06734" lon="6.47276">
        <ele>2417.4</ele>
        <time>2021-02-28T10:54:29Z</time>
      </trkpt>
      <trkpt lat="45.06734" lon="6.47276">
        <ele>2417.8</ele>
        <time>2021-02-28T10:54:30Z</time>
      </trkpt>
      <trkpt lat="45.06733" lon="6.47274">
        <ele>2418</ele>
        <time>2021-02-28T10:54:31Z</time>
      </trkpt>
      <trkpt lat="45.06733" lon="6.47274">
        <ele>2418.4</ele>
        <time>2021-02-28T10:54:32Z</time>
      </trkpt>
      <trkpt lat="45.06733" lon="6.47274">
        <ele>2418</ele>
        <time>2021-02-28T10:54:33Z</time>
      </trkpt>
      <trkpt lat="45.06731" lon="6.47272">
        <ele>2418.4</ele>
        <time>2021-02-28T10:54:34Z</time>
      </trkpt>
      <trkpt lat="45.06731" lon="6.47272">
        <ele>2418.6</ele>
        <time>2021-02-28T10:54:35Z</time>
      </trkpt>
      <trkpt lat="45.06729" lon="6.4727">
        <ele>2417.8</ele>
        <time>2021-02-28T10:54:36Z</time>
      </trkpt>
      <trkpt lat="45.06729" lon="6.4727">
        <ele>2418.2</ele>
        <time>2021-02-28T10:54:37Z</time>
      </trkpt>
      <trkpt lat="45.06729" lon="6.4727">
        <ele>2418.8</ele>
        <time>2021-02-28T10:54:38Z</time>
      </trkpt>
      <trkpt lat="45.06728" lon="6.47268">
        <ele>2418.2</ele>
        <time>2021-02-28T10:54:39Z</time>
      </trkpt>
      <trkpt lat="45.06728" lon="6.47268">
        <ele>2418.8</ele>
        <time>2021-02-28T10:54:40Z</time>
      </trkpt>
      <trkpt lat="45.06728" lon="6.47268">
        <ele>2419.2</ele>
        <time>2021-02-28T10:54:41Z</time>
      </trkpt>
      <trkpt lat="45.06726" lon="6.47265">
        <ele>2419.2</ele>
        <time>2021-02-28T10:54:42Z</time>
      </trkpt>
      <trkpt lat="45.06726" lon="6.47265">
        <ele>2419.4</ele>
        <time>2021-02-28T10:54:43Z</time>
      </trkpt>
      <trkpt lat="45.06725" lon="6.47263">
        <ele>2419.2</ele>
        <time>2021-02-28T10:54:44Z</time>
      </trkpt>
      <trkpt lat="45.06725" lon="6.47263">
        <ele>2419.6</ele>
        <time>2021-02-28T10:54:45Z</time>
      </trkpt>
      <trkpt lat="45.06725" lon="6.47263">
        <ele>2419.6</ele>
        <time>2021-02-28T10:54:46Z</time>
      </trkpt>
      <trkpt lat="45.06724" lon="6.4726">
        <ele>2419.6</ele>
        <time>2021-02-28T10:54:47Z</time>
      </trkpt>
      <trkpt lat="45.06724" lon="6.4726">
        <ele>2420.2</ele>
        <time>2021-02-28T10:54:48Z</time>
      </trkpt>
      <trkpt lat="45.06724" lon="6.4726">
        <ele>2420</ele>
        <time>2021-02-28T10:54:49Z</time>
      </trkpt>
      <trkpt lat="45.06723" lon="6.47256">
        <ele>2420.2</ele>
        <time>2021-02-28T10:54:50Z</time>
      </trkpt>
      <trkpt lat="45.06723" lon="6.47256">
        <ele>2420.6</ele>
        <time>2021-02-28T10:54:51Z</time>
      </trkpt>
      <trkpt lat="45.06723" lon="6.47256">
        <ele>2420.6</ele>
        <time>2021-02-28T10:54:52Z</time>
      </trkpt>
      <trkpt lat="45.06723" lon="6.47253">
        <ele>2420.8</ele>
        <time>2021-02-28T10:54:53Z</time>
      </trkpt>
      <trkpt lat="45.06723" lon="6.47253">
        <ele>2421.4</ele>
        <time>2021-02-28T10:54:54Z</time>
      </trkpt>
      <trkpt lat="45.06723" lon="6.47253">
        <ele>2421</ele>
        <time>2021-02-28T10:54:55Z</time>
      </trkpt>
      <trkpt lat="45.06722" lon="6.47249">
        <ele>2421.4</ele>
        <time>2021-02-28T10:54:56Z</time>
      </trkpt>
      <trkpt lat="45.06722" lon="6.47249">
        <ele>2422</ele>
        <time>2021-02-28T10:54:57Z</time>
      </trkpt>
      <trkpt lat="45.06721" lon="6.47246">
        <ele>2421.6</ele>
        <time>2021-02-28T10:54:58Z</time>
      </trkpt>
      <trkpt lat="45.06721" lon="6.47246">
        <ele>2421.6</ele>
        <time>2021-02-28T10:54:59Z</time>
      </trkpt>
      <trkpt lat="45.06721" lon="6.47246">
        <ele>2422.2</ele>
        <time>2021-02-28T10:55:00Z</time>
      </trkpt>
      <trkpt lat="45.0672" lon="6.47243">
        <ele>2422.4</ele>
        <time>2021-02-28T10:55:01Z</time>
      </trkpt>
      <trkpt lat="45.0672" lon="6.47243">
        <ele>2423</ele>
        <time>2021-02-28T10:55:02Z</time>
      </trkpt>
      <trkpt lat="45.0672" lon="6.47243">
        <ele>2423.4</ele>
        <time>2021-02-28T10:55:03Z</time>
      </trkpt>
      <trkpt lat="45.06719" lon="6.4724">
        <ele>2423.8</ele>
        <time>2021-02-28T10:55:04Z</time>
      </trkpt>
      <trkpt lat="45.06719" lon="6.4724">
        <ele>2422.8</ele>
        <time>2021-02-28T10:55:05Z</time>
      </trkpt>
      <trkpt lat="45.06718" lon="6.47238">
        <ele>2422.8</ele>
        <time>2021-02-28T10:55:06Z</time>
      </trkpt>
      <trkpt lat="45.06718" lon="6.47238">
        <ele>2423</ele>
        <time>2021-02-28T10:55:07Z</time>
      </trkpt>
      <trkpt lat="45.06718" lon="6.47238">
        <ele>2423</ele>
        <time>2021-02-28T10:55:08Z</time>
      </trkpt>
      <trkpt lat="45.06716" lon="6.47235">
        <ele>2423.4</ele>
        <time>2021-02-28T10:55:09Z</time>
      </trkpt>
      <trkpt lat="45.06716" lon="6.47235">
        <ele>2423.8</ele>
        <time>2021-02-28T10:55:10Z</time>
      </trkpt>
      <trkpt lat="45.06716" lon="6.47235">
        <ele>2423.2</ele>
        <time>2021-02-28T10:55:11Z</time>
      </trkpt>
      <trkpt lat="45.06715" lon="6.47232">
        <ele>2423.8</ele>
        <time>2021-02-28T10:55:12Z</time>
      </trkpt>
      <trkpt lat="45.06715" lon="6.47232">
        <ele>2424.4</ele>
        <time>2021-02-28T10:55:13Z</time>
      </trkpt>
      <trkpt lat="45.06715" lon="6.47232">
        <ele>2424.4</ele>
        <time>2021-02-28T10:55:14Z</time>
      </trkpt>
      <trkpt lat="45.06713" lon="6.47229">
        <ele>2424.2</ele>
        <time>2021-02-28T10:55:15Z</time>
      </trkpt>
      <trkpt lat="45.06713" lon="6.47229">
        <ele>2424.8</ele>
        <time>2021-02-28T10:55:16Z</time>
      </trkpt>
      <trkpt lat="45.06713" lon="6.47229">
        <ele>2424.8</ele>
        <time>2021-02-28T10:55:17Z</time>
      </trkpt>
      <trkpt lat="45.06711" lon="6.47227">
        <ele>2424.8</ele>
        <time>2021-02-28T10:55:18Z</time>
      </trkpt>
      <trkpt lat="45.06711" lon="6.47227">
        <ele>2425.6</ele>
        <time>2021-02-28T10:55:19Z</time>
      </trkpt>
      <trkpt lat="45.06711" lon="6.47227">
        <ele>2425.4</ele>
        <time>2021-02-28T10:55:20Z</time>
      </trkpt>
      <trkpt lat="45.06709" lon="6.47225">
        <ele>2425.6</ele>
        <time>2021-02-28T10:55:21Z</time>
      </trkpt>
      <trkpt lat="45.06709" lon="6.47225">
        <ele>2426.2</ele>
        <time>2021-02-28T10:55:22Z</time>
      </trkpt>
      <trkpt lat="45.06709" lon="6.47225">
        <ele>2426.4</ele>
        <time>2021-02-28T10:55:23Z</time>
      </trkpt>
      <trkpt lat="45.06707" lon="6.47223">
        <ele>2426.4</ele>
        <time>2021-02-28T10:55:24Z</time>
      </trkpt>
      <trkpt lat="45.06707" lon="6.47223">
        <ele>2426.6</ele>
        <time>2021-02-28T10:55:25Z</time>
      </trkpt>
      <trkpt lat="45.06707" lon="6.47223">
        <ele>2426.8</ele>
        <time>2021-02-28T10:55:26Z</time>
      </trkpt>
      <trkpt lat="45.06705" lon="6.47222">
        <ele>2426.8</ele>
        <time>2021-02-28T10:55:27Z</time>
      </trkpt>
      <trkpt lat="45.06705" lon="6.47222">
        <ele>2427.2</ele>
        <time>2021-02-28T10:55:28Z</time>
      </trkpt>
      <trkpt lat="45.06705" lon="6.47222">
        <ele>2427.4</ele>
        <time>2021-02-28T10:55:29Z</time>
      </trkpt>
      <trkpt lat="45.06705" lon="6.47222">
        <ele>2427</ele>
        <time>2021-02-28T10:55:30Z</time>
      </trkpt>
      <trkpt lat="45.06704" lon="6.47224">
        <ele>2427</ele>
        <time>2021-02-28T10:55:31Z</time>
      </trkpt>
      <trkpt lat="45.06704" lon="6.47224">
        <ele>2427</ele>
        <time>2021-02-28T10:55:32Z</time>
      </trkpt>
      <trkpt lat="45.06703" lon="6.47227">
        <ele>2427.4</ele>
        <time>2021-02-28T10:55:33Z</time>
      </trkpt>
      <trkpt lat="45.06703" lon="6.47227">
        <ele>2427.2</ele>
        <time>2021-02-28T10:55:34Z</time>
      </trkpt>
      <trkpt lat="45.06703" lon="6.4723">
        <ele>2427.6</ele>
        <time>2021-02-28T10:55:35Z</time>
      </trkpt>
      <trkpt lat="45.06703" lon="6.4723">
        <ele>2427.4</ele>
        <time>2021-02-28T10:55:36Z</time>
      </trkpt>
      <trkpt lat="45.06703" lon="6.4723">
        <ele>2427.4</ele>
        <time>2021-02-28T10:55:37Z</time>
      </trkpt>
      <trkpt lat="45.06703" lon="6.47233">
        <ele>2427.2</ele>
        <time>2021-02-28T10:55:38Z</time>
      </trkpt>
      <trkpt lat="45.06703" lon="6.47233">
        <ele>2427.2</ele>
        <time>2021-02-28T10:55:39Z</time>
      </trkpt>
      <trkpt lat="45.06703" lon="6.47233">
        <ele>2427.6</ele>
        <time>2021-02-28T10:55:40Z</time>
      </trkpt>
      <trkpt lat="45.06703" lon="6.47233">
        <ele>2427.8</ele>
        <time>2021-02-28T10:55:41Z</time>
      </trkpt>
      <trkpt lat="45.06703" lon="6.47237">
        <ele>2428</ele>
        <time>2021-02-28T10:55:42Z</time>
      </trkpt>
      <trkpt lat="45.06703" lon="6.47237">
        <ele>2428.6</ele>
        <time>2021-02-28T10:55:43Z</time>
      </trkpt>
      <trkpt lat="45.06703" lon="6.47237">
        <ele>2428.6</ele>
        <time>2021-02-28T10:55:44Z</time>
      </trkpt>
      <trkpt lat="45.06701" lon="6.47238">
        <ele>2429.6</ele>
        <time>2021-02-28T10:55:45Z</time>
      </trkpt>
      <trkpt lat="45.06701" lon="6.47238">
        <ele>2429.8</ele>
        <time>2021-02-28T10:55:46Z</time>
      </trkpt>
      <trkpt lat="45.06701" lon="6.47238">
        <ele>2429.4</ele>
        <time>2021-02-28T10:55:47Z</time>
      </trkpt>
      <trkpt lat="45.06699" lon="6.47236">
        <ele>2429.6</ele>
        <time>2021-02-28T10:55:48Z</time>
      </trkpt>
      <trkpt lat="45.06699" lon="6.47236">
        <ele>2430.2</ele>
        <time>2021-02-28T10:55:49Z</time>
      </trkpt>
      <trkpt lat="45.06697" lon="6.47234">
        <ele>2429.8</ele>
        <time>2021-02-28T10:55:50Z</time>
      </trkpt>
      <trkpt lat="45.06697" lon="6.47234">
        <ele>2429.6</ele>
        <time>2021-02-28T10:55:51Z</time>
      </trkpt>
      <trkpt lat="45.06697" lon="6.47234">
        <ele>2429.8</ele>
        <time>2021-02-28T10:55:52Z</time>
      </trkpt>
      <trkpt lat="45.06695" lon="6.47233">
        <ele>2430</ele>
        <time>2021-02-28T10:55:53Z</time>
      </trkpt>
      <trkpt lat="45.06695" lon="6.47233">
        <ele>2430.8</ele>
        <time>2021-02-28T10:55:54Z</time>
      </trkpt>
      <trkpt lat="45.06695" lon="6.47233">
        <ele>2431.2</ele>
        <time>2021-02-28T10:55:55Z</time>
      </trkpt>
      <trkpt lat="45.06693" lon="6.47231">
        <ele>2430.4</ele>
        <time>2021-02-28T10:55:56Z</time>
      </trkpt>
      <trkpt lat="45.06693" lon="6.47231">
        <ele>2430.8</ele>
        <time>2021-02-28T10:55:57Z</time>
      </trkpt>
      <trkpt lat="45.06693" lon="6.47231">
        <ele>2431.8</ele>
        <time>2021-02-28T10:55:58Z</time>
      </trkpt>
      <trkpt lat="45.06691" lon="6.4723">
        <ele>2432.2</ele>
        <time>2021-02-28T10:55:59Z</time>
      </trkpt>
      <trkpt lat="45.06691" lon="6.4723">
        <ele>2432</ele>
        <time>2021-02-28T10:56:00Z</time>
      </trkpt>
      <trkpt lat="45.06691" lon="6.4723">
        <ele>2432.4</ele>
        <time>2021-02-28T10:56:01Z</time>
      </trkpt>
      <trkpt lat="45.06689" lon="6.47228">
        <ele>2432.4</ele>
        <time>2021-02-28T10:56:02Z</time>
      </trkpt>
      <trkpt lat="45.06689" lon="6.47228">
        <ele>2432.6</ele>
        <time>2021-02-28T10:56:03Z</time>
      </trkpt>
      <trkpt lat="45.06688" lon="6.47227">
        <ele>2433</ele>
        <time>2021-02-28T10:56:04Z</time>
      </trkpt>
      <trkpt lat="45.06688" lon="6.47227">
        <ele>2433.4</ele>
        <time>2021-02-28T10:56:05Z</time>
      </trkpt>
      <trkpt lat="45.06688" lon="6.47227">
        <ele>2433.6</ele>
        <time>2021-02-28T10:56:06Z</time>
      </trkpt>
      <trkpt lat="45.06685" lon="6.47225">
        <ele>2434</ele>
        <time>2021-02-28T10:56:07Z</time>
      </trkpt>
      <trkpt lat="45.06685" lon="6.47225">
        <ele>2434.4</ele>
        <time>2021-02-28T10:56:08Z</time>
      </trkpt>
      <trkpt lat="45.06685" lon="6.47225">
        <ele>2434.4</ele>
        <time>2021-02-28T10:56:09Z</time>
      </trkpt>
      <trkpt lat="45.06683" lon="6.47224">
        <ele>2434.4</ele>
        <time>2021-02-28T10:56:10Z</time>
      </trkpt>
      <trkpt lat="45.06683" lon="6.47224">
        <ele>2434.6</ele>
        <time>2021-02-28T10:56:11Z</time>
      </trkpt>
      <trkpt lat="45.06683" lon="6.47224">
        <ele>2434</ele>
        <time>2021-02-28T10:56:12Z</time>
      </trkpt>
      <trkpt lat="45.0668" lon="6.47223">
        <ele>2434</ele>
        <time>2021-02-28T10:56:13Z</time>
      </trkpt>
      <trkpt lat="45.0668" lon="6.47223">
        <ele>2434.6</ele>
        <time>2021-02-28T10:56:14Z</time>
      </trkpt>
      <trkpt lat="45.0668" lon="6.47223">
        <ele>2434.6</ele>
        <time>2021-02-28T10:56:15Z</time>
      </trkpt>
      <trkpt lat="45.0668" lon="6.47223">
        <ele>2434.4</ele>
        <time>2021-02-28T10:56:16Z</time>
      </trkpt>
      <trkpt lat="45.06678" lon="6.47224">
        <ele>2434.8</ele>
        <time>2021-02-28T10:56:17Z</time>
      </trkpt>
      <trkpt lat="45.06678" lon="6.47224">
        <ele>2435.2</ele>
        <time>2021-02-28T10:56:18Z</time>
      </trkpt>
      <trkpt lat="45.06678" lon="6.47224">
        <ele>2435</ele>
        <time>2021-02-28T10:56:19Z</time>
      </trkpt>
      <trkpt lat="45.06678" lon="6.47224">
        <ele>2435.6</ele>
        <time>2021-02-28T10:56:20Z</time>
      </trkpt>
      <trkpt lat="45.06677" lon="6.47226">
        <ele>2435.6</ele>
        <time>2021-02-28T10:56:21Z</time>
      </trkpt>
      <trkpt lat="45.06677" lon="6.47226">
        <ele>2436.2</ele>
        <time>2021-02-28T10:56:22Z</time>
      </trkpt>
      <trkpt lat="45.06677" lon="6.47226">
        <ele>2436.4</ele>
        <time>2021-02-28T10:56:23Z</time>
      </trkpt>
      <trkpt lat="45.06675" lon="6.47225">
        <ele>2436.6</ele>
        <time>2021-02-28T10:56:24Z</time>
      </trkpt>
      <trkpt lat="45.06675" lon="6.47225">
        <ele>2436.8</ele>
        <time>2021-02-28T10:56:25Z</time>
      </trkpt>
      <trkpt lat="45.06675" lon="6.47225">
        <ele>2437.2</ele>
        <time>2021-02-28T10:56:26Z</time>
      </trkpt>
      <trkpt lat="45.06673" lon="6.47224">
        <ele>2437.4</ele>
        <time>2021-02-28T10:56:27Z</time>
      </trkpt>
      <trkpt lat="45.06673" lon="6.47224">
        <ele>2436.8</ele>
        <time>2021-02-28T10:56:28Z</time>
      </trkpt>
      <trkpt lat="45.06673" lon="6.47224">
        <ele>2437.6</ele>
        <time>2021-02-28T10:56:29Z</time>
      </trkpt>
      <trkpt lat="45.06671" lon="6.47224">
        <ele>2437</ele>
        <time>2021-02-28T10:56:30Z</time>
      </trkpt>
      <trkpt lat="45.06671" lon="6.47224">
        <ele>2437.2</ele>
        <time>2021-02-28T10:56:31Z</time>
      </trkpt>
      <trkpt lat="45.06669" lon="6.47223">
        <ele>2438</ele>
        <time>2021-02-28T10:56:32Z</time>
      </trkpt>
      <trkpt lat="45.06669" lon="6.47223">
        <ele>2438.2</ele>
        <time>2021-02-28T10:56:33Z</time>
      </trkpt>
      <trkpt lat="45.06669" lon="6.47223">
        <ele>2438.6</ele>
        <time>2021-02-28T10:56:34Z</time>
      </trkpt>
      <trkpt lat="45.06667" lon="6.47224">
        <ele>2438.6</ele>
        <time>2021-02-28T10:56:35Z</time>
      </trkpt>
      <trkpt lat="45.06667" lon="6.47224">
        <ele>2438.2</ele>
        <time>2021-02-28T10:56:36Z</time>
      </trkpt>
      <trkpt lat="45.06667" lon="6.47224">
        <ele>2438.8</ele>
        <time>2021-02-28T10:56:37Z</time>
      </trkpt>
      <trkpt lat="45.06665" lon="6.47225">
        <ele>2439.2</ele>
        <time>2021-02-28T10:56:38Z</time>
      </trkpt>
      <trkpt lat="45.06665" lon="6.47225">
        <ele>2439</ele>
        <time>2021-02-28T10:56:39Z</time>
      </trkpt>
      <trkpt lat="45.06665" lon="6.47225">
        <ele>2440.2</ele>
        <time>2021-02-28T10:56:40Z</time>
      </trkpt>
      <trkpt lat="45.06662" lon="6.47225">
        <ele>2440.4</ele>
        <time>2021-02-28T10:56:41Z</time>
      </trkpt>
      <trkpt lat="45.06662" lon="6.47225">
        <ele>2441</ele>
        <time>2021-02-28T10:56:42Z</time>
      </trkpt>
      <trkpt lat="45.06662" lon="6.47225">
        <ele>2441.2</ele>
        <time>2021-02-28T10:56:43Z</time>
      </trkpt>
      <trkpt lat="45.0666" lon="6.47227">
        <ele>2440.6</ele>
        <time>2021-02-28T10:56:44Z</time>
      </trkpt>
      <trkpt lat="45.0666" lon="6.47227">
        <ele>2441.2</ele>
        <time>2021-02-28T10:56:45Z</time>
      </trkpt>
      <trkpt lat="45.0666" lon="6.47227">
        <ele>2441</ele>
        <time>2021-02-28T10:56:46Z</time>
      </trkpt>
      <trkpt lat="45.06658" lon="6.47228">
        <ele>2440.8</ele>
        <time>2021-02-28T10:56:47Z</time>
      </trkpt>
      <trkpt lat="45.06658" lon="6.47228">
        <ele>2441.4</ele>
        <time>2021-02-28T10:56:48Z</time>
      </trkpt>
      <trkpt lat="45.06656" lon="6.47229">
        <ele>2441.2</ele>
        <time>2021-02-28T10:56:49Z</time>
      </trkpt>
      <trkpt lat="45.06656" lon="6.47229">
        <ele>2442.2</ele>
        <time>2021-02-28T10:56:50Z</time>
      </trkpt>
      <trkpt lat="45.06656" lon="6.47229">
        <ele>2442.8</ele>
        <time>2021-02-28T10:56:51Z</time>
      </trkpt>
      <trkpt lat="45.06654" lon="6.4723">
        <ele>2443</ele>
        <time>2021-02-28T10:56:52Z</time>
      </trkpt>
      <trkpt lat="45.06654" lon="6.4723">
        <ele>2443.2</ele>
        <time>2021-02-28T10:56:53Z</time>
      </trkpt>
      <trkpt lat="45.06652" lon="6.4723">
        <ele>2443.6</ele>
        <time>2021-02-28T10:56:54Z</time>
      </trkpt>
      <trkpt lat="45.06652" lon="6.4723">
        <ele>2444.2</ele>
        <time>2021-02-28T10:56:55Z</time>
      </trkpt>
      <trkpt lat="45.06652" lon="6.4723">
        <ele>2444.4</ele>
        <time>2021-02-28T10:56:56Z</time>
      </trkpt>
      <trkpt lat="45.0665" lon="6.47231">
        <ele>2444.6</ele>
        <time>2021-02-28T10:56:57Z</time>
      </trkpt>
      <trkpt lat="45.0665" lon="6.47231">
        <ele>2444.6</ele>
        <time>2021-02-28T10:56:58Z</time>
      </trkpt>
      <trkpt lat="45.0665" lon="6.47231">
        <ele>2444.8</ele>
        <time>2021-02-28T10:56:59Z</time>
      </trkpt>
      <trkpt lat="45.06648" lon="6.47232">
        <ele>2444</ele>
        <time>2021-02-28T10:57:00Z</time>
      </trkpt>
      <trkpt lat="45.06648" lon="6.47232">
        <ele>2444</ele>
        <time>2021-02-28T10:57:01Z</time>
      </trkpt>
      <trkpt lat="45.06648" lon="6.47232">
        <ele>2444.2</ele>
        <time>2021-02-28T10:57:02Z</time>
      </trkpt>
      <trkpt lat="45.06646" lon="6.47234">
        <ele>2444.2</ele>
        <time>2021-02-28T10:57:03Z</time>
      </trkpt>
      <trkpt lat="45.06646" lon="6.47234">
        <ele>2444.8</ele>
        <time>2021-02-28T10:57:04Z</time>
      </trkpt>
      <trkpt lat="45.06646" lon="6.47234">
        <ele>2444.6</ele>
        <time>2021-02-28T10:57:05Z</time>
      </trkpt>
      <trkpt lat="45.06645" lon="6.47236">
        <ele>2445</ele>
        <time>2021-02-28T10:57:06Z</time>
      </trkpt>
      <trkpt lat="45.06645" lon="6.47236">
        <ele>2445.6</ele>
        <time>2021-02-28T10:57:07Z</time>
      </trkpt>
      <trkpt lat="45.06645" lon="6.47236">
        <ele>2445.4</ele>
        <time>2021-02-28T10:57:08Z</time>
      </trkpt>
      <trkpt lat="45.06643" lon="6.47238">
        <ele>2446</ele>
        <time>2021-02-28T10:57:09Z</time>
      </trkpt>
      <trkpt lat="45.06643" lon="6.47238">
        <ele>2446.6</ele>
        <time>2021-02-28T10:57:10Z</time>
      </trkpt>
      <trkpt lat="45.06643" lon="6.47238">
        <ele>2446.6</ele>
        <time>2021-02-28T10:57:11Z</time>
      </trkpt>
      <trkpt lat="45.06642" lon="6.47241">
        <ele>2447</ele>
        <time>2021-02-28T10:57:12Z</time>
      </trkpt>
      <trkpt lat="45.06642" lon="6.47241">
        <ele>2446.8</ele>
        <time>2021-02-28T10:57:13Z</time>
      </trkpt>
      <trkpt lat="45.06642" lon="6.47241">
        <ele>2447.8</ele>
        <time>2021-02-28T10:57:14Z</time>
      </trkpt>
      <trkpt lat="45.0664" lon="6.47244">
        <ele>2448.2</ele>
        <time>2021-02-28T10:57:15Z</time>
      </trkpt>
      <trkpt lat="45.0664" lon="6.47244">
        <ele>2448.4</ele>
        <time>2021-02-28T10:57:16Z</time>
      </trkpt>
      <trkpt lat="45.0664" lon="6.47244">
        <ele>2448.6</ele>
        <time>2021-02-28T10:57:17Z</time>
      </trkpt>
      <trkpt lat="45.06639" lon="6.47246">
        <ele>2447</ele>
        <time>2021-02-28T10:57:18Z</time>
      </trkpt>
      <trkpt lat="45.06639" lon="6.47246">
        <ele>2447.4</ele>
        <time>2021-02-28T10:57:19Z</time>
      </trkpt>
      <trkpt lat="45.06639" lon="6.47246">
        <ele>2447.6</ele>
        <time>2021-02-28T10:57:20Z</time>
      </trkpt>
      <trkpt lat="45.06637" lon="6.47247">
        <ele>2447.2</ele>
        <time>2021-02-28T10:57:21Z</time>
      </trkpt>
      <trkpt lat="45.06637" lon="6.47247">
        <ele>2447.4</ele>
        <time>2021-02-28T10:57:22Z</time>
      </trkpt>
      <trkpt lat="45.06637" lon="6.47247">
        <ele>2447.8</ele>
        <time>2021-02-28T10:57:23Z</time>
      </trkpt>
      <trkpt lat="45.06635" lon="6.47249">
        <ele>2448.6</ele>
        <time>2021-02-28T10:57:24Z</time>
      </trkpt>
      <trkpt lat="45.06635" lon="6.47249">
        <ele>2448.6</ele>
        <time>2021-02-28T10:57:25Z</time>
      </trkpt>
      <trkpt lat="45.06633" lon="6.4725">
        <ele>2449.6</ele>
        <time>2021-02-28T10:57:26Z</time>
      </trkpt>
      <trkpt lat="45.06633" lon="6.4725">
        <ele>2449</ele>
        <time>2021-02-28T10:57:27Z</time>
      </trkpt>
      <trkpt lat="45.0663" lon="6.4725">
        <ele>2449.4</ele>
        <time>2021-02-28T10:57:28Z</time>
      </trkpt>
      <trkpt lat="45.0663" lon="6.4725">
        <ele>2449.6</ele>
        <time>2021-02-28T10:57:29Z</time>
      </trkpt>
      <trkpt lat="45.06629" lon="6.47251">
        <ele>2449.8</ele>
        <time>2021-02-28T10:57:30Z</time>
      </trkpt>
      <trkpt lat="45.06629" lon="6.47251">
        <ele>2450.2</ele>
        <time>2021-02-28T10:57:31Z</time>
      </trkpt>
      <trkpt lat="45.06627" lon="6.47253">
        <ele>2450.2</ele>
        <time>2021-02-28T10:57:32Z</time>
      </trkpt>
      <trkpt lat="45.06627" lon="6.47253">
        <ele>2450.2</ele>
        <time>2021-02-28T10:57:33Z</time>
      </trkpt>
      <trkpt lat="45.06625" lon="6.47255">
        <ele>2451</ele>
        <time>2021-02-28T10:57:34Z</time>
      </trkpt>
      <trkpt lat="45.06625" lon="6.47255">
        <ele>2451.6</ele>
        <time>2021-02-28T10:57:35Z</time>
      </trkpt>
      <trkpt lat="45.06623" lon="6.47256">
        <ele>2450.8</ele>
        <time>2021-02-28T10:57:36Z</time>
      </trkpt>
      <trkpt lat="45.06623" lon="6.47256">
        <ele>2450.8</ele>
        <time>2021-02-28T10:57:37Z</time>
      </trkpt>
      <trkpt lat="45.06621" lon="6.47257">
        <ele>2451.6</ele>
        <time>2021-02-28T10:57:38Z</time>
      </trkpt>
      <trkpt lat="45.06621" lon="6.47257">
        <ele>2451.8</ele>
        <time>2021-02-28T10:57:39Z</time>
      </trkpt>
      <trkpt lat="45.06619" lon="6.47259">
        <ele>2451.6</ele>
        <time>2021-02-28T10:57:40Z</time>
      </trkpt>
      <trkpt lat="45.06619" lon="6.47259">
        <ele>2451.8</ele>
        <time>2021-02-28T10:57:41Z</time>
      </trkpt>
      <trkpt lat="45.06617" lon="6.4726">
        <ele>2452.4</ele>
        <time>2021-02-28T10:57:42Z</time>
      </trkpt>
      <trkpt lat="45.06617" lon="6.4726">
        <ele>2452.4</ele>
        <time>2021-02-28T10:57:43Z</time>
      </trkpt>
      <trkpt lat="45.06614" lon="6.47261">
        <ele>2451.8</ele>
        <time>2021-02-28T10:57:44Z</time>
      </trkpt>
      <trkpt lat="45.06614" lon="6.47261">
        <ele>2452.6</ele>
        <time>2021-02-28T10:57:45Z</time>
      </trkpt>
      <trkpt lat="45.06612" lon="6.47263">
        <ele>2452.6</ele>
        <time>2021-02-28T10:57:46Z</time>
      </trkpt>
      <trkpt lat="45.06612" lon="6.47263">
        <ele>2452.6</ele>
        <time>2021-02-28T10:57:47Z</time>
      </trkpt>
      <trkpt lat="45.06609" lon="6.47264">
        <ele>2452.8</ele>
        <time>2021-02-28T10:57:48Z</time>
      </trkpt>
      <trkpt lat="45.06609" lon="6.47264">
        <ele>2452</ele>
        <time>2021-02-28T10:57:49Z</time>
      </trkpt>
      <trkpt lat="45.06607" lon="6.47265">
        <ele>2451.6</ele>
        <time>2021-02-28T10:57:50Z</time>
      </trkpt>
      <trkpt lat="45.06607" lon="6.47265">
        <ele>2452.4</ele>
        <time>2021-02-28T10:57:51Z</time>
      </trkpt>
      <trkpt lat="45.06604" lon="6.47266">
        <ele>2452.4</ele>
        <time>2021-02-28T10:57:52Z</time>
      </trkpt>
      <trkpt lat="45.06604" lon="6.47266">
        <ele>2451.6</ele>
        <time>2021-02-28T10:57:53Z</time>
      </trkpt>
      <trkpt lat="45.06602" lon="6.47268">
        <ele>2452.2</ele>
        <time>2021-02-28T10:57:54Z</time>
      </trkpt>
      <trkpt lat="45.06602" lon="6.47268">
        <ele>2452.2</ele>
        <time>2021-02-28T10:57:55Z</time>
      </trkpt>
      <trkpt lat="45.06599" lon="6.47269">
        <ele>2452.4</ele>
        <time>2021-02-28T10:57:56Z</time>
      </trkpt>
      <trkpt lat="45.06599" lon="6.47269">
        <ele>2452.2</ele>
        <time>2021-02-28T10:57:57Z</time>
      </trkpt>
      <trkpt lat="45.06597" lon="6.4727">
        <ele>2452.4</ele>
        <time>2021-02-28T10:57:58Z</time>
      </trkpt>
      <trkpt lat="45.06597" lon="6.4727">
        <ele>2452.6</ele>
        <time>2021-02-28T10:57:59Z</time>
      </trkpt>
      <trkpt lat="45.06595" lon="6.47272">
        <ele>2453.8</ele>
        <time>2021-02-28T10:58:00Z</time>
      </trkpt>
      <trkpt lat="45.06595" lon="6.47272">
        <ele>2453.4</ele>
        <time>2021-02-28T10:58:01Z</time>
      </trkpt>
      <trkpt lat="45.06592" lon="6.47273">
        <ele>2453</ele>
        <time>2021-02-28T10:58:02Z</time>
      </trkpt>
      <trkpt lat="45.06592" lon="6.47273">
        <ele>2453.6</ele>
        <time>2021-02-28T10:58:03Z</time>
      </trkpt>
      <trkpt lat="45.0659" lon="6.47274">
        <ele>2453.6</ele>
        <time>2021-02-28T10:58:04Z</time>
      </trkpt>
      <trkpt lat="45.0659" lon="6.47274">
        <ele>2453.8</ele>
        <time>2021-02-28T10:58:05Z</time>
      </trkpt>
      <trkpt lat="45.06588" lon="6.47275">
        <ele>2453</ele>
        <time>2021-02-28T10:58:06Z</time>
      </trkpt>
      <trkpt lat="45.06588" lon="6.47275">
        <ele>2453.2</ele>
        <time>2021-02-28T10:58:07Z</time>
      </trkpt>
      <trkpt lat="45.06585" lon="6.47277">
        <ele>2453.4</ele>
        <time>2021-02-28T10:58:08Z</time>
      </trkpt>
      <trkpt lat="45.06585" lon="6.47277">
        <ele>2453.8</ele>
        <time>2021-02-28T10:58:09Z</time>
      </trkpt>
      <trkpt lat="45.06583" lon="6.47278">
        <ele>2454</ele>
        <time>2021-02-28T10:58:10Z</time>
      </trkpt>
      <trkpt lat="45.06583" lon="6.47278">
        <ele>2454.4</ele>
        <time>2021-02-28T10:58:11Z</time>
      </trkpt>
      <trkpt lat="45.0658" lon="6.47278">
        <ele>2454.6</ele>
        <time>2021-02-28T10:58:12Z</time>
      </trkpt>
      <trkpt lat="45.0658" lon="6.47278">
        <ele>2455.4</ele>
        <time>2021-02-28T10:58:13Z</time>
      </trkpt>
      <trkpt lat="45.06577" lon="6.47279">
        <ele>2455.6</ele>
        <time>2021-02-28T10:58:14Z</time>
      </trkpt>
      <trkpt lat="45.06577" lon="6.47279">
        <ele>2455.8</ele>
        <time>2021-02-28T10:58:15Z</time>
      </trkpt>
      <trkpt lat="45.06575" lon="6.4728">
        <ele>2455</ele>
        <time>2021-02-28T10:58:16Z</time>
      </trkpt>
      <trkpt lat="45.06575" lon="6.4728">
        <ele>2455.6</ele>
        <time>2021-02-28T10:58:17Z</time>
      </trkpt>
      <trkpt lat="45.06573" lon="6.47281">
        <ele>2455.4</ele>
        <time>2021-02-28T10:58:18Z</time>
      </trkpt>
      <trkpt lat="45.06573" lon="6.47281">
        <ele>2455.6</ele>
        <time>2021-02-28T10:58:19Z</time>
      </trkpt>
      <trkpt lat="45.06571" lon="6.47282">
        <ele>2455.4</ele>
        <time>2021-02-28T10:58:20Z</time>
      </trkpt>
      <trkpt lat="45.06571" lon="6.47282">
        <ele>2455.4</ele>
        <time>2021-02-28T10:58:21Z</time>
      </trkpt>
      <trkpt lat="45.06569" lon="6.47283">
        <ele>2455.8</ele>
        <time>2021-02-28T10:58:22Z</time>
      </trkpt>
      <trkpt lat="45.06569" lon="6.47283">
        <ele>2456.2</ele>
        <time>2021-02-28T10:58:23Z</time>
      </trkpt>
      <trkpt lat="45.06567" lon="6.47283">
        <ele>2456</ele>
        <time>2021-02-28T10:58:24Z</time>
      </trkpt>
      <trkpt lat="45.06567" lon="6.47283">
        <ele>2456.2</ele>
        <time>2021-02-28T10:58:25Z</time>
      </trkpt>
      <trkpt lat="45.06565" lon="6.47283">
        <ele>2456.2</ele>
        <time>2021-02-28T10:58:26Z</time>
      </trkpt>
      <trkpt lat="45.06565" lon="6.47283">
        <ele>2456</ele>
        <time>2021-02-28T10:58:27Z</time>
      </trkpt>
      <trkpt lat="45.06562" lon="6.47283">
        <ele>2456.4</ele>
        <time>2021-02-28T10:58:28Z</time>
      </trkpt>
      <trkpt lat="45.06562" lon="6.47283">
        <ele>2456.4</ele>
        <time>2021-02-28T10:58:29Z</time>
      </trkpt>
      <trkpt lat="45.0656" lon="6.47282">
        <ele>2456.8</ele>
        <time>2021-02-28T10:58:30Z</time>
      </trkpt>
      <trkpt lat="45.0656" lon="6.47282">
        <ele>2457.2</ele>
        <time>2021-02-28T10:58:31Z</time>
      </trkpt>
      <trkpt lat="45.06558" lon="6.47282">
        <ele>2457.4</ele>
        <time>2021-02-28T10:58:32Z</time>
      </trkpt>
      <trkpt lat="45.06558" lon="6.47282">
        <ele>2457.8</ele>
        <time>2021-02-28T10:58:33Z</time>
      </trkpt>
      <trkpt lat="45.06555" lon="6.47281">
        <ele>2457.8</ele>
        <time>2021-02-28T10:58:34Z</time>
      </trkpt>
      <trkpt lat="45.06555" lon="6.47281">
        <ele>2458.2</ele>
        <time>2021-02-28T10:58:35Z</time>
      </trkpt>
      <trkpt lat="45.06553" lon="6.4728">
        <ele>2458.4</ele>
        <time>2021-02-28T10:58:36Z</time>
      </trkpt>
      <trkpt lat="45.06553" lon="6.4728">
        <ele>2458.4</ele>
        <time>2021-02-28T10:58:37Z</time>
      </trkpt>
      <trkpt lat="45.0655" lon="6.4728">
        <ele>2459</ele>
        <time>2021-02-28T10:58:38Z</time>
      </trkpt>
      <trkpt lat="45.0655" lon="6.4728">
        <ele>2458.8</ele>
        <time>2021-02-28T10:58:39Z</time>
      </trkpt>
      <trkpt lat="45.06548" lon="6.47279">
        <ele>2459.2</ele>
        <time>2021-02-28T10:58:40Z</time>
      </trkpt>
      <trkpt lat="45.06548" lon="6.47279">
        <ele>2459.2</ele>
        <time>2021-02-28T10:58:41Z</time>
      </trkpt>
      <trkpt lat="45.06545" lon="6.47278">
        <ele>2459.8</ele>
        <time>2021-02-28T10:58:42Z</time>
      </trkpt>
      <trkpt lat="45.06545" lon="6.47278">
        <ele>2460</ele>
        <time>2021-02-28T10:58:43Z</time>
      </trkpt>
      <trkpt lat="45.06543" lon="6.47277">
        <ele>2460.2</ele>
        <time>2021-02-28T10:58:44Z</time>
      </trkpt>
      <trkpt lat="45.06543" lon="6.47277">
        <ele>2457.8</ele>
        <time>2021-02-28T10:58:45Z</time>
      </trkpt>
      <trkpt lat="45.0654" lon="6.47276">
        <ele>2458</ele>
        <time>2021-02-28T10:58:46Z</time>
      </trkpt>
      <trkpt lat="45.0654" lon="6.47276">
        <ele>2459.4</ele>
        <time>2021-02-28T10:58:47Z</time>
      </trkpt>
      <trkpt lat="45.06537" lon="6.47276">
        <ele>2459.8</ele>
        <time>2021-02-28T10:58:48Z</time>
      </trkpt>
      <trkpt lat="45.06537" lon="6.47276">
        <ele>2460</ele>
        <time>2021-02-28T10:58:49Z</time>
      </trkpt>
      <trkpt lat="45.06534" lon="6.47275">
        <ele>2459.6</ele>
        <time>2021-02-28T10:58:50Z</time>
      </trkpt>
      <trkpt lat="45.06534" lon="6.47275">
        <ele>2460.2</ele>
        <time>2021-02-28T10:58:51Z</time>
      </trkpt>
      <trkpt lat="45.06532" lon="6.47274">
        <ele>2459.8</ele>
        <time>2021-02-28T10:58:52Z</time>
      </trkpt>
      <trkpt lat="45.06532" lon="6.47274">
        <ele>2459.6</ele>
        <time>2021-02-28T10:58:53Z</time>
      </trkpt>
      <trkpt lat="45.0653" lon="6.47274">
        <ele>2460.2</ele>
        <time>2021-02-28T10:58:54Z</time>
      </trkpt>
      <trkpt lat="45.0653" lon="6.47274">
        <ele>2459.2</ele>
        <time>2021-02-28T10:58:55Z</time>
      </trkpt>
      <trkpt lat="45.06527" lon="6.47275">
        <ele>2459</ele>
        <time>2021-02-28T10:58:56Z</time>
      </trkpt>
      <trkpt lat="45.06527" lon="6.47275">
        <ele>2459.8</ele>
        <time>2021-02-28T10:58:57Z</time>
      </trkpt>
      <trkpt lat="45.06525" lon="6.47275">
        <ele>2460.4</ele>
        <time>2021-02-28T10:58:58Z</time>
      </trkpt>
      <trkpt lat="45.06525" lon="6.47275">
        <ele>2459.8</ele>
        <time>2021-02-28T10:58:59Z</time>
      </trkpt>
      <trkpt lat="45.06523" lon="6.47274">
        <ele>2459.8</ele>
        <time>2021-02-28T10:59:00Z</time>
      </trkpt>
      <trkpt lat="45.06523" lon="6.47274">
        <ele>2459.6</ele>
        <time>2021-02-28T10:59:01Z</time>
      </trkpt>
      <trkpt lat="45.06521" lon="6.47274">
        <ele>2460.4</ele>
        <time>2021-02-28T10:59:02Z</time>
      </trkpt>
      <trkpt lat="45.06521" lon="6.47274">
        <ele>2461</ele>
        <time>2021-02-28T10:59:03Z</time>
      </trkpt>
      <trkpt lat="45.06518" lon="6.47273">
        <ele>2460.2</ele>
        <time>2021-02-28T10:59:04Z</time>
      </trkpt>
      <trkpt lat="45.06518" lon="6.47273">
        <ele>2460.2</ele>
        <time>2021-02-28T10:59:05Z</time>
      </trkpt>
      <trkpt lat="45.06515" lon="6.47271">
        <ele>2460.8</ele>
        <time>2021-02-28T10:59:06Z</time>
      </trkpt>
      <trkpt lat="45.06515" lon="6.47271">
        <ele>2461.4</ele>
        <time>2021-02-28T10:59:07Z</time>
      </trkpt>
      <trkpt lat="45.06512" lon="6.47269">
        <ele>2461.4</ele>
        <time>2021-02-28T10:59:08Z</time>
      </trkpt>
      <trkpt lat="45.06512" lon="6.47269">
        <ele>2461</ele>
        <time>2021-02-28T10:59:09Z</time>
      </trkpt>
      <trkpt lat="45.06509" lon="6.47268">
        <ele>2461</ele>
        <time>2021-02-28T10:59:10Z</time>
      </trkpt>
      <trkpt lat="45.06509" lon="6.47268">
        <ele>2461.2</ele>
        <time>2021-02-28T10:59:11Z</time>
      </trkpt>
      <trkpt lat="45.06507" lon="6.47267">
        <ele>2461.4</ele>
        <time>2021-02-28T10:59:12Z</time>
      </trkpt>
      <trkpt lat="45.06507" lon="6.47267">
        <ele>2462</ele>
        <time>2021-02-28T10:59:13Z</time>
      </trkpt>
      <trkpt lat="45.06505" lon="6.47266">
        <ele>2461.6</ele>
        <time>2021-02-28T10:59:14Z</time>
      </trkpt>
      <trkpt lat="45.06505" lon="6.47266">
        <ele>2461.4</ele>
        <time>2021-02-28T10:59:15Z</time>
      </trkpt>
      <trkpt lat="45.06502" lon="6.47266">
        <ele>2461.2</ele>
        <time>2021-02-28T10:59:16Z</time>
      </trkpt>
      <trkpt lat="45.06502" lon="6.47266">
        <ele>2460.6</ele>
        <time>2021-02-28T10:59:17Z</time>
      </trkpt>
      <trkpt lat="45.065" lon="6.47265">
        <ele>2461</ele>
        <time>2021-02-28T10:59:18Z</time>
      </trkpt>
      <trkpt lat="45.065" lon="6.47265">
        <ele>2461</ele>
        <time>2021-02-28T10:59:19Z</time>
      </trkpt>
      <trkpt lat="45.06498" lon="6.47265">
        <ele>2461.2</ele>
        <time>2021-02-28T10:59:20Z</time>
      </trkpt>
      <trkpt lat="45.06498" lon="6.47265">
        <ele>2461.6</ele>
        <time>2021-02-28T10:59:21Z</time>
      </trkpt>
      <trkpt lat="45.06498" lon="6.47265">
        <ele>2461.6</ele>
        <time>2021-02-28T10:59:22Z</time>
      </trkpt>
      <trkpt lat="45.06496" lon="6.47265">
        <ele>2461.6</ele>
        <time>2021-02-28T10:59:23Z</time>
      </trkpt>
      <trkpt lat="45.06496" lon="6.47265">
        <ele>2461.4</ele>
        <time>2021-02-28T10:59:24Z</time>
      </trkpt>
      <trkpt lat="45.06496" lon="6.47265">
        <ele>2461.2</ele>
        <time>2021-02-28T10:59:25Z</time>
      </trkpt>
      <trkpt lat="45.06493" lon="6.47265">
        <ele>2461.2</ele>
        <time>2021-02-28T10:59:26Z</time>
      </trkpt>
      <trkpt lat="45.06493" lon="6.47265">
        <ele>2461</ele>
        <time>2021-02-28T10:59:27Z</time>
      </trkpt>
      <trkpt lat="45.06493" lon="6.47265">
        <ele>2461.4</ele>
        <time>2021-02-28T10:59:28Z</time>
      </trkpt>
      <trkpt lat="45.06491" lon="6.47266">
        <ele>2461</ele>
        <time>2021-02-28T10:59:29Z</time>
      </trkpt>
      <trkpt lat="45.06491" lon="6.47266">
        <ele>2461.4</ele>
        <time>2021-02-28T10:59:30Z</time>
      </trkpt>
      <trkpt lat="45.06489" lon="6.47267">
        <ele>2461.8</ele>
        <time>2021-02-28T10:59:31Z</time>
      </trkpt>
      <trkpt lat="45.06489" lon="6.47267">
        <ele>2462.2</ele>
        <time>2021-02-28T10:59:32Z</time>
      </trkpt>
      <trkpt lat="45.06489" lon="6.47267">
        <ele>2462.6</ele>
        <time>2021-02-28T10:59:33Z</time>
      </trkpt>
      <trkpt lat="45.06486" lon="6.47267">
        <ele>2463</ele>
        <time>2021-02-28T10:59:34Z</time>
      </trkpt>
      <trkpt lat="45.06486" lon="6.47267">
        <ele>2463</ele>
        <time>2021-02-28T10:59:35Z</time>
      </trkpt>
      <trkpt lat="45.06486" lon="6.47267">
        <ele>2463</ele>
        <time>2021-02-28T10:59:36Z</time>
      </trkpt>
      <trkpt lat="45.06484" lon="6.47267">
        <ele>2462.8</ele>
        <time>2021-02-28T10:59:37Z</time>
      </trkpt>
      <trkpt lat="45.06484" lon="6.47267">
        <ele>2463.2</ele>
        <time>2021-02-28T10:59:38Z</time>
      </trkpt>
      <trkpt lat="45.06484" lon="6.47267">
        <ele>2463.6</ele>
        <time>2021-02-28T10:59:39Z</time>
      </trkpt>
      <trkpt lat="45.06481" lon="6.47267">
        <ele>2464</ele>
        <time>2021-02-28T10:59:40Z</time>
      </trkpt>
      <trkpt lat="45.06481" lon="6.47267">
        <ele>2464</ele>
        <time>2021-02-28T10:59:41Z</time>
      </trkpt>
      <trkpt lat="45.06481" lon="6.47267">
        <ele>2464.2</ele>
        <time>2021-02-28T10:59:42Z</time>
      </trkpt>
      <trkpt lat="45.06479" lon="6.47267">
        <ele>2464.2</ele>
        <time>2021-02-28T10:59:43Z</time>
      </trkpt>
      <trkpt lat="45.06479" lon="6.47267">
        <ele>2464</ele>
        <time>2021-02-28T10:59:44Z</time>
      </trkpt>
      <trkpt lat="45.06478" lon="6.47268">
        <ele>2464.2</ele>
        <time>2021-02-28T10:59:45Z</time>
      </trkpt>
      <trkpt lat="45.06478" lon="6.47268">
        <ele>2464.4</ele>
        <time>2021-02-28T10:59:46Z</time>
      </trkpt>
      <trkpt lat="45.06475" lon="6.47269">
        <ele>2464.4</ele>
        <time>2021-02-28T10:59:47Z</time>
      </trkpt>
      <trkpt lat="45.06475" lon="6.47269">
        <ele>2464.4</ele>
        <time>2021-02-28T10:59:48Z</time>
      </trkpt>
      <trkpt lat="45.06473" lon="6.47269">
        <ele>2464.8</ele>
        <time>2021-02-28T10:59:49Z</time>
      </trkpt>
      <trkpt lat="45.06473" lon="6.47269">
        <ele>2465.2</ele>
        <time>2021-02-28T10:59:50Z</time>
      </trkpt>
      <trkpt lat="45.06473" lon="6.47269">
        <ele>2465.2</ele>
        <time>2021-02-28T10:59:51Z</time>
      </trkpt>
      <trkpt lat="45.0647" lon="6.4727">
        <ele>2465.4</ele>
        <time>2021-02-28T10:59:52Z</time>
      </trkpt>
      <trkpt lat="45.0647" lon="6.4727">
        <ele>2465.4</ele>
        <time>2021-02-28T10:59:53Z</time>
      </trkpt>
      <trkpt lat="45.0647" lon="6.4727">
        <ele>2465.6</ele>
        <time>2021-02-28T10:59:54Z</time>
      </trkpt>
      <trkpt lat="45.06468" lon="6.4727">
        <ele>2465.2</ele>
        <time>2021-02-28T10:59:55Z</time>
      </trkpt>
      <trkpt lat="45.06468" lon="6.4727">
        <ele>2465.4</ele>
        <time>2021-02-28T10:59:56Z</time>
      </trkpt>
      <trkpt lat="45.06468" lon="6.4727">
        <ele>2465.6</ele>
        <time>2021-02-28T10:59:57Z</time>
      </trkpt>
      <trkpt lat="45.06465" lon="6.47271">
        <ele>2465.6</ele>
        <time>2021-02-28T10:59:58Z</time>
      </trkpt>
      <trkpt lat="45.06465" lon="6.47271">
        <ele>2465.8</ele>
        <time>2021-02-28T10:59:59Z</time>
      </trkpt>
      <trkpt lat="45.06465" lon="6.47271">
        <ele>2465.8</ele>
        <time>2021-02-28T11:00:00Z</time>
      </trkpt>
      <trkpt lat="45.06463" lon="6.47272">
        <ele>2466</ele>
        <time>2021-02-28T11:00:01Z</time>
      </trkpt>
      <trkpt lat="45.06463" lon="6.47272">
        <ele>2466.4</ele>
        <time>2021-02-28T11:00:02Z</time>
      </trkpt>
      <trkpt lat="45.06463" lon="6.47272">
        <ele>2466.6</ele>
        <time>2021-02-28T11:00:03Z</time>
      </trkpt>
      <trkpt lat="45.0646" lon="6.47273">
        <ele>2466.4</ele>
        <time>2021-02-28T11:00:04Z</time>
      </trkpt>
      <trkpt lat="45.0646" lon="6.47273">
        <ele>2466.8</ele>
        <time>2021-02-28T11:00:05Z</time>
      </trkpt>
      <trkpt lat="45.0646" lon="6.47273">
        <ele>2467</ele>
        <time>2021-02-28T11:00:06Z</time>
      </trkpt>
      <trkpt lat="45.06458" lon="6.47273">
        <ele>2467.4</ele>
        <time>2021-02-28T11:00:07Z</time>
      </trkpt>
      <trkpt lat="45.06458" lon="6.47273">
        <ele>2467</ele>
        <time>2021-02-28T11:00:08Z</time>
      </trkpt>
      <trkpt lat="45.06458" lon="6.47273">
        <ele>2467.4</ele>
        <time>2021-02-28T11:00:09Z</time>
      </trkpt>
      <trkpt lat="45.06456" lon="6.47274">
        <ele>2468</ele>
        <time>2021-02-28T11:00:10Z</time>
      </trkpt>
      <trkpt lat="45.06456" lon="6.47274">
        <ele>2468</ele>
        <time>2021-02-28T11:00:11Z</time>
      </trkpt>
      <trkpt lat="45.06456" lon="6.47274">
        <ele>2468</ele>
        <time>2021-02-28T11:00:12Z</time>
      </trkpt>
      <trkpt lat="45.06454" lon="6.47275">
        <ele>2467.8</ele>
        <time>2021-02-28T11:00:13Z</time>
      </trkpt>
      <trkpt lat="45.06454" lon="6.47275">
        <ele>2467.8</ele>
        <time>2021-02-28T11:00:14Z</time>
      </trkpt>
      <trkpt lat="45.06454" lon="6.47275">
        <ele>2468.2</ele>
        <time>2021-02-28T11:00:15Z</time>
      </trkpt>
      <trkpt lat="45.06452" lon="6.47275">
        <ele>2468.4</ele>
        <time>2021-02-28T11:00:16Z</time>
      </trkpt>
      <trkpt lat="45.06452" lon="6.47275">
        <ele>2468.6</ele>
        <time>2021-02-28T11:00:17Z</time>
      </trkpt>
      <trkpt lat="45.06452" lon="6.47275">
        <ele>2468.8</ele>
        <time>2021-02-28T11:00:18Z</time>
      </trkpt>
      <trkpt lat="45.06449" lon="6.47277">
        <ele>2469</ele>
        <time>2021-02-28T11:00:19Z</time>
      </trkpt>
      <trkpt lat="45.06449" lon="6.47277">
        <ele>2469.4</ele>
        <time>2021-02-28T11:00:20Z</time>
      </trkpt>
      <trkpt lat="45.06449" lon="6.47277">
        <ele>2469.8</ele>
        <time>2021-02-28T11:00:21Z</time>
      </trkpt>
      <trkpt lat="45.06447" lon="6.47278">
        <ele>2469.6</ele>
        <time>2021-02-28T11:00:22Z</time>
      </trkpt>
      <trkpt lat="45.06447" lon="6.47278">
        <ele>2470</ele>
        <time>2021-02-28T11:00:23Z</time>
      </trkpt>
      <trkpt lat="45.06447" lon="6.47278">
        <ele>2470.2</ele>
        <time>2021-02-28T11:00:24Z</time>
      </trkpt>
      <trkpt lat="45.06444" lon="6.4728">
        <ele>2470.4</ele>
        <time>2021-02-28T11:00:25Z</time>
      </trkpt>
      <trkpt lat="45.06444" lon="6.4728">
        <ele>2470.6</ele>
        <time>2021-02-28T11:00:26Z</time>
      </trkpt>
      <trkpt lat="45.06443" lon="6.47281">
        <ele>2470.2</ele>
        <time>2021-02-28T11:00:27Z</time>
      </trkpt>
      <trkpt lat="45.06443" lon="6.47281">
        <ele>2470.4</ele>
        <time>2021-02-28T11:00:28Z</time>
      </trkpt>
      <trkpt lat="45.06441" lon="6.47282">
        <ele>2470.6</ele>
        <time>2021-02-28T11:00:29Z</time>
      </trkpt>
      <trkpt lat="45.06441" lon="6.47282">
        <ele>2471</ele>
        <time>2021-02-28T11:00:30Z</time>
      </trkpt>
      <trkpt lat="45.06439" lon="6.47284">
        <ele>2471.2</ele>
        <time>2021-02-28T11:00:31Z</time>
      </trkpt>
      <trkpt lat="45.06439" lon="6.47284">
        <ele>2471.2</ele>
        <time>2021-02-28T11:00:32Z</time>
      </trkpt>
      <trkpt lat="45.06439" lon="6.47284">
        <ele>2471.6</ele>
        <time>2021-02-28T11:00:33Z</time>
      </trkpt>
      <trkpt lat="45.06437" lon="6.47285">
        <ele>2471.8</ele>
        <time>2021-02-28T11:00:34Z</time>
      </trkpt>
      <trkpt lat="45.06437" lon="6.47285">
        <ele>2472</ele>
        <time>2021-02-28T11:00:35Z</time>
      </trkpt>
      <trkpt lat="45.06437" lon="6.47285">
        <ele>2472.2</ele>
        <time>2021-02-28T11:00:36Z</time>
      </trkpt>
      <trkpt lat="45.06435" lon="6.47286">
        <ele>2472</ele>
        <time>2021-02-28T11:00:37Z</time>
      </trkpt>
      <trkpt lat="45.06435" lon="6.47286">
        <ele>2472.2</ele>
        <time>2021-02-28T11:00:38Z</time>
      </trkpt>
      <trkpt lat="45.06433" lon="6.47288">
        <ele>2472.6</ele>
        <time>2021-02-28T11:00:39Z</time>
      </trkpt>
      <trkpt lat="45.06433" lon="6.47288">
        <ele>2472.6</ele>
        <time>2021-02-28T11:00:40Z</time>
      </trkpt>
      <trkpt lat="45.06433" lon="6.47288">
        <ele>2472.8</ele>
        <time>2021-02-28T11:00:41Z</time>
      </trkpt>
      <trkpt lat="45.06431" lon="6.47289">
        <ele>2472.8</ele>
        <time>2021-02-28T11:00:42Z</time>
      </trkpt>
      <trkpt lat="45.06431" lon="6.47289">
        <ele>2473</ele>
        <time>2021-02-28T11:00:43Z</time>
      </trkpt>
      <trkpt lat="45.06431" lon="6.47289">
        <ele>2473.2</ele>
        <time>2021-02-28T11:00:44Z</time>
      </trkpt>
      <trkpt lat="45.06428" lon="6.47291">
        <ele>2473.6</ele>
        <time>2021-02-28T11:00:45Z</time>
      </trkpt>
      <trkpt lat="45.06428" lon="6.47291">
        <ele>2473.6</ele>
        <time>2021-02-28T11:00:46Z</time>
      </trkpt>
      <trkpt lat="45.06427" lon="6.47293">
        <ele>2474</ele>
        <time>2021-02-28T11:00:47Z</time>
      </trkpt>
      <trkpt lat="45.06427" lon="6.47293">
        <ele>2473.8</ele>
        <time>2021-02-28T11:00:48Z</time>
      </trkpt>
      <trkpt lat="45.06427" lon="6.47293">
        <ele>2474.2</ele>
        <time>2021-02-28T11:00:49Z</time>
      </trkpt>
      <trkpt lat="45.06425" lon="6.47295">
        <ele>2474.4</ele>
        <time>2021-02-28T11:00:50Z</time>
      </trkpt>
      <trkpt lat="45.06425" lon="6.47295">
        <ele>2474.4</ele>
        <time>2021-02-28T11:00:51Z</time>
      </trkpt>
      <trkpt lat="45.06425" lon="6.47295">
        <ele>2475</ele>
        <time>2021-02-28T11:00:52Z</time>
      </trkpt>
      <trkpt lat="45.06424" lon="6.47297">
        <ele>2474.8</ele>
        <time>2021-02-28T11:00:53Z</time>
      </trkpt>
      <trkpt lat="45.06424" lon="6.47297">
        <ele>2475</ele>
        <time>2021-02-28T11:00:54Z</time>
      </trkpt>
      <trkpt lat="45.06424" lon="6.47297">
        <ele>2475.4</ele>
        <time>2021-02-28T11:00:55Z</time>
      </trkpt>
      <trkpt lat="45.06422" lon="6.473">
        <ele>2475</ele>
        <time>2021-02-28T11:00:56Z</time>
      </trkpt>
      <trkpt lat="45.06422" lon="6.473">
        <ele>2475.2</ele>
        <time>2021-02-28T11:00:57Z</time>
      </trkpt>
      <trkpt lat="45.06422" lon="6.473">
        <ele>2476</ele>
        <time>2021-02-28T11:00:58Z</time>
      </trkpt>
      <trkpt lat="45.06421" lon="6.47302">
        <ele>2475.8</ele>
        <time>2021-02-28T11:00:59Z</time>
      </trkpt>
      <trkpt lat="45.06421" lon="6.47302">
        <ele>2477</ele>
        <time>2021-02-28T11:01:00Z</time>
      </trkpt>
      <trkpt lat="45.06421" lon="6.47302">
        <ele>2477</ele>
        <time>2021-02-28T11:01:01Z</time>
      </trkpt>
      <trkpt lat="45.0642" lon="6.47305">
        <ele>2476.4</ele>
        <time>2021-02-28T11:01:02Z</time>
      </trkpt>
      <trkpt lat="45.0642" lon="6.47305">
        <ele>2477.2</ele>
        <time>2021-02-28T11:01:03Z</time>
      </trkpt>
      <trkpt lat="45.06418" lon="6.47307">
        <ele>2476.4</ele>
        <time>2021-02-28T11:01:04Z</time>
      </trkpt>
      <trkpt lat="45.06418" lon="6.47307">
        <ele>2476.6</ele>
        <time>2021-02-28T11:01:05Z</time>
      </trkpt>
      <trkpt lat="45.06418" lon="6.47307">
        <ele>2476.8</ele>
        <time>2021-02-28T11:01:06Z</time>
      </trkpt>
      <trkpt lat="45.06417" lon="6.4731">
        <ele>2476.4</ele>
        <time>2021-02-28T11:01:07Z</time>
      </trkpt>
      <trkpt lat="45.06417" lon="6.4731">
        <ele>2476.6</ele>
        <time>2021-02-28T11:01:08Z</time>
      </trkpt>
      <trkpt lat="45.06417" lon="6.4731">
        <ele>2476.6</ele>
        <time>2021-02-28T11:01:09Z</time>
      </trkpt>
      <trkpt lat="45.06415" lon="6.47313">
        <ele>2477.6</ele>
        <time>2021-02-28T11:01:10Z</time>
      </trkpt>
      <trkpt lat="45.06415" lon="6.47313">
        <ele>2478</ele>
        <time>2021-02-28T11:01:11Z</time>
      </trkpt>
      <trkpt lat="45.06415" lon="6.47313">
        <ele>2478.4</ele>
        <time>2021-02-28T11:01:12Z</time>
      </trkpt>
      <trkpt lat="45.06414" lon="6.47315">
        <ele>2478.8</ele>
        <time>2021-02-28T11:01:13Z</time>
      </trkpt>
      <trkpt lat="45.06414" lon="6.47315">
        <ele>2478.6</ele>
        <time>2021-02-28T11:01:14Z</time>
      </trkpt>
      <trkpt lat="45.06414" lon="6.47315">
        <ele>2479.2</ele>
        <time>2021-02-28T11:01:15Z</time>
      </trkpt>
      <trkpt lat="45.06411" lon="6.47317">
        <ele>2479.2</ele>
        <time>2021-02-28T11:01:16Z</time>
      </trkpt>
      <trkpt lat="45.06411" lon="6.47317">
        <ele>2479.6</ele>
        <time>2021-02-28T11:01:17Z</time>
      </trkpt>
      <trkpt lat="45.06411" lon="6.47317">
        <ele>2480.4</ele>
        <time>2021-02-28T11:01:18Z</time>
      </trkpt>
      <trkpt lat="45.0641" lon="6.47318">
        <ele>2480.2</ele>
        <time>2021-02-28T11:01:19Z</time>
      </trkpt>
      <trkpt lat="45.0641" lon="6.47318">
        <ele>2481</ele>
        <time>2021-02-28T11:01:20Z</time>
      </trkpt>
      <trkpt lat="45.0641" lon="6.47318">
        <ele>2481.2</ele>
        <time>2021-02-28T11:01:21Z</time>
      </trkpt>
      <trkpt lat="45.0641" lon="6.47318">
        <ele>2481</ele>
        <time>2021-02-28T11:01:22Z</time>
      </trkpt>
      <trkpt lat="45.06408" lon="6.4732">
        <ele>2481.8</ele>
        <time>2021-02-28T11:01:23Z</time>
      </trkpt>
      <trkpt lat="45.06408" lon="6.4732">
        <ele>2482.4</ele>
        <time>2021-02-28T11:01:24Z</time>
      </trkpt>
      <trkpt lat="45.06407" lon="6.47323">
        <ele>2482.2</ele>
        <time>2021-02-28T11:01:25Z</time>
      </trkpt>
      <trkpt lat="45.06407" lon="6.47323">
        <ele>2482.8</ele>
        <time>2021-02-28T11:01:26Z</time>
      </trkpt>
      <trkpt lat="45.06406" lon="6.47325">
        <ele>2482.6</ele>
        <time>2021-02-28T11:01:27Z</time>
      </trkpt>
      <trkpt lat="45.06406" lon="6.47325">
        <ele>2482.6</ele>
        <time>2021-02-28T11:01:28Z</time>
      </trkpt>
      <trkpt lat="45.06405" lon="6.47327">
        <ele>2483.8</ele>
        <time>2021-02-28T11:01:29Z</time>
      </trkpt>
      <trkpt lat="45.06405" lon="6.47327">
        <ele>2483.4</ele>
        <time>2021-02-28T11:01:30Z</time>
      </trkpt>
      <trkpt lat="45.06404" lon="6.47331">
        <ele>2482.8</ele>
        <time>2021-02-28T11:01:31Z</time>
      </trkpt>
      <trkpt lat="45.06404" lon="6.47331">
        <ele>2483.4</ele>
        <time>2021-02-28T11:01:32Z</time>
      </trkpt>
      <trkpt lat="45.06403" lon="6.47334">
        <ele>2482.4</ele>
        <time>2021-02-28T11:01:33Z</time>
      </trkpt>
      <trkpt lat="45.06403" lon="6.47334">
        <ele>2483.2</ele>
        <time>2021-02-28T11:01:34Z</time>
      </trkpt>
      <trkpt lat="45.06401" lon="6.47337">
        <ele>2483</ele>
        <time>2021-02-28T11:01:35Z</time>
      </trkpt>
      <trkpt lat="45.06401" lon="6.47337">
        <ele>2483.4</ele>
        <time>2021-02-28T11:01:36Z</time>
      </trkpt>
      <trkpt lat="45.064" lon="6.4734">
        <ele>2483.4</ele>
        <time>2021-02-28T11:01:37Z</time>
      </trkpt>
      <trkpt lat="45.064" lon="6.4734">
        <ele>2483.2</ele>
        <time>2021-02-28T11:01:38Z</time>
      </trkpt>
      <trkpt lat="45.06399" lon="6.47342">
        <ele>2483.4</ele>
        <time>2021-02-28T11:01:39Z</time>
      </trkpt>
      <trkpt lat="45.06399" lon="6.47342">
        <ele>2483.2</ele>
        <time>2021-02-28T11:01:40Z</time>
      </trkpt>
      <trkpt lat="45.06398" lon="6.47346">
        <ele>2483.2</ele>
        <time>2021-02-28T11:01:41Z</time>
      </trkpt>
      <trkpt lat="45.06398" lon="6.47346">
        <ele>2483.6</ele>
        <time>2021-02-28T11:01:42Z</time>
      </trkpt>
      <trkpt lat="45.06397" lon="6.47349">
        <ele>2485</ele>
        <time>2021-02-28T11:01:43Z</time>
      </trkpt>
      <trkpt lat="45.06397" lon="6.47349">
        <ele>2484.8</ele>
        <time>2021-02-28T11:01:44Z</time>
      </trkpt>
      <trkpt lat="45.06396" lon="6.47352">
        <ele>2484.4</ele>
        <time>2021-02-28T11:01:45Z</time>
      </trkpt>
      <trkpt lat="45.06396" lon="6.47352">
        <ele>2484.4</ele>
        <time>2021-02-28T11:01:46Z</time>
      </trkpt>
      <trkpt lat="45.06395" lon="6.47355">
        <ele>2483.6</ele>
        <time>2021-02-28T11:01:47Z</time>
      </trkpt>
      <trkpt lat="45.06395" lon="6.47355">
        <ele>2484.2</ele>
        <time>2021-02-28T11:01:48Z</time>
      </trkpt>
      <trkpt lat="45.06394" lon="6.47357">
        <ele>2484</ele>
        <time>2021-02-28T11:01:49Z</time>
      </trkpt>
      <trkpt lat="45.06394" lon="6.47357">
        <ele>2484.6</ele>
        <time>2021-02-28T11:01:50Z</time>
      </trkpt>
      <trkpt lat="45.06393" lon="6.4736">
        <ele>2485</ele>
        <time>2021-02-28T11:01:51Z</time>
      </trkpt>
      <trkpt lat="45.06393" lon="6.4736">
        <ele>2485</ele>
        <time>2021-02-28T11:01:52Z</time>
      </trkpt>
      <trkpt lat="45.06392" lon="6.47363">
        <ele>2484.6</ele>
        <time>2021-02-28T11:01:53Z</time>
      </trkpt>
      <trkpt lat="45.06392" lon="6.47363">
        <ele>2484.6</ele>
        <time>2021-02-28T11:01:54Z</time>
      </trkpt>
      <trkpt lat="45.0639" lon="6.47364">
        <ele>2485</ele>
        <time>2021-02-28T11:01:55Z</time>
      </trkpt>
      <trkpt lat="45.0639" lon="6.47364">
        <ele>2485.2</ele>
        <time>2021-02-28T11:01:56Z</time>
      </trkpt>
      <trkpt lat="45.06389" lon="6.47366">
        <ele>2485.4</ele>
        <time>2021-02-28T11:01:57Z</time>
      </trkpt>
      <trkpt lat="45.06389" lon="6.47366">
        <ele>2486.2</ele>
        <time>2021-02-28T11:01:58Z</time>
      </trkpt>
      <trkpt lat="45.06387" lon="6.47368">
        <ele>2486.2</ele>
        <time>2021-02-28T11:01:59Z</time>
      </trkpt>
      <trkpt lat="45.06387" lon="6.47368">
        <ele>2486.4</ele>
        <time>2021-02-28T11:02:00Z</time>
      </trkpt>
      <trkpt lat="45.06385" lon="6.4737">
        <ele>2487</ele>
        <time>2021-02-28T11:02:01Z</time>
      </trkpt>
      <trkpt lat="45.06385" lon="6.4737">
        <ele>2487.4</ele>
        <time>2021-02-28T11:02:02Z</time>
      </trkpt>
      <trkpt lat="45.06383" lon="6.47371">
        <ele>2487.6</ele>
        <time>2021-02-28T11:02:03Z</time>
      </trkpt>
      <trkpt lat="45.06383" lon="6.47371">
        <ele>2487.4</ele>
        <time>2021-02-28T11:02:04Z</time>
      </trkpt>
      <trkpt lat="45.06381" lon="6.47373">
        <ele>2487.4</ele>
        <time>2021-02-28T11:02:05Z</time>
      </trkpt>
      <trkpt lat="45.06381" lon="6.47373">
        <ele>2487.8</ele>
        <time>2021-02-28T11:02:06Z</time>
      </trkpt>
      <trkpt lat="45.06378" lon="6.47375">
        <ele>2487.4</ele>
        <time>2021-02-28T11:02:07Z</time>
      </trkpt>
      <trkpt lat="45.06378" lon="6.47375">
        <ele>2487.4</ele>
        <time>2021-02-28T11:02:08Z</time>
      </trkpt>
      <trkpt lat="45.06377" lon="6.47376">
        <ele>2487.6</ele>
        <time>2021-02-28T11:02:09Z</time>
      </trkpt>
      <trkpt lat="45.06377" lon="6.47376">
        <ele>2488.8</ele>
        <time>2021-02-28T11:02:10Z</time>
      </trkpt>
      <trkpt lat="45.06375" lon="6.47378">
        <ele>2488.4</ele>
        <time>2021-02-28T11:02:11Z</time>
      </trkpt>
      <trkpt lat="45.06375" lon="6.47378">
        <ele>2488.6</ele>
        <time>2021-02-28T11:02:12Z</time>
      </trkpt>
      <trkpt lat="45.06375" lon="6.47378">
        <ele>2488.2</ele>
        <time>2021-02-28T11:02:13Z</time>
      </trkpt>
      <trkpt lat="45.06375" lon="6.47378">
        <ele>2488.6</ele>
        <time>2021-02-28T11:02:14Z</time>
      </trkpt>
      <trkpt lat="45.06375" lon="6.47378">
        <ele>2488.6</ele>
        <time>2021-02-28T11:02:15Z</time>
      </trkpt>
      <trkpt lat="45.06375" lon="6.47378">
        <ele>2488.8</ele>
        <time>2021-02-28T11:02:16Z</time>
      </trkpt>
      <trkpt lat="45.06373" lon="6.47379">
        <ele>2488.6</ele>
        <time>2021-02-28T11:02:17Z</time>
      </trkpt>
      <trkpt lat="45.06373" lon="6.47379">
        <ele>2489.2</ele>
        <time>2021-02-28T11:02:18Z</time>
      </trkpt>
      <trkpt lat="45.06372" lon="6.4738">
        <ele>2488.8</ele>
        <time>2021-02-28T11:02:19Z</time>
      </trkpt>
      <trkpt lat="45.06372" lon="6.4738">
        <ele>2488.8</ele>
        <time>2021-02-28T11:02:20Z</time>
      </trkpt>
      <trkpt lat="45.06369" lon="6.47381">
        <ele>2489.4</ele>
        <time>2021-02-28T11:02:21Z</time>
      </trkpt>
      <trkpt lat="45.06369" lon="6.47381">
        <ele>2489.4</ele>
        <time>2021-02-28T11:02:22Z</time>
      </trkpt>
      <trkpt lat="45.06367" lon="6.47382">
        <ele>2490</ele>
        <time>2021-02-28T11:02:23Z</time>
      </trkpt>
      <trkpt lat="45.06367" lon="6.47382">
        <ele>2489.4</ele>
        <time>2021-02-28T11:02:24Z</time>
      </trkpt>
      <trkpt lat="45.06365" lon="6.47383">
        <ele>2489</ele>
        <time>2021-02-28T11:02:25Z</time>
      </trkpt>
      <trkpt lat="45.06365" lon="6.47383">
        <ele>2489.6</ele>
        <time>2021-02-28T11:02:26Z</time>
      </trkpt>
      <trkpt lat="45.06365" lon="6.47383">
        <ele>2489.4</ele>
        <time>2021-02-28T11:02:27Z</time>
      </trkpt>
      <trkpt lat="45.06363" lon="6.47384">
        <ele>2489.8</ele>
        <time>2021-02-28T11:02:28Z</time>
      </trkpt>
      <trkpt lat="45.06363" lon="6.47384">
        <ele>2489.8</ele>
        <time>2021-02-28T11:02:29Z</time>
      </trkpt>
      <trkpt lat="45.06363" lon="6.47384">
        <ele>2490</ele>
        <time>2021-02-28T11:02:30Z</time>
      </trkpt>
      <trkpt lat="45.06363" lon="6.47384">
        <ele>2490</ele>
        <time>2021-02-28T11:02:31Z</time>
      </trkpt>
      <trkpt lat="45.06363" lon="6.47384">
        <ele>2489.8</ele>
        <time>2021-02-28T11:02:32Z</time>
      </trkpt>
      <trkpt lat="45.06363" lon="6.47384">
        <ele>2489.6</ele>
        <time>2021-02-28T11:02:33Z</time>
      </trkpt>
      <trkpt lat="45.06363" lon="6.47384">
        <ele>2489.8</ele>
        <time>2021-02-28T11:02:34Z</time>
      </trkpt>
      <trkpt lat="45.06363" lon="6.47384">
        <ele>2489.6</ele>
        <time>2021-02-28T11:02:35Z</time>
      </trkpt>
      <trkpt lat="45.06363" lon="6.47384">
        <ele>2490</ele>
        <time>2021-02-28T11:02:36Z</time>
      </trkpt>
      <trkpt lat="45.06363" lon="6.47384">
        <ele>2490</ele>
        <time>2021-02-28T11:02:37Z</time>
      </trkpt>
      <trkpt lat="45.06363" lon="6.47384">
        <ele>2490</ele>
        <time>2021-02-28T11:02:38Z</time>
      </trkpt>
      <trkpt lat="45.06363" lon="6.47384">
        <ele>2490.2</ele>
        <time>2021-02-28T11:02:39Z</time>
      </trkpt>
      <trkpt lat="45.06363" lon="6.47384">
        <ele>2490.4</ele>
        <time>2021-02-28T11:02:40Z</time>
      </trkpt>
      <trkpt lat="45.06363" lon="6.47384">
        <ele>2490.4</ele>
        <time>2021-02-28T11:02:41Z</time>
      </trkpt>
      <trkpt lat="45.06363" lon="6.47384">
        <ele>2490.6</ele>
        <time>2021-02-28T11:02:42Z</time>
      </trkpt>
      <trkpt lat="45.06363" lon="6.47384">
        <ele>2490.6</ele>
        <time>2021-02-28T11:02:43Z</time>
      </trkpt>
      <trkpt lat="45.06363" lon="6.47384">
        <ele>2490.6</ele>
        <time>2021-02-28T11:02:44Z</time>
      </trkpt>
      <trkpt lat="45.06363" lon="6.47384">
        <ele>2490.4</ele>
        <time>2021-02-28T11:02:45Z</time>
      </trkpt>
      <trkpt lat="45.06363" lon="6.47384">
        <ele>2490.4</ele>
        <time>2021-02-28T11:02:46Z</time>
      </trkpt>
      <trkpt lat="45.06363" lon="6.47384">
        <ele>2490.6</ele>
        <time>2021-02-28T11:02:47Z</time>
      </trkpt>
      <trkpt lat="45.06363" lon="6.47384">
        <ele>2490.6</ele>
        <time>2021-02-28T11:02:48Z</time>
      </trkpt>
      <trkpt lat="45.06363" lon="6.47384">
        <ele>2490.6</ele>
        <time>2021-02-28T11:02:49Z</time>
      </trkpt>
      <trkpt lat="45.06363" lon="6.47384">
        <ele>2490.6</ele>
        <time>2021-02-28T11:02:50Z</time>
      </trkpt>
      <trkpt lat="45.06363" lon="6.47384">
        <ele>2490.6</ele>
        <time>2021-02-28T11:02:51Z</time>
      </trkpt>
      <trkpt lat="45.06363" lon="6.47384">
        <ele>2490.6</ele>
        <time>2021-02-28T11:02:52Z</time>
      </trkpt>
      <trkpt lat="45.06363" lon="6.47384">
        <ele>2490.6</ele>
        <time>2021-02-28T11:02:53Z</time>
      </trkpt>
      <trkpt lat="45.06363" lon="6.47384">
        <ele>2490.6</ele>
        <time>2021-02-28T11:02:54Z</time>
      </trkpt>
      <trkpt lat="45.06361" lon="6.47385">
        <ele>2490.8</ele>
        <time>2021-02-28T11:02:55Z</time>
      </trkpt>
      <trkpt lat="45.06361" lon="6.47385">
        <ele>2491</ele>
        <time>2021-02-28T11:02:56Z</time>
      </trkpt>
      <trkpt lat="45.06361" lon="6.47385">
        <ele>2490.6</ele>
        <time>2021-02-28T11:02:57Z</time>
      </trkpt>
      <trkpt lat="45.06361" lon="6.47385">
        <ele>2490.6</ele>
        <time>2021-02-28T11:02:58Z</time>
      </trkpt>
      <trkpt lat="45.06361" lon="6.47385">
        <ele>2490.4</ele>
        <time>2021-02-28T11:02:59Z</time>
      </trkpt>
      <trkpt lat="45.06361" lon="6.47385">
        <ele>2490.6</ele>
        <time>2021-02-28T11:03:00Z</time>
      </trkpt>
      <trkpt lat="45.06361" lon="6.47385">
        <ele>2490.6</ele>
        <time>2021-02-28T11:03:01Z</time>
      </trkpt>
      <trkpt lat="45.06361" lon="6.47385">
        <ele>2490.6</ele>
        <time>2021-02-28T11:03:02Z</time>
      </trkpt>
      <trkpt lat="45.06361" lon="6.47385">
        <ele>2490.4</ele>
        <time>2021-02-28T11:03:03Z</time>
      </trkpt>
      <trkpt lat="45.06361" lon="6.47385">
        <ele>2490</ele>
        <time>2021-02-28T11:03:04Z</time>
      </trkpt>
      <trkpt lat="45.06361" lon="6.47385">
        <ele>2489.8</ele>
        <time>2021-02-28T11:03:05Z</time>
      </trkpt>
      <trkpt lat="45.06361" lon="6.47385">
        <ele>2490</ele>
        <time>2021-02-28T11:03:06Z</time>
      </trkpt>
      <trkpt lat="45.06361" lon="6.47385">
        <ele>2490</ele>
        <time>2021-02-28T11:03:07Z</time>
      </trkpt>
      <trkpt lat="45.06361" lon="6.47385">
        <ele>2490.2</ele>
        <time>2021-02-28T11:03:08Z</time>
      </trkpt>
      <trkpt lat="45.06361" lon="6.47385">
        <ele>2490.2</ele>
        <time>2021-02-28T11:03:09Z</time>
      </trkpt>
      <trkpt lat="45.06361" lon="6.47385">
        <ele>2490.2</ele>
        <time>2021-02-28T11:03:10Z</time>
      </trkpt>
      <trkpt lat="45.06361" lon="6.47385">
        <ele>2490.2</ele>
        <time>2021-02-28T11:03:11Z</time>
      </trkpt>
      <trkpt lat="45.06361" lon="6.47385">
        <ele>2490.4</ele>
        <time>2021-02-28T11:03:12Z</time>
      </trkpt>
      <trkpt lat="45.06361" lon="6.47385">
        <ele>2490.4</ele>
        <time>2021-02-28T11:03:13Z</time>
      </trkpt>
      <trkpt lat="45.06361" lon="6.47385">
        <ele>2490.2</ele>
        <time>2021-02-28T11:03:14Z</time>
      </trkpt>
      <trkpt lat="45.06361" lon="6.47385">
        <ele>2490.4</ele>
        <time>2021-02-28T11:03:15Z</time>
      </trkpt>
      <trkpt lat="45.06361" lon="6.47385">
        <ele>2490.4</ele>
        <time>2021-02-28T11:03:16Z</time>
      </trkpt>
      <trkpt lat="45.06361" lon="6.47385">
        <ele>2490.4</ele>
        <time>2021-02-28T11:03:17Z</time>
      </trkpt>
      <trkpt lat="45.06361" lon="6.47385">
        <ele>2490.2</ele>
        <time>2021-02-28T11:03:18Z</time>
      </trkpt>
      <trkpt lat="45.06361" lon="6.47385">
        <ele>2490</ele>
        <time>2021-02-28T11:03:19Z</time>
      </trkpt>
      <trkpt lat="45.06361" lon="6.47385">
        <ele>2490</ele>
        <time>2021-02-28T11:03:20Z</time>
      </trkpt>
      <trkpt lat="45.06361" lon="6.47385">
        <ele>2490.2</ele>
        <time>2021-02-28T11:03:21Z</time>
      </trkpt>
      <trkpt lat="45.06361" lon="6.47385">
        <ele>2490.4</ele>
        <time>2021-02-28T11:03:22Z</time>
      </trkpt>
      <trkpt lat="45.06361" lon="6.47385">
        <ele>2490</ele>
        <time>2021-02-28T11:03:23Z</time>
      </trkpt>
      <trkpt lat="45.06361" lon="6.47385">
        <ele>2489.8</ele>
        <time>2021-02-28T11:03:24Z</time>
      </trkpt>
      <trkpt lat="45.06361" lon="6.47385">
        <ele>2489.6</ele>
        <time>2021-02-28T11:03:25Z</time>
      </trkpt>
      <trkpt lat="45.06361" lon="6.47385">
        <ele>2489.8</ele>
        <time>2021-02-28T11:03:26Z</time>
      </trkpt>
      <trkpt lat="45.06361" lon="6.47385">
        <ele>2489.8</ele>
        <time>2021-02-28T11:03:27Z</time>
      </trkpt>
      <trkpt lat="45.06361" lon="6.47385">
        <ele>2489.8</ele>
        <time>2021-02-28T11:03:28Z</time>
      </trkpt>
      <trkpt lat="45.06361" lon="6.47385">
        <ele>2489.6</ele>
        <time>2021-02-28T11:03:29Z</time>
      </trkpt>
      <trkpt lat="45.06361" lon="6.47385">
        <ele>2489.6</ele>
        <time>2021-02-28T11:03:30Z</time>
      </trkpt>
      <trkpt lat="45.06361" lon="6.47385">
        <ele>2490.4</ele>
        <time>2021-02-28T11:03:31Z</time>
      </trkpt>
      <trkpt lat="45.06361" lon="6.47385">
        <ele>2490.6</ele>
        <time>2021-02-28T11:03:32Z</time>
      </trkpt>
      <trkpt lat="45.06361" lon="6.47385">
        <ele>2490.8</ele>
        <time>2021-02-28T11:03:33Z</time>
      </trkpt>
      <trkpt lat="45.06361" lon="6.47385">
        <ele>2491</ele>
        <time>2021-02-28T11:03:34Z</time>
      </trkpt>
      <trkpt lat="45.06361" lon="6.47385">
        <ele>2491.2</ele>
        <time>2021-02-28T11:03:35Z</time>
      </trkpt>
      <trkpt lat="45.06361" lon="6.47385">
        <ele>2491.4</ele>
        <time>2021-02-28T11:03:36Z</time>
      </trkpt>
      <trkpt lat="45.06361" lon="6.47385">
        <ele>2491.8</ele>
        <time>2021-02-28T11:03:37Z</time>
      </trkpt>
      <trkpt lat="45.06361" lon="6.47385">
        <ele>2491.6</ele>
        <time>2021-02-28T11:03:38Z</time>
      </trkpt>
      <trkpt lat="45.06361" lon="6.47385">
        <ele>2491.6</ele>
        <time>2021-02-28T11:03:39Z</time>
      </trkpt>
      <trkpt lat="45.06361" lon="6.47385">
        <ele>2491.2</ele>
        <time>2021-02-28T11:03:40Z</time>
      </trkpt>
      <trkpt lat="45.06361" lon="6.47385">
        <ele>2491.2</ele>
        <time>2021-02-28T11:03:41Z</time>
      </trkpt>
      <trkpt lat="45.06361" lon="6.47385">
        <ele>2491.8</ele>
        <time>2021-02-28T11:03:42Z</time>
      </trkpt>
      <trkpt lat="45.06361" lon="6.47385">
        <ele>2491.8</ele>
        <time>2021-02-28T11:03:43Z</time>
      </trkpt>
      <trkpt lat="45.06361" lon="6.47385">
        <ele>2491.6</ele>
        <time>2021-02-28T11:03:44Z</time>
      </trkpt>
      <trkpt lat="45.06361" lon="6.47385">
        <ele>2491.6</ele>
        <time>2021-02-28T11:03:45Z</time>
      </trkpt>
      <trkpt lat="45.06361" lon="6.47385">
        <ele>2491.2</ele>
        <time>2021-02-28T11:03:46Z</time>
      </trkpt>
      <trkpt lat="45.06361" lon="6.47385">
        <ele>2491.4</ele>
        <time>2021-02-28T11:03:47Z</time>
      </trkpt>
      <trkpt lat="45.06361" lon="6.47385">
        <ele>2491.2</ele>
        <time>2021-02-28T11:03:48Z</time>
      </trkpt>
      <trkpt lat="45.06361" lon="6.47385">
        <ele>2491.2</ele>
        <time>2021-02-28T11:03:49Z</time>
      </trkpt>
      <trkpt lat="45.06361" lon="6.47385">
        <ele>2490.8</ele>
        <time>2021-02-28T11:03:50Z</time>
      </trkpt>
      <trkpt lat="45.06361" lon="6.47385">
        <ele>2490.8</ele>
        <time>2021-02-28T11:03:51Z</time>
      </trkpt>
      <trkpt lat="45.06361" lon="6.47385">
        <ele>2490.8</ele>
        <time>2021-02-28T11:03:52Z</time>
      </trkpt>
      <trkpt lat="45.06361" lon="6.47385">
        <ele>2490.8</ele>
        <time>2021-02-28T11:03:53Z</time>
      </trkpt>
      <trkpt lat="45.06361" lon="6.47385">
        <ele>2491</ele>
        <time>2021-02-28T11:03:54Z</time>
      </trkpt>
      <trkpt lat="45.06361" lon="6.47385">
        <ele>2491</ele>
        <time>2021-02-28T11:03:55Z</time>
      </trkpt>
      <trkpt lat="45.06361" lon="6.47385">
        <ele>2491.2</ele>
        <time>2021-02-28T11:03:56Z</time>
      </trkpt>
      <trkpt lat="45.06361" lon="6.47385">
        <ele>2491</ele>
        <time>2021-02-28T11:03:57Z</time>
      </trkpt>
      <trkpt lat="45.06361" lon="6.47385">
        <ele>2491</ele>
        <time>2021-02-28T11:03:58Z</time>
      </trkpt>
      <trkpt lat="45.06361" lon="6.47385">
        <ele>2491</ele>
        <time>2021-02-28T11:03:59Z</time>
      </trkpt>
      <trkpt lat="45.06361" lon="6.47385">
        <ele>2491.2</ele>
        <time>2021-02-28T11:04:00Z</time>
      </trkpt>
      <trkpt lat="45.06361" lon="6.47385">
        <ele>2491.2</ele>
        <time>2021-02-28T11:04:01Z</time>
      </trkpt>
      <trkpt lat="45.06361" lon="6.47385">
        <ele>2491.4</ele>
        <time>2021-02-28T11:04:02Z</time>
      </trkpt>
      <trkpt lat="45.06361" lon="6.47385">
        <ele>2491.2</ele>
        <time>2021-02-28T11:04:03Z</time>
      </trkpt>
      <trkpt lat="45.06361" lon="6.47385">
        <ele>2491.2</ele>
        <time>2021-02-28T11:04:04Z</time>
      </trkpt>
      <trkpt lat="45.06361" lon="6.47385">
        <ele>2491.2</ele>
        <time>2021-02-28T11:04:05Z</time>
      </trkpt>
      <trkpt lat="45.06361" lon="6.47385">
        <ele>2491.2</ele>
        <time>2021-02-28T11:04:06Z</time>
      </trkpt>
      <trkpt lat="45.06361" lon="6.47385">
        <ele>2491</ele>
        <time>2021-02-28T11:04:07Z</time>
      </trkpt>
      <trkpt lat="45.06361" lon="6.47385">
        <ele>2491</ele>
        <time>2021-02-28T11:04:08Z</time>
      </trkpt>
      <trkpt lat="45.06361" lon="6.47385">
        <ele>2491.2</ele>
        <time>2021-02-28T11:04:09Z</time>
      </trkpt>
      <trkpt lat="45.06361" lon="6.47385">
        <ele>2491.2</ele>
        <time>2021-02-28T11:04:10Z</time>
      </trkpt>
      <trkpt lat="45.06361" lon="6.47385">
        <ele>2491</ele>
        <time>2021-02-28T11:04:11Z</time>
      </trkpt>
      <trkpt lat="45.06361" lon="6.47385">
        <ele>2491</ele>
        <time>2021-02-28T11:04:12Z</time>
      </trkpt>
      <trkpt lat="45.06361" lon="6.47385">
        <ele>2491</ele>
        <time>2021-02-28T11:04:13Z</time>
      </trkpt>
      <trkpt lat="45.06361" lon="6.47385">
        <ele>2491</ele>
        <time>2021-02-28T11:04:14Z</time>
      </trkpt>
      <trkpt lat="45.06361" lon="6.47385">
        <ele>2490.8</ele>
        <time>2021-02-28T11:04:15Z</time>
      </trkpt>
      <trkpt lat="45.06361" lon="6.47385">
        <ele>2491.2</ele>
        <time>2021-02-28T11:04:16Z</time>
      </trkpt>
      <trkpt lat="45.06361" lon="6.47385">
        <ele>2491.2</ele>
        <time>2021-02-28T11:04:17Z</time>
      </trkpt>
      <trkpt lat="45.06359" lon="6.47386">
        <ele>2491.4</ele>
        <time>2021-02-28T11:04:18Z</time>
      </trkpt>
      <trkpt lat="45.06359" lon="6.47386">
        <ele>2491.8</ele>
        <time>2021-02-28T11:04:19Z</time>
      </trkpt>
      <trkpt lat="45.06359" lon="6.47386">
        <ele>2491.4</ele>
        <time>2021-02-28T11:04:20Z</time>
      </trkpt>
      <trkpt lat="45.06359" lon="6.47386">
        <ele>2491.4</ele>
        <time>2021-02-28T11:04:21Z</time>
      </trkpt>
      <trkpt lat="45.06357" lon="6.47386">
        <ele>2491.4</ele>
        <time>2021-02-28T11:04:22Z</time>
      </trkpt>
      <trkpt lat="45.06357" lon="6.47386">
        <ele>2491.4</ele>
        <time>2021-02-28T11:04:23Z</time>
      </trkpt>
      <trkpt lat="45.06355" lon="6.47387">
        <ele>2491.4</ele>
        <time>2021-02-28T11:04:24Z</time>
      </trkpt>
      <trkpt lat="45.06355" lon="6.47387">
        <ele>2491.6</ele>
        <time>2021-02-28T11:04:25Z</time>
      </trkpt>
      <trkpt lat="45.06353" lon="6.47388">
        <ele>2491.4</ele>
        <time>2021-02-28T11:04:26Z</time>
      </trkpt>
      <trkpt lat="45.06353" lon="6.47388">
        <ele>2491.2</ele>
        <time>2021-02-28T11:04:27Z</time>
      </trkpt>
      <trkpt lat="45.06351" lon="6.47389">
        <ele>2491.2</ele>
        <time>2021-02-28T11:04:28Z</time>
      </trkpt>
      <trkpt lat="45.06351" lon="6.47389">
        <ele>2491</ele>
        <time>2021-02-28T11:04:29Z</time>
      </trkpt>
      <trkpt lat="45.06349" lon="6.47389">
        <ele>2491.2</ele>
        <time>2021-02-28T11:04:30Z</time>
      </trkpt>
      <trkpt lat="45.06349" lon="6.47389">
        <ele>2491</ele>
        <time>2021-02-28T11:04:31Z</time>
      </trkpt>
      <trkpt lat="45.06346" lon="6.4739">
        <ele>2491</ele>
        <time>2021-02-28T11:04:32Z</time>
      </trkpt>
      <trkpt lat="45.06346" lon="6.4739">
        <ele>2490.2</ele>
        <time>2021-02-28T11:04:33Z</time>
      </trkpt>
      <trkpt lat="45.06345" lon="6.47391">
        <ele>2490.8</ele>
        <time>2021-02-28T11:04:34Z</time>
      </trkpt>
      <trkpt lat="45.06345" lon="6.47391">
        <ele>2490.8</ele>
        <time>2021-02-28T11:04:35Z</time>
      </trkpt>
      <trkpt lat="45.06345" lon="6.47391">
        <ele>2491.2</ele>
        <time>2021-02-28T11:04:36Z</time>
      </trkpt>
      <trkpt lat="45.06343" lon="6.47392">
        <ele>2491</ele>
        <time>2021-02-28T11:04:37Z</time>
      </trkpt>
      <trkpt lat="45.06343" lon="6.47392">
        <ele>2491.2</ele>
        <time>2021-02-28T11:04:38Z</time>
      </trkpt>
      <trkpt lat="45.06343" lon="6.47392">
        <ele>2491.4</ele>
        <time>2021-02-28T11:04:39Z</time>
      </trkpt>
      <trkpt lat="45.06341" lon="6.47393">
        <ele>2491.4</ele>
        <time>2021-02-28T11:04:40Z</time>
      </trkpt>
      <trkpt lat="45.06341" lon="6.47393">
        <ele>2491.4</ele>
        <time>2021-02-28T11:04:41Z</time>
      </trkpt>
      <trkpt lat="45.06339" lon="6.47395">
        <ele>2491.8</ele>
        <time>2021-02-28T11:04:42Z</time>
      </trkpt>
      <trkpt lat="45.06339" lon="6.47395">
        <ele>2491.8</ele>
        <time>2021-02-28T11:04:43Z</time>
      </trkpt>
      <trkpt lat="45.06337" lon="6.47396">
        <ele>2492</ele>
        <time>2021-02-28T11:04:44Z</time>
      </trkpt>
      <trkpt lat="45.06337" lon="6.47396">
        <ele>2490.8</ele>
        <time>2021-02-28T11:04:45Z</time>
      </trkpt>
      <trkpt lat="45.06335" lon="6.47397">
        <ele>2491.2</ele>
        <time>2021-02-28T11:04:46Z</time>
      </trkpt>
      <trkpt lat="45.06335" lon="6.47397">
        <ele>2491.8</ele>
        <time>2021-02-28T11:04:47Z</time>
      </trkpt>
      <trkpt lat="45.06332" lon="6.47398">
        <ele>2492</ele>
        <time>2021-02-28T11:04:48Z</time>
      </trkpt>
      <trkpt lat="45.06332" lon="6.47398">
        <ele>2492.4</ele>
        <time>2021-02-28T11:04:49Z</time>
      </trkpt>
      <trkpt lat="45.0633" lon="6.47399">
        <ele>2492.2</ele>
        <time>2021-02-28T11:04:50Z</time>
      </trkpt>
      <trkpt lat="45.0633" lon="6.47399">
        <ele>2492.4</ele>
        <time>2021-02-28T11:04:51Z</time>
      </trkpt>
      <trkpt lat="45.06328" lon="6.474">
        <ele>2492.4</ele>
        <time>2021-02-28T11:04:52Z</time>
      </trkpt>
      <trkpt lat="45.06328" lon="6.474">
        <ele>2493</ele>
        <time>2021-02-28T11:04:53Z</time>
      </trkpt>
      <trkpt lat="45.06326" lon="6.47401">
        <ele>2493</ele>
        <time>2021-02-28T11:04:54Z</time>
      </trkpt>
      <trkpt lat="45.06326" lon="6.47401">
        <ele>2492.4</ele>
        <time>2021-02-28T11:04:55Z</time>
      </trkpt>
      <trkpt lat="45.06323" lon="6.47402">
        <ele>2492.2</ele>
        <time>2021-02-28T11:04:56Z</time>
      </trkpt>
      <trkpt lat="45.06323" lon="6.47402">
        <ele>2492.6</ele>
        <time>2021-02-28T11:04:57Z</time>
      </trkpt>
      <trkpt lat="45.06321" lon="6.47404">
        <ele>2492.8</ele>
        <time>2021-02-28T11:04:58Z</time>
      </trkpt>
      <trkpt lat="45.06321" lon="6.47404">
        <ele>2493</ele>
        <time>2021-02-28T11:04:59Z</time>
      </trkpt>
      <trkpt lat="45.06319" lon="6.47406">
        <ele>2493.6</ele>
        <time>2021-02-28T11:05:00Z</time>
      </trkpt>
      <trkpt lat="45.06319" lon="6.47406">
        <ele>2492</ele>
        <time>2021-02-28T11:05:01Z</time>
      </trkpt>
      <trkpt lat="45.06316" lon="6.47408">
        <ele>2492.6</ele>
        <time>2021-02-28T11:05:02Z</time>
      </trkpt>
      <trkpt lat="45.06316" lon="6.47408">
        <ele>2492.4</ele>
        <time>2021-02-28T11:05:03Z</time>
      </trkpt>
      <trkpt lat="45.06314" lon="6.4741">
        <ele>2492.6</ele>
        <time>2021-02-28T11:05:04Z</time>
      </trkpt>
      <trkpt lat="45.06314" lon="6.4741">
        <ele>2492.4</ele>
        <time>2021-02-28T11:05:05Z</time>
      </trkpt>
      <trkpt lat="45.06312" lon="6.47412">
        <ele>2492</ele>
        <time>2021-02-28T11:05:06Z</time>
      </trkpt>
      <trkpt lat="45.06312" lon="6.47412">
        <ele>2492.4</ele>
        <time>2021-02-28T11:05:07Z</time>
      </trkpt>
      <trkpt lat="45.0631" lon="6.47414">
        <ele>2493</ele>
        <time>2021-02-28T11:05:08Z</time>
      </trkpt>
      <trkpt lat="45.0631" lon="6.47414">
        <ele>2493</ele>
        <time>2021-02-28T11:05:09Z</time>
      </trkpt>
      <trkpt lat="45.06309" lon="6.47416">
        <ele>2492.2</ele>
        <time>2021-02-28T11:05:10Z</time>
      </trkpt>
      <trkpt lat="45.06309" lon="6.47416">
        <ele>2492.8</ele>
        <time>2021-02-28T11:05:11Z</time>
      </trkpt>
      <trkpt lat="45.06307" lon="6.47418">
        <ele>2493.2</ele>
        <time>2021-02-28T11:05:12Z</time>
      </trkpt>
      <trkpt lat="45.06307" lon="6.47418">
        <ele>2493.4</ele>
        <time>2021-02-28T11:05:13Z</time>
      </trkpt>
      <trkpt lat="45.06305" lon="6.4742">
        <ele>2494.4</ele>
        <time>2021-02-28T11:05:14Z</time>
      </trkpt>
      <trkpt lat="45.06305" lon="6.4742">
        <ele>2494.6</ele>
        <time>2021-02-28T11:05:15Z</time>
      </trkpt>
      <trkpt lat="45.06303" lon="6.47422">
        <ele>2494.6</ele>
        <time>2021-02-28T11:05:16Z</time>
      </trkpt>
      <trkpt lat="45.06303" lon="6.47422">
        <ele>2494.8</ele>
        <time>2021-02-28T11:05:17Z</time>
      </trkpt>
      <trkpt lat="45.06301" lon="6.47423">
        <ele>2495</ele>
        <time>2021-02-28T11:05:18Z</time>
      </trkpt>
      <trkpt lat="45.06301" lon="6.47423">
        <ele>2494.8</ele>
        <time>2021-02-28T11:05:19Z</time>
      </trkpt>
      <trkpt lat="45.06299" lon="6.47425">
        <ele>2495.2</ele>
        <time>2021-02-28T11:05:20Z</time>
      </trkpt>
      <trkpt lat="45.06299" lon="6.47425">
        <ele>2495.2</ele>
        <time>2021-02-28T11:05:21Z</time>
      </trkpt>
      <trkpt lat="45.06297" lon="6.47426">
        <ele>2495.6</ele>
        <time>2021-02-28T11:05:22Z</time>
      </trkpt>
      <trkpt lat="45.06297" lon="6.47426">
        <ele>2495.6</ele>
        <time>2021-02-28T11:05:23Z</time>
      </trkpt>
      <trkpt lat="45.06295" lon="6.47428">
        <ele>2495.6</ele>
        <time>2021-02-28T11:05:24Z</time>
      </trkpt>
      <trkpt lat="45.06295" lon="6.47428">
        <ele>2495.4</ele>
        <time>2021-02-28T11:05:25Z</time>
      </trkpt>
      <trkpt lat="45.06292" lon="6.4743">
        <ele>2495.4</ele>
        <time>2021-02-28T11:05:26Z</time>
      </trkpt>
      <trkpt lat="45.06292" lon="6.4743">
        <ele>2495.4</ele>
        <time>2021-02-28T11:05:27Z</time>
      </trkpt>
      <trkpt lat="45.0629" lon="6.47431">
        <ele>2495.4</ele>
        <time>2021-02-28T11:05:28Z</time>
      </trkpt>
      <trkpt lat="45.0629" lon="6.47431">
        <ele>2495.2</ele>
        <time>2021-02-28T11:05:29Z</time>
      </trkpt>
      <trkpt lat="45.06288" lon="6.47433">
        <ele>2495.8</ele>
        <time>2021-02-28T11:05:30Z</time>
      </trkpt>
      <trkpt lat="45.06288" lon="6.47433">
        <ele>2496</ele>
        <time>2021-02-28T11:05:31Z</time>
      </trkpt>
      <trkpt lat="45.06288" lon="6.47433">
        <ele>2496</ele>
        <time>2021-02-28T11:05:32Z</time>
      </trkpt>
      <trkpt lat="45.06288" lon="6.47433">
        <ele>2496.2</ele>
        <time>2021-02-28T11:05:33Z</time>
      </trkpt>
      <trkpt lat="45.06286" lon="6.47434">
        <ele>2496.4</ele>
        <time>2021-02-28T11:05:34Z</time>
      </trkpt>
      <trkpt lat="45.06286" lon="6.47434">
        <ele>2496.6</ele>
        <time>2021-02-28T11:05:35Z</time>
      </trkpt>
      <trkpt lat="45.06284" lon="6.47436">
        <ele>2496.4</ele>
        <time>2021-02-28T11:05:36Z</time>
      </trkpt>
      <trkpt lat="45.06284" lon="6.47436">
        <ele>2497</ele>
        <time>2021-02-28T11:05:37Z</time>
      </trkpt>
      <trkpt lat="45.06282" lon="6.47437">
        <ele>2496.8</ele>
        <time>2021-02-28T11:05:38Z</time>
      </trkpt>
      <trkpt lat="45.06282" lon="6.47437">
        <ele>2496.8</ele>
        <time>2021-02-28T11:05:39Z</time>
      </trkpt>
      <trkpt lat="45.06279" lon="6.47439">
        <ele>2496.8</ele>
        <time>2021-02-28T11:05:40Z</time>
      </trkpt>
      <trkpt lat="45.06279" lon="6.47439">
        <ele>2497.2</ele>
        <time>2021-02-28T11:05:41Z</time>
      </trkpt>
      <trkpt lat="45.06277" lon="6.47441">
        <ele>2497.2</ele>
        <time>2021-02-28T11:05:42Z</time>
      </trkpt>
      <trkpt lat="45.06277" lon="6.47441">
        <ele>2497.2</ele>
        <time>2021-02-28T11:05:43Z</time>
      </trkpt>
      <trkpt lat="45.06274" lon="6.47442">
        <ele>2497.6</ele>
        <time>2021-02-28T11:05:44Z</time>
      </trkpt>
      <trkpt lat="45.06274" lon="6.47442">
        <ele>2496.8</ele>
        <time>2021-02-28T11:05:45Z</time>
      </trkpt>
      <trkpt lat="45.06272" lon="6.47444">
        <ele>2497</ele>
        <time>2021-02-28T11:05:46Z</time>
      </trkpt>
      <trkpt lat="45.06272" lon="6.47444">
        <ele>2497</ele>
        <time>2021-02-28T11:05:47Z</time>
      </trkpt>
      <trkpt lat="45.06269" lon="6.47446">
        <ele>2497</ele>
        <time>2021-02-28T11:05:48Z</time>
      </trkpt>
      <trkpt lat="45.06269" lon="6.47446">
        <ele>2496.8</ele>
        <time>2021-02-28T11:05:49Z</time>
      </trkpt>
      <trkpt lat="45.06267" lon="6.47448">
        <ele>2497</ele>
        <time>2021-02-28T11:05:50Z</time>
      </trkpt>
      <trkpt lat="45.06267" lon="6.47448">
        <ele>2496.8</ele>
        <time>2021-02-28T11:05:51Z</time>
      </trkpt>
      <trkpt lat="45.06264" lon="6.4745">
        <ele>2497.2</ele>
        <time>2021-02-28T11:05:52Z</time>
      </trkpt>
      <trkpt lat="45.06264" lon="6.4745">
        <ele>2496.4</ele>
        <time>2021-02-28T11:05:53Z</time>
      </trkpt>
      <trkpt lat="45.06262" lon="6.47452">
        <ele>2496.8</ele>
        <time>2021-02-28T11:05:54Z</time>
      </trkpt>
      <trkpt lat="45.06261" lon="6.47453">
        <ele>2496.2</ele>
        <time>2021-02-28T11:05:55Z</time>
      </trkpt>
      <trkpt lat="45.06259" lon="6.47455">
        <ele>2496.2</ele>
        <time>2021-02-28T11:05:56Z</time>
      </trkpt>
      <trkpt lat="45.06259" lon="6.47455">
        <ele>2496.4</ele>
        <time>2021-02-28T11:05:57Z</time>
      </trkpt>
      <trkpt lat="45.06259" lon="6.47455">
        <ele>2497</ele>
        <time>2021-02-28T11:05:58Z</time>
      </trkpt>
      <trkpt lat="45.06257" lon="6.47456">
        <ele>2496.8</ele>
        <time>2021-02-28T11:05:59Z</time>
      </trkpt>
      <trkpt lat="45.06257" lon="6.47456">
        <ele>2497</ele>
        <time>2021-02-28T11:06:00Z</time>
      </trkpt>
      <trkpt lat="45.06255" lon="6.47457">
        <ele>2497</ele>
        <time>2021-02-28T11:06:01Z</time>
      </trkpt>
      <trkpt lat="45.06255" lon="6.47457">
        <ele>2497</ele>
        <time>2021-02-28T11:06:02Z</time>
      </trkpt>
      <trkpt lat="45.06252" lon="6.47459">
        <ele>2497.2</ele>
        <time>2021-02-28T11:06:03Z</time>
      </trkpt>
      <trkpt lat="45.06252" lon="6.47459">
        <ele>2497.4</ele>
        <time>2021-02-28T11:06:04Z</time>
      </trkpt>
      <trkpt lat="45.06249" lon="6.4746">
        <ele>2497.6</ele>
        <time>2021-02-28T11:06:05Z</time>
      </trkpt>
      <trkpt lat="45.06249" lon="6.4746">
        <ele>2496.4</ele>
        <time>2021-02-28T11:06:06Z</time>
      </trkpt>
      <trkpt lat="45.06247" lon="6.47461">
        <ele>2496.8</ele>
        <time>2021-02-28T11:06:07Z</time>
      </trkpt>
      <trkpt lat="45.06247" lon="6.47461">
        <ele>2497.4</ele>
        <time>2021-02-28T11:06:08Z</time>
      </trkpt>
      <trkpt lat="45.06244" lon="6.47462">
        <ele>2497.2</ele>
        <time>2021-02-28T11:06:09Z</time>
      </trkpt>
      <trkpt lat="45.06244" lon="6.47462">
        <ele>2497.2</ele>
        <time>2021-02-28T11:06:10Z</time>
      </trkpt>
      <trkpt lat="45.06242" lon="6.47463">
        <ele>2498.2</ele>
        <time>2021-02-28T11:06:11Z</time>
      </trkpt>
      <trkpt lat="45.06242" lon="6.47463">
        <ele>2498.2</ele>
        <time>2021-02-28T11:06:12Z</time>
      </trkpt>
      <trkpt lat="45.0624" lon="6.47463">
        <ele>2498</ele>
        <time>2021-02-28T11:06:13Z</time>
      </trkpt>
      <trkpt lat="45.0624" lon="6.47463">
        <ele>2498.4</ele>
        <time>2021-02-28T11:06:14Z</time>
      </trkpt>
      <trkpt lat="45.06237" lon="6.47464">
        <ele>2497.8</ele>
        <time>2021-02-28T11:06:15Z</time>
      </trkpt>
      <trkpt lat="45.06237" lon="6.47464">
        <ele>2498.8</ele>
        <time>2021-02-28T11:06:16Z</time>
      </trkpt>
      <trkpt lat="45.06235" lon="6.47465">
        <ele>2499.2</ele>
        <time>2021-02-28T11:06:17Z</time>
      </trkpt>
      <trkpt lat="45.06235" lon="6.47465">
        <ele>2499.4</ele>
        <time>2021-02-28T11:06:18Z</time>
      </trkpt>
      <trkpt lat="45.06232" lon="6.47465">
        <ele>2499.8</ele>
        <time>2021-02-28T11:06:19Z</time>
      </trkpt>
      <trkpt lat="45.06232" lon="6.47465">
        <ele>2500</ele>
        <time>2021-02-28T11:06:20Z</time>
      </trkpt>
      <trkpt lat="45.0623" lon="6.47466">
        <ele>2499.2</ele>
        <time>2021-02-28T11:06:21Z</time>
      </trkpt>
      <trkpt lat="45.0623" lon="6.47466">
        <ele>2499.6</ele>
        <time>2021-02-28T11:06:22Z</time>
      </trkpt>
      <trkpt lat="45.06228" lon="6.47467">
        <ele>2500.2</ele>
        <time>2021-02-28T11:06:23Z</time>
      </trkpt>
      <trkpt lat="45.06228" lon="6.47467">
        <ele>2500.4</ele>
        <time>2021-02-28T11:06:24Z</time>
      </trkpt>
      <trkpt lat="45.06226" lon="6.47467">
        <ele>2501</ele>
        <time>2021-02-28T11:06:25Z</time>
      </trkpt>
      <trkpt lat="45.06226" lon="6.47467">
        <ele>2500.4</ele>
        <time>2021-02-28T11:06:26Z</time>
      </trkpt>
      <trkpt lat="45.06224" lon="6.47468">
        <ele>2501</ele>
        <time>2021-02-28T11:06:27Z</time>
      </trkpt>
      <trkpt lat="45.06224" lon="6.47468">
        <ele>2501.2</ele>
        <time>2021-02-28T11:06:28Z</time>
      </trkpt>
      <trkpt lat="45.06222" lon="6.47469">
        <ele>2501.4</ele>
        <time>2021-02-28T11:06:29Z</time>
      </trkpt>
      <trkpt lat="45.06222" lon="6.47469">
        <ele>2501.6</ele>
        <time>2021-02-28T11:06:30Z</time>
      </trkpt>
      <trkpt lat="45.0622" lon="6.4747">
        <ele>2501.8</ele>
        <time>2021-02-28T11:06:31Z</time>
      </trkpt>
      <trkpt lat="45.0622" lon="6.4747">
        <ele>2502.2</ele>
        <time>2021-02-28T11:06:32Z</time>
      </trkpt>
      <trkpt lat="45.06218" lon="6.4747">
        <ele>2502.4</ele>
        <time>2021-02-28T11:06:33Z</time>
      </trkpt>
      <trkpt lat="45.06218" lon="6.4747">
        <ele>2502.6</ele>
        <time>2021-02-28T11:06:34Z</time>
      </trkpt>
      <trkpt lat="45.06216" lon="6.47471">
        <ele>2502.8</ele>
        <time>2021-02-28T11:06:35Z</time>
      </trkpt>
      <trkpt lat="45.06216" lon="6.47471">
        <ele>2503</ele>
        <time>2021-02-28T11:06:36Z</time>
      </trkpt>
      <trkpt lat="45.06213" lon="6.47471">
        <ele>2503.4</ele>
        <time>2021-02-28T11:06:37Z</time>
      </trkpt>
      <trkpt lat="45.06213" lon="6.47471">
        <ele>2504</ele>
        <time>2021-02-28T11:06:38Z</time>
      </trkpt>
      <trkpt lat="45.06211" lon="6.47472">
        <ele>2504</ele>
        <time>2021-02-28T11:06:39Z</time>
      </trkpt>
      <trkpt lat="45.06211" lon="6.47472">
        <ele>2503.6</ele>
        <time>2021-02-28T11:06:40Z</time>
      </trkpt>
      <trkpt lat="45.06209" lon="6.47472">
        <ele>2502.6</ele>
        <time>2021-02-28T11:06:41Z</time>
      </trkpt>
      <trkpt lat="45.06209" lon="6.47472">
        <ele>2503</ele>
        <time>2021-02-28T11:06:42Z</time>
      </trkpt>
      <trkpt lat="45.06207" lon="6.47473">
        <ele>2503.2</ele>
        <time>2021-02-28T11:06:43Z</time>
      </trkpt>
      <trkpt lat="45.06207" lon="6.47473">
        <ele>2503.6</ele>
        <time>2021-02-28T11:06:44Z</time>
      </trkpt>
      <trkpt lat="45.06205" lon="6.47474">
        <ele>2504</ele>
        <time>2021-02-28T11:06:45Z</time>
      </trkpt>
      <trkpt lat="45.06205" lon="6.47474">
        <ele>2504.2</ele>
        <time>2021-02-28T11:06:46Z</time>
      </trkpt>
      <trkpt lat="45.06202" lon="6.47474">
        <ele>2504.6</ele>
        <time>2021-02-28T11:06:47Z</time>
      </trkpt>
      <trkpt lat="45.06202" lon="6.47474">
        <ele>2504.6</ele>
        <time>2021-02-28T11:06:48Z</time>
      </trkpt>
      <trkpt lat="45.062" lon="6.47475">
        <ele>2504.6</ele>
        <time>2021-02-28T11:06:49Z</time>
      </trkpt>
      <trkpt lat="45.062" lon="6.47475">
        <ele>2504.6</ele>
        <time>2021-02-28T11:06:50Z</time>
      </trkpt>
      <trkpt lat="45.06197" lon="6.47476">
        <ele>2504.6</ele>
        <time>2021-02-28T11:06:51Z</time>
      </trkpt>
      <trkpt lat="45.06197" lon="6.47476">
        <ele>2505</ele>
        <time>2021-02-28T11:06:52Z</time>
      </trkpt>
      <trkpt lat="45.06194" lon="6.47477">
        <ele>2505</ele>
        <time>2021-02-28T11:06:53Z</time>
      </trkpt>
      <trkpt lat="45.06194" lon="6.47477">
        <ele>2504.6</ele>
        <time>2021-02-28T11:06:54Z</time>
      </trkpt>
      <trkpt lat="45.06191" lon="6.47479">
        <ele>2504.4</ele>
        <time>2021-02-28T11:06:55Z</time>
      </trkpt>
      <trkpt lat="45.06189" lon="6.4748">
        <ele>2504.2</ele>
        <time>2021-02-28T11:06:56Z</time>
      </trkpt>
      <trkpt lat="45.06189" lon="6.4748">
        <ele>2502.4</ele>
        <time>2021-02-28T11:06:57Z</time>
      </trkpt>
      <trkpt lat="45.06186" lon="6.47482">
        <ele>2502.6</ele>
        <time>2021-02-28T11:06:58Z</time>
      </trkpt>
      <trkpt lat="45.06184" lon="6.47483">
        <ele>2502.8</ele>
        <time>2021-02-28T11:06:59Z</time>
      </trkpt>
      <trkpt lat="45.06182" lon="6.47485">
        <ele>2502.2</ele>
        <time>2021-02-28T11:07:00Z</time>
      </trkpt>
      <trkpt lat="45.0618" lon="6.47486">
        <ele>2502.8</ele>
        <time>2021-02-28T11:07:01Z</time>
      </trkpt>
      <trkpt lat="45.06177" lon="6.47487">
        <ele>2502.4</ele>
        <time>2021-02-28T11:07:02Z</time>
      </trkpt>
      <trkpt lat="45.06174" lon="6.47489">
        <ele>2501.8</ele>
        <time>2021-02-28T11:07:03Z</time>
      </trkpt>
      <trkpt lat="45.06171" lon="6.47491">
        <ele>2501.6</ele>
        <time>2021-02-28T11:07:04Z</time>
      </trkpt>
      <trkpt lat="45.06168" lon="6.47494">
        <ele>2501.6</ele>
        <time>2021-02-28T11:07:05Z</time>
      </trkpt>
      <trkpt lat="45.06166" lon="6.47495">
        <ele>2501.8</ele>
        <time>2021-02-28T11:07:06Z</time>
      </trkpt>
      <trkpt lat="45.06166" lon="6.47495">
        <ele>2500.6</ele>
        <time>2021-02-28T11:07:07Z</time>
      </trkpt>
      <trkpt lat="45.06164" lon="6.47498">
        <ele>2500.4</ele>
        <time>2021-02-28T11:07:08Z</time>
      </trkpt>
      <trkpt lat="45.06164" lon="6.47498">
        <ele>2500</ele>
        <time>2021-02-28T11:07:09Z</time>
      </trkpt>
      <trkpt lat="45.06162" lon="6.475">
        <ele>2500.4</ele>
        <time>2021-02-28T11:07:10Z</time>
      </trkpt>
      <trkpt lat="45.06162" lon="6.475">
        <ele>2500.2</ele>
        <time>2021-02-28T11:07:11Z</time>
      </trkpt>
      <trkpt lat="45.0616" lon="6.47502">
        <ele>2500.4</ele>
        <time>2021-02-28T11:07:12Z</time>
      </trkpt>
      <trkpt lat="45.0616" lon="6.47502">
        <ele>2499.8</ele>
        <time>2021-02-28T11:07:13Z</time>
      </trkpt>
      <trkpt lat="45.06158" lon="6.47504">
        <ele>2500.8</ele>
        <time>2021-02-28T11:07:14Z</time>
      </trkpt>
      <trkpt lat="45.06158" lon="6.47504">
        <ele>2500.2</ele>
        <time>2021-02-28T11:07:15Z</time>
      </trkpt>
      <trkpt lat="45.06156" lon="6.47506">
        <ele>2500</ele>
        <time>2021-02-28T11:07:16Z</time>
      </trkpt>
      <trkpt lat="45.06156" lon="6.47506">
        <ele>2499.4</ele>
        <time>2021-02-28T11:07:17Z</time>
      </trkpt>
      <trkpt lat="45.06154" lon="6.47507">
        <ele>2500.2</ele>
        <time>2021-02-28T11:07:18Z</time>
      </trkpt>
      <trkpt lat="45.06154" lon="6.47507">
        <ele>2499.6</ele>
        <time>2021-02-28T11:07:19Z</time>
      </trkpt>
      <trkpt lat="45.06153" lon="6.47509">
        <ele>2500.6</ele>
        <time>2021-02-28T11:07:20Z</time>
      </trkpt>
      <trkpt lat="45.06153" lon="6.47509">
        <ele>2500.6</ele>
        <time>2021-02-28T11:07:21Z</time>
      </trkpt>
      <trkpt lat="45.06153" lon="6.47509">
        <ele>2501.2</ele>
        <time>2021-02-28T11:07:22Z</time>
      </trkpt>
      <trkpt lat="45.0615" lon="6.4751">
        <ele>2501</ele>
        <time>2021-02-28T11:07:23Z</time>
      </trkpt>
      <trkpt lat="45.0615" lon="6.4751">
        <ele>2501.2</ele>
        <time>2021-02-28T11:07:24Z</time>
      </trkpt>
      <trkpt lat="45.06148" lon="6.47511">
        <ele>2501.4</ele>
        <time>2021-02-28T11:07:25Z</time>
      </trkpt>
      <trkpt lat="45.06148" lon="6.47511">
        <ele>2502</ele>
        <time>2021-02-28T11:07:26Z</time>
      </trkpt>
      <trkpt lat="45.06145" lon="6.47512">
        <ele>2502.2</ele>
        <time>2021-02-28T11:07:27Z</time>
      </trkpt>
      <trkpt lat="45.06145" lon="6.47512">
        <ele>2502.6</ele>
        <time>2021-02-28T11:07:28Z</time>
      </trkpt>
      <trkpt lat="45.06143" lon="6.47513">
        <ele>2502.8</ele>
        <time>2021-02-28T11:07:29Z</time>
      </trkpt>
      <trkpt lat="45.06143" lon="6.47513">
        <ele>2503.2</ele>
        <time>2021-02-28T11:07:30Z</time>
      </trkpt>
      <trkpt lat="45.0614" lon="6.47515">
        <ele>2502.8</ele>
        <time>2021-02-28T11:07:31Z</time>
      </trkpt>
      <trkpt lat="45.0614" lon="6.47515">
        <ele>2503.2</ele>
        <time>2021-02-28T11:07:32Z</time>
      </trkpt>
      <trkpt lat="45.06138" lon="6.47516">
        <ele>2503.6</ele>
        <time>2021-02-28T11:07:33Z</time>
      </trkpt>
      <trkpt lat="45.06138" lon="6.47516">
        <ele>2504</ele>
        <time>2021-02-28T11:07:34Z</time>
      </trkpt>
      <trkpt lat="45.06136" lon="6.47517">
        <ele>2503.6</ele>
        <time>2021-02-28T11:07:35Z</time>
      </trkpt>
      <trkpt lat="45.06136" lon="6.47517">
        <ele>2503.8</ele>
        <time>2021-02-28T11:07:36Z</time>
      </trkpt>
      <trkpt lat="45.06133" lon="6.47517">
        <ele>2504.6</ele>
        <time>2021-02-28T11:07:37Z</time>
      </trkpt>
      <trkpt lat="45.06133" lon="6.47517">
        <ele>2505.4</ele>
        <time>2021-02-28T11:07:38Z</time>
      </trkpt>
      <trkpt lat="45.06131" lon="6.47517">
        <ele>2504.4</ele>
        <time>2021-02-28T11:07:39Z</time>
      </trkpt>
      <trkpt lat="45.06131" lon="6.47517">
        <ele>2505</ele>
        <time>2021-02-28T11:07:40Z</time>
      </trkpt>
      <trkpt lat="45.06131" lon="6.47517">
        <ele>2505.2</ele>
        <time>2021-02-28T11:07:41Z</time>
      </trkpt>
      <trkpt lat="45.06128" lon="6.47516">
        <ele>2505.8</ele>
        <time>2021-02-28T11:07:42Z</time>
      </trkpt>
      <trkpt lat="45.06128" lon="6.47516">
        <ele>2505.2</ele>
        <time>2021-02-28T11:07:43Z</time>
      </trkpt>
      <trkpt lat="45.06128" lon="6.47516">
        <ele>2505.8</ele>
        <time>2021-02-28T11:07:44Z</time>
      </trkpt>
      <trkpt lat="45.06126" lon="6.47516">
        <ele>2506.2</ele>
        <time>2021-02-28T11:07:45Z</time>
      </trkpt>
      <trkpt lat="45.06126" lon="6.47516">
        <ele>2506.6</ele>
        <time>2021-02-28T11:07:46Z</time>
      </trkpt>
      <trkpt lat="45.06126" lon="6.47516">
        <ele>2507</ele>
        <time>2021-02-28T11:07:47Z</time>
      </trkpt>
      <trkpt lat="45.06123" lon="6.47515">
        <ele>2507.4</ele>
        <time>2021-02-28T11:07:48Z</time>
      </trkpt>
      <trkpt lat="45.06123" lon="6.47515">
        <ele>2507.8</ele>
        <time>2021-02-28T11:07:49Z</time>
      </trkpt>
      <trkpt lat="45.06123" lon="6.47515">
        <ele>2508</ele>
        <time>2021-02-28T11:07:50Z</time>
      </trkpt>
      <trkpt lat="45.06122" lon="6.47515">
        <ele>2508</ele>
        <time>2021-02-28T11:07:51Z</time>
      </trkpt>
      <trkpt lat="45.06122" lon="6.47515">
        <ele>2508.8</ele>
        <time>2021-02-28T11:07:52Z</time>
      </trkpt>
      <trkpt lat="45.06122" lon="6.47515">
        <ele>2508</ele>
        <time>2021-02-28T11:07:53Z</time>
      </trkpt>
      <trkpt lat="45.0612" lon="6.47513">
        <ele>2508.2</ele>
        <time>2021-02-28T11:07:54Z</time>
      </trkpt>
      <trkpt lat="45.0612" lon="6.47513">
        <ele>2509.4</ele>
        <time>2021-02-28T11:07:55Z</time>
      </trkpt>
      <trkpt lat="45.06118" lon="6.47511">
        <ele>2509.6</ele>
        <time>2021-02-28T11:07:56Z</time>
      </trkpt>
      <trkpt lat="45.06118" lon="6.47511">
        <ele>2510</ele>
        <time>2021-02-28T11:07:57Z</time>
      </trkpt>
      <trkpt lat="45.06117" lon="6.4751">
        <ele>2510.2</ele>
        <time>2021-02-28T11:07:58Z</time>
      </trkpt>
      <trkpt lat="45.06117" lon="6.4751">
        <ele>2510.2</ele>
        <time>2021-02-28T11:07:59Z</time>
      </trkpt>
      <trkpt lat="45.06115" lon="6.47509">
        <ele>2510.6</ele>
        <time>2021-02-28T11:08:00Z</time>
      </trkpt>
      <trkpt lat="45.06115" lon="6.47509">
        <ele>2509.6</ele>
        <time>2021-02-28T11:08:01Z</time>
      </trkpt>
      <trkpt lat="45.06113" lon="6.47507">
        <ele>2510</ele>
        <time>2021-02-28T11:08:02Z</time>
      </trkpt>
      <trkpt lat="45.06113" lon="6.47507">
        <ele>2510.6</ele>
        <time>2021-02-28T11:08:03Z</time>
      </trkpt>
      <trkpt lat="45.06111" lon="6.47506">
        <ele>2510.4</ele>
        <time>2021-02-28T11:08:04Z</time>
      </trkpt>
      <trkpt lat="45.06111" lon="6.47506">
        <ele>2510.4</ele>
        <time>2021-02-28T11:08:05Z</time>
      </trkpt>
      <trkpt lat="45.06111" lon="6.47506">
        <ele>2511</ele>
        <time>2021-02-28T11:08:06Z</time>
      </trkpt>
      <trkpt lat="45.06108" lon="6.47505">
        <ele>2510.6</ele>
        <time>2021-02-28T11:08:07Z</time>
      </trkpt>
      <trkpt lat="45.06108" lon="6.47505">
        <ele>2510.8</ele>
        <time>2021-02-28T11:08:08Z</time>
      </trkpt>
      <trkpt lat="45.06108" lon="6.47505">
        <ele>2511</ele>
        <time>2021-02-28T11:08:09Z</time>
      </trkpt>
      <trkpt lat="45.06106" lon="6.47505">
        <ele>2511.6</ele>
        <time>2021-02-28T11:08:10Z</time>
      </trkpt>
      <trkpt lat="45.06106" lon="6.47505">
        <ele>2511.6</ele>
        <time>2021-02-28T11:08:11Z</time>
      </trkpt>
      <trkpt lat="45.06106" lon="6.47505">
        <ele>2511.8</ele>
        <time>2021-02-28T11:08:12Z</time>
      </trkpt>
      <trkpt lat="45.06103" lon="6.47506">
        <ele>2512.4</ele>
        <time>2021-02-28T11:08:13Z</time>
      </trkpt>
      <trkpt lat="45.06103" lon="6.47506">
        <ele>2512.2</ele>
        <time>2021-02-28T11:08:14Z</time>
      </trkpt>
      <trkpt lat="45.06103" lon="6.47506">
        <ele>2512.2</ele>
        <time>2021-02-28T11:08:15Z</time>
      </trkpt>
      <trkpt lat="45.06102" lon="6.47508">
        <ele>2512.4</ele>
        <time>2021-02-28T11:08:16Z</time>
      </trkpt>
      <trkpt lat="45.06102" lon="6.47508">
        <ele>2512.4</ele>
        <time>2021-02-28T11:08:17Z</time>
      </trkpt>
      <trkpt lat="45.061" lon="6.4751">
        <ele>2512.4</ele>
        <time>2021-02-28T11:08:18Z</time>
      </trkpt>
      <trkpt lat="45.061" lon="6.4751">
        <ele>2511.8</ele>
        <time>2021-02-28T11:08:19Z</time>
      </trkpt>
      <trkpt lat="45.061" lon="6.4751">
        <ele>2512.6</ele>
        <time>2021-02-28T11:08:20Z</time>
      </trkpt>
      <trkpt lat="45.06099" lon="6.47512">
        <ele>2513</ele>
        <time>2021-02-28T11:08:21Z</time>
      </trkpt>
      <trkpt lat="45.06099" lon="6.47512">
        <ele>2513.4</ele>
        <time>2021-02-28T11:08:22Z</time>
      </trkpt>
      <trkpt lat="45.06099" lon="6.47512">
        <ele>2514.2</ele>
        <time>2021-02-28T11:08:23Z</time>
      </trkpt>
      <trkpt lat="45.06099" lon="6.47512">
        <ele>2514.6</ele>
        <time>2021-02-28T11:08:24Z</time>
      </trkpt>
      <trkpt lat="45.06096" lon="6.47513">
        <ele>2514.8</ele>
        <time>2021-02-28T11:08:25Z</time>
      </trkpt>
      <trkpt lat="45.06096" lon="6.47513">
        <ele>2515.2</ele>
        <time>2021-02-28T11:08:26Z</time>
      </trkpt>
      <trkpt lat="45.06096" lon="6.47513">
        <ele>2515.2</ele>
        <time>2021-02-28T11:08:27Z</time>
      </trkpt>
      <trkpt lat="45.06095" lon="6.47515">
        <ele>2515</ele>
        <time>2021-02-28T11:08:28Z</time>
      </trkpt>
      <trkpt lat="45.06095" lon="6.47515">
        <ele>2515.2</ele>
        <time>2021-02-28T11:08:29Z</time>
      </trkpt>
      <trkpt lat="45.06095" lon="6.47515">
        <ele>2515.6</ele>
        <time>2021-02-28T11:08:30Z</time>
      </trkpt>
      <trkpt lat="45.06095" lon="6.47515">
        <ele>2515.8</ele>
        <time>2021-02-28T11:08:31Z</time>
      </trkpt>
      <trkpt lat="45.06093" lon="6.47516">
        <ele>2516</ele>
        <time>2021-02-28T11:08:32Z</time>
      </trkpt>
      <trkpt lat="45.06093" lon="6.47516">
        <ele>2516.6</ele>
        <time>2021-02-28T11:08:33Z</time>
      </trkpt>
      <trkpt lat="45.06093" lon="6.47516">
        <ele>2516.6</ele>
        <time>2021-02-28T11:08:34Z</time>
      </trkpt>
      <trkpt lat="45.06091" lon="6.47517">
        <ele>2516.8</ele>
        <time>2021-02-28T11:08:35Z</time>
      </trkpt>
      <trkpt lat="45.06091" lon="6.47517">
        <ele>2517</ele>
        <time>2021-02-28T11:08:36Z</time>
      </trkpt>
      <trkpt lat="45.06089" lon="6.47519">
        <ele>2517.2</ele>
        <time>2021-02-28T11:08:37Z</time>
      </trkpt>
      <trkpt lat="45.06089" lon="6.47519">
        <ele>2517.2</ele>
        <time>2021-02-28T11:08:38Z</time>
      </trkpt>
      <trkpt lat="45.06089" lon="6.47519">
        <ele>2517.6</ele>
        <time>2021-02-28T11:08:39Z</time>
      </trkpt>
      <trkpt lat="45.06087" lon="6.47521">
        <ele>2518</ele>
        <time>2021-02-28T11:08:40Z</time>
      </trkpt>
      <trkpt lat="45.06087" lon="6.47521">
        <ele>2517.8</ele>
        <time>2021-02-28T11:08:41Z</time>
      </trkpt>
      <trkpt lat="45.06087" lon="6.47521">
        <ele>2518.4</ele>
        <time>2021-02-28T11:08:42Z</time>
      </trkpt>
      <trkpt lat="45.06085" lon="6.4752">
        <ele>2518.8</ele>
        <time>2021-02-28T11:08:43Z</time>
      </trkpt>
      <trkpt lat="45.06085" lon="6.4752">
        <ele>2519</ele>
        <time>2021-02-28T11:08:44Z</time>
      </trkpt>
      <trkpt lat="45.06083" lon="6.47521">
        <ele>2519.8</ele>
        <time>2021-02-28T11:08:45Z</time>
      </trkpt>
      <trkpt lat="45.06083" lon="6.47521">
        <ele>2520.2</ele>
        <time>2021-02-28T11:08:46Z</time>
      </trkpt>
      <trkpt lat="45.06083" lon="6.47521">
        <ele>2519.8</ele>
        <time>2021-02-28T11:08:47Z</time>
      </trkpt>
      <trkpt lat="45.0608" lon="6.47521">
        <ele>2519.4</ele>
        <time>2021-02-28T11:08:48Z</time>
      </trkpt>
      <trkpt lat="45.0608" lon="6.47521">
        <ele>2520.2</ele>
        <time>2021-02-28T11:08:49Z</time>
      </trkpt>
      <trkpt lat="45.06078" lon="6.47522">
        <ele>2520.6</ele>
        <time>2021-02-28T11:08:50Z</time>
      </trkpt>
      <trkpt lat="45.06078" lon="6.47522">
        <ele>2520.8</ele>
        <time>2021-02-28T11:08:51Z</time>
      </trkpt>
      <trkpt lat="45.06076" lon="6.47524">
        <ele>2521.6</ele>
        <time>2021-02-28T11:08:52Z</time>
      </trkpt>
      <trkpt lat="45.06076" lon="6.47524">
        <ele>2521.8</ele>
        <time>2021-02-28T11:08:53Z</time>
      </trkpt>
      <trkpt lat="45.06075" lon="6.47525">
        <ele>2521.6</ele>
        <time>2021-02-28T11:08:54Z</time>
      </trkpt>
      <trkpt lat="45.06075" lon="6.47525">
        <ele>2522.2</ele>
        <time>2021-02-28T11:08:55Z</time>
      </trkpt>
      <trkpt lat="45.06075" lon="6.47525">
        <ele>2521.4</ele>
        <time>2021-02-28T11:08:56Z</time>
      </trkpt>
      <trkpt lat="45.06075" lon="6.47525">
        <ele>2521.8</ele>
        <time>2021-02-28T11:08:57Z</time>
      </trkpt>
      <trkpt lat="45.06073" lon="6.47527">
        <ele>2522.4</ele>
        <time>2021-02-28T11:08:58Z</time>
      </trkpt>
      <trkpt lat="45.06073" lon="6.47527">
        <ele>2522.6</ele>
        <time>2021-02-28T11:08:59Z</time>
      </trkpt>
      <trkpt lat="45.06073" lon="6.47527">
        <ele>2522.8</ele>
        <time>2021-02-28T11:09:00Z</time>
      </trkpt>
      <trkpt lat="45.06071" lon="6.47529">
        <ele>2523.2</ele>
        <time>2021-02-28T11:09:01Z</time>
      </trkpt>
      <trkpt lat="45.06071" lon="6.47529">
        <ele>2523.4</ele>
        <time>2021-02-28T11:09:02Z</time>
      </trkpt>
      <trkpt lat="45.06071" lon="6.47529">
        <ele>2523.8</ele>
        <time>2021-02-28T11:09:03Z</time>
      </trkpt>
      <trkpt lat="45.06069" lon="6.47531">
        <ele>2524</ele>
        <time>2021-02-28T11:09:04Z</time>
      </trkpt>
      <trkpt lat="45.06069" lon="6.47531">
        <ele>2524.2</ele>
        <time>2021-02-28T11:09:05Z</time>
      </trkpt>
      <trkpt lat="45.06067" lon="6.47533">
        <ele>2524.2</ele>
        <time>2021-02-28T11:09:06Z</time>
      </trkpt>
      <trkpt lat="45.06067" lon="6.47533">
        <ele>2523</ele>
        <time>2021-02-28T11:09:07Z</time>
      </trkpt>
      <trkpt lat="45.06067" lon="6.47533">
        <ele>2523</ele>
        <time>2021-02-28T11:09:08Z</time>
      </trkpt>
      <trkpt lat="45.06065" lon="6.47536">
        <ele>2523.6</ele>
        <time>2021-02-28T11:09:09Z</time>
      </trkpt>
      <trkpt lat="45.06065" lon="6.47536">
        <ele>2524</ele>
        <time>2021-02-28T11:09:10Z</time>
      </trkpt>
      <trkpt lat="45.06063" lon="6.47538">
        <ele>2524</ele>
        <time>2021-02-28T11:09:11Z</time>
      </trkpt>
      <trkpt lat="45.06063" lon="6.47538">
        <ele>2523.8</ele>
        <time>2021-02-28T11:09:12Z</time>
      </trkpt>
      <trkpt lat="45.06061" lon="6.4754">
        <ele>2524.2</ele>
        <time>2021-02-28T11:09:13Z</time>
      </trkpt>
      <trkpt lat="45.06061" lon="6.4754">
        <ele>2524.2</ele>
        <time>2021-02-28T11:09:14Z</time>
      </trkpt>
      <trkpt lat="45.06059" lon="6.47542">
        <ele>2524.2</ele>
        <time>2021-02-28T11:09:15Z</time>
      </trkpt>
      <trkpt lat="45.06059" lon="6.47542">
        <ele>2524.2</ele>
        <time>2021-02-28T11:09:16Z</time>
      </trkpt>
      <trkpt lat="45.06057" lon="6.47544">
        <ele>2524.4</ele>
        <time>2021-02-28T11:09:17Z</time>
      </trkpt>
      <trkpt lat="45.06057" lon="6.47544">
        <ele>2524.4</ele>
        <time>2021-02-28T11:09:18Z</time>
      </trkpt>
      <trkpt lat="45.06055" lon="6.47547">
        <ele>2524.4</ele>
        <time>2021-02-28T11:09:19Z</time>
      </trkpt>
      <trkpt lat="45.06055" lon="6.47547">
        <ele>2524.2</ele>
        <time>2021-02-28T11:09:20Z</time>
      </trkpt>
      <trkpt lat="45.06053" lon="6.47549">
        <ele>2524.6</ele>
        <time>2021-02-28T11:09:21Z</time>
      </trkpt>
      <trkpt lat="45.06053" lon="6.47549">
        <ele>2524.4</ele>
        <time>2021-02-28T11:09:22Z</time>
      </trkpt>
      <trkpt lat="45.06051" lon="6.47551">
        <ele>2525.4</ele>
        <time>2021-02-28T11:09:23Z</time>
      </trkpt>
      <trkpt lat="45.06051" lon="6.47551">
        <ele>2525.2</ele>
        <time>2021-02-28T11:09:24Z</time>
      </trkpt>
      <trkpt lat="45.0605" lon="6.47552">
        <ele>2525</ele>
        <time>2021-02-28T11:09:25Z</time>
      </trkpt>
      <trkpt lat="45.0605" lon="6.47552">
        <ele>2525.4</ele>
        <time>2021-02-28T11:09:26Z</time>
      </trkpt>
      <trkpt lat="45.0605" lon="6.47552">
        <ele>2524.8</ele>
        <time>2021-02-28T11:09:27Z</time>
      </trkpt>
      <trkpt lat="45.06047" lon="6.47554">
        <ele>2525.2</ele>
        <time>2021-02-28T11:09:28Z</time>
      </trkpt>
      <trkpt lat="45.06047" lon="6.47554">
        <ele>2525.6</ele>
        <time>2021-02-28T11:09:29Z</time>
      </trkpt>
      <trkpt lat="45.06045" lon="6.47555">
        <ele>2525.8</ele>
        <time>2021-02-28T11:09:30Z</time>
      </trkpt>
      <trkpt lat="45.06045" lon="6.47555">
        <ele>2526.2</ele>
        <time>2021-02-28T11:09:31Z</time>
      </trkpt>
      <trkpt lat="45.06043" lon="6.47557">
        <ele>2525.2</ele>
        <time>2021-02-28T11:09:32Z</time>
      </trkpt>
      <trkpt lat="45.06043" lon="6.47557">
        <ele>2525.4</ele>
        <time>2021-02-28T11:09:33Z</time>
      </trkpt>
      <trkpt lat="45.06043" lon="6.47557">
        <ele>2526</ele>
        <time>2021-02-28T11:09:34Z</time>
      </trkpt>
      <trkpt lat="45.06041" lon="6.47558">
        <ele>2526</ele>
        <time>2021-02-28T11:09:35Z</time>
      </trkpt>
      <trkpt lat="45.06041" lon="6.47558">
        <ele>2525.8</ele>
        <time>2021-02-28T11:09:36Z</time>
      </trkpt>
      <trkpt lat="45.06039" lon="6.47559">
        <ele>2526.4</ele>
        <time>2021-02-28T11:09:37Z</time>
      </trkpt>
      <trkpt lat="45.06039" lon="6.47559">
        <ele>2527</ele>
        <time>2021-02-28T11:09:38Z</time>
      </trkpt>
      <trkpt lat="45.06037" lon="6.4756">
        <ele>2526.8</ele>
        <time>2021-02-28T11:09:39Z</time>
      </trkpt>
      <trkpt lat="45.06037" lon="6.4756">
        <ele>2526.8</ele>
        <time>2021-02-28T11:09:40Z</time>
      </trkpt>
      <trkpt lat="45.06035" lon="6.47561">
        <ele>2527</ele>
        <time>2021-02-28T11:09:41Z</time>
      </trkpt>
      <trkpt lat="45.06035" lon="6.47561">
        <ele>2527</ele>
        <time>2021-02-28T11:09:42Z</time>
      </trkpt>
      <trkpt lat="45.06033" lon="6.47561">
        <ele>2527.8</ele>
        <time>2021-02-28T11:09:43Z</time>
      </trkpt>
      <trkpt lat="45.06033" lon="6.47561">
        <ele>2528.2</ele>
        <time>2021-02-28T11:09:44Z</time>
      </trkpt>
      <trkpt lat="45.0603" lon="6.47561">
        <ele>2528.4</ele>
        <time>2021-02-28T11:09:45Z</time>
      </trkpt>
      <trkpt lat="45.0603" lon="6.47561">
        <ele>2528.6</ele>
        <time>2021-02-28T11:09:46Z</time>
      </trkpt>
      <trkpt lat="45.06028" lon="6.47561">
        <ele>2527.4</ele>
        <time>2021-02-28T11:09:47Z</time>
      </trkpt>
      <trkpt lat="45.06028" lon="6.47561">
        <ele>2527.6</ele>
        <time>2021-02-28T11:09:48Z</time>
      </trkpt>
      <trkpt lat="45.06026" lon="6.47561">
        <ele>2528.2</ele>
        <time>2021-02-28T11:09:49Z</time>
      </trkpt>
      <trkpt lat="45.06026" lon="6.47561">
        <ele>2528.4</ele>
        <time>2021-02-28T11:09:50Z</time>
      </trkpt>
      <trkpt lat="45.06024" lon="6.47561">
        <ele>2528.2</ele>
        <time>2021-02-28T11:09:51Z</time>
      </trkpt>
      <trkpt lat="45.06024" lon="6.47561">
        <ele>2528.6</ele>
        <time>2021-02-28T11:09:52Z</time>
      </trkpt>
      <trkpt lat="45.06022" lon="6.47561">
        <ele>2528.6</ele>
        <time>2021-02-28T11:09:53Z</time>
      </trkpt>
      <trkpt lat="45.06022" lon="6.47561">
        <ele>2528.2</ele>
        <time>2021-02-28T11:09:54Z</time>
      </trkpt>
      <trkpt lat="45.0602" lon="6.47561">
        <ele>2528.8</ele>
        <time>2021-02-28T11:09:55Z</time>
      </trkpt>
      <trkpt lat="45.0602" lon="6.47561">
        <ele>2529.2</ele>
        <time>2021-02-28T11:09:56Z</time>
      </trkpt>
      <trkpt lat="45.06018" lon="6.4756">
        <ele>2529.4</ele>
        <time>2021-02-28T11:09:57Z</time>
      </trkpt>
      <trkpt lat="45.06018" lon="6.4756">
        <ele>2530.4</ele>
        <time>2021-02-28T11:09:58Z</time>
      </trkpt>
      <trkpt lat="45.06018" lon="6.4756">
        <ele>2531</ele>
        <time>2021-02-28T11:09:59Z</time>
      </trkpt>
      <trkpt lat="45.06015" lon="6.47559">
        <ele>2530.6</ele>
        <time>2021-02-28T11:10:00Z</time>
      </trkpt>
      <trkpt lat="45.06015" lon="6.47559">
        <ele>2530.4</ele>
        <time>2021-02-28T11:10:01Z</time>
      </trkpt>
      <trkpt lat="45.06013" lon="6.47558">
        <ele>2531</ele>
        <time>2021-02-28T11:10:02Z</time>
      </trkpt>
      <trkpt lat="45.06013" lon="6.47558">
        <ele>2531.4</ele>
        <time>2021-02-28T11:10:03Z</time>
      </trkpt>
      <trkpt lat="45.06011" lon="6.47557">
        <ele>2531.4</ele>
        <time>2021-02-28T11:10:04Z</time>
      </trkpt>
      <trkpt lat="45.06011" lon="6.47557">
        <ele>2532</ele>
        <time>2021-02-28T11:10:05Z</time>
      </trkpt>
      <trkpt lat="45.06011" lon="6.47557">
        <ele>2531.8</ele>
        <time>2021-02-28T11:10:06Z</time>
      </trkpt>
      <trkpt lat="45.06009" lon="6.47555">
        <ele>2532</ele>
        <time>2021-02-28T11:10:07Z</time>
      </trkpt>
      <trkpt lat="45.06009" lon="6.47555">
        <ele>2532.2</ele>
        <time>2021-02-28T11:10:08Z</time>
      </trkpt>
      <trkpt lat="45.06009" lon="6.47555">
        <ele>2532.6</ele>
        <time>2021-02-28T11:10:09Z</time>
      </trkpt>
      <trkpt lat="45.06006" lon="6.47554">
        <ele>2532.6</ele>
        <time>2021-02-28T11:10:10Z</time>
      </trkpt>
      <trkpt lat="45.06006" lon="6.47554">
        <ele>2532.6</ele>
        <time>2021-02-28T11:10:11Z</time>
      </trkpt>
      <trkpt lat="45.06004" lon="6.47554">
        <ele>2533.4</ele>
        <time>2021-02-28T11:10:12Z</time>
      </trkpt>
      <trkpt lat="45.06004" lon="6.47554">
        <ele>2533.4</ele>
        <time>2021-02-28T11:10:13Z</time>
      </trkpt>
      <trkpt lat="45.06004" lon="6.47554">
        <ele>2533.2</ele>
        <time>2021-02-28T11:10:14Z</time>
      </trkpt>
      <trkpt lat="45.06002" lon="6.47552">
        <ele>2533.2</ele>
        <time>2021-02-28T11:10:15Z</time>
      </trkpt>
      <trkpt lat="45.06002" lon="6.47552">
        <ele>2533.6</ele>
        <time>2021-02-28T11:10:16Z</time>
      </trkpt>
      <trkpt lat="45.06001" lon="6.47551">
        <ele>2534.2</ele>
        <time>2021-02-28T11:10:17Z</time>
      </trkpt>
      <trkpt lat="45.06001" lon="6.47551">
        <ele>2533.8</ele>
        <time>2021-02-28T11:10:18Z</time>
      </trkpt>
      <trkpt lat="45.06001" lon="6.47551">
        <ele>2534.4</ele>
        <time>2021-02-28T11:10:19Z</time>
      </trkpt>
      <trkpt lat="45.05999" lon="6.47549">
        <ele>2535</ele>
        <time>2021-02-28T11:10:20Z</time>
      </trkpt>
      <trkpt lat="45.05999" lon="6.47549">
        <ele>2535.6</ele>
        <time>2021-02-28T11:10:21Z</time>
      </trkpt>
      <trkpt lat="45.05999" lon="6.47549">
        <ele>2535.6</ele>
        <time>2021-02-28T11:10:22Z</time>
      </trkpt>
      <trkpt lat="45.05999" lon="6.47549">
        <ele>2534.8</ele>
        <time>2021-02-28T11:10:23Z</time>
      </trkpt>
      <trkpt lat="45.05999" lon="6.47553">
        <ele>2535.2</ele>
        <time>2021-02-28T11:10:24Z</time>
      </trkpt>
      <trkpt lat="45.05999" lon="6.47553">
        <ele>2535.2</ele>
        <time>2021-02-28T11:10:25Z</time>
      </trkpt>
      <trkpt lat="45.05999" lon="6.47553">
        <ele>2534.8</ele>
        <time>2021-02-28T11:10:26Z</time>
      </trkpt>
      <trkpt lat="45.05998" lon="6.47557">
        <ele>2536</ele>
        <time>2021-02-28T11:10:27Z</time>
      </trkpt>
      <trkpt lat="45.05998" lon="6.47557">
        <ele>2535.8</ele>
        <time>2021-02-28T11:10:28Z</time>
      </trkpt>
      <trkpt lat="45.05998" lon="6.47559">
        <ele>2535.6</ele>
        <time>2021-02-28T11:10:29Z</time>
      </trkpt>
      <trkpt lat="45.05998" lon="6.47559">
        <ele>2536.2</ele>
        <time>2021-02-28T11:10:30Z</time>
      </trkpt>
      <trkpt lat="45.05998" lon="6.47562">
        <ele>2535.8</ele>
        <time>2021-02-28T11:10:31Z</time>
      </trkpt>
      <trkpt lat="45.05998" lon="6.47562">
        <ele>2536</ele>
        <time>2021-02-28T11:10:32Z</time>
      </trkpt>
      <trkpt lat="45.05998" lon="6.47562">
        <ele>2536.2</ele>
        <time>2021-02-28T11:10:33Z</time>
      </trkpt>
      <trkpt lat="45.05997" lon="6.47566">
        <ele>2536.6</ele>
        <time>2021-02-28T11:10:34Z</time>
      </trkpt>
      <trkpt lat="45.05997" lon="6.47566">
        <ele>2536.8</ele>
        <time>2021-02-28T11:10:35Z</time>
      </trkpt>
      <trkpt lat="45.05997" lon="6.47569">
        <ele>2536.2</ele>
        <time>2021-02-28T11:10:36Z</time>
      </trkpt>
      <trkpt lat="45.05997" lon="6.47569">
        <ele>2537.2</ele>
        <time>2021-02-28T11:10:37Z</time>
      </trkpt>
      <trkpt lat="45.05996" lon="6.47573">
        <ele>2537.6</ele>
        <time>2021-02-28T11:10:38Z</time>
      </trkpt>
      <trkpt lat="45.05996" lon="6.47573">
        <ele>2537.8</ele>
        <time>2021-02-28T11:10:39Z</time>
      </trkpt>
      <trkpt lat="45.05996" lon="6.47573">
        <ele>2537.8</ele>
        <time>2021-02-28T11:10:40Z</time>
      </trkpt>
      <trkpt lat="45.05996" lon="6.47577">
        <ele>2538.6</ele>
        <time>2021-02-28T11:10:41Z</time>
      </trkpt>
      <trkpt lat="45.05996" lon="6.47577">
        <ele>2539</ele>
        <time>2021-02-28T11:10:42Z</time>
      </trkpt>
      <trkpt lat="45.05996" lon="6.47577">
        <ele>2538.6</ele>
        <time>2021-02-28T11:10:43Z</time>
      </trkpt>
      <trkpt lat="45.05995" lon="6.4758">
        <ele>2539.2</ele>
        <time>2021-02-28T11:10:44Z</time>
      </trkpt>
      <trkpt lat="45.05995" lon="6.4758">
        <ele>2539.2</ele>
        <time>2021-02-28T11:10:45Z</time>
      </trkpt>
      <trkpt lat="45.05995" lon="6.47583">
        <ele>2539</ele>
        <time>2021-02-28T11:10:46Z</time>
      </trkpt>
      <trkpt lat="45.05995" lon="6.47583">
        <ele>2539.2</ele>
        <time>2021-02-28T11:10:47Z</time>
      </trkpt>
      <trkpt lat="45.05995" lon="6.47586">
        <ele>2539.8</ele>
        <time>2021-02-28T11:10:48Z</time>
      </trkpt>
      <trkpt lat="45.05995" lon="6.47586">
        <ele>2539.8</ele>
        <time>2021-02-28T11:10:49Z</time>
      </trkpt>
      <trkpt lat="45.05995" lon="6.47586">
        <ele>2540</ele>
        <time>2021-02-28T11:10:50Z</time>
      </trkpt>
      <trkpt lat="45.05995" lon="6.4759">
        <ele>2540.2</ele>
        <time>2021-02-28T11:10:51Z</time>
      </trkpt>
      <trkpt lat="45.05995" lon="6.4759">
        <ele>2541.4</ele>
        <time>2021-02-28T11:10:52Z</time>
      </trkpt>
      <trkpt lat="45.05994" lon="6.47593">
        <ele>2541.2</ele>
        <time>2021-02-28T11:10:53Z</time>
      </trkpt>
      <trkpt lat="45.05994" lon="6.47593">
        <ele>2540.4</ele>
        <time>2021-02-28T11:10:54Z</time>
      </trkpt>
      <trkpt lat="45.05994" lon="6.47596">
        <ele>2541</ele>
        <time>2021-02-28T11:10:55Z</time>
      </trkpt>
      <trkpt lat="45.05994" lon="6.47596">
        <ele>2541.6</ele>
        <time>2021-02-28T11:10:56Z</time>
      </trkpt>
      <trkpt lat="45.05994" lon="6.47598">
        <ele>2541.6</ele>
        <time>2021-02-28T11:10:57Z</time>
      </trkpt>
      <trkpt lat="45.05994" lon="6.47598">
        <ele>2541.4</ele>
        <time>2021-02-28T11:10:58Z</time>
      </trkpt>
      <trkpt lat="45.05993" lon="6.47601">
        <ele>2542.4</ele>
        <time>2021-02-28T11:10:59Z</time>
      </trkpt>
      <trkpt lat="45.05993" lon="6.47601">
        <ele>2542.2</ele>
        <time>2021-02-28T11:11:00Z</time>
      </trkpt>
      <trkpt lat="45.05993" lon="6.47604">
        <ele>2542.8</ele>
        <time>2021-02-28T11:11:01Z</time>
      </trkpt>
      <trkpt lat="45.05993" lon="6.47604">
        <ele>2543.2</ele>
        <time>2021-02-28T11:11:02Z</time>
      </trkpt>
      <trkpt lat="45.05992" lon="6.47608">
        <ele>2543.8</ele>
        <time>2021-02-28T11:11:03Z</time>
      </trkpt>
      <trkpt lat="45.05992" lon="6.47608">
        <ele>2544</ele>
        <time>2021-02-28T11:11:04Z</time>
      </trkpt>
      <trkpt lat="45.05992" lon="6.47611">
        <ele>2543.2</ele>
        <time>2021-02-28T11:11:05Z</time>
      </trkpt>
      <trkpt lat="45.05992" lon="6.47611">
        <ele>2543.6</ele>
        <time>2021-02-28T11:11:06Z</time>
      </trkpt>
      <trkpt lat="45.05991" lon="6.47614">
        <ele>2544</ele>
        <time>2021-02-28T11:11:07Z</time>
      </trkpt>
      <trkpt lat="45.05991" lon="6.47614">
        <ele>2544</ele>
        <time>2021-02-28T11:11:08Z</time>
      </trkpt>
      <trkpt lat="45.05991" lon="6.47614">
        <ele>2544.2</ele>
        <time>2021-02-28T11:11:09Z</time>
      </trkpt>
      <trkpt lat="45.0599" lon="6.47618">
        <ele>2545.2</ele>
        <time>2021-02-28T11:11:10Z</time>
      </trkpt>
      <trkpt lat="45.0599" lon="6.47618">
        <ele>2545.6</ele>
        <time>2021-02-28T11:11:11Z</time>
      </trkpt>
      <trkpt lat="45.05989" lon="6.47621">
        <ele>2545.4</ele>
        <time>2021-02-28T11:11:12Z</time>
      </trkpt>
      <trkpt lat="45.05989" lon="6.47621">
        <ele>2545.6</ele>
        <time>2021-02-28T11:11:13Z</time>
      </trkpt>
      <trkpt lat="45.05989" lon="6.47624">
        <ele>2546.4</ele>
        <time>2021-02-28T11:11:14Z</time>
      </trkpt>
      <trkpt lat="45.05989" lon="6.47624">
        <ele>2546.2</ele>
        <time>2021-02-28T11:11:15Z</time>
      </trkpt>
      <trkpt lat="45.05988" lon="6.47627">
        <ele>2545.4</ele>
        <time>2021-02-28T11:11:16Z</time>
      </trkpt>
      <trkpt lat="45.05988" lon="6.47627">
        <ele>2546.2</ele>
        <time>2021-02-28T11:11:17Z</time>
      </trkpt>
      <trkpt lat="45.05986" lon="6.47628">
        <ele>2545.6</ele>
        <time>2021-02-28T11:11:18Z</time>
      </trkpt>
      <trkpt lat="45.05986" lon="6.47628">
        <ele>2546</ele>
        <time>2021-02-28T11:11:19Z</time>
      </trkpt>
      <trkpt lat="45.05983" lon="6.47628">
        <ele>2546.4</ele>
        <time>2021-02-28T11:11:20Z</time>
      </trkpt>
      <trkpt lat="45.05983" lon="6.47628">
        <ele>2546.8</ele>
        <time>2021-02-28T11:11:21Z</time>
      </trkpt>
      <trkpt lat="45.05981" lon="6.47626">
        <ele>2547.6</ele>
        <time>2021-02-28T11:11:22Z</time>
      </trkpt>
      <trkpt lat="45.05981" lon="6.47626">
        <ele>2547.2</ele>
        <time>2021-02-28T11:11:23Z</time>
      </trkpt>
      <trkpt lat="45.0598" lon="6.47624">
        <ele>2547.4</ele>
        <time>2021-02-28T11:11:24Z</time>
      </trkpt>
      <trkpt lat="45.0598" lon="6.47624">
        <ele>2548.2</ele>
        <time>2021-02-28T11:11:25Z</time>
      </trkpt>
      <trkpt lat="45.05978" lon="6.47622">
        <ele>2548.2</ele>
        <time>2021-02-28T11:11:26Z</time>
      </trkpt>
      <trkpt lat="45.05978" lon="6.47622">
        <ele>2549</ele>
        <time>2021-02-28T11:11:27Z</time>
      </trkpt>
      <trkpt lat="45.05978" lon="6.47622">
        <ele>2549.4</ele>
        <time>2021-02-28T11:11:28Z</time>
      </trkpt>
      <trkpt lat="45.05977" lon="6.47619">
        <ele>2549.6</ele>
        <time>2021-02-28T11:11:29Z</time>
      </trkpt>
      <trkpt lat="45.05977" lon="6.47619">
        <ele>2550.2</ele>
        <time>2021-02-28T11:11:30Z</time>
      </trkpt>
      <trkpt lat="45.05977" lon="6.47619">
        <ele>2550.4</ele>
        <time>2021-02-28T11:11:31Z</time>
      </trkpt>
      <trkpt lat="45.05975" lon="6.47616">
        <ele>2550.6</ele>
        <time>2021-02-28T11:11:32Z</time>
      </trkpt>
      <trkpt lat="45.05975" lon="6.47616">
        <ele>2550.8</ele>
        <time>2021-02-28T11:11:33Z</time>
      </trkpt>
      <trkpt lat="45.05975" lon="6.47616">
        <ele>2550</ele>
        <time>2021-02-28T11:11:34Z</time>
      </trkpt>
      <trkpt lat="45.05972" lon="6.47614">
        <ele>2550.4</ele>
        <time>2021-02-28T11:11:35Z</time>
      </trkpt>
      <trkpt lat="45.05972" lon="6.47614">
        <ele>2551.2</ele>
        <time>2021-02-28T11:11:36Z</time>
      </trkpt>
      <trkpt lat="45.05971" lon="6.47612">
        <ele>2550.6</ele>
        <time>2021-02-28T11:11:37Z</time>
      </trkpt>
      <trkpt lat="45.05971" lon="6.47612">
        <ele>2551.2</ele>
        <time>2021-02-28T11:11:38Z</time>
      </trkpt>
      <trkpt lat="45.0597" lon="6.47609">
        <ele>2551.8</ele>
        <time>2021-02-28T11:11:39Z</time>
      </trkpt>
      <trkpt lat="45.0597" lon="6.47609">
        <ele>2551.8</ele>
        <time>2021-02-28T11:11:40Z</time>
      </trkpt>
      <trkpt lat="45.05969" lon="6.47607">
        <ele>2552.4</ele>
        <time>2021-02-28T11:11:41Z</time>
      </trkpt>
      <trkpt lat="45.05969" lon="6.47607">
        <ele>2552.6</ele>
        <time>2021-02-28T11:11:42Z</time>
      </trkpt>
      <trkpt lat="45.05968" lon="6.47605">
        <ele>2553.2</ele>
        <time>2021-02-28T11:11:43Z</time>
      </trkpt>
      <trkpt lat="45.05968" lon="6.47605">
        <ele>2552.6</ele>
        <time>2021-02-28T11:11:44Z</time>
      </trkpt>
      <trkpt lat="45.05966" lon="6.47603">
        <ele>2553</ele>
        <time>2021-02-28T11:11:45Z</time>
      </trkpt>
      <trkpt lat="45.05966" lon="6.47603">
        <ele>2553.6</ele>
        <time>2021-02-28T11:11:46Z</time>
      </trkpt>
      <trkpt lat="45.05965" lon="6.47601">
        <ele>2553.6</ele>
        <time>2021-02-28T11:11:47Z</time>
      </trkpt>
      <trkpt lat="45.05965" lon="6.47601">
        <ele>2554.4</ele>
        <time>2021-02-28T11:11:48Z</time>
      </trkpt>
      <trkpt lat="45.05965" lon="6.47601">
        <ele>2554.4</ele>
        <time>2021-02-28T11:11:49Z</time>
      </trkpt>
      <trkpt lat="45.05963" lon="6.47598">
        <ele>2554.6</ele>
        <time>2021-02-28T11:11:50Z</time>
      </trkpt>
      <trkpt lat="45.05963" lon="6.47598">
        <ele>2554.8</ele>
        <time>2021-02-28T11:11:51Z</time>
      </trkpt>
      <trkpt lat="45.05963" lon="6.47598">
        <ele>2555.2</ele>
        <time>2021-02-28T11:11:52Z</time>
      </trkpt>
      <trkpt lat="45.05962" lon="6.47595">
        <ele>2554.8</ele>
        <time>2021-02-28T11:11:53Z</time>
      </trkpt>
      <trkpt lat="45.05962" lon="6.47595">
        <ele>2555.2</ele>
        <time>2021-02-28T11:11:54Z</time>
      </trkpt>
      <trkpt lat="45.05962" lon="6.47595">
        <ele>2556</ele>
        <time>2021-02-28T11:11:55Z</time>
      </trkpt>
      <trkpt lat="45.05961" lon="6.47592">
        <ele>2556</ele>
        <time>2021-02-28T11:11:56Z</time>
      </trkpt>
      <trkpt lat="45.05961" lon="6.47592">
        <ele>2556.2</ele>
        <time>2021-02-28T11:11:57Z</time>
      </trkpt>
      <trkpt lat="45.0596" lon="6.4759">
        <ele>2556.2</ele>
        <time>2021-02-28T11:11:58Z</time>
      </trkpt>
      <trkpt lat="45.0596" lon="6.4759">
        <ele>2556.8</ele>
        <time>2021-02-28T11:11:59Z</time>
      </trkpt>
      <trkpt lat="45.05959" lon="6.47588">
        <ele>2557</ele>
        <time>2021-02-28T11:12:00Z</time>
      </trkpt>
      <trkpt lat="45.05959" lon="6.47588">
        <ele>2557</ele>
        <time>2021-02-28T11:12:01Z</time>
      </trkpt>
      <trkpt lat="45.05958" lon="6.47585">
        <ele>2557.4</ele>
        <time>2021-02-28T11:12:02Z</time>
      </trkpt>
      <trkpt lat="45.05958" lon="6.47585">
        <ele>2556.6</ele>
        <time>2021-02-28T11:12:03Z</time>
      </trkpt>
      <trkpt lat="45.05958" lon="6.47585">
        <ele>2556.8</ele>
        <time>2021-02-28T11:12:04Z</time>
      </trkpt>
      <trkpt lat="45.05957" lon="6.47582">
        <ele>2556.6</ele>
        <time>2021-02-28T11:12:05Z</time>
      </trkpt>
      <trkpt lat="45.05957" lon="6.47582">
        <ele>2556.6</ele>
        <time>2021-02-28T11:12:06Z</time>
      </trkpt>
      <trkpt lat="45.05956" lon="6.4758">
        <ele>2556.8</ele>
        <time>2021-02-28T11:12:07Z</time>
      </trkpt>
      <trkpt lat="45.05956" lon="6.4758">
        <ele>2557.6</ele>
        <time>2021-02-28T11:12:08Z</time>
      </trkpt>
      <trkpt lat="45.05956" lon="6.4758">
        <ele>2556.6</ele>
        <time>2021-02-28T11:12:09Z</time>
      </trkpt>
      <trkpt lat="45.05954" lon="6.47577">
        <ele>2557</ele>
        <time>2021-02-28T11:12:10Z</time>
      </trkpt>
      <trkpt lat="45.05954" lon="6.47577">
        <ele>2558</ele>
        <time>2021-02-28T11:12:11Z</time>
      </trkpt>
      <trkpt lat="45.05954" lon="6.47577">
        <ele>2557.8</ele>
        <time>2021-02-28T11:12:12Z</time>
      </trkpt>
      <trkpt lat="45.05954" lon="6.47577">
        <ele>2557.6</ele>
        <time>2021-02-28T11:12:13Z</time>
      </trkpt>
      <trkpt lat="45.05954" lon="6.47577">
        <ele>2558.4</ele>
        <time>2021-02-28T11:12:14Z</time>
      </trkpt>
      <trkpt lat="45.05954" lon="6.47577">
        <ele>2558.8</ele>
        <time>2021-02-28T11:12:15Z</time>
      </trkpt>
      <trkpt lat="45.05954" lon="6.47577">
        <ele>2558.8</ele>
        <time>2021-02-28T11:12:16Z</time>
      </trkpt>
      <trkpt lat="45.05953" lon="6.47581">
        <ele>2559.2</ele>
        <time>2021-02-28T11:12:17Z</time>
      </trkpt>
      <trkpt lat="45.05953" lon="6.47581">
        <ele>2559.2</ele>
        <time>2021-02-28T11:12:18Z</time>
      </trkpt>
      <trkpt lat="45.05954" lon="6.47585">
        <ele>2558.8</ele>
        <time>2021-02-28T11:12:19Z</time>
      </trkpt>
      <trkpt lat="45.05954" lon="6.47585">
        <ele>2558.4</ele>
        <time>2021-02-28T11:12:20Z</time>
      </trkpt>
      <trkpt lat="45.05954" lon="6.47588">
        <ele>2559.2</ele>
        <time>2021-02-28T11:12:21Z</time>
      </trkpt>
      <trkpt lat="45.05954" lon="6.47588">
        <ele>2559.8</ele>
        <time>2021-02-28T11:12:22Z</time>
      </trkpt>
      <trkpt lat="45.05954" lon="6.47591">
        <ele>2559</ele>
        <time>2021-02-28T11:12:23Z</time>
      </trkpt>
      <trkpt lat="45.05954" lon="6.47591">
        <ele>2559.4</ele>
        <time>2021-02-28T11:12:24Z</time>
      </trkpt>
      <trkpt lat="45.05953" lon="6.47594">
        <ele>2559.6</ele>
        <time>2021-02-28T11:12:25Z</time>
      </trkpt>
      <trkpt lat="45.05953" lon="6.47594">
        <ele>2559.2</ele>
        <time>2021-02-28T11:12:26Z</time>
      </trkpt>
      <trkpt lat="45.05953" lon="6.47597">
        <ele>2559.4</ele>
        <time>2021-02-28T11:12:27Z</time>
      </trkpt>
      <trkpt lat="45.05953" lon="6.47597">
        <ele>2560.2</ele>
        <time>2021-02-28T11:12:28Z</time>
      </trkpt>
      <trkpt lat="45.05953" lon="6.476">
        <ele>2560.4</ele>
        <time>2021-02-28T11:12:29Z</time>
      </trkpt>
      <trkpt lat="45.05953" lon="6.476">
        <ele>2560</ele>
        <time>2021-02-28T11:12:30Z</time>
      </trkpt>
      <trkpt lat="45.05952" lon="6.47603">
        <ele>2560.6</ele>
        <time>2021-02-28T11:12:31Z</time>
      </trkpt>
      <trkpt lat="45.05951" lon="6.47605">
        <ele>2560.6</ele>
        <time>2021-02-28T11:12:32Z</time>
      </trkpt>
      <trkpt lat="45.05951" lon="6.47605">
        <ele>2561</ele>
        <time>2021-02-28T11:12:33Z</time>
      </trkpt>
      <trkpt lat="45.05951" lon="6.47608">
        <ele>2561</ele>
        <time>2021-02-28T11:12:34Z</time>
      </trkpt>
      <trkpt lat="45.05951" lon="6.47608">
        <ele>2561.6</ele>
        <time>2021-02-28T11:12:35Z</time>
      </trkpt>
      <trkpt lat="45.0595" lon="6.47611">
        <ele>2561.8</ele>
        <time>2021-02-28T11:12:36Z</time>
      </trkpt>
      <trkpt lat="45.0595" lon="6.47611">
        <ele>2562.2</ele>
        <time>2021-02-28T11:12:37Z</time>
      </trkpt>
      <trkpt lat="45.0595" lon="6.47611">
        <ele>2562.6</ele>
        <time>2021-02-28T11:12:38Z</time>
      </trkpt>
      <trkpt lat="45.0595" lon="6.47615">
        <ele>2562.6</ele>
        <time>2021-02-28T11:12:39Z</time>
      </trkpt>
      <trkpt lat="45.0595" lon="6.47615">
        <ele>2562.8</ele>
        <time>2021-02-28T11:12:40Z</time>
      </trkpt>
      <trkpt lat="45.0595" lon="6.47615">
        <ele>2562.6</ele>
        <time>2021-02-28T11:12:41Z</time>
      </trkpt>
      <trkpt lat="45.05949" lon="6.4762">
        <ele>2563.2</ele>
        <time>2021-02-28T11:12:42Z</time>
      </trkpt>
      <trkpt lat="45.05949" lon="6.4762">
        <ele>2563.2</ele>
        <time>2021-02-28T11:12:43Z</time>
      </trkpt>
      <trkpt lat="45.05949" lon="6.47623">
        <ele>2563.2</ele>
        <time>2021-02-28T11:12:44Z</time>
      </trkpt>
      <trkpt lat="45.05949" lon="6.47623">
        <ele>2563.6</ele>
        <time>2021-02-28T11:12:45Z</time>
      </trkpt>
      <trkpt lat="45.05949" lon="6.47626">
        <ele>2563.6</ele>
        <time>2021-02-28T11:12:46Z</time>
      </trkpt>
      <trkpt lat="45.05949" lon="6.47626">
        <ele>2563.6</ele>
        <time>2021-02-28T11:12:47Z</time>
      </trkpt>
      <trkpt lat="45.05948" lon="6.47629">
        <ele>2562.2</ele>
        <time>2021-02-28T11:12:48Z</time>
      </trkpt>
      <trkpt lat="45.05948" lon="6.47629">
        <ele>2562.8</ele>
        <time>2021-02-28T11:12:49Z</time>
      </trkpt>
      <trkpt lat="45.05948" lon="6.47632">
        <ele>2562.8</ele>
        <time>2021-02-28T11:12:50Z</time>
      </trkpt>
      <trkpt lat="45.05948" lon="6.47632">
        <ele>2563</ele>
        <time>2021-02-28T11:12:51Z</time>
      </trkpt>
      <trkpt lat="45.05948" lon="6.47635">
        <ele>2563.4</ele>
        <time>2021-02-28T11:12:52Z</time>
      </trkpt>
      <trkpt lat="45.05948" lon="6.47635">
        <ele>2564.2</ele>
        <time>2021-02-28T11:12:53Z</time>
      </trkpt>
      <trkpt lat="45.05947" lon="6.47638">
        <ele>2564.6</ele>
        <time>2021-02-28T11:12:54Z</time>
      </trkpt>
      <trkpt lat="45.05947" lon="6.47638">
        <ele>2564.4</ele>
        <time>2021-02-28T11:12:55Z</time>
      </trkpt>
      <trkpt lat="45.05947" lon="6.47638">
        <ele>2565.2</ele>
        <time>2021-02-28T11:12:56Z</time>
      </trkpt>
      <trkpt lat="45.05946" lon="6.47641">
        <ele>2564.6</ele>
        <time>2021-02-28T11:12:57Z</time>
      </trkpt>
      <trkpt lat="45.05946" lon="6.47641">
        <ele>2564.6</ele>
        <time>2021-02-28T11:12:58Z</time>
      </trkpt>
      <trkpt lat="45.05946" lon="6.47641">
        <ele>2565.2</ele>
        <time>2021-02-28T11:12:59Z</time>
      </trkpt>
      <trkpt lat="45.05945" lon="6.47645">
        <ele>2565</ele>
        <time>2021-02-28T11:13:00Z</time>
      </trkpt>
      <trkpt lat="45.05945" lon="6.47645">
        <ele>2564.6</ele>
        <time>2021-02-28T11:13:01Z</time>
      </trkpt>
      <trkpt lat="45.05945" lon="6.47645">
        <ele>2565</ele>
        <time>2021-02-28T11:13:02Z</time>
      </trkpt>
      <trkpt lat="45.05945" lon="6.47649">
        <ele>2566.4</ele>
        <time>2021-02-28T11:13:03Z</time>
      </trkpt>
      <trkpt lat="45.05945" lon="6.47649">
        <ele>2566.4</ele>
        <time>2021-02-28T11:13:04Z</time>
      </trkpt>
      <trkpt lat="45.05945" lon="6.47649">
        <ele>2565.8</ele>
        <time>2021-02-28T11:13:05Z</time>
      </trkpt>
      <trkpt lat="45.05945" lon="6.47652">
        <ele>2566.4</ele>
        <time>2021-02-28T11:13:06Z</time>
      </trkpt>
      <trkpt lat="45.05945" lon="6.47652">
        <ele>2566.4</ele>
        <time>2021-02-28T11:13:07Z</time>
      </trkpt>
      <trkpt lat="45.05944" lon="6.47655">
        <ele>2566.8</ele>
        <time>2021-02-28T11:13:08Z</time>
      </trkpt>
      <trkpt lat="45.05944" lon="6.47655">
        <ele>2567</ele>
        <time>2021-02-28T11:13:09Z</time>
      </trkpt>
      <trkpt lat="45.05944" lon="6.47655">
        <ele>2567.6</ele>
        <time>2021-02-28T11:13:10Z</time>
      </trkpt>
      <trkpt lat="45.05944" lon="6.47658">
        <ele>2567.6</ele>
        <time>2021-02-28T11:13:11Z</time>
      </trkpt>
      <trkpt lat="45.05944" lon="6.47658">
        <ele>2567.8</ele>
        <time>2021-02-28T11:13:12Z</time>
      </trkpt>
      <trkpt lat="45.05943" lon="6.47661">
        <ele>2568.4</ele>
        <time>2021-02-28T11:13:13Z</time>
      </trkpt>
      <trkpt lat="45.05943" lon="6.47661">
        <ele>2568.6</ele>
        <time>2021-02-28T11:13:14Z</time>
      </trkpt>
      <trkpt lat="45.05943" lon="6.47661">
        <ele>2569.4</ele>
        <time>2021-02-28T11:13:15Z</time>
      </trkpt>
      <trkpt lat="45.05943" lon="6.47661">
        <ele>2569.4</ele>
        <time>2021-02-28T11:13:16Z</time>
      </trkpt>
      <trkpt lat="45.0594" lon="6.4766">
        <ele>2569.2</ele>
        <time>2021-02-28T11:13:17Z</time>
      </trkpt>
      <trkpt lat="45.0594" lon="6.4766">
        <ele>2569.8</ele>
        <time>2021-02-28T11:13:18Z</time>
      </trkpt>
      <trkpt lat="45.0594" lon="6.4766">
        <ele>2569.4</ele>
        <time>2021-02-28T11:13:19Z</time>
      </trkpt>
      <trkpt lat="45.05938" lon="6.47658">
        <ele>2569.4</ele>
        <time>2021-02-28T11:13:20Z</time>
      </trkpt>
      <trkpt lat="45.05938" lon="6.47658">
        <ele>2569.8</ele>
        <time>2021-02-28T11:13:21Z</time>
      </trkpt>
      <trkpt lat="45.05938" lon="6.47658">
        <ele>2569.2</ele>
        <time>2021-02-28T11:13:22Z</time>
      </trkpt>
      <trkpt lat="45.05937" lon="6.47654">
        <ele>2569.8</ele>
        <time>2021-02-28T11:13:23Z</time>
      </trkpt>
      <trkpt lat="45.05937" lon="6.47654">
        <ele>2570.4</ele>
        <time>2021-02-28T11:13:24Z</time>
      </trkpt>
      <trkpt lat="45.05936" lon="6.47652">
        <ele>2570</ele>
        <time>2021-02-28T11:13:25Z</time>
      </trkpt>
      <trkpt lat="45.05936" lon="6.47652">
        <ele>2570.6</ele>
        <time>2021-02-28T11:13:26Z</time>
      </trkpt>
      <trkpt lat="45.05934" lon="6.4765">
        <ele>2571.2</ele>
        <time>2021-02-28T11:13:27Z</time>
      </trkpt>
      <trkpt lat="45.05934" lon="6.4765">
        <ele>2571.2</ele>
        <time>2021-02-28T11:13:28Z</time>
      </trkpt>
      <trkpt lat="45.05933" lon="6.47648">
        <ele>2571.8</ele>
        <time>2021-02-28T11:13:29Z</time>
      </trkpt>
      <trkpt lat="45.05933" lon="6.47648">
        <ele>2572.2</ele>
        <time>2021-02-28T11:13:30Z</time>
      </trkpt>
      <trkpt lat="45.05931" lon="6.47646">
        <ele>2572</ele>
        <time>2021-02-28T11:13:31Z</time>
      </trkpt>
      <trkpt lat="45.05931" lon="6.47646">
        <ele>2572.4</ele>
        <time>2021-02-28T11:13:32Z</time>
      </trkpt>
      <trkpt lat="45.05931" lon="6.47646">
        <ele>2572.4</ele>
        <time>2021-02-28T11:13:33Z</time>
      </trkpt>
      <trkpt lat="45.05929" lon="6.47643">
        <ele>2572.6</ele>
        <time>2021-02-28T11:13:34Z</time>
      </trkpt>
      <trkpt lat="45.05929" lon="6.47643">
        <ele>2573</ele>
        <time>2021-02-28T11:13:35Z</time>
      </trkpt>
      <trkpt lat="45.05928" lon="6.47641">
        <ele>2573</ele>
        <time>2021-02-28T11:13:36Z</time>
      </trkpt>
      <trkpt lat="45.05928" lon="6.47641">
        <ele>2573.4</ele>
        <time>2021-02-28T11:13:37Z</time>
      </trkpt>
      <trkpt lat="45.05927" lon="6.47639">
        <ele>2574</ele>
        <time>2021-02-28T11:13:38Z</time>
      </trkpt>
      <trkpt lat="45.05927" lon="6.47639">
        <ele>2573.6</ele>
        <time>2021-02-28T11:13:39Z</time>
      </trkpt>
      <trkpt lat="45.05926" lon="6.47637">
        <ele>2574</ele>
        <time>2021-02-28T11:13:40Z</time>
      </trkpt>
      <trkpt lat="45.05926" lon="6.47637">
        <ele>2574.2</ele>
        <time>2021-02-28T11:13:41Z</time>
      </trkpt>
      <trkpt lat="45.05926" lon="6.47637">
        <ele>2573.8</ele>
        <time>2021-02-28T11:13:42Z</time>
      </trkpt>
      <trkpt lat="45.05924" lon="6.47634">
        <ele>2574.4</ele>
        <time>2021-02-28T11:13:43Z</time>
      </trkpt>
      <trkpt lat="45.05924" lon="6.47634">
        <ele>2575</ele>
        <time>2021-02-28T11:13:44Z</time>
      </trkpt>
      <trkpt lat="45.05923" lon="6.47632">
        <ele>2575.2</ele>
        <time>2021-02-28T11:13:45Z</time>
      </trkpt>
      <trkpt lat="45.05923" lon="6.47632">
        <ele>2575.8</ele>
        <time>2021-02-28T11:13:46Z</time>
      </trkpt>
      <trkpt lat="45.05923" lon="6.47632">
        <ele>2575.8</ele>
        <time>2021-02-28T11:13:47Z</time>
      </trkpt>
      <trkpt lat="45.05922" lon="6.47629">
        <ele>2575.8</ele>
        <time>2021-02-28T11:13:48Z</time>
      </trkpt>
      <trkpt lat="45.05922" lon="6.47629">
        <ele>2576</ele>
        <time>2021-02-28T11:13:49Z</time>
      </trkpt>
      <trkpt lat="45.05921" lon="6.47626">
        <ele>2576.4</ele>
        <time>2021-02-28T11:13:50Z</time>
      </trkpt>
      <trkpt lat="45.05921" lon="6.47626">
        <ele>2576.4</ele>
        <time>2021-02-28T11:13:51Z</time>
      </trkpt>
      <trkpt lat="45.05921" lon="6.47626">
        <ele>2577.2</ele>
        <time>2021-02-28T11:13:52Z</time>
      </trkpt>
      <trkpt lat="45.0592" lon="6.47624">
        <ele>2577</ele>
        <time>2021-02-28T11:13:53Z</time>
      </trkpt>
      <trkpt lat="45.0592" lon="6.47624">
        <ele>2577.4</ele>
        <time>2021-02-28T11:13:54Z</time>
      </trkpt>
      <trkpt lat="45.0592" lon="6.47624">
        <ele>2577.8</ele>
        <time>2021-02-28T11:13:55Z</time>
      </trkpt>
      <trkpt lat="45.05919" lon="6.47621">
        <ele>2576.8</ele>
        <time>2021-02-28T11:13:56Z</time>
      </trkpt>
      <trkpt lat="45.05919" lon="6.47621">
        <ele>2577.8</ele>
        <time>2021-02-28T11:13:57Z</time>
      </trkpt>
      <trkpt lat="45.05919" lon="6.47621">
        <ele>2578.4</ele>
        <time>2021-02-28T11:13:58Z</time>
      </trkpt>
      <trkpt lat="45.05918" lon="6.47618">
        <ele>2578.6</ele>
        <time>2021-02-28T11:13:59Z</time>
      </trkpt>
      <trkpt lat="45.05918" lon="6.47618">
        <ele>2579.2</ele>
        <time>2021-02-28T11:14:00Z</time>
      </trkpt>
      <trkpt lat="45.05918" lon="6.47618">
        <ele>2579.6</ele>
        <time>2021-02-28T11:14:01Z</time>
      </trkpt>
      <trkpt lat="45.05916" lon="6.47615">
        <ele>2579</ele>
        <time>2021-02-28T11:14:02Z</time>
      </trkpt>
      <trkpt lat="45.05916" lon="6.47615">
        <ele>2579.4</ele>
        <time>2021-02-28T11:14:03Z</time>
      </trkpt>
      <trkpt lat="45.05916" lon="6.47615">
        <ele>2580.2</ele>
        <time>2021-02-28T11:14:04Z</time>
      </trkpt>
      <trkpt lat="45.05915" lon="6.47613">
        <ele>2579</ele>
        <time>2021-02-28T11:14:05Z</time>
      </trkpt>
      <trkpt lat="45.05915" lon="6.47613">
        <ele>2579.6</ele>
        <time>2021-02-28T11:14:06Z</time>
      </trkpt>
      <trkpt lat="45.05915" lon="6.47613">
        <ele>2579.6</ele>
        <time>2021-02-28T11:14:07Z</time>
      </trkpt>
      <trkpt lat="45.05915" lon="6.47613">
        <ele>2580</ele>
        <time>2021-02-28T11:14:08Z</time>
      </trkpt>
      <trkpt lat="45.05915" lon="6.47613">
        <ele>2580</ele>
        <time>2021-02-28T11:14:09Z</time>
      </trkpt>
      <trkpt lat="45.05915" lon="6.47613">
        <ele>2579.6</ele>
        <time>2021-02-28T11:14:10Z</time>
      </trkpt>
      <trkpt lat="45.05915" lon="6.47613">
        <ele>2580.2</ele>
        <time>2021-02-28T11:14:11Z</time>
      </trkpt>
      <trkpt lat="45.05914" lon="6.47616">
        <ele>2579.8</ele>
        <time>2021-02-28T11:14:12Z</time>
      </trkpt>
      <trkpt lat="45.05914" lon="6.47616">
        <ele>2579.8</ele>
        <time>2021-02-28T11:14:13Z</time>
      </trkpt>
      <trkpt lat="45.05914" lon="6.47616">
        <ele>2580.4</ele>
        <time>2021-02-28T11:14:14Z</time>
      </trkpt>
      <trkpt lat="45.05914" lon="6.47619">
        <ele>2579.8</ele>
        <time>2021-02-28T11:14:15Z</time>
      </trkpt>
      <trkpt lat="45.05914" lon="6.47619">
        <ele>2580</ele>
        <time>2021-02-28T11:14:16Z</time>
      </trkpt>
      <trkpt lat="45.05913" lon="6.47622">
        <ele>2580.2</ele>
        <time>2021-02-28T11:14:17Z</time>
      </trkpt>
      <trkpt lat="45.05913" lon="6.47622">
        <ele>2580.6</ele>
        <time>2021-02-28T11:14:18Z</time>
      </trkpt>
      <trkpt lat="45.05913" lon="6.47622">
        <ele>2581</ele>
        <time>2021-02-28T11:14:19Z</time>
      </trkpt>
      <trkpt lat="45.05913" lon="6.47625">
        <ele>2581.6</ele>
        <time>2021-02-28T11:14:20Z</time>
      </trkpt>
      <trkpt lat="45.05913" lon="6.47625">
        <ele>2581.8</ele>
        <time>2021-02-28T11:14:21Z</time>
      </trkpt>
      <trkpt lat="45.05913" lon="6.47625">
        <ele>2581.6</ele>
        <time>2021-02-28T11:14:22Z</time>
      </trkpt>
      <trkpt lat="45.05912" lon="6.47629">
        <ele>2581.6</ele>
        <time>2021-02-28T11:14:23Z</time>
      </trkpt>
      <trkpt lat="45.05912" lon="6.47629">
        <ele>2581.8</ele>
        <time>2021-02-28T11:14:24Z</time>
      </trkpt>
      <trkpt lat="45.05912" lon="6.47629">
        <ele>2581.6</ele>
        <time>2021-02-28T11:14:25Z</time>
      </trkpt>
      <trkpt lat="45.05911" lon="6.47632">
        <ele>2580.4</ele>
        <time>2021-02-28T11:14:26Z</time>
      </trkpt>
      <trkpt lat="45.05911" lon="6.47632">
        <ele>2580.6</ele>
        <time>2021-02-28T11:14:27Z</time>
      </trkpt>
      <trkpt lat="45.05911" lon="6.47635">
        <ele>2581</ele>
        <time>2021-02-28T11:14:28Z</time>
      </trkpt>
      <trkpt lat="45.05911" lon="6.47635">
        <ele>2581.2</ele>
        <time>2021-02-28T11:14:29Z</time>
      </trkpt>
      <trkpt lat="45.0591" lon="6.47638">
        <ele>2581</ele>
        <time>2021-02-28T11:14:30Z</time>
      </trkpt>
      <trkpt lat="45.0591" lon="6.47638">
        <ele>2582</ele>
        <time>2021-02-28T11:14:31Z</time>
      </trkpt>
      <trkpt lat="45.0591" lon="6.47641">
        <ele>2582.4</ele>
        <time>2021-02-28T11:14:32Z</time>
      </trkpt>
      <trkpt lat="45.0591" lon="6.47641">
        <ele>2582.2</ele>
        <time>2021-02-28T11:14:33Z</time>
      </trkpt>
      <trkpt lat="45.0591" lon="6.47641">
        <ele>2582.6</ele>
        <time>2021-02-28T11:14:34Z</time>
      </trkpt>
      <trkpt lat="45.0591" lon="6.47644">
        <ele>2583.2</ele>
        <time>2021-02-28T11:14:35Z</time>
      </trkpt>
      <trkpt lat="45.0591" lon="6.47644">
        <ele>2583.2</ele>
        <time>2021-02-28T11:14:36Z</time>
      </trkpt>
      <trkpt lat="45.05909" lon="6.47647">
        <ele>2582.8</ele>
        <time>2021-02-28T11:14:37Z</time>
      </trkpt>
      <trkpt lat="45.05909" lon="6.47647">
        <ele>2582.4</ele>
        <time>2021-02-28T11:14:38Z</time>
      </trkpt>
      <trkpt lat="45.05909" lon="6.4765">
        <ele>2583</ele>
        <time>2021-02-28T11:14:39Z</time>
      </trkpt>
      <trkpt lat="45.05909" lon="6.4765">
        <ele>2583.4</ele>
        <time>2021-02-28T11:14:40Z</time>
      </trkpt>
      <trkpt lat="45.05909" lon="6.47653">
        <ele>2583</ele>
        <time>2021-02-28T11:14:41Z</time>
      </trkpt>
      <trkpt lat="45.05909" lon="6.47653">
        <ele>2583.2</ele>
        <time>2021-02-28T11:14:42Z</time>
      </trkpt>
      <trkpt lat="45.05909" lon="6.47653">
        <ele>2583.2</ele>
        <time>2021-02-28T11:14:43Z</time>
      </trkpt>
      <trkpt lat="45.05909" lon="6.47657">
        <ele>2583.8</ele>
        <time>2021-02-28T11:14:44Z</time>
      </trkpt>
      <trkpt lat="45.05909" lon="6.47657">
        <ele>2584</ele>
        <time>2021-02-28T11:14:45Z</time>
      </trkpt>
      <trkpt lat="45.05908" lon="6.4766">
        <ele>2583.4</ele>
        <time>2021-02-28T11:14:46Z</time>
      </trkpt>
      <trkpt lat="45.05908" lon="6.4766">
        <ele>2583.8</ele>
        <time>2021-02-28T11:14:47Z</time>
      </trkpt>
      <trkpt lat="45.05908" lon="6.47663">
        <ele>2584.6</ele>
        <time>2021-02-28T11:14:48Z</time>
      </trkpt>
      <trkpt lat="45.05908" lon="6.47663">
        <ele>2584.2</ele>
        <time>2021-02-28T11:14:49Z</time>
      </trkpt>
      <trkpt lat="45.05908" lon="6.47665">
        <ele>2584.2</ele>
        <time>2021-02-28T11:14:50Z</time>
      </trkpt>
      <trkpt lat="45.05908" lon="6.47665">
        <ele>2584.4</ele>
        <time>2021-02-28T11:14:51Z</time>
      </trkpt>
      <trkpt lat="45.05907" lon="6.47669">
        <ele>2585</ele>
        <time>2021-02-28T11:14:52Z</time>
      </trkpt>
      <trkpt lat="45.05907" lon="6.47669">
        <ele>2584.8</ele>
        <time>2021-02-28T11:14:53Z</time>
      </trkpt>
      <trkpt lat="45.05907" lon="6.47669">
        <ele>2585.6</ele>
        <time>2021-02-28T11:14:54Z</time>
      </trkpt>
      <trkpt lat="45.05907" lon="6.47669">
        <ele>2586</ele>
        <time>2021-02-28T11:14:55Z</time>
      </trkpt>
      <trkpt lat="45.05905" lon="6.47667">
        <ele>2586.2</ele>
        <time>2021-02-28T11:14:56Z</time>
      </trkpt>
      <trkpt lat="45.05905" lon="6.47667">
        <ele>2586.6</ele>
        <time>2021-02-28T11:14:57Z</time>
      </trkpt>
      <trkpt lat="45.05903" lon="6.47665">
        <ele>2585.2</ele>
        <time>2021-02-28T11:14:58Z</time>
      </trkpt>
      <trkpt lat="45.05903" lon="6.47665">
        <ele>2586</ele>
        <time>2021-02-28T11:14:59Z</time>
      </trkpt>
      <trkpt lat="45.05901" lon="6.47662">
        <ele>2586.6</ele>
        <time>2021-02-28T11:15:00Z</time>
      </trkpt>
      <trkpt lat="45.05901" lon="6.47662">
        <ele>2585.8</ele>
        <time>2021-02-28T11:15:01Z</time>
      </trkpt>
      <trkpt lat="45.059" lon="6.47661">
        <ele>2586.8</ele>
        <time>2021-02-28T11:15:02Z</time>
      </trkpt>
      <trkpt lat="45.059" lon="6.47661">
        <ele>2587.4</ele>
        <time>2021-02-28T11:15:03Z</time>
      </trkpt>
      <trkpt lat="45.059" lon="6.47661">
        <ele>2587.4</ele>
        <time>2021-02-28T11:15:04Z</time>
      </trkpt>
      <trkpt lat="45.05898" lon="6.47658">
        <ele>2588.2</ele>
        <time>2021-02-28T11:15:05Z</time>
      </trkpt>
      <trkpt lat="45.05898" lon="6.47658">
        <ele>2588.6</ele>
        <time>2021-02-28T11:15:06Z</time>
      </trkpt>
      <trkpt lat="45.05897" lon="6.47656">
        <ele>2588.8</ele>
        <time>2021-02-28T11:15:07Z</time>
      </trkpt>
      <trkpt lat="45.05897" lon="6.47656">
        <ele>2588.8</ele>
        <time>2021-02-28T11:15:08Z</time>
      </trkpt>
      <trkpt lat="45.05896" lon="6.47653">
        <ele>2589</ele>
        <time>2021-02-28T11:15:09Z</time>
      </trkpt>
      <trkpt lat="45.05896" lon="6.47653">
        <ele>2589.4</ele>
        <time>2021-02-28T11:15:10Z</time>
      </trkpt>
      <trkpt lat="45.05896" lon="6.4765">
        <ele>2589</ele>
        <time>2021-02-28T11:15:11Z</time>
      </trkpt>
      <trkpt lat="45.05896" lon="6.4765">
        <ele>2590</ele>
        <time>2021-02-28T11:15:12Z</time>
      </trkpt>
      <trkpt lat="45.05896" lon="6.4765">
        <ele>2590.2</ele>
        <time>2021-02-28T11:15:13Z</time>
      </trkpt>
      <trkpt lat="45.05894" lon="6.47647">
        <ele>2590.4</ele>
        <time>2021-02-28T11:15:14Z</time>
      </trkpt>
      <trkpt lat="45.05894" lon="6.47647">
        <ele>2591.2</ele>
        <time>2021-02-28T11:15:15Z</time>
      </trkpt>
      <trkpt lat="45.05894" lon="6.47647">
        <ele>2591.4</ele>
        <time>2021-02-28T11:15:16Z</time>
      </trkpt>
      <trkpt lat="45.05893" lon="6.47643">
        <ele>2591.4</ele>
        <time>2021-02-28T11:15:17Z</time>
      </trkpt>
      <trkpt lat="45.05893" lon="6.47643">
        <ele>2592.2</ele>
        <time>2021-02-28T11:15:18Z</time>
      </trkpt>
      <trkpt lat="45.05893" lon="6.47643">
        <ele>2591.8</ele>
        <time>2021-02-28T11:15:19Z</time>
      </trkpt>
      <trkpt lat="45.05892" lon="6.4764">
        <ele>2592.2</ele>
        <time>2021-02-28T11:15:20Z</time>
      </trkpt>
      <trkpt lat="45.05892" lon="6.4764">
        <ele>2592.8</ele>
        <time>2021-02-28T11:15:21Z</time>
      </trkpt>
      <trkpt lat="45.05892" lon="6.4764">
        <ele>2592.8</ele>
        <time>2021-02-28T11:15:22Z</time>
      </trkpt>
      <trkpt lat="45.05892" lon="6.47636">
        <ele>2592.6</ele>
        <time>2021-02-28T11:15:23Z</time>
      </trkpt>
      <trkpt lat="45.05892" lon="6.47636">
        <ele>2592.6</ele>
        <time>2021-02-28T11:15:24Z</time>
      </trkpt>
      <trkpt lat="45.05892" lon="6.47636">
        <ele>2593</ele>
        <time>2021-02-28T11:15:25Z</time>
      </trkpt>
      <trkpt lat="45.05891" lon="6.47633">
        <ele>2593.6</ele>
        <time>2021-02-28T11:15:26Z</time>
      </trkpt>
      <trkpt lat="45.05891" lon="6.47633">
        <ele>2593.4</ele>
        <time>2021-02-28T11:15:27Z</time>
      </trkpt>
      <trkpt lat="45.05891" lon="6.47633">
        <ele>2593.2</ele>
        <time>2021-02-28T11:15:28Z</time>
      </trkpt>
      <trkpt lat="45.05891" lon="6.47633">
        <ele>2594.4</ele>
        <time>2021-02-28T11:15:29Z</time>
      </trkpt>
      <trkpt lat="45.05891" lon="6.47633">
        <ele>2594.8</ele>
        <time>2021-02-28T11:15:30Z</time>
      </trkpt>
      <trkpt lat="45.05891" lon="6.47633">
        <ele>2594.6</ele>
        <time>2021-02-28T11:15:31Z</time>
      </trkpt>
      <trkpt lat="45.05891" lon="6.47633">
        <ele>2594.4</ele>
        <time>2021-02-28T11:15:32Z</time>
      </trkpt>
      <trkpt lat="45.05891" lon="6.47633">
        <ele>2594.4</ele>
        <time>2021-02-28T11:15:33Z</time>
      </trkpt>
      <trkpt lat="45.0589" lon="6.47637">
        <ele>2594.8</ele>
        <time>2021-02-28T11:15:34Z</time>
      </trkpt>
      <trkpt lat="45.0589" lon="6.47637">
        <ele>2594.6</ele>
        <time>2021-02-28T11:15:35Z</time>
      </trkpt>
      <trkpt lat="45.0589" lon="6.47637">
        <ele>2594.8</ele>
        <time>2021-02-28T11:15:36Z</time>
      </trkpt>
      <trkpt lat="45.05889" lon="6.47641">
        <ele>2595.4</ele>
        <time>2021-02-28T11:15:37Z</time>
      </trkpt>
      <trkpt lat="45.05889" lon="6.47641">
        <ele>2595</ele>
        <time>2021-02-28T11:15:38Z</time>
      </trkpt>
      <trkpt lat="45.05889" lon="6.47641">
        <ele>2595.2</ele>
        <time>2021-02-28T11:15:39Z</time>
      </trkpt>
      <trkpt lat="45.05889" lon="6.47644">
        <ele>2595.4</ele>
        <time>2021-02-28T11:15:40Z</time>
      </trkpt>
      <trkpt lat="45.05889" lon="6.47644">
        <ele>2595.4</ele>
        <time>2021-02-28T11:15:41Z</time>
      </trkpt>
      <trkpt lat="45.05889" lon="6.47644">
        <ele>2595.6</ele>
        <time>2021-02-28T11:15:42Z</time>
      </trkpt>
      <trkpt lat="45.05888" lon="6.47647">
        <ele>2596.4</ele>
        <time>2021-02-28T11:15:43Z</time>
      </trkpt>
      <trkpt lat="45.05888" lon="6.47647">
        <ele>2596.4</ele>
        <time>2021-02-28T11:15:44Z</time>
      </trkpt>
      <trkpt lat="45.05887" lon="6.4765">
        <ele>2596</ele>
        <time>2021-02-28T11:15:45Z</time>
      </trkpt>
      <trkpt lat="45.05887" lon="6.4765">
        <ele>2596.2</ele>
        <time>2021-02-28T11:15:46Z</time>
      </trkpt>
      <trkpt lat="45.05887" lon="6.47652">
        <ele>2596</ele>
        <time>2021-02-28T11:15:47Z</time>
      </trkpt>
      <trkpt lat="45.05887" lon="6.47652">
        <ele>2596</ele>
        <time>2021-02-28T11:15:48Z</time>
      </trkpt>
      <trkpt lat="45.05887" lon="6.47652">
        <ele>2596.2</ele>
        <time>2021-02-28T11:15:49Z</time>
      </trkpt>
      <trkpt lat="45.05886" lon="6.47656">
        <ele>2596.4</ele>
        <time>2021-02-28T11:15:50Z</time>
      </trkpt>
      <trkpt lat="45.05886" lon="6.47656">
        <ele>2596.4</ele>
        <time>2021-02-28T11:15:51Z</time>
      </trkpt>
      <trkpt lat="45.05885" lon="6.47659">
        <ele>2596.4</ele>
        <time>2021-02-28T11:15:52Z</time>
      </trkpt>
      <trkpt lat="45.05885" lon="6.47659">
        <ele>2597.6</ele>
        <time>2021-02-28T11:15:53Z</time>
      </trkpt>
      <trkpt lat="45.05885" lon="6.47663">
        <ele>2597.8</ele>
        <time>2021-02-28T11:15:54Z</time>
      </trkpt>
      <trkpt lat="45.05885" lon="6.47663">
        <ele>2597.8</ele>
        <time>2021-02-28T11:15:55Z</time>
      </trkpt>
      <trkpt lat="45.05885" lon="6.47666">
        <ele>2598</ele>
        <time>2021-02-28T11:15:56Z</time>
      </trkpt>
      <trkpt lat="45.05885" lon="6.47666">
        <ele>2598.2</ele>
        <time>2021-02-28T11:15:57Z</time>
      </trkpt>
      <trkpt lat="45.05884" lon="6.47669">
        <ele>2598.6</ele>
        <time>2021-02-28T11:15:58Z</time>
      </trkpt>
      <trkpt lat="45.05884" lon="6.47669">
        <ele>2598.6</ele>
        <time>2021-02-28T11:15:59Z</time>
      </trkpt>
      <trkpt lat="45.05884" lon="6.47671">
        <ele>2599</ele>
        <time>2021-02-28T11:16:00Z</time>
      </trkpt>
      <trkpt lat="45.05884" lon="6.47671">
        <ele>2599.2</ele>
        <time>2021-02-28T11:16:01Z</time>
      </trkpt>
      <trkpt lat="45.05884" lon="6.47671">
        <ele>2599.2</ele>
        <time>2021-02-28T11:16:02Z</time>
      </trkpt>
      <trkpt lat="45.05884" lon="6.47675">
        <ele>2599.6</ele>
        <time>2021-02-28T11:16:03Z</time>
      </trkpt>
      <trkpt lat="45.05884" lon="6.47675">
        <ele>2600</ele>
        <time>2021-02-28T11:16:04Z</time>
      </trkpt>
      <trkpt lat="45.05883" lon="6.47677">
        <ele>2600.4</ele>
        <time>2021-02-28T11:16:05Z</time>
      </trkpt>
      <trkpt lat="45.05883" lon="6.47677">
        <ele>2600.4</ele>
        <time>2021-02-28T11:16:06Z</time>
      </trkpt>
      <trkpt lat="45.05883" lon="6.47677">
        <ele>2601</ele>
        <time>2021-02-28T11:16:07Z</time>
      </trkpt>
      <trkpt lat="45.05883" lon="6.47681">
        <ele>2601.4</ele>
        <time>2021-02-28T11:16:08Z</time>
      </trkpt>
      <trkpt lat="45.05883" lon="6.47681">
        <ele>2600.8</ele>
        <time>2021-02-28T11:16:09Z</time>
      </trkpt>
      <trkpt lat="45.05883" lon="6.47681">
        <ele>2601.6</ele>
        <time>2021-02-28T11:16:10Z</time>
      </trkpt>
      <trkpt lat="45.05882" lon="6.47683">
        <ele>2602</ele>
        <time>2021-02-28T11:16:11Z</time>
      </trkpt>
      <trkpt lat="45.05882" lon="6.47683">
        <ele>2602.4</ele>
        <time>2021-02-28T11:16:12Z</time>
      </trkpt>
      <trkpt lat="45.05882" lon="6.47683">
        <ele>2602.4</ele>
        <time>2021-02-28T11:16:13Z</time>
      </trkpt>
      <trkpt lat="45.0588" lon="6.47682">
        <ele>2603</ele>
        <time>2021-02-28T11:16:14Z</time>
      </trkpt>
      <trkpt lat="45.0588" lon="6.47682">
        <ele>2603.2</ele>
        <time>2021-02-28T11:16:15Z</time>
      </trkpt>
      <trkpt lat="45.0588" lon="6.47682">
        <ele>2603.2</ele>
        <time>2021-02-28T11:16:16Z</time>
      </trkpt>
      <trkpt lat="45.05878" lon="6.47681">
        <ele>2604</ele>
        <time>2021-02-28T11:16:17Z</time>
      </trkpt>
      <trkpt lat="45.05878" lon="6.47681">
        <ele>2604</ele>
        <time>2021-02-28T11:16:18Z</time>
      </trkpt>
      <trkpt lat="45.05878" lon="6.47681">
        <ele>2603.2</ele>
        <time>2021-02-28T11:16:19Z</time>
      </trkpt>
      <trkpt lat="45.05876" lon="6.4768">
        <ele>2603.8</ele>
        <time>2021-02-28T11:16:20Z</time>
      </trkpt>
      <trkpt lat="45.05876" lon="6.4768">
        <ele>2604.4</ele>
        <time>2021-02-28T11:16:21Z</time>
      </trkpt>
      <trkpt lat="45.05876" lon="6.4768">
        <ele>2604.4</ele>
        <time>2021-02-28T11:16:22Z</time>
      </trkpt>
      <trkpt lat="45.05874" lon="6.47678">
        <ele>2604.8</ele>
        <time>2021-02-28T11:16:23Z</time>
      </trkpt>
      <trkpt lat="45.05874" lon="6.47678">
        <ele>2605.2</ele>
        <time>2021-02-28T11:16:24Z</time>
      </trkpt>
      <trkpt lat="45.05874" lon="6.47678">
        <ele>2605.6</ele>
        <time>2021-02-28T11:16:25Z</time>
      </trkpt>
      <trkpt lat="45.05874" lon="6.47678">
        <ele>2606</ele>
        <time>2021-02-28T11:16:26Z</time>
      </trkpt>
      <trkpt lat="45.05873" lon="6.47677">
        <ele>2606.6</ele>
        <time>2021-02-28T11:16:27Z</time>
      </trkpt>
      <trkpt lat="45.05873" lon="6.47677">
        <ele>2606.4</ele>
        <time>2021-02-28T11:16:28Z</time>
      </trkpt>
      <trkpt lat="45.05873" lon="6.47677">
        <ele>2606.8</ele>
        <time>2021-02-28T11:16:29Z</time>
      </trkpt>
      <trkpt lat="45.0587" lon="6.47676">
        <ele>2607.4</ele>
        <time>2021-02-28T11:16:30Z</time>
      </trkpt>
      <trkpt lat="45.0587" lon="6.47676">
        <ele>2607.6</ele>
        <time>2021-02-28T11:16:31Z</time>
      </trkpt>
      <trkpt lat="45.05869" lon="6.47674">
        <ele>2607.2</ele>
        <time>2021-02-28T11:16:32Z</time>
      </trkpt>
      <trkpt lat="45.05869" lon="6.47674">
        <ele>2606.6</ele>
        <time>2021-02-28T11:16:33Z</time>
      </trkpt>
      <trkpt lat="45.05869" lon="6.47674">
        <ele>2607.4</ele>
        <time>2021-02-28T11:16:34Z</time>
      </trkpt>
      <trkpt lat="45.05867" lon="6.47672">
        <ele>2607.4</ele>
        <time>2021-02-28T11:16:35Z</time>
      </trkpt>
      <trkpt lat="45.05867" lon="6.47672">
        <ele>2607.4</ele>
        <time>2021-02-28T11:16:36Z</time>
      </trkpt>
      <trkpt lat="45.05866" lon="6.4767">
        <ele>2607.8</ele>
        <time>2021-02-28T11:16:37Z</time>
      </trkpt>
      <trkpt lat="45.05866" lon="6.4767">
        <ele>2608</ele>
        <time>2021-02-28T11:16:38Z</time>
      </trkpt>
      <trkpt lat="45.05865" lon="6.47667">
        <ele>2609.2</ele>
        <time>2021-02-28T11:16:39Z</time>
      </trkpt>
      <trkpt lat="45.05865" lon="6.47667">
        <ele>2609.4</ele>
        <time>2021-02-28T11:16:40Z</time>
      </trkpt>
      <trkpt lat="45.05865" lon="6.47667">
        <ele>2609.2</ele>
        <time>2021-02-28T11:16:41Z</time>
      </trkpt>
      <trkpt lat="45.05863" lon="6.47665">
        <ele>2608.6</ele>
        <time>2021-02-28T11:16:42Z</time>
      </trkpt>
      <trkpt lat="45.05863" lon="6.47665">
        <ele>2609</ele>
        <time>2021-02-28T11:16:43Z</time>
      </trkpt>
      <trkpt lat="45.05863" lon="6.47665">
        <ele>2609.2</ele>
        <time>2021-02-28T11:16:44Z</time>
      </trkpt>
      <trkpt lat="45.05861" lon="6.47663">
        <ele>2609.6</ele>
        <time>2021-02-28T11:16:45Z</time>
      </trkpt>
      <trkpt lat="45.05861" lon="6.47663">
        <ele>2610.2</ele>
        <time>2021-02-28T11:16:46Z</time>
      </trkpt>
      <trkpt lat="45.05861" lon="6.47663">
        <ele>2610</ele>
        <time>2021-02-28T11:16:47Z</time>
      </trkpt>
      <trkpt lat="45.05861" lon="6.4766">
        <ele>2610.4</ele>
        <time>2021-02-28T11:16:48Z</time>
      </trkpt>
      <trkpt lat="45.05861" lon="6.4766">
        <ele>2610.4</ele>
        <time>2021-02-28T11:16:49Z</time>
      </trkpt>
      <trkpt lat="45.05861" lon="6.4766">
        <ele>2610.2</ele>
        <time>2021-02-28T11:16:50Z</time>
      </trkpt>
      <trkpt lat="45.05859" lon="6.47658">
        <ele>2611.2</ele>
        <time>2021-02-28T11:16:51Z</time>
      </trkpt>
      <trkpt lat="45.05859" lon="6.47658">
        <ele>2611.8</ele>
        <time>2021-02-28T11:16:52Z</time>
      </trkpt>
      <trkpt lat="45.05858" lon="6.47656">
        <ele>2611.4</ele>
        <time>2021-02-28T11:16:53Z</time>
      </trkpt>
      <trkpt lat="45.05858" lon="6.47656">
        <ele>2611.6</ele>
        <time>2021-02-28T11:16:54Z</time>
      </trkpt>
      <trkpt lat="45.05858" lon="6.47656">
        <ele>2612.2</ele>
        <time>2021-02-28T11:16:55Z</time>
      </trkpt>
      <trkpt lat="45.05856" lon="6.47653">
        <ele>2612.4</ele>
        <time>2021-02-28T11:16:56Z</time>
      </trkpt>
      <trkpt lat="45.05856" lon="6.47653">
        <ele>2613</ele>
        <time>2021-02-28T11:16:57Z</time>
      </trkpt>
      <trkpt lat="45.05856" lon="6.47653">
        <ele>2613.2</ele>
        <time>2021-02-28T11:16:58Z</time>
      </trkpt>
      <trkpt lat="45.05855" lon="6.4765">
        <ele>2613</ele>
        <time>2021-02-28T11:16:59Z</time>
      </trkpt>
      <trkpt lat="45.05855" lon="6.4765">
        <ele>2613.6</ele>
        <time>2021-02-28T11:17:00Z</time>
      </trkpt>
      <trkpt lat="45.05855" lon="6.4765">
        <ele>2614</ele>
        <time>2021-02-28T11:17:01Z</time>
      </trkpt>
      <trkpt lat="45.05855" lon="6.4765">
        <ele>2613.8</ele>
        <time>2021-02-28T11:17:02Z</time>
      </trkpt>
      <trkpt lat="45.05855" lon="6.4765">
        <ele>2614.8</ele>
        <time>2021-02-28T11:17:03Z</time>
      </trkpt>
      <trkpt lat="45.05855" lon="6.4765">
        <ele>2614.8</ele>
        <time>2021-02-28T11:17:04Z</time>
      </trkpt>
      <trkpt lat="45.05855" lon="6.4765">
        <ele>2614.2</ele>
        <time>2021-02-28T11:17:05Z</time>
      </trkpt>
      <trkpt lat="45.05853" lon="6.47651">
        <ele>2615</ele>
        <time>2021-02-28T11:17:06Z</time>
      </trkpt>
      <trkpt lat="45.05853" lon="6.47651">
        <ele>2614.4</ele>
        <time>2021-02-28T11:17:07Z</time>
      </trkpt>
      <trkpt lat="45.05853" lon="6.47651">
        <ele>2615</ele>
        <time>2021-02-28T11:17:08Z</time>
      </trkpt>
      <trkpt lat="45.05852" lon="6.47654">
        <ele>2615.2</ele>
        <time>2021-02-28T11:17:09Z</time>
      </trkpt>
      <trkpt lat="45.05852" lon="6.47654">
        <ele>2615.2</ele>
        <time>2021-02-28T11:17:10Z</time>
      </trkpt>
      <trkpt lat="45.0585" lon="6.47656">
        <ele>2615.4</ele>
        <time>2021-02-28T11:17:11Z</time>
      </trkpt>
      <trkpt lat="45.0585" lon="6.47656">
        <ele>2616</ele>
        <time>2021-02-28T11:17:12Z</time>
      </trkpt>
      <trkpt lat="45.0585" lon="6.47659">
        <ele>2615.6</ele>
        <time>2021-02-28T11:17:13Z</time>
      </trkpt>
      <trkpt lat="45.0585" lon="6.47659">
        <ele>2615.4</ele>
        <time>2021-02-28T11:17:14Z</time>
      </trkpt>
      <trkpt lat="45.0585" lon="6.47659">
        <ele>2616</ele>
        <time>2021-02-28T11:17:15Z</time>
      </trkpt>
      <trkpt lat="45.05849" lon="6.47662">
        <ele>2616</ele>
        <time>2021-02-28T11:17:16Z</time>
      </trkpt>
      <trkpt lat="45.05849" lon="6.47662">
        <ele>2616.4</ele>
        <time>2021-02-28T11:17:17Z</time>
      </trkpt>
      <trkpt lat="45.05849" lon="6.47662">
        <ele>2616.4</ele>
        <time>2021-02-28T11:17:18Z</time>
      </trkpt>
      <trkpt lat="45.05848" lon="6.47666">
        <ele>2617</ele>
        <time>2021-02-28T11:17:19Z</time>
      </trkpt>
      <trkpt lat="45.05848" lon="6.47666">
        <ele>2617.4</ele>
        <time>2021-02-28T11:17:20Z</time>
      </trkpt>
      <trkpt lat="45.05847" lon="6.47668">
        <ele>2617.2</ele>
        <time>2021-02-28T11:17:21Z</time>
      </trkpt>
      <trkpt lat="45.05847" lon="6.47668">
        <ele>2617.6</ele>
        <time>2021-02-28T11:17:22Z</time>
      </trkpt>
      <trkpt lat="45.05846" lon="6.47671">
        <ele>2617.6</ele>
        <time>2021-02-28T11:17:23Z</time>
      </trkpt>
      <trkpt lat="45.05846" lon="6.47671">
        <ele>2617.8</ele>
        <time>2021-02-28T11:17:24Z</time>
      </trkpt>
      <trkpt lat="45.05846" lon="6.47671">
        <ele>2618.4</ele>
        <time>2021-02-28T11:17:25Z</time>
      </trkpt>
      <trkpt lat="45.05845" lon="6.47674">
        <ele>2618.6</ele>
        <time>2021-02-28T11:17:26Z</time>
      </trkpt>
      <trkpt lat="45.05845" lon="6.47674">
        <ele>2619</ele>
        <time>2021-02-28T11:17:27Z</time>
      </trkpt>
      <trkpt lat="45.05845" lon="6.47674">
        <ele>2619</ele>
        <time>2021-02-28T11:17:28Z</time>
      </trkpt>
      <trkpt lat="45.05845" lon="6.47677">
        <ele>2619.6</ele>
        <time>2021-02-28T11:17:29Z</time>
      </trkpt>
      <trkpt lat="45.05845" lon="6.47677">
        <ele>2620.2</ele>
        <time>2021-02-28T11:17:30Z</time>
      </trkpt>
      <trkpt lat="45.05845" lon="6.47677">
        <ele>2619</ele>
        <time>2021-02-28T11:17:31Z</time>
      </trkpt>
      <trkpt lat="45.05845" lon="6.47677">
        <ele>2619.6</ele>
        <time>2021-02-28T11:17:32Z</time>
      </trkpt>
      <trkpt lat="45.05845" lon="6.4768">
        <ele>2620</ele>
        <time>2021-02-28T11:17:33Z</time>
      </trkpt>
      <trkpt lat="45.05845" lon="6.4768">
        <ele>2620.4</ele>
        <time>2021-02-28T11:17:34Z</time>
      </trkpt>
      <trkpt lat="45.05845" lon="6.4768">
        <ele>2621.2</ele>
        <time>2021-02-28T11:17:35Z</time>
      </trkpt>
      <trkpt lat="45.05845" lon="6.4768">
        <ele>2622</ele>
        <time>2021-02-28T11:17:36Z</time>
      </trkpt>
      <trkpt lat="45.05844" lon="6.47683">
        <ele>2621.6</ele>
        <time>2021-02-28T11:17:37Z</time>
      </trkpt>
      <trkpt lat="45.05844" lon="6.47683">
        <ele>2621.8</ele>
        <time>2021-02-28T11:17:38Z</time>
      </trkpt>
      <trkpt lat="45.05844" lon="6.47683">
        <ele>2622.2</ele>
        <time>2021-02-28T11:17:39Z</time>
      </trkpt>
      <trkpt lat="45.05844" lon="6.47683">
        <ele>2622.8</ele>
        <time>2021-02-28T11:17:40Z</time>
      </trkpt>
      <trkpt lat="45.05844" lon="6.47683">
        <ele>2623.2</ele>
        <time>2021-02-28T11:17:41Z</time>
      </trkpt>
      <trkpt lat="45.05844" lon="6.47683">
        <ele>2623.4</ele>
        <time>2021-02-28T11:17:42Z</time>
      </trkpt>
      <trkpt lat="45.05844" lon="6.47683">
        <ele>2623.6</ele>
        <time>2021-02-28T11:17:43Z</time>
      </trkpt>
      <trkpt lat="45.05844" lon="6.47683">
        <ele>2624.2</ele>
        <time>2021-02-28T11:17:44Z</time>
      </trkpt>
      <trkpt lat="45.05844" lon="6.47683">
        <ele>2624.4</ele>
        <time>2021-02-28T11:17:45Z</time>
      </trkpt>
      <trkpt lat="45.05844" lon="6.47683">
        <ele>2624.8</ele>
        <time>2021-02-28T11:17:46Z</time>
      </trkpt>
      <trkpt lat="45.05844" lon="6.47683">
        <ele>2624.8</ele>
        <time>2021-02-28T11:17:47Z</time>
      </trkpt>
      <trkpt lat="45.05844" lon="6.47683">
        <ele>2625.2</ele>
        <time>2021-02-28T11:17:48Z</time>
      </trkpt>
      <trkpt lat="45.05844" lon="6.47683">
        <ele>2625.2</ele>
        <time>2021-02-28T11:17:49Z</time>
      </trkpt>
      <trkpt lat="45.05844" lon="6.47686">
        <ele>2624.8</ele>
        <time>2021-02-28T11:17:50Z</time>
      </trkpt>
      <trkpt lat="45.05844" lon="6.47686">
        <ele>2624</ele>
        <time>2021-02-28T11:17:51Z</time>
      </trkpt>
      <trkpt lat="45.05843" lon="6.47689">
        <ele>2624.8</ele>
        <time>2021-02-28T11:17:52Z</time>
      </trkpt>
      <trkpt lat="45.05843" lon="6.47689">
        <ele>2624.2</ele>
        <time>2021-02-28T11:17:53Z</time>
      </trkpt>
      <trkpt lat="45.05843" lon="6.47689">
        <ele>2623.6</ele>
        <time>2021-02-28T11:17:54Z</time>
      </trkpt>
      <trkpt lat="45.05843" lon="6.47692">
        <ele>2623.6</ele>
        <time>2021-02-28T11:17:55Z</time>
      </trkpt>
      <trkpt lat="45.05843" lon="6.47692">
        <ele>2623.2</ele>
        <time>2021-02-28T11:17:56Z</time>
      </trkpt>
      <trkpt lat="45.05843" lon="6.47692">
        <ele>2623.2</ele>
        <time>2021-02-28T11:17:57Z</time>
      </trkpt>
      <trkpt lat="45.05842" lon="6.47695">
        <ele>2624</ele>
        <time>2021-02-28T11:17:58Z</time>
      </trkpt>
      <trkpt lat="45.05842" lon="6.47695">
        <ele>2624</ele>
        <time>2021-02-28T11:17:59Z</time>
      </trkpt>
      <trkpt lat="45.0584" lon="6.47698">
        <ele>2623.8</ele>
        <time>2021-02-28T11:18:00Z</time>
      </trkpt>
      <trkpt lat="45.0584" lon="6.47698">
        <ele>2623.8</ele>
        <time>2021-02-28T11:18:01Z</time>
      </trkpt>
      <trkpt lat="45.05839" lon="6.477">
        <ele>2623.8</ele>
        <time>2021-02-28T11:18:02Z</time>
      </trkpt>
      <trkpt lat="45.05839" lon="6.477">
        <ele>2623.8</ele>
        <time>2021-02-28T11:18:03Z</time>
      </trkpt>
      <trkpt lat="45.05839" lon="6.477">
        <ele>2623.6</ele>
        <time>2021-02-28T11:18:04Z</time>
      </trkpt>
      <trkpt lat="45.05839" lon="6.47705">
        <ele>2624.6</ele>
        <time>2021-02-28T11:18:05Z</time>
      </trkpt>
      <trkpt lat="45.05839" lon="6.47705">
        <ele>2625</ele>
        <time>2021-02-28T11:18:06Z</time>
      </trkpt>
      <trkpt lat="45.05839" lon="6.47705">
        <ele>2624.8</ele>
        <time>2021-02-28T11:18:07Z</time>
      </trkpt>
      <trkpt lat="45.05838" lon="6.47708">
        <ele>2625.4</ele>
        <time>2021-02-28T11:18:08Z</time>
      </trkpt>
      <trkpt lat="45.05838" lon="6.47708">
        <ele>2626</ele>
        <time>2021-02-28T11:18:09Z</time>
      </trkpt>
      <trkpt lat="45.05838" lon="6.47708">
        <ele>2626.2</ele>
        <time>2021-02-28T11:18:10Z</time>
      </trkpt>
      <trkpt lat="45.05838" lon="6.47709">
        <ele>2626.6</ele>
        <time>2021-02-28T11:18:11Z</time>
      </trkpt>
      <trkpt lat="45.05839" lon="6.47711">
        <ele>2626.8</ele>
        <time>2021-02-28T11:18:12Z</time>
      </trkpt>
      <trkpt lat="45.05839" lon="6.47712">
        <ele>2627</ele>
        <time>2021-02-28T11:18:13Z</time>
      </trkpt>
      <trkpt lat="45.05839" lon="6.47714">
        <ele>2627.4</ele>
        <time>2021-02-28T11:18:14Z</time>
      </trkpt>
      <trkpt lat="45.05839" lon="6.47715">
        <ele>2628.2</ele>
        <time>2021-02-28T11:18:15Z</time>
      </trkpt>
      <trkpt lat="45.0584" lon="6.47717">
        <ele>2628.2</ele>
        <time>2021-02-28T11:18:16Z</time>
      </trkpt>
      <trkpt lat="45.0584" lon="6.47718">
        <ele>2628.4</ele>
        <time>2021-02-28T11:18:17Z</time>
      </trkpt>
      <trkpt lat="45.0584" lon="6.4772">
        <ele>2629</ele>
        <time>2021-02-28T11:18:18Z</time>
      </trkpt>
      <trkpt lat="45.05841" lon="6.47721">
        <ele>2629</ele>
        <time>2021-02-28T11:18:19Z</time>
      </trkpt>
      <trkpt lat="45.05841" lon="6.47721">
        <ele>2629.4</ele>
        <time>2021-02-28T11:18:20Z</time>
      </trkpt>
      <trkpt lat="45.05841" lon="6.47721">
        <ele>2629.8</ele>
        <time>2021-02-28T11:18:21Z</time>
      </trkpt>
      <trkpt lat="45.05841" lon="6.47724">
        <ele>2630</ele>
        <time>2021-02-28T11:18:22Z</time>
      </trkpt>
      <trkpt lat="45.05841" lon="6.47724">
        <ele>2630.4</ele>
        <time>2021-02-28T11:18:23Z</time>
      </trkpt>
      <trkpt lat="45.05841" lon="6.47724">
        <ele>2631</ele>
        <time>2021-02-28T11:18:24Z</time>
      </trkpt>
      <trkpt lat="45.05838" lon="6.47724">
        <ele>2630.6</ele>
        <time>2021-02-28T11:18:25Z</time>
      </trkpt>
      <trkpt lat="45.05838" lon="6.47724">
        <ele>2631.2</ele>
        <time>2021-02-28T11:18:26Z</time>
      </trkpt>
      <trkpt lat="45.05838" lon="6.47724">
        <ele>2630.4</ele>
        <time>2021-02-28T11:18:27Z</time>
      </trkpt>
      <trkpt lat="45.05836" lon="6.47724">
        <ele>2631</ele>
        <time>2021-02-28T11:18:28Z</time>
      </trkpt>
      <trkpt lat="45.05836" lon="6.47724">
        <ele>2630.4</ele>
        <time>2021-02-28T11:18:29Z</time>
      </trkpt>
      <trkpt lat="45.05836" lon="6.47724">
        <ele>2631.4</ele>
        <time>2021-02-28T11:18:30Z</time>
      </trkpt>
      <trkpt lat="45.05834" lon="6.47722">
        <ele>2632</ele>
        <time>2021-02-28T11:18:31Z</time>
      </trkpt>
      <trkpt lat="45.05834" lon="6.47722">
        <ele>2631.4</ele>
        <time>2021-02-28T11:18:32Z</time>
      </trkpt>
      <trkpt lat="45.05832" lon="6.47722">
        <ele>2632</ele>
        <time>2021-02-28T11:18:33Z</time>
      </trkpt>
      <trkpt lat="45.05832" lon="6.47722">
        <ele>2632.6</ele>
        <time>2021-02-28T11:18:34Z</time>
      </trkpt>
      <trkpt lat="45.0583" lon="6.4772">
        <ele>2632.8</ele>
        <time>2021-02-28T11:18:35Z</time>
      </trkpt>
      <trkpt lat="45.0583" lon="6.4772">
        <ele>2633.4</ele>
        <time>2021-02-28T11:18:36Z</time>
      </trkpt>
      <trkpt lat="45.05828" lon="6.47719">
        <ele>2633.8</ele>
        <time>2021-02-28T11:18:37Z</time>
      </trkpt>
      <trkpt lat="45.05828" lon="6.47719">
        <ele>2633.8</ele>
        <time>2021-02-28T11:18:38Z</time>
      </trkpt>
      <trkpt lat="45.05828" lon="6.47719">
        <ele>2634.2</ele>
        <time>2021-02-28T11:18:39Z</time>
      </trkpt>
      <trkpt lat="45.05826" lon="6.47718">
        <ele>2634.6</ele>
        <time>2021-02-28T11:18:40Z</time>
      </trkpt>
      <trkpt lat="45.05826" lon="6.47718">
        <ele>2634.8</ele>
        <time>2021-02-28T11:18:41Z</time>
      </trkpt>
      <trkpt lat="45.05824" lon="6.47717">
        <ele>2634.6</ele>
        <time>2021-02-28T11:18:42Z</time>
      </trkpt>
      <trkpt lat="45.05824" lon="6.47717">
        <ele>2634.8</ele>
        <time>2021-02-28T11:18:43Z</time>
      </trkpt>
      <trkpt lat="45.05824" lon="6.47717">
        <ele>2635.4</ele>
        <time>2021-02-28T11:18:44Z</time>
      </trkpt>
      <trkpt lat="45.05823" lon="6.47714">
        <ele>2635.6</ele>
        <time>2021-02-28T11:18:45Z</time>
      </trkpt>
      <trkpt lat="45.05823" lon="6.47714">
        <ele>2636</ele>
        <time>2021-02-28T11:18:46Z</time>
      </trkpt>
      <trkpt lat="45.05823" lon="6.47714">
        <ele>2635.8</ele>
        <time>2021-02-28T11:18:47Z</time>
      </trkpt>
      <trkpt lat="45.05823" lon="6.47714">
        <ele>2636.8</ele>
        <time>2021-02-28T11:18:48Z</time>
      </trkpt>
      <trkpt lat="45.05823" lon="6.47714">
        <ele>2637</ele>
        <time>2021-02-28T11:18:49Z</time>
      </trkpt>
      <trkpt lat="45.05823" lon="6.47714">
        <ele>2636.2</ele>
        <time>2021-02-28T11:18:50Z</time>
      </trkpt>
      <trkpt lat="45.05823" lon="6.47714">
        <ele>2636.2</ele>
        <time>2021-02-28T11:18:51Z</time>
      </trkpt>
      <trkpt lat="45.05822" lon="6.47718">
        <ele>2636.8</ele>
        <time>2021-02-28T11:18:52Z</time>
      </trkpt>
      <trkpt lat="45.05822" lon="6.47718">
        <ele>2635.8</ele>
        <time>2021-02-28T11:18:53Z</time>
      </trkpt>
      <trkpt lat="45.05822" lon="6.4772">
        <ele>2636.8</ele>
        <time>2021-02-28T11:18:54Z</time>
      </trkpt>
      <trkpt lat="45.05822" lon="6.4772">
        <ele>2636.6</ele>
        <time>2021-02-28T11:18:55Z</time>
      </trkpt>
      <trkpt lat="45.05823" lon="6.47723">
        <ele>2636.8</ele>
        <time>2021-02-28T11:18:56Z</time>
      </trkpt>
      <trkpt lat="45.05823" lon="6.47723">
        <ele>2637</ele>
        <time>2021-02-28T11:18:57Z</time>
      </trkpt>
      <trkpt lat="45.05823" lon="6.47723">
        <ele>2637.8</ele>
        <time>2021-02-28T11:18:58Z</time>
      </trkpt>
      <trkpt lat="45.05824" lon="6.47726">
        <ele>2638.2</ele>
        <time>2021-02-28T11:18:59Z</time>
      </trkpt>
      <trkpt lat="45.05824" lon="6.47726">
        <ele>2638.2</ele>
        <time>2021-02-28T11:19:00Z</time>
      </trkpt>
      <trkpt lat="45.05824" lon="6.47726">
        <ele>2638.4</ele>
        <time>2021-02-28T11:19:01Z</time>
      </trkpt>
      <trkpt lat="45.05824" lon="6.4773">
        <ele>2638.8</ele>
        <time>2021-02-28T11:19:02Z</time>
      </trkpt>
      <trkpt lat="45.05824" lon="6.4773">
        <ele>2639</ele>
        <time>2021-02-28T11:19:03Z</time>
      </trkpt>
      <trkpt lat="45.05823" lon="6.47733">
        <ele>2639.2</ele>
        <time>2021-02-28T11:19:04Z</time>
      </trkpt>
      <trkpt lat="45.05823" lon="6.47733">
        <ele>2639.8</ele>
        <time>2021-02-28T11:19:05Z</time>
      </trkpt>
      <trkpt lat="45.05824" lon="6.47735">
        <ele>2639.8</ele>
        <time>2021-02-28T11:19:06Z</time>
      </trkpt>
      <trkpt lat="45.05824" lon="6.47735">
        <ele>2639</ele>
        <time>2021-02-28T11:19:07Z</time>
      </trkpt>
      <trkpt lat="45.05823" lon="6.47738">
        <ele>2639.8</ele>
        <time>2021-02-28T11:19:08Z</time>
      </trkpt>
      <trkpt lat="45.05823" lon="6.47738">
        <ele>2640.4</ele>
        <time>2021-02-28T11:19:09Z</time>
      </trkpt>
      <trkpt lat="45.05823" lon="6.47738">
        <ele>2640.8</ele>
        <time>2021-02-28T11:19:10Z</time>
      </trkpt>
      <trkpt lat="45.05823" lon="6.47738">
        <ele>2641.2</ele>
        <time>2021-02-28T11:19:11Z</time>
      </trkpt>
      <trkpt lat="45.05823" lon="6.47738">
        <ele>2641</ele>
        <time>2021-02-28T11:19:12Z</time>
      </trkpt>
      <trkpt lat="45.05822" lon="6.47736">
        <ele>2641.4</ele>
        <time>2021-02-28T11:19:13Z</time>
      </trkpt>
      <trkpt lat="45.05822" lon="6.47736">
        <ele>2641.8</ele>
        <time>2021-02-28T11:19:14Z</time>
      </trkpt>
      <trkpt lat="45.0582" lon="6.47735">
        <ele>2642</ele>
        <time>2021-02-28T11:19:15Z</time>
      </trkpt>
      <trkpt lat="45.0582" lon="6.47735">
        <ele>2642</ele>
        <time>2021-02-28T11:19:16Z</time>
      </trkpt>
      <trkpt lat="45.05818" lon="6.47733">
        <ele>2642.6</ele>
        <time>2021-02-28T11:19:17Z</time>
      </trkpt>
      <trkpt lat="45.05818" lon="6.47733">
        <ele>2641.8</ele>
        <time>2021-02-28T11:19:18Z</time>
      </trkpt>
      <trkpt lat="45.05816" lon="6.47732">
        <ele>2642.2</ele>
        <time>2021-02-28T11:19:19Z</time>
      </trkpt>
      <trkpt lat="45.05816" lon="6.47732">
        <ele>2642.8</ele>
        <time>2021-02-28T11:19:20Z</time>
      </trkpt>
      <trkpt lat="45.05815" lon="6.47731">
        <ele>2643.2</ele>
        <time>2021-02-28T11:19:21Z</time>
      </trkpt>
      <trkpt lat="45.05815" lon="6.47731">
        <ele>2643.6</ele>
        <time>2021-02-28T11:19:22Z</time>
      </trkpt>
      <trkpt lat="45.05813" lon="6.47729">
        <ele>2644</ele>
        <time>2021-02-28T11:19:23Z</time>
      </trkpt>
      <trkpt lat="45.05813" lon="6.47729">
        <ele>2644.2</ele>
        <time>2021-02-28T11:19:24Z</time>
      </trkpt>
      <trkpt lat="45.05813" lon="6.47729">
        <ele>2644.8</ele>
        <time>2021-02-28T11:19:25Z</time>
      </trkpt>
      <trkpt lat="45.05812" lon="6.47726">
        <ele>2644.6</ele>
        <time>2021-02-28T11:19:26Z</time>
      </trkpt>
      <trkpt lat="45.05812" lon="6.47726">
        <ele>2645.2</ele>
        <time>2021-02-28T11:19:27Z</time>
      </trkpt>
      <trkpt lat="45.05812" lon="6.47726">
        <ele>2645.4</ele>
        <time>2021-02-28T11:19:28Z</time>
      </trkpt>
      <trkpt lat="45.0581" lon="6.47723">
        <ele>2645.4</ele>
        <time>2021-02-28T11:19:29Z</time>
      </trkpt>
      <trkpt lat="45.0581" lon="6.47723">
        <ele>2645.8</ele>
        <time>2021-02-28T11:19:30Z</time>
      </trkpt>
      <trkpt lat="45.0581" lon="6.47723">
        <ele>2646.6</ele>
        <time>2021-02-28T11:19:31Z</time>
      </trkpt>
      <trkpt lat="45.0581" lon="6.47723">
        <ele>2647.2</ele>
        <time>2021-02-28T11:19:32Z</time>
      </trkpt>
      <trkpt lat="45.0581" lon="6.47723">
        <ele>2646.6</ele>
        <time>2021-02-28T11:19:33Z</time>
      </trkpt>
      <trkpt lat="45.0581" lon="6.47723">
        <ele>2646</ele>
        <time>2021-02-28T11:19:34Z</time>
      </trkpt>
      <trkpt lat="45.0581" lon="6.47726">
        <ele>2646.6</ele>
        <time>2021-02-28T11:19:35Z</time>
      </trkpt>
      <trkpt lat="45.0581" lon="6.47726">
        <ele>2646.6</ele>
        <time>2021-02-28T11:19:36Z</time>
      </trkpt>
      <trkpt lat="45.0581" lon="6.4773">
        <ele>2646.4</ele>
        <time>2021-02-28T11:19:37Z</time>
      </trkpt>
      <trkpt lat="45.0581" lon="6.4773">
        <ele>2646</ele>
        <time>2021-02-28T11:19:38Z</time>
      </trkpt>
      <trkpt lat="45.0581" lon="6.4773">
        <ele>2646.2</ele>
        <time>2021-02-28T11:19:39Z</time>
      </trkpt>
      <trkpt lat="45.0581" lon="6.47734">
        <ele>2646.8</ele>
        <time>2021-02-28T11:19:40Z</time>
      </trkpt>
      <trkpt lat="45.0581" lon="6.47734">
        <ele>2647</ele>
        <time>2021-02-28T11:19:41Z</time>
      </trkpt>
      <trkpt lat="45.0581" lon="6.47736">
        <ele>2647.4</ele>
        <time>2021-02-28T11:19:42Z</time>
      </trkpt>
      <trkpt lat="45.0581" lon="6.47736">
        <ele>2648</ele>
        <time>2021-02-28T11:19:43Z</time>
      </trkpt>
      <trkpt lat="45.05811" lon="6.47739">
        <ele>2648.2</ele>
        <time>2021-02-28T11:19:44Z</time>
      </trkpt>
      <trkpt lat="45.05811" lon="6.47739">
        <ele>2648.4</ele>
        <time>2021-02-28T11:19:45Z</time>
      </trkpt>
      <trkpt lat="45.05811" lon="6.47742">
        <ele>2648.4</ele>
        <time>2021-02-28T11:19:46Z</time>
      </trkpt>
      <trkpt lat="45.05811" lon="6.47742">
        <ele>2648.6</ele>
        <time>2021-02-28T11:19:47Z</time>
      </trkpt>
      <trkpt lat="45.05811" lon="6.47745">
        <ele>2648.4</ele>
        <time>2021-02-28T11:19:48Z</time>
      </trkpt>
      <trkpt lat="45.05811" lon="6.47745">
        <ele>2648.8</ele>
        <time>2021-02-28T11:19:49Z</time>
      </trkpt>
      <trkpt lat="45.05811" lon="6.47748">
        <ele>2649</ele>
        <time>2021-02-28T11:19:50Z</time>
      </trkpt>
      <trkpt lat="45.05811" lon="6.47748">
        <ele>2648.6</ele>
        <time>2021-02-28T11:19:51Z</time>
      </trkpt>
      <trkpt lat="45.05811" lon="6.47748">
        <ele>2648.8</ele>
        <time>2021-02-28T11:19:52Z</time>
      </trkpt>
      <trkpt lat="45.05811" lon="6.47752">
        <ele>2649.6</ele>
        <time>2021-02-28T11:19:53Z</time>
      </trkpt>
      <trkpt lat="45.05811" lon="6.47752">
        <ele>2649.6</ele>
        <time>2021-02-28T11:19:54Z</time>
      </trkpt>
      <trkpt lat="45.05812" lon="6.47755">
        <ele>2649.8</ele>
        <time>2021-02-28T11:19:55Z</time>
      </trkpt>
      <trkpt lat="45.05812" lon="6.47755">
        <ele>2650.2</ele>
        <time>2021-02-28T11:19:56Z</time>
      </trkpt>
      <trkpt lat="45.05812" lon="6.47755">
        <ele>2651</ele>
        <time>2021-02-28T11:19:57Z</time>
      </trkpt>
      <trkpt lat="45.05813" lon="6.47758">
        <ele>2650.2</ele>
        <time>2021-02-28T11:19:58Z</time>
      </trkpt>
      <trkpt lat="45.05813" lon="6.47758">
        <ele>2650.4</ele>
        <time>2021-02-28T11:19:59Z</time>
      </trkpt>
      <trkpt lat="45.05813" lon="6.47761">
        <ele>2650.6</ele>
        <time>2021-02-28T11:20:00Z</time>
      </trkpt>
      <trkpt lat="45.05813" lon="6.47761">
        <ele>2650.8</ele>
        <time>2021-02-28T11:20:01Z</time>
      </trkpt>
      <trkpt lat="45.05813" lon="6.47761">
        <ele>2650.8</ele>
        <time>2021-02-28T11:20:02Z</time>
      </trkpt>
      <trkpt lat="45.05815" lon="6.47763">
        <ele>2651.2</ele>
        <time>2021-02-28T11:20:03Z</time>
      </trkpt>
      <trkpt lat="45.05815" lon="6.47763">
        <ele>2651.8</ele>
        <time>2021-02-28T11:20:04Z</time>
      </trkpt>
      <trkpt lat="45.05815" lon="6.47763">
        <ele>2652</ele>
        <time>2021-02-28T11:20:05Z</time>
      </trkpt>
      <trkpt lat="45.05816" lon="6.47767">
        <ele>2652.4</ele>
        <time>2021-02-28T11:20:06Z</time>
      </trkpt>
      <trkpt lat="45.05816" lon="6.47767">
        <ele>2652.4</ele>
        <time>2021-02-28T11:20:07Z</time>
      </trkpt>
      <trkpt lat="45.05817" lon="6.47769">
        <ele>2652.6</ele>
        <time>2021-02-28T11:20:08Z</time>
      </trkpt>
      <trkpt lat="45.05817" lon="6.47769">
        <ele>2653.6</ele>
        <time>2021-02-28T11:20:09Z</time>
      </trkpt>
      <trkpt lat="45.05818" lon="6.47772">
        <ele>2653.8</ele>
        <time>2021-02-28T11:20:10Z</time>
      </trkpt>
      <trkpt lat="45.05818" lon="6.47772">
        <ele>2654.2</ele>
        <time>2021-02-28T11:20:11Z</time>
      </trkpt>
      <trkpt lat="45.05817" lon="6.47775">
        <ele>2655.2</ele>
        <time>2021-02-28T11:20:12Z</time>
      </trkpt>
      <trkpt lat="45.05817" lon="6.47775">
        <ele>2655</ele>
        <time>2021-02-28T11:20:13Z</time>
      </trkpt>
      <trkpt lat="45.05817" lon="6.47775">
        <ele>2654.6</ele>
        <time>2021-02-28T11:20:14Z</time>
      </trkpt>
      <trkpt lat="45.05817" lon="6.47778">
        <ele>2655.4</ele>
        <time>2021-02-28T11:20:15Z</time>
      </trkpt>
      <trkpt lat="45.05817" lon="6.47778">
        <ele>2655.6</ele>
        <time>2021-02-28T11:20:16Z</time>
      </trkpt>
      <trkpt lat="45.05817" lon="6.47778">
        <ele>2656</ele>
        <time>2021-02-28T11:20:17Z</time>
      </trkpt>
      <trkpt lat="45.05816" lon="6.4778">
        <ele>2656.6</ele>
        <time>2021-02-28T11:20:18Z</time>
      </trkpt>
      <trkpt lat="45.05816" lon="6.4778">
        <ele>2657</ele>
        <time>2021-02-28T11:20:19Z</time>
      </trkpt>
      <trkpt lat="45.05816" lon="6.4778">
        <ele>2657.8</ele>
        <time>2021-02-28T11:20:20Z</time>
      </trkpt>
      <trkpt lat="45.05815" lon="6.47782">
        <ele>2657.2</ele>
        <time>2021-02-28T11:20:21Z</time>
      </trkpt>
      <trkpt lat="45.05815" lon="6.47782">
        <ele>2657.6</ele>
        <time>2021-02-28T11:20:22Z</time>
      </trkpt>
      <trkpt lat="45.05815" lon="6.47782">
        <ele>2658.2</ele>
        <time>2021-02-28T11:20:23Z</time>
      </trkpt>
      <trkpt lat="45.05812" lon="6.47782">
        <ele>2658</ele>
        <time>2021-02-28T11:20:24Z</time>
      </trkpt>
      <trkpt lat="45.05812" lon="6.47782">
        <ele>2658.2</ele>
        <time>2021-02-28T11:20:25Z</time>
      </trkpt>
      <trkpt lat="45.0581" lon="6.47782">
        <ele>2658.6</ele>
        <time>2021-02-28T11:20:26Z</time>
      </trkpt>
      <trkpt lat="45.0581" lon="6.47782">
        <ele>2658.6</ele>
        <time>2021-02-28T11:20:27Z</time>
      </trkpt>
      <trkpt lat="45.05808" lon="6.47782">
        <ele>2659.2</ele>
        <time>2021-02-28T11:20:28Z</time>
      </trkpt>
      <trkpt lat="45.05808" lon="6.47782">
        <ele>2659.4</ele>
        <time>2021-02-28T11:20:29Z</time>
      </trkpt>
      <trkpt lat="45.05806" lon="6.47782">
        <ele>2659.6</ele>
        <time>2021-02-28T11:20:30Z</time>
      </trkpt>
      <trkpt lat="45.05806" lon="6.47782">
        <ele>2660.2</ele>
        <time>2021-02-28T11:20:31Z</time>
      </trkpt>
      <trkpt lat="45.05806" lon="6.47782">
        <ele>2659.6</ele>
        <time>2021-02-28T11:20:32Z</time>
      </trkpt>
      <trkpt lat="45.05804" lon="6.47783">
        <ele>2659.8</ele>
        <time>2021-02-28T11:20:33Z</time>
      </trkpt>
      <trkpt lat="45.05804" lon="6.47783">
        <ele>2660.6</ele>
        <time>2021-02-28T11:20:34Z</time>
      </trkpt>
      <trkpt lat="45.05803" lon="6.47785">
        <ele>2660.4</ele>
        <time>2021-02-28T11:20:35Z</time>
      </trkpt>
      <trkpt lat="45.05803" lon="6.47785">
        <ele>2660.8</ele>
        <time>2021-02-28T11:20:36Z</time>
      </trkpt>
      <trkpt lat="45.05803" lon="6.47785">
        <ele>2661</ele>
        <time>2021-02-28T11:20:37Z</time>
      </trkpt>
      <trkpt lat="45.05803" lon="6.47789">
        <ele>2661</ele>
        <time>2021-02-28T11:20:38Z</time>
      </trkpt>
      <trkpt lat="45.05803" lon="6.47789">
        <ele>2661.2</ele>
        <time>2021-02-28T11:20:39Z</time>
      </trkpt>
      <trkpt lat="45.05803" lon="6.47789">
        <ele>2661.6</ele>
        <time>2021-02-28T11:20:40Z</time>
      </trkpt>
      <trkpt lat="45.05804" lon="6.47792">
        <ele>2661.2</ele>
        <time>2021-02-28T11:20:41Z</time>
      </trkpt>
      <trkpt lat="45.05804" lon="6.47792">
        <ele>2662</ele>
        <time>2021-02-28T11:20:42Z</time>
      </trkpt>
      <trkpt lat="45.05804" lon="6.47792">
        <ele>2662.2</ele>
        <time>2021-02-28T11:20:43Z</time>
      </trkpt>
      <trkpt lat="45.05802" lon="6.47794">
        <ele>2661.6</ele>
        <time>2021-02-28T11:20:44Z</time>
      </trkpt>
      <trkpt lat="45.05802" lon="6.47794">
        <ele>2662</ele>
        <time>2021-02-28T11:20:45Z</time>
      </trkpt>
      <trkpt lat="45.05802" lon="6.47794">
        <ele>2662.4</ele>
        <time>2021-02-28T11:20:46Z</time>
      </trkpt>
      <trkpt lat="45.058" lon="6.47795">
        <ele>2663.4</ele>
        <time>2021-02-28T11:20:47Z</time>
      </trkpt>
      <trkpt lat="45.058" lon="6.47795">
        <ele>2663.8</ele>
        <time>2021-02-28T11:20:48Z</time>
      </trkpt>
      <trkpt lat="45.058" lon="6.47795">
        <ele>2664.2</ele>
        <time>2021-02-28T11:20:49Z</time>
      </trkpt>
      <trkpt lat="45.05799" lon="6.47793">
        <ele>2664.2</ele>
        <time>2021-02-28T11:20:50Z</time>
      </trkpt>
      <trkpt lat="45.05799" lon="6.47793">
        <ele>2664.6</ele>
        <time>2021-02-28T11:20:51Z</time>
      </trkpt>
      <trkpt lat="45.05797" lon="6.47791">
        <ele>2665.2</ele>
        <time>2021-02-28T11:20:52Z</time>
      </trkpt>
      <trkpt lat="45.05797" lon="6.47791">
        <ele>2664.8</ele>
        <time>2021-02-28T11:20:53Z</time>
      </trkpt>
      <trkpt lat="45.05796" lon="6.4779">
        <ele>2665.6</ele>
        <time>2021-02-28T11:20:54Z</time>
      </trkpt>
      <trkpt lat="45.05796" lon="6.4779">
        <ele>2666.2</ele>
        <time>2021-02-28T11:20:55Z</time>
      </trkpt>
      <trkpt lat="45.05794" lon="6.47789">
        <ele>2666.2</ele>
        <time>2021-02-28T11:20:56Z</time>
      </trkpt>
      <trkpt lat="45.05794" lon="6.47789">
        <ele>2666.2</ele>
        <time>2021-02-28T11:20:57Z</time>
      </trkpt>
      <trkpt lat="45.05794" lon="6.47789">
        <ele>2667.2</ele>
        <time>2021-02-28T11:20:58Z</time>
      </trkpt>
      <trkpt lat="45.05792" lon="6.47788">
        <ele>2667</ele>
        <time>2021-02-28T11:20:59Z</time>
      </trkpt>
      <trkpt lat="45.05792" lon="6.47788">
        <ele>2667.6</ele>
        <time>2021-02-28T11:21:00Z</time>
      </trkpt>
      <trkpt lat="45.0579" lon="6.47786">
        <ele>2668</ele>
        <time>2021-02-28T11:21:01Z</time>
      </trkpt>
      <trkpt lat="45.0579" lon="6.47786">
        <ele>2668</ele>
        <time>2021-02-28T11:21:02Z</time>
      </trkpt>
      <trkpt lat="45.05788" lon="6.47785">
        <ele>2668.2</ele>
        <time>2021-02-28T11:21:03Z</time>
      </trkpt>
      <trkpt lat="45.05788" lon="6.47785">
        <ele>2668.4</ele>
        <time>2021-02-28T11:21:04Z</time>
      </trkpt>
      <trkpt lat="45.05788" lon="6.47785">
        <ele>2669.2</ele>
        <time>2021-02-28T11:21:05Z</time>
      </trkpt>
      <trkpt lat="45.05786" lon="6.47783">
        <ele>2669</ele>
        <time>2021-02-28T11:21:06Z</time>
      </trkpt>
      <trkpt lat="45.05786" lon="6.47783">
        <ele>2669</ele>
        <time>2021-02-28T11:21:07Z</time>
      </trkpt>
      <trkpt lat="45.05786" lon="6.47783">
        <ele>2668</ele>
        <time>2021-02-28T11:21:08Z</time>
      </trkpt>
      <trkpt lat="45.05786" lon="6.47783">
        <ele>2667.8</ele>
        <time>2021-02-28T11:21:09Z</time>
      </trkpt>
      <trkpt lat="45.05786" lon="6.47783">
        <ele>2668.8</ele>
        <time>2021-02-28T11:21:10Z</time>
      </trkpt>
      <trkpt lat="45.05786" lon="6.47783">
        <ele>2669.4</ele>
        <time>2021-02-28T11:21:11Z</time>
      </trkpt>
      <trkpt lat="45.05785" lon="6.47785">
        <ele>2669.4</ele>
        <time>2021-02-28T11:21:12Z</time>
      </trkpt>
      <trkpt lat="45.05785" lon="6.47785">
        <ele>2669.8</ele>
        <time>2021-02-28T11:21:13Z</time>
      </trkpt>
      <trkpt lat="45.05784" lon="6.47788">
        <ele>2669.8</ele>
        <time>2021-02-28T11:21:14Z</time>
      </trkpt>
      <trkpt lat="45.05784" lon="6.47788">
        <ele>2669.8</ele>
        <time>2021-02-28T11:21:15Z</time>
      </trkpt>
      <trkpt lat="45.05784" lon="6.4779">
        <ele>2670</ele>
        <time>2021-02-28T11:21:16Z</time>
      </trkpt>
      <trkpt lat="45.05784" lon="6.4779">
        <ele>2670.2</ele>
        <time>2021-02-28T11:21:17Z</time>
      </trkpt>
      <trkpt lat="45.05783" lon="6.47794">
        <ele>2670.2</ele>
        <time>2021-02-28T11:21:18Z</time>
      </trkpt>
      <trkpt lat="45.05783" lon="6.47794">
        <ele>2670.2</ele>
        <time>2021-02-28T11:21:19Z</time>
      </trkpt>
      <trkpt lat="45.05782" lon="6.47797">
        <ele>2671</ele>
        <time>2021-02-28T11:21:20Z</time>
      </trkpt>
      <trkpt lat="45.05782" lon="6.47797">
        <ele>2671</ele>
        <time>2021-02-28T11:21:21Z</time>
      </trkpt>
      <trkpt lat="45.05782" lon="6.47799">
        <ele>2671.2</ele>
        <time>2021-02-28T11:21:22Z</time>
      </trkpt>
      <trkpt lat="45.05782" lon="6.47799">
        <ele>2671.6</ele>
        <time>2021-02-28T11:21:23Z</time>
      </trkpt>
      <trkpt lat="45.05782" lon="6.47799">
        <ele>2672</ele>
        <time>2021-02-28T11:21:24Z</time>
      </trkpt>
      <trkpt lat="45.05781" lon="6.47803">
        <ele>2672.8</ele>
        <time>2021-02-28T11:21:25Z</time>
      </trkpt>
      <trkpt lat="45.05781" lon="6.47803">
        <ele>2672.8</ele>
        <time>2021-02-28T11:21:26Z</time>
      </trkpt>
      <trkpt lat="45.05781" lon="6.47803">
        <ele>2672.8</ele>
        <time>2021-02-28T11:21:27Z</time>
      </trkpt>
      <trkpt lat="45.0578" lon="6.47807">
        <ele>2672.6</ele>
        <time>2021-02-28T11:21:28Z</time>
      </trkpt>
      <trkpt lat="45.0578" lon="6.47807">
        <ele>2672.6</ele>
        <time>2021-02-28T11:21:29Z</time>
      </trkpt>
      <trkpt lat="45.0578" lon="6.47807">
        <ele>2673</ele>
        <time>2021-02-28T11:21:30Z</time>
      </trkpt>
      <trkpt lat="45.0578" lon="6.47807">
        <ele>2672.8</ele>
        <time>2021-02-28T11:21:31Z</time>
      </trkpt>
      <trkpt lat="45.05781" lon="6.4781">
        <ele>2673.2</ele>
        <time>2021-02-28T11:21:32Z</time>
      </trkpt>
      <trkpt lat="45.05781" lon="6.4781">
        <ele>2672.6</ele>
        <time>2021-02-28T11:21:33Z</time>
      </trkpt>
      <trkpt lat="45.0578" lon="6.47813">
        <ele>2673.2</ele>
        <time>2021-02-28T11:21:34Z</time>
      </trkpt>
      <trkpt lat="45.0578" lon="6.47813">
        <ele>2673.4</ele>
        <time>2021-02-28T11:21:35Z</time>
      </trkpt>
      <trkpt lat="45.0578" lon="6.47813">
        <ele>2673.4</ele>
        <time>2021-02-28T11:21:36Z</time>
      </trkpt>
      <trkpt lat="45.05779" lon="6.47816">
        <ele>2674</ele>
        <time>2021-02-28T11:21:37Z</time>
      </trkpt>
      <trkpt lat="45.05779" lon="6.47816">
        <ele>2674</ele>
        <time>2021-02-28T11:21:38Z</time>
      </trkpt>
      <trkpt lat="45.05778" lon="6.47818">
        <ele>2674.2</ele>
        <time>2021-02-28T11:21:39Z</time>
      </trkpt>
      <trkpt lat="45.05778" lon="6.47818">
        <ele>2674.6</ele>
        <time>2021-02-28T11:21:40Z</time>
      </trkpt>
      <trkpt lat="45.05777" lon="6.47821">
        <ele>2674.8</ele>
        <time>2021-02-28T11:21:41Z</time>
      </trkpt>
      <trkpt lat="45.05777" lon="6.47821">
        <ele>2674.6</ele>
        <time>2021-02-28T11:21:42Z</time>
      </trkpt>
      <trkpt lat="45.05776" lon="6.47823">
        <ele>2675.2</ele>
        <time>2021-02-28T11:21:43Z</time>
      </trkpt>
      <trkpt lat="45.05776" lon="6.47823">
        <ele>2675</ele>
        <time>2021-02-28T11:21:44Z</time>
      </trkpt>
      <trkpt lat="45.05776" lon="6.47823">
        <ele>2675.4</ele>
        <time>2021-02-28T11:21:45Z</time>
      </trkpt>
      <trkpt lat="45.05774" lon="6.47824">
        <ele>2676</ele>
        <time>2021-02-28T11:21:46Z</time>
      </trkpt>
      <trkpt lat="45.05774" lon="6.47824">
        <ele>2676.2</ele>
        <time>2021-02-28T11:21:47Z</time>
      </trkpt>
      <trkpt lat="45.05774" lon="6.47824">
        <ele>2676.6</ele>
        <time>2021-02-28T11:21:48Z</time>
      </trkpt>
      <trkpt lat="45.05772" lon="6.47825">
        <ele>2677</ele>
        <time>2021-02-28T11:21:49Z</time>
      </trkpt>
      <trkpt lat="45.05772" lon="6.47825">
        <ele>2677.2</ele>
        <time>2021-02-28T11:21:50Z</time>
      </trkpt>
      <trkpt lat="45.05772" lon="6.47825">
        <ele>2678.2</ele>
        <time>2021-02-28T11:21:51Z</time>
      </trkpt>
      <trkpt lat="45.05772" lon="6.47825">
        <ele>2677.8</ele>
        <time>2021-02-28T11:21:52Z</time>
      </trkpt>
      <trkpt lat="45.0577" lon="6.47826">
        <ele>2679</ele>
        <time>2021-02-28T11:21:53Z</time>
      </trkpt>
      <trkpt lat="45.0577" lon="6.47826">
        <ele>2679</ele>
        <time>2021-02-28T11:21:54Z</time>
      </trkpt>
      <trkpt lat="45.0577" lon="6.47826">
        <ele>2679</ele>
        <time>2021-02-28T11:21:55Z</time>
      </trkpt>
      <trkpt lat="45.05767" lon="6.47827">
        <ele>2679.8</ele>
        <time>2021-02-28T11:21:56Z</time>
      </trkpt>
      <trkpt lat="45.05767" lon="6.47827">
        <ele>2680</ele>
        <time>2021-02-28T11:21:57Z</time>
      </trkpt>
      <trkpt lat="45.05767" lon="6.47827">
        <ele>2680.2</ele>
        <time>2021-02-28T11:21:58Z</time>
      </trkpt>
      <trkpt lat="45.05765" lon="6.47828">
        <ele>2680.6</ele>
        <time>2021-02-28T11:21:59Z</time>
      </trkpt>
      <trkpt lat="45.05765" lon="6.47828">
        <ele>2680.6</ele>
        <time>2021-02-28T11:22:00Z</time>
      </trkpt>
      <trkpt lat="45.05765" lon="6.47828">
        <ele>2681.4</ele>
        <time>2021-02-28T11:22:01Z</time>
      </trkpt>
      <trkpt lat="45.05762" lon="6.4783">
        <ele>2681.6</ele>
        <time>2021-02-28T11:22:02Z</time>
      </trkpt>
      <trkpt lat="45.05762" lon="6.4783">
        <ele>2681.4</ele>
        <time>2021-02-28T11:22:03Z</time>
      </trkpt>
      <trkpt lat="45.05761" lon="6.47831">
        <ele>2681.2</ele>
        <time>2021-02-28T11:22:04Z</time>
      </trkpt>
      <trkpt lat="45.05761" lon="6.47831">
        <ele>2681.4</ele>
        <time>2021-02-28T11:22:05Z</time>
      </trkpt>
      <trkpt lat="45.05761" lon="6.47831">
        <ele>2681.8</ele>
        <time>2021-02-28T11:22:06Z</time>
      </trkpt>
      <trkpt lat="45.05759" lon="6.47833">
        <ele>2681.8</ele>
        <time>2021-02-28T11:22:07Z</time>
      </trkpt>
      <trkpt lat="45.05759" lon="6.47833">
        <ele>2681.8</ele>
        <time>2021-02-28T11:22:08Z</time>
      </trkpt>
      <trkpt lat="45.05759" lon="6.47833">
        <ele>2682</ele>
        <time>2021-02-28T11:22:09Z</time>
      </trkpt>
      <trkpt lat="45.05756" lon="6.47835">
        <ele>2682.4</ele>
        <time>2021-02-28T11:22:10Z</time>
      </trkpt>
      <trkpt lat="45.05756" lon="6.47835">
        <ele>2682.2</ele>
        <time>2021-02-28T11:22:11Z</time>
      </trkpt>
      <trkpt lat="45.05756" lon="6.47835">
        <ele>2682.4</ele>
        <time>2021-02-28T11:22:12Z</time>
      </trkpt>
      <trkpt lat="45.05754" lon="6.47838">
        <ele>2682.6</ele>
        <time>2021-02-28T11:22:13Z</time>
      </trkpt>
      <trkpt lat="45.05754" lon="6.47838">
        <ele>2682.4</ele>
        <time>2021-02-28T11:22:14Z</time>
      </trkpt>
      <trkpt lat="45.05754" lon="6.47838">
        <ele>2682.4</ele>
        <time>2021-02-28T11:22:15Z</time>
      </trkpt>
      <trkpt lat="45.05752" lon="6.4784">
        <ele>2682.6</ele>
        <time>2021-02-28T11:22:16Z</time>
      </trkpt>
      <trkpt lat="45.05752" lon="6.4784">
        <ele>2683</ele>
        <time>2021-02-28T11:22:17Z</time>
      </trkpt>
      <trkpt lat="45.05752" lon="6.4784">
        <ele>2683.4</ele>
        <time>2021-02-28T11:22:18Z</time>
      </trkpt>
      <trkpt lat="45.05751" lon="6.47841">
        <ele>2683.6</ele>
        <time>2021-02-28T11:22:19Z</time>
      </trkpt>
      <trkpt lat="45.05751" lon="6.47841">
        <ele>2683.8</ele>
        <time>2021-02-28T11:22:20Z</time>
      </trkpt>
      <trkpt lat="45.05751" lon="6.47841">
        <ele>2684.2</ele>
        <time>2021-02-28T11:22:21Z</time>
      </trkpt>
      <trkpt lat="45.05751" lon="6.47841">
        <ele>2684.4</ele>
        <time>2021-02-28T11:22:22Z</time>
      </trkpt>
      <trkpt lat="45.05749" lon="6.47843">
        <ele>2684.8</ele>
        <time>2021-02-28T11:22:23Z</time>
      </trkpt>
      <trkpt lat="45.05749" lon="6.47843">
        <ele>2685.4</ele>
        <time>2021-02-28T11:22:24Z</time>
      </trkpt>
      <trkpt lat="45.05749" lon="6.47843">
        <ele>2685.6</ele>
        <time>2021-02-28T11:22:25Z</time>
      </trkpt>
      <trkpt lat="45.05747" lon="6.47845">
        <ele>2686</ele>
        <time>2021-02-28T11:22:26Z</time>
      </trkpt>
      <trkpt lat="45.05747" lon="6.47845">
        <ele>2686.4</ele>
        <time>2021-02-28T11:22:27Z</time>
      </trkpt>
      <trkpt lat="45.05747" lon="6.47845">
        <ele>2687</ele>
        <time>2021-02-28T11:22:28Z</time>
      </trkpt>
      <trkpt lat="45.05746" lon="6.47846">
        <ele>2686.8</ele>
        <time>2021-02-28T11:22:29Z</time>
      </trkpt>
      <trkpt lat="45.05746" lon="6.47846">
        <ele>2686.6</ele>
        <time>2021-02-28T11:22:30Z</time>
      </trkpt>
      <trkpt lat="45.05746" lon="6.47846">
        <ele>2687</ele>
        <time>2021-02-28T11:22:31Z</time>
      </trkpt>
      <trkpt lat="45.05743" lon="6.47847">
        <ele>2687.4</ele>
        <time>2021-02-28T11:22:32Z</time>
      </trkpt>
      <trkpt lat="45.05743" lon="6.47847">
        <ele>2687.2</ele>
        <time>2021-02-28T11:22:33Z</time>
      </trkpt>
      <trkpt lat="45.05743" lon="6.47847">
        <ele>2687.2</ele>
        <time>2021-02-28T11:22:34Z</time>
      </trkpt>
      <trkpt lat="45.05741" lon="6.47848">
        <ele>2687.4</ele>
        <time>2021-02-28T11:22:35Z</time>
      </trkpt>
      <trkpt lat="45.05741" lon="6.47848">
        <ele>2687.6</ele>
        <time>2021-02-28T11:22:36Z</time>
      </trkpt>
      <trkpt lat="45.05741" lon="6.47848">
        <ele>2688</ele>
        <time>2021-02-28T11:22:37Z</time>
      </trkpt>
      <trkpt lat="45.05739" lon="6.47849">
        <ele>2688.4</ele>
        <time>2021-02-28T11:22:38Z</time>
      </trkpt>
      <trkpt lat="45.05739" lon="6.47849">
        <ele>2688</ele>
        <time>2021-02-28T11:22:39Z</time>
      </trkpt>
      <trkpt lat="45.05739" lon="6.47849">
        <ele>2688.2</ele>
        <time>2021-02-28T11:22:40Z</time>
      </trkpt>
      <trkpt lat="45.05737" lon="6.4785">
        <ele>2688.8</ele>
        <time>2021-02-28T11:22:41Z</time>
      </trkpt>
      <trkpt lat="45.05737" lon="6.4785">
        <ele>2688.8</ele>
        <time>2021-02-28T11:22:42Z</time>
      </trkpt>
      <trkpt lat="45.05737" lon="6.4785">
        <ele>2689.4</ele>
        <time>2021-02-28T11:22:43Z</time>
      </trkpt>
      <trkpt lat="45.05737" lon="6.4785">
        <ele>2689.8</ele>
        <time>2021-02-28T11:22:44Z</time>
      </trkpt>
      <trkpt lat="45.05735" lon="6.4785">
        <ele>2690</ele>
        <time>2021-02-28T11:22:45Z</time>
      </trkpt>
      <trkpt lat="45.05735" lon="6.4785">
        <ele>2690</ele>
        <time>2021-02-28T11:22:46Z</time>
      </trkpt>
      <trkpt lat="45.05735" lon="6.4785">
        <ele>2690.4</ele>
        <time>2021-02-28T11:22:47Z</time>
      </trkpt>
      <trkpt lat="45.05733" lon="6.47853">
        <ele>2690.8</ele>
        <time>2021-02-28T11:22:48Z</time>
      </trkpt>
      <trkpt lat="45.05733" lon="6.47853">
        <ele>2690.8</ele>
        <time>2021-02-28T11:22:49Z</time>
      </trkpt>
      <trkpt lat="45.05733" lon="6.47853">
        <ele>2691.8</ele>
        <time>2021-02-28T11:22:50Z</time>
      </trkpt>
      <trkpt lat="45.05731" lon="6.47855">
        <ele>2691.4</ele>
        <time>2021-02-28T11:22:51Z</time>
      </trkpt>
      <trkpt lat="45.05731" lon="6.47855">
        <ele>2691.6</ele>
        <time>2021-02-28T11:22:52Z</time>
      </trkpt>
      <trkpt lat="45.05731" lon="6.47855">
        <ele>2691.8</ele>
        <time>2021-02-28T11:22:53Z</time>
      </trkpt>
      <trkpt lat="45.0573" lon="6.47859">
        <ele>2691.8</ele>
        <time>2021-02-28T11:22:54Z</time>
      </trkpt>
      <trkpt lat="45.0573" lon="6.47859">
        <ele>2691.8</ele>
        <time>2021-02-28T11:22:55Z</time>
      </trkpt>
      <trkpt lat="45.0573" lon="6.47859">
        <ele>2692.4</ele>
        <time>2021-02-28T11:22:56Z</time>
      </trkpt>
      <trkpt lat="45.05729" lon="6.47861">
        <ele>2692.4</ele>
        <time>2021-02-28T11:22:57Z</time>
      </trkpt>
      <trkpt lat="45.05729" lon="6.47861">
        <ele>2693</ele>
        <time>2021-02-28T11:22:58Z</time>
      </trkpt>
      <trkpt lat="45.05729" lon="6.47861">
        <ele>2693.4</ele>
        <time>2021-02-28T11:22:59Z</time>
      </trkpt>
      <trkpt lat="45.05727" lon="6.47863">
        <ele>2693.6</ele>
        <time>2021-02-28T11:23:00Z</time>
      </trkpt>
      <trkpt lat="45.05727" lon="6.47863">
        <ele>2693.4</ele>
        <time>2021-02-28T11:23:01Z</time>
      </trkpt>
      <trkpt lat="45.05727" lon="6.47863">
        <ele>2693.6</ele>
        <time>2021-02-28T11:23:02Z</time>
      </trkpt>
      <trkpt lat="45.05725" lon="6.47863">
        <ele>2693.6</ele>
        <time>2021-02-28T11:23:03Z</time>
      </trkpt>
      <trkpt lat="45.05725" lon="6.47863">
        <ele>2694.2</ele>
        <time>2021-02-28T11:23:04Z</time>
      </trkpt>
      <trkpt lat="45.05725" lon="6.47863">
        <ele>2694.6</ele>
        <time>2021-02-28T11:23:05Z</time>
      </trkpt>
      <trkpt lat="45.05725" lon="6.47863">
        <ele>2694.6</ele>
        <time>2021-02-28T11:23:06Z</time>
      </trkpt>
      <trkpt lat="45.05725" lon="6.47863">
        <ele>2694.8</ele>
        <time>2021-02-28T11:23:07Z</time>
      </trkpt>
      <trkpt lat="45.05723" lon="6.47865">
        <ele>2694.8</ele>
        <time>2021-02-28T11:23:08Z</time>
      </trkpt>
      <trkpt lat="45.05723" lon="6.47865">
        <ele>2694.8</ele>
        <time>2021-02-28T11:23:09Z</time>
      </trkpt>
      <trkpt lat="45.05722" lon="6.47868">
        <ele>2694.8</ele>
        <time>2021-02-28T11:23:10Z</time>
      </trkpt>
      <trkpt lat="45.05722" lon="6.47868">
        <ele>2695.8</ele>
        <time>2021-02-28T11:23:11Z</time>
      </trkpt>
      <trkpt lat="45.05722" lon="6.47868">
        <ele>2696</ele>
        <time>2021-02-28T11:23:12Z</time>
      </trkpt>
      <trkpt lat="45.05722" lon="6.47871">
        <ele>2696.6</ele>
        <time>2021-02-28T11:23:13Z</time>
      </trkpt>
      <trkpt lat="45.05722" lon="6.47871">
        <ele>2697</ele>
        <time>2021-02-28T11:23:14Z</time>
      </trkpt>
      <trkpt lat="45.05722" lon="6.47871">
        <ele>2696.6</ele>
        <time>2021-02-28T11:23:15Z</time>
      </trkpt>
      <trkpt lat="45.05722" lon="6.47874">
        <ele>2697.4</ele>
        <time>2021-02-28T11:23:16Z</time>
      </trkpt>
      <trkpt lat="45.05722" lon="6.47874">
        <ele>2697.8</ele>
        <time>2021-02-28T11:23:17Z</time>
      </trkpt>
      <trkpt lat="45.05722" lon="6.47874">
        <ele>2698.2</ele>
        <time>2021-02-28T11:23:18Z</time>
      </trkpt>
      <trkpt lat="45.05723" lon="6.47877">
        <ele>2698.6</ele>
        <time>2021-02-28T11:23:19Z</time>
      </trkpt>
      <trkpt lat="45.05723" lon="6.47877">
        <ele>2698.8</ele>
        <time>2021-02-28T11:23:20Z</time>
      </trkpt>
      <trkpt lat="45.05723" lon="6.47877">
        <ele>2698.8</ele>
        <time>2021-02-28T11:23:21Z</time>
      </trkpt>
      <trkpt lat="45.05725" lon="6.4788">
        <ele>2699.6</ele>
        <time>2021-02-28T11:23:22Z</time>
      </trkpt>
      <trkpt lat="45.05725" lon="6.4788">
        <ele>2699.8</ele>
        <time>2021-02-28T11:23:23Z</time>
      </trkpt>
      <trkpt lat="45.05725" lon="6.4788">
        <ele>2699.6</ele>
        <time>2021-02-28T11:23:24Z</time>
      </trkpt>
      <trkpt lat="45.05726" lon="6.47883">
        <ele>2700.2</ele>
        <time>2021-02-28T11:23:25Z</time>
      </trkpt>
      <trkpt lat="45.05726" lon="6.47883">
        <ele>2700.4</ele>
        <time>2021-02-28T11:23:26Z</time>
      </trkpt>
      <trkpt lat="45.05726" lon="6.47883">
        <ele>2700.6</ele>
        <time>2021-02-28T11:23:27Z</time>
      </trkpt>
      <trkpt lat="45.05725" lon="6.47886">
        <ele>2701.8</ele>
        <time>2021-02-28T11:23:28Z</time>
      </trkpt>
      <trkpt lat="45.05725" lon="6.47886">
        <ele>2701.2</ele>
        <time>2021-02-28T11:23:29Z</time>
      </trkpt>
      <trkpt lat="45.05725" lon="6.47886">
        <ele>2701.2</ele>
        <time>2021-02-28T11:23:30Z</time>
      </trkpt>
      <trkpt lat="45.05725" lon="6.47886">
        <ele>2701.4</ele>
        <time>2021-02-28T11:23:31Z</time>
      </trkpt>
      <trkpt lat="45.05723" lon="6.47889">
        <ele>2701.6</ele>
        <time>2021-02-28T11:23:32Z</time>
      </trkpt>
      <trkpt lat="45.05723" lon="6.47889">
        <ele>2701.2</ele>
        <time>2021-02-28T11:23:33Z</time>
      </trkpt>
      <trkpt lat="45.05723" lon="6.47889">
        <ele>2701.6</ele>
        <time>2021-02-28T11:23:34Z</time>
      </trkpt>
      <trkpt lat="45.05723" lon="6.47889">
        <ele>2702.6</ele>
        <time>2021-02-28T11:23:35Z</time>
      </trkpt>
      <trkpt lat="45.05723" lon="6.47889">
        <ele>2702.2</ele>
        <time>2021-02-28T11:23:36Z</time>
      </trkpt>
      <trkpt lat="45.05721" lon="6.47891">
        <ele>2702.6</ele>
        <time>2021-02-28T11:23:37Z</time>
      </trkpt>
      <trkpt lat="45.05721" lon="6.47891">
        <ele>2703.4</ele>
        <time>2021-02-28T11:23:38Z</time>
      </trkpt>
      <trkpt lat="45.05719" lon="6.47893">
        <ele>2703.6</ele>
        <time>2021-02-28T11:23:39Z</time>
      </trkpt>
      <trkpt lat="45.05719" lon="6.47893">
        <ele>2704</ele>
        <time>2021-02-28T11:23:40Z</time>
      </trkpt>
      <trkpt lat="45.05719" lon="6.47893">
        <ele>2704</ele>
        <time>2021-02-28T11:23:41Z</time>
      </trkpt>
      <trkpt lat="45.05717" lon="6.47895">
        <ele>2704.2</ele>
        <time>2021-02-28T11:23:42Z</time>
      </trkpt>
      <trkpt lat="45.05717" lon="6.47895">
        <ele>2704.6</ele>
        <time>2021-02-28T11:23:43Z</time>
      </trkpt>
      <trkpt lat="45.05715" lon="6.47897">
        <ele>2704.6</ele>
        <time>2021-02-28T11:23:44Z</time>
      </trkpt>
      <trkpt lat="45.05715" lon="6.47897">
        <ele>2704.6</ele>
        <time>2021-02-28T11:23:45Z</time>
      </trkpt>
      <trkpt lat="45.05715" lon="6.47897">
        <ele>2705.2</ele>
        <time>2021-02-28T11:23:46Z</time>
      </trkpt>
      <trkpt lat="45.05713" lon="6.47898">
        <ele>2705.2</ele>
        <time>2021-02-28T11:23:47Z</time>
      </trkpt>
      <trkpt lat="45.05713" lon="6.47898">
        <ele>2705.8</ele>
        <time>2021-02-28T11:23:48Z</time>
      </trkpt>
      <trkpt lat="45.05713" lon="6.47898">
        <ele>2705.6</ele>
        <time>2021-02-28T11:23:49Z</time>
      </trkpt>
      <trkpt lat="45.05713" lon="6.47898">
        <ele>2706.2</ele>
        <time>2021-02-28T11:23:50Z</time>
      </trkpt>
      <trkpt lat="45.05712" lon="6.47901">
        <ele>2706.4</ele>
        <time>2021-02-28T11:23:51Z</time>
      </trkpt>
      <trkpt lat="45.05712" lon="6.47901">
        <ele>2706.2</ele>
        <time>2021-02-28T11:23:52Z</time>
      </trkpt>
      <trkpt lat="45.05711" lon="6.47902">
        <ele>2706.4</ele>
        <time>2021-02-28T11:23:53Z</time>
      </trkpt>
      <trkpt lat="45.05711" lon="6.47902">
        <ele>2707.2</ele>
        <time>2021-02-28T11:23:54Z</time>
      </trkpt>
      <trkpt lat="45.05711" lon="6.47902">
        <ele>2707</ele>
        <time>2021-02-28T11:23:55Z</time>
      </trkpt>
      <trkpt lat="45.0571" lon="6.47905">
        <ele>2707.4</ele>
        <time>2021-02-28T11:23:56Z</time>
      </trkpt>
      <trkpt lat="45.0571" lon="6.47905">
        <ele>2708.4</ele>
        <time>2021-02-28T11:23:57Z</time>
      </trkpt>
      <trkpt lat="45.0571" lon="6.47905">
        <ele>2709</ele>
        <time>2021-02-28T11:23:58Z</time>
      </trkpt>
      <trkpt lat="45.0571" lon="6.47905">
        <ele>2709.6</ele>
        <time>2021-02-28T11:23:59Z</time>
      </trkpt>
      <trkpt lat="45.0571" lon="6.47908">
        <ele>2710</ele>
        <time>2021-02-28T11:24:00Z</time>
      </trkpt>
      <trkpt lat="45.0571" lon="6.47908">
        <ele>2710</ele>
        <time>2021-02-28T11:24:01Z</time>
      </trkpt>
      <trkpt lat="45.0571" lon="6.47908">
        <ele>2710.4</ele>
        <time>2021-02-28T11:24:02Z</time>
      </trkpt>
      <trkpt lat="45.0571" lon="6.47911">
        <ele>2710.4</ele>
        <time>2021-02-28T11:24:03Z</time>
      </trkpt>
      <trkpt lat="45.0571" lon="6.47911">
        <ele>2710.4</ele>
        <time>2021-02-28T11:24:04Z</time>
      </trkpt>
      <trkpt lat="45.0571" lon="6.47911">
        <ele>2711.2</ele>
        <time>2021-02-28T11:24:05Z</time>
      </trkpt>
      <trkpt lat="45.05709" lon="6.47914">
        <ele>2711.6</ele>
        <time>2021-02-28T11:24:06Z</time>
      </trkpt>
      <trkpt lat="45.05709" lon="6.47914">
        <ele>2711.8</ele>
        <time>2021-02-28T11:24:07Z</time>
      </trkpt>
      <trkpt lat="45.05709" lon="6.47914">
        <ele>2712.2</ele>
        <time>2021-02-28T11:24:08Z</time>
      </trkpt>
      <trkpt lat="45.05708" lon="6.47917">
        <ele>2711.4</ele>
        <time>2021-02-28T11:24:09Z</time>
      </trkpt>
      <trkpt lat="45.05708" lon="6.47917">
        <ele>2711.4</ele>
        <time>2021-02-28T11:24:10Z</time>
      </trkpt>
      <trkpt lat="45.05708" lon="6.47917">
        <ele>2712</ele>
        <time>2021-02-28T11:24:11Z</time>
      </trkpt>
      <trkpt lat="45.05706" lon="6.47919">
        <ele>2711.6</ele>
        <time>2021-02-28T11:24:12Z</time>
      </trkpt>
      <trkpt lat="45.05706" lon="6.47919">
        <ele>2711.8</ele>
        <time>2021-02-28T11:24:13Z</time>
      </trkpt>
      <trkpt lat="45.05705" lon="6.47921">
        <ele>2712.2</ele>
        <time>2021-02-28T11:24:14Z</time>
      </trkpt>
      <trkpt lat="45.05705" lon="6.47921">
        <ele>2712.6</ele>
        <time>2021-02-28T11:24:15Z</time>
      </trkpt>
      <trkpt lat="45.05703" lon="6.47923">
        <ele>2712.8</ele>
        <time>2021-02-28T11:24:16Z</time>
      </trkpt>
      <trkpt lat="45.05703" lon="6.47923">
        <ele>2713.2</ele>
        <time>2021-02-28T11:24:17Z</time>
      </trkpt>
      <trkpt lat="45.05701" lon="6.47925">
        <ele>2713.4</ele>
        <time>2021-02-28T11:24:18Z</time>
      </trkpt>
      <trkpt lat="45.05701" lon="6.47925">
        <ele>2713.4</ele>
        <time>2021-02-28T11:24:19Z</time>
      </trkpt>
      <trkpt lat="45.05701" lon="6.47925">
        <ele>2714.4</ele>
        <time>2021-02-28T11:24:20Z</time>
      </trkpt>
      <trkpt lat="45.05699" lon="6.47927">
        <ele>2714.8</ele>
        <time>2021-02-28T11:24:21Z</time>
      </trkpt>
      <trkpt lat="45.05699" lon="6.47927">
        <ele>2714.8</ele>
        <time>2021-02-28T11:24:22Z</time>
      </trkpt>
      <trkpt lat="45.05699" lon="6.47927">
        <ele>2714.8</ele>
        <time>2021-02-28T11:24:23Z</time>
      </trkpt>
      <trkpt lat="45.05697" lon="6.47927">
        <ele>2715.4</ele>
        <time>2021-02-28T11:24:24Z</time>
      </trkpt>
      <trkpt lat="45.05697" lon="6.47927">
        <ele>2715.4</ele>
        <time>2021-02-28T11:24:25Z</time>
      </trkpt>
      <trkpt lat="45.05697" lon="6.47927">
        <ele>2715.8</ele>
        <time>2021-02-28T11:24:26Z</time>
      </trkpt>
      <trkpt lat="45.05695" lon="6.47927">
        <ele>2717</ele>
        <time>2021-02-28T11:24:27Z</time>
      </trkpt>
      <trkpt lat="45.05695" lon="6.47927">
        <ele>2717.2</ele>
        <time>2021-02-28T11:24:28Z</time>
      </trkpt>
      <trkpt lat="45.05695" lon="6.47927">
        <ele>2717.2</ele>
        <time>2021-02-28T11:24:29Z</time>
      </trkpt>
      <trkpt lat="45.05695" lon="6.47927">
        <ele>2717.4</ele>
        <time>2021-02-28T11:24:30Z</time>
      </trkpt>
      <trkpt lat="45.05695" lon="6.47927">
        <ele>2717.4</ele>
        <time>2021-02-28T11:24:31Z</time>
      </trkpt>
      <trkpt lat="45.05692" lon="6.47927">
        <ele>2718.2</ele>
        <time>2021-02-28T11:24:32Z</time>
      </trkpt>
      <trkpt lat="45.05692" lon="6.47927">
        <ele>2718.4</ele>
        <time>2021-02-28T11:24:33Z</time>
      </trkpt>
      <trkpt lat="45.05692" lon="6.47927">
        <ele>2718.6</ele>
        <time>2021-02-28T11:24:34Z</time>
      </trkpt>
      <trkpt lat="45.0569" lon="6.47926">
        <ele>2719</ele>
        <time>2021-02-28T11:24:35Z</time>
      </trkpt>
      <trkpt lat="45.0569" lon="6.47926">
        <ele>2720</ele>
        <time>2021-02-28T11:24:36Z</time>
      </trkpt>
      <trkpt lat="45.05689" lon="6.47924">
        <ele>2720</ele>
        <time>2021-02-28T11:24:37Z</time>
      </trkpt>
      <trkpt lat="45.05689" lon="6.47924">
        <ele>2720.2</ele>
        <time>2021-02-28T11:24:38Z</time>
      </trkpt>
      <trkpt lat="45.05689" lon="6.47924">
        <ele>2721</ele>
        <time>2021-02-28T11:24:39Z</time>
      </trkpt>
      <trkpt lat="45.05686" lon="6.47922">
        <ele>2720.8</ele>
        <time>2021-02-28T11:24:40Z</time>
      </trkpt>
      <trkpt lat="45.05686" lon="6.47922">
        <ele>2721.6</ele>
        <time>2021-02-28T11:24:41Z</time>
      </trkpt>
      <trkpt lat="45.05686" lon="6.47922">
        <ele>2721.8</ele>
        <time>2021-02-28T11:24:42Z</time>
      </trkpt>
      <trkpt lat="45.05685" lon="6.47919">
        <ele>2721.8</ele>
        <time>2021-02-28T11:24:43Z</time>
      </trkpt>
      <trkpt lat="45.05685" lon="6.47919">
        <ele>2722.6</ele>
        <time>2021-02-28T11:24:44Z</time>
      </trkpt>
      <trkpt lat="45.05685" lon="6.47919">
        <ele>2722.6</ele>
        <time>2021-02-28T11:24:45Z</time>
      </trkpt>
      <trkpt lat="45.05683" lon="6.47917">
        <ele>2722.8</ele>
        <time>2021-02-28T11:24:46Z</time>
      </trkpt>
      <trkpt lat="45.05683" lon="6.47917">
        <ele>2723.6</ele>
        <time>2021-02-28T11:24:47Z</time>
      </trkpt>
      <trkpt lat="45.05683" lon="6.47917">
        <ele>2723.6</ele>
        <time>2021-02-28T11:24:48Z</time>
      </trkpt>
      <trkpt lat="45.05681" lon="6.47915">
        <ele>2723.6</ele>
        <time>2021-02-28T11:24:49Z</time>
      </trkpt>
      <trkpt lat="45.05681" lon="6.47915">
        <ele>2724.2</ele>
        <time>2021-02-28T11:24:50Z</time>
      </trkpt>
      <trkpt lat="45.05681" lon="6.47915">
        <ele>2723.8</ele>
        <time>2021-02-28T11:24:51Z</time>
      </trkpt>
      <trkpt lat="45.05679" lon="6.47912">
        <ele>2723.6</ele>
        <time>2021-02-28T11:24:52Z</time>
      </trkpt>
      <trkpt lat="45.05679" lon="6.47912">
        <ele>2723.6</ele>
        <time>2021-02-28T11:24:53Z</time>
      </trkpt>
      <trkpt lat="45.05678" lon="6.47911">
        <ele>2724</ele>
        <time>2021-02-28T11:24:54Z</time>
      </trkpt>
      <trkpt lat="45.05678" lon="6.47911">
        <ele>2724</ele>
        <time>2021-02-28T11:24:55Z</time>
      </trkpt>
      <trkpt lat="45.05678" lon="6.47911">
        <ele>2724.2</ele>
        <time>2021-02-28T11:24:56Z</time>
      </trkpt>
      <trkpt lat="45.05676" lon="6.47908">
        <ele>2724.6</ele>
        <time>2021-02-28T11:24:57Z</time>
      </trkpt>
      <trkpt lat="45.05676" lon="6.47908">
        <ele>2725.2</ele>
        <time>2021-02-28T11:24:58Z</time>
      </trkpt>
      <trkpt lat="45.05676" lon="6.47908">
        <ele>2725.4</ele>
        <time>2021-02-28T11:24:59Z</time>
      </trkpt>
      <trkpt lat="45.05675" lon="6.47906">
        <ele>2726.6</ele>
        <time>2021-02-28T11:25:00Z</time>
      </trkpt>
      <trkpt lat="45.05675" lon="6.47906">
        <ele>2727</ele>
        <time>2021-02-28T11:25:01Z</time>
      </trkpt>
      <trkpt lat="45.05675" lon="6.47906">
        <ele>2727.4</ele>
        <time>2021-02-28T11:25:02Z</time>
      </trkpt>
      <trkpt lat="45.05675" lon="6.47906">
        <ele>2727.4</ele>
        <time>2021-02-28T11:25:03Z</time>
      </trkpt>
      <trkpt lat="45.05673" lon="6.47908">
        <ele>2727.2</ele>
        <time>2021-02-28T11:25:04Z</time>
      </trkpt>
      <trkpt lat="45.05673" lon="6.47908">
        <ele>2727</ele>
        <time>2021-02-28T11:25:05Z</time>
      </trkpt>
      <trkpt lat="45.05673" lon="6.47908">
        <ele>2726.6</ele>
        <time>2021-02-28T11:25:06Z</time>
      </trkpt>
      <trkpt lat="45.05673" lon="6.47908">
        <ele>2726.4</ele>
        <time>2021-02-28T11:25:07Z</time>
      </trkpt>
      <trkpt lat="45.05672" lon="6.47911">
        <ele>2726.6</ele>
        <time>2021-02-28T11:25:08Z</time>
      </trkpt>
      <trkpt lat="45.05672" lon="6.47911">
        <ele>2726.6</ele>
        <time>2021-02-28T11:25:09Z</time>
      </trkpt>
      <trkpt lat="45.05672" lon="6.47911">
        <ele>2726.6</ele>
        <time>2021-02-28T11:25:10Z</time>
      </trkpt>
      <trkpt lat="45.05672" lon="6.47911">
        <ele>2726.8</ele>
        <time>2021-02-28T11:25:11Z</time>
      </trkpt>
      <trkpt lat="45.05671" lon="6.47914">
        <ele>2726.2</ele>
        <time>2021-02-28T11:25:12Z</time>
      </trkpt>
      <trkpt lat="45.05671" lon="6.47914">
        <ele>2726.8</ele>
        <time>2021-02-28T11:25:13Z</time>
      </trkpt>
      <trkpt lat="45.05671" lon="6.47914">
        <ele>2727</ele>
        <time>2021-02-28T11:25:14Z</time>
      </trkpt>
      <trkpt lat="45.0567" lon="6.47917">
        <ele>2728</ele>
        <time>2021-02-28T11:25:15Z</time>
      </trkpt>
      <trkpt lat="45.0567" lon="6.47917">
        <ele>2728.2</ele>
        <time>2021-02-28T11:25:16Z</time>
      </trkpt>
      <trkpt lat="45.0567" lon="6.47917">
        <ele>2728.4</ele>
        <time>2021-02-28T11:25:17Z</time>
      </trkpt>
      <trkpt lat="45.05669" lon="6.47921">
        <ele>2728.6</ele>
        <time>2021-02-28T11:25:18Z</time>
      </trkpt>
      <trkpt lat="45.05669" lon="6.47921">
        <ele>2728.4</ele>
        <time>2021-02-28T11:25:19Z</time>
      </trkpt>
      <trkpt lat="45.05669" lon="6.47921">
        <ele>2728.8</ele>
        <time>2021-02-28T11:25:20Z</time>
      </trkpt>
      <trkpt lat="45.05669" lon="6.47924">
        <ele>2728.8</ele>
        <time>2021-02-28T11:25:21Z</time>
      </trkpt>
      <trkpt lat="45.05669" lon="6.47924">
        <ele>2729.2</ele>
        <time>2021-02-28T11:25:22Z</time>
      </trkpt>
      <trkpt lat="45.05668" lon="6.47927">
        <ele>2729.8</ele>
        <time>2021-02-28T11:25:23Z</time>
      </trkpt>
      <trkpt lat="45.05668" lon="6.47927">
        <ele>2730.4</ele>
        <time>2021-02-28T11:25:24Z</time>
      </trkpt>
      <trkpt lat="45.05668" lon="6.47927">
        <ele>2730.6</ele>
        <time>2021-02-28T11:25:25Z</time>
      </trkpt>
      <trkpt lat="45.05668" lon="6.4793">
        <ele>2730.8</ele>
        <time>2021-02-28T11:25:26Z</time>
      </trkpt>
      <trkpt lat="45.05668" lon="6.4793">
        <ele>2731</ele>
        <time>2021-02-28T11:25:27Z</time>
      </trkpt>
      <trkpt lat="45.05668" lon="6.4793">
        <ele>2731.2</ele>
        <time>2021-02-28T11:25:28Z</time>
      </trkpt>
      <trkpt lat="45.05669" lon="6.47934">
        <ele>2731.4</ele>
        <time>2021-02-28T11:25:29Z</time>
      </trkpt>
      <trkpt lat="45.05669" lon="6.47934">
        <ele>2731.4</ele>
        <time>2021-02-28T11:25:30Z</time>
      </trkpt>
      <trkpt lat="45.05669" lon="6.47934">
        <ele>2731.6</ele>
        <time>2021-02-28T11:25:31Z</time>
      </trkpt>
      <trkpt lat="45.05669" lon="6.47937">
        <ele>2732</ele>
        <time>2021-02-28T11:25:32Z</time>
      </trkpt>
      <trkpt lat="45.05669" lon="6.47937">
        <ele>2731.8</ele>
        <time>2021-02-28T11:25:33Z</time>
      </trkpt>
      <trkpt lat="45.05669" lon="6.47937">
        <ele>2731.6</ele>
        <time>2021-02-28T11:25:34Z</time>
      </trkpt>
      <trkpt lat="45.05669" lon="6.4794">
        <ele>2732.2</ele>
        <time>2021-02-28T11:25:35Z</time>
      </trkpt>
      <trkpt lat="45.05669" lon="6.4794">
        <ele>2732.4</ele>
        <time>2021-02-28T11:25:36Z</time>
      </trkpt>
      <trkpt lat="45.05669" lon="6.4794">
        <ele>2732.8</ele>
        <time>2021-02-28T11:25:37Z</time>
      </trkpt>
      <trkpt lat="45.05669" lon="6.47943">
        <ele>2733.2</ele>
        <time>2021-02-28T11:25:38Z</time>
      </trkpt>
      <trkpt lat="45.05669" lon="6.47943">
        <ele>2733</ele>
        <time>2021-02-28T11:25:39Z</time>
      </trkpt>
      <trkpt lat="45.05669" lon="6.47943">
        <ele>2733.6</ele>
        <time>2021-02-28T11:25:40Z</time>
      </trkpt>
      <trkpt lat="45.05669" lon="6.47943">
        <ele>2733.8</ele>
        <time>2021-02-28T11:25:41Z</time>
      </trkpt>
      <trkpt lat="45.05667" lon="6.47942">
        <ele>2733.8</ele>
        <time>2021-02-28T11:25:42Z</time>
      </trkpt>
      <trkpt lat="45.05667" lon="6.47942">
        <ele>2733.8</ele>
        <time>2021-02-28T11:25:43Z</time>
      </trkpt>
      <trkpt lat="45.05667" lon="6.47942">
        <ele>2734.4</ele>
        <time>2021-02-28T11:25:44Z</time>
      </trkpt>
      <trkpt lat="45.05665" lon="6.47941">
        <ele>2734.2</ele>
        <time>2021-02-28T11:25:45Z</time>
      </trkpt>
      <trkpt lat="45.05665" lon="6.47941">
        <ele>2734.4</ele>
        <time>2021-02-28T11:25:46Z</time>
      </trkpt>
      <trkpt lat="45.05665" lon="6.47941">
        <ele>2734.6</ele>
        <time>2021-02-28T11:25:47Z</time>
      </trkpt>
      <trkpt lat="45.05665" lon="6.47941">
        <ele>2735.2</ele>
        <time>2021-02-28T11:25:48Z</time>
      </trkpt>
      <trkpt lat="45.05665" lon="6.47941">
        <ele>2735.4</ele>
        <time>2021-02-28T11:25:49Z</time>
      </trkpt>
      <trkpt lat="45.05664" lon="6.47943">
        <ele>2735</ele>
        <time>2021-02-28T11:25:50Z</time>
      </trkpt>
      <trkpt lat="45.05664" lon="6.47943">
        <ele>2735.2</ele>
        <time>2021-02-28T11:25:51Z</time>
      </trkpt>
      <trkpt lat="45.05664" lon="6.47943">
        <ele>2735</ele>
        <time>2021-02-28T11:25:52Z</time>
      </trkpt>
      <trkpt lat="45.05663" lon="6.47947">
        <ele>2735.4</ele>
        <time>2021-02-28T11:25:53Z</time>
      </trkpt>
      <trkpt lat="45.05663" lon="6.47947">
        <ele>2735.6</ele>
        <time>2021-02-28T11:25:54Z</time>
      </trkpt>
      <trkpt lat="45.05663" lon="6.47947">
        <ele>2736.4</ele>
        <time>2021-02-28T11:25:55Z</time>
      </trkpt>
      <trkpt lat="45.05663" lon="6.4795">
        <ele>2736.2</ele>
        <time>2021-02-28T11:25:56Z</time>
      </trkpt>
      <trkpt lat="45.05663" lon="6.4795">
        <ele>2736.8</ele>
        <time>2021-02-28T11:25:57Z</time>
      </trkpt>
      <trkpt lat="45.05663" lon="6.47953">
        <ele>2736.8</ele>
        <time>2021-02-28T11:25:58Z</time>
      </trkpt>
      <trkpt lat="45.05663" lon="6.47953">
        <ele>2737.2</ele>
        <time>2021-02-28T11:25:59Z</time>
      </trkpt>
      <trkpt lat="45.05663" lon="6.47953">
        <ele>2737.8</ele>
        <time>2021-02-28T11:26:00Z</time>
      </trkpt>
      <trkpt lat="45.05663" lon="6.47956">
        <ele>2737.6</ele>
        <time>2021-02-28T11:26:01Z</time>
      </trkpt>
      <trkpt lat="45.05663" lon="6.47956">
        <ele>2738</ele>
        <time>2021-02-28T11:26:02Z</time>
      </trkpt>
      <trkpt lat="45.05663" lon="6.47956">
        <ele>2737.8</ele>
        <time>2021-02-28T11:26:03Z</time>
      </trkpt>
      <trkpt lat="45.05663" lon="6.47959">
        <ele>2738.2</ele>
        <time>2021-02-28T11:26:04Z</time>
      </trkpt>
      <trkpt lat="45.05663" lon="6.47959">
        <ele>2738.8</ele>
        <time>2021-02-28T11:26:05Z</time>
      </trkpt>
      <trkpt lat="45.05663" lon="6.47959">
        <ele>2738.6</ele>
        <time>2021-02-28T11:26:06Z</time>
      </trkpt>
      <trkpt lat="45.05663" lon="6.47962">
        <ele>2739.8</ele>
        <time>2021-02-28T11:26:07Z</time>
      </trkpt>
      <trkpt lat="45.05663" lon="6.47962">
        <ele>2740</ele>
        <time>2021-02-28T11:26:08Z</time>
      </trkpt>
      <trkpt lat="45.05662" lon="6.47964">
        <ele>2740.2</ele>
        <time>2021-02-28T11:26:09Z</time>
      </trkpt>
      <trkpt lat="45.05662" lon="6.47964">
        <ele>2740.2</ele>
        <time>2021-02-28T11:26:10Z</time>
      </trkpt>
      <trkpt lat="45.05662" lon="6.47964">
        <ele>2740.6</ele>
        <time>2021-02-28T11:26:11Z</time>
      </trkpt>
      <trkpt lat="45.05662" lon="6.47967">
        <ele>2741</ele>
        <time>2021-02-28T11:26:12Z</time>
      </trkpt>
      <trkpt lat="45.05662" lon="6.47967">
        <ele>2741</ele>
        <time>2021-02-28T11:26:13Z</time>
      </trkpt>
      <trkpt lat="45.05662" lon="6.47967">
        <ele>2741.4</ele>
        <time>2021-02-28T11:26:14Z</time>
      </trkpt>
      <trkpt lat="45.0566" lon="6.4797">
        <ele>2742</ele>
        <time>2021-02-28T11:26:15Z</time>
      </trkpt>
      <trkpt lat="45.0566" lon="6.4797">
        <ele>2742.6</ele>
        <time>2021-02-28T11:26:16Z</time>
      </trkpt>
      <trkpt lat="45.0566" lon="6.4797">
        <ele>2742.6</ele>
        <time>2021-02-28T11:26:17Z</time>
      </trkpt>
      <trkpt lat="45.05657" lon="6.4797">
        <ele>2742.4</ele>
        <time>2021-02-28T11:26:18Z</time>
      </trkpt>
      <trkpt lat="45.05657" lon="6.4797">
        <ele>2742.6</ele>
        <time>2021-02-28T11:26:19Z</time>
      </trkpt>
      <trkpt lat="45.05657" lon="6.4797">
        <ele>2743.2</ele>
        <time>2021-02-28T11:26:20Z</time>
      </trkpt>
      <trkpt lat="45.05655" lon="6.47969">
        <ele>2743.2</ele>
        <time>2021-02-28T11:26:21Z</time>
      </trkpt>
      <trkpt lat="45.05655" lon="6.47969">
        <ele>2743.8</ele>
        <time>2021-02-28T11:26:22Z</time>
      </trkpt>
      <trkpt lat="45.05655" lon="6.47969">
        <ele>2744.4</ele>
        <time>2021-02-28T11:26:23Z</time>
      </trkpt>
      <trkpt lat="45.05653" lon="6.47969">
        <ele>2744.4</ele>
        <time>2021-02-28T11:26:24Z</time>
      </trkpt>
      <trkpt lat="45.05653" lon="6.47969">
        <ele>2745</ele>
        <time>2021-02-28T11:26:25Z</time>
      </trkpt>
      <trkpt lat="45.05653" lon="6.47969">
        <ele>2745.8</ele>
        <time>2021-02-28T11:26:26Z</time>
      </trkpt>
      <trkpt lat="45.05651" lon="6.47968">
        <ele>2746.4</ele>
        <time>2021-02-28T11:26:27Z</time>
      </trkpt>
      <trkpt lat="45.05651" lon="6.47968">
        <ele>2747.2</ele>
        <time>2021-02-28T11:26:28Z</time>
      </trkpt>
      <trkpt lat="45.05651" lon="6.47968">
        <ele>2747.4</ele>
        <time>2021-02-28T11:26:29Z</time>
      </trkpt>
      <trkpt lat="45.05648" lon="6.47968">
        <ele>2748</ele>
        <time>2021-02-28T11:26:30Z</time>
      </trkpt>
      <trkpt lat="45.05648" lon="6.47968">
        <ele>2748.2</ele>
        <time>2021-02-28T11:26:31Z</time>
      </trkpt>
      <trkpt lat="45.05648" lon="6.47968">
        <ele>2748.2</ele>
        <time>2021-02-28T11:26:32Z</time>
      </trkpt>
      <trkpt lat="45.05646" lon="6.47967">
        <ele>2748.8</ele>
        <time>2021-02-28T11:26:33Z</time>
      </trkpt>
      <trkpt lat="45.05646" lon="6.47967">
        <ele>2748.8</ele>
        <time>2021-02-28T11:26:34Z</time>
      </trkpt>
      <trkpt lat="45.05646" lon="6.47967">
        <ele>2749.4</ele>
        <time>2021-02-28T11:26:35Z</time>
      </trkpt>
      <trkpt lat="45.05646" lon="6.47967">
        <ele>2749.2</ele>
        <time>2021-02-28T11:26:36Z</time>
      </trkpt>
      <trkpt lat="45.05643" lon="6.47967">
        <ele>2748.6</ele>
        <time>2021-02-28T11:26:37Z</time>
      </trkpt>
      <trkpt lat="45.05643" lon="6.47967">
        <ele>2749.2</ele>
        <time>2021-02-28T11:26:38Z</time>
      </trkpt>
      <trkpt lat="45.05643" lon="6.47967">
        <ele>2749.6</ele>
        <time>2021-02-28T11:26:39Z</time>
      </trkpt>
      <trkpt lat="45.05641" lon="6.47966">
        <ele>2750</ele>
        <time>2021-02-28T11:26:40Z</time>
      </trkpt>
      <trkpt lat="45.05641" lon="6.47966">
        <ele>2750</ele>
        <time>2021-02-28T11:26:41Z</time>
      </trkpt>
      <trkpt lat="45.05641" lon="6.47966">
        <ele>2750.2</ele>
        <time>2021-02-28T11:26:42Z</time>
      </trkpt>
      <trkpt lat="45.05639" lon="6.47965">
        <ele>2750.4</ele>
        <time>2021-02-28T11:26:43Z</time>
      </trkpt>
      <trkpt lat="45.05639" lon="6.47965">
        <ele>2751.2</ele>
        <time>2021-02-28T11:26:44Z</time>
      </trkpt>
      <trkpt lat="45.05639" lon="6.47965">
        <ele>2750.8</ele>
        <time>2021-02-28T11:26:45Z</time>
      </trkpt>
      <trkpt lat="45.05638" lon="6.47963">
        <ele>2751.6</ele>
        <time>2021-02-28T11:26:46Z</time>
      </trkpt>
      <trkpt lat="45.05638" lon="6.47963">
        <ele>2751.8</ele>
        <time>2021-02-28T11:26:47Z</time>
      </trkpt>
      <trkpt lat="45.05638" lon="6.47963">
        <ele>2752.8</ele>
        <time>2021-02-28T11:26:48Z</time>
      </trkpt>
      <trkpt lat="45.05638" lon="6.47963">
        <ele>2753.2</ele>
        <time>2021-02-28T11:26:49Z</time>
      </trkpt>
      <trkpt lat="45.05638" lon="6.47963">
        <ele>2753.6</ele>
        <time>2021-02-28T11:26:50Z</time>
      </trkpt>
      <trkpt lat="45.05638" lon="6.47963">
        <ele>2753.8</ele>
        <time>2021-02-28T11:26:51Z</time>
      </trkpt>
      <trkpt lat="45.05638" lon="6.47963">
        <ele>2753.4</ele>
        <time>2021-02-28T11:26:52Z</time>
      </trkpt>
      <trkpt lat="45.05636" lon="6.47966">
        <ele>2753.8</ele>
        <time>2021-02-28T11:26:53Z</time>
      </trkpt>
      <trkpt lat="45.05636" lon="6.47966">
        <ele>2754</ele>
        <time>2021-02-28T11:26:54Z</time>
      </trkpt>
      <trkpt lat="45.05636" lon="6.47966">
        <ele>2754.2</ele>
        <time>2021-02-28T11:26:55Z</time>
      </trkpt>
      <trkpt lat="45.05636" lon="6.47969">
        <ele>2754.4</ele>
        <time>2021-02-28T11:26:56Z</time>
      </trkpt>
      <trkpt lat="45.05636" lon="6.47969">
        <ele>2754.4</ele>
        <time>2021-02-28T11:26:57Z</time>
      </trkpt>
      <trkpt lat="45.05636" lon="6.47969">
        <ele>2754.4</ele>
        <time>2021-02-28T11:26:58Z</time>
      </trkpt>
      <trkpt lat="45.05636" lon="6.47972">
        <ele>2754.4</ele>
        <time>2021-02-28T11:26:59Z</time>
      </trkpt>
      <trkpt lat="45.05636" lon="6.47972">
        <ele>2754.8</ele>
        <time>2021-02-28T11:27:00Z</time>
      </trkpt>
      <trkpt lat="45.05636" lon="6.47972">
        <ele>2755</ele>
        <time>2021-02-28T11:27:01Z</time>
      </trkpt>
      <trkpt lat="45.05637" lon="6.47975">
        <ele>2755.4</ele>
        <time>2021-02-28T11:27:02Z</time>
      </trkpt>
      <trkpt lat="45.05637" lon="6.47975">
        <ele>2755.8</ele>
        <time>2021-02-28T11:27:03Z</time>
      </trkpt>
      <trkpt lat="45.05637" lon="6.47975">
        <ele>2756</ele>
        <time>2021-02-28T11:27:04Z</time>
      </trkpt>
      <trkpt lat="45.05636" lon="6.47978">
        <ele>2756.6</ele>
        <time>2021-02-28T11:27:05Z</time>
      </trkpt>
      <trkpt lat="45.05636" lon="6.47978">
        <ele>2755.8</ele>
        <time>2021-02-28T11:27:06Z</time>
      </trkpt>
      <trkpt lat="45.05635" lon="6.47981">
        <ele>2756</ele>
        <time>2021-02-28T11:27:07Z</time>
      </trkpt>
      <trkpt lat="45.05635" lon="6.47981">
        <ele>2756</ele>
        <time>2021-02-28T11:27:08Z</time>
      </trkpt>
      <trkpt lat="45.05635" lon="6.47981">
        <ele>2755.8</ele>
        <time>2021-02-28T11:27:09Z</time>
      </trkpt>
      <trkpt lat="45.05636" lon="6.47983">
        <ele>2756.2</ele>
        <time>2021-02-28T11:27:10Z</time>
      </trkpt>
      <trkpt lat="45.05636" lon="6.47983">
        <ele>2756.6</ele>
        <time>2021-02-28T11:27:11Z</time>
      </trkpt>
      <trkpt lat="45.05636" lon="6.47983">
        <ele>2756.6</ele>
        <time>2021-02-28T11:27:12Z</time>
      </trkpt>
      <trkpt lat="45.05636" lon="6.47986">
        <ele>2757.2</ele>
        <time>2021-02-28T11:27:13Z</time>
      </trkpt>
      <trkpt lat="45.05636" lon="6.47986">
        <ele>2757.8</ele>
        <time>2021-02-28T11:27:14Z</time>
      </trkpt>
      <trkpt lat="45.05636" lon="6.47986">
        <ele>2758.2</ele>
        <time>2021-02-28T11:27:15Z</time>
      </trkpt>
      <trkpt lat="45.05636" lon="6.47989">
        <ele>2758.6</ele>
        <time>2021-02-28T11:27:16Z</time>
      </trkpt>
      <trkpt lat="45.05636" lon="6.47989">
        <ele>2759.2</ele>
        <time>2021-02-28T11:27:17Z</time>
      </trkpt>
      <trkpt lat="45.05636" lon="6.47989">
        <ele>2759.4</ele>
        <time>2021-02-28T11:27:18Z</time>
      </trkpt>
      <trkpt lat="45.05636" lon="6.47989">
        <ele>2759.6</ele>
        <time>2021-02-28T11:27:19Z</time>
      </trkpt>
      <trkpt lat="45.05636" lon="6.47989">
        <ele>2760</ele>
        <time>2021-02-28T11:27:20Z</time>
      </trkpt>
      <trkpt lat="45.05634" lon="6.4799">
        <ele>2760.4</ele>
        <time>2021-02-28T11:27:21Z</time>
      </trkpt>
      <trkpt lat="45.05634" lon="6.4799">
        <ele>2761</ele>
        <time>2021-02-28T11:27:22Z</time>
      </trkpt>
      <trkpt lat="45.05634" lon="6.4799">
        <ele>2760.6</ele>
        <time>2021-02-28T11:27:23Z</time>
      </trkpt>
      <trkpt lat="45.05634" lon="6.4799">
        <ele>2761</ele>
        <time>2021-02-28T11:27:24Z</time>
      </trkpt>
      <trkpt lat="45.05632" lon="6.47988">
        <ele>2761</ele>
        <time>2021-02-28T11:27:25Z</time>
      </trkpt>
      <trkpt lat="45.05632" lon="6.47988">
        <ele>2761</ele>
        <time>2021-02-28T11:27:26Z</time>
      </trkpt>
      <trkpt lat="45.05631" lon="6.47987">
        <ele>2761.4</ele>
        <time>2021-02-28T11:27:27Z</time>
      </trkpt>
      <trkpt lat="45.05631" lon="6.47987">
        <ele>2761.8</ele>
        <time>2021-02-28T11:27:28Z</time>
      </trkpt>
      <trkpt lat="45.05629" lon="6.47985">
        <ele>2762.4</ele>
        <time>2021-02-28T11:27:29Z</time>
      </trkpt>
      <trkpt lat="45.05629" lon="6.47985">
        <ele>2761.6</ele>
        <time>2021-02-28T11:27:30Z</time>
      </trkpt>
      <trkpt lat="45.05628" lon="6.47984">
        <ele>2762</ele>
        <time>2021-02-28T11:27:31Z</time>
      </trkpt>
      <trkpt lat="45.05628" lon="6.47984">
        <ele>2762</ele>
        <time>2021-02-28T11:27:32Z</time>
      </trkpt>
      <trkpt lat="45.05626" lon="6.47982">
        <ele>2762</ele>
        <time>2021-02-28T11:27:33Z</time>
      </trkpt>
      <trkpt lat="45.05626" lon="6.47982">
        <ele>2762.4</ele>
        <time>2021-02-28T11:27:34Z</time>
      </trkpt>
      <trkpt lat="45.05624" lon="6.47981">
        <ele>2762.6</ele>
        <time>2021-02-28T11:27:35Z</time>
      </trkpt>
      <trkpt lat="45.05624" lon="6.47981">
        <ele>2763.4</ele>
        <time>2021-02-28T11:27:36Z</time>
      </trkpt>
      <trkpt lat="45.05622" lon="6.47979">
        <ele>2763.4</ele>
        <time>2021-02-28T11:27:37Z</time>
      </trkpt>
      <trkpt lat="45.05622" lon="6.47979">
        <ele>2763.4</ele>
        <time>2021-02-28T11:27:38Z</time>
      </trkpt>
      <trkpt lat="45.05621" lon="6.47978">
        <ele>2764</ele>
        <time>2021-02-28T11:27:39Z</time>
      </trkpt>
      <trkpt lat="45.05621" lon="6.47978">
        <ele>2764</ele>
        <time>2021-02-28T11:27:40Z</time>
      </trkpt>
      <trkpt lat="45.05619" lon="6.47976">
        <ele>2764.6</ele>
        <time>2021-02-28T11:27:41Z</time>
      </trkpt>
      <trkpt lat="45.05619" lon="6.47976">
        <ele>2765.6</ele>
        <time>2021-02-28T11:27:42Z</time>
      </trkpt>
      <trkpt lat="45.05617" lon="6.47974">
        <ele>2765.4</ele>
        <time>2021-02-28T11:27:43Z</time>
      </trkpt>
      <trkpt lat="45.05617" lon="6.47974">
        <ele>2765.8</ele>
        <time>2021-02-28T11:27:44Z</time>
      </trkpt>
      <trkpt lat="45.05617" lon="6.47974">
        <ele>2765.6</ele>
        <time>2021-02-28T11:27:45Z</time>
      </trkpt>
      <trkpt lat="45.05615" lon="6.47972">
        <ele>2765.4</ele>
        <time>2021-02-28T11:27:46Z</time>
      </trkpt>
      <trkpt lat="45.05615" lon="6.47972">
        <ele>2766</ele>
        <time>2021-02-28T11:27:47Z</time>
      </trkpt>
      <trkpt lat="45.05615" lon="6.47972">
        <ele>2766.6</ele>
        <time>2021-02-28T11:27:48Z</time>
      </trkpt>
      <trkpt lat="45.05614" lon="6.47969">
        <ele>2766.4</ele>
        <time>2021-02-28T11:27:49Z</time>
      </trkpt>
      <trkpt lat="45.05614" lon="6.47969">
        <ele>2766.8</ele>
        <time>2021-02-28T11:27:50Z</time>
      </trkpt>
      <trkpt lat="45.05614" lon="6.47969">
        <ele>2767.4</ele>
        <time>2021-02-28T11:27:51Z</time>
      </trkpt>
      <trkpt lat="45.05614" lon="6.47969">
        <ele>2767.4</ele>
        <time>2021-02-28T11:27:52Z</time>
      </trkpt>
      <trkpt lat="45.05614" lon="6.47969">
        <ele>2767.8</ele>
        <time>2021-02-28T11:27:53Z</time>
      </trkpt>
      <trkpt lat="45.05614" lon="6.47969">
        <ele>2767.6</ele>
        <time>2021-02-28T11:27:54Z</time>
      </trkpt>
      <trkpt lat="45.05614" lon="6.47969">
        <ele>2767.2</ele>
        <time>2021-02-28T11:27:55Z</time>
      </trkpt>
      <trkpt lat="45.05614" lon="6.47969">
        <ele>2767.2</ele>
        <time>2021-02-28T11:27:56Z</time>
      </trkpt>
      <trkpt lat="45.05612" lon="6.47972">
        <ele>2767.6</ele>
        <time>2021-02-28T11:27:57Z</time>
      </trkpt>
      <trkpt lat="45.05612" lon="6.47972">
        <ele>2767.4</ele>
        <time>2021-02-28T11:27:58Z</time>
      </trkpt>
      <trkpt lat="45.05612" lon="6.47972">
        <ele>2767.4</ele>
        <time>2021-02-28T11:27:59Z</time>
      </trkpt>
      <trkpt lat="45.05612" lon="6.47975">
        <ele>2767.6</ele>
        <time>2021-02-28T11:28:00Z</time>
      </trkpt>
      <trkpt lat="45.05612" lon="6.47975">
        <ele>2767.8</ele>
        <time>2021-02-28T11:28:01Z</time>
      </trkpt>
      <trkpt lat="45.05612" lon="6.47978">
        <ele>2768</ele>
        <time>2021-02-28T11:28:02Z</time>
      </trkpt>
      <trkpt lat="45.05612" lon="6.47978">
        <ele>2768</ele>
        <time>2021-02-28T11:28:03Z</time>
      </trkpt>
      <trkpt lat="45.05611" lon="6.47981">
        <ele>2768.6</ele>
        <time>2021-02-28T11:28:04Z</time>
      </trkpt>
      <trkpt lat="45.05611" lon="6.47981">
        <ele>2768.8</ele>
        <time>2021-02-28T11:28:05Z</time>
      </trkpt>
      <trkpt lat="45.05611" lon="6.47981">
        <ele>2769</ele>
        <time>2021-02-28T11:28:06Z</time>
      </trkpt>
      <trkpt lat="45.05611" lon="6.47984">
        <ele>2769.2</ele>
        <time>2021-02-28T11:28:07Z</time>
      </trkpt>
      <trkpt lat="45.05611" lon="6.47984">
        <ele>2769.2</ele>
        <time>2021-02-28T11:28:08Z</time>
      </trkpt>
      <trkpt lat="45.05611" lon="6.47984">
        <ele>2769.6</ele>
        <time>2021-02-28T11:28:09Z</time>
      </trkpt>
      <trkpt lat="45.0561" lon="6.47983">
        <ele>2770</ele>
        <time>2021-02-28T11:28:10Z</time>
      </trkpt>
      <trkpt lat="45.0561" lon="6.47983">
        <ele>2770.2</ele>
        <time>2021-02-28T11:28:11Z</time>
      </trkpt>
      <trkpt lat="45.0561" lon="6.47983">
        <ele>2770.8</ele>
        <time>2021-02-28T11:28:12Z</time>
      </trkpt>
      <trkpt lat="45.05608" lon="6.47981">
        <ele>2770.8</ele>
        <time>2021-02-28T11:28:13Z</time>
      </trkpt>
      <trkpt lat="45.05608" lon="6.47981">
        <ele>2770.6</ele>
        <time>2021-02-28T11:28:14Z</time>
      </trkpt>
      <trkpt lat="45.05608" lon="6.47981">
        <ele>2770.2</ele>
        <time>2021-02-28T11:28:15Z</time>
      </trkpt>
      <trkpt lat="45.05605" lon="6.47979">
        <ele>2770.8</ele>
        <time>2021-02-28T11:28:16Z</time>
      </trkpt>
      <trkpt lat="45.05605" lon="6.47979">
        <ele>2771</ele>
        <time>2021-02-28T11:28:17Z</time>
      </trkpt>
      <trkpt lat="45.05605" lon="6.47979">
        <ele>2771.6</ele>
        <time>2021-02-28T11:28:18Z</time>
      </trkpt>
      <trkpt lat="45.05604" lon="6.47976">
        <ele>2771.6</ele>
        <time>2021-02-28T11:28:19Z</time>
      </trkpt>
      <trkpt lat="45.05604" lon="6.47976">
        <ele>2771.6</ele>
        <time>2021-02-28T11:28:20Z</time>
      </trkpt>
      <trkpt lat="45.05604" lon="6.47976">
        <ele>2771.6</ele>
        <time>2021-02-28T11:28:21Z</time>
      </trkpt>
      <trkpt lat="45.05602" lon="6.47974">
        <ele>2771.8</ele>
        <time>2021-02-28T11:28:22Z</time>
      </trkpt>
      <trkpt lat="45.05602" lon="6.47974">
        <ele>2772.4</ele>
        <time>2021-02-28T11:28:23Z</time>
      </trkpt>
      <trkpt lat="45.05602" lon="6.47974">
        <ele>2772.2</ele>
        <time>2021-02-28T11:28:24Z</time>
      </trkpt>
      <trkpt lat="45.056" lon="6.47974">
        <ele>2771.4</ele>
        <time>2021-02-28T11:28:25Z</time>
      </trkpt>
      <trkpt lat="45.056" lon="6.47974">
        <ele>2772.4</ele>
        <time>2021-02-28T11:28:26Z</time>
      </trkpt>
      <trkpt lat="45.056" lon="6.47974">
        <ele>2772.4</ele>
        <time>2021-02-28T11:28:27Z</time>
      </trkpt>
      <trkpt lat="45.05598" lon="6.47974">
        <ele>2772.8</ele>
        <time>2021-02-28T11:28:28Z</time>
      </trkpt>
      <trkpt lat="45.05598" lon="6.47974">
        <ele>2773.6</ele>
        <time>2021-02-28T11:28:29Z</time>
      </trkpt>
      <trkpt lat="45.05598" lon="6.47974">
        <ele>2773.8</ele>
        <time>2021-02-28T11:28:30Z</time>
      </trkpt>
      <trkpt lat="45.05595" lon="6.47974">
        <ele>2774.2</ele>
        <time>2021-02-28T11:28:31Z</time>
      </trkpt>
      <trkpt lat="45.05595" lon="6.47974">
        <ele>2774.6</ele>
        <time>2021-02-28T11:28:32Z</time>
      </trkpt>
      <trkpt lat="45.05595" lon="6.47974">
        <ele>2775.2</ele>
        <time>2021-02-28T11:28:33Z</time>
      </trkpt>
      <trkpt lat="45.05594" lon="6.47974">
        <ele>2776</ele>
        <time>2021-02-28T11:28:34Z</time>
      </trkpt>
      <trkpt lat="45.05594" lon="6.47974">
        <ele>2776.2</ele>
        <time>2021-02-28T11:28:35Z</time>
      </trkpt>
      <trkpt lat="45.05594" lon="6.47974">
        <ele>2776.8</ele>
        <time>2021-02-28T11:28:36Z</time>
      </trkpt>
      <trkpt lat="45.05594" lon="6.47974">
        <ele>2777.4</ele>
        <time>2021-02-28T11:28:37Z</time>
      </trkpt>
      <trkpt lat="45.05592" lon="6.47973">
        <ele>2777.2</ele>
        <time>2021-02-28T11:28:38Z</time>
      </trkpt>
      <trkpt lat="45.05592" lon="6.47973">
        <ele>2777.6</ele>
        <time>2021-02-28T11:28:39Z</time>
      </trkpt>
      <trkpt lat="45.05592" lon="6.47973">
        <ele>2777.8</ele>
        <time>2021-02-28T11:28:40Z</time>
      </trkpt>
      <trkpt lat="45.05592" lon="6.47973">
        <ele>2777.6</ele>
        <time>2021-02-28T11:28:41Z</time>
      </trkpt>
      <trkpt lat="45.0559" lon="6.47974">
        <ele>2778.4</ele>
        <time>2021-02-28T11:28:42Z</time>
      </trkpt>
      <trkpt lat="45.0559" lon="6.47974">
        <ele>2778.6</ele>
        <time>2021-02-28T11:28:43Z</time>
      </trkpt>
      <trkpt lat="45.0559" lon="6.47974">
        <ele>2778.8</ele>
        <time>2021-02-28T11:28:44Z</time>
      </trkpt>
      <trkpt lat="45.05588" lon="6.47973">
        <ele>2779.6</ele>
        <time>2021-02-28T11:28:45Z</time>
      </trkpt>
      <trkpt lat="45.05588" lon="6.47973">
        <ele>2779.8</ele>
        <time>2021-02-28T11:28:46Z</time>
      </trkpt>
      <trkpt lat="45.05588" lon="6.47973">
        <ele>2780.2</ele>
        <time>2021-02-28T11:28:47Z</time>
      </trkpt>
      <trkpt lat="45.05588" lon="6.47973">
        <ele>2779.8</ele>
        <time>2021-02-28T11:28:48Z</time>
      </trkpt>
      <trkpt lat="45.05588" lon="6.47973">
        <ele>2779.4</ele>
        <time>2021-02-28T11:28:49Z</time>
      </trkpt>
      <trkpt lat="45.05588" lon="6.47973">
        <ele>2778.8</ele>
        <time>2021-02-28T11:28:50Z</time>
      </trkpt>
      <trkpt lat="45.05586" lon="6.47975">
        <ele>2779</ele>
        <time>2021-02-28T11:28:51Z</time>
      </trkpt>
      <trkpt lat="45.05586" lon="6.47975">
        <ele>2779</ele>
        <time>2021-02-28T11:28:52Z</time>
      </trkpt>
      <trkpt lat="45.05586" lon="6.47975">
        <ele>2779.8</ele>
        <time>2021-02-28T11:28:53Z</time>
      </trkpt>
      <trkpt lat="45.05586" lon="6.47977">
        <ele>2781</ele>
        <time>2021-02-28T11:28:54Z</time>
      </trkpt>
      <trkpt lat="45.05586" lon="6.47977">
        <ele>2781.2</ele>
        <time>2021-02-28T11:28:55Z</time>
      </trkpt>
      <trkpt lat="45.05586" lon="6.47977">
        <ele>2781.4</ele>
        <time>2021-02-28T11:28:56Z</time>
      </trkpt>
      <trkpt lat="45.05586" lon="6.47977">
        <ele>2782.2</ele>
        <time>2021-02-28T11:28:57Z</time>
      </trkpt>
      <trkpt lat="45.05586" lon="6.47977">
        <ele>2782.2</ele>
        <time>2021-02-28T11:28:58Z</time>
      </trkpt>
      <trkpt lat="45.05586" lon="6.47977">
        <ele>2781.6</ele>
        <time>2021-02-28T11:28:59Z</time>
      </trkpt>
      <trkpt lat="45.05586" lon="6.47977">
        <ele>2780.4</ele>
        <time>2021-02-28T11:29:00Z</time>
      </trkpt>
      <trkpt lat="45.05586" lon="6.47977">
        <ele>2781.2</ele>
        <time>2021-02-28T11:29:01Z</time>
      </trkpt>
      <trkpt lat="45.05586" lon="6.47977">
        <ele>2782</ele>
        <time>2021-02-28T11:29:02Z</time>
      </trkpt>
      <trkpt lat="45.05586" lon="6.47977">
        <ele>2782.2</ele>
        <time>2021-02-28T11:29:03Z</time>
      </trkpt>
      <trkpt lat="45.05586" lon="6.47977">
        <ele>2782.2</ele>
        <time>2021-02-28T11:29:04Z</time>
      </trkpt>
      <trkpt lat="45.05586" lon="6.47977">
        <ele>2782.4</ele>
        <time>2021-02-28T11:29:05Z</time>
      </trkpt>
      <trkpt lat="45.05587" lon="6.47979">
        <ele>2782</ele>
        <time>2021-02-28T11:29:06Z</time>
      </trkpt>
      <trkpt lat="45.05587" lon="6.47979">
        <ele>2781.8</ele>
        <time>2021-02-28T11:29:07Z</time>
      </trkpt>
      <trkpt lat="45.05587" lon="6.47979">
        <ele>2781.6</ele>
        <time>2021-02-28T11:29:08Z</time>
      </trkpt>
      <trkpt lat="45.05587" lon="6.47979">
        <ele>2782</ele>
        <time>2021-02-28T11:29:09Z</time>
      </trkpt>
      <trkpt lat="45.05587" lon="6.47979">
        <ele>2782.4</ele>
        <time>2021-02-28T11:29:10Z</time>
      </trkpt>
      <trkpt lat="45.05587" lon="6.47979">
        <ele>2783</ele>
        <time>2021-02-28T11:29:11Z</time>
      </trkpt>
      <trkpt lat="45.05587" lon="6.47979">
        <ele>2783.4</ele>
        <time>2021-02-28T11:29:12Z</time>
      </trkpt>
      <trkpt lat="45.05587" lon="6.47979">
        <ele>2783.6</ele>
        <time>2021-02-28T11:29:13Z</time>
      </trkpt>
      <trkpt lat="45.05587" lon="6.47979">
        <ele>2783.8</ele>
        <time>2021-02-28T11:29:14Z</time>
      </trkpt>
      <trkpt lat="45.05587" lon="6.47979">
        <ele>2784</ele>
        <time>2021-02-28T11:29:15Z</time>
      </trkpt>
      <trkpt lat="45.05587" lon="6.47979">
        <ele>2784</ele>
        <time>2021-02-28T11:29:16Z</time>
      </trkpt>
      <trkpt lat="45.05587" lon="6.47979">
        <ele>2783.8</ele>
        <time>2021-02-28T11:29:17Z</time>
      </trkpt>
      <trkpt lat="45.05587" lon="6.47979">
        <ele>2783.6</ele>
        <time>2021-02-28T11:29:18Z</time>
      </trkpt>
      <trkpt lat="45.05587" lon="6.47979">
        <ele>2784.2</ele>
        <time>2021-02-28T11:29:19Z</time>
      </trkpt>
      <trkpt lat="45.05587" lon="6.47979">
        <ele>2784.6</ele>
        <time>2021-02-28T11:29:20Z</time>
      </trkpt>
      <trkpt lat="45.05587" lon="6.47979">
        <ele>2784.2</ele>
        <time>2021-02-28T11:29:21Z</time>
      </trkpt>
      <trkpt lat="45.05587" lon="6.47979">
        <ele>2784.6</ele>
        <time>2021-02-28T11:29:22Z</time>
      </trkpt>
      <trkpt lat="45.05587" lon="6.47979">
        <ele>2784.2</ele>
        <time>2021-02-28T11:29:23Z</time>
      </trkpt>
      <trkpt lat="45.05587" lon="6.47979">
        <ele>2783.8</ele>
        <time>2021-02-28T11:29:24Z</time>
      </trkpt>
      <trkpt lat="45.05587" lon="6.47979">
        <ele>2784</ele>
        <time>2021-02-28T11:29:25Z</time>
      </trkpt>
      <trkpt lat="45.05587" lon="6.47979">
        <ele>2784.2</ele>
        <time>2021-02-28T11:29:26Z</time>
      </trkpt>
      <trkpt lat="45.05587" lon="6.47979">
        <ele>2783.8</ele>
        <time>2021-02-28T11:29:27Z</time>
      </trkpt>
      <trkpt lat="45.05587" lon="6.47979">
        <ele>2783.8</ele>
        <time>2021-02-28T11:29:28Z</time>
      </trkpt>
      <trkpt lat="45.05587" lon="6.47979">
        <ele>2783.6</ele>
        <time>2021-02-28T11:29:29Z</time>
      </trkpt>
      <trkpt lat="45.05587" lon="6.47979">
        <ele>2783.6</ele>
        <time>2021-02-28T11:29:30Z</time>
      </trkpt>
      <trkpt lat="45.05587" lon="6.47979">
        <ele>2783.6</ele>
        <time>2021-02-28T11:29:31Z</time>
      </trkpt>
      <trkpt lat="45.05587" lon="6.47979">
        <ele>2783.6</ele>
        <time>2021-02-28T11:29:32Z</time>
      </trkpt>
      <trkpt lat="45.05587" lon="6.47979">
        <ele>2783.4</ele>
        <time>2021-02-28T11:29:33Z</time>
      </trkpt>
      <trkpt lat="45.05587" lon="6.47979">
        <ele>2783.4</ele>
        <time>2021-02-28T11:29:34Z</time>
      </trkpt>
      <trkpt lat="45.05587" lon="6.47979">
        <ele>2783.4</ele>
        <time>2021-02-28T11:29:35Z</time>
      </trkpt>
      <trkpt lat="45.05587" lon="6.47979">
        <ele>2783.2</ele>
        <time>2021-02-28T11:29:36Z</time>
      </trkpt>
      <trkpt lat="45.05587" lon="6.47979">
        <ele>2783</ele>
        <time>2021-02-28T11:29:37Z</time>
      </trkpt>
      <trkpt lat="45.05587" lon="6.47979">
        <ele>2782.8</ele>
        <time>2021-02-28T11:29:38Z</time>
      </trkpt>
      <trkpt lat="45.05587" lon="6.47979">
        <ele>2782.2</ele>
        <time>2021-02-28T11:29:39Z</time>
      </trkpt>
      <trkpt lat="45.05587" lon="6.47979">
        <ele>2782</ele>
        <time>2021-02-28T11:29:40Z</time>
      </trkpt>
      <trkpt lat="45.05587" lon="6.47979">
        <ele>2782.8</ele>
        <time>2021-02-28T11:29:41Z</time>
      </trkpt>
      <trkpt lat="45.05587" lon="6.47979">
        <ele>2782.8</ele>
        <time>2021-02-28T11:29:42Z</time>
      </trkpt>
      <trkpt lat="45.05587" lon="6.47979">
        <ele>2783.2</ele>
        <time>2021-02-28T11:29:43Z</time>
      </trkpt>
      <trkpt lat="45.05587" lon="6.47979">
        <ele>2782.8</ele>
        <time>2021-02-28T11:29:44Z</time>
      </trkpt>
      <trkpt lat="45.05587" lon="6.47979">
        <ele>2783</ele>
        <time>2021-02-28T11:29:45Z</time>
      </trkpt>
      <trkpt lat="45.05587" lon="6.47979">
        <ele>2782.8</ele>
        <time>2021-02-28T11:29:46Z</time>
      </trkpt>
      <trkpt lat="45.05587" lon="6.47979">
        <ele>2783.6</ele>
        <time>2021-02-28T11:29:47Z</time>
      </trkpt>
      <trkpt lat="45.05587" lon="6.47979">
        <ele>2783.6</ele>
        <time>2021-02-28T11:29:48Z</time>
      </trkpt>
      <trkpt lat="45.05587" lon="6.47979">
        <ele>2783.8</ele>
        <time>2021-02-28T11:29:49Z</time>
      </trkpt>
      <trkpt lat="45.05587" lon="6.47979">
        <ele>2783.8</ele>
        <time>2021-02-28T11:29:50Z</time>
      </trkpt>
      <trkpt lat="45.05587" lon="6.47979">
        <ele>2783.8</ele>
        <time>2021-02-28T11:29:51Z</time>
      </trkpt>
      <trkpt lat="45.05587" lon="6.47979">
        <ele>2783.4</ele>
        <time>2021-02-28T11:29:52Z</time>
      </trkpt>
      <trkpt lat="45.05587" lon="6.47979">
        <ele>2782.8</ele>
        <time>2021-02-28T11:29:53Z</time>
      </trkpt>
      <trkpt lat="45.05587" lon="6.47979">
        <ele>2782.8</ele>
        <time>2021-02-28T11:29:54Z</time>
      </trkpt>
      <trkpt lat="45.05587" lon="6.47979">
        <ele>2782.4</ele>
        <time>2021-02-28T11:29:55Z</time>
      </trkpt>
      <trkpt lat="45.05587" lon="6.47979">
        <ele>2781.6</ele>
        <time>2021-02-28T11:29:56Z</time>
      </trkpt>
      <trkpt lat="45.05587" lon="6.47979">
        <ele>2781.6</ele>
        <time>2021-02-28T11:29:57Z</time>
      </trkpt>
      <trkpt lat="45.05587" lon="6.47979">
        <ele>2781.8</ele>
        <time>2021-02-28T11:29:58Z</time>
      </trkpt>
      <trkpt lat="45.05587" lon="6.47979">
        <ele>2781.8</ele>
        <time>2021-02-28T11:29:59Z</time>
      </trkpt>
      <trkpt lat="45.05587" lon="6.47979">
        <ele>2781.6</ele>
        <time>2021-02-28T11:30:00Z</time>
      </trkpt>
      <trkpt lat="45.05587" lon="6.47979">
        <ele>2781.8</ele>
        <time>2021-02-28T11:30:01Z</time>
      </trkpt>
      <trkpt lat="45.05587" lon="6.47979">
        <ele>2782.2</ele>
        <time>2021-02-28T11:30:02Z</time>
      </trkpt>
      <trkpt lat="45.05587" lon="6.47979">
        <ele>2782</ele>
        <time>2021-02-28T11:30:03Z</time>
      </trkpt>
      <trkpt lat="45.05587" lon="6.47979">
        <ele>2782.2</ele>
        <time>2021-02-28T11:30:04Z</time>
      </trkpt>
      <trkpt lat="45.05587" lon="6.47979">
        <ele>2782.6</ele>
        <time>2021-02-28T11:30:05Z</time>
      </trkpt>
      <trkpt lat="45.05587" lon="6.47979">
        <ele>2782.4</ele>
        <time>2021-02-28T11:30:06Z</time>
      </trkpt>
      <trkpt lat="45.05587" lon="6.47979">
        <ele>2782.8</ele>
        <time>2021-02-28T11:30:07Z</time>
      </trkpt>
      <trkpt lat="45.05587" lon="6.47979">
        <ele>2783.2</ele>
        <time>2021-02-28T11:30:08Z</time>
      </trkpt>
      <trkpt lat="45.05587" lon="6.47979">
        <ele>2782.8</ele>
        <time>2021-02-28T11:30:09Z</time>
      </trkpt>
      <trkpt lat="45.05587" lon="6.47979">
        <ele>2783.4</ele>
        <time>2021-02-28T11:30:10Z</time>
      </trkpt>
      <trkpt lat="45.05587" lon="6.47979">
        <ele>2783.6</ele>
        <time>2021-02-28T11:30:11Z</time>
      </trkpt>
      <trkpt lat="45.05587" lon="6.47979">
        <ele>2783.2</ele>
        <time>2021-02-28T11:30:12Z</time>
      </trkpt>
      <trkpt lat="45.05587" lon="6.47979">
        <ele>2783</ele>
        <time>2021-02-28T11:30:13Z</time>
      </trkpt>
      <trkpt lat="45.05587" lon="6.47979">
        <ele>2783.2</ele>
        <time>2021-02-28T11:30:14Z</time>
      </trkpt>
      <trkpt lat="45.05587" lon="6.47979">
        <ele>2783</ele>
        <time>2021-02-28T11:30:15Z</time>
      </trkpt>
      <trkpt lat="45.05587" lon="6.47979">
        <ele>2783</ele>
        <time>2021-02-28T11:30:16Z</time>
      </trkpt>
      <trkpt lat="45.05587" lon="6.47979">
        <ele>2783</ele>
        <time>2021-02-28T11:30:17Z</time>
      </trkpt>
      <trkpt lat="45.05587" lon="6.47979">
        <ele>2783</ele>
        <time>2021-02-28T11:30:18Z</time>
      </trkpt>
      <trkpt lat="45.05587" lon="6.47979">
        <ele>2783.2</ele>
        <time>2021-02-28T11:30:19Z</time>
      </trkpt>
      <trkpt lat="45.05589" lon="6.4798">
        <ele>2782.8</ele>
        <time>2021-02-28T11:30:20Z</time>
      </trkpt>
      <trkpt lat="45.05589" lon="6.4798">
        <ele>2782.6</ele>
        <time>2021-02-28T11:30:21Z</time>
      </trkpt>
      <trkpt lat="45.05589" lon="6.4798">
        <ele>2782.6</ele>
        <time>2021-02-28T11:30:22Z</time>
      </trkpt>
      <trkpt lat="45.05589" lon="6.4798">
        <ele>2782.6</ele>
        <time>2021-02-28T11:30:23Z</time>
      </trkpt>
      <trkpt lat="45.05589" lon="6.4798">
        <ele>2783</ele>
        <time>2021-02-28T11:30:24Z</time>
      </trkpt>
      <trkpt lat="45.05589" lon="6.4798">
        <ele>2783.4</ele>
        <time>2021-02-28T11:30:25Z</time>
      </trkpt>
      <trkpt lat="45.05589" lon="6.4798">
        <ele>2783.4</ele>
        <time>2021-02-28T11:30:26Z</time>
      </trkpt>
      <trkpt lat="45.05589" lon="6.4798">
        <ele>2783.6</ele>
        <time>2021-02-28T11:30:27Z</time>
      </trkpt>
      <trkpt lat="45.05589" lon="6.4798">
        <ele>2782</ele>
        <time>2021-02-28T11:30:28Z</time>
      </trkpt>
      <trkpt lat="45.0559" lon="6.47983">
        <ele>2781.6</ele>
        <time>2021-02-28T11:30:29Z</time>
      </trkpt>
      <trkpt lat="45.0559" lon="6.47983">
        <ele>2781.4</ele>
        <time>2021-02-28T11:30:30Z</time>
      </trkpt>
      <trkpt lat="45.0559" lon="6.47983">
        <ele>2782</ele>
        <time>2021-02-28T11:30:31Z</time>
      </trkpt>
      <trkpt lat="45.0559" lon="6.47983">
        <ele>2782.6</ele>
        <time>2021-02-28T11:30:32Z</time>
      </trkpt>
      <trkpt lat="45.0559" lon="6.47983">
        <ele>2782.8</ele>
        <time>2021-02-28T11:30:33Z</time>
      </trkpt>
      <trkpt lat="45.0559" lon="6.47983">
        <ele>2782.4</ele>
        <time>2021-02-28T11:30:34Z</time>
      </trkpt>
      <trkpt lat="45.0559" lon="6.47983">
        <ele>2782.4</ele>
        <time>2021-02-28T11:30:35Z</time>
      </trkpt>
      <trkpt lat="45.0559" lon="6.47983">
        <ele>2782.2</ele>
        <time>2021-02-28T11:30:36Z</time>
      </trkpt>
      <trkpt lat="45.0559" lon="6.47983">
        <ele>2782.4</ele>
        <time>2021-02-28T11:30:37Z</time>
      </trkpt>
      <trkpt lat="45.0559" lon="6.47983">
        <ele>2782.6</ele>
        <time>2021-02-28T11:30:38Z</time>
      </trkpt>
      <trkpt lat="45.0559" lon="6.47983">
        <ele>2782</ele>
        <time>2021-02-28T11:30:39Z</time>
      </trkpt>
      <trkpt lat="45.0559" lon="6.47983">
        <ele>2782.2</ele>
        <time>2021-02-28T11:30:40Z</time>
      </trkpt>
      <trkpt lat="45.0559" lon="6.47983">
        <ele>2782</ele>
        <time>2021-02-28T11:30:41Z</time>
      </trkpt>
      <trkpt lat="45.0559" lon="6.47983">
        <ele>2782.2</ele>
        <time>2021-02-28T11:30:42Z</time>
      </trkpt>
      <trkpt lat="45.0559" lon="6.47983">
        <ele>2782.6</ele>
        <time>2021-02-28T11:30:43Z</time>
      </trkpt>
      <trkpt lat="45.0559" lon="6.47983">
        <ele>2782.6</ele>
        <time>2021-02-28T11:30:44Z</time>
      </trkpt>
      <trkpt lat="45.0559" lon="6.47983">
        <ele>2782.6</ele>
        <time>2021-02-28T11:30:45Z</time>
      </trkpt>
      <trkpt lat="45.0559" lon="6.47983">
        <ele>2782.6</ele>
        <time>2021-02-28T11:30:46Z</time>
      </trkpt>
      <trkpt lat="45.0559" lon="6.47983">
        <ele>2782.6</ele>
        <time>2021-02-28T11:30:47Z</time>
      </trkpt>
      <trkpt lat="45.0559" lon="6.47983">
        <ele>2782.4</ele>
        <time>2021-02-28T11:30:48Z</time>
      </trkpt>
      <trkpt lat="45.0559" lon="6.47983">
        <ele>2782.2</ele>
        <time>2021-02-28T11:30:49Z</time>
      </trkpt>
      <trkpt lat="45.0559" lon="6.47983">
        <ele>2781.8</ele>
        <time>2021-02-28T11:30:50Z</time>
      </trkpt>
      <trkpt lat="45.0559" lon="6.47983">
        <ele>2781.8</ele>
        <time>2021-02-28T11:30:51Z</time>
      </trkpt>
      <trkpt lat="45.0559" lon="6.47983">
        <ele>2781.6</ele>
        <time>2021-02-28T11:30:52Z</time>
      </trkpt>
      <trkpt lat="45.0559" lon="6.47983">
        <ele>2781.8</ele>
        <time>2021-02-28T11:30:53Z</time>
      </trkpt>
      <trkpt lat="45.0559" lon="6.47983">
        <ele>2782</ele>
        <time>2021-02-28T11:30:54Z</time>
      </trkpt>
      <trkpt lat="45.0559" lon="6.47983">
        <ele>2782.2</ele>
        <time>2021-02-28T11:30:55Z</time>
      </trkpt>
      <trkpt lat="45.0559" lon="6.47983">
        <ele>2782.4</ele>
        <time>2021-02-28T11:30:56Z</time>
      </trkpt>
      <trkpt lat="45.0559" lon="6.47983">
        <ele>2782.4</ele>
        <time>2021-02-28T11:30:57Z</time>
      </trkpt>
      <trkpt lat="45.0559" lon="6.47983">
        <ele>2782.4</ele>
        <time>2021-02-28T11:30:58Z</time>
      </trkpt>
      <trkpt lat="45.0559" lon="6.47983">
        <ele>2782.2</ele>
        <time>2021-02-28T11:30:59Z</time>
      </trkpt>
      <trkpt lat="45.0559" lon="6.47983">
        <ele>2782.2</ele>
        <time>2021-02-28T11:31:00Z</time>
      </trkpt>
      <trkpt lat="45.0559" lon="6.47983">
        <ele>2782.2</ele>
        <time>2021-02-28T11:31:01Z</time>
      </trkpt>
      <trkpt lat="45.0559" lon="6.47983">
        <ele>2782.2</ele>
        <time>2021-02-28T11:31:02Z</time>
      </trkpt>
      <trkpt lat="45.0559" lon="6.47983">
        <ele>2781.8</ele>
        <time>2021-02-28T11:31:03Z</time>
      </trkpt>
      <trkpt lat="45.0559" lon="6.47983">
        <ele>2781.8</ele>
        <time>2021-02-28T11:31:04Z</time>
      </trkpt>
      <trkpt lat="45.0559" lon="6.47983">
        <ele>2781.8</ele>
        <time>2021-02-28T11:31:05Z</time>
      </trkpt>
      <trkpt lat="45.05589" lon="6.47981">
        <ele>2781.4</ele>
        <time>2021-02-28T11:31:06Z</time>
      </trkpt>
      <trkpt lat="45.05589" lon="6.47981">
        <ele>2781.4</ele>
        <time>2021-02-28T11:31:07Z</time>
      </trkpt>
      <trkpt lat="45.05589" lon="6.47981">
        <ele>2781.8</ele>
        <time>2021-02-28T11:31:08Z</time>
      </trkpt>
      <trkpt lat="45.05589" lon="6.47981">
        <ele>2781.8</ele>
        <time>2021-02-28T11:31:09Z</time>
      </trkpt>
      <trkpt lat="45.05589" lon="6.47981">
        <ele>2782</ele>
        <time>2021-02-28T11:31:10Z</time>
      </trkpt>
      <trkpt lat="45.05589" lon="6.47981">
        <ele>2782</ele>
        <time>2021-02-28T11:31:11Z</time>
      </trkpt>
      <trkpt lat="45.05589" lon="6.47981">
        <ele>2782</ele>
        <time>2021-02-28T11:31:12Z</time>
      </trkpt>
      <trkpt lat="45.05589" lon="6.47981">
        <ele>2782</ele>
        <time>2021-02-28T11:31:13Z</time>
      </trkpt>
      <trkpt lat="45.05589" lon="6.47981">
        <ele>2782</ele>
        <time>2021-02-28T11:31:14Z</time>
      </trkpt>
      <trkpt lat="45.05589" lon="6.47981">
        <ele>2782</ele>
        <time>2021-02-28T11:31:15Z</time>
      </trkpt>
      <trkpt lat="45.05589" lon="6.47981">
        <ele>2782.2</ele>
        <time>2021-02-28T11:31:16Z</time>
      </trkpt>
      <trkpt lat="45.05589" lon="6.47981">
        <ele>2782.2</ele>
        <time>2021-02-28T11:31:17Z</time>
      </trkpt>
      <trkpt lat="45.05589" lon="6.47981">
        <ele>2782.2</ele>
        <time>2021-02-28T11:31:18Z</time>
      </trkpt>
      <trkpt lat="45.05589" lon="6.47981">
        <ele>2782.2</ele>
        <time>2021-02-28T11:31:19Z</time>
      </trkpt>
      <trkpt lat="45.05589" lon="6.47981">
        <ele>2782.4</ele>
        <time>2021-02-28T11:31:20Z</time>
      </trkpt>
      <trkpt lat="45.05589" lon="6.47981">
        <ele>2782.2</ele>
        <time>2021-02-28T11:31:21Z</time>
      </trkpt>
      <trkpt lat="45.05589" lon="6.47981">
        <ele>2782.4</ele>
        <time>2021-02-28T11:31:22Z</time>
      </trkpt>
      <trkpt lat="45.05589" lon="6.47981">
        <ele>2782.8</ele>
        <time>2021-02-28T11:31:23Z</time>
      </trkpt>
      <trkpt lat="45.05591" lon="6.47982">
        <ele>2783.4</ele>
        <time>2021-02-28T11:31:24Z</time>
      </trkpt>
      <trkpt lat="45.05591" lon="6.47982">
        <ele>2783.6</ele>
        <time>2021-02-28T11:31:25Z</time>
      </trkpt>
      <trkpt lat="45.05592" lon="6.47985">
        <ele>2784</ele>
        <time>2021-02-28T11:31:26Z</time>
      </trkpt>
      <trkpt lat="45.05593" lon="6.47988">
        <ele>2783.8</ele>
        <time>2021-02-28T11:31:27Z</time>
      </trkpt>
      <trkpt lat="45.05593" lon="6.47988">
        <ele>2784</ele>
        <time>2021-02-28T11:31:28Z</time>
      </trkpt>
      <trkpt lat="45.05594" lon="6.47992">
        <ele>2783.6</ele>
        <time>2021-02-28T11:31:29Z</time>
      </trkpt>
      <trkpt lat="45.05594" lon="6.47992">
        <ele>2784.8</ele>
        <time>2021-02-28T11:31:30Z</time>
      </trkpt>
      <trkpt lat="45.05594" lon="6.47992">
        <ele>2783.8</ele>
        <time>2021-02-28T11:31:31Z</time>
      </trkpt>
      <trkpt lat="45.05592" lon="6.47993">
        <ele>2783.2</ele>
        <time>2021-02-28T11:31:32Z</time>
      </trkpt>
      <trkpt lat="45.05592" lon="6.47993">
        <ele>2782.8</ele>
        <time>2021-02-28T11:31:33Z</time>
      </trkpt>
      <trkpt lat="45.05592" lon="6.47993">
        <ele>2782.4</ele>
        <time>2021-02-28T11:31:34Z</time>
      </trkpt>
      <trkpt lat="45.05592" lon="6.47993">
        <ele>2782.4</ele>
        <time>2021-02-28T11:31:35Z</time>
      </trkpt>
      <trkpt lat="45.05592" lon="6.47993">
        <ele>2782.6</ele>
        <time>2021-02-28T11:31:36Z</time>
      </trkpt>
      <trkpt lat="45.05592" lon="6.47993">
        <ele>2782</ele>
        <time>2021-02-28T11:31:37Z</time>
      </trkpt>
      <trkpt lat="45.05592" lon="6.47993">
        <ele>2781.6</ele>
        <time>2021-02-28T11:31:38Z</time>
      </trkpt>
      <trkpt lat="45.05592" lon="6.47993">
        <ele>2781.4</ele>
        <time>2021-02-28T11:31:39Z</time>
      </trkpt>
      <trkpt lat="45.05592" lon="6.47993">
        <ele>2780.8</ele>
        <time>2021-02-28T11:31:40Z</time>
      </trkpt>
      <trkpt lat="45.05592" lon="6.47993">
        <ele>2781.2</ele>
        <time>2021-02-28T11:31:41Z</time>
      </trkpt>
      <trkpt lat="45.05592" lon="6.47993">
        <ele>2782.8</ele>
        <time>2021-02-28T11:31:42Z</time>
      </trkpt>
      <trkpt lat="45.05592" lon="6.47993">
        <ele>2782.6</ele>
        <time>2021-02-28T11:31:43Z</time>
      </trkpt>
      <trkpt lat="45.05592" lon="6.47993">
        <ele>2782.6</ele>
        <time>2021-02-28T11:31:44Z</time>
      </trkpt>
      <trkpt lat="45.05592" lon="6.47993">
        <ele>2782</ele>
        <time>2021-02-28T11:31:45Z</time>
      </trkpt>
      <trkpt lat="45.05592" lon="6.47993">
        <ele>2782.6</ele>
        <time>2021-02-28T11:31:46Z</time>
      </trkpt>
      <trkpt lat="45.05592" lon="6.47993">
        <ele>2782</ele>
        <time>2021-02-28T11:31:47Z</time>
      </trkpt>
      <trkpt lat="45.05592" lon="6.47993">
        <ele>2781.4</ele>
        <time>2021-02-28T11:31:48Z</time>
      </trkpt>
      <trkpt lat="45.05592" lon="6.47993">
        <ele>2782.4</ele>
        <time>2021-02-28T11:31:49Z</time>
      </trkpt>
      <trkpt lat="45.05592" lon="6.47993">
        <ele>2782.6</ele>
        <time>2021-02-28T11:31:50Z</time>
      </trkpt>
      <trkpt lat="45.05592" lon="6.47993">
        <ele>2782.6</ele>
        <time>2021-02-28T11:31:51Z</time>
      </trkpt>
      <trkpt lat="45.05592" lon="6.47993">
        <ele>2780.8</ele>
        <time>2021-02-28T11:31:52Z</time>
      </trkpt>
      <trkpt lat="45.05592" lon="6.47993">
        <ele>2780</ele>
        <time>2021-02-28T11:31:53Z</time>
      </trkpt>
      <trkpt lat="45.05592" lon="6.47993">
        <ele>2780.4</ele>
        <time>2021-02-28T11:31:54Z</time>
      </trkpt>
      <trkpt lat="45.05592" lon="6.47993">
        <ele>2780.2</ele>
        <time>2021-02-28T11:31:55Z</time>
      </trkpt>
      <trkpt lat="45.05592" lon="6.47993">
        <ele>2780.4</ele>
        <time>2021-02-28T11:31:56Z</time>
      </trkpt>
      <trkpt lat="45.05592" lon="6.47993">
        <ele>2779.8</ele>
        <time>2021-02-28T11:31:57Z</time>
      </trkpt>
      <trkpt lat="45.05592" lon="6.47993">
        <ele>2778</ele>
        <time>2021-02-28T11:31:58Z</time>
      </trkpt>
      <trkpt lat="45.05592" lon="6.47993">
        <ele>2779</ele>
        <time>2021-02-28T11:31:59Z</time>
      </trkpt>
      <trkpt lat="45.05592" lon="6.47993">
        <ele>2779.2</ele>
        <time>2021-02-28T11:32:00Z</time>
      </trkpt>
      <trkpt lat="45.05592" lon="6.47993">
        <ele>2779.2</ele>
        <time>2021-02-28T11:32:01Z</time>
      </trkpt>
      <trkpt lat="45.05592" lon="6.47993">
        <ele>2780</ele>
        <time>2021-02-28T11:32:02Z</time>
      </trkpt>
      <trkpt lat="45.05592" lon="6.47993">
        <ele>2781</ele>
        <time>2021-02-28T11:32:03Z</time>
      </trkpt>
      <trkpt lat="45.05592" lon="6.47993">
        <ele>2782.6</ele>
        <time>2021-02-28T11:32:04Z</time>
      </trkpt>
      <trkpt lat="45.05592" lon="6.47993">
        <ele>2783</ele>
        <time>2021-02-28T11:32:05Z</time>
      </trkpt>
      <trkpt lat="45.05592" lon="6.47993">
        <ele>2783.2</ele>
        <time>2021-02-28T11:32:06Z</time>
      </trkpt>
      <trkpt lat="45.05592" lon="6.47993">
        <ele>2782.8</ele>
        <time>2021-02-28T11:32:07Z</time>
      </trkpt>
      <trkpt lat="45.05592" lon="6.47993">
        <ele>2783.6</ele>
        <time>2021-02-28T11:32:08Z</time>
      </trkpt>
      <trkpt lat="45.05592" lon="6.47993">
        <ele>2784</ele>
        <time>2021-02-28T11:32:09Z</time>
      </trkpt>
      <trkpt lat="45.05592" lon="6.47993">
        <ele>2784.4</ele>
        <time>2021-02-28T11:32:10Z</time>
      </trkpt>
      <trkpt lat="45.05592" lon="6.47993">
        <ele>2784.6</ele>
        <time>2021-02-28T11:32:11Z</time>
      </trkpt>
      <trkpt lat="45.05592" lon="6.47993">
        <ele>2785.4</ele>
        <time>2021-02-28T11:32:12Z</time>
      </trkpt>
      <trkpt lat="45.05592" lon="6.47993">
        <ele>2785.6</ele>
        <time>2021-02-28T11:32:13Z</time>
      </trkpt>
      <trkpt lat="45.05592" lon="6.47993">
        <ele>2785.2</ele>
        <time>2021-02-28T11:32:14Z</time>
      </trkpt>
      <trkpt lat="45.05592" lon="6.47993">
        <ele>2785.2</ele>
        <time>2021-02-28T11:32:15Z</time>
      </trkpt>
      <trkpt lat="45.05592" lon="6.47993">
        <ele>2784.8</ele>
        <time>2021-02-28T11:32:16Z</time>
      </trkpt>
      <trkpt lat="45.05592" lon="6.47993">
        <ele>2783</ele>
        <time>2021-02-28T11:32:17Z</time>
      </trkpt>
      <trkpt lat="45.05592" lon="6.47993">
        <ele>2782</ele>
        <time>2021-02-28T11:32:18Z</time>
      </trkpt>
      <trkpt lat="45.05592" lon="6.47993">
        <ele>2781.8</ele>
        <time>2021-02-28T11:32:19Z</time>
      </trkpt>
      <trkpt lat="45.05592" lon="6.47993">
        <ele>2781.8</ele>
        <time>2021-02-28T11:32:20Z</time>
      </trkpt>
      <trkpt lat="45.05592" lon="6.47993">
        <ele>2781.8</ele>
        <time>2021-02-28T11:32:21Z</time>
      </trkpt>
      <trkpt lat="45.05592" lon="6.47993">
        <ele>2782</ele>
        <time>2021-02-28T11:32:22Z</time>
      </trkpt>
      <trkpt lat="45.05592" lon="6.47993">
        <ele>2782</ele>
        <time>2021-02-28T11:32:23Z</time>
      </trkpt>
      <trkpt lat="45.05592" lon="6.47993">
        <ele>2780.6</ele>
        <time>2021-02-28T11:32:24Z</time>
      </trkpt>
      <trkpt lat="45.05592" lon="6.47993">
        <ele>2780.6</ele>
        <time>2021-02-28T11:32:25Z</time>
      </trkpt>
      <trkpt lat="45.05592" lon="6.47993">
        <ele>2780</ele>
        <time>2021-02-28T11:32:26Z</time>
      </trkpt>
      <trkpt lat="45.05592" lon="6.47993">
        <ele>2779.4</ele>
        <time>2021-02-28T11:32:27Z</time>
      </trkpt>
      <trkpt lat="45.05592" lon="6.47993">
        <ele>2778.4</ele>
        <time>2021-02-28T11:32:28Z</time>
      </trkpt>
      <trkpt lat="45.05592" lon="6.47993">
        <ele>2777.8</ele>
        <time>2021-02-28T11:32:29Z</time>
      </trkpt>
      <trkpt lat="45.05592" lon="6.47993">
        <ele>2777.4</ele>
        <time>2021-02-28T11:32:30Z</time>
      </trkpt>
      <trkpt lat="45.05592" lon="6.47993">
        <ele>2778.4</ele>
        <time>2021-02-28T11:32:31Z</time>
      </trkpt>
      <trkpt lat="45.05592" lon="6.47993">
        <ele>2778.8</ele>
        <time>2021-02-28T11:32:32Z</time>
      </trkpt>
      <trkpt lat="45.05592" lon="6.47993">
        <ele>2780.8</ele>
        <time>2021-02-28T11:32:33Z</time>
      </trkpt>
      <trkpt lat="45.05592" lon="6.47993">
        <ele>2781.4</ele>
        <time>2021-02-28T11:32:34Z</time>
      </trkpt>
      <trkpt lat="45.05592" lon="6.47993">
        <ele>2780.6</ele>
        <time>2021-02-28T11:32:35Z</time>
      </trkpt>
      <trkpt lat="45.05592" lon="6.47993">
        <ele>2780.4</ele>
        <time>2021-02-28T11:32:36Z</time>
      </trkpt>
      <trkpt lat="45.05592" lon="6.47993">
        <ele>2780.2</ele>
        <time>2021-02-28T11:32:37Z</time>
      </trkpt>
      <trkpt lat="45.05592" lon="6.47993">
        <ele>2780.8</ele>
        <time>2021-02-28T11:32:38Z</time>
      </trkpt>
      <trkpt lat="45.05592" lon="6.47993">
        <ele>2780.6</ele>
        <time>2021-02-28T11:32:39Z</time>
      </trkpt>
      <trkpt lat="45.05592" lon="6.47993">
        <ele>2780.2</ele>
        <time>2021-02-28T11:32:40Z</time>
      </trkpt>
      <trkpt lat="45.05592" lon="6.47993">
        <ele>2780.4</ele>
        <time>2021-02-28T11:32:41Z</time>
      </trkpt>
      <trkpt lat="45.05592" lon="6.47993">
        <ele>2781.2</ele>
        <time>2021-02-28T11:32:42Z</time>
      </trkpt>
      <trkpt lat="45.05592" lon="6.47993">
        <ele>2781.4</ele>
        <time>2021-02-28T11:32:43Z</time>
      </trkpt>
      <trkpt lat="45.05592" lon="6.47993">
        <ele>2780.6</ele>
        <time>2021-02-28T11:32:44Z</time>
      </trkpt>
      <trkpt lat="45.05594" lon="6.47993">
        <ele>2780.8</ele>
        <time>2021-02-28T11:32:45Z</time>
      </trkpt>
      <trkpt lat="45.05594" lon="6.47993">
        <ele>2780.4</ele>
        <time>2021-02-28T11:32:46Z</time>
      </trkpt>
      <trkpt lat="45.05594" lon="6.47993">
        <ele>2780.8</ele>
        <time>2021-02-28T11:32:47Z</time>
      </trkpt>
      <trkpt lat="45.05594" lon="6.47993">
        <ele>2780.6</ele>
        <time>2021-02-28T11:32:48Z</time>
      </trkpt>
      <trkpt lat="45.05594" lon="6.47993">
        <ele>2781.2</ele>
        <time>2021-02-28T11:32:49Z</time>
      </trkpt>
      <trkpt lat="45.05594" lon="6.47993">
        <ele>2781.2</ele>
        <time>2021-02-28T11:32:50Z</time>
      </trkpt>
      <trkpt lat="45.05594" lon="6.47993">
        <ele>2781.4</ele>
        <time>2021-02-28T11:32:51Z</time>
      </trkpt>
      <trkpt lat="45.05594" lon="6.47993">
        <ele>2781.6</ele>
        <time>2021-02-28T11:32:52Z</time>
      </trkpt>
      <trkpt lat="45.05594" lon="6.47993">
        <ele>2781.4</ele>
        <time>2021-02-28T11:32:53Z</time>
      </trkpt>
      <trkpt lat="45.05594" lon="6.47993">
        <ele>2781.2</ele>
        <time>2021-02-28T11:32:54Z</time>
      </trkpt>
      <trkpt lat="45.05594" lon="6.47993">
        <ele>2782</ele>
        <time>2021-02-28T11:32:55Z</time>
      </trkpt>
      <trkpt lat="45.05593" lon="6.47995">
        <ele>2782.2</ele>
        <time>2021-02-28T11:32:56Z</time>
      </trkpt>
      <trkpt lat="45.05593" lon="6.47995">
        <ele>2782.4</ele>
        <time>2021-02-28T11:32:57Z</time>
      </trkpt>
      <trkpt lat="45.05593" lon="6.47995">
        <ele>2783</ele>
        <time>2021-02-28T11:32:58Z</time>
      </trkpt>
      <trkpt lat="45.05593" lon="6.47995">
        <ele>2783.8</ele>
        <time>2021-02-28T11:32:59Z</time>
      </trkpt>
      <trkpt lat="45.05591" lon="6.47996">
        <ele>2782.4</ele>
        <time>2021-02-28T11:33:00Z</time>
      </trkpt>
      <trkpt lat="45.05589" lon="6.47996">
        <ele>2781.8</ele>
        <time>2021-02-28T11:33:01Z</time>
      </trkpt>
      <trkpt lat="45.05586" lon="6.47996">
        <ele>2781.2</ele>
        <time>2021-02-28T11:33:02Z</time>
      </trkpt>
      <trkpt lat="45.05582" lon="6.47995">
        <ele>2780</ele>
        <time>2021-02-28T11:33:03Z</time>
      </trkpt>
      <trkpt lat="45.05579" lon="6.47995">
        <ele>2778.8</ele>
        <time>2021-02-28T11:33:04Z</time>
      </trkpt>
      <trkpt lat="45.05576" lon="6.47997">
        <ele>2777.8</ele>
        <time>2021-02-28T11:33:05Z</time>
      </trkpt>
      <trkpt lat="45.05574" lon="6.48002">
        <ele>2776</ele>
        <time>2021-02-28T11:33:06Z</time>
      </trkpt>
      <trkpt lat="45.05574" lon="6.4801">
        <ele>2773.8</ele>
        <time>2021-02-28T11:33:07Z</time>
      </trkpt>
      <trkpt lat="45.05574" lon="6.4802">
        <ele>2772.2</ele>
        <time>2021-02-28T11:33:08Z</time>
      </trkpt>
      <trkpt lat="45.05574" lon="6.4802">
        <ele>2770</ele>
        <time>2021-02-28T11:33:09Z</time>
      </trkpt>
      <trkpt lat="45.05574" lon="6.4802">
        <ele>2767.6</ele>
        <time>2021-02-28T11:33:10Z</time>
      </trkpt>
      <trkpt lat="45.05563" lon="6.48028">
        <ele>2765.6</ele>
        <time>2021-02-28T11:33:11Z</time>
      </trkpt>
      <trkpt lat="45.05562" lon="6.48031">
        <ele>2763.6</ele>
        <time>2021-02-28T11:33:12Z</time>
      </trkpt>
      <trkpt lat="45.05562" lon="6.48035">
        <ele>2761.6</ele>
        <time>2021-02-28T11:33:13Z</time>
      </trkpt>
      <trkpt lat="45.05563" lon="6.48042">
        <ele>2759.4</ele>
        <time>2021-02-28T11:33:14Z</time>
      </trkpt>
      <trkpt lat="45.05561" lon="6.48042">
        <ele>2757</ele>
        <time>2021-02-28T11:33:15Z</time>
      </trkpt>
      <trkpt lat="45.05558" lon="6.48042">
        <ele>2755</ele>
        <time>2021-02-28T11:33:16Z</time>
      </trkpt>
      <trkpt lat="45.05551" lon="6.48042">
        <ele>2753.4</ele>
        <time>2021-02-28T11:33:17Z</time>
      </trkpt>
      <trkpt lat="45.05548" lon="6.48042">
        <ele>2751.2</ele>
        <time>2021-02-28T11:33:18Z</time>
      </trkpt>
      <trkpt lat="45.05546" lon="6.48042">
        <ele>2749.6</ele>
        <time>2021-02-28T11:33:19Z</time>
      </trkpt>
      <trkpt lat="45.05547" lon="6.48048">
        <ele>2747.4</ele>
        <time>2021-02-28T11:33:20Z</time>
      </trkpt>
      <trkpt lat="45.05547" lon="6.48048">
        <ele>2744.8</ele>
        <time>2021-02-28T11:33:21Z</time>
      </trkpt>
      <trkpt lat="45.05543" lon="6.4806">
        <ele>2742.2</ele>
        <time>2021-02-28T11:33:22Z</time>
      </trkpt>
      <trkpt lat="45.05536" lon="6.48057">
        <ele>2739.8</ele>
        <time>2021-02-28T11:33:23Z</time>
      </trkpt>
      <trkpt lat="45.05528" lon="6.48054">
        <ele>2736.8</ele>
        <time>2021-02-28T11:33:24Z</time>
      </trkpt>
      <trkpt lat="45.05525" lon="6.48051">
        <ele>2735</ele>
        <time>2021-02-28T11:33:25Z</time>
      </trkpt>
      <trkpt lat="45.05521" lon="6.48048">
        <ele>2733</ele>
        <time>2021-02-28T11:33:26Z</time>
      </trkpt>
      <trkpt lat="45.05512" lon="6.48046">
        <ele>2731</ele>
        <time>2021-02-28T11:33:27Z</time>
      </trkpt>
      <trkpt lat="45.05511" lon="6.48049">
        <ele>2730.4</ele>
        <time>2021-02-28T11:33:28Z</time>
      </trkpt>
      <trkpt lat="45.0551" lon="6.48055">
        <ele>2728</ele>
        <time>2021-02-28T11:33:29Z</time>
      </trkpt>
      <trkpt lat="45.0551" lon="6.48055">
        <ele>2725.6</ele>
        <time>2021-02-28T11:33:30Z</time>
      </trkpt>
      <trkpt lat="45.05498" lon="6.48058">
        <ele>2722.8</ele>
        <time>2021-02-28T11:33:31Z</time>
      </trkpt>
      <trkpt lat="45.05496" lon="6.48055">
        <ele>2720.2</ele>
        <time>2021-02-28T11:33:32Z</time>
      </trkpt>
      <trkpt lat="45.05494" lon="6.48052">
        <ele>2717</ele>
        <time>2021-02-28T11:33:33Z</time>
      </trkpt>
      <trkpt lat="45.05489" lon="6.48043">
        <ele>2714.2</ele>
        <time>2021-02-28T11:33:34Z</time>
      </trkpt>
      <trkpt lat="45.05489" lon="6.48042">
        <ele>2713.2</ele>
        <time>2021-02-28T11:33:35Z</time>
      </trkpt>
      <trkpt lat="45.05489" lon="6.4804">
        <ele>2712</ele>
        <time>2021-02-28T11:33:36Z</time>
      </trkpt>
      <trkpt lat="45.0549" lon="6.48041">
        <ele>2710.8</ele>
        <time>2021-02-28T11:33:37Z</time>
      </trkpt>
      <trkpt lat="45.0549" lon="6.48041">
        <ele>2710</ele>
        <time>2021-02-28T11:33:38Z</time>
      </trkpt>
      <trkpt lat="45.0549" lon="6.48041">
        <ele>2709.4</ele>
        <time>2021-02-28T11:33:39Z</time>
      </trkpt>
      <trkpt lat="45.0549" lon="6.48041">
        <ele>2709</ele>
        <time>2021-02-28T11:33:40Z</time>
      </trkpt>
      <trkpt lat="45.0549" lon="6.48041">
        <ele>2709</ele>
        <time>2021-02-28T11:33:41Z</time>
      </trkpt>
      <trkpt lat="45.0549" lon="6.48041">
        <ele>2708.6</ele>
        <time>2021-02-28T11:33:42Z</time>
      </trkpt>
      <trkpt lat="45.0549" lon="6.48041">
        <ele>2708.6</ele>
        <time>2021-02-28T11:33:43Z</time>
      </trkpt>
      <trkpt lat="45.0549" lon="6.48041">
        <ele>2708.4</ele>
        <time>2021-02-28T11:33:44Z</time>
      </trkpt>
      <trkpt lat="45.0549" lon="6.48041">
        <ele>2708.4</ele>
        <time>2021-02-28T11:33:45Z</time>
      </trkpt>
      <trkpt lat="45.0549" lon="6.48041">
        <ele>2708.4</ele>
        <time>2021-02-28T11:33:46Z</time>
      </trkpt>
      <trkpt lat="45.0549" lon="6.48041">
        <ele>2708.4</ele>
        <time>2021-02-28T11:33:47Z</time>
      </trkpt>
      <trkpt lat="45.0549" lon="6.48041">
        <ele>2708.2</ele>
        <time>2021-02-28T11:33:48Z</time>
      </trkpt>
      <trkpt lat="45.0549" lon="6.48041">
        <ele>2708.2</ele>
        <time>2021-02-28T11:33:49Z</time>
      </trkpt>
      <trkpt lat="45.0549" lon="6.48041">
        <ele>2708.2</ele>
        <time>2021-02-28T11:33:50Z</time>
      </trkpt>
      <trkpt lat="45.0549" lon="6.48041">
        <ele>2708</ele>
        <time>2021-02-28T11:33:51Z</time>
      </trkpt>
      <trkpt lat="45.0549" lon="6.48041">
        <ele>2708</ele>
        <time>2021-02-28T11:33:52Z</time>
      </trkpt>
      <trkpt lat="45.0549" lon="6.48041">
        <ele>2708</ele>
        <time>2021-02-28T11:33:53Z</time>
      </trkpt>
      <trkpt lat="45.0549" lon="6.48041">
        <ele>2708</ele>
        <time>2021-02-28T11:33:54Z</time>
      </trkpt>
      <trkpt lat="45.0549" lon="6.48041">
        <ele>2707.8</ele>
        <time>2021-02-28T11:33:55Z</time>
      </trkpt>
      <trkpt lat="45.0549" lon="6.48041">
        <ele>2708</ele>
        <time>2021-02-28T11:33:56Z</time>
      </trkpt>
      <trkpt lat="45.0549" lon="6.48041">
        <ele>2708</ele>
        <time>2021-02-28T11:33:57Z</time>
      </trkpt>
      <trkpt lat="45.0549" lon="6.48041">
        <ele>2707.8</ele>
        <time>2021-02-28T11:33:58Z</time>
      </trkpt>
      <trkpt lat="45.0549" lon="6.48041">
        <ele>2707.2</ele>
        <time>2021-02-28T11:33:59Z</time>
      </trkpt>
      <trkpt lat="45.0549" lon="6.48041">
        <ele>2707</ele>
        <time>2021-02-28T11:34:00Z</time>
      </trkpt>
      <trkpt lat="45.0549" lon="6.48041">
        <ele>2707.2</ele>
        <time>2021-02-28T11:34:01Z</time>
      </trkpt>
      <trkpt lat="45.0549" lon="6.48041">
        <ele>2707.4</ele>
        <time>2021-02-28T11:34:02Z</time>
      </trkpt>
      <trkpt lat="45.0549" lon="6.48041">
        <ele>2707.4</ele>
        <time>2021-02-28T11:34:03Z</time>
      </trkpt>
      <trkpt lat="45.0549" lon="6.48041">
        <ele>2707.6</ele>
        <time>2021-02-28T11:34:04Z</time>
      </trkpt>
      <trkpt lat="45.0549" lon="6.48041">
        <ele>2708</ele>
        <time>2021-02-28T11:34:05Z</time>
      </trkpt>
      <trkpt lat="45.0549" lon="6.48041">
        <ele>2708.2</ele>
        <time>2021-02-28T11:34:06Z</time>
      </trkpt>
      <trkpt lat="45.0549" lon="6.48041">
        <ele>2707.6</ele>
        <time>2021-02-28T11:34:07Z</time>
      </trkpt>
      <trkpt lat="45.0549" lon="6.48041">
        <ele>2708</ele>
        <time>2021-02-28T11:34:08Z</time>
      </trkpt>
      <trkpt lat="45.0549" lon="6.48041">
        <ele>2708</ele>
        <time>2021-02-28T11:34:09Z</time>
      </trkpt>
      <trkpt lat="45.0549" lon="6.48041">
        <ele>2707.6</ele>
        <time>2021-02-28T11:34:10Z</time>
      </trkpt>
      <trkpt lat="45.0549" lon="6.48041">
        <ele>2707.2</ele>
        <time>2021-02-28T11:34:11Z</time>
      </trkpt>
      <trkpt lat="45.0549" lon="6.48041">
        <ele>2707</ele>
        <time>2021-02-28T11:34:12Z</time>
      </trkpt>
      <trkpt lat="45.0549" lon="6.48041">
        <ele>2706.6</ele>
        <time>2021-02-28T11:34:13Z</time>
      </trkpt>
      <trkpt lat="45.05489" lon="6.48038">
        <ele>2706.6</ele>
        <time>2021-02-28T11:34:14Z</time>
      </trkpt>
      <trkpt lat="45.05489" lon="6.48038">
        <ele>2706.8</ele>
        <time>2021-02-28T11:34:15Z</time>
      </trkpt>
      <trkpt lat="45.05489" lon="6.48038">
        <ele>2707</ele>
        <time>2021-02-28T11:34:16Z</time>
      </trkpt>
      <trkpt lat="45.05489" lon="6.48038">
        <ele>2707</ele>
        <time>2021-02-28T11:34:17Z</time>
      </trkpt>
      <trkpt lat="45.05489" lon="6.48038">
        <ele>2707</ele>
        <time>2021-02-28T11:34:18Z</time>
      </trkpt>
      <trkpt lat="45.05489" lon="6.48038">
        <ele>2707</ele>
        <time>2021-02-28T11:34:19Z</time>
      </trkpt>
      <trkpt lat="45.05489" lon="6.48038">
        <ele>2707</ele>
        <time>2021-02-28T11:34:20Z</time>
      </trkpt>
      <trkpt lat="45.05489" lon="6.48038">
        <ele>2706.8</ele>
        <time>2021-02-28T11:34:21Z</time>
      </trkpt>
      <trkpt lat="45.05489" lon="6.48038">
        <ele>2706.8</ele>
        <time>2021-02-28T11:34:22Z</time>
      </trkpt>
      <trkpt lat="45.05489" lon="6.48038">
        <ele>2706.6</ele>
        <time>2021-02-28T11:34:23Z</time>
      </trkpt>
      <trkpt lat="45.05489" lon="6.48038">
        <ele>2706.8</ele>
        <time>2021-02-28T11:34:24Z</time>
      </trkpt>
      <trkpt lat="45.05489" lon="6.48038">
        <ele>2706.8</ele>
        <time>2021-02-28T11:34:25Z</time>
      </trkpt>
      <trkpt lat="45.05489" lon="6.48038">
        <ele>2706.6</ele>
        <time>2021-02-28T11:34:26Z</time>
      </trkpt>
      <trkpt lat="45.05489" lon="6.48038">
        <ele>2706.4</ele>
        <time>2021-02-28T11:34:27Z</time>
      </trkpt>
      <trkpt lat="45.05489" lon="6.48038">
        <ele>2706.6</ele>
        <time>2021-02-28T11:34:28Z</time>
      </trkpt>
      <trkpt lat="45.05489" lon="6.48038">
        <ele>2706.6</ele>
        <time>2021-02-28T11:34:29Z</time>
      </trkpt>
      <trkpt lat="45.05489" lon="6.48038">
        <ele>2706.6</ele>
        <time>2021-02-28T11:34:30Z</time>
      </trkpt>
      <trkpt lat="45.05489" lon="6.48038">
        <ele>2706.2</ele>
        <time>2021-02-28T11:34:31Z</time>
      </trkpt>
      <trkpt lat="45.05489" lon="6.48038">
        <ele>2706.2</ele>
        <time>2021-02-28T11:34:32Z</time>
      </trkpt>
      <trkpt lat="45.05489" lon="6.48038">
        <ele>2706.4</ele>
        <time>2021-02-28T11:34:33Z</time>
      </trkpt>
      <trkpt lat="45.05489" lon="6.48038">
        <ele>2706.4</ele>
        <time>2021-02-28T11:34:34Z</time>
      </trkpt>
      <trkpt lat="45.05489" lon="6.48038">
        <ele>2706.2</ele>
        <time>2021-02-28T11:34:35Z</time>
      </trkpt>
      <trkpt lat="45.05489" lon="6.48038">
        <ele>2706.4</ele>
        <time>2021-02-28T11:34:36Z</time>
      </trkpt>
      <trkpt lat="45.05489" lon="6.48038">
        <ele>2706.4</ele>
        <time>2021-02-28T11:34:37Z</time>
      </trkpt>
      <trkpt lat="45.05489" lon="6.48038">
        <ele>2706.2</ele>
        <time>2021-02-28T11:34:38Z</time>
      </trkpt>
      <trkpt lat="45.05489" lon="6.48038">
        <ele>2706.4</ele>
        <time>2021-02-28T11:34:39Z</time>
      </trkpt>
      <trkpt lat="45.05489" lon="6.48038">
        <ele>2706.4</ele>
        <time>2021-02-28T11:34:40Z</time>
      </trkpt>
      <trkpt lat="45.05489" lon="6.48038">
        <ele>2706.4</ele>
        <time>2021-02-28T11:34:41Z</time>
      </trkpt>
      <trkpt lat="45.05489" lon="6.48038">
        <ele>2706.4</ele>
        <time>2021-02-28T11:34:42Z</time>
      </trkpt>
      <trkpt lat="45.05489" lon="6.48038">
        <ele>2706.4</ele>
        <time>2021-02-28T11:34:43Z</time>
      </trkpt>
      <trkpt lat="45.05489" lon="6.48038">
        <ele>2706.2</ele>
        <time>2021-02-28T11:34:44Z</time>
      </trkpt>
      <trkpt lat="45.05489" lon="6.48038">
        <ele>2706.2</ele>
        <time>2021-02-28T11:34:45Z</time>
      </trkpt>
      <trkpt lat="45.05489" lon="6.48038">
        <ele>2706</ele>
        <time>2021-02-28T11:34:46Z</time>
      </trkpt>
      <trkpt lat="45.05489" lon="6.48038">
        <ele>2706.2</ele>
        <time>2021-02-28T11:34:47Z</time>
      </trkpt>
      <trkpt lat="45.05489" lon="6.48038">
        <ele>2706.2</ele>
        <time>2021-02-28T11:34:48Z</time>
      </trkpt>
      <trkpt lat="45.05489" lon="6.48038">
        <ele>2706</ele>
        <time>2021-02-28T11:34:49Z</time>
      </trkpt>
      <trkpt lat="45.05489" lon="6.48038">
        <ele>2705.8</ele>
        <time>2021-02-28T11:34:50Z</time>
      </trkpt>
      <trkpt lat="45.05489" lon="6.48038">
        <ele>2705</ele>
        <time>2021-02-28T11:34:51Z</time>
      </trkpt>
      <trkpt lat="45.05489" lon="6.48038">
        <ele>2705.6</ele>
        <time>2021-02-28T11:34:52Z</time>
      </trkpt>
      <trkpt lat="45.05489" lon="6.48038">
        <ele>2705.6</ele>
        <time>2021-02-28T11:34:53Z</time>
      </trkpt>
      <trkpt lat="45.05489" lon="6.48038">
        <ele>2705.8</ele>
        <time>2021-02-28T11:34:54Z</time>
      </trkpt>
      <trkpt lat="45.05489" lon="6.48038">
        <ele>2705.6</ele>
        <time>2021-02-28T11:34:55Z</time>
      </trkpt>
      <trkpt lat="45.05489" lon="6.48038">
        <ele>2705.4</ele>
        <time>2021-02-28T11:34:56Z</time>
      </trkpt>
      <trkpt lat="45.05489" lon="6.48038">
        <ele>2705.8</ele>
        <time>2021-02-28T11:34:57Z</time>
      </trkpt>
      <trkpt lat="45.05489" lon="6.48038">
        <ele>2705.6</ele>
        <time>2021-02-28T11:34:58Z</time>
      </trkpt>
      <trkpt lat="45.05489" lon="6.48038">
        <ele>2706.2</ele>
        <time>2021-02-28T11:34:59Z</time>
      </trkpt>
      <trkpt lat="45.05489" lon="6.48038">
        <ele>2706</ele>
        <time>2021-02-28T11:35:00Z</time>
      </trkpt>
      <trkpt lat="45.05489" lon="6.48038">
        <ele>2705.8</ele>
        <time>2021-02-28T11:35:01Z</time>
      </trkpt>
      <trkpt lat="45.05489" lon="6.48038">
        <ele>2705.6</ele>
        <time>2021-02-28T11:35:02Z</time>
      </trkpt>
      <trkpt lat="45.05489" lon="6.48038">
        <ele>2705.8</ele>
        <time>2021-02-28T11:35:03Z</time>
      </trkpt>
      <trkpt lat="45.05489" lon="6.48038">
        <ele>2705.4</ele>
        <time>2021-02-28T11:35:04Z</time>
      </trkpt>
      <trkpt lat="45.05489" lon="6.48038">
        <ele>2705.4</ele>
        <time>2021-02-28T11:35:05Z</time>
      </trkpt>
      <trkpt lat="45.05489" lon="6.48038">
        <ele>2705.8</ele>
        <time>2021-02-28T11:35:06Z</time>
      </trkpt>
      <trkpt lat="45.05489" lon="6.48038">
        <ele>2705.4</ele>
        <time>2021-02-28T11:35:07Z</time>
      </trkpt>
      <trkpt lat="45.05489" lon="6.48038">
        <ele>2705</ele>
        <time>2021-02-28T11:35:08Z</time>
      </trkpt>
      <trkpt lat="45.05489" lon="6.48038">
        <ele>2704.8</ele>
        <time>2021-02-28T11:35:09Z</time>
      </trkpt>
      <trkpt lat="45.05489" lon="6.48038">
        <ele>2704.6</ele>
        <time>2021-02-28T11:35:10Z</time>
      </trkpt>
      <trkpt lat="45.05489" lon="6.48038">
        <ele>2704.4</ele>
        <time>2021-02-28T11:35:11Z</time>
      </trkpt>
      <trkpt lat="45.05489" lon="6.48038">
        <ele>2704.2</ele>
        <time>2021-02-28T11:35:12Z</time>
      </trkpt>
      <trkpt lat="45.05489" lon="6.48038">
        <ele>2704</ele>
        <time>2021-02-28T11:35:13Z</time>
      </trkpt>
      <trkpt lat="45.05489" lon="6.48038">
        <ele>2704</ele>
        <time>2021-02-28T11:35:14Z</time>
      </trkpt>
      <trkpt lat="45.05489" lon="6.48038">
        <ele>2704</ele>
        <time>2021-02-28T11:35:15Z</time>
      </trkpt>
      <trkpt lat="45.05489" lon="6.48038">
        <ele>2704.2</ele>
        <time>2021-02-28T11:35:16Z</time>
      </trkpt>
      <trkpt lat="45.05489" lon="6.48038">
        <ele>2704</ele>
        <time>2021-02-28T11:35:17Z</time>
      </trkpt>
      <trkpt lat="45.05489" lon="6.48038">
        <ele>2703.8</ele>
        <time>2021-02-28T11:35:18Z</time>
      </trkpt>
      <trkpt lat="45.05489" lon="6.48038">
        <ele>2703.8</ele>
        <time>2021-02-28T11:35:19Z</time>
      </trkpt>
      <trkpt lat="45.05489" lon="6.48038">
        <ele>2703.8</ele>
        <time>2021-02-28T11:35:20Z</time>
      </trkpt>
      <trkpt lat="45.05489" lon="6.48038">
        <ele>2703.6</ele>
        <time>2021-02-28T11:35:21Z</time>
      </trkpt>
      <trkpt lat="45.05489" lon="6.48038">
        <ele>2703.6</ele>
        <time>2021-02-28T11:35:22Z</time>
      </trkpt>
      <trkpt lat="45.05489" lon="6.48038">
        <ele>2703.8</ele>
        <time>2021-02-28T11:35:23Z</time>
      </trkpt>
      <trkpt lat="45.05489" lon="6.48038">
        <ele>2703.8</ele>
        <time>2021-02-28T11:35:24Z</time>
      </trkpt>
      <trkpt lat="45.05489" lon="6.48038">
        <ele>2703.6</ele>
        <time>2021-02-28T11:35:25Z</time>
      </trkpt>
      <trkpt lat="45.05489" lon="6.48038">
        <ele>2703.2</ele>
        <time>2021-02-28T11:35:26Z</time>
      </trkpt>
      <trkpt lat="45.05489" lon="6.48038">
        <ele>2703.2</ele>
        <time>2021-02-28T11:35:27Z</time>
      </trkpt>
      <trkpt lat="45.05491" lon="6.48037">
        <ele>2703.4</ele>
        <time>2021-02-28T11:35:28Z</time>
      </trkpt>
      <trkpt lat="45.05491" lon="6.48037">
        <ele>2703.6</ele>
        <time>2021-02-28T11:35:29Z</time>
      </trkpt>
      <trkpt lat="45.05491" lon="6.48037">
        <ele>2703.4</ele>
        <time>2021-02-28T11:35:30Z</time>
      </trkpt>
      <trkpt lat="45.05491" lon="6.48037">
        <ele>2703.6</ele>
        <time>2021-02-28T11:35:31Z</time>
      </trkpt>
      <trkpt lat="45.05491" lon="6.48037">
        <ele>2703.6</ele>
        <time>2021-02-28T11:35:32Z</time>
      </trkpt>
      <trkpt lat="45.05491" lon="6.48037">
        <ele>2703.6</ele>
        <time>2021-02-28T11:35:33Z</time>
      </trkpt>
      <trkpt lat="45.05491" lon="6.48037">
        <ele>2704</ele>
        <time>2021-02-28T11:35:34Z</time>
      </trkpt>
      <trkpt lat="45.05491" lon="6.48037">
        <ele>2704</ele>
        <time>2021-02-28T11:35:35Z</time>
      </trkpt>
      <trkpt lat="45.05491" lon="6.48037">
        <ele>2703.6</ele>
        <time>2021-02-28T11:35:36Z</time>
      </trkpt>
      <trkpt lat="45.05491" lon="6.48037">
        <ele>2703.8</ele>
        <time>2021-02-28T11:35:37Z</time>
      </trkpt>
      <trkpt lat="45.05491" lon="6.48037">
        <ele>2703.8</ele>
        <time>2021-02-28T11:35:38Z</time>
      </trkpt>
      <trkpt lat="45.05491" lon="6.48037">
        <ele>2703.6</ele>
        <time>2021-02-28T11:35:39Z</time>
      </trkpt>
      <trkpt lat="45.05491" lon="6.48037">
        <ele>2703.4</ele>
        <time>2021-02-28T11:35:40Z</time>
      </trkpt>
      <trkpt lat="45.05491" lon="6.48037">
        <ele>2703.4</ele>
        <time>2021-02-28T11:35:41Z</time>
      </trkpt>
      <trkpt lat="45.05491" lon="6.48037">
        <ele>2703.2</ele>
        <time>2021-02-28T11:35:42Z</time>
      </trkpt>
      <trkpt lat="45.05491" lon="6.48037">
        <ele>2703.2</ele>
        <time>2021-02-28T11:35:43Z</time>
      </trkpt>
      <trkpt lat="45.05491" lon="6.48037">
        <ele>2703</ele>
        <time>2021-02-28T11:35:44Z</time>
      </trkpt>
      <trkpt lat="45.05491" lon="6.48037">
        <ele>2703.2</ele>
        <time>2021-02-28T11:35:45Z</time>
      </trkpt>
      <trkpt lat="45.05491" lon="6.48037">
        <ele>2703.2</ele>
        <time>2021-02-28T11:35:46Z</time>
      </trkpt>
      <trkpt lat="45.05491" lon="6.48037">
        <ele>2703</ele>
        <time>2021-02-28T11:35:47Z</time>
      </trkpt>
      <trkpt lat="45.05491" lon="6.48037">
        <ele>2703.2</ele>
        <time>2021-02-28T11:35:48Z</time>
      </trkpt>
      <trkpt lat="45.05491" lon="6.48037">
        <ele>2703.2</ele>
        <time>2021-02-28T11:35:49Z</time>
      </trkpt>
      <trkpt lat="45.05491" lon="6.48037">
        <ele>2703</ele>
        <time>2021-02-28T11:35:50Z</time>
      </trkpt>
      <trkpt lat="45.05491" lon="6.48037">
        <ele>2703</ele>
        <time>2021-02-28T11:35:51Z</time>
      </trkpt>
      <trkpt lat="45.05491" lon="6.48037">
        <ele>2703</ele>
        <time>2021-02-28T11:35:52Z</time>
      </trkpt>
      <trkpt lat="45.05491" lon="6.48037">
        <ele>2703</ele>
        <time>2021-02-28T11:35:53Z</time>
      </trkpt>
      <trkpt lat="45.05491" lon="6.48037">
        <ele>2702.8</ele>
        <time>2021-02-28T11:35:54Z</time>
      </trkpt>
      <trkpt lat="45.05491" lon="6.48037">
        <ele>2703</ele>
        <time>2021-02-28T11:35:55Z</time>
      </trkpt>
      <trkpt lat="45.05491" lon="6.48037">
        <ele>2702.6</ele>
        <time>2021-02-28T11:35:56Z</time>
      </trkpt>
      <trkpt lat="45.05491" lon="6.48037">
        <ele>2702.6</ele>
        <time>2021-02-28T11:35:57Z</time>
      </trkpt>
      <trkpt lat="45.05491" lon="6.48037">
        <ele>2702.4</ele>
        <time>2021-02-28T11:35:58Z</time>
      </trkpt>
      <trkpt lat="45.05491" lon="6.48037">
        <ele>2702.4</ele>
        <time>2021-02-28T11:35:59Z</time>
      </trkpt>
      <trkpt lat="45.05491" lon="6.48037">
        <ele>2702.6</ele>
        <time>2021-02-28T11:36:00Z</time>
      </trkpt>
      <trkpt lat="45.05491" lon="6.48037">
        <ele>2702.4</ele>
        <time>2021-02-28T11:36:01Z</time>
      </trkpt>
      <trkpt lat="45.05491" lon="6.48037">
        <ele>2702.6</ele>
        <time>2021-02-28T11:36:02Z</time>
      </trkpt>
      <trkpt lat="45.05491" lon="6.48037">
        <ele>2702.8</ele>
        <time>2021-02-28T11:36:03Z</time>
      </trkpt>
      <trkpt lat="45.05491" lon="6.48037">
        <ele>2702.6</ele>
        <time>2021-02-28T11:36:04Z</time>
      </trkpt>
      <trkpt lat="45.05491" lon="6.48037">
        <ele>2702.8</ele>
        <time>2021-02-28T11:36:05Z</time>
      </trkpt>
      <trkpt lat="45.05491" lon="6.48037">
        <ele>2702.6</ele>
        <time>2021-02-28T11:36:06Z</time>
      </trkpt>
      <trkpt lat="45.05491" lon="6.48037">
        <ele>2702.4</ele>
        <time>2021-02-28T11:36:07Z</time>
      </trkpt>
      <trkpt lat="45.05491" lon="6.48037">
        <ele>2702.2</ele>
        <time>2021-02-28T11:36:08Z</time>
      </trkpt>
      <trkpt lat="45.05491" lon="6.48037">
        <ele>2702.2</ele>
        <time>2021-02-28T11:36:09Z</time>
      </trkpt>
      <trkpt lat="45.05491" lon="6.48037">
        <ele>2702.2</ele>
        <time>2021-02-28T11:36:10Z</time>
      </trkpt>
      <trkpt lat="45.05491" lon="6.48037">
        <ele>2702.2</ele>
        <time>2021-02-28T11:36:11Z</time>
      </trkpt>
      <trkpt lat="45.05491" lon="6.48037">
        <ele>2702.2</ele>
        <time>2021-02-28T11:36:12Z</time>
      </trkpt>
      <trkpt lat="45.05491" lon="6.48037">
        <ele>2702</ele>
        <time>2021-02-28T11:36:13Z</time>
      </trkpt>
      <trkpt lat="45.05491" lon="6.48037">
        <ele>2701.8</ele>
        <time>2021-02-28T11:36:14Z</time>
      </trkpt>
      <trkpt lat="45.05491" lon="6.48037">
        <ele>2702</ele>
        <time>2021-02-28T11:36:15Z</time>
      </trkpt>
      <trkpt lat="45.05491" lon="6.48037">
        <ele>2702</ele>
        <time>2021-02-28T11:36:16Z</time>
      </trkpt>
      <trkpt lat="45.05491" lon="6.48037">
        <ele>2701.8</ele>
        <time>2021-02-28T11:36:17Z</time>
      </trkpt>
      <trkpt lat="45.05491" lon="6.48037">
        <ele>2702.2</ele>
        <time>2021-02-28T11:36:18Z</time>
      </trkpt>
      <trkpt lat="45.05491" lon="6.48037">
        <ele>2701.8</ele>
        <time>2021-02-28T11:36:19Z</time>
      </trkpt>
      <trkpt lat="45.05491" lon="6.48037">
        <ele>2702</ele>
        <time>2021-02-28T11:36:20Z</time>
      </trkpt>
      <trkpt lat="45.05491" lon="6.48037">
        <ele>2701.8</ele>
        <time>2021-02-28T11:36:21Z</time>
      </trkpt>
      <trkpt lat="45.05491" lon="6.48037">
        <ele>2701.8</ele>
        <time>2021-02-28T11:36:22Z</time>
      </trkpt>
      <trkpt lat="45.05491" lon="6.48037">
        <ele>2702</ele>
        <time>2021-02-28T11:36:23Z</time>
      </trkpt>
      <trkpt lat="45.05491" lon="6.48037">
        <ele>2701.6</ele>
        <time>2021-02-28T11:36:24Z</time>
      </trkpt>
      <trkpt lat="45.05491" lon="6.48037">
        <ele>2701.8</ele>
        <time>2021-02-28T11:36:25Z</time>
      </trkpt>
      <trkpt lat="45.05491" lon="6.48037">
        <ele>2701.4</ele>
        <time>2021-02-28T11:36:26Z</time>
      </trkpt>
      <trkpt lat="45.05491" lon="6.48037">
        <ele>2701.2</ele>
        <time>2021-02-28T11:36:27Z</time>
      </trkpt>
      <trkpt lat="45.05491" lon="6.48037">
        <ele>2701.2</ele>
        <time>2021-02-28T11:36:28Z</time>
      </trkpt>
      <trkpt lat="45.05491" lon="6.48037">
        <ele>2701.2</ele>
        <time>2021-02-28T11:36:29Z</time>
      </trkpt>
      <trkpt lat="45.05491" lon="6.48037">
        <ele>2701</ele>
        <time>2021-02-28T11:36:30Z</time>
      </trkpt>
      <trkpt lat="45.05491" lon="6.48037">
        <ele>2701</ele>
        <time>2021-02-28T11:36:31Z</time>
      </trkpt>
      <trkpt lat="45.05491" lon="6.48037">
        <ele>2701.2</ele>
        <time>2021-02-28T11:36:32Z</time>
      </trkpt>
      <trkpt lat="45.05491" lon="6.48037">
        <ele>2701.2</ele>
        <time>2021-02-28T11:36:33Z</time>
      </trkpt>
      <trkpt lat="45.05491" lon="6.48037">
        <ele>2701.2</ele>
        <time>2021-02-28T11:36:34Z</time>
      </trkpt>
      <trkpt lat="45.05491" lon="6.48037">
        <ele>2701.2</ele>
        <time>2021-02-28T11:36:35Z</time>
      </trkpt>
      <trkpt lat="45.05491" lon="6.48037">
        <ele>2701.2</ele>
        <time>2021-02-28T11:36:36Z</time>
      </trkpt>
      <trkpt lat="45.05491" lon="6.48037">
        <ele>2701.4</ele>
        <time>2021-02-28T11:36:37Z</time>
      </trkpt>
      <trkpt lat="45.05491" lon="6.48037">
        <ele>2701.2</ele>
        <time>2021-02-28T11:36:38Z</time>
      </trkpt>
      <trkpt lat="45.05491" lon="6.48037">
        <ele>2701.2</ele>
        <time>2021-02-28T11:36:39Z</time>
      </trkpt>
      <trkpt lat="45.05491" lon="6.48037">
        <ele>2701</ele>
        <time>2021-02-28T11:36:40Z</time>
      </trkpt>
      <trkpt lat="45.05491" lon="6.48037">
        <ele>2701.2</ele>
        <time>2021-02-28T11:36:41Z</time>
      </trkpt>
      <trkpt lat="45.05491" lon="6.48037">
        <ele>2701.2</ele>
        <time>2021-02-28T11:36:42Z</time>
      </trkpt>
      <trkpt lat="45.05491" lon="6.48037">
        <ele>2701</ele>
        <time>2021-02-28T11:36:43Z</time>
      </trkpt>
      <trkpt lat="45.05491" lon="6.48037">
        <ele>2700.8</ele>
        <time>2021-02-28T11:36:44Z</time>
      </trkpt>
      <trkpt lat="45.05491" lon="6.48037">
        <ele>2701.4</ele>
        <time>2021-02-28T11:36:45Z</time>
      </trkpt>
      <trkpt lat="45.05491" lon="6.48037">
        <ele>2701.6</ele>
        <time>2021-02-28T11:36:46Z</time>
      </trkpt>
      <trkpt lat="45.05491" lon="6.48037">
        <ele>2701.8</ele>
        <time>2021-02-28T11:36:47Z</time>
      </trkpt>
      <trkpt lat="45.05491" lon="6.48037">
        <ele>2701</ele>
        <time>2021-02-28T11:36:48Z</time>
      </trkpt>
      <trkpt lat="45.05491" lon="6.48037">
        <ele>2700.6</ele>
        <time>2021-02-28T11:36:49Z</time>
      </trkpt>
      <trkpt lat="45.05491" lon="6.48037">
        <ele>2700.8</ele>
        <time>2021-02-28T11:36:50Z</time>
      </trkpt>
      <trkpt lat="45.05491" lon="6.48037">
        <ele>2700.4</ele>
        <time>2021-02-28T11:36:51Z</time>
      </trkpt>
      <trkpt lat="45.05491" lon="6.48037">
        <ele>2700.6</ele>
        <time>2021-02-28T11:36:52Z</time>
      </trkpt>
      <trkpt lat="45.05491" lon="6.48037">
        <ele>2700.4</ele>
        <time>2021-02-28T11:36:53Z</time>
      </trkpt>
      <trkpt lat="45.05491" lon="6.48037">
        <ele>2701</ele>
        <time>2021-02-28T11:36:54Z</time>
      </trkpt>
      <trkpt lat="45.05491" lon="6.48037">
        <ele>2701.4</ele>
        <time>2021-02-28T11:36:55Z</time>
      </trkpt>
      <trkpt lat="45.05491" lon="6.48037">
        <ele>2701.6</ele>
        <time>2021-02-28T11:36:56Z</time>
      </trkpt>
      <trkpt lat="45.05491" lon="6.48037">
        <ele>2701.6</ele>
        <time>2021-02-28T11:36:57Z</time>
      </trkpt>
      <trkpt lat="45.05491" lon="6.48037">
        <ele>2701.6</ele>
        <time>2021-02-28T11:36:58Z</time>
      </trkpt>
      <trkpt lat="45.05491" lon="6.48037">
        <ele>2701.6</ele>
        <time>2021-02-28T11:36:59Z</time>
      </trkpt>
      <trkpt lat="45.05491" lon="6.48037">
        <ele>2700.8</ele>
        <time>2021-02-28T11:37:00Z</time>
      </trkpt>
      <trkpt lat="45.05491" lon="6.48037">
        <ele>2700.6</ele>
        <time>2021-02-28T11:37:01Z</time>
      </trkpt>
      <trkpt lat="45.05491" lon="6.48037">
        <ele>2699.8</ele>
        <time>2021-02-28T11:37:02Z</time>
      </trkpt>
      <trkpt lat="45.05491" lon="6.48037">
        <ele>2700</ele>
        <time>2021-02-28T11:37:03Z</time>
      </trkpt>
      <trkpt lat="45.05491" lon="6.48037">
        <ele>2700.6</ele>
        <time>2021-02-28T11:37:04Z</time>
      </trkpt>
      <trkpt lat="45.05491" lon="6.48037">
        <ele>2700.2</ele>
        <time>2021-02-28T11:37:05Z</time>
      </trkpt>
      <trkpt lat="45.05491" lon="6.48037">
        <ele>2699.8</ele>
        <time>2021-02-28T11:37:06Z</time>
      </trkpt>
      <trkpt lat="45.05491" lon="6.48037">
        <ele>2700.4</ele>
        <time>2021-02-28T11:37:07Z</time>
      </trkpt>
      <trkpt lat="45.05491" lon="6.48037">
        <ele>2700.6</ele>
        <time>2021-02-28T11:37:08Z</time>
      </trkpt>
      <trkpt lat="45.05491" lon="6.48037">
        <ele>2700.6</ele>
        <time>2021-02-28T11:37:09Z</time>
      </trkpt>
      <trkpt lat="45.05491" lon="6.48037">
        <ele>2700.6</ele>
        <time>2021-02-28T11:37:10Z</time>
      </trkpt>
      <trkpt lat="45.05491" lon="6.48037">
        <ele>2700.8</ele>
        <time>2021-02-28T11:37:11Z</time>
      </trkpt>
      <trkpt lat="45.05491" lon="6.48037">
        <ele>2701.2</ele>
        <time>2021-02-28T11:37:12Z</time>
      </trkpt>
      <trkpt lat="45.05491" lon="6.48037">
        <ele>2701</ele>
        <time>2021-02-28T11:37:13Z</time>
      </trkpt>
      <trkpt lat="45.05491" lon="6.48037">
        <ele>2701.4</ele>
        <time>2021-02-28T11:37:14Z</time>
      </trkpt>
      <trkpt lat="45.05491" lon="6.48037">
        <ele>2701.6</ele>
        <time>2021-02-28T11:37:15Z</time>
      </trkpt>
      <trkpt lat="45.05491" lon="6.48039">
        <ele>2701.4</ele>
        <time>2021-02-28T11:37:16Z</time>
      </trkpt>
      <trkpt lat="45.05491" lon="6.48039">
        <ele>2701.2</ele>
        <time>2021-02-28T11:37:17Z</time>
      </trkpt>
      <trkpt lat="45.05491" lon="6.48039">
        <ele>2701</ele>
        <time>2021-02-28T11:37:18Z</time>
      </trkpt>
      <trkpt lat="45.05491" lon="6.48039">
        <ele>2700.6</ele>
        <time>2021-02-28T11:37:19Z</time>
      </trkpt>
      <trkpt lat="45.05491" lon="6.48039">
        <ele>2700.2</ele>
        <time>2021-02-28T11:37:20Z</time>
      </trkpt>
      <trkpt lat="45.05491" lon="6.48039">
        <ele>2700.2</ele>
        <time>2021-02-28T11:37:21Z</time>
      </trkpt>
      <trkpt lat="45.05491" lon="6.48039">
        <ele>2700.2</ele>
        <time>2021-02-28T11:37:22Z</time>
      </trkpt>
      <trkpt lat="45.05491" lon="6.48039">
        <ele>2700.2</ele>
        <time>2021-02-28T11:37:23Z</time>
      </trkpt>
      <trkpt lat="45.05491" lon="6.48039">
        <ele>2700</ele>
        <time>2021-02-28T11:37:24Z</time>
      </trkpt>
      <trkpt lat="45.05491" lon="6.48039">
        <ele>2699.8</ele>
        <time>2021-02-28T11:37:25Z</time>
      </trkpt>
      <trkpt lat="45.05491" lon="6.48039">
        <ele>2699.6</ele>
        <time>2021-02-28T11:37:26Z</time>
      </trkpt>
      <trkpt lat="45.05491" lon="6.48039">
        <ele>2699.6</ele>
        <time>2021-02-28T11:37:27Z</time>
      </trkpt>
      <trkpt lat="45.05491" lon="6.48039">
        <ele>2699.6</ele>
        <time>2021-02-28T11:37:28Z</time>
      </trkpt>
      <trkpt lat="45.05491" lon="6.48039">
        <ele>2699.6</ele>
        <time>2021-02-28T11:37:29Z</time>
      </trkpt>
      <trkpt lat="45.05491" lon="6.48039">
        <ele>2699.4</ele>
        <time>2021-02-28T11:37:30Z</time>
      </trkpt>
      <trkpt lat="45.05491" lon="6.48039">
        <ele>2699.4</ele>
        <time>2021-02-28T11:37:31Z</time>
      </trkpt>
      <trkpt lat="45.05491" lon="6.48039">
        <ele>2699.4</ele>
        <time>2021-02-28T11:37:32Z</time>
      </trkpt>
      <trkpt lat="45.05491" lon="6.48039">
        <ele>2699.2</ele>
        <time>2021-02-28T11:37:33Z</time>
      </trkpt>
      <trkpt lat="45.05491" lon="6.48039">
        <ele>2699.2</ele>
        <time>2021-02-28T11:37:34Z</time>
      </trkpt>
      <trkpt lat="45.05491" lon="6.48039">
        <ele>2699.2</ele>
        <time>2021-02-28T11:37:35Z</time>
      </trkpt>
      <trkpt lat="45.05491" lon="6.48039">
        <ele>2699.2</ele>
        <time>2021-02-28T11:37:36Z</time>
      </trkpt>
      <trkpt lat="45.05491" lon="6.48039">
        <ele>2699.2</ele>
        <time>2021-02-28T11:37:37Z</time>
      </trkpt>
      <trkpt lat="45.05491" lon="6.48039">
        <ele>2699</ele>
        <time>2021-02-28T11:37:38Z</time>
      </trkpt>
      <trkpt lat="45.05491" lon="6.48039">
        <ele>2699.2</ele>
        <time>2021-02-28T11:37:39Z</time>
      </trkpt>
      <trkpt lat="45.05491" lon="6.48039">
        <ele>2699.2</ele>
        <time>2021-02-28T11:37:40Z</time>
      </trkpt>
      <trkpt lat="45.05491" lon="6.48039">
        <ele>2699</ele>
        <time>2021-02-28T11:37:41Z</time>
      </trkpt>
      <trkpt lat="45.05491" lon="6.48039">
        <ele>2699</ele>
        <time>2021-02-28T11:37:42Z</time>
      </trkpt>
      <trkpt lat="45.05491" lon="6.48039">
        <ele>2699</ele>
        <time>2021-02-28T11:37:43Z</time>
      </trkpt>
      <trkpt lat="45.05491" lon="6.48039">
        <ele>2699</ele>
        <time>2021-02-28T11:37:44Z</time>
      </trkpt>
      <trkpt lat="45.05491" lon="6.48039">
        <ele>2699</ele>
        <time>2021-02-28T11:37:45Z</time>
      </trkpt>
      <trkpt lat="45.05491" lon="6.48039">
        <ele>2699</ele>
        <time>2021-02-28T11:37:46Z</time>
      </trkpt>
      <trkpt lat="45.05491" lon="6.48039">
        <ele>2699.2</ele>
        <time>2021-02-28T11:37:47Z</time>
      </trkpt>
      <trkpt lat="45.05491" lon="6.48039">
        <ele>2699.2</ele>
        <time>2021-02-28T11:37:48Z</time>
      </trkpt>
      <trkpt lat="45.05491" lon="6.48039">
        <ele>2699.2</ele>
        <time>2021-02-28T11:37:49Z</time>
      </trkpt>
      <trkpt lat="45.05491" lon="6.48039">
        <ele>2699.4</ele>
        <time>2021-02-28T11:37:50Z</time>
      </trkpt>
      <trkpt lat="45.05491" lon="6.48039">
        <ele>2699.2</ele>
        <time>2021-02-28T11:37:51Z</time>
      </trkpt>
      <trkpt lat="45.05491" lon="6.48039">
        <ele>2699.2</ele>
        <time>2021-02-28T11:37:52Z</time>
      </trkpt>
      <trkpt lat="45.05491" lon="6.48039">
        <ele>2699.2</ele>
        <time>2021-02-28T11:37:53Z</time>
      </trkpt>
      <trkpt lat="45.05491" lon="6.48039">
        <ele>2699</ele>
        <time>2021-02-28T11:37:54Z</time>
      </trkpt>
      <trkpt lat="45.05491" lon="6.48039">
        <ele>2699</ele>
        <time>2021-02-28T11:37:55Z</time>
      </trkpt>
      <trkpt lat="45.05491" lon="6.48039">
        <ele>2699</ele>
        <time>2021-02-28T11:37:56Z</time>
      </trkpt>
      <trkpt lat="45.05491" lon="6.48039">
        <ele>2699</ele>
        <time>2021-02-28T11:37:57Z</time>
      </trkpt>
      <trkpt lat="45.05491" lon="6.48039">
        <ele>2699</ele>
        <time>2021-02-28T11:37:58Z</time>
      </trkpt>
      <trkpt lat="45.05491" lon="6.48039">
        <ele>2699.2</ele>
        <time>2021-02-28T11:37:59Z</time>
      </trkpt>
      <trkpt lat="45.05491" lon="6.48039">
        <ele>2699</ele>
        <time>2021-02-28T11:38:00Z</time>
      </trkpt>
      <trkpt lat="45.05491" lon="6.48039">
        <ele>2698.6</ele>
        <time>2021-02-28T11:38:01Z</time>
      </trkpt>
      <trkpt lat="45.05491" lon="6.48039">
        <ele>2698.2</ele>
        <time>2021-02-28T11:38:02Z</time>
      </trkpt>
      <trkpt lat="45.05491" lon="6.48039">
        <ele>2698.2</ele>
        <time>2021-02-28T11:38:03Z</time>
      </trkpt>
      <trkpt lat="45.05491" lon="6.48039">
        <ele>2698.4</ele>
        <time>2021-02-28T11:38:04Z</time>
      </trkpt>
      <trkpt lat="45.05491" lon="6.48039">
        <ele>2698.6</ele>
        <time>2021-02-28T11:38:05Z</time>
      </trkpt>
      <trkpt lat="45.05491" lon="6.48039">
        <ele>2698.6</ele>
        <time>2021-02-28T11:38:06Z</time>
      </trkpt>
      <trkpt lat="45.05491" lon="6.48039">
        <ele>2698.8</ele>
        <time>2021-02-28T11:38:07Z</time>
      </trkpt>
      <trkpt lat="45.05491" lon="6.48039">
        <ele>2698.6</ele>
        <time>2021-02-28T11:38:08Z</time>
      </trkpt>
      <trkpt lat="45.05491" lon="6.48039">
        <ele>2698.6</ele>
        <time>2021-02-28T11:38:09Z</time>
      </trkpt>
      <trkpt lat="45.05491" lon="6.48039">
        <ele>2698.8</ele>
        <time>2021-02-28T11:38:10Z</time>
      </trkpt>
      <trkpt lat="45.05491" lon="6.48039">
        <ele>2698.8</ele>
        <time>2021-02-28T11:38:11Z</time>
      </trkpt>
      <trkpt lat="45.05491" lon="6.48039">
        <ele>2699.2</ele>
        <time>2021-02-28T11:38:12Z</time>
      </trkpt>
      <trkpt lat="45.05491" lon="6.48039">
        <ele>2699</ele>
        <time>2021-02-28T11:38:13Z</time>
      </trkpt>
      <trkpt lat="45.05491" lon="6.48039">
        <ele>2699.4</ele>
        <time>2021-02-28T11:38:14Z</time>
      </trkpt>
      <trkpt lat="45.05491" lon="6.48039">
        <ele>2699.6</ele>
        <time>2021-02-28T11:38:15Z</time>
      </trkpt>
      <trkpt lat="45.05491" lon="6.48039">
        <ele>2699.6</ele>
        <time>2021-02-28T11:38:16Z</time>
      </trkpt>
      <trkpt lat="45.05491" lon="6.48039">
        <ele>2698.8</ele>
        <time>2021-02-28T11:38:17Z</time>
      </trkpt>
      <trkpt lat="45.05491" lon="6.48039">
        <ele>2698.6</ele>
        <time>2021-02-28T11:38:18Z</time>
      </trkpt>
      <trkpt lat="45.05491" lon="6.48039">
        <ele>2698.2</ele>
        <time>2021-02-28T11:38:19Z</time>
      </trkpt>
      <trkpt lat="45.05491" lon="6.48039">
        <ele>2698.2</ele>
        <time>2021-02-28T11:38:20Z</time>
      </trkpt>
      <trkpt lat="45.05491" lon="6.48039">
        <ele>2698.2</ele>
        <time>2021-02-28T11:38:21Z</time>
      </trkpt>
      <trkpt lat="45.05491" lon="6.48039">
        <ele>2698.4</ele>
        <time>2021-02-28T11:38:22Z</time>
      </trkpt>
      <trkpt lat="45.05491" lon="6.48039">
        <ele>2698.4</ele>
        <time>2021-02-28T11:38:23Z</time>
      </trkpt>
      <trkpt lat="45.05491" lon="6.48039">
        <ele>2698.2</ele>
        <time>2021-02-28T11:38:24Z</time>
      </trkpt>
      <trkpt lat="45.05491" lon="6.48039">
        <ele>2698</ele>
        <time>2021-02-28T11:38:25Z</time>
      </trkpt>
      <trkpt lat="45.05491" lon="6.48039">
        <ele>2697.8</ele>
        <time>2021-02-28T11:38:26Z</time>
      </trkpt>
      <trkpt lat="45.05491" lon="6.48039">
        <ele>2697.6</ele>
        <time>2021-02-28T11:38:27Z</time>
      </trkpt>
      <trkpt lat="45.05491" lon="6.48039">
        <ele>2697.6</ele>
        <time>2021-02-28T11:38:28Z</time>
      </trkpt>
      <trkpt lat="45.05491" lon="6.48039">
        <ele>2697.6</ele>
        <time>2021-02-28T11:38:29Z</time>
      </trkpt>
      <trkpt lat="45.05491" lon="6.48039">
        <ele>2697.6</ele>
        <time>2021-02-28T11:38:30Z</time>
      </trkpt>
      <trkpt lat="45.05491" lon="6.48039">
        <ele>2698</ele>
        <time>2021-02-28T11:38:31Z</time>
      </trkpt>
      <trkpt lat="45.05491" lon="6.48039">
        <ele>2698.4</ele>
        <time>2021-02-28T11:38:32Z</time>
      </trkpt>
      <trkpt lat="45.05491" lon="6.48039">
        <ele>2698.6</ele>
        <time>2021-02-28T11:38:33Z</time>
      </trkpt>
      <trkpt lat="45.05491" lon="6.48039">
        <ele>2699</ele>
        <time>2021-02-28T11:38:34Z</time>
      </trkpt>
      <trkpt lat="45.05491" lon="6.48039">
        <ele>2698.8</ele>
        <time>2021-02-28T11:38:35Z</time>
      </trkpt>
      <trkpt lat="45.05491" lon="6.48039">
        <ele>2697.4</ele>
        <time>2021-02-28T11:38:36Z</time>
      </trkpt>
      <trkpt lat="45.05491" lon="6.48039">
        <ele>2697.4</ele>
        <time>2021-02-28T11:38:37Z</time>
      </trkpt>
      <trkpt lat="45.05491" lon="6.48039">
        <ele>2697.4</ele>
        <time>2021-02-28T11:38:38Z</time>
      </trkpt>
      <trkpt lat="45.05491" lon="6.48039">
        <ele>2697.6</ele>
        <time>2021-02-28T11:38:39Z</time>
      </trkpt>
      <trkpt lat="45.05491" lon="6.48039">
        <ele>2697.6</ele>
        <time>2021-02-28T11:38:40Z</time>
      </trkpt>
      <trkpt lat="45.05491" lon="6.48039">
        <ele>2697.6</ele>
        <time>2021-02-28T11:38:41Z</time>
      </trkpt>
      <trkpt lat="45.05491" lon="6.48039">
        <ele>2697.8</ele>
        <time>2021-02-28T11:38:42Z</time>
      </trkpt>
      <trkpt lat="45.05491" lon="6.48039">
        <ele>2698</ele>
        <time>2021-02-28T11:38:43Z</time>
      </trkpt>
      <trkpt lat="45.05491" lon="6.48039">
        <ele>2698.2</ele>
        <time>2021-02-28T11:38:44Z</time>
      </trkpt>
      <trkpt lat="45.05491" lon="6.48039">
        <ele>2698.4</ele>
        <time>2021-02-28T11:38:45Z</time>
      </trkpt>
      <trkpt lat="45.05491" lon="6.48039">
        <ele>2698.2</ele>
        <time>2021-02-28T11:38:46Z</time>
      </trkpt>
      <trkpt lat="45.05491" lon="6.48039">
        <ele>2698.2</ele>
        <time>2021-02-28T11:38:47Z</time>
      </trkpt>
      <trkpt lat="45.05491" lon="6.48039">
        <ele>2698.4</ele>
        <time>2021-02-28T11:38:48Z</time>
      </trkpt>
      <trkpt lat="45.05491" lon="6.48039">
        <ele>2698.4</ele>
        <time>2021-02-28T11:38:49Z</time>
      </trkpt>
      <trkpt lat="45.05491" lon="6.48039">
        <ele>2698.2</ele>
        <time>2021-02-28T11:38:50Z</time>
      </trkpt>
      <trkpt lat="45.05491" lon="6.48039">
        <ele>2698.2</ele>
        <time>2021-02-28T11:38:51Z</time>
      </trkpt>
      <trkpt lat="45.05491" lon="6.48039">
        <ele>2698.2</ele>
        <time>2021-02-28T11:38:52Z</time>
      </trkpt>
      <trkpt lat="45.05491" lon="6.48039">
        <ele>2698.2</ele>
        <time>2021-02-28T11:38:53Z</time>
      </trkpt>
      <trkpt lat="45.05491" lon="6.48039">
        <ele>2698.2</ele>
        <time>2021-02-28T11:38:54Z</time>
      </trkpt>
      <trkpt lat="45.05491" lon="6.48039">
        <ele>2697.8</ele>
        <time>2021-02-28T11:38:55Z</time>
      </trkpt>
      <trkpt lat="45.05491" lon="6.48039">
        <ele>2698.2</ele>
        <time>2021-02-28T11:38:56Z</time>
      </trkpt>
      <trkpt lat="45.05491" lon="6.48039">
        <ele>2698</ele>
        <time>2021-02-28T11:38:57Z</time>
      </trkpt>
      <trkpt lat="45.05491" lon="6.48039">
        <ele>2698</ele>
        <time>2021-02-28T11:38:58Z</time>
      </trkpt>
      <trkpt lat="45.05491" lon="6.48039">
        <ele>2697.8</ele>
        <time>2021-02-28T11:38:59Z</time>
      </trkpt>
      <trkpt lat="45.05491" lon="6.48039">
        <ele>2698</ele>
        <time>2021-02-28T11:39:00Z</time>
      </trkpt>
      <trkpt lat="45.05491" lon="6.48039">
        <ele>2698</ele>
        <time>2021-02-28T11:39:01Z</time>
      </trkpt>
      <trkpt lat="45.05491" lon="6.48039">
        <ele>2697.8</ele>
        <time>2021-02-28T11:39:02Z</time>
      </trkpt>
      <trkpt lat="45.05491" lon="6.48039">
        <ele>2698</ele>
        <time>2021-02-28T11:39:03Z</time>
      </trkpt>
      <trkpt lat="45.05491" lon="6.48039">
        <ele>2698.2</ele>
        <time>2021-02-28T11:39:04Z</time>
      </trkpt>
      <trkpt lat="45.05491" lon="6.48039">
        <ele>2698.6</ele>
        <time>2021-02-28T11:39:05Z</time>
      </trkpt>
      <trkpt lat="45.05491" lon="6.48039">
        <ele>2698.4</ele>
        <time>2021-02-28T11:39:06Z</time>
      </trkpt>
      <trkpt lat="45.05491" lon="6.48039">
        <ele>2698.4</ele>
        <time>2021-02-28T11:39:07Z</time>
      </trkpt>
      <trkpt lat="45.05491" lon="6.48039">
        <ele>2698.6</ele>
        <time>2021-02-28T11:39:08Z</time>
      </trkpt>
      <trkpt lat="45.05491" lon="6.48039">
        <ele>2698.4</ele>
        <time>2021-02-28T11:39:09Z</time>
      </trkpt>
      <trkpt lat="45.05491" lon="6.48039">
        <ele>2698.4</ele>
        <time>2021-02-28T11:39:10Z</time>
      </trkpt>
      <trkpt lat="45.05491" lon="6.48039">
        <ele>2698.4</ele>
        <time>2021-02-28T11:39:11Z</time>
      </trkpt>
      <trkpt lat="45.05491" lon="6.48039">
        <ele>2698.4</ele>
        <time>2021-02-28T11:39:12Z</time>
      </trkpt>
      <trkpt lat="45.05491" lon="6.48039">
        <ele>2698.4</ele>
        <time>2021-02-28T11:39:13Z</time>
      </trkpt>
      <trkpt lat="45.05491" lon="6.48039">
        <ele>2698.6</ele>
        <time>2021-02-28T11:39:14Z</time>
      </trkpt>
      <trkpt lat="45.05491" lon="6.48039">
        <ele>2698.8</ele>
        <time>2021-02-28T11:39:15Z</time>
      </trkpt>
      <trkpt lat="45.05491" lon="6.48039">
        <ele>2698.8</ele>
        <time>2021-02-28T11:39:16Z</time>
      </trkpt>
      <trkpt lat="45.05491" lon="6.48039">
        <ele>2698.8</ele>
        <time>2021-02-28T11:39:17Z</time>
      </trkpt>
      <trkpt lat="45.05491" lon="6.48039">
        <ele>2698.8</ele>
        <time>2021-02-28T11:39:18Z</time>
      </trkpt>
      <trkpt lat="45.05491" lon="6.48039">
        <ele>2698.8</ele>
        <time>2021-02-28T11:39:19Z</time>
      </trkpt>
      <trkpt lat="45.05491" lon="6.48039">
        <ele>2699.2</ele>
        <time>2021-02-28T11:39:20Z</time>
      </trkpt>
      <trkpt lat="45.05491" lon="6.48039">
        <ele>2699</ele>
        <time>2021-02-28T11:39:21Z</time>
      </trkpt>
      <trkpt lat="45.05491" lon="6.48039">
        <ele>2698.8</ele>
        <time>2021-02-28T11:39:22Z</time>
      </trkpt>
      <trkpt lat="45.05491" lon="6.48039">
        <ele>2698.6</ele>
        <time>2021-02-28T11:39:23Z</time>
      </trkpt>
      <trkpt lat="45.05491" lon="6.48039">
        <ele>2698.6</ele>
        <time>2021-02-28T11:39:24Z</time>
      </trkpt>
      <trkpt lat="45.05491" lon="6.48039">
        <ele>2698.4</ele>
        <time>2021-02-28T11:39:25Z</time>
      </trkpt>
      <trkpt lat="45.05491" lon="6.48039">
        <ele>2698.4</ele>
        <time>2021-02-28T11:39:26Z</time>
      </trkpt>
      <trkpt lat="45.05491" lon="6.48039">
        <ele>2698</ele>
        <time>2021-02-28T11:39:27Z</time>
      </trkpt>
      <trkpt lat="45.05491" lon="6.48039">
        <ele>2698</ele>
        <time>2021-02-28T11:39:28Z</time>
      </trkpt>
      <trkpt lat="45.05489" lon="6.48037">
        <ele>2698</ele>
        <time>2021-02-28T11:39:29Z</time>
      </trkpt>
      <trkpt lat="45.05488" lon="6.48035">
        <ele>2697.8</ele>
        <time>2021-02-28T11:39:30Z</time>
      </trkpt>
      <trkpt lat="45.05486" lon="6.48033">
        <ele>2697.8</ele>
        <time>2021-02-28T11:39:31Z</time>
      </trkpt>
      <trkpt lat="45.05484" lon="6.48031">
        <ele>2697.6</ele>
        <time>2021-02-28T11:39:32Z</time>
      </trkpt>
      <trkpt lat="45.05481" lon="6.48029">
        <ele>2697.6</ele>
        <time>2021-02-28T11:39:33Z</time>
      </trkpt>
      <trkpt lat="45.05478" lon="6.48027">
        <ele>2697.4</ele>
        <time>2021-02-28T11:39:34Z</time>
      </trkpt>
      <trkpt lat="45.05475" lon="6.48028">
        <ele>2696.8</ele>
        <time>2021-02-28T11:39:35Z</time>
      </trkpt>
      <trkpt lat="45.05474" lon="6.48035">
        <ele>2695.6</ele>
        <time>2021-02-28T11:39:36Z</time>
      </trkpt>
      <trkpt lat="45.05474" lon="6.48043">
        <ele>2694.2</ele>
        <time>2021-02-28T11:39:37Z</time>
      </trkpt>
      <trkpt lat="45.0547" lon="6.48048">
        <ele>2693.2</ele>
        <time>2021-02-28T11:39:38Z</time>
      </trkpt>
      <trkpt lat="45.05462" lon="6.48047">
        <ele>2691.4</ele>
        <time>2021-02-28T11:39:39Z</time>
      </trkpt>
      <trkpt lat="45.05456" lon="6.48042">
        <ele>2689.4</ele>
        <time>2021-02-28T11:39:40Z</time>
      </trkpt>
      <trkpt lat="45.0545" lon="6.48035">
        <ele>2686</ele>
        <time>2021-02-28T11:39:41Z</time>
      </trkpt>
      <trkpt lat="45.05445" lon="6.48029">
        <ele>2683.8</ele>
        <time>2021-02-28T11:39:42Z</time>
      </trkpt>
      <trkpt lat="45.0544" lon="6.48024">
        <ele>2681.8</ele>
        <time>2021-02-28T11:39:43Z</time>
      </trkpt>
      <trkpt lat="45.05434" lon="6.48018">
        <ele>2680.6</ele>
        <time>2021-02-28T11:39:44Z</time>
      </trkpt>
      <trkpt lat="45.0543" lon="6.48015">
        <ele>2679.2</ele>
        <time>2021-02-28T11:39:45Z</time>
      </trkpt>
      <trkpt lat="45.05426" lon="6.48016">
        <ele>2678.4</ele>
        <time>2021-02-28T11:39:46Z</time>
      </trkpt>
      <trkpt lat="45.0542" lon="6.48019">
        <ele>2676.4</ele>
        <time>2021-02-28T11:39:47Z</time>
      </trkpt>
      <trkpt lat="45.05414" lon="6.48019">
        <ele>2674.4</ele>
        <time>2021-02-28T11:39:48Z</time>
      </trkpt>
      <trkpt lat="45.05408" lon="6.48015">
        <ele>2672.6</ele>
        <time>2021-02-28T11:39:49Z</time>
      </trkpt>
      <trkpt lat="45.05403" lon="6.48011">
        <ele>2670</ele>
        <time>2021-02-28T11:39:50Z</time>
      </trkpt>
      <trkpt lat="45.05398" lon="6.4801">
        <ele>2668.4</ele>
        <time>2021-02-28T11:39:51Z</time>
      </trkpt>
      <trkpt lat="45.05398" lon="6.4801">
        <ele>2666.2</ele>
        <time>2021-02-28T11:39:52Z</time>
      </trkpt>
      <trkpt lat="45.05385" lon="6.48019">
        <ele>2663.6</ele>
        <time>2021-02-28T11:39:53Z</time>
      </trkpt>
      <trkpt lat="45.05373" lon="6.48018">
        <ele>2661</ele>
        <time>2021-02-28T11:39:54Z</time>
      </trkpt>
      <trkpt lat="45.05371" lon="6.48017">
        <ele>2657.6</ele>
        <time>2021-02-28T11:39:55Z</time>
      </trkpt>
      <trkpt lat="45.05366" lon="6.48016">
        <ele>2654.2</ele>
        <time>2021-02-28T11:39:56Z</time>
      </trkpt>
      <trkpt lat="45.05351" lon="6.48005">
        <ele>2651</ele>
        <time>2021-02-28T11:39:57Z</time>
      </trkpt>
      <trkpt lat="45.05341" lon="6.47992">
        <ele>2649.4</ele>
        <time>2021-02-28T11:39:58Z</time>
      </trkpt>
      <trkpt lat="45.05338" lon="6.47988">
        <ele>2647.4</ele>
        <time>2021-02-28T11:39:59Z</time>
      </trkpt>
      <trkpt lat="45.05331" lon="6.47981">
        <ele>2647.4</ele>
        <time>2021-02-28T11:40:00Z</time>
      </trkpt>
      <trkpt lat="45.05331" lon="6.47981">
        <ele>2643</ele>
        <time>2021-02-28T11:40:01Z</time>
      </trkpt>
      <trkpt lat="45.05316" lon="6.4797">
        <ele>2640.6</ele>
        <time>2021-02-28T11:40:02Z</time>
      </trkpt>
      <trkpt lat="45.05313" lon="6.47969">
        <ele>2638.8</ele>
        <time>2021-02-28T11:40:03Z</time>
      </trkpt>
      <trkpt lat="45.05309" lon="6.47968">
        <ele>2637.2</ele>
        <time>2021-02-28T11:40:04Z</time>
      </trkpt>
      <trkpt lat="45.05299" lon="6.47966">
        <ele>2635.4</ele>
        <time>2021-02-28T11:40:05Z</time>
      </trkpt>
      <trkpt lat="45.05295" lon="6.47965">
        <ele>2634.8</ele>
        <time>2021-02-28T11:40:06Z</time>
      </trkpt>
      <trkpt lat="45.05287" lon="6.47966">
        <ele>2633.6</ele>
        <time>2021-02-28T11:40:07Z</time>
      </trkpt>
      <trkpt lat="45.05285" lon="6.47967">
        <ele>2633</ele>
        <time>2021-02-28T11:40:08Z</time>
      </trkpt>
      <trkpt lat="45.0528" lon="6.47968">
        <ele>2633.2</ele>
        <time>2021-02-28T11:40:09Z</time>
      </trkpt>
      <trkpt lat="45.0528" lon="6.47968">
        <ele>2632.4</ele>
        <time>2021-02-28T11:40:10Z</time>
      </trkpt>
      <trkpt lat="45.05281" lon="6.47993">
        <ele>2630.4</ele>
        <time>2021-02-28T11:40:11Z</time>
      </trkpt>
      <trkpt lat="45.05279" lon="6.47997">
        <ele>2627.8</ele>
        <time>2021-02-28T11:40:12Z</time>
      </trkpt>
      <trkpt lat="45.05277" lon="6.48001">
        <ele>2626.4</ele>
        <time>2021-02-28T11:40:13Z</time>
      </trkpt>
      <trkpt lat="45.05267" lon="6.48015">
        <ele>2624.2</ele>
        <time>2021-02-28T11:40:14Z</time>
      </trkpt>
      <trkpt lat="45.05263" lon="6.48018">
        <ele>2622</ele>
        <time>2021-02-28T11:40:15Z</time>
      </trkpt>
      <trkpt lat="45.05255" lon="6.48022">
        <ele>2622</ele>
        <time>2021-02-28T11:40:16Z</time>
      </trkpt>
      <trkpt lat="45.05255" lon="6.48022">
        <ele>2617.6</ele>
        <time>2021-02-28T11:40:17Z</time>
      </trkpt>
      <trkpt lat="45.0524" lon="6.48032">
        <ele>2616.2</ele>
        <time>2021-02-28T11:40:18Z</time>
      </trkpt>
      <trkpt lat="45.05234" lon="6.48036">
        <ele>2614</ele>
        <time>2021-02-28T11:40:19Z</time>
      </trkpt>
      <trkpt lat="45.05227" lon="6.4804">
        <ele>2613.6</ele>
        <time>2021-02-28T11:40:20Z</time>
      </trkpt>
      <trkpt lat="45.0521" lon="6.48052">
        <ele>2611.8</ele>
        <time>2021-02-28T11:40:21Z</time>
      </trkpt>
      <trkpt lat="45.05205" lon="6.48055">
        <ele>2610.2</ele>
        <time>2021-02-28T11:40:22Z</time>
      </trkpt>
      <trkpt lat="45.05195" lon="6.48062">
        <ele>2608.8</ele>
        <time>2021-02-28T11:40:23Z</time>
      </trkpt>
      <trkpt lat="45.05185" lon="6.4807">
        <ele>2605.8</ele>
        <time>2021-02-28T11:40:24Z</time>
      </trkpt>
      <trkpt lat="45.05176" lon="6.48078">
        <ele>2604.2</ele>
        <time>2021-02-28T11:40:25Z</time>
      </trkpt>
      <trkpt lat="45.05167" lon="6.48086">
        <ele>2602.4</ele>
        <time>2021-02-28T11:40:26Z</time>
      </trkpt>
      <trkpt lat="45.05159" lon="6.48094">
        <ele>2601.2</ele>
        <time>2021-02-28T11:40:27Z</time>
      </trkpt>
      <trkpt lat="45.05159" lon="6.48094">
        <ele>2598.8</ele>
        <time>2021-02-28T11:40:28Z</time>
      </trkpt>
      <trkpt lat="45.05145" lon="6.48107">
        <ele>2598</ele>
        <time>2021-02-28T11:40:29Z</time>
      </trkpt>
      <trkpt lat="45.05139" lon="6.48113">
        <ele>2596</ele>
        <time>2021-02-28T11:40:30Z</time>
      </trkpt>
      <trkpt lat="45.05134" lon="6.48118">
        <ele>2595.2</ele>
        <time>2021-02-28T11:40:31Z</time>
      </trkpt>
      <trkpt lat="45.05119" lon="6.48134">
        <ele>2594.4</ele>
        <time>2021-02-28T11:40:32Z</time>
      </trkpt>
      <trkpt lat="45.05116" lon="6.48138">
        <ele>2593</ele>
        <time>2021-02-28T11:40:33Z</time>
      </trkpt>
      <trkpt lat="45.05108" lon="6.48147">
        <ele>2590.8</ele>
        <time>2021-02-28T11:40:34Z</time>
      </trkpt>
      <trkpt lat="45.05101" lon="6.48156">
        <ele>2588.8</ele>
        <time>2021-02-28T11:40:35Z</time>
      </trkpt>
      <trkpt lat="45.05101" lon="6.48156">
        <ele>2588.2</ele>
        <time>2021-02-28T11:40:36Z</time>
      </trkpt>
      <trkpt lat="45.05091" lon="6.48172">
        <ele>2587</ele>
        <time>2021-02-28T11:40:37Z</time>
      </trkpt>
      <trkpt lat="45.05089" lon="6.48175">
        <ele>2586.4</ele>
        <time>2021-02-28T11:40:38Z</time>
      </trkpt>
      <trkpt lat="45.05087" lon="6.48178">
        <ele>2586.2</ele>
        <time>2021-02-28T11:40:39Z</time>
      </trkpt>
      <trkpt lat="45.05081" lon="6.48187">
        <ele>2585.6</ele>
        <time>2021-02-28T11:40:40Z</time>
      </trkpt>
      <trkpt lat="45.05079" lon="6.4819">
        <ele>2585</ele>
        <time>2021-02-28T11:40:41Z</time>
      </trkpt>
      <trkpt lat="45.05076" lon="6.48195">
        <ele>2584.8</ele>
        <time>2021-02-28T11:40:42Z</time>
      </trkpt>
      <trkpt lat="45.05076" lon="6.48195">
        <ele>2584.2</ele>
        <time>2021-02-28T11:40:43Z</time>
      </trkpt>
      <trkpt lat="45.05076" lon="6.48195">
        <ele>2584.4</ele>
        <time>2021-02-28T11:40:44Z</time>
      </trkpt>
      <trkpt lat="45.05076" lon="6.48194">
        <ele>2583.8</ele>
        <time>2021-02-28T11:40:45Z</time>
      </trkpt>
      <trkpt lat="45.05076" lon="6.48193">
        <ele>2584.2</ele>
        <time>2021-02-28T11:40:46Z</time>
      </trkpt>
      <trkpt lat="45.05075" lon="6.48191">
        <ele>2584.2</ele>
        <time>2021-02-28T11:40:47Z</time>
      </trkpt>
      <trkpt lat="45.05075" lon="6.4819">
        <ele>2584.6</ele>
        <time>2021-02-28T11:40:48Z</time>
      </trkpt>
      <trkpt lat="45.05075" lon="6.48189">
        <ele>2585.2</ele>
        <time>2021-02-28T11:40:49Z</time>
      </trkpt>
      <trkpt lat="45.05075" lon="6.48188">
        <ele>2585.2</ele>
        <time>2021-02-28T11:40:50Z</time>
      </trkpt>
      <trkpt lat="45.05075" lon="6.48186">
        <ele>2585.2</ele>
        <time>2021-02-28T11:40:51Z</time>
      </trkpt>
      <trkpt lat="45.05075" lon="6.48185">
        <ele>2585.6</ele>
        <time>2021-02-28T11:40:52Z</time>
      </trkpt>
      <trkpt lat="45.05075" lon="6.48184">
        <ele>2584.8</ele>
        <time>2021-02-28T11:40:53Z</time>
      </trkpt>
      <trkpt lat="45.05075" lon="6.48183">
        <ele>2585.2</ele>
        <time>2021-02-28T11:40:54Z</time>
      </trkpt>
      <trkpt lat="45.05075" lon="6.48181">
        <ele>2585.6</ele>
        <time>2021-02-28T11:40:55Z</time>
      </trkpt>
      <trkpt lat="45.05075" lon="6.4818">
        <ele>2585</ele>
        <time>2021-02-28T11:40:56Z</time>
      </trkpt>
      <trkpt lat="45.05074" lon="6.4818">
        <ele>2585.4</ele>
        <time>2021-02-28T11:40:57Z</time>
      </trkpt>
      <trkpt lat="45.05074" lon="6.48179">
        <ele>2586</ele>
        <time>2021-02-28T11:40:58Z</time>
      </trkpt>
      <trkpt lat="45.05073" lon="6.48178">
        <ele>2586.4</ele>
        <time>2021-02-28T11:40:59Z</time>
      </trkpt>
      <trkpt lat="45.05073" lon="6.48177">
        <ele>2586</ele>
        <time>2021-02-28T11:41:00Z</time>
      </trkpt>
      <trkpt lat="45.05072" lon="6.48177">
        <ele>2586.2</ele>
        <time>2021-02-28T11:41:01Z</time>
      </trkpt>
      <trkpt lat="45.05072" lon="6.48176">
        <ele>2586.8</ele>
        <time>2021-02-28T11:41:02Z</time>
      </trkpt>
      <trkpt lat="45.05071" lon="6.48175">
        <ele>2587</ele>
        <time>2021-02-28T11:41:03Z</time>
      </trkpt>
      <trkpt lat="45.05071" lon="6.48174">
        <ele>2586.2</ele>
        <time>2021-02-28T11:41:04Z</time>
      </trkpt>
      <trkpt lat="45.0507" lon="6.48174">
        <ele>2587</ele>
        <time>2021-02-28T11:41:05Z</time>
      </trkpt>
      <trkpt lat="45.0507" lon="6.48173">
        <ele>2586.8</ele>
        <time>2021-02-28T11:41:06Z</time>
      </trkpt>
      <trkpt lat="45.0507" lon="6.48173">
        <ele>2586.6</ele>
        <time>2021-02-28T11:41:07Z</time>
      </trkpt>
      <trkpt lat="45.05066" lon="6.48175">
        <ele>2586.6</ele>
        <time>2021-02-28T11:41:08Z</time>
      </trkpt>
      <trkpt lat="45.05064" lon="6.48176">
        <ele>2586.2</ele>
        <time>2021-02-28T11:41:09Z</time>
      </trkpt>
      <trkpt lat="45.05062" lon="6.48177">
        <ele>2586.4</ele>
        <time>2021-02-28T11:41:10Z</time>
      </trkpt>
      <trkpt lat="45.0506" lon="6.48179">
        <ele>2586.6</ele>
        <time>2021-02-28T11:41:11Z</time>
      </trkpt>
      <trkpt lat="45.05058" lon="6.4818">
        <ele>2586.8</ele>
        <time>2021-02-28T11:41:12Z</time>
      </trkpt>
      <trkpt lat="45.05055" lon="6.48182">
        <ele>2586.6</ele>
        <time>2021-02-28T11:41:13Z</time>
      </trkpt>
      <trkpt lat="45.05052" lon="6.48184">
        <ele>2586.2</ele>
        <time>2021-02-28T11:41:14Z</time>
      </trkpt>
      <trkpt lat="45.05048" lon="6.48186">
        <ele>2585.6</ele>
        <time>2021-02-28T11:41:15Z</time>
      </trkpt>
      <trkpt lat="45.05045" lon="6.48189">
        <ele>2585</ele>
        <time>2021-02-28T11:41:16Z</time>
      </trkpt>
      <trkpt lat="45.05041" lon="6.48193">
        <ele>2584.8</ele>
        <time>2021-02-28T11:41:17Z</time>
      </trkpt>
      <trkpt lat="45.05035" lon="6.48197">
        <ele>2584.2</ele>
        <time>2021-02-28T11:41:18Z</time>
      </trkpt>
      <trkpt lat="45.0503" lon="6.482">
        <ele>2583.2</ele>
        <time>2021-02-28T11:41:19Z</time>
      </trkpt>
      <trkpt lat="45.05024" lon="6.48202">
        <ele>2581.4</ele>
        <time>2021-02-28T11:41:20Z</time>
      </trkpt>
      <trkpt lat="45.05022" lon="6.48207">
        <ele>2581.2</ele>
        <time>2021-02-28T11:41:21Z</time>
      </trkpt>
      <trkpt lat="45.05023" lon="6.48214">
        <ele>2579.8</ele>
        <time>2021-02-28T11:41:22Z</time>
      </trkpt>
      <trkpt lat="45.05026" lon="6.48222">
        <ele>2578</ele>
        <time>2021-02-28T11:41:23Z</time>
      </trkpt>
      <trkpt lat="45.05029" lon="6.48231">
        <ele>2576.2</ele>
        <time>2021-02-28T11:41:24Z</time>
      </trkpt>
      <trkpt lat="45.05027" lon="6.4824">
        <ele>2575</ele>
        <time>2021-02-28T11:41:25Z</time>
      </trkpt>
      <trkpt lat="45.05024" lon="6.48251">
        <ele>2574.2</ele>
        <time>2021-02-28T11:41:26Z</time>
      </trkpt>
      <trkpt lat="45.05019" lon="6.48265">
        <ele>2572</ele>
        <time>2021-02-28T11:41:27Z</time>
      </trkpt>
      <trkpt lat="45.05013" lon="6.48277">
        <ele>2569.4</ele>
        <time>2021-02-28T11:41:28Z</time>
      </trkpt>
      <trkpt lat="45.05006" lon="6.48288">
        <ele>2566.4</ele>
        <time>2021-02-28T11:41:29Z</time>
      </trkpt>
      <trkpt lat="45.04998" lon="6.48299">
        <ele>2564</ele>
        <time>2021-02-28T11:41:30Z</time>
      </trkpt>
      <trkpt lat="45.04992" lon="6.48308">
        <ele>2561.6</ele>
        <time>2021-02-28T11:41:31Z</time>
      </trkpt>
      <trkpt lat="45.04988" lon="6.48317">
        <ele>2559.6</ele>
        <time>2021-02-28T11:41:32Z</time>
      </trkpt>
      <trkpt lat="45.04983" lon="6.48326">
        <ele>2557.6</ele>
        <time>2021-02-28T11:41:33Z</time>
      </trkpt>
      <trkpt lat="45.04978" lon="6.48333">
        <ele>2555.6</ele>
        <time>2021-02-28T11:41:34Z</time>
      </trkpt>
      <trkpt lat="45.04972" lon="6.48338">
        <ele>2555</ele>
        <time>2021-02-28T11:41:35Z</time>
      </trkpt>
      <trkpt lat="45.04966" lon="6.48343">
        <ele>2553.8</ele>
        <time>2021-02-28T11:41:36Z</time>
      </trkpt>
      <trkpt lat="45.0496" lon="6.48348">
        <ele>2552.8</ele>
        <time>2021-02-28T11:41:37Z</time>
      </trkpt>
      <trkpt lat="45.04954" lon="6.48353">
        <ele>2551.4</ele>
        <time>2021-02-28T11:41:38Z</time>
      </trkpt>
      <trkpt lat="45.04948" lon="6.48359">
        <ele>2549.8</ele>
        <time>2021-02-28T11:41:39Z</time>
      </trkpt>
      <trkpt lat="45.04944" lon="6.48364">
        <ele>2548.8</ele>
        <time>2021-02-28T11:41:40Z</time>
      </trkpt>
      <trkpt lat="45.04941" lon="6.48372">
        <ele>2547.4</ele>
        <time>2021-02-28T11:41:41Z</time>
      </trkpt>
      <trkpt lat="45.04937" lon="6.48378">
        <ele>2546.4</ele>
        <time>2021-02-28T11:41:42Z</time>
      </trkpt>
      <trkpt lat="45.04932" lon="6.48383">
        <ele>2544.4</ele>
        <time>2021-02-28T11:41:43Z</time>
      </trkpt>
      <trkpt lat="45.04927" lon="6.48388">
        <ele>2543</ele>
        <time>2021-02-28T11:41:44Z</time>
      </trkpt>
      <trkpt lat="45.04922" lon="6.48393">
        <ele>2541.6</ele>
        <time>2021-02-28T11:41:45Z</time>
      </trkpt>
      <trkpt lat="45.04917" lon="6.484">
        <ele>2539.4</ele>
        <time>2021-02-28T11:41:46Z</time>
      </trkpt>
      <trkpt lat="45.04913" lon="6.48409">
        <ele>2537.4</ele>
        <time>2021-02-28T11:41:47Z</time>
      </trkpt>
      <trkpt lat="45.04909" lon="6.48417">
        <ele>2535.6</ele>
        <time>2021-02-28T11:41:48Z</time>
      </trkpt>
      <trkpt lat="45.04904" lon="6.4842">
        <ele>2534.6</ele>
        <time>2021-02-28T11:41:49Z</time>
      </trkpt>
      <trkpt lat="45.04897" lon="6.48422">
        <ele>2533.4</ele>
        <time>2021-02-28T11:41:50Z</time>
      </trkpt>
      <trkpt lat="45.04897" lon="6.48422">
        <ele>2531</ele>
        <time>2021-02-28T11:41:51Z</time>
      </trkpt>
      <trkpt lat="45.04881" lon="6.48433">
        <ele>2528.6</ele>
        <time>2021-02-28T11:41:52Z</time>
      </trkpt>
      <trkpt lat="45.04867" lon="6.48444">
        <ele>2525</ele>
        <time>2021-02-28T11:41:53Z</time>
      </trkpt>
      <trkpt lat="45.04863" lon="6.48447">
        <ele>2522.4</ele>
        <time>2021-02-28T11:41:54Z</time>
      </trkpt>
      <trkpt lat="45.04854" lon="6.48454">
        <ele>2520.4</ele>
        <time>2021-02-28T11:41:55Z</time>
      </trkpt>
      <trkpt lat="45.04845" lon="6.48462">
        <ele>2517.8</ele>
        <time>2021-02-28T11:41:56Z</time>
      </trkpt>
      <trkpt lat="45.04837" lon="6.48469">
        <ele>2515.8</ele>
        <time>2021-02-28T11:41:57Z</time>
      </trkpt>
      <trkpt lat="45.0483" lon="6.48473">
        <ele>2514</ele>
        <time>2021-02-28T11:41:58Z</time>
      </trkpt>
      <trkpt lat="45.04822" lon="6.48472">
        <ele>2513</ele>
        <time>2021-02-28T11:41:59Z</time>
      </trkpt>
      <trkpt lat="45.04815" lon="6.4847">
        <ele>2512.8</ele>
        <time>2021-02-28T11:42:00Z</time>
      </trkpt>
      <trkpt lat="45.04808" lon="6.48472">
        <ele>2510.6</ele>
        <time>2021-02-28T11:42:01Z</time>
      </trkpt>
      <trkpt lat="45.04801" lon="6.48477">
        <ele>2509</ele>
        <time>2021-02-28T11:42:02Z</time>
      </trkpt>
      <trkpt lat="45.04795" lon="6.48482">
        <ele>2507.8</ele>
        <time>2021-02-28T11:42:03Z</time>
      </trkpt>
      <trkpt lat="45.0479" lon="6.48482">
        <ele>2507.4</ele>
        <time>2021-02-28T11:42:04Z</time>
      </trkpt>
      <trkpt lat="45.04786" lon="6.48479">
        <ele>2506.2</ele>
        <time>2021-02-28T11:42:05Z</time>
      </trkpt>
      <trkpt lat="45.04783" lon="6.4848">
        <ele>2505.6</ele>
        <time>2021-02-28T11:42:06Z</time>
      </trkpt>
      <trkpt lat="45.04781" lon="6.48484">
        <ele>2504.8</ele>
        <time>2021-02-28T11:42:07Z</time>
      </trkpt>
      <trkpt lat="45.0478" lon="6.48488">
        <ele>2503.8</ele>
        <time>2021-02-28T11:42:08Z</time>
      </trkpt>
      <trkpt lat="45.04779" lon="6.48491">
        <ele>2502.6</ele>
        <time>2021-02-28T11:42:09Z</time>
      </trkpt>
      <trkpt lat="45.04778" lon="6.48495">
        <ele>2502.6</ele>
        <time>2021-02-28T11:42:10Z</time>
      </trkpt>
      <trkpt lat="45.04778" lon="6.48498">
        <ele>2502.8</ele>
        <time>2021-02-28T11:42:11Z</time>
      </trkpt>
      <trkpt lat="45.04777" lon="6.48501">
        <ele>2502.2</ele>
        <time>2021-02-28T11:42:12Z</time>
      </trkpt>
      <trkpt lat="45.04777" lon="6.48501">
        <ele>2501.4</ele>
        <time>2021-02-28T11:42:13Z</time>
      </trkpt>
      <trkpt lat="45.04778" lon="6.48505">
        <ele>2501.8</ele>
        <time>2021-02-28T11:42:14Z</time>
      </trkpt>
      <trkpt lat="45.04778" lon="6.48505">
        <ele>2502</ele>
        <time>2021-02-28T11:42:15Z</time>
      </trkpt>
      <trkpt lat="45.04778" lon="6.48505">
        <ele>2502.4</ele>
        <time>2021-02-28T11:42:16Z</time>
      </trkpt>
      <trkpt lat="45.04777" lon="6.48505">
        <ele>2502.6</ele>
        <time>2021-02-28T11:42:17Z</time>
      </trkpt>
      <trkpt lat="45.04777" lon="6.48505">
        <ele>2502.4</ele>
        <time>2021-02-28T11:42:18Z</time>
      </trkpt>
      <trkpt lat="45.04777" lon="6.48505">
        <ele>2502.4</ele>
        <time>2021-02-28T11:42:19Z</time>
      </trkpt>
      <trkpt lat="45.04776" lon="6.48505">
        <ele>2502.4</ele>
        <time>2021-02-28T11:42:20Z</time>
      </trkpt>
      <trkpt lat="45.04776" lon="6.48505">
        <ele>2502.4</ele>
        <time>2021-02-28T11:42:21Z</time>
      </trkpt>
      <trkpt lat="45.04775" lon="6.48505">
        <ele>2502.4</ele>
        <time>2021-02-28T11:42:22Z</time>
      </trkpt>
      <trkpt lat="45.04775" lon="6.48505">
        <ele>2502.2</ele>
        <time>2021-02-28T11:42:23Z</time>
      </trkpt>
      <trkpt lat="45.04775" lon="6.48505">
        <ele>2502.6</ele>
        <time>2021-02-28T11:42:24Z</time>
      </trkpt>
      <trkpt lat="45.04774" lon="6.48505">
        <ele>2502.6</ele>
        <time>2021-02-28T11:42:25Z</time>
      </trkpt>
      <trkpt lat="45.04774" lon="6.48505">
        <ele>2502.4</ele>
        <time>2021-02-28T11:42:26Z</time>
      </trkpt>
      <trkpt lat="45.04773" lon="6.48505">
        <ele>2502.4</ele>
        <time>2021-02-28T11:42:27Z</time>
      </trkpt>
      <trkpt lat="45.04773" lon="6.48505">
        <ele>2502.4</ele>
        <time>2021-02-28T11:42:28Z</time>
      </trkpt>
      <trkpt lat="45.04773" lon="6.48505">
        <ele>2502.4</ele>
        <time>2021-02-28T11:42:29Z</time>
      </trkpt>
      <trkpt lat="45.04772" lon="6.48505">
        <ele>2502.4</ele>
        <time>2021-02-28T11:42:30Z</time>
      </trkpt>
      <trkpt lat="45.04772" lon="6.48505">
        <ele>2502.6</ele>
        <time>2021-02-28T11:42:31Z</time>
      </trkpt>
      <trkpt lat="45.04772" lon="6.48504">
        <ele>2502.6</ele>
        <time>2021-02-28T11:42:32Z</time>
      </trkpt>
      <trkpt lat="45.04771" lon="6.48504">
        <ele>2502.6</ele>
        <time>2021-02-28T11:42:33Z</time>
      </trkpt>
      <trkpt lat="45.04771" lon="6.48504">
        <ele>2502.4</ele>
        <time>2021-02-28T11:42:34Z</time>
      </trkpt>
      <trkpt lat="45.0477" lon="6.48504">
        <ele>2502.4</ele>
        <time>2021-02-28T11:42:35Z</time>
      </trkpt>
      <trkpt lat="45.0477" lon="6.48504">
        <ele>2502.8</ele>
        <time>2021-02-28T11:42:36Z</time>
      </trkpt>
      <trkpt lat="45.0477" lon="6.48504">
        <ele>2502.8</ele>
        <time>2021-02-28T11:42:37Z</time>
      </trkpt>
      <trkpt lat="45.04769" lon="6.48504">
        <ele>2502.8</ele>
        <time>2021-02-28T11:42:38Z</time>
      </trkpt>
      <trkpt lat="45.04769" lon="6.48504">
        <ele>2503</ele>
        <time>2021-02-28T11:42:39Z</time>
      </trkpt>
      <trkpt lat="45.04768" lon="6.48504">
        <ele>2502.8</ele>
        <time>2021-02-28T11:42:40Z</time>
      </trkpt>
      <trkpt lat="45.04768" lon="6.48504">
        <ele>2502.8</ele>
        <time>2021-02-28T11:42:41Z</time>
      </trkpt>
      <trkpt lat="45.04768" lon="6.48504">
        <ele>2502.8</ele>
        <time>2021-02-28T11:42:42Z</time>
      </trkpt>
      <trkpt lat="45.04767" lon="6.48504">
        <ele>2502.8</ele>
        <time>2021-02-28T11:42:43Z</time>
      </trkpt>
      <trkpt lat="45.04767" lon="6.48504">
        <ele>2502.6</ele>
        <time>2021-02-28T11:42:44Z</time>
      </trkpt>
      <trkpt lat="45.04766" lon="6.48504">
        <ele>2502.8</ele>
        <time>2021-02-28T11:42:45Z</time>
      </trkpt>
      <trkpt lat="45.04766" lon="6.48504">
        <ele>2502.6</ele>
        <time>2021-02-28T11:42:46Z</time>
      </trkpt>
      <trkpt lat="45.04766" lon="6.48504">
        <ele>2502.2</ele>
        <time>2021-02-28T11:42:47Z</time>
      </trkpt>
      <trkpt lat="45.0476" lon="6.48505">
        <ele>2501.2</ele>
        <time>2021-02-28T11:42:48Z</time>
      </trkpt>
      <trkpt lat="45.04755" lon="6.48506">
        <ele>2500.4</ele>
        <time>2021-02-28T11:42:49Z</time>
      </trkpt>
      <trkpt lat="45.0475" lon="6.48509">
        <ele>2499.4</ele>
        <time>2021-02-28T11:42:50Z</time>
      </trkpt>
      <trkpt lat="45.04746" lon="6.48513">
        <ele>2498</ele>
        <time>2021-02-28T11:42:51Z</time>
      </trkpt>
      <trkpt lat="45.04744" lon="6.48519">
        <ele>2497</ele>
        <time>2021-02-28T11:42:52Z</time>
      </trkpt>
      <trkpt lat="45.04746" lon="6.48526">
        <ele>2495.8</ele>
        <time>2021-02-28T11:42:53Z</time>
      </trkpt>
      <trkpt lat="45.04748" lon="6.48531">
        <ele>2494.2</ele>
        <time>2021-02-28T11:42:54Z</time>
      </trkpt>
      <trkpt lat="45.04751" lon="6.48534">
        <ele>2492.6</ele>
        <time>2021-02-28T11:42:55Z</time>
      </trkpt>
      <trkpt lat="45.04751" lon="6.48534">
        <ele>2491.8</ele>
        <time>2021-02-28T11:42:56Z</time>
      </trkpt>
      <trkpt lat="45.04753" lon="6.48536">
        <ele>2491</ele>
        <time>2021-02-28T11:42:57Z</time>
      </trkpt>
      <trkpt lat="45.04753" lon="6.48536">
        <ele>2491</ele>
        <time>2021-02-28T11:42:58Z</time>
      </trkpt>
      <trkpt lat="45.04753" lon="6.48536">
        <ele>2491.2</ele>
        <time>2021-02-28T11:42:59Z</time>
      </trkpt>
      <trkpt lat="45.04753" lon="6.48536">
        <ele>2490.8</ele>
        <time>2021-02-28T11:43:00Z</time>
      </trkpt>
      <trkpt lat="45.04753" lon="6.48536">
        <ele>2490.8</ele>
        <time>2021-02-28T11:43:01Z</time>
      </trkpt>
      <trkpt lat="45.04753" lon="6.48536">
        <ele>2491</ele>
        <time>2021-02-28T11:43:02Z</time>
      </trkpt>
      <trkpt lat="45.04753" lon="6.48536">
        <ele>2491</ele>
        <time>2021-02-28T11:43:03Z</time>
      </trkpt>
      <trkpt lat="45.04753" lon="6.48536">
        <ele>2491</ele>
        <time>2021-02-28T11:43:04Z</time>
      </trkpt>
      <trkpt lat="45.04753" lon="6.48536">
        <ele>2491.2</ele>
        <time>2021-02-28T11:43:05Z</time>
      </trkpt>
      <trkpt lat="45.04753" lon="6.48536">
        <ele>2491.4</ele>
        <time>2021-02-28T11:43:06Z</time>
      </trkpt>
      <trkpt lat="45.04753" lon="6.48536">
        <ele>2491.2</ele>
        <time>2021-02-28T11:43:07Z</time>
      </trkpt>
      <trkpt lat="45.04753" lon="6.48536">
        <ele>2491.2</ele>
        <time>2021-02-28T11:43:08Z</time>
      </trkpt>
      <trkpt lat="45.04753" lon="6.48536">
        <ele>2491.4</ele>
        <time>2021-02-28T11:43:09Z</time>
      </trkpt>
      <trkpt lat="45.04755" lon="6.48535">
        <ele>2491.4</ele>
        <time>2021-02-28T11:43:10Z</time>
      </trkpt>
      <trkpt lat="45.04755" lon="6.48535">
        <ele>2491.6</ele>
        <time>2021-02-28T11:43:11Z</time>
      </trkpt>
      <trkpt lat="45.04755" lon="6.48535">
        <ele>2491.6</ele>
        <time>2021-02-28T11:43:12Z</time>
      </trkpt>
      <trkpt lat="45.04754" lon="6.48536">
        <ele>2491.2</ele>
        <time>2021-02-28T11:43:13Z</time>
      </trkpt>
      <trkpt lat="45.04754" lon="6.48536">
        <ele>2491</ele>
        <time>2021-02-28T11:43:14Z</time>
      </trkpt>
      <trkpt lat="45.04753" lon="6.48536">
        <ele>2490.8</ele>
        <time>2021-02-28T11:43:15Z</time>
      </trkpt>
      <trkpt lat="45.04752" lon="6.48537">
        <ele>2490.6</ele>
        <time>2021-02-28T11:43:16Z</time>
      </trkpt>
      <trkpt lat="45.04752" lon="6.48537">
        <ele>2490.6</ele>
        <time>2021-02-28T11:43:17Z</time>
      </trkpt>
      <trkpt lat="45.04751" lon="6.48537">
        <ele>2490.6</ele>
        <time>2021-02-28T11:43:18Z</time>
      </trkpt>
      <trkpt lat="45.0475" lon="6.48538">
        <ele>2491</ele>
        <time>2021-02-28T11:43:19Z</time>
      </trkpt>
      <trkpt lat="45.04749" lon="6.48538">
        <ele>2491.2</ele>
        <time>2021-02-28T11:43:20Z</time>
      </trkpt>
      <trkpt lat="45.04749" lon="6.48539">
        <ele>2491.4</ele>
        <time>2021-02-28T11:43:21Z</time>
      </trkpt>
      <trkpt lat="45.04748" lon="6.48539">
        <ele>2491.6</ele>
        <time>2021-02-28T11:43:22Z</time>
      </trkpt>
      <trkpt lat="45.04747" lon="6.48539">
        <ele>2492</ele>
        <time>2021-02-28T11:43:23Z</time>
      </trkpt>
      <trkpt lat="45.04746" lon="6.4854">
        <ele>2492</ele>
        <time>2021-02-28T11:43:24Z</time>
      </trkpt>
      <trkpt lat="45.04746" lon="6.4854">
        <ele>2491.8</ele>
        <time>2021-02-28T11:43:25Z</time>
      </trkpt>
      <trkpt lat="45.04745" lon="6.4854">
        <ele>2491.6</ele>
        <time>2021-02-28T11:43:26Z</time>
      </trkpt>
      <trkpt lat="45.04744" lon="6.48541">
        <ele>2491.4</ele>
        <time>2021-02-28T11:43:27Z</time>
      </trkpt>
      <trkpt lat="45.04743" lon="6.48541">
        <ele>2491</ele>
        <time>2021-02-28T11:43:28Z</time>
      </trkpt>
      <trkpt lat="45.04743" lon="6.48542">
        <ele>2491.2</ele>
        <time>2021-02-28T11:43:29Z</time>
      </trkpt>
      <trkpt lat="45.04742" lon="6.48542">
        <ele>2490.4</ele>
        <time>2021-02-28T11:43:30Z</time>
      </trkpt>
      <trkpt lat="45.04741" lon="6.48542">
        <ele>2489.6</ele>
        <time>2021-02-28T11:43:31Z</time>
      </trkpt>
      <trkpt lat="45.04741" lon="6.48543">
        <ele>2488.8</ele>
        <time>2021-02-28T11:43:32Z</time>
      </trkpt>
      <trkpt lat="45.04735" lon="6.48542">
        <ele>2487.8</ele>
        <time>2021-02-28T11:43:33Z</time>
      </trkpt>
      <trkpt lat="45.04729" lon="6.48542">
        <ele>2487</ele>
        <time>2021-02-28T11:43:34Z</time>
      </trkpt>
      <trkpt lat="45.04724" lon="6.48544">
        <ele>2485.8</ele>
        <time>2021-02-28T11:43:35Z</time>
      </trkpt>
      <trkpt lat="45.04718" lon="6.4855">
        <ele>2485</ele>
        <time>2021-02-28T11:43:36Z</time>
      </trkpt>
      <trkpt lat="45.0471" lon="6.48554">
        <ele>2483</ele>
        <time>2021-02-28T11:43:37Z</time>
      </trkpt>
      <trkpt lat="45.04703" lon="6.48557">
        <ele>2480.6</ele>
        <time>2021-02-28T11:43:38Z</time>
      </trkpt>
      <trkpt lat="45.04703" lon="6.48557">
        <ele>2479</ele>
        <time>2021-02-28T11:43:39Z</time>
      </trkpt>
      <trkpt lat="45.04689" lon="6.48559">
        <ele>2477.8</ele>
        <time>2021-02-28T11:43:40Z</time>
      </trkpt>
      <trkpt lat="45.04681" lon="6.48561">
        <ele>2476.4</ele>
        <time>2021-02-28T11:43:41Z</time>
      </trkpt>
      <trkpt lat="45.04677" lon="6.48563">
        <ele>2475.8</ele>
        <time>2021-02-28T11:43:42Z</time>
      </trkpt>
      <trkpt lat="45.04671" lon="6.48567">
        <ele>2474.8</ele>
        <time>2021-02-28T11:43:43Z</time>
      </trkpt>
      <trkpt lat="45.04664" lon="6.48571">
        <ele>2472.2</ele>
        <time>2021-02-28T11:43:44Z</time>
      </trkpt>
      <trkpt lat="45.04656" lon="6.48576">
        <ele>2470.2</ele>
        <time>2021-02-28T11:43:45Z</time>
      </trkpt>
      <trkpt lat="45.04649" lon="6.4858">
        <ele>2468.2</ele>
        <time>2021-02-28T11:43:46Z</time>
      </trkpt>
      <trkpt lat="45.04642" lon="6.48583">
        <ele>2466.2</ele>
        <time>2021-02-28T11:43:47Z</time>
      </trkpt>
      <trkpt lat="45.04636" lon="6.48587">
        <ele>2465.2</ele>
        <time>2021-02-28T11:43:48Z</time>
      </trkpt>
      <trkpt lat="45.04631" lon="6.4859">
        <ele>2464.4</ele>
        <time>2021-02-28T11:43:49Z</time>
      </trkpt>
      <trkpt lat="45.04625" lon="6.48594">
        <ele>2463.4</ele>
        <time>2021-02-28T11:43:50Z</time>
      </trkpt>
      <trkpt lat="45.0462" lon="6.48598">
        <ele>2462.6</ele>
        <time>2021-02-28T11:43:51Z</time>
      </trkpt>
      <trkpt lat="45.04616" lon="6.486">
        <ele>2461.8</ele>
        <time>2021-02-28T11:43:52Z</time>
      </trkpt>
      <trkpt lat="45.04611" lon="6.48604">
        <ele>2460.8</ele>
        <time>2021-02-28T11:43:53Z</time>
      </trkpt>
      <trkpt lat="45.04607" lon="6.48608">
        <ele>2460.4</ele>
        <time>2021-02-28T11:43:54Z</time>
      </trkpt>
      <trkpt lat="45.04603" lon="6.48611">
        <ele>2459.8</ele>
        <time>2021-02-28T11:43:55Z</time>
      </trkpt>
      <trkpt lat="45.04599" lon="6.48613">
        <ele>2459.6</ele>
        <time>2021-02-28T11:43:56Z</time>
      </trkpt>
      <trkpt lat="45.04594" lon="6.48616">
        <ele>2459.6</ele>
        <time>2021-02-28T11:43:57Z</time>
      </trkpt>
      <trkpt lat="45.0459" lon="6.48618">
        <ele>2459</ele>
        <time>2021-02-28T11:43:58Z</time>
      </trkpt>
      <trkpt lat="45.04586" lon="6.4862">
        <ele>2458.4</ele>
        <time>2021-02-28T11:43:59Z</time>
      </trkpt>
      <trkpt lat="45.04582" lon="6.48622">
        <ele>2458</ele>
        <time>2021-02-28T11:44:00Z</time>
      </trkpt>
      <trkpt lat="45.04578" lon="6.48624">
        <ele>2457.4</ele>
        <time>2021-02-28T11:44:01Z</time>
      </trkpt>
      <trkpt lat="45.04573" lon="6.48627">
        <ele>2456.8</ele>
        <time>2021-02-28T11:44:02Z</time>
      </trkpt>
      <trkpt lat="45.04568" lon="6.48631">
        <ele>2456.2</ele>
        <time>2021-02-28T11:44:03Z</time>
      </trkpt>
      <trkpt lat="45.04563" lon="6.48634">
        <ele>2455.4</ele>
        <time>2021-02-28T11:44:04Z</time>
      </trkpt>
      <trkpt lat="45.04558" lon="6.48637">
        <ele>2454.8</ele>
        <time>2021-02-28T11:44:05Z</time>
      </trkpt>
      <trkpt lat="45.04554" lon="6.48638">
        <ele>2454.2</ele>
        <time>2021-02-28T11:44:06Z</time>
      </trkpt>
      <trkpt lat="45.04551" lon="6.48639">
        <ele>2453.6</ele>
        <time>2021-02-28T11:44:07Z</time>
      </trkpt>
      <trkpt lat="45.04551" lon="6.48639">
        <ele>2454</ele>
        <time>2021-02-28T11:44:08Z</time>
      </trkpt>
      <trkpt lat="45.04551" lon="6.48639">
        <ele>2453.8</ele>
        <time>2021-02-28T11:44:09Z</time>
      </trkpt>
      <trkpt lat="45.04551" lon="6.48639">
        <ele>2453.2</ele>
        <time>2021-02-28T11:44:10Z</time>
      </trkpt>
      <trkpt lat="45.04551" lon="6.48639">
        <ele>2452.8</ele>
        <time>2021-02-28T11:44:11Z</time>
      </trkpt>
      <trkpt lat="45.04551" lon="6.48639">
        <ele>2453</ele>
        <time>2021-02-28T11:44:12Z</time>
      </trkpt>
      <trkpt lat="45.04551" lon="6.48639">
        <ele>2453</ele>
        <time>2021-02-28T11:44:13Z</time>
      </trkpt>
      <trkpt lat="45.04551" lon="6.48639">
        <ele>2453</ele>
        <time>2021-02-28T11:44:14Z</time>
      </trkpt>
      <trkpt lat="45.04551" lon="6.48639">
        <ele>2453</ele>
        <time>2021-02-28T11:44:15Z</time>
      </trkpt>
      <trkpt lat="45.04551" lon="6.48639">
        <ele>2453</ele>
        <time>2021-02-28T11:44:16Z</time>
      </trkpt>
      <trkpt lat="45.04551" lon="6.48639">
        <ele>2453.4</ele>
        <time>2021-02-28T11:44:17Z</time>
      </trkpt>
      <trkpt lat="45.04551" lon="6.48639">
        <ele>2453.4</ele>
        <time>2021-02-28T11:44:18Z</time>
      </trkpt>
      <trkpt lat="45.04551" lon="6.48639">
        <ele>2453.4</ele>
        <time>2021-02-28T11:44:19Z</time>
      </trkpt>
      <trkpt lat="45.04551" lon="6.48639">
        <ele>2453.6</ele>
        <time>2021-02-28T11:44:20Z</time>
      </trkpt>
      <trkpt lat="45.04551" lon="6.48639">
        <ele>2453.4</ele>
        <time>2021-02-28T11:44:21Z</time>
      </trkpt>
      <trkpt lat="45.04549" lon="6.48639">
        <ele>2453.8</ele>
        <time>2021-02-28T11:44:22Z</time>
      </trkpt>
      <trkpt lat="45.04546" lon="6.4864">
        <ele>2453.4</ele>
        <time>2021-02-28T11:44:23Z</time>
      </trkpt>
      <trkpt lat="45.04543" lon="6.48641">
        <ele>2452.8</ele>
        <time>2021-02-28T11:44:24Z</time>
      </trkpt>
      <trkpt lat="45.0454" lon="6.48642">
        <ele>2452.2</ele>
        <time>2021-02-28T11:44:25Z</time>
      </trkpt>
      <trkpt lat="45.04536" lon="6.48643">
        <ele>2451.6</ele>
        <time>2021-02-28T11:44:26Z</time>
      </trkpt>
      <trkpt lat="45.04533" lon="6.48643">
        <ele>2451.2</ele>
        <time>2021-02-28T11:44:27Z</time>
      </trkpt>
      <trkpt lat="45.04529" lon="6.48642">
        <ele>2450.6</ele>
        <time>2021-02-28T11:44:28Z</time>
      </trkpt>
      <trkpt lat="45.04525" lon="6.48642">
        <ele>2450</ele>
        <time>2021-02-28T11:44:29Z</time>
      </trkpt>
      <trkpt lat="45.04522" lon="6.48641">
        <ele>2449.6</ele>
        <time>2021-02-28T11:44:30Z</time>
      </trkpt>
      <trkpt lat="45.04518" lon="6.48639">
        <ele>2449</ele>
        <time>2021-02-28T11:44:31Z</time>
      </trkpt>
      <trkpt lat="45.04515" lon="6.48637">
        <ele>2448</ele>
        <time>2021-02-28T11:44:32Z</time>
      </trkpt>
      <trkpt lat="45.04513" lon="6.48634">
        <ele>2447.8</ele>
        <time>2021-02-28T11:44:33Z</time>
      </trkpt>
      <trkpt lat="45.04512" lon="6.48632">
        <ele>2447.4</ele>
        <time>2021-02-28T11:44:34Z</time>
      </trkpt>
      <trkpt lat="45.04512" lon="6.48632">
        <ele>2447.4</ele>
        <time>2021-02-28T11:44:35Z</time>
      </trkpt>
      <trkpt lat="45.0451" lon="6.48629">
        <ele>2446.8</ele>
        <time>2021-02-28T11:44:36Z</time>
      </trkpt>
      <trkpt lat="45.0451" lon="6.48629">
        <ele>2446.8</ele>
        <time>2021-02-28T11:44:37Z</time>
      </trkpt>
      <trkpt lat="45.0451" lon="6.48629">
        <ele>2447</ele>
        <time>2021-02-28T11:44:38Z</time>
      </trkpt>
      <trkpt lat="45.0451" lon="6.48629">
        <ele>2446.4</ele>
        <time>2021-02-28T11:44:39Z</time>
      </trkpt>
      <trkpt lat="45.0451" lon="6.48629">
        <ele>2446.4</ele>
        <time>2021-02-28T11:44:40Z</time>
      </trkpt>
      <trkpt lat="45.0451" lon="6.48629">
        <ele>2446.4</ele>
        <time>2021-02-28T11:44:41Z</time>
      </trkpt>
      <trkpt lat="45.0451" lon="6.48629">
        <ele>2446.6</ele>
        <time>2021-02-28T11:44:42Z</time>
      </trkpt>
      <trkpt lat="45.0451" lon="6.48629">
        <ele>2446.2</ele>
        <time>2021-02-28T11:44:43Z</time>
      </trkpt>
      <trkpt lat="45.0451" lon="6.48629">
        <ele>2446.2</ele>
        <time>2021-02-28T11:44:44Z</time>
      </trkpt>
      <trkpt lat="45.0451" lon="6.48629">
        <ele>2446.4</ele>
        <time>2021-02-28T11:44:45Z</time>
      </trkpt>
      <trkpt lat="45.0451" lon="6.48629">
        <ele>2446.8</ele>
        <time>2021-02-28T11:44:46Z</time>
      </trkpt>
      <trkpt lat="45.0451" lon="6.48629">
        <ele>2446.8</ele>
        <time>2021-02-28T11:44:47Z</time>
      </trkpt>
      <trkpt lat="45.0451" lon="6.48629">
        <ele>2446.6</ele>
        <time>2021-02-28T11:44:48Z</time>
      </trkpt>
      <trkpt lat="45.0451" lon="6.48629">
        <ele>2446.6</ele>
        <time>2021-02-28T11:44:49Z</time>
      </trkpt>
      <trkpt lat="45.0451" lon="6.48629">
        <ele>2446.6</ele>
        <time>2021-02-28T11:44:50Z</time>
      </trkpt>
      <trkpt lat="45.0451" lon="6.48629">
        <ele>2446.6</ele>
        <time>2021-02-28T11:44:51Z</time>
      </trkpt>
      <trkpt lat="45.0451" lon="6.48629">
        <ele>2446.8</ele>
        <time>2021-02-28T11:44:52Z</time>
      </trkpt>
      <trkpt lat="45.0451" lon="6.48629">
        <ele>2447</ele>
        <time>2021-02-28T11:44:53Z</time>
      </trkpt>
      <trkpt lat="45.0451" lon="6.48629">
        <ele>2446.8</ele>
        <time>2021-02-28T11:44:54Z</time>
      </trkpt>
      <trkpt lat="45.0451" lon="6.48629">
        <ele>2446.6</ele>
        <time>2021-02-28T11:44:55Z</time>
      </trkpt>
      <trkpt lat="45.0451" lon="6.48629">
        <ele>2446.6</ele>
        <time>2021-02-28T11:44:56Z</time>
      </trkpt>
      <trkpt lat="45.0451" lon="6.48629">
        <ele>2446.4</ele>
        <time>2021-02-28T11:44:57Z</time>
      </trkpt>
      <trkpt lat="45.0451" lon="6.48629">
        <ele>2446.4</ele>
        <time>2021-02-28T11:44:58Z</time>
      </trkpt>
      <trkpt lat="45.0451" lon="6.48629">
        <ele>2446.4</ele>
        <time>2021-02-28T11:44:59Z</time>
      </trkpt>
      <trkpt lat="45.0451" lon="6.48629">
        <ele>2445.6</ele>
        <time>2021-02-28T11:45:00Z</time>
      </trkpt>
      <trkpt lat="45.0451" lon="6.48625">
        <ele>2445.8</ele>
        <time>2021-02-28T11:45:01Z</time>
      </trkpt>
      <trkpt lat="45.0451" lon="6.48625">
        <ele>2445.6</ele>
        <time>2021-02-28T11:45:02Z</time>
      </trkpt>
      <trkpt lat="45.0451" lon="6.48625">
        <ele>2445.4</ele>
        <time>2021-02-28T11:45:03Z</time>
      </trkpt>
      <trkpt lat="45.0451" lon="6.48625">
        <ele>2445.4</ele>
        <time>2021-02-28T11:45:04Z</time>
      </trkpt>
      <trkpt lat="45.0451" lon="6.48625">
        <ele>2445.4</ele>
        <time>2021-02-28T11:45:05Z</time>
      </trkpt>
      <trkpt lat="45.04509" lon="6.48623">
        <ele>2445.6</ele>
        <time>2021-02-28T11:45:06Z</time>
      </trkpt>
      <trkpt lat="45.04509" lon="6.48623">
        <ele>2445.2</ele>
        <time>2021-02-28T11:45:07Z</time>
      </trkpt>
      <trkpt lat="45.04507" lon="6.48619">
        <ele>2445.2</ele>
        <time>2021-02-28T11:45:08Z</time>
      </trkpt>
      <trkpt lat="45.04507" lon="6.48619">
        <ele>2445</ele>
        <time>2021-02-28T11:45:09Z</time>
      </trkpt>
      <trkpt lat="45.04505" lon="6.48616">
        <ele>2444.6</ele>
        <time>2021-02-28T11:45:10Z</time>
      </trkpt>
      <trkpt lat="45.04504" lon="6.48614">
        <ele>2444.2</ele>
        <time>2021-02-28T11:45:11Z</time>
      </trkpt>
      <trkpt lat="45.04502" lon="6.48613">
        <ele>2444</ele>
        <time>2021-02-28T11:45:12Z</time>
      </trkpt>
      <trkpt lat="45.04502" lon="6.48613">
        <ele>2443.6</ele>
        <time>2021-02-28T11:45:13Z</time>
      </trkpt>
      <trkpt lat="45.04501" lon="6.4861">
        <ele>2443.6</ele>
        <time>2021-02-28T11:45:14Z</time>
      </trkpt>
      <trkpt lat="45.04501" lon="6.4861">
        <ele>2443.8</ele>
        <time>2021-02-28T11:45:15Z</time>
      </trkpt>
      <trkpt lat="45.04501" lon="6.4861">
        <ele>2443.8</ele>
        <time>2021-02-28T11:45:16Z</time>
      </trkpt>
      <trkpt lat="45.04501" lon="6.4861">
        <ele>2443.8</ele>
        <time>2021-02-28T11:45:17Z</time>
      </trkpt>
      <trkpt lat="45.04501" lon="6.4861">
        <ele>2443.8</ele>
        <time>2021-02-28T11:45:18Z</time>
      </trkpt>
      <trkpt lat="45.04501" lon="6.4861">
        <ele>2443.8</ele>
        <time>2021-02-28T11:45:19Z</time>
      </trkpt>
      <trkpt lat="45.04501" lon="6.4861">
        <ele>2444.2</ele>
        <time>2021-02-28T11:45:20Z</time>
      </trkpt>
      <trkpt lat="45.04501" lon="6.4861">
        <ele>2444</ele>
        <time>2021-02-28T11:45:21Z</time>
      </trkpt>
      <trkpt lat="45.04501" lon="6.4861">
        <ele>2444.2</ele>
        <time>2021-02-28T11:45:22Z</time>
      </trkpt>
      <trkpt lat="45.04501" lon="6.4861">
        <ele>2444.4</ele>
        <time>2021-02-28T11:45:23Z</time>
      </trkpt>
      <trkpt lat="45.04501" lon="6.4861">
        <ele>2444.2</ele>
        <time>2021-02-28T11:45:24Z</time>
      </trkpt>
      <trkpt lat="45.04501" lon="6.4861">
        <ele>2444.2</ele>
        <time>2021-02-28T11:45:25Z</time>
      </trkpt>
      <trkpt lat="45.04501" lon="6.4861">
        <ele>2444</ele>
        <time>2021-02-28T11:45:26Z</time>
      </trkpt>
      <trkpt lat="45.04501" lon="6.4861">
        <ele>2444</ele>
        <time>2021-02-28T11:45:27Z</time>
      </trkpt>
      <trkpt lat="45.04501" lon="6.4861">
        <ele>2444</ele>
        <time>2021-02-28T11:45:28Z</time>
      </trkpt>
      <trkpt lat="45.04501" lon="6.4861">
        <ele>2444</ele>
        <time>2021-02-28T11:45:29Z</time>
      </trkpt>
      <trkpt lat="45.04501" lon="6.4861">
        <ele>2444</ele>
        <time>2021-02-28T11:45:30Z</time>
      </trkpt>
      <trkpt lat="45.04501" lon="6.4861">
        <ele>2444</ele>
        <time>2021-02-28T11:45:31Z</time>
      </trkpt>
      <trkpt lat="45.04501" lon="6.4861">
        <ele>2443.8</ele>
        <time>2021-02-28T11:45:32Z</time>
      </trkpt>
      <trkpt lat="45.04501" lon="6.4861">
        <ele>2443.6</ele>
        <time>2021-02-28T11:45:33Z</time>
      </trkpt>
      <trkpt lat="45.04501" lon="6.4861">
        <ele>2443.6</ele>
        <time>2021-02-28T11:45:34Z</time>
      </trkpt>
      <trkpt lat="45.04501" lon="6.4861">
        <ele>2443.4</ele>
        <time>2021-02-28T11:45:35Z</time>
      </trkpt>
      <trkpt lat="45.04501" lon="6.4861">
        <ele>2443.4</ele>
        <time>2021-02-28T11:45:36Z</time>
      </trkpt>
      <trkpt lat="45.04501" lon="6.4861">
        <ele>2443.2</ele>
        <time>2021-02-28T11:45:37Z</time>
      </trkpt>
      <trkpt lat="45.04501" lon="6.4861">
        <ele>2443.4</ele>
        <time>2021-02-28T11:45:38Z</time>
      </trkpt>
      <trkpt lat="45.04501" lon="6.4861">
        <ele>2443.4</ele>
        <time>2021-02-28T11:45:39Z</time>
      </trkpt>
      <trkpt lat="45.04501" lon="6.4861">
        <ele>2443.4</ele>
        <time>2021-02-28T11:45:40Z</time>
      </trkpt>
      <trkpt lat="45.04501" lon="6.4861">
        <ele>2443.6</ele>
        <time>2021-02-28T11:45:41Z</time>
      </trkpt>
      <trkpt lat="45.04501" lon="6.4861">
        <ele>2443</ele>
        <time>2021-02-28T11:45:42Z</time>
      </trkpt>
      <trkpt lat="45.04501" lon="6.4861">
        <ele>2442.8</ele>
        <time>2021-02-28T11:45:43Z</time>
      </trkpt>
      <trkpt lat="45.04501" lon="6.4861">
        <ele>2442.6</ele>
        <time>2021-02-28T11:45:44Z</time>
      </trkpt>
      <trkpt lat="45.04501" lon="6.4861">
        <ele>2442.4</ele>
        <time>2021-02-28T11:45:45Z</time>
      </trkpt>
      <trkpt lat="45.04501" lon="6.4861">
        <ele>2442.4</ele>
        <time>2021-02-28T11:45:46Z</time>
      </trkpt>
      <trkpt lat="45.04501" lon="6.4861">
        <ele>2442.4</ele>
        <time>2021-02-28T11:45:47Z</time>
      </trkpt>
      <trkpt lat="45.04501" lon="6.4861">
        <ele>2442.6</ele>
        <time>2021-02-28T11:45:48Z</time>
      </trkpt>
      <trkpt lat="45.04501" lon="6.4861">
        <ele>2442.4</ele>
        <time>2021-02-28T11:45:49Z</time>
      </trkpt>
      <trkpt lat="45.04501" lon="6.4861">
        <ele>2442.6</ele>
        <time>2021-02-28T11:45:50Z</time>
      </trkpt>
      <trkpt lat="45.04501" lon="6.4861">
        <ele>2442.8</ele>
        <time>2021-02-28T11:45:51Z</time>
      </trkpt>
      <trkpt lat="45.04501" lon="6.4861">
        <ele>2443</ele>
        <time>2021-02-28T11:45:52Z</time>
      </trkpt>
      <trkpt lat="45.04501" lon="6.4861">
        <ele>2443</ele>
        <time>2021-02-28T11:45:53Z</time>
      </trkpt>
      <trkpt lat="45.04501" lon="6.4861">
        <ele>2443</ele>
        <time>2021-02-28T11:45:54Z</time>
      </trkpt>
      <trkpt lat="45.04501" lon="6.4861">
        <ele>2443</ele>
        <time>2021-02-28T11:45:55Z</time>
      </trkpt>
      <trkpt lat="45.04501" lon="6.4861">
        <ele>2443</ele>
        <time>2021-02-28T11:45:56Z</time>
      </trkpt>
      <trkpt lat="45.04501" lon="6.4861">
        <ele>2443</ele>
        <time>2021-02-28T11:45:57Z</time>
      </trkpt>
      <trkpt lat="45.04501" lon="6.4861">
        <ele>2442.8</ele>
        <time>2021-02-28T11:45:58Z</time>
      </trkpt>
      <trkpt lat="45.04501" lon="6.4861">
        <ele>2442.8</ele>
        <time>2021-02-28T11:45:59Z</time>
      </trkpt>
      <trkpt lat="45.04501" lon="6.4861">
        <ele>2442.4</ele>
        <time>2021-02-28T11:46:00Z</time>
      </trkpt>
      <trkpt lat="45.04501" lon="6.4861">
        <ele>2442.4</ele>
        <time>2021-02-28T11:46:01Z</time>
      </trkpt>
      <trkpt lat="45.04501" lon="6.4861">
        <ele>2442.4</ele>
        <time>2021-02-28T11:46:02Z</time>
      </trkpt>
      <trkpt lat="45.04501" lon="6.4861">
        <ele>2442.4</ele>
        <time>2021-02-28T11:46:03Z</time>
      </trkpt>
      <trkpt lat="45.04501" lon="6.4861">
        <ele>2442.6</ele>
        <time>2021-02-28T11:46:04Z</time>
      </trkpt>
      <trkpt lat="45.04501" lon="6.4861">
        <ele>2442.6</ele>
        <time>2021-02-28T11:46:05Z</time>
      </trkpt>
      <trkpt lat="45.04501" lon="6.4861">
        <ele>2443</ele>
        <time>2021-02-28T11:46:06Z</time>
      </trkpt>
      <trkpt lat="45.04501" lon="6.4861">
        <ele>2443</ele>
        <time>2021-02-28T11:46:07Z</time>
      </trkpt>
      <trkpt lat="45.04501" lon="6.4861">
        <ele>2443.2</ele>
        <time>2021-02-28T11:46:08Z</time>
      </trkpt>
      <trkpt lat="45.04499" lon="6.48608">
        <ele>2443</ele>
        <time>2021-02-28T11:46:09Z</time>
      </trkpt>
      <trkpt lat="45.04497" lon="6.48607">
        <ele>2442.6</ele>
        <time>2021-02-28T11:46:10Z</time>
      </trkpt>
      <trkpt lat="45.04494" lon="6.48608">
        <ele>2442.2</ele>
        <time>2021-02-28T11:46:11Z</time>
      </trkpt>
      <trkpt lat="45.04492" lon="6.48612">
        <ele>2441.4</ele>
        <time>2021-02-28T11:46:12Z</time>
      </trkpt>
      <trkpt lat="45.04492" lon="6.48618">
        <ele>2440.6</ele>
        <time>2021-02-28T11:46:13Z</time>
      </trkpt>
      <trkpt lat="45.04493" lon="6.48624">
        <ele>2440</ele>
        <time>2021-02-28T11:46:14Z</time>
      </trkpt>
      <trkpt lat="45.04492" lon="6.48633">
        <ele>2439</ele>
        <time>2021-02-28T11:46:15Z</time>
      </trkpt>
      <trkpt lat="45.04489" lon="6.48644">
        <ele>2437.6</ele>
        <time>2021-02-28T11:46:16Z</time>
      </trkpt>
      <trkpt lat="45.04485" lon="6.4865">
        <ele>2435.8</ele>
        <time>2021-02-28T11:46:17Z</time>
      </trkpt>
      <trkpt lat="45.04479" lon="6.48652">
        <ele>2434.4</ele>
        <time>2021-02-28T11:46:18Z</time>
      </trkpt>
      <trkpt lat="45.04474" lon="6.48657">
        <ele>2432.6</ele>
        <time>2021-02-28T11:46:19Z</time>
      </trkpt>
      <trkpt lat="45.04468" lon="6.48662">
        <ele>2431</ele>
        <time>2021-02-28T11:46:20Z</time>
      </trkpt>
      <trkpt lat="45.04462" lon="6.48666">
        <ele>2429.6</ele>
        <time>2021-02-28T11:46:21Z</time>
      </trkpt>
      <trkpt lat="45.04456" lon="6.48672">
        <ele>2427.6</ele>
        <time>2021-02-28T11:46:22Z</time>
      </trkpt>
      <trkpt lat="45.0445" lon="6.48679">
        <ele>2426</ele>
        <time>2021-02-28T11:46:23Z</time>
      </trkpt>
      <trkpt lat="45.04443" lon="6.48688">
        <ele>2424.2</ele>
        <time>2021-02-28T11:46:24Z</time>
      </trkpt>
      <trkpt lat="45.04436" lon="6.48697">
        <ele>2422.4</ele>
        <time>2021-02-28T11:46:25Z</time>
      </trkpt>
      <trkpt lat="45.04429" lon="6.48706">
        <ele>2419.8</ele>
        <time>2021-02-28T11:46:26Z</time>
      </trkpt>
      <trkpt lat="45.04423" lon="6.48712">
        <ele>2417.8</ele>
        <time>2021-02-28T11:46:27Z</time>
      </trkpt>
      <trkpt lat="45.04418" lon="6.48716">
        <ele>2416.6</ele>
        <time>2021-02-28T11:46:28Z</time>
      </trkpt>
      <trkpt lat="45.04414" lon="6.48719">
        <ele>2415.6</ele>
        <time>2021-02-28T11:46:29Z</time>
      </trkpt>
      <trkpt lat="45.04411" lon="6.48722">
        <ele>2414.8</ele>
        <time>2021-02-28T11:46:30Z</time>
      </trkpt>
      <trkpt lat="45.04409" lon="6.48723">
        <ele>2414.8</ele>
        <time>2021-02-28T11:46:31Z</time>
      </trkpt>
      <trkpt lat="45.04407" lon="6.48724">
        <ele>2414.4</ele>
        <time>2021-02-28T11:46:32Z</time>
      </trkpt>
      <trkpt lat="45.04405" lon="6.48725">
        <ele>2413.8</ele>
        <time>2021-02-28T11:46:33Z</time>
      </trkpt>
      <trkpt lat="45.04405" lon="6.48725">
        <ele>2414.2</ele>
        <time>2021-02-28T11:46:34Z</time>
      </trkpt>
      <trkpt lat="45.04401" lon="6.48727">
        <ele>2413.4</ele>
        <time>2021-02-28T11:46:35Z</time>
      </trkpt>
      <trkpt lat="45.04399" lon="6.48728">
        <ele>2413.2</ele>
        <time>2021-02-28T11:46:36Z</time>
      </trkpt>
      <trkpt lat="45.04399" lon="6.48728">
        <ele>2413</ele>
        <time>2021-02-28T11:46:37Z</time>
      </trkpt>
      <trkpt lat="45.04399" lon="6.48728">
        <ele>2413.2</ele>
        <time>2021-02-28T11:46:38Z</time>
      </trkpt>
      <trkpt lat="45.04399" lon="6.48728">
        <ele>2413.4</ele>
        <time>2021-02-28T11:46:39Z</time>
      </trkpt>
      <trkpt lat="45.04399" lon="6.48728">
        <ele>2413.6</ele>
        <time>2021-02-28T11:46:40Z</time>
      </trkpt>
      <trkpt lat="45.04399" lon="6.48728">
        <ele>2413.8</ele>
        <time>2021-02-28T11:46:41Z</time>
      </trkpt>
      <trkpt lat="45.04399" lon="6.48728">
        <ele>2413.8</ele>
        <time>2021-02-28T11:46:42Z</time>
      </trkpt>
      <trkpt lat="45.04399" lon="6.48728">
        <ele>2414</ele>
        <time>2021-02-28T11:46:43Z</time>
      </trkpt>
      <trkpt lat="45.04399" lon="6.48728">
        <ele>2414</ele>
        <time>2021-02-28T11:46:44Z</time>
      </trkpt>
      <trkpt lat="45.04399" lon="6.48728">
        <ele>2413.8</ele>
        <time>2021-02-28T11:46:45Z</time>
      </trkpt>
      <trkpt lat="45.04399" lon="6.48728">
        <ele>2414.2</ele>
        <time>2021-02-28T11:46:46Z</time>
      </trkpt>
      <trkpt lat="45.04399" lon="6.48728">
        <ele>2413.8</ele>
        <time>2021-02-28T11:46:47Z</time>
      </trkpt>
      <trkpt lat="45.04399" lon="6.48728">
        <ele>2414</ele>
        <time>2021-02-28T11:46:48Z</time>
      </trkpt>
      <trkpt lat="45.04399" lon="6.48728">
        <ele>2414.2</ele>
        <time>2021-02-28T11:46:49Z</time>
      </trkpt>
      <trkpt lat="45.04399" lon="6.48728">
        <ele>2414.2</ele>
        <time>2021-02-28T11:46:50Z</time>
      </trkpt>
      <trkpt lat="45.04399" lon="6.48728">
        <ele>2414</ele>
        <time>2021-02-28T11:46:51Z</time>
      </trkpt>
      <trkpt lat="45.04399" lon="6.48728">
        <ele>2414</ele>
        <time>2021-02-28T11:46:52Z</time>
      </trkpt>
      <trkpt lat="45.04399" lon="6.48728">
        <ele>2414</ele>
        <time>2021-02-28T11:46:53Z</time>
      </trkpt>
      <trkpt lat="45.04399" lon="6.48728">
        <ele>2414</ele>
        <time>2021-02-28T11:46:54Z</time>
      </trkpt>
      <trkpt lat="45.04399" lon="6.48728">
        <ele>2414.2</ele>
        <time>2021-02-28T11:46:55Z</time>
      </trkpt>
      <trkpt lat="45.04399" lon="6.48728">
        <ele>2414.2</ele>
        <time>2021-02-28T11:46:56Z</time>
      </trkpt>
      <trkpt lat="45.04399" lon="6.48728">
        <ele>2414</ele>
        <time>2021-02-28T11:46:57Z</time>
      </trkpt>
      <trkpt lat="45.04399" lon="6.48728">
        <ele>2414</ele>
        <time>2021-02-28T11:46:58Z</time>
      </trkpt>
      <trkpt lat="45.04399" lon="6.48728">
        <ele>2414.2</ele>
        <time>2021-02-28T11:46:59Z</time>
      </trkpt>
      <trkpt lat="45.04399" lon="6.48728">
        <ele>2414</ele>
        <time>2021-02-28T11:47:00Z</time>
      </trkpt>
      <trkpt lat="45.04399" lon="6.48728">
        <ele>2413.8</ele>
        <time>2021-02-28T11:47:01Z</time>
      </trkpt>
      <trkpt lat="45.04399" lon="6.48728">
        <ele>2413.6</ele>
        <time>2021-02-28T11:47:02Z</time>
      </trkpt>
      <trkpt lat="45.04399" lon="6.48728">
        <ele>2413.6</ele>
        <time>2021-02-28T11:47:03Z</time>
      </trkpt>
      <trkpt lat="45.04399" lon="6.48728">
        <ele>2413.8</ele>
        <time>2021-02-28T11:47:04Z</time>
      </trkpt>
      <trkpt lat="45.04399" lon="6.48728">
        <ele>2414</ele>
        <time>2021-02-28T11:47:05Z</time>
      </trkpt>
      <trkpt lat="45.04397" lon="6.4873">
        <ele>2413.8</ele>
        <time>2021-02-28T11:47:06Z</time>
      </trkpt>
      <trkpt lat="45.04397" lon="6.4873">
        <ele>2413.6</ele>
        <time>2021-02-28T11:47:07Z</time>
      </trkpt>
      <trkpt lat="45.04394" lon="6.48733">
        <ele>2413.8</ele>
        <time>2021-02-28T11:47:08Z</time>
      </trkpt>
      <trkpt lat="45.04391" lon="6.48736">
        <ele>2413.2</ele>
        <time>2021-02-28T11:47:09Z</time>
      </trkpt>
      <trkpt lat="45.0439" lon="6.48737">
        <ele>2413</ele>
        <time>2021-02-28T11:47:10Z</time>
      </trkpt>
      <trkpt lat="45.04388" lon="6.48738">
        <ele>2412.8</ele>
        <time>2021-02-28T11:47:11Z</time>
      </trkpt>
      <trkpt lat="45.04387" lon="6.4874">
        <ele>2412.8</ele>
        <time>2021-02-28T11:47:12Z</time>
      </trkpt>
      <trkpt lat="45.04385" lon="6.48742">
        <ele>2412.4</ele>
        <time>2021-02-28T11:47:13Z</time>
      </trkpt>
      <trkpt lat="45.04385" lon="6.48742">
        <ele>2412.2</ele>
        <time>2021-02-28T11:47:14Z</time>
      </trkpt>
      <trkpt lat="45.04383" lon="6.48746">
        <ele>2411.8</ele>
        <time>2021-02-28T11:47:15Z</time>
      </trkpt>
      <trkpt lat="45.04381" lon="6.48748">
        <ele>2412</ele>
        <time>2021-02-28T11:47:16Z</time>
      </trkpt>
      <trkpt lat="45.04379" lon="6.4875">
        <ele>2411.8</ele>
        <time>2021-02-28T11:47:17Z</time>
      </trkpt>
      <trkpt lat="45.04377" lon="6.48753">
        <ele>2411.4</ele>
        <time>2021-02-28T11:47:18Z</time>
      </trkpt>
      <trkpt lat="45.04375" lon="6.48756">
        <ele>2410.8</ele>
        <time>2021-02-28T11:47:19Z</time>
      </trkpt>
      <trkpt lat="45.04373" lon="6.48758">
        <ele>2410.4</ele>
        <time>2021-02-28T11:47:20Z</time>
      </trkpt>
      <trkpt lat="45.04372" lon="6.48761">
        <ele>2409.8</ele>
        <time>2021-02-28T11:47:21Z</time>
      </trkpt>
      <trkpt lat="45.0437" lon="6.48764">
        <ele>2409.6</ele>
        <time>2021-02-28T11:47:22Z</time>
      </trkpt>
      <trkpt lat="45.04369" lon="6.48767">
        <ele>2409</ele>
        <time>2021-02-28T11:47:23Z</time>
      </trkpt>
      <trkpt lat="45.04367" lon="6.4877">
        <ele>2408.4</ele>
        <time>2021-02-28T11:47:24Z</time>
      </trkpt>
      <trkpt lat="45.04366" lon="6.48774">
        <ele>2408.2</ele>
        <time>2021-02-28T11:47:25Z</time>
      </trkpt>
      <trkpt lat="45.04365" lon="6.48778">
        <ele>2408.2</ele>
        <time>2021-02-28T11:47:26Z</time>
      </trkpt>
      <trkpt lat="45.04364" lon="6.48782">
        <ele>2408</ele>
        <time>2021-02-28T11:47:27Z</time>
      </trkpt>
      <trkpt lat="45.04363" lon="6.48786">
        <ele>2407.6</ele>
        <time>2021-02-28T11:47:28Z</time>
      </trkpt>
      <trkpt lat="45.04362" lon="6.4879">
        <ele>2407.4</ele>
        <time>2021-02-28T11:47:29Z</time>
      </trkpt>
      <trkpt lat="45.04362" lon="6.48796">
        <ele>2407</ele>
        <time>2021-02-28T11:47:30Z</time>
      </trkpt>
      <trkpt lat="45.04361" lon="6.48802">
        <ele>2406.2</ele>
        <time>2021-02-28T11:47:31Z</time>
      </trkpt>
      <trkpt lat="45.0436" lon="6.48809">
        <ele>2406</ele>
        <time>2021-02-28T11:47:32Z</time>
      </trkpt>
      <trkpt lat="45.04357" lon="6.48815">
        <ele>2405.2</ele>
        <time>2021-02-28T11:47:33Z</time>
      </trkpt>
      <trkpt lat="45.04355" lon="6.48819">
        <ele>2404.8</ele>
        <time>2021-02-28T11:47:34Z</time>
      </trkpt>
      <trkpt lat="45.04353" lon="6.48821">
        <ele>2404.8</ele>
        <time>2021-02-28T11:47:35Z</time>
      </trkpt>
      <trkpt lat="45.04353" lon="6.48821">
        <ele>2405</ele>
        <time>2021-02-28T11:47:36Z</time>
      </trkpt>
      <trkpt lat="45.04353" lon="6.48821">
        <ele>2404.8</ele>
        <time>2021-02-28T11:47:37Z</time>
      </trkpt>
      <trkpt lat="45.04353" lon="6.48821">
        <ele>2404.8</ele>
        <time>2021-02-28T11:47:38Z</time>
      </trkpt>
      <trkpt lat="45.04353" lon="6.48821">
        <ele>2404.6</ele>
        <time>2021-02-28T11:47:39Z</time>
      </trkpt>
      <trkpt lat="45.04353" lon="6.48821">
        <ele>2404.8</ele>
        <time>2021-02-28T11:47:40Z</time>
      </trkpt>
      <trkpt lat="45.04351" lon="6.48822">
        <ele>2405</ele>
        <time>2021-02-28T11:47:41Z</time>
      </trkpt>
      <trkpt lat="45.04351" lon="6.48822">
        <ele>2405</ele>
        <time>2021-02-28T11:47:42Z</time>
      </trkpt>
      <trkpt lat="45.04351" lon="6.48822">
        <ele>2405.2</ele>
        <time>2021-02-28T11:47:43Z</time>
      </trkpt>
      <trkpt lat="45.04351" lon="6.48822">
        <ele>2405.2</ele>
        <time>2021-02-28T11:47:44Z</time>
      </trkpt>
      <trkpt lat="45.04351" lon="6.48822">
        <ele>2405.6</ele>
        <time>2021-02-28T11:47:45Z</time>
      </trkpt>
      <trkpt lat="45.04351" lon="6.48822">
        <ele>2405.8</ele>
        <time>2021-02-28T11:47:46Z</time>
      </trkpt>
      <trkpt lat="45.04351" lon="6.48822">
        <ele>2406</ele>
        <time>2021-02-28T11:47:47Z</time>
      </trkpt>
      <trkpt lat="45.04351" lon="6.48822">
        <ele>2406.2</ele>
        <time>2021-02-28T11:47:48Z</time>
      </trkpt>
      <trkpt lat="45.04351" lon="6.48822">
        <ele>2406</ele>
        <time>2021-02-28T11:47:49Z</time>
      </trkpt>
      <trkpt lat="45.04351" lon="6.48822">
        <ele>2405.8</ele>
        <time>2021-02-28T11:47:50Z</time>
      </trkpt>
      <trkpt lat="45.04351" lon="6.48822">
        <ele>2405.6</ele>
        <time>2021-02-28T11:47:51Z</time>
      </trkpt>
      <trkpt lat="45.04348" lon="6.48825">
        <ele>2405.4</ele>
        <time>2021-02-28T11:47:52Z</time>
      </trkpt>
      <trkpt lat="45.04346" lon="6.48825">
        <ele>2405.2</ele>
        <time>2021-02-28T11:47:53Z</time>
      </trkpt>
      <trkpt lat="45.04346" lon="6.48825">
        <ele>2404.6</ele>
        <time>2021-02-28T11:47:54Z</time>
      </trkpt>
      <trkpt lat="45.04343" lon="6.48827">
        <ele>2405</ele>
        <time>2021-02-28T11:47:55Z</time>
      </trkpt>
      <trkpt lat="45.04341" lon="6.48829">
        <ele>2405</ele>
        <time>2021-02-28T11:47:56Z</time>
      </trkpt>
      <trkpt lat="45.04341" lon="6.48829">
        <ele>2405</ele>
        <time>2021-02-28T11:47:57Z</time>
      </trkpt>
      <trkpt lat="45.04338" lon="6.48832">
        <ele>2405</ele>
        <time>2021-02-28T11:47:58Z</time>
      </trkpt>
      <trkpt lat="45.04336" lon="6.48833">
        <ele>2405.2</ele>
        <time>2021-02-28T11:47:59Z</time>
      </trkpt>
      <trkpt lat="45.04334" lon="6.48834">
        <ele>2404.8</ele>
        <time>2021-02-28T11:48:00Z</time>
      </trkpt>
      <trkpt lat="45.04332" lon="6.48835">
        <ele>2404.8</ele>
        <time>2021-02-28T11:48:01Z</time>
      </trkpt>
      <trkpt lat="45.0433" lon="6.48837">
        <ele>2404.8</ele>
        <time>2021-02-28T11:48:02Z</time>
      </trkpt>
      <trkpt lat="45.04327" lon="6.48839">
        <ele>2405</ele>
        <time>2021-02-28T11:48:03Z</time>
      </trkpt>
      <trkpt lat="45.04324" lon="6.48841">
        <ele>2404.8</ele>
        <time>2021-02-28T11:48:04Z</time>
      </trkpt>
      <trkpt lat="45.04322" lon="6.48843">
        <ele>2404.2</ele>
        <time>2021-02-28T11:48:05Z</time>
      </trkpt>
      <trkpt lat="45.0432" lon="6.48845">
        <ele>2404.6</ele>
        <time>2021-02-28T11:48:06Z</time>
      </trkpt>
      <trkpt lat="45.04318" lon="6.48847">
        <ele>2403.6</ele>
        <time>2021-02-28T11:48:07Z</time>
      </trkpt>
      <trkpt lat="45.04316" lon="6.48849">
        <ele>2403.8</ele>
        <time>2021-02-28T11:48:08Z</time>
      </trkpt>
      <trkpt lat="45.04314" lon="6.48851">
        <ele>2403.6</ele>
        <time>2021-02-28T11:48:09Z</time>
      </trkpt>
      <trkpt lat="45.04313" lon="6.48852">
        <ele>2403.4</ele>
        <time>2021-02-28T11:48:10Z</time>
      </trkpt>
      <trkpt lat="45.04311" lon="6.48853">
        <ele>2403.4</ele>
        <time>2021-02-28T11:48:11Z</time>
      </trkpt>
      <trkpt lat="45.04311" lon="6.48853">
        <ele>2403</ele>
        <time>2021-02-28T11:48:12Z</time>
      </trkpt>
      <trkpt lat="45.04307" lon="6.48855">
        <ele>2403</ele>
        <time>2021-02-28T11:48:13Z</time>
      </trkpt>
      <trkpt lat="45.04305" lon="6.48857">
        <ele>2403.2</ele>
        <time>2021-02-28T11:48:14Z</time>
      </trkpt>
      <trkpt lat="45.04303" lon="6.48858">
        <ele>2403</ele>
        <time>2021-02-28T11:48:15Z</time>
      </trkpt>
      <trkpt lat="45.04301" lon="6.48859">
        <ele>2402.4</ele>
        <time>2021-02-28T11:48:16Z</time>
      </trkpt>
      <trkpt lat="45.04298" lon="6.4886">
        <ele>2402.6</ele>
        <time>2021-02-28T11:48:17Z</time>
      </trkpt>
      <trkpt lat="45.04296" lon="6.48862">
        <ele>2402.6</ele>
        <time>2021-02-28T11:48:18Z</time>
      </trkpt>
      <trkpt lat="45.04293" lon="6.48863">
        <ele>2402</ele>
        <time>2021-02-28T11:48:19Z</time>
      </trkpt>
      <trkpt lat="45.04291" lon="6.48865">
        <ele>2401.8</ele>
        <time>2021-02-28T11:48:20Z</time>
      </trkpt>
      <trkpt lat="45.04288" lon="6.48866">
        <ele>2401.8</ele>
        <time>2021-02-28T11:48:21Z</time>
      </trkpt>
      <trkpt lat="45.04286" lon="6.48866">
        <ele>2400.6</ele>
        <time>2021-02-28T11:48:22Z</time>
      </trkpt>
      <trkpt lat="45.04284" lon="6.48867">
        <ele>2401.2</ele>
        <time>2021-02-28T11:48:23Z</time>
      </trkpt>
      <trkpt lat="45.04284" lon="6.48867">
        <ele>2401.4</ele>
        <time>2021-02-28T11:48:24Z</time>
      </trkpt>
      <trkpt lat="45.04281" lon="6.48869">
        <ele>2401.4</ele>
        <time>2021-02-28T11:48:25Z</time>
      </trkpt>
      <trkpt lat="45.04279" lon="6.4887">
        <ele>2401.6</ele>
        <time>2021-02-28T11:48:26Z</time>
      </trkpt>
      <trkpt lat="45.04277" lon="6.48871">
        <ele>2401.4</ele>
        <time>2021-02-28T11:48:27Z</time>
      </trkpt>
      <trkpt lat="45.04275" lon="6.48872">
        <ele>2401.4</ele>
        <time>2021-02-28T11:48:28Z</time>
      </trkpt>
      <trkpt lat="45.04272" lon="6.48873">
        <ele>2401.4</ele>
        <time>2021-02-28T11:48:29Z</time>
      </trkpt>
      <trkpt lat="45.0427" lon="6.48874">
        <ele>2401.4</ele>
        <time>2021-02-28T11:48:30Z</time>
      </trkpt>
      <trkpt lat="45.04268" lon="6.48875">
        <ele>2401.2</ele>
        <time>2021-02-28T11:48:31Z</time>
      </trkpt>
      <trkpt lat="45.04268" lon="6.48875">
        <ele>2401</ele>
        <time>2021-02-28T11:48:32Z</time>
      </trkpt>
      <trkpt lat="45.04264" lon="6.48875">
        <ele>2401.2</ele>
        <time>2021-02-28T11:48:33Z</time>
      </trkpt>
      <trkpt lat="45.0426" lon="6.48876">
        <ele>2401.2</ele>
        <time>2021-02-28T11:48:34Z</time>
      </trkpt>
      <trkpt lat="45.04259" lon="6.48876">
        <ele>2401</ele>
        <time>2021-02-28T11:48:35Z</time>
      </trkpt>
      <trkpt lat="45.04257" lon="6.48876">
        <ele>2401</ele>
        <time>2021-02-28T11:48:36Z</time>
      </trkpt>
      <trkpt lat="45.04254" lon="6.48876">
        <ele>2401.2</ele>
        <time>2021-02-28T11:48:37Z</time>
      </trkpt>
      <trkpt lat="45.04252" lon="6.48876">
        <ele>2401</ele>
        <time>2021-02-28T11:48:38Z</time>
      </trkpt>
      <trkpt lat="45.04249" lon="6.48876">
        <ele>2401</ele>
        <time>2021-02-28T11:48:39Z</time>
      </trkpt>
      <trkpt lat="45.04245" lon="6.48876">
        <ele>2401</ele>
        <time>2021-02-28T11:48:40Z</time>
      </trkpt>
      <trkpt lat="45.04242" lon="6.48876">
        <ele>2401</ele>
        <time>2021-02-28T11:48:41Z</time>
      </trkpt>
      <trkpt lat="45.04239" lon="6.48875">
        <ele>2401</ele>
        <time>2021-02-28T11:48:42Z</time>
      </trkpt>
      <trkpt lat="45.04239" lon="6.48875">
        <ele>2400.6</ele>
        <time>2021-02-28T11:48:43Z</time>
      </trkpt>
      <trkpt lat="45.04239" lon="6.48875">
        <ele>2400.4</ele>
        <time>2021-02-28T11:48:44Z</time>
      </trkpt>
      <trkpt lat="45.0423" lon="6.48876">
        <ele>2400.4</ele>
        <time>2021-02-28T11:48:45Z</time>
      </trkpt>
      <trkpt lat="45.0423" lon="6.48876">
        <ele>2400.4</ele>
        <time>2021-02-28T11:48:46Z</time>
      </trkpt>
      <trkpt lat="45.0423" lon="6.48876">
        <ele>2400.4</ele>
        <time>2021-02-28T11:48:47Z</time>
      </trkpt>
      <trkpt lat="45.04228" lon="6.48875">
        <ele>2400.8</ele>
        <time>2021-02-28T11:48:48Z</time>
      </trkpt>
      <trkpt lat="45.04226" lon="6.48874">
        <ele>2400.8</ele>
        <time>2021-02-28T11:48:49Z</time>
      </trkpt>
      <trkpt lat="45.04224" lon="6.48874">
        <ele>2400.6</ele>
        <time>2021-02-28T11:48:50Z</time>
      </trkpt>
      <trkpt lat="45.04222" lon="6.48873">
        <ele>2400.6</ele>
        <time>2021-02-28T11:48:51Z</time>
      </trkpt>
      <trkpt lat="45.04219" lon="6.48873">
        <ele>2401</ele>
        <time>2021-02-28T11:48:52Z</time>
      </trkpt>
      <trkpt lat="45.04216" lon="6.48872">
        <ele>2400.6</ele>
        <time>2021-02-28T11:48:53Z</time>
      </trkpt>
      <trkpt lat="45.04213" lon="6.48871">
        <ele>2401</ele>
        <time>2021-02-28T11:48:54Z</time>
      </trkpt>
      <trkpt lat="45.0421" lon="6.4887">
        <ele>2401.2</ele>
        <time>2021-02-28T11:48:55Z</time>
      </trkpt>
      <trkpt lat="45.04207" lon="6.48869">
        <ele>2401</ele>
        <time>2021-02-28T11:48:56Z</time>
      </trkpt>
      <trkpt lat="45.04204" lon="6.48868">
        <ele>2400.4</ele>
        <time>2021-02-28T11:48:57Z</time>
      </trkpt>
      <trkpt lat="45.04201" lon="6.48867">
        <ele>2400.8</ele>
        <time>2021-02-28T11:48:58Z</time>
      </trkpt>
      <trkpt lat="45.04199" lon="6.48866">
        <ele>2400.4</ele>
        <time>2021-02-28T11:48:59Z</time>
      </trkpt>
      <trkpt lat="45.04196" lon="6.48865">
        <ele>2399.6</ele>
        <time>2021-02-28T11:49:00Z</time>
      </trkpt>
      <trkpt lat="45.04193" lon="6.48864">
        <ele>2399.8</ele>
        <time>2021-02-28T11:49:01Z</time>
      </trkpt>
      <trkpt lat="45.04191" lon="6.48863">
        <ele>2399.6</ele>
        <time>2021-02-28T11:49:02Z</time>
      </trkpt>
      <trkpt lat="45.04188" lon="6.48862">
        <ele>2398.8</ele>
        <time>2021-02-28T11:49:03Z</time>
      </trkpt>
      <trkpt lat="45.04186" lon="6.48861">
        <ele>2398.6</ele>
        <time>2021-02-28T11:49:04Z</time>
      </trkpt>
      <trkpt lat="45.04183" lon="6.48861">
        <ele>2398.4</ele>
        <time>2021-02-28T11:49:05Z</time>
      </trkpt>
      <trkpt lat="45.04181" lon="6.4886">
        <ele>2398.2</ele>
        <time>2021-02-28T11:49:06Z</time>
      </trkpt>
      <trkpt lat="45.0418" lon="6.48859">
        <ele>2398.8</ele>
        <time>2021-02-28T11:49:07Z</time>
      </trkpt>
      <trkpt lat="45.04177" lon="6.48859">
        <ele>2398.6</ele>
        <time>2021-02-28T11:49:08Z</time>
      </trkpt>
      <trkpt lat="45.04174" lon="6.48858">
        <ele>2398.2</ele>
        <time>2021-02-28T11:49:09Z</time>
      </trkpt>
      <trkpt lat="45.04171" lon="6.48857">
        <ele>2398</ele>
        <time>2021-02-28T11:49:10Z</time>
      </trkpt>
      <trkpt lat="45.04167" lon="6.48857">
        <ele>2397.6</ele>
        <time>2021-02-28T11:49:11Z</time>
      </trkpt>
      <trkpt lat="45.04165" lon="6.48856">
        <ele>2396.8</ele>
        <time>2021-02-28T11:49:12Z</time>
      </trkpt>
      <trkpt lat="45.04162" lon="6.48855">
        <ele>2397</ele>
        <time>2021-02-28T11:49:13Z</time>
      </trkpt>
      <trkpt lat="45.04159" lon="6.48854">
        <ele>2396.6</ele>
        <time>2021-02-28T11:49:14Z</time>
      </trkpt>
      <trkpt lat="45.04157" lon="6.48853">
        <ele>2396.4</ele>
        <time>2021-02-28T11:49:15Z</time>
      </trkpt>
      <trkpt lat="45.04157" lon="6.48853">
        <ele>2396.4</ele>
        <time>2021-02-28T11:49:16Z</time>
      </trkpt>
      <trkpt lat="45.04157" lon="6.48853">
        <ele>2396.4</ele>
        <time>2021-02-28T11:49:17Z</time>
      </trkpt>
      <trkpt lat="45.04155" lon="6.48851">
        <ele>2396.2</ele>
        <time>2021-02-28T11:49:18Z</time>
      </trkpt>
      <trkpt lat="45.04153" lon="6.48849">
        <ele>2396</ele>
        <time>2021-02-28T11:49:19Z</time>
      </trkpt>
      <trkpt lat="45.04151" lon="6.48847">
        <ele>2396</ele>
        <time>2021-02-28T11:49:20Z</time>
      </trkpt>
      <trkpt lat="45.04148" lon="6.48845">
        <ele>2396</ele>
        <time>2021-02-28T11:49:21Z</time>
      </trkpt>
      <trkpt lat="45.04146" lon="6.48844">
        <ele>2395.8</ele>
        <time>2021-02-28T11:49:22Z</time>
      </trkpt>
      <trkpt lat="45.04144" lon="6.48843">
        <ele>2395.4</ele>
        <time>2021-02-28T11:49:23Z</time>
      </trkpt>
      <trkpt lat="45.04141" lon="6.48842">
        <ele>2395.8</ele>
        <time>2021-02-28T11:49:24Z</time>
      </trkpt>
      <trkpt lat="45.04139" lon="6.48841">
        <ele>2395.6</ele>
        <time>2021-02-28T11:49:25Z</time>
      </trkpt>
      <trkpt lat="45.04137" lon="6.4884">
        <ele>2395.8</ele>
        <time>2021-02-28T11:49:26Z</time>
      </trkpt>
      <trkpt lat="45.04135" lon="6.48839">
        <ele>2395.8</ele>
        <time>2021-02-28T11:49:27Z</time>
      </trkpt>
      <trkpt lat="45.04134" lon="6.48837">
        <ele>2395.6</ele>
        <time>2021-02-28T11:49:28Z</time>
      </trkpt>
      <trkpt lat="45.04134" lon="6.48837">
        <ele>2395.8</ele>
        <time>2021-02-28T11:49:29Z</time>
      </trkpt>
      <trkpt lat="45.04131" lon="6.48836">
        <ele>2395.4</ele>
        <time>2021-02-28T11:49:30Z</time>
      </trkpt>
      <trkpt lat="45.04131" lon="6.48836">
        <ele>2395.6</ele>
        <time>2021-02-28T11:49:31Z</time>
      </trkpt>
      <trkpt lat="45.04129" lon="6.48833">
        <ele>2395.6</ele>
        <time>2021-02-28T11:49:32Z</time>
      </trkpt>
      <trkpt lat="45.04127" lon="6.48832">
        <ele>2395.8</ele>
        <time>2021-02-28T11:49:33Z</time>
      </trkpt>
      <trkpt lat="45.04127" lon="6.48832">
        <ele>2395.8</ele>
        <time>2021-02-28T11:49:34Z</time>
      </trkpt>
      <trkpt lat="45.04124" lon="6.48832">
        <ele>2395.8</ele>
        <time>2021-02-28T11:49:35Z</time>
      </trkpt>
      <trkpt lat="45.04124" lon="6.48832">
        <ele>2395.6</ele>
        <time>2021-02-28T11:49:36Z</time>
      </trkpt>
      <trkpt lat="45.04122" lon="6.48831">
        <ele>2395.8</ele>
        <time>2021-02-28T11:49:37Z</time>
      </trkpt>
      <trkpt lat="45.04122" lon="6.48831">
        <ele>2395.4</ele>
        <time>2021-02-28T11:49:38Z</time>
      </trkpt>
      <trkpt lat="45.0412" lon="6.4883">
        <ele>2395.6</ele>
        <time>2021-02-28T11:49:39Z</time>
      </trkpt>
      <trkpt lat="45.04117" lon="6.48829">
        <ele>2395.4</ele>
        <time>2021-02-28T11:49:40Z</time>
      </trkpt>
      <trkpt lat="45.04115" lon="6.48828">
        <ele>2395.2</ele>
        <time>2021-02-28T11:49:41Z</time>
      </trkpt>
      <trkpt lat="45.04115" lon="6.48828">
        <ele>2395.4</ele>
        <time>2021-02-28T11:49:42Z</time>
      </trkpt>
      <trkpt lat="45.04112" lon="6.48827">
        <ele>2395.6</ele>
        <time>2021-02-28T11:49:43Z</time>
      </trkpt>
      <trkpt lat="45.0411" lon="6.48826">
        <ele>2395.2</ele>
        <time>2021-02-28T11:49:44Z</time>
      </trkpt>
      <trkpt lat="45.0411" lon="6.48826">
        <ele>2394.8</ele>
        <time>2021-02-28T11:49:45Z</time>
      </trkpt>
      <trkpt lat="45.04107" lon="6.48825">
        <ele>2395.2</ele>
        <time>2021-02-28T11:49:46Z</time>
      </trkpt>
      <trkpt lat="45.04105" lon="6.48825">
        <ele>2395</ele>
        <time>2021-02-28T11:49:47Z</time>
      </trkpt>
      <trkpt lat="45.04105" lon="6.48825">
        <ele>2395.4</ele>
        <time>2021-02-28T11:49:48Z</time>
      </trkpt>
      <trkpt lat="45.04102" lon="6.48825">
        <ele>2395</ele>
        <time>2021-02-28T11:49:49Z</time>
      </trkpt>
      <trkpt lat="45.041" lon="6.48825">
        <ele>2395.2</ele>
        <time>2021-02-28T11:49:50Z</time>
      </trkpt>
      <trkpt lat="45.041" lon="6.48825">
        <ele>2395</ele>
        <time>2021-02-28T11:49:51Z</time>
      </trkpt>
      <trkpt lat="45.04097" lon="6.48824">
        <ele>2395</ele>
        <time>2021-02-28T11:49:52Z</time>
      </trkpt>
      <trkpt lat="45.04095" lon="6.48825">
        <ele>2395.4</ele>
        <time>2021-02-28T11:49:53Z</time>
      </trkpt>
      <trkpt lat="45.04093" lon="6.48825">
        <ele>2395.2</ele>
        <time>2021-02-28T11:49:54Z</time>
      </trkpt>
      <trkpt lat="45.0409" lon="6.48825">
        <ele>2395</ele>
        <time>2021-02-28T11:49:55Z</time>
      </trkpt>
      <trkpt lat="45.04087" lon="6.48825">
        <ele>2395.2</ele>
        <time>2021-02-28T11:49:56Z</time>
      </trkpt>
      <trkpt lat="45.04085" lon="6.48825">
        <ele>2394.8</ele>
        <time>2021-02-28T11:49:57Z</time>
      </trkpt>
      <trkpt lat="45.04082" lon="6.48824">
        <ele>2394.8</ele>
        <time>2021-02-28T11:49:58Z</time>
      </trkpt>
      <trkpt lat="45.04079" lon="6.48824">
        <ele>2394.6</ele>
        <time>2021-02-28T11:49:59Z</time>
      </trkpt>
      <trkpt lat="45.04076" lon="6.48824">
        <ele>2394.2</ele>
        <time>2021-02-28T11:50:00Z</time>
      </trkpt>
      <trkpt lat="45.04076" lon="6.48824">
        <ele>2393.8</ele>
        <time>2021-02-28T11:50:01Z</time>
      </trkpt>
      <trkpt lat="45.04076" lon="6.48824">
        <ele>2393.8</ele>
        <time>2021-02-28T11:50:02Z</time>
      </trkpt>
      <trkpt lat="45.04065" lon="6.48825">
        <ele>2393.6</ele>
        <time>2021-02-28T11:50:03Z</time>
      </trkpt>
      <trkpt lat="45.04065" lon="6.48825">
        <ele>2393.6</ele>
        <time>2021-02-28T11:50:04Z</time>
      </trkpt>
      <trkpt lat="45.04065" lon="6.48825">
        <ele>2393.4</ele>
        <time>2021-02-28T11:50:05Z</time>
      </trkpt>
      <trkpt lat="45.04063" lon="6.48824">
        <ele>2393.2</ele>
        <time>2021-02-28T11:50:06Z</time>
      </trkpt>
      <trkpt lat="45.0406" lon="6.48824">
        <ele>2393.2</ele>
        <time>2021-02-28T11:50:07Z</time>
      </trkpt>
      <trkpt lat="45.04057" lon="6.48824">
        <ele>2393.2</ele>
        <time>2021-02-28T11:50:08Z</time>
      </trkpt>
      <trkpt lat="45.04054" lon="6.48823">
        <ele>2393</ele>
        <time>2021-02-28T11:50:09Z</time>
      </trkpt>
      <trkpt lat="45.0405" lon="6.48822">
        <ele>2392.8</ele>
        <time>2021-02-28T11:50:10Z</time>
      </trkpt>
      <trkpt lat="45.04047" lon="6.48822">
        <ele>2392.6</ele>
        <time>2021-02-28T11:50:11Z</time>
      </trkpt>
      <trkpt lat="45.04043" lon="6.48821">
        <ele>2392.4</ele>
        <time>2021-02-28T11:50:12Z</time>
      </trkpt>
      <trkpt lat="45.04039" lon="6.4882">
        <ele>2392.4</ele>
        <time>2021-02-28T11:50:13Z</time>
      </trkpt>
      <trkpt lat="45.04034" lon="6.4882">
        <ele>2392.2</ele>
        <time>2021-02-28T11:50:14Z</time>
      </trkpt>
      <trkpt lat="45.04032" lon="6.4882">
        <ele>2392.2</ele>
        <time>2021-02-28T11:50:15Z</time>
      </trkpt>
      <trkpt lat="45.04029" lon="6.4882">
        <ele>2392</ele>
        <time>2021-02-28T11:50:16Z</time>
      </trkpt>
      <trkpt lat="45.04027" lon="6.4882">
        <ele>2391.8</ele>
        <time>2021-02-28T11:50:17Z</time>
      </trkpt>
      <trkpt lat="45.04025" lon="6.48821">
        <ele>2391.4</ele>
        <time>2021-02-28T11:50:18Z</time>
      </trkpt>
      <trkpt lat="45.04025" lon="6.48821">
        <ele>2391.6</ele>
        <time>2021-02-28T11:50:19Z</time>
      </trkpt>
      <trkpt lat="45.04021" lon="6.48823">
        <ele>2391.4</ele>
        <time>2021-02-28T11:50:20Z</time>
      </trkpt>
      <trkpt lat="45.04021" lon="6.48823">
        <ele>2391.2</ele>
        <time>2021-02-28T11:50:21Z</time>
      </trkpt>
      <trkpt lat="45.04021" lon="6.48823">
        <ele>2391.2</ele>
        <time>2021-02-28T11:50:22Z</time>
      </trkpt>
      <trkpt lat="45.04016" lon="6.48825">
        <ele>2391</ele>
        <time>2021-02-28T11:50:23Z</time>
      </trkpt>
      <trkpt lat="45.04015" lon="6.48825">
        <ele>2391.2</ele>
        <time>2021-02-28T11:50:24Z</time>
      </trkpt>
      <trkpt lat="45.04014" lon="6.48826">
        <ele>2390.8</ele>
        <time>2021-02-28T11:50:25Z</time>
      </trkpt>
      <trkpt lat="45.04011" lon="6.48827">
        <ele>2391.2</ele>
        <time>2021-02-28T11:50:26Z</time>
      </trkpt>
      <trkpt lat="45.04009" lon="6.48827">
        <ele>2390.8</ele>
        <time>2021-02-28T11:50:27Z</time>
      </trkpt>
      <trkpt lat="45.04009" lon="6.48827">
        <ele>2390.8</ele>
        <time>2021-02-28T11:50:28Z</time>
      </trkpt>
      <trkpt lat="45.04007" lon="6.48829">
        <ele>2390.8</ele>
        <time>2021-02-28T11:50:29Z</time>
      </trkpt>
      <trkpt lat="45.04005" lon="6.4883">
        <ele>2391</ele>
        <time>2021-02-28T11:50:30Z</time>
      </trkpt>
      <trkpt lat="45.04005" lon="6.4883">
        <ele>2390.6</ele>
        <time>2021-02-28T11:50:31Z</time>
      </trkpt>
      <trkpt lat="45.04002" lon="6.48833">
        <ele>2390.6</ele>
        <time>2021-02-28T11:50:32Z</time>
      </trkpt>
      <trkpt lat="45.03999" lon="6.48834">
        <ele>2391</ele>
        <time>2021-02-28T11:50:33Z</time>
      </trkpt>
      <trkpt lat="45.03998" lon="6.48836">
        <ele>2391</ele>
        <time>2021-02-28T11:50:34Z</time>
      </trkpt>
      <trkpt lat="45.03998" lon="6.48836">
        <ele>2390.6</ele>
        <time>2021-02-28T11:50:35Z</time>
      </trkpt>
      <trkpt lat="45.03995" lon="6.4884">
        <ele>2390.8</ele>
        <time>2021-02-28T11:50:36Z</time>
      </trkpt>
      <trkpt lat="45.03992" lon="6.48841">
        <ele>2390.8</ele>
        <time>2021-02-28T11:50:37Z</time>
      </trkpt>
      <trkpt lat="45.03991" lon="6.48843">
        <ele>2390.8</ele>
        <time>2021-02-28T11:50:38Z</time>
      </trkpt>
      <trkpt lat="45.03989" lon="6.48845">
        <ele>2390.2</ele>
        <time>2021-02-28T11:50:39Z</time>
      </trkpt>
      <trkpt lat="45.03987" lon="6.48847">
        <ele>2390.6</ele>
        <time>2021-02-28T11:50:40Z</time>
      </trkpt>
      <trkpt lat="45.03985" lon="6.48849">
        <ele>2391</ele>
        <time>2021-02-28T11:50:41Z</time>
      </trkpt>
      <trkpt lat="45.03985" lon="6.48849">
        <ele>2390.8</ele>
        <time>2021-02-28T11:50:42Z</time>
      </trkpt>
      <trkpt lat="45.03983" lon="6.48852">
        <ele>2390.8</ele>
        <time>2021-02-28T11:50:43Z</time>
      </trkpt>
      <trkpt lat="45.03981" lon="6.48854">
        <ele>2390.4</ele>
        <time>2021-02-28T11:50:44Z</time>
      </trkpt>
      <trkpt lat="45.03979" lon="6.48857">
        <ele>2390.8</ele>
        <time>2021-02-28T11:50:45Z</time>
      </trkpt>
      <trkpt lat="45.03977" lon="6.48858">
        <ele>2390.8</ele>
        <time>2021-02-28T11:50:46Z</time>
      </trkpt>
      <trkpt lat="45.03977" lon="6.48858">
        <ele>2390.6</ele>
        <time>2021-02-28T11:50:47Z</time>
      </trkpt>
      <trkpt lat="45.03975" lon="6.4886">
        <ele>2390.8</ele>
        <time>2021-02-28T11:50:48Z</time>
      </trkpt>
      <trkpt lat="45.03975" lon="6.4886">
        <ele>2390.4</ele>
        <time>2021-02-28T11:50:49Z</time>
      </trkpt>
      <trkpt lat="45.03972" lon="6.48862">
        <ele>2390.4</ele>
        <time>2021-02-28T11:50:50Z</time>
      </trkpt>
      <trkpt lat="45.0397" lon="6.48863">
        <ele>2390.4</ele>
        <time>2021-02-28T11:50:51Z</time>
      </trkpt>
      <trkpt lat="45.0397" lon="6.48863">
        <ele>2390.4</ele>
        <time>2021-02-28T11:50:52Z</time>
      </trkpt>
      <trkpt lat="45.03967" lon="6.48866">
        <ele>2390.2</ele>
        <time>2021-02-28T11:50:53Z</time>
      </trkpt>
      <trkpt lat="45.03967" lon="6.48866">
        <ele>2390.2</ele>
        <time>2021-02-28T11:50:54Z</time>
      </trkpt>
      <trkpt lat="45.03964" lon="6.48869">
        <ele>2390.2</ele>
        <time>2021-02-28T11:50:55Z</time>
      </trkpt>
      <trkpt lat="45.03963" lon="6.48871">
        <ele>2390.2</ele>
        <time>2021-02-28T11:50:56Z</time>
      </trkpt>
      <trkpt lat="45.03961" lon="6.48873">
        <ele>2390.4</ele>
        <time>2021-02-28T11:50:57Z</time>
      </trkpt>
      <trkpt lat="45.03959" lon="6.48874">
        <ele>2390.2</ele>
        <time>2021-02-28T11:50:58Z</time>
      </trkpt>
      <trkpt lat="45.03957" lon="6.48876">
        <ele>2390</ele>
        <time>2021-02-28T11:50:59Z</time>
      </trkpt>
      <trkpt lat="45.03956" lon="6.48878">
        <ele>2390.2</ele>
        <time>2021-02-28T11:51:00Z</time>
      </trkpt>
      <trkpt lat="45.03956" lon="6.48878">
        <ele>2390.2</ele>
        <time>2021-02-28T11:51:01Z</time>
      </trkpt>
      <trkpt lat="45.03953" lon="6.48882">
        <ele>2390</ele>
        <time>2021-02-28T11:51:02Z</time>
      </trkpt>
      <trkpt lat="45.03952" lon="6.48884">
        <ele>2390.2</ele>
        <time>2021-02-28T11:51:03Z</time>
      </trkpt>
      <trkpt lat="45.03952" lon="6.48884">
        <ele>2390</ele>
        <time>2021-02-28T11:51:04Z</time>
      </trkpt>
      <trkpt lat="45.03949" lon="6.48888">
        <ele>2389.8</ele>
        <time>2021-02-28T11:51:05Z</time>
      </trkpt>
      <trkpt lat="45.03947" lon="6.4889">
        <ele>2389.8</ele>
        <time>2021-02-28T11:51:06Z</time>
      </trkpt>
      <trkpt lat="45.03945" lon="6.48893">
        <ele>2390</ele>
        <time>2021-02-28T11:51:07Z</time>
      </trkpt>
      <trkpt lat="45.03945" lon="6.48893">
        <ele>2389.6</ele>
        <time>2021-02-28T11:51:08Z</time>
      </trkpt>
      <trkpt lat="45.03942" lon="6.48897">
        <ele>2389.8</ele>
        <time>2021-02-28T11:51:09Z</time>
      </trkpt>
      <trkpt lat="45.0394" lon="6.48901">
        <ele>2389.8</ele>
        <time>2021-02-28T11:51:10Z</time>
      </trkpt>
      <trkpt lat="45.03939" lon="6.48903">
        <ele>2389.6</ele>
        <time>2021-02-28T11:51:11Z</time>
      </trkpt>
      <trkpt lat="45.03937" lon="6.48905">
        <ele>2389.6</ele>
        <time>2021-02-28T11:51:12Z</time>
      </trkpt>
      <trkpt lat="45.03935" lon="6.48908">
        <ele>2390.2</ele>
        <time>2021-02-28T11:51:13Z</time>
      </trkpt>
      <trkpt lat="45.03933" lon="6.4891">
        <ele>2389.4</ele>
        <time>2021-02-28T11:51:14Z</time>
      </trkpt>
      <trkpt lat="45.03932" lon="6.48912">
        <ele>2389.4</ele>
        <time>2021-02-28T11:51:15Z</time>
      </trkpt>
      <trkpt lat="45.0393" lon="6.48914">
        <ele>2389.6</ele>
        <time>2021-02-28T11:51:16Z</time>
      </trkpt>
      <trkpt lat="45.03929" lon="6.48916">
        <ele>2389.2</ele>
        <time>2021-02-28T11:51:17Z</time>
      </trkpt>
      <trkpt lat="45.03927" lon="6.48918">
        <ele>2388.4</ele>
        <time>2021-02-28T11:51:18Z</time>
      </trkpt>
      <trkpt lat="45.03925" lon="6.48921">
        <ele>2388.8</ele>
        <time>2021-02-28T11:51:19Z</time>
      </trkpt>
      <trkpt lat="45.03922" lon="6.48924">
        <ele>2388.4</ele>
        <time>2021-02-28T11:51:20Z</time>
      </trkpt>
      <trkpt lat="45.0392" lon="6.48928">
        <ele>2388.2</ele>
        <time>2021-02-28T11:51:21Z</time>
      </trkpt>
      <trkpt lat="45.03918" lon="6.48933">
        <ele>2387.8</ele>
        <time>2021-02-28T11:51:22Z</time>
      </trkpt>
      <trkpt lat="45.03914" lon="6.48938">
        <ele>2387.4</ele>
        <time>2021-02-28T11:51:23Z</time>
      </trkpt>
      <trkpt lat="45.03912" lon="6.48942">
        <ele>2387.2</ele>
        <time>2021-02-28T11:51:24Z</time>
      </trkpt>
      <trkpt lat="45.03909" lon="6.48946">
        <ele>2386.6</ele>
        <time>2021-02-28T11:51:25Z</time>
      </trkpt>
      <trkpt lat="45.03905" lon="6.4895">
        <ele>2386.4</ele>
        <time>2021-02-28T11:51:26Z</time>
      </trkpt>
      <trkpt lat="45.03902" lon="6.48953">
        <ele>2386.2</ele>
        <time>2021-02-28T11:51:27Z</time>
      </trkpt>
      <trkpt lat="45.039" lon="6.48955">
        <ele>2386</ele>
        <time>2021-02-28T11:51:28Z</time>
      </trkpt>
      <trkpt lat="45.03897" lon="6.48957">
        <ele>2385.8</ele>
        <time>2021-02-28T11:51:29Z</time>
      </trkpt>
      <trkpt lat="45.03895" lon="6.48959">
        <ele>2385.8</ele>
        <time>2021-02-28T11:51:30Z</time>
      </trkpt>
      <trkpt lat="45.03892" lon="6.48962">
        <ele>2385.6</ele>
        <time>2021-02-28T11:51:31Z</time>
      </trkpt>
      <trkpt lat="45.0389" lon="6.48963">
        <ele>2385.4</ele>
        <time>2021-02-28T11:51:32Z</time>
      </trkpt>
      <trkpt lat="45.03887" lon="6.48965">
        <ele>2385.6</ele>
        <time>2021-02-28T11:51:33Z</time>
      </trkpt>
      <trkpt lat="45.03884" lon="6.48967">
        <ele>2385.8</ele>
        <time>2021-02-28T11:51:34Z</time>
      </trkpt>
      <trkpt lat="45.03881" lon="6.4897">
        <ele>2385.6</ele>
        <time>2021-02-28T11:51:35Z</time>
      </trkpt>
      <trkpt lat="45.03878" lon="6.48973">
        <ele>2385.2</ele>
        <time>2021-02-28T11:51:36Z</time>
      </trkpt>
      <trkpt lat="45.03876" lon="6.48975">
        <ele>2385</ele>
        <time>2021-02-28T11:51:37Z</time>
      </trkpt>
      <trkpt lat="45.03872" lon="6.48978">
        <ele>2384.4</ele>
        <time>2021-02-28T11:51:38Z</time>
      </trkpt>
      <trkpt lat="45.03869" lon="6.48981">
        <ele>2384</ele>
        <time>2021-02-28T11:51:39Z</time>
      </trkpt>
      <trkpt lat="45.03865" lon="6.48983">
        <ele>2383.6</ele>
        <time>2021-02-28T11:51:40Z</time>
      </trkpt>
      <trkpt lat="45.03865" lon="6.48983">
        <ele>2383.2</ele>
        <time>2021-02-28T11:51:41Z</time>
      </trkpt>
      <trkpt lat="45.03865" lon="6.48983">
        <ele>2383</ele>
        <time>2021-02-28T11:51:42Z</time>
      </trkpt>
      <trkpt lat="45.03853" lon="6.48989">
        <ele>2383</ele>
        <time>2021-02-28T11:51:43Z</time>
      </trkpt>
      <trkpt lat="45.03852" lon="6.48989">
        <ele>2382.8</ele>
        <time>2021-02-28T11:51:44Z</time>
      </trkpt>
      <trkpt lat="45.0385" lon="6.4899">
        <ele>2382.8</ele>
        <time>2021-02-28T11:51:45Z</time>
      </trkpt>
      <trkpt lat="45.03846" lon="6.48993">
        <ele>2382.2</ele>
        <time>2021-02-28T11:51:46Z</time>
      </trkpt>
      <trkpt lat="45.03846" lon="6.48993">
        <ele>2382.6</ele>
        <time>2021-02-28T11:51:47Z</time>
      </trkpt>
      <trkpt lat="45.03846" lon="6.48993">
        <ele>2382.4</ele>
        <time>2021-02-28T11:51:48Z</time>
      </trkpt>
      <trkpt lat="45.03834" lon="6.48998">
        <ele>2382</ele>
        <time>2021-02-28T11:51:49Z</time>
      </trkpt>
      <trkpt lat="45.03832" lon="6.48998">
        <ele>2382</ele>
        <time>2021-02-28T11:51:50Z</time>
      </trkpt>
      <trkpt lat="45.0383" lon="6.48999">
        <ele>2381.8</ele>
        <time>2021-02-28T11:51:51Z</time>
      </trkpt>
      <trkpt lat="45.03823" lon="6.49002">
        <ele>2381.4</ele>
        <time>2021-02-28T11:51:52Z</time>
      </trkpt>
      <trkpt lat="45.03821" lon="6.49002">
        <ele>2381</ele>
        <time>2021-02-28T11:51:53Z</time>
      </trkpt>
      <trkpt lat="45.03819" lon="6.49002">
        <ele>2380.8</ele>
        <time>2021-02-28T11:51:54Z</time>
      </trkpt>
      <trkpt lat="45.03811" lon="6.49003">
        <ele>2380.4</ele>
        <time>2021-02-28T11:51:55Z</time>
      </trkpt>
      <trkpt lat="45.03809" lon="6.49003">
        <ele>2379.4</ele>
        <time>2021-02-28T11:51:56Z</time>
      </trkpt>
      <trkpt lat="45.03807" lon="6.49003">
        <ele>2379.6</ele>
        <time>2021-02-28T11:51:57Z</time>
      </trkpt>
      <trkpt lat="45.03799" lon="6.49003">
        <ele>2379</ele>
        <time>2021-02-28T11:51:58Z</time>
      </trkpt>
      <trkpt lat="45.03798" lon="6.49002">
        <ele>2379</ele>
        <time>2021-02-28T11:51:59Z</time>
      </trkpt>
      <trkpt lat="45.03796" lon="6.49002">
        <ele>2378.6</ele>
        <time>2021-02-28T11:52:00Z</time>
      </trkpt>
      <trkpt lat="45.03796" lon="6.49002">
        <ele>2378.2</ele>
        <time>2021-02-28T11:52:01Z</time>
      </trkpt>
      <trkpt lat="45.03785" lon="6.48999">
        <ele>2377.6</ele>
        <time>2021-02-28T11:52:02Z</time>
      </trkpt>
      <trkpt lat="45.03785" lon="6.48999">
        <ele>2377.4</ele>
        <time>2021-02-28T11:52:03Z</time>
      </trkpt>
      <trkpt lat="45.03785" lon="6.48999">
        <ele>2377.6</ele>
        <time>2021-02-28T11:52:04Z</time>
      </trkpt>
      <trkpt lat="45.03783" lon="6.48999">
        <ele>2378</ele>
        <time>2021-02-28T11:52:05Z</time>
      </trkpt>
      <trkpt lat="45.0378" lon="6.48998">
        <ele>2377.6</ele>
        <time>2021-02-28T11:52:06Z</time>
      </trkpt>
      <trkpt lat="45.03778" lon="6.48997">
        <ele>2377.8</ele>
        <time>2021-02-28T11:52:07Z</time>
      </trkpt>
      <trkpt lat="45.03776" lon="6.48996">
        <ele>2378.2</ele>
        <time>2021-02-28T11:52:08Z</time>
      </trkpt>
      <trkpt lat="45.03773" lon="6.48995">
        <ele>2378.6</ele>
        <time>2021-02-28T11:52:09Z</time>
      </trkpt>
      <trkpt lat="45.0377" lon="6.48995">
        <ele>2378.2</ele>
        <time>2021-02-28T11:52:10Z</time>
      </trkpt>
      <trkpt lat="45.03767" lon="6.48994">
        <ele>2378</ele>
        <time>2021-02-28T11:52:11Z</time>
      </trkpt>
      <trkpt lat="45.03765" lon="6.48993">
        <ele>2378</ele>
        <time>2021-02-28T11:52:12Z</time>
      </trkpt>
      <trkpt lat="45.03762" lon="6.48992">
        <ele>2378</ele>
        <time>2021-02-28T11:52:13Z</time>
      </trkpt>
      <trkpt lat="45.03757" lon="6.48991">
        <ele>2378.2</ele>
        <time>2021-02-28T11:52:14Z</time>
      </trkpt>
      <trkpt lat="45.03756" lon="6.48991">
        <ele>2378.2</ele>
        <time>2021-02-28T11:52:15Z</time>
      </trkpt>
      <trkpt lat="45.03754" lon="6.4899">
        <ele>2378.2</ele>
        <time>2021-02-28T11:52:16Z</time>
      </trkpt>
      <trkpt lat="45.03753" lon="6.4899">
        <ele>2378</ele>
        <time>2021-02-28T11:52:17Z</time>
      </trkpt>
      <trkpt lat="45.03753" lon="6.4899">
        <ele>2378.6</ele>
        <time>2021-02-28T11:52:18Z</time>
      </trkpt>
      <trkpt lat="45.0375" lon="6.48989">
        <ele>2378.2</ele>
        <time>2021-02-28T11:52:19Z</time>
      </trkpt>
      <trkpt lat="45.0375" lon="6.48989">
        <ele>2378</ele>
        <time>2021-02-28T11:52:20Z</time>
      </trkpt>
      <trkpt lat="45.03746" lon="6.48988">
        <ele>2377.8</ele>
        <time>2021-02-28T11:52:21Z</time>
      </trkpt>
      <trkpt lat="45.03746" lon="6.48988">
        <ele>2377.6</ele>
        <time>2021-02-28T11:52:22Z</time>
      </trkpt>
      <trkpt lat="45.03743" lon="6.48987">
        <ele>2377.8</ele>
        <time>2021-02-28T11:52:23Z</time>
      </trkpt>
      <trkpt lat="45.03743" lon="6.48987">
        <ele>2377.4</ele>
        <time>2021-02-28T11:52:24Z</time>
      </trkpt>
      <trkpt lat="45.03741" lon="6.48987">
        <ele>2377.6</ele>
        <time>2021-02-28T11:52:25Z</time>
      </trkpt>
      <trkpt lat="45.03741" lon="6.48987">
        <ele>2377.2</ele>
        <time>2021-02-28T11:52:26Z</time>
      </trkpt>
      <trkpt lat="45.03738" lon="6.48987">
        <ele>2376.4</ele>
        <time>2021-02-28T11:52:27Z</time>
      </trkpt>
      <trkpt lat="45.03736" lon="6.48986">
        <ele>2377</ele>
        <time>2021-02-28T11:52:28Z</time>
      </trkpt>
      <trkpt lat="45.03734" lon="6.48986">
        <ele>2377</ele>
        <time>2021-02-28T11:52:29Z</time>
      </trkpt>
      <trkpt lat="45.03731" lon="6.48986">
        <ele>2376.8</ele>
        <time>2021-02-28T11:52:30Z</time>
      </trkpt>
      <trkpt lat="45.03729" lon="6.48986">
        <ele>2376.4</ele>
        <time>2021-02-28T11:52:31Z</time>
      </trkpt>
      <trkpt lat="45.03727" lon="6.48986">
        <ele>2376.6</ele>
        <time>2021-02-28T11:52:32Z</time>
      </trkpt>
      <trkpt lat="45.03724" lon="6.48986">
        <ele>2376.6</ele>
        <time>2021-02-28T11:52:33Z</time>
      </trkpt>
      <trkpt lat="45.03722" lon="6.48987">
        <ele>2376.2</ele>
        <time>2021-02-28T11:52:34Z</time>
      </trkpt>
      <trkpt lat="45.03719" lon="6.48987">
        <ele>2375.8</ele>
        <time>2021-02-28T11:52:35Z</time>
      </trkpt>
      <trkpt lat="45.03717" lon="6.48988">
        <ele>2376.2</ele>
        <time>2021-02-28T11:52:36Z</time>
      </trkpt>
      <trkpt lat="45.03714" lon="6.48989">
        <ele>2376</ele>
        <time>2021-02-28T11:52:37Z</time>
      </trkpt>
      <trkpt lat="45.03712" lon="6.48989">
        <ele>2376</ele>
        <time>2021-02-28T11:52:38Z</time>
      </trkpt>
      <trkpt lat="45.03709" lon="6.4899">
        <ele>2376</ele>
        <time>2021-02-28T11:52:39Z</time>
      </trkpt>
      <trkpt lat="45.03706" lon="6.48991">
        <ele>2375.8</ele>
        <time>2021-02-28T11:52:40Z</time>
      </trkpt>
      <trkpt lat="45.03704" lon="6.48991">
        <ele>2375.8</ele>
        <time>2021-02-28T11:52:41Z</time>
      </trkpt>
      <trkpt lat="45.037" lon="6.48992">
        <ele>2375.6</ele>
        <time>2021-02-28T11:52:42Z</time>
      </trkpt>
      <trkpt lat="45.03697" lon="6.48993">
        <ele>2375.4</ele>
        <time>2021-02-28T11:52:43Z</time>
      </trkpt>
      <trkpt lat="45.03694" lon="6.48994">
        <ele>2375.2</ele>
        <time>2021-02-28T11:52:44Z</time>
      </trkpt>
      <trkpt lat="45.03691" lon="6.48996">
        <ele>2374.6</ele>
        <time>2021-02-28T11:52:45Z</time>
      </trkpt>
      <trkpt lat="45.03688" lon="6.48997">
        <ele>2374.6</ele>
        <time>2021-02-28T11:52:46Z</time>
      </trkpt>
      <trkpt lat="45.03685" lon="6.48997">
        <ele>2374</ele>
        <time>2021-02-28T11:52:47Z</time>
      </trkpt>
      <trkpt lat="45.03682" lon="6.48998">
        <ele>2374.2</ele>
        <time>2021-02-28T11:52:48Z</time>
      </trkpt>
      <trkpt lat="45.03678" lon="6.48999">
        <ele>2374.2</ele>
        <time>2021-02-28T11:52:49Z</time>
      </trkpt>
      <trkpt lat="45.03678" lon="6.48999">
        <ele>2373.8</ele>
        <time>2021-02-28T11:52:50Z</time>
      </trkpt>
      <trkpt lat="45.03678" lon="6.48999">
        <ele>2373.8</ele>
        <time>2021-02-28T11:52:51Z</time>
      </trkpt>
      <trkpt lat="45.03667" lon="6.49002">
        <ele>2373.8</ele>
        <time>2021-02-28T11:52:52Z</time>
      </trkpt>
      <trkpt lat="45.03665" lon="6.49002">
        <ele>2373</ele>
        <time>2021-02-28T11:52:53Z</time>
      </trkpt>
      <trkpt lat="45.03663" lon="6.49003">
        <ele>2372.6</ele>
        <time>2021-02-28T11:52:54Z</time>
      </trkpt>
      <trkpt lat="45.03659" lon="6.49004">
        <ele>2373</ele>
        <time>2021-02-28T11:52:55Z</time>
      </trkpt>
      <trkpt lat="45.03656" lon="6.49006">
        <ele>2372.6</ele>
        <time>2021-02-28T11:52:56Z</time>
      </trkpt>
      <trkpt lat="45.03652" lon="6.49007">
        <ele>2372.4</ele>
        <time>2021-02-28T11:52:57Z</time>
      </trkpt>
      <trkpt lat="45.03649" lon="6.49008">
        <ele>2372.2</ele>
        <time>2021-02-28T11:52:58Z</time>
      </trkpt>
      <trkpt lat="45.03646" lon="6.49009">
        <ele>2371.8</ele>
        <time>2021-02-28T11:52:59Z</time>
      </trkpt>
      <trkpt lat="45.03643" lon="6.4901">
        <ele>2370.6</ele>
        <time>2021-02-28T11:53:00Z</time>
      </trkpt>
      <trkpt lat="45.03643" lon="6.4901">
        <ele>2371</ele>
        <time>2021-02-28T11:53:01Z</time>
      </trkpt>
      <trkpt lat="45.03643" lon="6.4901">
        <ele>2371.4</ele>
        <time>2021-02-28T11:53:02Z</time>
      </trkpt>
      <trkpt lat="45.03637" lon="6.49013">
        <ele>2371</ele>
        <time>2021-02-28T11:53:03Z</time>
      </trkpt>
      <trkpt lat="45.03637" lon="6.49013">
        <ele>2371.6</ele>
        <time>2021-02-28T11:53:04Z</time>
      </trkpt>
      <trkpt lat="45.03637" lon="6.49013">
        <ele>2371.6</ele>
        <time>2021-02-28T11:53:05Z</time>
      </trkpt>
      <trkpt lat="45.03637" lon="6.49013">
        <ele>2372</ele>
        <time>2021-02-28T11:53:06Z</time>
      </trkpt>
      <trkpt lat="45.03637" lon="6.49013">
        <ele>2371.4</ele>
        <time>2021-02-28T11:53:07Z</time>
      </trkpt>
      <trkpt lat="45.03637" lon="6.49013">
        <ele>2371.8</ele>
        <time>2021-02-28T11:53:08Z</time>
      </trkpt>
      <trkpt lat="45.03637" lon="6.49013">
        <ele>2371.8</ele>
        <time>2021-02-28T11:53:09Z</time>
      </trkpt>
      <trkpt lat="45.03636" lon="6.49014">
        <ele>2371.8</ele>
        <time>2021-02-28T11:53:10Z</time>
      </trkpt>
      <trkpt lat="45.03636" lon="6.49014">
        <ele>2372</ele>
        <time>2021-02-28T11:53:11Z</time>
      </trkpt>
      <trkpt lat="45.03636" lon="6.49014">
        <ele>2371.8</ele>
        <time>2021-02-28T11:53:12Z</time>
      </trkpt>
      <trkpt lat="45.03636" lon="6.49014">
        <ele>2372</ele>
        <time>2021-02-28T11:53:13Z</time>
      </trkpt>
      <trkpt lat="45.03633" lon="6.49014">
        <ele>2371.8</ele>
        <time>2021-02-28T11:53:14Z</time>
      </trkpt>
      <trkpt lat="45.03631" lon="6.49014">
        <ele>2371.6</ele>
        <time>2021-02-28T11:53:15Z</time>
      </trkpt>
      <trkpt lat="45.03629" lon="6.49015">
        <ele>2371.2</ele>
        <time>2021-02-28T11:53:16Z</time>
      </trkpt>
      <trkpt lat="45.03627" lon="6.49016">
        <ele>2371.2</ele>
        <time>2021-02-28T11:53:17Z</time>
      </trkpt>
      <trkpt lat="45.03625" lon="6.49017">
        <ele>2371.2</ele>
        <time>2021-02-28T11:53:18Z</time>
      </trkpt>
      <trkpt lat="45.03622" lon="6.49018">
        <ele>2370.8</ele>
        <time>2021-02-28T11:53:19Z</time>
      </trkpt>
      <trkpt lat="45.0362" lon="6.49018">
        <ele>2370.8</ele>
        <time>2021-02-28T11:53:20Z</time>
      </trkpt>
      <trkpt lat="45.0362" lon="6.49018">
        <ele>2370.4</ele>
        <time>2021-02-28T11:53:21Z</time>
      </trkpt>
      <trkpt lat="45.03619" lon="6.49019">
        <ele>2370.6</ele>
        <time>2021-02-28T11:53:22Z</time>
      </trkpt>
      <trkpt lat="45.03619" lon="6.49019">
        <ele>2370.4</ele>
        <time>2021-02-28T11:53:23Z</time>
      </trkpt>
      <trkpt lat="45.03619" lon="6.49019">
        <ele>2370.2</ele>
        <time>2021-02-28T11:53:24Z</time>
      </trkpt>
      <trkpt lat="45.03619" lon="6.49019">
        <ele>2370.2</ele>
        <time>2021-02-28T11:53:25Z</time>
      </trkpt>
      <trkpt lat="45.03619" lon="6.49019">
        <ele>2370.6</ele>
        <time>2021-02-28T11:53:26Z</time>
      </trkpt>
      <trkpt lat="45.03619" lon="6.49019">
        <ele>2370.8</ele>
        <time>2021-02-28T11:53:27Z</time>
      </trkpt>
      <trkpt lat="45.03619" lon="6.49019">
        <ele>2370.8</ele>
        <time>2021-02-28T11:53:28Z</time>
      </trkpt>
      <trkpt lat="45.03619" lon="6.49019">
        <ele>2370.8</ele>
        <time>2021-02-28T11:53:29Z</time>
      </trkpt>
      <trkpt lat="45.03619" lon="6.49019">
        <ele>2370.6</ele>
        <time>2021-02-28T11:53:30Z</time>
      </trkpt>
      <trkpt lat="45.03619" lon="6.49019">
        <ele>2371</ele>
        <time>2021-02-28T11:53:31Z</time>
      </trkpt>
      <trkpt lat="45.03619" lon="6.49019">
        <ele>2371</ele>
        <time>2021-02-28T11:53:32Z</time>
      </trkpt>
      <trkpt lat="45.03619" lon="6.49019">
        <ele>2370.8</ele>
        <time>2021-02-28T11:53:33Z</time>
      </trkpt>
      <trkpt lat="45.03619" lon="6.49019">
        <ele>2370.6</ele>
        <time>2021-02-28T11:53:34Z</time>
      </trkpt>
      <trkpt lat="45.03619" lon="6.49019">
        <ele>2369.8</ele>
        <time>2021-02-28T11:53:35Z</time>
      </trkpt>
      <trkpt lat="45.03619" lon="6.49019">
        <ele>2369.2</ele>
        <time>2021-02-28T11:53:36Z</time>
      </trkpt>
      <trkpt lat="45.03619" lon="6.49019">
        <ele>2369</ele>
        <time>2021-02-28T11:53:37Z</time>
      </trkpt>
      <trkpt lat="45.03619" lon="6.49019">
        <ele>2369</ele>
        <time>2021-02-28T11:53:38Z</time>
      </trkpt>
      <trkpt lat="45.03619" lon="6.49019">
        <ele>2369</ele>
        <time>2021-02-28T11:53:39Z</time>
      </trkpt>
      <trkpt lat="45.03619" lon="6.49019">
        <ele>2369.2</ele>
        <time>2021-02-28T11:53:40Z</time>
      </trkpt>
      <trkpt lat="45.03619" lon="6.49019">
        <ele>2369.4</ele>
        <time>2021-02-28T11:53:41Z</time>
      </trkpt>
      <trkpt lat="45.03619" lon="6.49019">
        <ele>2369.4</ele>
        <time>2021-02-28T11:53:42Z</time>
      </trkpt>
      <trkpt lat="45.03619" lon="6.49019">
        <ele>2369.2</ele>
        <time>2021-02-28T11:53:43Z</time>
      </trkpt>
      <trkpt lat="45.03619" lon="6.49019">
        <ele>2369.8</ele>
        <time>2021-02-28T11:53:44Z</time>
      </trkpt>
      <trkpt lat="45.03619" lon="6.49019">
        <ele>2370.2</ele>
        <time>2021-02-28T11:53:45Z</time>
      </trkpt>
      <trkpt lat="45.03619" lon="6.49019">
        <ele>2370.8</ele>
        <time>2021-02-28T11:53:46Z</time>
      </trkpt>
      <trkpt lat="45.03619" lon="6.49019">
        <ele>2371</ele>
        <time>2021-02-28T11:53:47Z</time>
      </trkpt>
      <trkpt lat="45.03619" lon="6.49019">
        <ele>2371</ele>
        <time>2021-02-28T11:53:48Z</time>
      </trkpt>
      <trkpt lat="45.03619" lon="6.49019">
        <ele>2371.4</ele>
        <time>2021-02-28T11:53:49Z</time>
      </trkpt>
      <trkpt lat="45.03619" lon="6.49019">
        <ele>2371.6</ele>
        <time>2021-02-28T11:53:50Z</time>
      </trkpt>
      <trkpt lat="45.03619" lon="6.49019">
        <ele>2371.8</ele>
        <time>2021-02-28T11:53:51Z</time>
      </trkpt>
      <trkpt lat="45.03619" lon="6.49019">
        <ele>2371.4</ele>
        <time>2021-02-28T11:53:52Z</time>
      </trkpt>
      <trkpt lat="45.03619" lon="6.49019">
        <ele>2370.6</ele>
        <time>2021-02-28T11:53:53Z</time>
      </trkpt>
      <trkpt lat="45.03619" lon="6.49019">
        <ele>2370.4</ele>
        <time>2021-02-28T11:53:54Z</time>
      </trkpt>
      <trkpt lat="45.03619" lon="6.49019">
        <ele>2370</ele>
        <time>2021-02-28T11:53:55Z</time>
      </trkpt>
      <trkpt lat="45.03619" lon="6.49019">
        <ele>2370.6</ele>
        <time>2021-02-28T11:53:56Z</time>
      </trkpt>
      <trkpt lat="45.03619" lon="6.49019">
        <ele>2370.6</ele>
        <time>2021-02-28T11:53:57Z</time>
      </trkpt>
      <trkpt lat="45.03619" lon="6.49019">
        <ele>2370.6</ele>
        <time>2021-02-28T11:53:58Z</time>
      </trkpt>
      <trkpt lat="45.03619" lon="6.49019">
        <ele>2370.8</ele>
        <time>2021-02-28T11:53:59Z</time>
      </trkpt>
      <trkpt lat="45.03619" lon="6.49019">
        <ele>2370.6</ele>
        <time>2021-02-28T11:54:00Z</time>
      </trkpt>
      <trkpt lat="45.03619" lon="6.49019">
        <ele>2371.2</ele>
        <time>2021-02-28T11:54:01Z</time>
      </trkpt>
      <trkpt lat="45.03619" lon="6.49019">
        <ele>2370.8</ele>
        <time>2021-02-28T11:54:02Z</time>
      </trkpt>
      <trkpt lat="45.03619" lon="6.49019">
        <ele>2370.8</ele>
        <time>2021-02-28T11:54:03Z</time>
      </trkpt>
      <trkpt lat="45.03619" lon="6.49019">
        <ele>2370.4</ele>
        <time>2021-02-28T11:54:04Z</time>
      </trkpt>
      <trkpt lat="45.03619" lon="6.49019">
        <ele>2370.2</ele>
        <time>2021-02-28T11:54:05Z</time>
      </trkpt>
      <trkpt lat="45.03619" lon="6.49019">
        <ele>2370</ele>
        <time>2021-02-28T11:54:06Z</time>
      </trkpt>
      <trkpt lat="45.03619" lon="6.49019">
        <ele>2369.8</ele>
        <time>2021-02-28T11:54:07Z</time>
      </trkpt>
      <trkpt lat="45.03619" lon="6.49019">
        <ele>2369.4</ele>
        <time>2021-02-28T11:54:08Z</time>
      </trkpt>
      <trkpt lat="45.03619" lon="6.49019">
        <ele>2369.4</ele>
        <time>2021-02-28T11:54:09Z</time>
      </trkpt>
      <trkpt lat="45.03619" lon="6.49019">
        <ele>2369.2</ele>
        <time>2021-02-28T11:54:10Z</time>
      </trkpt>
      <trkpt lat="45.03619" lon="6.49019">
        <ele>2369</ele>
        <time>2021-02-28T11:54:11Z</time>
      </trkpt>
      <trkpt lat="45.03619" lon="6.49019">
        <ele>2366.6</ele>
        <time>2021-02-28T11:54:12Z</time>
      </trkpt>
      <trkpt lat="45.03619" lon="6.49019">
        <ele>2367.4</ele>
        <time>2021-02-28T11:54:13Z</time>
      </trkpt>
      <trkpt lat="45.03619" lon="6.49019">
        <ele>2367.8</ele>
        <time>2021-02-28T11:54:14Z</time>
      </trkpt>
      <trkpt lat="45.03619" lon="6.49019">
        <ele>2368</ele>
        <time>2021-02-28T11:54:15Z</time>
      </trkpt>
      <trkpt lat="45.03619" lon="6.49019">
        <ele>2368.2</ele>
        <time>2021-02-28T11:54:16Z</time>
      </trkpt>
      <trkpt lat="45.03619" lon="6.49019">
        <ele>2368.2</ele>
        <time>2021-02-28T11:54:17Z</time>
      </trkpt>
      <trkpt lat="45.03619" lon="6.49019">
        <ele>2368.4</ele>
        <time>2021-02-28T11:54:18Z</time>
      </trkpt>
      <trkpt lat="45.03619" lon="6.49019">
        <ele>2368.8</ele>
        <time>2021-02-28T11:54:19Z</time>
      </trkpt>
      <trkpt lat="45.03619" lon="6.49019">
        <ele>2369</ele>
        <time>2021-02-28T11:54:20Z</time>
      </trkpt>
      <trkpt lat="45.03619" lon="6.49019">
        <ele>2368.8</ele>
        <time>2021-02-28T11:54:21Z</time>
      </trkpt>
      <trkpt lat="45.03619" lon="6.49019">
        <ele>2368.6</ele>
        <time>2021-02-28T11:54:22Z</time>
      </trkpt>
      <trkpt lat="45.03619" lon="6.49019">
        <ele>2368.4</ele>
        <time>2021-02-28T11:54:23Z</time>
      </trkpt>
      <trkpt lat="45.03619" lon="6.49019">
        <ele>2367</ele>
        <time>2021-02-28T11:54:24Z</time>
      </trkpt>
      <trkpt lat="45.03619" lon="6.49019">
        <ele>2367.4</ele>
        <time>2021-02-28T11:54:25Z</time>
      </trkpt>
      <trkpt lat="45.03619" lon="6.49019">
        <ele>2367.8</ele>
        <time>2021-02-28T11:54:26Z</time>
      </trkpt>
      <trkpt lat="45.03619" lon="6.49019">
        <ele>2368.4</ele>
        <time>2021-02-28T11:54:27Z</time>
      </trkpt>
      <trkpt lat="45.03619" lon="6.49019">
        <ele>2368.8</ele>
        <time>2021-02-28T11:54:28Z</time>
      </trkpt>
      <trkpt lat="45.03619" lon="6.49019">
        <ele>2369</ele>
        <time>2021-02-28T11:54:29Z</time>
      </trkpt>
      <trkpt lat="45.03619" lon="6.49019">
        <ele>2369.2</ele>
        <time>2021-02-28T11:54:30Z</time>
      </trkpt>
      <trkpt lat="45.03619" lon="6.49019">
        <ele>2369.2</ele>
        <time>2021-02-28T11:54:31Z</time>
      </trkpt>
      <trkpt lat="45.03619" lon="6.49019">
        <ele>2369.6</ele>
        <time>2021-02-28T11:54:32Z</time>
      </trkpt>
      <trkpt lat="45.03619" lon="6.49019">
        <ele>2369.8</ele>
        <time>2021-02-28T11:54:33Z</time>
      </trkpt>
      <trkpt lat="45.03619" lon="6.49019">
        <ele>2369.6</ele>
        <time>2021-02-28T11:54:34Z</time>
      </trkpt>
      <trkpt lat="45.03619" lon="6.49019">
        <ele>2369.6</ele>
        <time>2021-02-28T11:54:35Z</time>
      </trkpt>
      <trkpt lat="45.03619" lon="6.49019">
        <ele>2369.2</ele>
        <time>2021-02-28T11:54:36Z</time>
      </trkpt>
      <trkpt lat="45.03619" lon="6.49019">
        <ele>2369.2</ele>
        <time>2021-02-28T11:54:37Z</time>
      </trkpt>
      <trkpt lat="45.03619" lon="6.49019">
        <ele>2369.6</ele>
        <time>2021-02-28T11:54:38Z</time>
      </trkpt>
      <trkpt lat="45.03619" lon="6.49019">
        <ele>2369.6</ele>
        <time>2021-02-28T11:54:39Z</time>
      </trkpt>
      <trkpt lat="45.03619" lon="6.49019">
        <ele>2370</ele>
        <time>2021-02-28T11:54:40Z</time>
      </trkpt>
      <trkpt lat="45.03619" lon="6.49019">
        <ele>2370.2</ele>
        <time>2021-02-28T11:54:41Z</time>
      </trkpt>
      <trkpt lat="45.03619" lon="6.49019">
        <ele>2369.8</ele>
        <time>2021-02-28T11:54:42Z</time>
      </trkpt>
      <trkpt lat="45.03619" lon="6.49019">
        <ele>2369.6</ele>
        <time>2021-02-28T11:54:43Z</time>
      </trkpt>
      <trkpt lat="45.03619" lon="6.49019">
        <ele>2369.4</ele>
        <time>2021-02-28T11:54:44Z</time>
      </trkpt>
      <trkpt lat="45.03619" lon="6.49019">
        <ele>2369.2</ele>
        <time>2021-02-28T11:54:45Z</time>
      </trkpt>
      <trkpt lat="45.03619" lon="6.49019">
        <ele>2368.8</ele>
        <time>2021-02-28T11:54:46Z</time>
      </trkpt>
      <trkpt lat="45.03619" lon="6.49019">
        <ele>2368.8</ele>
        <time>2021-02-28T11:54:47Z</time>
      </trkpt>
      <trkpt lat="45.03619" lon="6.49019">
        <ele>2368.6</ele>
        <time>2021-02-28T11:54:48Z</time>
      </trkpt>
      <trkpt lat="45.03619" lon="6.49019">
        <ele>2368.4</ele>
        <time>2021-02-28T11:54:49Z</time>
      </trkpt>
      <trkpt lat="45.03619" lon="6.49019">
        <ele>2368.4</ele>
        <time>2021-02-28T11:54:50Z</time>
      </trkpt>
      <trkpt lat="45.03619" lon="6.49019">
        <ele>2368.2</ele>
        <time>2021-02-28T11:54:51Z</time>
      </trkpt>
      <trkpt lat="45.03619" lon="6.49019">
        <ele>2368.6</ele>
        <time>2021-02-28T11:54:52Z</time>
      </trkpt>
      <trkpt lat="45.03619" lon="6.49019">
        <ele>2368.2</ele>
        <time>2021-02-28T11:54:53Z</time>
      </trkpt>
      <trkpt lat="45.03619" lon="6.49019">
        <ele>2368</ele>
        <time>2021-02-28T11:54:54Z</time>
      </trkpt>
      <trkpt lat="45.03619" lon="6.49019">
        <ele>2368</ele>
        <time>2021-02-28T11:54:55Z</time>
      </trkpt>
      <trkpt lat="45.03619" lon="6.49019">
        <ele>2368</ele>
        <time>2021-02-28T11:54:56Z</time>
      </trkpt>
      <trkpt lat="45.03619" lon="6.49019">
        <ele>2368</ele>
        <time>2021-02-28T11:54:57Z</time>
      </trkpt>
      <trkpt lat="45.03619" lon="6.49019">
        <ele>2368</ele>
        <time>2021-02-28T11:54:58Z</time>
      </trkpt>
      <trkpt lat="45.03619" lon="6.49019">
        <ele>2368</ele>
        <time>2021-02-28T11:54:59Z</time>
      </trkpt>
      <trkpt lat="45.03619" lon="6.49019">
        <ele>2368</ele>
        <time>2021-02-28T11:55:00Z</time>
      </trkpt>
      <trkpt lat="45.03619" lon="6.49019">
        <ele>2368.4</ele>
        <time>2021-02-28T11:55:01Z</time>
      </trkpt>
      <trkpt lat="45.03619" lon="6.49019">
        <ele>2368.8</ele>
        <time>2021-02-28T11:55:02Z</time>
      </trkpt>
      <trkpt lat="45.03619" lon="6.49019">
        <ele>2369</ele>
        <time>2021-02-28T11:55:03Z</time>
      </trkpt>
      <trkpt lat="45.03619" lon="6.49019">
        <ele>2368</ele>
        <time>2021-02-28T11:55:04Z</time>
      </trkpt>
      <trkpt lat="45.03619" lon="6.49019">
        <ele>2368.2</ele>
        <time>2021-02-28T11:55:05Z</time>
      </trkpt>
      <trkpt lat="45.03619" lon="6.49019">
        <ele>2368.6</ele>
        <time>2021-02-28T11:55:06Z</time>
      </trkpt>
      <trkpt lat="45.03619" lon="6.49019">
        <ele>2368.2</ele>
        <time>2021-02-28T11:55:07Z</time>
      </trkpt>
      <trkpt lat="45.03619" lon="6.49019">
        <ele>2368</ele>
        <time>2021-02-28T11:55:08Z</time>
      </trkpt>
      <trkpt lat="45.03619" lon="6.49019">
        <ele>2368.2</ele>
        <time>2021-02-28T11:55:09Z</time>
      </trkpt>
      <trkpt lat="45.03619" lon="6.49019">
        <ele>2368.4</ele>
        <time>2021-02-28T11:55:10Z</time>
      </trkpt>
      <trkpt lat="45.03619" lon="6.49019">
        <ele>2368.8</ele>
        <time>2021-02-28T11:55:11Z</time>
      </trkpt>
      <trkpt lat="45.03619" lon="6.49019">
        <ele>2368.8</ele>
        <time>2021-02-28T11:55:12Z</time>
      </trkpt>
      <trkpt lat="45.03619" lon="6.49019">
        <ele>2368.6</ele>
        <time>2021-02-28T11:55:13Z</time>
      </trkpt>
      <trkpt lat="45.03619" lon="6.49019">
        <ele>2369</ele>
        <time>2021-02-28T11:55:14Z</time>
      </trkpt>
      <trkpt lat="45.03619" lon="6.49019">
        <ele>2369</ele>
        <time>2021-02-28T11:55:15Z</time>
      </trkpt>
      <trkpt lat="45.03619" lon="6.49019">
        <ele>2369</ele>
        <time>2021-02-28T11:55:16Z</time>
      </trkpt>
      <trkpt lat="45.03619" lon="6.49019">
        <ele>2369</ele>
        <time>2021-02-28T11:55:17Z</time>
      </trkpt>
      <trkpt lat="45.03619" lon="6.49019">
        <ele>2369.2</ele>
        <time>2021-02-28T11:55:18Z</time>
      </trkpt>
      <trkpt lat="45.03619" lon="6.49019">
        <ele>2369.4</ele>
        <time>2021-02-28T11:55:19Z</time>
      </trkpt>
      <trkpt lat="45.03619" lon="6.49019">
        <ele>2369.2</ele>
        <time>2021-02-28T11:55:20Z</time>
      </trkpt>
      <trkpt lat="45.03619" lon="6.49019">
        <ele>2369.2</ele>
        <time>2021-02-28T11:55:21Z</time>
      </trkpt>
      <trkpt lat="45.03619" lon="6.49019">
        <ele>2369</ele>
        <time>2021-02-28T11:55:22Z</time>
      </trkpt>
      <trkpt lat="45.03619" lon="6.49019">
        <ele>2369</ele>
        <time>2021-02-28T11:55:23Z</time>
      </trkpt>
      <trkpt lat="45.03619" lon="6.49019">
        <ele>2369.2</ele>
        <time>2021-02-28T11:55:24Z</time>
      </trkpt>
      <trkpt lat="45.03619" lon="6.49019">
        <ele>2369.2</ele>
        <time>2021-02-28T11:55:25Z</time>
      </trkpt>
      <trkpt lat="45.03619" lon="6.49019">
        <ele>2369.2</ele>
        <time>2021-02-28T11:55:26Z</time>
      </trkpt>
      <trkpt lat="45.03619" lon="6.49019">
        <ele>2369</ele>
        <time>2021-02-28T11:55:27Z</time>
      </trkpt>
      <trkpt lat="45.03619" lon="6.49019">
        <ele>2369</ele>
        <time>2021-02-28T11:55:28Z</time>
      </trkpt>
      <trkpt lat="45.03619" lon="6.49019">
        <ele>2368.8</ele>
        <time>2021-02-28T11:55:29Z</time>
      </trkpt>
      <trkpt lat="45.03619" lon="6.49019">
        <ele>2369.2</ele>
        <time>2021-02-28T11:55:30Z</time>
      </trkpt>
      <trkpt lat="45.03619" lon="6.49019">
        <ele>2369.6</ele>
        <time>2021-02-28T11:55:31Z</time>
      </trkpt>
      <trkpt lat="45.03619" lon="6.49019">
        <ele>2369.8</ele>
        <time>2021-02-28T11:55:32Z</time>
      </trkpt>
      <trkpt lat="45.03619" lon="6.49019">
        <ele>2369.6</ele>
        <time>2021-02-28T11:55:33Z</time>
      </trkpt>
      <trkpt lat="45.03619" lon="6.49019">
        <ele>2369.4</ele>
        <time>2021-02-28T11:55:34Z</time>
      </trkpt>
      <trkpt lat="45.03619" lon="6.49019">
        <ele>2369.2</ele>
        <time>2021-02-28T11:55:35Z</time>
      </trkpt>
      <trkpt lat="45.03619" lon="6.49019">
        <ele>2369.4</ele>
        <time>2021-02-28T11:55:36Z</time>
      </trkpt>
      <trkpt lat="45.03619" lon="6.49019">
        <ele>2369.2</ele>
        <time>2021-02-28T11:55:37Z</time>
      </trkpt>
      <trkpt lat="45.03619" lon="6.49019">
        <ele>2369</ele>
        <time>2021-02-28T11:55:38Z</time>
      </trkpt>
      <trkpt lat="45.03619" lon="6.49019">
        <ele>2368.8</ele>
        <time>2021-02-28T11:55:39Z</time>
      </trkpt>
      <trkpt lat="45.03619" lon="6.49019">
        <ele>2368.8</ele>
        <time>2021-02-28T11:55:40Z</time>
      </trkpt>
      <trkpt lat="45.03619" lon="6.49019">
        <ele>2368.8</ele>
        <time>2021-02-28T11:55:41Z</time>
      </trkpt>
      <trkpt lat="45.03619" lon="6.49019">
        <ele>2368.6</ele>
        <time>2021-02-28T11:55:42Z</time>
      </trkpt>
      <trkpt lat="45.03619" lon="6.49019">
        <ele>2368.4</ele>
        <time>2021-02-28T11:55:43Z</time>
      </trkpt>
      <trkpt lat="45.03619" lon="6.49019">
        <ele>2368.6</ele>
        <time>2021-02-28T11:55:44Z</time>
      </trkpt>
      <trkpt lat="45.03619" lon="6.49019">
        <ele>2368.2</ele>
        <time>2021-02-28T11:55:45Z</time>
      </trkpt>
      <trkpt lat="45.03619" lon="6.49019">
        <ele>2368.2</ele>
        <time>2021-02-28T11:55:46Z</time>
      </trkpt>
      <trkpt lat="45.03619" lon="6.49019">
        <ele>2368.4</ele>
        <time>2021-02-28T11:55:47Z</time>
      </trkpt>
      <trkpt lat="45.03619" lon="6.49019">
        <ele>2368.4</ele>
        <time>2021-02-28T11:55:48Z</time>
      </trkpt>
      <trkpt lat="45.03619" lon="6.49019">
        <ele>2368.2</ele>
        <time>2021-02-28T11:55:49Z</time>
      </trkpt>
      <trkpt lat="45.03619" lon="6.49019">
        <ele>2368.2</ele>
        <time>2021-02-28T11:55:50Z</time>
      </trkpt>
      <trkpt lat="45.03619" lon="6.49019">
        <ele>2368.4</ele>
        <time>2021-02-28T11:55:51Z</time>
      </trkpt>
      <trkpt lat="45.03619" lon="6.49019">
        <ele>2368.2</ele>
        <time>2021-02-28T11:55:52Z</time>
      </trkpt>
      <trkpt lat="45.03619" lon="6.49019">
        <ele>2368</ele>
        <time>2021-02-28T11:55:53Z</time>
      </trkpt>
      <trkpt lat="45.03619" lon="6.49019">
        <ele>2368</ele>
        <time>2021-02-28T11:55:54Z</time>
      </trkpt>
      <trkpt lat="45.03619" lon="6.49019">
        <ele>2368</ele>
        <time>2021-02-28T11:55:55Z</time>
      </trkpt>
      <trkpt lat="45.03619" lon="6.49019">
        <ele>2368.2</ele>
        <time>2021-02-28T11:55:56Z</time>
      </trkpt>
      <trkpt lat="45.03619" lon="6.49019">
        <ele>2368</ele>
        <time>2021-02-28T11:55:57Z</time>
      </trkpt>
      <trkpt lat="45.03619" lon="6.49019">
        <ele>2367.8</ele>
        <time>2021-02-28T11:55:58Z</time>
      </trkpt>
      <trkpt lat="45.03619" lon="6.49019">
        <ele>2367.8</ele>
        <time>2021-02-28T11:55:59Z</time>
      </trkpt>
      <trkpt lat="45.03619" lon="6.49019">
        <ele>2367.4</ele>
        <time>2021-02-28T11:56:00Z</time>
      </trkpt>
      <trkpt lat="45.03619" lon="6.49019">
        <ele>2367.2</ele>
        <time>2021-02-28T11:56:01Z</time>
      </trkpt>
      <trkpt lat="45.03619" lon="6.49019">
        <ele>2367.2</ele>
        <time>2021-02-28T11:56:02Z</time>
      </trkpt>
      <trkpt lat="45.03619" lon="6.49019">
        <ele>2367.4</ele>
        <time>2021-02-28T11:56:03Z</time>
      </trkpt>
      <trkpt lat="45.03619" lon="6.49019">
        <ele>2367.4</ele>
        <time>2021-02-28T11:56:04Z</time>
      </trkpt>
      <trkpt lat="45.03617" lon="6.49021">
        <ele>2367.2</ele>
        <time>2021-02-28T11:56:05Z</time>
      </trkpt>
      <trkpt lat="45.03617" lon="6.49021">
        <ele>2367.2</ele>
        <time>2021-02-28T11:56:06Z</time>
      </trkpt>
      <trkpt lat="45.03617" lon="6.49021">
        <ele>2367.8</ele>
        <time>2021-02-28T11:56:07Z</time>
      </trkpt>
      <trkpt lat="45.03617" lon="6.49021">
        <ele>2368</ele>
        <time>2021-02-28T11:56:08Z</time>
      </trkpt>
      <trkpt lat="45.03617" lon="6.49021">
        <ele>2368</ele>
        <time>2021-02-28T11:56:09Z</time>
      </trkpt>
      <trkpt lat="45.03617" lon="6.49021">
        <ele>2368.4</ele>
        <time>2021-02-28T11:56:10Z</time>
      </trkpt>
      <trkpt lat="45.03617" lon="6.49021">
        <ele>2368.4</ele>
        <time>2021-02-28T11:56:11Z</time>
      </trkpt>
      <trkpt lat="45.03617" lon="6.49021">
        <ele>2368.4</ele>
        <time>2021-02-28T11:56:12Z</time>
      </trkpt>
      <trkpt lat="45.03617" lon="6.49021">
        <ele>2368.4</ele>
        <time>2021-02-28T11:56:13Z</time>
      </trkpt>
      <trkpt lat="45.03617" lon="6.49021">
        <ele>2368.4</ele>
        <time>2021-02-28T11:56:14Z</time>
      </trkpt>
      <trkpt lat="45.03617" lon="6.49021">
        <ele>2368.2</ele>
        <time>2021-02-28T11:56:15Z</time>
      </trkpt>
      <trkpt lat="45.03617" lon="6.49021">
        <ele>2368.4</ele>
        <time>2021-02-28T11:56:16Z</time>
      </trkpt>
      <trkpt lat="45.03617" lon="6.49021">
        <ele>2368.8</ele>
        <time>2021-02-28T11:56:17Z</time>
      </trkpt>
      <trkpt lat="45.03617" lon="6.49021">
        <ele>2369</ele>
        <time>2021-02-28T11:56:18Z</time>
      </trkpt>
      <trkpt lat="45.03617" lon="6.49021">
        <ele>2369</ele>
        <time>2021-02-28T11:56:19Z</time>
      </trkpt>
      <trkpt lat="45.03617" lon="6.49021">
        <ele>2369.2</ele>
        <time>2021-02-28T11:56:20Z</time>
      </trkpt>
      <trkpt lat="45.03617" lon="6.49021">
        <ele>2369.2</ele>
        <time>2021-02-28T11:56:21Z</time>
      </trkpt>
      <trkpt lat="45.03617" lon="6.49021">
        <ele>2369.2</ele>
        <time>2021-02-28T11:56:22Z</time>
      </trkpt>
      <trkpt lat="45.03617" lon="6.49021">
        <ele>2369.2</ele>
        <time>2021-02-28T11:56:23Z</time>
      </trkpt>
      <trkpt lat="45.03617" lon="6.49021">
        <ele>2369.4</ele>
        <time>2021-02-28T11:56:24Z</time>
      </trkpt>
      <trkpt lat="45.03617" lon="6.49021">
        <ele>2369.4</ele>
        <time>2021-02-28T11:56:25Z</time>
      </trkpt>
      <trkpt lat="45.03617" lon="6.49021">
        <ele>2369.4</ele>
        <time>2021-02-28T11:56:26Z</time>
      </trkpt>
      <trkpt lat="45.03617" lon="6.49021">
        <ele>2369.2</ele>
        <time>2021-02-28T11:56:27Z</time>
      </trkpt>
      <trkpt lat="45.03617" lon="6.49021">
        <ele>2369</ele>
        <time>2021-02-28T11:56:28Z</time>
      </trkpt>
      <trkpt lat="45.03617" lon="6.49021">
        <ele>2368.8</ele>
        <time>2021-02-28T11:56:29Z</time>
      </trkpt>
      <trkpt lat="45.03617" lon="6.49021">
        <ele>2368.8</ele>
        <time>2021-02-28T11:56:30Z</time>
      </trkpt>
      <trkpt lat="45.03617" lon="6.49021">
        <ele>2368.8</ele>
        <time>2021-02-28T11:56:31Z</time>
      </trkpt>
      <trkpt lat="45.03617" lon="6.49021">
        <ele>2368.6</ele>
        <time>2021-02-28T11:56:32Z</time>
      </trkpt>
      <trkpt lat="45.03617" lon="6.49021">
        <ele>2368.8</ele>
        <time>2021-02-28T11:56:33Z</time>
      </trkpt>
      <trkpt lat="45.03617" lon="6.49021">
        <ele>2369</ele>
        <time>2021-02-28T11:56:34Z</time>
      </trkpt>
      <trkpt lat="45.03617" lon="6.49021">
        <ele>2369</ele>
        <time>2021-02-28T11:56:35Z</time>
      </trkpt>
      <trkpt lat="45.03617" lon="6.49021">
        <ele>2369.2</ele>
        <time>2021-02-28T11:56:36Z</time>
      </trkpt>
      <trkpt lat="45.03617" lon="6.49021">
        <ele>2369.4</ele>
        <time>2021-02-28T11:56:37Z</time>
      </trkpt>
      <trkpt lat="45.03617" lon="6.49021">
        <ele>2369.2</ele>
        <time>2021-02-28T11:56:38Z</time>
      </trkpt>
      <trkpt lat="45.03617" lon="6.49021">
        <ele>2368.8</ele>
        <time>2021-02-28T11:56:39Z</time>
      </trkpt>
      <trkpt lat="45.03617" lon="6.49021">
        <ele>2369</ele>
        <time>2021-02-28T11:56:40Z</time>
      </trkpt>
      <trkpt lat="45.03617" lon="6.49021">
        <ele>2369.2</ele>
        <time>2021-02-28T11:56:41Z</time>
      </trkpt>
      <trkpt lat="45.03617" lon="6.49021">
        <ele>2369</ele>
        <time>2021-02-28T11:56:42Z</time>
      </trkpt>
      <trkpt lat="45.03617" lon="6.49021">
        <ele>2369</ele>
        <time>2021-02-28T11:56:43Z</time>
      </trkpt>
      <trkpt lat="45.03617" lon="6.49021">
        <ele>2369.2</ele>
        <time>2021-02-28T11:56:44Z</time>
      </trkpt>
      <trkpt lat="45.03617" lon="6.49021">
        <ele>2369.2</ele>
        <time>2021-02-28T11:56:45Z</time>
      </trkpt>
      <trkpt lat="45.03617" lon="6.49021">
        <ele>2369.2</ele>
        <time>2021-02-28T11:56:46Z</time>
      </trkpt>
      <trkpt lat="45.03617" lon="6.49021">
        <ele>2369</ele>
        <time>2021-02-28T11:56:47Z</time>
      </trkpt>
      <trkpt lat="45.03617" lon="6.49021">
        <ele>2369.4</ele>
        <time>2021-02-28T11:56:48Z</time>
      </trkpt>
      <trkpt lat="45.03617" lon="6.49021">
        <ele>2369.2</ele>
        <time>2021-02-28T11:56:49Z</time>
      </trkpt>
      <trkpt lat="45.03617" lon="6.49021">
        <ele>2369</ele>
        <time>2021-02-28T11:56:50Z</time>
      </trkpt>
      <trkpt lat="45.03617" lon="6.49021">
        <ele>2369</ele>
        <time>2021-02-28T11:56:51Z</time>
      </trkpt>
      <trkpt lat="45.03617" lon="6.49021">
        <ele>2369.2</ele>
        <time>2021-02-28T11:56:52Z</time>
      </trkpt>
      <trkpt lat="45.03615" lon="6.49023">
        <ele>2369.2</ele>
        <time>2021-02-28T11:56:53Z</time>
      </trkpt>
      <trkpt lat="45.03615" lon="6.49023">
        <ele>2369.4</ele>
        <time>2021-02-28T11:56:54Z</time>
      </trkpt>
      <trkpt lat="45.03615" lon="6.49023">
        <ele>2369</ele>
        <time>2021-02-28T11:56:55Z</time>
      </trkpt>
      <trkpt lat="45.03615" lon="6.49023">
        <ele>2369</ele>
        <time>2021-02-28T11:56:56Z</time>
      </trkpt>
      <trkpt lat="45.03613" lon="6.49024">
        <ele>2369</ele>
        <time>2021-02-28T11:56:57Z</time>
      </trkpt>
      <trkpt lat="45.03613" lon="6.49024">
        <ele>2369</ele>
        <time>2021-02-28T11:56:58Z</time>
      </trkpt>
      <trkpt lat="45.03611" lon="6.49025">
        <ele>2368.8</ele>
        <time>2021-02-28T11:56:59Z</time>
      </trkpt>
      <trkpt lat="45.03611" lon="6.49025">
        <ele>2369</ele>
        <time>2021-02-28T11:57:00Z</time>
      </trkpt>
      <trkpt lat="45.0361" lon="6.49027">
        <ele>2369</ele>
        <time>2021-02-28T11:57:01Z</time>
      </trkpt>
      <trkpt lat="45.0361" lon="6.49027">
        <ele>2368.6</ele>
        <time>2021-02-28T11:57:02Z</time>
      </trkpt>
      <trkpt lat="45.03608" lon="6.49028">
        <ele>2368.8</ele>
        <time>2021-02-28T11:57:03Z</time>
      </trkpt>
      <trkpt lat="45.03608" lon="6.49028">
        <ele>2369</ele>
        <time>2021-02-28T11:57:04Z</time>
      </trkpt>
      <trkpt lat="45.03605" lon="6.4903">
        <ele>2369</ele>
        <time>2021-02-28T11:57:05Z</time>
      </trkpt>
      <trkpt lat="45.03605" lon="6.4903">
        <ele>2369.6</ele>
        <time>2021-02-28T11:57:06Z</time>
      </trkpt>
      <trkpt lat="45.03605" lon="6.4903">
        <ele>2369.8</ele>
        <time>2021-02-28T11:57:07Z</time>
      </trkpt>
      <trkpt lat="45.03603" lon="6.49032">
        <ele>2369.6</ele>
        <time>2021-02-28T11:57:08Z</time>
      </trkpt>
      <trkpt lat="45.03603" lon="6.49032">
        <ele>2370</ele>
        <time>2021-02-28T11:57:09Z</time>
      </trkpt>
      <trkpt lat="45.03601" lon="6.49034">
        <ele>2370.2</ele>
        <time>2021-02-28T11:57:10Z</time>
      </trkpt>
      <trkpt lat="45.03601" lon="6.49034">
        <ele>2370.6</ele>
        <time>2021-02-28T11:57:11Z</time>
      </trkpt>
      <trkpt lat="45.03601" lon="6.49034">
        <ele>2371</ele>
        <time>2021-02-28T11:57:12Z</time>
      </trkpt>
      <trkpt lat="45.03599" lon="6.49037">
        <ele>2371.2</ele>
        <time>2021-02-28T11:57:13Z</time>
      </trkpt>
      <trkpt lat="45.03599" lon="6.49037">
        <ele>2371.6</ele>
        <time>2021-02-28T11:57:14Z</time>
      </trkpt>
      <trkpt lat="45.03597" lon="6.49039">
        <ele>2371.6</ele>
        <time>2021-02-28T11:57:15Z</time>
      </trkpt>
      <trkpt lat="45.03597" lon="6.49039">
        <ele>2372</ele>
        <time>2021-02-28T11:57:16Z</time>
      </trkpt>
      <trkpt lat="45.03596" lon="6.49041">
        <ele>2372.4</ele>
        <time>2021-02-28T11:57:17Z</time>
      </trkpt>
      <trkpt lat="45.03596" lon="6.49041">
        <ele>2372.6</ele>
        <time>2021-02-28T11:57:18Z</time>
      </trkpt>
      <trkpt lat="45.03595" lon="6.49042">
        <ele>2372.6</ele>
        <time>2021-02-28T11:57:19Z</time>
      </trkpt>
      <trkpt lat="45.03595" lon="6.49042">
        <ele>2372.8</ele>
        <time>2021-02-28T11:57:20Z</time>
      </trkpt>
      <trkpt lat="45.03593" lon="6.49044">
        <ele>2372.8</ele>
        <time>2021-02-28T11:57:21Z</time>
      </trkpt>
      <trkpt lat="45.03593" lon="6.49044">
        <ele>2372.8</ele>
        <time>2021-02-28T11:57:22Z</time>
      </trkpt>
      <trkpt lat="45.03593" lon="6.49044">
        <ele>2373</ele>
        <time>2021-02-28T11:57:23Z</time>
      </trkpt>
      <trkpt lat="45.03592" lon="6.49047">
        <ele>2373.2</ele>
        <time>2021-02-28T11:57:24Z</time>
      </trkpt>
      <trkpt lat="45.03592" lon="6.49047">
        <ele>2373.8</ele>
        <time>2021-02-28T11:57:25Z</time>
      </trkpt>
      <trkpt lat="45.0359" lon="6.49049">
        <ele>2374</ele>
        <time>2021-02-28T11:57:26Z</time>
      </trkpt>
      <trkpt lat="45.0359" lon="6.49049">
        <ele>2374</ele>
        <time>2021-02-28T11:57:27Z</time>
      </trkpt>
      <trkpt lat="45.0359" lon="6.49049">
        <ele>2374.4</ele>
        <time>2021-02-28T11:57:28Z</time>
      </trkpt>
      <trkpt lat="45.03589" lon="6.49052">
        <ele>2374.8</ele>
        <time>2021-02-28T11:57:29Z</time>
      </trkpt>
      <trkpt lat="45.03589" lon="6.49052">
        <ele>2374.8</ele>
        <time>2021-02-28T11:57:30Z</time>
      </trkpt>
      <trkpt lat="45.03587" lon="6.49054">
        <ele>2375</ele>
        <time>2021-02-28T11:57:31Z</time>
      </trkpt>
      <trkpt lat="45.03587" lon="6.49054">
        <ele>2375.4</ele>
        <time>2021-02-28T11:57:32Z</time>
      </trkpt>
      <trkpt lat="45.03585" lon="6.49056">
        <ele>2375.4</ele>
        <time>2021-02-28T11:57:33Z</time>
      </trkpt>
      <trkpt lat="45.03585" lon="6.49056">
        <ele>2375.8</ele>
        <time>2021-02-28T11:57:34Z</time>
      </trkpt>
      <trkpt lat="45.03585" lon="6.49056">
        <ele>2375.6</ele>
        <time>2021-02-28T11:57:35Z</time>
      </trkpt>
      <trkpt lat="45.03584" lon="6.49058">
        <ele>2376</ele>
        <time>2021-02-28T11:57:36Z</time>
      </trkpt>
      <trkpt lat="45.03584" lon="6.49058">
        <ele>2376.2</ele>
        <time>2021-02-28T11:57:37Z</time>
      </trkpt>
      <trkpt lat="45.03584" lon="6.49058">
        <ele>2376.4</ele>
        <time>2021-02-28T11:57:38Z</time>
      </trkpt>
      <trkpt lat="45.03582" lon="6.4906">
        <ele>2376.8</ele>
        <time>2021-02-28T11:57:39Z</time>
      </trkpt>
      <trkpt lat="45.03582" lon="6.4906">
        <ele>2377</ele>
        <time>2021-02-28T11:57:40Z</time>
      </trkpt>
      <trkpt lat="45.0358" lon="6.49062">
        <ele>2377</ele>
        <time>2021-02-28T11:57:41Z</time>
      </trkpt>
      <trkpt lat="45.0358" lon="6.49062">
        <ele>2377.6</ele>
        <time>2021-02-28T11:57:42Z</time>
      </trkpt>
      <trkpt lat="45.0358" lon="6.49062">
        <ele>2377.6</ele>
        <time>2021-02-28T11:57:43Z</time>
      </trkpt>
      <trkpt lat="45.03579" lon="6.49064">
        <ele>2377.8</ele>
        <time>2021-02-28T11:57:44Z</time>
      </trkpt>
      <trkpt lat="45.03579" lon="6.49064">
        <ele>2378.4</ele>
        <time>2021-02-28T11:57:45Z</time>
      </trkpt>
      <trkpt lat="45.03579" lon="6.49064">
        <ele>2378.6</ele>
        <time>2021-02-28T11:57:46Z</time>
      </trkpt>
      <trkpt lat="45.03577" lon="6.49067">
        <ele>2378.6</ele>
        <time>2021-02-28T11:57:47Z</time>
      </trkpt>
      <trkpt lat="45.03577" lon="6.49067">
        <ele>2379</ele>
        <time>2021-02-28T11:57:48Z</time>
      </trkpt>
      <trkpt lat="45.03575" lon="6.49068">
        <ele>2379.2</ele>
        <time>2021-02-28T11:57:49Z</time>
      </trkpt>
      <trkpt lat="45.03575" lon="6.49068">
        <ele>2379.4</ele>
        <time>2021-02-28T11:57:50Z</time>
      </trkpt>
      <trkpt lat="45.03575" lon="6.49068">
        <ele>2379.8</ele>
        <time>2021-02-28T11:57:51Z</time>
      </trkpt>
      <trkpt lat="45.03575" lon="6.49068">
        <ele>2380</ele>
        <time>2021-02-28T11:57:52Z</time>
      </trkpt>
      <trkpt lat="45.03573" lon="6.4907">
        <ele>2380</ele>
        <time>2021-02-28T11:57:53Z</time>
      </trkpt>
      <trkpt lat="45.03573" lon="6.4907">
        <ele>2380.6</ele>
        <time>2021-02-28T11:57:54Z</time>
      </trkpt>
      <trkpt lat="45.03573" lon="6.4907">
        <ele>2380.6</ele>
        <time>2021-02-28T11:57:55Z</time>
      </trkpt>
      <trkpt lat="45.03572" lon="6.49073">
        <ele>2380.6</ele>
        <time>2021-02-28T11:57:56Z</time>
      </trkpt>
      <trkpt lat="45.03572" lon="6.49073">
        <ele>2381.4</ele>
        <time>2021-02-28T11:57:57Z</time>
      </trkpt>
      <trkpt lat="45.0357" lon="6.49075">
        <ele>2381.6</ele>
        <time>2021-02-28T11:57:58Z</time>
      </trkpt>
      <trkpt lat="45.0357" lon="6.49075">
        <ele>2382</ele>
        <time>2021-02-28T11:57:59Z</time>
      </trkpt>
      <trkpt lat="45.0357" lon="6.49075">
        <ele>2382.2</ele>
        <time>2021-02-28T11:58:00Z</time>
      </trkpt>
      <trkpt lat="45.0357" lon="6.49075">
        <ele>2382.6</ele>
        <time>2021-02-28T11:58:01Z</time>
      </trkpt>
      <trkpt lat="45.0357" lon="6.49075">
        <ele>2382.8</ele>
        <time>2021-02-28T11:58:02Z</time>
      </trkpt>
      <trkpt lat="45.03568" lon="6.49077">
        <ele>2383.2</ele>
        <time>2021-02-28T11:58:03Z</time>
      </trkpt>
      <trkpt lat="45.03568" lon="6.49077">
        <ele>2383.2</ele>
        <time>2021-02-28T11:58:04Z</time>
      </trkpt>
      <trkpt lat="45.03567" lon="6.49078">
        <ele>2383.4</ele>
        <time>2021-02-28T11:58:05Z</time>
      </trkpt>
      <trkpt lat="45.03567" lon="6.49078">
        <ele>2383.4</ele>
        <time>2021-02-28T11:58:06Z</time>
      </trkpt>
      <trkpt lat="45.03565" lon="6.4908">
        <ele>2383.6</ele>
        <time>2021-02-28T11:58:07Z</time>
      </trkpt>
      <trkpt lat="45.03565" lon="6.4908">
        <ele>2383.4</ele>
        <time>2021-02-28T11:58:08Z</time>
      </trkpt>
      <trkpt lat="45.03565" lon="6.4908">
        <ele>2383.6</ele>
        <time>2021-02-28T11:58:09Z</time>
      </trkpt>
      <trkpt lat="45.03565" lon="6.4908">
        <ele>2383.8</ele>
        <time>2021-02-28T11:58:10Z</time>
      </trkpt>
      <trkpt lat="45.03563" lon="6.49082">
        <ele>2384</ele>
        <time>2021-02-28T11:58:11Z</time>
      </trkpt>
      <trkpt lat="45.03563" lon="6.49082">
        <ele>2384.4</ele>
        <time>2021-02-28T11:58:12Z</time>
      </trkpt>
      <trkpt lat="45.03563" lon="6.49082">
        <ele>2385</ele>
        <time>2021-02-28T11:58:13Z</time>
      </trkpt>
      <trkpt lat="45.03562" lon="6.49084">
        <ele>2385</ele>
        <time>2021-02-28T11:58:14Z</time>
      </trkpt>
      <trkpt lat="45.03562" lon="6.49084">
        <ele>2385.2</ele>
        <time>2021-02-28T11:58:15Z</time>
      </trkpt>
      <trkpt lat="45.0356" lon="6.49086">
        <ele>2385.6</ele>
        <time>2021-02-28T11:58:16Z</time>
      </trkpt>
      <trkpt lat="45.0356" lon="6.49086">
        <ele>2385.6</ele>
        <time>2021-02-28T11:58:17Z</time>
      </trkpt>
      <trkpt lat="45.0356" lon="6.49086">
        <ele>2386.2</ele>
        <time>2021-02-28T11:58:18Z</time>
      </trkpt>
      <trkpt lat="45.03559" lon="6.49088">
        <ele>2386</ele>
        <time>2021-02-28T11:58:19Z</time>
      </trkpt>
      <trkpt lat="45.03559" lon="6.49088">
        <ele>2386.2</ele>
        <time>2021-02-28T11:58:20Z</time>
      </trkpt>
      <trkpt lat="45.03559" lon="6.49088">
        <ele>2386.4</ele>
        <time>2021-02-28T11:58:21Z</time>
      </trkpt>
      <trkpt lat="45.03557" lon="6.49091">
        <ele>2386.2</ele>
        <time>2021-02-28T11:58:22Z</time>
      </trkpt>
      <trkpt lat="45.03557" lon="6.49091">
        <ele>2386.8</ele>
        <time>2021-02-28T11:58:23Z</time>
      </trkpt>
      <trkpt lat="45.03557" lon="6.49091">
        <ele>2386.6</ele>
        <time>2021-02-28T11:58:24Z</time>
      </trkpt>
      <trkpt lat="45.03555" lon="6.49094">
        <ele>2386.6</ele>
        <time>2021-02-28T11:58:25Z</time>
      </trkpt>
      <trkpt lat="45.03555" lon="6.49094">
        <ele>2387.2</ele>
        <time>2021-02-28T11:58:26Z</time>
      </trkpt>
      <trkpt lat="45.03555" lon="6.49094">
        <ele>2387.6</ele>
        <time>2021-02-28T11:58:27Z</time>
      </trkpt>
      <trkpt lat="45.03553" lon="6.49095">
        <ele>2388</ele>
        <time>2021-02-28T11:58:28Z</time>
      </trkpt>
      <trkpt lat="45.03553" lon="6.49095">
        <ele>2388.2</ele>
        <time>2021-02-28T11:58:29Z</time>
      </trkpt>
      <trkpt lat="45.03553" lon="6.49095">
        <ele>2388.8</ele>
        <time>2021-02-28T11:58:30Z</time>
      </trkpt>
      <trkpt lat="45.03551" lon="6.49097">
        <ele>2388.8</ele>
        <time>2021-02-28T11:58:31Z</time>
      </trkpt>
      <trkpt lat="45.03551" lon="6.49097">
        <ele>2388.8</ele>
        <time>2021-02-28T11:58:32Z</time>
      </trkpt>
      <trkpt lat="45.03549" lon="6.49099">
        <ele>2389.4</ele>
        <time>2021-02-28T11:58:33Z</time>
      </trkpt>
      <trkpt lat="45.03549" lon="6.49099">
        <ele>2389.6</ele>
        <time>2021-02-28T11:58:34Z</time>
      </trkpt>
      <trkpt lat="45.03549" lon="6.49099">
        <ele>2389.4</ele>
        <time>2021-02-28T11:58:35Z</time>
      </trkpt>
      <trkpt lat="45.03549" lon="6.49099">
        <ele>2389</ele>
        <time>2021-02-28T11:58:36Z</time>
      </trkpt>
      <trkpt lat="45.03549" lon="6.49099">
        <ele>2388.6</ele>
        <time>2021-02-28T11:58:37Z</time>
      </trkpt>
      <trkpt lat="45.03549" lon="6.49099">
        <ele>2388.8</ele>
        <time>2021-02-28T11:58:38Z</time>
      </trkpt>
      <trkpt lat="45.03547" lon="6.49102">
        <ele>2389.4</ele>
        <time>2021-02-28T11:58:39Z</time>
      </trkpt>
      <trkpt lat="45.03547" lon="6.49102">
        <ele>2389.6</ele>
        <time>2021-02-28T11:58:40Z</time>
      </trkpt>
      <trkpt lat="45.03545" lon="6.49105">
        <ele>2390</ele>
        <time>2021-02-28T11:58:41Z</time>
      </trkpt>
      <trkpt lat="45.03545" lon="6.49105">
        <ele>2390.4</ele>
        <time>2021-02-28T11:58:42Z</time>
      </trkpt>
      <trkpt lat="45.03544" lon="6.49108">
        <ele>2391</ele>
        <time>2021-02-28T11:58:43Z</time>
      </trkpt>
      <trkpt lat="45.03544" lon="6.49108">
        <ele>2390.8</ele>
        <time>2021-02-28T11:58:44Z</time>
      </trkpt>
      <trkpt lat="45.03544" lon="6.49108">
        <ele>2391.4</ele>
        <time>2021-02-28T11:58:45Z</time>
      </trkpt>
      <trkpt lat="45.03542" lon="6.49111">
        <ele>2391.6</ele>
        <time>2021-02-28T11:58:46Z</time>
      </trkpt>
      <trkpt lat="45.03542" lon="6.49111">
        <ele>2391.6</ele>
        <time>2021-02-28T11:58:47Z</time>
      </trkpt>
      <trkpt lat="45.03542" lon="6.49111">
        <ele>2392</ele>
        <time>2021-02-28T11:58:48Z</time>
      </trkpt>
      <trkpt lat="45.03541" lon="6.49114">
        <ele>2392.2</ele>
        <time>2021-02-28T11:58:49Z</time>
      </trkpt>
      <trkpt lat="45.03541" lon="6.49114">
        <ele>2392.2</ele>
        <time>2021-02-28T11:58:50Z</time>
      </trkpt>
      <trkpt lat="45.0354" lon="6.49117">
        <ele>2392.6</ele>
        <time>2021-02-28T11:58:51Z</time>
      </trkpt>
      <trkpt lat="45.0354" lon="6.49117">
        <ele>2392.4</ele>
        <time>2021-02-28T11:58:52Z</time>
      </trkpt>
      <trkpt lat="45.03538" lon="6.49119">
        <ele>2392.6</ele>
        <time>2021-02-28T11:58:53Z</time>
      </trkpt>
      <trkpt lat="45.03538" lon="6.49119">
        <ele>2393.2</ele>
        <time>2021-02-28T11:58:54Z</time>
      </trkpt>
      <trkpt lat="45.03538" lon="6.49119">
        <ele>2393</ele>
        <time>2021-02-28T11:58:55Z</time>
      </trkpt>
      <trkpt lat="45.03537" lon="6.49122">
        <ele>2393.4</ele>
        <time>2021-02-28T11:58:56Z</time>
      </trkpt>
      <trkpt lat="45.03537" lon="6.49122">
        <ele>2394</ele>
        <time>2021-02-28T11:58:57Z</time>
      </trkpt>
      <trkpt lat="45.03537" lon="6.49122">
        <ele>2394</ele>
        <time>2021-02-28T11:58:58Z</time>
      </trkpt>
      <trkpt lat="45.03536" lon="6.49124">
        <ele>2394.6</ele>
        <time>2021-02-28T11:58:59Z</time>
      </trkpt>
      <trkpt lat="45.03536" lon="6.49124">
        <ele>2394.8</ele>
        <time>2021-02-28T11:59:00Z</time>
      </trkpt>
      <trkpt lat="45.03536" lon="6.49124">
        <ele>2394.8</ele>
        <time>2021-02-28T11:59:01Z</time>
      </trkpt>
      <trkpt lat="45.03535" lon="6.49126">
        <ele>2395.2</ele>
        <time>2021-02-28T11:59:02Z</time>
      </trkpt>
      <trkpt lat="45.03535" lon="6.49126">
        <ele>2395.2</ele>
        <time>2021-02-28T11:59:03Z</time>
      </trkpt>
      <trkpt lat="45.03533" lon="6.49127">
        <ele>2395.4</ele>
        <time>2021-02-28T11:59:04Z</time>
      </trkpt>
      <trkpt lat="45.03533" lon="6.49127">
        <ele>2396</ele>
        <time>2021-02-28T11:59:05Z</time>
      </trkpt>
      <trkpt lat="45.03533" lon="6.49127">
        <ele>2396.2</ele>
        <time>2021-02-28T11:59:06Z</time>
      </trkpt>
      <trkpt lat="45.03531" lon="6.4913">
        <ele>2396.2</ele>
        <time>2021-02-28T11:59:07Z</time>
      </trkpt>
      <trkpt lat="45.03531" lon="6.4913">
        <ele>2396.2</ele>
        <time>2021-02-28T11:59:08Z</time>
      </trkpt>
      <trkpt lat="45.03531" lon="6.4913">
        <ele>2396.4</ele>
        <time>2021-02-28T11:59:09Z</time>
      </trkpt>
      <trkpt lat="45.0353" lon="6.49132">
        <ele>2397</ele>
        <time>2021-02-28T11:59:10Z</time>
      </trkpt>
      <trkpt lat="45.0353" lon="6.49132">
        <ele>2397</ele>
        <time>2021-02-28T11:59:11Z</time>
      </trkpt>
      <trkpt lat="45.0353" lon="6.49132">
        <ele>2397.4</ele>
        <time>2021-02-28T11:59:12Z</time>
      </trkpt>
      <trkpt lat="45.03528" lon="6.49135">
        <ele>2397.4</ele>
        <time>2021-02-28T11:59:13Z</time>
      </trkpt>
      <trkpt lat="45.03528" lon="6.49135">
        <ele>2397.4</ele>
        <time>2021-02-28T11:59:14Z</time>
      </trkpt>
      <trkpt lat="45.03527" lon="6.49138">
        <ele>2398</ele>
        <time>2021-02-28T11:59:15Z</time>
      </trkpt>
      <trkpt lat="45.03527" lon="6.49138">
        <ele>2398.6</ele>
        <time>2021-02-28T11:59:16Z</time>
      </trkpt>
      <trkpt lat="45.03527" lon="6.49138">
        <ele>2398.4</ele>
        <time>2021-02-28T11:59:17Z</time>
      </trkpt>
      <trkpt lat="45.03526" lon="6.4914">
        <ele>2398.8</ele>
        <time>2021-02-28T11:59:18Z</time>
      </trkpt>
      <trkpt lat="45.03526" lon="6.4914">
        <ele>2399</ele>
        <time>2021-02-28T11:59:19Z</time>
      </trkpt>
      <trkpt lat="45.03524" lon="6.49142">
        <ele>2398.8</ele>
        <time>2021-02-28T11:59:20Z</time>
      </trkpt>
      <trkpt lat="45.03524" lon="6.49142">
        <ele>2399</ele>
        <time>2021-02-28T11:59:21Z</time>
      </trkpt>
      <trkpt lat="45.03524" lon="6.49142">
        <ele>2399.4</ele>
        <time>2021-02-28T11:59:22Z</time>
      </trkpt>
      <trkpt lat="45.03523" lon="6.49145">
        <ele>2399.4</ele>
        <time>2021-02-28T11:59:23Z</time>
      </trkpt>
      <trkpt lat="45.03523" lon="6.49145">
        <ele>2399.8</ele>
        <time>2021-02-28T11:59:24Z</time>
      </trkpt>
      <trkpt lat="45.03521" lon="6.49146">
        <ele>2399.8</ele>
        <time>2021-02-28T11:59:25Z</time>
      </trkpt>
      <trkpt lat="45.03521" lon="6.49146">
        <ele>2400.2</ele>
        <time>2021-02-28T11:59:26Z</time>
      </trkpt>
      <trkpt lat="45.03519" lon="6.49149">
        <ele>2400.2</ele>
        <time>2021-02-28T11:59:27Z</time>
      </trkpt>
      <trkpt lat="45.03519" lon="6.49149">
        <ele>2400.6</ele>
        <time>2021-02-28T11:59:28Z</time>
      </trkpt>
      <trkpt lat="45.03518" lon="6.49151">
        <ele>2400.8</ele>
        <time>2021-02-28T11:59:29Z</time>
      </trkpt>
      <trkpt lat="45.03518" lon="6.49151">
        <ele>2400.8</ele>
        <time>2021-02-28T11:59:30Z</time>
      </trkpt>
      <trkpt lat="45.03517" lon="6.49154">
        <ele>2401.2</ele>
        <time>2021-02-28T11:59:31Z</time>
      </trkpt>
      <trkpt lat="45.03517" lon="6.49154">
        <ele>2401</ele>
        <time>2021-02-28T11:59:32Z</time>
      </trkpt>
      <trkpt lat="45.03516" lon="6.49156">
        <ele>2401</ele>
        <time>2021-02-28T11:59:33Z</time>
      </trkpt>
      <trkpt lat="45.03516" lon="6.49156">
        <ele>2401.6</ele>
        <time>2021-02-28T11:59:34Z</time>
      </trkpt>
      <trkpt lat="45.03515" lon="6.49159">
        <ele>2401.6</ele>
        <time>2021-02-28T11:59:35Z</time>
      </trkpt>
      <trkpt lat="45.03515" lon="6.49159">
        <ele>2401.6</ele>
        <time>2021-02-28T11:59:36Z</time>
      </trkpt>
      <trkpt lat="45.03514" lon="6.49161">
        <ele>2402</ele>
        <time>2021-02-28T11:59:37Z</time>
      </trkpt>
      <trkpt lat="45.03514" lon="6.49161">
        <ele>2401.8</ele>
        <time>2021-02-28T11:59:38Z</time>
      </trkpt>
      <trkpt lat="45.03513" lon="6.49164">
        <ele>2402.4</ele>
        <time>2021-02-28T11:59:39Z</time>
      </trkpt>
      <trkpt lat="45.03513" lon="6.49164">
        <ele>2402.8</ele>
        <time>2021-02-28T11:59:40Z</time>
      </trkpt>
      <trkpt lat="45.03512" lon="6.49166">
        <ele>2403</ele>
        <time>2021-02-28T11:59:41Z</time>
      </trkpt>
      <trkpt lat="45.03512" lon="6.49166">
        <ele>2403.2</ele>
        <time>2021-02-28T11:59:42Z</time>
      </trkpt>
      <trkpt lat="45.0351" lon="6.49168">
        <ele>2403.6</ele>
        <time>2021-02-28T11:59:43Z</time>
      </trkpt>
      <trkpt lat="45.0351" lon="6.49168">
        <ele>2403.4</ele>
        <time>2021-02-28T11:59:44Z</time>
      </trkpt>
      <trkpt lat="45.03508" lon="6.4917">
        <ele>2403.8</ele>
        <time>2021-02-28T11:59:45Z</time>
      </trkpt>
      <trkpt lat="45.03508" lon="6.4917">
        <ele>2404.2</ele>
        <time>2021-02-28T11:59:46Z</time>
      </trkpt>
      <trkpt lat="45.03505" lon="6.49172">
        <ele>2404.2</ele>
        <time>2021-02-28T11:59:47Z</time>
      </trkpt>
      <trkpt lat="45.03505" lon="6.49172">
        <ele>2404.2</ele>
        <time>2021-02-28T11:59:48Z</time>
      </trkpt>
      <trkpt lat="45.03504" lon="6.49175">
        <ele>2404.4</ele>
        <time>2021-02-28T11:59:49Z</time>
      </trkpt>
      <trkpt lat="45.03504" lon="6.49175">
        <ele>2404.2</ele>
        <time>2021-02-28T11:59:50Z</time>
      </trkpt>
      <trkpt lat="45.03503" lon="6.49177">
        <ele>2404</ele>
        <time>2021-02-28T11:59:51Z</time>
      </trkpt>
      <trkpt lat="45.03503" lon="6.49177">
        <ele>2404.4</ele>
        <time>2021-02-28T11:59:52Z</time>
      </trkpt>
      <trkpt lat="45.03503" lon="6.49177">
        <ele>2404.4</ele>
        <time>2021-02-28T11:59:53Z</time>
      </trkpt>
      <trkpt lat="45.03501" lon="6.4918">
        <ele>2404.4</ele>
        <time>2021-02-28T11:59:54Z</time>
      </trkpt>
      <trkpt lat="45.03501" lon="6.4918">
        <ele>2404.6</ele>
        <time>2021-02-28T11:59:55Z</time>
      </trkpt>
      <trkpt lat="45.03499" lon="6.49182">
        <ele>2404.6</ele>
        <time>2021-02-28T11:59:56Z</time>
      </trkpt>
      <trkpt lat="45.03499" lon="6.49182">
        <ele>2404.6</ele>
        <time>2021-02-28T11:59:57Z</time>
      </trkpt>
      <trkpt lat="45.03498" lon="6.49185">
        <ele>2405</ele>
        <time>2021-02-28T11:59:58Z</time>
      </trkpt>
      <trkpt lat="45.03498" lon="6.49185">
        <ele>2405</ele>
        <time>2021-02-28T11:59:59Z</time>
      </trkpt>
      <trkpt lat="45.03495" lon="6.49186">
        <ele>2405</ele>
        <time>2021-02-28T12:00:00Z</time>
      </trkpt>
      <trkpt lat="45.03495" lon="6.49186">
        <ele>2404.8</ele>
        <time>2021-02-28T12:00:01Z</time>
      </trkpt>
      <trkpt lat="45.03495" lon="6.49186">
        <ele>2405.2</ele>
        <time>2021-02-28T12:00:02Z</time>
      </trkpt>
      <trkpt lat="45.03493" lon="6.49189">
        <ele>2405</ele>
        <time>2021-02-28T12:00:03Z</time>
      </trkpt>
      <trkpt lat="45.03493" lon="6.49189">
        <ele>2405</ele>
        <time>2021-02-28T12:00:04Z</time>
      </trkpt>
      <trkpt lat="45.0349" lon="6.49191">
        <ele>2405.2</ele>
        <time>2021-02-28T12:00:05Z</time>
      </trkpt>
      <trkpt lat="45.0349" lon="6.49191">
        <ele>2405.2</ele>
        <time>2021-02-28T12:00:06Z</time>
      </trkpt>
      <trkpt lat="45.03487" lon="6.49194">
        <ele>2405.2</ele>
        <time>2021-02-28T12:00:07Z</time>
      </trkpt>
      <trkpt lat="45.03487" lon="6.49194">
        <ele>2405.6</ele>
        <time>2021-02-28T12:00:08Z</time>
      </trkpt>
      <trkpt lat="45.03485" lon="6.49196">
        <ele>2405.6</ele>
        <time>2021-02-28T12:00:09Z</time>
      </trkpt>
      <trkpt lat="45.03485" lon="6.49196">
        <ele>2405.8</ele>
        <time>2021-02-28T12:00:10Z</time>
      </trkpt>
      <trkpt lat="45.03483" lon="6.49197">
        <ele>2405.8</ele>
        <time>2021-02-28T12:00:11Z</time>
      </trkpt>
      <trkpt lat="45.03483" lon="6.49197">
        <ele>2405.6</ele>
        <time>2021-02-28T12:00:12Z</time>
      </trkpt>
      <trkpt lat="45.03481" lon="6.49199">
        <ele>2406.2</ele>
        <time>2021-02-28T12:00:13Z</time>
      </trkpt>
      <trkpt lat="45.03481" lon="6.49199">
        <ele>2406.2</ele>
        <time>2021-02-28T12:00:14Z</time>
      </trkpt>
      <trkpt lat="45.03481" lon="6.49199">
        <ele>2406.2</ele>
        <time>2021-02-28T12:00:15Z</time>
      </trkpt>
      <trkpt lat="45.03481" lon="6.49199">
        <ele>2406.4</ele>
        <time>2021-02-28T12:00:16Z</time>
      </trkpt>
      <trkpt lat="45.03479" lon="6.49201">
        <ele>2406.4</ele>
        <time>2021-02-28T12:00:17Z</time>
      </trkpt>
      <trkpt lat="45.03479" lon="6.49201">
        <ele>2407</ele>
        <time>2021-02-28T12:00:18Z</time>
      </trkpt>
      <trkpt lat="45.03479" lon="6.49201">
        <ele>2407.2</ele>
        <time>2021-02-28T12:00:19Z</time>
      </trkpt>
      <trkpt lat="45.03476" lon="6.49202">
        <ele>2407.4</ele>
        <time>2021-02-28T12:00:20Z</time>
      </trkpt>
      <trkpt lat="45.03476" lon="6.49202">
        <ele>2407.8</ele>
        <time>2021-02-28T12:00:21Z</time>
      </trkpt>
      <trkpt lat="45.03476" lon="6.49202">
        <ele>2407.8</ele>
        <time>2021-02-28T12:00:22Z</time>
      </trkpt>
      <trkpt lat="45.03474" lon="6.49203">
        <ele>2408.2</ele>
        <time>2021-02-28T12:00:23Z</time>
      </trkpt>
      <trkpt lat="45.03474" lon="6.49203">
        <ele>2408.4</ele>
        <time>2021-02-28T12:00:24Z</time>
      </trkpt>
      <trkpt lat="45.03474" lon="6.49203">
        <ele>2409</ele>
        <time>2021-02-28T12:00:25Z</time>
      </trkpt>
      <trkpt lat="45.03471" lon="6.49204">
        <ele>2409.2</ele>
        <time>2021-02-28T12:00:26Z</time>
      </trkpt>
      <trkpt lat="45.03471" lon="6.49204">
        <ele>2409.2</ele>
        <time>2021-02-28T12:00:27Z</time>
      </trkpt>
      <trkpt lat="45.03471" lon="6.49204">
        <ele>2409.4</ele>
        <time>2021-02-28T12:00:28Z</time>
      </trkpt>
      <trkpt lat="45.03468" lon="6.49203">
        <ele>2409.6</ele>
        <time>2021-02-28T12:00:29Z</time>
      </trkpt>
      <trkpt lat="45.03468" lon="6.49203">
        <ele>2409.6</ele>
        <time>2021-02-28T12:00:30Z</time>
      </trkpt>
      <trkpt lat="45.03468" lon="6.49203">
        <ele>2409.8</ele>
        <time>2021-02-28T12:00:31Z</time>
      </trkpt>
      <trkpt lat="45.03466" lon="6.49204">
        <ele>2410</ele>
        <time>2021-02-28T12:00:32Z</time>
      </trkpt>
      <trkpt lat="45.03466" lon="6.49204">
        <ele>2410</ele>
        <time>2021-02-28T12:00:33Z</time>
      </trkpt>
      <trkpt lat="45.03464" lon="6.49205">
        <ele>2410.4</ele>
        <time>2021-02-28T12:00:34Z</time>
      </trkpt>
      <trkpt lat="45.03464" lon="6.49205">
        <ele>2410.6</ele>
        <time>2021-02-28T12:00:35Z</time>
      </trkpt>
      <trkpt lat="45.03464" lon="6.49205">
        <ele>2411.2</ele>
        <time>2021-02-28T12:00:36Z</time>
      </trkpt>
      <trkpt lat="45.03461" lon="6.49206">
        <ele>2411.2</ele>
        <time>2021-02-28T12:00:37Z</time>
      </trkpt>
      <trkpt lat="45.03461" lon="6.49206">
        <ele>2411.6</ele>
        <time>2021-02-28T12:00:38Z</time>
      </trkpt>
      <trkpt lat="45.03461" lon="6.49206">
        <ele>2411.8</ele>
        <time>2021-02-28T12:00:39Z</time>
      </trkpt>
      <trkpt lat="45.03459" lon="6.49208">
        <ele>2411.6</ele>
        <time>2021-02-28T12:00:40Z</time>
      </trkpt>
      <trkpt lat="45.03459" lon="6.49208">
        <ele>2412</ele>
        <time>2021-02-28T12:00:41Z</time>
      </trkpt>
      <trkpt lat="45.03457" lon="6.49208">
        <ele>2412.2</ele>
        <time>2021-02-28T12:00:42Z</time>
      </trkpt>
      <trkpt lat="45.03457" lon="6.49208">
        <ele>2412.2</ele>
        <time>2021-02-28T12:00:43Z</time>
      </trkpt>
      <trkpt lat="45.03457" lon="6.49208">
        <ele>2412.4</ele>
        <time>2021-02-28T12:00:44Z</time>
      </trkpt>
      <trkpt lat="45.03455" lon="6.4921">
        <ele>2412.8</ele>
        <time>2021-02-28T12:00:45Z</time>
      </trkpt>
      <trkpt lat="45.03455" lon="6.4921">
        <ele>2412.8</ele>
        <time>2021-02-28T12:00:46Z</time>
      </trkpt>
      <trkpt lat="45.03455" lon="6.4921">
        <ele>2413</ele>
        <time>2021-02-28T12:00:47Z</time>
      </trkpt>
      <trkpt lat="45.03453" lon="6.49211">
        <ele>2413</ele>
        <time>2021-02-28T12:00:48Z</time>
      </trkpt>
      <trkpt lat="45.03453" lon="6.49211">
        <ele>2413.2</ele>
        <time>2021-02-28T12:00:49Z</time>
      </trkpt>
      <trkpt lat="45.0345" lon="6.49212">
        <ele>2413.4</ele>
        <time>2021-02-28T12:00:50Z</time>
      </trkpt>
      <trkpt lat="45.0345" lon="6.49212">
        <ele>2413.6</ele>
        <time>2021-02-28T12:00:51Z</time>
      </trkpt>
      <trkpt lat="45.03449" lon="6.49214">
        <ele>2414</ele>
        <time>2021-02-28T12:00:52Z</time>
      </trkpt>
      <trkpt lat="45.03449" lon="6.49214">
        <ele>2414.4</ele>
        <time>2021-02-28T12:00:53Z</time>
      </trkpt>
      <trkpt lat="45.03447" lon="6.49215">
        <ele>2414.4</ele>
        <time>2021-02-28T12:00:54Z</time>
      </trkpt>
      <trkpt lat="45.03447" lon="6.49215">
        <ele>2414.4</ele>
        <time>2021-02-28T12:00:55Z</time>
      </trkpt>
      <trkpt lat="45.03444" lon="6.49216">
        <ele>2414.8</ele>
        <time>2021-02-28T12:00:56Z</time>
      </trkpt>
      <trkpt lat="45.03444" lon="6.49216">
        <ele>2414.4</ele>
        <time>2021-02-28T12:00:57Z</time>
      </trkpt>
      <trkpt lat="45.03443" lon="6.49217">
        <ele>2414.8</ele>
        <time>2021-02-28T12:00:58Z</time>
      </trkpt>
      <trkpt lat="45.03443" lon="6.49217">
        <ele>2415</ele>
        <time>2021-02-28T12:00:59Z</time>
      </trkpt>
      <trkpt lat="45.03441" lon="6.49218">
        <ele>2415</ele>
        <time>2021-02-28T12:01:00Z</time>
      </trkpt>
      <trkpt lat="45.03441" lon="6.49218">
        <ele>2415.4</ele>
        <time>2021-02-28T12:01:01Z</time>
      </trkpt>
      <trkpt lat="45.03441" lon="6.49218">
        <ele>2415.4</ele>
        <time>2021-02-28T12:01:02Z</time>
      </trkpt>
      <trkpt lat="45.03438" lon="6.4922">
        <ele>2415.4</ele>
        <time>2021-02-28T12:01:03Z</time>
      </trkpt>
      <trkpt lat="45.03438" lon="6.4922">
        <ele>2415.6</ele>
        <time>2021-02-28T12:01:04Z</time>
      </trkpt>
      <trkpt lat="45.03436" lon="6.49222">
        <ele>2415.8</ele>
        <time>2021-02-28T12:01:05Z</time>
      </trkpt>
      <trkpt lat="45.03436" lon="6.49222">
        <ele>2416.4</ele>
        <time>2021-02-28T12:01:06Z</time>
      </trkpt>
      <trkpt lat="45.03436" lon="6.49222">
        <ele>2416.6</ele>
        <time>2021-02-28T12:01:07Z</time>
      </trkpt>
      <trkpt lat="45.03434" lon="6.49222">
        <ele>2416.6</ele>
        <time>2021-02-28T12:01:08Z</time>
      </trkpt>
      <trkpt lat="45.03434" lon="6.49222">
        <ele>2417.2</ele>
        <time>2021-02-28T12:01:09Z</time>
      </trkpt>
      <trkpt lat="45.03434" lon="6.49222">
        <ele>2417</ele>
        <time>2021-02-28T12:01:10Z</time>
      </trkpt>
      <trkpt lat="45.03432" lon="6.49223">
        <ele>2417.2</ele>
        <time>2021-02-28T12:01:11Z</time>
      </trkpt>
      <trkpt lat="45.03432" lon="6.49223">
        <ele>2417.4</ele>
        <time>2021-02-28T12:01:12Z</time>
      </trkpt>
      <trkpt lat="45.03432" lon="6.49223">
        <ele>2417.4</ele>
        <time>2021-02-28T12:01:13Z</time>
      </trkpt>
      <trkpt lat="45.03429" lon="6.49225">
        <ele>2417.8</ele>
        <time>2021-02-28T12:01:14Z</time>
      </trkpt>
      <trkpt lat="45.03429" lon="6.49225">
        <ele>2418.2</ele>
        <time>2021-02-28T12:01:15Z</time>
      </trkpt>
      <trkpt lat="45.03428" lon="6.49226">
        <ele>2418.2</ele>
        <time>2021-02-28T12:01:16Z</time>
      </trkpt>
      <trkpt lat="45.03428" lon="6.49226">
        <ele>2418.6</ele>
        <time>2021-02-28T12:01:17Z</time>
      </trkpt>
      <trkpt lat="45.03428" lon="6.49226">
        <ele>2418.8</ele>
        <time>2021-02-28T12:01:18Z</time>
      </trkpt>
      <trkpt lat="45.03425" lon="6.49226">
        <ele>2418.8</ele>
        <time>2021-02-28T12:01:19Z</time>
      </trkpt>
      <trkpt lat="45.03425" lon="6.49226">
        <ele>2419</ele>
        <time>2021-02-28T12:01:20Z</time>
      </trkpt>
      <trkpt lat="45.03425" lon="6.49226">
        <ele>2419</ele>
        <time>2021-02-28T12:01:21Z</time>
      </trkpt>
      <trkpt lat="45.03423" lon="6.49228">
        <ele>2418.8</ele>
        <time>2021-02-28T12:01:22Z</time>
      </trkpt>
      <trkpt lat="45.03423" lon="6.49228">
        <ele>2419.2</ele>
        <time>2021-02-28T12:01:23Z</time>
      </trkpt>
      <trkpt lat="45.03423" lon="6.49228">
        <ele>2419.6</ele>
        <time>2021-02-28T12:01:24Z</time>
      </trkpt>
      <trkpt lat="45.03421" lon="6.49228">
        <ele>2419.4</ele>
        <time>2021-02-28T12:01:25Z</time>
      </trkpt>
      <trkpt lat="45.03421" lon="6.49228">
        <ele>2420.2</ele>
        <time>2021-02-28T12:01:26Z</time>
      </trkpt>
      <trkpt lat="45.03421" lon="6.49228">
        <ele>2420.2</ele>
        <time>2021-02-28T12:01:27Z</time>
      </trkpt>
      <trkpt lat="45.03419" lon="6.49228">
        <ele>2420.4</ele>
        <time>2021-02-28T12:01:28Z</time>
      </trkpt>
      <trkpt lat="45.03419" lon="6.49228">
        <ele>2420.6</ele>
        <time>2021-02-28T12:01:29Z</time>
      </trkpt>
      <trkpt lat="45.03419" lon="6.49228">
        <ele>2420.8</ele>
        <time>2021-02-28T12:01:30Z</time>
      </trkpt>
      <trkpt lat="45.03416" lon="6.49229">
        <ele>2421.2</ele>
        <time>2021-02-28T12:01:31Z</time>
      </trkpt>
      <trkpt lat="45.03416" lon="6.49229">
        <ele>2421.6</ele>
        <time>2021-02-28T12:01:32Z</time>
      </trkpt>
      <trkpt lat="45.03416" lon="6.49229">
        <ele>2421.6</ele>
        <time>2021-02-28T12:01:33Z</time>
      </trkpt>
      <trkpt lat="45.03416" lon="6.49229">
        <ele>2421.8</ele>
        <time>2021-02-28T12:01:34Z</time>
      </trkpt>
      <trkpt lat="45.03414" lon="6.49228">
        <ele>2421.8</ele>
        <time>2021-02-28T12:01:35Z</time>
      </trkpt>
      <trkpt lat="45.03414" lon="6.49228">
        <ele>2421.8</ele>
        <time>2021-02-28T12:01:36Z</time>
      </trkpt>
      <trkpt lat="45.03414" lon="6.49228">
        <ele>2422.2</ele>
        <time>2021-02-28T12:01:37Z</time>
      </trkpt>
      <trkpt lat="45.03412" lon="6.49228">
        <ele>2422.4</ele>
        <time>2021-02-28T12:01:38Z</time>
      </trkpt>
      <trkpt lat="45.03412" lon="6.49228">
        <ele>2422.6</ele>
        <time>2021-02-28T12:01:39Z</time>
      </trkpt>
      <trkpt lat="45.03412" lon="6.49228">
        <ele>2422.8</ele>
        <time>2021-02-28T12:01:40Z</time>
      </trkpt>
      <trkpt lat="45.0341" lon="6.4923">
        <ele>2422.8</ele>
        <time>2021-02-28T12:01:41Z</time>
      </trkpt>
      <trkpt lat="45.0341" lon="6.4923">
        <ele>2423</ele>
        <time>2021-02-28T12:01:42Z</time>
      </trkpt>
      <trkpt lat="45.0341" lon="6.4923">
        <ele>2423.4</ele>
        <time>2021-02-28T12:01:43Z</time>
      </trkpt>
      <trkpt lat="45.03408" lon="6.49231">
        <ele>2423.8</ele>
        <time>2021-02-28T12:01:44Z</time>
      </trkpt>
      <trkpt lat="45.03408" lon="6.49231">
        <ele>2423.8</ele>
        <time>2021-02-28T12:01:45Z</time>
      </trkpt>
      <trkpt lat="45.03408" lon="6.49231">
        <ele>2424</ele>
        <time>2021-02-28T12:01:46Z</time>
      </trkpt>
      <trkpt lat="45.03406" lon="6.49232">
        <ele>2424</ele>
        <time>2021-02-28T12:01:47Z</time>
      </trkpt>
      <trkpt lat="45.03406" lon="6.49232">
        <ele>2424.2</ele>
        <time>2021-02-28T12:01:48Z</time>
      </trkpt>
      <trkpt lat="45.03406" lon="6.49232">
        <ele>2424.4</ele>
        <time>2021-02-28T12:01:49Z</time>
      </trkpt>
      <trkpt lat="45.03406" lon="6.49232">
        <ele>2424.6</ele>
        <time>2021-02-28T12:01:50Z</time>
      </trkpt>
      <trkpt lat="45.03403" lon="6.49231">
        <ele>2424.8</ele>
        <time>2021-02-28T12:01:51Z</time>
      </trkpt>
      <trkpt lat="45.03403" lon="6.49231">
        <ele>2424.8</ele>
        <time>2021-02-28T12:01:52Z</time>
      </trkpt>
      <trkpt lat="45.03403" lon="6.49231">
        <ele>2425</ele>
        <time>2021-02-28T12:01:53Z</time>
      </trkpt>
      <trkpt lat="45.03401" lon="6.49232">
        <ele>2424.8</ele>
        <time>2021-02-28T12:01:54Z</time>
      </trkpt>
      <trkpt lat="45.03401" lon="6.49232">
        <ele>2424.8</ele>
        <time>2021-02-28T12:01:55Z</time>
      </trkpt>
      <trkpt lat="45.03401" lon="6.49232">
        <ele>2425</ele>
        <time>2021-02-28T12:01:56Z</time>
      </trkpt>
      <trkpt lat="45.03398" lon="6.49233">
        <ele>2425</ele>
        <time>2021-02-28T12:01:57Z</time>
      </trkpt>
      <trkpt lat="45.03398" lon="6.49233">
        <ele>2425</ele>
        <time>2021-02-28T12:01:58Z</time>
      </trkpt>
      <trkpt lat="45.03398" lon="6.49233">
        <ele>2425</ele>
        <time>2021-02-28T12:01:59Z</time>
      </trkpt>
      <trkpt lat="45.03396" lon="6.49234">
        <ele>2425</ele>
        <time>2021-02-28T12:02:00Z</time>
      </trkpt>
      <trkpt lat="45.03396" lon="6.49234">
        <ele>2425</ele>
        <time>2021-02-28T12:02:01Z</time>
      </trkpt>
      <trkpt lat="45.03396" lon="6.49234">
        <ele>2425.6</ele>
        <time>2021-02-28T12:02:02Z</time>
      </trkpt>
      <trkpt lat="45.03393" lon="6.49235">
        <ele>2425.6</ele>
        <time>2021-02-28T12:02:03Z</time>
      </trkpt>
      <trkpt lat="45.03393" lon="6.49235">
        <ele>2426</ele>
        <time>2021-02-28T12:02:04Z</time>
      </trkpt>
      <trkpt lat="45.03393" lon="6.49235">
        <ele>2426.6</ele>
        <time>2021-02-28T12:02:05Z</time>
      </trkpt>
      <trkpt lat="45.03391" lon="6.49235">
        <ele>2426.4</ele>
        <time>2021-02-28T12:02:06Z</time>
      </trkpt>
      <trkpt lat="45.03391" lon="6.49235">
        <ele>2426.4</ele>
        <time>2021-02-28T12:02:07Z</time>
      </trkpt>
      <trkpt lat="45.03391" lon="6.49235">
        <ele>2426.4</ele>
        <time>2021-02-28T12:02:08Z</time>
      </trkpt>
      <trkpt lat="45.03388" lon="6.49236">
        <ele>2426.4</ele>
        <time>2021-02-28T12:02:09Z</time>
      </trkpt>
      <trkpt lat="45.03388" lon="6.49236">
        <ele>2426.8</ele>
        <time>2021-02-28T12:02:10Z</time>
      </trkpt>
      <trkpt lat="45.03387" lon="6.49236">
        <ele>2426.8</ele>
        <time>2021-02-28T12:02:11Z</time>
      </trkpt>
      <trkpt lat="45.03387" lon="6.49236">
        <ele>2426.8</ele>
        <time>2021-02-28T12:02:12Z</time>
      </trkpt>
      <trkpt lat="45.03385" lon="6.49237">
        <ele>2427</ele>
        <time>2021-02-28T12:02:13Z</time>
      </trkpt>
      <trkpt lat="45.03385" lon="6.49237">
        <ele>2427.2</ele>
        <time>2021-02-28T12:02:14Z</time>
      </trkpt>
      <trkpt lat="45.03383" lon="6.49238">
        <ele>2427.2</ele>
        <time>2021-02-28T12:02:15Z</time>
      </trkpt>
      <trkpt lat="45.03383" lon="6.49238">
        <ele>2427.6</ele>
        <time>2021-02-28T12:02:16Z</time>
      </trkpt>
      <trkpt lat="45.03383" lon="6.49238">
        <ele>2427.6</ele>
        <time>2021-02-28T12:02:17Z</time>
      </trkpt>
      <trkpt lat="45.0338" lon="6.4924">
        <ele>2427.8</ele>
        <time>2021-02-28T12:02:18Z</time>
      </trkpt>
      <trkpt lat="45.0338" lon="6.4924">
        <ele>2427.6</ele>
        <time>2021-02-28T12:02:19Z</time>
      </trkpt>
      <trkpt lat="45.03378" lon="6.49241">
        <ele>2427.8</ele>
        <time>2021-02-28T12:02:20Z</time>
      </trkpt>
      <trkpt lat="45.03378" lon="6.49241">
        <ele>2428</ele>
        <time>2021-02-28T12:02:21Z</time>
      </trkpt>
      <trkpt lat="45.03378" lon="6.49241">
        <ele>2427.8</ele>
        <time>2021-02-28T12:02:22Z</time>
      </trkpt>
      <trkpt lat="45.03376" lon="6.49242">
        <ele>2428</ele>
        <time>2021-02-28T12:02:23Z</time>
      </trkpt>
      <trkpt lat="45.03376" lon="6.49242">
        <ele>2428</ele>
        <time>2021-02-28T12:02:24Z</time>
      </trkpt>
      <trkpt lat="45.03374" lon="6.49243">
        <ele>2428.2</ele>
        <time>2021-02-28T12:02:25Z</time>
      </trkpt>
      <trkpt lat="45.03374" lon="6.49243">
        <ele>2428.8</ele>
        <time>2021-02-28T12:02:26Z</time>
      </trkpt>
      <trkpt lat="45.03373" lon="6.49244">
        <ele>2428.8</ele>
        <time>2021-02-28T12:02:27Z</time>
      </trkpt>
      <trkpt lat="45.03373" lon="6.49244">
        <ele>2428.8</ele>
        <time>2021-02-28T12:02:28Z</time>
      </trkpt>
      <trkpt lat="45.03373" lon="6.49244">
        <ele>2429.4</ele>
        <time>2021-02-28T12:02:29Z</time>
      </trkpt>
      <trkpt lat="45.0337" lon="6.49246">
        <ele>2429.2</ele>
        <time>2021-02-28T12:02:30Z</time>
      </trkpt>
      <trkpt lat="45.0337" lon="6.49246">
        <ele>2429.4</ele>
        <time>2021-02-28T12:02:31Z</time>
      </trkpt>
      <trkpt lat="45.03369" lon="6.49248">
        <ele>2429.2</ele>
        <time>2021-02-28T12:02:32Z</time>
      </trkpt>
      <trkpt lat="45.03369" lon="6.49248">
        <ele>2429</ele>
        <time>2021-02-28T12:02:33Z</time>
      </trkpt>
      <trkpt lat="45.03369" lon="6.49248">
        <ele>2429.6</ele>
        <time>2021-02-28T12:02:34Z</time>
      </trkpt>
      <trkpt lat="45.03367" lon="6.4925">
        <ele>2429.4</ele>
        <time>2021-02-28T12:02:35Z</time>
      </trkpt>
      <trkpt lat="45.03367" lon="6.4925">
        <ele>2429.4</ele>
        <time>2021-02-28T12:02:36Z</time>
      </trkpt>
      <trkpt lat="45.03367" lon="6.4925">
        <ele>2429.8</ele>
        <time>2021-02-28T12:02:37Z</time>
      </trkpt>
      <trkpt lat="45.03365" lon="6.49253">
        <ele>2430.2</ele>
        <time>2021-02-28T12:02:38Z</time>
      </trkpt>
      <trkpt lat="45.03365" lon="6.49253">
        <ele>2430.4</ele>
        <time>2021-02-28T12:02:39Z</time>
      </trkpt>
      <trkpt lat="45.03365" lon="6.49253">
        <ele>2430.6</ele>
        <time>2021-02-28T12:02:40Z</time>
      </trkpt>
      <trkpt lat="45.03363" lon="6.49255">
        <ele>2430.6</ele>
        <time>2021-02-28T12:02:41Z</time>
      </trkpt>
      <trkpt lat="45.03363" lon="6.49255">
        <ele>2431</ele>
        <time>2021-02-28T12:02:42Z</time>
      </trkpt>
      <trkpt lat="45.03363" lon="6.49255">
        <ele>2431.2</ele>
        <time>2021-02-28T12:02:43Z</time>
      </trkpt>
      <trkpt lat="45.03361" lon="6.49257">
        <ele>2431.6</ele>
        <time>2021-02-28T12:02:44Z</time>
      </trkpt>
      <trkpt lat="45.03361" lon="6.49257">
        <ele>2431</ele>
        <time>2021-02-28T12:02:45Z</time>
      </trkpt>
      <trkpt lat="45.03361" lon="6.49257">
        <ele>2431</ele>
        <time>2021-02-28T12:02:46Z</time>
      </trkpt>
      <trkpt lat="45.0336" lon="6.4926">
        <ele>2431.2</ele>
        <time>2021-02-28T12:02:47Z</time>
      </trkpt>
      <trkpt lat="45.0336" lon="6.4926">
        <ele>2431.2</ele>
        <time>2021-02-28T12:02:48Z</time>
      </trkpt>
      <trkpt lat="45.0336" lon="6.4926">
        <ele>2432</ele>
        <time>2021-02-28T12:02:49Z</time>
      </trkpt>
      <trkpt lat="45.03358" lon="6.49262">
        <ele>2432.4</ele>
        <time>2021-02-28T12:02:50Z</time>
      </trkpt>
      <trkpt lat="45.03358" lon="6.49262">
        <ele>2432.6</ele>
        <time>2021-02-28T12:02:51Z</time>
      </trkpt>
      <trkpt lat="45.03358" lon="6.49262">
        <ele>2433</ele>
        <time>2021-02-28T12:02:52Z</time>
      </trkpt>
      <trkpt lat="45.03356" lon="6.49264">
        <ele>2433.6</ele>
        <time>2021-02-28T12:02:53Z</time>
      </trkpt>
      <trkpt lat="45.03356" lon="6.49264">
        <ele>2434</ele>
        <time>2021-02-28T12:02:54Z</time>
      </trkpt>
      <trkpt lat="45.03355" lon="6.49266">
        <ele>2434</ele>
        <time>2021-02-28T12:02:55Z</time>
      </trkpt>
      <trkpt lat="45.03355" lon="6.49266">
        <ele>2434.4</ele>
        <time>2021-02-28T12:02:56Z</time>
      </trkpt>
      <trkpt lat="45.03355" lon="6.49266">
        <ele>2434.2</ele>
        <time>2021-02-28T12:02:57Z</time>
      </trkpt>
      <trkpt lat="45.03353" lon="6.49268">
        <ele>2434.2</ele>
        <time>2021-02-28T12:02:58Z</time>
      </trkpt>
      <trkpt lat="45.03353" lon="6.49268">
        <ele>2434.6</ele>
        <time>2021-02-28T12:02:59Z</time>
      </trkpt>
      <trkpt lat="45.03351" lon="6.4927">
        <ele>2435.4</ele>
        <time>2021-02-28T12:03:00Z</time>
      </trkpt>
      <trkpt lat="45.03351" lon="6.4927">
        <ele>2435.4</ele>
        <time>2021-02-28T12:03:01Z</time>
      </trkpt>
      <trkpt lat="45.0335" lon="6.49272">
        <ele>2435.4</ele>
        <time>2021-02-28T12:03:02Z</time>
      </trkpt>
      <trkpt lat="45.0335" lon="6.49272">
        <ele>2435.4</ele>
        <time>2021-02-28T12:03:03Z</time>
      </trkpt>
      <trkpt lat="45.0335" lon="6.49272">
        <ele>2435.2</ele>
        <time>2021-02-28T12:03:04Z</time>
      </trkpt>
      <trkpt lat="45.03347" lon="6.49274">
        <ele>2435.4</ele>
        <time>2021-02-28T12:03:05Z</time>
      </trkpt>
      <trkpt lat="45.03347" lon="6.49274">
        <ele>2435.2</ele>
        <time>2021-02-28T12:03:06Z</time>
      </trkpt>
      <trkpt lat="45.03347" lon="6.49274">
        <ele>2435.6</ele>
        <time>2021-02-28T12:03:07Z</time>
      </trkpt>
      <trkpt lat="45.03347" lon="6.49274">
        <ele>2436</ele>
        <time>2021-02-28T12:03:08Z</time>
      </trkpt>
      <trkpt lat="45.03345" lon="6.49274">
        <ele>2436.4</ele>
        <time>2021-02-28T12:03:09Z</time>
      </trkpt>
      <trkpt lat="45.03345" lon="6.49274">
        <ele>2436.4</ele>
        <time>2021-02-28T12:03:10Z</time>
      </trkpt>
      <trkpt lat="45.03345" lon="6.49274">
        <ele>2436.4</ele>
        <time>2021-02-28T12:03:11Z</time>
      </trkpt>
      <trkpt lat="45.03345" lon="6.49274">
        <ele>2436.6</ele>
        <time>2021-02-28T12:03:12Z</time>
      </trkpt>
      <trkpt lat="45.03344" lon="6.49277">
        <ele>2436.8</ele>
        <time>2021-02-28T12:03:13Z</time>
      </trkpt>
      <trkpt lat="45.03344" lon="6.49277">
        <ele>2437.2</ele>
        <time>2021-02-28T12:03:14Z</time>
      </trkpt>
      <trkpt lat="45.03344" lon="6.49277">
        <ele>2437.6</ele>
        <time>2021-02-28T12:03:15Z</time>
      </trkpt>
      <trkpt lat="45.03344" lon="6.49277">
        <ele>2437.6</ele>
        <time>2021-02-28T12:03:16Z</time>
      </trkpt>
      <trkpt lat="45.03341" lon="6.49278">
        <ele>2438.2</ele>
        <time>2021-02-28T12:03:17Z</time>
      </trkpt>
      <trkpt lat="45.03341" lon="6.49278">
        <ele>2438.4</ele>
        <time>2021-02-28T12:03:18Z</time>
      </trkpt>
      <trkpt lat="45.03341" lon="6.49278">
        <ele>2438.4</ele>
        <time>2021-02-28T12:03:19Z</time>
      </trkpt>
      <trkpt lat="45.0334" lon="6.49279">
        <ele>2438.6</ele>
        <time>2021-02-28T12:03:20Z</time>
      </trkpt>
      <trkpt lat="45.0334" lon="6.49279">
        <ele>2438.8</ele>
        <time>2021-02-28T12:03:21Z</time>
      </trkpt>
      <trkpt lat="45.0334" lon="6.49279">
        <ele>2438.8</ele>
        <time>2021-02-28T12:03:22Z</time>
      </trkpt>
      <trkpt lat="45.0334" lon="6.49279">
        <ele>2439</ele>
        <time>2021-02-28T12:03:23Z</time>
      </trkpt>
      <trkpt lat="45.03337" lon="6.49279">
        <ele>2439.2</ele>
        <time>2021-02-28T12:03:24Z</time>
      </trkpt>
      <trkpt lat="45.03337" lon="6.49279">
        <ele>2439.6</ele>
        <time>2021-02-28T12:03:25Z</time>
      </trkpt>
      <trkpt lat="45.03337" lon="6.49279">
        <ele>2439.4</ele>
        <time>2021-02-28T12:03:26Z</time>
      </trkpt>
      <trkpt lat="45.03334" lon="6.49281">
        <ele>2439.8</ele>
        <time>2021-02-28T12:03:27Z</time>
      </trkpt>
      <trkpt lat="45.03334" lon="6.49281">
        <ele>2440</ele>
        <time>2021-02-28T12:03:28Z</time>
      </trkpt>
      <trkpt lat="45.03332" lon="6.49282">
        <ele>2440</ele>
        <time>2021-02-28T12:03:29Z</time>
      </trkpt>
      <trkpt lat="45.03332" lon="6.49282">
        <ele>2440.2</ele>
        <time>2021-02-28T12:03:30Z</time>
      </trkpt>
      <trkpt lat="45.03332" lon="6.49282">
        <ele>2440.2</ele>
        <time>2021-02-28T12:03:31Z</time>
      </trkpt>
      <trkpt lat="45.0333" lon="6.49283">
        <ele>2440.6</ele>
        <time>2021-02-28T12:03:32Z</time>
      </trkpt>
      <trkpt lat="45.0333" lon="6.49283">
        <ele>2440.8</ele>
        <time>2021-02-28T12:03:33Z</time>
      </trkpt>
      <trkpt lat="45.0333" lon="6.49283">
        <ele>2441.2</ele>
        <time>2021-02-28T12:03:34Z</time>
      </trkpt>
      <trkpt lat="45.03327" lon="6.49285">
        <ele>2441.6</ele>
        <time>2021-02-28T12:03:35Z</time>
      </trkpt>
      <trkpt lat="45.03327" lon="6.49285">
        <ele>2441.8</ele>
        <time>2021-02-28T12:03:36Z</time>
      </trkpt>
      <trkpt lat="45.03326" lon="6.49287">
        <ele>2442.2</ele>
        <time>2021-02-28T12:03:37Z</time>
      </trkpt>
      <trkpt lat="45.03326" lon="6.49287">
        <ele>2442.6</ele>
        <time>2021-02-28T12:03:38Z</time>
      </trkpt>
      <trkpt lat="45.03326" lon="6.49287">
        <ele>2443</ele>
        <time>2021-02-28T12:03:39Z</time>
      </trkpt>
      <trkpt lat="45.03326" lon="6.49287">
        <ele>2443.2</ele>
        <time>2021-02-28T12:03:40Z</time>
      </trkpt>
      <trkpt lat="45.03324" lon="6.49289">
        <ele>2442.6</ele>
        <time>2021-02-28T12:03:41Z</time>
      </trkpt>
      <trkpt lat="45.03324" lon="6.49289">
        <ele>2443.2</ele>
        <time>2021-02-28T12:03:42Z</time>
      </trkpt>
      <trkpt lat="45.03324" lon="6.49289">
        <ele>2443.4</ele>
        <time>2021-02-28T12:03:43Z</time>
      </trkpt>
      <trkpt lat="45.03323" lon="6.49289">
        <ele>2443.6</ele>
        <time>2021-02-28T12:03:44Z</time>
      </trkpt>
      <trkpt lat="45.03323" lon="6.4929">
        <ele>2444</ele>
        <time>2021-02-28T12:03:45Z</time>
      </trkpt>
      <trkpt lat="45.03322" lon="6.49291">
        <ele>2444.2</ele>
        <time>2021-02-28T12:03:46Z</time>
      </trkpt>
      <trkpt lat="45.03322" lon="6.49292">
        <ele>2444.6</ele>
        <time>2021-02-28T12:03:47Z</time>
      </trkpt>
      <trkpt lat="45.03321" lon="6.49293">
        <ele>2444.4</ele>
        <time>2021-02-28T12:03:48Z</time>
      </trkpt>
      <trkpt lat="45.0332" lon="6.49293">
        <ele>2444.6</ele>
        <time>2021-02-28T12:03:49Z</time>
      </trkpt>
      <trkpt lat="45.0332" lon="6.49294">
        <ele>2445</ele>
        <time>2021-02-28T12:03:50Z</time>
      </trkpt>
      <trkpt lat="45.03319" lon="6.49295">
        <ele>2445</ele>
        <time>2021-02-28T12:03:51Z</time>
      </trkpt>
      <trkpt lat="45.03319" lon="6.49296">
        <ele>2445.4</ele>
        <time>2021-02-28T12:03:52Z</time>
      </trkpt>
      <trkpt lat="45.03316" lon="6.49296">
        <ele>2445.8</ele>
        <time>2021-02-28T12:03:53Z</time>
      </trkpt>
      <trkpt lat="45.03316" lon="6.49296">
        <ele>2446.2</ele>
        <time>2021-02-28T12:03:54Z</time>
      </trkpt>
      <trkpt lat="45.03316" lon="6.49296">
        <ele>2446.2</ele>
        <time>2021-02-28T12:03:55Z</time>
      </trkpt>
      <trkpt lat="45.03314" lon="6.49298">
        <ele>2446.4</ele>
        <time>2021-02-28T12:03:56Z</time>
      </trkpt>
      <trkpt lat="45.03314" lon="6.49298">
        <ele>2446.8</ele>
        <time>2021-02-28T12:03:57Z</time>
      </trkpt>
      <trkpt lat="45.03313" lon="6.493">
        <ele>2446.8</ele>
        <time>2021-02-28T12:03:58Z</time>
      </trkpt>
      <trkpt lat="45.03313" lon="6.493">
        <ele>2447.2</ele>
        <time>2021-02-28T12:03:59Z</time>
      </trkpt>
      <trkpt lat="45.03313" lon="6.493">
        <ele>2447.2</ele>
        <time>2021-02-28T12:04:00Z</time>
      </trkpt>
      <trkpt lat="45.03313" lon="6.49303">
        <ele>2447.6</ele>
        <time>2021-02-28T12:04:01Z</time>
      </trkpt>
      <trkpt lat="45.03313" lon="6.49303">
        <ele>2447.8</ele>
        <time>2021-02-28T12:04:02Z</time>
      </trkpt>
      <trkpt lat="45.03313" lon="6.49303">
        <ele>2447.6</ele>
        <time>2021-02-28T12:04:03Z</time>
      </trkpt>
      <trkpt lat="45.03312" lon="6.49306">
        <ele>2448.2</ele>
        <time>2021-02-28T12:04:04Z</time>
      </trkpt>
      <trkpt lat="45.03312" lon="6.49306">
        <ele>2448.8</ele>
        <time>2021-02-28T12:04:05Z</time>
      </trkpt>
      <trkpt lat="45.03312" lon="6.49306">
        <ele>2448.6</ele>
        <time>2021-02-28T12:04:06Z</time>
      </trkpt>
      <trkpt lat="45.03311" lon="6.49308">
        <ele>2449.4</ele>
        <time>2021-02-28T12:04:07Z</time>
      </trkpt>
      <trkpt lat="45.03311" lon="6.49308">
        <ele>2449.4</ele>
        <time>2021-02-28T12:04:08Z</time>
      </trkpt>
      <trkpt lat="45.03311" lon="6.49308">
        <ele>2449.6</ele>
        <time>2021-02-28T12:04:09Z</time>
      </trkpt>
      <trkpt lat="45.0331" lon="6.4931">
        <ele>2449.6</ele>
        <time>2021-02-28T12:04:10Z</time>
      </trkpt>
      <trkpt lat="45.0331" lon="6.4931">
        <ele>2450</ele>
        <time>2021-02-28T12:04:11Z</time>
      </trkpt>
      <trkpt lat="45.0331" lon="6.4931">
        <ele>2450.2</ele>
        <time>2021-02-28T12:04:12Z</time>
      </trkpt>
      <trkpt lat="45.03308" lon="6.49312">
        <ele>2450.4</ele>
        <time>2021-02-28T12:04:13Z</time>
      </trkpt>
      <trkpt lat="45.03308" lon="6.49312">
        <ele>2450.6</ele>
        <time>2021-02-28T12:04:14Z</time>
      </trkpt>
      <trkpt lat="45.03307" lon="6.49316">
        <ele>2450.6</ele>
        <time>2021-02-28T12:04:15Z</time>
      </trkpt>
      <trkpt lat="45.03307" lon="6.49316">
        <ele>2451</ele>
        <time>2021-02-28T12:04:16Z</time>
      </trkpt>
      <trkpt lat="45.03306" lon="6.49318">
        <ele>2451.4</ele>
        <time>2021-02-28T12:04:17Z</time>
      </trkpt>
      <trkpt lat="45.03306" lon="6.49318">
        <ele>2451.4</ele>
        <time>2021-02-28T12:04:18Z</time>
      </trkpt>
      <trkpt lat="45.03306" lon="6.49318">
        <ele>2451.6</ele>
        <time>2021-02-28T12:04:19Z</time>
      </trkpt>
      <trkpt lat="45.03304" lon="6.4932">
        <ele>2451.6</ele>
        <time>2021-02-28T12:04:20Z</time>
      </trkpt>
      <trkpt lat="45.03304" lon="6.4932">
        <ele>2452</ele>
        <time>2021-02-28T12:04:21Z</time>
      </trkpt>
      <trkpt lat="45.03304" lon="6.4932">
        <ele>2452</ele>
        <time>2021-02-28T12:04:22Z</time>
      </trkpt>
      <trkpt lat="45.03303" lon="6.49322">
        <ele>2451.8</ele>
        <time>2021-02-28T12:04:23Z</time>
      </trkpt>
      <trkpt lat="45.03303" lon="6.49322">
        <ele>2452.2</ele>
        <time>2021-02-28T12:04:24Z</time>
      </trkpt>
      <trkpt lat="45.03303" lon="6.49322">
        <ele>2452.2</ele>
        <time>2021-02-28T12:04:25Z</time>
      </trkpt>
      <trkpt lat="45.03303" lon="6.49322">
        <ele>2452.2</ele>
        <time>2021-02-28T12:04:26Z</time>
      </trkpt>
      <trkpt lat="45.03303" lon="6.49322">
        <ele>2452.6</ele>
        <time>2021-02-28T12:04:27Z</time>
      </trkpt>
      <trkpt lat="45.03303" lon="6.49322">
        <ele>2452.8</ele>
        <time>2021-02-28T12:04:28Z</time>
      </trkpt>
      <trkpt lat="45.03303" lon="6.49322">
        <ele>2452.8</ele>
        <time>2021-02-28T12:04:29Z</time>
      </trkpt>
      <trkpt lat="45.03303" lon="6.49322">
        <ele>2453</ele>
        <time>2021-02-28T12:04:30Z</time>
      </trkpt>
      <trkpt lat="45.03303" lon="6.49322">
        <ele>2453</ele>
        <time>2021-02-28T12:04:31Z</time>
      </trkpt>
      <trkpt lat="45.03303" lon="6.49322">
        <ele>2452.8</ele>
        <time>2021-02-28T12:04:32Z</time>
      </trkpt>
      <trkpt lat="45.03303" lon="6.49322">
        <ele>2453</ele>
        <time>2021-02-28T12:04:33Z</time>
      </trkpt>
      <trkpt lat="45.03303" lon="6.49322">
        <ele>2453</ele>
        <time>2021-02-28T12:04:34Z</time>
      </trkpt>
      <trkpt lat="45.03303" lon="6.49322">
        <ele>2452.8</ele>
        <time>2021-02-28T12:04:35Z</time>
      </trkpt>
      <trkpt lat="45.03303" lon="6.49322">
        <ele>2452.8</ele>
        <time>2021-02-28T12:04:36Z</time>
      </trkpt>
      <trkpt lat="45.03303" lon="6.49322">
        <ele>2452.8</ele>
        <time>2021-02-28T12:04:37Z</time>
      </trkpt>
      <trkpt lat="45.03303" lon="6.49322">
        <ele>2453.2</ele>
        <time>2021-02-28T12:04:38Z</time>
      </trkpt>
      <trkpt lat="45.03303" lon="6.49322">
        <ele>2453.2</ele>
        <time>2021-02-28T12:04:39Z</time>
      </trkpt>
      <trkpt lat="45.03304" lon="6.49324">
        <ele>2453.2</ele>
        <time>2021-02-28T12:04:40Z</time>
      </trkpt>
      <trkpt lat="45.03304" lon="6.49324">
        <ele>2453.4</ele>
        <time>2021-02-28T12:04:41Z</time>
      </trkpt>
      <trkpt lat="45.03304" lon="6.49324">
        <ele>2453.4</ele>
        <time>2021-02-28T12:04:42Z</time>
      </trkpt>
      <trkpt lat="45.03307" lon="6.49324">
        <ele>2453.6</ele>
        <time>2021-02-28T12:04:43Z</time>
      </trkpt>
      <trkpt lat="45.03307" lon="6.49324">
        <ele>2453.8</ele>
        <time>2021-02-28T12:04:44Z</time>
      </trkpt>
      <trkpt lat="45.03307" lon="6.49324">
        <ele>2454</ele>
        <time>2021-02-28T12:04:45Z</time>
      </trkpt>
      <trkpt lat="45.03309" lon="6.49324">
        <ele>2454.4</ele>
        <time>2021-02-28T12:04:46Z</time>
      </trkpt>
      <trkpt lat="45.03309" lon="6.49324">
        <ele>2454.6</ele>
        <time>2021-02-28T12:04:47Z</time>
      </trkpt>
      <trkpt lat="45.03309" lon="6.49324">
        <ele>2455</ele>
        <time>2021-02-28T12:04:48Z</time>
      </trkpt>
      <trkpt lat="45.03309" lon="6.49325">
        <ele>2455.4</ele>
        <time>2021-02-28T12:04:49Z</time>
      </trkpt>
      <trkpt lat="45.03309" lon="6.49326">
        <ele>2455.4</ele>
        <time>2021-02-28T12:04:50Z</time>
      </trkpt>
      <trkpt lat="45.03309" lon="6.49327">
        <ele>2455.6</ele>
        <time>2021-02-28T12:04:51Z</time>
      </trkpt>
      <trkpt lat="45.0331" lon="6.49328">
        <ele>2455.8</ele>
        <time>2021-02-28T12:04:52Z</time>
      </trkpt>
      <trkpt lat="45.0331" lon="6.49329">
        <ele>2456.2</ele>
        <time>2021-02-28T12:04:53Z</time>
      </trkpt>
      <trkpt lat="45.0331" lon="6.4933">
        <ele>2456.8</ele>
        <time>2021-02-28T12:04:54Z</time>
      </trkpt>
      <trkpt lat="45.0331" lon="6.49331">
        <ele>2457.6</ele>
        <time>2021-02-28T12:04:55Z</time>
      </trkpt>
      <trkpt lat="45.0331" lon="6.49332">
        <ele>2457.8</ele>
        <time>2021-02-28T12:04:56Z</time>
      </trkpt>
      <trkpt lat="45.03311" lon="6.49333">
        <ele>2458</ele>
        <time>2021-02-28T12:04:57Z</time>
      </trkpt>
      <trkpt lat="45.03311" lon="6.49334">
        <ele>2458.4</ele>
        <time>2021-02-28T12:04:58Z</time>
      </trkpt>
      <trkpt lat="45.03311" lon="6.49334">
        <ele>2458.2</ele>
        <time>2021-02-28T12:04:59Z</time>
      </trkpt>
      <trkpt lat="45.03311" lon="6.49335">
        <ele>2458.8</ele>
        <time>2021-02-28T12:05:00Z</time>
      </trkpt>
      <trkpt lat="45.03311" lon="6.49335">
        <ele>2459.2</ele>
        <time>2021-02-28T12:05:01Z</time>
      </trkpt>
      <trkpt lat="45.03311" lon="6.49335">
        <ele>2459.6</ele>
        <time>2021-02-28T12:05:02Z</time>
      </trkpt>
      <trkpt lat="45.03311" lon="6.49339">
        <ele>2460.2</ele>
        <time>2021-02-28T12:05:03Z</time>
      </trkpt>
      <trkpt lat="45.03311" lon="6.49339">
        <ele>2460.4</ele>
        <time>2021-02-28T12:05:04Z</time>
      </trkpt>
      <trkpt lat="45.03311" lon="6.49339">
        <ele>2460.2</ele>
        <time>2021-02-28T12:05:05Z</time>
      </trkpt>
      <trkpt lat="45.0331" lon="6.4934">
        <ele>2461</ele>
        <time>2021-02-28T12:05:06Z</time>
      </trkpt>
      <trkpt lat="45.0331" lon="6.49342">
        <ele>2461</ele>
        <time>2021-02-28T12:05:07Z</time>
      </trkpt>
      <trkpt lat="45.03309" lon="6.49343">
        <ele>2461</ele>
        <time>2021-02-28T12:05:08Z</time>
      </trkpt>
      <trkpt lat="45.03308" lon="6.49344">
        <ele>2461.6</ele>
        <time>2021-02-28T12:05:09Z</time>
      </trkpt>
      <trkpt lat="45.03307" lon="6.49346">
        <ele>2461.8</ele>
        <time>2021-02-28T12:05:10Z</time>
      </trkpt>
      <trkpt lat="45.03306" lon="6.49347">
        <ele>2461.8</ele>
        <time>2021-02-28T12:05:11Z</time>
      </trkpt>
      <trkpt lat="45.03306" lon="6.49348">
        <ele>2462.4</ele>
        <time>2021-02-28T12:05:12Z</time>
      </trkpt>
      <trkpt lat="45.03305" lon="6.4935">
        <ele>2462.6</ele>
        <time>2021-02-28T12:05:13Z</time>
      </trkpt>
      <trkpt lat="45.03305" lon="6.4935">
        <ele>2462.8</ele>
        <time>2021-02-28T12:05:14Z</time>
      </trkpt>
      <trkpt lat="45.03305" lon="6.4935">
        <ele>2463.4</ele>
        <time>2021-02-28T12:05:15Z</time>
      </trkpt>
      <trkpt lat="45.03303" lon="6.49351">
        <ele>2463.6</ele>
        <time>2021-02-28T12:05:16Z</time>
      </trkpt>
      <trkpt lat="45.03303" lon="6.49351">
        <ele>2463.8</ele>
        <time>2021-02-28T12:05:17Z</time>
      </trkpt>
      <trkpt lat="45.03303" lon="6.49351">
        <ele>2463.8</ele>
        <time>2021-02-28T12:05:18Z</time>
      </trkpt>
      <trkpt lat="45.03301" lon="6.49352">
        <ele>2464.2</ele>
        <time>2021-02-28T12:05:19Z</time>
      </trkpt>
      <trkpt lat="45.03301" lon="6.49352">
        <ele>2464.4</ele>
        <time>2021-02-28T12:05:20Z</time>
      </trkpt>
      <trkpt lat="45.03301" lon="6.49352">
        <ele>2464.4</ele>
        <time>2021-02-28T12:05:21Z</time>
      </trkpt>
      <trkpt lat="45.03301" lon="6.49352">
        <ele>2465</ele>
        <time>2021-02-28T12:05:22Z</time>
      </trkpt>
      <trkpt lat="45.03301" lon="6.49352">
        <ele>2465</ele>
        <time>2021-02-28T12:05:23Z</time>
      </trkpt>
      <trkpt lat="45.03299" lon="6.49357">
        <ele>2465.8</ele>
        <time>2021-02-28T12:05:24Z</time>
      </trkpt>
      <trkpt lat="45.03299" lon="6.49357">
        <ele>2466.2</ele>
        <time>2021-02-28T12:05:25Z</time>
      </trkpt>
      <trkpt lat="45.03297" lon="6.49358">
        <ele>2466.4</ele>
        <time>2021-02-28T12:05:26Z</time>
      </trkpt>
      <trkpt lat="45.03297" lon="6.49358">
        <ele>2466.6</ele>
        <time>2021-02-28T12:05:27Z</time>
      </trkpt>
      <trkpt lat="45.03296" lon="6.4936">
        <ele>2467</ele>
        <time>2021-02-28T12:05:28Z</time>
      </trkpt>
      <trkpt lat="45.03296" lon="6.4936">
        <ele>2467.4</ele>
        <time>2021-02-28T12:05:29Z</time>
      </trkpt>
      <trkpt lat="45.03294" lon="6.49361">
        <ele>2467.2</ele>
        <time>2021-02-28T12:05:30Z</time>
      </trkpt>
      <trkpt lat="45.03294" lon="6.49361">
        <ele>2467.6</ele>
        <time>2021-02-28T12:05:31Z</time>
      </trkpt>
      <trkpt lat="45.03292" lon="6.49363">
        <ele>2467.4</ele>
        <time>2021-02-28T12:05:32Z</time>
      </trkpt>
      <trkpt lat="45.03292" lon="6.49363">
        <ele>2467.4</ele>
        <time>2021-02-28T12:05:33Z</time>
      </trkpt>
      <trkpt lat="45.0329" lon="6.49364">
        <ele>2467.8</ele>
        <time>2021-02-28T12:05:34Z</time>
      </trkpt>
      <trkpt lat="45.0329" lon="6.49364">
        <ele>2468.4</ele>
        <time>2021-02-28T12:05:35Z</time>
      </trkpt>
      <trkpt lat="45.0329" lon="6.49364">
        <ele>2468.4</ele>
        <time>2021-02-28T12:05:36Z</time>
      </trkpt>
      <trkpt lat="45.03288" lon="6.49365">
        <ele>2469</ele>
        <time>2021-02-28T12:05:37Z</time>
      </trkpt>
      <trkpt lat="45.03288" lon="6.49365">
        <ele>2469.4</ele>
        <time>2021-02-28T12:05:38Z</time>
      </trkpt>
      <trkpt lat="45.03286" lon="6.49367">
        <ele>2469.2</ele>
        <time>2021-02-28T12:05:39Z</time>
      </trkpt>
      <trkpt lat="45.03286" lon="6.49367">
        <ele>2470</ele>
        <time>2021-02-28T12:05:40Z</time>
      </trkpt>
      <trkpt lat="45.03283" lon="6.49368">
        <ele>2470</ele>
        <time>2021-02-28T12:05:41Z</time>
      </trkpt>
      <trkpt lat="45.03281" lon="6.49368">
        <ele>2469.8</ele>
        <time>2021-02-28T12:05:42Z</time>
      </trkpt>
      <trkpt lat="45.03281" lon="6.49368">
        <ele>2470.6</ele>
        <time>2021-02-28T12:05:43Z</time>
      </trkpt>
      <trkpt lat="45.03281" lon="6.49368">
        <ele>2470.2</ele>
        <time>2021-02-28T12:05:44Z</time>
      </trkpt>
      <trkpt lat="45.03281" lon="6.49368">
        <ele>2470</ele>
        <time>2021-02-28T12:05:45Z</time>
      </trkpt>
      <trkpt lat="45.03282" lon="6.49366">
        <ele>2470.4</ele>
        <time>2021-02-28T12:05:46Z</time>
      </trkpt>
      <trkpt lat="45.03282" lon="6.49366">
        <ele>2470.4</ele>
        <time>2021-02-28T12:05:47Z</time>
      </trkpt>
      <trkpt lat="45.03282" lon="6.49366">
        <ele>2470.6</ele>
        <time>2021-02-28T12:05:48Z</time>
      </trkpt>
      <trkpt lat="45.03282" lon="6.49366">
        <ele>2470.6</ele>
        <time>2021-02-28T12:05:49Z</time>
      </trkpt>
      <trkpt lat="45.03284" lon="6.49367">
        <ele>2470.8</ele>
        <time>2021-02-28T12:05:50Z</time>
      </trkpt>
      <trkpt lat="45.03284" lon="6.49367">
        <ele>2471.2</ele>
        <time>2021-02-28T12:05:51Z</time>
      </trkpt>
      <trkpt lat="45.03284" lon="6.49367">
        <ele>2471.6</ele>
        <time>2021-02-28T12:05:52Z</time>
      </trkpt>
      <trkpt lat="45.03284" lon="6.49367">
        <ele>2471.8</ele>
        <time>2021-02-28T12:05:53Z</time>
      </trkpt>
      <trkpt lat="45.03286" lon="6.49368">
        <ele>2471.8</ele>
        <time>2021-02-28T12:05:54Z</time>
      </trkpt>
      <trkpt lat="45.03286" lon="6.49368">
        <ele>2471.8</ele>
        <time>2021-02-28T12:05:55Z</time>
      </trkpt>
      <trkpt lat="45.03286" lon="6.49368">
        <ele>2471.8</ele>
        <time>2021-02-28T12:05:56Z</time>
      </trkpt>
      <trkpt lat="45.03286" lon="6.49368">
        <ele>2472.2</ele>
        <time>2021-02-28T12:05:57Z</time>
      </trkpt>
      <trkpt lat="45.03288" lon="6.49369">
        <ele>2472.4</ele>
        <time>2021-02-28T12:05:58Z</time>
      </trkpt>
      <trkpt lat="45.03288" lon="6.49369">
        <ele>2472.6</ele>
        <time>2021-02-28T12:05:59Z</time>
      </trkpt>
      <trkpt lat="45.03291" lon="6.49371">
        <ele>2472.6</ele>
        <time>2021-02-28T12:06:00Z</time>
      </trkpt>
      <trkpt lat="45.03291" lon="6.49371">
        <ele>2473.2</ele>
        <time>2021-02-28T12:06:01Z</time>
      </trkpt>
      <trkpt lat="45.03293" lon="6.49371">
        <ele>2473.2</ele>
        <time>2021-02-28T12:06:02Z</time>
      </trkpt>
      <trkpt lat="45.03293" lon="6.49371">
        <ele>2473.2</ele>
        <time>2021-02-28T12:06:03Z</time>
      </trkpt>
      <trkpt lat="45.03294" lon="6.49373">
        <ele>2473.8</ele>
        <time>2021-02-28T12:06:04Z</time>
      </trkpt>
      <trkpt lat="45.03294" lon="6.49373">
        <ele>2474</ele>
        <time>2021-02-28T12:06:05Z</time>
      </trkpt>
      <trkpt lat="45.03294" lon="6.49373">
        <ele>2474.4</ele>
        <time>2021-02-28T12:06:06Z</time>
      </trkpt>
      <trkpt lat="45.03295" lon="6.49374">
        <ele>2474.6</ele>
        <time>2021-02-28T12:06:07Z</time>
      </trkpt>
      <trkpt lat="45.03295" lon="6.49374">
        <ele>2474.8</ele>
        <time>2021-02-28T12:06:08Z</time>
      </trkpt>
      <trkpt lat="45.03296" lon="6.49375">
        <ele>2474.8</ele>
        <time>2021-02-28T12:06:09Z</time>
      </trkpt>
      <trkpt lat="45.03297" lon="6.49376">
        <ele>2474.8</ele>
        <time>2021-02-28T12:06:10Z</time>
      </trkpt>
      <trkpt lat="45.03298" lon="6.49376">
        <ele>2475</ele>
        <time>2021-02-28T12:06:11Z</time>
      </trkpt>
      <trkpt lat="45.03298" lon="6.49377">
        <ele>2475.4</ele>
        <time>2021-02-28T12:06:12Z</time>
      </trkpt>
      <trkpt lat="45.03299" lon="6.49377">
        <ele>2475.8</ele>
        <time>2021-02-28T12:06:13Z</time>
      </trkpt>
      <trkpt lat="45.033" lon="6.49378">
        <ele>2476</ele>
        <time>2021-02-28T12:06:14Z</time>
      </trkpt>
      <trkpt lat="45.03301" lon="6.49378">
        <ele>2476.2</ele>
        <time>2021-02-28T12:06:15Z</time>
      </trkpt>
      <trkpt lat="45.03301" lon="6.49379">
        <ele>2476.6</ele>
        <time>2021-02-28T12:06:16Z</time>
      </trkpt>
      <trkpt lat="45.03302" lon="6.4938">
        <ele>2477</ele>
        <time>2021-02-28T12:06:17Z</time>
      </trkpt>
      <trkpt lat="45.03304" lon="6.49381">
        <ele>2477</ele>
        <time>2021-02-28T12:06:18Z</time>
      </trkpt>
      <trkpt lat="45.03304" lon="6.49381">
        <ele>2477.2</ele>
        <time>2021-02-28T12:06:19Z</time>
      </trkpt>
      <trkpt lat="45.03304" lon="6.49381">
        <ele>2477.6</ele>
        <time>2021-02-28T12:06:20Z</time>
      </trkpt>
      <trkpt lat="45.03306" lon="6.49383">
        <ele>2477.8</ele>
        <time>2021-02-28T12:06:21Z</time>
      </trkpt>
      <trkpt lat="45.03306" lon="6.49383">
        <ele>2478</ele>
        <time>2021-02-28T12:06:22Z</time>
      </trkpt>
      <trkpt lat="45.03306" lon="6.49383">
        <ele>2478.2</ele>
        <time>2021-02-28T12:06:23Z</time>
      </trkpt>
      <trkpt lat="45.03306" lon="6.49383">
        <ele>2479</ele>
        <time>2021-02-28T12:06:24Z</time>
      </trkpt>
      <trkpt lat="45.03308" lon="6.49384">
        <ele>2479.6</ele>
        <time>2021-02-28T12:06:25Z</time>
      </trkpt>
      <trkpt lat="45.03308" lon="6.49384">
        <ele>2479.8</ele>
        <time>2021-02-28T12:06:26Z</time>
      </trkpt>
      <trkpt lat="45.03308" lon="6.49384">
        <ele>2480.2</ele>
        <time>2021-02-28T12:06:27Z</time>
      </trkpt>
      <trkpt lat="45.03308" lon="6.49385">
        <ele>2480.2</ele>
        <time>2021-02-28T12:06:28Z</time>
      </trkpt>
      <trkpt lat="45.03309" lon="6.49385">
        <ele>2480.6</ele>
        <time>2021-02-28T12:06:29Z</time>
      </trkpt>
      <trkpt lat="45.0331" lon="6.49386">
        <ele>2480.4</ele>
        <time>2021-02-28T12:06:30Z</time>
      </trkpt>
      <trkpt lat="45.0331" lon="6.49386">
        <ele>2480.6</ele>
        <time>2021-02-28T12:06:31Z</time>
      </trkpt>
      <trkpt lat="45.03311" lon="6.49387">
        <ele>2481.2</ele>
        <time>2021-02-28T12:06:32Z</time>
      </trkpt>
      <trkpt lat="45.03311" lon="6.49387">
        <ele>2481.4</ele>
        <time>2021-02-28T12:06:33Z</time>
      </trkpt>
      <trkpt lat="45.03312" lon="6.49388">
        <ele>2481.4</ele>
        <time>2021-02-28T12:06:34Z</time>
      </trkpt>
      <trkpt lat="45.03312" lon="6.49388">
        <ele>2482</ele>
        <time>2021-02-28T12:06:35Z</time>
      </trkpt>
      <trkpt lat="45.03313" lon="6.49389">
        <ele>2482.4</ele>
        <time>2021-02-28T12:06:36Z</time>
      </trkpt>
      <trkpt lat="45.03315" lon="6.49391">
        <ele>2482.8</ele>
        <time>2021-02-28T12:06:37Z</time>
      </trkpt>
      <trkpt lat="45.03315" lon="6.49391">
        <ele>2482.6</ele>
        <time>2021-02-28T12:06:38Z</time>
      </trkpt>
      <trkpt lat="45.03315" lon="6.49391">
        <ele>2482.8</ele>
        <time>2021-02-28T12:06:39Z</time>
      </trkpt>
      <trkpt lat="45.03317" lon="6.49392">
        <ele>2483</ele>
        <time>2021-02-28T12:06:40Z</time>
      </trkpt>
      <trkpt lat="45.03317" lon="6.49392">
        <ele>2483.2</ele>
        <time>2021-02-28T12:06:41Z</time>
      </trkpt>
      <trkpt lat="45.03317" lon="6.49392">
        <ele>2483.6</ele>
        <time>2021-02-28T12:06:42Z</time>
      </trkpt>
      <trkpt lat="45.03318" lon="6.49394">
        <ele>2483.8</ele>
        <time>2021-02-28T12:06:43Z</time>
      </trkpt>
      <trkpt lat="45.03318" lon="6.49394">
        <ele>2484</ele>
        <time>2021-02-28T12:06:44Z</time>
      </trkpt>
      <trkpt lat="45.03318" lon="6.49394">
        <ele>2484.2</ele>
        <time>2021-02-28T12:06:45Z</time>
      </trkpt>
      <trkpt lat="45.03318" lon="6.49394">
        <ele>2484.2</ele>
        <time>2021-02-28T12:06:46Z</time>
      </trkpt>
      <trkpt lat="45.0332" lon="6.49395">
        <ele>2484.4</ele>
        <time>2021-02-28T12:06:47Z</time>
      </trkpt>
      <trkpt lat="45.0332" lon="6.49395">
        <ele>2484.6</ele>
        <time>2021-02-28T12:06:48Z</time>
      </trkpt>
      <trkpt lat="45.0332" lon="6.49395">
        <ele>2485</ele>
        <time>2021-02-28T12:06:49Z</time>
      </trkpt>
      <trkpt lat="45.0332" lon="6.49395">
        <ele>2485.2</ele>
        <time>2021-02-28T12:06:50Z</time>
      </trkpt>
      <trkpt lat="45.0332" lon="6.49395">
        <ele>2485.4</ele>
        <time>2021-02-28T12:06:51Z</time>
      </trkpt>
      <trkpt lat="45.0332" lon="6.49395">
        <ele>2485.6</ele>
        <time>2021-02-28T12:06:52Z</time>
      </trkpt>
      <trkpt lat="45.0332" lon="6.49395">
        <ele>2485.8</ele>
        <time>2021-02-28T12:06:53Z</time>
      </trkpt>
      <trkpt lat="45.0332" lon="6.49395">
        <ele>2486.2</ele>
        <time>2021-02-28T12:06:54Z</time>
      </trkpt>
      <trkpt lat="45.0332" lon="6.49395">
        <ele>2486.6</ele>
        <time>2021-02-28T12:06:55Z</time>
      </trkpt>
      <trkpt lat="45.0332" lon="6.49395">
        <ele>2487</ele>
        <time>2021-02-28T12:06:56Z</time>
      </trkpt>
      <trkpt lat="45.0332" lon="6.49395">
        <ele>2487.2</ele>
        <time>2021-02-28T12:06:57Z</time>
      </trkpt>
      <trkpt lat="45.03323" lon="6.49398">
        <ele>2487.2</ele>
        <time>2021-02-28T12:06:58Z</time>
      </trkpt>
      <trkpt lat="45.03323" lon="6.49398">
        <ele>2487.2</ele>
        <time>2021-02-28T12:06:59Z</time>
      </trkpt>
      <trkpt lat="45.03323" lon="6.49398">
        <ele>2487.4</ele>
        <time>2021-02-28T12:07:00Z</time>
      </trkpt>
      <trkpt lat="45.03323" lon="6.49398">
        <ele>2487.6</ele>
        <time>2021-02-28T12:07:01Z</time>
      </trkpt>
      <trkpt lat="45.03323" lon="6.49398">
        <ele>2487.8</ele>
        <time>2021-02-28T12:07:02Z</time>
      </trkpt>
      <trkpt lat="45.03323" lon="6.49398">
        <ele>2487.8</ele>
        <time>2021-02-28T12:07:03Z</time>
      </trkpt>
      <trkpt lat="45.03323" lon="6.49398">
        <ele>2488.2</ele>
        <time>2021-02-28T12:07:04Z</time>
      </trkpt>
      <trkpt lat="45.03323" lon="6.49398">
        <ele>2488</ele>
        <time>2021-02-28T12:07:05Z</time>
      </trkpt>
      <trkpt lat="45.03323" lon="6.49398">
        <ele>2487.6</ele>
        <time>2021-02-28T12:07:06Z</time>
      </trkpt>
      <trkpt lat="45.03323" lon="6.49398">
        <ele>2487.4</ele>
        <time>2021-02-28T12:07:07Z</time>
      </trkpt>
      <trkpt lat="45.03323" lon="6.49398">
        <ele>2487.4</ele>
        <time>2021-02-28T12:07:08Z</time>
      </trkpt>
      <trkpt lat="45.03323" lon="6.49398">
        <ele>2487</ele>
        <time>2021-02-28T12:07:09Z</time>
      </trkpt>
      <trkpt lat="45.03323" lon="6.49398">
        <ele>2487</ele>
        <time>2021-02-28T12:07:10Z</time>
      </trkpt>
      <trkpt lat="45.03323" lon="6.49398">
        <ele>2487</ele>
        <time>2021-02-28T12:07:11Z</time>
      </trkpt>
      <trkpt lat="45.03323" lon="6.49398">
        <ele>2487.2</ele>
        <time>2021-02-28T12:07:12Z</time>
      </trkpt>
      <trkpt lat="45.03323" lon="6.49398">
        <ele>2487.2</ele>
        <time>2021-02-28T12:07:13Z</time>
      </trkpt>
      <trkpt lat="45.03323" lon="6.49398">
        <ele>2487.2</ele>
        <time>2021-02-28T12:07:14Z</time>
      </trkpt>
      <trkpt lat="45.03323" lon="6.49398">
        <ele>2487</ele>
        <time>2021-02-28T12:07:15Z</time>
      </trkpt>
      <trkpt lat="45.03323" lon="6.49398">
        <ele>2487</ele>
        <time>2021-02-28T12:07:16Z</time>
      </trkpt>
      <trkpt lat="45.03323" lon="6.49398">
        <ele>2487</ele>
        <time>2021-02-28T12:07:17Z</time>
      </trkpt>
      <trkpt lat="45.03323" lon="6.49398">
        <ele>2487</ele>
        <time>2021-02-28T12:07:18Z</time>
      </trkpt>
      <trkpt lat="45.03323" lon="6.49398">
        <ele>2487.2</ele>
        <time>2021-02-28T12:07:19Z</time>
      </trkpt>
      <trkpt lat="45.03323" lon="6.49398">
        <ele>2487.6</ele>
        <time>2021-02-28T12:07:20Z</time>
      </trkpt>
      <trkpt lat="45.03323" lon="6.49398">
        <ele>2488</ele>
        <time>2021-02-28T12:07:21Z</time>
      </trkpt>
      <trkpt lat="45.03323" lon="6.49398">
        <ele>2488.2</ele>
        <time>2021-02-28T12:07:22Z</time>
      </trkpt>
      <trkpt lat="45.03323" lon="6.49398">
        <ele>2488.2</ele>
        <time>2021-02-28T12:07:23Z</time>
      </trkpt>
      <trkpt lat="45.03323" lon="6.49398">
        <ele>2488.4</ele>
        <time>2021-02-28T12:07:24Z</time>
      </trkpt>
      <trkpt lat="45.03323" lon="6.49398">
        <ele>2488.4</ele>
        <time>2021-02-28T12:07:25Z</time>
      </trkpt>
      <trkpt lat="45.03323" lon="6.49398">
        <ele>2488.4</ele>
        <time>2021-02-28T12:07:26Z</time>
      </trkpt>
      <trkpt lat="45.03323" lon="6.49398">
        <ele>2488.8</ele>
        <time>2021-02-28T12:07:27Z</time>
      </trkpt>
      <trkpt lat="45.03323" lon="6.49398">
        <ele>2488.6</ele>
        <time>2021-02-28T12:07:28Z</time>
      </trkpt>
      <trkpt lat="45.03323" lon="6.49398">
        <ele>2488.6</ele>
        <time>2021-02-28T12:07:29Z</time>
      </trkpt>
      <trkpt lat="45.03323" lon="6.49398">
        <ele>2488.4</ele>
        <time>2021-02-28T12:07:30Z</time>
      </trkpt>
      <trkpt lat="45.03323" lon="6.49398">
        <ele>2488.4</ele>
        <time>2021-02-28T12:07:31Z</time>
      </trkpt>
      <trkpt lat="45.03323" lon="6.49398">
        <ele>2488.6</ele>
        <time>2021-02-28T12:07:32Z</time>
      </trkpt>
      <trkpt lat="45.03323" lon="6.49398">
        <ele>2488.6</ele>
        <time>2021-02-28T12:07:33Z</time>
      </trkpt>
      <trkpt lat="45.03323" lon="6.49398">
        <ele>2488.2</ele>
        <time>2021-02-28T12:07:34Z</time>
      </trkpt>
      <trkpt lat="45.03323" lon="6.49398">
        <ele>2488.6</ele>
        <time>2021-02-28T12:07:35Z</time>
      </trkpt>
      <trkpt lat="45.03323" lon="6.49398">
        <ele>2488.4</ele>
        <time>2021-02-28T12:07:36Z</time>
      </trkpt>
      <trkpt lat="45.03323" lon="6.49398">
        <ele>2488.4</ele>
        <time>2021-02-28T12:07:37Z</time>
      </trkpt>
      <trkpt lat="45.03323" lon="6.49398">
        <ele>2488.6</ele>
        <time>2021-02-28T12:07:38Z</time>
      </trkpt>
      <trkpt lat="45.03326" lon="6.49399">
        <ele>2488.4</ele>
        <time>2021-02-28T12:07:39Z</time>
      </trkpt>
      <trkpt lat="45.03326" lon="6.49399">
        <ele>2488.8</ele>
        <time>2021-02-28T12:07:40Z</time>
      </trkpt>
      <trkpt lat="45.03326" lon="6.49399">
        <ele>2488.8</ele>
        <time>2021-02-28T12:07:41Z</time>
      </trkpt>
      <trkpt lat="45.03326" lon="6.49399">
        <ele>2489</ele>
        <time>2021-02-28T12:07:42Z</time>
      </trkpt>
      <trkpt lat="45.03326" lon="6.49399">
        <ele>2489.2</ele>
        <time>2021-02-28T12:07:43Z</time>
      </trkpt>
      <trkpt lat="45.03326" lon="6.49399">
        <ele>2489.2</ele>
        <time>2021-02-28T12:07:44Z</time>
      </trkpt>
      <trkpt lat="45.03326" lon="6.49399">
        <ele>2489</ele>
        <time>2021-02-28T12:07:45Z</time>
      </trkpt>
      <trkpt lat="45.03326" lon="6.49399">
        <ele>2489</ele>
        <time>2021-02-28T12:07:46Z</time>
      </trkpt>
      <trkpt lat="45.03326" lon="6.49399">
        <ele>2488.8</ele>
        <time>2021-02-28T12:07:47Z</time>
      </trkpt>
      <trkpt lat="45.03326" lon="6.49399">
        <ele>2488.6</ele>
        <time>2021-02-28T12:07:48Z</time>
      </trkpt>
      <trkpt lat="45.03326" lon="6.49399">
        <ele>2488.6</ele>
        <time>2021-02-28T12:07:49Z</time>
      </trkpt>
      <trkpt lat="45.03326" lon="6.49396">
        <ele>2488.6</ele>
        <time>2021-02-28T12:07:50Z</time>
      </trkpt>
      <trkpt lat="45.03326" lon="6.49396">
        <ele>2488.2</ele>
        <time>2021-02-28T12:07:51Z</time>
      </trkpt>
      <trkpt lat="45.03326" lon="6.49396">
        <ele>2488.2</ele>
        <time>2021-02-28T12:07:52Z</time>
      </trkpt>
      <trkpt lat="45.03326" lon="6.49396">
        <ele>2488.4</ele>
        <time>2021-02-28T12:07:53Z</time>
      </trkpt>
      <trkpt lat="45.03326" lon="6.49396">
        <ele>2488.4</ele>
        <time>2021-02-28T12:07:54Z</time>
      </trkpt>
      <trkpt lat="45.03326" lon="6.49396">
        <ele>2488</ele>
        <time>2021-02-28T12:07:55Z</time>
      </trkpt>
      <trkpt lat="45.03326" lon="6.49396">
        <ele>2488</ele>
        <time>2021-02-28T12:07:56Z</time>
      </trkpt>
      <trkpt lat="45.03326" lon="6.49396">
        <ele>2488.2</ele>
        <time>2021-02-28T12:07:57Z</time>
      </trkpt>
      <trkpt lat="45.03326" lon="6.49396">
        <ele>2488</ele>
        <time>2021-02-28T12:07:58Z</time>
      </trkpt>
      <trkpt lat="45.03326" lon="6.49396">
        <ele>2488</ele>
        <time>2021-02-28T12:07:59Z</time>
      </trkpt>
      <trkpt lat="45.03326" lon="6.49396">
        <ele>2487.6</ele>
        <time>2021-02-28T12:08:00Z</time>
      </trkpt>
      <trkpt lat="45.03326" lon="6.49396">
        <ele>2487.4</ele>
        <time>2021-02-28T12:08:01Z</time>
      </trkpt>
      <trkpt lat="45.03326" lon="6.49396">
        <ele>2487.6</ele>
        <time>2021-02-28T12:08:02Z</time>
      </trkpt>
      <trkpt lat="45.03326" lon="6.49396">
        <ele>2487.6</ele>
        <time>2021-02-28T12:08:03Z</time>
      </trkpt>
      <trkpt lat="45.03326" lon="6.49396">
        <ele>2487.4</ele>
        <time>2021-02-28T12:08:04Z</time>
      </trkpt>
      <trkpt lat="45.03326" lon="6.49396">
        <ele>2487</ele>
        <time>2021-02-28T12:08:05Z</time>
      </trkpt>
      <trkpt lat="45.03326" lon="6.49396">
        <ele>2487</ele>
        <time>2021-02-28T12:08:06Z</time>
      </trkpt>
      <trkpt lat="45.03326" lon="6.49396">
        <ele>2486.8</ele>
        <time>2021-02-28T12:08:07Z</time>
      </trkpt>
      <trkpt lat="45.03326" lon="6.49396">
        <ele>2486.6</ele>
        <time>2021-02-28T12:08:08Z</time>
      </trkpt>
      <trkpt lat="45.03326" lon="6.49396">
        <ele>2486.4</ele>
        <time>2021-02-28T12:08:09Z</time>
      </trkpt>
      <trkpt lat="45.03326" lon="6.49396">
        <ele>2486.4</ele>
        <time>2021-02-28T12:08:10Z</time>
      </trkpt>
      <trkpt lat="45.03326" lon="6.49396">
        <ele>2486.6</ele>
        <time>2021-02-28T12:08:11Z</time>
      </trkpt>
      <trkpt lat="45.03326" lon="6.49396">
        <ele>2486.6</ele>
        <time>2021-02-28T12:08:12Z</time>
      </trkpt>
      <trkpt lat="45.03326" lon="6.49396">
        <ele>2486.6</ele>
        <time>2021-02-28T12:08:13Z</time>
      </trkpt>
      <trkpt lat="45.03326" lon="6.49396">
        <ele>2486.4</ele>
        <time>2021-02-28T12:08:14Z</time>
      </trkpt>
      <trkpt lat="45.03326" lon="6.49396">
        <ele>2486.4</ele>
        <time>2021-02-28T12:08:15Z</time>
      </trkpt>
      <trkpt lat="45.03324" lon="6.49394">
        <ele>2486.4</ele>
        <time>2021-02-28T12:08:16Z</time>
      </trkpt>
      <trkpt lat="45.03324" lon="6.49394">
        <ele>2486.4</ele>
        <time>2021-02-28T12:08:17Z</time>
      </trkpt>
      <trkpt lat="45.03324" lon="6.49394">
        <ele>2486.6</ele>
        <time>2021-02-28T12:08:18Z</time>
      </trkpt>
      <trkpt lat="45.03324" lon="6.49394">
        <ele>2486.2</ele>
        <time>2021-02-28T12:08:19Z</time>
      </trkpt>
      <trkpt lat="45.03324" lon="6.49394">
        <ele>2486</ele>
        <time>2021-02-28T12:08:20Z</time>
      </trkpt>
      <trkpt lat="45.03324" lon="6.49394">
        <ele>2485.8</ele>
        <time>2021-02-28T12:08:21Z</time>
      </trkpt>
      <trkpt lat="45.03324" lon="6.49394">
        <ele>2485.8</ele>
        <time>2021-02-28T12:08:22Z</time>
      </trkpt>
      <trkpt lat="45.03324" lon="6.49394">
        <ele>2486.2</ele>
        <time>2021-02-28T12:08:23Z</time>
      </trkpt>
      <trkpt lat="45.03324" lon="6.49394">
        <ele>2486.8</ele>
        <time>2021-02-28T12:08:24Z</time>
      </trkpt>
      <trkpt lat="45.03324" lon="6.49394">
        <ele>2486.8</ele>
        <time>2021-02-28T12:08:25Z</time>
      </trkpt>
      <trkpt lat="45.03324" lon="6.49394">
        <ele>2487</ele>
        <time>2021-02-28T12:08:26Z</time>
      </trkpt>
      <trkpt lat="45.03324" lon="6.49394">
        <ele>2487.4</ele>
        <time>2021-02-28T12:08:27Z</time>
      </trkpt>
      <trkpt lat="45.03324" lon="6.49394">
        <ele>2487.6</ele>
        <time>2021-02-28T12:08:28Z</time>
      </trkpt>
      <trkpt lat="45.03324" lon="6.49394">
        <ele>2487.6</ele>
        <time>2021-02-28T12:08:29Z</time>
      </trkpt>
      <trkpt lat="45.03324" lon="6.49394">
        <ele>2487.4</ele>
        <time>2021-02-28T12:08:30Z</time>
      </trkpt>
      <trkpt lat="45.03324" lon="6.49394">
        <ele>2487.6</ele>
        <time>2021-02-28T12:08:31Z</time>
      </trkpt>
      <trkpt lat="45.03324" lon="6.49394">
        <ele>2487.6</ele>
        <time>2021-02-28T12:08:32Z</time>
      </trkpt>
      <trkpt lat="45.03324" lon="6.49394">
        <ele>2487.4</ele>
        <time>2021-02-28T12:08:33Z</time>
      </trkpt>
      <trkpt lat="45.03324" lon="6.49394">
        <ele>2487.4</ele>
        <time>2021-02-28T12:08:34Z</time>
      </trkpt>
      <trkpt lat="45.03324" lon="6.49394">
        <ele>2487.4</ele>
        <time>2021-02-28T12:08:35Z</time>
      </trkpt>
      <trkpt lat="45.03324" lon="6.49394">
        <ele>2487.2</ele>
        <time>2021-02-28T12:08:36Z</time>
      </trkpt>
      <trkpt lat="45.03324" lon="6.49394">
        <ele>2487.4</ele>
        <time>2021-02-28T12:08:37Z</time>
      </trkpt>
      <trkpt lat="45.03325" lon="6.49392">
        <ele>2487.2</ele>
        <time>2021-02-28T12:08:38Z</time>
      </trkpt>
      <trkpt lat="45.03325" lon="6.49392">
        <ele>2487.2</ele>
        <time>2021-02-28T12:08:39Z</time>
      </trkpt>
      <trkpt lat="45.03325" lon="6.49392">
        <ele>2486.8</ele>
        <time>2021-02-28T12:08:40Z</time>
      </trkpt>
      <trkpt lat="45.03325" lon="6.49392">
        <ele>2486.6</ele>
        <time>2021-02-28T12:08:41Z</time>
      </trkpt>
      <trkpt lat="45.03325" lon="6.49392">
        <ele>2486.6</ele>
        <time>2021-02-28T12:08:42Z</time>
      </trkpt>
      <trkpt lat="45.03325" lon="6.49392">
        <ele>2486.4</ele>
        <time>2021-02-28T12:08:43Z</time>
      </trkpt>
      <trkpt lat="45.03325" lon="6.49392">
        <ele>2486.4</ele>
        <time>2021-02-28T12:08:44Z</time>
      </trkpt>
      <trkpt lat="45.03325" lon="6.49392">
        <ele>2486.4</ele>
        <time>2021-02-28T12:08:45Z</time>
      </trkpt>
      <trkpt lat="45.03325" lon="6.49392">
        <ele>2486.6</ele>
        <time>2021-02-28T12:08:46Z</time>
      </trkpt>
      <trkpt lat="45.03325" lon="6.49392">
        <ele>2486.6</ele>
        <time>2021-02-28T12:08:47Z</time>
      </trkpt>
      <trkpt lat="45.03325" lon="6.49392">
        <ele>2486.6</ele>
        <time>2021-02-28T12:08:48Z</time>
      </trkpt>
      <trkpt lat="45.03325" lon="6.49392">
        <ele>2486.6</ele>
        <time>2021-02-28T12:08:49Z</time>
      </trkpt>
      <trkpt lat="45.03325" lon="6.49392">
        <ele>2486.6</ele>
        <time>2021-02-28T12:08:50Z</time>
      </trkpt>
      <trkpt lat="45.03325" lon="6.49392">
        <ele>2486.4</ele>
        <time>2021-02-28T12:08:51Z</time>
      </trkpt>
      <trkpt lat="45.03325" lon="6.49392">
        <ele>2486.6</ele>
        <time>2021-02-28T12:08:52Z</time>
      </trkpt>
      <trkpt lat="45.03325" lon="6.49392">
        <ele>2486.8</ele>
        <time>2021-02-28T12:08:53Z</time>
      </trkpt>
      <trkpt lat="45.03325" lon="6.49392">
        <ele>2487</ele>
        <time>2021-02-28T12:08:54Z</time>
      </trkpt>
      <trkpt lat="45.03325" lon="6.49392">
        <ele>2487</ele>
        <time>2021-02-28T12:08:55Z</time>
      </trkpt>
      <trkpt lat="45.03325" lon="6.49392">
        <ele>2487</ele>
        <time>2021-02-28T12:08:56Z</time>
      </trkpt>
      <trkpt lat="45.03325" lon="6.49392">
        <ele>2486.8</ele>
        <time>2021-02-28T12:08:57Z</time>
      </trkpt>
      <trkpt lat="45.03325" lon="6.49392">
        <ele>2486.4</ele>
        <time>2021-02-28T12:08:58Z</time>
      </trkpt>
      <trkpt lat="45.03325" lon="6.49392">
        <ele>2486.4</ele>
        <time>2021-02-28T12:08:59Z</time>
      </trkpt>
      <trkpt lat="45.03325" lon="6.49392">
        <ele>2486.2</ele>
        <time>2021-02-28T12:09:00Z</time>
      </trkpt>
      <trkpt lat="45.03325" lon="6.49392">
        <ele>2486.4</ele>
        <time>2021-02-28T12:09:01Z</time>
      </trkpt>
      <trkpt lat="45.03325" lon="6.49392">
        <ele>2486.2</ele>
        <time>2021-02-28T12:09:02Z</time>
      </trkpt>
      <trkpt lat="45.03325" lon="6.49392">
        <ele>2486.2</ele>
        <time>2021-02-28T12:09:03Z</time>
      </trkpt>
      <trkpt lat="45.03325" lon="6.49392">
        <ele>2485.8</ele>
        <time>2021-02-28T12:09:04Z</time>
      </trkpt>
      <trkpt lat="45.03325" lon="6.49392">
        <ele>2485.8</ele>
        <time>2021-02-28T12:09:05Z</time>
      </trkpt>
      <trkpt lat="45.03325" lon="6.49392">
        <ele>2485.6</ele>
        <time>2021-02-28T12:09:06Z</time>
      </trkpt>
      <trkpt lat="45.03325" lon="6.49392">
        <ele>2485</ele>
        <time>2021-02-28T12:09:07Z</time>
      </trkpt>
      <trkpt lat="45.03325" lon="6.49392">
        <ele>2485</ele>
        <time>2021-02-28T12:09:08Z</time>
      </trkpt>
      <trkpt lat="45.03325" lon="6.49392">
        <ele>2484.6</ele>
        <time>2021-02-28T12:09:09Z</time>
      </trkpt>
      <trkpt lat="45.03325" lon="6.49392">
        <ele>2484.4</ele>
        <time>2021-02-28T12:09:10Z</time>
      </trkpt>
      <trkpt lat="45.03325" lon="6.49392">
        <ele>2484.2</ele>
        <time>2021-02-28T12:09:11Z</time>
      </trkpt>
      <trkpt lat="45.03325" lon="6.49392">
        <ele>2484.2</ele>
        <time>2021-02-28T12:09:12Z</time>
      </trkpt>
      <trkpt lat="45.03325" lon="6.49392">
        <ele>2484</ele>
        <time>2021-02-28T12:09:13Z</time>
      </trkpt>
      <trkpt lat="45.03325" lon="6.49392">
        <ele>2484.2</ele>
        <time>2021-02-28T12:09:14Z</time>
      </trkpt>
      <trkpt lat="45.03325" lon="6.49392">
        <ele>2484.2</ele>
        <time>2021-02-28T12:09:15Z</time>
      </trkpt>
      <trkpt lat="45.03325" lon="6.49392">
        <ele>2484.2</ele>
        <time>2021-02-28T12:09:16Z</time>
      </trkpt>
      <trkpt lat="45.03325" lon="6.49392">
        <ele>2483.6</ele>
        <time>2021-02-28T12:09:17Z</time>
      </trkpt>
      <trkpt lat="45.03325" lon="6.49392">
        <ele>2483.2</ele>
        <time>2021-02-28T12:09:18Z</time>
      </trkpt>
      <trkpt lat="45.03325" lon="6.49392">
        <ele>2483.2</ele>
        <time>2021-02-28T12:09:19Z</time>
      </trkpt>
      <trkpt lat="45.03325" lon="6.49392">
        <ele>2483</ele>
        <time>2021-02-28T12:09:20Z</time>
      </trkpt>
      <trkpt lat="45.03325" lon="6.49392">
        <ele>2483</ele>
        <time>2021-02-28T12:09:21Z</time>
      </trkpt>
      <trkpt lat="45.03325" lon="6.49392">
        <ele>2482.8</ele>
        <time>2021-02-28T12:09:22Z</time>
      </trkpt>
      <trkpt lat="45.03325" lon="6.49392">
        <ele>2482.8</ele>
        <time>2021-02-28T12:09:23Z</time>
      </trkpt>
      <trkpt lat="45.03325" lon="6.49392">
        <ele>2482.8</ele>
        <time>2021-02-28T12:09:24Z</time>
      </trkpt>
      <trkpt lat="45.03325" lon="6.49392">
        <ele>2482.6</ele>
        <time>2021-02-28T12:09:25Z</time>
      </trkpt>
      <trkpt lat="45.03325" lon="6.49392">
        <ele>2483</ele>
        <time>2021-02-28T12:09:26Z</time>
      </trkpt>
      <trkpt lat="45.03325" lon="6.49392">
        <ele>2483.2</ele>
        <time>2021-02-28T12:09:27Z</time>
      </trkpt>
      <trkpt lat="45.03325" lon="6.49392">
        <ele>2483</ele>
        <time>2021-02-28T12:09:28Z</time>
      </trkpt>
      <trkpt lat="45.03325" lon="6.49392">
        <ele>2483.4</ele>
        <time>2021-02-28T12:09:29Z</time>
      </trkpt>
      <trkpt lat="45.03325" lon="6.49392">
        <ele>2483.4</ele>
        <time>2021-02-28T12:09:30Z</time>
      </trkpt>
      <trkpt lat="45.03322" lon="6.49391">
        <ele>2483.6</ele>
        <time>2021-02-28T12:09:31Z</time>
      </trkpt>
      <trkpt lat="45.03322" lon="6.49391">
        <ele>2483.6</ele>
        <time>2021-02-28T12:09:32Z</time>
      </trkpt>
      <trkpt lat="45.03322" lon="6.49391">
        <ele>2483.8</ele>
        <time>2021-02-28T12:09:33Z</time>
      </trkpt>
      <trkpt lat="45.03322" lon="6.49391">
        <ele>2484</ele>
        <time>2021-02-28T12:09:34Z</time>
      </trkpt>
      <trkpt lat="45.03322" lon="6.49391">
        <ele>2484.2</ele>
        <time>2021-02-28T12:09:35Z</time>
      </trkpt>
      <trkpt lat="45.03322" lon="6.49391">
        <ele>2484.2</ele>
        <time>2021-02-28T12:09:36Z</time>
      </trkpt>
      <trkpt lat="45.0332" lon="6.49393">
        <ele>2484.4</ele>
        <time>2021-02-28T12:09:37Z</time>
      </trkpt>
      <trkpt lat="45.0332" lon="6.49393">
        <ele>2484.8</ele>
        <time>2021-02-28T12:09:38Z</time>
      </trkpt>
      <trkpt lat="45.0332" lon="6.49393">
        <ele>2484.6</ele>
        <time>2021-02-28T12:09:39Z</time>
      </trkpt>
      <trkpt lat="45.03319" lon="6.49396">
        <ele>2485</ele>
        <time>2021-02-28T12:09:40Z</time>
      </trkpt>
      <trkpt lat="45.03319" lon="6.49396">
        <ele>2485.2</ele>
        <time>2021-02-28T12:09:41Z</time>
      </trkpt>
      <trkpt lat="45.03319" lon="6.49396">
        <ele>2485.4</ele>
        <time>2021-02-28T12:09:42Z</time>
      </trkpt>
      <trkpt lat="45.03317" lon="6.49397">
        <ele>2485.4</ele>
        <time>2021-02-28T12:09:43Z</time>
      </trkpt>
      <trkpt lat="45.03317" lon="6.49397">
        <ele>2485.6</ele>
        <time>2021-02-28T12:09:44Z</time>
      </trkpt>
      <trkpt lat="45.03317" lon="6.49397">
        <ele>2486</ele>
        <time>2021-02-28T12:09:45Z</time>
      </trkpt>
      <trkpt lat="45.03314" lon="6.49399">
        <ele>2485.6</ele>
        <time>2021-02-28T12:09:46Z</time>
      </trkpt>
      <trkpt lat="45.03314" lon="6.49399">
        <ele>2486</ele>
        <time>2021-02-28T12:09:47Z</time>
      </trkpt>
      <trkpt lat="45.03314" lon="6.49399">
        <ele>2486.2</ele>
        <time>2021-02-28T12:09:48Z</time>
      </trkpt>
      <trkpt lat="45.03314" lon="6.49399">
        <ele>2486.6</ele>
        <time>2021-02-28T12:09:49Z</time>
      </trkpt>
      <trkpt lat="45.03312" lon="6.49402">
        <ele>2486.8</ele>
        <time>2021-02-28T12:09:50Z</time>
      </trkpt>
      <trkpt lat="45.03312" lon="6.49402">
        <ele>2486.8</ele>
        <time>2021-02-28T12:09:51Z</time>
      </trkpt>
      <trkpt lat="45.03312" lon="6.49402">
        <ele>2487</ele>
        <time>2021-02-28T12:09:52Z</time>
      </trkpt>
      <trkpt lat="45.0331" lon="6.49405">
        <ele>2487.2</ele>
        <time>2021-02-28T12:09:53Z</time>
      </trkpt>
      <trkpt lat="45.0331" lon="6.49405">
        <ele>2487.4</ele>
        <time>2021-02-28T12:09:54Z</time>
      </trkpt>
      <trkpt lat="45.0331" lon="6.49405">
        <ele>2487.4</ele>
        <time>2021-02-28T12:09:55Z</time>
      </trkpt>
      <trkpt lat="45.0331" lon="6.49406">
        <ele>2488</ele>
        <time>2021-02-28T12:09:56Z</time>
      </trkpt>
      <trkpt lat="45.03309" lon="6.49407">
        <ele>2487.8</ele>
        <time>2021-02-28T12:09:57Z</time>
      </trkpt>
      <trkpt lat="45.03309" lon="6.49408">
        <ele>2488.2</ele>
        <time>2021-02-28T12:09:58Z</time>
      </trkpt>
      <trkpt lat="45.03308" lon="6.49408">
        <ele>2488.6</ele>
        <time>2021-02-28T12:09:59Z</time>
      </trkpt>
      <trkpt lat="45.03308" lon="6.49409">
        <ele>2488.8</ele>
        <time>2021-02-28T12:10:00Z</time>
      </trkpt>
      <trkpt lat="45.03308" lon="6.4941">
        <ele>2489</ele>
        <time>2021-02-28T12:10:01Z</time>
      </trkpt>
      <trkpt lat="45.03307" lon="6.49411">
        <ele>2489.6</ele>
        <time>2021-02-28T12:10:02Z</time>
      </trkpt>
      <trkpt lat="45.03307" lon="6.49411">
        <ele>2489.8</ele>
        <time>2021-02-28T12:10:03Z</time>
      </trkpt>
      <trkpt lat="45.03306" lon="6.49412">
        <ele>2490</ele>
        <time>2021-02-28T12:10:04Z</time>
      </trkpt>
      <trkpt lat="45.03306" lon="6.49413">
        <ele>2490</ele>
        <time>2021-02-28T12:10:05Z</time>
      </trkpt>
      <trkpt lat="45.03305" lon="6.49414">
        <ele>2490</ele>
        <time>2021-02-28T12:10:06Z</time>
      </trkpt>
      <trkpt lat="45.03304" lon="6.49415">
        <ele>2490.2</ele>
        <time>2021-02-28T12:10:07Z</time>
      </trkpt>
      <trkpt lat="45.03304" lon="6.49416">
        <ele>2490.6</ele>
        <time>2021-02-28T12:10:08Z</time>
      </trkpt>
      <trkpt lat="45.03303" lon="6.49416">
        <ele>2491</ele>
        <time>2021-02-28T12:10:09Z</time>
      </trkpt>
      <trkpt lat="45.03302" lon="6.49417">
        <ele>2491.4</ele>
        <time>2021-02-28T12:10:10Z</time>
      </trkpt>
      <trkpt lat="45.03301" lon="6.49418">
        <ele>2491.4</ele>
        <time>2021-02-28T12:10:11Z</time>
      </trkpt>
      <trkpt lat="45.03301" lon="6.49419">
        <ele>2491.6</ele>
        <time>2021-02-28T12:10:12Z</time>
      </trkpt>
      <trkpt lat="45.033" lon="6.4942">
        <ele>2491.8</ele>
        <time>2021-02-28T12:10:13Z</time>
      </trkpt>
      <trkpt lat="45.03299" lon="6.49421">
        <ele>2492</ele>
        <time>2021-02-28T12:10:14Z</time>
      </trkpt>
      <trkpt lat="45.03298" lon="6.49422">
        <ele>2492.6</ele>
        <time>2021-02-28T12:10:15Z</time>
      </trkpt>
      <trkpt lat="45.03298" lon="6.49423">
        <ele>2492.8</ele>
        <time>2021-02-28T12:10:16Z</time>
      </trkpt>
      <trkpt lat="45.03297" lon="6.49423">
        <ele>2493</ele>
        <time>2021-02-28T12:10:17Z</time>
      </trkpt>
      <trkpt lat="45.03296" lon="6.49424">
        <ele>2493.2</ele>
        <time>2021-02-28T12:10:18Z</time>
      </trkpt>
      <trkpt lat="45.03296" lon="6.49425">
        <ele>2493.2</ele>
        <time>2021-02-28T12:10:19Z</time>
      </trkpt>
      <trkpt lat="45.03295" lon="6.49426">
        <ele>2493.6</ele>
        <time>2021-02-28T12:10:20Z</time>
      </trkpt>
      <trkpt lat="45.03295" lon="6.49426">
        <ele>2493.6</ele>
        <time>2021-02-28T12:10:21Z</time>
      </trkpt>
      <trkpt lat="45.03295" lon="6.49426">
        <ele>2494</ele>
        <time>2021-02-28T12:10:22Z</time>
      </trkpt>
      <trkpt lat="45.03292" lon="6.49428">
        <ele>2494.6</ele>
        <time>2021-02-28T12:10:23Z</time>
      </trkpt>
      <trkpt lat="45.03292" lon="6.49428">
        <ele>2494.6</ele>
        <time>2021-02-28T12:10:24Z</time>
      </trkpt>
      <trkpt lat="45.03292" lon="6.49428">
        <ele>2494.8</ele>
        <time>2021-02-28T12:10:25Z</time>
      </trkpt>
      <trkpt lat="45.03291" lon="6.49429">
        <ele>2495.2</ele>
        <time>2021-02-28T12:10:26Z</time>
      </trkpt>
      <trkpt lat="45.0329" lon="6.4943">
        <ele>2495</ele>
        <time>2021-02-28T12:10:27Z</time>
      </trkpt>
      <trkpt lat="45.0329" lon="6.49431">
        <ele>2495.6</ele>
        <time>2021-02-28T12:10:28Z</time>
      </trkpt>
      <trkpt lat="45.03289" lon="6.49432">
        <ele>2495.6</ele>
        <time>2021-02-28T12:10:29Z</time>
      </trkpt>
      <trkpt lat="45.03288" lon="6.49433">
        <ele>2495.6</ele>
        <time>2021-02-28T12:10:30Z</time>
      </trkpt>
      <trkpt lat="45.03288" lon="6.49434">
        <ele>2496.2</ele>
        <time>2021-02-28T12:10:31Z</time>
      </trkpt>
      <trkpt lat="45.03287" lon="6.49435">
        <ele>2496.2</ele>
        <time>2021-02-28T12:10:32Z</time>
      </trkpt>
      <trkpt lat="45.03287" lon="6.49435">
        <ele>2496.4</ele>
        <time>2021-02-28T12:10:33Z</time>
      </trkpt>
      <trkpt lat="45.03284" lon="6.49436">
        <ele>2496.8</ele>
        <time>2021-02-28T12:10:34Z</time>
      </trkpt>
      <trkpt lat="45.03284" lon="6.49436">
        <ele>2497.2</ele>
        <time>2021-02-28T12:10:35Z</time>
      </trkpt>
      <trkpt lat="45.03284" lon="6.49436">
        <ele>2497.2</ele>
        <time>2021-02-28T12:10:36Z</time>
      </trkpt>
      <trkpt lat="45.03285" lon="6.49436">
        <ele>2497.2</ele>
        <time>2021-02-28T12:10:37Z</time>
      </trkpt>
      <trkpt lat="45.03285" lon="6.49436">
        <ele>2497.6</ele>
        <time>2021-02-28T12:10:38Z</time>
      </trkpt>
      <trkpt lat="45.03286" lon="6.49437">
        <ele>2497.6</ele>
        <time>2021-02-28T12:10:39Z</time>
      </trkpt>
      <trkpt lat="45.03286" lon="6.49437">
        <ele>2497.6</ele>
        <time>2021-02-28T12:10:40Z</time>
      </trkpt>
      <trkpt lat="45.03287" lon="6.49437">
        <ele>2497.8</ele>
        <time>2021-02-28T12:10:41Z</time>
      </trkpt>
      <trkpt lat="45.03288" lon="6.49437">
        <ele>2498</ele>
        <time>2021-02-28T12:10:42Z</time>
      </trkpt>
      <trkpt lat="45.03288" lon="6.49437">
        <ele>2498.4</ele>
        <time>2021-02-28T12:10:43Z</time>
      </trkpt>
      <trkpt lat="45.03289" lon="6.49437">
        <ele>2498.8</ele>
        <time>2021-02-28T12:10:44Z</time>
      </trkpt>
      <trkpt lat="45.03289" lon="6.49437">
        <ele>2499</ele>
        <time>2021-02-28T12:10:45Z</time>
      </trkpt>
      <trkpt lat="45.0329" lon="6.49437">
        <ele>2499.2</ele>
        <time>2021-02-28T12:10:46Z</time>
      </trkpt>
      <trkpt lat="45.0329" lon="6.49437">
        <ele>2499.4</ele>
        <time>2021-02-28T12:10:47Z</time>
      </trkpt>
      <trkpt lat="45.03291" lon="6.49437">
        <ele>2499.6</ele>
        <time>2021-02-28T12:10:48Z</time>
      </trkpt>
      <trkpt lat="45.03291" lon="6.49437">
        <ele>2499.8</ele>
        <time>2021-02-28T12:10:49Z</time>
      </trkpt>
      <trkpt lat="45.03292" lon="6.49437">
        <ele>2499.8</ele>
        <time>2021-02-28T12:10:50Z</time>
      </trkpt>
      <trkpt lat="45.03292" lon="6.49438">
        <ele>2500.2</ele>
        <time>2021-02-28T12:10:51Z</time>
      </trkpt>
      <trkpt lat="45.03293" lon="6.49438">
        <ele>2500.6</ele>
        <time>2021-02-28T12:10:52Z</time>
      </trkpt>
      <trkpt lat="45.03294" lon="6.49438">
        <ele>2500.6</ele>
        <time>2021-02-28T12:10:53Z</time>
      </trkpt>
      <trkpt lat="45.03294" lon="6.49438">
        <ele>2500.4</ele>
        <time>2021-02-28T12:10:54Z</time>
      </trkpt>
      <trkpt lat="45.03294" lon="6.49438">
        <ele>2500.8</ele>
        <time>2021-02-28T12:10:55Z</time>
      </trkpt>
      <trkpt lat="45.03294" lon="6.49438">
        <ele>2501</ele>
        <time>2021-02-28T12:10:56Z</time>
      </trkpt>
      <trkpt lat="45.03298" lon="6.49439">
        <ele>2501.2</ele>
        <time>2021-02-28T12:10:57Z</time>
      </trkpt>
      <trkpt lat="45.03298" lon="6.49439">
        <ele>2501.4</ele>
        <time>2021-02-28T12:10:58Z</time>
      </trkpt>
      <trkpt lat="45.03298" lon="6.49439">
        <ele>2502</ele>
        <time>2021-02-28T12:10:59Z</time>
      </trkpt>
      <trkpt lat="45.03298" lon="6.4944">
        <ele>2501.8</ele>
        <time>2021-02-28T12:11:00Z</time>
      </trkpt>
      <trkpt lat="45.03298" lon="6.4944">
        <ele>2502.2</ele>
        <time>2021-02-28T12:11:01Z</time>
      </trkpt>
      <trkpt lat="45.03298" lon="6.49441">
        <ele>2502.4</ele>
        <time>2021-02-28T12:11:02Z</time>
      </trkpt>
      <trkpt lat="45.03298" lon="6.49441">
        <ele>2502.4</ele>
        <time>2021-02-28T12:11:03Z</time>
      </trkpt>
      <trkpt lat="45.03298" lon="6.49442">
        <ele>2502.6</ele>
        <time>2021-02-28T12:11:04Z</time>
      </trkpt>
      <trkpt lat="45.03298" lon="6.49443">
        <ele>2503</ele>
        <time>2021-02-28T12:11:05Z</time>
      </trkpt>
      <trkpt lat="45.03298" lon="6.49443">
        <ele>2503</ele>
        <time>2021-02-28T12:11:06Z</time>
      </trkpt>
      <trkpt lat="45.03299" lon="6.49444">
        <ele>2503.2</ele>
        <time>2021-02-28T12:11:07Z</time>
      </trkpt>
      <trkpt lat="45.03299" lon="6.49445">
        <ele>2503.6</ele>
        <time>2021-02-28T12:11:08Z</time>
      </trkpt>
      <trkpt lat="45.03299" lon="6.49445">
        <ele>2504.4</ele>
        <time>2021-02-28T12:11:09Z</time>
      </trkpt>
      <trkpt lat="45.03299" lon="6.49446">
        <ele>2504.6</ele>
        <time>2021-02-28T12:11:10Z</time>
      </trkpt>
      <trkpt lat="45.03299" lon="6.49446">
        <ele>2504.6</ele>
        <time>2021-02-28T12:11:11Z</time>
      </trkpt>
      <trkpt lat="45.03299" lon="6.49447">
        <ele>2505</ele>
        <time>2021-02-28T12:11:12Z</time>
      </trkpt>
      <trkpt lat="45.03299" lon="6.49448">
        <ele>2505.2</ele>
        <time>2021-02-28T12:11:13Z</time>
      </trkpt>
      <trkpt lat="45.03299" lon="6.49448">
        <ele>2505.2</ele>
        <time>2021-02-28T12:11:14Z</time>
      </trkpt>
      <trkpt lat="45.03299" lon="6.49449">
        <ele>2505.6</ele>
        <time>2021-02-28T12:11:15Z</time>
      </trkpt>
      <trkpt lat="45.03299" lon="6.49449">
        <ele>2505.8</ele>
        <time>2021-02-28T12:11:16Z</time>
      </trkpt>
      <trkpt lat="45.033" lon="6.4945">
        <ele>2505.8</ele>
        <time>2021-02-28T12:11:17Z</time>
      </trkpt>
      <trkpt lat="45.033" lon="6.49451">
        <ele>2506.2</ele>
        <time>2021-02-28T12:11:18Z</time>
      </trkpt>
      <trkpt lat="45.033" lon="6.49451">
        <ele>2506.2</ele>
        <time>2021-02-28T12:11:19Z</time>
      </trkpt>
      <trkpt lat="45.03299" lon="6.49452">
        <ele>2506.4</ele>
        <time>2021-02-28T12:11:20Z</time>
      </trkpt>
      <trkpt lat="45.03298" lon="6.49453">
        <ele>2507</ele>
        <time>2021-02-28T12:11:21Z</time>
      </trkpt>
      <trkpt lat="45.03298" lon="6.49453">
        <ele>2507</ele>
        <time>2021-02-28T12:11:22Z</time>
      </trkpt>
      <trkpt lat="45.03297" lon="6.49454">
        <ele>2507.2</ele>
        <time>2021-02-28T12:11:23Z</time>
      </trkpt>
      <trkpt lat="45.03297" lon="6.49455">
        <ele>2507.4</ele>
        <time>2021-02-28T12:11:24Z</time>
      </trkpt>
      <trkpt lat="45.03296" lon="6.49456">
        <ele>2507.4</ele>
        <time>2021-02-28T12:11:25Z</time>
      </trkpt>
      <trkpt lat="45.03295" lon="6.49456">
        <ele>2507.6</ele>
        <time>2021-02-28T12:11:26Z</time>
      </trkpt>
      <trkpt lat="45.03295" lon="6.49457">
        <ele>2508.2</ele>
        <time>2021-02-28T12:11:27Z</time>
      </trkpt>
      <trkpt lat="45.03294" lon="6.49458">
        <ele>2508.2</ele>
        <time>2021-02-28T12:11:28Z</time>
      </trkpt>
      <trkpt lat="45.03293" lon="6.49458">
        <ele>2508.8</ele>
        <time>2021-02-28T12:11:29Z</time>
      </trkpt>
      <trkpt lat="45.03293" lon="6.49459">
        <ele>2509.2</ele>
        <time>2021-02-28T12:11:30Z</time>
      </trkpt>
      <trkpt lat="45.03292" lon="6.4946">
        <ele>2509</ele>
        <time>2021-02-28T12:11:31Z</time>
      </trkpt>
      <trkpt lat="45.03292" lon="6.49461">
        <ele>2509.6</ele>
        <time>2021-02-28T12:11:32Z</time>
      </trkpt>
      <trkpt lat="45.03291" lon="6.49462">
        <ele>2510</ele>
        <time>2021-02-28T12:11:33Z</time>
      </trkpt>
      <trkpt lat="45.03291" lon="6.49463">
        <ele>2509.8</ele>
        <time>2021-02-28T12:11:34Z</time>
      </trkpt>
      <trkpt lat="45.0329" lon="6.49463">
        <ele>2510.4</ele>
        <time>2021-02-28T12:11:35Z</time>
      </trkpt>
      <trkpt lat="45.0329" lon="6.49464">
        <ele>2510.4</ele>
        <time>2021-02-28T12:11:36Z</time>
      </trkpt>
      <trkpt lat="45.03289" lon="6.49465">
        <ele>2510.4</ele>
        <time>2021-02-28T12:11:37Z</time>
      </trkpt>
      <trkpt lat="45.03288" lon="6.49466">
        <ele>2511</ele>
        <time>2021-02-28T12:11:38Z</time>
      </trkpt>
      <trkpt lat="45.03288" lon="6.49467">
        <ele>2511</ele>
        <time>2021-02-28T12:11:39Z</time>
      </trkpt>
      <trkpt lat="45.03287" lon="6.49468">
        <ele>2510.8</ele>
        <time>2021-02-28T12:11:40Z</time>
      </trkpt>
      <trkpt lat="45.03287" lon="6.49469">
        <ele>2511</ele>
        <time>2021-02-28T12:11:41Z</time>
      </trkpt>
      <trkpt lat="45.03286" lon="6.4947">
        <ele>2511</ele>
        <time>2021-02-28T12:11:42Z</time>
      </trkpt>
      <trkpt lat="45.03286" lon="6.49471">
        <ele>2511.8</ele>
        <time>2021-02-28T12:11:43Z</time>
      </trkpt>
      <trkpt lat="45.03285" lon="6.49471">
        <ele>2512</ele>
        <time>2021-02-28T12:11:44Z</time>
      </trkpt>
      <trkpt lat="45.03284" lon="6.49472">
        <ele>2512</ele>
        <time>2021-02-28T12:11:45Z</time>
      </trkpt>
      <trkpt lat="45.03283" lon="6.49472">
        <ele>2512.8</ele>
        <time>2021-02-28T12:11:46Z</time>
      </trkpt>
      <trkpt lat="45.03282" lon="6.49473">
        <ele>2513.2</ele>
        <time>2021-02-28T12:11:47Z</time>
      </trkpt>
      <trkpt lat="45.03282" lon="6.49474">
        <ele>2513.2</ele>
        <time>2021-02-28T12:11:48Z</time>
      </trkpt>
      <trkpt lat="45.03281" lon="6.49474">
        <ele>2514</ele>
        <time>2021-02-28T12:11:49Z</time>
      </trkpt>
      <trkpt lat="45.0328" lon="6.49475">
        <ele>2514.4</ele>
        <time>2021-02-28T12:11:50Z</time>
      </trkpt>
      <trkpt lat="45.03279" lon="6.49475">
        <ele>2514.4</ele>
        <time>2021-02-28T12:11:51Z</time>
      </trkpt>
      <trkpt lat="45.03278" lon="6.49476">
        <ele>2514.8</ele>
        <time>2021-02-28T12:11:52Z</time>
      </trkpt>
      <trkpt lat="45.03277" lon="6.49477">
        <ele>2515</ele>
        <time>2021-02-28T12:11:53Z</time>
      </trkpt>
      <trkpt lat="45.03277" lon="6.49477">
        <ele>2515</ele>
        <time>2021-02-28T12:11:54Z</time>
      </trkpt>
      <trkpt lat="45.03277" lon="6.49478">
        <ele>2515.6</ele>
        <time>2021-02-28T12:11:55Z</time>
      </trkpt>
      <trkpt lat="45.03277" lon="6.49478">
        <ele>2516</ele>
        <time>2021-02-28T12:11:56Z</time>
      </trkpt>
      <trkpt lat="45.03277" lon="6.49479">
        <ele>2515.8</ele>
        <time>2021-02-28T12:11:57Z</time>
      </trkpt>
      <trkpt lat="45.03278" lon="6.49479">
        <ele>2516.4</ele>
        <time>2021-02-28T12:11:58Z</time>
      </trkpt>
      <trkpt lat="45.03278" lon="6.4948">
        <ele>2516.6</ele>
        <time>2021-02-28T12:11:59Z</time>
      </trkpt>
      <trkpt lat="45.03278" lon="6.4948">
        <ele>2516.6</ele>
        <time>2021-02-28T12:12:00Z</time>
      </trkpt>
      <trkpt lat="45.03278" lon="6.49481">
        <ele>2516.8</ele>
        <time>2021-02-28T12:12:01Z</time>
      </trkpt>
      <trkpt lat="45.03278" lon="6.49481">
        <ele>2517</ele>
        <time>2021-02-28T12:12:02Z</time>
      </trkpt>
      <trkpt lat="45.03278" lon="6.49482">
        <ele>2517.4</ele>
        <time>2021-02-28T12:12:03Z</time>
      </trkpt>
      <trkpt lat="45.03278" lon="6.49482">
        <ele>2517.2</ele>
        <time>2021-02-28T12:12:04Z</time>
      </trkpt>
      <trkpt lat="45.03278" lon="6.49483">
        <ele>2517.4</ele>
        <time>2021-02-28T12:12:05Z</time>
      </trkpt>
      <trkpt lat="45.03278" lon="6.49483">
        <ele>2518</ele>
        <time>2021-02-28T12:12:06Z</time>
      </trkpt>
      <trkpt lat="45.03278" lon="6.49484">
        <ele>2518.4</ele>
        <time>2021-02-28T12:12:07Z</time>
      </trkpt>
      <trkpt lat="45.03278" lon="6.49484">
        <ele>2518.8</ele>
        <time>2021-02-28T12:12:08Z</time>
      </trkpt>
      <trkpt lat="45.03278" lon="6.49485">
        <ele>2519.2</ele>
        <time>2021-02-28T12:12:09Z</time>
      </trkpt>
      <trkpt lat="45.03278" lon="6.49485">
        <ele>2519.4</ele>
        <time>2021-02-28T12:12:10Z</time>
      </trkpt>
      <trkpt lat="45.0328" lon="6.49487">
        <ele>2519.4</ele>
        <time>2021-02-28T12:12:11Z</time>
      </trkpt>
      <trkpt lat="45.0328" lon="6.49487">
        <ele>2519.6</ele>
        <time>2021-02-28T12:12:12Z</time>
      </trkpt>
      <trkpt lat="45.0328" lon="6.49487">
        <ele>2519.8</ele>
        <time>2021-02-28T12:12:13Z</time>
      </trkpt>
      <trkpt lat="45.03282" lon="6.49487">
        <ele>2519.8</ele>
        <time>2021-02-28T12:12:14Z</time>
      </trkpt>
      <trkpt lat="45.03282" lon="6.49487">
        <ele>2520</ele>
        <time>2021-02-28T12:12:15Z</time>
      </trkpt>
      <trkpt lat="45.03282" lon="6.49487">
        <ele>2520.6</ele>
        <time>2021-02-28T12:12:16Z</time>
      </trkpt>
      <trkpt lat="45.03282" lon="6.49487">
        <ele>2520.4</ele>
        <time>2021-02-28T12:12:17Z</time>
      </trkpt>
      <trkpt lat="45.03282" lon="6.49487">
        <ele>2521</ele>
        <time>2021-02-28T12:12:18Z</time>
      </trkpt>
      <trkpt lat="45.03282" lon="6.49487">
        <ele>2521</ele>
        <time>2021-02-28T12:12:19Z</time>
      </trkpt>
      <trkpt lat="45.03286" lon="6.49488">
        <ele>2521</ele>
        <time>2021-02-28T12:12:20Z</time>
      </trkpt>
      <trkpt lat="45.03286" lon="6.49488">
        <ele>2521.4</ele>
        <time>2021-02-28T12:12:21Z</time>
      </trkpt>
      <trkpt lat="45.03288" lon="6.49489">
        <ele>2521.2</ele>
        <time>2021-02-28T12:12:22Z</time>
      </trkpt>
      <trkpt lat="45.03288" lon="6.49489">
        <ele>2521.6</ele>
        <time>2021-02-28T12:12:23Z</time>
      </trkpt>
      <trkpt lat="45.03288" lon="6.49489">
        <ele>2521.8</ele>
        <time>2021-02-28T12:12:24Z</time>
      </trkpt>
      <trkpt lat="45.03288" lon="6.49489">
        <ele>2521.8</ele>
        <time>2021-02-28T12:12:25Z</time>
      </trkpt>
      <trkpt lat="45.03289" lon="6.49489">
        <ele>2522.2</ele>
        <time>2021-02-28T12:12:26Z</time>
      </trkpt>
      <trkpt lat="45.0329" lon="6.49489">
        <ele>2522.6</ele>
        <time>2021-02-28T12:12:27Z</time>
      </trkpt>
      <trkpt lat="45.0329" lon="6.49489">
        <ele>2522.4</ele>
        <time>2021-02-28T12:12:28Z</time>
      </trkpt>
      <trkpt lat="45.03291" lon="6.49489">
        <ele>2522.8</ele>
        <time>2021-02-28T12:12:29Z</time>
      </trkpt>
      <trkpt lat="45.03291" lon="6.49489">
        <ele>2523.2</ele>
        <time>2021-02-28T12:12:30Z</time>
      </trkpt>
      <trkpt lat="45.03292" lon="6.49489">
        <ele>2523.2</ele>
        <time>2021-02-28T12:12:31Z</time>
      </trkpt>
      <trkpt lat="45.03293" lon="6.49488">
        <ele>2523.4</ele>
        <time>2021-02-28T12:12:32Z</time>
      </trkpt>
      <trkpt lat="45.03293" lon="6.49488">
        <ele>2524</ele>
        <time>2021-02-28T12:12:33Z</time>
      </trkpt>
      <trkpt lat="45.03294" lon="6.49488">
        <ele>2523.8</ele>
        <time>2021-02-28T12:12:34Z</time>
      </trkpt>
      <trkpt lat="45.03294" lon="6.49488">
        <ele>2524</ele>
        <time>2021-02-28T12:12:35Z</time>
      </trkpt>
      <trkpt lat="45.03295" lon="6.49488">
        <ele>2524.4</ele>
        <time>2021-02-28T12:12:36Z</time>
      </trkpt>
      <trkpt lat="45.03296" lon="6.49488">
        <ele>2524.4</ele>
        <time>2021-02-28T12:12:37Z</time>
      </trkpt>
      <trkpt lat="45.03296" lon="6.49488">
        <ele>2524.6</ele>
        <time>2021-02-28T12:12:38Z</time>
      </trkpt>
      <trkpt lat="45.03297" lon="6.49488">
        <ele>2524.6</ele>
        <time>2021-02-28T12:12:39Z</time>
      </trkpt>
      <trkpt lat="45.03297" lon="6.49489">
        <ele>2524.8</ele>
        <time>2021-02-28T12:12:40Z</time>
      </trkpt>
      <trkpt lat="45.03298" lon="6.4949">
        <ele>2525</ele>
        <time>2021-02-28T12:12:41Z</time>
      </trkpt>
      <trkpt lat="45.03299" lon="6.4949">
        <ele>2525.2</ele>
        <time>2021-02-28T12:12:42Z</time>
      </trkpt>
      <trkpt lat="45.03299" lon="6.49491">
        <ele>2525.4</ele>
        <time>2021-02-28T12:12:43Z</time>
      </trkpt>
      <trkpt lat="45.033" lon="6.49491">
        <ele>2525.8</ele>
        <time>2021-02-28T12:12:44Z</time>
      </trkpt>
      <trkpt lat="45.03301" lon="6.49492">
        <ele>2526.2</ele>
        <time>2021-02-28T12:12:45Z</time>
      </trkpt>
      <trkpt lat="45.03301" lon="6.49493">
        <ele>2526.6</ele>
        <time>2021-02-28T12:12:46Z</time>
      </trkpt>
      <trkpt lat="45.03302" lon="6.49493">
        <ele>2526.6</ele>
        <time>2021-02-28T12:12:47Z</time>
      </trkpt>
      <trkpt lat="45.03302" lon="6.49494">
        <ele>2527</ele>
        <time>2021-02-28T12:12:48Z</time>
      </trkpt>
      <trkpt lat="45.03303" lon="6.49495">
        <ele>2527.2</ele>
        <time>2021-02-28T12:12:49Z</time>
      </trkpt>
      <trkpt lat="45.03304" lon="6.49495">
        <ele>2527.4</ele>
        <time>2021-02-28T12:12:50Z</time>
      </trkpt>
      <trkpt lat="45.03304" lon="6.49496">
        <ele>2527.8</ele>
        <time>2021-02-28T12:12:51Z</time>
      </trkpt>
      <trkpt lat="45.03305" lon="6.49496">
        <ele>2528</ele>
        <time>2021-02-28T12:12:52Z</time>
      </trkpt>
      <trkpt lat="45.03305" lon="6.49496">
        <ele>2528.2</ele>
        <time>2021-02-28T12:12:53Z</time>
      </trkpt>
      <trkpt lat="45.03306" lon="6.49497">
        <ele>2528.2</ele>
        <time>2021-02-28T12:12:54Z</time>
      </trkpt>
      <trkpt lat="45.03306" lon="6.49497">
        <ele>2528.4</ele>
        <time>2021-02-28T12:12:55Z</time>
      </trkpt>
      <trkpt lat="45.03307" lon="6.49497">
        <ele>2529</ele>
        <time>2021-02-28T12:12:56Z</time>
      </trkpt>
      <trkpt lat="45.03308" lon="6.49497">
        <ele>2529.2</ele>
        <time>2021-02-28T12:12:57Z</time>
      </trkpt>
      <trkpt lat="45.03308" lon="6.49498">
        <ele>2529.2</ele>
        <time>2021-02-28T12:12:58Z</time>
      </trkpt>
      <trkpt lat="45.03309" lon="6.49498">
        <ele>2529.4</ele>
        <time>2021-02-28T12:12:59Z</time>
      </trkpt>
      <trkpt lat="45.03309" lon="6.49498">
        <ele>2529.6</ele>
        <time>2021-02-28T12:13:00Z</time>
      </trkpt>
      <trkpt lat="45.0331" lon="6.49498">
        <ele>2529.8</ele>
        <time>2021-02-28T12:13:01Z</time>
      </trkpt>
      <trkpt lat="45.03311" lon="6.49499">
        <ele>2530.6</ele>
        <time>2021-02-28T12:13:02Z</time>
      </trkpt>
      <trkpt lat="45.03311" lon="6.49499">
        <ele>2531.2</ele>
        <time>2021-02-28T12:13:03Z</time>
      </trkpt>
      <trkpt lat="45.03312" lon="6.49499">
        <ele>2531.2</ele>
        <time>2021-02-28T12:13:04Z</time>
      </trkpt>
      <trkpt lat="45.03312" lon="6.49499">
        <ele>2531.6</ele>
        <time>2021-02-28T12:13:05Z</time>
      </trkpt>
      <trkpt lat="45.03312" lon="6.49499">
        <ele>2531.8</ele>
        <time>2021-02-28T12:13:06Z</time>
      </trkpt>
      <trkpt lat="45.03312" lon="6.49502">
        <ele>2532</ele>
        <time>2021-02-28T12:13:07Z</time>
      </trkpt>
      <trkpt lat="45.03312" lon="6.49502">
        <ele>2532</ele>
        <time>2021-02-28T12:13:08Z</time>
      </trkpt>
      <trkpt lat="45.03312" lon="6.49502">
        <ele>2532.2</ele>
        <time>2021-02-28T12:13:09Z</time>
      </trkpt>
      <trkpt lat="45.03311" lon="6.49503">
        <ele>2532.6</ele>
        <time>2021-02-28T12:13:10Z</time>
      </trkpt>
      <trkpt lat="45.03311" lon="6.49504">
        <ele>2532.6</ele>
        <time>2021-02-28T12:13:11Z</time>
      </trkpt>
      <trkpt lat="45.0331" lon="6.49505">
        <ele>2532.6</ele>
        <time>2021-02-28T12:13:12Z</time>
      </trkpt>
      <trkpt lat="45.03309" lon="6.49506">
        <ele>2533.2</ele>
        <time>2021-02-28T12:13:13Z</time>
      </trkpt>
      <trkpt lat="45.03309" lon="6.49507">
        <ele>2533.2</ele>
        <time>2021-02-28T12:13:14Z</time>
      </trkpt>
      <trkpt lat="45.03308" lon="6.49508">
        <ele>2533.2</ele>
        <time>2021-02-28T12:13:15Z</time>
      </trkpt>
      <trkpt lat="45.03307" lon="6.49509">
        <ele>2533.8</ele>
        <time>2021-02-28T12:13:16Z</time>
      </trkpt>
      <trkpt lat="45.03307" lon="6.4951">
        <ele>2534</ele>
        <time>2021-02-28T12:13:17Z</time>
      </trkpt>
      <trkpt lat="45.03306" lon="6.49511">
        <ele>2534</ele>
        <time>2021-02-28T12:13:18Z</time>
      </trkpt>
      <trkpt lat="45.03305" lon="6.49512">
        <ele>2534.6</ele>
        <time>2021-02-28T12:13:19Z</time>
      </trkpt>
      <trkpt lat="45.03305" lon="6.49512">
        <ele>2534.6</ele>
        <time>2021-02-28T12:13:20Z</time>
      </trkpt>
      <trkpt lat="45.03304" lon="6.49513">
        <ele>2534.8</ele>
        <time>2021-02-28T12:13:21Z</time>
      </trkpt>
      <trkpt lat="45.03304" lon="6.49514">
        <ele>2535.4</ele>
        <time>2021-02-28T12:13:22Z</time>
      </trkpt>
      <trkpt lat="45.03303" lon="6.49514">
        <ele>2535.4</ele>
        <time>2021-02-28T12:13:23Z</time>
      </trkpt>
      <trkpt lat="45.03303" lon="6.49515">
        <ele>2535</ele>
        <time>2021-02-28T12:13:24Z</time>
      </trkpt>
      <trkpt lat="45.03302" lon="6.49516">
        <ele>2535.4</ele>
        <time>2021-02-28T12:13:25Z</time>
      </trkpt>
      <trkpt lat="45.03301" lon="6.49516">
        <ele>2536</ele>
        <time>2021-02-28T12:13:26Z</time>
      </trkpt>
      <trkpt lat="45.03301" lon="6.49517">
        <ele>2536.2</ele>
        <time>2021-02-28T12:13:27Z</time>
      </trkpt>
      <trkpt lat="45.033" lon="6.49518">
        <ele>2536.6</ele>
        <time>2021-02-28T12:13:28Z</time>
      </trkpt>
      <trkpt lat="45.033" lon="6.49518">
        <ele>2536.2</ele>
        <time>2021-02-28T12:13:29Z</time>
      </trkpt>
      <trkpt lat="45.03299" lon="6.49519">
        <ele>2536.6</ele>
        <time>2021-02-28T12:13:30Z</time>
      </trkpt>
      <trkpt lat="45.03299" lon="6.4952">
        <ele>2537</ele>
        <time>2021-02-28T12:13:31Z</time>
      </trkpt>
      <trkpt lat="45.03298" lon="6.4952">
        <ele>2536.8</ele>
        <time>2021-02-28T12:13:32Z</time>
      </trkpt>
      <trkpt lat="45.03298" lon="6.49521">
        <ele>2537.2</ele>
        <time>2021-02-28T12:13:33Z</time>
      </trkpt>
      <trkpt lat="45.03297" lon="6.49522">
        <ele>2537.6</ele>
        <time>2021-02-28T12:13:34Z</time>
      </trkpt>
      <trkpt lat="45.03297" lon="6.49523">
        <ele>2537.4</ele>
        <time>2021-02-28T12:13:35Z</time>
      </trkpt>
      <trkpt lat="45.03296" lon="6.49524">
        <ele>2538</ele>
        <time>2021-02-28T12:13:36Z</time>
      </trkpt>
      <trkpt lat="45.03295" lon="6.49525">
        <ele>2538</ele>
        <time>2021-02-28T12:13:37Z</time>
      </trkpt>
      <trkpt lat="45.03295" lon="6.49526">
        <ele>2538</ele>
        <time>2021-02-28T12:13:38Z</time>
      </trkpt>
      <trkpt lat="45.03294" lon="6.49527">
        <ele>2538.8</ele>
        <time>2021-02-28T12:13:39Z</time>
      </trkpt>
      <trkpt lat="45.03293" lon="6.49528">
        <ele>2538.8</ele>
        <time>2021-02-28T12:13:40Z</time>
      </trkpt>
      <trkpt lat="45.03293" lon="6.49529">
        <ele>2538.8</ele>
        <time>2021-02-28T12:13:41Z</time>
      </trkpt>
      <trkpt lat="45.03292" lon="6.4953">
        <ele>2538.8</ele>
        <time>2021-02-28T12:13:42Z</time>
      </trkpt>
      <trkpt lat="45.03292" lon="6.49531">
        <ele>2539.2</ele>
        <time>2021-02-28T12:13:43Z</time>
      </trkpt>
      <trkpt lat="45.03291" lon="6.49532">
        <ele>2539.6</ele>
        <time>2021-02-28T12:13:44Z</time>
      </trkpt>
      <trkpt lat="45.0329" lon="6.49533">
        <ele>2539.6</ele>
        <time>2021-02-28T12:13:45Z</time>
      </trkpt>
      <trkpt lat="45.0329" lon="6.49534">
        <ele>2540</ele>
        <time>2021-02-28T12:13:46Z</time>
      </trkpt>
      <trkpt lat="45.03289" lon="6.49535">
        <ele>2540.4</ele>
        <time>2021-02-28T12:13:47Z</time>
      </trkpt>
      <trkpt lat="45.03289" lon="6.49536">
        <ele>2540.4</ele>
        <time>2021-02-28T12:13:48Z</time>
      </trkpt>
      <trkpt lat="45.03289" lon="6.49536">
        <ele>2541</ele>
        <time>2021-02-28T12:13:49Z</time>
      </trkpt>
      <trkpt lat="45.03288" lon="6.49537">
        <ele>2541.2</ele>
        <time>2021-02-28T12:13:50Z</time>
      </trkpt>
      <trkpt lat="45.03288" lon="6.49538">
        <ele>2541.2</ele>
        <time>2021-02-28T12:13:51Z</time>
      </trkpt>
      <trkpt lat="45.03287" lon="6.49539">
        <ele>2541.6</ele>
        <time>2021-02-28T12:13:52Z</time>
      </trkpt>
      <trkpt lat="45.03287" lon="6.4954">
        <ele>2541.6</ele>
        <time>2021-02-28T12:13:53Z</time>
      </trkpt>
      <trkpt lat="45.03286" lon="6.49541">
        <ele>2541.8</ele>
        <time>2021-02-28T12:13:54Z</time>
      </trkpt>
      <trkpt lat="45.03286" lon="6.49542">
        <ele>2542.4</ele>
        <time>2021-02-28T12:13:55Z</time>
      </trkpt>
      <trkpt lat="45.03285" lon="6.49542">
        <ele>2542.4</ele>
        <time>2021-02-28T12:13:56Z</time>
      </trkpt>
      <trkpt lat="45.03285" lon="6.49543">
        <ele>2542.2</ele>
        <time>2021-02-28T12:13:57Z</time>
      </trkpt>
      <trkpt lat="45.03284" lon="6.49544">
        <ele>2542.6</ele>
        <time>2021-02-28T12:13:58Z</time>
      </trkpt>
      <trkpt lat="45.03283" lon="6.49544">
        <ele>2542.2</ele>
        <time>2021-02-28T12:13:59Z</time>
      </trkpt>
      <trkpt lat="45.03282" lon="6.49545">
        <ele>2542.6</ele>
        <time>2021-02-28T12:14:00Z</time>
      </trkpt>
      <trkpt lat="45.03282" lon="6.49546">
        <ele>2543.2</ele>
        <time>2021-02-28T12:14:01Z</time>
      </trkpt>
      <trkpt lat="45.03281" lon="6.49546">
        <ele>2543.2</ele>
        <time>2021-02-28T12:14:02Z</time>
      </trkpt>
      <trkpt lat="45.0328" lon="6.49547">
        <ele>2543.8</ele>
        <time>2021-02-28T12:14:03Z</time>
      </trkpt>
      <trkpt lat="45.03279" lon="6.49547">
        <ele>2544</ele>
        <time>2021-02-28T12:14:04Z</time>
      </trkpt>
      <trkpt lat="45.03279" lon="6.49548">
        <ele>2543.8</ele>
        <time>2021-02-28T12:14:05Z</time>
      </trkpt>
      <trkpt lat="45.03278" lon="6.49549">
        <ele>2544.2</ele>
        <time>2021-02-28T12:14:06Z</time>
      </trkpt>
      <trkpt lat="45.03277" lon="6.49549">
        <ele>2544.6</ele>
        <time>2021-02-28T12:14:07Z</time>
      </trkpt>
      <trkpt lat="45.03276" lon="6.4955">
        <ele>2544.6</ele>
        <time>2021-02-28T12:14:08Z</time>
      </trkpt>
      <trkpt lat="45.03275" lon="6.4955">
        <ele>2545.2</ele>
        <time>2021-02-28T12:14:09Z</time>
      </trkpt>
      <trkpt lat="45.03274" lon="6.4955">
        <ele>2545.6</ele>
        <time>2021-02-28T12:14:10Z</time>
      </trkpt>
      <trkpt lat="45.03273" lon="6.4955">
        <ele>2545.4</ele>
        <time>2021-02-28T12:14:11Z</time>
      </trkpt>
      <trkpt lat="45.03272" lon="6.4955">
        <ele>2546</ele>
        <time>2021-02-28T12:14:12Z</time>
      </trkpt>
      <trkpt lat="45.03271" lon="6.4955">
        <ele>2546</ele>
        <time>2021-02-28T12:14:13Z</time>
      </trkpt>
      <trkpt lat="45.0327" lon="6.4955">
        <ele>2546.2</ele>
        <time>2021-02-28T12:14:14Z</time>
      </trkpt>
      <trkpt lat="45.03269" lon="6.4955">
        <ele>2547</ele>
        <time>2021-02-28T12:14:15Z</time>
      </trkpt>
      <trkpt lat="45.03268" lon="6.4955">
        <ele>2547.2</ele>
        <time>2021-02-28T12:14:16Z</time>
      </trkpt>
      <trkpt lat="45.03267" lon="6.4955">
        <ele>2547</ele>
        <time>2021-02-28T12:14:17Z</time>
      </trkpt>
      <trkpt lat="45.03266" lon="6.4955">
        <ele>2547.4</ele>
        <time>2021-02-28T12:14:18Z</time>
      </trkpt>
      <trkpt lat="45.03267" lon="6.4955">
        <ele>2547.8</ele>
        <time>2021-02-28T12:14:19Z</time>
      </trkpt>
      <trkpt lat="45.03267" lon="6.49551">
        <ele>2548</ele>
        <time>2021-02-28T12:14:20Z</time>
      </trkpt>
      <trkpt lat="45.03267" lon="6.49551">
        <ele>2548</ele>
        <time>2021-02-28T12:14:21Z</time>
      </trkpt>
      <trkpt lat="45.03268" lon="6.49552">
        <ele>2548</ele>
        <time>2021-02-28T12:14:22Z</time>
      </trkpt>
      <trkpt lat="45.03268" lon="6.49552">
        <ele>2548.2</ele>
        <time>2021-02-28T12:14:23Z</time>
      </trkpt>
      <trkpt lat="45.03268" lon="6.49552">
        <ele>2548</ele>
        <time>2021-02-28T12:14:24Z</time>
      </trkpt>
      <trkpt lat="45.03268" lon="6.49553">
        <ele>2548.2</ele>
        <time>2021-02-28T12:14:25Z</time>
      </trkpt>
      <trkpt lat="45.03269" lon="6.49553">
        <ele>2548.4</ele>
        <time>2021-02-28T12:14:26Z</time>
      </trkpt>
      <trkpt lat="45.03269" lon="6.49554">
        <ele>2548.6</ele>
        <time>2021-02-28T12:14:27Z</time>
      </trkpt>
      <trkpt lat="45.03269" lon="6.49554">
        <ele>2548.6</ele>
        <time>2021-02-28T12:14:28Z</time>
      </trkpt>
      <trkpt lat="45.0327" lon="6.49555">
        <ele>2549</ele>
        <time>2021-02-28T12:14:29Z</time>
      </trkpt>
      <trkpt lat="45.0327" lon="6.49555">
        <ele>2549.2</ele>
        <time>2021-02-28T12:14:30Z</time>
      </trkpt>
      <trkpt lat="45.0327" lon="6.49555">
        <ele>2549.6</ele>
        <time>2021-02-28T12:14:31Z</time>
      </trkpt>
      <trkpt lat="45.03271" lon="6.49556">
        <ele>2549.6</ele>
        <time>2021-02-28T12:14:32Z</time>
      </trkpt>
      <trkpt lat="45.03271" lon="6.49556">
        <ele>2549.8</ele>
        <time>2021-02-28T12:14:33Z</time>
      </trkpt>
      <trkpt lat="45.03271" lon="6.49557">
        <ele>2550.2</ele>
        <time>2021-02-28T12:14:34Z</time>
      </trkpt>
      <trkpt lat="45.03272" lon="6.49557">
        <ele>2550.2</ele>
        <time>2021-02-28T12:14:35Z</time>
      </trkpt>
      <trkpt lat="45.03272" lon="6.49558">
        <ele>2550.4</ele>
        <time>2021-02-28T12:14:36Z</time>
      </trkpt>
      <trkpt lat="45.03272" lon="6.49558">
        <ele>2550.8</ele>
        <time>2021-02-28T12:14:37Z</time>
      </trkpt>
      <trkpt lat="45.03272" lon="6.49558">
        <ele>2550.8</ele>
        <time>2021-02-28T12:14:38Z</time>
      </trkpt>
      <trkpt lat="45.03273" lon="6.49559">
        <ele>2551.2</ele>
        <time>2021-02-28T12:14:39Z</time>
      </trkpt>
      <trkpt lat="45.03274" lon="6.49559">
        <ele>2551.6</ele>
        <time>2021-02-28T12:14:40Z</time>
      </trkpt>
      <trkpt lat="45.03274" lon="6.4956">
        <ele>2551.8</ele>
        <time>2021-02-28T12:14:41Z</time>
      </trkpt>
      <trkpt lat="45.03275" lon="6.49561">
        <ele>2552</ele>
        <time>2021-02-28T12:14:42Z</time>
      </trkpt>
      <trkpt lat="45.03276" lon="6.49561">
        <ele>2552.2</ele>
        <time>2021-02-28T12:14:43Z</time>
      </trkpt>
      <trkpt lat="45.03277" lon="6.49562">
        <ele>2552.2</ele>
        <time>2021-02-28T12:14:44Z</time>
      </trkpt>
      <trkpt lat="45.03278" lon="6.49563">
        <ele>2552.6</ele>
        <time>2021-02-28T12:14:45Z</time>
      </trkpt>
      <trkpt lat="45.03278" lon="6.49563">
        <ele>2553.2</ele>
        <time>2021-02-28T12:14:46Z</time>
      </trkpt>
      <trkpt lat="45.03279" lon="6.49564">
        <ele>2553.2</ele>
        <time>2021-02-28T12:14:47Z</time>
      </trkpt>
      <trkpt lat="45.0328" lon="6.49564">
        <ele>2553.4</ele>
        <time>2021-02-28T12:14:48Z</time>
      </trkpt>
      <trkpt lat="45.03281" lon="6.49565">
        <ele>2553.6</ele>
        <time>2021-02-28T12:14:49Z</time>
      </trkpt>
      <trkpt lat="45.03281" lon="6.49565">
        <ele>2554</ele>
        <time>2021-02-28T12:14:50Z</time>
      </trkpt>
      <trkpt lat="45.03282" lon="6.49566">
        <ele>2554.4</ele>
        <time>2021-02-28T12:14:51Z</time>
      </trkpt>
      <trkpt lat="45.03282" lon="6.49566">
        <ele>2554.6</ele>
        <time>2021-02-28T12:14:52Z</time>
      </trkpt>
      <trkpt lat="45.03283" lon="6.49566">
        <ele>2554.6</ele>
        <time>2021-02-28T12:14:53Z</time>
      </trkpt>
      <trkpt lat="45.03283" lon="6.49566">
        <ele>2554.8</ele>
        <time>2021-02-28T12:14:54Z</time>
      </trkpt>
      <trkpt lat="45.03284" lon="6.49567">
        <ele>2555</ele>
        <time>2021-02-28T12:14:55Z</time>
      </trkpt>
      <trkpt lat="45.03285" lon="6.49567">
        <ele>2555.2</ele>
        <time>2021-02-28T12:14:56Z</time>
      </trkpt>
      <trkpt lat="45.03285" lon="6.49567">
        <ele>2555.4</ele>
        <time>2021-02-28T12:14:57Z</time>
      </trkpt>
      <trkpt lat="45.03286" lon="6.49568">
        <ele>2555.6</ele>
        <time>2021-02-28T12:14:58Z</time>
      </trkpt>
      <trkpt lat="45.03286" lon="6.49568">
        <ele>2556</ele>
        <time>2021-02-28T12:14:59Z</time>
      </trkpt>
      <trkpt lat="45.03287" lon="6.49568">
        <ele>2556.2</ele>
        <time>2021-02-28T12:15:00Z</time>
      </trkpt>
      <trkpt lat="45.03287" lon="6.49569">
        <ele>2556.6</ele>
        <time>2021-02-28T12:15:01Z</time>
      </trkpt>
      <trkpt lat="45.03288" lon="6.49569">
        <ele>2557</ele>
        <time>2021-02-28T12:15:02Z</time>
      </trkpt>
      <trkpt lat="45.03288" lon="6.49569">
        <ele>2557.6</ele>
        <time>2021-02-28T12:15:03Z</time>
      </trkpt>
      <trkpt lat="45.03289" lon="6.4957">
        <ele>2558</ele>
        <time>2021-02-28T12:15:04Z</time>
      </trkpt>
      <trkpt lat="45.0329" lon="6.4957">
        <ele>2558</ele>
        <time>2021-02-28T12:15:05Z</time>
      </trkpt>
      <trkpt lat="45.0329" lon="6.4957">
        <ele>2558.4</ele>
        <time>2021-02-28T12:15:06Z</time>
      </trkpt>
      <trkpt lat="45.03291" lon="6.4957">
        <ele>2558.6</ele>
        <time>2021-02-28T12:15:07Z</time>
      </trkpt>
      <trkpt lat="45.03292" lon="6.4957">
        <ele>2558.8</ele>
        <time>2021-02-28T12:15:08Z</time>
      </trkpt>
      <trkpt lat="45.03293" lon="6.49571">
        <ele>2559.2</ele>
        <time>2021-02-28T12:15:09Z</time>
      </trkpt>
      <trkpt lat="45.03293" lon="6.49571">
        <ele>2559.6</ele>
        <time>2021-02-28T12:15:10Z</time>
      </trkpt>
      <trkpt lat="45.03294" lon="6.49571">
        <ele>2559.8</ele>
        <time>2021-02-28T12:15:11Z</time>
      </trkpt>
      <trkpt lat="45.03295" lon="6.49571">
        <ele>2560</ele>
        <time>2021-02-28T12:15:12Z</time>
      </trkpt>
      <trkpt lat="45.03296" lon="6.49571">
        <ele>2560.2</ele>
        <time>2021-02-28T12:15:13Z</time>
      </trkpt>
      <trkpt lat="45.03297" lon="6.49571">
        <ele>2560.4</ele>
        <time>2021-02-28T12:15:14Z</time>
      </trkpt>
      <trkpt lat="45.03298" lon="6.49571">
        <ele>2560.8</ele>
        <time>2021-02-28T12:15:15Z</time>
      </trkpt>
      <trkpt lat="45.03298" lon="6.49571">
        <ele>2561</ele>
        <time>2021-02-28T12:15:16Z</time>
      </trkpt>
      <trkpt lat="45.03299" lon="6.49571">
        <ele>2561.6</ele>
        <time>2021-02-28T12:15:17Z</time>
      </trkpt>
      <trkpt lat="45.033" lon="6.49572">
        <ele>2562</ele>
        <time>2021-02-28T12:15:18Z</time>
      </trkpt>
      <trkpt lat="45.033" lon="6.49572">
        <ele>2562.2</ele>
        <time>2021-02-28T12:15:19Z</time>
      </trkpt>
      <trkpt lat="45.03301" lon="6.49572">
        <ele>2562.4</ele>
        <time>2021-02-28T12:15:20Z</time>
      </trkpt>
      <trkpt lat="45.03302" lon="6.49573">
        <ele>2562.4</ele>
        <time>2021-02-28T12:15:21Z</time>
      </trkpt>
      <trkpt lat="45.03302" lon="6.49573">
        <ele>2562.8</ele>
        <time>2021-02-28T12:15:22Z</time>
      </trkpt>
      <trkpt lat="45.03303" lon="6.49573">
        <ele>2563.4</ele>
        <time>2021-02-28T12:15:23Z</time>
      </trkpt>
      <trkpt lat="45.03303" lon="6.49574">
        <ele>2563.6</ele>
        <time>2021-02-28T12:15:24Z</time>
      </trkpt>
      <trkpt lat="45.03304" lon="6.49574">
        <ele>2564</ele>
        <time>2021-02-28T12:15:25Z</time>
      </trkpt>
      <trkpt lat="45.03304" lon="6.49574">
        <ele>2564.2</ele>
        <time>2021-02-28T12:15:26Z</time>
      </trkpt>
      <trkpt lat="45.03305" lon="6.49575">
        <ele>2564.4</ele>
        <time>2021-02-28T12:15:27Z</time>
      </trkpt>
      <trkpt lat="45.03305" lon="6.49575">
        <ele>2564.8</ele>
        <time>2021-02-28T12:15:28Z</time>
      </trkpt>
      <trkpt lat="45.03306" lon="6.49575">
        <ele>2564.8</ele>
        <time>2021-02-28T12:15:29Z</time>
      </trkpt>
      <trkpt lat="45.03307" lon="6.49576">
        <ele>2565.2</ele>
        <time>2021-02-28T12:15:30Z</time>
      </trkpt>
      <trkpt lat="45.03307" lon="6.49576">
        <ele>2565.8</ele>
        <time>2021-02-28T12:15:31Z</time>
      </trkpt>
      <trkpt lat="45.03308" lon="6.49576">
        <ele>2566.2</ele>
        <time>2021-02-28T12:15:32Z</time>
      </trkpt>
      <trkpt lat="45.03308" lon="6.49577">
        <ele>2566.4</ele>
        <time>2021-02-28T12:15:33Z</time>
      </trkpt>
      <trkpt lat="45.03308" lon="6.49578">
        <ele>2566.8</ele>
        <time>2021-02-28T12:15:34Z</time>
      </trkpt>
      <trkpt lat="45.03307" lon="6.49578">
        <ele>2567.4</ele>
        <time>2021-02-28T12:15:35Z</time>
      </trkpt>
      <trkpt lat="45.03307" lon="6.49579">
        <ele>2567.6</ele>
        <time>2021-02-28T12:15:36Z</time>
      </trkpt>
      <trkpt lat="45.03307" lon="6.4958">
        <ele>2567.4</ele>
        <time>2021-02-28T12:15:37Z</time>
      </trkpt>
      <trkpt lat="45.03307" lon="6.4958">
        <ele>2568.2</ele>
        <time>2021-02-28T12:15:38Z</time>
      </trkpt>
      <trkpt lat="45.03307" lon="6.49581">
        <ele>2568.4</ele>
        <time>2021-02-28T12:15:39Z</time>
      </trkpt>
      <trkpt lat="45.03307" lon="6.49582">
        <ele>2568.2</ele>
        <time>2021-02-28T12:15:40Z</time>
      </trkpt>
      <trkpt lat="45.03307" lon="6.49582">
        <ele>2568.8</ele>
        <time>2021-02-28T12:15:41Z</time>
      </trkpt>
      <trkpt lat="45.03307" lon="6.49583">
        <ele>2568.8</ele>
        <time>2021-02-28T12:15:42Z</time>
      </trkpt>
      <trkpt lat="45.03306" lon="6.49584">
        <ele>2568.8</ele>
        <time>2021-02-28T12:15:43Z</time>
      </trkpt>
      <trkpt lat="45.03306" lon="6.49584">
        <ele>2569.8</ele>
        <time>2021-02-28T12:15:44Z</time>
      </trkpt>
      <trkpt lat="45.03306" lon="6.49585">
        <ele>2569.8</ele>
        <time>2021-02-28T12:15:45Z</time>
      </trkpt>
      <trkpt lat="45.03306" lon="6.49586">
        <ele>2569.8</ele>
        <time>2021-02-28T12:15:46Z</time>
      </trkpt>
      <trkpt lat="45.03306" lon="6.49586">
        <ele>2570.2</ele>
        <time>2021-02-28T12:15:47Z</time>
      </trkpt>
      <trkpt lat="45.03306" lon="6.49587">
        <ele>2571</ele>
        <time>2021-02-28T12:15:48Z</time>
      </trkpt>
      <trkpt lat="45.03306" lon="6.49588">
        <ele>2571.2</ele>
        <time>2021-02-28T12:15:49Z</time>
      </trkpt>
      <trkpt lat="45.03306" lon="6.49588">
        <ele>2571.4</ele>
        <time>2021-02-28T12:15:50Z</time>
      </trkpt>
      <trkpt lat="45.03305" lon="6.49589">
        <ele>2571.6</ele>
        <time>2021-02-28T12:15:51Z</time>
      </trkpt>
      <trkpt lat="45.03306" lon="6.49589">
        <ele>2572.2</ele>
        <time>2021-02-28T12:15:52Z</time>
      </trkpt>
      <trkpt lat="45.03306" lon="6.49589">
        <ele>2572.4</ele>
        <time>2021-02-28T12:15:53Z</time>
      </trkpt>
      <trkpt lat="45.03306" lon="6.4959">
        <ele>2572.6</ele>
        <time>2021-02-28T12:15:54Z</time>
      </trkpt>
      <trkpt lat="45.03307" lon="6.4959">
        <ele>2573</ele>
        <time>2021-02-28T12:15:55Z</time>
      </trkpt>
      <trkpt lat="45.03307" lon="6.4959">
        <ele>2573.2</ele>
        <time>2021-02-28T12:15:56Z</time>
      </trkpt>
      <trkpt lat="45.03307" lon="6.49591">
        <ele>2573.4</ele>
        <time>2021-02-28T12:15:57Z</time>
      </trkpt>
      <trkpt lat="45.03307" lon="6.49591">
        <ele>2573.6</ele>
        <time>2021-02-28T12:15:58Z</time>
      </trkpt>
      <trkpt lat="45.03308" lon="6.49591">
        <ele>2573.6</ele>
        <time>2021-02-28T12:15:59Z</time>
      </trkpt>
      <trkpt lat="45.03308" lon="6.49591">
        <ele>2573.6</ele>
        <time>2021-02-28T12:16:00Z</time>
      </trkpt>
      <trkpt lat="45.03308" lon="6.49592">
        <ele>2573.8</ele>
        <time>2021-02-28T12:16:01Z</time>
      </trkpt>
      <trkpt lat="45.03309" lon="6.49592">
        <ele>2573.8</ele>
        <time>2021-02-28T12:16:02Z</time>
      </trkpt>
      <trkpt lat="45.03309" lon="6.49592">
        <ele>2574</ele>
        <time>2021-02-28T12:16:03Z</time>
      </trkpt>
      <trkpt lat="45.03309" lon="6.49592">
        <ele>2574.4</ele>
        <time>2021-02-28T12:16:04Z</time>
      </trkpt>
      <trkpt lat="45.03309" lon="6.49593">
        <ele>2574.8</ele>
        <time>2021-02-28T12:16:05Z</time>
      </trkpt>
      <trkpt lat="45.0331" lon="6.49593">
        <ele>2575.2</ele>
        <time>2021-02-28T12:16:06Z</time>
      </trkpt>
      <trkpt lat="45.0331" lon="6.49593">
        <ele>2575.6</ele>
        <time>2021-02-28T12:16:07Z</time>
      </trkpt>
      <trkpt lat="45.0331" lon="6.49594">
        <ele>2576</ele>
        <time>2021-02-28T12:16:08Z</time>
      </trkpt>
      <trkpt lat="45.0331" lon="6.49594">
        <ele>2576</ele>
        <time>2021-02-28T12:16:09Z</time>
      </trkpt>
      <trkpt lat="45.03311" lon="6.49594">
        <ele>2576.6</ele>
        <time>2021-02-28T12:16:10Z</time>
      </trkpt>
      <trkpt lat="45.03311" lon="6.49594">
        <ele>2576.8</ele>
        <time>2021-02-28T12:16:11Z</time>
      </trkpt>
      <trkpt lat="45.03311" lon="6.49595">
        <ele>2576.8</ele>
        <time>2021-02-28T12:16:12Z</time>
      </trkpt>
      <trkpt lat="45.03312" lon="6.49595">
        <ele>2577</ele>
        <time>2021-02-28T12:16:13Z</time>
      </trkpt>
      <trkpt lat="45.03312" lon="6.49595">
        <ele>2577.2</ele>
        <time>2021-02-28T12:16:14Z</time>
      </trkpt>
      <trkpt lat="45.03312" lon="6.49595">
        <ele>2577.6</ele>
        <time>2021-02-28T12:16:15Z</time>
      </trkpt>
      <trkpt lat="45.03312" lon="6.49596">
        <ele>2577.8</ele>
        <time>2021-02-28T12:16:16Z</time>
      </trkpt>
      <trkpt lat="45.03313" lon="6.49596">
        <ele>2578.2</ele>
        <time>2021-02-28T12:16:17Z</time>
      </trkpt>
      <trkpt lat="45.03313" lon="6.49596">
        <ele>2578.6</ele>
        <time>2021-02-28T12:16:18Z</time>
      </trkpt>
      <trkpt lat="45.03313" lon="6.49596">
        <ele>2579</ele>
        <time>2021-02-28T12:16:19Z</time>
      </trkpt>
      <trkpt lat="45.03313" lon="6.49596">
        <ele>2579.8</ele>
        <time>2021-02-28T12:16:20Z</time>
      </trkpt>
      <trkpt lat="45.03313" lon="6.49596">
        <ele>2580.2</ele>
        <time>2021-02-28T12:16:21Z</time>
      </trkpt>
      <trkpt lat="45.03313" lon="6.49596">
        <ele>2580.2</ele>
        <time>2021-02-28T12:16:22Z</time>
      </trkpt>
      <trkpt lat="45.03313" lon="6.49601">
        <ele>2580.8</ele>
        <time>2021-02-28T12:16:23Z</time>
      </trkpt>
      <trkpt lat="45.03313" lon="6.49601">
        <ele>2581.2</ele>
        <time>2021-02-28T12:16:24Z</time>
      </trkpt>
      <trkpt lat="45.03313" lon="6.49601">
        <ele>2581</ele>
        <time>2021-02-28T12:16:25Z</time>
      </trkpt>
      <trkpt lat="45.03313" lon="6.49602">
        <ele>2581.4</ele>
        <time>2021-02-28T12:16:26Z</time>
      </trkpt>
      <trkpt lat="45.03313" lon="6.49602">
        <ele>2581.6</ele>
        <time>2021-02-28T12:16:27Z</time>
      </trkpt>
      <trkpt lat="45.03312" lon="6.49603">
        <ele>2582</ele>
        <time>2021-02-28T12:16:28Z</time>
      </trkpt>
      <trkpt lat="45.03312" lon="6.49604">
        <ele>2582.4</ele>
        <time>2021-02-28T12:16:29Z</time>
      </trkpt>
      <trkpt lat="45.03312" lon="6.49605">
        <ele>2582.6</ele>
        <time>2021-02-28T12:16:30Z</time>
      </trkpt>
      <trkpt lat="45.03311" lon="6.49606">
        <ele>2582.6</ele>
        <time>2021-02-28T12:16:31Z</time>
      </trkpt>
      <trkpt lat="45.03311" lon="6.49607">
        <ele>2583.4</ele>
        <time>2021-02-28T12:16:32Z</time>
      </trkpt>
      <trkpt lat="45.03311" lon="6.49607">
        <ele>2583.6</ele>
        <time>2021-02-28T12:16:33Z</time>
      </trkpt>
      <trkpt lat="45.0331" lon="6.49608">
        <ele>2583.4</ele>
        <time>2021-02-28T12:16:34Z</time>
      </trkpt>
      <trkpt lat="45.0331" lon="6.49609">
        <ele>2583.8</ele>
        <time>2021-02-28T12:16:35Z</time>
      </trkpt>
      <trkpt lat="45.0331" lon="6.4961">
        <ele>2584</ele>
        <time>2021-02-28T12:16:36Z</time>
      </trkpt>
      <trkpt lat="45.03309" lon="6.49611">
        <ele>2584</ele>
        <time>2021-02-28T12:16:37Z</time>
      </trkpt>
      <trkpt lat="45.03309" lon="6.49612">
        <ele>2584.8</ele>
        <time>2021-02-28T12:16:38Z</time>
      </trkpt>
      <trkpt lat="45.03308" lon="6.49612">
        <ele>2584.8</ele>
        <time>2021-02-28T12:16:39Z</time>
      </trkpt>
      <trkpt lat="45.03308" lon="6.49612">
        <ele>2584.6</ele>
        <time>2021-02-28T12:16:40Z</time>
      </trkpt>
      <trkpt lat="45.03307" lon="6.49612">
        <ele>2585.2</ele>
        <time>2021-02-28T12:16:41Z</time>
      </trkpt>
      <trkpt lat="45.03306" lon="6.49613">
        <ele>2585.4</ele>
        <time>2021-02-28T12:16:42Z</time>
      </trkpt>
      <trkpt lat="45.03305" lon="6.49613">
        <ele>2585.2</ele>
        <time>2021-02-28T12:16:43Z</time>
      </trkpt>
      <trkpt lat="45.03304" lon="6.49613">
        <ele>2585.8</ele>
        <time>2021-02-28T12:16:44Z</time>
      </trkpt>
      <trkpt lat="45.03304" lon="6.49613">
        <ele>2586</ele>
        <time>2021-02-28T12:16:45Z</time>
      </trkpt>
      <trkpt lat="45.03303" lon="6.49614">
        <ele>2586.4</ele>
        <time>2021-02-28T12:16:46Z</time>
      </trkpt>
      <trkpt lat="45.03302" lon="6.49614">
        <ele>2586.6</ele>
        <time>2021-02-28T12:16:47Z</time>
      </trkpt>
      <trkpt lat="45.03301" lon="6.49614">
        <ele>2586.4</ele>
        <time>2021-02-28T12:16:48Z</time>
      </trkpt>
      <trkpt lat="45.03303" lon="6.49615">
        <ele>2586.4</ele>
        <time>2021-02-28T12:16:49Z</time>
      </trkpt>
      <trkpt lat="45.03303" lon="6.49615">
        <ele>2586.4</ele>
        <time>2021-02-28T12:16:50Z</time>
      </trkpt>
      <trkpt lat="45.03303" lon="6.49615">
        <ele>2586.2</ele>
        <time>2021-02-28T12:16:51Z</time>
      </trkpt>
      <trkpt lat="45.03305" lon="6.49616">
        <ele>2586.6</ele>
        <time>2021-02-28T12:16:52Z</time>
      </trkpt>
      <trkpt lat="45.03305" lon="6.49616">
        <ele>2586.6</ele>
        <time>2021-02-28T12:16:53Z</time>
      </trkpt>
      <trkpt lat="45.03305" lon="6.49616">
        <ele>2586.6</ele>
        <time>2021-02-28T12:16:54Z</time>
      </trkpt>
      <trkpt lat="45.03305" lon="6.49616">
        <ele>2587.2</ele>
        <time>2021-02-28T12:16:55Z</time>
      </trkpt>
      <trkpt lat="45.03308" lon="6.49618">
        <ele>2587</ele>
        <time>2021-02-28T12:16:56Z</time>
      </trkpt>
      <trkpt lat="45.03308" lon="6.49618">
        <ele>2587</ele>
        <time>2021-02-28T12:16:57Z</time>
      </trkpt>
      <trkpt lat="45.03308" lon="6.49618">
        <ele>2587.2</ele>
        <time>2021-02-28T12:16:58Z</time>
      </trkpt>
      <trkpt lat="45.0331" lon="6.49619">
        <ele>2587.4</ele>
        <time>2021-02-28T12:16:59Z</time>
      </trkpt>
      <trkpt lat="45.0331" lon="6.49619">
        <ele>2587.6</ele>
        <time>2021-02-28T12:17:00Z</time>
      </trkpt>
      <trkpt lat="45.0331" lon="6.49619">
        <ele>2588</ele>
        <time>2021-02-28T12:17:01Z</time>
      </trkpt>
      <trkpt lat="45.03312" lon="6.4962">
        <ele>2588</ele>
        <time>2021-02-28T12:17:02Z</time>
      </trkpt>
      <trkpt lat="45.03312" lon="6.4962">
        <ele>2588.2</ele>
        <time>2021-02-28T12:17:03Z</time>
      </trkpt>
      <trkpt lat="45.03312" lon="6.4962">
        <ele>2588.8</ele>
        <time>2021-02-28T12:17:04Z</time>
      </trkpt>
      <trkpt lat="45.03314" lon="6.49621">
        <ele>2589</ele>
        <time>2021-02-28T12:17:05Z</time>
      </trkpt>
      <trkpt lat="45.03314" lon="6.49621">
        <ele>2589</ele>
        <time>2021-02-28T12:17:06Z</time>
      </trkpt>
      <trkpt lat="45.03314" lon="6.49621">
        <ele>2589.2</ele>
        <time>2021-02-28T12:17:07Z</time>
      </trkpt>
      <trkpt lat="45.03314" lon="6.49621">
        <ele>2589.6</ele>
        <time>2021-02-28T12:17:08Z</time>
      </trkpt>
      <trkpt lat="45.03314" lon="6.49621">
        <ele>2589.8</ele>
        <time>2021-02-28T12:17:09Z</time>
      </trkpt>
      <trkpt lat="45.03314" lon="6.49621">
        <ele>2589.8</ele>
        <time>2021-02-28T12:17:10Z</time>
      </trkpt>
      <trkpt lat="45.03314" lon="6.49621">
        <ele>2590.6</ele>
        <time>2021-02-28T12:17:11Z</time>
      </trkpt>
      <trkpt lat="45.03314" lon="6.49621">
        <ele>2590.8</ele>
        <time>2021-02-28T12:17:12Z</time>
      </trkpt>
      <trkpt lat="45.03314" lon="6.49621">
        <ele>2590.6</ele>
        <time>2021-02-28T12:17:13Z</time>
      </trkpt>
      <trkpt lat="45.03314" lon="6.49621">
        <ele>2591.2</ele>
        <time>2021-02-28T12:17:14Z</time>
      </trkpt>
      <trkpt lat="45.03317" lon="6.49622">
        <ele>2591.4</ele>
        <time>2021-02-28T12:17:15Z</time>
      </trkpt>
      <trkpt lat="45.03317" lon="6.49622">
        <ele>2591.4</ele>
        <time>2021-02-28T12:17:16Z</time>
      </trkpt>
      <trkpt lat="45.03317" lon="6.49622">
        <ele>2592</ele>
        <time>2021-02-28T12:17:17Z</time>
      </trkpt>
      <trkpt lat="45.03316" lon="6.49623">
        <ele>2592</ele>
        <time>2021-02-28T12:17:18Z</time>
      </trkpt>
      <trkpt lat="45.03316" lon="6.49624">
        <ele>2592</ele>
        <time>2021-02-28T12:17:19Z</time>
      </trkpt>
      <trkpt lat="45.03316" lon="6.49625">
        <ele>2592.2</ele>
        <time>2021-02-28T12:17:20Z</time>
      </trkpt>
      <trkpt lat="45.03315" lon="6.49626">
        <ele>2592.6</ele>
        <time>2021-02-28T12:17:21Z</time>
      </trkpt>
      <trkpt lat="45.03315" lon="6.49627">
        <ele>2592.6</ele>
        <time>2021-02-28T12:17:22Z</time>
      </trkpt>
      <trkpt lat="45.03315" lon="6.49628">
        <ele>2593</ele>
        <time>2021-02-28T12:17:23Z</time>
      </trkpt>
      <trkpt lat="45.03314" lon="6.49629">
        <ele>2593.4</ele>
        <time>2021-02-28T12:17:24Z</time>
      </trkpt>
      <trkpt lat="45.03314" lon="6.4963">
        <ele>2593.2</ele>
        <time>2021-02-28T12:17:25Z</time>
      </trkpt>
      <trkpt lat="45.03314" lon="6.49631">
        <ele>2593.4</ele>
        <time>2021-02-28T12:17:26Z</time>
      </trkpt>
      <trkpt lat="45.03313" lon="6.49632">
        <ele>2593.8</ele>
        <time>2021-02-28T12:17:27Z</time>
      </trkpt>
      <trkpt lat="45.03313" lon="6.49633">
        <ele>2594</ele>
        <time>2021-02-28T12:17:28Z</time>
      </trkpt>
      <trkpt lat="45.03313" lon="6.49634">
        <ele>2594.2</ele>
        <time>2021-02-28T12:17:29Z</time>
      </trkpt>
      <trkpt lat="45.03313" lon="6.49635">
        <ele>2594.6</ele>
        <time>2021-02-28T12:17:30Z</time>
      </trkpt>
      <trkpt lat="45.03312" lon="6.49635">
        <ele>2594.6</ele>
        <time>2021-02-28T12:17:31Z</time>
      </trkpt>
      <trkpt lat="45.03311" lon="6.49636">
        <ele>2595</ele>
        <time>2021-02-28T12:17:32Z</time>
      </trkpt>
      <trkpt lat="45.03311" lon="6.49636">
        <ele>2595.8</ele>
        <time>2021-02-28T12:17:33Z</time>
      </trkpt>
      <trkpt lat="45.0331" lon="6.49637">
        <ele>2596</ele>
        <time>2021-02-28T12:17:34Z</time>
      </trkpt>
      <trkpt lat="45.0331" lon="6.49638">
        <ele>2596</ele>
        <time>2021-02-28T12:17:35Z</time>
      </trkpt>
      <trkpt lat="45.03309" lon="6.49638">
        <ele>2596.6</ele>
        <time>2021-02-28T12:17:36Z</time>
      </trkpt>
      <trkpt lat="45.03308" lon="6.49639">
        <ele>2596.8</ele>
        <time>2021-02-28T12:17:37Z</time>
      </trkpt>
      <trkpt lat="45.03308" lon="6.49639">
        <ele>2597</ele>
        <time>2021-02-28T12:17:38Z</time>
      </trkpt>
      <trkpt lat="45.03307" lon="6.4964">
        <ele>2597.8</ele>
        <time>2021-02-28T12:17:39Z</time>
      </trkpt>
      <trkpt lat="45.03307" lon="6.49641">
        <ele>2598.2</ele>
        <time>2021-02-28T12:17:40Z</time>
      </trkpt>
      <trkpt lat="45.03306" lon="6.49641">
        <ele>2598.2</ele>
        <time>2021-02-28T12:17:41Z</time>
      </trkpt>
      <trkpt lat="45.03305" lon="6.49642">
        <ele>2598.6</ele>
        <time>2021-02-28T12:17:42Z</time>
      </trkpt>
      <trkpt lat="45.03305" lon="6.49642">
        <ele>2599</ele>
        <time>2021-02-28T12:17:43Z</time>
      </trkpt>
      <trkpt lat="45.03304" lon="6.49643">
        <ele>2598.4</ele>
        <time>2021-02-28T12:17:44Z</time>
      </trkpt>
      <trkpt lat="45.03304" lon="6.49644">
        <ele>2598.8</ele>
        <time>2021-02-28T12:17:45Z</time>
      </trkpt>
      <trkpt lat="45.03303" lon="6.49644">
        <ele>2599</ele>
        <time>2021-02-28T12:17:46Z</time>
      </trkpt>
      <trkpt lat="45.03303" lon="6.49645">
        <ele>2599</ele>
        <time>2021-02-28T12:17:47Z</time>
      </trkpt>
      <trkpt lat="45.03302" lon="6.49646">
        <ele>2599.2</ele>
        <time>2021-02-28T12:17:48Z</time>
      </trkpt>
      <trkpt lat="45.03301" lon="6.49646">
        <ele>2599.8</ele>
        <time>2021-02-28T12:17:49Z</time>
      </trkpt>
      <trkpt lat="45.03301" lon="6.49647">
        <ele>2600.2</ele>
        <time>2021-02-28T12:17:50Z</time>
      </trkpt>
      <trkpt lat="45.033" lon="6.49648">
        <ele>2600.8</ele>
        <time>2021-02-28T12:17:51Z</time>
      </trkpt>
      <trkpt lat="45.033" lon="6.49648">
        <ele>2600.8</ele>
        <time>2021-02-28T12:17:52Z</time>
      </trkpt>
      <trkpt lat="45.03299" lon="6.49649">
        <ele>2601.2</ele>
        <time>2021-02-28T12:17:53Z</time>
      </trkpt>
      <trkpt lat="45.03299" lon="6.4965">
        <ele>2601.4</ele>
        <time>2021-02-28T12:17:54Z</time>
      </trkpt>
      <trkpt lat="45.03298" lon="6.4965">
        <ele>2601.4</ele>
        <time>2021-02-28T12:17:55Z</time>
      </trkpt>
      <trkpt lat="45.03298" lon="6.49651">
        <ele>2602</ele>
        <time>2021-02-28T12:17:56Z</time>
      </trkpt>
      <trkpt lat="45.03297" lon="6.49651">
        <ele>2602.2</ele>
        <time>2021-02-28T12:17:57Z</time>
      </trkpt>
      <trkpt lat="45.03296" lon="6.49652">
        <ele>2602.2</ele>
        <time>2021-02-28T12:17:58Z</time>
      </trkpt>
      <trkpt lat="45.03296" lon="6.49652">
        <ele>2602.4</ele>
        <time>2021-02-28T12:17:59Z</time>
      </trkpt>
      <trkpt lat="45.03295" lon="6.49653">
        <ele>2603</ele>
        <time>2021-02-28T12:18:00Z</time>
      </trkpt>
      <trkpt lat="45.03295" lon="6.49653">
        <ele>2603</ele>
        <time>2021-02-28T12:18:01Z</time>
      </trkpt>
      <trkpt lat="45.03294" lon="6.49654">
        <ele>2602.8</ele>
        <time>2021-02-28T12:18:02Z</time>
      </trkpt>
      <trkpt lat="45.03293" lon="6.49654">
        <ele>2603.2</ele>
        <time>2021-02-28T12:18:03Z</time>
      </trkpt>
      <trkpt lat="45.03293" lon="6.49655">
        <ele>2603.4</ele>
        <time>2021-02-28T12:18:04Z</time>
      </trkpt>
      <trkpt lat="45.03292" lon="6.49655">
        <ele>2603.4</ele>
        <time>2021-02-28T12:18:05Z</time>
      </trkpt>
      <trkpt lat="45.03291" lon="6.49656">
        <ele>2603.8</ele>
        <time>2021-02-28T12:18:06Z</time>
      </trkpt>
      <trkpt lat="45.03291" lon="6.49656">
        <ele>2604.2</ele>
        <time>2021-02-28T12:18:07Z</time>
      </trkpt>
      <trkpt lat="45.0329" lon="6.49656">
        <ele>2604.2</ele>
        <time>2021-02-28T12:18:08Z</time>
      </trkpt>
      <trkpt lat="45.0329" lon="6.49657">
        <ele>2604.6</ele>
        <time>2021-02-28T12:18:09Z</time>
      </trkpt>
      <trkpt lat="45.03289" lon="6.49658">
        <ele>2605.2</ele>
        <time>2021-02-28T12:18:10Z</time>
      </trkpt>
      <trkpt lat="45.03289" lon="6.49658">
        <ele>2605</ele>
        <time>2021-02-28T12:18:11Z</time>
      </trkpt>
      <trkpt lat="45.03288" lon="6.49659">
        <ele>2605.4</ele>
        <time>2021-02-28T12:18:12Z</time>
      </trkpt>
      <trkpt lat="45.03288" lon="6.49659">
        <ele>2605.4</ele>
        <time>2021-02-28T12:18:13Z</time>
      </trkpt>
      <trkpt lat="45.03287" lon="6.4966">
        <ele>2605.8</ele>
        <time>2021-02-28T12:18:14Z</time>
      </trkpt>
      <trkpt lat="45.03287" lon="6.49661">
        <ele>2606</ele>
        <time>2021-02-28T12:18:15Z</time>
      </trkpt>
      <trkpt lat="45.03287" lon="6.49661">
        <ele>2606.6</ele>
        <time>2021-02-28T12:18:16Z</time>
      </trkpt>
      <trkpt lat="45.03286" lon="6.49662">
        <ele>2606.4</ele>
        <time>2021-02-28T12:18:17Z</time>
      </trkpt>
      <trkpt lat="45.03286" lon="6.49663">
        <ele>2606.4</ele>
        <time>2021-02-28T12:18:18Z</time>
      </trkpt>
      <trkpt lat="45.03285" lon="6.49663">
        <ele>2606.8</ele>
        <time>2021-02-28T12:18:19Z</time>
      </trkpt>
      <trkpt lat="45.03285" lon="6.49664">
        <ele>2606.6</ele>
        <time>2021-02-28T12:18:20Z</time>
      </trkpt>
      <trkpt lat="45.03284" lon="6.49664">
        <ele>2606.6</ele>
        <time>2021-02-28T12:18:21Z</time>
      </trkpt>
      <trkpt lat="45.03284" lon="6.49665">
        <ele>2607.2</ele>
        <time>2021-02-28T12:18:22Z</time>
      </trkpt>
      <trkpt lat="45.03284" lon="6.49666">
        <ele>2607</ele>
        <time>2021-02-28T12:18:23Z</time>
      </trkpt>
      <trkpt lat="45.03283" lon="6.49666">
        <ele>2607</ele>
        <time>2021-02-28T12:18:24Z</time>
      </trkpt>
      <trkpt lat="45.03283" lon="6.49667">
        <ele>2607.4</ele>
        <time>2021-02-28T12:18:25Z</time>
      </trkpt>
      <trkpt lat="45.03284" lon="6.49667">
        <ele>2607.8</ele>
        <time>2021-02-28T12:18:26Z</time>
      </trkpt>
      <trkpt lat="45.03284" lon="6.49667">
        <ele>2607.8</ele>
        <time>2021-02-28T12:18:27Z</time>
      </trkpt>
      <trkpt lat="45.03284" lon="6.49667">
        <ele>2607.8</ele>
        <time>2021-02-28T12:18:28Z</time>
      </trkpt>
      <trkpt lat="45.03284" lon="6.49667">
        <ele>2608</ele>
        <time>2021-02-28T12:18:29Z</time>
      </trkpt>
      <trkpt lat="45.03285" lon="6.49667">
        <ele>2608.4</ele>
        <time>2021-02-28T12:18:30Z</time>
      </trkpt>
      <trkpt lat="45.03285" lon="6.49668">
        <ele>2608.2</ele>
        <time>2021-02-28T12:18:31Z</time>
      </trkpt>
      <trkpt lat="45.03285" lon="6.49668">
        <ele>2608.2</ele>
        <time>2021-02-28T12:18:32Z</time>
      </trkpt>
      <trkpt lat="45.03285" lon="6.49668">
        <ele>2608.2</ele>
        <time>2021-02-28T12:18:33Z</time>
      </trkpt>
      <trkpt lat="45.03286" lon="6.49668">
        <ele>2608.2</ele>
        <time>2021-02-28T12:18:34Z</time>
      </trkpt>
      <trkpt lat="45.03286" lon="6.49668">
        <ele>2608.2</ele>
        <time>2021-02-28T12:18:35Z</time>
      </trkpt>
      <trkpt lat="45.03286" lon="6.49668">
        <ele>2608.4</ele>
        <time>2021-02-28T12:18:36Z</time>
      </trkpt>
      <trkpt lat="45.03287" lon="6.49669">
        <ele>2608.6</ele>
        <time>2021-02-28T12:18:37Z</time>
      </trkpt>
      <trkpt lat="45.03287" lon="6.49669">
        <ele>2608.8</ele>
        <time>2021-02-28T12:18:38Z</time>
      </trkpt>
      <trkpt lat="45.03287" lon="6.49669">
        <ele>2609.2</ele>
        <time>2021-02-28T12:18:39Z</time>
      </trkpt>
      <trkpt lat="45.03287" lon="6.49669">
        <ele>2609.2</ele>
        <time>2021-02-28T12:18:40Z</time>
      </trkpt>
      <trkpt lat="45.03288" lon="6.49669">
        <ele>2609.2</ele>
        <time>2021-02-28T12:18:41Z</time>
      </trkpt>
      <trkpt lat="45.03288" lon="6.49669">
        <ele>2609.2</ele>
        <time>2021-02-28T12:18:42Z</time>
      </trkpt>
      <trkpt lat="45.03288" lon="6.4967">
        <ele>2609.6</ele>
        <time>2021-02-28T12:18:43Z</time>
      </trkpt>
      <trkpt lat="45.03288" lon="6.4967">
        <ele>2610</ele>
        <time>2021-02-28T12:18:44Z</time>
      </trkpt>
      <trkpt lat="45.03289" lon="6.4967">
        <ele>2610.4</ele>
        <time>2021-02-28T12:18:45Z</time>
      </trkpt>
      <trkpt lat="45.03289" lon="6.4967">
        <ele>2611</ele>
        <time>2021-02-28T12:18:46Z</time>
      </trkpt>
      <trkpt lat="45.03289" lon="6.4967">
        <ele>2611.2</ele>
        <time>2021-02-28T12:18:47Z</time>
      </trkpt>
      <trkpt lat="45.03289" lon="6.4967">
        <ele>2611.4</ele>
        <time>2021-02-28T12:18:48Z</time>
      </trkpt>
      <trkpt lat="45.0329" lon="6.49671">
        <ele>2611.4</ele>
        <time>2021-02-28T12:18:49Z</time>
      </trkpt>
      <trkpt lat="45.0329" lon="6.49671">
        <ele>2611.4</ele>
        <time>2021-02-28T12:18:50Z</time>
      </trkpt>
      <trkpt lat="45.0329" lon="6.49671">
        <ele>2611.8</ele>
        <time>2021-02-28T12:18:51Z</time>
      </trkpt>
      <trkpt lat="45.0329" lon="6.49671">
        <ele>2611.8</ele>
        <time>2021-02-28T12:18:52Z</time>
      </trkpt>
      <trkpt lat="45.03291" lon="6.49671">
        <ele>2612.4</ele>
        <time>2021-02-28T12:18:53Z</time>
      </trkpt>
      <trkpt lat="45.03291" lon="6.49671">
        <ele>2612.8</ele>
        <time>2021-02-28T12:18:54Z</time>
      </trkpt>
      <trkpt lat="45.03291" lon="6.49672">
        <ele>2612.8</ele>
        <time>2021-02-28T12:18:55Z</time>
      </trkpt>
      <trkpt lat="45.03291" lon="6.49672">
        <ele>2613</ele>
        <time>2021-02-28T12:18:56Z</time>
      </trkpt>
      <trkpt lat="45.03292" lon="6.49672">
        <ele>2613.6</ele>
        <time>2021-02-28T12:18:57Z</time>
      </trkpt>
      <trkpt lat="45.03292" lon="6.49672">
        <ele>2613.8</ele>
        <time>2021-02-28T12:18:58Z</time>
      </trkpt>
      <trkpt lat="45.03293" lon="6.49673">
        <ele>2614.2</ele>
        <time>2021-02-28T12:18:59Z</time>
      </trkpt>
      <trkpt lat="45.03294" lon="6.49673">
        <ele>2614.2</ele>
        <time>2021-02-28T12:19:00Z</time>
      </trkpt>
      <trkpt lat="45.03295" lon="6.49673">
        <ele>2614.6</ele>
        <time>2021-02-28T12:19:01Z</time>
      </trkpt>
      <trkpt lat="45.03295" lon="6.49674">
        <ele>2614.8</ele>
        <time>2021-02-28T12:19:02Z</time>
      </trkpt>
      <trkpt lat="45.03296" lon="6.49674">
        <ele>2614.8</ele>
        <time>2021-02-28T12:19:03Z</time>
      </trkpt>
      <trkpt lat="45.03297" lon="6.49674">
        <ele>2614.8</ele>
        <time>2021-02-28T12:19:04Z</time>
      </trkpt>
      <trkpt lat="45.03297" lon="6.49674">
        <ele>2615.4</ele>
        <time>2021-02-28T12:19:05Z</time>
      </trkpt>
      <trkpt lat="45.03297" lon="6.49674">
        <ele>2615.4</ele>
        <time>2021-02-28T12:19:06Z</time>
      </trkpt>
      <trkpt lat="45.03299" lon="6.49674">
        <ele>2615.8</ele>
        <time>2021-02-28T12:19:07Z</time>
      </trkpt>
      <trkpt lat="45.03299" lon="6.49674">
        <ele>2616</ele>
        <time>2021-02-28T12:19:08Z</time>
      </trkpt>
      <trkpt lat="45.03299" lon="6.49674">
        <ele>2616.6</ele>
        <time>2021-02-28T12:19:09Z</time>
      </trkpt>
      <trkpt lat="45.03299" lon="6.49674">
        <ele>2616.6</ele>
        <time>2021-02-28T12:19:10Z</time>
      </trkpt>
      <trkpt lat="45.03299" lon="6.49674">
        <ele>2617.2</ele>
        <time>2021-02-28T12:19:11Z</time>
      </trkpt>
      <trkpt lat="45.03302" lon="6.49674">
        <ele>2617.4</ele>
        <time>2021-02-28T12:19:12Z</time>
      </trkpt>
      <trkpt lat="45.03302" lon="6.49674">
        <ele>2617.6</ele>
        <time>2021-02-28T12:19:13Z</time>
      </trkpt>
      <trkpt lat="45.03302" lon="6.49674">
        <ele>2617.8</ele>
        <time>2021-02-28T12:19:14Z</time>
      </trkpt>
      <trkpt lat="45.03302" lon="6.49674">
        <ele>2618.4</ele>
        <time>2021-02-28T12:19:15Z</time>
      </trkpt>
      <trkpt lat="45.03304" lon="6.49675">
        <ele>2618.6</ele>
        <time>2021-02-28T12:19:16Z</time>
      </trkpt>
      <trkpt lat="45.03304" lon="6.49675">
        <ele>2619</ele>
        <time>2021-02-28T12:19:17Z</time>
      </trkpt>
      <trkpt lat="45.03304" lon="6.49675">
        <ele>2619.2</ele>
        <time>2021-02-28T12:19:18Z</time>
      </trkpt>
      <trkpt lat="45.03305" lon="6.49675">
        <ele>2619.4</ele>
        <time>2021-02-28T12:19:19Z</time>
      </trkpt>
      <trkpt lat="45.03306" lon="6.49676">
        <ele>2619.6</ele>
        <time>2021-02-28T12:19:20Z</time>
      </trkpt>
      <trkpt lat="45.03307" lon="6.49676">
        <ele>2619.8</ele>
        <time>2021-02-28T12:19:21Z</time>
      </trkpt>
      <trkpt lat="45.03307" lon="6.49676">
        <ele>2620</ele>
        <time>2021-02-28T12:19:22Z</time>
      </trkpt>
      <trkpt lat="45.03308" lon="6.49676">
        <ele>2620.2</ele>
        <time>2021-02-28T12:19:23Z</time>
      </trkpt>
      <trkpt lat="45.03309" lon="6.49676">
        <ele>2620.6</ele>
        <time>2021-02-28T12:19:24Z</time>
      </trkpt>
      <trkpt lat="45.0331" lon="6.49677">
        <ele>2621</ele>
        <time>2021-02-28T12:19:25Z</time>
      </trkpt>
      <trkpt lat="45.0331" lon="6.49677">
        <ele>2621.2</ele>
        <time>2021-02-28T12:19:26Z</time>
      </trkpt>
      <trkpt lat="45.03311" lon="6.49677">
        <ele>2621.6</ele>
        <time>2021-02-28T12:19:27Z</time>
      </trkpt>
      <trkpt lat="45.03312" lon="6.49677">
        <ele>2621.8</ele>
        <time>2021-02-28T12:19:28Z</time>
      </trkpt>
      <trkpt lat="45.03313" lon="6.49678">
        <ele>2622.2</ele>
        <time>2021-02-28T12:19:29Z</time>
      </trkpt>
      <trkpt lat="45.03313" lon="6.49678">
        <ele>2622.8</ele>
        <time>2021-02-28T12:19:30Z</time>
      </trkpt>
      <trkpt lat="45.03313" lon="6.49678">
        <ele>2623.6</ele>
        <time>2021-02-28T12:19:31Z</time>
      </trkpt>
      <trkpt lat="45.03313" lon="6.49678">
        <ele>2623.8</ele>
        <time>2021-02-28T12:19:32Z</time>
      </trkpt>
      <trkpt lat="45.03313" lon="6.49678">
        <ele>2624</ele>
        <time>2021-02-28T12:19:33Z</time>
      </trkpt>
      <trkpt lat="45.03313" lon="6.49678">
        <ele>2624.8</ele>
        <time>2021-02-28T12:19:34Z</time>
      </trkpt>
      <trkpt lat="45.03313" lon="6.49678">
        <ele>2625.4</ele>
        <time>2021-02-28T12:19:35Z</time>
      </trkpt>
      <trkpt lat="45.03315" lon="6.4968">
        <ele>2625.6</ele>
        <time>2021-02-28T12:19:36Z</time>
      </trkpt>
      <trkpt lat="45.03315" lon="6.4968">
        <ele>2625.6</ele>
        <time>2021-02-28T12:19:37Z</time>
      </trkpt>
      <trkpt lat="45.03315" lon="6.4968">
        <ele>2626</ele>
        <time>2021-02-28T12:19:38Z</time>
      </trkpt>
      <trkpt lat="45.03313" lon="6.49682">
        <ele>2626.4</ele>
        <time>2021-02-28T12:19:39Z</time>
      </trkpt>
      <trkpt lat="45.03313" lon="6.49682">
        <ele>2626.4</ele>
        <time>2021-02-28T12:19:40Z</time>
      </trkpt>
      <trkpt lat="45.03313" lon="6.49682">
        <ele>2626.8</ele>
        <time>2021-02-28T12:19:41Z</time>
      </trkpt>
      <trkpt lat="45.0331" lon="6.49684">
        <ele>2627.4</ele>
        <time>2021-02-28T12:19:42Z</time>
      </trkpt>
      <trkpt lat="45.0331" lon="6.49684">
        <ele>2627.6</ele>
        <time>2021-02-28T12:19:43Z</time>
      </trkpt>
      <trkpt lat="45.0331" lon="6.49684">
        <ele>2628.2</ele>
        <time>2021-02-28T12:19:44Z</time>
      </trkpt>
      <trkpt lat="45.03308" lon="6.49686">
        <ele>2628.6</ele>
        <time>2021-02-28T12:19:45Z</time>
      </trkpt>
      <trkpt lat="45.03308" lon="6.49686">
        <ele>2628.2</ele>
        <time>2021-02-28T12:19:46Z</time>
      </trkpt>
      <trkpt lat="45.03306" lon="6.49688">
        <ele>2628.4</ele>
        <time>2021-02-28T12:19:47Z</time>
      </trkpt>
      <trkpt lat="45.03306" lon="6.49688">
        <ele>2629</ele>
        <time>2021-02-28T12:19:48Z</time>
      </trkpt>
      <trkpt lat="45.03305" lon="6.4969">
        <ele>2628.6</ele>
        <time>2021-02-28T12:19:49Z</time>
      </trkpt>
      <trkpt lat="45.03305" lon="6.4969">
        <ele>2629</ele>
        <time>2021-02-28T12:19:50Z</time>
      </trkpt>
      <trkpt lat="45.03303" lon="6.49691">
        <ele>2629.4</ele>
        <time>2021-02-28T12:19:51Z</time>
      </trkpt>
      <trkpt lat="45.03303" lon="6.49691">
        <ele>2629.4</ele>
        <time>2021-02-28T12:19:52Z</time>
      </trkpt>
      <trkpt lat="45.03303" lon="6.49691">
        <ele>2630</ele>
        <time>2021-02-28T12:19:53Z</time>
      </trkpt>
      <trkpt lat="45.03301" lon="6.49692">
        <ele>2630</ele>
        <time>2021-02-28T12:19:54Z</time>
      </trkpt>
      <trkpt lat="45.03301" lon="6.49692">
        <ele>2629.8</ele>
        <time>2021-02-28T12:19:55Z</time>
      </trkpt>
      <trkpt lat="45.03301" lon="6.49692">
        <ele>2630.2</ele>
        <time>2021-02-28T12:19:56Z</time>
      </trkpt>
      <trkpt lat="45.03298" lon="6.49693">
        <ele>2630.2</ele>
        <time>2021-02-28T12:19:57Z</time>
      </trkpt>
      <trkpt lat="45.03298" lon="6.49693">
        <ele>2630.6</ele>
        <time>2021-02-28T12:19:58Z</time>
      </trkpt>
      <trkpt lat="45.03298" lon="6.49693">
        <ele>2630.8</ele>
        <time>2021-02-28T12:19:59Z</time>
      </trkpt>
      <trkpt lat="45.03297" lon="6.49693">
        <ele>2630.6</ele>
        <time>2021-02-28T12:20:00Z</time>
      </trkpt>
      <trkpt lat="45.03296" lon="6.49693">
        <ele>2631</ele>
        <time>2021-02-28T12:20:01Z</time>
      </trkpt>
      <trkpt lat="45.03296" lon="6.49693">
        <ele>2631.2</ele>
        <time>2021-02-28T12:20:02Z</time>
      </trkpt>
      <trkpt lat="45.03295" lon="6.49694">
        <ele>2631.6</ele>
        <time>2021-02-28T12:20:03Z</time>
      </trkpt>
      <trkpt lat="45.03294" lon="6.49694">
        <ele>2631.4</ele>
        <time>2021-02-28T12:20:04Z</time>
      </trkpt>
      <trkpt lat="45.03293" lon="6.49694">
        <ele>2631.6</ele>
        <time>2021-02-28T12:20:05Z</time>
      </trkpt>
      <trkpt lat="45.03292" lon="6.49695">
        <ele>2631.8</ele>
        <time>2021-02-28T12:20:06Z</time>
      </trkpt>
      <trkpt lat="45.03292" lon="6.49695">
        <ele>2632</ele>
        <time>2021-02-28T12:20:07Z</time>
      </trkpt>
      <trkpt lat="45.03288" lon="6.49697">
        <ele>2633</ele>
        <time>2021-02-28T12:20:08Z</time>
      </trkpt>
      <trkpt lat="45.03288" lon="6.49697">
        <ele>2632.8</ele>
        <time>2021-02-28T12:20:09Z</time>
      </trkpt>
      <trkpt lat="45.03288" lon="6.49697">
        <ele>2632.8</ele>
        <time>2021-02-28T12:20:10Z</time>
      </trkpt>
      <trkpt lat="45.03287" lon="6.49697">
        <ele>2633</ele>
        <time>2021-02-28T12:20:11Z</time>
      </trkpt>
      <trkpt lat="45.03286" lon="6.49697">
        <ele>2632.8</ele>
        <time>2021-02-28T12:20:12Z</time>
      </trkpt>
      <trkpt lat="45.03286" lon="6.49697">
        <ele>2633.2</ele>
        <time>2021-02-28T12:20:13Z</time>
      </trkpt>
      <trkpt lat="45.03285" lon="6.49697">
        <ele>2633.4</ele>
        <time>2021-02-28T12:20:14Z</time>
      </trkpt>
      <trkpt lat="45.03284" lon="6.49697">
        <ele>2633.4</ele>
        <time>2021-02-28T12:20:15Z</time>
      </trkpt>
      <trkpt lat="45.03283" lon="6.49698">
        <ele>2633.8</ele>
        <time>2021-02-28T12:20:16Z</time>
      </trkpt>
      <trkpt lat="45.03282" lon="6.49698">
        <ele>2633.8</ele>
        <time>2021-02-28T12:20:17Z</time>
      </trkpt>
      <trkpt lat="45.03281" lon="6.49698">
        <ele>2633.6</ele>
        <time>2021-02-28T12:20:18Z</time>
      </trkpt>
      <trkpt lat="45.0328" lon="6.49698">
        <ele>2634.2</ele>
        <time>2021-02-28T12:20:19Z</time>
      </trkpt>
      <trkpt lat="45.0328" lon="6.49699">
        <ele>2634.2</ele>
        <time>2021-02-28T12:20:20Z</time>
      </trkpt>
      <trkpt lat="45.03279" lon="6.49699">
        <ele>2634.2</ele>
        <time>2021-02-28T12:20:21Z</time>
      </trkpt>
      <trkpt lat="45.03278" lon="6.49699">
        <ele>2634</ele>
        <time>2021-02-28T12:20:22Z</time>
      </trkpt>
      <trkpt lat="45.03278" lon="6.49699">
        <ele>2634.4</ele>
        <time>2021-02-28T12:20:23Z</time>
      </trkpt>
      <trkpt lat="45.03277" lon="6.497">
        <ele>2634.6</ele>
        <time>2021-02-28T12:20:24Z</time>
      </trkpt>
      <trkpt lat="45.03276" lon="6.497">
        <ele>2634.6</ele>
        <time>2021-02-28T12:20:25Z</time>
      </trkpt>
      <trkpt lat="45.03275" lon="6.497">
        <ele>2634.8</ele>
        <time>2021-02-28T12:20:26Z</time>
      </trkpt>
      <trkpt lat="45.03275" lon="6.497">
        <ele>2634.8</ele>
        <time>2021-02-28T12:20:27Z</time>
      </trkpt>
      <trkpt lat="45.03274" lon="6.49701">
        <ele>2635</ele>
        <time>2021-02-28T12:20:28Z</time>
      </trkpt>
      <trkpt lat="45.03273" lon="6.49701">
        <ele>2635</ele>
        <time>2021-02-28T12:20:29Z</time>
      </trkpt>
      <trkpt lat="45.03272" lon="6.49701">
        <ele>2635.4</ele>
        <time>2021-02-28T12:20:30Z</time>
      </trkpt>
      <trkpt lat="45.03271" lon="6.49701">
        <ele>2635.6</ele>
        <time>2021-02-28T12:20:31Z</time>
      </trkpt>
      <trkpt lat="45.0327" lon="6.49702">
        <ele>2635.6</ele>
        <time>2021-02-28T12:20:32Z</time>
      </trkpt>
      <trkpt lat="45.03269" lon="6.49702">
        <ele>2635.6</ele>
        <time>2021-02-28T12:20:33Z</time>
      </trkpt>
      <trkpt lat="45.03268" lon="6.49702">
        <ele>2635.8</ele>
        <time>2021-02-28T12:20:34Z</time>
      </trkpt>
      <trkpt lat="45.03267" lon="6.49703">
        <ele>2636</ele>
        <time>2021-02-28T12:20:35Z</time>
      </trkpt>
      <trkpt lat="45.03266" lon="6.49703">
        <ele>2635.8</ele>
        <time>2021-02-28T12:20:36Z</time>
      </trkpt>
      <trkpt lat="45.03266" lon="6.49703">
        <ele>2636</ele>
        <time>2021-02-28T12:20:37Z</time>
      </trkpt>
      <trkpt lat="45.03265" lon="6.49703">
        <ele>2636.4</ele>
        <time>2021-02-28T12:20:38Z</time>
      </trkpt>
      <trkpt lat="45.03263" lon="6.49703">
        <ele>2636.4</ele>
        <time>2021-02-28T12:20:39Z</time>
      </trkpt>
      <trkpt lat="45.03262" lon="6.49703">
        <ele>2636.8</ele>
        <time>2021-02-28T12:20:40Z</time>
      </trkpt>
      <trkpt lat="45.03261" lon="6.49703">
        <ele>2636.6</ele>
        <time>2021-02-28T12:20:41Z</time>
      </trkpt>
      <trkpt lat="45.0326" lon="6.49703">
        <ele>2637.2</ele>
        <time>2021-02-28T12:20:42Z</time>
      </trkpt>
      <trkpt lat="45.03259" lon="6.49703">
        <ele>2637.4</ele>
        <time>2021-02-28T12:20:43Z</time>
      </trkpt>
      <trkpt lat="45.03258" lon="6.49702">
        <ele>2637.6</ele>
        <time>2021-02-28T12:20:44Z</time>
      </trkpt>
      <trkpt lat="45.03256" lon="6.49702">
        <ele>2637.8</ele>
        <time>2021-02-28T12:20:45Z</time>
      </trkpt>
      <trkpt lat="45.03255" lon="6.49702">
        <ele>2637.8</ele>
        <time>2021-02-28T12:20:46Z</time>
      </trkpt>
      <trkpt lat="45.03254" lon="6.49702">
        <ele>2637.8</ele>
        <time>2021-02-28T12:20:47Z</time>
      </trkpt>
      <trkpt lat="45.03253" lon="6.49702">
        <ele>2638</ele>
        <time>2021-02-28T12:20:48Z</time>
      </trkpt>
      <trkpt lat="45.03252" lon="6.49702">
        <ele>2638</ele>
        <time>2021-02-28T12:20:49Z</time>
      </trkpt>
      <trkpt lat="45.03251" lon="6.49702">
        <ele>2638.2</ele>
        <time>2021-02-28T12:20:50Z</time>
      </trkpt>
      <trkpt lat="45.0325" lon="6.49702">
        <ele>2638</ele>
        <time>2021-02-28T12:20:51Z</time>
      </trkpt>
      <trkpt lat="45.0325" lon="6.49702">
        <ele>2637.8</ele>
        <time>2021-02-28T12:20:52Z</time>
      </trkpt>
      <trkpt lat="45.03249" lon="6.49702">
        <ele>2638</ele>
        <time>2021-02-28T12:20:53Z</time>
      </trkpt>
      <trkpt lat="45.03248" lon="6.49702">
        <ele>2638.2</ele>
        <time>2021-02-28T12:20:54Z</time>
      </trkpt>
      <trkpt lat="45.03247" lon="6.49701">
        <ele>2638.4</ele>
        <time>2021-02-28T12:20:55Z</time>
      </trkpt>
      <trkpt lat="45.03246" lon="6.49701">
        <ele>2638.6</ele>
        <time>2021-02-28T12:20:56Z</time>
      </trkpt>
      <trkpt lat="45.03246" lon="6.49701">
        <ele>2639</ele>
        <time>2021-02-28T12:20:57Z</time>
      </trkpt>
      <trkpt lat="45.03246" lon="6.49701">
        <ele>2638.6</ele>
        <time>2021-02-28T12:20:58Z</time>
      </trkpt>
      <trkpt lat="45.03245" lon="6.49702">
        <ele>2638.6</ele>
        <time>2021-02-28T12:20:59Z</time>
      </trkpt>
      <trkpt lat="45.03245" lon="6.49702">
        <ele>2638.4</ele>
        <time>2021-02-28T12:21:00Z</time>
      </trkpt>
      <trkpt lat="45.03245" lon="6.49702">
        <ele>2638.4</ele>
        <time>2021-02-28T12:21:01Z</time>
      </trkpt>
      <trkpt lat="45.03245" lon="6.49702">
        <ele>2639</ele>
        <time>2021-02-28T12:21:02Z</time>
      </trkpt>
      <trkpt lat="45.03245" lon="6.49702">
        <ele>2638.8</ele>
        <time>2021-02-28T12:21:03Z</time>
      </trkpt>
      <trkpt lat="45.03245" lon="6.49702">
        <ele>2638.6</ele>
        <time>2021-02-28T12:21:04Z</time>
      </trkpt>
      <trkpt lat="45.03245" lon="6.49702">
        <ele>2638.6</ele>
        <time>2021-02-28T12:21:05Z</time>
      </trkpt>
      <trkpt lat="45.03245" lon="6.49702">
        <ele>2638.4</ele>
        <time>2021-02-28T12:21:06Z</time>
      </trkpt>
      <trkpt lat="45.03245" lon="6.49702">
        <ele>2638</ele>
        <time>2021-02-28T12:21:07Z</time>
      </trkpt>
      <trkpt lat="45.03245" lon="6.49702">
        <ele>2638</ele>
        <time>2021-02-28T12:21:08Z</time>
      </trkpt>
      <trkpt lat="45.03245" lon="6.49702">
        <ele>2637.8</ele>
        <time>2021-02-28T12:21:09Z</time>
      </trkpt>
      <trkpt lat="45.03245" lon="6.49702">
        <ele>2637.6</ele>
        <time>2021-02-28T12:21:10Z</time>
      </trkpt>
      <trkpt lat="45.03244" lon="6.49702">
        <ele>2637.4</ele>
        <time>2021-02-28T12:21:11Z</time>
      </trkpt>
      <trkpt lat="45.03244" lon="6.49702">
        <ele>2637.6</ele>
        <time>2021-02-28T12:21:12Z</time>
      </trkpt>
      <trkpt lat="45.03244" lon="6.49702">
        <ele>2637.8</ele>
        <time>2021-02-28T12:21:13Z</time>
      </trkpt>
      <trkpt lat="45.03244" lon="6.49703">
        <ele>2638.2</ele>
        <time>2021-02-28T12:21:14Z</time>
      </trkpt>
      <trkpt lat="45.03244" lon="6.49703">
        <ele>2638.4</ele>
        <time>2021-02-28T12:21:15Z</time>
      </trkpt>
      <trkpt lat="45.03244" lon="6.49703">
        <ele>2638.6</ele>
        <time>2021-02-28T12:21:16Z</time>
      </trkpt>
      <trkpt lat="45.03244" lon="6.49703">
        <ele>2638.8</ele>
        <time>2021-02-28T12:21:17Z</time>
      </trkpt>
      <trkpt lat="45.03244" lon="6.49703">
        <ele>2638.8</ele>
        <time>2021-02-28T12:21:18Z</time>
      </trkpt>
      <trkpt lat="45.03244" lon="6.49703">
        <ele>2638.8</ele>
        <time>2021-02-28T12:21:19Z</time>
      </trkpt>
      <trkpt lat="45.03244" lon="6.49703">
        <ele>2638.2</ele>
        <time>2021-02-28T12:21:20Z</time>
      </trkpt>
      <trkpt lat="45.03244" lon="6.49703">
        <ele>2638.2</ele>
        <time>2021-02-28T12:21:21Z</time>
      </trkpt>
      <trkpt lat="45.03243" lon="6.49703">
        <ele>2638.6</ele>
        <time>2021-02-28T12:21:22Z</time>
      </trkpt>
      <trkpt lat="45.03243" lon="6.49703">
        <ele>2638.6</ele>
        <time>2021-02-28T12:21:23Z</time>
      </trkpt>
      <trkpt lat="45.03243" lon="6.49703">
        <ele>2638.8</ele>
        <time>2021-02-28T12:21:24Z</time>
      </trkpt>
      <trkpt lat="45.03243" lon="6.49703">
        <ele>2638.8</ele>
        <time>2021-02-28T12:21:25Z</time>
      </trkpt>
      <trkpt lat="45.03243" lon="6.49703">
        <ele>2638.6</ele>
        <time>2021-02-28T12:21:26Z</time>
      </trkpt>
      <trkpt lat="45.03243" lon="6.49703">
        <ele>2638.6</ele>
        <time>2021-02-28T12:21:27Z</time>
      </trkpt>
      <trkpt lat="45.03243" lon="6.49703">
        <ele>2638.6</ele>
        <time>2021-02-28T12:21:28Z</time>
      </trkpt>
      <trkpt lat="45.03243" lon="6.49704">
        <ele>2638.6</ele>
        <time>2021-02-28T12:21:29Z</time>
      </trkpt>
      <trkpt lat="45.03243" lon="6.49704">
        <ele>2638.8</ele>
        <time>2021-02-28T12:21:30Z</time>
      </trkpt>
      <trkpt lat="45.03243" lon="6.49704">
        <ele>2639</ele>
        <time>2021-02-28T12:21:31Z</time>
      </trkpt>
      <trkpt lat="45.03243" lon="6.49704">
        <ele>2639</ele>
        <time>2021-02-28T12:21:32Z</time>
      </trkpt>
      <trkpt lat="45.03242" lon="6.49704">
        <ele>2639.2</ele>
        <time>2021-02-28T12:21:33Z</time>
      </trkpt>
      <trkpt lat="45.03242" lon="6.49704">
        <ele>2639.2</ele>
        <time>2021-02-28T12:21:34Z</time>
      </trkpt>
      <trkpt lat="45.03242" lon="6.49704">
        <ele>2639.2</ele>
        <time>2021-02-28T12:21:35Z</time>
      </trkpt>
      <trkpt lat="45.03242" lon="6.49704">
        <ele>2638.8</ele>
        <time>2021-02-28T12:21:36Z</time>
      </trkpt>
      <trkpt lat="45.03242" lon="6.49704">
        <ele>2638.4</ele>
        <time>2021-02-28T12:21:37Z</time>
      </trkpt>
      <trkpt lat="45.03242" lon="6.49704">
        <ele>2638.2</ele>
        <time>2021-02-28T12:21:38Z</time>
      </trkpt>
      <trkpt lat="45.03242" lon="6.49704">
        <ele>2638.6</ele>
        <time>2021-02-28T12:21:39Z</time>
      </trkpt>
      <trkpt lat="45.03242" lon="6.49704">
        <ele>2638.6</ele>
        <time>2021-02-28T12:21:40Z</time>
      </trkpt>
      <trkpt lat="45.03242" lon="6.49704">
        <ele>2639</ele>
        <time>2021-02-28T12:21:41Z</time>
      </trkpt>
      <trkpt lat="45.03242" lon="6.49704">
        <ele>2639.2</ele>
        <time>2021-02-28T12:21:42Z</time>
      </trkpt>
      <trkpt lat="45.03242" lon="6.49704">
        <ele>2639.6</ele>
        <time>2021-02-28T12:21:43Z</time>
      </trkpt>
      <trkpt lat="45.03242" lon="6.49705">
        <ele>2639.8</ele>
        <time>2021-02-28T12:21:44Z</time>
      </trkpt>
      <trkpt lat="45.03241" lon="6.49705">
        <ele>2639.8</ele>
        <time>2021-02-28T12:21:45Z</time>
      </trkpt>
      <trkpt lat="45.03241" lon="6.49705">
        <ele>2639.6</ele>
        <time>2021-02-28T12:21:46Z</time>
      </trkpt>
      <trkpt lat="45.03241" lon="6.49705">
        <ele>2639.4</ele>
        <time>2021-02-28T12:21:47Z</time>
      </trkpt>
      <trkpt lat="45.03241" lon="6.49705">
        <ele>2639.2</ele>
        <time>2021-02-28T12:21:48Z</time>
      </trkpt>
      <trkpt lat="45.03241" lon="6.49705">
        <ele>2639.4</ele>
        <time>2021-02-28T12:21:49Z</time>
      </trkpt>
      <trkpt lat="45.03241" lon="6.49705">
        <ele>2639.4</ele>
        <time>2021-02-28T12:21:50Z</time>
      </trkpt>
      <trkpt lat="45.03241" lon="6.49705">
        <ele>2639.6</ele>
        <time>2021-02-28T12:21:51Z</time>
      </trkpt>
      <trkpt lat="45.03241" lon="6.49705">
        <ele>2640</ele>
        <time>2021-02-28T12:21:52Z</time>
      </trkpt>
      <trkpt lat="45.03241" lon="6.49705">
        <ele>2640.4</ele>
        <time>2021-02-28T12:21:53Z</time>
      </trkpt>
      <trkpt lat="45.03241" lon="6.49705">
        <ele>2640.2</ele>
        <time>2021-02-28T12:21:54Z</time>
      </trkpt>
      <trkpt lat="45.03241" lon="6.49705">
        <ele>2640</ele>
        <time>2021-02-28T12:21:55Z</time>
      </trkpt>
      <trkpt lat="45.0324" lon="6.49705">
        <ele>2640.4</ele>
        <time>2021-02-28T12:21:56Z</time>
      </trkpt>
      <trkpt lat="45.0324" lon="6.49705">
        <ele>2640.6</ele>
        <time>2021-02-28T12:21:57Z</time>
      </trkpt>
      <trkpt lat="45.0324" lon="6.49705">
        <ele>2640.6</ele>
        <time>2021-02-28T12:21:58Z</time>
      </trkpt>
      <trkpt lat="45.0324" lon="6.49706">
        <ele>2640.8</ele>
        <time>2021-02-28T12:21:59Z</time>
      </trkpt>
      <trkpt lat="45.0324" lon="6.49706">
        <ele>2640.6</ele>
        <time>2021-02-28T12:22:00Z</time>
      </trkpt>
      <trkpt lat="45.0324" lon="6.49706">
        <ele>2640.6</ele>
        <time>2021-02-28T12:22:01Z</time>
      </trkpt>
      <trkpt lat="45.0324" lon="6.49706">
        <ele>2640.8</ele>
        <time>2021-02-28T12:22:02Z</time>
      </trkpt>
      <trkpt lat="45.0324" lon="6.49706">
        <ele>2641.2</ele>
        <time>2021-02-28T12:22:03Z</time>
      </trkpt>
      <trkpt lat="45.0324" lon="6.49706">
        <ele>2641.4</ele>
        <time>2021-02-28T12:22:04Z</time>
      </trkpt>
      <trkpt lat="45.0324" lon="6.49706">
        <ele>2641.6</ele>
        <time>2021-02-28T12:22:05Z</time>
      </trkpt>
      <trkpt lat="45.0324" lon="6.49706">
        <ele>2641.8</ele>
        <time>2021-02-28T12:22:06Z</time>
      </trkpt>
      <trkpt lat="45.03239" lon="6.49706">
        <ele>2642.2</ele>
        <time>2021-02-28T12:22:07Z</time>
      </trkpt>
      <trkpt lat="45.03239" lon="6.49706">
        <ele>2642.4</ele>
        <time>2021-02-28T12:22:08Z</time>
      </trkpt>
      <trkpt lat="45.03239" lon="6.49706">
        <ele>2643</ele>
        <time>2021-02-28T12:22:09Z</time>
      </trkpt>
      <trkpt lat="45.03239" lon="6.49706">
        <ele>2643.2</ele>
        <time>2021-02-28T12:22:10Z</time>
      </trkpt>
      <trkpt lat="45.03239" lon="6.49706">
        <ele>2643.4</ele>
        <time>2021-02-28T12:22:11Z</time>
      </trkpt>
      <trkpt lat="45.03239" lon="6.49706">
        <ele>2643.6</ele>
        <time>2021-02-28T12:22:12Z</time>
      </trkpt>
      <trkpt lat="45.03239" lon="6.49706">
        <ele>2644</ele>
        <time>2021-02-28T12:22:13Z</time>
      </trkpt>
      <trkpt lat="45.03239" lon="6.49707">
        <ele>2643.8</ele>
        <time>2021-02-28T12:22:14Z</time>
      </trkpt>
      <trkpt lat="45.03239" lon="6.49707">
        <ele>2643.6</ele>
        <time>2021-02-28T12:22:15Z</time>
      </trkpt>
      <trkpt lat="45.03239" lon="6.49707">
        <ele>2643.8</ele>
        <time>2021-02-28T12:22:16Z</time>
      </trkpt>
      <trkpt lat="45.03239" lon="6.49707">
        <ele>2644</ele>
        <time>2021-02-28T12:22:17Z</time>
      </trkpt>
      <trkpt lat="45.03239" lon="6.49707">
        <ele>2644.6</ele>
        <time>2021-02-28T12:22:18Z</time>
      </trkpt>
      <trkpt lat="45.03238" lon="6.49707">
        <ele>2644.8</ele>
        <time>2021-02-28T12:22:19Z</time>
      </trkpt>
      <trkpt lat="45.03238" lon="6.49707">
        <ele>2644.8</ele>
        <time>2021-02-28T12:22:20Z</time>
      </trkpt>
      <trkpt lat="45.03238" lon="6.49707">
        <ele>2645.4</ele>
        <time>2021-02-28T12:22:21Z</time>
      </trkpt>
      <trkpt lat="45.03238" lon="6.49707">
        <ele>2645.4</ele>
        <time>2021-02-28T12:22:22Z</time>
      </trkpt>
      <trkpt lat="45.03238" lon="6.49707">
        <ele>2645.4</ele>
        <time>2021-02-28T12:22:23Z</time>
      </trkpt>
      <trkpt lat="45.03238" lon="6.49707">
        <ele>2645.6</ele>
        <time>2021-02-28T12:22:24Z</time>
      </trkpt>
      <trkpt lat="45.03238" lon="6.49707">
        <ele>2645.8</ele>
        <time>2021-02-28T12:22:25Z</time>
      </trkpt>
      <trkpt lat="45.03238" lon="6.49707">
        <ele>2646</ele>
        <time>2021-02-28T12:22:26Z</time>
      </trkpt>
      <trkpt lat="45.03238" lon="6.49707">
        <ele>2646.4</ele>
        <time>2021-02-28T12:22:27Z</time>
      </trkpt>
      <trkpt lat="45.03238" lon="6.49707">
        <ele>2646.4</ele>
        <time>2021-02-28T12:22:28Z</time>
      </trkpt>
      <trkpt lat="45.03238" lon="6.49707">
        <ele>2646.8</ele>
        <time>2021-02-28T12:22:29Z</time>
      </trkpt>
      <trkpt lat="45.03238" lon="6.4971">
        <ele>2647</ele>
        <time>2021-02-28T12:22:30Z</time>
      </trkpt>
      <trkpt lat="45.03238" lon="6.4971">
        <ele>2647.4</ele>
        <time>2021-02-28T12:22:31Z</time>
      </trkpt>
      <trkpt lat="45.03238" lon="6.4971">
        <ele>2647.4</ele>
        <time>2021-02-28T12:22:32Z</time>
      </trkpt>
      <trkpt lat="45.03238" lon="6.4971">
        <ele>2647.2</ele>
        <time>2021-02-28T12:22:33Z</time>
      </trkpt>
      <trkpt lat="45.03238" lon="6.4971">
        <ele>2647.2</ele>
        <time>2021-02-28T12:22:34Z</time>
      </trkpt>
      <trkpt lat="45.03238" lon="6.4971">
        <ele>2647.4</ele>
        <time>2021-02-28T12:22:35Z</time>
      </trkpt>
      <trkpt lat="45.03238" lon="6.4971">
        <ele>2647.8</ele>
        <time>2021-02-28T12:22:36Z</time>
      </trkpt>
      <trkpt lat="45.03238" lon="6.4971">
        <ele>2648</ele>
        <time>2021-02-28T12:22:37Z</time>
      </trkpt>
      <trkpt lat="45.03237" lon="6.49713">
        <ele>2648.4</ele>
        <time>2021-02-28T12:22:38Z</time>
      </trkpt>
      <trkpt lat="45.03237" lon="6.49713">
        <ele>2648.4</ele>
        <time>2021-02-28T12:22:39Z</time>
      </trkpt>
      <trkpt lat="45.03237" lon="6.49713">
        <ele>2648.6</ele>
        <time>2021-02-28T12:22:40Z</time>
      </trkpt>
      <trkpt lat="45.03237" lon="6.49713">
        <ele>2648.4</ele>
        <time>2021-02-28T12:22:41Z</time>
      </trkpt>
      <trkpt lat="45.03237" lon="6.49713">
        <ele>2648.6</ele>
        <time>2021-02-28T12:22:42Z</time>
      </trkpt>
      <trkpt lat="45.03237" lon="6.49713">
        <ele>2648.6</ele>
        <time>2021-02-28T12:22:43Z</time>
      </trkpt>
      <trkpt lat="45.03237" lon="6.49713">
        <ele>2648.8</ele>
        <time>2021-02-28T12:22:44Z</time>
      </trkpt>
      <trkpt lat="45.03237" lon="6.49713">
        <ele>2649.2</ele>
        <time>2021-02-28T12:22:45Z</time>
      </trkpt>
      <trkpt lat="45.03237" lon="6.49713">
        <ele>2649.2</ele>
        <time>2021-02-28T12:22:46Z</time>
      </trkpt>
      <trkpt lat="45.03237" lon="6.49713">
        <ele>2649.6</ele>
        <time>2021-02-28T12:22:47Z</time>
      </trkpt>
      <trkpt lat="45.03237" lon="6.49713">
        <ele>2649.8</ele>
        <time>2021-02-28T12:22:48Z</time>
      </trkpt>
      <trkpt lat="45.03237" lon="6.49713">
        <ele>2649.8</ele>
        <time>2021-02-28T12:22:49Z</time>
      </trkpt>
      <trkpt lat="45.03237" lon="6.49713">
        <ele>2649.2</ele>
        <time>2021-02-28T12:22:50Z</time>
      </trkpt>
      <trkpt lat="45.03237" lon="6.49713">
        <ele>2649.6</ele>
        <time>2021-02-28T12:22:51Z</time>
      </trkpt>
      <trkpt lat="45.03237" lon="6.49713">
        <ele>2650</ele>
        <time>2021-02-28T12:22:52Z</time>
      </trkpt>
      <trkpt lat="45.03237" lon="6.49713">
        <ele>2650</ele>
        <time>2021-02-28T12:22:53Z</time>
      </trkpt>
      <trkpt lat="45.03237" lon="6.49713">
        <ele>2649.8</ele>
        <time>2021-02-28T12:22:54Z</time>
      </trkpt>
      <trkpt lat="45.03237" lon="6.49713">
        <ele>2649.8</ele>
        <time>2021-02-28T12:22:55Z</time>
      </trkpt>
      <trkpt lat="45.03235" lon="6.49716">
        <ele>2649.8</ele>
        <time>2021-02-28T12:22:56Z</time>
      </trkpt>
      <trkpt lat="45.03235" lon="6.49716">
        <ele>2650.2</ele>
        <time>2021-02-28T12:22:57Z</time>
      </trkpt>
      <trkpt lat="45.03235" lon="6.49716">
        <ele>2650.4</ele>
        <time>2021-02-28T12:22:58Z</time>
      </trkpt>
      <trkpt lat="45.03235" lon="6.49716">
        <ele>2650.4</ele>
        <time>2021-02-28T12:22:59Z</time>
      </trkpt>
      <trkpt lat="45.03235" lon="6.49716">
        <ele>2650.6</ele>
        <time>2021-02-28T12:23:00Z</time>
      </trkpt>
      <trkpt lat="45.03235" lon="6.49716">
        <ele>2650.8</ele>
        <time>2021-02-28T12:23:01Z</time>
      </trkpt>
      <trkpt lat="45.03235" lon="6.49716">
        <ele>2651.2</ele>
        <time>2021-02-28T12:23:02Z</time>
      </trkpt>
      <trkpt lat="45.03235" lon="6.49716">
        <ele>2651.6</ele>
        <time>2021-02-28T12:23:03Z</time>
      </trkpt>
      <trkpt lat="45.03235" lon="6.49716">
        <ele>2651.8</ele>
        <time>2021-02-28T12:23:04Z</time>
      </trkpt>
      <trkpt lat="45.03233" lon="6.49716">
        <ele>2652.2</ele>
        <time>2021-02-28T12:23:05Z</time>
      </trkpt>
      <trkpt lat="45.03233" lon="6.49716">
        <ele>2652.4</ele>
        <time>2021-02-28T12:23:06Z</time>
      </trkpt>
      <trkpt lat="45.03233" lon="6.49716">
        <ele>2652.4</ele>
        <time>2021-02-28T12:23:07Z</time>
      </trkpt>
      <trkpt lat="45.03233" lon="6.49716">
        <ele>2652.6</ele>
        <time>2021-02-28T12:23:08Z</time>
      </trkpt>
      <trkpt lat="45.03233" lon="6.49716">
        <ele>2652.6</ele>
        <time>2021-02-28T12:23:09Z</time>
      </trkpt>
      <trkpt lat="45.03233" lon="6.49716">
        <ele>2652.6</ele>
        <time>2021-02-28T12:23:10Z</time>
      </trkpt>
      <trkpt lat="45.03233" lon="6.49716">
        <ele>2652.8</ele>
        <time>2021-02-28T12:23:11Z</time>
      </trkpt>
      <trkpt lat="45.03231" lon="6.49718">
        <ele>2652.6</ele>
        <time>2021-02-28T12:23:12Z</time>
      </trkpt>
      <trkpt lat="45.03231" lon="6.49718">
        <ele>2652.6</ele>
        <time>2021-02-28T12:23:13Z</time>
      </trkpt>
      <trkpt lat="45.03231" lon="6.49718">
        <ele>2652.6</ele>
        <time>2021-02-28T12:23:14Z</time>
      </trkpt>
      <trkpt lat="45.03231" lon="6.49718">
        <ele>2652.8</ele>
        <time>2021-02-28T12:23:15Z</time>
      </trkpt>
      <trkpt lat="45.03231" lon="6.49718">
        <ele>2653</ele>
        <time>2021-02-28T12:23:16Z</time>
      </trkpt>
      <trkpt lat="45.03231" lon="6.49718">
        <ele>2653.2</ele>
        <time>2021-02-28T12:23:17Z</time>
      </trkpt>
      <trkpt lat="45.03231" lon="6.49718">
        <ele>2653.4</ele>
        <time>2021-02-28T12:23:18Z</time>
      </trkpt>
      <trkpt lat="45.03231" lon="6.49718">
        <ele>2653.6</ele>
        <time>2021-02-28T12:23:19Z</time>
      </trkpt>
      <trkpt lat="45.03229" lon="6.49719">
        <ele>2653.8</ele>
        <time>2021-02-28T12:23:20Z</time>
      </trkpt>
      <trkpt lat="45.03229" lon="6.49719">
        <ele>2653.8</ele>
        <time>2021-02-28T12:23:21Z</time>
      </trkpt>
      <trkpt lat="45.03229" lon="6.49719">
        <ele>2654</ele>
        <time>2021-02-28T12:23:22Z</time>
      </trkpt>
      <trkpt lat="45.03229" lon="6.49719">
        <ele>2654.6</ele>
        <time>2021-02-28T12:23:23Z</time>
      </trkpt>
      <trkpt lat="45.03229" lon="6.49719">
        <ele>2654.6</ele>
        <time>2021-02-28T12:23:24Z</time>
      </trkpt>
      <trkpt lat="45.03229" lon="6.49719">
        <ele>2655.2</ele>
        <time>2021-02-28T12:23:25Z</time>
      </trkpt>
      <trkpt lat="45.03228" lon="6.49722">
        <ele>2655.6</ele>
        <time>2021-02-28T12:23:26Z</time>
      </trkpt>
      <trkpt lat="45.03228" lon="6.49722">
        <ele>2655.4</ele>
        <time>2021-02-28T12:23:27Z</time>
      </trkpt>
      <trkpt lat="45.03228" lon="6.49722">
        <ele>2655.6</ele>
        <time>2021-02-28T12:23:28Z</time>
      </trkpt>
      <trkpt lat="45.03228" lon="6.49722">
        <ele>2655.8</ele>
        <time>2021-02-28T12:23:29Z</time>
      </trkpt>
      <trkpt lat="45.03226" lon="6.49723">
        <ele>2656.2</ele>
        <time>2021-02-28T12:23:30Z</time>
      </trkpt>
      <trkpt lat="45.03226" lon="6.49723">
        <ele>2656.2</ele>
        <time>2021-02-28T12:23:31Z</time>
      </trkpt>
      <trkpt lat="45.03226" lon="6.49723">
        <ele>2656.6</ele>
        <time>2021-02-28T12:23:32Z</time>
      </trkpt>
      <trkpt lat="45.03226" lon="6.49723">
        <ele>2657.2</ele>
        <time>2021-02-28T12:23:33Z</time>
      </trkpt>
      <trkpt lat="45.03226" lon="6.49723">
        <ele>2657</ele>
        <time>2021-02-28T12:23:34Z</time>
      </trkpt>
      <trkpt lat="45.03226" lon="6.49723">
        <ele>2657.2</ele>
        <time>2021-02-28T12:23:35Z</time>
      </trkpt>
      <trkpt lat="45.03225" lon="6.49724">
        <ele>2657.8</ele>
        <time>2021-02-28T12:23:36Z</time>
      </trkpt>
      <trkpt lat="45.03225" lon="6.49724">
        <ele>2658</ele>
        <time>2021-02-28T12:23:37Z</time>
      </trkpt>
      <trkpt lat="45.03225" lon="6.49724">
        <ele>2658.2</ele>
        <time>2021-02-28T12:23:38Z</time>
      </trkpt>
      <trkpt lat="45.03225" lon="6.49724">
        <ele>2658.2</ele>
        <time>2021-02-28T12:23:39Z</time>
      </trkpt>
      <trkpt lat="45.03225" lon="6.49724">
        <ele>2658</ele>
        <time>2021-02-28T12:23:40Z</time>
      </trkpt>
      <trkpt lat="45.03225" lon="6.49724">
        <ele>2658.4</ele>
        <time>2021-02-28T12:23:41Z</time>
      </trkpt>
      <trkpt lat="45.03223" lon="6.49726">
        <ele>2658.4</ele>
        <time>2021-02-28T12:23:42Z</time>
      </trkpt>
      <trkpt lat="45.03223" lon="6.49726">
        <ele>2658.8</ele>
        <time>2021-02-28T12:23:43Z</time>
      </trkpt>
      <trkpt lat="45.03223" lon="6.49726">
        <ele>2659.4</ele>
        <time>2021-02-28T12:23:44Z</time>
      </trkpt>
      <trkpt lat="45.03223" lon="6.49726">
        <ele>2659.8</ele>
        <time>2021-02-28T12:23:45Z</time>
      </trkpt>
      <trkpt lat="45.03223" lon="6.49726">
        <ele>2659.8</ele>
        <time>2021-02-28T12:23:46Z</time>
      </trkpt>
      <trkpt lat="45.03223" lon="6.49726">
        <ele>2660.2</ele>
        <time>2021-02-28T12:23:47Z</time>
      </trkpt>
      <trkpt lat="45.03221" lon="6.49728">
        <ele>2660.4</ele>
        <time>2021-02-28T12:23:48Z</time>
      </trkpt>
      <trkpt lat="45.03221" lon="6.49728">
        <ele>2661</ele>
        <time>2021-02-28T12:23:49Z</time>
      </trkpt>
      <trkpt lat="45.03221" lon="6.49728">
        <ele>2661.2</ele>
        <time>2021-02-28T12:23:50Z</time>
      </trkpt>
      <trkpt lat="45.03221" lon="6.49728">
        <ele>2661.2</ele>
        <time>2021-02-28T12:23:51Z</time>
      </trkpt>
      <trkpt lat="45.03221" lon="6.49728">
        <ele>2661.8</ele>
        <time>2021-02-28T12:23:52Z</time>
      </trkpt>
      <trkpt lat="45.03221" lon="6.49728">
        <ele>2662</ele>
        <time>2021-02-28T12:23:53Z</time>
      </trkpt>
      <trkpt lat="45.03221" lon="6.49728">
        <ele>2662.4</ele>
        <time>2021-02-28T12:23:54Z</time>
      </trkpt>
      <trkpt lat="45.03221" lon="6.49728">
        <ele>2662.4</ele>
        <time>2021-02-28T12:23:55Z</time>
      </trkpt>
      <trkpt lat="45.03221" lon="6.49728">
        <ele>2663.2</ele>
        <time>2021-02-28T12:23:56Z</time>
      </trkpt>
      <trkpt lat="45.03221" lon="6.49728">
        <ele>2663.4</ele>
        <time>2021-02-28T12:23:57Z</time>
      </trkpt>
      <trkpt lat="45.03221" lon="6.49728">
        <ele>2663.4</ele>
        <time>2021-02-28T12:23:58Z</time>
      </trkpt>
      <trkpt lat="45.0322" lon="6.49729">
        <ele>2663.6</ele>
        <time>2021-02-28T12:23:59Z</time>
      </trkpt>
      <trkpt lat="45.0322" lon="6.49729">
        <ele>2664</ele>
        <time>2021-02-28T12:24:00Z</time>
      </trkpt>
      <trkpt lat="45.0322" lon="6.49729">
        <ele>2664.2</ele>
        <time>2021-02-28T12:24:01Z</time>
      </trkpt>
      <trkpt lat="45.0322" lon="6.49729">
        <ele>2664</ele>
        <time>2021-02-28T12:24:02Z</time>
      </trkpt>
      <trkpt lat="45.0322" lon="6.49729">
        <ele>2664.6</ele>
        <time>2021-02-28T12:24:03Z</time>
      </trkpt>
      <trkpt lat="45.03218" lon="6.4973">
        <ele>2665</ele>
        <time>2021-02-28T12:24:04Z</time>
      </trkpt>
      <trkpt lat="45.03218" lon="6.4973">
        <ele>2665.4</ele>
        <time>2021-02-28T12:24:05Z</time>
      </trkpt>
      <trkpt lat="45.03218" lon="6.4973">
        <ele>2665.4</ele>
        <time>2021-02-28T12:24:06Z</time>
      </trkpt>
      <trkpt lat="45.03218" lon="6.4973">
        <ele>2665.6</ele>
        <time>2021-02-28T12:24:07Z</time>
      </trkpt>
      <trkpt lat="45.03216" lon="6.49731">
        <ele>2666</ele>
        <time>2021-02-28T12:24:08Z</time>
      </trkpt>
      <trkpt lat="45.03216" lon="6.49731">
        <ele>2666.2</ele>
        <time>2021-02-28T12:24:09Z</time>
      </trkpt>
      <trkpt lat="45.03216" lon="6.49731">
        <ele>2666.8</ele>
        <time>2021-02-28T12:24:10Z</time>
      </trkpt>
      <trkpt lat="45.03216" lon="6.49731">
        <ele>2667</ele>
        <time>2021-02-28T12:24:11Z</time>
      </trkpt>
      <trkpt lat="45.03214" lon="6.49732">
        <ele>2667.4</ele>
        <time>2021-02-28T12:24:12Z</time>
      </trkpt>
      <trkpt lat="45.03214" lon="6.49732">
        <ele>2667.4</ele>
        <time>2021-02-28T12:24:13Z</time>
      </trkpt>
      <trkpt lat="45.03214" lon="6.49732">
        <ele>2667.8</ele>
        <time>2021-02-28T12:24:14Z</time>
      </trkpt>
      <trkpt lat="45.03214" lon="6.49732">
        <ele>2668</ele>
        <time>2021-02-28T12:24:15Z</time>
      </trkpt>
      <trkpt lat="45.03214" lon="6.49732">
        <ele>2668</ele>
        <time>2021-02-28T12:24:16Z</time>
      </trkpt>
      <trkpt lat="45.03214" lon="6.49732">
        <ele>2668.2</ele>
        <time>2021-02-28T12:24:17Z</time>
      </trkpt>
      <trkpt lat="45.03214" lon="6.49732">
        <ele>2668.6</ele>
        <time>2021-02-28T12:24:18Z</time>
      </trkpt>
      <trkpt lat="45.03214" lon="6.49732">
        <ele>2668.4</ele>
        <time>2021-02-28T12:24:19Z</time>
      </trkpt>
      <trkpt lat="45.03213" lon="6.49734">
        <ele>2669</ele>
        <time>2021-02-28T12:24:20Z</time>
      </trkpt>
      <trkpt lat="45.03213" lon="6.49734">
        <ele>2669.2</ele>
        <time>2021-02-28T12:24:21Z</time>
      </trkpt>
      <trkpt lat="45.03213" lon="6.49734">
        <ele>2669.2</ele>
        <time>2021-02-28T12:24:22Z</time>
      </trkpt>
      <trkpt lat="45.03213" lon="6.49734">
        <ele>2669.6</ele>
        <time>2021-02-28T12:24:23Z</time>
      </trkpt>
      <trkpt lat="45.03213" lon="6.49734">
        <ele>2669.6</ele>
        <time>2021-02-28T12:24:24Z</time>
      </trkpt>
      <trkpt lat="45.03213" lon="6.49734">
        <ele>2669.8</ele>
        <time>2021-02-28T12:24:25Z</time>
      </trkpt>
      <trkpt lat="45.03211" lon="6.49736">
        <ele>2670</ele>
        <time>2021-02-28T12:24:26Z</time>
      </trkpt>
      <trkpt lat="45.03211" lon="6.49736">
        <ele>2670.6</ele>
        <time>2021-02-28T12:24:27Z</time>
      </trkpt>
      <trkpt lat="45.03211" lon="6.49736">
        <ele>2670.6</ele>
        <time>2021-02-28T12:24:28Z</time>
      </trkpt>
      <trkpt lat="45.03211" lon="6.49736">
        <ele>2671.2</ele>
        <time>2021-02-28T12:24:29Z</time>
      </trkpt>
      <trkpt lat="45.03209" lon="6.49736">
        <ele>2671.4</ele>
        <time>2021-02-28T12:24:30Z</time>
      </trkpt>
      <trkpt lat="45.03209" lon="6.49736">
        <ele>2671.8</ele>
        <time>2021-02-28T12:24:31Z</time>
      </trkpt>
      <trkpt lat="45.03209" lon="6.49736">
        <ele>2672</ele>
        <time>2021-02-28T12:24:32Z</time>
      </trkpt>
      <trkpt lat="45.03209" lon="6.49736">
        <ele>2672.2</ele>
        <time>2021-02-28T12:24:33Z</time>
      </trkpt>
      <trkpt lat="45.03209" lon="6.49736">
        <ele>2672.2</ele>
        <time>2021-02-28T12:24:34Z</time>
      </trkpt>
      <trkpt lat="45.03207" lon="6.49737">
        <ele>2672.6</ele>
        <time>2021-02-28T12:24:35Z</time>
      </trkpt>
      <trkpt lat="45.03207" lon="6.49737">
        <ele>2672.4</ele>
        <time>2021-02-28T12:24:36Z</time>
      </trkpt>
      <trkpt lat="45.03207" lon="6.49737">
        <ele>2672.4</ele>
        <time>2021-02-28T12:24:37Z</time>
      </trkpt>
      <trkpt lat="45.03207" lon="6.49737">
        <ele>2673</ele>
        <time>2021-02-28T12:24:38Z</time>
      </trkpt>
      <trkpt lat="45.03206" lon="6.49739">
        <ele>2672.8</ele>
        <time>2021-02-28T12:24:39Z</time>
      </trkpt>
      <trkpt lat="45.03206" lon="6.49739">
        <ele>2673.8</ele>
        <time>2021-02-28T12:24:40Z</time>
      </trkpt>
      <trkpt lat="45.03206" lon="6.49739">
        <ele>2674.6</ele>
        <time>2021-02-28T12:24:41Z</time>
      </trkpt>
      <trkpt lat="45.03206" lon="6.49739">
        <ele>2674</ele>
        <time>2021-02-28T12:24:42Z</time>
      </trkpt>
      <trkpt lat="45.03206" lon="6.49739">
        <ele>2674.6</ele>
        <time>2021-02-28T12:24:43Z</time>
      </trkpt>
      <trkpt lat="45.03204" lon="6.49741">
        <ele>2674.4</ele>
        <time>2021-02-28T12:24:44Z</time>
      </trkpt>
      <trkpt lat="45.03204" lon="6.49741">
        <ele>2674.4</ele>
        <time>2021-02-28T12:24:45Z</time>
      </trkpt>
      <trkpt lat="45.03204" lon="6.49741">
        <ele>2675.4</ele>
        <time>2021-02-28T12:24:46Z</time>
      </trkpt>
      <trkpt lat="45.03204" lon="6.49741">
        <ele>2676</ele>
        <time>2021-02-28T12:24:47Z</time>
      </trkpt>
      <trkpt lat="45.03204" lon="6.49743">
        <ele>2676.2</ele>
        <time>2021-02-28T12:24:48Z</time>
      </trkpt>
      <trkpt lat="45.03204" lon="6.49743">
        <ele>2677</ele>
        <time>2021-02-28T12:24:49Z</time>
      </trkpt>
      <trkpt lat="45.03204" lon="6.49743">
        <ele>2677.8</ele>
        <time>2021-02-28T12:24:50Z</time>
      </trkpt>
      <trkpt lat="45.03204" lon="6.49746">
        <ele>2677.4</ele>
        <time>2021-02-28T12:24:51Z</time>
      </trkpt>
      <trkpt lat="45.03204" lon="6.49746">
        <ele>2677.8</ele>
        <time>2021-02-28T12:24:52Z</time>
      </trkpt>
      <trkpt lat="45.03204" lon="6.49746">
        <ele>2677</ele>
        <time>2021-02-28T12:24:53Z</time>
      </trkpt>
      <trkpt lat="45.03204" lon="6.49746">
        <ele>2677</ele>
        <time>2021-02-28T12:24:54Z</time>
      </trkpt>
      <trkpt lat="45.03203" lon="6.49749">
        <ele>2677.2</ele>
        <time>2021-02-28T12:24:55Z</time>
      </trkpt>
      <trkpt lat="45.03203" lon="6.49749">
        <ele>2676.6</ele>
        <time>2021-02-28T12:24:56Z</time>
      </trkpt>
      <trkpt lat="45.03203" lon="6.49749">
        <ele>2676.2</ele>
        <time>2021-02-28T12:24:57Z</time>
      </trkpt>
      <trkpt lat="45.03203" lon="6.49749">
        <ele>2676</ele>
        <time>2021-02-28T12:24:58Z</time>
      </trkpt>
      <trkpt lat="45.03201" lon="6.49751">
        <ele>2676</ele>
        <time>2021-02-28T12:24:59Z</time>
      </trkpt>
      <trkpt lat="45.03201" lon="6.49751">
        <ele>2676.2</ele>
        <time>2021-02-28T12:25:00Z</time>
      </trkpt>
      <trkpt lat="45.03201" lon="6.49751">
        <ele>2676.8</ele>
        <time>2021-02-28T12:25:01Z</time>
      </trkpt>
      <trkpt lat="45.03201" lon="6.49751">
        <ele>2676.6</ele>
        <time>2021-02-28T12:25:02Z</time>
      </trkpt>
      <trkpt lat="45.032" lon="6.49752">
        <ele>2676.8</ele>
        <time>2021-02-28T12:25:03Z</time>
      </trkpt>
      <trkpt lat="45.032" lon="6.49752">
        <ele>2676.6</ele>
        <time>2021-02-28T12:25:04Z</time>
      </trkpt>
      <trkpt lat="45.032" lon="6.49752">
        <ele>2676.2</ele>
        <time>2021-02-28T12:25:05Z</time>
      </trkpt>
      <trkpt lat="45.03198" lon="6.49754">
        <ele>2676.4</ele>
        <time>2021-02-28T12:25:06Z</time>
      </trkpt>
      <trkpt lat="45.03198" lon="6.49754">
        <ele>2676.6</ele>
        <time>2021-02-28T12:25:07Z</time>
      </trkpt>
      <trkpt lat="45.03198" lon="6.49754">
        <ele>2676.8</ele>
        <time>2021-02-28T12:25:08Z</time>
      </trkpt>
      <trkpt lat="45.03198" lon="6.49754">
        <ele>2676.8</ele>
        <time>2021-02-28T12:25:09Z</time>
      </trkpt>
      <trkpt lat="45.03198" lon="6.49754">
        <ele>2677</ele>
        <time>2021-02-28T12:25:10Z</time>
      </trkpt>
      <trkpt lat="45.03197" lon="6.49756">
        <ele>2677.4</ele>
        <time>2021-02-28T12:25:11Z</time>
      </trkpt>
      <trkpt lat="45.03197" lon="6.49756">
        <ele>2677.4</ele>
        <time>2021-02-28T12:25:12Z</time>
      </trkpt>
      <trkpt lat="45.03197" lon="6.49756">
        <ele>2676.6</ele>
        <time>2021-02-28T12:25:13Z</time>
      </trkpt>
      <trkpt lat="45.03197" lon="6.49756">
        <ele>2676.2</ele>
        <time>2021-02-28T12:25:14Z</time>
      </trkpt>
      <trkpt lat="45.03197" lon="6.49756">
        <ele>2676.4</ele>
        <time>2021-02-28T12:25:15Z</time>
      </trkpt>
      <trkpt lat="45.03197" lon="6.49756">
        <ele>2676.2</ele>
        <time>2021-02-28T12:25:16Z</time>
      </trkpt>
      <trkpt lat="45.03197" lon="6.49756">
        <ele>2675.4</ele>
        <time>2021-02-28T12:25:17Z</time>
      </trkpt>
      <trkpt lat="45.03197" lon="6.49756">
        <ele>2675.8</ele>
        <time>2021-02-28T12:25:18Z</time>
      </trkpt>
      <trkpt lat="45.03197" lon="6.49756">
        <ele>2675.8</ele>
        <time>2021-02-28T12:25:19Z</time>
      </trkpt>
      <trkpt lat="45.03197" lon="6.49756">
        <ele>2676</ele>
        <time>2021-02-28T12:25:20Z</time>
      </trkpt>
      <trkpt lat="45.03197" lon="6.49756">
        <ele>2677.2</ele>
        <time>2021-02-28T12:25:21Z</time>
      </trkpt>
      <trkpt lat="45.03197" lon="6.49756">
        <ele>2678</ele>
        <time>2021-02-28T12:25:22Z</time>
      </trkpt>
      <trkpt lat="45.03197" lon="6.49756">
        <ele>2677.6</ele>
        <time>2021-02-28T12:25:23Z</time>
      </trkpt>
      <trkpt lat="45.03197" lon="6.49756">
        <ele>2677.6</ele>
        <time>2021-02-28T12:25:24Z</time>
      </trkpt>
      <trkpt lat="45.03197" lon="6.49756">
        <ele>2677</ele>
        <time>2021-02-28T12:25:25Z</time>
      </trkpt>
      <trkpt lat="45.03197" lon="6.49756">
        <ele>2677.8</ele>
        <time>2021-02-28T12:25:26Z</time>
      </trkpt>
      <trkpt lat="45.03197" lon="6.49756">
        <ele>2678.2</ele>
        <time>2021-02-28T12:25:27Z</time>
      </trkpt>
      <trkpt lat="45.03197" lon="6.49756">
        <ele>2677</ele>
        <time>2021-02-28T12:25:28Z</time>
      </trkpt>
      <trkpt lat="45.03197" lon="6.49756">
        <ele>2677.4</ele>
        <time>2021-02-28T12:25:29Z</time>
      </trkpt>
      <trkpt lat="45.03197" lon="6.49756">
        <ele>2677.4</ele>
        <time>2021-02-28T12:25:30Z</time>
      </trkpt>
      <trkpt lat="45.03197" lon="6.49756">
        <ele>2677.8</ele>
        <time>2021-02-28T12:25:31Z</time>
      </trkpt>
      <trkpt lat="45.03197" lon="6.49756">
        <ele>2678</ele>
        <time>2021-02-28T12:25:32Z</time>
      </trkpt>
      <trkpt lat="45.03197" lon="6.49756">
        <ele>2678</ele>
        <time>2021-02-28T12:25:33Z</time>
      </trkpt>
      <trkpt lat="45.03197" lon="6.49756">
        <ele>2678.4</ele>
        <time>2021-02-28T12:25:34Z</time>
      </trkpt>
      <trkpt lat="45.03197" lon="6.49756">
        <ele>2678.8</ele>
        <time>2021-02-28T12:25:35Z</time>
      </trkpt>
      <trkpt lat="45.03197" lon="6.49756">
        <ele>2679</ele>
        <time>2021-02-28T12:25:36Z</time>
      </trkpt>
      <trkpt lat="45.03197" lon="6.49756">
        <ele>2678.4</ele>
        <time>2021-02-28T12:25:37Z</time>
      </trkpt>
      <trkpt lat="45.03197" lon="6.49756">
        <ele>2678.2</ele>
        <time>2021-02-28T12:25:38Z</time>
      </trkpt>
      <trkpt lat="45.03197" lon="6.49756">
        <ele>2678.4</ele>
        <time>2021-02-28T12:25:39Z</time>
      </trkpt>
      <trkpt lat="45.03197" lon="6.49756">
        <ele>2678.2</ele>
        <time>2021-02-28T12:25:40Z</time>
      </trkpt>
      <trkpt lat="45.03197" lon="6.49756">
        <ele>2678.4</ele>
        <time>2021-02-28T12:25:41Z</time>
      </trkpt>
      <trkpt lat="45.03197" lon="6.49756">
        <ele>2678.2</ele>
        <time>2021-02-28T12:25:42Z</time>
      </trkpt>
      <trkpt lat="45.03197" lon="6.49756">
        <ele>2678</ele>
        <time>2021-02-28T12:25:43Z</time>
      </trkpt>
      <trkpt lat="45.03197" lon="6.49756">
        <ele>2678</ele>
        <time>2021-02-28T12:25:44Z</time>
      </trkpt>
      <trkpt lat="45.03197" lon="6.49756">
        <ele>2678.2</ele>
        <time>2021-02-28T12:25:45Z</time>
      </trkpt>
      <trkpt lat="45.03197" lon="6.49756">
        <ele>2678</ele>
        <time>2021-02-28T12:25:46Z</time>
      </trkpt>
      <trkpt lat="45.03197" lon="6.49756">
        <ele>2678</ele>
        <time>2021-02-28T12:25:47Z</time>
      </trkpt>
      <trkpt lat="45.03197" lon="6.49756">
        <ele>2678.2</ele>
        <time>2021-02-28T12:25:48Z</time>
      </trkpt>
      <trkpt lat="45.03197" lon="6.49756">
        <ele>2678.8</ele>
        <time>2021-02-28T12:25:49Z</time>
      </trkpt>
      <trkpt lat="45.03197" lon="6.49756">
        <ele>2678.8</ele>
        <time>2021-02-28T12:25:50Z</time>
      </trkpt>
      <trkpt lat="45.03197" lon="6.49756">
        <ele>2679</ele>
        <time>2021-02-28T12:25:51Z</time>
      </trkpt>
      <trkpt lat="45.03197" lon="6.49756">
        <ele>2679.4</ele>
        <time>2021-02-28T12:25:52Z</time>
      </trkpt>
      <trkpt lat="45.03197" lon="6.49756">
        <ele>2680.2</ele>
        <time>2021-02-28T12:25:53Z</time>
      </trkpt>
      <trkpt lat="45.03197" lon="6.49756">
        <ele>2680</ele>
        <time>2021-02-28T12:25:54Z</time>
      </trkpt>
      <trkpt lat="45.03197" lon="6.49756">
        <ele>2680.4</ele>
        <time>2021-02-28T12:25:55Z</time>
      </trkpt>
      <trkpt lat="45.03197" lon="6.49756">
        <ele>2680.6</ele>
        <time>2021-02-28T12:25:56Z</time>
      </trkpt>
      <trkpt lat="45.03197" lon="6.49756">
        <ele>2680.6</ele>
        <time>2021-02-28T12:25:57Z</time>
      </trkpt>
      <trkpt lat="45.03197" lon="6.49756">
        <ele>2680.6</ele>
        <time>2021-02-28T12:25:58Z</time>
      </trkpt>
      <trkpt lat="45.03197" lon="6.49756">
        <ele>2680.6</ele>
        <time>2021-02-28T12:25:59Z</time>
      </trkpt>
      <trkpt lat="45.03197" lon="6.49756">
        <ele>2680.4</ele>
        <time>2021-02-28T12:26:00Z</time>
      </trkpt>
      <trkpt lat="45.03197" lon="6.49756">
        <ele>2680.6</ele>
        <time>2021-02-28T12:26:01Z</time>
      </trkpt>
      <trkpt lat="45.03197" lon="6.49756">
        <ele>2681</ele>
        <time>2021-02-28T12:26:02Z</time>
      </trkpt>
      <trkpt lat="45.03197" lon="6.49756">
        <ele>2681</ele>
        <time>2021-02-28T12:26:03Z</time>
      </trkpt>
      <trkpt lat="45.03197" lon="6.49756">
        <ele>2680.6</ele>
        <time>2021-02-28T12:26:04Z</time>
      </trkpt>
      <trkpt lat="45.03197" lon="6.49756">
        <ele>2680.2</ele>
        <time>2021-02-28T12:26:05Z</time>
      </trkpt>
      <trkpt lat="45.03197" lon="6.49756">
        <ele>2681.4</ele>
        <time>2021-02-28T12:26:06Z</time>
      </trkpt>
      <trkpt lat="45.03197" lon="6.49756">
        <ele>2680.4</ele>
        <time>2021-02-28T12:26:07Z</time>
      </trkpt>
      <trkpt lat="45.03197" lon="6.49756">
        <ele>2681</ele>
        <time>2021-02-28T12:26:08Z</time>
      </trkpt>
      <trkpt lat="45.03197" lon="6.49756">
        <ele>2681.2</ele>
        <time>2021-02-28T12:26:09Z</time>
      </trkpt>
      <trkpt lat="45.03197" lon="6.49756">
        <ele>2682.2</ele>
        <time>2021-02-28T12:26:10Z</time>
      </trkpt>
      <trkpt lat="45.03197" lon="6.49756">
        <ele>2682.2</ele>
        <time>2021-02-28T12:26:11Z</time>
      </trkpt>
      <trkpt lat="45.03197" lon="6.49756">
        <ele>2681.6</ele>
        <time>2021-02-28T12:26:12Z</time>
      </trkpt>
      <trkpt lat="45.03197" lon="6.49756">
        <ele>2681.8</ele>
        <time>2021-02-28T12:26:13Z</time>
      </trkpt>
      <trkpt lat="45.03197" lon="6.49756">
        <ele>2681.6</ele>
        <time>2021-02-28T12:26:14Z</time>
      </trkpt>
      <trkpt lat="45.03197" lon="6.49756">
        <ele>2682.2</ele>
        <time>2021-02-28T12:26:15Z</time>
      </trkpt>
      <trkpt lat="45.03197" lon="6.49756">
        <ele>2681.8</ele>
        <time>2021-02-28T12:26:16Z</time>
      </trkpt>
      <trkpt lat="45.03197" lon="6.49756">
        <ele>2682.6</ele>
        <time>2021-02-28T12:26:17Z</time>
      </trkpt>
      <trkpt lat="45.03197" lon="6.49756">
        <ele>2682.4</ele>
        <time>2021-02-28T12:26:18Z</time>
      </trkpt>
      <trkpt lat="45.03197" lon="6.49756">
        <ele>2682</ele>
        <time>2021-02-28T12:26:19Z</time>
      </trkpt>
      <trkpt lat="45.03197" lon="6.49756">
        <ele>2681.8</ele>
        <time>2021-02-28T12:26:20Z</time>
      </trkpt>
      <trkpt lat="45.03197" lon="6.49756">
        <ele>2681.8</ele>
        <time>2021-02-28T12:26:21Z</time>
      </trkpt>
      <trkpt lat="45.03197" lon="6.49756">
        <ele>2682.4</ele>
        <time>2021-02-28T12:26:22Z</time>
      </trkpt>
      <trkpt lat="45.03197" lon="6.49756">
        <ele>2682.4</ele>
        <time>2021-02-28T12:26:23Z</time>
      </trkpt>
      <trkpt lat="45.03197" lon="6.49756">
        <ele>2682.4</ele>
        <time>2021-02-28T12:26:24Z</time>
      </trkpt>
      <trkpt lat="45.03197" lon="6.49756">
        <ele>2683.2</ele>
        <time>2021-02-28T12:26:25Z</time>
      </trkpt>
      <trkpt lat="45.03197" lon="6.49756">
        <ele>2682.8</ele>
        <time>2021-02-28T12:26:26Z</time>
      </trkpt>
      <trkpt lat="45.03197" lon="6.49756">
        <ele>2682.6</ele>
        <time>2021-02-28T12:26:27Z</time>
      </trkpt>
      <trkpt lat="45.03197" lon="6.49756">
        <ele>2682.2</ele>
        <time>2021-02-28T12:26:28Z</time>
      </trkpt>
      <trkpt lat="45.03197" lon="6.49756">
        <ele>2682</ele>
        <time>2021-02-28T12:26:29Z</time>
      </trkpt>
      <trkpt lat="45.03197" lon="6.49756">
        <ele>2682</ele>
        <time>2021-02-28T12:26:30Z</time>
      </trkpt>
      <trkpt lat="45.03197" lon="6.49756">
        <ele>2682.2</ele>
        <time>2021-02-28T12:26:31Z</time>
      </trkpt>
      <trkpt lat="45.03197" lon="6.49756">
        <ele>2681.8</ele>
        <time>2021-02-28T12:26:32Z</time>
      </trkpt>
      <trkpt lat="45.03197" lon="6.49756">
        <ele>2681.6</ele>
        <time>2021-02-28T12:26:33Z</time>
      </trkpt>
      <trkpt lat="45.03197" lon="6.49759">
        <ele>2681.8</ele>
        <time>2021-02-28T12:26:34Z</time>
      </trkpt>
      <trkpt lat="45.03197" lon="6.49759">
        <ele>2682.2</ele>
        <time>2021-02-28T12:26:35Z</time>
      </trkpt>
      <trkpt lat="45.03197" lon="6.49759">
        <ele>2682.4</ele>
        <time>2021-02-28T12:26:36Z</time>
      </trkpt>
      <trkpt lat="45.03197" lon="6.49759">
        <ele>2682.2</ele>
        <time>2021-02-28T12:26:37Z</time>
      </trkpt>
      <trkpt lat="45.03197" lon="6.49759">
        <ele>2682.2</ele>
        <time>2021-02-28T12:26:38Z</time>
      </trkpt>
      <trkpt lat="45.03197" lon="6.49759">
        <ele>2682</ele>
        <time>2021-02-28T12:26:39Z</time>
      </trkpt>
      <trkpt lat="45.03197" lon="6.49759">
        <ele>2682</ele>
        <time>2021-02-28T12:26:40Z</time>
      </trkpt>
      <trkpt lat="45.03197" lon="6.49759">
        <ele>2682</ele>
        <time>2021-02-28T12:26:41Z</time>
      </trkpt>
      <trkpt lat="45.03197" lon="6.49759">
        <ele>2682</ele>
        <time>2021-02-28T12:26:42Z</time>
      </trkpt>
      <trkpt lat="45.03197" lon="6.49759">
        <ele>2681.8</ele>
        <time>2021-02-28T12:26:43Z</time>
      </trkpt>
      <trkpt lat="45.03197" lon="6.49759">
        <ele>2681.6</ele>
        <time>2021-02-28T12:26:44Z</time>
      </trkpt>
      <trkpt lat="45.03197" lon="6.49759">
        <ele>2681.8</ele>
        <time>2021-02-28T12:26:45Z</time>
      </trkpt>
      <trkpt lat="45.03197" lon="6.49759">
        <ele>2682</ele>
        <time>2021-02-28T12:26:46Z</time>
      </trkpt>
      <trkpt lat="45.03197" lon="6.49759">
        <ele>2682.6</ele>
        <time>2021-02-28T12:26:47Z</time>
      </trkpt>
      <trkpt lat="45.03197" lon="6.49759">
        <ele>2682.6</ele>
        <time>2021-02-28T12:26:48Z</time>
      </trkpt>
      <trkpt lat="45.03197" lon="6.49759">
        <ele>2682.6</ele>
        <time>2021-02-28T12:26:49Z</time>
      </trkpt>
      <trkpt lat="45.03197" lon="6.49759">
        <ele>2682</ele>
        <time>2021-02-28T12:26:50Z</time>
      </trkpt>
      <trkpt lat="45.03197" lon="6.49759">
        <ele>2681.8</ele>
        <time>2021-02-28T12:26:51Z</time>
      </trkpt>
      <trkpt lat="45.03197" lon="6.49759">
        <ele>2681.8</ele>
        <time>2021-02-28T12:26:52Z</time>
      </trkpt>
      <trkpt lat="45.03197" lon="6.49759">
        <ele>2684</ele>
        <time>2021-02-28T12:26:53Z</time>
      </trkpt>
      <trkpt lat="45.03197" lon="6.49759">
        <ele>2684.8</ele>
        <time>2021-02-28T12:26:54Z</time>
      </trkpt>
      <trkpt lat="45.03197" lon="6.49759">
        <ele>2684</ele>
        <time>2021-02-28T12:26:55Z</time>
      </trkpt>
      <trkpt lat="45.03197" lon="6.49759">
        <ele>2683.2</ele>
        <time>2021-02-28T12:26:56Z</time>
      </trkpt>
      <trkpt lat="45.03197" lon="6.49759">
        <ele>2682.8</ele>
        <time>2021-02-28T12:26:57Z</time>
      </trkpt>
      <trkpt lat="45.03197" lon="6.49759">
        <ele>2682.8</ele>
        <time>2021-02-28T12:26:58Z</time>
      </trkpt>
      <trkpt lat="45.03197" lon="6.49759">
        <ele>2683.2</ele>
        <time>2021-02-28T12:26:59Z</time>
      </trkpt>
      <trkpt lat="45.03197" lon="6.49759">
        <ele>2683.2</ele>
        <time>2021-02-28T12:27:00Z</time>
      </trkpt>
      <trkpt lat="45.03197" lon="6.49759">
        <ele>2683.2</ele>
        <time>2021-02-28T12:27:01Z</time>
      </trkpt>
      <trkpt lat="45.03197" lon="6.49759">
        <ele>2683</ele>
        <time>2021-02-28T12:27:02Z</time>
      </trkpt>
      <trkpt lat="45.03197" lon="6.49759">
        <ele>2683</ele>
        <time>2021-02-28T12:27:03Z</time>
      </trkpt>
      <trkpt lat="45.03197" lon="6.49759">
        <ele>2683.2</ele>
        <time>2021-02-28T12:27:04Z</time>
      </trkpt>
      <trkpt lat="45.03197" lon="6.49759">
        <ele>2682.8</ele>
        <time>2021-02-28T12:27:05Z</time>
      </trkpt>
      <trkpt lat="45.03197" lon="6.49759">
        <ele>2682.6</ele>
        <time>2021-02-28T12:27:06Z</time>
      </trkpt>
      <trkpt lat="45.03197" lon="6.49759">
        <ele>2682.4</ele>
        <time>2021-02-28T12:27:07Z</time>
      </trkpt>
      <trkpt lat="45.03197" lon="6.49759">
        <ele>2682.4</ele>
        <time>2021-02-28T12:27:08Z</time>
      </trkpt>
      <trkpt lat="45.03197" lon="6.49759">
        <ele>2682.2</ele>
        <time>2021-02-28T12:27:09Z</time>
      </trkpt>
      <trkpt lat="45.03197" lon="6.49759">
        <ele>2682.4</ele>
        <time>2021-02-28T12:27:10Z</time>
      </trkpt>
      <trkpt lat="45.03197" lon="6.49759">
        <ele>2682.4</ele>
        <time>2021-02-28T12:27:11Z</time>
      </trkpt>
      <trkpt lat="45.03197" lon="6.49759">
        <ele>2683</ele>
        <time>2021-02-28T12:27:12Z</time>
      </trkpt>
      <trkpt lat="45.03197" lon="6.49759">
        <ele>2683</ele>
        <time>2021-02-28T12:27:13Z</time>
      </trkpt>
      <trkpt lat="45.03197" lon="6.49759">
        <ele>2683</ele>
        <time>2021-02-28T12:27:14Z</time>
      </trkpt>
      <trkpt lat="45.03197" lon="6.49759">
        <ele>2683</ele>
        <time>2021-02-28T12:27:15Z</time>
      </trkpt>
      <trkpt lat="45.03197" lon="6.49759">
        <ele>2682.2</ele>
        <time>2021-02-28T12:27:16Z</time>
      </trkpt>
      <trkpt lat="45.03197" lon="6.49759">
        <ele>2681.8</ele>
        <time>2021-02-28T12:27:17Z</time>
      </trkpt>
      <trkpt lat="45.03197" lon="6.49759">
        <ele>2683</ele>
        <time>2021-02-28T12:27:18Z</time>
      </trkpt>
      <trkpt lat="45.03197" lon="6.49759">
        <ele>2683.4</ele>
        <time>2021-02-28T12:27:19Z</time>
      </trkpt>
      <trkpt lat="45.03197" lon="6.49759">
        <ele>2682.8</ele>
        <time>2021-02-28T12:27:20Z</time>
      </trkpt>
      <trkpt lat="45.03197" lon="6.49759">
        <ele>2682.6</ele>
        <time>2021-02-28T12:27:21Z</time>
      </trkpt>
      <trkpt lat="45.03197" lon="6.49759">
        <ele>2682.8</ele>
        <time>2021-02-28T12:27:22Z</time>
      </trkpt>
      <trkpt lat="45.03197" lon="6.49759">
        <ele>2683.6</ele>
        <time>2021-02-28T12:27:23Z</time>
      </trkpt>
      <trkpt lat="45.03197" lon="6.49759">
        <ele>2682.6</ele>
        <time>2021-02-28T12:27:24Z</time>
      </trkpt>
      <trkpt lat="45.03197" lon="6.49759">
        <ele>2682</ele>
        <time>2021-02-28T12:27:25Z</time>
      </trkpt>
      <trkpt lat="45.03197" lon="6.49759">
        <ele>2682</ele>
        <time>2021-02-28T12:27:26Z</time>
      </trkpt>
      <trkpt lat="45.03197" lon="6.49759">
        <ele>2681.6</ele>
        <time>2021-02-28T12:27:27Z</time>
      </trkpt>
      <trkpt lat="45.03197" lon="6.49759">
        <ele>2681.6</ele>
        <time>2021-02-28T12:27:28Z</time>
      </trkpt>
      <trkpt lat="45.03197" lon="6.49759">
        <ele>2681.2</ele>
        <time>2021-02-28T12:27:29Z</time>
      </trkpt>
      <trkpt lat="45.03197" lon="6.49759">
        <ele>2681.2</ele>
        <time>2021-02-28T12:27:30Z</time>
      </trkpt>
      <trkpt lat="45.03197" lon="6.49759">
        <ele>2681</ele>
        <time>2021-02-28T12:27:31Z</time>
      </trkpt>
      <trkpt lat="45.03197" lon="6.49759">
        <ele>2681</ele>
        <time>2021-02-28T12:27:32Z</time>
      </trkpt>
      <trkpt lat="45.03197" lon="6.49759">
        <ele>2680.2</ele>
        <time>2021-02-28T12:27:33Z</time>
      </trkpt>
      <trkpt lat="45.03197" lon="6.49759">
        <ele>2681</ele>
        <time>2021-02-28T12:27:34Z</time>
      </trkpt>
      <trkpt lat="45.03197" lon="6.49759">
        <ele>2681.4</ele>
        <time>2021-02-28T12:27:35Z</time>
      </trkpt>
      <trkpt lat="45.03197" lon="6.49759">
        <ele>2682</ele>
        <time>2021-02-28T12:27:36Z</time>
      </trkpt>
      <trkpt lat="45.03197" lon="6.49759">
        <ele>2682</ele>
        <time>2021-02-28T12:27:37Z</time>
      </trkpt>
      <trkpt lat="45.03197" lon="6.49759">
        <ele>2681.8</ele>
        <time>2021-02-28T12:27:38Z</time>
      </trkpt>
      <trkpt lat="45.03197" lon="6.49759">
        <ele>2681</ele>
        <time>2021-02-28T12:27:39Z</time>
      </trkpt>
      <trkpt lat="45.03197" lon="6.49756">
        <ele>2680.8</ele>
        <time>2021-02-28T12:27:40Z</time>
      </trkpt>
      <trkpt lat="45.03197" lon="6.49756">
        <ele>2680.2</ele>
        <time>2021-02-28T12:27:41Z</time>
      </trkpt>
      <trkpt lat="45.03197" lon="6.49756">
        <ele>2680.2</ele>
        <time>2021-02-28T12:27:42Z</time>
      </trkpt>
      <trkpt lat="45.03197" lon="6.49756">
        <ele>2680.6</ele>
        <time>2021-02-28T12:27:43Z</time>
      </trkpt>
      <trkpt lat="45.03197" lon="6.49756">
        <ele>2680.8</ele>
        <time>2021-02-28T12:27:44Z</time>
      </trkpt>
      <trkpt lat="45.03197" lon="6.49756">
        <ele>2681.2</ele>
        <time>2021-02-28T12:27:45Z</time>
      </trkpt>
      <trkpt lat="45.03197" lon="6.49756">
        <ele>2680.6</ele>
        <time>2021-02-28T12:27:46Z</time>
      </trkpt>
      <trkpt lat="45.03197" lon="6.49756">
        <ele>2680.4</ele>
        <time>2021-02-28T12:27:47Z</time>
      </trkpt>
      <trkpt lat="45.03197" lon="6.49756">
        <ele>2679.8</ele>
        <time>2021-02-28T12:27:48Z</time>
      </trkpt>
      <trkpt lat="45.03197" lon="6.49756">
        <ele>2679.8</ele>
        <time>2021-02-28T12:27:49Z</time>
      </trkpt>
      <trkpt lat="45.03197" lon="6.49756">
        <ele>2680.2</ele>
        <time>2021-02-28T12:27:50Z</time>
      </trkpt>
      <trkpt lat="45.03197" lon="6.49756">
        <ele>2680.6</ele>
        <time>2021-02-28T12:27:51Z</time>
      </trkpt>
      <trkpt lat="45.03197" lon="6.49756">
        <ele>2680.4</ele>
        <time>2021-02-28T12:27:52Z</time>
      </trkpt>
      <trkpt lat="45.03197" lon="6.49756">
        <ele>2680.4</ele>
        <time>2021-02-28T12:27:53Z</time>
      </trkpt>
      <trkpt lat="45.03197" lon="6.49756">
        <ele>2680.2</ele>
        <time>2021-02-28T12:27:54Z</time>
      </trkpt>
      <trkpt lat="45.03197" lon="6.49756">
        <ele>2680</ele>
        <time>2021-02-28T12:27:55Z</time>
      </trkpt>
      <trkpt lat="45.03197" lon="6.49756">
        <ele>2680</ele>
        <time>2021-02-28T12:27:56Z</time>
      </trkpt>
      <trkpt lat="45.03197" lon="6.49756">
        <ele>2679.2</ele>
        <time>2021-02-28T12:27:57Z</time>
      </trkpt>
      <trkpt lat="45.03197" lon="6.49756">
        <ele>2678.8</ele>
        <time>2021-02-28T12:27:58Z</time>
      </trkpt>
      <trkpt lat="45.03197" lon="6.49756">
        <ele>2678.6</ele>
        <time>2021-02-28T12:27:59Z</time>
      </trkpt>
      <trkpt lat="45.03197" lon="6.49756">
        <ele>2678.2</ele>
        <time>2021-02-28T12:28:00Z</time>
      </trkpt>
      <trkpt lat="45.03197" lon="6.49756">
        <ele>2678.6</ele>
        <time>2021-02-28T12:28:01Z</time>
      </trkpt>
      <trkpt lat="45.03197" lon="6.49756">
        <ele>2678.2</ele>
        <time>2021-02-28T12:28:02Z</time>
      </trkpt>
      <trkpt lat="45.03197" lon="6.49756">
        <ele>2678.4</ele>
        <time>2021-02-28T12:28:03Z</time>
      </trkpt>
      <trkpt lat="45.03197" lon="6.49756">
        <ele>2678</ele>
        <time>2021-02-28T12:28:04Z</time>
      </trkpt>
      <trkpt lat="45.03197" lon="6.49756">
        <ele>2677.4</ele>
        <time>2021-02-28T12:28:05Z</time>
      </trkpt>
      <trkpt lat="45.03197" lon="6.49756">
        <ele>2677.4</ele>
        <time>2021-02-28T12:28:06Z</time>
      </trkpt>
      <trkpt lat="45.03197" lon="6.49756">
        <ele>2677.4</ele>
        <time>2021-02-28T12:28:07Z</time>
      </trkpt>
      <trkpt lat="45.03197" lon="6.49756">
        <ele>2677.2</ele>
        <time>2021-02-28T12:28:08Z</time>
      </trkpt>
      <trkpt lat="45.03197" lon="6.49756">
        <ele>2677</ele>
        <time>2021-02-28T12:28:09Z</time>
      </trkpt>
      <trkpt lat="45.03197" lon="6.49756">
        <ele>2677.2</ele>
        <time>2021-02-28T12:28:10Z</time>
      </trkpt>
      <trkpt lat="45.03197" lon="6.49756">
        <ele>2677</ele>
        <time>2021-02-28T12:28:11Z</time>
      </trkpt>
      <trkpt lat="45.03197" lon="6.49756">
        <ele>2676.8</ele>
        <time>2021-02-28T12:28:12Z</time>
      </trkpt>
      <trkpt lat="45.03197" lon="6.49756">
        <ele>2676.6</ele>
        <time>2021-02-28T12:28:13Z</time>
      </trkpt>
      <trkpt lat="45.03197" lon="6.49756">
        <ele>2676.8</ele>
        <time>2021-02-28T12:28:14Z</time>
      </trkpt>
      <trkpt lat="45.03197" lon="6.49756">
        <ele>2676.4</ele>
        <time>2021-02-28T12:28:15Z</time>
      </trkpt>
      <trkpt lat="45.03197" lon="6.49756">
        <ele>2676.6</ele>
        <time>2021-02-28T12:28:16Z</time>
      </trkpt>
      <trkpt lat="45.03197" lon="6.49756">
        <ele>2676.4</ele>
        <time>2021-02-28T12:28:17Z</time>
      </trkpt>
      <trkpt lat="45.03197" lon="6.49756">
        <ele>2676.2</ele>
        <time>2021-02-28T12:28:18Z</time>
      </trkpt>
      <trkpt lat="45.03197" lon="6.49756">
        <ele>2676.2</ele>
        <time>2021-02-28T12:28:19Z</time>
      </trkpt>
      <trkpt lat="45.03197" lon="6.49756">
        <ele>2676</ele>
        <time>2021-02-28T12:28:20Z</time>
      </trkpt>
      <trkpt lat="45.03197" lon="6.49756">
        <ele>2676</ele>
        <time>2021-02-28T12:28:21Z</time>
      </trkpt>
      <trkpt lat="45.03197" lon="6.49756">
        <ele>2675.4</ele>
        <time>2021-02-28T12:28:22Z</time>
      </trkpt>
      <trkpt lat="45.03197" lon="6.49756">
        <ele>2675.4</ele>
        <time>2021-02-28T12:28:23Z</time>
      </trkpt>
      <trkpt lat="45.03197" lon="6.49756">
        <ele>2675.6</ele>
        <time>2021-02-28T12:28:24Z</time>
      </trkpt>
      <trkpt lat="45.03197" lon="6.49756">
        <ele>2675.8</ele>
        <time>2021-02-28T12:28:25Z</time>
      </trkpt>
      <trkpt lat="45.03197" lon="6.49756">
        <ele>2675.6</ele>
        <time>2021-02-28T12:28:26Z</time>
      </trkpt>
      <trkpt lat="45.03197" lon="6.49756">
        <ele>2675.2</ele>
        <time>2021-02-28T12:28:27Z</time>
      </trkpt>
      <trkpt lat="45.03197" lon="6.49756">
        <ele>2675</ele>
        <time>2021-02-28T12:28:28Z</time>
      </trkpt>
      <trkpt lat="45.03197" lon="6.49756">
        <ele>2675</ele>
        <time>2021-02-28T12:28:29Z</time>
      </trkpt>
      <trkpt lat="45.03197" lon="6.49756">
        <ele>2674.6</ele>
        <time>2021-02-28T12:28:30Z</time>
      </trkpt>
      <trkpt lat="45.03197" lon="6.49756">
        <ele>2674.2</ele>
        <time>2021-02-28T12:28:31Z</time>
      </trkpt>
      <trkpt lat="45.03197" lon="6.49756">
        <ele>2675</ele>
        <time>2021-02-28T12:28:32Z</time>
      </trkpt>
      <trkpt lat="45.03197" lon="6.49756">
        <ele>2674.4</ele>
        <time>2021-02-28T12:28:33Z</time>
      </trkpt>
      <trkpt lat="45.03197" lon="6.49756">
        <ele>2673.4</ele>
        <time>2021-02-28T12:28:34Z</time>
      </trkpt>
      <trkpt lat="45.03197" lon="6.49756">
        <ele>2673.4</ele>
        <time>2021-02-28T12:28:35Z</time>
      </trkpt>
      <trkpt lat="45.03197" lon="6.49756">
        <ele>2673.8</ele>
        <time>2021-02-28T12:28:36Z</time>
      </trkpt>
      <trkpt lat="45.03197" lon="6.49756">
        <ele>2674.2</ele>
        <time>2021-02-28T12:28:37Z</time>
      </trkpt>
      <trkpt lat="45.03197" lon="6.49756">
        <ele>2674.4</ele>
        <time>2021-02-28T12:28:38Z</time>
      </trkpt>
      <trkpt lat="45.03197" lon="6.49756">
        <ele>2674.4</ele>
        <time>2021-02-28T12:28:39Z</time>
      </trkpt>
      <trkpt lat="45.03197" lon="6.49756">
        <ele>2674.8</ele>
        <time>2021-02-28T12:28:40Z</time>
      </trkpt>
      <trkpt lat="45.03197" lon="6.49756">
        <ele>2674.6</ele>
        <time>2021-02-28T12:28:41Z</time>
      </trkpt>
      <trkpt lat="45.03197" lon="6.49756">
        <ele>2674.6</ele>
        <time>2021-02-28T12:28:42Z</time>
      </trkpt>
      <trkpt lat="45.03197" lon="6.49756">
        <ele>2674.8</ele>
        <time>2021-02-28T12:28:43Z</time>
      </trkpt>
      <trkpt lat="45.03197" lon="6.49756">
        <ele>2674.6</ele>
        <time>2021-02-28T12:28:44Z</time>
      </trkpt>
      <trkpt lat="45.03197" lon="6.49756">
        <ele>2675</ele>
        <time>2021-02-28T12:28:45Z</time>
      </trkpt>
      <trkpt lat="45.03197" lon="6.49756">
        <ele>2675</ele>
        <time>2021-02-28T12:28:46Z</time>
      </trkpt>
      <trkpt lat="45.03197" lon="6.49756">
        <ele>2674.8</ele>
        <time>2021-02-28T12:28:47Z</time>
      </trkpt>
      <trkpt lat="45.03197" lon="6.49756">
        <ele>2674.8</ele>
        <time>2021-02-28T12:28:48Z</time>
      </trkpt>
      <trkpt lat="45.03197" lon="6.49756">
        <ele>2674.8</ele>
        <time>2021-02-28T12:28:49Z</time>
      </trkpt>
      <trkpt lat="45.03197" lon="6.49756">
        <ele>2674.8</ele>
        <time>2021-02-28T12:28:50Z</time>
      </trkpt>
      <trkpt lat="45.03197" lon="6.49756">
        <ele>2674.6</ele>
        <time>2021-02-28T12:28:51Z</time>
      </trkpt>
      <trkpt lat="45.03197" lon="6.49756">
        <ele>2674.6</ele>
        <time>2021-02-28T12:28:52Z</time>
      </trkpt>
      <trkpt lat="45.03197" lon="6.49756">
        <ele>2674.4</ele>
        <time>2021-02-28T12:28:53Z</time>
      </trkpt>
      <trkpt lat="45.03197" lon="6.49756">
        <ele>2674.6</ele>
        <time>2021-02-28T12:28:54Z</time>
      </trkpt>
      <trkpt lat="45.03197" lon="6.49756">
        <ele>2674.2</ele>
        <time>2021-02-28T12:28:55Z</time>
      </trkpt>
      <trkpt lat="45.03197" lon="6.49756">
        <ele>2674.4</ele>
        <time>2021-02-28T12:28:56Z</time>
      </trkpt>
      <trkpt lat="45.03197" lon="6.49756">
        <ele>2674.4</ele>
        <time>2021-02-28T12:28:57Z</time>
      </trkpt>
      <trkpt lat="45.03197" lon="6.49756">
        <ele>2674.4</ele>
        <time>2021-02-28T12:28:58Z</time>
      </trkpt>
      <trkpt lat="45.03197" lon="6.49756">
        <ele>2674.4</ele>
        <time>2021-02-28T12:28:59Z</time>
      </trkpt>
      <trkpt lat="45.03197" lon="6.49756">
        <ele>2674.4</ele>
        <time>2021-02-28T12:29:00Z</time>
      </trkpt>
      <trkpt lat="45.03197" lon="6.49756">
        <ele>2674.4</ele>
        <time>2021-02-28T12:29:01Z</time>
      </trkpt>
      <trkpt lat="45.03197" lon="6.49756">
        <ele>2674.4</ele>
        <time>2021-02-28T12:29:02Z</time>
      </trkpt>
      <trkpt lat="45.03197" lon="6.49756">
        <ele>2674.6</ele>
        <time>2021-02-28T12:29:03Z</time>
      </trkpt>
      <trkpt lat="45.03197" lon="6.49756">
        <ele>2674</ele>
        <time>2021-02-28T12:29:04Z</time>
      </trkpt>
      <trkpt lat="45.03197" lon="6.49756">
        <ele>2673.6</ele>
        <time>2021-02-28T12:29:05Z</time>
      </trkpt>
      <trkpt lat="45.03197" lon="6.49756">
        <ele>2673.8</ele>
        <time>2021-02-28T12:29:06Z</time>
      </trkpt>
      <trkpt lat="45.03197" lon="6.49756">
        <ele>2673.8</ele>
        <time>2021-02-28T12:29:07Z</time>
      </trkpt>
      <trkpt lat="45.03197" lon="6.49756">
        <ele>2674</ele>
        <time>2021-02-28T12:29:08Z</time>
      </trkpt>
      <trkpt lat="45.03197" lon="6.49756">
        <ele>2674</ele>
        <time>2021-02-28T12:29:09Z</time>
      </trkpt>
      <trkpt lat="45.03197" lon="6.49756">
        <ele>2674</ele>
        <time>2021-02-28T12:29:10Z</time>
      </trkpt>
      <trkpt lat="45.03197" lon="6.49756">
        <ele>2674.4</ele>
        <time>2021-02-28T12:29:11Z</time>
      </trkpt>
      <trkpt lat="45.03197" lon="6.49756">
        <ele>2674.4</ele>
        <time>2021-02-28T12:29:12Z</time>
      </trkpt>
      <trkpt lat="45.03197" lon="6.49756">
        <ele>2674.4</ele>
        <time>2021-02-28T12:29:13Z</time>
      </trkpt>
      <trkpt lat="45.03197" lon="6.49756">
        <ele>2674.4</ele>
        <time>2021-02-28T12:29:14Z</time>
      </trkpt>
      <trkpt lat="45.03197" lon="6.49756">
        <ele>2674.2</ele>
        <time>2021-02-28T12:29:15Z</time>
      </trkpt>
      <trkpt lat="45.03197" lon="6.49756">
        <ele>2674.2</ele>
        <time>2021-02-28T12:29:16Z</time>
      </trkpt>
      <trkpt lat="45.03197" lon="6.49756">
        <ele>2674</ele>
        <time>2021-02-28T12:29:17Z</time>
      </trkpt>
      <trkpt lat="45.03197" lon="6.49756">
        <ele>2674</ele>
        <time>2021-02-28T12:29:18Z</time>
      </trkpt>
      <trkpt lat="45.03197" lon="6.49756">
        <ele>2673.2</ele>
        <time>2021-02-28T12:29:19Z</time>
      </trkpt>
      <trkpt lat="45.03197" lon="6.49756">
        <ele>2673.6</ele>
        <time>2021-02-28T12:29:20Z</time>
      </trkpt>
      <trkpt lat="45.03197" lon="6.49756">
        <ele>2673.8</ele>
        <time>2021-02-28T12:29:21Z</time>
      </trkpt>
      <trkpt lat="45.03197" lon="6.49756">
        <ele>2674.6</ele>
        <time>2021-02-28T12:29:22Z</time>
      </trkpt>
      <trkpt lat="45.03197" lon="6.49756">
        <ele>2674.8</ele>
        <time>2021-02-28T12:29:23Z</time>
      </trkpt>
      <trkpt lat="45.03197" lon="6.49756">
        <ele>2675.2</ele>
        <time>2021-02-28T12:29:24Z</time>
      </trkpt>
      <trkpt lat="45.03197" lon="6.49756">
        <ele>2674.8</ele>
        <time>2021-02-28T12:29:25Z</time>
      </trkpt>
      <trkpt lat="45.03197" lon="6.49756">
        <ele>2674</ele>
        <time>2021-02-28T12:29:26Z</time>
      </trkpt>
      <trkpt lat="45.03197" lon="6.49756">
        <ele>2673.6</ele>
        <time>2021-02-28T12:29:27Z</time>
      </trkpt>
      <trkpt lat="45.03197" lon="6.49756">
        <ele>2673.2</ele>
        <time>2021-02-28T12:29:28Z</time>
      </trkpt>
      <trkpt lat="45.03197" lon="6.49756">
        <ele>2672.8</ele>
        <time>2021-02-28T12:29:29Z</time>
      </trkpt>
      <trkpt lat="45.03197" lon="6.49756">
        <ele>2672.2</ele>
        <time>2021-02-28T12:29:30Z</time>
      </trkpt>
      <trkpt lat="45.03197" lon="6.49756">
        <ele>2672.4</ele>
        <time>2021-02-28T12:29:31Z</time>
      </trkpt>
      <trkpt lat="45.03197" lon="6.49756">
        <ele>2672.6</ele>
        <time>2021-02-28T12:29:32Z</time>
      </trkpt>
      <trkpt lat="45.03197" lon="6.49756">
        <ele>2672.6</ele>
        <time>2021-02-28T12:29:33Z</time>
      </trkpt>
      <trkpt lat="45.03197" lon="6.49756">
        <ele>2672.6</ele>
        <time>2021-02-28T12:29:34Z</time>
      </trkpt>
      <trkpt lat="45.03197" lon="6.49756">
        <ele>2672.8</ele>
        <time>2021-02-28T12:29:35Z</time>
      </trkpt>
      <trkpt lat="45.03197" lon="6.49756">
        <ele>2673.2</ele>
        <time>2021-02-28T12:29:36Z</time>
      </trkpt>
      <trkpt lat="45.03197" lon="6.49756">
        <ele>2673.4</ele>
        <time>2021-02-28T12:29:37Z</time>
      </trkpt>
      <trkpt lat="45.03197" lon="6.49756">
        <ele>2673.4</ele>
        <time>2021-02-28T12:29:38Z</time>
      </trkpt>
      <trkpt lat="45.03197" lon="6.49756">
        <ele>2672.8</ele>
        <time>2021-02-28T12:29:39Z</time>
      </trkpt>
      <trkpt lat="45.03197" lon="6.49756">
        <ele>2673</ele>
        <time>2021-02-28T12:29:40Z</time>
      </trkpt>
      <trkpt lat="45.03197" lon="6.49756">
        <ele>2673.2</ele>
        <time>2021-02-28T12:29:41Z</time>
      </trkpt>
      <trkpt lat="45.03197" lon="6.49756">
        <ele>2673</ele>
        <time>2021-02-28T12:29:42Z</time>
      </trkpt>
      <trkpt lat="45.03197" lon="6.49756">
        <ele>2672.8</ele>
        <time>2021-02-28T12:29:43Z</time>
      </trkpt>
      <trkpt lat="45.03197" lon="6.49756">
        <ele>2672.8</ele>
        <time>2021-02-28T12:29:44Z</time>
      </trkpt>
      <trkpt lat="45.03197" lon="6.49756">
        <ele>2672.6</ele>
        <time>2021-02-28T12:29:45Z</time>
      </trkpt>
      <trkpt lat="45.03197" lon="6.49756">
        <ele>2672.6</ele>
        <time>2021-02-28T12:29:46Z</time>
      </trkpt>
      <trkpt lat="45.03197" lon="6.49756">
        <ele>2672.6</ele>
        <time>2021-02-28T12:29:47Z</time>
      </trkpt>
      <trkpt lat="45.03197" lon="6.49756">
        <ele>2672.4</ele>
        <time>2021-02-28T12:29:48Z</time>
      </trkpt>
      <trkpt lat="45.03197" lon="6.49756">
        <ele>2672.6</ele>
        <time>2021-02-28T12:29:49Z</time>
      </trkpt>
      <trkpt lat="45.03197" lon="6.49756">
        <ele>2672.6</ele>
        <time>2021-02-28T12:29:50Z</time>
      </trkpt>
      <trkpt lat="45.03197" lon="6.49756">
        <ele>2672.4</ele>
        <time>2021-02-28T12:29:51Z</time>
      </trkpt>
      <trkpt lat="45.03197" lon="6.49756">
        <ele>2672.4</ele>
        <time>2021-02-28T12:29:52Z</time>
      </trkpt>
      <trkpt lat="45.03197" lon="6.49756">
        <ele>2672</ele>
        <time>2021-02-28T12:29:53Z</time>
      </trkpt>
      <trkpt lat="45.03197" lon="6.49756">
        <ele>2672.2</ele>
        <time>2021-02-28T12:29:54Z</time>
      </trkpt>
      <trkpt lat="45.03197" lon="6.49756">
        <ele>2672</ele>
        <time>2021-02-28T12:29:55Z</time>
      </trkpt>
      <trkpt lat="45.03197" lon="6.49756">
        <ele>2672</ele>
        <time>2021-02-28T12:29:56Z</time>
      </trkpt>
      <trkpt lat="45.03197" lon="6.49756">
        <ele>2671.4</ele>
        <time>2021-02-28T12:29:57Z</time>
      </trkpt>
      <trkpt lat="45.03197" lon="6.49756">
        <ele>2671.6</ele>
        <time>2021-02-28T12:29:58Z</time>
      </trkpt>
      <trkpt lat="45.03197" lon="6.49756">
        <ele>2671.6</ele>
        <time>2021-02-28T12:29:59Z</time>
      </trkpt>
      <trkpt lat="45.03197" lon="6.49756">
        <ele>2672</ele>
        <time>2021-02-28T12:30:00Z</time>
      </trkpt>
      <trkpt lat="45.03197" lon="6.49756">
        <ele>2671.2</ele>
        <time>2021-02-28T12:30:01Z</time>
      </trkpt>
      <trkpt lat="45.03197" lon="6.49756">
        <ele>2671.4</ele>
        <time>2021-02-28T12:30:02Z</time>
      </trkpt>
      <trkpt lat="45.03197" lon="6.49756">
        <ele>2670.8</ele>
        <time>2021-02-28T12:30:03Z</time>
      </trkpt>
      <trkpt lat="45.03197" lon="6.49756">
        <ele>2670.2</ele>
        <time>2021-02-28T12:30:04Z</time>
      </trkpt>
      <trkpt lat="45.03197" lon="6.49756">
        <ele>2670.8</ele>
        <time>2021-02-28T12:30:05Z</time>
      </trkpt>
      <trkpt lat="45.03197" lon="6.49756">
        <ele>2670.8</ele>
        <time>2021-02-28T12:30:06Z</time>
      </trkpt>
      <trkpt lat="45.03197" lon="6.49756">
        <ele>2671</ele>
        <time>2021-02-28T12:30:07Z</time>
      </trkpt>
      <trkpt lat="45.03197" lon="6.49756">
        <ele>2671.2</ele>
        <time>2021-02-28T12:30:08Z</time>
      </trkpt>
      <trkpt lat="45.03197" lon="6.49756">
        <ele>2671.2</ele>
        <time>2021-02-28T12:30:09Z</time>
      </trkpt>
      <trkpt lat="45.03197" lon="6.49756">
        <ele>2671.4</ele>
        <time>2021-02-28T12:30:10Z</time>
      </trkpt>
      <trkpt lat="45.03197" lon="6.49756">
        <ele>2671.6</ele>
        <time>2021-02-28T12:30:11Z</time>
      </trkpt>
      <trkpt lat="45.03197" lon="6.49756">
        <ele>2671.6</ele>
        <time>2021-02-28T12:30:12Z</time>
      </trkpt>
      <trkpt lat="45.03197" lon="6.49756">
        <ele>2671</ele>
        <time>2021-02-28T12:30:13Z</time>
      </trkpt>
      <trkpt lat="45.03197" lon="6.49756">
        <ele>2670.8</ele>
        <time>2021-02-28T12:30:14Z</time>
      </trkpt>
      <trkpt lat="45.03197" lon="6.49756">
        <ele>2670.6</ele>
        <time>2021-02-28T12:30:15Z</time>
      </trkpt>
      <trkpt lat="45.03197" lon="6.49756">
        <ele>2670.4</ele>
        <time>2021-02-28T12:30:16Z</time>
      </trkpt>
      <trkpt lat="45.03197" lon="6.49756">
        <ele>2670.2</ele>
        <time>2021-02-28T12:30:17Z</time>
      </trkpt>
      <trkpt lat="45.03197" lon="6.49756">
        <ele>2670.2</ele>
        <time>2021-02-28T12:30:18Z</time>
      </trkpt>
      <trkpt lat="45.03197" lon="6.49756">
        <ele>2669.8</ele>
        <time>2021-02-28T12:30:19Z</time>
      </trkpt>
      <trkpt lat="45.03197" lon="6.49756">
        <ele>2670.6</ele>
        <time>2021-02-28T12:30:20Z</time>
      </trkpt>
      <trkpt lat="45.03197" lon="6.49756">
        <ele>2670.8</ele>
        <time>2021-02-28T12:30:21Z</time>
      </trkpt>
      <trkpt lat="45.03197" lon="6.49756">
        <ele>2670.2</ele>
        <time>2021-02-28T12:30:22Z</time>
      </trkpt>
      <trkpt lat="45.03197" lon="6.49756">
        <ele>2670</ele>
        <time>2021-02-28T12:30:23Z</time>
      </trkpt>
      <trkpt lat="45.03197" lon="6.49756">
        <ele>2669.8</ele>
        <time>2021-02-28T12:30:24Z</time>
      </trkpt>
      <trkpt lat="45.03197" lon="6.49756">
        <ele>2669.6</ele>
        <time>2021-02-28T12:30:25Z</time>
      </trkpt>
      <trkpt lat="45.03197" lon="6.49756">
        <ele>2669.6</ele>
        <time>2021-02-28T12:30:26Z</time>
      </trkpt>
      <trkpt lat="45.03197" lon="6.49756">
        <ele>2669.6</ele>
        <time>2021-02-28T12:30:27Z</time>
      </trkpt>
      <trkpt lat="45.03197" lon="6.49756">
        <ele>2669.6</ele>
        <time>2021-02-28T12:30:28Z</time>
      </trkpt>
      <trkpt lat="45.03197" lon="6.49756">
        <ele>2669.4</ele>
        <time>2021-02-28T12:30:29Z</time>
      </trkpt>
      <trkpt lat="45.03197" lon="6.49756">
        <ele>2669.4</ele>
        <time>2021-02-28T12:30:30Z</time>
      </trkpt>
      <trkpt lat="45.03197" lon="6.49756">
        <ele>2669.6</ele>
        <time>2021-02-28T12:30:31Z</time>
      </trkpt>
      <trkpt lat="45.03197" lon="6.49756">
        <ele>2669.2</ele>
        <time>2021-02-28T12:30:32Z</time>
      </trkpt>
      <trkpt lat="45.03197" lon="6.49756">
        <ele>2669.4</ele>
        <time>2021-02-28T12:30:33Z</time>
      </trkpt>
      <trkpt lat="45.03197" lon="6.49754">
        <ele>2669</ele>
        <time>2021-02-28T12:30:34Z</time>
      </trkpt>
      <trkpt lat="45.03197" lon="6.49754">
        <ele>2669</ele>
        <time>2021-02-28T12:30:35Z</time>
      </trkpt>
      <trkpt lat="45.03197" lon="6.49754">
        <ele>2669</ele>
        <time>2021-02-28T12:30:36Z</time>
      </trkpt>
      <trkpt lat="45.03197" lon="6.49754">
        <ele>2668.8</ele>
        <time>2021-02-28T12:30:37Z</time>
      </trkpt>
      <trkpt lat="45.03197" lon="6.49754">
        <ele>2668.8</ele>
        <time>2021-02-28T12:30:38Z</time>
      </trkpt>
      <trkpt lat="45.03197" lon="6.49754">
        <ele>2668.6</ele>
        <time>2021-02-28T12:30:39Z</time>
      </trkpt>
      <trkpt lat="45.03197" lon="6.49754">
        <ele>2668.6</ele>
        <time>2021-02-28T12:30:40Z</time>
      </trkpt>
      <trkpt lat="45.03197" lon="6.49754">
        <ele>2668.4</ele>
        <time>2021-02-28T12:30:41Z</time>
      </trkpt>
      <trkpt lat="45.03197" lon="6.49751">
        <ele>2668.6</ele>
        <time>2021-02-28T12:30:42Z</time>
      </trkpt>
      <trkpt lat="45.03197" lon="6.49751">
        <ele>2668</ele>
        <time>2021-02-28T12:30:43Z</time>
      </trkpt>
      <trkpt lat="45.03197" lon="6.49751">
        <ele>2668.2</ele>
        <time>2021-02-28T12:30:44Z</time>
      </trkpt>
      <trkpt lat="45.032" lon="6.49751">
        <ele>2668.4</ele>
        <time>2021-02-28T12:30:45Z</time>
      </trkpt>
      <trkpt lat="45.032" lon="6.49751">
        <ele>2668.4</ele>
        <time>2021-02-28T12:30:46Z</time>
      </trkpt>
      <trkpt lat="45.032" lon="6.49751">
        <ele>2668.6</ele>
        <time>2021-02-28T12:30:47Z</time>
      </trkpt>
      <trkpt lat="45.032" lon="6.49751">
        <ele>2668.8</ele>
        <time>2021-02-28T12:30:48Z</time>
      </trkpt>
      <trkpt lat="45.032" lon="6.49751">
        <ele>2669</ele>
        <time>2021-02-28T12:30:49Z</time>
      </trkpt>
      <trkpt lat="45.032" lon="6.49751">
        <ele>2669</ele>
        <time>2021-02-28T12:30:50Z</time>
      </trkpt>
      <trkpt lat="45.032" lon="6.49751">
        <ele>2669</ele>
        <time>2021-02-28T12:30:51Z</time>
      </trkpt>
      <trkpt lat="45.032" lon="6.49751">
        <ele>2668.8</ele>
        <time>2021-02-28T12:30:52Z</time>
      </trkpt>
      <trkpt lat="45.032" lon="6.49751">
        <ele>2668.6</ele>
        <time>2021-02-28T12:30:53Z</time>
      </trkpt>
      <trkpt lat="45.032" lon="6.49751">
        <ele>2668.8</ele>
        <time>2021-02-28T12:30:54Z</time>
      </trkpt>
      <trkpt lat="45.032" lon="6.49751">
        <ele>2668.6</ele>
        <time>2021-02-28T12:30:55Z</time>
      </trkpt>
      <trkpt lat="45.032" lon="6.49751">
        <ele>2668.8</ele>
        <time>2021-02-28T12:30:56Z</time>
      </trkpt>
      <trkpt lat="45.032" lon="6.49751">
        <ele>2669</ele>
        <time>2021-02-28T12:30:57Z</time>
      </trkpt>
      <trkpt lat="45.032" lon="6.49751">
        <ele>2668.6</ele>
        <time>2021-02-28T12:30:58Z</time>
      </trkpt>
      <trkpt lat="45.032" lon="6.49751">
        <ele>2668.6</ele>
        <time>2021-02-28T12:30:59Z</time>
      </trkpt>
      <trkpt lat="45.032" lon="6.49751">
        <ele>2668.8</ele>
        <time>2021-02-28T12:31:00Z</time>
      </trkpt>
      <trkpt lat="45.032" lon="6.49751">
        <ele>2668.8</ele>
        <time>2021-02-28T12:31:01Z</time>
      </trkpt>
      <trkpt lat="45.032" lon="6.49751">
        <ele>2669</ele>
        <time>2021-02-28T12:31:02Z</time>
      </trkpt>
      <trkpt lat="45.032" lon="6.49751">
        <ele>2668.6</ele>
        <time>2021-02-28T12:31:03Z</time>
      </trkpt>
      <trkpt lat="45.032" lon="6.49751">
        <ele>2668.6</ele>
        <time>2021-02-28T12:31:04Z</time>
      </trkpt>
      <trkpt lat="45.032" lon="6.49751">
        <ele>2668.2</ele>
        <time>2021-02-28T12:31:05Z</time>
      </trkpt>
      <trkpt lat="45.032" lon="6.49751">
        <ele>2668.4</ele>
        <time>2021-02-28T12:31:06Z</time>
      </trkpt>
      <trkpt lat="45.032" lon="6.49751">
        <ele>2668.2</ele>
        <time>2021-02-28T12:31:07Z</time>
      </trkpt>
      <trkpt lat="45.032" lon="6.49751">
        <ele>2668</ele>
        <time>2021-02-28T12:31:08Z</time>
      </trkpt>
      <trkpt lat="45.032" lon="6.49751">
        <ele>2668.6</ele>
        <time>2021-02-28T12:31:09Z</time>
      </trkpt>
      <trkpt lat="45.032" lon="6.49751">
        <ele>2668.6</ele>
        <time>2021-02-28T12:31:10Z</time>
      </trkpt>
      <trkpt lat="45.032" lon="6.49751">
        <ele>2668.8</ele>
        <time>2021-02-28T12:31:11Z</time>
      </trkpt>
      <trkpt lat="45.032" lon="6.49751">
        <ele>2669</ele>
        <time>2021-02-28T12:31:12Z</time>
      </trkpt>
      <trkpt lat="45.032" lon="6.49751">
        <ele>2669.2</ele>
        <time>2021-02-28T12:31:13Z</time>
      </trkpt>
      <trkpt lat="45.032" lon="6.49751">
        <ele>2669.4</ele>
        <time>2021-02-28T12:31:14Z</time>
      </trkpt>
      <trkpt lat="45.032" lon="6.49751">
        <ele>2669.6</ele>
        <time>2021-02-28T12:31:15Z</time>
      </trkpt>
      <trkpt lat="45.032" lon="6.49751">
        <ele>2670</ele>
        <time>2021-02-28T12:31:16Z</time>
      </trkpt>
      <trkpt lat="45.032" lon="6.49751">
        <ele>2669.8</ele>
        <time>2021-02-28T12:31:17Z</time>
      </trkpt>
      <trkpt lat="45.032" lon="6.49751">
        <ele>2669.8</ele>
        <time>2021-02-28T12:31:18Z</time>
      </trkpt>
      <trkpt lat="45.032" lon="6.49751">
        <ele>2670</ele>
        <time>2021-02-28T12:31:19Z</time>
      </trkpt>
      <trkpt lat="45.032" lon="6.49751">
        <ele>2670.2</ele>
        <time>2021-02-28T12:31:20Z</time>
      </trkpt>
      <trkpt lat="45.032" lon="6.49751">
        <ele>2670.2</ele>
        <time>2021-02-28T12:31:21Z</time>
      </trkpt>
      <trkpt lat="45.032" lon="6.49751">
        <ele>2670</ele>
        <time>2021-02-28T12:31:22Z</time>
      </trkpt>
      <trkpt lat="45.032" lon="6.49751">
        <ele>2669</ele>
        <time>2021-02-28T12:31:23Z</time>
      </trkpt>
      <trkpt lat="45.032" lon="6.49751">
        <ele>2668.6</ele>
        <time>2021-02-28T12:31:24Z</time>
      </trkpt>
      <trkpt lat="45.03199" lon="6.49754">
        <ele>2667.6</ele>
        <time>2021-02-28T12:31:25Z</time>
      </trkpt>
      <trkpt lat="45.03199" lon="6.49754">
        <ele>2667.2</ele>
        <time>2021-02-28T12:31:26Z</time>
      </trkpt>
      <trkpt lat="45.03199" lon="6.49754">
        <ele>2666.4</ele>
        <time>2021-02-28T12:31:27Z</time>
      </trkpt>
      <trkpt lat="45.03199" lon="6.49754">
        <ele>2666.8</ele>
        <time>2021-02-28T12:31:28Z</time>
      </trkpt>
      <trkpt lat="45.03199" lon="6.49754">
        <ele>2667</ele>
        <time>2021-02-28T12:31:29Z</time>
      </trkpt>
      <trkpt lat="45.03199" lon="6.49754">
        <ele>2667</ele>
        <time>2021-02-28T12:31:30Z</time>
      </trkpt>
      <trkpt lat="45.03199" lon="6.49754">
        <ele>2667</ele>
        <time>2021-02-28T12:31:31Z</time>
      </trkpt>
      <trkpt lat="45.03199" lon="6.49754">
        <ele>2667</ele>
        <time>2021-02-28T12:31:32Z</time>
      </trkpt>
      <trkpt lat="45.03199" lon="6.49754">
        <ele>2667.2</ele>
        <time>2021-02-28T12:31:33Z</time>
      </trkpt>
      <trkpt lat="45.03199" lon="6.49754">
        <ele>2667.2</ele>
        <time>2021-02-28T12:31:34Z</time>
      </trkpt>
      <trkpt lat="45.03199" lon="6.49754">
        <ele>2667</ele>
        <time>2021-02-28T12:31:35Z</time>
      </trkpt>
      <trkpt lat="45.03199" lon="6.49754">
        <ele>2667</ele>
        <time>2021-02-28T12:31:36Z</time>
      </trkpt>
      <trkpt lat="45.03199" lon="6.49754">
        <ele>2667.2</ele>
        <time>2021-02-28T12:31:37Z</time>
      </trkpt>
      <trkpt lat="45.03199" lon="6.49754">
        <ele>2667</ele>
        <time>2021-02-28T12:31:38Z</time>
      </trkpt>
      <trkpt lat="45.03199" lon="6.49754">
        <ele>2666.8</ele>
        <time>2021-02-28T12:31:39Z</time>
      </trkpt>
      <trkpt lat="45.03199" lon="6.49754">
        <ele>2666.4</ele>
        <time>2021-02-28T12:31:40Z</time>
      </trkpt>
      <trkpt lat="45.03199" lon="6.49754">
        <ele>2666</ele>
        <time>2021-02-28T12:31:41Z</time>
      </trkpt>
      <trkpt lat="45.03199" lon="6.49754">
        <ele>2666</ele>
        <time>2021-02-28T12:31:42Z</time>
      </trkpt>
      <trkpt lat="45.03199" lon="6.49754">
        <ele>2666.2</ele>
        <time>2021-02-28T12:31:43Z</time>
      </trkpt>
      <trkpt lat="45.03199" lon="6.49754">
        <ele>2666.4</ele>
        <time>2021-02-28T12:31:44Z</time>
      </trkpt>
      <trkpt lat="45.03199" lon="6.49754">
        <ele>2666.4</ele>
        <time>2021-02-28T12:31:45Z</time>
      </trkpt>
      <trkpt lat="45.03199" lon="6.49754">
        <ele>2666.6</ele>
        <time>2021-02-28T12:31:46Z</time>
      </trkpt>
      <trkpt lat="45.03198" lon="6.49755">
        <ele>2666.6</ele>
        <time>2021-02-28T12:31:47Z</time>
      </trkpt>
      <trkpt lat="45.03198" lon="6.49755">
        <ele>2666.8</ele>
        <time>2021-02-28T12:31:48Z</time>
      </trkpt>
      <trkpt lat="45.03198" lon="6.49755">
        <ele>2667</ele>
        <time>2021-02-28T12:31:49Z</time>
      </trkpt>
      <trkpt lat="45.03198" lon="6.49755">
        <ele>2667</ele>
        <time>2021-02-28T12:31:50Z</time>
      </trkpt>
      <trkpt lat="45.03198" lon="6.49755">
        <ele>2666.8</ele>
        <time>2021-02-28T12:31:51Z</time>
      </trkpt>
      <trkpt lat="45.03198" lon="6.49755">
        <ele>2666.6</ele>
        <time>2021-02-28T12:31:52Z</time>
      </trkpt>
      <trkpt lat="45.03198" lon="6.49755">
        <ele>2666.2</ele>
        <time>2021-02-28T12:31:53Z</time>
      </trkpt>
      <trkpt lat="45.03198" lon="6.49755">
        <ele>2666.2</ele>
        <time>2021-02-28T12:31:54Z</time>
      </trkpt>
      <trkpt lat="45.03198" lon="6.49755">
        <ele>2665.4</ele>
        <time>2021-02-28T12:31:55Z</time>
      </trkpt>
      <trkpt lat="45.03198" lon="6.49755">
        <ele>2665.8</ele>
        <time>2021-02-28T12:31:56Z</time>
      </trkpt>
      <trkpt lat="45.03198" lon="6.49755">
        <ele>2666.4</ele>
        <time>2021-02-28T12:31:57Z</time>
      </trkpt>
      <trkpt lat="45.03198" lon="6.49755">
        <ele>2666.8</ele>
        <time>2021-02-28T12:31:58Z</time>
      </trkpt>
      <trkpt lat="45.03198" lon="6.49755">
        <ele>2667</ele>
        <time>2021-02-28T12:31:59Z</time>
      </trkpt>
      <trkpt lat="45.03198" lon="6.49755">
        <ele>2667.2</ele>
        <time>2021-02-28T12:32:00Z</time>
      </trkpt>
      <trkpt lat="45.03198" lon="6.49755">
        <ele>2667.6</ele>
        <time>2021-02-28T12:32:01Z</time>
      </trkpt>
      <trkpt lat="45.03198" lon="6.49755">
        <ele>2668</ele>
        <time>2021-02-28T12:32:02Z</time>
      </trkpt>
      <trkpt lat="45.03198" lon="6.49755">
        <ele>2667.6</ele>
        <time>2021-02-28T12:32:03Z</time>
      </trkpt>
      <trkpt lat="45.03198" lon="6.49755">
        <ele>2667.6</ele>
        <time>2021-02-28T12:32:04Z</time>
      </trkpt>
      <trkpt lat="45.03198" lon="6.49755">
        <ele>2667.4</ele>
        <time>2021-02-28T12:32:05Z</time>
      </trkpt>
      <trkpt lat="45.03198" lon="6.49755">
        <ele>2667.4</ele>
        <time>2021-02-28T12:32:06Z</time>
      </trkpt>
      <trkpt lat="45.03198" lon="6.49755">
        <ele>2667.4</ele>
        <time>2021-02-28T12:32:07Z</time>
      </trkpt>
      <trkpt lat="45.03198" lon="6.49755">
        <ele>2667.4</ele>
        <time>2021-02-28T12:32:08Z</time>
      </trkpt>
      <trkpt lat="45.03198" lon="6.49755">
        <ele>2667.4</ele>
        <time>2021-02-28T12:32:09Z</time>
      </trkpt>
      <trkpt lat="45.03198" lon="6.49755">
        <ele>2667.4</ele>
        <time>2021-02-28T12:32:10Z</time>
      </trkpt>
      <trkpt lat="45.03198" lon="6.49755">
        <ele>2667.4</ele>
        <time>2021-02-28T12:32:11Z</time>
      </trkpt>
      <trkpt lat="45.03198" lon="6.49755">
        <ele>2667.2</ele>
        <time>2021-02-28T12:32:12Z</time>
      </trkpt>
      <trkpt lat="45.03198" lon="6.49755">
        <ele>2667.2</ele>
        <time>2021-02-28T12:32:13Z</time>
      </trkpt>
      <trkpt lat="45.03198" lon="6.49755">
        <ele>2667.2</ele>
        <time>2021-02-28T12:32:14Z</time>
      </trkpt>
      <trkpt lat="45.03198" lon="6.49755">
        <ele>2667.4</ele>
        <time>2021-02-28T12:32:15Z</time>
      </trkpt>
      <trkpt lat="45.03198" lon="6.49755">
        <ele>2667.6</ele>
        <time>2021-02-28T12:32:16Z</time>
      </trkpt>
      <trkpt lat="45.03198" lon="6.49755">
        <ele>2667.8</ele>
        <time>2021-02-28T12:32:17Z</time>
      </trkpt>
      <trkpt lat="45.03198" lon="6.49755">
        <ele>2668</ele>
        <time>2021-02-28T12:32:18Z</time>
      </trkpt>
      <trkpt lat="45.03198" lon="6.49755">
        <ele>2667.6</ele>
        <time>2021-02-28T12:32:19Z</time>
      </trkpt>
      <trkpt lat="45.03198" lon="6.49755">
        <ele>2667</ele>
        <time>2021-02-28T12:32:20Z</time>
      </trkpt>
      <trkpt lat="45.03198" lon="6.49755">
        <ele>2666.8</ele>
        <time>2021-02-28T12:32:21Z</time>
      </trkpt>
      <trkpt lat="45.03198" lon="6.49755">
        <ele>2666.6</ele>
        <time>2021-02-28T12:32:22Z</time>
      </trkpt>
      <trkpt lat="45.03198" lon="6.49755">
        <ele>2666</ele>
        <time>2021-02-28T12:32:23Z</time>
      </trkpt>
      <trkpt lat="45.03198" lon="6.49755">
        <ele>2665.8</ele>
        <time>2021-02-28T12:32:24Z</time>
      </trkpt>
      <trkpt lat="45.03198" lon="6.49755">
        <ele>2665.4</ele>
        <time>2021-02-28T12:32:25Z</time>
      </trkpt>
      <trkpt lat="45.03198" lon="6.49755">
        <ele>2665</ele>
        <time>2021-02-28T12:32:26Z</time>
      </trkpt>
      <trkpt lat="45.03198" lon="6.49755">
        <ele>2665</ele>
        <time>2021-02-28T12:32:27Z</time>
      </trkpt>
      <trkpt lat="45.03198" lon="6.49755">
        <ele>2664.6</ele>
        <time>2021-02-28T12:32:28Z</time>
      </trkpt>
      <trkpt lat="45.03198" lon="6.49755">
        <ele>2664.8</ele>
        <time>2021-02-28T12:32:29Z</time>
      </trkpt>
      <trkpt lat="45.03198" lon="6.49755">
        <ele>2665.4</ele>
        <time>2021-02-28T12:32:30Z</time>
      </trkpt>
      <trkpt lat="45.03198" lon="6.49755">
        <ele>2665.4</ele>
        <time>2021-02-28T12:32:31Z</time>
      </trkpt>
      <trkpt lat="45.03198" lon="6.49755">
        <ele>2665.4</ele>
        <time>2021-02-28T12:32:32Z</time>
      </trkpt>
      <trkpt lat="45.03198" lon="6.49755">
        <ele>2665.6</ele>
        <time>2021-02-28T12:32:33Z</time>
      </trkpt>
      <trkpt lat="45.03198" lon="6.49755">
        <ele>2665.6</ele>
        <time>2021-02-28T12:32:34Z</time>
      </trkpt>
      <trkpt lat="45.03198" lon="6.49755">
        <ele>2665.4</ele>
        <time>2021-02-28T12:32:35Z</time>
      </trkpt>
      <trkpt lat="45.03198" lon="6.49755">
        <ele>2665.8</ele>
        <time>2021-02-28T12:32:36Z</time>
      </trkpt>
      <trkpt lat="45.03198" lon="6.49755">
        <ele>2665.6</ele>
        <time>2021-02-28T12:32:37Z</time>
      </trkpt>
      <trkpt lat="45.03198" lon="6.49755">
        <ele>2665.4</ele>
        <time>2021-02-28T12:32:38Z</time>
      </trkpt>
      <trkpt lat="45.03198" lon="6.49755">
        <ele>2665.4</ele>
        <time>2021-02-28T12:32:39Z</time>
      </trkpt>
      <trkpt lat="45.03198" lon="6.49755">
        <ele>2665.6</ele>
        <time>2021-02-28T12:32:40Z</time>
      </trkpt>
      <trkpt lat="45.03198" lon="6.49755">
        <ele>2665.8</ele>
        <time>2021-02-28T12:32:41Z</time>
      </trkpt>
      <trkpt lat="45.03198" lon="6.49755">
        <ele>2665.8</ele>
        <time>2021-02-28T12:32:42Z</time>
      </trkpt>
      <trkpt lat="45.03198" lon="6.49755">
        <ele>2666</ele>
        <time>2021-02-28T12:32:43Z</time>
      </trkpt>
      <trkpt lat="45.03198" lon="6.49755">
        <ele>2666</ele>
        <time>2021-02-28T12:32:44Z</time>
      </trkpt>
      <trkpt lat="45.03198" lon="6.49755">
        <ele>2665.6</ele>
        <time>2021-02-28T12:32:45Z</time>
      </trkpt>
      <trkpt lat="45.03198" lon="6.49755">
        <ele>2665.6</ele>
        <time>2021-02-28T12:32:46Z</time>
      </trkpt>
      <trkpt lat="45.03198" lon="6.49755">
        <ele>2665.4</ele>
        <time>2021-02-28T12:32:47Z</time>
      </trkpt>
      <trkpt lat="45.03198" lon="6.49755">
        <ele>2665.8</ele>
        <time>2021-02-28T12:32:48Z</time>
      </trkpt>
      <trkpt lat="45.03198" lon="6.49755">
        <ele>2665.6</ele>
        <time>2021-02-28T12:32:49Z</time>
      </trkpt>
      <trkpt lat="45.03198" lon="6.49755">
        <ele>2666</ele>
        <time>2021-02-28T12:32:50Z</time>
      </trkpt>
      <trkpt lat="45.03198" lon="6.49755">
        <ele>2666.2</ele>
        <time>2021-02-28T12:32:51Z</time>
      </trkpt>
      <trkpt lat="45.03198" lon="6.49755">
        <ele>2666.2</ele>
        <time>2021-02-28T12:32:52Z</time>
      </trkpt>
      <trkpt lat="45.03198" lon="6.49755">
        <ele>2666.2</ele>
        <time>2021-02-28T12:32:53Z</time>
      </trkpt>
      <trkpt lat="45.03198" lon="6.49755">
        <ele>2666.2</ele>
        <time>2021-02-28T12:32:54Z</time>
      </trkpt>
      <trkpt lat="45.03198" lon="6.49755">
        <ele>2666.2</ele>
        <time>2021-02-28T12:32:55Z</time>
      </trkpt>
      <trkpt lat="45.03198" lon="6.49755">
        <ele>2666</ele>
        <time>2021-02-28T12:32:56Z</time>
      </trkpt>
      <trkpt lat="45.03198" lon="6.49755">
        <ele>2666</ele>
        <time>2021-02-28T12:32:57Z</time>
      </trkpt>
      <trkpt lat="45.03198" lon="6.49755">
        <ele>2666</ele>
        <time>2021-02-28T12:32:58Z</time>
      </trkpt>
      <trkpt lat="45.03198" lon="6.49755">
        <ele>2666.2</ele>
        <time>2021-02-28T12:32:59Z</time>
      </trkpt>
      <trkpt lat="45.03198" lon="6.49755">
        <ele>2666.6</ele>
        <time>2021-02-28T12:33:00Z</time>
      </trkpt>
      <trkpt lat="45.03198" lon="6.49755">
        <ele>2666.4</ele>
        <time>2021-02-28T12:33:01Z</time>
      </trkpt>
      <trkpt lat="45.03198" lon="6.49755">
        <ele>2666.4</ele>
        <time>2021-02-28T12:33:02Z</time>
      </trkpt>
      <trkpt lat="45.03198" lon="6.49755">
        <ele>2666.6</ele>
        <time>2021-02-28T12:33:03Z</time>
      </trkpt>
      <trkpt lat="45.03198" lon="6.49755">
        <ele>2666.6</ele>
        <time>2021-02-28T12:33:04Z</time>
      </trkpt>
      <trkpt lat="45.03198" lon="6.49755">
        <ele>2666.6</ele>
        <time>2021-02-28T12:33:05Z</time>
      </trkpt>
      <trkpt lat="45.03198" lon="6.49755">
        <ele>2666.6</ele>
        <time>2021-02-28T12:33:06Z</time>
      </trkpt>
      <trkpt lat="45.03198" lon="6.49755">
        <ele>2667</ele>
        <time>2021-02-28T12:33:07Z</time>
      </trkpt>
      <trkpt lat="45.03198" lon="6.49755">
        <ele>2667.2</ele>
        <time>2021-02-28T12:33:08Z</time>
      </trkpt>
      <trkpt lat="45.03198" lon="6.49755">
        <ele>2667.4</ele>
        <time>2021-02-28T12:33:09Z</time>
      </trkpt>
      <trkpt lat="45.03198" lon="6.49755">
        <ele>2668.2</ele>
        <time>2021-02-28T12:33:10Z</time>
      </trkpt>
      <trkpt lat="45.03198" lon="6.49755">
        <ele>2668.4</ele>
        <time>2021-02-28T12:33:11Z</time>
      </trkpt>
      <trkpt lat="45.03198" lon="6.49755">
        <ele>2668.2</ele>
        <time>2021-02-28T12:33:12Z</time>
      </trkpt>
      <trkpt lat="45.03198" lon="6.49755">
        <ele>2668</ele>
        <time>2021-02-28T12:33:13Z</time>
      </trkpt>
      <trkpt lat="45.03198" lon="6.49755">
        <ele>2668</ele>
        <time>2021-02-28T12:33:14Z</time>
      </trkpt>
      <trkpt lat="45.03198" lon="6.49755">
        <ele>2668</ele>
        <time>2021-02-28T12:33:15Z</time>
      </trkpt>
      <trkpt lat="45.03198" lon="6.49755">
        <ele>2667.8</ele>
        <time>2021-02-28T12:33:16Z</time>
      </trkpt>
      <trkpt lat="45.03198" lon="6.49755">
        <ele>2666.8</ele>
        <time>2021-02-28T12:33:17Z</time>
      </trkpt>
      <trkpt lat="45.03198" lon="6.49755">
        <ele>2667</ele>
        <time>2021-02-28T12:33:18Z</time>
      </trkpt>
      <trkpt lat="45.03198" lon="6.49755">
        <ele>2667</ele>
        <time>2021-02-28T12:33:19Z</time>
      </trkpt>
      <trkpt lat="45.03198" lon="6.49755">
        <ele>2666.8</ele>
        <time>2021-02-28T12:33:20Z</time>
      </trkpt>
      <trkpt lat="45.03198" lon="6.49755">
        <ele>2666.6</ele>
        <time>2021-02-28T12:33:21Z</time>
      </trkpt>
      <trkpt lat="45.03198" lon="6.49755">
        <ele>2666.2</ele>
        <time>2021-02-28T12:33:22Z</time>
      </trkpt>
      <trkpt lat="45.03198" lon="6.49755">
        <ele>2666.6</ele>
        <time>2021-02-28T12:33:23Z</time>
      </trkpt>
      <trkpt lat="45.03198" lon="6.49755">
        <ele>2667</ele>
        <time>2021-02-28T12:33:24Z</time>
      </trkpt>
      <trkpt lat="45.03198" lon="6.49755">
        <ele>2667.4</ele>
        <time>2021-02-28T12:33:25Z</time>
      </trkpt>
      <trkpt lat="45.03198" lon="6.49755">
        <ele>2667.4</ele>
        <time>2021-02-28T12:33:26Z</time>
      </trkpt>
      <trkpt lat="45.03198" lon="6.49755">
        <ele>2667.2</ele>
        <time>2021-02-28T12:33:27Z</time>
      </trkpt>
      <trkpt lat="45.03198" lon="6.49755">
        <ele>2667</ele>
        <time>2021-02-28T12:33:28Z</time>
      </trkpt>
      <trkpt lat="45.03198" lon="6.49755">
        <ele>2667</ele>
        <time>2021-02-28T12:33:29Z</time>
      </trkpt>
      <trkpt lat="45.03198" lon="6.49755">
        <ele>2667</ele>
        <time>2021-02-28T12:33:30Z</time>
      </trkpt>
      <trkpt lat="45.03198" lon="6.49755">
        <ele>2667</ele>
        <time>2021-02-28T12:33:31Z</time>
      </trkpt>
      <trkpt lat="45.03198" lon="6.49755">
        <ele>2667.4</ele>
        <time>2021-02-28T12:33:32Z</time>
      </trkpt>
      <trkpt lat="45.03198" lon="6.49755">
        <ele>2667.2</ele>
        <time>2021-02-28T12:33:33Z</time>
      </trkpt>
      <trkpt lat="45.03198" lon="6.49755">
        <ele>2667.2</ele>
        <time>2021-02-28T12:33:34Z</time>
      </trkpt>
      <trkpt lat="45.03198" lon="6.49755">
        <ele>2667.2</ele>
        <time>2021-02-28T12:33:35Z</time>
      </trkpt>
      <trkpt lat="45.03198" lon="6.49755">
        <ele>2668</ele>
        <time>2021-02-28T12:33:36Z</time>
      </trkpt>
      <trkpt lat="45.03198" lon="6.49755">
        <ele>2668.2</ele>
        <time>2021-02-28T12:33:37Z</time>
      </trkpt>
      <trkpt lat="45.03198" lon="6.49755">
        <ele>2668.2</ele>
        <time>2021-02-28T12:33:38Z</time>
      </trkpt>
      <trkpt lat="45.03198" lon="6.49755">
        <ele>2668.2</ele>
        <time>2021-02-28T12:33:39Z</time>
      </trkpt>
      <trkpt lat="45.03198" lon="6.49755">
        <ele>2668.4</ele>
        <time>2021-02-28T12:33:40Z</time>
      </trkpt>
      <trkpt lat="45.03198" lon="6.49755">
        <ele>2668.4</ele>
        <time>2021-02-28T12:33:41Z</time>
      </trkpt>
      <trkpt lat="45.03198" lon="6.49755">
        <ele>2668.4</ele>
        <time>2021-02-28T12:33:42Z</time>
      </trkpt>
      <trkpt lat="45.03198" lon="6.49755">
        <ele>2668.4</ele>
        <time>2021-02-28T12:33:43Z</time>
      </trkpt>
      <trkpt lat="45.03198" lon="6.49755">
        <ele>2668.6</ele>
        <time>2021-02-28T12:33:44Z</time>
      </trkpt>
      <trkpt lat="45.03198" lon="6.49755">
        <ele>2668.6</ele>
        <time>2021-02-28T12:33:45Z</time>
      </trkpt>
      <trkpt lat="45.03198" lon="6.49755">
        <ele>2668.8</ele>
        <time>2021-02-28T12:33:46Z</time>
      </trkpt>
      <trkpt lat="45.03198" lon="6.49755">
        <ele>2668.8</ele>
        <time>2021-02-28T12:33:47Z</time>
      </trkpt>
      <trkpt lat="45.03198" lon="6.49755">
        <ele>2669</ele>
        <time>2021-02-28T12:33:48Z</time>
      </trkpt>
      <trkpt lat="45.03198" lon="6.49755">
        <ele>2669.2</ele>
        <time>2021-02-28T12:33:49Z</time>
      </trkpt>
      <trkpt lat="45.03198" lon="6.49755">
        <ele>2669</ele>
        <time>2021-02-28T12:33:50Z</time>
      </trkpt>
      <trkpt lat="45.03198" lon="6.49755">
        <ele>2668.8</ele>
        <time>2021-02-28T12:33:51Z</time>
      </trkpt>
      <trkpt lat="45.03198" lon="6.49755">
        <ele>2668.8</ele>
        <time>2021-02-28T12:33:52Z</time>
      </trkpt>
      <trkpt lat="45.03198" lon="6.49755">
        <ele>2668.8</ele>
        <time>2021-02-28T12:33:53Z</time>
      </trkpt>
      <trkpt lat="45.03198" lon="6.49755">
        <ele>2668.8</ele>
        <time>2021-02-28T12:33:54Z</time>
      </trkpt>
      <trkpt lat="45.03198" lon="6.49755">
        <ele>2668.8</ele>
        <time>2021-02-28T12:33:55Z</time>
      </trkpt>
      <trkpt lat="45.03198" lon="6.49755">
        <ele>2669</ele>
        <time>2021-02-28T12:33:56Z</time>
      </trkpt>
      <trkpt lat="45.03198" lon="6.49755">
        <ele>2668.8</ele>
        <time>2021-02-28T12:33:57Z</time>
      </trkpt>
      <trkpt lat="45.03198" lon="6.49755">
        <ele>2668.8</ele>
        <time>2021-02-28T12:33:58Z</time>
      </trkpt>
      <trkpt lat="45.03198" lon="6.49755">
        <ele>2669</ele>
        <time>2021-02-28T12:33:59Z</time>
      </trkpt>
      <trkpt lat="45.03198" lon="6.49755">
        <ele>2669.2</ele>
        <time>2021-02-28T12:34:00Z</time>
      </trkpt>
      <trkpt lat="45.03198" lon="6.49755">
        <ele>2668.8</ele>
        <time>2021-02-28T12:34:01Z</time>
      </trkpt>
      <trkpt lat="45.03198" lon="6.49755">
        <ele>2668.8</ele>
        <time>2021-02-28T12:34:02Z</time>
      </trkpt>
      <trkpt lat="45.03198" lon="6.49755">
        <ele>2668.4</ele>
        <time>2021-02-28T12:34:03Z</time>
      </trkpt>
      <trkpt lat="45.03198" lon="6.49755">
        <ele>2668.6</ele>
        <time>2021-02-28T12:34:04Z</time>
      </trkpt>
      <trkpt lat="45.03198" lon="6.49755">
        <ele>2668.4</ele>
        <time>2021-02-28T12:34:05Z</time>
      </trkpt>
      <trkpt lat="45.03198" lon="6.49755">
        <ele>2668</ele>
        <time>2021-02-28T12:34:06Z</time>
      </trkpt>
      <trkpt lat="45.03198" lon="6.49755">
        <ele>2668</ele>
        <time>2021-02-28T12:34:07Z</time>
      </trkpt>
      <trkpt lat="45.03198" lon="6.49755">
        <ele>2667.8</ele>
        <time>2021-02-28T12:34:08Z</time>
      </trkpt>
      <trkpt lat="45.03198" lon="6.49755">
        <ele>2667.8</ele>
        <time>2021-02-28T12:34:09Z</time>
      </trkpt>
      <trkpt lat="45.03198" lon="6.49755">
        <ele>2668.6</ele>
        <time>2021-02-28T12:34:10Z</time>
      </trkpt>
      <trkpt lat="45.03198" lon="6.49755">
        <ele>2669.2</ele>
        <time>2021-02-28T12:34:11Z</time>
      </trkpt>
      <trkpt lat="45.03198" lon="6.49755">
        <ele>2669.2</ele>
        <time>2021-02-28T12:34:12Z</time>
      </trkpt>
      <trkpt lat="45.03198" lon="6.49755">
        <ele>2669</ele>
        <time>2021-02-28T12:34:13Z</time>
      </trkpt>
      <trkpt lat="45.03198" lon="6.49755">
        <ele>2668.6</ele>
        <time>2021-02-28T12:34:14Z</time>
      </trkpt>
      <trkpt lat="45.03198" lon="6.49755">
        <ele>2668.4</ele>
        <time>2021-02-28T12:34:15Z</time>
      </trkpt>
      <trkpt lat="45.03198" lon="6.49755">
        <ele>2668.2</ele>
        <time>2021-02-28T12:34:16Z</time>
      </trkpt>
      <trkpt lat="45.03198" lon="6.49755">
        <ele>2668</ele>
        <time>2021-02-28T12:34:17Z</time>
      </trkpt>
      <trkpt lat="45.03198" lon="6.49755">
        <ele>2668</ele>
        <time>2021-02-28T12:34:18Z</time>
      </trkpt>
      <trkpt lat="45.03198" lon="6.49755">
        <ele>2667.8</ele>
        <time>2021-02-28T12:34:19Z</time>
      </trkpt>
      <trkpt lat="45.03198" lon="6.49755">
        <ele>2668</ele>
        <time>2021-02-28T12:34:20Z</time>
      </trkpt>
      <trkpt lat="45.03198" lon="6.49755">
        <ele>2667.6</ele>
        <time>2021-02-28T12:34:21Z</time>
      </trkpt>
      <trkpt lat="45.03198" lon="6.49755">
        <ele>2667.2</ele>
        <time>2021-02-28T12:34:22Z</time>
      </trkpt>
      <trkpt lat="45.03198" lon="6.49755">
        <ele>2667.2</ele>
        <time>2021-02-28T12:34:23Z</time>
      </trkpt>
      <trkpt lat="45.03198" lon="6.49755">
        <ele>2667.4</ele>
        <time>2021-02-28T12:34:24Z</time>
      </trkpt>
      <trkpt lat="45.03198" lon="6.49755">
        <ele>2667.6</ele>
        <time>2021-02-28T12:34:25Z</time>
      </trkpt>
      <trkpt lat="45.03198" lon="6.49755">
        <ele>2667.6</ele>
        <time>2021-02-28T12:34:26Z</time>
      </trkpt>
      <trkpt lat="45.03198" lon="6.49755">
        <ele>2667.6</ele>
        <time>2021-02-28T12:34:27Z</time>
      </trkpt>
      <trkpt lat="45.03198" lon="6.49755">
        <ele>2667.6</ele>
        <time>2021-02-28T12:34:28Z</time>
      </trkpt>
      <trkpt lat="45.03198" lon="6.49755">
        <ele>2667.8</ele>
        <time>2021-02-28T12:34:29Z</time>
      </trkpt>
      <trkpt lat="45.03198" lon="6.49755">
        <ele>2667.8</ele>
        <time>2021-02-28T12:34:30Z</time>
      </trkpt>
      <trkpt lat="45.03198" lon="6.49755">
        <ele>2668</ele>
        <time>2021-02-28T12:34:31Z</time>
      </trkpt>
      <trkpt lat="45.03198" lon="6.49755">
        <ele>2667.8</ele>
        <time>2021-02-28T12:34:32Z</time>
      </trkpt>
      <trkpt lat="45.03198" lon="6.49755">
        <ele>2668</ele>
        <time>2021-02-28T12:34:33Z</time>
      </trkpt>
      <trkpt lat="45.03198" lon="6.49755">
        <ele>2668.8</ele>
        <time>2021-02-28T12:34:34Z</time>
      </trkpt>
      <trkpt lat="45.03198" lon="6.49755">
        <ele>2669.2</ele>
        <time>2021-02-28T12:34:35Z</time>
      </trkpt>
      <trkpt lat="45.03198" lon="6.49755">
        <ele>2669.4</ele>
        <time>2021-02-28T12:34:36Z</time>
      </trkpt>
      <trkpt lat="45.03198" lon="6.49755">
        <ele>2669.8</ele>
        <time>2021-02-28T12:34:37Z</time>
      </trkpt>
      <trkpt lat="45.03198" lon="6.49755">
        <ele>2669.2</ele>
        <time>2021-02-28T12:34:38Z</time>
      </trkpt>
      <trkpt lat="45.03198" lon="6.49755">
        <ele>2669</ele>
        <time>2021-02-28T12:34:39Z</time>
      </trkpt>
      <trkpt lat="45.03198" lon="6.49755">
        <ele>2668.8</ele>
        <time>2021-02-28T12:34:40Z</time>
      </trkpt>
      <trkpt lat="45.03198" lon="6.49755">
        <ele>2668</ele>
        <time>2021-02-28T12:34:41Z</time>
      </trkpt>
      <trkpt lat="45.03198" lon="6.49755">
        <ele>2668.4</ele>
        <time>2021-02-28T12:34:42Z</time>
      </trkpt>
      <trkpt lat="45.03198" lon="6.49755">
        <ele>2669.2</ele>
        <time>2021-02-28T12:34:43Z</time>
      </trkpt>
      <trkpt lat="45.03198" lon="6.49755">
        <ele>2669.2</ele>
        <time>2021-02-28T12:34:44Z</time>
      </trkpt>
      <trkpt lat="45.03198" lon="6.49755">
        <ele>2668.8</ele>
        <time>2021-02-28T12:34:45Z</time>
      </trkpt>
      <trkpt lat="45.03198" lon="6.49755">
        <ele>2669</ele>
        <time>2021-02-28T12:34:46Z</time>
      </trkpt>
      <trkpt lat="45.03198" lon="6.49755">
        <ele>2668.8</ele>
        <time>2021-02-28T12:34:47Z</time>
      </trkpt>
      <trkpt lat="45.03198" lon="6.49755">
        <ele>2668.6</ele>
        <time>2021-02-28T12:34:48Z</time>
      </trkpt>
      <trkpt lat="45.03198" lon="6.49755">
        <ele>2668.4</ele>
        <time>2021-02-28T12:34:49Z</time>
      </trkpt>
      <trkpt lat="45.03198" lon="6.49755">
        <ele>2668.4</ele>
        <time>2021-02-28T12:34:50Z</time>
      </trkpt>
      <trkpt lat="45.03198" lon="6.49755">
        <ele>2669</ele>
        <time>2021-02-28T12:34:51Z</time>
      </trkpt>
      <trkpt lat="45.03198" lon="6.49755">
        <ele>2668.6</ele>
        <time>2021-02-28T12:34:52Z</time>
      </trkpt>
      <trkpt lat="45.03198" lon="6.49755">
        <ele>2668.8</ele>
        <time>2021-02-28T12:34:53Z</time>
      </trkpt>
      <trkpt lat="45.03198" lon="6.49755">
        <ele>2669.2</ele>
        <time>2021-02-28T12:34:54Z</time>
      </trkpt>
      <trkpt lat="45.03198" lon="6.49755">
        <ele>2669.6</ele>
        <time>2021-02-28T12:34:55Z</time>
      </trkpt>
      <trkpt lat="45.03198" lon="6.49755">
        <ele>2669.8</ele>
        <time>2021-02-28T12:34:56Z</time>
      </trkpt>
      <trkpt lat="45.03198" lon="6.49755">
        <ele>2669.8</ele>
        <time>2021-02-28T12:34:57Z</time>
      </trkpt>
      <trkpt lat="45.03198" lon="6.49755">
        <ele>2669.6</ele>
        <time>2021-02-28T12:34:58Z</time>
      </trkpt>
      <trkpt lat="45.03198" lon="6.49755">
        <ele>2669.6</ele>
        <time>2021-02-28T12:34:59Z</time>
      </trkpt>
      <trkpt lat="45.03198" lon="6.49755">
        <ele>2669</ele>
        <time>2021-02-28T12:35:00Z</time>
      </trkpt>
      <trkpt lat="45.03198" lon="6.49755">
        <ele>2668.8</ele>
        <time>2021-02-28T12:35:01Z</time>
      </trkpt>
      <trkpt lat="45.03198" lon="6.49755">
        <ele>2668.8</ele>
        <time>2021-02-28T12:35:02Z</time>
      </trkpt>
      <trkpt lat="45.03198" lon="6.49755">
        <ele>2668.8</ele>
        <time>2021-02-28T12:35:03Z</time>
      </trkpt>
      <trkpt lat="45.03198" lon="6.49755">
        <ele>2668.8</ele>
        <time>2021-02-28T12:35:04Z</time>
      </trkpt>
      <trkpt lat="45.03198" lon="6.49755">
        <ele>2668.8</ele>
        <time>2021-02-28T12:35:05Z</time>
      </trkpt>
      <trkpt lat="45.03198" lon="6.49755">
        <ele>2668.8</ele>
        <time>2021-02-28T12:35:06Z</time>
      </trkpt>
      <trkpt lat="45.03198" lon="6.49755">
        <ele>2669</ele>
        <time>2021-02-28T12:35:07Z</time>
      </trkpt>
      <trkpt lat="45.03198" lon="6.49755">
        <ele>2669.2</ele>
        <time>2021-02-28T12:35:08Z</time>
      </trkpt>
      <trkpt lat="45.03198" lon="6.49755">
        <ele>2669.4</ele>
        <time>2021-02-28T12:35:09Z</time>
      </trkpt>
      <trkpt lat="45.03198" lon="6.49755">
        <ele>2669.4</ele>
        <time>2021-02-28T12:35:10Z</time>
      </trkpt>
      <trkpt lat="45.03198" lon="6.49755">
        <ele>2669.6</ele>
        <time>2021-02-28T12:35:11Z</time>
      </trkpt>
      <trkpt lat="45.03198" lon="6.49755">
        <ele>2669.8</ele>
        <time>2021-02-28T12:35:12Z</time>
      </trkpt>
      <trkpt lat="45.03198" lon="6.49755">
        <ele>2670</ele>
        <time>2021-02-28T12:35:13Z</time>
      </trkpt>
      <trkpt lat="45.03198" lon="6.49755">
        <ele>2669.8</ele>
        <time>2021-02-28T12:35:14Z</time>
      </trkpt>
      <trkpt lat="45.03198" lon="6.49755">
        <ele>2670</ele>
        <time>2021-02-28T12:35:15Z</time>
      </trkpt>
      <trkpt lat="45.03198" lon="6.49755">
        <ele>2670.2</ele>
        <time>2021-02-28T12:35:16Z</time>
      </trkpt>
      <trkpt lat="45.03198" lon="6.49755">
        <ele>2669.6</ele>
        <time>2021-02-28T12:35:17Z</time>
      </trkpt>
      <trkpt lat="45.03198" lon="6.49755">
        <ele>2669.8</ele>
        <time>2021-02-28T12:35:18Z</time>
      </trkpt>
      <trkpt lat="45.03198" lon="6.49755">
        <ele>2669.8</ele>
        <time>2021-02-28T12:35:19Z</time>
      </trkpt>
      <trkpt lat="45.03198" lon="6.49755">
        <ele>2669.8</ele>
        <time>2021-02-28T12:35:20Z</time>
      </trkpt>
      <trkpt lat="45.03198" lon="6.49755">
        <ele>2669.8</ele>
        <time>2021-02-28T12:35:21Z</time>
      </trkpt>
      <trkpt lat="45.03198" lon="6.49755">
        <ele>2670</ele>
        <time>2021-02-28T12:35:22Z</time>
      </trkpt>
      <trkpt lat="45.03198" lon="6.49755">
        <ele>2670</ele>
        <time>2021-02-28T12:35:23Z</time>
      </trkpt>
      <trkpt lat="45.03198" lon="6.49755">
        <ele>2670.4</ele>
        <time>2021-02-28T12:35:24Z</time>
      </trkpt>
      <trkpt lat="45.03198" lon="6.49755">
        <ele>2670.2</ele>
        <time>2021-02-28T12:35:25Z</time>
      </trkpt>
      <trkpt lat="45.03198" lon="6.49755">
        <ele>2670.4</ele>
        <time>2021-02-28T12:35:26Z</time>
      </trkpt>
      <trkpt lat="45.03198" lon="6.49755">
        <ele>2670.4</ele>
        <time>2021-02-28T12:35:27Z</time>
      </trkpt>
      <trkpt lat="45.03198" lon="6.49755">
        <ele>2670.6</ele>
        <time>2021-02-28T12:35:28Z</time>
      </trkpt>
      <trkpt lat="45.03198" lon="6.49755">
        <ele>2670.6</ele>
        <time>2021-02-28T12:35:29Z</time>
      </trkpt>
      <trkpt lat="45.03198" lon="6.49755">
        <ele>2670.6</ele>
        <time>2021-02-28T12:35:30Z</time>
      </trkpt>
      <trkpt lat="45.03198" lon="6.49755">
        <ele>2671</ele>
        <time>2021-02-28T12:35:31Z</time>
      </trkpt>
      <trkpt lat="45.03198" lon="6.49755">
        <ele>2671</ele>
        <time>2021-02-28T12:35:32Z</time>
      </trkpt>
      <trkpt lat="45.03198" lon="6.49755">
        <ele>2671.2</ele>
        <time>2021-02-28T12:35:33Z</time>
      </trkpt>
      <trkpt lat="45.03198" lon="6.49755">
        <ele>2671.2</ele>
        <time>2021-02-28T12:35:34Z</time>
      </trkpt>
      <trkpt lat="45.03198" lon="6.49755">
        <ele>2671</ele>
        <time>2021-02-28T12:35:35Z</time>
      </trkpt>
      <trkpt lat="45.03198" lon="6.49755">
        <ele>2670</ele>
        <time>2021-02-28T12:35:36Z</time>
      </trkpt>
      <trkpt lat="45.03198" lon="6.49755">
        <ele>2670.2</ele>
        <time>2021-02-28T12:35:37Z</time>
      </trkpt>
      <trkpt lat="45.03198" lon="6.49755">
        <ele>2670.2</ele>
        <time>2021-02-28T12:35:38Z</time>
      </trkpt>
      <trkpt lat="45.03198" lon="6.49755">
        <ele>2670</ele>
        <time>2021-02-28T12:35:39Z</time>
      </trkpt>
      <trkpt lat="45.03198" lon="6.49755">
        <ele>2670.2</ele>
        <time>2021-02-28T12:35:40Z</time>
      </trkpt>
      <trkpt lat="45.03198" lon="6.49755">
        <ele>2670.2</ele>
        <time>2021-02-28T12:35:41Z</time>
      </trkpt>
      <trkpt lat="45.03198" lon="6.49755">
        <ele>2669.8</ele>
        <time>2021-02-28T12:35:42Z</time>
      </trkpt>
      <trkpt lat="45.03198" lon="6.49755">
        <ele>2669.8</ele>
        <time>2021-02-28T12:35:43Z</time>
      </trkpt>
      <trkpt lat="45.03198" lon="6.49755">
        <ele>2670.2</ele>
        <time>2021-02-28T12:35:44Z</time>
      </trkpt>
      <trkpt lat="45.03198" lon="6.49755">
        <ele>2670.2</ele>
        <time>2021-02-28T12:35:45Z</time>
      </trkpt>
      <trkpt lat="45.03198" lon="6.49755">
        <ele>2670.4</ele>
        <time>2021-02-28T12:35:46Z</time>
      </trkpt>
      <trkpt lat="45.03198" lon="6.49755">
        <ele>2670.4</ele>
        <time>2021-02-28T12:35:47Z</time>
      </trkpt>
      <trkpt lat="45.03198" lon="6.49755">
        <ele>2670.2</ele>
        <time>2021-02-28T12:35:48Z</time>
      </trkpt>
      <trkpt lat="45.03198" lon="6.49755">
        <ele>2670.2</ele>
        <time>2021-02-28T12:35:49Z</time>
      </trkpt>
      <trkpt lat="45.03198" lon="6.49755">
        <ele>2670.2</ele>
        <time>2021-02-28T12:35:50Z</time>
      </trkpt>
      <trkpt lat="45.03198" lon="6.49755">
        <ele>2670.2</ele>
        <time>2021-02-28T12:35:51Z</time>
      </trkpt>
      <trkpt lat="45.03198" lon="6.49755">
        <ele>2670</ele>
        <time>2021-02-28T12:35:52Z</time>
      </trkpt>
      <trkpt lat="45.03198" lon="6.49755">
        <ele>2669.8</ele>
        <time>2021-02-28T12:35:53Z</time>
      </trkpt>
      <trkpt lat="45.03198" lon="6.49755">
        <ele>2669.6</ele>
        <time>2021-02-28T12:35:54Z</time>
      </trkpt>
      <trkpt lat="45.03198" lon="6.49755">
        <ele>2669.4</ele>
        <time>2021-02-28T12:35:55Z</time>
      </trkpt>
      <trkpt lat="45.03198" lon="6.49755">
        <ele>2669.8</ele>
        <time>2021-02-28T12:35:56Z</time>
      </trkpt>
      <trkpt lat="45.03198" lon="6.49755">
        <ele>2669.8</ele>
        <time>2021-02-28T12:35:57Z</time>
      </trkpt>
      <trkpt lat="45.03198" lon="6.49755">
        <ele>2669.8</ele>
        <time>2021-02-28T12:35:58Z</time>
      </trkpt>
      <trkpt lat="45.03198" lon="6.49755">
        <ele>2670</ele>
        <time>2021-02-28T12:35:59Z</time>
      </trkpt>
      <trkpt lat="45.03198" lon="6.49755">
        <ele>2670.6</ele>
        <time>2021-02-28T12:36:00Z</time>
      </trkpt>
      <trkpt lat="45.03198" lon="6.49755">
        <ele>2670.4</ele>
        <time>2021-02-28T12:36:01Z</time>
      </trkpt>
      <trkpt lat="45.03198" lon="6.49755">
        <ele>2670.8</ele>
        <time>2021-02-28T12:36:02Z</time>
      </trkpt>
      <trkpt lat="45.03198" lon="6.49755">
        <ele>2671</ele>
        <time>2021-02-28T12:36:03Z</time>
      </trkpt>
      <trkpt lat="45.03198" lon="6.49755">
        <ele>2670.8</ele>
        <time>2021-02-28T12:36:04Z</time>
      </trkpt>
      <trkpt lat="45.03198" lon="6.49755">
        <ele>2670.8</ele>
        <time>2021-02-28T12:36:05Z</time>
      </trkpt>
      <trkpt lat="45.03198" lon="6.49755">
        <ele>2670.8</ele>
        <time>2021-02-28T12:36:06Z</time>
      </trkpt>
      <trkpt lat="45.03198" lon="6.49755">
        <ele>2670.8</ele>
        <time>2021-02-28T12:36:07Z</time>
      </trkpt>
      <trkpt lat="45.03198" lon="6.49755">
        <ele>2670.8</ele>
        <time>2021-02-28T12:36:08Z</time>
      </trkpt>
      <trkpt lat="45.03198" lon="6.49755">
        <ele>2670.6</ele>
        <time>2021-02-28T12:36:09Z</time>
      </trkpt>
      <trkpt lat="45.03198" lon="6.49755">
        <ele>2671</ele>
        <time>2021-02-28T12:36:10Z</time>
      </trkpt>
      <trkpt lat="45.03198" lon="6.49755">
        <ele>2671.4</ele>
        <time>2021-02-28T12:36:11Z</time>
      </trkpt>
      <trkpt lat="45.03198" lon="6.49755">
        <ele>2671.6</ele>
        <time>2021-02-28T12:36:12Z</time>
      </trkpt>
      <trkpt lat="45.03198" lon="6.49755">
        <ele>2671.6</ele>
        <time>2021-02-28T12:36:13Z</time>
      </trkpt>
      <trkpt lat="45.03198" lon="6.49755">
        <ele>2671.4</ele>
        <time>2021-02-28T12:36:14Z</time>
      </trkpt>
      <trkpt lat="45.03198" lon="6.49755">
        <ele>2671.2</ele>
        <time>2021-02-28T12:36:15Z</time>
      </trkpt>
      <trkpt lat="45.03198" lon="6.49755">
        <ele>2671</ele>
        <time>2021-02-28T12:36:16Z</time>
      </trkpt>
      <trkpt lat="45.03198" lon="6.49755">
        <ele>2671</ele>
        <time>2021-02-28T12:36:17Z</time>
      </trkpt>
      <trkpt lat="45.03198" lon="6.49755">
        <ele>2671</ele>
        <time>2021-02-28T12:36:18Z</time>
      </trkpt>
      <trkpt lat="45.03198" lon="6.49755">
        <ele>2670.8</ele>
        <time>2021-02-28T12:36:19Z</time>
      </trkpt>
      <trkpt lat="45.03198" lon="6.49755">
        <ele>2670.8</ele>
        <time>2021-02-28T12:36:20Z</time>
      </trkpt>
      <trkpt lat="45.03198" lon="6.49755">
        <ele>2671</ele>
        <time>2021-02-28T12:36:21Z</time>
      </trkpt>
      <trkpt lat="45.03198" lon="6.49755">
        <ele>2671</ele>
        <time>2021-02-28T12:36:22Z</time>
      </trkpt>
      <trkpt lat="45.03198" lon="6.49755">
        <ele>2670.8</ele>
        <time>2021-02-28T12:36:23Z</time>
      </trkpt>
      <trkpt lat="45.03198" lon="6.49755">
        <ele>2670.8</ele>
        <time>2021-02-28T12:36:24Z</time>
      </trkpt>
      <trkpt lat="45.03198" lon="6.49755">
        <ele>2670.6</ele>
        <time>2021-02-28T12:36:25Z</time>
      </trkpt>
      <trkpt lat="45.03198" lon="6.49755">
        <ele>2670.6</ele>
        <time>2021-02-28T12:36:26Z</time>
      </trkpt>
      <trkpt lat="45.03198" lon="6.49755">
        <ele>2670.6</ele>
        <time>2021-02-28T12:36:27Z</time>
      </trkpt>
      <trkpt lat="45.03198" lon="6.49755">
        <ele>2670.4</ele>
        <time>2021-02-28T12:36:28Z</time>
      </trkpt>
      <trkpt lat="45.03198" lon="6.49755">
        <ele>2670.4</ele>
        <time>2021-02-28T12:36:29Z</time>
      </trkpt>
      <trkpt lat="45.03198" lon="6.49755">
        <ele>2670.4</ele>
        <time>2021-02-28T12:36:30Z</time>
      </trkpt>
      <trkpt lat="45.03198" lon="6.49755">
        <ele>2670.6</ele>
        <time>2021-02-28T12:36:31Z</time>
      </trkpt>
      <trkpt lat="45.03198" lon="6.49755">
        <ele>2670.4</ele>
        <time>2021-02-28T12:36:32Z</time>
      </trkpt>
      <trkpt lat="45.03198" lon="6.49755">
        <ele>2670.6</ele>
        <time>2021-02-28T12:36:33Z</time>
      </trkpt>
      <trkpt lat="45.03198" lon="6.49755">
        <ele>2670.6</ele>
        <time>2021-02-28T12:36:34Z</time>
      </trkpt>
      <trkpt lat="45.03198" lon="6.49755">
        <ele>2670.6</ele>
        <time>2021-02-28T12:36:35Z</time>
      </trkpt>
      <trkpt lat="45.03198" lon="6.49755">
        <ele>2670.8</ele>
        <time>2021-02-28T12:36:36Z</time>
      </trkpt>
      <trkpt lat="45.03198" lon="6.49755">
        <ele>2670.6</ele>
        <time>2021-02-28T12:36:37Z</time>
      </trkpt>
      <trkpt lat="45.03198" lon="6.49755">
        <ele>2670.8</ele>
        <time>2021-02-28T12:36:38Z</time>
      </trkpt>
      <trkpt lat="45.03198" lon="6.49755">
        <ele>2671</ele>
        <time>2021-02-28T12:36:39Z</time>
      </trkpt>
      <trkpt lat="45.03198" lon="6.49755">
        <ele>2671</ele>
        <time>2021-02-28T12:36:40Z</time>
      </trkpt>
      <trkpt lat="45.03198" lon="6.49755">
        <ele>2670.8</ele>
        <time>2021-02-28T12:36:41Z</time>
      </trkpt>
      <trkpt lat="45.03198" lon="6.49755">
        <ele>2670.8</ele>
        <time>2021-02-28T12:36:42Z</time>
      </trkpt>
      <trkpt lat="45.03198" lon="6.49755">
        <ele>2671</ele>
        <time>2021-02-28T12:36:43Z</time>
      </trkpt>
      <trkpt lat="45.03198" lon="6.49755">
        <ele>2670.8</ele>
        <time>2021-02-28T12:36:44Z</time>
      </trkpt>
      <trkpt lat="45.03198" lon="6.49755">
        <ele>2670.8</ele>
        <time>2021-02-28T12:36:45Z</time>
      </trkpt>
      <trkpt lat="45.03198" lon="6.49755">
        <ele>2670.6</ele>
        <time>2021-02-28T12:36:46Z</time>
      </trkpt>
      <trkpt lat="45.03198" lon="6.49755">
        <ele>2670.6</ele>
        <time>2021-02-28T12:36:47Z</time>
      </trkpt>
      <trkpt lat="45.03198" lon="6.49755">
        <ele>2670.6</ele>
        <time>2021-02-28T12:36:48Z</time>
      </trkpt>
      <trkpt lat="45.03198" lon="6.49755">
        <ele>2670.4</ele>
        <time>2021-02-28T12:36:49Z</time>
      </trkpt>
      <trkpt lat="45.03198" lon="6.49755">
        <ele>2670.4</ele>
        <time>2021-02-28T12:36:50Z</time>
      </trkpt>
      <trkpt lat="45.03198" lon="6.49755">
        <ele>2670</ele>
        <time>2021-02-28T12:36:51Z</time>
      </trkpt>
      <trkpt lat="45.03198" lon="6.49755">
        <ele>2670</ele>
        <time>2021-02-28T12:36:52Z</time>
      </trkpt>
      <trkpt lat="45.03198" lon="6.49755">
        <ele>2669.6</ele>
        <time>2021-02-28T12:36:53Z</time>
      </trkpt>
      <trkpt lat="45.03198" lon="6.49755">
        <ele>2669.8</ele>
        <time>2021-02-28T12:36:54Z</time>
      </trkpt>
      <trkpt lat="45.03198" lon="6.49755">
        <ele>2670</ele>
        <time>2021-02-28T12:36:55Z</time>
      </trkpt>
      <trkpt lat="45.03198" lon="6.49755">
        <ele>2669.8</ele>
        <time>2021-02-28T12:36:56Z</time>
      </trkpt>
      <trkpt lat="45.03198" lon="6.49755">
        <ele>2669.6</ele>
        <time>2021-02-28T12:36:57Z</time>
      </trkpt>
      <trkpt lat="45.03198" lon="6.49755">
        <ele>2670</ele>
        <time>2021-02-28T12:36:58Z</time>
      </trkpt>
      <trkpt lat="45.03198" lon="6.49755">
        <ele>2669.8</ele>
        <time>2021-02-28T12:36:59Z</time>
      </trkpt>
      <trkpt lat="45.03198" lon="6.49755">
        <ele>2670</ele>
        <time>2021-02-28T12:37:00Z</time>
      </trkpt>
      <trkpt lat="45.03198" lon="6.49755">
        <ele>2670</ele>
        <time>2021-02-28T12:37:01Z</time>
      </trkpt>
      <trkpt lat="45.03198" lon="6.49755">
        <ele>2670.8</ele>
        <time>2021-02-28T12:37:02Z</time>
      </trkpt>
      <trkpt lat="45.03198" lon="6.49755">
        <ele>2671</ele>
        <time>2021-02-28T12:37:03Z</time>
      </trkpt>
      <trkpt lat="45.03198" lon="6.49755">
        <ele>2670.8</ele>
        <time>2021-02-28T12:37:04Z</time>
      </trkpt>
      <trkpt lat="45.03198" lon="6.49755">
        <ele>2671</ele>
        <time>2021-02-28T12:37:05Z</time>
      </trkpt>
      <trkpt lat="45.03198" lon="6.49755">
        <ele>2670.2</ele>
        <time>2021-02-28T12:37:06Z</time>
      </trkpt>
      <trkpt lat="45.03198" lon="6.49755">
        <ele>2670.4</ele>
        <time>2021-02-28T12:37:07Z</time>
      </trkpt>
      <trkpt lat="45.03198" lon="6.49755">
        <ele>2670</ele>
        <time>2021-02-28T12:37:08Z</time>
      </trkpt>
      <trkpt lat="45.03198" lon="6.49755">
        <ele>2669.8</ele>
        <time>2021-02-28T12:37:09Z</time>
      </trkpt>
      <trkpt lat="45.03198" lon="6.49755">
        <ele>2669.8</ele>
        <time>2021-02-28T12:37:10Z</time>
      </trkpt>
      <trkpt lat="45.03198" lon="6.49755">
        <ele>2670</ele>
        <time>2021-02-28T12:37:11Z</time>
      </trkpt>
      <trkpt lat="45.03198" lon="6.49755">
        <ele>2670.2</ele>
        <time>2021-02-28T12:37:12Z</time>
      </trkpt>
      <trkpt lat="45.03195" lon="6.49755">
        <ele>2670.2</ele>
        <time>2021-02-28T12:37:13Z</time>
      </trkpt>
      <trkpt lat="45.03195" lon="6.49755">
        <ele>2670.2</ele>
        <time>2021-02-28T12:37:14Z</time>
      </trkpt>
      <trkpt lat="45.03192" lon="6.49754">
        <ele>2669.6</ele>
        <time>2021-02-28T12:37:15Z</time>
      </trkpt>
      <trkpt lat="45.0319" lon="6.49754">
        <ele>2669.6</ele>
        <time>2021-02-28T12:37:16Z</time>
      </trkpt>
      <trkpt lat="45.03186" lon="6.49754">
        <ele>2669</ele>
        <time>2021-02-28T12:37:17Z</time>
      </trkpt>
      <trkpt lat="45.03181" lon="6.49753">
        <ele>2668.4</ele>
        <time>2021-02-28T12:37:18Z</time>
      </trkpt>
      <trkpt lat="45.03176" lon="6.49751">
        <ele>2667.6</ele>
        <time>2021-02-28T12:37:19Z</time>
      </trkpt>
      <trkpt lat="45.03171" lon="6.49749">
        <ele>2666.4</ele>
        <time>2021-02-28T12:37:20Z</time>
      </trkpt>
      <trkpt lat="45.03166" lon="6.49746">
        <ele>2665.8</ele>
        <time>2021-02-28T12:37:21Z</time>
      </trkpt>
      <trkpt lat="45.03161" lon="6.49743">
        <ele>2665.2</ele>
        <time>2021-02-28T12:37:22Z</time>
      </trkpt>
      <trkpt lat="45.03155" lon="6.49738">
        <ele>2664</ele>
        <time>2021-02-28T12:37:23Z</time>
      </trkpt>
      <trkpt lat="45.03149" lon="6.49732">
        <ele>2662.8</ele>
        <time>2021-02-28T12:37:24Z</time>
      </trkpt>
      <trkpt lat="45.03143" lon="6.49726">
        <ele>2662</ele>
        <time>2021-02-28T12:37:25Z</time>
      </trkpt>
      <trkpt lat="45.03137" lon="6.4972">
        <ele>2660.6</ele>
        <time>2021-02-28T12:37:26Z</time>
      </trkpt>
      <trkpt lat="45.03131" lon="6.49714">
        <ele>2659.2</ele>
        <time>2021-02-28T12:37:27Z</time>
      </trkpt>
      <trkpt lat="45.03125" lon="6.49708">
        <ele>2658.2</ele>
        <time>2021-02-28T12:37:28Z</time>
      </trkpt>
      <trkpt lat="45.0312" lon="6.49702">
        <ele>2657</ele>
        <time>2021-02-28T12:37:29Z</time>
      </trkpt>
      <trkpt lat="45.03114" lon="6.49695">
        <ele>2656</ele>
        <time>2021-02-28T12:37:30Z</time>
      </trkpt>
      <trkpt lat="45.03108" lon="6.49688">
        <ele>2654.6</ele>
        <time>2021-02-28T12:37:31Z</time>
      </trkpt>
      <trkpt lat="45.03101" lon="6.49682">
        <ele>2653.6</ele>
        <time>2021-02-28T12:37:32Z</time>
      </trkpt>
      <trkpt lat="45.03094" lon="6.49676">
        <ele>2652.2</ele>
        <time>2021-02-28T12:37:33Z</time>
      </trkpt>
      <trkpt lat="45.03087" lon="6.49673">
        <ele>2650.6</ele>
        <time>2021-02-28T12:37:34Z</time>
      </trkpt>
      <trkpt lat="45.03078" lon="6.49671">
        <ele>2649.2</ele>
        <time>2021-02-28T12:37:35Z</time>
      </trkpt>
      <trkpt lat="45.03069" lon="6.49671">
        <ele>2647.8</ele>
        <time>2021-02-28T12:37:36Z</time>
      </trkpt>
      <trkpt lat="45.03059" lon="6.4967">
        <ele>2645.6</ele>
        <time>2021-02-28T12:37:37Z</time>
      </trkpt>
      <trkpt lat="45.03051" lon="6.49665">
        <ele>2643.4</ele>
        <time>2021-02-28T12:37:38Z</time>
      </trkpt>
      <trkpt lat="45.03046" lon="6.49658">
        <ele>2641.8</ele>
        <time>2021-02-28T12:37:39Z</time>
      </trkpt>
      <trkpt lat="45.03039" lon="6.49651">
        <ele>2640.6</ele>
        <time>2021-02-28T12:37:40Z</time>
      </trkpt>
      <trkpt lat="45.03031" lon="6.49644">
        <ele>2638.6</ele>
        <time>2021-02-28T12:37:41Z</time>
      </trkpt>
      <trkpt lat="45.03022" lon="6.49638">
        <ele>2636.4</ele>
        <time>2021-02-28T12:37:42Z</time>
      </trkpt>
      <trkpt lat="45.03011" lon="6.49632">
        <ele>2633.8</ele>
        <time>2021-02-28T12:37:43Z</time>
      </trkpt>
      <trkpt lat="45.03001" lon="6.49627">
        <ele>2631.6</ele>
        <time>2021-02-28T12:37:44Z</time>
      </trkpt>
      <trkpt lat="45.02991" lon="6.49622">
        <ele>2629.6</ele>
        <time>2021-02-28T12:37:45Z</time>
      </trkpt>
      <trkpt lat="45.02981" lon="6.49618">
        <ele>2627</ele>
        <time>2021-02-28T12:37:46Z</time>
      </trkpt>
      <trkpt lat="45.02972" lon="6.49614">
        <ele>2625.4</ele>
        <time>2021-02-28T12:37:47Z</time>
      </trkpt>
      <trkpt lat="45.02962" lon="6.49614">
        <ele>2623.8</ele>
        <time>2021-02-28T12:37:48Z</time>
      </trkpt>
      <trkpt lat="45.02953" lon="6.49617">
        <ele>2621.6</ele>
        <time>2021-02-28T12:37:49Z</time>
      </trkpt>
      <trkpt lat="45.02946" lon="6.49623">
        <ele>2620.6</ele>
        <time>2021-02-28T12:37:50Z</time>
      </trkpt>
      <trkpt lat="45.0294" lon="6.4963">
        <ele>2620</ele>
        <time>2021-02-28T12:37:51Z</time>
      </trkpt>
      <trkpt lat="45.02933" lon="6.49638">
        <ele>2618.4</ele>
        <time>2021-02-28T12:37:52Z</time>
      </trkpt>
      <trkpt lat="45.02927" lon="6.49645">
        <ele>2617.6</ele>
        <time>2021-02-28T12:37:53Z</time>
      </trkpt>
      <trkpt lat="45.02922" lon="6.49653">
        <ele>2615.4</ele>
        <time>2021-02-28T12:37:54Z</time>
      </trkpt>
      <trkpt lat="45.02918" lon="6.4966">
        <ele>2614.4</ele>
        <time>2021-02-28T12:37:55Z</time>
      </trkpt>
      <trkpt lat="45.02915" lon="6.49666">
        <ele>2614.8</ele>
        <time>2021-02-28T12:37:56Z</time>
      </trkpt>
      <trkpt lat="45.02912" lon="6.49672">
        <ele>2614</ele>
        <time>2021-02-28T12:37:57Z</time>
      </trkpt>
      <trkpt lat="45.0291" lon="6.49676">
        <ele>2614</ele>
        <time>2021-02-28T12:37:58Z</time>
      </trkpt>
      <trkpt lat="45.02908" lon="6.4968">
        <ele>2613.6</ele>
        <time>2021-02-28T12:37:59Z</time>
      </trkpt>
      <trkpt lat="45.02906" lon="6.49684">
        <ele>2613.4</ele>
        <time>2021-02-28T12:38:00Z</time>
      </trkpt>
      <trkpt lat="45.02905" lon="6.49687">
        <ele>2613.8</ele>
        <time>2021-02-28T12:38:01Z</time>
      </trkpt>
      <trkpt lat="45.02904" lon="6.49691">
        <ele>2613.6</ele>
        <time>2021-02-28T12:38:02Z</time>
      </trkpt>
      <trkpt lat="45.02902" lon="6.49695">
        <ele>2613.4</ele>
        <time>2021-02-28T12:38:03Z</time>
      </trkpt>
      <trkpt lat="45.029" lon="6.49699">
        <ele>2613.4</ele>
        <time>2021-02-28T12:38:04Z</time>
      </trkpt>
      <trkpt lat="45.02899" lon="6.49702">
        <ele>2613.2</ele>
        <time>2021-02-28T12:38:05Z</time>
      </trkpt>
      <trkpt lat="45.02897" lon="6.49706">
        <ele>2612.4</ele>
        <time>2021-02-28T12:38:06Z</time>
      </trkpt>
      <trkpt lat="45.02895" lon="6.49709">
        <ele>2612.6</ele>
        <time>2021-02-28T12:38:07Z</time>
      </trkpt>
      <trkpt lat="45.02892" lon="6.49711">
        <ele>2612.8</ele>
        <time>2021-02-28T12:38:08Z</time>
      </trkpt>
      <trkpt lat="45.0289" lon="6.49714">
        <ele>2612.4</ele>
        <time>2021-02-28T12:38:09Z</time>
      </trkpt>
      <trkpt lat="45.02887" lon="6.49716">
        <ele>2612.4</ele>
        <time>2021-02-28T12:38:10Z</time>
      </trkpt>
      <trkpt lat="45.02884" lon="6.49718">
        <ele>2612.2</ele>
        <time>2021-02-28T12:38:11Z</time>
      </trkpt>
      <trkpt lat="45.02881" lon="6.4972">
        <ele>2612</ele>
        <time>2021-02-28T12:38:12Z</time>
      </trkpt>
      <trkpt lat="45.02878" lon="6.49721">
        <ele>2612</ele>
        <time>2021-02-28T12:38:13Z</time>
      </trkpt>
      <trkpt lat="45.02876" lon="6.49723">
        <ele>2611.8</ele>
        <time>2021-02-28T12:38:14Z</time>
      </trkpt>
      <trkpt lat="45.02873" lon="6.49725">
        <ele>2612.2</ele>
        <time>2021-02-28T12:38:15Z</time>
      </trkpt>
      <trkpt lat="45.0287" lon="6.49727">
        <ele>2611.8</ele>
        <time>2021-02-28T12:38:16Z</time>
      </trkpt>
      <trkpt lat="45.02868" lon="6.49728">
        <ele>2611.8</ele>
        <time>2021-02-28T12:38:17Z</time>
      </trkpt>
      <trkpt lat="45.02865" lon="6.4973">
        <ele>2611.8</ele>
        <time>2021-02-28T12:38:18Z</time>
      </trkpt>
      <trkpt lat="45.02861" lon="6.49731">
        <ele>2611.8</ele>
        <time>2021-02-28T12:38:19Z</time>
      </trkpt>
      <trkpt lat="45.02858" lon="6.49733">
        <ele>2611.8</ele>
        <time>2021-02-28T12:38:20Z</time>
      </trkpt>
      <trkpt lat="45.02855" lon="6.49734">
        <ele>2611.8</ele>
        <time>2021-02-28T12:38:21Z</time>
      </trkpt>
      <trkpt lat="45.02852" lon="6.49736">
        <ele>2611.6</ele>
        <time>2021-02-28T12:38:22Z</time>
      </trkpt>
      <trkpt lat="45.02849" lon="6.49737">
        <ele>2611.2</ele>
        <time>2021-02-28T12:38:23Z</time>
      </trkpt>
      <trkpt lat="45.02846" lon="6.49738">
        <ele>2611.2</ele>
        <time>2021-02-28T12:38:24Z</time>
      </trkpt>
      <trkpt lat="45.02843" lon="6.49739">
        <ele>2611.2</ele>
        <time>2021-02-28T12:38:25Z</time>
      </trkpt>
      <trkpt lat="45.02841" lon="6.4974">
        <ele>2611.6</ele>
        <time>2021-02-28T12:38:26Z</time>
      </trkpt>
      <trkpt lat="45.02838" lon="6.49741">
        <ele>2611.8</ele>
        <time>2021-02-28T12:38:27Z</time>
      </trkpt>
      <trkpt lat="45.02835" lon="6.49742">
        <ele>2612</ele>
        <time>2021-02-28T12:38:28Z</time>
      </trkpt>
      <trkpt lat="45.02832" lon="6.49743">
        <ele>2611.4</ele>
        <time>2021-02-28T12:38:29Z</time>
      </trkpt>
      <trkpt lat="45.0283" lon="6.49743">
        <ele>2611.4</ele>
        <time>2021-02-28T12:38:30Z</time>
      </trkpt>
      <trkpt lat="45.02827" lon="6.49744">
        <ele>2611.6</ele>
        <time>2021-02-28T12:38:31Z</time>
      </trkpt>
      <trkpt lat="45.02824" lon="6.49745">
        <ele>2611.4</ele>
        <time>2021-02-28T12:38:32Z</time>
      </trkpt>
      <trkpt lat="45.02822" lon="6.49745">
        <ele>2611.2</ele>
        <time>2021-02-28T12:38:33Z</time>
      </trkpt>
      <trkpt lat="45.02819" lon="6.49745">
        <ele>2611.4</ele>
        <time>2021-02-28T12:38:34Z</time>
      </trkpt>
      <trkpt lat="45.02816" lon="6.49746">
        <ele>2611.4</ele>
        <time>2021-02-28T12:38:35Z</time>
      </trkpt>
      <trkpt lat="45.02814" lon="6.49746">
        <ele>2611.6</ele>
        <time>2021-02-28T12:38:36Z</time>
      </trkpt>
      <trkpt lat="45.02811" lon="6.49746">
        <ele>2611.4</ele>
        <time>2021-02-28T12:38:37Z</time>
      </trkpt>
      <trkpt lat="45.02808" lon="6.49747">
        <ele>2611.6</ele>
        <time>2021-02-28T12:38:38Z</time>
      </trkpt>
      <trkpt lat="45.02806" lon="6.49748">
        <ele>2611.4</ele>
        <time>2021-02-28T12:38:39Z</time>
      </trkpt>
      <trkpt lat="45.02803" lon="6.49748">
        <ele>2611.8</ele>
        <time>2021-02-28T12:38:40Z</time>
      </trkpt>
      <trkpt lat="45.02801" lon="6.49747">
        <ele>2612</ele>
        <time>2021-02-28T12:38:41Z</time>
      </trkpt>
      <trkpt lat="45.02799" lon="6.49747">
        <ele>2612</ele>
        <time>2021-02-28T12:38:42Z</time>
      </trkpt>
      <trkpt lat="45.02796" lon="6.49747">
        <ele>2612.2</ele>
        <time>2021-02-28T12:38:43Z</time>
      </trkpt>
      <trkpt lat="45.02794" lon="6.49747">
        <ele>2612.2</ele>
        <time>2021-02-28T12:38:44Z</time>
      </trkpt>
      <trkpt lat="45.02791" lon="6.49747">
        <ele>2612.2</ele>
        <time>2021-02-28T12:38:45Z</time>
      </trkpt>
      <trkpt lat="45.02789" lon="6.49747">
        <ele>2612.4</ele>
        <time>2021-02-28T12:38:46Z</time>
      </trkpt>
      <trkpt lat="45.02787" lon="6.49747">
        <ele>2612.4</ele>
        <time>2021-02-28T12:38:47Z</time>
      </trkpt>
      <trkpt lat="45.02785" lon="6.49748">
        <ele>2612.4</ele>
        <time>2021-02-28T12:38:48Z</time>
      </trkpt>
      <trkpt lat="45.02783" lon="6.49748">
        <ele>2612.6</ele>
        <time>2021-02-28T12:38:49Z</time>
      </trkpt>
      <trkpt lat="45.02783" lon="6.49748">
        <ele>2612.6</ele>
        <time>2021-02-28T12:38:50Z</time>
      </trkpt>
      <trkpt lat="45.02779" lon="6.49748">
        <ele>2612.8</ele>
        <time>2021-02-28T12:38:51Z</time>
      </trkpt>
      <trkpt lat="45.02777" lon="6.49749">
        <ele>2612.8</ele>
        <time>2021-02-28T12:38:52Z</time>
      </trkpt>
      <trkpt lat="45.02776" lon="6.49749">
        <ele>2613</ele>
        <time>2021-02-28T12:38:53Z</time>
      </trkpt>
      <trkpt lat="45.02776" lon="6.49749">
        <ele>2613.2</ele>
        <time>2021-02-28T12:38:54Z</time>
      </trkpt>
      <trkpt lat="45.02772" lon="6.49749">
        <ele>2613.4</ele>
        <time>2021-02-28T12:38:55Z</time>
      </trkpt>
      <trkpt lat="45.02772" lon="6.49749">
        <ele>2613.6</ele>
        <time>2021-02-28T12:38:56Z</time>
      </trkpt>
      <trkpt lat="45.02769" lon="6.49749">
        <ele>2613.4</ele>
        <time>2021-02-28T12:38:57Z</time>
      </trkpt>
      <trkpt lat="45.02769" lon="6.49749">
        <ele>2613.6</ele>
        <time>2021-02-28T12:38:58Z</time>
      </trkpt>
      <trkpt lat="45.02767" lon="6.49749">
        <ele>2614</ele>
        <time>2021-02-28T12:38:59Z</time>
      </trkpt>
      <trkpt lat="45.02767" lon="6.49749">
        <ele>2613.8</ele>
        <time>2021-02-28T12:39:00Z</time>
      </trkpt>
      <trkpt lat="45.02765" lon="6.49748">
        <ele>2614.2</ele>
        <time>2021-02-28T12:39:01Z</time>
      </trkpt>
      <trkpt lat="45.02765" lon="6.49748">
        <ele>2614.4</ele>
        <time>2021-02-28T12:39:02Z</time>
      </trkpt>
      <trkpt lat="45.02763" lon="6.49748">
        <ele>2614.2</ele>
        <time>2021-02-28T12:39:03Z</time>
      </trkpt>
      <trkpt lat="45.02763" lon="6.49748">
        <ele>2614.4</ele>
        <time>2021-02-28T12:39:04Z</time>
      </trkpt>
      <trkpt lat="45.02762" lon="6.49749">
        <ele>2615</ele>
        <time>2021-02-28T12:39:05Z</time>
      </trkpt>
      <trkpt lat="45.02762" lon="6.49749">
        <ele>2614.8</ele>
        <time>2021-02-28T12:39:06Z</time>
      </trkpt>
      <trkpt lat="45.02762" lon="6.49749">
        <ele>2615.2</ele>
        <time>2021-02-28T12:39:07Z</time>
      </trkpt>
      <trkpt lat="45.02759" lon="6.49748">
        <ele>2615.4</ele>
        <time>2021-02-28T12:39:08Z</time>
      </trkpt>
      <trkpt lat="45.02759" lon="6.49748">
        <ele>2615.4</ele>
        <time>2021-02-28T12:39:09Z</time>
      </trkpt>
      <trkpt lat="45.02757" lon="6.49748">
        <ele>2615.4</ele>
        <time>2021-02-28T12:39:10Z</time>
      </trkpt>
      <trkpt lat="45.02757" lon="6.49748">
        <ele>2615.6</ele>
        <time>2021-02-28T12:39:11Z</time>
      </trkpt>
      <trkpt lat="45.02755" lon="6.49747">
        <ele>2615.4</ele>
        <time>2021-02-28T12:39:12Z</time>
      </trkpt>
      <trkpt lat="45.02755" lon="6.49747">
        <ele>2615.6</ele>
        <time>2021-02-28T12:39:13Z</time>
      </trkpt>
      <trkpt lat="45.02755" lon="6.49747">
        <ele>2615.6</ele>
        <time>2021-02-28T12:39:14Z</time>
      </trkpt>
      <trkpt lat="45.02752" lon="6.49747">
        <ele>2615.6</ele>
        <time>2021-02-28T12:39:15Z</time>
      </trkpt>
      <trkpt lat="45.02752" lon="6.49747">
        <ele>2615.2</ele>
        <time>2021-02-28T12:39:16Z</time>
      </trkpt>
      <trkpt lat="45.02752" lon="6.49747">
        <ele>2615.4</ele>
        <time>2021-02-28T12:39:17Z</time>
      </trkpt>
      <trkpt lat="45.02749" lon="6.49746">
        <ele>2615.6</ele>
        <time>2021-02-28T12:39:18Z</time>
      </trkpt>
      <trkpt lat="45.02749" lon="6.49746">
        <ele>2616</ele>
        <time>2021-02-28T12:39:19Z</time>
      </trkpt>
      <trkpt lat="45.02749" lon="6.49746">
        <ele>2615.8</ele>
        <time>2021-02-28T12:39:20Z</time>
      </trkpt>
      <trkpt lat="45.02747" lon="6.49746">
        <ele>2616.2</ele>
        <time>2021-02-28T12:39:21Z</time>
      </trkpt>
      <trkpt lat="45.02747" lon="6.49746">
        <ele>2616.2</ele>
        <time>2021-02-28T12:39:22Z</time>
      </trkpt>
      <trkpt lat="45.02747" lon="6.49746">
        <ele>2616.2</ele>
        <time>2021-02-28T12:39:23Z</time>
      </trkpt>
      <trkpt lat="45.02744" lon="6.49745">
        <ele>2616.6</ele>
        <time>2021-02-28T12:39:24Z</time>
      </trkpt>
      <trkpt lat="45.02744" lon="6.49745">
        <ele>2616.6</ele>
        <time>2021-02-28T12:39:25Z</time>
      </trkpt>
      <trkpt lat="45.02744" lon="6.49745">
        <ele>2616.6</ele>
        <time>2021-02-28T12:39:26Z</time>
      </trkpt>
      <trkpt lat="45.02744" lon="6.49745">
        <ele>2616</ele>
        <time>2021-02-28T12:39:27Z</time>
      </trkpt>
      <trkpt lat="45.02744" lon="6.49745">
        <ele>2616</ele>
        <time>2021-02-28T12:39:28Z</time>
      </trkpt>
      <trkpt lat="45.02744" lon="6.49745">
        <ele>2616.2</ele>
        <time>2021-02-28T12:39:29Z</time>
      </trkpt>
      <trkpt lat="45.02744" lon="6.49745">
        <ele>2616</ele>
        <time>2021-02-28T12:39:30Z</time>
      </trkpt>
      <trkpt lat="45.02744" lon="6.49745">
        <ele>2616</ele>
        <time>2021-02-28T12:39:31Z</time>
      </trkpt>
      <trkpt lat="45.02744" lon="6.49745">
        <ele>2616.2</ele>
        <time>2021-02-28T12:39:32Z</time>
      </trkpt>
      <trkpt lat="45.02744" lon="6.49745">
        <ele>2616.2</ele>
        <time>2021-02-28T12:39:33Z</time>
      </trkpt>
      <trkpt lat="45.02744" lon="6.49745">
        <ele>2616.2</ele>
        <time>2021-02-28T12:39:34Z</time>
      </trkpt>
      <trkpt lat="45.02744" lon="6.49745">
        <ele>2616</ele>
        <time>2021-02-28T12:39:35Z</time>
      </trkpt>
      <trkpt lat="45.02744" lon="6.49745">
        <ele>2616.2</ele>
        <time>2021-02-28T12:39:36Z</time>
      </trkpt>
      <trkpt lat="45.02744" lon="6.49745">
        <ele>2616.2</ele>
        <time>2021-02-28T12:39:37Z</time>
      </trkpt>
      <trkpt lat="45.02744" lon="6.49745">
        <ele>2616.2</ele>
        <time>2021-02-28T12:39:38Z</time>
      </trkpt>
      <trkpt lat="45.02744" lon="6.49745">
        <ele>2616.2</ele>
        <time>2021-02-28T12:39:39Z</time>
      </trkpt>
      <trkpt lat="45.02744" lon="6.49745">
        <ele>2616</ele>
        <time>2021-02-28T12:39:40Z</time>
      </trkpt>
      <trkpt lat="45.02744" lon="6.49745">
        <ele>2616.2</ele>
        <time>2021-02-28T12:39:41Z</time>
      </trkpt>
      <trkpt lat="45.02744" lon="6.49745">
        <ele>2616.2</ele>
        <time>2021-02-28T12:39:42Z</time>
      </trkpt>
      <trkpt lat="45.02744" lon="6.49745">
        <ele>2616.2</ele>
        <time>2021-02-28T12:39:43Z</time>
      </trkpt>
      <trkpt lat="45.02744" lon="6.49745">
        <ele>2616.2</ele>
        <time>2021-02-28T12:39:44Z</time>
      </trkpt>
      <trkpt lat="45.02744" lon="6.49745">
        <ele>2616.2</ele>
        <time>2021-02-28T12:39:45Z</time>
      </trkpt>
      <trkpt lat="45.02744" lon="6.49745">
        <ele>2616.4</ele>
        <time>2021-02-28T12:39:46Z</time>
      </trkpt>
      <trkpt lat="45.02744" lon="6.49745">
        <ele>2616.2</ele>
        <time>2021-02-28T12:39:47Z</time>
      </trkpt>
      <trkpt lat="45.02744" lon="6.49745">
        <ele>2616.4</ele>
        <time>2021-02-28T12:39:48Z</time>
      </trkpt>
      <trkpt lat="45.02744" lon="6.49745">
        <ele>2616.4</ele>
        <time>2021-02-28T12:39:49Z</time>
      </trkpt>
      <trkpt lat="45.02744" lon="6.49745">
        <ele>2616.8</ele>
        <time>2021-02-28T12:39:50Z</time>
      </trkpt>
      <trkpt lat="45.02744" lon="6.49745">
        <ele>2617</ele>
        <time>2021-02-28T12:39:51Z</time>
      </trkpt>
      <trkpt lat="45.02744" lon="6.49745">
        <ele>2616.8</ele>
        <time>2021-02-28T12:39:52Z</time>
      </trkpt>
      <trkpt lat="45.02742" lon="6.49744">
        <ele>2617</ele>
        <time>2021-02-28T12:39:53Z</time>
      </trkpt>
      <trkpt lat="45.02742" lon="6.49744">
        <ele>2616.8</ele>
        <time>2021-02-28T12:39:54Z</time>
      </trkpt>
      <trkpt lat="45.02742" lon="6.49744">
        <ele>2616.2</ele>
        <time>2021-02-28T12:39:55Z</time>
      </trkpt>
      <trkpt lat="45.02742" lon="6.49744">
        <ele>2616.4</ele>
        <time>2021-02-28T12:39:56Z</time>
      </trkpt>
      <trkpt lat="45.02742" lon="6.49744">
        <ele>2616.4</ele>
        <time>2021-02-28T12:39:57Z</time>
      </trkpt>
      <trkpt lat="45.02742" lon="6.49744">
        <ele>2616.2</ele>
        <time>2021-02-28T12:39:58Z</time>
      </trkpt>
      <trkpt lat="45.02742" lon="6.49744">
        <ele>2616.2</ele>
        <time>2021-02-28T12:39:59Z</time>
      </trkpt>
      <trkpt lat="45.02742" lon="6.49744">
        <ele>2616</ele>
        <time>2021-02-28T12:40:00Z</time>
      </trkpt>
      <trkpt lat="45.02742" lon="6.49744">
        <ele>2615.8</ele>
        <time>2021-02-28T12:40:01Z</time>
      </trkpt>
      <trkpt lat="45.02742" lon="6.49744">
        <ele>2616</ele>
        <time>2021-02-28T12:40:02Z</time>
      </trkpt>
      <trkpt lat="45.02742" lon="6.49744">
        <ele>2615.8</ele>
        <time>2021-02-28T12:40:03Z</time>
      </trkpt>
      <trkpt lat="45.02742" lon="6.49744">
        <ele>2615.8</ele>
        <time>2021-02-28T12:40:04Z</time>
      </trkpt>
      <trkpt lat="45.02742" lon="6.49744">
        <ele>2616</ele>
        <time>2021-02-28T12:40:05Z</time>
      </trkpt>
      <trkpt lat="45.02742" lon="6.49744">
        <ele>2616</ele>
        <time>2021-02-28T12:40:06Z</time>
      </trkpt>
      <trkpt lat="45.02742" lon="6.49744">
        <ele>2616</ele>
        <time>2021-02-28T12:40:07Z</time>
      </trkpt>
      <trkpt lat="45.02742" lon="6.49744">
        <ele>2615.6</ele>
        <time>2021-02-28T12:40:08Z</time>
      </trkpt>
      <trkpt lat="45.02742" lon="6.49744">
        <ele>2615.8</ele>
        <time>2021-02-28T12:40:09Z</time>
      </trkpt>
      <trkpt lat="45.02742" lon="6.49744">
        <ele>2615.8</ele>
        <time>2021-02-28T12:40:10Z</time>
      </trkpt>
      <trkpt lat="45.02742" lon="6.49744">
        <ele>2616</ele>
        <time>2021-02-28T12:40:11Z</time>
      </trkpt>
      <trkpt lat="45.02742" lon="6.49744">
        <ele>2616</ele>
        <time>2021-02-28T12:40:12Z</time>
      </trkpt>
      <trkpt lat="45.02742" lon="6.49744">
        <ele>2615.8</ele>
        <time>2021-02-28T12:40:13Z</time>
      </trkpt>
      <trkpt lat="45.02742" lon="6.49744">
        <ele>2615.8</ele>
        <time>2021-02-28T12:40:14Z</time>
      </trkpt>
      <trkpt lat="45.02742" lon="6.49744">
        <ele>2616</ele>
        <time>2021-02-28T12:40:15Z</time>
      </trkpt>
      <trkpt lat="45.02742" lon="6.49744">
        <ele>2615.8</ele>
        <time>2021-02-28T12:40:16Z</time>
      </trkpt>
      <trkpt lat="45.02742" lon="6.49744">
        <ele>2615.8</ele>
        <time>2021-02-28T12:40:17Z</time>
      </trkpt>
      <trkpt lat="45.02742" lon="6.49744">
        <ele>2615.8</ele>
        <time>2021-02-28T12:40:18Z</time>
      </trkpt>
      <trkpt lat="45.02742" lon="6.49744">
        <ele>2615.6</ele>
        <time>2021-02-28T12:40:19Z</time>
      </trkpt>
      <trkpt lat="45.02742" lon="6.49744">
        <ele>2615.6</ele>
        <time>2021-02-28T12:40:20Z</time>
      </trkpt>
      <trkpt lat="45.02742" lon="6.49744">
        <ele>2615.8</ele>
        <time>2021-02-28T12:40:21Z</time>
      </trkpt>
      <trkpt lat="45.02742" lon="6.49744">
        <ele>2615.8</ele>
        <time>2021-02-28T12:40:22Z</time>
      </trkpt>
      <trkpt lat="45.02742" lon="6.49744">
        <ele>2615.6</ele>
        <time>2021-02-28T12:40:23Z</time>
      </trkpt>
      <trkpt lat="45.02742" lon="6.49744">
        <ele>2615.6</ele>
        <time>2021-02-28T12:40:24Z</time>
      </trkpt>
      <trkpt lat="45.02742" lon="6.49744">
        <ele>2615.6</ele>
        <time>2021-02-28T12:40:25Z</time>
      </trkpt>
      <trkpt lat="45.02742" lon="6.49744">
        <ele>2615.8</ele>
        <time>2021-02-28T12:40:26Z</time>
      </trkpt>
      <trkpt lat="45.02742" lon="6.49744">
        <ele>2615.8</ele>
        <time>2021-02-28T12:40:27Z</time>
      </trkpt>
      <trkpt lat="45.02742" lon="6.49744">
        <ele>2615.8</ele>
        <time>2021-02-28T12:40:28Z</time>
      </trkpt>
      <trkpt lat="45.02742" lon="6.49744">
        <ele>2615.6</ele>
        <time>2021-02-28T12:40:29Z</time>
      </trkpt>
      <trkpt lat="45.02742" lon="6.49744">
        <ele>2615.6</ele>
        <time>2021-02-28T12:40:30Z</time>
      </trkpt>
      <trkpt lat="45.02742" lon="6.49744">
        <ele>2615.8</ele>
        <time>2021-02-28T12:40:31Z</time>
      </trkpt>
      <trkpt lat="45.02742" lon="6.49744">
        <ele>2615.8</ele>
        <time>2021-02-28T12:40:32Z</time>
      </trkpt>
      <trkpt lat="45.02742" lon="6.49744">
        <ele>2616</ele>
        <time>2021-02-28T12:40:33Z</time>
      </trkpt>
      <trkpt lat="45.02742" lon="6.49744">
        <ele>2615.8</ele>
        <time>2021-02-28T12:40:34Z</time>
      </trkpt>
      <trkpt lat="45.02742" lon="6.49744">
        <ele>2615.8</ele>
        <time>2021-02-28T12:40:35Z</time>
      </trkpt>
      <trkpt lat="45.02742" lon="6.49744">
        <ele>2615.4</ele>
        <time>2021-02-28T12:40:36Z</time>
      </trkpt>
      <trkpt lat="45.02742" lon="6.49744">
        <ele>2615</ele>
        <time>2021-02-28T12:40:37Z</time>
      </trkpt>
      <trkpt lat="45.02742" lon="6.49744">
        <ele>2615</ele>
        <time>2021-02-28T12:40:38Z</time>
      </trkpt>
      <trkpt lat="45.02742" lon="6.49744">
        <ele>2615</ele>
        <time>2021-02-28T12:40:39Z</time>
      </trkpt>
      <trkpt lat="45.02742" lon="6.49744">
        <ele>2615.2</ele>
        <time>2021-02-28T12:40:40Z</time>
      </trkpt>
      <trkpt lat="45.02742" lon="6.49744">
        <ele>2615.4</ele>
        <time>2021-02-28T12:40:41Z</time>
      </trkpt>
      <trkpt lat="45.02742" lon="6.49744">
        <ele>2614.6</ele>
        <time>2021-02-28T12:40:42Z</time>
      </trkpt>
      <trkpt lat="45.02742" lon="6.49744">
        <ele>2614.6</ele>
        <time>2021-02-28T12:40:43Z</time>
      </trkpt>
      <trkpt lat="45.02742" lon="6.49744">
        <ele>2615</ele>
        <time>2021-02-28T12:40:44Z</time>
      </trkpt>
      <trkpt lat="45.02742" lon="6.49744">
        <ele>2615</ele>
        <time>2021-02-28T12:40:45Z</time>
      </trkpt>
      <trkpt lat="45.02742" lon="6.49744">
        <ele>2615</ele>
        <time>2021-02-28T12:40:46Z</time>
      </trkpt>
      <trkpt lat="45.02742" lon="6.49744">
        <ele>2615.2</ele>
        <time>2021-02-28T12:40:47Z</time>
      </trkpt>
      <trkpt lat="45.02742" lon="6.49744">
        <ele>2615</ele>
        <time>2021-02-28T12:40:48Z</time>
      </trkpt>
      <trkpt lat="45.02742" lon="6.49744">
        <ele>2614.8</ele>
        <time>2021-02-28T12:40:49Z</time>
      </trkpt>
      <trkpt lat="45.02742" lon="6.49744">
        <ele>2615</ele>
        <time>2021-02-28T12:40:50Z</time>
      </trkpt>
      <trkpt lat="45.02742" lon="6.49744">
        <ele>2614.6</ele>
        <time>2021-02-28T12:40:51Z</time>
      </trkpt>
      <trkpt lat="45.02742" lon="6.49744">
        <ele>2614.8</ele>
        <time>2021-02-28T12:40:52Z</time>
      </trkpt>
      <trkpt lat="45.02742" lon="6.49744">
        <ele>2614.6</ele>
        <time>2021-02-28T12:40:53Z</time>
      </trkpt>
      <trkpt lat="45.02742" lon="6.49744">
        <ele>2614.8</ele>
        <time>2021-02-28T12:40:54Z</time>
      </trkpt>
      <trkpt lat="45.02742" lon="6.49744">
        <ele>2614.8</ele>
        <time>2021-02-28T12:40:55Z</time>
      </trkpt>
      <trkpt lat="45.02742" lon="6.49744">
        <ele>2614.6</ele>
        <time>2021-02-28T12:40:56Z</time>
      </trkpt>
      <trkpt lat="45.02742" lon="6.49744">
        <ele>2614.6</ele>
        <time>2021-02-28T12:40:57Z</time>
      </trkpt>
      <trkpt lat="45.02742" lon="6.49744">
        <ele>2614.6</ele>
        <time>2021-02-28T12:40:58Z</time>
      </trkpt>
      <trkpt lat="45.02742" lon="6.49744">
        <ele>2614.6</ele>
        <time>2021-02-28T12:40:59Z</time>
      </trkpt>
      <trkpt lat="45.02742" lon="6.49744">
        <ele>2614.8</ele>
        <time>2021-02-28T12:41:00Z</time>
      </trkpt>
      <trkpt lat="45.02742" lon="6.49744">
        <ele>2614.8</ele>
        <time>2021-02-28T12:41:01Z</time>
      </trkpt>
      <trkpt lat="45.02742" lon="6.49744">
        <ele>2614.8</ele>
        <time>2021-02-28T12:41:02Z</time>
      </trkpt>
      <trkpt lat="45.02742" lon="6.49744">
        <ele>2614.6</ele>
        <time>2021-02-28T12:41:03Z</time>
      </trkpt>
      <trkpt lat="45.02742" lon="6.49744">
        <ele>2614.8</ele>
        <time>2021-02-28T12:41:04Z</time>
      </trkpt>
      <trkpt lat="45.02742" lon="6.49744">
        <ele>2614.8</ele>
        <time>2021-02-28T12:41:05Z</time>
      </trkpt>
      <trkpt lat="45.02742" lon="6.49744">
        <ele>2614.6</ele>
        <time>2021-02-28T12:41:06Z</time>
      </trkpt>
      <trkpt lat="45.02742" lon="6.49744">
        <ele>2614.6</ele>
        <time>2021-02-28T12:41:07Z</time>
      </trkpt>
      <trkpt lat="45.02742" lon="6.49744">
        <ele>2615</ele>
        <time>2021-02-28T12:41:08Z</time>
      </trkpt>
      <trkpt lat="45.02742" lon="6.49744">
        <ele>2615.2</ele>
        <time>2021-02-28T12:41:09Z</time>
      </trkpt>
      <trkpt lat="45.02742" lon="6.49744">
        <ele>2615.2</ele>
        <time>2021-02-28T12:41:10Z</time>
      </trkpt>
      <trkpt lat="45.02742" lon="6.49744">
        <ele>2615.2</ele>
        <time>2021-02-28T12:41:11Z</time>
      </trkpt>
      <trkpt lat="45.02742" lon="6.49744">
        <ele>2615.4</ele>
        <time>2021-02-28T12:41:12Z</time>
      </trkpt>
      <trkpt lat="45.02742" lon="6.49744">
        <ele>2615.2</ele>
        <time>2021-02-28T12:41:13Z</time>
      </trkpt>
      <trkpt lat="45.02742" lon="6.49744">
        <ele>2615.2</ele>
        <time>2021-02-28T12:41:14Z</time>
      </trkpt>
      <trkpt lat="45.02742" lon="6.49744">
        <ele>2615.6</ele>
        <time>2021-02-28T12:41:15Z</time>
      </trkpt>
      <trkpt lat="45.02742" lon="6.49744">
        <ele>2615.6</ele>
        <time>2021-02-28T12:41:16Z</time>
      </trkpt>
      <trkpt lat="45.02742" lon="6.49744">
        <ele>2615.8</ele>
        <time>2021-02-28T12:41:17Z</time>
      </trkpt>
      <trkpt lat="45.02742" lon="6.49744">
        <ele>2615.2</ele>
        <time>2021-02-28T12:41:18Z</time>
      </trkpt>
      <trkpt lat="45.02742" lon="6.49744">
        <ele>2615</ele>
        <time>2021-02-28T12:41:19Z</time>
      </trkpt>
      <trkpt lat="45.02742" lon="6.49744">
        <ele>2614.8</ele>
        <time>2021-02-28T12:41:20Z</time>
      </trkpt>
      <trkpt lat="45.02742" lon="6.49744">
        <ele>2614.6</ele>
        <time>2021-02-28T12:41:21Z</time>
      </trkpt>
      <trkpt lat="45.02742" lon="6.49744">
        <ele>2614.6</ele>
        <time>2021-02-28T12:41:22Z</time>
      </trkpt>
      <trkpt lat="45.02742" lon="6.49744">
        <ele>2614.4</ele>
        <time>2021-02-28T12:41:23Z</time>
      </trkpt>
      <trkpt lat="45.02742" lon="6.49744">
        <ele>2614.4</ele>
        <time>2021-02-28T12:41:24Z</time>
      </trkpt>
      <trkpt lat="45.02742" lon="6.49744">
        <ele>2614.4</ele>
        <time>2021-02-28T12:41:25Z</time>
      </trkpt>
      <trkpt lat="45.02742" lon="6.49744">
        <ele>2614</ele>
        <time>2021-02-28T12:41:26Z</time>
      </trkpt>
      <trkpt lat="45.02742" lon="6.49744">
        <ele>2614</ele>
        <time>2021-02-28T12:41:27Z</time>
      </trkpt>
      <trkpt lat="45.02742" lon="6.49744">
        <ele>2614.2</ele>
        <time>2021-02-28T12:41:28Z</time>
      </trkpt>
      <trkpt lat="45.02742" lon="6.49744">
        <ele>2614</ele>
        <time>2021-02-28T12:41:29Z</time>
      </trkpt>
      <trkpt lat="45.02742" lon="6.49744">
        <ele>2613.8</ele>
        <time>2021-02-28T12:41:30Z</time>
      </trkpt>
      <trkpt lat="45.02742" lon="6.49744">
        <ele>2613.8</ele>
        <time>2021-02-28T12:41:31Z</time>
      </trkpt>
      <trkpt lat="45.02742" lon="6.49744">
        <ele>2613.8</ele>
        <time>2021-02-28T12:41:32Z</time>
      </trkpt>
      <trkpt lat="45.02742" lon="6.49744">
        <ele>2614</ele>
        <time>2021-02-28T12:41:33Z</time>
      </trkpt>
      <trkpt lat="45.02742" lon="6.49744">
        <ele>2613.8</ele>
        <time>2021-02-28T12:41:34Z</time>
      </trkpt>
      <trkpt lat="45.02742" lon="6.49744">
        <ele>2613.8</ele>
        <time>2021-02-28T12:41:35Z</time>
      </trkpt>
      <trkpt lat="45.02742" lon="6.49744">
        <ele>2613.8</ele>
        <time>2021-02-28T12:41:36Z</time>
      </trkpt>
      <trkpt lat="45.02742" lon="6.49744">
        <ele>2613.6</ele>
        <time>2021-02-28T12:41:37Z</time>
      </trkpt>
      <trkpt lat="45.02742" lon="6.49744">
        <ele>2613.4</ele>
        <time>2021-02-28T12:41:38Z</time>
      </trkpt>
      <trkpt lat="45.02742" lon="6.49744">
        <ele>2613.4</ele>
        <time>2021-02-28T12:41:39Z</time>
      </trkpt>
      <trkpt lat="45.02742" lon="6.49744">
        <ele>2613.2</ele>
        <time>2021-02-28T12:41:40Z</time>
      </trkpt>
      <trkpt lat="45.02742" lon="6.49744">
        <ele>2613.2</ele>
        <time>2021-02-28T12:41:41Z</time>
      </trkpt>
      <trkpt lat="45.02742" lon="6.49744">
        <ele>2613.2</ele>
        <time>2021-02-28T12:41:42Z</time>
      </trkpt>
      <trkpt lat="45.02742" lon="6.49744">
        <ele>2613.2</ele>
        <time>2021-02-28T12:41:43Z</time>
      </trkpt>
      <trkpt lat="45.02742" lon="6.49744">
        <ele>2613.2</ele>
        <time>2021-02-28T12:41:44Z</time>
      </trkpt>
      <trkpt lat="45.02742" lon="6.49744">
        <ele>2613.4</ele>
        <time>2021-02-28T12:41:45Z</time>
      </trkpt>
      <trkpt lat="45.02742" lon="6.49744">
        <ele>2613.2</ele>
        <time>2021-02-28T12:41:46Z</time>
      </trkpt>
      <trkpt lat="45.02742" lon="6.49744">
        <ele>2613.2</ele>
        <time>2021-02-28T12:41:47Z</time>
      </trkpt>
      <trkpt lat="45.02742" lon="6.49744">
        <ele>2613.2</ele>
        <time>2021-02-28T12:41:48Z</time>
      </trkpt>
      <trkpt lat="45.02742" lon="6.49744">
        <ele>2613.2</ele>
        <time>2021-02-28T12:41:49Z</time>
      </trkpt>
      <trkpt lat="45.02742" lon="6.49744">
        <ele>2613.6</ele>
        <time>2021-02-28T12:41:50Z</time>
      </trkpt>
      <trkpt lat="45.02742" lon="6.49744">
        <ele>2613.6</ele>
        <time>2021-02-28T12:41:51Z</time>
      </trkpt>
      <trkpt lat="45.02742" lon="6.49744">
        <ele>2613.6</ele>
        <time>2021-02-28T12:41:52Z</time>
      </trkpt>
      <trkpt lat="45.02742" lon="6.49744">
        <ele>2613.2</ele>
        <time>2021-02-28T12:41:53Z</time>
      </trkpt>
      <trkpt lat="45.02742" lon="6.49744">
        <ele>2613</ele>
        <time>2021-02-28T12:41:54Z</time>
      </trkpt>
      <trkpt lat="45.02742" lon="6.49744">
        <ele>2613</ele>
        <time>2021-02-28T12:41:55Z</time>
      </trkpt>
      <trkpt lat="45.02742" lon="6.49744">
        <ele>2613</ele>
        <time>2021-02-28T12:41:56Z</time>
      </trkpt>
      <trkpt lat="45.02742" lon="6.49744">
        <ele>2612.8</ele>
        <time>2021-02-28T12:41:57Z</time>
      </trkpt>
      <trkpt lat="45.02742" lon="6.49744">
        <ele>2613</ele>
        <time>2021-02-28T12:41:58Z</time>
      </trkpt>
      <trkpt lat="45.02742" lon="6.49744">
        <ele>2613</ele>
        <time>2021-02-28T12:41:59Z</time>
      </trkpt>
      <trkpt lat="45.02742" lon="6.49744">
        <ele>2612.8</ele>
        <time>2021-02-28T12:42:00Z</time>
      </trkpt>
      <trkpt lat="45.02742" lon="6.49744">
        <ele>2613.2</ele>
        <time>2021-02-28T12:42:01Z</time>
      </trkpt>
      <trkpt lat="45.02742" lon="6.49744">
        <ele>2612.6</ele>
        <time>2021-02-28T12:42:02Z</time>
      </trkpt>
      <trkpt lat="45.02742" lon="6.49744">
        <ele>2612.6</ele>
        <time>2021-02-28T12:42:03Z</time>
      </trkpt>
      <trkpt lat="45.02742" lon="6.49744">
        <ele>2613</ele>
        <time>2021-02-28T12:42:04Z</time>
      </trkpt>
      <trkpt lat="45.02742" lon="6.49744">
        <ele>2613.4</ele>
        <time>2021-02-28T12:42:05Z</time>
      </trkpt>
      <trkpt lat="45.02742" lon="6.49744">
        <ele>2613.4</ele>
        <time>2021-02-28T12:42:06Z</time>
      </trkpt>
      <trkpt lat="45.02742" lon="6.49744">
        <ele>2613.4</ele>
        <time>2021-02-28T12:42:07Z</time>
      </trkpt>
      <trkpt lat="45.02742" lon="6.49744">
        <ele>2613.4</ele>
        <time>2021-02-28T12:42:08Z</time>
      </trkpt>
      <trkpt lat="45.02742" lon="6.49744">
        <ele>2613.4</ele>
        <time>2021-02-28T12:42:09Z</time>
      </trkpt>
      <trkpt lat="45.02742" lon="6.49744">
        <ele>2613.6</ele>
        <time>2021-02-28T12:42:10Z</time>
      </trkpt>
      <trkpt lat="45.02742" lon="6.49744">
        <ele>2613.6</ele>
        <time>2021-02-28T12:42:11Z</time>
      </trkpt>
      <trkpt lat="45.02742" lon="6.49744">
        <ele>2613.6</ele>
        <time>2021-02-28T12:42:12Z</time>
      </trkpt>
      <trkpt lat="45.02742" lon="6.49744">
        <ele>2613.8</ele>
        <time>2021-02-28T12:42:13Z</time>
      </trkpt>
      <trkpt lat="45.02742" lon="6.49744">
        <ele>2613.6</ele>
        <time>2021-02-28T12:42:14Z</time>
      </trkpt>
      <trkpt lat="45.02742" lon="6.49744">
        <ele>2613.6</ele>
        <time>2021-02-28T12:42:15Z</time>
      </trkpt>
      <trkpt lat="45.02742" lon="6.49744">
        <ele>2613.4</ele>
        <time>2021-02-28T12:42:16Z</time>
      </trkpt>
      <trkpt lat="45.02742" lon="6.49744">
        <ele>2613.4</ele>
        <time>2021-02-28T12:42:17Z</time>
      </trkpt>
      <trkpt lat="45.02742" lon="6.49744">
        <ele>2613.4</ele>
        <time>2021-02-28T12:42:18Z</time>
      </trkpt>
      <trkpt lat="45.02742" lon="6.49744">
        <ele>2613.4</ele>
        <time>2021-02-28T12:42:19Z</time>
      </trkpt>
      <trkpt lat="45.02742" lon="6.49744">
        <ele>2613.2</ele>
        <time>2021-02-28T12:42:20Z</time>
      </trkpt>
      <trkpt lat="45.02742" lon="6.49744">
        <ele>2613.2</ele>
        <time>2021-02-28T12:42:21Z</time>
      </trkpt>
      <trkpt lat="45.02742" lon="6.49744">
        <ele>2613.2</ele>
        <time>2021-02-28T12:42:22Z</time>
      </trkpt>
      <trkpt lat="45.02742" lon="6.49744">
        <ele>2613</ele>
        <time>2021-02-28T12:42:23Z</time>
      </trkpt>
      <trkpt lat="45.02742" lon="6.49744">
        <ele>2613</ele>
        <time>2021-02-28T12:42:24Z</time>
      </trkpt>
      <trkpt lat="45.02742" lon="6.49744">
        <ele>2613</ele>
        <time>2021-02-28T12:42:25Z</time>
      </trkpt>
      <trkpt lat="45.02742" lon="6.49744">
        <ele>2613</ele>
        <time>2021-02-28T12:42:26Z</time>
      </trkpt>
      <trkpt lat="45.02742" lon="6.49744">
        <ele>2613</ele>
        <time>2021-02-28T12:42:27Z</time>
      </trkpt>
      <trkpt lat="45.02742" lon="6.49744">
        <ele>2613</ele>
        <time>2021-02-28T12:42:28Z</time>
      </trkpt>
      <trkpt lat="45.02742" lon="6.49744">
        <ele>2613</ele>
        <time>2021-02-28T12:42:29Z</time>
      </trkpt>
      <trkpt lat="45.02742" lon="6.49744">
        <ele>2612.8</ele>
        <time>2021-02-28T12:42:30Z</time>
      </trkpt>
      <trkpt lat="45.02742" lon="6.49744">
        <ele>2612.8</ele>
        <time>2021-02-28T12:42:31Z</time>
      </trkpt>
      <trkpt lat="45.02742" lon="6.49744">
        <ele>2612.8</ele>
        <time>2021-02-28T12:42:32Z</time>
      </trkpt>
      <trkpt lat="45.02742" lon="6.49744">
        <ele>2612.8</ele>
        <time>2021-02-28T12:42:33Z</time>
      </trkpt>
      <trkpt lat="45.02742" lon="6.49744">
        <ele>2612.6</ele>
        <time>2021-02-28T12:42:34Z</time>
      </trkpt>
      <trkpt lat="45.02742" lon="6.49744">
        <ele>2612.4</ele>
        <time>2021-02-28T12:42:35Z</time>
      </trkpt>
      <trkpt lat="45.02742" lon="6.49744">
        <ele>2612.4</ele>
        <time>2021-02-28T12:42:36Z</time>
      </trkpt>
      <trkpt lat="45.02742" lon="6.49744">
        <ele>2612.4</ele>
        <time>2021-02-28T12:42:37Z</time>
      </trkpt>
      <trkpt lat="45.02742" lon="6.49744">
        <ele>2612.6</ele>
        <time>2021-02-28T12:42:38Z</time>
      </trkpt>
      <trkpt lat="45.02742" lon="6.49744">
        <ele>2612.6</ele>
        <time>2021-02-28T12:42:39Z</time>
      </trkpt>
      <trkpt lat="45.02742" lon="6.49744">
        <ele>2612.8</ele>
        <time>2021-02-28T12:42:40Z</time>
      </trkpt>
      <trkpt lat="45.02742" lon="6.49744">
        <ele>2612.6</ele>
        <time>2021-02-28T12:42:41Z</time>
      </trkpt>
      <trkpt lat="45.02742" lon="6.49744">
        <ele>2612.8</ele>
        <time>2021-02-28T12:42:42Z</time>
      </trkpt>
      <trkpt lat="45.02742" lon="6.49744">
        <ele>2612.8</ele>
        <time>2021-02-28T12:42:43Z</time>
      </trkpt>
      <trkpt lat="45.02742" lon="6.49744">
        <ele>2612.6</ele>
        <time>2021-02-28T12:42:44Z</time>
      </trkpt>
      <trkpt lat="45.02742" lon="6.49744">
        <ele>2612.8</ele>
        <time>2021-02-28T12:42:45Z</time>
      </trkpt>
      <trkpt lat="45.02742" lon="6.49744">
        <ele>2612.8</ele>
        <time>2021-02-28T12:42:46Z</time>
      </trkpt>
      <trkpt lat="45.02742" lon="6.49744">
        <ele>2612.4</ele>
        <time>2021-02-28T12:42:47Z</time>
      </trkpt>
      <trkpt lat="45.02742" lon="6.49744">
        <ele>2612.8</ele>
        <time>2021-02-28T12:42:48Z</time>
      </trkpt>
      <trkpt lat="45.02742" lon="6.49744">
        <ele>2612.4</ele>
        <time>2021-02-28T12:42:49Z</time>
      </trkpt>
      <trkpt lat="45.02742" lon="6.49744">
        <ele>2612.6</ele>
        <time>2021-02-28T12:42:50Z</time>
      </trkpt>
      <trkpt lat="45.02742" lon="6.49744">
        <ele>2612.8</ele>
        <time>2021-02-28T12:42:51Z</time>
      </trkpt>
      <trkpt lat="45.02742" lon="6.49744">
        <ele>2612.6</ele>
        <time>2021-02-28T12:42:52Z</time>
      </trkpt>
      <trkpt lat="45.02742" lon="6.49744">
        <ele>2612.6</ele>
        <time>2021-02-28T12:42:53Z</time>
      </trkpt>
      <trkpt lat="45.02742" lon="6.49744">
        <ele>2612.6</ele>
        <time>2021-02-28T12:42:54Z</time>
      </trkpt>
      <trkpt lat="45.02742" lon="6.49744">
        <ele>2612.4</ele>
        <time>2021-02-28T12:42:55Z</time>
      </trkpt>
      <trkpt lat="45.02742" lon="6.49744">
        <ele>2612.4</ele>
        <time>2021-02-28T12:42:56Z</time>
      </trkpt>
      <trkpt lat="45.02742" lon="6.49744">
        <ele>2612.4</ele>
        <time>2021-02-28T12:42:57Z</time>
      </trkpt>
      <trkpt lat="45.02742" lon="6.49744">
        <ele>2612.4</ele>
        <time>2021-02-28T12:42:58Z</time>
      </trkpt>
      <trkpt lat="45.02742" lon="6.49744">
        <ele>2612.4</ele>
        <time>2021-02-28T12:42:59Z</time>
      </trkpt>
      <trkpt lat="45.02742" lon="6.49744">
        <ele>2612.4</ele>
        <time>2021-02-28T12:43:00Z</time>
      </trkpt>
      <trkpt lat="45.02742" lon="6.49744">
        <ele>2612.2</ele>
        <time>2021-02-28T12:43:01Z</time>
      </trkpt>
      <trkpt lat="45.02742" lon="6.49744">
        <ele>2612.4</ele>
        <time>2021-02-28T12:43:02Z</time>
      </trkpt>
      <trkpt lat="45.02742" lon="6.49744">
        <ele>2612.6</ele>
        <time>2021-02-28T12:43:03Z</time>
      </trkpt>
      <trkpt lat="45.02742" lon="6.49744">
        <ele>2612.6</ele>
        <time>2021-02-28T12:43:04Z</time>
      </trkpt>
      <trkpt lat="45.02742" lon="6.49744">
        <ele>2612.6</ele>
        <time>2021-02-28T12:43:05Z</time>
      </trkpt>
      <trkpt lat="45.02742" lon="6.49744">
        <ele>2612.6</ele>
        <time>2021-02-28T12:43:06Z</time>
      </trkpt>
      <trkpt lat="45.02742" lon="6.49744">
        <ele>2612.6</ele>
        <time>2021-02-28T12:43:07Z</time>
      </trkpt>
      <trkpt lat="45.02742" lon="6.49744">
        <ele>2612.4</ele>
        <time>2021-02-28T12:43:08Z</time>
      </trkpt>
      <trkpt lat="45.02742" lon="6.49744">
        <ele>2612.4</ele>
        <time>2021-02-28T12:43:09Z</time>
      </trkpt>
      <trkpt lat="45.02742" lon="6.49744">
        <ele>2612.4</ele>
        <time>2021-02-28T12:43:10Z</time>
      </trkpt>
      <trkpt lat="45.02742" lon="6.49744">
        <ele>2612.2</ele>
        <time>2021-02-28T12:43:11Z</time>
      </trkpt>
      <trkpt lat="45.02742" lon="6.49744">
        <ele>2612.2</ele>
        <time>2021-02-28T12:43:12Z</time>
      </trkpt>
      <trkpt lat="45.02742" lon="6.49744">
        <ele>2612.2</ele>
        <time>2021-02-28T12:43:13Z</time>
      </trkpt>
      <trkpt lat="45.02742" lon="6.49744">
        <ele>2612.2</ele>
        <time>2021-02-28T12:43:14Z</time>
      </trkpt>
      <trkpt lat="45.0274" lon="6.49744">
        <ele>2612.2</ele>
        <time>2021-02-28T12:43:15Z</time>
      </trkpt>
      <trkpt lat="45.0274" lon="6.49744">
        <ele>2612.2</ele>
        <time>2021-02-28T12:43:16Z</time>
      </trkpt>
      <trkpt lat="45.02738" lon="6.49744">
        <ele>2612</ele>
        <time>2021-02-28T12:43:17Z</time>
      </trkpt>
      <trkpt lat="45.02738" lon="6.49744">
        <ele>2612.2</ele>
        <time>2021-02-28T12:43:18Z</time>
      </trkpt>
      <trkpt lat="45.02736" lon="6.49744">
        <ele>2612.2</ele>
        <time>2021-02-28T12:43:19Z</time>
      </trkpt>
      <trkpt lat="45.02736" lon="6.49744">
        <ele>2612.2</ele>
        <time>2021-02-28T12:43:20Z</time>
      </trkpt>
      <trkpt lat="45.02733" lon="6.49744">
        <ele>2612</ele>
        <time>2021-02-28T12:43:21Z</time>
      </trkpt>
      <trkpt lat="45.0273" lon="6.49744">
        <ele>2611.6</ele>
        <time>2021-02-28T12:43:22Z</time>
      </trkpt>
      <trkpt lat="45.02728" lon="6.49745">
        <ele>2611.6</ele>
        <time>2021-02-28T12:43:23Z</time>
      </trkpt>
      <trkpt lat="45.02725" lon="6.49745">
        <ele>2611.4</ele>
        <time>2021-02-28T12:43:24Z</time>
      </trkpt>
      <trkpt lat="45.02721" lon="6.49745">
        <ele>2611</ele>
        <time>2021-02-28T12:43:25Z</time>
      </trkpt>
      <trkpt lat="45.02716" lon="6.49745">
        <ele>2610.2</ele>
        <time>2021-02-28T12:43:26Z</time>
      </trkpt>
      <trkpt lat="45.02709" lon="6.49745">
        <ele>2609.4</ele>
        <time>2021-02-28T12:43:27Z</time>
      </trkpt>
      <trkpt lat="45.02702" lon="6.49744">
        <ele>2608.8</ele>
        <time>2021-02-28T12:43:28Z</time>
      </trkpt>
      <trkpt lat="45.02695" lon="6.49744">
        <ele>2607.6</ele>
        <time>2021-02-28T12:43:29Z</time>
      </trkpt>
      <trkpt lat="45.02688" lon="6.49744">
        <ele>2605.8</ele>
        <time>2021-02-28T12:43:30Z</time>
      </trkpt>
      <trkpt lat="45.02681" lon="6.49744">
        <ele>2605</ele>
        <time>2021-02-28T12:43:31Z</time>
      </trkpt>
      <trkpt lat="45.02675" lon="6.49744">
        <ele>2603.8</ele>
        <time>2021-02-28T12:43:32Z</time>
      </trkpt>
      <trkpt lat="45.0267" lon="6.49744">
        <ele>2603</ele>
        <time>2021-02-28T12:43:33Z</time>
      </trkpt>
      <trkpt lat="45.02665" lon="6.49745">
        <ele>2602</ele>
        <time>2021-02-28T12:43:34Z</time>
      </trkpt>
      <trkpt lat="45.02661" lon="6.49747">
        <ele>2601.2</ele>
        <time>2021-02-28T12:43:35Z</time>
      </trkpt>
      <trkpt lat="45.02657" lon="6.49748">
        <ele>2601</ele>
        <time>2021-02-28T12:43:36Z</time>
      </trkpt>
      <trkpt lat="45.02653" lon="6.4975">
        <ele>2600.6</ele>
        <time>2021-02-28T12:43:37Z</time>
      </trkpt>
      <trkpt lat="45.0265" lon="6.49752">
        <ele>2600.2</ele>
        <time>2021-02-28T12:43:38Z</time>
      </trkpt>
      <trkpt lat="45.02647" lon="6.49754">
        <ele>2599.6</ele>
        <time>2021-02-28T12:43:39Z</time>
      </trkpt>
      <trkpt lat="45.02644" lon="6.49755">
        <ele>2599.2</ele>
        <time>2021-02-28T12:43:40Z</time>
      </trkpt>
      <trkpt lat="45.02641" lon="6.49757">
        <ele>2599</ele>
        <time>2021-02-28T12:43:41Z</time>
      </trkpt>
      <trkpt lat="45.02638" lon="6.49759">
        <ele>2598.6</ele>
        <time>2021-02-28T12:43:42Z</time>
      </trkpt>
      <trkpt lat="45.02635" lon="6.49761">
        <ele>2598.4</ele>
        <time>2021-02-28T12:43:43Z</time>
      </trkpt>
      <trkpt lat="45.02632" lon="6.49763">
        <ele>2598</ele>
        <time>2021-02-28T12:43:44Z</time>
      </trkpt>
      <trkpt lat="45.02629" lon="6.49764">
        <ele>2597.8</ele>
        <time>2021-02-28T12:43:45Z</time>
      </trkpt>
      <trkpt lat="45.02626" lon="6.49766">
        <ele>2597.6</ele>
        <time>2021-02-28T12:43:46Z</time>
      </trkpt>
      <trkpt lat="45.02622" lon="6.49767">
        <ele>2597.2</ele>
        <time>2021-02-28T12:43:47Z</time>
      </trkpt>
      <trkpt lat="45.02619" lon="6.49769">
        <ele>2596.8</ele>
        <time>2021-02-28T12:43:48Z</time>
      </trkpt>
      <trkpt lat="45.02615" lon="6.49771">
        <ele>2596.2</ele>
        <time>2021-02-28T12:43:49Z</time>
      </trkpt>
      <trkpt lat="45.02611" lon="6.49772">
        <ele>2596</ele>
        <time>2021-02-28T12:43:50Z</time>
      </trkpt>
      <trkpt lat="45.02606" lon="6.49774">
        <ele>2595</ele>
        <time>2021-02-28T12:43:51Z</time>
      </trkpt>
      <trkpt lat="45.02602" lon="6.49776">
        <ele>2595</ele>
        <time>2021-02-28T12:43:52Z</time>
      </trkpt>
      <trkpt lat="45.02597" lon="6.49779">
        <ele>2594.2</ele>
        <time>2021-02-28T12:43:53Z</time>
      </trkpt>
      <trkpt lat="45.02591" lon="6.49782">
        <ele>2594</ele>
        <time>2021-02-28T12:43:54Z</time>
      </trkpt>
      <trkpt lat="45.02586" lon="6.49785">
        <ele>2592.6</ele>
        <time>2021-02-28T12:43:55Z</time>
      </trkpt>
      <trkpt lat="45.0258" lon="6.49788">
        <ele>2592.4</ele>
        <time>2021-02-28T12:43:56Z</time>
      </trkpt>
      <trkpt lat="45.02574" lon="6.49792">
        <ele>2592</ele>
        <time>2021-02-28T12:43:57Z</time>
      </trkpt>
      <trkpt lat="45.02568" lon="6.49796">
        <ele>2590.8</ele>
        <time>2021-02-28T12:43:58Z</time>
      </trkpt>
      <trkpt lat="45.02561" lon="6.498">
        <ele>2590.2</ele>
        <time>2021-02-28T12:43:59Z</time>
      </trkpt>
      <trkpt lat="45.02555" lon="6.49804">
        <ele>2588.4</ele>
        <time>2021-02-28T12:44:00Z</time>
      </trkpt>
      <trkpt lat="45.02549" lon="6.49808">
        <ele>2588.2</ele>
        <time>2021-02-28T12:44:01Z</time>
      </trkpt>
      <trkpt lat="45.02544" lon="6.49812">
        <ele>2587.2</ele>
        <time>2021-02-28T12:44:02Z</time>
      </trkpt>
      <trkpt lat="45.02539" lon="6.49816">
        <ele>2586</ele>
        <time>2021-02-28T12:44:03Z</time>
      </trkpt>
      <trkpt lat="45.02534" lon="6.4982">
        <ele>2586.2</ele>
        <time>2021-02-28T12:44:04Z</time>
      </trkpt>
      <trkpt lat="45.0253" lon="6.49823">
        <ele>2585.6</ele>
        <time>2021-02-28T12:44:05Z</time>
      </trkpt>
      <trkpt lat="45.0253" lon="6.49823">
        <ele>2585.2</ele>
        <time>2021-02-28T12:44:06Z</time>
      </trkpt>
      <trkpt lat="45.02522" lon="6.4983">
        <ele>2585</ele>
        <time>2021-02-28T12:44:07Z</time>
      </trkpt>
      <trkpt lat="45.02517" lon="6.49836">
        <ele>2584.8</ele>
        <time>2021-02-28T12:44:08Z</time>
      </trkpt>
      <trkpt lat="45.02515" lon="6.49838">
        <ele>2584.6</ele>
        <time>2021-02-28T12:44:09Z</time>
      </trkpt>
      <trkpt lat="45.0251" lon="6.49842">
        <ele>2584</ele>
        <time>2021-02-28T12:44:10Z</time>
      </trkpt>
      <trkpt lat="45.02506" lon="6.49846">
        <ele>2584</ele>
        <time>2021-02-28T12:44:11Z</time>
      </trkpt>
      <trkpt lat="45.02502" lon="6.4985">
        <ele>2583.2</ele>
        <time>2021-02-28T12:44:12Z</time>
      </trkpt>
      <trkpt lat="45.02497" lon="6.49855">
        <ele>2582.6</ele>
        <time>2021-02-28T12:44:13Z</time>
      </trkpt>
      <trkpt lat="45.02493" lon="6.49859">
        <ele>2581.8</ele>
        <time>2021-02-28T12:44:14Z</time>
      </trkpt>
      <trkpt lat="45.02489" lon="6.49862">
        <ele>2581.2</ele>
        <time>2021-02-28T12:44:15Z</time>
      </trkpt>
      <trkpt lat="45.02486" lon="6.49867">
        <ele>2580.6</ele>
        <time>2021-02-28T12:44:16Z</time>
      </trkpt>
      <trkpt lat="45.02486" lon="6.49874">
        <ele>2580.4</ele>
        <time>2021-02-28T12:44:17Z</time>
      </trkpt>
      <trkpt lat="45.02486" lon="6.49884">
        <ele>2579.6</ele>
        <time>2021-02-28T12:44:18Z</time>
      </trkpt>
      <trkpt lat="45.02485" lon="6.49891">
        <ele>2578.8</ele>
        <time>2021-02-28T12:44:19Z</time>
      </trkpt>
      <trkpt lat="45.02482" lon="6.49897">
        <ele>2577.4</ele>
        <time>2021-02-28T12:44:20Z</time>
      </trkpt>
      <trkpt lat="45.0248" lon="6.49904">
        <ele>2577</ele>
        <time>2021-02-28T12:44:21Z</time>
      </trkpt>
      <trkpt lat="45.02477" lon="6.4991">
        <ele>2575.2</ele>
        <time>2021-02-28T12:44:22Z</time>
      </trkpt>
      <trkpt lat="45.02473" lon="6.49913">
        <ele>2574</ele>
        <time>2021-02-28T12:44:23Z</time>
      </trkpt>
      <trkpt lat="45.0247" lon="6.49917">
        <ele>2573.2</ele>
        <time>2021-02-28T12:44:24Z</time>
      </trkpt>
      <trkpt lat="45.02466" lon="6.49921">
        <ele>2571.2</ele>
        <time>2021-02-28T12:44:25Z</time>
      </trkpt>
      <trkpt lat="45.02461" lon="6.49925">
        <ele>2570</ele>
        <time>2021-02-28T12:44:26Z</time>
      </trkpt>
      <trkpt lat="45.02455" lon="6.4993">
        <ele>2566.8</ele>
        <time>2021-02-28T12:44:27Z</time>
      </trkpt>
      <trkpt lat="45.02449" lon="6.49934">
        <ele>2565.8</ele>
        <time>2021-02-28T12:44:28Z</time>
      </trkpt>
      <trkpt lat="45.02442" lon="6.49941">
        <ele>2563.8</ele>
        <time>2021-02-28T12:44:29Z</time>
      </trkpt>
      <trkpt lat="45.02434" lon="6.49949">
        <ele>2561.6</ele>
        <time>2021-02-28T12:44:30Z</time>
      </trkpt>
      <trkpt lat="45.02426" lon="6.49957">
        <ele>2559.8</ele>
        <time>2021-02-28T12:44:31Z</time>
      </trkpt>
      <trkpt lat="45.02418" lon="6.49962">
        <ele>2557.2</ele>
        <time>2021-02-28T12:44:32Z</time>
      </trkpt>
      <trkpt lat="45.02418" lon="6.49962">
        <ele>2555.6</ele>
        <time>2021-02-28T12:44:33Z</time>
      </trkpt>
      <trkpt lat="45.02403" lon="6.49962">
        <ele>2554</ele>
        <time>2021-02-28T12:44:34Z</time>
      </trkpt>
      <trkpt lat="45.02395" lon="6.49962">
        <ele>2553</ele>
        <time>2021-02-28T12:44:35Z</time>
      </trkpt>
      <trkpt lat="45.02393" lon="6.49962">
        <ele>2552.2</ele>
        <time>2021-02-28T12:44:36Z</time>
      </trkpt>
      <trkpt lat="45.02388" lon="6.49963">
        <ele>2551.6</ele>
        <time>2021-02-28T12:44:37Z</time>
      </trkpt>
      <trkpt lat="45.02385" lon="6.49963">
        <ele>2551</ele>
        <time>2021-02-28T12:44:38Z</time>
      </trkpt>
      <trkpt lat="45.02383" lon="6.49964">
        <ele>2550.8</ele>
        <time>2021-02-28T12:44:39Z</time>
      </trkpt>
      <trkpt lat="45.02381" lon="6.49964">
        <ele>2550.4</ele>
        <time>2021-02-28T12:44:40Z</time>
      </trkpt>
      <trkpt lat="45.02381" lon="6.49964">
        <ele>2550</ele>
        <time>2021-02-28T12:44:41Z</time>
      </trkpt>
      <trkpt lat="45.02381" lon="6.49964">
        <ele>2549.8</ele>
        <time>2021-02-28T12:44:42Z</time>
      </trkpt>
      <trkpt lat="45.0238" lon="6.49964">
        <ele>2549.8</ele>
        <time>2021-02-28T12:44:43Z</time>
      </trkpt>
      <trkpt lat="45.02379" lon="6.49964">
        <ele>2550.2</ele>
        <time>2021-02-28T12:44:44Z</time>
      </trkpt>
      <trkpt lat="45.02378" lon="6.49964">
        <ele>2549.8</ele>
        <time>2021-02-28T12:44:45Z</time>
      </trkpt>
      <trkpt lat="45.02377" lon="6.49963">
        <ele>2550</ele>
        <time>2021-02-28T12:44:46Z</time>
      </trkpt>
      <trkpt lat="45.02376" lon="6.49963">
        <ele>2549.6</ele>
        <time>2021-02-28T12:44:47Z</time>
      </trkpt>
      <trkpt lat="45.02374" lon="6.49963">
        <ele>2550</ele>
        <time>2021-02-28T12:44:48Z</time>
      </trkpt>
      <trkpt lat="45.02374" lon="6.49963">
        <ele>2550</ele>
        <time>2021-02-28T12:44:49Z</time>
      </trkpt>
      <trkpt lat="45.02374" lon="6.49963">
        <ele>2549.8</ele>
        <time>2021-02-28T12:44:50Z</time>
      </trkpt>
      <trkpt lat="45.02374" lon="6.49963">
        <ele>2549.8</ele>
        <time>2021-02-28T12:44:51Z</time>
      </trkpt>
      <trkpt lat="45.02374" lon="6.49963">
        <ele>2550.2</ele>
        <time>2021-02-28T12:44:52Z</time>
      </trkpt>
      <trkpt lat="45.02374" lon="6.49963">
        <ele>2550.4</ele>
        <time>2021-02-28T12:44:53Z</time>
      </trkpt>
      <trkpt lat="45.02374" lon="6.49963">
        <ele>2550.6</ele>
        <time>2021-02-28T12:44:54Z</time>
      </trkpt>
      <trkpt lat="45.02374" lon="6.49963">
        <ele>2550.8</ele>
        <time>2021-02-28T12:44:55Z</time>
      </trkpt>
      <trkpt lat="45.02374" lon="6.49963">
        <ele>2551</ele>
        <time>2021-02-28T12:44:56Z</time>
      </trkpt>
      <trkpt lat="45.02374" lon="6.49963">
        <ele>2551</ele>
        <time>2021-02-28T12:44:57Z</time>
      </trkpt>
      <trkpt lat="45.02374" lon="6.49963">
        <ele>2551.2</ele>
        <time>2021-02-28T12:44:58Z</time>
      </trkpt>
      <trkpt lat="45.02374" lon="6.49963">
        <ele>2551.2</ele>
        <time>2021-02-28T12:44:59Z</time>
      </trkpt>
      <trkpt lat="45.02374" lon="6.49961">
        <ele>2551.2</ele>
        <time>2021-02-28T12:45:00Z</time>
      </trkpt>
      <trkpt lat="45.02374" lon="6.49961">
        <ele>2551.4</ele>
        <time>2021-02-28T12:45:01Z</time>
      </trkpt>
      <trkpt lat="45.02374" lon="6.49961">
        <ele>2551.4</ele>
        <time>2021-02-28T12:45:02Z</time>
      </trkpt>
      <trkpt lat="45.02374" lon="6.49961">
        <ele>2551.4</ele>
        <time>2021-02-28T12:45:03Z</time>
      </trkpt>
      <trkpt lat="45.02374" lon="6.49961">
        <ele>2551.2</ele>
        <time>2021-02-28T12:45:04Z</time>
      </trkpt>
      <trkpt lat="45.02374" lon="6.49961">
        <ele>2551</ele>
        <time>2021-02-28T12:45:05Z</time>
      </trkpt>
      <trkpt lat="45.02374" lon="6.49961">
        <ele>2550.6</ele>
        <time>2021-02-28T12:45:06Z</time>
      </trkpt>
      <trkpt lat="45.02374" lon="6.49961">
        <ele>2550</ele>
        <time>2021-02-28T12:45:07Z</time>
      </trkpt>
      <trkpt lat="45.02374" lon="6.49961">
        <ele>2550</ele>
        <time>2021-02-28T12:45:08Z</time>
      </trkpt>
      <trkpt lat="45.02374" lon="6.49961">
        <ele>2549.6</ele>
        <time>2021-02-28T12:45:09Z</time>
      </trkpt>
      <trkpt lat="45.02374" lon="6.49961">
        <ele>2549.4</ele>
        <time>2021-02-28T12:45:10Z</time>
      </trkpt>
      <trkpt lat="45.02374" lon="6.49961">
        <ele>2549.4</ele>
        <time>2021-02-28T12:45:11Z</time>
      </trkpt>
      <trkpt lat="45.02374" lon="6.49961">
        <ele>2549.6</ele>
        <time>2021-02-28T12:45:12Z</time>
      </trkpt>
      <trkpt lat="45.02374" lon="6.49961">
        <ele>2549.8</ele>
        <time>2021-02-28T12:45:13Z</time>
      </trkpt>
      <trkpt lat="45.02374" lon="6.49961">
        <ele>2550</ele>
        <time>2021-02-28T12:45:14Z</time>
      </trkpt>
      <trkpt lat="45.02374" lon="6.49961">
        <ele>2550.2</ele>
        <time>2021-02-28T12:45:15Z</time>
      </trkpt>
      <trkpt lat="45.02374" lon="6.49961">
        <ele>2550.8</ele>
        <time>2021-02-28T12:45:16Z</time>
      </trkpt>
      <trkpt lat="45.02374" lon="6.49961">
        <ele>2551</ele>
        <time>2021-02-28T12:45:17Z</time>
      </trkpt>
      <trkpt lat="45.02374" lon="6.49961">
        <ele>2551</ele>
        <time>2021-02-28T12:45:18Z</time>
      </trkpt>
      <trkpt lat="45.02374" lon="6.49961">
        <ele>2551.4</ele>
        <time>2021-02-28T12:45:19Z</time>
      </trkpt>
      <trkpt lat="45.02374" lon="6.49961">
        <ele>2551.2</ele>
        <time>2021-02-28T12:45:20Z</time>
      </trkpt>
      <trkpt lat="45.02374" lon="6.49961">
        <ele>2551.6</ele>
        <time>2021-02-28T12:45:21Z</time>
      </trkpt>
      <trkpt lat="45.02373" lon="6.49958">
        <ele>2551.6</ele>
        <time>2021-02-28T12:45:22Z</time>
      </trkpt>
      <trkpt lat="45.02373" lon="6.49958">
        <ele>2552</ele>
        <time>2021-02-28T12:45:23Z</time>
      </trkpt>
      <trkpt lat="45.02373" lon="6.49958">
        <ele>2551.8</ele>
        <time>2021-02-28T12:45:24Z</time>
      </trkpt>
      <trkpt lat="45.02373" lon="6.49958">
        <ele>2552</ele>
        <time>2021-02-28T12:45:25Z</time>
      </trkpt>
      <trkpt lat="45.02373" lon="6.49958">
        <ele>2552</ele>
        <time>2021-02-28T12:45:26Z</time>
      </trkpt>
      <trkpt lat="45.02373" lon="6.49958">
        <ele>2552.4</ele>
        <time>2021-02-28T12:45:27Z</time>
      </trkpt>
      <trkpt lat="45.02373" lon="6.49958">
        <ele>2552.2</ele>
        <time>2021-02-28T12:45:28Z</time>
      </trkpt>
      <trkpt lat="45.02373" lon="6.49958">
        <ele>2551.8</ele>
        <time>2021-02-28T12:45:29Z</time>
      </trkpt>
      <trkpt lat="45.02373" lon="6.49958">
        <ele>2551.6</ele>
        <time>2021-02-28T12:45:30Z</time>
      </trkpt>
      <trkpt lat="45.02373" lon="6.49958">
        <ele>2551.4</ele>
        <time>2021-02-28T12:45:31Z</time>
      </trkpt>
      <trkpt lat="45.02373" lon="6.49958">
        <ele>2551.4</ele>
        <time>2021-02-28T12:45:32Z</time>
      </trkpt>
      <trkpt lat="45.02373" lon="6.49958">
        <ele>2551.4</ele>
        <time>2021-02-28T12:45:33Z</time>
      </trkpt>
      <trkpt lat="45.02373" lon="6.49958">
        <ele>2551.2</ele>
        <time>2021-02-28T12:45:34Z</time>
      </trkpt>
      <trkpt lat="45.02373" lon="6.49958">
        <ele>2551.8</ele>
        <time>2021-02-28T12:45:35Z</time>
      </trkpt>
      <trkpt lat="45.02373" lon="6.49958">
        <ele>2551.8</ele>
        <time>2021-02-28T12:45:36Z</time>
      </trkpt>
      <trkpt lat="45.02373" lon="6.49958">
        <ele>2551.8</ele>
        <time>2021-02-28T12:45:37Z</time>
      </trkpt>
      <trkpt lat="45.02373" lon="6.49958">
        <ele>2551.8</ele>
        <time>2021-02-28T12:45:38Z</time>
      </trkpt>
      <trkpt lat="45.02373" lon="6.49958">
        <ele>2551.8</ele>
        <time>2021-02-28T12:45:39Z</time>
      </trkpt>
      <trkpt lat="45.02373" lon="6.49958">
        <ele>2552.2</ele>
        <time>2021-02-28T12:45:40Z</time>
      </trkpt>
      <trkpt lat="45.02373" lon="6.49958">
        <ele>2552.2</ele>
        <time>2021-02-28T12:45:41Z</time>
      </trkpt>
      <trkpt lat="45.02373" lon="6.49958">
        <ele>2552</ele>
        <time>2021-02-28T12:45:42Z</time>
      </trkpt>
      <trkpt lat="45.02373" lon="6.49958">
        <ele>2552.2</ele>
        <time>2021-02-28T12:45:43Z</time>
      </trkpt>
      <trkpt lat="45.02373" lon="6.49958">
        <ele>2552.2</ele>
        <time>2021-02-28T12:45:44Z</time>
      </trkpt>
      <trkpt lat="45.02373" lon="6.49958">
        <ele>2552</ele>
        <time>2021-02-28T12:45:45Z</time>
      </trkpt>
      <trkpt lat="45.02373" lon="6.49958">
        <ele>2551.8</ele>
        <time>2021-02-28T12:45:46Z</time>
      </trkpt>
      <trkpt lat="45.02373" lon="6.49958">
        <ele>2551.6</ele>
        <time>2021-02-28T12:45:47Z</time>
      </trkpt>
      <trkpt lat="45.02373" lon="6.49955">
        <ele>2551.6</ele>
        <time>2021-02-28T12:45:48Z</time>
      </trkpt>
      <trkpt lat="45.02373" lon="6.49955">
        <ele>2550.4</ele>
        <time>2021-02-28T12:45:49Z</time>
      </trkpt>
      <trkpt lat="45.02373" lon="6.49955">
        <ele>2550.6</ele>
        <time>2021-02-28T12:45:50Z</time>
      </trkpt>
      <trkpt lat="45.02373" lon="6.49955">
        <ele>2550.4</ele>
        <time>2021-02-28T12:45:51Z</time>
      </trkpt>
      <trkpt lat="45.02373" lon="6.49955">
        <ele>2550.4</ele>
        <time>2021-02-28T12:45:52Z</time>
      </trkpt>
      <trkpt lat="45.02373" lon="6.49955">
        <ele>2550.4</ele>
        <time>2021-02-28T12:45:53Z</time>
      </trkpt>
      <trkpt lat="45.02373" lon="6.49955">
        <ele>2550.2</ele>
        <time>2021-02-28T12:45:54Z</time>
      </trkpt>
      <trkpt lat="45.02373" lon="6.49955">
        <ele>2550</ele>
        <time>2021-02-28T12:45:55Z</time>
      </trkpt>
      <trkpt lat="45.02373" lon="6.49955">
        <ele>2550</ele>
        <time>2021-02-28T12:45:56Z</time>
      </trkpt>
      <trkpt lat="45.02373" lon="6.49955">
        <ele>2549.8</ele>
        <time>2021-02-28T12:45:57Z</time>
      </trkpt>
      <trkpt lat="45.02373" lon="6.49955">
        <ele>2550</ele>
        <time>2021-02-28T12:45:58Z</time>
      </trkpt>
      <trkpt lat="45.02373" lon="6.49955">
        <ele>2549.8</ele>
        <time>2021-02-28T12:45:59Z</time>
      </trkpt>
      <trkpt lat="45.02373" lon="6.49955">
        <ele>2549.2</ele>
        <time>2021-02-28T12:46:00Z</time>
      </trkpt>
      <trkpt lat="45.02373" lon="6.49955">
        <ele>2549.2</ele>
        <time>2021-02-28T12:46:01Z</time>
      </trkpt>
      <trkpt lat="45.02373" lon="6.49955">
        <ele>2549.8</ele>
        <time>2021-02-28T12:46:02Z</time>
      </trkpt>
      <trkpt lat="45.02373" lon="6.49955">
        <ele>2549.8</ele>
        <time>2021-02-28T12:46:03Z</time>
      </trkpt>
      <trkpt lat="45.02373" lon="6.49955">
        <ele>2548.4</ele>
        <time>2021-02-28T12:46:04Z</time>
      </trkpt>
      <trkpt lat="45.02373" lon="6.49955">
        <ele>2548.8</ele>
        <time>2021-02-28T12:46:05Z</time>
      </trkpt>
      <trkpt lat="45.02373" lon="6.49955">
        <ele>2549</ele>
        <time>2021-02-28T12:46:06Z</time>
      </trkpt>
      <trkpt lat="45.02373" lon="6.49955">
        <ele>2549.6</ele>
        <time>2021-02-28T12:46:07Z</time>
      </trkpt>
      <trkpt lat="45.02373" lon="6.49955">
        <ele>2549.8</ele>
        <time>2021-02-28T12:46:08Z</time>
      </trkpt>
      <trkpt lat="45.02373" lon="6.49955">
        <ele>2549.6</ele>
        <time>2021-02-28T12:46:09Z</time>
      </trkpt>
      <trkpt lat="45.02373" lon="6.49955">
        <ele>2549.8</ele>
        <time>2021-02-28T12:46:10Z</time>
      </trkpt>
      <trkpt lat="45.02373" lon="6.49955">
        <ele>2549.8</ele>
        <time>2021-02-28T12:46:11Z</time>
      </trkpt>
      <trkpt lat="45.02373" lon="6.49955">
        <ele>2549.8</ele>
        <time>2021-02-28T12:46:12Z</time>
      </trkpt>
      <trkpt lat="45.02373" lon="6.49955">
        <ele>2549.6</ele>
        <time>2021-02-28T12:46:13Z</time>
      </trkpt>
      <trkpt lat="45.02373" lon="6.49955">
        <ele>2549.4</ele>
        <time>2021-02-28T12:46:14Z</time>
      </trkpt>
      <trkpt lat="45.02373" lon="6.49955">
        <ele>2549.4</ele>
        <time>2021-02-28T12:46:15Z</time>
      </trkpt>
      <trkpt lat="45.02373" lon="6.49955">
        <ele>2549.4</ele>
        <time>2021-02-28T12:46:16Z</time>
      </trkpt>
      <trkpt lat="45.02373" lon="6.49955">
        <ele>2549.4</ele>
        <time>2021-02-28T12:46:17Z</time>
      </trkpt>
      <trkpt lat="45.02373" lon="6.49955">
        <ele>2549.6</ele>
        <time>2021-02-28T12:46:18Z</time>
      </trkpt>
      <trkpt lat="45.02373" lon="6.49955">
        <ele>2549.6</ele>
        <time>2021-02-28T12:46:19Z</time>
      </trkpt>
      <trkpt lat="45.02373" lon="6.49955">
        <ele>2548.4</ele>
        <time>2021-02-28T12:46:20Z</time>
      </trkpt>
      <trkpt lat="45.02373" lon="6.49955">
        <ele>2548.8</ele>
        <time>2021-02-28T12:46:21Z</time>
      </trkpt>
      <trkpt lat="45.02373" lon="6.49955">
        <ele>2549.2</ele>
        <time>2021-02-28T12:46:22Z</time>
      </trkpt>
      <trkpt lat="45.02373" lon="6.49955">
        <ele>2549</ele>
        <time>2021-02-28T12:46:23Z</time>
      </trkpt>
      <trkpt lat="45.02373" lon="6.49955">
        <ele>2549.2</ele>
        <time>2021-02-28T12:46:24Z</time>
      </trkpt>
      <trkpt lat="45.02373" lon="6.49955">
        <ele>2549.6</ele>
        <time>2021-02-28T12:46:25Z</time>
      </trkpt>
      <trkpt lat="45.02373" lon="6.49955">
        <ele>2550.2</ele>
        <time>2021-02-28T12:46:26Z</time>
      </trkpt>
      <trkpt lat="45.02373" lon="6.49955">
        <ele>2550.2</ele>
        <time>2021-02-28T12:46:27Z</time>
      </trkpt>
      <trkpt lat="45.02373" lon="6.49955">
        <ele>2550.4</ele>
        <time>2021-02-28T12:46:28Z</time>
      </trkpt>
      <trkpt lat="45.02373" lon="6.49955">
        <ele>2550.2</ele>
        <time>2021-02-28T12:46:29Z</time>
      </trkpt>
      <trkpt lat="45.02373" lon="6.49955">
        <ele>2550.2</ele>
        <time>2021-02-28T12:46:30Z</time>
      </trkpt>
      <trkpt lat="45.02373" lon="6.49955">
        <ele>2550.6</ele>
        <time>2021-02-28T12:46:31Z</time>
      </trkpt>
      <trkpt lat="45.02373" lon="6.49955">
        <ele>2550.6</ele>
        <time>2021-02-28T12:46:32Z</time>
      </trkpt>
      <trkpt lat="45.02373" lon="6.49955">
        <ele>2550.4</ele>
        <time>2021-02-28T12:46:33Z</time>
      </trkpt>
      <trkpt lat="45.02373" lon="6.49955">
        <ele>2550.4</ele>
        <time>2021-02-28T12:46:34Z</time>
      </trkpt>
      <trkpt lat="45.02373" lon="6.49955">
        <ele>2550.2</ele>
        <time>2021-02-28T12:46:35Z</time>
      </trkpt>
      <trkpt lat="45.02373" lon="6.49955">
        <ele>2550</ele>
        <time>2021-02-28T12:46:36Z</time>
      </trkpt>
      <trkpt lat="45.02371" lon="6.49953">
        <ele>2550.2</ele>
        <time>2021-02-28T12:46:37Z</time>
      </trkpt>
      <trkpt lat="45.02371" lon="6.49953">
        <ele>2550.2</ele>
        <time>2021-02-28T12:46:38Z</time>
      </trkpt>
      <trkpt lat="45.02371" lon="6.49953">
        <ele>2550.2</ele>
        <time>2021-02-28T12:46:39Z</time>
      </trkpt>
      <trkpt lat="45.02371" lon="6.49953">
        <ele>2550.4</ele>
        <time>2021-02-28T12:46:40Z</time>
      </trkpt>
      <trkpt lat="45.02371" lon="6.49953">
        <ele>2550.6</ele>
        <time>2021-02-28T12:46:41Z</time>
      </trkpt>
      <trkpt lat="45.02371" lon="6.49953">
        <ele>2550.6</ele>
        <time>2021-02-28T12:46:42Z</time>
      </trkpt>
      <trkpt lat="45.02371" lon="6.49953">
        <ele>2550</ele>
        <time>2021-02-28T12:46:43Z</time>
      </trkpt>
      <trkpt lat="45.02371" lon="6.49953">
        <ele>2549.8</ele>
        <time>2021-02-28T12:46:44Z</time>
      </trkpt>
      <trkpt lat="45.02371" lon="6.49953">
        <ele>2549.6</ele>
        <time>2021-02-28T12:46:45Z</time>
      </trkpt>
      <trkpt lat="45.02371" lon="6.49953">
        <ele>2549.2</ele>
        <time>2021-02-28T12:46:46Z</time>
      </trkpt>
      <trkpt lat="45.02371" lon="6.49953">
        <ele>2549.2</ele>
        <time>2021-02-28T12:46:47Z</time>
      </trkpt>
      <trkpt lat="45.02371" lon="6.49953">
        <ele>2549.2</ele>
        <time>2021-02-28T12:46:48Z</time>
      </trkpt>
      <trkpt lat="45.02371" lon="6.49953">
        <ele>2549.6</ele>
        <time>2021-02-28T12:46:49Z</time>
      </trkpt>
      <trkpt lat="45.02371" lon="6.49953">
        <ele>2549.2</ele>
        <time>2021-02-28T12:46:50Z</time>
      </trkpt>
      <trkpt lat="45.02371" lon="6.49953">
        <ele>2549.2</ele>
        <time>2021-02-28T12:46:51Z</time>
      </trkpt>
      <trkpt lat="45.02371" lon="6.49953">
        <ele>2548.8</ele>
        <time>2021-02-28T12:46:52Z</time>
      </trkpt>
      <trkpt lat="45.02371" lon="6.49953">
        <ele>2548.8</ele>
        <time>2021-02-28T12:46:53Z</time>
      </trkpt>
      <trkpt lat="45.02371" lon="6.49953">
        <ele>2549</ele>
        <time>2021-02-28T12:46:54Z</time>
      </trkpt>
      <trkpt lat="45.02371" lon="6.49953">
        <ele>2548.8</ele>
        <time>2021-02-28T12:46:55Z</time>
      </trkpt>
      <trkpt lat="45.02371" lon="6.49953">
        <ele>2548.6</ele>
        <time>2021-02-28T12:46:56Z</time>
      </trkpt>
      <trkpt lat="45.02371" lon="6.49953">
        <ele>2548.4</ele>
        <time>2021-02-28T12:46:57Z</time>
      </trkpt>
      <trkpt lat="45.02371" lon="6.49953">
        <ele>2548.2</ele>
        <time>2021-02-28T12:46:58Z</time>
      </trkpt>
      <trkpt lat="45.02371" lon="6.49953">
        <ele>2548.2</ele>
        <time>2021-02-28T12:46:59Z</time>
      </trkpt>
      <trkpt lat="45.02371" lon="6.49953">
        <ele>2548.2</ele>
        <time>2021-02-28T12:47:00Z</time>
      </trkpt>
      <trkpt lat="45.02371" lon="6.49953">
        <ele>2548.4</ele>
        <time>2021-02-28T12:47:01Z</time>
      </trkpt>
      <trkpt lat="45.02371" lon="6.49953">
        <ele>2548.6</ele>
        <time>2021-02-28T12:47:02Z</time>
      </trkpt>
      <trkpt lat="45.02371" lon="6.49953">
        <ele>2548.4</ele>
        <time>2021-02-28T12:47:03Z</time>
      </trkpt>
      <trkpt lat="45.02371" lon="6.49953">
        <ele>2548.4</ele>
        <time>2021-02-28T12:47:04Z</time>
      </trkpt>
      <trkpt lat="45.02371" lon="6.49953">
        <ele>2548.2</ele>
        <time>2021-02-28T12:47:05Z</time>
      </trkpt>
      <trkpt lat="45.0237" lon="6.49955">
        <ele>2548.4</ele>
        <time>2021-02-28T12:47:06Z</time>
      </trkpt>
      <trkpt lat="45.0237" lon="6.49955">
        <ele>2548.2</ele>
        <time>2021-02-28T12:47:07Z</time>
      </trkpt>
      <trkpt lat="45.02368" lon="6.49956">
        <ele>2548.4</ele>
        <time>2021-02-28T12:47:08Z</time>
      </trkpt>
      <trkpt lat="45.02368" lon="6.49956">
        <ele>2549.2</ele>
        <time>2021-02-28T12:47:09Z</time>
      </trkpt>
      <trkpt lat="45.02367" lon="6.49957">
        <ele>2549</ele>
        <time>2021-02-28T12:47:10Z</time>
      </trkpt>
      <trkpt lat="45.02367" lon="6.49957">
        <ele>2548.8</ele>
        <time>2021-02-28T12:47:11Z</time>
      </trkpt>
      <trkpt lat="45.02365" lon="6.49959">
        <ele>2548.8</ele>
        <time>2021-02-28T12:47:12Z</time>
      </trkpt>
      <trkpt lat="45.02365" lon="6.49959">
        <ele>2549.2</ele>
        <time>2021-02-28T12:47:13Z</time>
      </trkpt>
      <trkpt lat="45.02363" lon="6.4996">
        <ele>2549.6</ele>
        <time>2021-02-28T12:47:14Z</time>
      </trkpt>
      <trkpt lat="45.02363" lon="6.4996">
        <ele>2549.4</ele>
        <time>2021-02-28T12:47:15Z</time>
      </trkpt>
      <trkpt lat="45.02361" lon="6.49961">
        <ele>2549.4</ele>
        <time>2021-02-28T12:47:16Z</time>
      </trkpt>
      <trkpt lat="45.02361" lon="6.49961">
        <ele>2549.2</ele>
        <time>2021-02-28T12:47:17Z</time>
      </trkpt>
      <trkpt lat="45.02359" lon="6.49962">
        <ele>2549.4</ele>
        <time>2021-02-28T12:47:18Z</time>
      </trkpt>
      <trkpt lat="45.02359" lon="6.49962">
        <ele>2549.8</ele>
        <time>2021-02-28T12:47:19Z</time>
      </trkpt>
      <trkpt lat="45.02357" lon="6.49963">
        <ele>2549</ele>
        <time>2021-02-28T12:47:20Z</time>
      </trkpt>
      <trkpt lat="45.02357" lon="6.49963">
        <ele>2549.6</ele>
        <time>2021-02-28T12:47:21Z</time>
      </trkpt>
      <trkpt lat="45.02355" lon="6.49965">
        <ele>2550</ele>
        <time>2021-02-28T12:47:22Z</time>
      </trkpt>
      <trkpt lat="45.02355" lon="6.49965">
        <ele>2549.2</ele>
        <time>2021-02-28T12:47:23Z</time>
      </trkpt>
      <trkpt lat="45.02353" lon="6.49967">
        <ele>2549.6</ele>
        <time>2021-02-28T12:47:24Z</time>
      </trkpt>
      <trkpt lat="45.02353" lon="6.49967">
        <ele>2549.6</ele>
        <time>2021-02-28T12:47:25Z</time>
      </trkpt>
      <trkpt lat="45.02351" lon="6.49969">
        <ele>2549.6</ele>
        <time>2021-02-28T12:47:26Z</time>
      </trkpt>
      <trkpt lat="45.02351" lon="6.49969">
        <ele>2550</ele>
        <time>2021-02-28T12:47:27Z</time>
      </trkpt>
      <trkpt lat="45.02349" lon="6.4997">
        <ele>2550.2</ele>
        <time>2021-02-28T12:47:28Z</time>
      </trkpt>
      <trkpt lat="45.02349" lon="6.4997">
        <ele>2550.2</ele>
        <time>2021-02-28T12:47:29Z</time>
      </trkpt>
      <trkpt lat="45.02346" lon="6.49971">
        <ele>2550.4</ele>
        <time>2021-02-28T12:47:30Z</time>
      </trkpt>
      <trkpt lat="45.02346" lon="6.49971">
        <ele>2550</ele>
        <time>2021-02-28T12:47:31Z</time>
      </trkpt>
      <trkpt lat="45.02344" lon="6.49973">
        <ele>2550.4</ele>
        <time>2021-02-28T12:47:32Z</time>
      </trkpt>
      <trkpt lat="45.02344" lon="6.49973">
        <ele>2550.4</ele>
        <time>2021-02-28T12:47:33Z</time>
      </trkpt>
      <trkpt lat="45.02341" lon="6.49973">
        <ele>2550.4</ele>
        <time>2021-02-28T12:47:34Z</time>
      </trkpt>
      <trkpt lat="45.02341" lon="6.49973">
        <ele>2550</ele>
        <time>2021-02-28T12:47:35Z</time>
      </trkpt>
      <trkpt lat="45.02339" lon="6.49975">
        <ele>2550.2</ele>
        <time>2021-02-28T12:47:36Z</time>
      </trkpt>
      <trkpt lat="45.02339" lon="6.49975">
        <ele>2550.2</ele>
        <time>2021-02-28T12:47:37Z</time>
      </trkpt>
      <trkpt lat="45.02337" lon="6.49977">
        <ele>2549.8</ele>
        <time>2021-02-28T12:47:38Z</time>
      </trkpt>
      <trkpt lat="45.02337" lon="6.49977">
        <ele>2549.6</ele>
        <time>2021-02-28T12:47:39Z</time>
      </trkpt>
      <trkpt lat="45.02335" lon="6.49978">
        <ele>2550.2</ele>
        <time>2021-02-28T12:47:40Z</time>
      </trkpt>
      <trkpt lat="45.02335" lon="6.49978">
        <ele>2550.6</ele>
        <time>2021-02-28T12:47:41Z</time>
      </trkpt>
      <trkpt lat="45.02333" lon="6.49981">
        <ele>2550.6</ele>
        <time>2021-02-28T12:47:42Z</time>
      </trkpt>
      <trkpt lat="45.02333" lon="6.49981">
        <ele>2550.8</ele>
        <time>2021-02-28T12:47:43Z</time>
      </trkpt>
      <trkpt lat="45.02332" lon="6.49982">
        <ele>2550.6</ele>
        <time>2021-02-28T12:47:44Z</time>
      </trkpt>
      <trkpt lat="45.02332" lon="6.49982">
        <ele>2550.2</ele>
        <time>2021-02-28T12:47:45Z</time>
      </trkpt>
      <trkpt lat="45.0233" lon="6.49985">
        <ele>2550.8</ele>
        <time>2021-02-28T12:47:46Z</time>
      </trkpt>
      <trkpt lat="45.0233" lon="6.49985">
        <ele>2550.4</ele>
        <time>2021-02-28T12:47:47Z</time>
      </trkpt>
      <trkpt lat="45.02328" lon="6.49987">
        <ele>2550.2</ele>
        <time>2021-02-28T12:47:48Z</time>
      </trkpt>
      <trkpt lat="45.02328" lon="6.49987">
        <ele>2550.2</ele>
        <time>2021-02-28T12:47:49Z</time>
      </trkpt>
      <trkpt lat="45.02327" lon="6.49989">
        <ele>2550.2</ele>
        <time>2021-02-28T12:47:50Z</time>
      </trkpt>
      <trkpt lat="45.02327" lon="6.49989">
        <ele>2550</ele>
        <time>2021-02-28T12:47:51Z</time>
      </trkpt>
      <trkpt lat="45.02325" lon="6.49991">
        <ele>2550.2</ele>
        <time>2021-02-28T12:47:52Z</time>
      </trkpt>
      <trkpt lat="45.02325" lon="6.49991">
        <ele>2550</ele>
        <time>2021-02-28T12:47:53Z</time>
      </trkpt>
      <trkpt lat="45.02323" lon="6.49993">
        <ele>2550.2</ele>
        <time>2021-02-28T12:47:54Z</time>
      </trkpt>
      <trkpt lat="45.02323" lon="6.49993">
        <ele>2550.4</ele>
        <time>2021-02-28T12:47:55Z</time>
      </trkpt>
      <trkpt lat="45.02323" lon="6.49993">
        <ele>2550.4</ele>
        <time>2021-02-28T12:47:56Z</time>
      </trkpt>
      <trkpt lat="45.02321" lon="6.49994">
        <ele>2550.6</ele>
        <time>2021-02-28T12:47:57Z</time>
      </trkpt>
      <trkpt lat="45.02321" lon="6.49994">
        <ele>2550.4</ele>
        <time>2021-02-28T12:47:58Z</time>
      </trkpt>
      <trkpt lat="45.02321" lon="6.49994">
        <ele>2550.4</ele>
        <time>2021-02-28T12:47:59Z</time>
      </trkpt>
      <trkpt lat="45.02321" lon="6.49994">
        <ele>2550.2</ele>
        <time>2021-02-28T12:48:00Z</time>
      </trkpt>
      <trkpt lat="45.02321" lon="6.49994">
        <ele>2550</ele>
        <time>2021-02-28T12:48:01Z</time>
      </trkpt>
      <trkpt lat="45.02321" lon="6.49994">
        <ele>2549.8</ele>
        <time>2021-02-28T12:48:02Z</time>
      </trkpt>
      <trkpt lat="45.02321" lon="6.49994">
        <ele>2550</ele>
        <time>2021-02-28T12:48:03Z</time>
      </trkpt>
      <trkpt lat="45.02321" lon="6.49994">
        <ele>2550</ele>
        <time>2021-02-28T12:48:04Z</time>
      </trkpt>
      <trkpt lat="45.02321" lon="6.49994">
        <ele>2550</ele>
        <time>2021-02-28T12:48:05Z</time>
      </trkpt>
      <trkpt lat="45.02321" lon="6.49994">
        <ele>2550.2</ele>
        <time>2021-02-28T12:48:06Z</time>
      </trkpt>
      <trkpt lat="45.02321" lon="6.49994">
        <ele>2550</ele>
        <time>2021-02-28T12:48:07Z</time>
      </trkpt>
      <trkpt lat="45.02321" lon="6.49994">
        <ele>2550.2</ele>
        <time>2021-02-28T12:48:08Z</time>
      </trkpt>
      <trkpt lat="45.02321" lon="6.49994">
        <ele>2550.4</ele>
        <time>2021-02-28T12:48:09Z</time>
      </trkpt>
      <trkpt lat="45.02321" lon="6.49994">
        <ele>2550.6</ele>
        <time>2021-02-28T12:48:10Z</time>
      </trkpt>
      <trkpt lat="45.02321" lon="6.49994">
        <ele>2550.4</ele>
        <time>2021-02-28T12:48:11Z</time>
      </trkpt>
      <trkpt lat="45.02321" lon="6.49994">
        <ele>2550.4</ele>
        <time>2021-02-28T12:48:12Z</time>
      </trkpt>
      <trkpt lat="45.02321" lon="6.49994">
        <ele>2550.6</ele>
        <time>2021-02-28T12:48:13Z</time>
      </trkpt>
      <trkpt lat="45.02321" lon="6.49994">
        <ele>2550.6</ele>
        <time>2021-02-28T12:48:14Z</time>
      </trkpt>
      <trkpt lat="45.02321" lon="6.49994">
        <ele>2550.2</ele>
        <time>2021-02-28T12:48:15Z</time>
      </trkpt>
      <trkpt lat="45.02321" lon="6.49994">
        <ele>2550.4</ele>
        <time>2021-02-28T12:48:16Z</time>
      </trkpt>
      <trkpt lat="45.02321" lon="6.49994">
        <ele>2550.4</ele>
        <time>2021-02-28T12:48:17Z</time>
      </trkpt>
      <trkpt lat="45.02321" lon="6.49994">
        <ele>2550.6</ele>
        <time>2021-02-28T12:48:18Z</time>
      </trkpt>
      <trkpt lat="45.02321" lon="6.49994">
        <ele>2550.4</ele>
        <time>2021-02-28T12:48:19Z</time>
      </trkpt>
      <trkpt lat="45.02321" lon="6.49994">
        <ele>2550.4</ele>
        <time>2021-02-28T12:48:20Z</time>
      </trkpt>
      <trkpt lat="45.02321" lon="6.49994">
        <ele>2550.4</ele>
        <time>2021-02-28T12:48:21Z</time>
      </trkpt>
      <trkpt lat="45.02321" lon="6.49994">
        <ele>2550.4</ele>
        <time>2021-02-28T12:48:22Z</time>
      </trkpt>
      <trkpt lat="45.02321" lon="6.49994">
        <ele>2550.4</ele>
        <time>2021-02-28T12:48:23Z</time>
      </trkpt>
      <trkpt lat="45.02321" lon="6.49994">
        <ele>2550.4</ele>
        <time>2021-02-28T12:48:24Z</time>
      </trkpt>
      <trkpt lat="45.02321" lon="6.49994">
        <ele>2550.6</ele>
        <time>2021-02-28T12:48:25Z</time>
      </trkpt>
      <trkpt lat="45.02321" lon="6.49994">
        <ele>2550.6</ele>
        <time>2021-02-28T12:48:26Z</time>
      </trkpt>
      <trkpt lat="45.02321" lon="6.49994">
        <ele>2550.6</ele>
        <time>2021-02-28T12:48:27Z</time>
      </trkpt>
      <trkpt lat="45.02321" lon="6.49994">
        <ele>2550.6</ele>
        <time>2021-02-28T12:48:28Z</time>
      </trkpt>
      <trkpt lat="45.02321" lon="6.49994">
        <ele>2550.4</ele>
        <time>2021-02-28T12:48:29Z</time>
      </trkpt>
      <trkpt lat="45.02321" lon="6.49994">
        <ele>2550.4</ele>
        <time>2021-02-28T12:48:30Z</time>
      </trkpt>
      <trkpt lat="45.02321" lon="6.49994">
        <ele>2550.4</ele>
        <time>2021-02-28T12:48:31Z</time>
      </trkpt>
      <trkpt lat="45.02321" lon="6.49994">
        <ele>2550.4</ele>
        <time>2021-02-28T12:48:32Z</time>
      </trkpt>
      <trkpt lat="45.02321" lon="6.49994">
        <ele>2550.6</ele>
        <time>2021-02-28T12:48:33Z</time>
      </trkpt>
      <trkpt lat="45.02321" lon="6.49994">
        <ele>2550.8</ele>
        <time>2021-02-28T12:48:34Z</time>
      </trkpt>
      <trkpt lat="45.02321" lon="6.49994">
        <ele>2550.6</ele>
        <time>2021-02-28T12:48:35Z</time>
      </trkpt>
      <trkpt lat="45.02321" lon="6.49997">
        <ele>2550.6</ele>
        <time>2021-02-28T12:48:36Z</time>
      </trkpt>
      <trkpt lat="45.02321" lon="6.49997">
        <ele>2550.6</ele>
        <time>2021-02-28T12:48:37Z</time>
      </trkpt>
      <trkpt lat="45.02321" lon="6.49997">
        <ele>2550.6</ele>
        <time>2021-02-28T12:48:38Z</time>
      </trkpt>
      <trkpt lat="45.02321" lon="6.49997">
        <ele>2550.6</ele>
        <time>2021-02-28T12:48:39Z</time>
      </trkpt>
      <trkpt lat="45.02321" lon="6.49997">
        <ele>2550.8</ele>
        <time>2021-02-28T12:48:40Z</time>
      </trkpt>
      <trkpt lat="45.02321" lon="6.49997">
        <ele>2550.6</ele>
        <time>2021-02-28T12:48:41Z</time>
      </trkpt>
      <trkpt lat="45.02321" lon="6.49997">
        <ele>2550.6</ele>
        <time>2021-02-28T12:48:42Z</time>
      </trkpt>
      <trkpt lat="45.02321" lon="6.49997">
        <ele>2550.8</ele>
        <time>2021-02-28T12:48:43Z</time>
      </trkpt>
      <trkpt lat="45.02321" lon="6.49997">
        <ele>2551</ele>
        <time>2021-02-28T12:48:44Z</time>
      </trkpt>
      <trkpt lat="45.02321" lon="6.49997">
        <ele>2551.2</ele>
        <time>2021-02-28T12:48:45Z</time>
      </trkpt>
      <trkpt lat="45.02321" lon="6.49997">
        <ele>2551</ele>
        <time>2021-02-28T12:48:46Z</time>
      </trkpt>
      <trkpt lat="45.02321" lon="6.49997">
        <ele>2551.2</ele>
        <time>2021-02-28T12:48:47Z</time>
      </trkpt>
      <trkpt lat="45.02321" lon="6.49997">
        <ele>2551</ele>
        <time>2021-02-28T12:48:48Z</time>
      </trkpt>
      <trkpt lat="45.02321" lon="6.49997">
        <ele>2551</ele>
        <time>2021-02-28T12:48:49Z</time>
      </trkpt>
      <trkpt lat="45.02321" lon="6.49997">
        <ele>2551</ele>
        <time>2021-02-28T12:48:50Z</time>
      </trkpt>
      <trkpt lat="45.02321" lon="6.49997">
        <ele>2550.8</ele>
        <time>2021-02-28T12:48:51Z</time>
      </trkpt>
      <trkpt lat="45.02321" lon="6.49997">
        <ele>2551.2</ele>
        <time>2021-02-28T12:48:52Z</time>
      </trkpt>
      <trkpt lat="45.02321" lon="6.49997">
        <ele>2551.2</ele>
        <time>2021-02-28T12:48:53Z</time>
      </trkpt>
      <trkpt lat="45.02321" lon="6.49997">
        <ele>2551.2</ele>
        <time>2021-02-28T12:48:54Z</time>
      </trkpt>
      <trkpt lat="45.02321" lon="6.49997">
        <ele>2551.2</ele>
        <time>2021-02-28T12:48:55Z</time>
      </trkpt>
      <trkpt lat="45.02321" lon="6.49997">
        <ele>2551.6</ele>
        <time>2021-02-28T12:48:56Z</time>
      </trkpt>
      <trkpt lat="45.02321" lon="6.49997">
        <ele>2551.8</ele>
        <time>2021-02-28T12:48:57Z</time>
      </trkpt>
      <trkpt lat="45.02321" lon="6.49997">
        <ele>2551.8</ele>
        <time>2021-02-28T12:48:58Z</time>
      </trkpt>
      <trkpt lat="45.02321" lon="6.49997">
        <ele>2551.6</ele>
        <time>2021-02-28T12:48:59Z</time>
      </trkpt>
      <trkpt lat="45.02321" lon="6.49997">
        <ele>2551.2</ele>
        <time>2021-02-28T12:49:00Z</time>
      </trkpt>
      <trkpt lat="45.02321" lon="6.49997">
        <ele>2551.4</ele>
        <time>2021-02-28T12:49:01Z</time>
      </trkpt>
      <trkpt lat="45.02321" lon="6.49997">
        <ele>2551.4</ele>
        <time>2021-02-28T12:49:02Z</time>
      </trkpt>
      <trkpt lat="45.02321" lon="6.49997">
        <ele>2551.8</ele>
        <time>2021-02-28T12:49:03Z</time>
      </trkpt>
      <trkpt lat="45.02321" lon="6.49997">
        <ele>2551.8</ele>
        <time>2021-02-28T12:49:04Z</time>
      </trkpt>
      <trkpt lat="45.02321" lon="6.49997">
        <ele>2552</ele>
        <time>2021-02-28T12:49:05Z</time>
      </trkpt>
      <trkpt lat="45.02321" lon="6.49997">
        <ele>2551.8</ele>
        <time>2021-02-28T12:49:06Z</time>
      </trkpt>
      <trkpt lat="45.02321" lon="6.49997">
        <ele>2551.8</ele>
        <time>2021-02-28T12:49:07Z</time>
      </trkpt>
      <trkpt lat="45.02321" lon="6.49997">
        <ele>2552</ele>
        <time>2021-02-28T12:49:08Z</time>
      </trkpt>
      <trkpt lat="45.02321" lon="6.49997">
        <ele>2552</ele>
        <time>2021-02-28T12:49:09Z</time>
      </trkpt>
      <trkpt lat="45.02321" lon="6.49997">
        <ele>2552.2</ele>
        <time>2021-02-28T12:49:10Z</time>
      </trkpt>
      <trkpt lat="45.02321" lon="6.49997">
        <ele>2552.2</ele>
        <time>2021-02-28T12:49:11Z</time>
      </trkpt>
      <trkpt lat="45.02321" lon="6.49997">
        <ele>2552.4</ele>
        <time>2021-02-28T12:49:12Z</time>
      </trkpt>
      <trkpt lat="45.02321" lon="6.49997">
        <ele>2552.4</ele>
        <time>2021-02-28T12:49:13Z</time>
      </trkpt>
      <trkpt lat="45.02318" lon="6.49999">
        <ele>2552</ele>
        <time>2021-02-28T12:49:14Z</time>
      </trkpt>
      <trkpt lat="45.02318" lon="6.49999">
        <ele>2552</ele>
        <time>2021-02-28T12:49:15Z</time>
      </trkpt>
      <trkpt lat="45.02318" lon="6.49999">
        <ele>2552.2</ele>
        <time>2021-02-28T12:49:16Z</time>
      </trkpt>
      <trkpt lat="45.02317" lon="6.5">
        <ele>2551.8</ele>
        <time>2021-02-28T12:49:17Z</time>
      </trkpt>
      <trkpt lat="45.02317" lon="6.5">
        <ele>2552</ele>
        <time>2021-02-28T12:49:18Z</time>
      </trkpt>
      <trkpt lat="45.02317" lon="6.5">
        <ele>2552.2</ele>
        <time>2021-02-28T12:49:19Z</time>
      </trkpt>
      <trkpt lat="45.02314" lon="6.5">
        <ele>2552</ele>
        <time>2021-02-28T12:49:20Z</time>
      </trkpt>
      <trkpt lat="45.02314" lon="6.5">
        <ele>2551.6</ele>
        <time>2021-02-28T12:49:21Z</time>
      </trkpt>
      <trkpt lat="45.02312" lon="6.5">
        <ele>2551.6</ele>
        <time>2021-02-28T12:49:22Z</time>
      </trkpt>
      <trkpt lat="45.02312" lon="6.5">
        <ele>2551.4</ele>
        <time>2021-02-28T12:49:23Z</time>
      </trkpt>
      <trkpt lat="45.02309" lon="6.50001">
        <ele>2551</ele>
        <time>2021-02-28T12:49:24Z</time>
      </trkpt>
      <trkpt lat="45.02309" lon="6.50001">
        <ele>2550.8</ele>
        <time>2021-02-28T12:49:25Z</time>
      </trkpt>
      <trkpt lat="45.02306" lon="6.50002">
        <ele>2550.8</ele>
        <time>2021-02-28T12:49:26Z</time>
      </trkpt>
      <trkpt lat="45.02306" lon="6.50002">
        <ele>2551</ele>
        <time>2021-02-28T12:49:27Z</time>
      </trkpt>
      <trkpt lat="45.02303" lon="6.50003">
        <ele>2550.6</ele>
        <time>2021-02-28T12:49:28Z</time>
      </trkpt>
      <trkpt lat="45.02301" lon="6.50004">
        <ele>2550.6</ele>
        <time>2021-02-28T12:49:29Z</time>
      </trkpt>
      <trkpt lat="45.02301" lon="6.50004">
        <ele>2550.4</ele>
        <time>2021-02-28T12:49:30Z</time>
      </trkpt>
      <trkpt lat="45.02298" lon="6.50005">
        <ele>2550.6</ele>
        <time>2021-02-28T12:49:31Z</time>
      </trkpt>
      <trkpt lat="45.02298" lon="6.50005">
        <ele>2549.6</ele>
        <time>2021-02-28T12:49:32Z</time>
      </trkpt>
      <trkpt lat="45.02294" lon="6.50006">
        <ele>2549.6</ele>
        <time>2021-02-28T12:49:33Z</time>
      </trkpt>
      <trkpt lat="45.02294" lon="6.50006">
        <ele>2549.4</ele>
        <time>2021-02-28T12:49:34Z</time>
      </trkpt>
      <trkpt lat="45.02291" lon="6.50006">
        <ele>2549.4</ele>
        <time>2021-02-28T12:49:35Z</time>
      </trkpt>
      <trkpt lat="45.02291" lon="6.50006">
        <ele>2549.8</ele>
        <time>2021-02-28T12:49:36Z</time>
      </trkpt>
      <trkpt lat="45.02289" lon="6.50007">
        <ele>2549.8</ele>
        <time>2021-02-28T12:49:37Z</time>
      </trkpt>
      <trkpt lat="45.02289" lon="6.50007">
        <ele>2550</ele>
        <time>2021-02-28T12:49:38Z</time>
      </trkpt>
      <trkpt lat="45.02286" lon="6.50007">
        <ele>2549.4</ele>
        <time>2021-02-28T12:49:39Z</time>
      </trkpt>
      <trkpt lat="45.02286" lon="6.50007">
        <ele>2549.6</ele>
        <time>2021-02-28T12:49:40Z</time>
      </trkpt>
      <trkpt lat="45.02284" lon="6.50008">
        <ele>2549.6</ele>
        <time>2021-02-28T12:49:41Z</time>
      </trkpt>
      <trkpt lat="45.02284" lon="6.50008">
        <ele>2549.8</ele>
        <time>2021-02-28T12:49:42Z</time>
      </trkpt>
      <trkpt lat="45.02281" lon="6.50009">
        <ele>2550</ele>
        <time>2021-02-28T12:49:43Z</time>
      </trkpt>
      <trkpt lat="45.02281" lon="6.50009">
        <ele>2549.8</ele>
        <time>2021-02-28T12:49:44Z</time>
      </trkpt>
      <trkpt lat="45.02279" lon="6.5001">
        <ele>2550</ele>
        <time>2021-02-28T12:49:45Z</time>
      </trkpt>
      <trkpt lat="45.02279" lon="6.5001">
        <ele>2550</ele>
        <time>2021-02-28T12:49:46Z</time>
      </trkpt>
      <trkpt lat="45.02277" lon="6.50011">
        <ele>2550</ele>
        <time>2021-02-28T12:49:47Z</time>
      </trkpt>
      <trkpt lat="45.02277" lon="6.50011">
        <ele>2550.4</ele>
        <time>2021-02-28T12:49:48Z</time>
      </trkpt>
      <trkpt lat="45.02274" lon="6.50013">
        <ele>2550.2</ele>
        <time>2021-02-28T12:49:49Z</time>
      </trkpt>
      <trkpt lat="45.02274" lon="6.50013">
        <ele>2550.2</ele>
        <time>2021-02-28T12:49:50Z</time>
      </trkpt>
      <trkpt lat="45.02272" lon="6.50014">
        <ele>2550.2</ele>
        <time>2021-02-28T12:49:51Z</time>
      </trkpt>
      <trkpt lat="45.02272" lon="6.50014">
        <ele>2550.6</ele>
        <time>2021-02-28T12:49:52Z</time>
      </trkpt>
      <trkpt lat="45.0227" lon="6.50015">
        <ele>2551.2</ele>
        <time>2021-02-28T12:49:53Z</time>
      </trkpt>
      <trkpt lat="45.0227" lon="6.50015">
        <ele>2551.4</ele>
        <time>2021-02-28T12:49:54Z</time>
      </trkpt>
      <trkpt lat="45.02267" lon="6.50015">
        <ele>2551.2</ele>
        <time>2021-02-28T12:49:55Z</time>
      </trkpt>
      <trkpt lat="45.02267" lon="6.50015">
        <ele>2551.8</ele>
        <time>2021-02-28T12:49:56Z</time>
      </trkpt>
      <trkpt lat="45.02267" lon="6.50015">
        <ele>2552</ele>
        <time>2021-02-28T12:49:57Z</time>
      </trkpt>
      <trkpt lat="45.02265" lon="6.50016">
        <ele>2552</ele>
        <time>2021-02-28T12:49:58Z</time>
      </trkpt>
      <trkpt lat="45.02265" lon="6.50016">
        <ele>2551.8</ele>
        <time>2021-02-28T12:49:59Z</time>
      </trkpt>
      <trkpt lat="45.02265" lon="6.50016">
        <ele>2552</ele>
        <time>2021-02-28T12:50:00Z</time>
      </trkpt>
      <trkpt lat="45.02263" lon="6.50016">
        <ele>2552.4</ele>
        <time>2021-02-28T12:50:01Z</time>
      </trkpt>
      <trkpt lat="45.02263" lon="6.50016">
        <ele>2552.6</ele>
        <time>2021-02-28T12:50:02Z</time>
      </trkpt>
      <trkpt lat="45.02263" lon="6.50016">
        <ele>2553</ele>
        <time>2021-02-28T12:50:03Z</time>
      </trkpt>
      <trkpt lat="45.0226" lon="6.50018">
        <ele>2553</ele>
        <time>2021-02-28T12:50:04Z</time>
      </trkpt>
      <trkpt lat="45.0226" lon="6.50018">
        <ele>2552.8</ele>
        <time>2021-02-28T12:50:05Z</time>
      </trkpt>
      <trkpt lat="45.02259" lon="6.50019">
        <ele>2553</ele>
        <time>2021-02-28T12:50:06Z</time>
      </trkpt>
      <trkpt lat="45.02259" lon="6.50019">
        <ele>2553.4</ele>
        <time>2021-02-28T12:50:07Z</time>
      </trkpt>
      <trkpt lat="45.02259" lon="6.50019">
        <ele>2553.6</ele>
        <time>2021-02-28T12:50:08Z</time>
      </trkpt>
      <trkpt lat="45.02256" lon="6.5002">
        <ele>2553.4</ele>
        <time>2021-02-28T12:50:09Z</time>
      </trkpt>
      <trkpt lat="45.02256" lon="6.5002">
        <ele>2554</ele>
        <time>2021-02-28T12:50:10Z</time>
      </trkpt>
      <trkpt lat="45.02256" lon="6.5002">
        <ele>2554.4</ele>
        <time>2021-02-28T12:50:11Z</time>
      </trkpt>
      <trkpt lat="45.02254" lon="6.50021">
        <ele>2554.2</ele>
        <time>2021-02-28T12:50:12Z</time>
      </trkpt>
      <trkpt lat="45.02254" lon="6.50021">
        <ele>2554.2</ele>
        <time>2021-02-28T12:50:13Z</time>
      </trkpt>
      <trkpt lat="45.02254" lon="6.50021">
        <ele>2554.6</ele>
        <time>2021-02-28T12:50:14Z</time>
      </trkpt>
      <trkpt lat="45.02252" lon="6.50022">
        <ele>2554.6</ele>
        <time>2021-02-28T12:50:15Z</time>
      </trkpt>
      <trkpt lat="45.02252" lon="6.50022">
        <ele>2555</ele>
        <time>2021-02-28T12:50:16Z</time>
      </trkpt>
      <trkpt lat="45.02252" lon="6.50022">
        <ele>2554.6</ele>
        <time>2021-02-28T12:50:17Z</time>
      </trkpt>
      <trkpt lat="45.02249" lon="6.50023">
        <ele>2554.6</ele>
        <time>2021-02-28T12:50:18Z</time>
      </trkpt>
      <trkpt lat="45.02249" lon="6.50023">
        <ele>2554.8</ele>
        <time>2021-02-28T12:50:19Z</time>
      </trkpt>
      <trkpt lat="45.02249" lon="6.50023">
        <ele>2554.8</ele>
        <time>2021-02-28T12:50:20Z</time>
      </trkpt>
      <trkpt lat="45.02247" lon="6.50024">
        <ele>2555</ele>
        <time>2021-02-28T12:50:21Z</time>
      </trkpt>
      <trkpt lat="45.02247" lon="6.50024">
        <ele>2555.6</ele>
        <time>2021-02-28T12:50:22Z</time>
      </trkpt>
      <trkpt lat="45.02245" lon="6.50025">
        <ele>2555.6</ele>
        <time>2021-02-28T12:50:23Z</time>
      </trkpt>
      <trkpt lat="45.02245" lon="6.50025">
        <ele>2556</ele>
        <time>2021-02-28T12:50:24Z</time>
      </trkpt>
      <trkpt lat="45.02245" lon="6.50025">
        <ele>2556.6</ele>
        <time>2021-02-28T12:50:25Z</time>
      </trkpt>
      <trkpt lat="45.02245" lon="6.50025">
        <ele>2556.4</ele>
        <time>2021-02-28T12:50:26Z</time>
      </trkpt>
      <trkpt lat="45.02245" lon="6.50025">
        <ele>2556.6</ele>
        <time>2021-02-28T12:50:27Z</time>
      </trkpt>
      <trkpt lat="45.02245" lon="6.50025">
        <ele>2556.8</ele>
        <time>2021-02-28T12:50:28Z</time>
      </trkpt>
      <trkpt lat="45.02245" lon="6.50025">
        <ele>2556.8</ele>
        <time>2021-02-28T12:50:29Z</time>
      </trkpt>
      <trkpt lat="45.02245" lon="6.50025">
        <ele>2557</ele>
        <time>2021-02-28T12:50:30Z</time>
      </trkpt>
      <trkpt lat="45.02245" lon="6.50025">
        <ele>2557.2</ele>
        <time>2021-02-28T12:50:31Z</time>
      </trkpt>
      <trkpt lat="45.02245" lon="6.50025">
        <ele>2557.2</ele>
        <time>2021-02-28T12:50:32Z</time>
      </trkpt>
      <trkpt lat="45.02245" lon="6.50025">
        <ele>2557</ele>
        <time>2021-02-28T12:50:33Z</time>
      </trkpt>
      <trkpt lat="45.02243" lon="6.50026">
        <ele>2557.2</ele>
        <time>2021-02-28T12:50:34Z</time>
      </trkpt>
      <trkpt lat="45.02243" lon="6.50026">
        <ele>2557.2</ele>
        <time>2021-02-28T12:50:35Z</time>
      </trkpt>
      <trkpt lat="45.02243" lon="6.50026">
        <ele>2557.2</ele>
        <time>2021-02-28T12:50:36Z</time>
      </trkpt>
      <trkpt lat="45.02241" lon="6.50026">
        <ele>2557</ele>
        <time>2021-02-28T12:50:37Z</time>
      </trkpt>
      <trkpt lat="45.02241" lon="6.50026">
        <ele>2557.4</ele>
        <time>2021-02-28T12:50:38Z</time>
      </trkpt>
      <trkpt lat="45.02239" lon="6.50027">
        <ele>2557</ele>
        <time>2021-02-28T12:50:39Z</time>
      </trkpt>
      <trkpt lat="45.02239" lon="6.50027">
        <ele>2557</ele>
        <time>2021-02-28T12:50:40Z</time>
      </trkpt>
      <trkpt lat="45.02237" lon="6.50028">
        <ele>2557.4</ele>
        <time>2021-02-28T12:50:41Z</time>
      </trkpt>
      <trkpt lat="45.02237" lon="6.50028">
        <ele>2557.2</ele>
        <time>2021-02-28T12:50:42Z</time>
      </trkpt>
      <trkpt lat="45.02235" lon="6.50028">
        <ele>2557.2</ele>
        <time>2021-02-28T12:50:43Z</time>
      </trkpt>
      <trkpt lat="45.02235" lon="6.50028">
        <ele>2557.2</ele>
        <time>2021-02-28T12:50:44Z</time>
      </trkpt>
      <trkpt lat="45.02233" lon="6.50029">
        <ele>2557.4</ele>
        <time>2021-02-28T12:50:45Z</time>
      </trkpt>
      <trkpt lat="45.02233" lon="6.50029">
        <ele>2557.8</ele>
        <time>2021-02-28T12:50:46Z</time>
      </trkpt>
      <trkpt lat="45.0223" lon="6.50029">
        <ele>2557.8</ele>
        <time>2021-02-28T12:50:47Z</time>
      </trkpt>
      <trkpt lat="45.0223" lon="6.50029">
        <ele>2557.8</ele>
        <time>2021-02-28T12:50:48Z</time>
      </trkpt>
      <trkpt lat="45.02228" lon="6.50029">
        <ele>2558.2</ele>
        <time>2021-02-28T12:50:49Z</time>
      </trkpt>
      <trkpt lat="45.02228" lon="6.50029">
        <ele>2558.8</ele>
        <time>2021-02-28T12:50:50Z</time>
      </trkpt>
      <trkpt lat="45.02226" lon="6.5003">
        <ele>2558.8</ele>
        <time>2021-02-28T12:50:51Z</time>
      </trkpt>
      <trkpt lat="45.02226" lon="6.5003">
        <ele>2558.4</ele>
        <time>2021-02-28T12:50:52Z</time>
      </trkpt>
      <trkpt lat="45.02224" lon="6.5003">
        <ele>2558.6</ele>
        <time>2021-02-28T12:50:53Z</time>
      </trkpt>
      <trkpt lat="45.02224" lon="6.5003">
        <ele>2559.4</ele>
        <time>2021-02-28T12:50:54Z</time>
      </trkpt>
      <trkpt lat="45.02222" lon="6.50032">
        <ele>2559.4</ele>
        <time>2021-02-28T12:50:55Z</time>
      </trkpt>
      <trkpt lat="45.02222" lon="6.50032">
        <ele>2559.2</ele>
        <time>2021-02-28T12:50:56Z</time>
      </trkpt>
      <trkpt lat="45.02219" lon="6.50032">
        <ele>2559.6</ele>
        <time>2021-02-28T12:50:57Z</time>
      </trkpt>
      <trkpt lat="45.02219" lon="6.50032">
        <ele>2560</ele>
        <time>2021-02-28T12:50:58Z</time>
      </trkpt>
      <trkpt lat="45.02217" lon="6.50033">
        <ele>2559.6</ele>
        <time>2021-02-28T12:50:59Z</time>
      </trkpt>
      <trkpt lat="45.02217" lon="6.50033">
        <ele>2559.4</ele>
        <time>2021-02-28T12:51:00Z</time>
      </trkpt>
      <trkpt lat="45.02215" lon="6.50034">
        <ele>2559.6</ele>
        <time>2021-02-28T12:51:01Z</time>
      </trkpt>
      <trkpt lat="45.02215" lon="6.50034">
        <ele>2560.2</ele>
        <time>2021-02-28T12:51:02Z</time>
      </trkpt>
      <trkpt lat="45.02212" lon="6.50034">
        <ele>2560.2</ele>
        <time>2021-02-28T12:51:03Z</time>
      </trkpt>
      <trkpt lat="45.02212" lon="6.50034">
        <ele>2560</ele>
        <time>2021-02-28T12:51:04Z</time>
      </trkpt>
      <trkpt lat="45.0221" lon="6.50035">
        <ele>2560.2</ele>
        <time>2021-02-28T12:51:05Z</time>
      </trkpt>
      <trkpt lat="45.0221" lon="6.50035">
        <ele>2560.6</ele>
        <time>2021-02-28T12:51:06Z</time>
      </trkpt>
      <trkpt lat="45.0221" lon="6.50035">
        <ele>2560.8</ele>
        <time>2021-02-28T12:51:07Z</time>
      </trkpt>
      <trkpt lat="45.0221" lon="6.50035">
        <ele>2561</ele>
        <time>2021-02-28T12:51:08Z</time>
      </trkpt>
      <trkpt lat="45.02208" lon="6.50034">
        <ele>2561.2</ele>
        <time>2021-02-28T12:51:09Z</time>
      </trkpt>
      <trkpt lat="45.02208" lon="6.50034">
        <ele>2561</ele>
        <time>2021-02-28T12:51:10Z</time>
      </trkpt>
      <trkpt lat="45.02205" lon="6.50033">
        <ele>2561</ele>
        <time>2021-02-28T12:51:11Z</time>
      </trkpt>
      <trkpt lat="45.02205" lon="6.50033">
        <ele>2561</ele>
        <time>2021-02-28T12:51:12Z</time>
      </trkpt>
      <trkpt lat="45.02204" lon="6.50032">
        <ele>2561.2</ele>
        <time>2021-02-28T12:51:13Z</time>
      </trkpt>
      <trkpt lat="45.02204" lon="6.50032">
        <ele>2561.2</ele>
        <time>2021-02-28T12:51:14Z</time>
      </trkpt>
      <trkpt lat="45.02204" lon="6.50032">
        <ele>2561.2</ele>
        <time>2021-02-28T12:51:15Z</time>
      </trkpt>
      <trkpt lat="45.02202" lon="6.5003">
        <ele>2561.4</ele>
        <time>2021-02-28T12:51:16Z</time>
      </trkpt>
      <trkpt lat="45.02202" lon="6.5003">
        <ele>2561</ele>
        <time>2021-02-28T12:51:17Z</time>
      </trkpt>
      <trkpt lat="45.02202" lon="6.5003">
        <ele>2561.6</ele>
        <time>2021-02-28T12:51:18Z</time>
      </trkpt>
      <trkpt lat="45.02202" lon="6.50027">
        <ele>2562</ele>
        <time>2021-02-28T12:51:19Z</time>
      </trkpt>
      <trkpt lat="45.02202" lon="6.50027">
        <ele>2562.6</ele>
        <time>2021-02-28T12:51:20Z</time>
      </trkpt>
      <trkpt lat="45.02202" lon="6.50027">
        <ele>2563</ele>
        <time>2021-02-28T12:51:21Z</time>
      </trkpt>
      <trkpt lat="45.02202" lon="6.50024">
        <ele>2563</ele>
        <time>2021-02-28T12:51:22Z</time>
      </trkpt>
      <trkpt lat="45.02202" lon="6.50024">
        <ele>2563</ele>
        <time>2021-02-28T12:51:23Z</time>
      </trkpt>
      <trkpt lat="45.02202" lon="6.50024">
        <ele>2563.4</ele>
        <time>2021-02-28T12:51:24Z</time>
      </trkpt>
      <trkpt lat="45.02202" lon="6.5002">
        <ele>2564</ele>
        <time>2021-02-28T12:51:25Z</time>
      </trkpt>
      <trkpt lat="45.02202" lon="6.5002">
        <ele>2563.8</ele>
        <time>2021-02-28T12:51:26Z</time>
      </trkpt>
      <trkpt lat="45.02202" lon="6.5002">
        <ele>2563.6</ele>
        <time>2021-02-28T12:51:27Z</time>
      </trkpt>
      <trkpt lat="45.02203" lon="6.50018">
        <ele>2564</ele>
        <time>2021-02-28T12:51:28Z</time>
      </trkpt>
      <trkpt lat="45.02203" lon="6.50018">
        <ele>2563.6</ele>
        <time>2021-02-28T12:51:29Z</time>
      </trkpt>
      <trkpt lat="45.02203" lon="6.50018">
        <ele>2564</ele>
        <time>2021-02-28T12:51:30Z</time>
      </trkpt>
      <trkpt lat="45.02204" lon="6.50014">
        <ele>2564.6</ele>
        <time>2021-02-28T12:51:31Z</time>
      </trkpt>
      <trkpt lat="45.02204" lon="6.50014">
        <ele>2564.8</ele>
        <time>2021-02-28T12:51:32Z</time>
      </trkpt>
      <trkpt lat="45.02204" lon="6.50014">
        <ele>2565.6</ele>
        <time>2021-02-28T12:51:33Z</time>
      </trkpt>
      <trkpt lat="45.02205" lon="6.50011">
        <ele>2565.6</ele>
        <time>2021-02-28T12:51:34Z</time>
      </trkpt>
      <trkpt lat="45.02205" lon="6.50011">
        <ele>2565.6</ele>
        <time>2021-02-28T12:51:35Z</time>
      </trkpt>
      <trkpt lat="45.02206" lon="6.50008">
        <ele>2565.6</ele>
        <time>2021-02-28T12:51:36Z</time>
      </trkpt>
      <trkpt lat="45.02206" lon="6.50008">
        <ele>2565.8</ele>
        <time>2021-02-28T12:51:37Z</time>
      </trkpt>
      <trkpt lat="45.02207" lon="6.50006">
        <ele>2566.4</ele>
        <time>2021-02-28T12:51:38Z</time>
      </trkpt>
      <trkpt lat="45.02207" lon="6.50006">
        <ele>2566</ele>
        <time>2021-02-28T12:51:39Z</time>
      </trkpt>
      <trkpt lat="45.02207" lon="6.50003">
        <ele>2566.6</ele>
        <time>2021-02-28T12:51:40Z</time>
      </trkpt>
      <trkpt lat="45.02207" lon="6.50003">
        <ele>2567</ele>
        <time>2021-02-28T12:51:41Z</time>
      </trkpt>
      <trkpt lat="45.02208" lon="6.5">
        <ele>2566.2</ele>
        <time>2021-02-28T12:51:42Z</time>
      </trkpt>
      <trkpt lat="45.02208" lon="6.5">
        <ele>2566.8</ele>
        <time>2021-02-28T12:51:43Z</time>
      </trkpt>
      <trkpt lat="45.02208" lon="6.5">
        <ele>2567.2</ele>
        <time>2021-02-28T12:51:44Z</time>
      </trkpt>
      <trkpt lat="45.0221" lon="6.49996">
        <ele>2567</ele>
        <time>2021-02-28T12:51:45Z</time>
      </trkpt>
      <trkpt lat="45.0221" lon="6.49996">
        <ele>2567.2</ele>
        <time>2021-02-28T12:51:46Z</time>
      </trkpt>
      <trkpt lat="45.0221" lon="6.49996">
        <ele>2568</ele>
        <time>2021-02-28T12:51:47Z</time>
      </trkpt>
      <trkpt lat="45.02209" lon="6.49993">
        <ele>2567.6</ele>
        <time>2021-02-28T12:51:48Z</time>
      </trkpt>
      <trkpt lat="45.02209" lon="6.49993">
        <ele>2568.2</ele>
        <time>2021-02-28T12:51:49Z</time>
      </trkpt>
      <trkpt lat="45.02209" lon="6.49993">
        <ele>2568.4</ele>
        <time>2021-02-28T12:51:50Z</time>
      </trkpt>
      <trkpt lat="45.02209" lon="6.4999">
        <ele>2568.2</ele>
        <time>2021-02-28T12:51:51Z</time>
      </trkpt>
      <trkpt lat="45.02209" lon="6.4999">
        <ele>2568.2</ele>
        <time>2021-02-28T12:51:52Z</time>
      </trkpt>
      <trkpt lat="45.02208" lon="6.49987">
        <ele>2568.6</ele>
        <time>2021-02-28T12:51:53Z</time>
      </trkpt>
      <trkpt lat="45.02208" lon="6.49987">
        <ele>2568.4</ele>
        <time>2021-02-28T12:51:54Z</time>
      </trkpt>
      <trkpt lat="45.02207" lon="6.49985">
        <ele>2568.6</ele>
        <time>2021-02-28T12:51:55Z</time>
      </trkpt>
      <trkpt lat="45.02207" lon="6.49985">
        <ele>2568.6</ele>
        <time>2021-02-28T12:51:56Z</time>
      </trkpt>
      <trkpt lat="45.02207" lon="6.49985">
        <ele>2568.6</ele>
        <time>2021-02-28T12:51:57Z</time>
      </trkpt>
      <trkpt lat="45.02207" lon="6.49985">
        <ele>2569.4</ele>
        <time>2021-02-28T12:51:58Z</time>
      </trkpt>
      <trkpt lat="45.02204" lon="6.49983">
        <ele>2569.2</ele>
        <time>2021-02-28T12:51:59Z</time>
      </trkpt>
      <trkpt lat="45.02204" lon="6.49983">
        <ele>2569.2</ele>
        <time>2021-02-28T12:52:00Z</time>
      </trkpt>
      <trkpt lat="45.02204" lon="6.49983">
        <ele>2569.6</ele>
        <time>2021-02-28T12:52:01Z</time>
      </trkpt>
      <trkpt lat="45.02203" lon="6.49982">
        <ele>2569.8</ele>
        <time>2021-02-28T12:52:02Z</time>
      </trkpt>
      <trkpt lat="45.02202" lon="6.4998">
        <ele>2570.2</ele>
        <time>2021-02-28T12:52:03Z</time>
      </trkpt>
      <trkpt lat="45.02201" lon="6.49979">
        <ele>2570.4</ele>
        <time>2021-02-28T12:52:04Z</time>
      </trkpt>
      <trkpt lat="45.022" lon="6.49977">
        <ele>2570.6</ele>
        <time>2021-02-28T12:52:05Z</time>
      </trkpt>
      <trkpt lat="45.022" lon="6.49975">
        <ele>2570.6</ele>
        <time>2021-02-28T12:52:06Z</time>
      </trkpt>
      <trkpt lat="45.022" lon="6.49975">
        <ele>2570.6</ele>
        <time>2021-02-28T12:52:07Z</time>
      </trkpt>
      <trkpt lat="45.02199" lon="6.49973">
        <ele>2570.6</ele>
        <time>2021-02-28T12:52:08Z</time>
      </trkpt>
      <trkpt lat="45.02199" lon="6.49973">
        <ele>2570</ele>
        <time>2021-02-28T12:52:09Z</time>
      </trkpt>
      <trkpt lat="45.02198" lon="6.4997">
        <ele>2570</ele>
        <time>2021-02-28T12:52:10Z</time>
      </trkpt>
      <trkpt lat="45.02198" lon="6.4997">
        <ele>2570</ele>
        <time>2021-02-28T12:52:11Z</time>
      </trkpt>
      <trkpt lat="45.02198" lon="6.4997">
        <ele>2570</ele>
        <time>2021-02-28T12:52:12Z</time>
      </trkpt>
      <trkpt lat="45.02198" lon="6.4997">
        <ele>2570.4</ele>
        <time>2021-02-28T12:52:13Z</time>
      </trkpt>
      <trkpt lat="45.02198" lon="6.49967">
        <ele>2570.6</ele>
        <time>2021-02-28T12:52:14Z</time>
      </trkpt>
      <trkpt lat="45.02198" lon="6.49967">
        <ele>2570.2</ele>
        <time>2021-02-28T12:52:15Z</time>
      </trkpt>
      <trkpt lat="45.02198" lon="6.49967">
        <ele>2570.4</ele>
        <time>2021-02-28T12:52:16Z</time>
      </trkpt>
      <trkpt lat="45.02198" lon="6.49963">
        <ele>2571.2</ele>
        <time>2021-02-28T12:52:17Z</time>
      </trkpt>
      <trkpt lat="45.02198" lon="6.49963">
        <ele>2570.6</ele>
        <time>2021-02-28T12:52:18Z</time>
      </trkpt>
      <trkpt lat="45.02197" lon="6.4996">
        <ele>2570.8</ele>
        <time>2021-02-28T12:52:19Z</time>
      </trkpt>
      <trkpt lat="45.02197" lon="6.4996">
        <ele>2571.2</ele>
        <time>2021-02-28T12:52:20Z</time>
      </trkpt>
      <trkpt lat="45.02197" lon="6.49957">
        <ele>2571</ele>
        <time>2021-02-28T12:52:21Z</time>
      </trkpt>
      <trkpt lat="45.02197" lon="6.49957">
        <ele>2571.4</ele>
        <time>2021-02-28T12:52:22Z</time>
      </trkpt>
      <trkpt lat="45.02197" lon="6.49957">
        <ele>2571.6</ele>
        <time>2021-02-28T12:52:23Z</time>
      </trkpt>
      <trkpt lat="45.02197" lon="6.49953">
        <ele>2571.6</ele>
        <time>2021-02-28T12:52:24Z</time>
      </trkpt>
      <trkpt lat="45.02197" lon="6.49953">
        <ele>2572.2</ele>
        <time>2021-02-28T12:52:25Z</time>
      </trkpt>
      <trkpt lat="45.02197" lon="6.49953">
        <ele>2572.2</ele>
        <time>2021-02-28T12:52:26Z</time>
      </trkpt>
      <trkpt lat="45.02197" lon="6.49953">
        <ele>2572.2</ele>
        <time>2021-02-28T12:52:27Z</time>
      </trkpt>
      <trkpt lat="45.02197" lon="6.49953">
        <ele>2572.4</ele>
        <time>2021-02-28T12:52:28Z</time>
      </trkpt>
      <trkpt lat="45.02197" lon="6.49953">
        <ele>2572.6</ele>
        <time>2021-02-28T12:52:29Z</time>
      </trkpt>
      <trkpt lat="45.02197" lon="6.49953">
        <ele>2572.6</ele>
        <time>2021-02-28T12:52:30Z</time>
      </trkpt>
      <trkpt lat="45.02197" lon="6.49953">
        <ele>2572.6</ele>
        <time>2021-02-28T12:52:31Z</time>
      </trkpt>
      <trkpt lat="45.02197" lon="6.49953">
        <ele>2572.6</ele>
        <time>2021-02-28T12:52:32Z</time>
      </trkpt>
      <trkpt lat="45.02197" lon="6.49953">
        <ele>2572.6</ele>
        <time>2021-02-28T12:52:33Z</time>
      </trkpt>
      <trkpt lat="45.02197" lon="6.49953">
        <ele>2572.6</ele>
        <time>2021-02-28T12:52:34Z</time>
      </trkpt>
      <trkpt lat="45.02197" lon="6.49953">
        <ele>2572.6</ele>
        <time>2021-02-28T12:52:35Z</time>
      </trkpt>
      <trkpt lat="45.02197" lon="6.49953">
        <ele>2572.4</ele>
        <time>2021-02-28T12:52:36Z</time>
      </trkpt>
      <trkpt lat="45.02197" lon="6.49953">
        <ele>2572.4</ele>
        <time>2021-02-28T12:52:37Z</time>
      </trkpt>
      <trkpt lat="45.02197" lon="6.49953">
        <ele>2572.4</ele>
        <time>2021-02-28T12:52:38Z</time>
      </trkpt>
      <trkpt lat="45.02197" lon="6.49953">
        <ele>2572.6</ele>
        <time>2021-02-28T12:52:39Z</time>
      </trkpt>
      <trkpt lat="45.02197" lon="6.49953">
        <ele>2572.4</ele>
        <time>2021-02-28T12:52:40Z</time>
      </trkpt>
      <trkpt lat="45.02197" lon="6.49953">
        <ele>2572.4</ele>
        <time>2021-02-28T12:52:41Z</time>
      </trkpt>
      <trkpt lat="45.02197" lon="6.49953">
        <ele>2572.6</ele>
        <time>2021-02-28T12:52:42Z</time>
      </trkpt>
      <trkpt lat="45.02197" lon="6.49953">
        <ele>2572.8</ele>
        <time>2021-02-28T12:52:43Z</time>
      </trkpt>
      <trkpt lat="45.02197" lon="6.49953">
        <ele>2572.6</ele>
        <time>2021-02-28T12:52:44Z</time>
      </trkpt>
      <trkpt lat="45.02197" lon="6.49953">
        <ele>2572.4</ele>
        <time>2021-02-28T12:52:45Z</time>
      </trkpt>
      <trkpt lat="45.02197" lon="6.49953">
        <ele>2572.2</ele>
        <time>2021-02-28T12:52:46Z</time>
      </trkpt>
      <trkpt lat="45.02197" lon="6.49953">
        <ele>2572.2</ele>
        <time>2021-02-28T12:52:47Z</time>
      </trkpt>
      <trkpt lat="45.02197" lon="6.49953">
        <ele>2572.2</ele>
        <time>2021-02-28T12:52:48Z</time>
      </trkpt>
      <trkpt lat="45.02197" lon="6.49953">
        <ele>2572.2</ele>
        <time>2021-02-28T12:52:49Z</time>
      </trkpt>
      <trkpt lat="45.02197" lon="6.49953">
        <ele>2572.2</ele>
        <time>2021-02-28T12:52:50Z</time>
      </trkpt>
      <trkpt lat="45.02197" lon="6.49953">
        <ele>2572.2</ele>
        <time>2021-02-28T12:52:51Z</time>
      </trkpt>
      <trkpt lat="45.02197" lon="6.49953">
        <ele>2572.2</ele>
        <time>2021-02-28T12:52:52Z</time>
      </trkpt>
      <trkpt lat="45.02197" lon="6.49953">
        <ele>2572.2</ele>
        <time>2021-02-28T12:52:53Z</time>
      </trkpt>
      <trkpt lat="45.02197" lon="6.49953">
        <ele>2572.2</ele>
        <time>2021-02-28T12:52:54Z</time>
      </trkpt>
      <trkpt lat="45.02197" lon="6.49953">
        <ele>2572.4</ele>
        <time>2021-02-28T12:52:55Z</time>
      </trkpt>
      <trkpt lat="45.02197" lon="6.49953">
        <ele>2572.2</ele>
        <time>2021-02-28T12:52:56Z</time>
      </trkpt>
      <trkpt lat="45.02197" lon="6.49953">
        <ele>2572.4</ele>
        <time>2021-02-28T12:52:57Z</time>
      </trkpt>
      <trkpt lat="45.02197" lon="6.49953">
        <ele>2572.2</ele>
        <time>2021-02-28T12:52:58Z</time>
      </trkpt>
      <trkpt lat="45.02197" lon="6.49953">
        <ele>2572</ele>
        <time>2021-02-28T12:52:59Z</time>
      </trkpt>
      <trkpt lat="45.02197" lon="6.49953">
        <ele>2571.8</ele>
        <time>2021-02-28T12:53:00Z</time>
      </trkpt>
      <trkpt lat="45.02197" lon="6.49953">
        <ele>2571.6</ele>
        <time>2021-02-28T12:53:01Z</time>
      </trkpt>
      <trkpt lat="45.02197" lon="6.49953">
        <ele>2571.6</ele>
        <time>2021-02-28T12:53:02Z</time>
      </trkpt>
      <trkpt lat="45.02197" lon="6.49953">
        <ele>2571.8</ele>
        <time>2021-02-28T12:53:03Z</time>
      </trkpt>
      <trkpt lat="45.02197" lon="6.49953">
        <ele>2571.8</ele>
        <time>2021-02-28T12:53:04Z</time>
      </trkpt>
      <trkpt lat="45.02197" lon="6.49953">
        <ele>2571.8</ele>
        <time>2021-02-28T12:53:05Z</time>
      </trkpt>
      <trkpt lat="45.02197" lon="6.49953">
        <ele>2571.8</ele>
        <time>2021-02-28T12:53:06Z</time>
      </trkpt>
      <trkpt lat="45.02197" lon="6.49953">
        <ele>2571.6</ele>
        <time>2021-02-28T12:53:07Z</time>
      </trkpt>
      <trkpt lat="45.02197" lon="6.49953">
        <ele>2571.6</ele>
        <time>2021-02-28T12:53:08Z</time>
      </trkpt>
      <trkpt lat="45.02197" lon="6.49953">
        <ele>2571.6</ele>
        <time>2021-02-28T12:53:09Z</time>
      </trkpt>
      <trkpt lat="45.02197" lon="6.49953">
        <ele>2571.6</ele>
        <time>2021-02-28T12:53:10Z</time>
      </trkpt>
      <trkpt lat="45.02197" lon="6.49953">
        <ele>2571.6</ele>
        <time>2021-02-28T12:53:11Z</time>
      </trkpt>
      <trkpt lat="45.02197" lon="6.49953">
        <ele>2571.6</ele>
        <time>2021-02-28T12:53:12Z</time>
      </trkpt>
      <trkpt lat="45.02197" lon="6.49953">
        <ele>2571.6</ele>
        <time>2021-02-28T12:53:13Z</time>
      </trkpt>
      <trkpt lat="45.02197" lon="6.49953">
        <ele>2571.6</ele>
        <time>2021-02-28T12:53:14Z</time>
      </trkpt>
      <trkpt lat="45.02197" lon="6.49953">
        <ele>2571.6</ele>
        <time>2021-02-28T12:53:15Z</time>
      </trkpt>
      <trkpt lat="45.02197" lon="6.49953">
        <ele>2571.6</ele>
        <time>2021-02-28T12:53:16Z</time>
      </trkpt>
      <trkpt lat="45.02197" lon="6.49953">
        <ele>2571.6</ele>
        <time>2021-02-28T12:53:17Z</time>
      </trkpt>
      <trkpt lat="45.02197" lon="6.49953">
        <ele>2571.4</ele>
        <time>2021-02-28T12:53:18Z</time>
      </trkpt>
      <trkpt lat="45.02197" lon="6.49953">
        <ele>2571.2</ele>
        <time>2021-02-28T12:53:19Z</time>
      </trkpt>
      <trkpt lat="45.02197" lon="6.49953">
        <ele>2571.4</ele>
        <time>2021-02-28T12:53:20Z</time>
      </trkpt>
      <trkpt lat="45.02197" lon="6.49953">
        <ele>2571.6</ele>
        <time>2021-02-28T12:53:21Z</time>
      </trkpt>
      <trkpt lat="45.02197" lon="6.49953">
        <ele>2571.4</ele>
        <time>2021-02-28T12:53:22Z</time>
      </trkpt>
      <trkpt lat="45.02197" lon="6.49953">
        <ele>2571.4</ele>
        <time>2021-02-28T12:53:23Z</time>
      </trkpt>
      <trkpt lat="45.02197" lon="6.49953">
        <ele>2571.4</ele>
        <time>2021-02-28T12:53:24Z</time>
      </trkpt>
      <trkpt lat="45.02197" lon="6.49953">
        <ele>2571.2</ele>
        <time>2021-02-28T12:53:25Z</time>
      </trkpt>
      <trkpt lat="45.02197" lon="6.49953">
        <ele>2571.4</ele>
        <time>2021-02-28T12:53:26Z</time>
      </trkpt>
      <trkpt lat="45.02197" lon="6.49953">
        <ele>2571.4</ele>
        <time>2021-02-28T12:53:27Z</time>
      </trkpt>
      <trkpt lat="45.02197" lon="6.49953">
        <ele>2571.2</ele>
        <time>2021-02-28T12:53:28Z</time>
      </trkpt>
      <trkpt lat="45.02197" lon="6.49953">
        <ele>2571.2</ele>
        <time>2021-02-28T12:53:29Z</time>
      </trkpt>
      <trkpt lat="45.02197" lon="6.49953">
        <ele>2571</ele>
        <time>2021-02-28T12:53:30Z</time>
      </trkpt>
      <trkpt lat="45.02197" lon="6.49953">
        <ele>2570.8</ele>
        <time>2021-02-28T12:53:31Z</time>
      </trkpt>
      <trkpt lat="45.02197" lon="6.49953">
        <ele>2571</ele>
        <time>2021-02-28T12:53:32Z</time>
      </trkpt>
      <trkpt lat="45.02197" lon="6.49953">
        <ele>2570.8</ele>
        <time>2021-02-28T12:53:33Z</time>
      </trkpt>
      <trkpt lat="45.02197" lon="6.49953">
        <ele>2571.2</ele>
        <time>2021-02-28T12:53:34Z</time>
      </trkpt>
      <trkpt lat="45.02197" lon="6.49953">
        <ele>2571</ele>
        <time>2021-02-28T12:53:35Z</time>
      </trkpt>
      <trkpt lat="45.02197" lon="6.49953">
        <ele>2571</ele>
        <time>2021-02-28T12:53:36Z</time>
      </trkpt>
      <trkpt lat="45.02197" lon="6.49953">
        <ele>2570.8</ele>
        <time>2021-02-28T12:53:37Z</time>
      </trkpt>
      <trkpt lat="45.02197" lon="6.49953">
        <ele>2570.8</ele>
        <time>2021-02-28T12:53:38Z</time>
      </trkpt>
      <trkpt lat="45.02197" lon="6.49953">
        <ele>2570.6</ele>
        <time>2021-02-28T12:53:39Z</time>
      </trkpt>
      <trkpt lat="45.02197" lon="6.49953">
        <ele>2570.6</ele>
        <time>2021-02-28T12:53:40Z</time>
      </trkpt>
      <trkpt lat="45.02197" lon="6.49953">
        <ele>2570.6</ele>
        <time>2021-02-28T12:53:41Z</time>
      </trkpt>
      <trkpt lat="45.02197" lon="6.49953">
        <ele>2570.8</ele>
        <time>2021-02-28T12:53:42Z</time>
      </trkpt>
      <trkpt lat="45.02197" lon="6.49953">
        <ele>2570.8</ele>
        <time>2021-02-28T12:53:43Z</time>
      </trkpt>
      <trkpt lat="45.02197" lon="6.49953">
        <ele>2570.8</ele>
        <time>2021-02-28T12:53:44Z</time>
      </trkpt>
      <trkpt lat="45.02197" lon="6.49953">
        <ele>2571</ele>
        <time>2021-02-28T12:53:45Z</time>
      </trkpt>
      <trkpt lat="45.02197" lon="6.49953">
        <ele>2570.8</ele>
        <time>2021-02-28T12:53:46Z</time>
      </trkpt>
      <trkpt lat="45.02197" lon="6.49953">
        <ele>2570.8</ele>
        <time>2021-02-28T12:53:47Z</time>
      </trkpt>
      <trkpt lat="45.02197" lon="6.49953">
        <ele>2570.6</ele>
        <time>2021-02-28T12:53:48Z</time>
      </trkpt>
      <trkpt lat="45.02197" lon="6.49953">
        <ele>2570.4</ele>
        <time>2021-02-28T12:53:49Z</time>
      </trkpt>
      <trkpt lat="45.02197" lon="6.49953">
        <ele>2570.4</ele>
        <time>2021-02-28T12:53:50Z</time>
      </trkpt>
      <trkpt lat="45.02197" lon="6.49953">
        <ele>2570.4</ele>
        <time>2021-02-28T12:53:51Z</time>
      </trkpt>
      <trkpt lat="45.02197" lon="6.49953">
        <ele>2570.4</ele>
        <time>2021-02-28T12:53:52Z</time>
      </trkpt>
      <trkpt lat="45.02197" lon="6.49953">
        <ele>2570.6</ele>
        <time>2021-02-28T12:53:53Z</time>
      </trkpt>
      <trkpt lat="45.02197" lon="6.49953">
        <ele>2570.6</ele>
        <time>2021-02-28T12:53:54Z</time>
      </trkpt>
      <trkpt lat="45.02197" lon="6.49953">
        <ele>2570.8</ele>
        <time>2021-02-28T12:53:55Z</time>
      </trkpt>
      <trkpt lat="45.02197" lon="6.49953">
        <ele>2570.6</ele>
        <time>2021-02-28T12:53:56Z</time>
      </trkpt>
      <trkpt lat="45.02197" lon="6.49953">
        <ele>2570.4</ele>
        <time>2021-02-28T12:53:57Z</time>
      </trkpt>
      <trkpt lat="45.02197" lon="6.49949">
        <ele>2570.2</ele>
        <time>2021-02-28T12:53:58Z</time>
      </trkpt>
      <trkpt lat="45.02197" lon="6.49949">
        <ele>2570.2</ele>
        <time>2021-02-28T12:53:59Z</time>
      </trkpt>
      <trkpt lat="45.02197" lon="6.49947">
        <ele>2569.6</ele>
        <time>2021-02-28T12:54:00Z</time>
      </trkpt>
      <trkpt lat="45.02197" lon="6.49947">
        <ele>2569.6</ele>
        <time>2021-02-28T12:54:01Z</time>
      </trkpt>
      <trkpt lat="45.02198" lon="6.49944">
        <ele>2569.8</ele>
        <time>2021-02-28T12:54:02Z</time>
      </trkpt>
      <trkpt lat="45.02198" lon="6.49944">
        <ele>2569.4</ele>
        <time>2021-02-28T12:54:03Z</time>
      </trkpt>
      <trkpt lat="45.02198" lon="6.49944">
        <ele>2569.8</ele>
        <time>2021-02-28T12:54:04Z</time>
      </trkpt>
      <trkpt lat="45.02198" lon="6.4994">
        <ele>2570.2</ele>
        <time>2021-02-28T12:54:05Z</time>
      </trkpt>
      <trkpt lat="45.02198" lon="6.4994">
        <ele>2570</ele>
        <time>2021-02-28T12:54:06Z</time>
      </trkpt>
      <trkpt lat="45.02199" lon="6.49937">
        <ele>2570.4</ele>
        <time>2021-02-28T12:54:07Z</time>
      </trkpt>
      <trkpt lat="45.02199" lon="6.49937">
        <ele>2570.8</ele>
        <time>2021-02-28T12:54:08Z</time>
      </trkpt>
      <trkpt lat="45.022" lon="6.49935">
        <ele>2570.4</ele>
        <time>2021-02-28T12:54:09Z</time>
      </trkpt>
      <trkpt lat="45.022" lon="6.49935">
        <ele>2570.8</ele>
        <time>2021-02-28T12:54:10Z</time>
      </trkpt>
      <trkpt lat="45.022" lon="6.49935">
        <ele>2570.4</ele>
        <time>2021-02-28T12:54:11Z</time>
      </trkpt>
      <trkpt lat="45.02201" lon="6.49931">
        <ele>2570.2</ele>
        <time>2021-02-28T12:54:12Z</time>
      </trkpt>
      <trkpt lat="45.02201" lon="6.49931">
        <ele>2570.8</ele>
        <time>2021-02-28T12:54:13Z</time>
      </trkpt>
      <trkpt lat="45.02201" lon="6.49928">
        <ele>2570.4</ele>
        <time>2021-02-28T12:54:14Z</time>
      </trkpt>
      <trkpt lat="45.02201" lon="6.49928">
        <ele>2571</ele>
        <time>2021-02-28T12:54:15Z</time>
      </trkpt>
      <trkpt lat="45.02202" lon="6.49926">
        <ele>2571.4</ele>
        <time>2021-02-28T12:54:16Z</time>
      </trkpt>
      <trkpt lat="45.02202" lon="6.49926">
        <ele>2571.4</ele>
        <time>2021-02-28T12:54:17Z</time>
      </trkpt>
      <trkpt lat="45.02203" lon="6.49923">
        <ele>2571.6</ele>
        <time>2021-02-28T12:54:18Z</time>
      </trkpt>
      <trkpt lat="45.02203" lon="6.49923">
        <ele>2572</ele>
        <time>2021-02-28T12:54:19Z</time>
      </trkpt>
      <trkpt lat="45.02203" lon="6.49923">
        <ele>2572</ele>
        <time>2021-02-28T12:54:20Z</time>
      </trkpt>
      <trkpt lat="45.02205" lon="6.4992">
        <ele>2572</ele>
        <time>2021-02-28T12:54:21Z</time>
      </trkpt>
      <trkpt lat="45.02205" lon="6.4992">
        <ele>2572.2</ele>
        <time>2021-02-28T12:54:22Z</time>
      </trkpt>
      <trkpt lat="45.02205" lon="6.4992">
        <ele>2572.6</ele>
        <time>2021-02-28T12:54:23Z</time>
      </trkpt>
      <trkpt lat="45.02206" lon="6.49917">
        <ele>2572.4</ele>
        <time>2021-02-28T12:54:24Z</time>
      </trkpt>
      <trkpt lat="45.02206" lon="6.49917">
        <ele>2573</ele>
        <time>2021-02-28T12:54:25Z</time>
      </trkpt>
      <trkpt lat="45.02206" lon="6.49917">
        <ele>2573.2</ele>
        <time>2021-02-28T12:54:26Z</time>
      </trkpt>
      <trkpt lat="45.02207" lon="6.49914">
        <ele>2573.6</ele>
        <time>2021-02-28T12:54:27Z</time>
      </trkpt>
      <trkpt lat="45.02207" lon="6.49914">
        <ele>2573.8</ele>
        <time>2021-02-28T12:54:28Z</time>
      </trkpt>
      <trkpt lat="45.02207" lon="6.49914">
        <ele>2574</ele>
        <time>2021-02-28T12:54:29Z</time>
      </trkpt>
      <trkpt lat="45.02208" lon="6.49911">
        <ele>2574.2</ele>
        <time>2021-02-28T12:54:30Z</time>
      </trkpt>
      <trkpt lat="45.02208" lon="6.49911">
        <ele>2573.8</ele>
        <time>2021-02-28T12:54:31Z</time>
      </trkpt>
      <trkpt lat="45.02208" lon="6.49911">
        <ele>2574.2</ele>
        <time>2021-02-28T12:54:32Z</time>
      </trkpt>
      <trkpt lat="45.0221" lon="6.49908">
        <ele>2574.4</ele>
        <time>2021-02-28T12:54:33Z</time>
      </trkpt>
      <trkpt lat="45.0221" lon="6.49908">
        <ele>2574.8</ele>
        <time>2021-02-28T12:54:34Z</time>
      </trkpt>
      <trkpt lat="45.0221" lon="6.49908">
        <ele>2574.6</ele>
        <time>2021-02-28T12:54:35Z</time>
      </trkpt>
      <trkpt lat="45.02211" lon="6.49905">
        <ele>2574.8</ele>
        <time>2021-02-28T12:54:36Z</time>
      </trkpt>
      <trkpt lat="45.02211" lon="6.49905">
        <ele>2575.6</ele>
        <time>2021-02-28T12:54:37Z</time>
      </trkpt>
      <trkpt lat="45.02211" lon="6.49905">
        <ele>2575.2</ele>
        <time>2021-02-28T12:54:38Z</time>
      </trkpt>
      <trkpt lat="45.02211" lon="6.49903">
        <ele>2575.2</ele>
        <time>2021-02-28T12:54:39Z</time>
      </trkpt>
      <trkpt lat="45.02211" lon="6.49903">
        <ele>2576</ele>
        <time>2021-02-28T12:54:40Z</time>
      </trkpt>
      <trkpt lat="45.02211" lon="6.49903">
        <ele>2576.2</ele>
        <time>2021-02-28T12:54:41Z</time>
      </trkpt>
      <trkpt lat="45.02213" lon="6.499">
        <ele>2576.2</ele>
        <time>2021-02-28T12:54:42Z</time>
      </trkpt>
      <trkpt lat="45.02213" lon="6.499">
        <ele>2576.8</ele>
        <time>2021-02-28T12:54:43Z</time>
      </trkpt>
      <trkpt lat="45.02214" lon="6.49898">
        <ele>2576.2</ele>
        <time>2021-02-28T12:54:44Z</time>
      </trkpt>
      <trkpt lat="45.02214" lon="6.49898">
        <ele>2576.6</ele>
        <time>2021-02-28T12:54:45Z</time>
      </trkpt>
      <trkpt lat="45.02214" lon="6.49898">
        <ele>2577.2</ele>
        <time>2021-02-28T12:54:46Z</time>
      </trkpt>
      <trkpt lat="45.02216" lon="6.49896">
        <ele>2577.4</ele>
        <time>2021-02-28T12:54:47Z</time>
      </trkpt>
      <trkpt lat="45.02216" lon="6.49896">
        <ele>2577.8</ele>
        <time>2021-02-28T12:54:48Z</time>
      </trkpt>
      <trkpt lat="45.02216" lon="6.49896">
        <ele>2577.8</ele>
        <time>2021-02-28T12:54:49Z</time>
      </trkpt>
      <trkpt lat="45.02216" lon="6.49895">
        <ele>2578.4</ele>
        <time>2021-02-28T12:54:50Z</time>
      </trkpt>
      <trkpt lat="45.02216" lon="6.49894">
        <ele>2578.4</ele>
        <time>2021-02-28T12:54:51Z</time>
      </trkpt>
      <trkpt lat="45.02216" lon="6.49893">
        <ele>2578.4</ele>
        <time>2021-02-28T12:54:52Z</time>
      </trkpt>
      <trkpt lat="45.02217" lon="6.49892">
        <ele>2578.8</ele>
        <time>2021-02-28T12:54:53Z</time>
      </trkpt>
      <trkpt lat="45.02217" lon="6.49891">
        <ele>2578.4</ele>
        <time>2021-02-28T12:54:54Z</time>
      </trkpt>
      <trkpt lat="45.02217" lon="6.4989">
        <ele>2578.6</ele>
        <time>2021-02-28T12:54:55Z</time>
      </trkpt>
      <trkpt lat="45.02217" lon="6.49889">
        <ele>2579</ele>
        <time>2021-02-28T12:54:56Z</time>
      </trkpt>
      <trkpt lat="45.02218" lon="6.49888">
        <ele>2579.2</ele>
        <time>2021-02-28T12:54:57Z</time>
      </trkpt>
      <trkpt lat="45.02218" lon="6.49887">
        <ele>2579.6</ele>
        <time>2021-02-28T12:54:58Z</time>
      </trkpt>
      <trkpt lat="45.02218" lon="6.49886">
        <ele>2579.6</ele>
        <time>2021-02-28T12:54:59Z</time>
      </trkpt>
      <trkpt lat="45.02219" lon="6.49883">
        <ele>2580</ele>
        <time>2021-02-28T12:55:00Z</time>
      </trkpt>
      <trkpt lat="45.02219" lon="6.49883">
        <ele>2580.2</ele>
        <time>2021-02-28T12:55:01Z</time>
      </trkpt>
      <trkpt lat="45.02219" lon="6.4988">
        <ele>2579.6</ele>
        <time>2021-02-28T12:55:02Z</time>
      </trkpt>
      <trkpt lat="45.02219" lon="6.4988">
        <ele>2579.8</ele>
        <time>2021-02-28T12:55:03Z</time>
      </trkpt>
      <trkpt lat="45.02219" lon="6.4988">
        <ele>2580</ele>
        <time>2021-02-28T12:55:04Z</time>
      </trkpt>
      <trkpt lat="45.0222" lon="6.49877">
        <ele>2580.2</ele>
        <time>2021-02-28T12:55:05Z</time>
      </trkpt>
      <trkpt lat="45.0222" lon="6.49877">
        <ele>2580.2</ele>
        <time>2021-02-28T12:55:06Z</time>
      </trkpt>
      <trkpt lat="45.0222" lon="6.49877">
        <ele>2580.6</ele>
        <time>2021-02-28T12:55:07Z</time>
      </trkpt>
      <trkpt lat="45.02221" lon="6.49874">
        <ele>2580.4</ele>
        <time>2021-02-28T12:55:08Z</time>
      </trkpt>
      <trkpt lat="45.02221" lon="6.49874">
        <ele>2580.6</ele>
        <time>2021-02-28T12:55:09Z</time>
      </trkpt>
      <trkpt lat="45.02221" lon="6.49874">
        <ele>2581.2</ele>
        <time>2021-02-28T12:55:10Z</time>
      </trkpt>
      <trkpt lat="45.02221" lon="6.4987">
        <ele>2581.4</ele>
        <time>2021-02-28T12:55:11Z</time>
      </trkpt>
      <trkpt lat="45.02221" lon="6.4987">
        <ele>2581.4</ele>
        <time>2021-02-28T12:55:12Z</time>
      </trkpt>
      <trkpt lat="45.02221" lon="6.4987">
        <ele>2582</ele>
        <time>2021-02-28T12:55:13Z</time>
      </trkpt>
      <trkpt lat="45.02222" lon="6.49867">
        <ele>2581.4</ele>
        <time>2021-02-28T12:55:14Z</time>
      </trkpt>
      <trkpt lat="45.02222" lon="6.49867">
        <ele>2581.4</ele>
        <time>2021-02-28T12:55:15Z</time>
      </trkpt>
      <trkpt lat="45.02222" lon="6.49867">
        <ele>2582</ele>
        <time>2021-02-28T12:55:16Z</time>
      </trkpt>
      <trkpt lat="45.02223" lon="6.49865">
        <ele>2581.6</ele>
        <time>2021-02-28T12:55:17Z</time>
      </trkpt>
      <trkpt lat="45.02223" lon="6.49865">
        <ele>2581.6</ele>
        <time>2021-02-28T12:55:18Z</time>
      </trkpt>
      <trkpt lat="45.02223" lon="6.49865">
        <ele>2582.4</ele>
        <time>2021-02-28T12:55:19Z</time>
      </trkpt>
      <trkpt lat="45.02223" lon="6.49865">
        <ele>2582.8</ele>
        <time>2021-02-28T12:55:20Z</time>
      </trkpt>
      <trkpt lat="45.02223" lon="6.49865">
        <ele>2582.8</ele>
        <time>2021-02-28T12:55:21Z</time>
      </trkpt>
      <trkpt lat="45.02223" lon="6.49865">
        <ele>2583.4</ele>
        <time>2021-02-28T12:55:22Z</time>
      </trkpt>
      <trkpt lat="45.02223" lon="6.49865">
        <ele>2583.8</ele>
        <time>2021-02-28T12:55:23Z</time>
      </trkpt>
      <trkpt lat="45.02223" lon="6.49865">
        <ele>2583.6</ele>
        <time>2021-02-28T12:55:24Z</time>
      </trkpt>
      <trkpt lat="45.02223" lon="6.49865">
        <ele>2583.6</ele>
        <time>2021-02-28T12:55:25Z</time>
      </trkpt>
      <trkpt lat="45.02223" lon="6.49865">
        <ele>2583.2</ele>
        <time>2021-02-28T12:55:26Z</time>
      </trkpt>
      <trkpt lat="45.02223" lon="6.49865">
        <ele>2583.6</ele>
        <time>2021-02-28T12:55:27Z</time>
      </trkpt>
      <trkpt lat="45.02223" lon="6.49865">
        <ele>2583</ele>
        <time>2021-02-28T12:55:28Z</time>
      </trkpt>
      <trkpt lat="45.02221" lon="6.49864">
        <ele>2583.4</ele>
        <time>2021-02-28T12:55:29Z</time>
      </trkpt>
      <trkpt lat="45.02221" lon="6.49864">
        <ele>2583.4</ele>
        <time>2021-02-28T12:55:30Z</time>
      </trkpt>
      <trkpt lat="45.02221" lon="6.49864">
        <ele>2583.8</ele>
        <time>2021-02-28T12:55:31Z</time>
      </trkpt>
      <trkpt lat="45.02221" lon="6.49864">
        <ele>2583.6</ele>
        <time>2021-02-28T12:55:32Z</time>
      </trkpt>
      <trkpt lat="45.02219" lon="6.49865">
        <ele>2584</ele>
        <time>2021-02-28T12:55:33Z</time>
      </trkpt>
      <trkpt lat="45.02219" lon="6.49865">
        <ele>2584.2</ele>
        <time>2021-02-28T12:55:34Z</time>
      </trkpt>
      <trkpt lat="45.02219" lon="6.49865">
        <ele>2584.4</ele>
        <time>2021-02-28T12:55:35Z</time>
      </trkpt>
      <trkpt lat="45.02219" lon="6.49865">
        <ele>2584.4</ele>
        <time>2021-02-28T12:55:36Z</time>
      </trkpt>
      <trkpt lat="45.02217" lon="6.49867">
        <ele>2584.4</ele>
        <time>2021-02-28T12:55:37Z</time>
      </trkpt>
      <trkpt lat="45.02217" lon="6.49867">
        <ele>2585</ele>
        <time>2021-02-28T12:55:38Z</time>
      </trkpt>
      <trkpt lat="45.02217" lon="6.49867">
        <ele>2585</ele>
        <time>2021-02-28T12:55:39Z</time>
      </trkpt>
      <trkpt lat="45.02215" lon="6.49867">
        <ele>2585</ele>
        <time>2021-02-28T12:55:40Z</time>
      </trkpt>
      <trkpt lat="45.02215" lon="6.49867">
        <ele>2584.8</ele>
        <time>2021-02-28T12:55:41Z</time>
      </trkpt>
      <trkpt lat="45.02215" lon="6.49867">
        <ele>2585.2</ele>
        <time>2021-02-28T12:55:42Z</time>
      </trkpt>
      <trkpt lat="45.02215" lon="6.49867">
        <ele>2585.4</ele>
        <time>2021-02-28T12:55:43Z</time>
      </trkpt>
      <trkpt lat="45.02214" lon="6.49868">
        <ele>2585.8</ele>
        <time>2021-02-28T12:55:44Z</time>
      </trkpt>
      <trkpt lat="45.02214" lon="6.49868">
        <ele>2586</ele>
        <time>2021-02-28T12:55:45Z</time>
      </trkpt>
      <trkpt lat="45.02214" lon="6.49868">
        <ele>2586.2</ele>
        <time>2021-02-28T12:55:46Z</time>
      </trkpt>
      <trkpt lat="45.02214" lon="6.49868">
        <ele>2586.6</ele>
        <time>2021-02-28T12:55:47Z</time>
      </trkpt>
      <trkpt lat="45.02214" lon="6.49868">
        <ele>2586.6</ele>
        <time>2021-02-28T12:55:48Z</time>
      </trkpt>
      <trkpt lat="45.02211" lon="6.49869">
        <ele>2587</ele>
        <time>2021-02-28T12:55:49Z</time>
      </trkpt>
      <trkpt lat="45.02211" lon="6.49869">
        <ele>2586.8</ele>
        <time>2021-02-28T12:55:50Z</time>
      </trkpt>
      <trkpt lat="45.02211" lon="6.49869">
        <ele>2587</ele>
        <time>2021-02-28T12:55:51Z</time>
      </trkpt>
      <trkpt lat="45.02211" lon="6.49869">
        <ele>2587</ele>
        <time>2021-02-28T12:55:52Z</time>
      </trkpt>
      <trkpt lat="45.02209" lon="6.49869">
        <ele>2587.2</ele>
        <time>2021-02-28T12:55:53Z</time>
      </trkpt>
      <trkpt lat="45.02209" lon="6.49869">
        <ele>2587.6</ele>
        <time>2021-02-28T12:55:54Z</time>
      </trkpt>
      <trkpt lat="45.02209" lon="6.49869">
        <ele>2587.8</ele>
        <time>2021-02-28T12:55:55Z</time>
      </trkpt>
      <trkpt lat="45.02209" lon="6.49869">
        <ele>2588.2</ele>
        <time>2021-02-28T12:55:56Z</time>
      </trkpt>
      <trkpt lat="45.02209" lon="6.49869">
        <ele>2588.8</ele>
        <time>2021-02-28T12:55:57Z</time>
      </trkpt>
      <trkpt lat="45.02209" lon="6.49869">
        <ele>2589</ele>
        <time>2021-02-28T12:55:58Z</time>
      </trkpt>
      <trkpt lat="45.02209" lon="6.49869">
        <ele>2589.4</ele>
        <time>2021-02-28T12:55:59Z</time>
      </trkpt>
      <trkpt lat="45.02209" lon="6.49869">
        <ele>2589.4</ele>
        <time>2021-02-28T12:56:00Z</time>
      </trkpt>
      <trkpt lat="45.02208" lon="6.49872">
        <ele>2589</ele>
        <time>2021-02-28T12:56:01Z</time>
      </trkpt>
      <trkpt lat="45.02208" lon="6.49872">
        <ele>2588.8</ele>
        <time>2021-02-28T12:56:02Z</time>
      </trkpt>
      <trkpt lat="45.02208" lon="6.49872">
        <ele>2588.2</ele>
        <time>2021-02-28T12:56:03Z</time>
      </trkpt>
      <trkpt lat="45.02206" lon="6.49872">
        <ele>2588.6</ele>
        <time>2021-02-28T12:56:04Z</time>
      </trkpt>
      <trkpt lat="45.02206" lon="6.49872">
        <ele>2588.6</ele>
        <time>2021-02-28T12:56:05Z</time>
      </trkpt>
      <trkpt lat="45.02206" lon="6.49872">
        <ele>2589</ele>
        <time>2021-02-28T12:56:06Z</time>
      </trkpt>
      <trkpt lat="45.02206" lon="6.49872">
        <ele>2589</ele>
        <time>2021-02-28T12:56:07Z</time>
      </trkpt>
      <trkpt lat="45.02204" lon="6.49873">
        <ele>2589.2</ele>
        <time>2021-02-28T12:56:08Z</time>
      </trkpt>
      <trkpt lat="45.02204" lon="6.49873">
        <ele>2589.2</ele>
        <time>2021-02-28T12:56:09Z</time>
      </trkpt>
      <trkpt lat="45.02204" lon="6.49873">
        <ele>2589.6</ele>
        <time>2021-02-28T12:56:10Z</time>
      </trkpt>
      <trkpt lat="45.02204" lon="6.49873">
        <ele>2589.8</ele>
        <time>2021-02-28T12:56:11Z</time>
      </trkpt>
      <trkpt lat="45.02202" lon="6.49874">
        <ele>2590</ele>
        <time>2021-02-28T12:56:12Z</time>
      </trkpt>
      <trkpt lat="45.02202" lon="6.49874">
        <ele>2590.2</ele>
        <time>2021-02-28T12:56:13Z</time>
      </trkpt>
      <trkpt lat="45.02202" lon="6.49874">
        <ele>2590.6</ele>
        <time>2021-02-28T12:56:14Z</time>
      </trkpt>
      <trkpt lat="45.02202" lon="6.49874">
        <ele>2591</ele>
        <time>2021-02-28T12:56:15Z</time>
      </trkpt>
      <trkpt lat="45.022" lon="6.49874">
        <ele>2591</ele>
        <time>2021-02-28T12:56:16Z</time>
      </trkpt>
      <trkpt lat="45.022" lon="6.49874">
        <ele>2591.6</ele>
        <time>2021-02-28T12:56:17Z</time>
      </trkpt>
      <trkpt lat="45.022" lon="6.49874">
        <ele>2591.8</ele>
        <time>2021-02-28T12:56:18Z</time>
      </trkpt>
      <trkpt lat="45.022" lon="6.49874">
        <ele>2591.8</ele>
        <time>2021-02-28T12:56:19Z</time>
      </trkpt>
      <trkpt lat="45.022" lon="6.49874">
        <ele>2592.2</ele>
        <time>2021-02-28T12:56:20Z</time>
      </trkpt>
      <trkpt lat="45.022" lon="6.49871">
        <ele>2592.6</ele>
        <time>2021-02-28T12:56:21Z</time>
      </trkpt>
      <trkpt lat="45.022" lon="6.49871">
        <ele>2593</ele>
        <time>2021-02-28T12:56:22Z</time>
      </trkpt>
      <trkpt lat="45.022" lon="6.49871">
        <ele>2592.8</ele>
        <time>2021-02-28T12:56:23Z</time>
      </trkpt>
      <trkpt lat="45.02201" lon="6.49869">
        <ele>2593.2</ele>
        <time>2021-02-28T12:56:24Z</time>
      </trkpt>
      <trkpt lat="45.02201" lon="6.49869">
        <ele>2593.6</ele>
        <time>2021-02-28T12:56:25Z</time>
      </trkpt>
      <trkpt lat="45.02201" lon="6.49869">
        <ele>2594.6</ele>
        <time>2021-02-28T12:56:26Z</time>
      </trkpt>
      <trkpt lat="45.02202" lon="6.49866">
        <ele>2594.6</ele>
        <time>2021-02-28T12:56:27Z</time>
      </trkpt>
      <trkpt lat="45.02202" lon="6.49866">
        <ele>2595</ele>
        <time>2021-02-28T12:56:28Z</time>
      </trkpt>
      <trkpt lat="45.02202" lon="6.49866">
        <ele>2595</ele>
        <time>2021-02-28T12:56:29Z</time>
      </trkpt>
      <trkpt lat="45.02203" lon="6.49864">
        <ele>2595.4</ele>
        <time>2021-02-28T12:56:30Z</time>
      </trkpt>
      <trkpt lat="45.02203" lon="6.49864">
        <ele>2595.4</ele>
        <time>2021-02-28T12:56:31Z</time>
      </trkpt>
      <trkpt lat="45.02203" lon="6.49864">
        <ele>2595.6</ele>
        <time>2021-02-28T12:56:32Z</time>
      </trkpt>
      <trkpt lat="45.02203" lon="6.49864">
        <ele>2595.8</ele>
        <time>2021-02-28T12:56:33Z</time>
      </trkpt>
      <trkpt lat="45.02203" lon="6.49864">
        <ele>2596.2</ele>
        <time>2021-02-28T12:56:34Z</time>
      </trkpt>
      <trkpt lat="45.02203" lon="6.4986">
        <ele>2595.8</ele>
        <time>2021-02-28T12:56:35Z</time>
      </trkpt>
      <trkpt lat="45.02203" lon="6.4986">
        <ele>2596.4</ele>
        <time>2021-02-28T12:56:36Z</time>
      </trkpt>
      <trkpt lat="45.02203" lon="6.4986">
        <ele>2596.4</ele>
        <time>2021-02-28T12:56:37Z</time>
      </trkpt>
      <trkpt lat="45.02204" lon="6.49857">
        <ele>2597</ele>
        <time>2021-02-28T12:56:38Z</time>
      </trkpt>
      <trkpt lat="45.02204" lon="6.49857">
        <ele>2597</ele>
        <time>2021-02-28T12:56:39Z</time>
      </trkpt>
      <trkpt lat="45.02204" lon="6.49857">
        <ele>2597.6</ele>
        <time>2021-02-28T12:56:40Z</time>
      </trkpt>
      <trkpt lat="45.02206" lon="6.49855">
        <ele>2597.8</ele>
        <time>2021-02-28T12:56:41Z</time>
      </trkpt>
      <trkpt lat="45.02206" lon="6.49855">
        <ele>2598</ele>
        <time>2021-02-28T12:56:42Z</time>
      </trkpt>
      <trkpt lat="45.02206" lon="6.49855">
        <ele>2598.4</ele>
        <time>2021-02-28T12:56:43Z</time>
      </trkpt>
      <trkpt lat="45.02206" lon="6.49855">
        <ele>2599</ele>
        <time>2021-02-28T12:56:44Z</time>
      </trkpt>
      <trkpt lat="45.02207" lon="6.49852">
        <ele>2597.8</ele>
        <time>2021-02-28T12:56:45Z</time>
      </trkpt>
      <trkpt lat="45.02207" lon="6.49852">
        <ele>2598.4</ele>
        <time>2021-02-28T12:56:46Z</time>
      </trkpt>
      <trkpt lat="45.02207" lon="6.49852">
        <ele>2598.8</ele>
        <time>2021-02-28T12:56:47Z</time>
      </trkpt>
      <trkpt lat="45.02208" lon="6.49851">
        <ele>2599.2</ele>
        <time>2021-02-28T12:56:48Z</time>
      </trkpt>
      <trkpt lat="45.02208" lon="6.49851">
        <ele>2599</ele>
        <time>2021-02-28T12:56:49Z</time>
      </trkpt>
      <trkpt lat="45.02208" lon="6.49851">
        <ele>2599.4</ele>
        <time>2021-02-28T12:56:50Z</time>
      </trkpt>
      <trkpt lat="45.02208" lon="6.49851">
        <ele>2599.8</ele>
        <time>2021-02-28T12:56:51Z</time>
      </trkpt>
      <trkpt lat="45.02208" lon="6.49851">
        <ele>2599.8</ele>
        <time>2021-02-28T12:56:52Z</time>
      </trkpt>
      <trkpt lat="45.02208" lon="6.49851">
        <ele>2600.2</ele>
        <time>2021-02-28T12:56:53Z</time>
      </trkpt>
      <trkpt lat="45.02208" lon="6.49851">
        <ele>2600.2</ele>
        <time>2021-02-28T12:56:54Z</time>
      </trkpt>
      <trkpt lat="45.02208" lon="6.49851">
        <ele>2600.2</ele>
        <time>2021-02-28T12:56:55Z</time>
      </trkpt>
      <trkpt lat="45.02208" lon="6.49851">
        <ele>2599.6</ele>
        <time>2021-02-28T12:56:56Z</time>
      </trkpt>
      <trkpt lat="45.02206" lon="6.49849">
        <ele>2599.4</ele>
        <time>2021-02-28T12:56:57Z</time>
      </trkpt>
      <trkpt lat="45.02206" lon="6.49849">
        <ele>2599.4</ele>
        <time>2021-02-28T12:56:58Z</time>
      </trkpt>
      <trkpt lat="45.02206" lon="6.49849">
        <ele>2599.8</ele>
        <time>2021-02-28T12:56:59Z</time>
      </trkpt>
      <trkpt lat="45.02206" lon="6.49849">
        <ele>2600</ele>
        <time>2021-02-28T12:57:00Z</time>
      </trkpt>
      <trkpt lat="45.02204" lon="6.49849">
        <ele>2599.8</ele>
        <time>2021-02-28T12:57:01Z</time>
      </trkpt>
      <trkpt lat="45.02204" lon="6.49849">
        <ele>2599.2</ele>
        <time>2021-02-28T12:57:02Z</time>
      </trkpt>
      <trkpt lat="45.02204" lon="6.49849">
        <ele>2599.8</ele>
        <time>2021-02-28T12:57:03Z</time>
      </trkpt>
      <trkpt lat="45.02204" lon="6.49849">
        <ele>2600.8</ele>
        <time>2021-02-28T12:57:04Z</time>
      </trkpt>
      <trkpt lat="45.02202" lon="6.49851">
        <ele>2600.8</ele>
        <time>2021-02-28T12:57:05Z</time>
      </trkpt>
      <trkpt lat="45.02202" lon="6.49851">
        <ele>2601.2</ele>
        <time>2021-02-28T12:57:06Z</time>
      </trkpt>
      <trkpt lat="45.02202" lon="6.49851">
        <ele>2601.4</ele>
        <time>2021-02-28T12:57:07Z</time>
      </trkpt>
      <trkpt lat="45.02202" lon="6.49851">
        <ele>2601.8</ele>
        <time>2021-02-28T12:57:08Z</time>
      </trkpt>
      <trkpt lat="45.02201" lon="6.49851">
        <ele>2602.4</ele>
        <time>2021-02-28T12:57:09Z</time>
      </trkpt>
      <trkpt lat="45.02201" lon="6.49851">
        <ele>2602.2</ele>
        <time>2021-02-28T12:57:10Z</time>
      </trkpt>
      <trkpt lat="45.02201" lon="6.49851">
        <ele>2602.4</ele>
        <time>2021-02-28T12:57:11Z</time>
      </trkpt>
      <trkpt lat="45.02199" lon="6.49851">
        <ele>2602.4</ele>
        <time>2021-02-28T12:57:12Z</time>
      </trkpt>
      <trkpt lat="45.02199" lon="6.49851">
        <ele>2603.2</ele>
        <time>2021-02-28T12:57:13Z</time>
      </trkpt>
      <trkpt lat="45.02199" lon="6.49851">
        <ele>2603</ele>
        <time>2021-02-28T12:57:14Z</time>
      </trkpt>
      <trkpt lat="45.02199" lon="6.49851">
        <ele>2603.4</ele>
        <time>2021-02-28T12:57:15Z</time>
      </trkpt>
      <trkpt lat="45.02197" lon="6.49852">
        <ele>2603.6</ele>
        <time>2021-02-28T12:57:16Z</time>
      </trkpt>
      <trkpt lat="45.02197" lon="6.49852">
        <ele>2603.6</ele>
        <time>2021-02-28T12:57:17Z</time>
      </trkpt>
      <trkpt lat="45.02197" lon="6.49852">
        <ele>2603.6</ele>
        <time>2021-02-28T12:57:18Z</time>
      </trkpt>
      <trkpt lat="45.02195" lon="6.49852">
        <ele>2603.8</ele>
        <time>2021-02-28T12:57:19Z</time>
      </trkpt>
      <trkpt lat="45.02195" lon="6.49852">
        <ele>2604.6</ele>
        <time>2021-02-28T12:57:20Z</time>
      </trkpt>
      <trkpt lat="45.02195" lon="6.49852">
        <ele>2604.8</ele>
        <time>2021-02-28T12:57:21Z</time>
      </trkpt>
      <trkpt lat="45.02192" lon="6.49852">
        <ele>2605.2</ele>
        <time>2021-02-28T12:57:22Z</time>
      </trkpt>
      <trkpt lat="45.02192" lon="6.49852">
        <ele>2605.4</ele>
        <time>2021-02-28T12:57:23Z</time>
      </trkpt>
      <trkpt lat="45.02192" lon="6.49852">
        <ele>2605</ele>
        <time>2021-02-28T12:57:24Z</time>
      </trkpt>
      <trkpt lat="45.0219" lon="6.49853">
        <ele>2605.4</ele>
        <time>2021-02-28T12:57:25Z</time>
      </trkpt>
      <trkpt lat="45.0219" lon="6.49853">
        <ele>2605.4</ele>
        <time>2021-02-28T12:57:26Z</time>
      </trkpt>
      <trkpt lat="45.0219" lon="6.49853">
        <ele>2606</ele>
        <time>2021-02-28T12:57:27Z</time>
      </trkpt>
      <trkpt lat="45.02188" lon="6.49853">
        <ele>2605.8</ele>
        <time>2021-02-28T12:57:28Z</time>
      </trkpt>
      <trkpt lat="45.02188" lon="6.49853">
        <ele>2606.2</ele>
        <time>2021-02-28T12:57:29Z</time>
      </trkpt>
      <trkpt lat="45.02188" lon="6.49853">
        <ele>2606.6</ele>
        <time>2021-02-28T12:57:30Z</time>
      </trkpt>
      <trkpt lat="45.02186" lon="6.49854">
        <ele>2607.4</ele>
        <time>2021-02-28T12:57:31Z</time>
      </trkpt>
      <trkpt lat="45.02186" lon="6.49854">
        <ele>2607.4</ele>
        <time>2021-02-28T12:57:32Z</time>
      </trkpt>
      <trkpt lat="45.02186" lon="6.49854">
        <ele>2607.8</ele>
        <time>2021-02-28T12:57:33Z</time>
      </trkpt>
      <trkpt lat="45.02183" lon="6.49855">
        <ele>2607.6</ele>
        <time>2021-02-28T12:57:34Z</time>
      </trkpt>
      <trkpt lat="45.02183" lon="6.49855">
        <ele>2608.2</ele>
        <time>2021-02-28T12:57:35Z</time>
      </trkpt>
      <trkpt lat="45.02183" lon="6.49855">
        <ele>2608.4</ele>
        <time>2021-02-28T12:57:36Z</time>
      </trkpt>
      <trkpt lat="45.02181" lon="6.49856">
        <ele>2608.4</ele>
        <time>2021-02-28T12:57:37Z</time>
      </trkpt>
      <trkpt lat="45.02181" lon="6.49856">
        <ele>2609.2</ele>
        <time>2021-02-28T12:57:38Z</time>
      </trkpt>
      <trkpt lat="45.02181" lon="6.49856">
        <ele>2609.2</ele>
        <time>2021-02-28T12:57:39Z</time>
      </trkpt>
      <trkpt lat="45.02179" lon="6.49856">
        <ele>2609.4</ele>
        <time>2021-02-28T12:57:40Z</time>
      </trkpt>
      <trkpt lat="45.02179" lon="6.49856">
        <ele>2610.2</ele>
        <time>2021-02-28T12:57:41Z</time>
      </trkpt>
      <trkpt lat="45.02179" lon="6.49856">
        <ele>2610.2</ele>
        <time>2021-02-28T12:57:42Z</time>
      </trkpt>
      <trkpt lat="45.02177" lon="6.49857">
        <ele>2610.8</ele>
        <time>2021-02-28T12:57:43Z</time>
      </trkpt>
      <trkpt lat="45.02177" lon="6.49857">
        <ele>2610.8</ele>
        <time>2021-02-28T12:57:44Z</time>
      </trkpt>
      <trkpt lat="45.02177" lon="6.49857">
        <ele>2611</ele>
        <time>2021-02-28T12:57:45Z</time>
      </trkpt>
      <trkpt lat="45.02177" lon="6.49857">
        <ele>2611.6</ele>
        <time>2021-02-28T12:57:46Z</time>
      </trkpt>
      <trkpt lat="45.02177" lon="6.49857">
        <ele>2612.4</ele>
        <time>2021-02-28T12:57:47Z</time>
      </trkpt>
      <trkpt lat="45.02177" lon="6.49857">
        <ele>2612.8</ele>
        <time>2021-02-28T12:57:48Z</time>
      </trkpt>
      <trkpt lat="45.02177" lon="6.49857">
        <ele>2613.2</ele>
        <time>2021-02-28T12:57:49Z</time>
      </trkpt>
      <trkpt lat="45.02176" lon="6.49855">
        <ele>2613.6</ele>
        <time>2021-02-28T12:57:50Z</time>
      </trkpt>
      <trkpt lat="45.02176" lon="6.49855">
        <ele>2613.2</ele>
        <time>2021-02-28T12:57:51Z</time>
      </trkpt>
      <trkpt lat="45.02176" lon="6.49855">
        <ele>2613.6</ele>
        <time>2021-02-28T12:57:52Z</time>
      </trkpt>
      <trkpt lat="45.02176" lon="6.49852">
        <ele>2613.8</ele>
        <time>2021-02-28T12:57:53Z</time>
      </trkpt>
      <trkpt lat="45.02176" lon="6.49852">
        <ele>2614</ele>
        <time>2021-02-28T12:57:54Z</time>
      </trkpt>
      <trkpt lat="45.02176" lon="6.49852">
        <ele>2613.6</ele>
        <time>2021-02-28T12:57:55Z</time>
      </trkpt>
      <trkpt lat="45.02176" lon="6.49852">
        <ele>2614.2</ele>
        <time>2021-02-28T12:57:56Z</time>
      </trkpt>
      <trkpt lat="45.02177" lon="6.49849">
        <ele>2613.8</ele>
        <time>2021-02-28T12:57:57Z</time>
      </trkpt>
      <trkpt lat="45.02177" lon="6.49849">
        <ele>2614</ele>
        <time>2021-02-28T12:57:58Z</time>
      </trkpt>
      <trkpt lat="45.02177" lon="6.49849">
        <ele>2615</ele>
        <time>2021-02-28T12:57:59Z</time>
      </trkpt>
      <trkpt lat="45.02176" lon="6.49846">
        <ele>2615.4</ele>
        <time>2021-02-28T12:58:00Z</time>
      </trkpt>
      <trkpt lat="45.02176" lon="6.49846">
        <ele>2615.4</ele>
        <time>2021-02-28T12:58:01Z</time>
      </trkpt>
      <trkpt lat="45.02176" lon="6.49846">
        <ele>2616</ele>
        <time>2021-02-28T12:58:02Z</time>
      </trkpt>
      <trkpt lat="45.02176" lon="6.49843">
        <ele>2616.2</ele>
        <time>2021-02-28T12:58:03Z</time>
      </trkpt>
      <trkpt lat="45.02176" lon="6.49843">
        <ele>2616</ele>
        <time>2021-02-28T12:58:04Z</time>
      </trkpt>
      <trkpt lat="45.02176" lon="6.49843">
        <ele>2616.6</ele>
        <time>2021-02-28T12:58:05Z</time>
      </trkpt>
      <trkpt lat="45.02176" lon="6.4984">
        <ele>2616.8</ele>
        <time>2021-02-28T12:58:06Z</time>
      </trkpt>
      <trkpt lat="45.02176" lon="6.4984">
        <ele>2616.4</ele>
        <time>2021-02-28T12:58:07Z</time>
      </trkpt>
      <trkpt lat="45.02176" lon="6.4984">
        <ele>2616.8</ele>
        <time>2021-02-28T12:58:08Z</time>
      </trkpt>
      <trkpt lat="45.02177" lon="6.49837">
        <ele>2617</ele>
        <time>2021-02-28T12:58:09Z</time>
      </trkpt>
      <trkpt lat="45.02177" lon="6.49837">
        <ele>2617.4</ele>
        <time>2021-02-28T12:58:10Z</time>
      </trkpt>
      <trkpt lat="45.02177" lon="6.49837">
        <ele>2617.4</ele>
        <time>2021-02-28T12:58:11Z</time>
      </trkpt>
      <trkpt lat="45.02178" lon="6.49834">
        <ele>2618.2</ele>
        <time>2021-02-28T12:58:12Z</time>
      </trkpt>
      <trkpt lat="45.02178" lon="6.49834">
        <ele>2618.4</ele>
        <time>2021-02-28T12:58:13Z</time>
      </trkpt>
      <trkpt lat="45.02178" lon="6.49834">
        <ele>2619.4</ele>
        <time>2021-02-28T12:58:14Z</time>
      </trkpt>
      <trkpt lat="45.02179" lon="6.49832">
        <ele>2619.2</ele>
        <time>2021-02-28T12:58:15Z</time>
      </trkpt>
      <trkpt lat="45.02179" lon="6.49832">
        <ele>2619.4</ele>
        <time>2021-02-28T12:58:16Z</time>
      </trkpt>
      <trkpt lat="45.02179" lon="6.49832">
        <ele>2619.6</ele>
        <time>2021-02-28T12:58:17Z</time>
      </trkpt>
      <trkpt lat="45.02179" lon="6.49832">
        <ele>2619.6</ele>
        <time>2021-02-28T12:58:18Z</time>
      </trkpt>
      <trkpt lat="45.02179" lon="6.49828">
        <ele>2619.8</ele>
        <time>2021-02-28T12:58:19Z</time>
      </trkpt>
      <trkpt lat="45.02179" lon="6.49828">
        <ele>2619.8</ele>
        <time>2021-02-28T12:58:20Z</time>
      </trkpt>
      <trkpt lat="45.02179" lon="6.49828">
        <ele>2620.2</ele>
        <time>2021-02-28T12:58:21Z</time>
      </trkpt>
      <trkpt lat="45.0218" lon="6.49826">
        <ele>2620.4</ele>
        <time>2021-02-28T12:58:22Z</time>
      </trkpt>
      <trkpt lat="45.0218" lon="6.49826">
        <ele>2621</ele>
        <time>2021-02-28T12:58:23Z</time>
      </trkpt>
      <trkpt lat="45.0218" lon="6.49826">
        <ele>2621</ele>
        <time>2021-02-28T12:58:24Z</time>
      </trkpt>
      <trkpt lat="45.0218" lon="6.49826">
        <ele>2621.4</ele>
        <time>2021-02-28T12:58:25Z</time>
      </trkpt>
      <trkpt lat="45.02181" lon="6.49823">
        <ele>2622</ele>
        <time>2021-02-28T12:58:26Z</time>
      </trkpt>
      <trkpt lat="45.02181" lon="6.49823">
        <ele>2622</ele>
        <time>2021-02-28T12:58:27Z</time>
      </trkpt>
      <trkpt lat="45.02181" lon="6.49823">
        <ele>2621.8</ele>
        <time>2021-02-28T12:58:28Z</time>
      </trkpt>
      <trkpt lat="45.02181" lon="6.49823">
        <ele>2622.2</ele>
        <time>2021-02-28T12:58:29Z</time>
      </trkpt>
      <trkpt lat="45.02181" lon="6.49823">
        <ele>2622.4</ele>
        <time>2021-02-28T12:58:30Z</time>
      </trkpt>
      <trkpt lat="45.02181" lon="6.49823">
        <ele>2622.4</ele>
        <time>2021-02-28T12:58:31Z</time>
      </trkpt>
      <trkpt lat="45.02179" lon="6.49822">
        <ele>2622</ele>
        <time>2021-02-28T12:58:32Z</time>
      </trkpt>
      <trkpt lat="45.02179" lon="6.49822">
        <ele>2622.2</ele>
        <time>2021-02-28T12:58:33Z</time>
      </trkpt>
      <trkpt lat="45.02179" lon="6.49822">
        <ele>2621.8</ele>
        <time>2021-02-28T12:58:34Z</time>
      </trkpt>
      <trkpt lat="45.02179" lon="6.49822">
        <ele>2621.6</ele>
        <time>2021-02-28T12:58:35Z</time>
      </trkpt>
      <trkpt lat="45.02176" lon="6.49822">
        <ele>2622</ele>
        <time>2021-02-28T12:58:36Z</time>
      </trkpt>
      <trkpt lat="45.02176" lon="6.49822">
        <ele>2622</ele>
        <time>2021-02-28T12:58:37Z</time>
      </trkpt>
      <trkpt lat="45.02176" lon="6.49822">
        <ele>2622.2</ele>
        <time>2021-02-28T12:58:38Z</time>
      </trkpt>
      <trkpt lat="45.02175" lon="6.49823">
        <ele>2622.4</ele>
        <time>2021-02-28T12:58:39Z</time>
      </trkpt>
      <trkpt lat="45.02175" lon="6.49823">
        <ele>2622.4</ele>
        <time>2021-02-28T12:58:40Z</time>
      </trkpt>
      <trkpt lat="45.02175" lon="6.49823">
        <ele>2623.2</ele>
        <time>2021-02-28T12:58:41Z</time>
      </trkpt>
      <trkpt lat="45.02172" lon="6.49824">
        <ele>2623.2</ele>
        <time>2021-02-28T12:58:42Z</time>
      </trkpt>
      <trkpt lat="45.02172" lon="6.49824">
        <ele>2623.8</ele>
        <time>2021-02-28T12:58:43Z</time>
      </trkpt>
      <trkpt lat="45.02172" lon="6.49824">
        <ele>2623.8</ele>
        <time>2021-02-28T12:58:44Z</time>
      </trkpt>
      <trkpt lat="45.02171" lon="6.49825">
        <ele>2623.6</ele>
        <time>2021-02-28T12:58:45Z</time>
      </trkpt>
      <trkpt lat="45.02171" lon="6.49825">
        <ele>2624.4</ele>
        <time>2021-02-28T12:58:46Z</time>
      </trkpt>
      <trkpt lat="45.02171" lon="6.49825">
        <ele>2624.6</ele>
        <time>2021-02-28T12:58:47Z</time>
      </trkpt>
      <trkpt lat="45.02168" lon="6.49826">
        <ele>2624.8</ele>
        <time>2021-02-28T12:58:48Z</time>
      </trkpt>
      <trkpt lat="45.02168" lon="6.49826">
        <ele>2625</ele>
        <time>2021-02-28T12:58:49Z</time>
      </trkpt>
      <trkpt lat="45.02168" lon="6.49826">
        <ele>2625.2</ele>
        <time>2021-02-28T12:58:50Z</time>
      </trkpt>
      <trkpt lat="45.02168" lon="6.49826">
        <ele>2625.6</ele>
        <time>2021-02-28T12:58:51Z</time>
      </trkpt>
      <trkpt lat="45.02168" lon="6.49826">
        <ele>2625.6</ele>
        <time>2021-02-28T12:58:52Z</time>
      </trkpt>
      <trkpt lat="45.02168" lon="6.49826">
        <ele>2625.6</ele>
        <time>2021-02-28T12:58:53Z</time>
      </trkpt>
      <trkpt lat="45.02168" lon="6.49826">
        <ele>2625.8</ele>
        <time>2021-02-28T12:58:54Z</time>
      </trkpt>
      <trkpt lat="45.02166" lon="6.49827">
        <ele>2626.4</ele>
        <time>2021-02-28T12:58:55Z</time>
      </trkpt>
      <trkpt lat="45.02166" lon="6.49827">
        <ele>2626.6</ele>
        <time>2021-02-28T12:58:56Z</time>
      </trkpt>
      <trkpt lat="45.02166" lon="6.49827">
        <ele>2626.6</ele>
        <time>2021-02-28T12:58:57Z</time>
      </trkpt>
      <trkpt lat="45.02164" lon="6.49827">
        <ele>2626.8</ele>
        <time>2021-02-28T12:58:58Z</time>
      </trkpt>
      <trkpt lat="45.02164" lon="6.49827">
        <ele>2626.8</ele>
        <time>2021-02-28T12:58:59Z</time>
      </trkpt>
      <trkpt lat="45.02164" lon="6.49827">
        <ele>2627.4</ele>
        <time>2021-02-28T12:59:00Z</time>
      </trkpt>
      <trkpt lat="45.02164" lon="6.49827">
        <ele>2627.8</ele>
        <time>2021-02-28T12:59:01Z</time>
      </trkpt>
      <trkpt lat="45.02164" lon="6.49827">
        <ele>2628.2</ele>
        <time>2021-02-28T12:59:02Z</time>
      </trkpt>
      <trkpt lat="45.02163" lon="6.49825">
        <ele>2628.2</ele>
        <time>2021-02-28T12:59:03Z</time>
      </trkpt>
      <trkpt lat="45.02163" lon="6.49825">
        <ele>2628.4</ele>
        <time>2021-02-28T12:59:04Z</time>
      </trkpt>
      <trkpt lat="45.02163" lon="6.49825">
        <ele>2628.4</ele>
        <time>2021-02-28T12:59:05Z</time>
      </trkpt>
      <trkpt lat="45.02163" lon="6.49825">
        <ele>2628.4</ele>
        <time>2021-02-28T12:59:06Z</time>
      </trkpt>
      <trkpt lat="45.02163" lon="6.49825">
        <ele>2627.6</ele>
        <time>2021-02-28T12:59:07Z</time>
      </trkpt>
      <trkpt lat="45.02163" lon="6.49825">
        <ele>2628.8</ele>
        <time>2021-02-28T12:59:08Z</time>
      </trkpt>
      <trkpt lat="45.02162" lon="6.49822">
        <ele>2629</ele>
        <time>2021-02-28T12:59:09Z</time>
      </trkpt>
      <trkpt lat="45.02162" lon="6.49822">
        <ele>2629.6</ele>
        <time>2021-02-28T12:59:10Z</time>
      </trkpt>
      <trkpt lat="45.02162" lon="6.49822">
        <ele>2629.4</ele>
        <time>2021-02-28T12:59:11Z</time>
      </trkpt>
      <trkpt lat="45.02162" lon="6.49822">
        <ele>2630.2</ele>
        <time>2021-02-28T12:59:12Z</time>
      </trkpt>
      <trkpt lat="45.02162" lon="6.49822">
        <ele>2630.2</ele>
        <time>2021-02-28T12:59:13Z</time>
      </trkpt>
      <trkpt lat="45.02162" lon="6.49822">
        <ele>2630</ele>
        <time>2021-02-28T12:59:14Z</time>
      </trkpt>
      <trkpt lat="45.02161" lon="6.49821">
        <ele>2630.8</ele>
        <time>2021-02-28T12:59:15Z</time>
      </trkpt>
      <trkpt lat="45.02161" lon="6.49821">
        <ele>2630.4</ele>
        <time>2021-02-28T12:59:16Z</time>
      </trkpt>
      <trkpt lat="45.02161" lon="6.49821">
        <ele>2631</ele>
        <time>2021-02-28T12:59:17Z</time>
      </trkpt>
      <trkpt lat="45.02159" lon="6.4982">
        <ele>2631.2</ele>
        <time>2021-02-28T12:59:18Z</time>
      </trkpt>
      <trkpt lat="45.02159" lon="6.4982">
        <ele>2631.6</ele>
        <time>2021-02-28T12:59:19Z</time>
      </trkpt>
      <trkpt lat="45.02157" lon="6.49818">
        <ele>2632.2</ele>
        <time>2021-02-28T12:59:20Z</time>
      </trkpt>
      <trkpt lat="45.02157" lon="6.49818">
        <ele>2632.4</ele>
        <time>2021-02-28T12:59:21Z</time>
      </trkpt>
      <trkpt lat="45.02157" lon="6.49818">
        <ele>2632.8</ele>
        <time>2021-02-28T12:59:22Z</time>
      </trkpt>
      <trkpt lat="45.02155" lon="6.49817">
        <ele>2633.8</ele>
        <time>2021-02-28T12:59:23Z</time>
      </trkpt>
      <trkpt lat="45.02155" lon="6.49817">
        <ele>2633.8</ele>
        <time>2021-02-28T12:59:24Z</time>
      </trkpt>
      <trkpt lat="45.02155" lon="6.49817">
        <ele>2634.6</ele>
        <time>2021-02-28T12:59:25Z</time>
      </trkpt>
      <trkpt lat="45.02155" lon="6.49817">
        <ele>2633.8</ele>
        <time>2021-02-28T12:59:26Z</time>
      </trkpt>
      <trkpt lat="45.02155" lon="6.49817">
        <ele>2633.8</ele>
        <time>2021-02-28T12:59:27Z</time>
      </trkpt>
      <trkpt lat="45.02155" lon="6.49817">
        <ele>2634</ele>
        <time>2021-02-28T12:59:28Z</time>
      </trkpt>
      <trkpt lat="45.02155" lon="6.49817">
        <ele>2634.2</ele>
        <time>2021-02-28T12:59:29Z</time>
      </trkpt>
      <trkpt lat="45.02155" lon="6.49817">
        <ele>2634.4</ele>
        <time>2021-02-28T12:59:30Z</time>
      </trkpt>
      <trkpt lat="45.02155" lon="6.49817">
        <ele>2634.4</ele>
        <time>2021-02-28T12:59:31Z</time>
      </trkpt>
      <trkpt lat="45.02155" lon="6.49817">
        <ele>2634.8</ele>
        <time>2021-02-28T12:59:32Z</time>
      </trkpt>
      <trkpt lat="45.02155" lon="6.49817">
        <ele>2634.8</ele>
        <time>2021-02-28T12:59:33Z</time>
      </trkpt>
      <trkpt lat="45.02155" lon="6.49817">
        <ele>2635</ele>
        <time>2021-02-28T12:59:34Z</time>
      </trkpt>
      <trkpt lat="45.02155" lon="6.49817">
        <ele>2634.4</ele>
        <time>2021-02-28T12:59:35Z</time>
      </trkpt>
      <trkpt lat="45.02155" lon="6.49817">
        <ele>2634.6</ele>
        <time>2021-02-28T12:59:36Z</time>
      </trkpt>
      <trkpt lat="45.02155" lon="6.49817">
        <ele>2634.8</ele>
        <time>2021-02-28T12:59:37Z</time>
      </trkpt>
      <trkpt lat="45.02155" lon="6.49817">
        <ele>2635.2</ele>
        <time>2021-02-28T12:59:38Z</time>
      </trkpt>
      <trkpt lat="45.02155" lon="6.49817">
        <ele>2635.4</ele>
        <time>2021-02-28T12:59:39Z</time>
      </trkpt>
      <trkpt lat="45.02155" lon="6.49817">
        <ele>2635.4</ele>
        <time>2021-02-28T12:59:40Z</time>
      </trkpt>
      <trkpt lat="45.02155" lon="6.49817">
        <ele>2635</ele>
        <time>2021-02-28T12:59:41Z</time>
      </trkpt>
      <trkpt lat="45.02155" lon="6.49817">
        <ele>2635</ele>
        <time>2021-02-28T12:59:42Z</time>
      </trkpt>
      <trkpt lat="45.02155" lon="6.49817">
        <ele>2634.8</ele>
        <time>2021-02-28T12:59:43Z</time>
      </trkpt>
      <trkpt lat="45.02155" lon="6.49817">
        <ele>2635.2</ele>
        <time>2021-02-28T12:59:44Z</time>
      </trkpt>
      <trkpt lat="45.02155" lon="6.49817">
        <ele>2635.4</ele>
        <time>2021-02-28T12:59:45Z</time>
      </trkpt>
      <trkpt lat="45.02155" lon="6.49817">
        <ele>2635.4</ele>
        <time>2021-02-28T12:59:46Z</time>
      </trkpt>
      <trkpt lat="45.02155" lon="6.49817">
        <ele>2635.4</ele>
        <time>2021-02-28T12:59:47Z</time>
      </trkpt>
      <trkpt lat="45.02153" lon="6.49818">
        <ele>2636.2</ele>
        <time>2021-02-28T12:59:48Z</time>
      </trkpt>
      <trkpt lat="45.02153" lon="6.49818">
        <ele>2636.6</ele>
        <time>2021-02-28T12:59:49Z</time>
      </trkpt>
      <trkpt lat="45.02153" lon="6.49818">
        <ele>2636.8</ele>
        <time>2021-02-28T12:59:50Z</time>
      </trkpt>
      <trkpt lat="45.02153" lon="6.49818">
        <ele>2637</ele>
        <time>2021-02-28T12:59:51Z</time>
      </trkpt>
      <trkpt lat="45.02153" lon="6.49818">
        <ele>2637</ele>
        <time>2021-02-28T12:59:52Z</time>
      </trkpt>
      <trkpt lat="45.02153" lon="6.49818">
        <ele>2636.6</ele>
        <time>2021-02-28T12:59:53Z</time>
      </trkpt>
      <trkpt lat="45.02153" lon="6.49818">
        <ele>2636.6</ele>
        <time>2021-02-28T12:59:54Z</time>
      </trkpt>
      <trkpt lat="45.02153" lon="6.49821">
        <ele>2636.8</ele>
        <time>2021-02-28T12:59:55Z</time>
      </trkpt>
      <trkpt lat="45.02153" lon="6.49821">
        <ele>2637</ele>
        <time>2021-02-28T12:59:56Z</time>
      </trkpt>
      <trkpt lat="45.02153" lon="6.49821">
        <ele>2637</ele>
        <time>2021-02-28T12:59:57Z</time>
      </trkpt>
      <trkpt lat="45.02152" lon="6.49823">
        <ele>2636.2</ele>
        <time>2021-02-28T12:59:58Z</time>
      </trkpt>
      <trkpt lat="45.02152" lon="6.49823">
        <ele>2636.8</ele>
        <time>2021-02-28T12:59:59Z</time>
      </trkpt>
      <trkpt lat="45.02152" lon="6.49823">
        <ele>2636.8</ele>
        <time>2021-02-28T13:00:00Z</time>
      </trkpt>
      <trkpt lat="45.02152" lon="6.49823">
        <ele>2636.8</ele>
        <time>2021-02-28T13:00:01Z</time>
      </trkpt>
      <trkpt lat="45.02152" lon="6.49823">
        <ele>2636.8</ele>
        <time>2021-02-28T13:00:02Z</time>
      </trkpt>
      <trkpt lat="45.02152" lon="6.49823">
        <ele>2636.8</ele>
        <time>2021-02-28T13:00:03Z</time>
      </trkpt>
      <trkpt lat="45.02152" lon="6.49823">
        <ele>2637</ele>
        <time>2021-02-28T13:00:04Z</time>
      </trkpt>
      <trkpt lat="45.02152" lon="6.49823">
        <ele>2636.8</ele>
        <time>2021-02-28T13:00:05Z</time>
      </trkpt>
      <trkpt lat="45.02152" lon="6.49823">
        <ele>2636.6</ele>
        <time>2021-02-28T13:00:06Z</time>
      </trkpt>
      <trkpt lat="45.02152" lon="6.49823">
        <ele>2636.4</ele>
        <time>2021-02-28T13:00:07Z</time>
      </trkpt>
      <trkpt lat="45.02152" lon="6.49823">
        <ele>2636.4</ele>
        <time>2021-02-28T13:00:08Z</time>
      </trkpt>
      <trkpt lat="45.02152" lon="6.49823">
        <ele>2636.2</ele>
        <time>2021-02-28T13:00:09Z</time>
      </trkpt>
      <trkpt lat="45.02152" lon="6.49823">
        <ele>2636.2</ele>
        <time>2021-02-28T13:00:10Z</time>
      </trkpt>
      <trkpt lat="45.02152" lon="6.49823">
        <ele>2636.2</ele>
        <time>2021-02-28T13:00:11Z</time>
      </trkpt>
      <trkpt lat="45.02152" lon="6.49823">
        <ele>2636.4</ele>
        <time>2021-02-28T13:00:12Z</time>
      </trkpt>
      <trkpt lat="45.02152" lon="6.49823">
        <ele>2636.4</ele>
        <time>2021-02-28T13:00:13Z</time>
      </trkpt>
      <trkpt lat="45.02152" lon="6.49823">
        <ele>2636.4</ele>
        <time>2021-02-28T13:00:14Z</time>
      </trkpt>
      <trkpt lat="45.02152" lon="6.49823">
        <ele>2636.6</ele>
        <time>2021-02-28T13:00:15Z</time>
      </trkpt>
      <trkpt lat="45.02152" lon="6.49823">
        <ele>2636.8</ele>
        <time>2021-02-28T13:00:16Z</time>
      </trkpt>
      <trkpt lat="45.02152" lon="6.49823">
        <ele>2637.2</ele>
        <time>2021-02-28T13:00:17Z</time>
      </trkpt>
      <trkpt lat="45.02152" lon="6.49823">
        <ele>2637.4</ele>
        <time>2021-02-28T13:00:18Z</time>
      </trkpt>
      <trkpt lat="45.02152" lon="6.49823">
        <ele>2637.6</ele>
        <time>2021-02-28T13:00:19Z</time>
      </trkpt>
      <trkpt lat="45.02152" lon="6.49823">
        <ele>2637.6</ele>
        <time>2021-02-28T13:00:20Z</time>
      </trkpt>
      <trkpt lat="45.02152" lon="6.49823">
        <ele>2637.6</ele>
        <time>2021-02-28T13:00:21Z</time>
      </trkpt>
      <trkpt lat="45.02152" lon="6.49823">
        <ele>2637.6</ele>
        <time>2021-02-28T13:00:22Z</time>
      </trkpt>
      <trkpt lat="45.02152" lon="6.49823">
        <ele>2637.4</ele>
        <time>2021-02-28T13:00:23Z</time>
      </trkpt>
      <trkpt lat="45.02152" lon="6.49823">
        <ele>2637.6</ele>
        <time>2021-02-28T13:00:24Z</time>
      </trkpt>
      <trkpt lat="45.02152" lon="6.49823">
        <ele>2637.6</ele>
        <time>2021-02-28T13:00:25Z</time>
      </trkpt>
      <trkpt lat="45.02152" lon="6.49823">
        <ele>2638</ele>
        <time>2021-02-28T13:00:26Z</time>
      </trkpt>
      <trkpt lat="45.02152" lon="6.49823">
        <ele>2638</ele>
        <time>2021-02-28T13:00:27Z</time>
      </trkpt>
      <trkpt lat="45.02152" lon="6.49823">
        <ele>2638</ele>
        <time>2021-02-28T13:00:28Z</time>
      </trkpt>
      <trkpt lat="45.02152" lon="6.49823">
        <ele>2638.2</ele>
        <time>2021-02-28T13:00:29Z</time>
      </trkpt>
      <trkpt lat="45.02152" lon="6.49823">
        <ele>2638.4</ele>
        <time>2021-02-28T13:00:30Z</time>
      </trkpt>
      <trkpt lat="45.02151" lon="6.49826">
        <ele>2638</ele>
        <time>2021-02-28T13:00:31Z</time>
      </trkpt>
      <trkpt lat="45.02151" lon="6.49826">
        <ele>2638.2</ele>
        <time>2021-02-28T13:00:32Z</time>
      </trkpt>
      <trkpt lat="45.0215" lon="6.49829">
        <ele>2638</ele>
        <time>2021-02-28T13:00:33Z</time>
      </trkpt>
      <trkpt lat="45.0215" lon="6.49829">
        <ele>2638.2</ele>
        <time>2021-02-28T13:00:34Z</time>
      </trkpt>
      <trkpt lat="45.02149" lon="6.49832">
        <ele>2638</ele>
        <time>2021-02-28T13:00:35Z</time>
      </trkpt>
      <trkpt lat="45.02149" lon="6.49832">
        <ele>2638</ele>
        <time>2021-02-28T13:00:36Z</time>
      </trkpt>
      <trkpt lat="45.02147" lon="6.49835">
        <ele>2638.2</ele>
        <time>2021-02-28T13:00:37Z</time>
      </trkpt>
      <trkpt lat="45.02147" lon="6.49835">
        <ele>2638.8</ele>
        <time>2021-02-28T13:00:38Z</time>
      </trkpt>
      <trkpt lat="45.02146" lon="6.49837">
        <ele>2639.2</ele>
        <time>2021-02-28T13:00:39Z</time>
      </trkpt>
      <trkpt lat="45.02146" lon="6.49837">
        <ele>2639.2</ele>
        <time>2021-02-28T13:00:40Z</time>
      </trkpt>
      <trkpt lat="45.02146" lon="6.49837">
        <ele>2639.6</ele>
        <time>2021-02-28T13:00:41Z</time>
      </trkpt>
      <trkpt lat="45.02144" lon="6.4984">
        <ele>2639</ele>
        <time>2021-02-28T13:00:42Z</time>
      </trkpt>
      <trkpt lat="45.02144" lon="6.4984">
        <ele>2639.6</ele>
        <time>2021-02-28T13:00:43Z</time>
      </trkpt>
      <trkpt lat="45.02142" lon="6.49841">
        <ele>2639.6</ele>
        <time>2021-02-28T13:00:44Z</time>
      </trkpt>
      <trkpt lat="45.02142" lon="6.49841">
        <ele>2639.8</ele>
        <time>2021-02-28T13:00:45Z</time>
      </trkpt>
      <trkpt lat="45.0214" lon="6.49843">
        <ele>2639.8</ele>
        <time>2021-02-28T13:00:46Z</time>
      </trkpt>
      <trkpt lat="45.0214" lon="6.49843">
        <ele>2640.4</ele>
        <time>2021-02-28T13:00:47Z</time>
      </trkpt>
      <trkpt lat="45.02137" lon="6.49845">
        <ele>2640.4</ele>
        <time>2021-02-28T13:00:48Z</time>
      </trkpt>
      <trkpt lat="45.02137" lon="6.49845">
        <ele>2640.4</ele>
        <time>2021-02-28T13:00:49Z</time>
      </trkpt>
      <trkpt lat="45.02135" lon="6.49847">
        <ele>2640.4</ele>
        <time>2021-02-28T13:00:50Z</time>
      </trkpt>
      <trkpt lat="45.02135" lon="6.49847">
        <ele>2640.4</ele>
        <time>2021-02-28T13:00:51Z</time>
      </trkpt>
      <trkpt lat="45.02133" lon="6.4985">
        <ele>2640.2</ele>
        <time>2021-02-28T13:00:52Z</time>
      </trkpt>
      <trkpt lat="45.02133" lon="6.4985">
        <ele>2640.2</ele>
        <time>2021-02-28T13:00:53Z</time>
      </trkpt>
      <trkpt lat="45.02131" lon="6.49852">
        <ele>2639.4</ele>
        <time>2021-02-28T13:00:54Z</time>
      </trkpt>
      <trkpt lat="45.02131" lon="6.49852">
        <ele>2639.6</ele>
        <time>2021-02-28T13:00:55Z</time>
      </trkpt>
      <trkpt lat="45.02129" lon="6.49855">
        <ele>2640</ele>
        <time>2021-02-28T13:00:56Z</time>
      </trkpt>
      <trkpt lat="45.02129" lon="6.49855">
        <ele>2639.8</ele>
        <time>2021-02-28T13:00:57Z</time>
      </trkpt>
      <trkpt lat="45.02127" lon="6.49858">
        <ele>2639.4</ele>
        <time>2021-02-28T13:00:58Z</time>
      </trkpt>
      <trkpt lat="45.02127" lon="6.49858">
        <ele>2639.8</ele>
        <time>2021-02-28T13:00:59Z</time>
      </trkpt>
      <trkpt lat="45.02126" lon="6.4986">
        <ele>2640.2</ele>
        <time>2021-02-28T13:01:00Z</time>
      </trkpt>
      <trkpt lat="45.02126" lon="6.4986">
        <ele>2640</ele>
        <time>2021-02-28T13:01:01Z</time>
      </trkpt>
      <trkpt lat="45.02124" lon="6.49862">
        <ele>2640.2</ele>
        <time>2021-02-28T13:01:02Z</time>
      </trkpt>
      <trkpt lat="45.02124" lon="6.49862">
        <ele>2640.6</ele>
        <time>2021-02-28T13:01:03Z</time>
      </trkpt>
      <trkpt lat="45.02124" lon="6.49862">
        <ele>2640.8</ele>
        <time>2021-02-28T13:01:04Z</time>
      </trkpt>
      <trkpt lat="45.02123" lon="6.49865">
        <ele>2641.2</ele>
        <time>2021-02-28T13:01:05Z</time>
      </trkpt>
      <trkpt lat="45.02123" lon="6.49865">
        <ele>2641.2</ele>
        <time>2021-02-28T13:01:06Z</time>
      </trkpt>
      <trkpt lat="45.02122" lon="6.49868">
        <ele>2642</ele>
        <time>2021-02-28T13:01:07Z</time>
      </trkpt>
      <trkpt lat="45.02122" lon="6.49868">
        <ele>2642.4</ele>
        <time>2021-02-28T13:01:08Z</time>
      </trkpt>
      <trkpt lat="45.02121" lon="6.4987">
        <ele>2642.6</ele>
        <time>2021-02-28T13:01:09Z</time>
      </trkpt>
      <trkpt lat="45.02121" lon="6.4987">
        <ele>2642.4</ele>
        <time>2021-02-28T13:01:10Z</time>
      </trkpt>
      <trkpt lat="45.02121" lon="6.4987">
        <ele>2642.4</ele>
        <time>2021-02-28T13:01:11Z</time>
      </trkpt>
      <trkpt lat="45.0212" lon="6.49874">
        <ele>2643</ele>
        <time>2021-02-28T13:01:12Z</time>
      </trkpt>
      <trkpt lat="45.0212" lon="6.49874">
        <ele>2643.2</ele>
        <time>2021-02-28T13:01:13Z</time>
      </trkpt>
      <trkpt lat="45.02119" lon="6.49876">
        <ele>2643.6</ele>
        <time>2021-02-28T13:01:14Z</time>
      </trkpt>
      <trkpt lat="45.02119" lon="6.49876">
        <ele>2643.6</ele>
        <time>2021-02-28T13:01:15Z</time>
      </trkpt>
      <trkpt lat="45.02119" lon="6.49876">
        <ele>2643.8</ele>
        <time>2021-02-28T13:01:16Z</time>
      </trkpt>
      <trkpt lat="45.02118" lon="6.49878">
        <ele>2644</ele>
        <time>2021-02-28T13:01:17Z</time>
      </trkpt>
      <trkpt lat="45.02118" lon="6.49878">
        <ele>2644</ele>
        <time>2021-02-28T13:01:18Z</time>
      </trkpt>
      <trkpt lat="45.02118" lon="6.49878">
        <ele>2644.2</ele>
        <time>2021-02-28T13:01:19Z</time>
      </trkpt>
      <trkpt lat="45.02118" lon="6.49878">
        <ele>2644.6</ele>
        <time>2021-02-28T13:01:20Z</time>
      </trkpt>
      <trkpt lat="45.02118" lon="6.49878">
        <ele>2645</ele>
        <time>2021-02-28T13:01:21Z</time>
      </trkpt>
      <trkpt lat="45.02117" lon="6.49881">
        <ele>2645.4</ele>
        <time>2021-02-28T13:01:22Z</time>
      </trkpt>
      <trkpt lat="45.02117" lon="6.49881">
        <ele>2645.6</ele>
        <time>2021-02-28T13:01:23Z</time>
      </trkpt>
      <trkpt lat="45.02117" lon="6.49881">
        <ele>2645.6</ele>
        <time>2021-02-28T13:01:24Z</time>
      </trkpt>
      <trkpt lat="45.02117" lon="6.49881">
        <ele>2645.6</ele>
        <time>2021-02-28T13:01:25Z</time>
      </trkpt>
      <trkpt lat="45.02116" lon="6.49883">
        <ele>2646</ele>
        <time>2021-02-28T13:01:26Z</time>
      </trkpt>
      <trkpt lat="45.02116" lon="6.49883">
        <ele>2646.4</ele>
        <time>2021-02-28T13:01:27Z</time>
      </trkpt>
      <trkpt lat="45.02116" lon="6.49883">
        <ele>2646.4</ele>
        <time>2021-02-28T13:01:28Z</time>
      </trkpt>
      <trkpt lat="45.02116" lon="6.49883">
        <ele>2646.8</ele>
        <time>2021-02-28T13:01:29Z</time>
      </trkpt>
      <trkpt lat="45.02115" lon="6.49886">
        <ele>2647</ele>
        <time>2021-02-28T13:01:30Z</time>
      </trkpt>
      <trkpt lat="45.02115" lon="6.49886">
        <ele>2647.2</ele>
        <time>2021-02-28T13:01:31Z</time>
      </trkpt>
      <trkpt lat="45.02115" lon="6.49886">
        <ele>2647.2</ele>
        <time>2021-02-28T13:01:32Z</time>
      </trkpt>
      <trkpt lat="45.02115" lon="6.49886">
        <ele>2647.6</ele>
        <time>2021-02-28T13:01:33Z</time>
      </trkpt>
      <trkpt lat="45.02113" lon="6.49889">
        <ele>2647.8</ele>
        <time>2021-02-28T13:01:34Z</time>
      </trkpt>
      <trkpt lat="45.02113" lon="6.49889">
        <ele>2647.8</ele>
        <time>2021-02-28T13:01:35Z</time>
      </trkpt>
      <trkpt lat="45.02113" lon="6.49889">
        <ele>2648</ele>
        <time>2021-02-28T13:01:36Z</time>
      </trkpt>
      <trkpt lat="45.02112" lon="6.49891">
        <ele>2648.2</ele>
        <time>2021-02-28T13:01:37Z</time>
      </trkpt>
      <trkpt lat="45.02112" lon="6.49891">
        <ele>2648.6</ele>
        <time>2021-02-28T13:01:38Z</time>
      </trkpt>
      <trkpt lat="45.02112" lon="6.49891">
        <ele>2648.6</ele>
        <time>2021-02-28T13:01:39Z</time>
      </trkpt>
      <trkpt lat="45.02111" lon="6.49894">
        <ele>2648.6</ele>
        <time>2021-02-28T13:01:40Z</time>
      </trkpt>
      <trkpt lat="45.02111" lon="6.49894">
        <ele>2648.6</ele>
        <time>2021-02-28T13:01:41Z</time>
      </trkpt>
      <trkpt lat="45.02111" lon="6.49894">
        <ele>2648.6</ele>
        <time>2021-02-28T13:01:42Z</time>
      </trkpt>
      <trkpt lat="45.0211" lon="6.49896">
        <ele>2648.6</ele>
        <time>2021-02-28T13:01:43Z</time>
      </trkpt>
      <trkpt lat="45.0211" lon="6.49896">
        <ele>2649</ele>
        <time>2021-02-28T13:01:44Z</time>
      </trkpt>
      <trkpt lat="45.0211" lon="6.49896">
        <ele>2649.6</ele>
        <time>2021-02-28T13:01:45Z</time>
      </trkpt>
      <trkpt lat="45.02109" lon="6.49899">
        <ele>2649.8</ele>
        <time>2021-02-28T13:01:46Z</time>
      </trkpt>
      <trkpt lat="45.02109" lon="6.49899">
        <ele>2650</ele>
        <time>2021-02-28T13:01:47Z</time>
      </trkpt>
      <trkpt lat="45.02109" lon="6.49899">
        <ele>2650</ele>
        <time>2021-02-28T13:01:48Z</time>
      </trkpt>
      <trkpt lat="45.02108" lon="6.49901">
        <ele>2650.4</ele>
        <time>2021-02-28T13:01:49Z</time>
      </trkpt>
      <trkpt lat="45.02108" lon="6.49901">
        <ele>2651</ele>
        <time>2021-02-28T13:01:50Z</time>
      </trkpt>
      <trkpt lat="45.02108" lon="6.49901">
        <ele>2651</ele>
        <time>2021-02-28T13:01:51Z</time>
      </trkpt>
      <trkpt lat="45.02106" lon="6.49903">
        <ele>2651</ele>
        <time>2021-02-28T13:01:52Z</time>
      </trkpt>
      <trkpt lat="45.02106" lon="6.49903">
        <ele>2651.4</ele>
        <time>2021-02-28T13:01:53Z</time>
      </trkpt>
      <trkpt lat="45.02106" lon="6.49903">
        <ele>2651.6</ele>
        <time>2021-02-28T13:01:54Z</time>
      </trkpt>
      <trkpt lat="45.02105" lon="6.49906">
        <ele>2651.8</ele>
        <time>2021-02-28T13:01:55Z</time>
      </trkpt>
      <trkpt lat="45.02105" lon="6.49906">
        <ele>2652</ele>
        <time>2021-02-28T13:01:56Z</time>
      </trkpt>
      <trkpt lat="45.02105" lon="6.49906">
        <ele>2652.2</ele>
        <time>2021-02-28T13:01:57Z</time>
      </trkpt>
      <trkpt lat="45.02103" lon="6.49908">
        <ele>2652.4</ele>
        <time>2021-02-28T13:01:58Z</time>
      </trkpt>
      <trkpt lat="45.02103" lon="6.49908">
        <ele>2652.6</ele>
        <time>2021-02-28T13:01:59Z</time>
      </trkpt>
      <trkpt lat="45.02103" lon="6.49908">
        <ele>2652.8</ele>
        <time>2021-02-28T13:02:00Z</time>
      </trkpt>
      <trkpt lat="45.02103" lon="6.49908">
        <ele>2653.2</ele>
        <time>2021-02-28T13:02:01Z</time>
      </trkpt>
      <trkpt lat="45.02102" lon="6.4991">
        <ele>2653.4</ele>
        <time>2021-02-28T13:02:02Z</time>
      </trkpt>
      <trkpt lat="45.02102" lon="6.4991">
        <ele>2653.8</ele>
        <time>2021-02-28T13:02:03Z</time>
      </trkpt>
      <trkpt lat="45.02102" lon="6.4991">
        <ele>2653.8</ele>
        <time>2021-02-28T13:02:04Z</time>
      </trkpt>
      <trkpt lat="45.02102" lon="6.4991">
        <ele>2654.2</ele>
        <time>2021-02-28T13:02:05Z</time>
      </trkpt>
      <trkpt lat="45.021" lon="6.49912">
        <ele>2654.6</ele>
        <time>2021-02-28T13:02:06Z</time>
      </trkpt>
      <trkpt lat="45.021" lon="6.49912">
        <ele>2654.6</ele>
        <time>2021-02-28T13:02:07Z</time>
      </trkpt>
      <trkpt lat="45.021" lon="6.49912">
        <ele>2654</ele>
        <time>2021-02-28T13:02:08Z</time>
      </trkpt>
      <trkpt lat="45.02099" lon="6.49915">
        <ele>2654.2</ele>
        <time>2021-02-28T13:02:09Z</time>
      </trkpt>
      <trkpt lat="45.02099" lon="6.49915">
        <ele>2653.8</ele>
        <time>2021-02-28T13:02:10Z</time>
      </trkpt>
      <trkpt lat="45.02099" lon="6.49915">
        <ele>2654.4</ele>
        <time>2021-02-28T13:02:11Z</time>
      </trkpt>
      <trkpt lat="45.02097" lon="6.49918">
        <ele>2655.6</ele>
        <time>2021-02-28T13:02:12Z</time>
      </trkpt>
      <trkpt lat="45.02097" lon="6.49918">
        <ele>2655.4</ele>
        <time>2021-02-28T13:02:13Z</time>
      </trkpt>
      <trkpt lat="45.02097" lon="6.49918">
        <ele>2655.8</ele>
        <time>2021-02-28T13:02:14Z</time>
      </trkpt>
      <trkpt lat="45.02096" lon="6.49921">
        <ele>2656</ele>
        <time>2021-02-28T13:02:15Z</time>
      </trkpt>
      <trkpt lat="45.02096" lon="6.49921">
        <ele>2656</ele>
        <time>2021-02-28T13:02:16Z</time>
      </trkpt>
      <trkpt lat="45.02096" lon="6.49921">
        <ele>2656</ele>
        <time>2021-02-28T13:02:17Z</time>
      </trkpt>
      <trkpt lat="45.02094" lon="6.49923">
        <ele>2656.4</ele>
        <time>2021-02-28T13:02:18Z</time>
      </trkpt>
      <trkpt lat="45.02094" lon="6.49923">
        <ele>2656.6</ele>
        <time>2021-02-28T13:02:19Z</time>
      </trkpt>
      <trkpt lat="45.02094" lon="6.49923">
        <ele>2657</ele>
        <time>2021-02-28T13:02:20Z</time>
      </trkpt>
      <trkpt lat="45.02094" lon="6.49923">
        <ele>2657.6</ele>
        <time>2021-02-28T13:02:21Z</time>
      </trkpt>
      <trkpt lat="45.02094" lon="6.49923">
        <ele>2658.2</ele>
        <time>2021-02-28T13:02:22Z</time>
      </trkpt>
      <trkpt lat="45.02093" lon="6.4992">
        <ele>2658.6</ele>
        <time>2021-02-28T13:02:23Z</time>
      </trkpt>
      <trkpt lat="45.02093" lon="6.4992">
        <ele>2659.2</ele>
        <time>2021-02-28T13:02:24Z</time>
      </trkpt>
      <trkpt lat="45.02093" lon="6.4992">
        <ele>2659.6</ele>
        <time>2021-02-28T13:02:25Z</time>
      </trkpt>
      <trkpt lat="45.02093" lon="6.4992">
        <ele>2659.6</ele>
        <time>2021-02-28T13:02:26Z</time>
      </trkpt>
      <trkpt lat="45.02093" lon="6.4992">
        <ele>2659.6</ele>
        <time>2021-02-28T13:02:27Z</time>
      </trkpt>
      <trkpt lat="45.02091" lon="6.49921">
        <ele>2659.2</ele>
        <time>2021-02-28T13:02:28Z</time>
      </trkpt>
      <trkpt lat="45.02091" lon="6.49921">
        <ele>2659.2</ele>
        <time>2021-02-28T13:02:29Z</time>
      </trkpt>
      <trkpt lat="45.02091" lon="6.49921">
        <ele>2659.4</ele>
        <time>2021-02-28T13:02:30Z</time>
      </trkpt>
      <trkpt lat="45.02089" lon="6.49923">
        <ele>2659.4</ele>
        <time>2021-02-28T13:02:31Z</time>
      </trkpt>
      <trkpt lat="45.02089" lon="6.49923">
        <ele>2659.4</ele>
        <time>2021-02-28T13:02:32Z</time>
      </trkpt>
      <trkpt lat="45.02089" lon="6.49923">
        <ele>2659.2</ele>
        <time>2021-02-28T13:02:33Z</time>
      </trkpt>
      <trkpt lat="45.02087" lon="6.49925">
        <ele>2659.8</ele>
        <time>2021-02-28T13:02:34Z</time>
      </trkpt>
      <trkpt lat="45.02087" lon="6.49925">
        <ele>2659.8</ele>
        <time>2021-02-28T13:02:35Z</time>
      </trkpt>
      <trkpt lat="45.02087" lon="6.49925">
        <ele>2659.8</ele>
        <time>2021-02-28T13:02:36Z</time>
      </trkpt>
      <trkpt lat="45.02087" lon="6.49925">
        <ele>2660</ele>
        <time>2021-02-28T13:02:37Z</time>
      </trkpt>
      <trkpt lat="45.02087" lon="6.49925">
        <ele>2660.2</ele>
        <time>2021-02-28T13:02:38Z</time>
      </trkpt>
      <trkpt lat="45.02087" lon="6.49925">
        <ele>2660.4</ele>
        <time>2021-02-28T13:02:39Z</time>
      </trkpt>
      <trkpt lat="45.02087" lon="6.49925">
        <ele>2660.4</ele>
        <time>2021-02-28T13:02:40Z</time>
      </trkpt>
      <trkpt lat="45.02087" lon="6.49925">
        <ele>2660.6</ele>
        <time>2021-02-28T13:02:41Z</time>
      </trkpt>
      <trkpt lat="45.02087" lon="6.49925">
        <ele>2661</ele>
        <time>2021-02-28T13:02:42Z</time>
      </trkpt>
      <trkpt lat="45.02087" lon="6.49925">
        <ele>2660.8</ele>
        <time>2021-02-28T13:02:43Z</time>
      </trkpt>
      <trkpt lat="45.02087" lon="6.49925">
        <ele>2660.8</ele>
        <time>2021-02-28T13:02:44Z</time>
      </trkpt>
      <trkpt lat="45.02087" lon="6.49925">
        <ele>2661</ele>
        <time>2021-02-28T13:02:45Z</time>
      </trkpt>
      <trkpt lat="45.02086" lon="6.49926">
        <ele>2661</ele>
        <time>2021-02-28T13:02:46Z</time>
      </trkpt>
      <trkpt lat="45.02086" lon="6.49926">
        <ele>2661.2</ele>
        <time>2021-02-28T13:02:47Z</time>
      </trkpt>
      <trkpt lat="45.02086" lon="6.49926">
        <ele>2661.2</ele>
        <time>2021-02-28T13:02:48Z</time>
      </trkpt>
      <trkpt lat="45.02086" lon="6.49926">
        <ele>2661.4</ele>
        <time>2021-02-28T13:02:49Z</time>
      </trkpt>
      <trkpt lat="45.02086" lon="6.49926">
        <ele>2661.4</ele>
        <time>2021-02-28T13:02:50Z</time>
      </trkpt>
      <trkpt lat="45.02084" lon="6.49927">
        <ele>2661.8</ele>
        <time>2021-02-28T13:02:51Z</time>
      </trkpt>
      <trkpt lat="45.02084" lon="6.49927">
        <ele>2661.6</ele>
        <time>2021-02-28T13:02:52Z</time>
      </trkpt>
      <trkpt lat="45.02084" lon="6.49927">
        <ele>2662</ele>
        <time>2021-02-28T13:02:53Z</time>
      </trkpt>
      <trkpt lat="45.02081" lon="6.49928">
        <ele>2662.2</ele>
        <time>2021-02-28T13:02:54Z</time>
      </trkpt>
      <trkpt lat="45.02081" lon="6.49928">
        <ele>2662</ele>
        <time>2021-02-28T13:02:55Z</time>
      </trkpt>
      <trkpt lat="45.02081" lon="6.49928">
        <ele>2662</ele>
        <time>2021-02-28T13:02:56Z</time>
      </trkpt>
      <trkpt lat="45.02081" lon="6.49928">
        <ele>2662.4</ele>
        <time>2021-02-28T13:02:57Z</time>
      </trkpt>
      <trkpt lat="45.02081" lon="6.49928">
        <ele>2662.4</ele>
        <time>2021-02-28T13:02:58Z</time>
      </trkpt>
      <trkpt lat="45.02081" lon="6.49928">
        <ele>2662.4</ele>
        <time>2021-02-28T13:02:59Z</time>
      </trkpt>
      <trkpt lat="45.02081" lon="6.49928">
        <ele>2662.6</ele>
        <time>2021-02-28T13:03:00Z</time>
      </trkpt>
      <trkpt lat="45.02081" lon="6.49928">
        <ele>2662.8</ele>
        <time>2021-02-28T13:03:01Z</time>
      </trkpt>
      <trkpt lat="45.02081" lon="6.49928">
        <ele>2662.8</ele>
        <time>2021-02-28T13:03:02Z</time>
      </trkpt>
      <trkpt lat="45.02081" lon="6.49928">
        <ele>2662.8</ele>
        <time>2021-02-28T13:03:03Z</time>
      </trkpt>
      <trkpt lat="45.02081" lon="6.49928">
        <ele>2662.8</ele>
        <time>2021-02-28T13:03:04Z</time>
      </trkpt>
      <trkpt lat="45.02081" lon="6.49928">
        <ele>2662.8</ele>
        <time>2021-02-28T13:03:05Z</time>
      </trkpt>
      <trkpt lat="45.02081" lon="6.49928">
        <ele>2663</ele>
        <time>2021-02-28T13:03:06Z</time>
      </trkpt>
      <trkpt lat="45.02081" lon="6.49928">
        <ele>2662.8</ele>
        <time>2021-02-28T13:03:07Z</time>
      </trkpt>
      <trkpt lat="45.02081" lon="6.49928">
        <ele>2662.6</ele>
        <time>2021-02-28T13:03:08Z</time>
      </trkpt>
      <trkpt lat="45.02081" lon="6.49928">
        <ele>2662.4</ele>
        <time>2021-02-28T13:03:09Z</time>
      </trkpt>
      <trkpt lat="45.02081" lon="6.49928">
        <ele>2662.4</ele>
        <time>2021-02-28T13:03:10Z</time>
      </trkpt>
      <trkpt lat="45.02081" lon="6.49928">
        <ele>2662.6</ele>
        <time>2021-02-28T13:03:11Z</time>
      </trkpt>
      <trkpt lat="45.02081" lon="6.49928">
        <ele>2662.4</ele>
        <time>2021-02-28T13:03:12Z</time>
      </trkpt>
      <trkpt lat="45.02081" lon="6.49928">
        <ele>2662.6</ele>
        <time>2021-02-28T13:03:13Z</time>
      </trkpt>
      <trkpt lat="45.02081" lon="6.49928">
        <ele>2662.4</ele>
        <time>2021-02-28T13:03:14Z</time>
      </trkpt>
      <trkpt lat="45.02081" lon="6.49928">
        <ele>2662.6</ele>
        <time>2021-02-28T13:03:15Z</time>
      </trkpt>
      <trkpt lat="45.02081" lon="6.49928">
        <ele>2662.6</ele>
        <time>2021-02-28T13:03:16Z</time>
      </trkpt>
      <trkpt lat="45.02081" lon="6.49928">
        <ele>2662.6</ele>
        <time>2021-02-28T13:03:17Z</time>
      </trkpt>
      <trkpt lat="45.02081" lon="6.49928">
        <ele>2662.6</ele>
        <time>2021-02-28T13:03:18Z</time>
      </trkpt>
      <trkpt lat="45.02081" lon="6.49928">
        <ele>2663</ele>
        <time>2021-02-28T13:03:19Z</time>
      </trkpt>
      <trkpt lat="45.02081" lon="6.49928">
        <ele>2663</ele>
        <time>2021-02-28T13:03:20Z</time>
      </trkpt>
      <trkpt lat="45.02081" lon="6.49928">
        <ele>2663</ele>
        <time>2021-02-28T13:03:21Z</time>
      </trkpt>
      <trkpt lat="45.02081" lon="6.49928">
        <ele>2663</ele>
        <time>2021-02-28T13:03:22Z</time>
      </trkpt>
      <trkpt lat="45.02081" lon="6.49928">
        <ele>2663.4</ele>
        <time>2021-02-28T13:03:23Z</time>
      </trkpt>
      <trkpt lat="45.02081" lon="6.49928">
        <ele>2663.4</ele>
        <time>2021-02-28T13:03:24Z</time>
      </trkpt>
      <trkpt lat="45.02081" lon="6.49928">
        <ele>2663.4</ele>
        <time>2021-02-28T13:03:25Z</time>
      </trkpt>
      <trkpt lat="45.02081" lon="6.49928">
        <ele>2663.4</ele>
        <time>2021-02-28T13:03:26Z</time>
      </trkpt>
      <trkpt lat="45.02081" lon="6.49928">
        <ele>2663.6</ele>
        <time>2021-02-28T13:03:27Z</time>
      </trkpt>
      <trkpt lat="45.02081" lon="6.49928">
        <ele>2663.4</ele>
        <time>2021-02-28T13:03:28Z</time>
      </trkpt>
      <trkpt lat="45.02081" lon="6.49928">
        <ele>2663.4</ele>
        <time>2021-02-28T13:03:29Z</time>
      </trkpt>
      <trkpt lat="45.02081" lon="6.49928">
        <ele>2663.6</ele>
        <time>2021-02-28T13:03:30Z</time>
      </trkpt>
      <trkpt lat="45.02081" lon="6.49928">
        <ele>2663.2</ele>
        <time>2021-02-28T13:03:31Z</time>
      </trkpt>
      <trkpt lat="45.02081" lon="6.49928">
        <ele>2663.4</ele>
        <time>2021-02-28T13:03:32Z</time>
      </trkpt>
      <trkpt lat="45.02081" lon="6.49928">
        <ele>2663.4</ele>
        <time>2021-02-28T13:03:33Z</time>
      </trkpt>
      <trkpt lat="45.02081" lon="6.49928">
        <ele>2663.2</ele>
        <time>2021-02-28T13:03:34Z</time>
      </trkpt>
      <trkpt lat="45.02081" lon="6.49928">
        <ele>2663.2</ele>
        <time>2021-02-28T13:03:35Z</time>
      </trkpt>
      <trkpt lat="45.02081" lon="6.49928">
        <ele>2663.2</ele>
        <time>2021-02-28T13:03:36Z</time>
      </trkpt>
      <trkpt lat="45.02081" lon="6.49928">
        <ele>2663.2</ele>
        <time>2021-02-28T13:03:37Z</time>
      </trkpt>
      <trkpt lat="45.02081" lon="6.49928">
        <ele>2663</ele>
        <time>2021-02-28T13:03:38Z</time>
      </trkpt>
      <trkpt lat="45.02081" lon="6.49928">
        <ele>2663</ele>
        <time>2021-02-28T13:03:39Z</time>
      </trkpt>
      <trkpt lat="45.02081" lon="6.49928">
        <ele>2663</ele>
        <time>2021-02-28T13:03:40Z</time>
      </trkpt>
      <trkpt lat="45.02081" lon="6.49928">
        <ele>2663.2</ele>
        <time>2021-02-28T13:03:41Z</time>
      </trkpt>
      <trkpt lat="45.02081" lon="6.49928">
        <ele>2663.2</ele>
        <time>2021-02-28T13:03:42Z</time>
      </trkpt>
      <trkpt lat="45.02081" lon="6.49928">
        <ele>2663</ele>
        <time>2021-02-28T13:03:43Z</time>
      </trkpt>
      <trkpt lat="45.02081" lon="6.49928">
        <ele>2663</ele>
        <time>2021-02-28T13:03:44Z</time>
      </trkpt>
      <trkpt lat="45.02081" lon="6.49928">
        <ele>2663</ele>
        <time>2021-02-28T13:03:45Z</time>
      </trkpt>
      <trkpt lat="45.02081" lon="6.49928">
        <ele>2663</ele>
        <time>2021-02-28T13:03:46Z</time>
      </trkpt>
      <trkpt lat="45.02081" lon="6.49928">
        <ele>2663</ele>
        <time>2021-02-28T13:03:47Z</time>
      </trkpt>
      <trkpt lat="45.02081" lon="6.49928">
        <ele>2663</ele>
        <time>2021-02-28T13:03:48Z</time>
      </trkpt>
      <trkpt lat="45.02081" lon="6.49928">
        <ele>2663.2</ele>
        <time>2021-02-28T13:03:49Z</time>
      </trkpt>
      <trkpt lat="45.02081" lon="6.49928">
        <ele>2663.6</ele>
        <time>2021-02-28T13:03:50Z</time>
      </trkpt>
      <trkpt lat="45.02081" lon="6.49928">
        <ele>2663.4</ele>
        <time>2021-02-28T13:03:51Z</time>
      </trkpt>
      <trkpt lat="45.02081" lon="6.49928">
        <ele>2663.6</ele>
        <time>2021-02-28T13:03:52Z</time>
      </trkpt>
      <trkpt lat="45.02081" lon="6.49928">
        <ele>2663.4</ele>
        <time>2021-02-28T13:03:53Z</time>
      </trkpt>
      <trkpt lat="45.02081" lon="6.49928">
        <ele>2663.2</ele>
        <time>2021-02-28T13:03:54Z</time>
      </trkpt>
      <trkpt lat="45.02081" lon="6.49928">
        <ele>2663</ele>
        <time>2021-02-28T13:03:55Z</time>
      </trkpt>
      <trkpt lat="45.02081" lon="6.49928">
        <ele>2663.2</ele>
        <time>2021-02-28T13:03:56Z</time>
      </trkpt>
      <trkpt lat="45.02081" lon="6.49928">
        <ele>2663.2</ele>
        <time>2021-02-28T13:03:57Z</time>
      </trkpt>
      <trkpt lat="45.02081" lon="6.49928">
        <ele>2663.2</ele>
        <time>2021-02-28T13:03:58Z</time>
      </trkpt>
      <trkpt lat="45.02081" lon="6.49928">
        <ele>2663.2</ele>
        <time>2021-02-28T13:03:59Z</time>
      </trkpt>
      <trkpt lat="45.02081" lon="6.49928">
        <ele>2663.2</ele>
        <time>2021-02-28T13:04:00Z</time>
      </trkpt>
      <trkpt lat="45.02081" lon="6.49928">
        <ele>2663.4</ele>
        <time>2021-02-28T13:04:01Z</time>
      </trkpt>
      <trkpt lat="45.02081" lon="6.49928">
        <ele>2663.6</ele>
        <time>2021-02-28T13:04:02Z</time>
      </trkpt>
      <trkpt lat="45.02081" lon="6.49928">
        <ele>2663.6</ele>
        <time>2021-02-28T13:04:03Z</time>
      </trkpt>
      <trkpt lat="45.02081" lon="6.49928">
        <ele>2663.4</ele>
        <time>2021-02-28T13:04:04Z</time>
      </trkpt>
      <trkpt lat="45.02081" lon="6.49928">
        <ele>2663.4</ele>
        <time>2021-02-28T13:04:05Z</time>
      </trkpt>
      <trkpt lat="45.02081" lon="6.49928">
        <ele>2663.2</ele>
        <time>2021-02-28T13:04:06Z</time>
      </trkpt>
      <trkpt lat="45.02081" lon="6.49928">
        <ele>2663.2</ele>
        <time>2021-02-28T13:04:07Z</time>
      </trkpt>
      <trkpt lat="45.02081" lon="6.49928">
        <ele>2663</ele>
        <time>2021-02-28T13:04:08Z</time>
      </trkpt>
      <trkpt lat="45.02081" lon="6.49928">
        <ele>2663</ele>
        <time>2021-02-28T13:04:09Z</time>
      </trkpt>
      <trkpt lat="45.02081" lon="6.49928">
        <ele>2663</ele>
        <time>2021-02-28T13:04:10Z</time>
      </trkpt>
      <trkpt lat="45.02081" lon="6.49928">
        <ele>2663</ele>
        <time>2021-02-28T13:04:11Z</time>
      </trkpt>
      <trkpt lat="45.02081" lon="6.49928">
        <ele>2663</ele>
        <time>2021-02-28T13:04:12Z</time>
      </trkpt>
      <trkpt lat="45.02081" lon="6.49928">
        <ele>2663</ele>
        <time>2021-02-28T13:04:13Z</time>
      </trkpt>
      <trkpt lat="45.02081" lon="6.49928">
        <ele>2662.8</ele>
        <time>2021-02-28T13:04:14Z</time>
      </trkpt>
      <trkpt lat="45.02081" lon="6.49928">
        <ele>2663</ele>
        <time>2021-02-28T13:04:15Z</time>
      </trkpt>
      <trkpt lat="45.02081" lon="6.49928">
        <ele>2663</ele>
        <time>2021-02-28T13:04:16Z</time>
      </trkpt>
      <trkpt lat="45.02081" lon="6.49928">
        <ele>2662.8</ele>
        <time>2021-02-28T13:04:17Z</time>
      </trkpt>
      <trkpt lat="45.02081" lon="6.49928">
        <ele>2662.8</ele>
        <time>2021-02-28T13:04:18Z</time>
      </trkpt>
      <trkpt lat="45.02081" lon="6.49928">
        <ele>2662.4</ele>
        <time>2021-02-28T13:04:19Z</time>
      </trkpt>
      <trkpt lat="45.02081" lon="6.49928">
        <ele>2662.4</ele>
        <time>2021-02-28T13:04:20Z</time>
      </trkpt>
      <trkpt lat="45.02081" lon="6.49928">
        <ele>2662.4</ele>
        <time>2021-02-28T13:04:21Z</time>
      </trkpt>
      <trkpt lat="45.02081" lon="6.49928">
        <ele>2662.4</ele>
        <time>2021-02-28T13:04:22Z</time>
      </trkpt>
      <trkpt lat="45.02081" lon="6.49928">
        <ele>2662.2</ele>
        <time>2021-02-28T13:04:23Z</time>
      </trkpt>
      <trkpt lat="45.02081" lon="6.49928">
        <ele>2662.2</ele>
        <time>2021-02-28T13:04:24Z</time>
      </trkpt>
      <trkpt lat="45.02081" lon="6.49928">
        <ele>2661.8</ele>
        <time>2021-02-28T13:04:25Z</time>
      </trkpt>
      <trkpt lat="45.02081" lon="6.49928">
        <ele>2661.8</ele>
        <time>2021-02-28T13:04:26Z</time>
      </trkpt>
      <trkpt lat="45.02081" lon="6.49928">
        <ele>2662</ele>
        <time>2021-02-28T13:04:27Z</time>
      </trkpt>
      <trkpt lat="45.02081" lon="6.49928">
        <ele>2662.2</ele>
        <time>2021-02-28T13:04:28Z</time>
      </trkpt>
      <trkpt lat="45.02081" lon="6.49928">
        <ele>2662</ele>
        <time>2021-02-28T13:04:29Z</time>
      </trkpt>
      <trkpt lat="45.02081" lon="6.49928">
        <ele>2662.2</ele>
        <time>2021-02-28T13:04:30Z</time>
      </trkpt>
      <trkpt lat="45.02081" lon="6.49928">
        <ele>2662.4</ele>
        <time>2021-02-28T13:04:31Z</time>
      </trkpt>
      <trkpt lat="45.02081" lon="6.49928">
        <ele>2662.6</ele>
        <time>2021-02-28T13:04:32Z</time>
      </trkpt>
      <trkpt lat="45.02081" lon="6.49928">
        <ele>2662.4</ele>
        <time>2021-02-28T13:04:33Z</time>
      </trkpt>
      <trkpt lat="45.02081" lon="6.49928">
        <ele>2662.2</ele>
        <time>2021-02-28T13:04:34Z</time>
      </trkpt>
      <trkpt lat="45.02081" lon="6.49928">
        <ele>2662.2</ele>
        <time>2021-02-28T13:04:35Z</time>
      </trkpt>
      <trkpt lat="45.02081" lon="6.49928">
        <ele>2662</ele>
        <time>2021-02-28T13:04:36Z</time>
      </trkpt>
      <trkpt lat="45.02081" lon="6.49928">
        <ele>2662.2</ele>
        <time>2021-02-28T13:04:37Z</time>
      </trkpt>
      <trkpt lat="45.02081" lon="6.49928">
        <ele>2662.4</ele>
        <time>2021-02-28T13:04:38Z</time>
      </trkpt>
      <trkpt lat="45.02081" lon="6.49928">
        <ele>2662.2</ele>
        <time>2021-02-28T13:04:39Z</time>
      </trkpt>
      <trkpt lat="45.02081" lon="6.49928">
        <ele>2662</ele>
        <time>2021-02-28T13:04:40Z</time>
      </trkpt>
      <trkpt lat="45.02081" lon="6.49928">
        <ele>2662</ele>
        <time>2021-02-28T13:04:41Z</time>
      </trkpt>
      <trkpt lat="45.02081" lon="6.49928">
        <ele>2662</ele>
        <time>2021-02-28T13:04:42Z</time>
      </trkpt>
      <trkpt lat="45.02081" lon="6.49928">
        <ele>2662</ele>
        <time>2021-02-28T13:04:43Z</time>
      </trkpt>
      <trkpt lat="45.02081" lon="6.49928">
        <ele>2662</ele>
        <time>2021-02-28T13:04:44Z</time>
      </trkpt>
      <trkpt lat="45.02081" lon="6.49928">
        <ele>2661.8</ele>
        <time>2021-02-28T13:04:45Z</time>
      </trkpt>
      <trkpt lat="45.02081" lon="6.49928">
        <ele>2661.6</ele>
        <time>2021-02-28T13:04:46Z</time>
      </trkpt>
      <trkpt lat="45.02081" lon="6.49928">
        <ele>2661.8</ele>
        <time>2021-02-28T13:04:47Z</time>
      </trkpt>
      <trkpt lat="45.02081" lon="6.49928">
        <ele>2661.8</ele>
        <time>2021-02-28T13:04:48Z</time>
      </trkpt>
      <trkpt lat="45.02081" lon="6.49928">
        <ele>2662</ele>
        <time>2021-02-28T13:04:49Z</time>
      </trkpt>
      <trkpt lat="45.02081" lon="6.49928">
        <ele>2662.2</ele>
        <time>2021-02-28T13:04:50Z</time>
      </trkpt>
      <trkpt lat="45.02081" lon="6.49928">
        <ele>2662.2</ele>
        <time>2021-02-28T13:04:51Z</time>
      </trkpt>
      <trkpt lat="45.02081" lon="6.49928">
        <ele>2662.2</ele>
        <time>2021-02-28T13:04:52Z</time>
      </trkpt>
      <trkpt lat="45.02081" lon="6.49928">
        <ele>2662.2</ele>
        <time>2021-02-28T13:04:53Z</time>
      </trkpt>
      <trkpt lat="45.02081" lon="6.49928">
        <ele>2662</ele>
        <time>2021-02-28T13:04:54Z</time>
      </trkpt>
      <trkpt lat="45.02081" lon="6.49928">
        <ele>2662</ele>
        <time>2021-02-28T13:04:55Z</time>
      </trkpt>
      <trkpt lat="45.02081" lon="6.49928">
        <ele>2661.6</ele>
        <time>2021-02-28T13:04:56Z</time>
      </trkpt>
      <trkpt lat="45.02081" lon="6.49928">
        <ele>2661.8</ele>
        <time>2021-02-28T13:04:57Z</time>
      </trkpt>
      <trkpt lat="45.02081" lon="6.49928">
        <ele>2661.6</ele>
        <time>2021-02-28T13:04:58Z</time>
      </trkpt>
      <trkpt lat="45.02081" lon="6.49928">
        <ele>2661.8</ele>
        <time>2021-02-28T13:04:59Z</time>
      </trkpt>
      <trkpt lat="45.02081" lon="6.49928">
        <ele>2662</ele>
        <time>2021-02-28T13:05:00Z</time>
      </trkpt>
      <trkpt lat="45.02081" lon="6.49928">
        <ele>2661.8</ele>
        <time>2021-02-28T13:05:01Z</time>
      </trkpt>
      <trkpt lat="45.02081" lon="6.49928">
        <ele>2662</ele>
        <time>2021-02-28T13:05:02Z</time>
      </trkpt>
      <trkpt lat="45.02081" lon="6.49928">
        <ele>2662.2</ele>
        <time>2021-02-28T13:05:03Z</time>
      </trkpt>
      <trkpt lat="45.02081" lon="6.49928">
        <ele>2662</ele>
        <time>2021-02-28T13:05:04Z</time>
      </trkpt>
      <trkpt lat="45.02079" lon="6.49929">
        <ele>2662.4</ele>
        <time>2021-02-28T13:05:05Z</time>
      </trkpt>
      <trkpt lat="45.02079" lon="6.49929">
        <ele>2662.4</ele>
        <time>2021-02-28T13:05:06Z</time>
      </trkpt>
      <trkpt lat="45.02079" lon="6.49929">
        <ele>2662.6</ele>
        <time>2021-02-28T13:05:07Z</time>
      </trkpt>
      <trkpt lat="45.02079" lon="6.49929">
        <ele>2662.4</ele>
        <time>2021-02-28T13:05:08Z</time>
      </trkpt>
      <trkpt lat="45.02079" lon="6.49929">
        <ele>2662.8</ele>
        <time>2021-02-28T13:05:09Z</time>
      </trkpt>
      <trkpt lat="45.02078" lon="6.4993">
        <ele>2662.8</ele>
        <time>2021-02-28T13:05:10Z</time>
      </trkpt>
      <trkpt lat="45.02078" lon="6.4993">
        <ele>2662.6</ele>
        <time>2021-02-28T13:05:11Z</time>
      </trkpt>
      <trkpt lat="45.02078" lon="6.4993">
        <ele>2662.2</ele>
        <time>2021-02-28T13:05:12Z</time>
      </trkpt>
      <trkpt lat="45.02078" lon="6.4993">
        <ele>2662.4</ele>
        <time>2021-02-28T13:05:13Z</time>
      </trkpt>
      <trkpt lat="45.02078" lon="6.4993">
        <ele>2662.6</ele>
        <time>2021-02-28T13:05:14Z</time>
      </trkpt>
      <trkpt lat="45.02078" lon="6.4993">
        <ele>2662.4</ele>
        <time>2021-02-28T13:05:15Z</time>
      </trkpt>
      <trkpt lat="45.02078" lon="6.4993">
        <ele>2662.4</ele>
        <time>2021-02-28T13:05:16Z</time>
      </trkpt>
      <trkpt lat="45.02078" lon="6.4993">
        <ele>2662.4</ele>
        <time>2021-02-28T13:05:17Z</time>
      </trkpt>
      <trkpt lat="45.02078" lon="6.4993">
        <ele>2662.4</ele>
        <time>2021-02-28T13:05:18Z</time>
      </trkpt>
      <trkpt lat="45.02078" lon="6.4993">
        <ele>2662.4</ele>
        <time>2021-02-28T13:05:19Z</time>
      </trkpt>
      <trkpt lat="45.02078" lon="6.4993">
        <ele>2662.4</ele>
        <time>2021-02-28T13:05:20Z</time>
      </trkpt>
      <trkpt lat="45.02078" lon="6.4993">
        <ele>2662.4</ele>
        <time>2021-02-28T13:05:21Z</time>
      </trkpt>
      <trkpt lat="45.02078" lon="6.4993">
        <ele>2662.2</ele>
        <time>2021-02-28T13:05:22Z</time>
      </trkpt>
      <trkpt lat="45.02078" lon="6.4993">
        <ele>2662.2</ele>
        <time>2021-02-28T13:05:23Z</time>
      </trkpt>
      <trkpt lat="45.02078" lon="6.4993">
        <ele>2662.4</ele>
        <time>2021-02-28T13:05:24Z</time>
      </trkpt>
      <trkpt lat="45.02078" lon="6.4993">
        <ele>2662.2</ele>
        <time>2021-02-28T13:05:25Z</time>
      </trkpt>
      <trkpt lat="45.02078" lon="6.4993">
        <ele>2662.2</ele>
        <time>2021-02-28T13:05:26Z</time>
      </trkpt>
      <trkpt lat="45.02078" lon="6.4993">
        <ele>2662</ele>
        <time>2021-02-28T13:05:27Z</time>
      </trkpt>
      <trkpt lat="45.02078" lon="6.4993">
        <ele>2661.8</ele>
        <time>2021-02-28T13:05:28Z</time>
      </trkpt>
      <trkpt lat="45.02078" lon="6.4993">
        <ele>2662</ele>
        <time>2021-02-28T13:05:29Z</time>
      </trkpt>
      <trkpt lat="45.02078" lon="6.4993">
        <ele>2662</ele>
        <time>2021-02-28T13:05:30Z</time>
      </trkpt>
      <trkpt lat="45.02078" lon="6.4993">
        <ele>2661.8</ele>
        <time>2021-02-28T13:05:31Z</time>
      </trkpt>
      <trkpt lat="45.02078" lon="6.4993">
        <ele>2661.4</ele>
        <time>2021-02-28T13:05:32Z</time>
      </trkpt>
      <trkpt lat="45.02078" lon="6.4993">
        <ele>2661.4</ele>
        <time>2021-02-28T13:05:33Z</time>
      </trkpt>
      <trkpt lat="45.02078" lon="6.4993">
        <ele>2661.4</ele>
        <time>2021-02-28T13:05:34Z</time>
      </trkpt>
      <trkpt lat="45.02078" lon="6.4993">
        <ele>2661.4</ele>
        <time>2021-02-28T13:05:35Z</time>
      </trkpt>
      <trkpt lat="45.02078" lon="6.4993">
        <ele>2661.4</ele>
        <time>2021-02-28T13:05:36Z</time>
      </trkpt>
      <trkpt lat="45.02078" lon="6.4993">
        <ele>2661.4</ele>
        <time>2021-02-28T13:05:37Z</time>
      </trkpt>
      <trkpt lat="45.02078" lon="6.4993">
        <ele>2661.6</ele>
        <time>2021-02-28T13:05:38Z</time>
      </trkpt>
      <trkpt lat="45.02078" lon="6.4993">
        <ele>2661.8</ele>
        <time>2021-02-28T13:05:39Z</time>
      </trkpt>
      <trkpt lat="45.02078" lon="6.4993">
        <ele>2661.6</ele>
        <time>2021-02-28T13:05:40Z</time>
      </trkpt>
      <trkpt lat="45.02078" lon="6.4993">
        <ele>2661.4</ele>
        <time>2021-02-28T13:05:41Z</time>
      </trkpt>
      <trkpt lat="45.02078" lon="6.4993">
        <ele>2661.4</ele>
        <time>2021-02-28T13:05:42Z</time>
      </trkpt>
      <trkpt lat="45.02078" lon="6.4993">
        <ele>2661.8</ele>
        <time>2021-02-28T13:05:43Z</time>
      </trkpt>
      <trkpt lat="45.02078" lon="6.4993">
        <ele>2661.8</ele>
        <time>2021-02-28T13:05:44Z</time>
      </trkpt>
      <trkpt lat="45.02078" lon="6.4993">
        <ele>2662.2</ele>
        <time>2021-02-28T13:05:45Z</time>
      </trkpt>
      <trkpt lat="45.02078" lon="6.4993">
        <ele>2662.2</ele>
        <time>2021-02-28T13:05:46Z</time>
      </trkpt>
      <trkpt lat="45.02078" lon="6.4993">
        <ele>2662.2</ele>
        <time>2021-02-28T13:05:47Z</time>
      </trkpt>
      <trkpt lat="45.02078" lon="6.4993">
        <ele>2661.8</ele>
        <time>2021-02-28T13:05:48Z</time>
      </trkpt>
      <trkpt lat="45.02076" lon="6.49931">
        <ele>2662</ele>
        <time>2021-02-28T13:05:49Z</time>
      </trkpt>
      <trkpt lat="45.02076" lon="6.49931">
        <ele>2661.8</ele>
        <time>2021-02-28T13:05:50Z</time>
      </trkpt>
      <trkpt lat="45.02074" lon="6.49932">
        <ele>2661.6</ele>
        <time>2021-02-28T13:05:51Z</time>
      </trkpt>
      <trkpt lat="45.02074" lon="6.49932">
        <ele>2661.4</ele>
        <time>2021-02-28T13:05:52Z</time>
      </trkpt>
      <trkpt lat="45.02071" lon="6.49933">
        <ele>2661.2</ele>
        <time>2021-02-28T13:05:53Z</time>
      </trkpt>
      <trkpt lat="45.02071" lon="6.49933">
        <ele>2661.4</ele>
        <time>2021-02-28T13:05:54Z</time>
      </trkpt>
      <trkpt lat="45.02068" lon="6.49934">
        <ele>2660.8</ele>
        <time>2021-02-28T13:05:55Z</time>
      </trkpt>
      <trkpt lat="45.02066" lon="6.49935">
        <ele>2660.8</ele>
        <time>2021-02-28T13:05:56Z</time>
      </trkpt>
      <trkpt lat="45.02063" lon="6.49936">
        <ele>2660.6</ele>
        <time>2021-02-28T13:05:57Z</time>
      </trkpt>
      <trkpt lat="45.02062" lon="6.49937">
        <ele>2660.2</ele>
        <time>2021-02-28T13:05:58Z</time>
      </trkpt>
      <trkpt lat="45.0206" lon="6.49938">
        <ele>2659.4</ele>
        <time>2021-02-28T13:05:59Z</time>
      </trkpt>
      <trkpt lat="45.02058" lon="6.49938">
        <ele>2659.4</ele>
        <time>2021-02-28T13:06:00Z</time>
      </trkpt>
      <trkpt lat="45.02055" lon="6.49939">
        <ele>2659.4</ele>
        <time>2021-02-28T13:06:01Z</time>
      </trkpt>
      <trkpt lat="45.02053" lon="6.49941">
        <ele>2659</ele>
        <time>2021-02-28T13:06:02Z</time>
      </trkpt>
      <trkpt lat="45.02051" lon="6.49942">
        <ele>2658.6</ele>
        <time>2021-02-28T13:06:03Z</time>
      </trkpt>
      <trkpt lat="45.02049" lon="6.49942">
        <ele>2658</ele>
        <time>2021-02-28T13:06:04Z</time>
      </trkpt>
      <trkpt lat="45.02049" lon="6.49942">
        <ele>2658.2</ele>
        <time>2021-02-28T13:06:05Z</time>
      </trkpt>
      <trkpt lat="45.02046" lon="6.49944">
        <ele>2658.4</ele>
        <time>2021-02-28T13:06:06Z</time>
      </trkpt>
      <trkpt lat="45.02046" lon="6.49944">
        <ele>2658.4</ele>
        <time>2021-02-28T13:06:07Z</time>
      </trkpt>
      <trkpt lat="45.02043" lon="6.49945">
        <ele>2658.4</ele>
        <time>2021-02-28T13:06:08Z</time>
      </trkpt>
      <trkpt lat="45.02043" lon="6.49945">
        <ele>2658.4</ele>
        <time>2021-02-28T13:06:09Z</time>
      </trkpt>
      <trkpt lat="45.02041" lon="6.49947">
        <ele>2658</ele>
        <time>2021-02-28T13:06:10Z</time>
      </trkpt>
      <trkpt lat="45.02041" lon="6.49947">
        <ele>2658.2</ele>
        <time>2021-02-28T13:06:11Z</time>
      </trkpt>
      <trkpt lat="45.02039" lon="6.49947">
        <ele>2658.4</ele>
        <time>2021-02-28T13:06:12Z</time>
      </trkpt>
      <trkpt lat="45.02039" lon="6.49947">
        <ele>2658.6</ele>
        <time>2021-02-28T13:06:13Z</time>
      </trkpt>
      <trkpt lat="45.02037" lon="6.49949">
        <ele>2658.8</ele>
        <time>2021-02-28T13:06:14Z</time>
      </trkpt>
      <trkpt lat="45.02037" lon="6.49949">
        <ele>2658.8</ele>
        <time>2021-02-28T13:06:15Z</time>
      </trkpt>
      <trkpt lat="45.02035" lon="6.4995">
        <ele>2659</ele>
        <time>2021-02-28T13:06:16Z</time>
      </trkpt>
      <trkpt lat="45.02035" lon="6.4995">
        <ele>2659</ele>
        <time>2021-02-28T13:06:17Z</time>
      </trkpt>
      <trkpt lat="45.02033" lon="6.49951">
        <ele>2658.8</ele>
        <time>2021-02-28T13:06:18Z</time>
      </trkpt>
      <trkpt lat="45.02033" lon="6.49951">
        <ele>2659</ele>
        <time>2021-02-28T13:06:19Z</time>
      </trkpt>
      <trkpt lat="45.02031" lon="6.49952">
        <ele>2659</ele>
        <time>2021-02-28T13:06:20Z</time>
      </trkpt>
      <trkpt lat="45.02031" lon="6.49952">
        <ele>2658.6</ele>
        <time>2021-02-28T13:06:21Z</time>
      </trkpt>
      <trkpt lat="45.02029" lon="6.49953">
        <ele>2658.8</ele>
        <time>2021-02-28T13:06:22Z</time>
      </trkpt>
      <trkpt lat="45.02029" lon="6.49953">
        <ele>2658.6</ele>
        <time>2021-02-28T13:06:23Z</time>
      </trkpt>
      <trkpt lat="45.02026" lon="6.49954">
        <ele>2658.6</ele>
        <time>2021-02-28T13:06:24Z</time>
      </trkpt>
      <trkpt lat="45.02026" lon="6.49954">
        <ele>2658.8</ele>
        <time>2021-02-28T13:06:25Z</time>
      </trkpt>
      <trkpt lat="45.02024" lon="6.49955">
        <ele>2659</ele>
        <time>2021-02-28T13:06:26Z</time>
      </trkpt>
      <trkpt lat="45.02024" lon="6.49955">
        <ele>2658.8</ele>
        <time>2021-02-28T13:06:27Z</time>
      </trkpt>
      <trkpt lat="45.02022" lon="6.49956">
        <ele>2659</ele>
        <time>2021-02-28T13:06:28Z</time>
      </trkpt>
      <trkpt lat="45.02022" lon="6.49956">
        <ele>2659.2</ele>
        <time>2021-02-28T13:06:29Z</time>
      </trkpt>
      <trkpt lat="45.02019" lon="6.49956">
        <ele>2659.2</ele>
        <time>2021-02-28T13:06:30Z</time>
      </trkpt>
      <trkpt lat="45.02019" lon="6.49956">
        <ele>2659</ele>
        <time>2021-02-28T13:06:31Z</time>
      </trkpt>
      <trkpt lat="45.02016" lon="6.49956">
        <ele>2658.4</ele>
        <time>2021-02-28T13:06:32Z</time>
      </trkpt>
      <trkpt lat="45.02016" lon="6.49956">
        <ele>2658.2</ele>
        <time>2021-02-28T13:06:33Z</time>
      </trkpt>
      <trkpt lat="45.02014" lon="6.49957">
        <ele>2657.6</ele>
        <time>2021-02-28T13:06:34Z</time>
      </trkpt>
      <trkpt lat="45.02014" lon="6.49957">
        <ele>2658.2</ele>
        <time>2021-02-28T13:06:35Z</time>
      </trkpt>
      <trkpt lat="45.02012" lon="6.49958">
        <ele>2658.4</ele>
        <time>2021-02-28T13:06:36Z</time>
      </trkpt>
      <trkpt lat="45.02012" lon="6.49958">
        <ele>2658.8</ele>
        <time>2021-02-28T13:06:37Z</time>
      </trkpt>
      <trkpt lat="45.02011" lon="6.49959">
        <ele>2659</ele>
        <time>2021-02-28T13:06:38Z</time>
      </trkpt>
      <trkpt lat="45.02011" lon="6.49959">
        <ele>2659</ele>
        <time>2021-02-28T13:06:39Z</time>
      </trkpt>
      <trkpt lat="45.02008" lon="6.4996">
        <ele>2658.2</ele>
        <time>2021-02-28T13:06:40Z</time>
      </trkpt>
      <trkpt lat="45.02008" lon="6.4996">
        <ele>2659</ele>
        <time>2021-02-28T13:06:41Z</time>
      </trkpt>
      <trkpt lat="45.02008" lon="6.4996">
        <ele>2659</ele>
        <time>2021-02-28T13:06:42Z</time>
      </trkpt>
      <trkpt lat="45.02005" lon="6.49961">
        <ele>2658.6</ele>
        <time>2021-02-28T13:06:43Z</time>
      </trkpt>
      <trkpt lat="45.02005" lon="6.49961">
        <ele>2659.2</ele>
        <time>2021-02-28T13:06:44Z</time>
      </trkpt>
      <trkpt lat="45.02003" lon="6.49961">
        <ele>2659.4</ele>
        <time>2021-02-28T13:06:45Z</time>
      </trkpt>
      <trkpt lat="45.02003" lon="6.49961">
        <ele>2659.6</ele>
        <time>2021-02-28T13:06:46Z</time>
      </trkpt>
      <trkpt lat="45.02001" lon="6.49961">
        <ele>2659.8</ele>
        <time>2021-02-28T13:06:47Z</time>
      </trkpt>
      <trkpt lat="45.02001" lon="6.49961">
        <ele>2659.6</ele>
        <time>2021-02-28T13:06:48Z</time>
      </trkpt>
      <trkpt lat="45.01999" lon="6.49961">
        <ele>2659.6</ele>
        <time>2021-02-28T13:06:49Z</time>
      </trkpt>
      <trkpt lat="45.01999" lon="6.49961">
        <ele>2659.6</ele>
        <time>2021-02-28T13:06:50Z</time>
      </trkpt>
      <trkpt lat="45.01997" lon="6.49962">
        <ele>2659.4</ele>
        <time>2021-02-28T13:06:51Z</time>
      </trkpt>
      <trkpt lat="45.01997" lon="6.49962">
        <ele>2659.8</ele>
        <time>2021-02-28T13:06:52Z</time>
      </trkpt>
      <trkpt lat="45.01995" lon="6.49962">
        <ele>2660.4</ele>
        <time>2021-02-28T13:06:53Z</time>
      </trkpt>
      <trkpt lat="45.01995" lon="6.49962">
        <ele>2660.8</ele>
        <time>2021-02-28T13:06:54Z</time>
      </trkpt>
      <trkpt lat="45.01993" lon="6.49963">
        <ele>2661</ele>
        <time>2021-02-28T13:06:55Z</time>
      </trkpt>
      <trkpt lat="45.01993" lon="6.49963">
        <ele>2661</ele>
        <time>2021-02-28T13:06:56Z</time>
      </trkpt>
      <trkpt lat="45.01993" lon="6.49963">
        <ele>2661.2</ele>
        <time>2021-02-28T13:06:57Z</time>
      </trkpt>
      <trkpt lat="45.01991" lon="6.49963">
        <ele>2661.4</ele>
        <time>2021-02-28T13:06:58Z</time>
      </trkpt>
      <trkpt lat="45.01991" lon="6.49963">
        <ele>2661.8</ele>
        <time>2021-02-28T13:06:59Z</time>
      </trkpt>
      <trkpt lat="45.01991" lon="6.49963">
        <ele>2662.2</ele>
        <time>2021-02-28T13:07:00Z</time>
      </trkpt>
      <trkpt lat="45.01991" lon="6.49963">
        <ele>2662.4</ele>
        <time>2021-02-28T13:07:01Z</time>
      </trkpt>
      <trkpt lat="45.01987" lon="6.49962">
        <ele>2662.4</ele>
        <time>2021-02-28T13:07:02Z</time>
      </trkpt>
      <trkpt lat="45.01987" lon="6.49962">
        <ele>2662.8</ele>
        <time>2021-02-28T13:07:03Z</time>
      </trkpt>
      <trkpt lat="45.01987" lon="6.49962">
        <ele>2662.8</ele>
        <time>2021-02-28T13:07:04Z</time>
      </trkpt>
      <trkpt lat="45.01986" lon="6.49962">
        <ele>2663</ele>
        <time>2021-02-28T13:07:05Z</time>
      </trkpt>
      <trkpt lat="45.01986" lon="6.49962">
        <ele>2662.4</ele>
        <time>2021-02-28T13:07:06Z</time>
      </trkpt>
      <trkpt lat="45.01986" lon="6.49962">
        <ele>2662.4</ele>
        <time>2021-02-28T13:07:07Z</time>
      </trkpt>
      <trkpt lat="45.01984" lon="6.49961">
        <ele>2662.4</ele>
        <time>2021-02-28T13:07:08Z</time>
      </trkpt>
      <trkpt lat="45.01984" lon="6.49961">
        <ele>2662.4</ele>
        <time>2021-02-28T13:07:09Z</time>
      </trkpt>
      <trkpt lat="45.01984" lon="6.49961">
        <ele>2662.8</ele>
        <time>2021-02-28T13:07:10Z</time>
      </trkpt>
      <trkpt lat="45.01984" lon="6.49961">
        <ele>2663.2</ele>
        <time>2021-02-28T13:07:11Z</time>
      </trkpt>
      <trkpt lat="45.01984" lon="6.49961">
        <ele>2663.4</ele>
        <time>2021-02-28T13:07:12Z</time>
      </trkpt>
      <trkpt lat="45.01982" lon="6.49962">
        <ele>2663.6</ele>
        <time>2021-02-28T13:07:13Z</time>
      </trkpt>
      <trkpt lat="45.01982" lon="6.49962">
        <ele>2664</ele>
        <time>2021-02-28T13:07:14Z</time>
      </trkpt>
      <trkpt lat="45.01982" lon="6.49962">
        <ele>2664.2</ele>
        <time>2021-02-28T13:07:15Z</time>
      </trkpt>
      <trkpt lat="45.01982" lon="6.49962">
        <ele>2664.4</ele>
        <time>2021-02-28T13:07:16Z</time>
      </trkpt>
      <trkpt lat="45.0198" lon="6.49963">
        <ele>2664.2</ele>
        <time>2021-02-28T13:07:17Z</time>
      </trkpt>
      <trkpt lat="45.0198" lon="6.49963">
        <ele>2664</ele>
        <time>2021-02-28T13:07:18Z</time>
      </trkpt>
      <trkpt lat="45.0198" lon="6.49963">
        <ele>2664.8</ele>
        <time>2021-02-28T13:07:19Z</time>
      </trkpt>
      <trkpt lat="45.01978" lon="6.49963">
        <ele>2665</ele>
        <time>2021-02-28T13:07:20Z</time>
      </trkpt>
      <trkpt lat="45.01978" lon="6.49963">
        <ele>2664.6</ele>
        <time>2021-02-28T13:07:21Z</time>
      </trkpt>
      <trkpt lat="45.01978" lon="6.49963">
        <ele>2664.6</ele>
        <time>2021-02-28T13:07:22Z</time>
      </trkpt>
      <trkpt lat="45.01975" lon="6.49963">
        <ele>2664.8</ele>
        <time>2021-02-28T13:07:23Z</time>
      </trkpt>
      <trkpt lat="45.01975" lon="6.49963">
        <ele>2665</ele>
        <time>2021-02-28T13:07:24Z</time>
      </trkpt>
      <trkpt lat="45.01975" lon="6.49963">
        <ele>2665.2</ele>
        <time>2021-02-28T13:07:25Z</time>
      </trkpt>
      <trkpt lat="45.01973" lon="6.49963">
        <ele>2665.2</ele>
        <time>2021-02-28T13:07:26Z</time>
      </trkpt>
      <trkpt lat="45.01973" lon="6.49963">
        <ele>2665.4</ele>
        <time>2021-02-28T13:07:27Z</time>
      </trkpt>
      <trkpt lat="45.01973" lon="6.49963">
        <ele>2665.4</ele>
        <time>2021-02-28T13:07:28Z</time>
      </trkpt>
      <trkpt lat="45.01971" lon="6.49963">
        <ele>2665.6</ele>
        <time>2021-02-28T13:07:29Z</time>
      </trkpt>
      <trkpt lat="45.01971" lon="6.49963">
        <ele>2665.6</ele>
        <time>2021-02-28T13:07:30Z</time>
      </trkpt>
      <trkpt lat="45.01971" lon="6.49963">
        <ele>2666</ele>
        <time>2021-02-28T13:07:31Z</time>
      </trkpt>
      <trkpt lat="45.0197" lon="6.49964">
        <ele>2666</ele>
        <time>2021-02-28T13:07:32Z</time>
      </trkpt>
      <trkpt lat="45.0197" lon="6.49964">
        <ele>2666</ele>
        <time>2021-02-28T13:07:33Z</time>
      </trkpt>
      <trkpt lat="45.0197" lon="6.49964">
        <ele>2666</ele>
        <time>2021-02-28T13:07:34Z</time>
      </trkpt>
      <trkpt lat="45.01967" lon="6.49965">
        <ele>2666</ele>
        <time>2021-02-28T13:07:35Z</time>
      </trkpt>
      <trkpt lat="45.01967" lon="6.49965">
        <ele>2666</ele>
        <time>2021-02-28T13:07:36Z</time>
      </trkpt>
      <trkpt lat="45.01967" lon="6.49965">
        <ele>2666.2</ele>
        <time>2021-02-28T13:07:37Z</time>
      </trkpt>
      <trkpt lat="45.01965" lon="6.49967">
        <ele>2666.4</ele>
        <time>2021-02-28T13:07:38Z</time>
      </trkpt>
      <trkpt lat="45.01965" lon="6.49967">
        <ele>2667</ele>
        <time>2021-02-28T13:07:39Z</time>
      </trkpt>
      <trkpt lat="45.01965" lon="6.49967">
        <ele>2667</ele>
        <time>2021-02-28T13:07:40Z</time>
      </trkpt>
      <trkpt lat="45.01963" lon="6.49967">
        <ele>2667</ele>
        <time>2021-02-28T13:07:41Z</time>
      </trkpt>
      <trkpt lat="45.01963" lon="6.49967">
        <ele>2667.2</ele>
        <time>2021-02-28T13:07:42Z</time>
      </trkpt>
      <trkpt lat="45.01963" lon="6.49967">
        <ele>2667.4</ele>
        <time>2021-02-28T13:07:43Z</time>
      </trkpt>
      <trkpt lat="45.01963" lon="6.49967">
        <ele>2667.4</ele>
        <time>2021-02-28T13:07:44Z</time>
      </trkpt>
      <trkpt lat="45.01961" lon="6.49967">
        <ele>2667.6</ele>
        <time>2021-02-28T13:07:45Z</time>
      </trkpt>
      <trkpt lat="45.01961" lon="6.49967">
        <ele>2667.8</ele>
        <time>2021-02-28T13:07:46Z</time>
      </trkpt>
      <trkpt lat="45.01961" lon="6.49967">
        <ele>2668.2</ele>
        <time>2021-02-28T13:07:47Z</time>
      </trkpt>
      <trkpt lat="45.01961" lon="6.49967">
        <ele>2668.4</ele>
        <time>2021-02-28T13:07:48Z</time>
      </trkpt>
      <trkpt lat="45.01959" lon="6.49967">
        <ele>2668.6</ele>
        <time>2021-02-28T13:07:49Z</time>
      </trkpt>
      <trkpt lat="45.01959" lon="6.49967">
        <ele>2669</ele>
        <time>2021-02-28T13:07:50Z</time>
      </trkpt>
      <trkpt lat="45.01959" lon="6.49967">
        <ele>2669</ele>
        <time>2021-02-28T13:07:51Z</time>
      </trkpt>
      <trkpt lat="45.01957" lon="6.49967">
        <ele>2669</ele>
        <time>2021-02-28T13:07:52Z</time>
      </trkpt>
      <trkpt lat="45.01957" lon="6.49967">
        <ele>2668.8</ele>
        <time>2021-02-28T13:07:53Z</time>
      </trkpt>
      <trkpt lat="45.01957" lon="6.49967">
        <ele>2669.4</ele>
        <time>2021-02-28T13:07:54Z</time>
      </trkpt>
      <trkpt lat="45.01957" lon="6.49967">
        <ele>2669.6</ele>
        <time>2021-02-28T13:07:55Z</time>
      </trkpt>
      <trkpt lat="45.01957" lon="6.49967">
        <ele>2669.8</ele>
        <time>2021-02-28T13:07:56Z</time>
      </trkpt>
      <trkpt lat="45.01955" lon="6.49968">
        <ele>2670</ele>
        <time>2021-02-28T13:07:57Z</time>
      </trkpt>
      <trkpt lat="45.01955" lon="6.49968">
        <ele>2670.2</ele>
        <time>2021-02-28T13:07:58Z</time>
      </trkpt>
      <trkpt lat="45.01955" lon="6.49968">
        <ele>2670.8</ele>
        <time>2021-02-28T13:07:59Z</time>
      </trkpt>
      <trkpt lat="45.01955" lon="6.49968">
        <ele>2671</ele>
        <time>2021-02-28T13:08:00Z</time>
      </trkpt>
      <trkpt lat="45.01953" lon="6.49968">
        <ele>2671</ele>
        <time>2021-02-28T13:08:01Z</time>
      </trkpt>
      <trkpt lat="45.01953" lon="6.49968">
        <ele>2671</ele>
        <time>2021-02-28T13:08:02Z</time>
      </trkpt>
      <trkpt lat="45.01953" lon="6.49968">
        <ele>2670.8</ele>
        <time>2021-02-28T13:08:03Z</time>
      </trkpt>
      <trkpt lat="45.01953" lon="6.49968">
        <ele>2670.8</ele>
        <time>2021-02-28T13:08:04Z</time>
      </trkpt>
      <trkpt lat="45.01951" lon="6.49968">
        <ele>2670.8</ele>
        <time>2021-02-28T13:08:05Z</time>
      </trkpt>
      <trkpt lat="45.01951" lon="6.49968">
        <ele>2671</ele>
        <time>2021-02-28T13:08:06Z</time>
      </trkpt>
      <trkpt lat="45.01951" lon="6.49968">
        <ele>2671.2</ele>
        <time>2021-02-28T13:08:07Z</time>
      </trkpt>
      <trkpt lat="45.01951" lon="6.49968">
        <ele>2671</ele>
        <time>2021-02-28T13:08:08Z</time>
      </trkpt>
      <trkpt lat="45.01948" lon="6.49968">
        <ele>2670.6</ele>
        <time>2021-02-28T13:08:09Z</time>
      </trkpt>
      <trkpt lat="45.01948" lon="6.49968">
        <ele>2671</ele>
        <time>2021-02-28T13:08:10Z</time>
      </trkpt>
      <trkpt lat="45.01948" lon="6.49968">
        <ele>2671.2</ele>
        <time>2021-02-28T13:08:11Z</time>
      </trkpt>
      <trkpt lat="45.01946" lon="6.49968">
        <ele>2671.4</ele>
        <time>2021-02-28T13:08:12Z</time>
      </trkpt>
      <trkpt lat="45.01946" lon="6.49968">
        <ele>2671.8</ele>
        <time>2021-02-28T13:08:13Z</time>
      </trkpt>
      <trkpt lat="45.01946" lon="6.49968">
        <ele>2671.8</ele>
        <time>2021-02-28T13:08:14Z</time>
      </trkpt>
      <trkpt lat="45.01946" lon="6.49968">
        <ele>2672</ele>
        <time>2021-02-28T13:08:15Z</time>
      </trkpt>
      <trkpt lat="45.01944" lon="6.49968">
        <ele>2672.2</ele>
        <time>2021-02-28T13:08:16Z</time>
      </trkpt>
      <trkpt lat="45.01944" lon="6.49968">
        <ele>2672.4</ele>
        <time>2021-02-28T13:08:17Z</time>
      </trkpt>
      <trkpt lat="45.01944" lon="6.49968">
        <ele>2672.6</ele>
        <time>2021-02-28T13:08:18Z</time>
      </trkpt>
      <trkpt lat="45.01944" lon="6.49968">
        <ele>2673</ele>
        <time>2021-02-28T13:08:19Z</time>
      </trkpt>
      <trkpt lat="45.01944" lon="6.49968">
        <ele>2673.2</ele>
        <time>2021-02-28T13:08:20Z</time>
      </trkpt>
      <trkpt lat="45.01944" lon="6.49968">
        <ele>2673.4</ele>
        <time>2021-02-28T13:08:21Z</time>
      </trkpt>
      <trkpt lat="45.01942" lon="6.49968">
        <ele>2673.8</ele>
        <time>2021-02-28T13:08:22Z</time>
      </trkpt>
      <trkpt lat="45.01942" lon="6.49968">
        <ele>2673.8</ele>
        <time>2021-02-28T13:08:23Z</time>
      </trkpt>
      <trkpt lat="45.01942" lon="6.49968">
        <ele>2674</ele>
        <time>2021-02-28T13:08:24Z</time>
      </trkpt>
      <trkpt lat="45.0194" lon="6.49967">
        <ele>2674</ele>
        <time>2021-02-28T13:08:25Z</time>
      </trkpt>
      <trkpt lat="45.0194" lon="6.49967">
        <ele>2674</ele>
        <time>2021-02-28T13:08:26Z</time>
      </trkpt>
      <trkpt lat="45.0194" lon="6.49967">
        <ele>2673.8</ele>
        <time>2021-02-28T13:08:27Z</time>
      </trkpt>
      <trkpt lat="45.01938" lon="6.49967">
        <ele>2673.6</ele>
        <time>2021-02-28T13:08:28Z</time>
      </trkpt>
      <trkpt lat="45.01938" lon="6.49967">
        <ele>2673.6</ele>
        <time>2021-02-28T13:08:29Z</time>
      </trkpt>
      <trkpt lat="45.01938" lon="6.49967">
        <ele>2673.6</ele>
        <time>2021-02-28T13:08:30Z</time>
      </trkpt>
      <trkpt lat="45.01935" lon="6.49967">
        <ele>2673.8</ele>
        <time>2021-02-28T13:08:31Z</time>
      </trkpt>
      <trkpt lat="45.01935" lon="6.49967">
        <ele>2673.8</ele>
        <time>2021-02-28T13:08:32Z</time>
      </trkpt>
      <trkpt lat="45.01935" lon="6.49967">
        <ele>2673.6</ele>
        <time>2021-02-28T13:08:33Z</time>
      </trkpt>
      <trkpt lat="45.01933" lon="6.49966">
        <ele>2673.8</ele>
        <time>2021-02-28T13:08:34Z</time>
      </trkpt>
      <trkpt lat="45.01933" lon="6.49966">
        <ele>2673.8</ele>
        <time>2021-02-28T13:08:35Z</time>
      </trkpt>
      <trkpt lat="45.01933" lon="6.49966">
        <ele>2673.8</ele>
        <time>2021-02-28T13:08:36Z</time>
      </trkpt>
      <trkpt lat="45.01931" lon="6.49967">
        <ele>2673.8</ele>
        <time>2021-02-28T13:08:37Z</time>
      </trkpt>
      <trkpt lat="45.01931" lon="6.49967">
        <ele>2674</ele>
        <time>2021-02-28T13:08:38Z</time>
      </trkpt>
      <trkpt lat="45.01931" lon="6.49967">
        <ele>2674.4</ele>
        <time>2021-02-28T13:08:39Z</time>
      </trkpt>
      <trkpt lat="45.01929" lon="6.49968">
        <ele>2674.4</ele>
        <time>2021-02-28T13:08:40Z</time>
      </trkpt>
      <trkpt lat="45.01929" lon="6.49968">
        <ele>2674.4</ele>
        <time>2021-02-28T13:08:41Z</time>
      </trkpt>
      <trkpt lat="45.01929" lon="6.49968">
        <ele>2674.6</ele>
        <time>2021-02-28T13:08:42Z</time>
      </trkpt>
      <trkpt lat="45.01927" lon="6.49968">
        <ele>2674.6</ele>
        <time>2021-02-28T13:08:43Z</time>
      </trkpt>
      <trkpt lat="45.01927" lon="6.49968">
        <ele>2675.2</ele>
        <time>2021-02-28T13:08:44Z</time>
      </trkpt>
      <trkpt lat="45.01927" lon="6.49968">
        <ele>2675.6</ele>
        <time>2021-02-28T13:08:45Z</time>
      </trkpt>
      <trkpt lat="45.01927" lon="6.49968">
        <ele>2675.8</ele>
        <time>2021-02-28T13:08:46Z</time>
      </trkpt>
      <trkpt lat="45.01925" lon="6.49969">
        <ele>2675.8</ele>
        <time>2021-02-28T13:08:47Z</time>
      </trkpt>
      <trkpt lat="45.01925" lon="6.49969">
        <ele>2676</ele>
        <time>2021-02-28T13:08:48Z</time>
      </trkpt>
      <trkpt lat="45.01925" lon="6.49969">
        <ele>2676.4</ele>
        <time>2021-02-28T13:08:49Z</time>
      </trkpt>
      <trkpt lat="45.01923" lon="6.49969">
        <ele>2676.8</ele>
        <time>2021-02-28T13:08:50Z</time>
      </trkpt>
      <trkpt lat="45.01923" lon="6.49969">
        <ele>2676.2</ele>
        <time>2021-02-28T13:08:51Z</time>
      </trkpt>
      <trkpt lat="45.01923" lon="6.49969">
        <ele>2676.4</ele>
        <time>2021-02-28T13:08:52Z</time>
      </trkpt>
      <trkpt lat="45.01923" lon="6.49969">
        <ele>2676.8</ele>
        <time>2021-02-28T13:08:53Z</time>
      </trkpt>
      <trkpt lat="45.01921" lon="6.49971">
        <ele>2677</ele>
        <time>2021-02-28T13:08:54Z</time>
      </trkpt>
      <trkpt lat="45.01921" lon="6.49971">
        <ele>2677.2</ele>
        <time>2021-02-28T13:08:55Z</time>
      </trkpt>
      <trkpt lat="45.01921" lon="6.49971">
        <ele>2677.2</ele>
        <time>2021-02-28T13:08:56Z</time>
      </trkpt>
      <trkpt lat="45.01921" lon="6.49971">
        <ele>2677.8</ele>
        <time>2021-02-28T13:08:57Z</time>
      </trkpt>
      <trkpt lat="45.01919" lon="6.49972">
        <ele>2677.8</ele>
        <time>2021-02-28T13:08:58Z</time>
      </trkpt>
      <trkpt lat="45.01919" lon="6.49972">
        <ele>2678</ele>
        <time>2021-02-28T13:08:59Z</time>
      </trkpt>
      <trkpt lat="45.01919" lon="6.49972">
        <ele>2678</ele>
        <time>2021-02-28T13:09:00Z</time>
      </trkpt>
      <trkpt lat="45.01917" lon="6.49972">
        <ele>2678</ele>
        <time>2021-02-28T13:09:01Z</time>
      </trkpt>
      <trkpt lat="45.01917" lon="6.49972">
        <ele>2678.4</ele>
        <time>2021-02-28T13:09:02Z</time>
      </trkpt>
      <trkpt lat="45.01917" lon="6.49972">
        <ele>2679</ele>
        <time>2021-02-28T13:09:03Z</time>
      </trkpt>
      <trkpt lat="45.01917" lon="6.49972">
        <ele>2679.2</ele>
        <time>2021-02-28T13:09:04Z</time>
      </trkpt>
      <trkpt lat="45.01915" lon="6.49974">
        <ele>2679</ele>
        <time>2021-02-28T13:09:05Z</time>
      </trkpt>
      <trkpt lat="45.01915" lon="6.49974">
        <ele>2678.8</ele>
        <time>2021-02-28T13:09:06Z</time>
      </trkpt>
      <trkpt lat="45.01915" lon="6.49974">
        <ele>2678.8</ele>
        <time>2021-02-28T13:09:07Z</time>
      </trkpt>
      <trkpt lat="45.01915" lon="6.49974">
        <ele>2679.4</ele>
        <time>2021-02-28T13:09:08Z</time>
      </trkpt>
      <trkpt lat="45.01915" lon="6.49974">
        <ele>2679.8</ele>
        <time>2021-02-28T13:09:09Z</time>
      </trkpt>
      <trkpt lat="45.01913" lon="6.49974">
        <ele>2680.2</ele>
        <time>2021-02-28T13:09:10Z</time>
      </trkpt>
      <trkpt lat="45.01913" lon="6.49974">
        <ele>2680</ele>
        <time>2021-02-28T13:09:11Z</time>
      </trkpt>
      <trkpt lat="45.01913" lon="6.49974">
        <ele>2680.4</ele>
        <time>2021-02-28T13:09:12Z</time>
      </trkpt>
      <trkpt lat="45.01912" lon="6.49976">
        <ele>2680.6</ele>
        <time>2021-02-28T13:09:13Z</time>
      </trkpt>
      <trkpt lat="45.01912" lon="6.49976">
        <ele>2681</ele>
        <time>2021-02-28T13:09:14Z</time>
      </trkpt>
      <trkpt lat="45.01912" lon="6.49976">
        <ele>2681</ele>
        <time>2021-02-28T13:09:15Z</time>
      </trkpt>
      <trkpt lat="45.01912" lon="6.49976">
        <ele>2681.6</ele>
        <time>2021-02-28T13:09:16Z</time>
      </trkpt>
      <trkpt lat="45.0191" lon="6.49977">
        <ele>2681.6</ele>
        <time>2021-02-28T13:09:17Z</time>
      </trkpt>
      <trkpt lat="45.0191" lon="6.49977">
        <ele>2681.4</ele>
        <time>2021-02-28T13:09:18Z</time>
      </trkpt>
      <trkpt lat="45.0191" lon="6.49977">
        <ele>2681.6</ele>
        <time>2021-02-28T13:09:19Z</time>
      </trkpt>
      <trkpt lat="45.01908" lon="6.49978">
        <ele>2682</ele>
        <time>2021-02-28T13:09:20Z</time>
      </trkpt>
      <trkpt lat="45.01908" lon="6.49978">
        <ele>2682.4</ele>
        <time>2021-02-28T13:09:21Z</time>
      </trkpt>
      <trkpt lat="45.01908" lon="6.49978">
        <ele>2682.6</ele>
        <time>2021-02-28T13:09:22Z</time>
      </trkpt>
      <trkpt lat="45.01908" lon="6.49978">
        <ele>2682.8</ele>
        <time>2021-02-28T13:09:23Z</time>
      </trkpt>
      <trkpt lat="45.01906" lon="6.49981">
        <ele>2682.8</ele>
        <time>2021-02-28T13:09:24Z</time>
      </trkpt>
      <trkpt lat="45.01906" lon="6.49981">
        <ele>2682.8</ele>
        <time>2021-02-28T13:09:25Z</time>
      </trkpt>
      <trkpt lat="45.01906" lon="6.49981">
        <ele>2683.2</ele>
        <time>2021-02-28T13:09:26Z</time>
      </trkpt>
      <trkpt lat="45.01906" lon="6.49981">
        <ele>2683.2</ele>
        <time>2021-02-28T13:09:27Z</time>
      </trkpt>
      <trkpt lat="45.01904" lon="6.49982">
        <ele>2683</ele>
        <time>2021-02-28T13:09:28Z</time>
      </trkpt>
      <trkpt lat="45.01904" lon="6.49982">
        <ele>2682.6</ele>
        <time>2021-02-28T13:09:29Z</time>
      </trkpt>
      <trkpt lat="45.01904" lon="6.49982">
        <ele>2683.2</ele>
        <time>2021-02-28T13:09:30Z</time>
      </trkpt>
      <trkpt lat="45.01902" lon="6.49983">
        <ele>2683.6</ele>
        <time>2021-02-28T13:09:31Z</time>
      </trkpt>
      <trkpt lat="45.01902" lon="6.49983">
        <ele>2683.4</ele>
        <time>2021-02-28T13:09:32Z</time>
      </trkpt>
      <trkpt lat="45.01902" lon="6.49983">
        <ele>2683.8</ele>
        <time>2021-02-28T13:09:33Z</time>
      </trkpt>
      <trkpt lat="45.01902" lon="6.49983">
        <ele>2684.8</ele>
        <time>2021-02-28T13:09:34Z</time>
      </trkpt>
      <trkpt lat="45.019" lon="6.49984">
        <ele>2684.8</ele>
        <time>2021-02-28T13:09:35Z</time>
      </trkpt>
      <trkpt lat="45.019" lon="6.49984">
        <ele>2685</ele>
        <time>2021-02-28T13:09:36Z</time>
      </trkpt>
      <trkpt lat="45.01899" lon="6.49986">
        <ele>2685</ele>
        <time>2021-02-28T13:09:37Z</time>
      </trkpt>
      <trkpt lat="45.01899" lon="6.49986">
        <ele>2685.2</ele>
        <time>2021-02-28T13:09:38Z</time>
      </trkpt>
      <trkpt lat="45.01899" lon="6.49986">
        <ele>2684.4</ele>
        <time>2021-02-28T13:09:39Z</time>
      </trkpt>
      <trkpt lat="45.01897" lon="6.49987">
        <ele>2685</ele>
        <time>2021-02-28T13:09:40Z</time>
      </trkpt>
      <trkpt lat="45.01897" lon="6.49987">
        <ele>2685</ele>
        <time>2021-02-28T13:09:41Z</time>
      </trkpt>
      <trkpt lat="45.01897" lon="6.49987">
        <ele>2685.6</ele>
        <time>2021-02-28T13:09:42Z</time>
      </trkpt>
      <trkpt lat="45.01895" lon="6.49989">
        <ele>2685.4</ele>
        <time>2021-02-28T13:09:43Z</time>
      </trkpt>
      <trkpt lat="45.01895" lon="6.49989">
        <ele>2685.4</ele>
        <time>2021-02-28T13:09:44Z</time>
      </trkpt>
      <trkpt lat="45.01895" lon="6.49989">
        <ele>2686</ele>
        <time>2021-02-28T13:09:45Z</time>
      </trkpt>
      <trkpt lat="45.01893" lon="6.4999">
        <ele>2686</ele>
        <time>2021-02-28T13:09:46Z</time>
      </trkpt>
      <trkpt lat="45.01893" lon="6.4999">
        <ele>2685.8</ele>
        <time>2021-02-28T13:09:47Z</time>
      </trkpt>
      <trkpt lat="45.01893" lon="6.4999">
        <ele>2686.2</ele>
        <time>2021-02-28T13:09:48Z</time>
      </trkpt>
      <trkpt lat="45.01892" lon="6.49993">
        <ele>2686.6</ele>
        <time>2021-02-28T13:09:49Z</time>
      </trkpt>
      <trkpt lat="45.01892" lon="6.49993">
        <ele>2685.6</ele>
        <time>2021-02-28T13:09:50Z</time>
      </trkpt>
      <trkpt lat="45.01892" lon="6.49993">
        <ele>2686.2</ele>
        <time>2021-02-28T13:09:51Z</time>
      </trkpt>
      <trkpt lat="45.0189" lon="6.49994">
        <ele>2686.4</ele>
        <time>2021-02-28T13:09:52Z</time>
      </trkpt>
      <trkpt lat="45.0189" lon="6.49994">
        <ele>2687.2</ele>
        <time>2021-02-28T13:09:53Z</time>
      </trkpt>
      <trkpt lat="45.0189" lon="6.49994">
        <ele>2687.6</ele>
        <time>2021-02-28T13:09:54Z</time>
      </trkpt>
      <trkpt lat="45.0189" lon="6.49994">
        <ele>2688</ele>
        <time>2021-02-28T13:09:55Z</time>
      </trkpt>
      <trkpt lat="45.0189" lon="6.49994">
        <ele>2688.2</ele>
        <time>2021-02-28T13:09:56Z</time>
      </trkpt>
      <trkpt lat="45.01888" lon="6.49996">
        <ele>2688.6</ele>
        <time>2021-02-28T13:09:57Z</time>
      </trkpt>
      <trkpt lat="45.01888" lon="6.49996">
        <ele>2688.8</ele>
        <time>2021-02-28T13:09:58Z</time>
      </trkpt>
      <trkpt lat="45.01888" lon="6.49996">
        <ele>2689.2</ele>
        <time>2021-02-28T13:09:59Z</time>
      </trkpt>
      <trkpt lat="45.01886" lon="6.49997">
        <ele>2689.4</ele>
        <time>2021-02-28T13:10:00Z</time>
      </trkpt>
      <trkpt lat="45.01886" lon="6.49997">
        <ele>2690</ele>
        <time>2021-02-28T13:10:01Z</time>
      </trkpt>
      <trkpt lat="45.01886" lon="6.49997">
        <ele>2690</ele>
        <time>2021-02-28T13:10:02Z</time>
      </trkpt>
      <trkpt lat="45.01884" lon="6.49997">
        <ele>2690.4</ele>
        <time>2021-02-28T13:10:03Z</time>
      </trkpt>
      <trkpt lat="45.01884" lon="6.49997">
        <ele>2690.4</ele>
        <time>2021-02-28T13:10:04Z</time>
      </trkpt>
      <trkpt lat="45.01884" lon="6.49997">
        <ele>2690.8</ele>
        <time>2021-02-28T13:10:05Z</time>
      </trkpt>
      <trkpt lat="45.01884" lon="6.49997">
        <ele>2691.2</ele>
        <time>2021-02-28T13:10:06Z</time>
      </trkpt>
      <trkpt lat="45.01884" lon="6.49997">
        <ele>2691.2</ele>
        <time>2021-02-28T13:10:07Z</time>
      </trkpt>
      <trkpt lat="45.01884" lon="6.49997">
        <ele>2691</ele>
        <time>2021-02-28T13:10:08Z</time>
      </trkpt>
      <trkpt lat="45.01884" lon="6.49997">
        <ele>2691.2</ele>
        <time>2021-02-28T13:10:09Z</time>
      </trkpt>
      <trkpt lat="45.01884" lon="6.49997">
        <ele>2691</ele>
        <time>2021-02-28T13:10:10Z</time>
      </trkpt>
      <trkpt lat="45.01884" lon="6.49997">
        <ele>2691.6</ele>
        <time>2021-02-28T13:10:11Z</time>
      </trkpt>
      <trkpt lat="45.01884" lon="6.49997">
        <ele>2691.6</ele>
        <time>2021-02-28T13:10:12Z</time>
      </trkpt>
      <trkpt lat="45.01885" lon="6.49999">
        <ele>2691.8</ele>
        <time>2021-02-28T13:10:13Z</time>
      </trkpt>
      <trkpt lat="45.01885" lon="6.49999">
        <ele>2691.4</ele>
        <time>2021-02-28T13:10:14Z</time>
      </trkpt>
      <trkpt lat="45.01885" lon="6.49999">
        <ele>2691.6</ele>
        <time>2021-02-28T13:10:15Z</time>
      </trkpt>
      <trkpt lat="45.01886" lon="6.50001">
        <ele>2691.6</ele>
        <time>2021-02-28T13:10:16Z</time>
      </trkpt>
      <trkpt lat="45.01886" lon="6.50001">
        <ele>2691.8</ele>
        <time>2021-02-28T13:10:17Z</time>
      </trkpt>
      <trkpt lat="45.01886" lon="6.50001">
        <ele>2692.2</ele>
        <time>2021-02-28T13:10:18Z</time>
      </trkpt>
      <trkpt lat="45.01886" lon="6.50001">
        <ele>2691.8</ele>
        <time>2021-02-28T13:10:19Z</time>
      </trkpt>
      <trkpt lat="45.01886" lon="6.50001">
        <ele>2692.2</ele>
        <time>2021-02-28T13:10:20Z</time>
      </trkpt>
      <trkpt lat="45.01886" lon="6.50001">
        <ele>2692.6</ele>
        <time>2021-02-28T13:10:21Z</time>
      </trkpt>
      <trkpt lat="45.01888" lon="6.50003">
        <ele>2692.8</ele>
        <time>2021-02-28T13:10:22Z</time>
      </trkpt>
      <trkpt lat="45.01888" lon="6.50003">
        <ele>2693</ele>
        <time>2021-02-28T13:10:23Z</time>
      </trkpt>
      <trkpt lat="45.01888" lon="6.50003">
        <ele>2693</ele>
        <time>2021-02-28T13:10:24Z</time>
      </trkpt>
      <trkpt lat="45.0189" lon="6.50004">
        <ele>2693.6</ele>
        <time>2021-02-28T13:10:25Z</time>
      </trkpt>
      <trkpt lat="45.0189" lon="6.50004">
        <ele>2693.8</ele>
        <time>2021-02-28T13:10:26Z</time>
      </trkpt>
      <trkpt lat="45.0189" lon="6.50004">
        <ele>2694.2</ele>
        <time>2021-02-28T13:10:27Z</time>
      </trkpt>
      <trkpt lat="45.01891" lon="6.50005">
        <ele>2694</ele>
        <time>2021-02-28T13:10:28Z</time>
      </trkpt>
      <trkpt lat="45.01891" lon="6.50006">
        <ele>2694.4</ele>
        <time>2021-02-28T13:10:29Z</time>
      </trkpt>
      <trkpt lat="45.01892" lon="6.50006">
        <ele>2694.2</ele>
        <time>2021-02-28T13:10:30Z</time>
      </trkpt>
      <trkpt lat="45.01892" lon="6.50007">
        <ele>2694.6</ele>
        <time>2021-02-28T13:10:31Z</time>
      </trkpt>
      <trkpt lat="45.01893" lon="6.50008">
        <ele>2695</ele>
        <time>2021-02-28T13:10:32Z</time>
      </trkpt>
      <trkpt lat="45.01893" lon="6.50008">
        <ele>2695.6</ele>
        <time>2021-02-28T13:10:33Z</time>
      </trkpt>
      <trkpt lat="45.01894" lon="6.50009">
        <ele>2696</ele>
        <time>2021-02-28T13:10:34Z</time>
      </trkpt>
      <trkpt lat="45.01895" lon="6.50009">
        <ele>2696</ele>
        <time>2021-02-28T13:10:35Z</time>
      </trkpt>
      <trkpt lat="45.01895" lon="6.50009">
        <ele>2696</ele>
        <time>2021-02-28T13:10:36Z</time>
      </trkpt>
      <trkpt lat="45.01897" lon="6.5001">
        <ele>2696.4</ele>
        <time>2021-02-28T13:10:37Z</time>
      </trkpt>
      <trkpt lat="45.01897" lon="6.5001">
        <ele>2696.6</ele>
        <time>2021-02-28T13:10:38Z</time>
      </trkpt>
      <trkpt lat="45.01897" lon="6.5001">
        <ele>2696.6</ele>
        <time>2021-02-28T13:10:39Z</time>
      </trkpt>
      <trkpt lat="45.01897" lon="6.5001">
        <ele>2697.2</ele>
        <time>2021-02-28T13:10:40Z</time>
      </trkpt>
      <trkpt lat="45.01897" lon="6.5001">
        <ele>2697.2</ele>
        <time>2021-02-28T13:10:41Z</time>
      </trkpt>
      <trkpt lat="45.01897" lon="6.5001">
        <ele>2697.2</ele>
        <time>2021-02-28T13:10:42Z</time>
      </trkpt>
      <trkpt lat="45.01897" lon="6.5001">
        <ele>2697.6</ele>
        <time>2021-02-28T13:10:43Z</time>
      </trkpt>
      <trkpt lat="45.01899" lon="6.50011">
        <ele>2697.2</ele>
        <time>2021-02-28T13:10:44Z</time>
      </trkpt>
      <trkpt lat="45.01899" lon="6.50011">
        <ele>2697.2</ele>
        <time>2021-02-28T13:10:45Z</time>
      </trkpt>
      <trkpt lat="45.01899" lon="6.50011">
        <ele>2697.6</ele>
        <time>2021-02-28T13:10:46Z</time>
      </trkpt>
      <trkpt lat="45.01899" lon="6.50011">
        <ele>2698</ele>
        <time>2021-02-28T13:10:47Z</time>
      </trkpt>
      <trkpt lat="45.01901" lon="6.50012">
        <ele>2698.2</ele>
        <time>2021-02-28T13:10:48Z</time>
      </trkpt>
      <trkpt lat="45.01901" lon="6.50012">
        <ele>2698.4</ele>
        <time>2021-02-28T13:10:49Z</time>
      </trkpt>
      <trkpt lat="45.01901" lon="6.50012">
        <ele>2698.6</ele>
        <time>2021-02-28T13:10:50Z</time>
      </trkpt>
      <trkpt lat="45.01901" lon="6.50012">
        <ele>2698.8</ele>
        <time>2021-02-28T13:10:51Z</time>
      </trkpt>
      <trkpt lat="45.01901" lon="6.50012">
        <ele>2698.8</ele>
        <time>2021-02-28T13:10:52Z</time>
      </trkpt>
      <trkpt lat="45.01901" lon="6.50012">
        <ele>2699.6</ele>
        <time>2021-02-28T13:10:53Z</time>
      </trkpt>
      <trkpt lat="45.01901" lon="6.50012">
        <ele>2700</ele>
        <time>2021-02-28T13:10:54Z</time>
      </trkpt>
      <trkpt lat="45.01901" lon="6.50012">
        <ele>2700.6</ele>
        <time>2021-02-28T13:10:55Z</time>
      </trkpt>
      <trkpt lat="45.01901" lon="6.50012">
        <ele>2701</ele>
        <time>2021-02-28T13:10:56Z</time>
      </trkpt>
      <trkpt lat="45.01901" lon="6.50012">
        <ele>2701.2</ele>
        <time>2021-02-28T13:10:57Z</time>
      </trkpt>
      <trkpt lat="45.01899" lon="6.50013">
        <ele>2701.4</ele>
        <time>2021-02-28T13:10:58Z</time>
      </trkpt>
      <trkpt lat="45.01899" lon="6.50013">
        <ele>2701.8</ele>
        <time>2021-02-28T13:10:59Z</time>
      </trkpt>
      <trkpt lat="45.01899" lon="6.50013">
        <ele>2702</ele>
        <time>2021-02-28T13:11:00Z</time>
      </trkpt>
      <trkpt lat="45.01896" lon="6.50015">
        <ele>2702.2</ele>
        <time>2021-02-28T13:11:01Z</time>
      </trkpt>
      <trkpt lat="45.01896" lon="6.50015">
        <ele>2702</ele>
        <time>2021-02-28T13:11:02Z</time>
      </trkpt>
      <trkpt lat="45.01896" lon="6.50015">
        <ele>2702.2</ele>
        <time>2021-02-28T13:11:03Z</time>
      </trkpt>
      <trkpt lat="45.01896" lon="6.50015">
        <ele>2702.2</ele>
        <time>2021-02-28T13:11:04Z</time>
      </trkpt>
      <trkpt lat="45.01894" lon="6.50016">
        <ele>2702.2</ele>
        <time>2021-02-28T13:11:05Z</time>
      </trkpt>
      <trkpt lat="45.01894" lon="6.50016">
        <ele>2701.8</ele>
        <time>2021-02-28T13:11:06Z</time>
      </trkpt>
      <trkpt lat="45.01892" lon="6.50017">
        <ele>2702.6</ele>
        <time>2021-02-28T13:11:07Z</time>
      </trkpt>
      <trkpt lat="45.01892" lon="6.50017">
        <ele>2703</ele>
        <time>2021-02-28T13:11:08Z</time>
      </trkpt>
      <trkpt lat="45.01892" lon="6.50017">
        <ele>2703.6</ele>
        <time>2021-02-28T13:11:09Z</time>
      </trkpt>
      <trkpt lat="45.01889" lon="6.50018">
        <ele>2703.8</ele>
        <time>2021-02-28T13:11:10Z</time>
      </trkpt>
      <trkpt lat="45.01889" lon="6.50018">
        <ele>2702.2</ele>
        <time>2021-02-28T13:11:11Z</time>
      </trkpt>
      <trkpt lat="45.01889" lon="6.50018">
        <ele>2702.6</ele>
        <time>2021-02-28T13:11:12Z</time>
      </trkpt>
      <trkpt lat="45.01887" lon="6.50018">
        <ele>2703.2</ele>
        <time>2021-02-28T13:11:13Z</time>
      </trkpt>
      <trkpt lat="45.01887" lon="6.50018">
        <ele>2703.6</ele>
        <time>2021-02-28T13:11:14Z</time>
      </trkpt>
      <trkpt lat="45.01887" lon="6.50018">
        <ele>2704</ele>
        <time>2021-02-28T13:11:15Z</time>
      </trkpt>
      <trkpt lat="45.01885" lon="6.50019">
        <ele>2704.4</ele>
        <time>2021-02-28T13:11:16Z</time>
      </trkpt>
      <trkpt lat="45.01885" lon="6.50019">
        <ele>2704.8</ele>
        <time>2021-02-28T13:11:17Z</time>
      </trkpt>
      <trkpt lat="45.01885" lon="6.50019">
        <ele>2704.6</ele>
        <time>2021-02-28T13:11:18Z</time>
      </trkpt>
      <trkpt lat="45.01882" lon="6.5002">
        <ele>2704.8</ele>
        <time>2021-02-28T13:11:19Z</time>
      </trkpt>
      <trkpt lat="45.01882" lon="6.5002">
        <ele>2705</ele>
        <time>2021-02-28T13:11:20Z</time>
      </trkpt>
      <trkpt lat="45.01882" lon="6.5002">
        <ele>2705</ele>
        <time>2021-02-28T13:11:21Z</time>
      </trkpt>
      <trkpt lat="45.01882" lon="6.5002">
        <ele>2705.4</ele>
        <time>2021-02-28T13:11:22Z</time>
      </trkpt>
      <trkpt lat="45.0188" lon="6.50021">
        <ele>2705.4</ele>
        <time>2021-02-28T13:11:23Z</time>
      </trkpt>
      <trkpt lat="45.0188" lon="6.50021">
        <ele>2705.8</ele>
        <time>2021-02-28T13:11:24Z</time>
      </trkpt>
      <trkpt lat="45.01879" lon="6.50022">
        <ele>2706.2</ele>
        <time>2021-02-28T13:11:25Z</time>
      </trkpt>
      <trkpt lat="45.01879" lon="6.50022">
        <ele>2706.6</ele>
        <time>2021-02-28T13:11:26Z</time>
      </trkpt>
      <trkpt lat="45.01879" lon="6.50022">
        <ele>2706.8</ele>
        <time>2021-02-28T13:11:27Z</time>
      </trkpt>
      <trkpt lat="45.01876" lon="6.50023">
        <ele>2705.6</ele>
        <time>2021-02-28T13:11:28Z</time>
      </trkpt>
      <trkpt lat="45.01876" lon="6.50023">
        <ele>2705.6</ele>
        <time>2021-02-28T13:11:29Z</time>
      </trkpt>
      <trkpt lat="45.01876" lon="6.50023">
        <ele>2706.2</ele>
        <time>2021-02-28T13:11:30Z</time>
      </trkpt>
      <trkpt lat="45.01874" lon="6.50023">
        <ele>2705.2</ele>
        <time>2021-02-28T13:11:31Z</time>
      </trkpt>
      <trkpt lat="45.01874" lon="6.50023">
        <ele>2705.8</ele>
        <time>2021-02-28T13:11:32Z</time>
      </trkpt>
      <trkpt lat="45.01874" lon="6.50023">
        <ele>2706.2</ele>
        <time>2021-02-28T13:11:33Z</time>
      </trkpt>
      <trkpt lat="45.01874" lon="6.50023">
        <ele>2706.8</ele>
        <time>2021-02-28T13:11:34Z</time>
      </trkpt>
      <trkpt lat="45.01874" lon="6.50023">
        <ele>2706.6</ele>
        <time>2021-02-28T13:11:35Z</time>
      </trkpt>
      <trkpt lat="45.01874" lon="6.50023">
        <ele>2706.6</ele>
        <time>2021-02-28T13:11:36Z</time>
      </trkpt>
      <trkpt lat="45.01875" lon="6.50025">
        <ele>2707</ele>
        <time>2021-02-28T13:11:37Z</time>
      </trkpt>
      <trkpt lat="45.01875" lon="6.50025">
        <ele>2707.6</ele>
        <time>2021-02-28T13:11:38Z</time>
      </trkpt>
      <trkpt lat="45.01875" lon="6.50025">
        <ele>2707.2</ele>
        <time>2021-02-28T13:11:39Z</time>
      </trkpt>
      <trkpt lat="45.01875" lon="6.50025">
        <ele>2708</ele>
        <time>2021-02-28T13:11:40Z</time>
      </trkpt>
      <trkpt lat="45.01877" lon="6.50027">
        <ele>2708.2</ele>
        <time>2021-02-28T13:11:41Z</time>
      </trkpt>
      <trkpt lat="45.01877" lon="6.50027">
        <ele>2708.6</ele>
        <time>2021-02-28T13:11:42Z</time>
      </trkpt>
      <trkpt lat="45.01877" lon="6.50027">
        <ele>2708.2</ele>
        <time>2021-02-28T13:11:43Z</time>
      </trkpt>
      <trkpt lat="45.01879" lon="6.5003">
        <ele>2708.4</ele>
        <time>2021-02-28T13:11:44Z</time>
      </trkpt>
      <trkpt lat="45.01879" lon="6.5003">
        <ele>2709</ele>
        <time>2021-02-28T13:11:45Z</time>
      </trkpt>
      <trkpt lat="45.0188" lon="6.50032">
        <ele>2709.4</ele>
        <time>2021-02-28T13:11:46Z</time>
      </trkpt>
      <trkpt lat="45.0188" lon="6.50032">
        <ele>2710</ele>
        <time>2021-02-28T13:11:47Z</time>
      </trkpt>
      <trkpt lat="45.0188" lon="6.50032">
        <ele>2710</ele>
        <time>2021-02-28T13:11:48Z</time>
      </trkpt>
      <trkpt lat="45.01882" lon="6.50034">
        <ele>2710.2</ele>
        <time>2021-02-28T13:11:49Z</time>
      </trkpt>
      <trkpt lat="45.01882" lon="6.50034">
        <ele>2710</ele>
        <time>2021-02-28T13:11:50Z</time>
      </trkpt>
      <trkpt lat="45.01882" lon="6.50034">
        <ele>2709.8</ele>
        <time>2021-02-28T13:11:51Z</time>
      </trkpt>
      <trkpt lat="45.01883" lon="6.50037">
        <ele>2710.8</ele>
        <time>2021-02-28T13:11:52Z</time>
      </trkpt>
      <trkpt lat="45.01883" lon="6.50037">
        <ele>2710.2</ele>
        <time>2021-02-28T13:11:53Z</time>
      </trkpt>
      <trkpt lat="45.01883" lon="6.50037">
        <ele>2710.8</ele>
        <time>2021-02-28T13:11:54Z</time>
      </trkpt>
      <trkpt lat="45.01884" lon="6.50039">
        <ele>2710.4</ele>
        <time>2021-02-28T13:11:55Z</time>
      </trkpt>
      <trkpt lat="45.01884" lon="6.50039">
        <ele>2711</ele>
        <time>2021-02-28T13:11:56Z</time>
      </trkpt>
      <trkpt lat="45.01884" lon="6.50039">
        <ele>2711.2</ele>
        <time>2021-02-28T13:11:57Z</time>
      </trkpt>
      <trkpt lat="45.01882" lon="6.50043">
        <ele>2710.6</ele>
        <time>2021-02-28T13:11:58Z</time>
      </trkpt>
      <trkpt lat="45.01882" lon="6.50043">
        <ele>2711.4</ele>
        <time>2021-02-28T13:11:59Z</time>
      </trkpt>
      <trkpt lat="45.01881" lon="6.50044">
        <ele>2711.8</ele>
        <time>2021-02-28T13:12:00Z</time>
      </trkpt>
      <trkpt lat="45.01881" lon="6.50044">
        <ele>2712.4</ele>
        <time>2021-02-28T13:12:01Z</time>
      </trkpt>
      <trkpt lat="45.01881" lon="6.50044">
        <ele>2712.8</ele>
        <time>2021-02-28T13:12:02Z</time>
      </trkpt>
      <trkpt lat="45.0188" lon="6.50047">
        <ele>2713.4</ele>
        <time>2021-02-28T13:12:03Z</time>
      </trkpt>
      <trkpt lat="45.0188" lon="6.50047">
        <ele>2713.6</ele>
        <time>2021-02-28T13:12:04Z</time>
      </trkpt>
      <trkpt lat="45.0188" lon="6.50047">
        <ele>2713.4</ele>
        <time>2021-02-28T13:12:05Z</time>
      </trkpt>
      <trkpt lat="45.01878" lon="6.50049">
        <ele>2714</ele>
        <time>2021-02-28T13:12:06Z</time>
      </trkpt>
      <trkpt lat="45.01878" lon="6.50049">
        <ele>2713.8</ele>
        <time>2021-02-28T13:12:07Z</time>
      </trkpt>
      <trkpt lat="45.01878" lon="6.50049">
        <ele>2714</ele>
        <time>2021-02-28T13:12:08Z</time>
      </trkpt>
      <trkpt lat="45.01876" lon="6.50051">
        <ele>2714.6</ele>
        <time>2021-02-28T13:12:09Z</time>
      </trkpt>
      <trkpt lat="45.01876" lon="6.50051">
        <ele>2714.6</ele>
        <time>2021-02-28T13:12:10Z</time>
      </trkpt>
      <trkpt lat="45.01876" lon="6.50051">
        <ele>2714.4</ele>
        <time>2021-02-28T13:12:11Z</time>
      </trkpt>
      <trkpt lat="45.01874" lon="6.50052">
        <ele>2714.2</ele>
        <time>2021-02-28T13:12:12Z</time>
      </trkpt>
      <trkpt lat="45.01874" lon="6.50052">
        <ele>2714.2</ele>
        <time>2021-02-28T13:12:13Z</time>
      </trkpt>
      <trkpt lat="45.01874" lon="6.50052">
        <ele>2715</ele>
        <time>2021-02-28T13:12:14Z</time>
      </trkpt>
      <trkpt lat="45.01871" lon="6.50053">
        <ele>2715.2</ele>
        <time>2021-02-28T13:12:15Z</time>
      </trkpt>
      <trkpt lat="45.01871" lon="6.50053">
        <ele>2715.4</ele>
        <time>2021-02-28T13:12:16Z</time>
      </trkpt>
      <trkpt lat="45.0187" lon="6.50054">
        <ele>2715.8</ele>
        <time>2021-02-28T13:12:17Z</time>
      </trkpt>
      <trkpt lat="45.0187" lon="6.50054">
        <ele>2715.8</ele>
        <time>2021-02-28T13:12:18Z</time>
      </trkpt>
      <trkpt lat="45.01868" lon="6.50054">
        <ele>2716</ele>
        <time>2021-02-28T13:12:19Z</time>
      </trkpt>
      <trkpt lat="45.01868" lon="6.50054">
        <ele>2716.6</ele>
        <time>2021-02-28T13:12:20Z</time>
      </trkpt>
      <trkpt lat="45.01866" lon="6.50055">
        <ele>2716.6</ele>
        <time>2021-02-28T13:12:21Z</time>
      </trkpt>
      <trkpt lat="45.01866" lon="6.50055">
        <ele>2716.2</ele>
        <time>2021-02-28T13:12:22Z</time>
      </trkpt>
      <trkpt lat="45.01866" lon="6.50055">
        <ele>2717.2</ele>
        <time>2021-02-28T13:12:23Z</time>
      </trkpt>
      <trkpt lat="45.01863" lon="6.50056">
        <ele>2717</ele>
        <time>2021-02-28T13:12:24Z</time>
      </trkpt>
      <trkpt lat="45.01863" lon="6.50056">
        <ele>2717.2</ele>
        <time>2021-02-28T13:12:25Z</time>
      </trkpt>
      <trkpt lat="45.01863" lon="6.50056">
        <ele>2718.2</ele>
        <time>2021-02-28T13:12:26Z</time>
      </trkpt>
      <trkpt lat="45.01861" lon="6.50056">
        <ele>2718.2</ele>
        <time>2021-02-28T13:12:27Z</time>
      </trkpt>
      <trkpt lat="45.01861" lon="6.50056">
        <ele>2717.8</ele>
        <time>2021-02-28T13:12:28Z</time>
      </trkpt>
      <trkpt lat="45.01861" lon="6.50056">
        <ele>2719</ele>
        <time>2021-02-28T13:12:29Z</time>
      </trkpt>
      <trkpt lat="45.01859" lon="6.50055">
        <ele>2719.2</ele>
        <time>2021-02-28T13:12:30Z</time>
      </trkpt>
      <trkpt lat="45.01859" lon="6.50055">
        <ele>2719</ele>
        <time>2021-02-28T13:12:31Z</time>
      </trkpt>
      <trkpt lat="45.01859" lon="6.50055">
        <ele>2720.2</ele>
        <time>2021-02-28T13:12:32Z</time>
      </trkpt>
      <trkpt lat="45.01857" lon="6.50054">
        <ele>2720.6</ele>
        <time>2021-02-28T13:12:33Z</time>
      </trkpt>
      <trkpt lat="45.01857" lon="6.50054">
        <ele>2720.2</ele>
        <time>2021-02-28T13:12:34Z</time>
      </trkpt>
      <trkpt lat="45.01857" lon="6.50054">
        <ele>2720.8</ele>
        <time>2021-02-28T13:12:35Z</time>
      </trkpt>
      <trkpt lat="45.01857" lon="6.50054">
        <ele>2721.2</ele>
        <time>2021-02-28T13:12:36Z</time>
      </trkpt>
      <trkpt lat="45.01854" lon="6.50053">
        <ele>2721.2</ele>
        <time>2021-02-28T13:12:37Z</time>
      </trkpt>
      <trkpt lat="45.01854" lon="6.50053">
        <ele>2720.8</ele>
        <time>2021-02-28T13:12:38Z</time>
      </trkpt>
      <trkpt lat="45.01854" lon="6.50053">
        <ele>2722.2</ele>
        <time>2021-02-28T13:12:39Z</time>
      </trkpt>
      <trkpt lat="45.01852" lon="6.50052">
        <ele>2722.2</ele>
        <time>2021-02-28T13:12:40Z</time>
      </trkpt>
      <trkpt lat="45.01852" lon="6.50052">
        <ele>2721.4</ele>
        <time>2021-02-28T13:12:41Z</time>
      </trkpt>
      <trkpt lat="45.01852" lon="6.50052">
        <ele>2722.6</ele>
        <time>2021-02-28T13:12:42Z</time>
      </trkpt>
      <trkpt lat="45.0185" lon="6.50052">
        <ele>2723</ele>
        <time>2021-02-28T13:12:43Z</time>
      </trkpt>
      <trkpt lat="45.0185" lon="6.50052">
        <ele>2722.6</ele>
        <time>2021-02-28T13:12:44Z</time>
      </trkpt>
      <trkpt lat="45.0185" lon="6.50052">
        <ele>2723.2</ele>
        <time>2021-02-28T13:12:45Z</time>
      </trkpt>
      <trkpt lat="45.01847" lon="6.50051">
        <ele>2723.8</ele>
        <time>2021-02-28T13:12:46Z</time>
      </trkpt>
      <trkpt lat="45.01847" lon="6.50051">
        <ele>2723.2</ele>
        <time>2021-02-28T13:12:47Z</time>
      </trkpt>
      <trkpt lat="45.01847" lon="6.50051">
        <ele>2723.8</ele>
        <time>2021-02-28T13:12:48Z</time>
      </trkpt>
      <trkpt lat="45.01845" lon="6.50052">
        <ele>2724.4</ele>
        <time>2021-02-28T13:12:49Z</time>
      </trkpt>
      <trkpt lat="45.01845" lon="6.50052">
        <ele>2724.8</ele>
        <time>2021-02-28T13:12:50Z</time>
      </trkpt>
      <trkpt lat="45.01845" lon="6.50052">
        <ele>2725</ele>
        <time>2021-02-28T13:12:51Z</time>
      </trkpt>
      <trkpt lat="45.01843" lon="6.50054">
        <ele>2725.6</ele>
        <time>2021-02-28T13:12:52Z</time>
      </trkpt>
      <trkpt lat="45.01843" lon="6.50054">
        <ele>2725.2</ele>
        <time>2021-02-28T13:12:53Z</time>
      </trkpt>
      <trkpt lat="45.01843" lon="6.50054">
        <ele>2726</ele>
        <time>2021-02-28T13:12:54Z</time>
      </trkpt>
      <trkpt lat="45.0184" lon="6.50055">
        <ele>2726</ele>
        <time>2021-02-28T13:12:55Z</time>
      </trkpt>
      <trkpt lat="45.0184" lon="6.50055">
        <ele>2726.4</ele>
        <time>2021-02-28T13:12:56Z</time>
      </trkpt>
      <trkpt lat="45.0184" lon="6.50055">
        <ele>2726.6</ele>
        <time>2021-02-28T13:12:57Z</time>
      </trkpt>
      <trkpt lat="45.01838" lon="6.50055">
        <ele>2726.8</ele>
        <time>2021-02-28T13:12:58Z</time>
      </trkpt>
      <trkpt lat="45.01838" lon="6.50055">
        <ele>2726.2</ele>
        <time>2021-02-28T13:12:59Z</time>
      </trkpt>
      <trkpt lat="45.01838" lon="6.50055">
        <ele>2726.8</ele>
        <time>2021-02-28T13:13:00Z</time>
      </trkpt>
      <trkpt lat="45.01836" lon="6.50055">
        <ele>2727</ele>
        <time>2021-02-28T13:13:01Z</time>
      </trkpt>
      <trkpt lat="45.01836" lon="6.50055">
        <ele>2727.4</ele>
        <time>2021-02-28T13:13:02Z</time>
      </trkpt>
      <trkpt lat="45.01836" lon="6.50055">
        <ele>2727.8</ele>
        <time>2021-02-28T13:13:03Z</time>
      </trkpt>
      <trkpt lat="45.01836" lon="6.50055">
        <ele>2727.8</ele>
        <time>2021-02-28T13:13:04Z</time>
      </trkpt>
      <trkpt lat="45.01834" lon="6.50057">
        <ele>2728.2</ele>
        <time>2021-02-28T13:13:05Z</time>
      </trkpt>
      <trkpt lat="45.01834" lon="6.50057">
        <ele>2728.6</ele>
        <time>2021-02-28T13:13:06Z</time>
      </trkpt>
      <trkpt lat="45.01832" lon="6.50058">
        <ele>2729.2</ele>
        <time>2021-02-28T13:13:07Z</time>
      </trkpt>
      <trkpt lat="45.01832" lon="6.50058">
        <ele>2729.2</ele>
        <time>2021-02-28T13:13:08Z</time>
      </trkpt>
      <trkpt lat="45.01832" lon="6.50058">
        <ele>2729.4</ele>
        <time>2021-02-28T13:13:09Z</time>
      </trkpt>
      <trkpt lat="45.0183" lon="6.5006">
        <ele>2730</ele>
        <time>2021-02-28T13:13:10Z</time>
      </trkpt>
      <trkpt lat="45.0183" lon="6.5006">
        <ele>2729.8</ele>
        <time>2021-02-28T13:13:11Z</time>
      </trkpt>
      <trkpt lat="45.0183" lon="6.5006">
        <ele>2730.2</ele>
        <time>2021-02-28T13:13:12Z</time>
      </trkpt>
      <trkpt lat="45.01828" lon="6.50062">
        <ele>2730.8</ele>
        <time>2021-02-28T13:13:13Z</time>
      </trkpt>
      <trkpt lat="45.01828" lon="6.50062">
        <ele>2731.2</ele>
        <time>2021-02-28T13:13:14Z</time>
      </trkpt>
      <trkpt lat="45.01828" lon="6.50062">
        <ele>2731</ele>
        <time>2021-02-28T13:13:15Z</time>
      </trkpt>
      <trkpt lat="45.01826" lon="6.50063">
        <ele>2731</ele>
        <time>2021-02-28T13:13:16Z</time>
      </trkpt>
      <trkpt lat="45.01826" lon="6.50063">
        <ele>2731.4</ele>
        <time>2021-02-28T13:13:17Z</time>
      </trkpt>
      <trkpt lat="45.01826" lon="6.50063">
        <ele>2731.8</ele>
        <time>2021-02-28T13:13:18Z</time>
      </trkpt>
      <trkpt lat="45.01824" lon="6.50061">
        <ele>2732.4</ele>
        <time>2021-02-28T13:13:19Z</time>
      </trkpt>
      <trkpt lat="45.01824" lon="6.50061">
        <ele>2733</ele>
        <time>2021-02-28T13:13:20Z</time>
      </trkpt>
      <trkpt lat="45.01825" lon="6.50058">
        <ele>2733.4</ele>
        <time>2021-02-28T13:13:21Z</time>
      </trkpt>
      <trkpt lat="45.01825" lon="6.50058">
        <ele>2733.8</ele>
        <time>2021-02-28T13:13:22Z</time>
      </trkpt>
      <trkpt lat="45.01824" lon="6.50055">
        <ele>2733.4</ele>
        <time>2021-02-28T13:13:23Z</time>
      </trkpt>
      <trkpt lat="45.01824" lon="6.50055">
        <ele>2734</ele>
        <time>2021-02-28T13:13:24Z</time>
      </trkpt>
      <trkpt lat="45.01824" lon="6.50055">
        <ele>2734.4</ele>
        <time>2021-02-28T13:13:25Z</time>
      </trkpt>
      <trkpt lat="45.01825" lon="6.50052">
        <ele>2734</ele>
        <time>2021-02-28T13:13:26Z</time>
      </trkpt>
      <trkpt lat="45.01825" lon="6.50052">
        <ele>2735</ele>
        <time>2021-02-28T13:13:27Z</time>
      </trkpt>
      <trkpt lat="45.01825" lon="6.50052">
        <ele>2735</ele>
        <time>2021-02-28T13:13:28Z</time>
      </trkpt>
      <trkpt lat="45.01825" lon="6.50049">
        <ele>2735</ele>
        <time>2021-02-28T13:13:29Z</time>
      </trkpt>
      <trkpt lat="45.01825" lon="6.50049">
        <ele>2735.4</ele>
        <time>2021-02-28T13:13:30Z</time>
      </trkpt>
      <trkpt lat="45.01825" lon="6.50049">
        <ele>2735.6</ele>
        <time>2021-02-28T13:13:31Z</time>
      </trkpt>
      <trkpt lat="45.01825" lon="6.50046">
        <ele>2735.8</ele>
        <time>2021-02-28T13:13:32Z</time>
      </trkpt>
      <trkpt lat="45.01825" lon="6.50046">
        <ele>2736.8</ele>
        <time>2021-02-28T13:13:33Z</time>
      </trkpt>
      <trkpt lat="45.01825" lon="6.50046">
        <ele>2737.4</ele>
        <time>2021-02-28T13:13:34Z</time>
      </trkpt>
      <trkpt lat="45.01825" lon="6.50046">
        <ele>2737.8</ele>
        <time>2021-02-28T13:13:35Z</time>
      </trkpt>
      <trkpt lat="45.01825" lon="6.50046">
        <ele>2738</ele>
        <time>2021-02-28T13:13:36Z</time>
      </trkpt>
      <trkpt lat="45.01823" lon="6.50046">
        <ele>2737.4</ele>
        <time>2021-02-28T13:13:37Z</time>
      </trkpt>
      <trkpt lat="45.01823" lon="6.50046">
        <ele>2738.4</ele>
        <time>2021-02-28T13:13:38Z</time>
      </trkpt>
      <trkpt lat="45.01823" lon="6.50046">
        <ele>2738.2</ele>
        <time>2021-02-28T13:13:39Z</time>
      </trkpt>
      <trkpt lat="45.01821" lon="6.50047">
        <ele>2738</ele>
        <time>2021-02-28T13:13:40Z</time>
      </trkpt>
      <trkpt lat="45.01821" lon="6.50047">
        <ele>2737.8</ele>
        <time>2021-02-28T13:13:41Z</time>
      </trkpt>
      <trkpt lat="45.01821" lon="6.50047">
        <ele>2737.4</ele>
        <time>2021-02-28T13:13:42Z</time>
      </trkpt>
      <trkpt lat="45.01819" lon="6.50048">
        <ele>2738</ele>
        <time>2021-02-28T13:13:43Z</time>
      </trkpt>
      <trkpt lat="45.01819" lon="6.50048">
        <ele>2738.2</ele>
        <time>2021-02-28T13:13:44Z</time>
      </trkpt>
      <trkpt lat="45.01819" lon="6.50048">
        <ele>2738</ele>
        <time>2021-02-28T13:13:45Z</time>
      </trkpt>
      <trkpt lat="45.01816" lon="6.50049">
        <ele>2738.8</ele>
        <time>2021-02-28T13:13:46Z</time>
      </trkpt>
      <trkpt lat="45.01816" lon="6.50049">
        <ele>2739</ele>
        <time>2021-02-28T13:13:47Z</time>
      </trkpt>
      <trkpt lat="45.01814" lon="6.50049">
        <ele>2739</ele>
        <time>2021-02-28T13:13:48Z</time>
      </trkpt>
      <trkpt lat="45.01814" lon="6.50049">
        <ele>2739.8</ele>
        <time>2021-02-28T13:13:49Z</time>
      </trkpt>
      <trkpt lat="45.01813" lon="6.50051">
        <ele>2740</ele>
        <time>2021-02-28T13:13:50Z</time>
      </trkpt>
      <trkpt lat="45.01813" lon="6.50051">
        <ele>2740.4</ele>
        <time>2021-02-28T13:13:51Z</time>
      </trkpt>
      <trkpt lat="45.01813" lon="6.50051">
        <ele>2740.8</ele>
        <time>2021-02-28T13:13:52Z</time>
      </trkpt>
      <trkpt lat="45.01811" lon="6.50052">
        <ele>2740.2</ele>
        <time>2021-02-28T13:13:53Z</time>
      </trkpt>
      <trkpt lat="45.01811" lon="6.50052">
        <ele>2740.6</ele>
        <time>2021-02-28T13:13:54Z</time>
      </trkpt>
      <trkpt lat="45.01811" lon="6.50052">
        <ele>2741.2</ele>
        <time>2021-02-28T13:13:55Z</time>
      </trkpt>
      <trkpt lat="45.01808" lon="6.50053">
        <ele>2741.4</ele>
        <time>2021-02-28T13:13:56Z</time>
      </trkpt>
      <trkpt lat="45.01808" lon="6.50053">
        <ele>2741.4</ele>
        <time>2021-02-28T13:13:57Z</time>
      </trkpt>
      <trkpt lat="45.01807" lon="6.50055">
        <ele>2742</ele>
        <time>2021-02-28T13:13:58Z</time>
      </trkpt>
      <trkpt lat="45.01807" lon="6.50055">
        <ele>2742</ele>
        <time>2021-02-28T13:13:59Z</time>
      </trkpt>
      <trkpt lat="45.01807" lon="6.50055">
        <ele>2742.4</ele>
        <time>2021-02-28T13:14:00Z</time>
      </trkpt>
      <trkpt lat="45.01805" lon="6.50056">
        <ele>2742.8</ele>
        <time>2021-02-28T13:14:01Z</time>
      </trkpt>
      <trkpt lat="45.01805" lon="6.50056">
        <ele>2742.4</ele>
        <time>2021-02-28T13:14:02Z</time>
      </trkpt>
      <trkpt lat="45.01805" lon="6.50056">
        <ele>2742.6</ele>
        <time>2021-02-28T13:14:03Z</time>
      </trkpt>
      <trkpt lat="45.01802" lon="6.50058">
        <ele>2743</ele>
        <time>2021-02-28T13:14:04Z</time>
      </trkpt>
      <trkpt lat="45.01802" lon="6.50058">
        <ele>2743.6</ele>
        <time>2021-02-28T13:14:05Z</time>
      </trkpt>
      <trkpt lat="45.01802" lon="6.50058">
        <ele>2743.8</ele>
        <time>2021-02-28T13:14:06Z</time>
      </trkpt>
      <trkpt lat="45.018" lon="6.5006">
        <ele>2743.8</ele>
        <time>2021-02-28T13:14:07Z</time>
      </trkpt>
      <trkpt lat="45.018" lon="6.5006">
        <ele>2743.6</ele>
        <time>2021-02-28T13:14:08Z</time>
      </trkpt>
      <trkpt lat="45.018" lon="6.5006">
        <ele>2743.8</ele>
        <time>2021-02-28T13:14:09Z</time>
      </trkpt>
      <trkpt lat="45.01798" lon="6.50061">
        <ele>2744.4</ele>
        <time>2021-02-28T13:14:10Z</time>
      </trkpt>
      <trkpt lat="45.01798" lon="6.50061">
        <ele>2744.6</ele>
        <time>2021-02-28T13:14:11Z</time>
      </trkpt>
      <trkpt lat="45.01798" lon="6.50061">
        <ele>2745.4</ele>
        <time>2021-02-28T13:14:12Z</time>
      </trkpt>
      <trkpt lat="45.01798" lon="6.50061">
        <ele>2746</ele>
        <time>2021-02-28T13:14:13Z</time>
      </trkpt>
      <trkpt lat="45.01798" lon="6.50059">
        <ele>2745.8</ele>
        <time>2021-02-28T13:14:14Z</time>
      </trkpt>
      <trkpt lat="45.01798" lon="6.50059">
        <ele>2746.2</ele>
        <time>2021-02-28T13:14:15Z</time>
      </trkpt>
      <trkpt lat="45.01798" lon="6.50059">
        <ele>2746.4</ele>
        <time>2021-02-28T13:14:16Z</time>
      </trkpt>
      <trkpt lat="45.01798" lon="6.50056">
        <ele>2747.2</ele>
        <time>2021-02-28T13:14:17Z</time>
      </trkpt>
      <trkpt lat="45.01798" lon="6.50056">
        <ele>2746.6</ele>
        <time>2021-02-28T13:14:18Z</time>
      </trkpt>
      <trkpt lat="45.01798" lon="6.50056">
        <ele>2747.2</ele>
        <time>2021-02-28T13:14:19Z</time>
      </trkpt>
      <trkpt lat="45.01799" lon="6.50053">
        <ele>2748</ele>
        <time>2021-02-28T13:14:20Z</time>
      </trkpt>
      <trkpt lat="45.01799" lon="6.50053">
        <ele>2747.8</ele>
        <time>2021-02-28T13:14:21Z</time>
      </trkpt>
      <trkpt lat="45.01799" lon="6.5005">
        <ele>2748.4</ele>
        <time>2021-02-28T13:14:22Z</time>
      </trkpt>
      <trkpt lat="45.01799" lon="6.5005">
        <ele>2749.2</ele>
        <time>2021-02-28T13:14:23Z</time>
      </trkpt>
      <trkpt lat="45.01799" lon="6.5005">
        <ele>2749.8</ele>
        <time>2021-02-28T13:14:24Z</time>
      </trkpt>
      <trkpt lat="45.01799" lon="6.50048">
        <ele>2750.4</ele>
        <time>2021-02-28T13:14:25Z</time>
      </trkpt>
      <trkpt lat="45.01799" lon="6.50048">
        <ele>2750.8</ele>
        <time>2021-02-28T13:14:26Z</time>
      </trkpt>
      <trkpt lat="45.01799" lon="6.50048">
        <ele>2751.4</ele>
        <time>2021-02-28T13:14:27Z</time>
      </trkpt>
      <trkpt lat="45.01799" lon="6.50048">
        <ele>2751.8</ele>
        <time>2021-02-28T13:14:28Z</time>
      </trkpt>
      <trkpt lat="45.01799" lon="6.50048">
        <ele>2752.2</ele>
        <time>2021-02-28T13:14:29Z</time>
      </trkpt>
      <trkpt lat="45.01799" lon="6.50048">
        <ele>2752.2</ele>
        <time>2021-02-28T13:14:30Z</time>
      </trkpt>
      <trkpt lat="45.01799" lon="6.50048">
        <ele>2752.2</ele>
        <time>2021-02-28T13:14:31Z</time>
      </trkpt>
      <trkpt lat="45.01799" lon="6.50048">
        <ele>2751.2</ele>
        <time>2021-02-28T13:14:32Z</time>
      </trkpt>
      <trkpt lat="45.01797" lon="6.50047">
        <ele>2751.8</ele>
        <time>2021-02-28T13:14:33Z</time>
      </trkpt>
      <trkpt lat="45.01797" lon="6.50047">
        <ele>2751.8</ele>
        <time>2021-02-28T13:14:34Z</time>
      </trkpt>
      <trkpt lat="45.01797" lon="6.50047">
        <ele>2751.6</ele>
        <time>2021-02-28T13:14:35Z</time>
      </trkpt>
      <trkpt lat="45.01796" lon="6.50048">
        <ele>2752</ele>
        <time>2021-02-28T13:14:36Z</time>
      </trkpt>
      <trkpt lat="45.01796" lon="6.50048">
        <ele>2751.6</ele>
        <time>2021-02-28T13:14:37Z</time>
      </trkpt>
      <trkpt lat="45.01796" lon="6.50048">
        <ele>2752</ele>
        <time>2021-02-28T13:14:38Z</time>
      </trkpt>
      <trkpt lat="45.01793" lon="6.50049">
        <ele>2752.2</ele>
        <time>2021-02-28T13:14:39Z</time>
      </trkpt>
      <trkpt lat="45.01793" lon="6.50049">
        <ele>2752.6</ele>
        <time>2021-02-28T13:14:40Z</time>
      </trkpt>
      <trkpt lat="45.01793" lon="6.50049">
        <ele>2752.8</ele>
        <time>2021-02-28T13:14:41Z</time>
      </trkpt>
      <trkpt lat="45.01791" lon="6.50051">
        <ele>2752.8</ele>
        <time>2021-02-28T13:14:42Z</time>
      </trkpt>
      <trkpt lat="45.01791" lon="6.50051">
        <ele>2752.6</ele>
        <time>2021-02-28T13:14:43Z</time>
      </trkpt>
      <trkpt lat="45.01791" lon="6.50051">
        <ele>2753.6</ele>
        <time>2021-02-28T13:14:44Z</time>
      </trkpt>
      <trkpt lat="45.01788" lon="6.50053">
        <ele>2753.6</ele>
        <time>2021-02-28T13:14:45Z</time>
      </trkpt>
      <trkpt lat="45.01788" lon="6.50053">
        <ele>2753.4</ele>
        <time>2021-02-28T13:14:46Z</time>
      </trkpt>
      <trkpt lat="45.01788" lon="6.50053">
        <ele>2754.2</ele>
        <time>2021-02-28T13:14:47Z</time>
      </trkpt>
      <trkpt lat="45.01786" lon="6.50054">
        <ele>2754.2</ele>
        <time>2021-02-28T13:14:48Z</time>
      </trkpt>
      <trkpt lat="45.01786" lon="6.50054">
        <ele>2754.6</ele>
        <time>2021-02-28T13:14:49Z</time>
      </trkpt>
      <trkpt lat="45.01786" lon="6.50054">
        <ele>2755</ele>
        <time>2021-02-28T13:14:50Z</time>
      </trkpt>
      <trkpt lat="45.01784" lon="6.50056">
        <ele>2755</ele>
        <time>2021-02-28T13:14:51Z</time>
      </trkpt>
      <trkpt lat="45.01784" lon="6.50056">
        <ele>2755</ele>
        <time>2021-02-28T13:14:52Z</time>
      </trkpt>
      <trkpt lat="45.01784" lon="6.50056">
        <ele>2755.8</ele>
        <time>2021-02-28T13:14:53Z</time>
      </trkpt>
      <trkpt lat="45.01782" lon="6.50057">
        <ele>2755.6</ele>
        <time>2021-02-28T13:14:54Z</time>
      </trkpt>
      <trkpt lat="45.01782" lon="6.50057">
        <ele>2755.6</ele>
        <time>2021-02-28T13:14:55Z</time>
      </trkpt>
      <trkpt lat="45.01782" lon="6.50057">
        <ele>2756.2</ele>
        <time>2021-02-28T13:14:56Z</time>
      </trkpt>
      <trkpt lat="45.01779" lon="6.50058">
        <ele>2756</ele>
        <time>2021-02-28T13:14:57Z</time>
      </trkpt>
      <trkpt lat="45.01779" lon="6.50058">
        <ele>2756.4</ele>
        <time>2021-02-28T13:14:58Z</time>
      </trkpt>
      <trkpt lat="45.01777" lon="6.50058">
        <ele>2756.6</ele>
        <time>2021-02-28T13:14:59Z</time>
      </trkpt>
      <trkpt lat="45.01777" lon="6.50058">
        <ele>2756</ele>
        <time>2021-02-28T13:15:00Z</time>
      </trkpt>
      <trkpt lat="45.01777" lon="6.50058">
        <ele>2756.6</ele>
        <time>2021-02-28T13:15:01Z</time>
      </trkpt>
      <trkpt lat="45.01776" lon="6.50059">
        <ele>2756.2</ele>
        <time>2021-02-28T13:15:02Z</time>
      </trkpt>
      <trkpt lat="45.01776" lon="6.50059">
        <ele>2756.8</ele>
        <time>2021-02-28T13:15:03Z</time>
      </trkpt>
      <trkpt lat="45.01776" lon="6.50059">
        <ele>2757.2</ele>
        <time>2021-02-28T13:15:04Z</time>
      </trkpt>
      <trkpt lat="45.01773" lon="6.5006">
        <ele>2757.2</ele>
        <time>2021-02-28T13:15:05Z</time>
      </trkpt>
      <trkpt lat="45.01773" lon="6.5006">
        <ele>2757.2</ele>
        <time>2021-02-28T13:15:06Z</time>
      </trkpt>
      <trkpt lat="45.01773" lon="6.5006">
        <ele>2757.8</ele>
        <time>2021-02-28T13:15:07Z</time>
      </trkpt>
      <trkpt lat="45.01771" lon="6.50062">
        <ele>2758.4</ele>
        <time>2021-02-28T13:15:08Z</time>
      </trkpt>
      <trkpt lat="45.01771" lon="6.50062">
        <ele>2758.4</ele>
        <time>2021-02-28T13:15:09Z</time>
      </trkpt>
      <trkpt lat="45.01771" lon="6.50062">
        <ele>2758.4</ele>
        <time>2021-02-28T13:15:10Z</time>
      </trkpt>
      <trkpt lat="45.01769" lon="6.50062">
        <ele>2759</ele>
        <time>2021-02-28T13:15:11Z</time>
      </trkpt>
      <trkpt lat="45.01769" lon="6.50062">
        <ele>2758.8</ele>
        <time>2021-02-28T13:15:12Z</time>
      </trkpt>
      <trkpt lat="45.01769" lon="6.50062">
        <ele>2759.2</ele>
        <time>2021-02-28T13:15:13Z</time>
      </trkpt>
      <trkpt lat="45.01767" lon="6.50062">
        <ele>2760</ele>
        <time>2021-02-28T13:15:14Z</time>
      </trkpt>
      <trkpt lat="45.01767" lon="6.50062">
        <ele>2760</ele>
        <time>2021-02-28T13:15:15Z</time>
      </trkpt>
      <trkpt lat="45.01767" lon="6.50062">
        <ele>2759.8</ele>
        <time>2021-02-28T13:15:16Z</time>
      </trkpt>
      <trkpt lat="45.01767" lon="6.50062">
        <ele>2759.8</ele>
        <time>2021-02-28T13:15:17Z</time>
      </trkpt>
      <trkpt lat="45.01764" lon="6.50062">
        <ele>2759.4</ele>
        <time>2021-02-28T13:15:18Z</time>
      </trkpt>
      <trkpt lat="45.01764" lon="6.50062">
        <ele>2760.6</ele>
        <time>2021-02-28T13:15:19Z</time>
      </trkpt>
      <trkpt lat="45.01763" lon="6.50061">
        <ele>2760.8</ele>
        <time>2021-02-28T13:15:20Z</time>
      </trkpt>
      <trkpt lat="45.01763" lon="6.50061">
        <ele>2761.2</ele>
        <time>2021-02-28T13:15:21Z</time>
      </trkpt>
      <trkpt lat="45.01763" lon="6.50061">
        <ele>2761.2</ele>
        <time>2021-02-28T13:15:22Z</time>
      </trkpt>
      <trkpt lat="45.01761" lon="6.50059">
        <ele>2761.2</ele>
        <time>2021-02-28T13:15:23Z</time>
      </trkpt>
      <trkpt lat="45.01761" lon="6.50059">
        <ele>2762.6</ele>
        <time>2021-02-28T13:15:24Z</time>
      </trkpt>
      <trkpt lat="45.01761" lon="6.50059">
        <ele>2762.4</ele>
        <time>2021-02-28T13:15:25Z</time>
      </trkpt>
      <trkpt lat="45.0176" lon="6.50057">
        <ele>2762.6</ele>
        <time>2021-02-28T13:15:26Z</time>
      </trkpt>
      <trkpt lat="45.0176" lon="6.50057">
        <ele>2763.2</ele>
        <time>2021-02-28T13:15:27Z</time>
      </trkpt>
      <trkpt lat="45.0176" lon="6.50057">
        <ele>2763.2</ele>
        <time>2021-02-28T13:15:28Z</time>
      </trkpt>
      <trkpt lat="45.01759" lon="6.50054">
        <ele>2763.8</ele>
        <time>2021-02-28T13:15:29Z</time>
      </trkpt>
      <trkpt lat="45.01759" lon="6.50054">
        <ele>2764.2</ele>
        <time>2021-02-28T13:15:30Z</time>
      </trkpt>
      <trkpt lat="45.01759" lon="6.50054">
        <ele>2764.2</ele>
        <time>2021-02-28T13:15:31Z</time>
      </trkpt>
      <trkpt lat="45.01759" lon="6.50051">
        <ele>2764.4</ele>
        <time>2021-02-28T13:15:32Z</time>
      </trkpt>
      <trkpt lat="45.01759" lon="6.50051">
        <ele>2765.4</ele>
        <time>2021-02-28T13:15:33Z</time>
      </trkpt>
      <trkpt lat="45.01759" lon="6.50051">
        <ele>2765.6</ele>
        <time>2021-02-28T13:15:34Z</time>
      </trkpt>
      <trkpt lat="45.01759" lon="6.50051">
        <ele>2765.8</ele>
        <time>2021-02-28T13:15:35Z</time>
      </trkpt>
      <trkpt lat="45.01756" lon="6.50049">
        <ele>2766.4</ele>
        <time>2021-02-28T13:15:36Z</time>
      </trkpt>
      <trkpt lat="45.01756" lon="6.50049">
        <ele>2766.8</ele>
        <time>2021-02-28T13:15:37Z</time>
      </trkpt>
      <trkpt lat="45.01753" lon="6.50048">
        <ele>2767</ele>
        <time>2021-02-28T13:15:38Z</time>
      </trkpt>
      <trkpt lat="45.01753" lon="6.50048">
        <ele>2766.8</ele>
        <time>2021-02-28T13:15:39Z</time>
      </trkpt>
      <trkpt lat="45.0175" lon="6.50048">
        <ele>2766</ele>
        <time>2021-02-28T13:15:40Z</time>
      </trkpt>
      <trkpt lat="45.0175" lon="6.50048">
        <ele>2766</ele>
        <time>2021-02-28T13:15:41Z</time>
      </trkpt>
      <trkpt lat="45.01747" lon="6.50048">
        <ele>2765.8</ele>
        <time>2021-02-28T13:15:42Z</time>
      </trkpt>
      <trkpt lat="45.01747" lon="6.50048">
        <ele>2765.4</ele>
        <time>2021-02-28T13:15:43Z</time>
      </trkpt>
      <trkpt lat="45.01744" lon="6.50048">
        <ele>2765.8</ele>
        <time>2021-02-28T13:15:44Z</time>
      </trkpt>
      <trkpt lat="45.01744" lon="6.50048">
        <ele>2766.2</ele>
        <time>2021-02-28T13:15:45Z</time>
      </trkpt>
      <trkpt lat="45.01742" lon="6.50048">
        <ele>2766.2</ele>
        <time>2021-02-28T13:15:46Z</time>
      </trkpt>
      <trkpt lat="45.01742" lon="6.50048">
        <ele>2765.8</ele>
        <time>2021-02-28T13:15:47Z</time>
      </trkpt>
      <trkpt lat="45.0174" lon="6.50048">
        <ele>2766.2</ele>
        <time>2021-02-28T13:15:48Z</time>
      </trkpt>
      <trkpt lat="45.0174" lon="6.50048">
        <ele>2766.2</ele>
        <time>2021-02-28T13:15:49Z</time>
      </trkpt>
      <trkpt lat="45.01738" lon="6.50047">
        <ele>2766</ele>
        <time>2021-02-28T13:15:50Z</time>
      </trkpt>
      <trkpt lat="45.01738" lon="6.50047">
        <ele>2766.4</ele>
        <time>2021-02-28T13:15:51Z</time>
      </trkpt>
      <trkpt lat="45.01736" lon="6.50047">
        <ele>2766.6</ele>
        <time>2021-02-28T13:15:52Z</time>
      </trkpt>
      <trkpt lat="45.01736" lon="6.50047">
        <ele>2766.2</ele>
        <time>2021-02-28T13:15:53Z</time>
      </trkpt>
      <trkpt lat="45.01736" lon="6.50047">
        <ele>2767.2</ele>
        <time>2021-02-28T13:15:54Z</time>
      </trkpt>
      <trkpt lat="45.01734" lon="6.50046">
        <ele>2766.8</ele>
        <time>2021-02-28T13:15:55Z</time>
      </trkpt>
      <trkpt lat="45.01734" lon="6.50046">
        <ele>2767</ele>
        <time>2021-02-28T13:15:56Z</time>
      </trkpt>
      <trkpt lat="45.01734" lon="6.50046">
        <ele>2766.6</ele>
        <time>2021-02-28T13:15:57Z</time>
      </trkpt>
      <trkpt lat="45.01734" lon="6.50046">
        <ele>2766.6</ele>
        <time>2021-02-28T13:15:58Z</time>
      </trkpt>
      <trkpt lat="45.01734" lon="6.50046">
        <ele>2766.4</ele>
        <time>2021-02-28T13:15:59Z</time>
      </trkpt>
      <trkpt lat="45.01734" lon="6.50046">
        <ele>2766.2</ele>
        <time>2021-02-28T13:16:00Z</time>
      </trkpt>
      <trkpt lat="45.01734" lon="6.50046">
        <ele>2766.2</ele>
        <time>2021-02-28T13:16:01Z</time>
      </trkpt>
      <trkpt lat="45.01734" lon="6.50046">
        <ele>2766.2</ele>
        <time>2021-02-28T13:16:02Z</time>
      </trkpt>
      <trkpt lat="45.01734" lon="6.50046">
        <ele>2766.2</ele>
        <time>2021-02-28T13:16:03Z</time>
      </trkpt>
      <trkpt lat="45.01734" lon="6.50046">
        <ele>2766</ele>
        <time>2021-02-28T13:16:04Z</time>
      </trkpt>
      <trkpt lat="45.01734" lon="6.50046">
        <ele>2765.8</ele>
        <time>2021-02-28T13:16:05Z</time>
      </trkpt>
      <trkpt lat="45.01734" lon="6.50046">
        <ele>2766</ele>
        <time>2021-02-28T13:16:06Z</time>
      </trkpt>
      <trkpt lat="45.01734" lon="6.50046">
        <ele>2766</ele>
        <time>2021-02-28T13:16:07Z</time>
      </trkpt>
      <trkpt lat="45.01734" lon="6.50046">
        <ele>2765.8</ele>
        <time>2021-02-28T13:16:08Z</time>
      </trkpt>
      <trkpt lat="45.01734" lon="6.50046">
        <ele>2766.4</ele>
        <time>2021-02-28T13:16:09Z</time>
      </trkpt>
      <trkpt lat="45.01734" lon="6.50046">
        <ele>2767.2</ele>
        <time>2021-02-28T13:16:10Z</time>
      </trkpt>
      <trkpt lat="45.01734" lon="6.50046">
        <ele>2767</ele>
        <time>2021-02-28T13:16:11Z</time>
      </trkpt>
      <trkpt lat="45.01734" lon="6.50046">
        <ele>2767.4</ele>
        <time>2021-02-28T13:16:12Z</time>
      </trkpt>
      <trkpt lat="45.01734" lon="6.50046">
        <ele>2767.4</ele>
        <time>2021-02-28T13:16:13Z</time>
      </trkpt>
      <trkpt lat="45.01734" lon="6.50046">
        <ele>2767.2</ele>
        <time>2021-02-28T13:16:14Z</time>
      </trkpt>
      <trkpt lat="45.01734" lon="6.50046">
        <ele>2767.4</ele>
        <time>2021-02-28T13:16:15Z</time>
      </trkpt>
      <trkpt lat="45.01734" lon="6.50046">
        <ele>2767.2</ele>
        <time>2021-02-28T13:16:16Z</time>
      </trkpt>
      <trkpt lat="45.01734" lon="6.50046">
        <ele>2767.2</ele>
        <time>2021-02-28T13:16:17Z</time>
      </trkpt>
      <trkpt lat="45.01734" lon="6.50046">
        <ele>2767.2</ele>
        <time>2021-02-28T13:16:18Z</time>
      </trkpt>
      <trkpt lat="45.01734" lon="6.50046">
        <ele>2767</ele>
        <time>2021-02-28T13:16:19Z</time>
      </trkpt>
      <trkpt lat="45.01734" lon="6.50046">
        <ele>2766.8</ele>
        <time>2021-02-28T13:16:20Z</time>
      </trkpt>
      <trkpt lat="45.01734" lon="6.50046">
        <ele>2767</ele>
        <time>2021-02-28T13:16:21Z</time>
      </trkpt>
      <trkpt lat="45.01734" lon="6.50046">
        <ele>2766.8</ele>
        <time>2021-02-28T13:16:22Z</time>
      </trkpt>
      <trkpt lat="45.01734" lon="6.50046">
        <ele>2766.8</ele>
        <time>2021-02-28T13:16:23Z</time>
      </trkpt>
      <trkpt lat="45.01734" lon="6.50046">
        <ele>2766.6</ele>
        <time>2021-02-28T13:16:24Z</time>
      </trkpt>
      <trkpt lat="45.01734" lon="6.50046">
        <ele>2766.8</ele>
        <time>2021-02-28T13:16:25Z</time>
      </trkpt>
      <trkpt lat="45.01734" lon="6.50046">
        <ele>2767.2</ele>
        <time>2021-02-28T13:16:26Z</time>
      </trkpt>
      <trkpt lat="45.01734" lon="6.50046">
        <ele>2766.6</ele>
        <time>2021-02-28T13:16:27Z</time>
      </trkpt>
      <trkpt lat="45.01734" lon="6.50046">
        <ele>2766.6</ele>
        <time>2021-02-28T13:16:28Z</time>
      </trkpt>
      <trkpt lat="45.01734" lon="6.50046">
        <ele>2766.8</ele>
        <time>2021-02-28T13:16:29Z</time>
      </trkpt>
      <trkpt lat="45.01734" lon="6.50046">
        <ele>2766.8</ele>
        <time>2021-02-28T13:16:30Z</time>
      </trkpt>
      <trkpt lat="45.01734" lon="6.50046">
        <ele>2766.6</ele>
        <time>2021-02-28T13:16:31Z</time>
      </trkpt>
      <trkpt lat="45.01734" lon="6.50046">
        <ele>2766.6</ele>
        <time>2021-02-28T13:16:32Z</time>
      </trkpt>
      <trkpt lat="45.01734" lon="6.50046">
        <ele>2766.6</ele>
        <time>2021-02-28T13:16:33Z</time>
      </trkpt>
      <trkpt lat="45.01734" lon="6.50046">
        <ele>2766.4</ele>
        <time>2021-02-28T13:16:34Z</time>
      </trkpt>
      <trkpt lat="45.01734" lon="6.50046">
        <ele>2766.4</ele>
        <time>2021-02-28T13:16:35Z</time>
      </trkpt>
      <trkpt lat="45.01734" lon="6.50046">
        <ele>2766.4</ele>
        <time>2021-02-28T13:16:36Z</time>
      </trkpt>
      <trkpt lat="45.01734" lon="6.50046">
        <ele>2766.4</ele>
        <time>2021-02-28T13:16:37Z</time>
      </trkpt>
      <trkpt lat="45.01734" lon="6.50046">
        <ele>2766.4</ele>
        <time>2021-02-28T13:16:38Z</time>
      </trkpt>
      <trkpt lat="45.01734" lon="6.50046">
        <ele>2766.4</ele>
        <time>2021-02-28T13:16:39Z</time>
      </trkpt>
      <trkpt lat="45.01734" lon="6.50046">
        <ele>2765.8</ele>
        <time>2021-02-28T13:16:40Z</time>
      </trkpt>
      <trkpt lat="45.01734" lon="6.50046">
        <ele>2766.2</ele>
        <time>2021-02-28T13:16:41Z</time>
      </trkpt>
      <trkpt lat="45.01734" lon="6.50046">
        <ele>2766.4</ele>
        <time>2021-02-28T13:16:42Z</time>
      </trkpt>
      <trkpt lat="45.01734" lon="6.50046">
        <ele>2766.4</ele>
        <time>2021-02-28T13:16:43Z</time>
      </trkpt>
      <trkpt lat="45.01734" lon="6.50046">
        <ele>2766.6</ele>
        <time>2021-02-28T13:16:44Z</time>
      </trkpt>
      <trkpt lat="45.01734" lon="6.50046">
        <ele>2766.6</ele>
        <time>2021-02-28T13:16:45Z</time>
      </trkpt>
      <trkpt lat="45.01734" lon="6.50046">
        <ele>2766.6</ele>
        <time>2021-02-28T13:16:46Z</time>
      </trkpt>
      <trkpt lat="45.01734" lon="6.50046">
        <ele>2766.6</ele>
        <time>2021-02-28T13:16:47Z</time>
      </trkpt>
      <trkpt lat="45.01734" lon="6.50046">
        <ele>2766.6</ele>
        <time>2021-02-28T13:16:48Z</time>
      </trkpt>
      <trkpt lat="45.01734" lon="6.50046">
        <ele>2766.4</ele>
        <time>2021-02-28T13:16:49Z</time>
      </trkpt>
      <trkpt lat="45.01734" lon="6.50046">
        <ele>2766.8</ele>
        <time>2021-02-28T13:16:50Z</time>
      </trkpt>
      <trkpt lat="45.01734" lon="6.50046">
        <ele>2766.8</ele>
        <time>2021-02-28T13:16:51Z</time>
      </trkpt>
      <trkpt lat="45.01734" lon="6.50046">
        <ele>2766.6</ele>
        <time>2021-02-28T13:16:52Z</time>
      </trkpt>
      <trkpt lat="45.01734" lon="6.50046">
        <ele>2766.8</ele>
        <time>2021-02-28T13:16:53Z</time>
      </trkpt>
      <trkpt lat="45.01734" lon="6.50046">
        <ele>2766.8</ele>
        <time>2021-02-28T13:16:54Z</time>
      </trkpt>
      <trkpt lat="45.01734" lon="6.50046">
        <ele>2767.2</ele>
        <time>2021-02-28T13:16:55Z</time>
      </trkpt>
      <trkpt lat="45.01734" lon="6.50046">
        <ele>2767.2</ele>
        <time>2021-02-28T13:16:56Z</time>
      </trkpt>
      <trkpt lat="45.01734" lon="6.50046">
        <ele>2767</ele>
        <time>2021-02-28T13:16:57Z</time>
      </trkpt>
      <trkpt lat="45.01734" lon="6.50046">
        <ele>2767.2</ele>
        <time>2021-02-28T13:16:58Z</time>
      </trkpt>
      <trkpt lat="45.01734" lon="6.50046">
        <ele>2767.2</ele>
        <time>2021-02-28T13:16:59Z</time>
      </trkpt>
      <trkpt lat="45.01734" lon="6.50046">
        <ele>2766.8</ele>
        <time>2021-02-28T13:17:00Z</time>
      </trkpt>
      <trkpt lat="45.01734" lon="6.50046">
        <ele>2767</ele>
        <time>2021-02-28T13:17:01Z</time>
      </trkpt>
      <trkpt lat="45.01734" lon="6.50046">
        <ele>2767</ele>
        <time>2021-02-28T13:17:02Z</time>
      </trkpt>
      <trkpt lat="45.01734" lon="6.50046">
        <ele>2767</ele>
        <time>2021-02-28T13:17:03Z</time>
      </trkpt>
      <trkpt lat="45.01734" lon="6.50046">
        <ele>2766.8</ele>
        <time>2021-02-28T13:17:04Z</time>
      </trkpt>
      <trkpt lat="45.01734" lon="6.50046">
        <ele>2766.8</ele>
        <time>2021-02-28T13:17:05Z</time>
      </trkpt>
      <trkpt lat="45.01734" lon="6.50046">
        <ele>2767</ele>
        <time>2021-02-28T13:17:06Z</time>
      </trkpt>
      <trkpt lat="45.01733" lon="6.50044">
        <ele>2767</ele>
        <time>2021-02-28T13:17:07Z</time>
      </trkpt>
      <trkpt lat="45.01733" lon="6.50044">
        <ele>2767</ele>
        <time>2021-02-28T13:17:08Z</time>
      </trkpt>
      <trkpt lat="45.01733" lon="6.50044">
        <ele>2767.2</ele>
        <time>2021-02-28T13:17:09Z</time>
      </trkpt>
      <trkpt lat="45.01733" lon="6.50044">
        <ele>2766.8</ele>
        <time>2021-02-28T13:17:10Z</time>
      </trkpt>
      <trkpt lat="45.01733" lon="6.50044">
        <ele>2767</ele>
        <time>2021-02-28T13:17:11Z</time>
      </trkpt>
      <trkpt lat="45.01733" lon="6.50044">
        <ele>2766.8</ele>
        <time>2021-02-28T13:17:12Z</time>
      </trkpt>
      <trkpt lat="45.01733" lon="6.50044">
        <ele>2766.4</ele>
        <time>2021-02-28T13:17:13Z</time>
      </trkpt>
      <trkpt lat="45.01733" lon="6.50044">
        <ele>2766.6</ele>
        <time>2021-02-28T13:17:14Z</time>
      </trkpt>
      <trkpt lat="45.01733" lon="6.50044">
        <ele>2766.2</ele>
        <time>2021-02-28T13:17:15Z</time>
      </trkpt>
      <trkpt lat="45.01733" lon="6.50044">
        <ele>2766</ele>
        <time>2021-02-28T13:17:16Z</time>
      </trkpt>
      <trkpt lat="45.01733" lon="6.50044">
        <ele>2765.8</ele>
        <time>2021-02-28T13:17:17Z</time>
      </trkpt>
      <trkpt lat="45.01733" lon="6.50044">
        <ele>2766.2</ele>
        <time>2021-02-28T13:17:18Z</time>
      </trkpt>
      <trkpt lat="45.01733" lon="6.50044">
        <ele>2766.4</ele>
        <time>2021-02-28T13:17:19Z</time>
      </trkpt>
      <trkpt lat="45.01733" lon="6.50044">
        <ele>2764.4</ele>
        <time>2021-02-28T13:17:20Z</time>
      </trkpt>
      <trkpt lat="45.01733" lon="6.50044">
        <ele>2765.2</ele>
        <time>2021-02-28T13:17:21Z</time>
      </trkpt>
      <trkpt lat="45.01733" lon="6.50044">
        <ele>2765.6</ele>
        <time>2021-02-28T13:17:22Z</time>
      </trkpt>
      <trkpt lat="45.01733" lon="6.50044">
        <ele>2766.2</ele>
        <time>2021-02-28T13:17:23Z</time>
      </trkpt>
      <trkpt lat="45.01733" lon="6.50044">
        <ele>2766</ele>
        <time>2021-02-28T13:17:24Z</time>
      </trkpt>
      <trkpt lat="45.01733" lon="6.50044">
        <ele>2766.2</ele>
        <time>2021-02-28T13:17:25Z</time>
      </trkpt>
      <trkpt lat="45.01733" lon="6.50044">
        <ele>2766.4</ele>
        <time>2021-02-28T13:17:26Z</time>
      </trkpt>
      <trkpt lat="45.01733" lon="6.50044">
        <ele>2766.6</ele>
        <time>2021-02-28T13:17:27Z</time>
      </trkpt>
      <trkpt lat="45.01733" lon="6.50044">
        <ele>2766.8</ele>
        <time>2021-02-28T13:17:28Z</time>
      </trkpt>
      <trkpt lat="45.01733" lon="6.50044">
        <ele>2766.6</ele>
        <time>2021-02-28T13:17:29Z</time>
      </trkpt>
      <trkpt lat="45.01733" lon="6.50044">
        <ele>2766.6</ele>
        <time>2021-02-28T13:17:30Z</time>
      </trkpt>
      <trkpt lat="45.01733" lon="6.50044">
        <ele>2766.6</ele>
        <time>2021-02-28T13:17:31Z</time>
      </trkpt>
      <trkpt lat="45.01733" lon="6.50044">
        <ele>2766.6</ele>
        <time>2021-02-28T13:17:32Z</time>
      </trkpt>
      <trkpt lat="45.01733" lon="6.50044">
        <ele>2766.8</ele>
        <time>2021-02-28T13:17:33Z</time>
      </trkpt>
      <trkpt lat="45.01733" lon="6.50044">
        <ele>2766.8</ele>
        <time>2021-02-28T13:17:34Z</time>
      </trkpt>
      <trkpt lat="45.01733" lon="6.50044">
        <ele>2767</ele>
        <time>2021-02-28T13:17:35Z</time>
      </trkpt>
      <trkpt lat="45.01733" lon="6.50044">
        <ele>2767</ele>
        <time>2021-02-28T13:17:36Z</time>
      </trkpt>
      <trkpt lat="45.01733" lon="6.50044">
        <ele>2766.6</ele>
        <time>2021-02-28T13:17:37Z</time>
      </trkpt>
      <trkpt lat="45.01733" lon="6.50044">
        <ele>2766.6</ele>
        <time>2021-02-28T13:17:38Z</time>
      </trkpt>
      <trkpt lat="45.01733" lon="6.50044">
        <ele>2766.4</ele>
        <time>2021-02-28T13:17:39Z</time>
      </trkpt>
      <trkpt lat="45.01733" lon="6.50044">
        <ele>2766.6</ele>
        <time>2021-02-28T13:17:40Z</time>
      </trkpt>
      <trkpt lat="45.01733" lon="6.50044">
        <ele>2767</ele>
        <time>2021-02-28T13:17:41Z</time>
      </trkpt>
      <trkpt lat="45.01733" lon="6.50044">
        <ele>2767.4</ele>
        <time>2021-02-28T13:17:42Z</time>
      </trkpt>
      <trkpt lat="45.01733" lon="6.50044">
        <ele>2767.2</ele>
        <time>2021-02-28T13:17:43Z</time>
      </trkpt>
      <trkpt lat="45.01733" lon="6.50044">
        <ele>2767</ele>
        <time>2021-02-28T13:17:44Z</time>
      </trkpt>
      <trkpt lat="45.01733" lon="6.50044">
        <ele>2767</ele>
        <time>2021-02-28T13:17:45Z</time>
      </trkpt>
      <trkpt lat="45.01733" lon="6.50044">
        <ele>2766.6</ele>
        <time>2021-02-28T13:17:46Z</time>
      </trkpt>
      <trkpt lat="45.01733" lon="6.50044">
        <ele>2766.2</ele>
        <time>2021-02-28T13:17:47Z</time>
      </trkpt>
      <trkpt lat="45.01733" lon="6.50044">
        <ele>2766.4</ele>
        <time>2021-02-28T13:17:48Z</time>
      </trkpt>
      <trkpt lat="45.01733" lon="6.50044">
        <ele>2766.8</ele>
        <time>2021-02-28T13:17:49Z</time>
      </trkpt>
      <trkpt lat="45.01733" lon="6.50044">
        <ele>2766.8</ele>
        <time>2021-02-28T13:17:50Z</time>
      </trkpt>
      <trkpt lat="45.01733" lon="6.50044">
        <ele>2766.6</ele>
        <time>2021-02-28T13:17:51Z</time>
      </trkpt>
      <trkpt lat="45.01733" lon="6.50044">
        <ele>2766.4</ele>
        <time>2021-02-28T13:17:52Z</time>
      </trkpt>
      <trkpt lat="45.01733" lon="6.50044">
        <ele>2766.6</ele>
        <time>2021-02-28T13:17:53Z</time>
      </trkpt>
      <trkpt lat="45.01733" lon="6.50044">
        <ele>2766.4</ele>
        <time>2021-02-28T13:17:54Z</time>
      </trkpt>
      <trkpt lat="45.01733" lon="6.50044">
        <ele>2766.4</ele>
        <time>2021-02-28T13:17:55Z</time>
      </trkpt>
      <trkpt lat="45.01733" lon="6.50044">
        <ele>2766.6</ele>
        <time>2021-02-28T13:17:56Z</time>
      </trkpt>
      <trkpt lat="45.01733" lon="6.50044">
        <ele>2766.6</ele>
        <time>2021-02-28T13:17:57Z</time>
      </trkpt>
      <trkpt lat="45.01733" lon="6.50044">
        <ele>2766.6</ele>
        <time>2021-02-28T13:17:58Z</time>
      </trkpt>
      <trkpt lat="45.01733" lon="6.50044">
        <ele>2766.6</ele>
        <time>2021-02-28T13:17:59Z</time>
      </trkpt>
      <trkpt lat="45.01733" lon="6.50044">
        <ele>2766.4</ele>
        <time>2021-02-28T13:18:00Z</time>
      </trkpt>
      <trkpt lat="45.01733" lon="6.50044">
        <ele>2766.2</ele>
        <time>2021-02-28T13:18:01Z</time>
      </trkpt>
      <trkpt lat="45.01733" lon="6.50044">
        <ele>2766</ele>
        <time>2021-02-28T13:18:02Z</time>
      </trkpt>
      <trkpt lat="45.01733" lon="6.50044">
        <ele>2766.2</ele>
        <time>2021-02-28T13:18:03Z</time>
      </trkpt>
      <trkpt lat="45.01733" lon="6.50044">
        <ele>2766.2</ele>
        <time>2021-02-28T13:18:04Z</time>
      </trkpt>
      <trkpt lat="45.01733" lon="6.50044">
        <ele>2766</ele>
        <time>2021-02-28T13:18:05Z</time>
      </trkpt>
      <trkpt lat="45.01733" lon="6.50044">
        <ele>2765.6</ele>
        <time>2021-02-28T13:18:06Z</time>
      </trkpt>
      <trkpt lat="45.01733" lon="6.50044">
        <ele>2763.6</ele>
        <time>2021-02-28T13:18:07Z</time>
      </trkpt>
      <trkpt lat="45.01733" lon="6.50044">
        <ele>2762.8</ele>
        <time>2021-02-28T13:18:08Z</time>
      </trkpt>
      <trkpt lat="45.01733" lon="6.50044">
        <ele>2764</ele>
        <time>2021-02-28T13:18:09Z</time>
      </trkpt>
      <trkpt lat="45.01733" lon="6.50044">
        <ele>2763.2</ele>
        <time>2021-02-28T13:18:10Z</time>
      </trkpt>
      <trkpt lat="45.01733" lon="6.50044">
        <ele>2763.4</ele>
        <time>2021-02-28T13:18:11Z</time>
      </trkpt>
      <trkpt lat="45.01733" lon="6.50044">
        <ele>2764</ele>
        <time>2021-02-28T13:18:12Z</time>
      </trkpt>
      <trkpt lat="45.01733" lon="6.50044">
        <ele>2764</ele>
        <time>2021-02-28T13:18:13Z</time>
      </trkpt>
      <trkpt lat="45.01733" lon="6.50044">
        <ele>2764</ele>
        <time>2021-02-28T13:18:14Z</time>
      </trkpt>
      <trkpt lat="45.01733" lon="6.50044">
        <ele>2763.4</ele>
        <time>2021-02-28T13:18:15Z</time>
      </trkpt>
      <trkpt lat="45.01733" lon="6.50044">
        <ele>2764.2</ele>
        <time>2021-02-28T13:18:16Z</time>
      </trkpt>
      <trkpt lat="45.01733" lon="6.50044">
        <ele>2763.8</ele>
        <time>2021-02-28T13:18:17Z</time>
      </trkpt>
      <trkpt lat="45.01733" lon="6.50044">
        <ele>2763.8</ele>
        <time>2021-02-28T13:18:18Z</time>
      </trkpt>
      <trkpt lat="45.01733" lon="6.50044">
        <ele>2763.8</ele>
        <time>2021-02-28T13:18:19Z</time>
      </trkpt>
      <trkpt lat="45.01733" lon="6.50044">
        <ele>2764</ele>
        <time>2021-02-28T13:18:20Z</time>
      </trkpt>
      <trkpt lat="45.01733" lon="6.50044">
        <ele>2763.8</ele>
        <time>2021-02-28T13:18:21Z</time>
      </trkpt>
      <trkpt lat="45.01733" lon="6.50044">
        <ele>2764</ele>
        <time>2021-02-28T13:18:22Z</time>
      </trkpt>
      <trkpt lat="45.01733" lon="6.50044">
        <ele>2764.6</ele>
        <time>2021-02-28T13:18:23Z</time>
      </trkpt>
      <trkpt lat="45.01733" lon="6.50044">
        <ele>2763.8</ele>
        <time>2021-02-28T13:18:24Z</time>
      </trkpt>
      <trkpt lat="45.01733" lon="6.50044">
        <ele>2763.4</ele>
        <time>2021-02-28T13:18:25Z</time>
      </trkpt>
      <trkpt lat="45.01733" lon="6.50044">
        <ele>2763.4</ele>
        <time>2021-02-28T13:18:26Z</time>
      </trkpt>
      <trkpt lat="45.01733" lon="6.50044">
        <ele>2763.4</ele>
        <time>2021-02-28T13:18:27Z</time>
      </trkpt>
      <trkpt lat="45.01733" lon="6.50044">
        <ele>2763.2</ele>
        <time>2021-02-28T13:18:28Z</time>
      </trkpt>
      <trkpt lat="45.01733" lon="6.50044">
        <ele>2763.2</ele>
        <time>2021-02-28T13:18:29Z</time>
      </trkpt>
      <trkpt lat="45.01733" lon="6.50044">
        <ele>2763.6</ele>
        <time>2021-02-28T13:18:30Z</time>
      </trkpt>
      <trkpt lat="45.01733" lon="6.50044">
        <ele>2763.6</ele>
        <time>2021-02-28T13:18:31Z</time>
      </trkpt>
      <trkpt lat="45.01733" lon="6.50044">
        <ele>2763.6</ele>
        <time>2021-02-28T13:18:32Z</time>
      </trkpt>
      <trkpt lat="45.01733" lon="6.50044">
        <ele>2763.8</ele>
        <time>2021-02-28T13:18:33Z</time>
      </trkpt>
      <trkpt lat="45.01733" lon="6.50044">
        <ele>2762.4</ele>
        <time>2021-02-28T13:18:34Z</time>
      </trkpt>
      <trkpt lat="45.01733" lon="6.50044">
        <ele>2762.2</ele>
        <time>2021-02-28T13:18:35Z</time>
      </trkpt>
      <trkpt lat="45.01733" lon="6.50044">
        <ele>2761.6</ele>
        <time>2021-02-28T13:18:36Z</time>
      </trkpt>
      <trkpt lat="45.01733" lon="6.50044">
        <ele>2762.8</ele>
        <time>2021-02-28T13:18:37Z</time>
      </trkpt>
      <trkpt lat="45.01734" lon="6.50041">
        <ele>2762.8</ele>
        <time>2021-02-28T13:18:38Z</time>
      </trkpt>
      <trkpt lat="45.01734" lon="6.50041">
        <ele>2763.4</ele>
        <time>2021-02-28T13:18:39Z</time>
      </trkpt>
      <trkpt lat="45.01734" lon="6.50041">
        <ele>2763.2</ele>
        <time>2021-02-28T13:18:40Z</time>
      </trkpt>
      <trkpt lat="45.01734" lon="6.50041">
        <ele>2763.2</ele>
        <time>2021-02-28T13:18:41Z</time>
      </trkpt>
      <trkpt lat="45.01734" lon="6.50041">
        <ele>2763.4</ele>
        <time>2021-02-28T13:18:42Z</time>
      </trkpt>
      <trkpt lat="45.01734" lon="6.50041">
        <ele>2763.6</ele>
        <time>2021-02-28T13:18:43Z</time>
      </trkpt>
      <trkpt lat="45.01734" lon="6.50041">
        <ele>2765.2</ele>
        <time>2021-02-28T13:18:44Z</time>
      </trkpt>
      <trkpt lat="45.01734" lon="6.50041">
        <ele>2764.4</ele>
        <time>2021-02-28T13:18:45Z</time>
      </trkpt>
      <trkpt lat="45.01734" lon="6.50041">
        <ele>2763.6</ele>
        <time>2021-02-28T13:18:46Z</time>
      </trkpt>
      <trkpt lat="45.01734" lon="6.50041">
        <ele>2763</ele>
        <time>2021-02-28T13:18:47Z</time>
      </trkpt>
      <trkpt lat="45.01734" lon="6.50041">
        <ele>2762.8</ele>
        <time>2021-02-28T13:18:48Z</time>
      </trkpt>
      <trkpt lat="45.01734" lon="6.50041">
        <ele>2762.8</ele>
        <time>2021-02-28T13:18:49Z</time>
      </trkpt>
      <trkpt lat="45.01734" lon="6.50041">
        <ele>2763.6</ele>
        <time>2021-02-28T13:18:50Z</time>
      </trkpt>
      <trkpt lat="45.01734" lon="6.50041">
        <ele>2763</ele>
        <time>2021-02-28T13:18:51Z</time>
      </trkpt>
      <trkpt lat="45.01734" lon="6.50041">
        <ele>2763</ele>
        <time>2021-02-28T13:18:52Z</time>
      </trkpt>
      <trkpt lat="45.01734" lon="6.50041">
        <ele>2762.6</ele>
        <time>2021-02-28T13:18:53Z</time>
      </trkpt>
      <trkpt lat="45.01734" lon="6.50041">
        <ele>2761.8</ele>
        <time>2021-02-28T13:18:54Z</time>
      </trkpt>
      <trkpt lat="45.01734" lon="6.50041">
        <ele>2762.6</ele>
        <time>2021-02-28T13:18:55Z</time>
      </trkpt>
      <trkpt lat="45.01734" lon="6.50041">
        <ele>2762.6</ele>
        <time>2021-02-28T13:18:56Z</time>
      </trkpt>
      <trkpt lat="45.01734" lon="6.50041">
        <ele>2763</ele>
        <time>2021-02-28T13:18:57Z</time>
      </trkpt>
      <trkpt lat="45.01734" lon="6.50041">
        <ele>2763</ele>
        <time>2021-02-28T13:18:58Z</time>
      </trkpt>
      <trkpt lat="45.01734" lon="6.50041">
        <ele>2762.8</ele>
        <time>2021-02-28T13:18:59Z</time>
      </trkpt>
      <trkpt lat="45.01734" lon="6.50041">
        <ele>2763.2</ele>
        <time>2021-02-28T13:19:00Z</time>
      </trkpt>
      <trkpt lat="45.01734" lon="6.50041">
        <ele>2763.2</ele>
        <time>2021-02-28T13:19:01Z</time>
      </trkpt>
      <trkpt lat="45.01734" lon="6.50041">
        <ele>2762.4</ele>
        <time>2021-02-28T13:19:02Z</time>
      </trkpt>
      <trkpt lat="45.01734" lon="6.50041">
        <ele>2762.2</ele>
        <time>2021-02-28T13:19:03Z</time>
      </trkpt>
      <trkpt lat="45.01734" lon="6.50041">
        <ele>2762.2</ele>
        <time>2021-02-28T13:19:04Z</time>
      </trkpt>
      <trkpt lat="45.01734" lon="6.50041">
        <ele>2761.6</ele>
        <time>2021-02-28T13:19:05Z</time>
      </trkpt>
      <trkpt lat="45.01734" lon="6.50041">
        <ele>2760.8</ele>
        <time>2021-02-28T13:19:06Z</time>
      </trkpt>
      <trkpt lat="45.01734" lon="6.50041">
        <ele>2760</ele>
        <time>2021-02-28T13:19:07Z</time>
      </trkpt>
      <trkpt lat="45.01734" lon="6.50041">
        <ele>2760.6</ele>
        <time>2021-02-28T13:19:08Z</time>
      </trkpt>
      <trkpt lat="45.01734" lon="6.50041">
        <ele>2761.6</ele>
        <time>2021-02-28T13:19:09Z</time>
      </trkpt>
      <trkpt lat="45.01734" lon="6.50041">
        <ele>2761.6</ele>
        <time>2021-02-28T13:19:10Z</time>
      </trkpt>
      <trkpt lat="45.01734" lon="6.50041">
        <ele>2761.4</ele>
        <time>2021-02-28T13:19:11Z</time>
      </trkpt>
      <trkpt lat="45.01734" lon="6.50041">
        <ele>2761.4</ele>
        <time>2021-02-28T13:19:12Z</time>
      </trkpt>
      <trkpt lat="45.01734" lon="6.50041">
        <ele>2761.8</ele>
        <time>2021-02-28T13:19:13Z</time>
      </trkpt>
      <trkpt lat="45.01734" lon="6.50041">
        <ele>2761.8</ele>
        <time>2021-02-28T13:19:14Z</time>
      </trkpt>
      <trkpt lat="45.01734" lon="6.50041">
        <ele>2762.2</ele>
        <time>2021-02-28T13:19:15Z</time>
      </trkpt>
      <trkpt lat="45.01734" lon="6.50041">
        <ele>2763.4</ele>
        <time>2021-02-28T13:19:16Z</time>
      </trkpt>
      <trkpt lat="45.01734" lon="6.50041">
        <ele>2763.2</ele>
        <time>2021-02-28T13:19:17Z</time>
      </trkpt>
      <trkpt lat="45.01734" lon="6.50041">
        <ele>2762.8</ele>
        <time>2021-02-28T13:19:18Z</time>
      </trkpt>
      <trkpt lat="45.01734" lon="6.50041">
        <ele>2762.2</ele>
        <time>2021-02-28T13:19:19Z</time>
      </trkpt>
      <trkpt lat="45.01734" lon="6.50041">
        <ele>2762</ele>
        <time>2021-02-28T13:19:20Z</time>
      </trkpt>
      <trkpt lat="45.01734" lon="6.50041">
        <ele>2762.4</ele>
        <time>2021-02-28T13:19:21Z</time>
      </trkpt>
      <trkpt lat="45.01734" lon="6.50041">
        <ele>2762.8</ele>
        <time>2021-02-28T13:19:22Z</time>
      </trkpt>
      <trkpt lat="45.01734" lon="6.50041">
        <ele>2762.4</ele>
        <time>2021-02-28T13:19:23Z</time>
      </trkpt>
      <trkpt lat="45.01734" lon="6.50041">
        <ele>2762.6</ele>
        <time>2021-02-28T13:19:24Z</time>
      </trkpt>
      <trkpt lat="45.01734" lon="6.50041">
        <ele>2762.6</ele>
        <time>2021-02-28T13:19:25Z</time>
      </trkpt>
      <trkpt lat="45.01734" lon="6.50041">
        <ele>2762.4</ele>
        <time>2021-02-28T13:19:26Z</time>
      </trkpt>
      <trkpt lat="45.01734" lon="6.50041">
        <ele>2762.2</ele>
        <time>2021-02-28T13:19:27Z</time>
      </trkpt>
      <trkpt lat="45.01734" lon="6.50041">
        <ele>2762.2</ele>
        <time>2021-02-28T13:19:28Z</time>
      </trkpt>
      <trkpt lat="45.01734" lon="6.50041">
        <ele>2761.8</ele>
        <time>2021-02-28T13:19:29Z</time>
      </trkpt>
      <trkpt lat="45.01734" lon="6.50041">
        <ele>2761.6</ele>
        <time>2021-02-28T13:19:30Z</time>
      </trkpt>
      <trkpt lat="45.01734" lon="6.50041">
        <ele>2761.6</ele>
        <time>2021-02-28T13:19:31Z</time>
      </trkpt>
      <trkpt lat="45.01734" lon="6.50041">
        <ele>2761.6</ele>
        <time>2021-02-28T13:19:32Z</time>
      </trkpt>
      <trkpt lat="45.01734" lon="6.50041">
        <ele>2762.2</ele>
        <time>2021-02-28T13:19:33Z</time>
      </trkpt>
      <trkpt lat="45.01734" lon="6.50041">
        <ele>2761.8</ele>
        <time>2021-02-28T13:19:34Z</time>
      </trkpt>
      <trkpt lat="45.01734" lon="6.50041">
        <ele>2761.4</ele>
        <time>2021-02-28T13:19:35Z</time>
      </trkpt>
      <trkpt lat="45.01734" lon="6.50041">
        <ele>2761.6</ele>
        <time>2021-02-28T13:19:36Z</time>
      </trkpt>
      <trkpt lat="45.01734" lon="6.50041">
        <ele>2761.4</ele>
        <time>2021-02-28T13:19:37Z</time>
      </trkpt>
      <trkpt lat="45.01734" lon="6.50041">
        <ele>2761.6</ele>
        <time>2021-02-28T13:19:38Z</time>
      </trkpt>
      <trkpt lat="45.01734" lon="6.50041">
        <ele>2761.4</ele>
        <time>2021-02-28T13:19:39Z</time>
      </trkpt>
      <trkpt lat="45.01734" lon="6.50041">
        <ele>2761</ele>
        <time>2021-02-28T13:19:40Z</time>
      </trkpt>
      <trkpt lat="45.01734" lon="6.50041">
        <ele>2761.2</ele>
        <time>2021-02-28T13:19:41Z</time>
      </trkpt>
      <trkpt lat="45.01734" lon="6.50041">
        <ele>2761</ele>
        <time>2021-02-28T13:19:42Z</time>
      </trkpt>
      <trkpt lat="45.01734" lon="6.50041">
        <ele>2761.8</ele>
        <time>2021-02-28T13:19:43Z</time>
      </trkpt>
      <trkpt lat="45.01734" lon="6.50041">
        <ele>2761.8</ele>
        <time>2021-02-28T13:19:44Z</time>
      </trkpt>
      <trkpt lat="45.01734" lon="6.50041">
        <ele>2761.4</ele>
        <time>2021-02-28T13:19:45Z</time>
      </trkpt>
      <trkpt lat="45.01734" lon="6.50041">
        <ele>2761.2</ele>
        <time>2021-02-28T13:19:46Z</time>
      </trkpt>
      <trkpt lat="45.01734" lon="6.50041">
        <ele>2761</ele>
        <time>2021-02-28T13:19:47Z</time>
      </trkpt>
      <trkpt lat="45.01734" lon="6.50041">
        <ele>2761.2</ele>
        <time>2021-02-28T13:19:48Z</time>
      </trkpt>
      <trkpt lat="45.01734" lon="6.50041">
        <ele>2760.2</ele>
        <time>2021-02-28T13:19:49Z</time>
      </trkpt>
      <trkpt lat="45.01734" lon="6.50041">
        <ele>2760.2</ele>
        <time>2021-02-28T13:19:50Z</time>
      </trkpt>
      <trkpt lat="45.01734" lon="6.50041">
        <ele>2760</ele>
        <time>2021-02-28T13:19:51Z</time>
      </trkpt>
      <trkpt lat="45.01734" lon="6.50041">
        <ele>2760.2</ele>
        <time>2021-02-28T13:19:52Z</time>
      </trkpt>
      <trkpt lat="45.01734" lon="6.50041">
        <ele>2760.4</ele>
        <time>2021-02-28T13:19:53Z</time>
      </trkpt>
      <trkpt lat="45.01734" lon="6.50041">
        <ele>2760.6</ele>
        <time>2021-02-28T13:19:54Z</time>
      </trkpt>
      <trkpt lat="45.01734" lon="6.50041">
        <ele>2760.8</ele>
        <time>2021-02-28T13:19:55Z</time>
      </trkpt>
      <trkpt lat="45.01734" lon="6.50041">
        <ele>2761.4</ele>
        <time>2021-02-28T13:19:56Z</time>
      </trkpt>
      <trkpt lat="45.01734" lon="6.50041">
        <ele>2760.6</ele>
        <time>2021-02-28T13:19:57Z</time>
      </trkpt>
      <trkpt lat="45.01734" lon="6.50041">
        <ele>2760.2</ele>
        <time>2021-02-28T13:19:58Z</time>
      </trkpt>
      <trkpt lat="45.01734" lon="6.50041">
        <ele>2760.6</ele>
        <time>2021-02-28T13:19:59Z</time>
      </trkpt>
      <trkpt lat="45.01734" lon="6.50041">
        <ele>2760.4</ele>
        <time>2021-02-28T13:20:00Z</time>
      </trkpt>
      <trkpt lat="45.01734" lon="6.50041">
        <ele>2760.2</ele>
        <time>2021-02-28T13:20:01Z</time>
      </trkpt>
      <trkpt lat="45.01734" lon="6.50041">
        <ele>2760.4</ele>
        <time>2021-02-28T13:20:02Z</time>
      </trkpt>
      <trkpt lat="45.01734" lon="6.50041">
        <ele>2760.4</ele>
        <time>2021-02-28T13:20:03Z</time>
      </trkpt>
      <trkpt lat="45.01734" lon="6.50041">
        <ele>2760</ele>
        <time>2021-02-28T13:20:04Z</time>
      </trkpt>
      <trkpt lat="45.01734" lon="6.50041">
        <ele>2760</ele>
        <time>2021-02-28T13:20:05Z</time>
      </trkpt>
      <trkpt lat="45.01734" lon="6.50041">
        <ele>2760.2</ele>
        <time>2021-02-28T13:20:06Z</time>
      </trkpt>
      <trkpt lat="45.01734" lon="6.50041">
        <ele>2760.2</ele>
        <time>2021-02-28T13:20:07Z</time>
      </trkpt>
      <trkpt lat="45.01734" lon="6.50041">
        <ele>2760</ele>
        <time>2021-02-28T13:20:08Z</time>
      </trkpt>
      <trkpt lat="45.01734" lon="6.50041">
        <ele>2760.2</ele>
        <time>2021-02-28T13:20:09Z</time>
      </trkpt>
      <trkpt lat="45.01734" lon="6.50041">
        <ele>2760.2</ele>
        <time>2021-02-28T13:20:10Z</time>
      </trkpt>
      <trkpt lat="45.01734" lon="6.50041">
        <ele>2760</ele>
        <time>2021-02-28T13:20:11Z</time>
      </trkpt>
      <trkpt lat="45.01734" lon="6.50041">
        <ele>2759.6</ele>
        <time>2021-02-28T13:20:12Z</time>
      </trkpt>
      <trkpt lat="45.01734" lon="6.50041">
        <ele>2759.6</ele>
        <time>2021-02-28T13:20:13Z</time>
      </trkpt>
      <trkpt lat="45.01734" lon="6.50041">
        <ele>2759.8</ele>
        <time>2021-02-28T13:20:14Z</time>
      </trkpt>
      <trkpt lat="45.01734" lon="6.50041">
        <ele>2760</ele>
        <time>2021-02-28T13:20:15Z</time>
      </trkpt>
      <trkpt lat="45.01734" lon="6.50041">
        <ele>2759.8</ele>
        <time>2021-02-28T13:20:16Z</time>
      </trkpt>
      <trkpt lat="45.01734" lon="6.50041">
        <ele>2759.4</ele>
        <time>2021-02-28T13:20:17Z</time>
      </trkpt>
      <trkpt lat="45.01734" lon="6.50041">
        <ele>2759.2</ele>
        <time>2021-02-28T13:20:18Z</time>
      </trkpt>
      <trkpt lat="45.01734" lon="6.50041">
        <ele>2759</ele>
        <time>2021-02-28T13:20:19Z</time>
      </trkpt>
      <trkpt lat="45.01734" lon="6.50041">
        <ele>2759</ele>
        <time>2021-02-28T13:20:20Z</time>
      </trkpt>
      <trkpt lat="45.01734" lon="6.50041">
        <ele>2758.6</ele>
        <time>2021-02-28T13:20:21Z</time>
      </trkpt>
      <trkpt lat="45.01734" lon="6.50041">
        <ele>2758.8</ele>
        <time>2021-02-28T13:20:22Z</time>
      </trkpt>
      <trkpt lat="45.01734" lon="6.50041">
        <ele>2758.8</ele>
        <time>2021-02-28T13:20:23Z</time>
      </trkpt>
      <trkpt lat="45.01734" lon="6.50041">
        <ele>2758.8</ele>
        <time>2021-02-28T13:20:24Z</time>
      </trkpt>
      <trkpt lat="45.01734" lon="6.50041">
        <ele>2758.6</ele>
        <time>2021-02-28T13:20:25Z</time>
      </trkpt>
      <trkpt lat="45.01734" lon="6.50041">
        <ele>2758.4</ele>
        <time>2021-02-28T13:20:26Z</time>
      </trkpt>
      <trkpt lat="45.01734" lon="6.50041">
        <ele>2758.6</ele>
        <time>2021-02-28T13:20:27Z</time>
      </trkpt>
      <trkpt lat="45.01734" lon="6.50041">
        <ele>2758.8</ele>
        <time>2021-02-28T13:20:28Z</time>
      </trkpt>
      <trkpt lat="45.01734" lon="6.50041">
        <ele>2758.8</ele>
        <time>2021-02-28T13:20:29Z</time>
      </trkpt>
      <trkpt lat="45.01734" lon="6.50041">
        <ele>2758.6</ele>
        <time>2021-02-28T13:20:30Z</time>
      </trkpt>
      <trkpt lat="45.01734" lon="6.50041">
        <ele>2758.6</ele>
        <time>2021-02-28T13:20:31Z</time>
      </trkpt>
      <trkpt lat="45.01734" lon="6.50041">
        <ele>2758.6</ele>
        <time>2021-02-28T13:20:32Z</time>
      </trkpt>
      <trkpt lat="45.01734" lon="6.50041">
        <ele>2758.6</ele>
        <time>2021-02-28T13:20:33Z</time>
      </trkpt>
      <trkpt lat="45.01734" lon="6.50041">
        <ele>2758.6</ele>
        <time>2021-02-28T13:20:34Z</time>
      </trkpt>
      <trkpt lat="45.01734" lon="6.50041">
        <ele>2758.6</ele>
        <time>2021-02-28T13:20:35Z</time>
      </trkpt>
      <trkpt lat="45.01734" lon="6.50041">
        <ele>2758.6</ele>
        <time>2021-02-28T13:20:36Z</time>
      </trkpt>
      <trkpt lat="45.01734" lon="6.50041">
        <ele>2759</ele>
        <time>2021-02-28T13:20:37Z</time>
      </trkpt>
      <trkpt lat="45.01734" lon="6.50041">
        <ele>2759</ele>
        <time>2021-02-28T13:20:38Z</time>
      </trkpt>
      <trkpt lat="45.01734" lon="6.50041">
        <ele>2759.4</ele>
        <time>2021-02-28T13:20:39Z</time>
      </trkpt>
      <trkpt lat="45.01734" lon="6.50041">
        <ele>2759.2</ele>
        <time>2021-02-28T13:20:40Z</time>
      </trkpt>
      <trkpt lat="45.01734" lon="6.50041">
        <ele>2759</ele>
        <time>2021-02-28T13:20:41Z</time>
      </trkpt>
      <trkpt lat="45.01734" lon="6.50041">
        <ele>2758.6</ele>
        <time>2021-02-28T13:20:42Z</time>
      </trkpt>
      <trkpt lat="45.01734" lon="6.50041">
        <ele>2758.6</ele>
        <time>2021-02-28T13:20:43Z</time>
      </trkpt>
      <trkpt lat="45.01734" lon="6.50041">
        <ele>2758.6</ele>
        <time>2021-02-28T13:20:44Z</time>
      </trkpt>
      <trkpt lat="45.01734" lon="6.50041">
        <ele>2758.8</ele>
        <time>2021-02-28T13:20:45Z</time>
      </trkpt>
      <trkpt lat="45.01734" lon="6.50041">
        <ele>2759</ele>
        <time>2021-02-28T13:20:46Z</time>
      </trkpt>
      <trkpt lat="45.01734" lon="6.50041">
        <ele>2758.8</ele>
        <time>2021-02-28T13:20:47Z</time>
      </trkpt>
      <trkpt lat="45.01734" lon="6.50041">
        <ele>2758.8</ele>
        <time>2021-02-28T13:20:48Z</time>
      </trkpt>
      <trkpt lat="45.01734" lon="6.50041">
        <ele>2758.8</ele>
        <time>2021-02-28T13:20:49Z</time>
      </trkpt>
      <trkpt lat="45.01734" lon="6.50041">
        <ele>2758.8</ele>
        <time>2021-02-28T13:20:50Z</time>
      </trkpt>
      <trkpt lat="45.01734" lon="6.50041">
        <ele>2758.8</ele>
        <time>2021-02-28T13:20:51Z</time>
      </trkpt>
      <trkpt lat="45.01734" lon="6.50041">
        <ele>2758.8</ele>
        <time>2021-02-28T13:20:52Z</time>
      </trkpt>
      <trkpt lat="45.01734" lon="6.50041">
        <ele>2758.8</ele>
        <time>2021-02-28T13:20:53Z</time>
      </trkpt>
      <trkpt lat="45.01734" lon="6.50041">
        <ele>2758.8</ele>
        <time>2021-02-28T13:20:54Z</time>
      </trkpt>
      <trkpt lat="45.01734" lon="6.50041">
        <ele>2759</ele>
        <time>2021-02-28T13:20:55Z</time>
      </trkpt>
      <trkpt lat="45.01734" lon="6.50041">
        <ele>2758.8</ele>
        <time>2021-02-28T13:20:56Z</time>
      </trkpt>
      <trkpt lat="45.01734" lon="6.50041">
        <ele>2759</ele>
        <time>2021-02-28T13:20:57Z</time>
      </trkpt>
      <trkpt lat="45.01734" lon="6.50041">
        <ele>2758.8</ele>
        <time>2021-02-28T13:20:58Z</time>
      </trkpt>
      <trkpt lat="45.01734" lon="6.50041">
        <ele>2758</ele>
        <time>2021-02-28T13:20:59Z</time>
      </trkpt>
      <trkpt lat="45.01734" lon="6.50041">
        <ele>2758</ele>
        <time>2021-02-28T13:21:00Z</time>
      </trkpt>
      <trkpt lat="45.01734" lon="6.50041">
        <ele>2758.4</ele>
        <time>2021-02-28T13:21:01Z</time>
      </trkpt>
      <trkpt lat="45.01734" lon="6.50041">
        <ele>2758.6</ele>
        <time>2021-02-28T13:21:02Z</time>
      </trkpt>
      <trkpt lat="45.01734" lon="6.50041">
        <ele>2758.8</ele>
        <time>2021-02-28T13:21:03Z</time>
      </trkpt>
      <trkpt lat="45.01734" lon="6.50041">
        <ele>2759</ele>
        <time>2021-02-28T13:21:04Z</time>
      </trkpt>
      <trkpt lat="45.01734" lon="6.50041">
        <ele>2758.8</ele>
        <time>2021-02-28T13:21:05Z</time>
      </trkpt>
      <trkpt lat="45.01734" lon="6.50041">
        <ele>2758.8</ele>
        <time>2021-02-28T13:21:06Z</time>
      </trkpt>
      <trkpt lat="45.01734" lon="6.50041">
        <ele>2758.6</ele>
        <time>2021-02-28T13:21:07Z</time>
      </trkpt>
      <trkpt lat="45.01734" lon="6.50041">
        <ele>2758.6</ele>
        <time>2021-02-28T13:21:08Z</time>
      </trkpt>
      <trkpt lat="45.01734" lon="6.50041">
        <ele>2758.6</ele>
        <time>2021-02-28T13:21:09Z</time>
      </trkpt>
      <trkpt lat="45.01734" lon="6.50041">
        <ele>2758.8</ele>
        <time>2021-02-28T13:21:10Z</time>
      </trkpt>
      <trkpt lat="45.01734" lon="6.50041">
        <ele>2758.8</ele>
        <time>2021-02-28T13:21:11Z</time>
      </trkpt>
      <trkpt lat="45.01734" lon="6.50041">
        <ele>2758.8</ele>
        <time>2021-02-28T13:21:12Z</time>
      </trkpt>
      <trkpt lat="45.01734" lon="6.50041">
        <ele>2759</ele>
        <time>2021-02-28T13:21:13Z</time>
      </trkpt>
      <trkpt lat="45.01734" lon="6.50041">
        <ele>2759.2</ele>
        <time>2021-02-28T13:21:14Z</time>
      </trkpt>
      <trkpt lat="45.01734" lon="6.50041">
        <ele>2759</ele>
        <time>2021-02-28T13:21:15Z</time>
      </trkpt>
      <trkpt lat="45.01734" lon="6.50045">
        <ele>2758.8</ele>
        <time>2021-02-28T13:21:16Z</time>
      </trkpt>
      <trkpt lat="45.01736" lon="6.50048">
        <ele>2758.6</ele>
        <time>2021-02-28T13:21:17Z</time>
      </trkpt>
      <trkpt lat="45.01737" lon="6.50053">
        <ele>2758.4</ele>
        <time>2021-02-28T13:21:18Z</time>
      </trkpt>
      <trkpt lat="45.01736" lon="6.50058">
        <ele>2758.4</ele>
        <time>2021-02-28T13:21:19Z</time>
      </trkpt>
      <trkpt lat="45.01733" lon="6.50061">
        <ele>2756.8</ele>
        <time>2021-02-28T13:21:20Z</time>
      </trkpt>
      <trkpt lat="45.01731" lon="6.50064">
        <ele>2755.6</ele>
        <time>2021-02-28T13:21:21Z</time>
      </trkpt>
      <trkpt lat="45.0173" lon="6.50068">
        <ele>2754.4</ele>
        <time>2021-02-28T13:21:22Z</time>
      </trkpt>
      <trkpt lat="45.01729" lon="6.50072">
        <ele>2752.4</ele>
        <time>2021-02-28T13:21:23Z</time>
      </trkpt>
      <trkpt lat="45.01729" lon="6.50072">
        <ele>2749.8</ele>
        <time>2021-02-28T13:21:24Z</time>
      </trkpt>
      <trkpt lat="45.01726" lon="6.50073">
        <ele>2749</ele>
        <time>2021-02-28T13:21:25Z</time>
      </trkpt>
      <trkpt lat="45.01726" lon="6.50073">
        <ele>2748.6</ele>
        <time>2021-02-28T13:21:26Z</time>
      </trkpt>
      <trkpt lat="45.01724" lon="6.5008">
        <ele>2748</ele>
        <time>2021-02-28T13:21:27Z</time>
      </trkpt>
      <trkpt lat="45.01722" lon="6.50087">
        <ele>2746.6</ele>
        <time>2021-02-28T13:21:28Z</time>
      </trkpt>
      <trkpt lat="45.01722" lon="6.50089">
        <ele>2745.4</ele>
        <time>2021-02-28T13:21:29Z</time>
      </trkpt>
      <trkpt lat="45.01721" lon="6.50092">
        <ele>2744.2</ele>
        <time>2021-02-28T13:21:30Z</time>
      </trkpt>
      <trkpt lat="45.01721" lon="6.50092">
        <ele>2743.8</ele>
        <time>2021-02-28T13:21:31Z</time>
      </trkpt>
      <trkpt lat="45.01718" lon="6.50092">
        <ele>2742.8</ele>
        <time>2021-02-28T13:21:32Z</time>
      </trkpt>
      <trkpt lat="45.01717" lon="6.50093">
        <ele>2742</ele>
        <time>2021-02-28T13:21:33Z</time>
      </trkpt>
      <trkpt lat="45.01715" lon="6.50096">
        <ele>2741</ele>
        <time>2021-02-28T13:21:34Z</time>
      </trkpt>
      <trkpt lat="45.01715" lon="6.50096">
        <ele>2740.2</ele>
        <time>2021-02-28T13:21:35Z</time>
      </trkpt>
      <trkpt lat="45.01713" lon="6.50099">
        <ele>2738.4</ele>
        <time>2021-02-28T13:21:36Z</time>
      </trkpt>
      <trkpt lat="45.01712" lon="6.50102">
        <ele>2737.8</ele>
        <time>2021-02-28T13:21:37Z</time>
      </trkpt>
      <trkpt lat="45.01711" lon="6.50107">
        <ele>2737</ele>
        <time>2021-02-28T13:21:38Z</time>
      </trkpt>
      <trkpt lat="45.01711" lon="6.50112">
        <ele>2736.4</ele>
        <time>2021-02-28T13:21:39Z</time>
      </trkpt>
      <trkpt lat="45.0171" lon="6.50118">
        <ele>2735.6</ele>
        <time>2021-02-28T13:21:40Z</time>
      </trkpt>
      <trkpt lat="45.01709" lon="6.50121">
        <ele>2734.6</ele>
        <time>2021-02-28T13:21:41Z</time>
      </trkpt>
      <trkpt lat="45.01705" lon="6.5012">
        <ele>2733.2</ele>
        <time>2021-02-28T13:21:42Z</time>
      </trkpt>
      <trkpt lat="45.01701" lon="6.50117">
        <ele>2732</ele>
        <time>2021-02-28T13:21:43Z</time>
      </trkpt>
      <trkpt lat="45.01698" lon="6.50118">
        <ele>2730.8</ele>
        <time>2021-02-28T13:21:44Z</time>
      </trkpt>
      <trkpt lat="45.01697" lon="6.50124">
        <ele>2729</ele>
        <time>2021-02-28T13:21:45Z</time>
      </trkpt>
      <trkpt lat="45.01695" lon="6.5013">
        <ele>2727.4</ele>
        <time>2021-02-28T13:21:46Z</time>
      </trkpt>
      <trkpt lat="45.01692" lon="6.50131">
        <ele>2726</ele>
        <time>2021-02-28T13:21:47Z</time>
      </trkpt>
      <trkpt lat="45.01688" lon="6.50129">
        <ele>2724.2</ele>
        <time>2021-02-28T13:21:48Z</time>
      </trkpt>
      <trkpt lat="45.01684" lon="6.50131">
        <ele>2722.6</ele>
        <time>2021-02-28T13:21:49Z</time>
      </trkpt>
      <trkpt lat="45.01683" lon="6.50138">
        <ele>2720.6</ele>
        <time>2021-02-28T13:21:50Z</time>
      </trkpt>
      <trkpt lat="45.01682" lon="6.50146">
        <ele>2718.4</ele>
        <time>2021-02-28T13:21:51Z</time>
      </trkpt>
      <trkpt lat="45.01682" lon="6.50146">
        <ele>2716.4</ele>
        <time>2021-02-28T13:21:52Z</time>
      </trkpt>
      <trkpt lat="45.01674" lon="6.50146">
        <ele>2714.4</ele>
        <time>2021-02-28T13:21:53Z</time>
      </trkpt>
      <trkpt lat="45.01668" lon="6.50139">
        <ele>2711.8</ele>
        <time>2021-02-28T13:21:54Z</time>
      </trkpt>
      <trkpt lat="45.01666" lon="6.50137">
        <ele>2709.6</ele>
        <time>2021-02-28T13:21:55Z</time>
      </trkpt>
      <trkpt lat="45.01662" lon="6.50139">
        <ele>2708</ele>
        <time>2021-02-28T13:21:56Z</time>
      </trkpt>
      <trkpt lat="45.01659" lon="6.50147">
        <ele>2705.8</ele>
        <time>2021-02-28T13:21:57Z</time>
      </trkpt>
      <trkpt lat="45.01659" lon="6.50147">
        <ele>2703.2</ele>
        <time>2021-02-28T13:21:58Z</time>
      </trkpt>
      <trkpt lat="45.01656" lon="6.50164">
        <ele>2700.6</ele>
        <time>2021-02-28T13:21:59Z</time>
      </trkpt>
      <trkpt lat="45.01653" lon="6.50164">
        <ele>2699</ele>
        <time>2021-02-28T13:22:00Z</time>
      </trkpt>
      <trkpt lat="45.01651" lon="6.50164">
        <ele>2696.8</ele>
        <time>2021-02-28T13:22:01Z</time>
      </trkpt>
      <trkpt lat="45.01643" lon="6.50158">
        <ele>2694.6</ele>
        <time>2021-02-28T13:22:02Z</time>
      </trkpt>
      <trkpt lat="45.0164" lon="6.50153">
        <ele>2692.2</ele>
        <time>2021-02-28T13:22:03Z</time>
      </trkpt>
      <trkpt lat="45.01637" lon="6.50159">
        <ele>2689.8</ele>
        <time>2021-02-28T13:22:04Z</time>
      </trkpt>
      <trkpt lat="45.01634" lon="6.50165">
        <ele>2687.6</ele>
        <time>2021-02-28T13:22:05Z</time>
      </trkpt>
      <trkpt lat="45.01634" lon="6.50169">
        <ele>2685.6</ele>
        <time>2021-02-28T13:22:06Z</time>
      </trkpt>
      <trkpt lat="45.01633" lon="6.50174">
        <ele>2683.4</ele>
        <time>2021-02-28T13:22:07Z</time>
      </trkpt>
      <trkpt lat="45.0163" lon="6.50182">
        <ele>2681.6</ele>
        <time>2021-02-28T13:22:08Z</time>
      </trkpt>
      <trkpt lat="45.01627" lon="6.50181">
        <ele>2679.6</ele>
        <time>2021-02-28T13:22:09Z</time>
      </trkpt>
      <trkpt lat="45.01618" lon="6.50185">
        <ele>2677.4</ele>
        <time>2021-02-28T13:22:10Z</time>
      </trkpt>
      <trkpt lat="45.01614" lon="6.50191">
        <ele>2675.2</ele>
        <time>2021-02-28T13:22:11Z</time>
      </trkpt>
      <trkpt lat="45.01605" lon="6.50204">
        <ele>2672.8</ele>
        <time>2021-02-28T13:22:12Z</time>
      </trkpt>
      <trkpt lat="45.01602" lon="6.50206">
        <ele>2670.4</ele>
        <time>2021-02-28T13:22:13Z</time>
      </trkpt>
      <trkpt lat="45.01595" lon="6.50211">
        <ele>2668.4</ele>
        <time>2021-02-28T13:22:14Z</time>
      </trkpt>
      <trkpt lat="45.01592" lon="6.50213">
        <ele>2666</ele>
        <time>2021-02-28T13:22:15Z</time>
      </trkpt>
      <trkpt lat="45.01589" lon="6.50214">
        <ele>2663.8</ele>
        <time>2021-02-28T13:22:16Z</time>
      </trkpt>
      <trkpt lat="45.01581" lon="6.5022">
        <ele>2661.2</ele>
        <time>2021-02-28T13:22:17Z</time>
      </trkpt>
      <trkpt lat="45.01579" lon="6.50225">
        <ele>2659.2</ele>
        <time>2021-02-28T13:22:18Z</time>
      </trkpt>
      <trkpt lat="45.01571" lon="6.50237">
        <ele>2657</ele>
        <time>2021-02-28T13:22:19Z</time>
      </trkpt>
      <trkpt lat="45.01568" lon="6.5024">
        <ele>2654</ele>
        <time>2021-02-28T13:22:20Z</time>
      </trkpt>
      <trkpt lat="45.01559" lon="6.50249">
        <ele>2651.6</ele>
        <time>2021-02-28T13:22:21Z</time>
      </trkpt>
      <trkpt lat="45.01555" lon="6.50252">
        <ele>2648.4</ele>
        <time>2021-02-28T13:22:22Z</time>
      </trkpt>
      <trkpt lat="45.01546" lon="6.50262">
        <ele>2646.4</ele>
        <time>2021-02-28T13:22:23Z</time>
      </trkpt>
      <trkpt lat="45.01544" lon="6.50267">
        <ele>2644.2</ele>
        <time>2021-02-28T13:22:24Z</time>
      </trkpt>
      <trkpt lat="45.01534" lon="6.50283">
        <ele>2641.6</ele>
        <time>2021-02-28T13:22:25Z</time>
      </trkpt>
      <trkpt lat="45.01528" lon="6.5029">
        <ele>2639</ele>
        <time>2021-02-28T13:22:26Z</time>
      </trkpt>
      <trkpt lat="45.01513" lon="6.50308">
        <ele>2636.2</ele>
        <time>2021-02-28T13:22:27Z</time>
      </trkpt>
      <trkpt lat="45.01509" lon="6.50311">
        <ele>2634.2</ele>
        <time>2021-02-28T13:22:28Z</time>
      </trkpt>
      <trkpt lat="45.015" lon="6.50318">
        <ele>2631.4</ele>
        <time>2021-02-28T13:22:29Z</time>
      </trkpt>
      <trkpt lat="45.015" lon="6.50318">
        <ele>2629.4</ele>
        <time>2021-02-28T13:22:30Z</time>
      </trkpt>
      <trkpt lat="45.01484" lon="6.50321">
        <ele>2627.2</ele>
        <time>2021-02-28T13:22:31Z</time>
      </trkpt>
      <trkpt lat="45.01474" lon="6.50327">
        <ele>2626</ele>
        <time>2021-02-28T13:22:32Z</time>
      </trkpt>
      <trkpt lat="45.01471" lon="6.50329">
        <ele>2624.2</ele>
        <time>2021-02-28T13:22:33Z</time>
      </trkpt>
      <trkpt lat="45.01465" lon="6.50333">
        <ele>2622.6</ele>
        <time>2021-02-28T13:22:34Z</time>
      </trkpt>
      <trkpt lat="45.01465" lon="6.50333">
        <ele>2621.8</ele>
        <time>2021-02-28T13:22:35Z</time>
      </trkpt>
      <trkpt lat="45.01456" lon="6.50342">
        <ele>2620.8</ele>
        <time>2021-02-28T13:22:36Z</time>
      </trkpt>
      <trkpt lat="45.01455" lon="6.50348">
        <ele>2619.4</ele>
        <time>2021-02-28T13:22:37Z</time>
      </trkpt>
      <trkpt lat="45.01453" lon="6.50353">
        <ele>2618.6</ele>
        <time>2021-02-28T13:22:38Z</time>
      </trkpt>
      <trkpt lat="45.01449" lon="6.50367">
        <ele>2617.8</ele>
        <time>2021-02-28T13:22:39Z</time>
      </trkpt>
      <trkpt lat="45.01448" lon="6.50371">
        <ele>2616.8</ele>
        <time>2021-02-28T13:22:40Z</time>
      </trkpt>
      <trkpt lat="45.01448" lon="6.50371">
        <ele>2615.6</ele>
        <time>2021-02-28T13:22:41Z</time>
      </trkpt>
      <trkpt lat="45.01445" lon="6.50386">
        <ele>2614.2</ele>
        <time>2021-02-28T13:22:42Z</time>
      </trkpt>
      <trkpt lat="45.01445" lon="6.50386">
        <ele>2613</ele>
        <time>2021-02-28T13:22:43Z</time>
      </trkpt>
      <trkpt lat="45.01445" lon="6.50386">
        <ele>2612.2</ele>
        <time>2021-02-28T13:22:44Z</time>
      </trkpt>
      <trkpt lat="45.01445" lon="6.50386">
        <ele>2611.6</ele>
        <time>2021-02-28T13:22:45Z</time>
      </trkpt>
      <trkpt lat="45.01445" lon="6.50386">
        <ele>2610.6</ele>
        <time>2021-02-28T13:22:46Z</time>
      </trkpt>
      <trkpt lat="45.01445" lon="6.50386">
        <ele>2609.4</ele>
        <time>2021-02-28T13:22:47Z</time>
      </trkpt>
      <trkpt lat="45.01445" lon="6.50386">
        <ele>2609.4</ele>
        <time>2021-02-28T13:22:48Z</time>
      </trkpt>
      <trkpt lat="45.01445" lon="6.50386">
        <ele>2609.2</ele>
        <time>2021-02-28T13:22:49Z</time>
      </trkpt>
      <trkpt lat="45.01445" lon="6.50386">
        <ele>2609.2</ele>
        <time>2021-02-28T13:22:50Z</time>
      </trkpt>
      <trkpt lat="45.01445" lon="6.50386">
        <ele>2609.4</ele>
        <time>2021-02-28T13:22:51Z</time>
      </trkpt>
      <trkpt lat="45.01445" lon="6.50386">
        <ele>2609.4</ele>
        <time>2021-02-28T13:22:52Z</time>
      </trkpt>
      <trkpt lat="45.01445" lon="6.50386">
        <ele>2609.2</ele>
        <time>2021-02-28T13:22:53Z</time>
      </trkpt>
      <trkpt lat="45.01445" lon="6.50386">
        <ele>2609.4</ele>
        <time>2021-02-28T13:22:54Z</time>
      </trkpt>
      <trkpt lat="45.01445" lon="6.50386">
        <ele>2609.4</ele>
        <time>2021-02-28T13:22:55Z</time>
      </trkpt>
      <trkpt lat="45.01445" lon="6.50386">
        <ele>2609.2</ele>
        <time>2021-02-28T13:22:56Z</time>
      </trkpt>
      <trkpt lat="45.01445" lon="6.50386">
        <ele>2609</ele>
        <time>2021-02-28T13:22:57Z</time>
      </trkpt>
      <trkpt lat="45.01445" lon="6.50386">
        <ele>2609</ele>
        <time>2021-02-28T13:22:58Z</time>
      </trkpt>
      <trkpt lat="45.01445" lon="6.50386">
        <ele>2609</ele>
        <time>2021-02-28T13:22:59Z</time>
      </trkpt>
      <trkpt lat="45.01445" lon="6.50386">
        <ele>2609</ele>
        <time>2021-02-28T13:23:00Z</time>
      </trkpt>
      <trkpt lat="45.01445" lon="6.50386">
        <ele>2608.8</ele>
        <time>2021-02-28T13:23:01Z</time>
      </trkpt>
      <trkpt lat="45.01445" lon="6.50386">
        <ele>2608.6</ele>
        <time>2021-02-28T13:23:02Z</time>
      </trkpt>
      <trkpt lat="45.01445" lon="6.50386">
        <ele>2608.8</ele>
        <time>2021-02-28T13:23:03Z</time>
      </trkpt>
      <trkpt lat="45.01445" lon="6.50386">
        <ele>2608.8</ele>
        <time>2021-02-28T13:23:04Z</time>
      </trkpt>
      <trkpt lat="45.01445" lon="6.50386">
        <ele>2608.6</ele>
        <time>2021-02-28T13:23:05Z</time>
      </trkpt>
      <trkpt lat="45.01445" lon="6.50386">
        <ele>2609</ele>
        <time>2021-02-28T13:23:06Z</time>
      </trkpt>
      <trkpt lat="45.01445" lon="6.50386">
        <ele>2609</ele>
        <time>2021-02-28T13:23:07Z</time>
      </trkpt>
      <trkpt lat="45.01445" lon="6.50386">
        <ele>2608.8</ele>
        <time>2021-02-28T13:23:08Z</time>
      </trkpt>
      <trkpt lat="45.01445" lon="6.50386">
        <ele>2609</ele>
        <time>2021-02-28T13:23:09Z</time>
      </trkpt>
      <trkpt lat="45.01445" lon="6.50386">
        <ele>2609.2</ele>
        <time>2021-02-28T13:23:10Z</time>
      </trkpt>
      <trkpt lat="45.01445" lon="6.50386">
        <ele>2609.2</ele>
        <time>2021-02-28T13:23:11Z</time>
      </trkpt>
      <trkpt lat="45.01445" lon="6.50386">
        <ele>2609.2</ele>
        <time>2021-02-28T13:23:12Z</time>
      </trkpt>
      <trkpt lat="45.01445" lon="6.50386">
        <ele>2609.2</ele>
        <time>2021-02-28T13:23:13Z</time>
      </trkpt>
      <trkpt lat="45.01445" lon="6.50386">
        <ele>2609.4</ele>
        <time>2021-02-28T13:23:14Z</time>
      </trkpt>
      <trkpt lat="45.01445" lon="6.50386">
        <ele>2609.4</ele>
        <time>2021-02-28T13:23:15Z</time>
      </trkpt>
      <trkpt lat="45.01445" lon="6.50386">
        <ele>2609.4</ele>
        <time>2021-02-28T13:23:16Z</time>
      </trkpt>
      <trkpt lat="45.01445" lon="6.50386">
        <ele>2609.4</ele>
        <time>2021-02-28T13:23:17Z</time>
      </trkpt>
      <trkpt lat="45.01445" lon="6.50386">
        <ele>2609.2</ele>
        <time>2021-02-28T13:23:18Z</time>
      </trkpt>
      <trkpt lat="45.01445" lon="6.50386">
        <ele>2609.2</ele>
        <time>2021-02-28T13:23:19Z</time>
      </trkpt>
      <trkpt lat="45.01445" lon="6.50386">
        <ele>2609.2</ele>
        <time>2021-02-28T13:23:20Z</time>
      </trkpt>
      <trkpt lat="45.01445" lon="6.50386">
        <ele>2609.4</ele>
        <time>2021-02-28T13:23:21Z</time>
      </trkpt>
      <trkpt lat="45.01445" lon="6.50386">
        <ele>2609.2</ele>
        <time>2021-02-28T13:23:22Z</time>
      </trkpt>
      <trkpt lat="45.01445" lon="6.50386">
        <ele>2609</ele>
        <time>2021-02-28T13:23:23Z</time>
      </trkpt>
      <trkpt lat="45.01445" lon="6.50386">
        <ele>2609.4</ele>
        <time>2021-02-28T13:23:24Z</time>
      </trkpt>
      <trkpt lat="45.01445" lon="6.50386">
        <ele>2609.4</ele>
        <time>2021-02-28T13:23:25Z</time>
      </trkpt>
      <trkpt lat="45.01445" lon="6.50386">
        <ele>2609.4</ele>
        <time>2021-02-28T13:23:26Z</time>
      </trkpt>
      <trkpt lat="45.01445" lon="6.50386">
        <ele>2609.6</ele>
        <time>2021-02-28T13:23:27Z</time>
      </trkpt>
      <trkpt lat="45.01445" lon="6.50386">
        <ele>2609.6</ele>
        <time>2021-02-28T13:23:28Z</time>
      </trkpt>
      <trkpt lat="45.01445" lon="6.50386">
        <ele>2609.6</ele>
        <time>2021-02-28T13:23:29Z</time>
      </trkpt>
      <trkpt lat="45.01445" lon="6.50386">
        <ele>2609.2</ele>
        <time>2021-02-28T13:23:30Z</time>
      </trkpt>
      <trkpt lat="45.01445" lon="6.50386">
        <ele>2609.2</ele>
        <time>2021-02-28T13:23:31Z</time>
      </trkpt>
      <trkpt lat="45.01445" lon="6.50386">
        <ele>2609.2</ele>
        <time>2021-02-28T13:23:32Z</time>
      </trkpt>
      <trkpt lat="45.01445" lon="6.50386">
        <ele>2609.2</ele>
        <time>2021-02-28T13:23:33Z</time>
      </trkpt>
      <trkpt lat="45.01445" lon="6.50386">
        <ele>2609.4</ele>
        <time>2021-02-28T13:23:34Z</time>
      </trkpt>
      <trkpt lat="45.01445" lon="6.50386">
        <ele>2609.4</ele>
        <time>2021-02-28T13:23:35Z</time>
      </trkpt>
      <trkpt lat="45.01445" lon="6.50386">
        <ele>2609.2</ele>
        <time>2021-02-28T13:23:36Z</time>
      </trkpt>
      <trkpt lat="45.01445" lon="6.50386">
        <ele>2609.2</ele>
        <time>2021-02-28T13:23:37Z</time>
      </trkpt>
      <trkpt lat="45.01445" lon="6.50386">
        <ele>2609</ele>
        <time>2021-02-28T13:23:38Z</time>
      </trkpt>
      <trkpt lat="45.01445" lon="6.50386">
        <ele>2609.2</ele>
        <time>2021-02-28T13:23:39Z</time>
      </trkpt>
      <trkpt lat="45.01445" lon="6.50386">
        <ele>2609</ele>
        <time>2021-02-28T13:23:40Z</time>
      </trkpt>
      <trkpt lat="45.01445" lon="6.50386">
        <ele>2609</ele>
        <time>2021-02-28T13:23:41Z</time>
      </trkpt>
      <trkpt lat="45.01445" lon="6.50386">
        <ele>2609.2</ele>
        <time>2021-02-28T13:23:42Z</time>
      </trkpt>
      <trkpt lat="45.01445" lon="6.50386">
        <ele>2609.2</ele>
        <time>2021-02-28T13:23:43Z</time>
      </trkpt>
      <trkpt lat="45.01445" lon="6.50386">
        <ele>2609.2</ele>
        <time>2021-02-28T13:23:44Z</time>
      </trkpt>
      <trkpt lat="45.01445" lon="6.50386">
        <ele>2609.2</ele>
        <time>2021-02-28T13:23:45Z</time>
      </trkpt>
      <trkpt lat="45.01445" lon="6.50386">
        <ele>2609</ele>
        <time>2021-02-28T13:23:46Z</time>
      </trkpt>
      <trkpt lat="45.01445" lon="6.50386">
        <ele>2609</ele>
        <time>2021-02-28T13:23:47Z</time>
      </trkpt>
      <trkpt lat="45.01445" lon="6.50386">
        <ele>2609</ele>
        <time>2021-02-28T13:23:48Z</time>
      </trkpt>
      <trkpt lat="45.01445" lon="6.50386">
        <ele>2609</ele>
        <time>2021-02-28T13:23:49Z</time>
      </trkpt>
      <trkpt lat="45.01445" lon="6.50386">
        <ele>2609</ele>
        <time>2021-02-28T13:23:50Z</time>
      </trkpt>
      <trkpt lat="45.01445" lon="6.50386">
        <ele>2608.8</ele>
        <time>2021-02-28T13:23:51Z</time>
      </trkpt>
      <trkpt lat="45.01445" lon="6.50386">
        <ele>2608.6</ele>
        <time>2021-02-28T13:23:52Z</time>
      </trkpt>
      <trkpt lat="45.01445" lon="6.50386">
        <ele>2608.6</ele>
        <time>2021-02-28T13:23:53Z</time>
      </trkpt>
      <trkpt lat="45.01445" lon="6.50386">
        <ele>2608.6</ele>
        <time>2021-02-28T13:23:54Z</time>
      </trkpt>
      <trkpt lat="45.01445" lon="6.50386">
        <ele>2608.6</ele>
        <time>2021-02-28T13:23:55Z</time>
      </trkpt>
      <trkpt lat="45.01445" lon="6.50386">
        <ele>2608.8</ele>
        <time>2021-02-28T13:23:56Z</time>
      </trkpt>
      <trkpt lat="45.01445" lon="6.50386">
        <ele>2608.6</ele>
        <time>2021-02-28T13:23:57Z</time>
      </trkpt>
      <trkpt lat="45.01445" lon="6.50386">
        <ele>2608.8</ele>
        <time>2021-02-28T13:23:58Z</time>
      </trkpt>
      <trkpt lat="45.01445" lon="6.50386">
        <ele>2608.6</ele>
        <time>2021-02-28T13:23:59Z</time>
      </trkpt>
      <trkpt lat="45.01445" lon="6.50386">
        <ele>2608.6</ele>
        <time>2021-02-28T13:24:00Z</time>
      </trkpt>
      <trkpt lat="45.01443" lon="6.50386">
        <ele>2608.2</ele>
        <time>2021-02-28T13:24:01Z</time>
      </trkpt>
      <trkpt lat="45.01441" lon="6.50386">
        <ele>2608</ele>
        <time>2021-02-28T13:24:02Z</time>
      </trkpt>
      <trkpt lat="45.01437" lon="6.50385">
        <ele>2607.8</ele>
        <time>2021-02-28T13:24:03Z</time>
      </trkpt>
      <trkpt lat="45.01437" lon="6.50385">
        <ele>2607.6</ele>
        <time>2021-02-28T13:24:04Z</time>
      </trkpt>
      <trkpt lat="45.01426" lon="6.50381">
        <ele>2607</ele>
        <time>2021-02-28T13:24:05Z</time>
      </trkpt>
      <trkpt lat="45.01421" lon="6.50379">
        <ele>2606</ele>
        <time>2021-02-28T13:24:06Z</time>
      </trkpt>
      <trkpt lat="45.01416" lon="6.50377">
        <ele>2606</ele>
        <time>2021-02-28T13:24:07Z</time>
      </trkpt>
      <trkpt lat="45.01402" lon="6.50372">
        <ele>2604.6</ele>
        <time>2021-02-28T13:24:08Z</time>
      </trkpt>
      <trkpt lat="45.01399" lon="6.5037">
        <ele>2603</ele>
        <time>2021-02-28T13:24:09Z</time>
      </trkpt>
      <trkpt lat="45.01391" lon="6.50367">
        <ele>2601.4</ele>
        <time>2021-02-28T13:24:10Z</time>
      </trkpt>
      <trkpt lat="45.01381" lon="6.50362">
        <ele>2599.8</ele>
        <time>2021-02-28T13:24:11Z</time>
      </trkpt>
      <trkpt lat="45.01373" lon="6.50358">
        <ele>2597.6</ele>
        <time>2021-02-28T13:24:12Z</time>
      </trkpt>
      <trkpt lat="45.01364" lon="6.50353">
        <ele>2595.8</ele>
        <time>2021-02-28T13:24:13Z</time>
      </trkpt>
      <trkpt lat="45.01357" lon="6.50348">
        <ele>2594.2</ele>
        <time>2021-02-28T13:24:14Z</time>
      </trkpt>
      <trkpt lat="45.0135" lon="6.50344">
        <ele>2593</ele>
        <time>2021-02-28T13:24:15Z</time>
      </trkpt>
      <trkpt lat="45.01345" lon="6.5034">
        <ele>2591.6</ele>
        <time>2021-02-28T13:24:16Z</time>
      </trkpt>
      <trkpt lat="45.01342" lon="6.50333">
        <ele>2590.6</ele>
        <time>2021-02-28T13:24:17Z</time>
      </trkpt>
      <trkpt lat="45.01341" lon="6.50327">
        <ele>2589.6</ele>
        <time>2021-02-28T13:24:18Z</time>
      </trkpt>
      <trkpt lat="45.0134" lon="6.50324">
        <ele>2588.8</ele>
        <time>2021-02-28T13:24:19Z</time>
      </trkpt>
      <trkpt lat="45.0134" lon="6.50324">
        <ele>2589</ele>
        <time>2021-02-28T13:24:20Z</time>
      </trkpt>
      <trkpt lat="45.0134" lon="6.5032">
        <ele>2588.6</ele>
        <time>2021-02-28T13:24:21Z</time>
      </trkpt>
      <trkpt lat="45.0134" lon="6.5032">
        <ele>2588.6</ele>
        <time>2021-02-28T13:24:22Z</time>
      </trkpt>
      <trkpt lat="45.0134" lon="6.5032">
        <ele>2588.2</ele>
        <time>2021-02-28T13:24:23Z</time>
      </trkpt>
      <trkpt lat="45.0134" lon="6.5032">
        <ele>2588.4</ele>
        <time>2021-02-28T13:24:24Z</time>
      </trkpt>
      <trkpt lat="45.0134" lon="6.5032">
        <ele>2588.6</ele>
        <time>2021-02-28T13:24:25Z</time>
      </trkpt>
      <trkpt lat="45.0134" lon="6.5032">
        <ele>2588.2</ele>
        <time>2021-02-28T13:24:26Z</time>
      </trkpt>
      <trkpt lat="45.0134" lon="6.5032">
        <ele>2588</ele>
        <time>2021-02-28T13:24:27Z</time>
      </trkpt>
      <trkpt lat="45.0134" lon="6.5032">
        <ele>2587.8</ele>
        <time>2021-02-28T13:24:28Z</time>
      </trkpt>
      <trkpt lat="45.0134" lon="6.5032">
        <ele>2587.6</ele>
        <time>2021-02-28T13:24:29Z</time>
      </trkpt>
      <trkpt lat="45.0134" lon="6.5032">
        <ele>2587.4</ele>
        <time>2021-02-28T13:24:30Z</time>
      </trkpt>
      <trkpt lat="45.0134" lon="6.5032">
        <ele>2587.4</ele>
        <time>2021-02-28T13:24:31Z</time>
      </trkpt>
      <trkpt lat="45.0134" lon="6.5032">
        <ele>2587.4</ele>
        <time>2021-02-28T13:24:32Z</time>
      </trkpt>
      <trkpt lat="45.0134" lon="6.5032">
        <ele>2587.6</ele>
        <time>2021-02-28T13:24:33Z</time>
      </trkpt>
      <trkpt lat="45.0134" lon="6.5032">
        <ele>2587.6</ele>
        <time>2021-02-28T13:24:34Z</time>
      </trkpt>
      <trkpt lat="45.0134" lon="6.5032">
        <ele>2587.6</ele>
        <time>2021-02-28T13:24:35Z</time>
      </trkpt>
      <trkpt lat="45.0134" lon="6.50318">
        <ele>2587.6</ele>
        <time>2021-02-28T13:24:36Z</time>
      </trkpt>
      <trkpt lat="45.01338" lon="6.50316">
        <ele>2587.4</ele>
        <time>2021-02-28T13:24:37Z</time>
      </trkpt>
      <trkpt lat="45.01336" lon="6.50315">
        <ele>2587.4</ele>
        <time>2021-02-28T13:24:38Z</time>
      </trkpt>
      <trkpt lat="45.01332" lon="6.50319">
        <ele>2586.4</ele>
        <time>2021-02-28T13:24:39Z</time>
      </trkpt>
      <trkpt lat="45.01329" lon="6.50324">
        <ele>2585.8</ele>
        <time>2021-02-28T13:24:40Z</time>
      </trkpt>
      <trkpt lat="45.01323" lon="6.50324">
        <ele>2585</ele>
        <time>2021-02-28T13:24:41Z</time>
      </trkpt>
      <trkpt lat="45.01318" lon="6.50322">
        <ele>2583.6</ele>
        <time>2021-02-28T13:24:42Z</time>
      </trkpt>
      <trkpt lat="45.01313" lon="6.50328">
        <ele>2582.2</ele>
        <time>2021-02-28T13:24:43Z</time>
      </trkpt>
      <trkpt lat="45.0131" lon="6.50336">
        <ele>2580.8</ele>
        <time>2021-02-28T13:24:44Z</time>
      </trkpt>
      <trkpt lat="45.01304" lon="6.50337">
        <ele>2579.2</ele>
        <time>2021-02-28T13:24:45Z</time>
      </trkpt>
      <trkpt lat="45.01299" lon="6.50332">
        <ele>2576.6</ele>
        <time>2021-02-28T13:24:46Z</time>
      </trkpt>
      <trkpt lat="45.01294" lon="6.50332">
        <ele>2574.6</ele>
        <time>2021-02-28T13:24:47Z</time>
      </trkpt>
      <trkpt lat="45.01288" lon="6.50334">
        <ele>2572.4</ele>
        <time>2021-02-28T13:24:48Z</time>
      </trkpt>
      <trkpt lat="45.01281" lon="6.50337">
        <ele>2570</ele>
        <time>2021-02-28T13:24:49Z</time>
      </trkpt>
      <trkpt lat="45.01281" lon="6.50337">
        <ele>2567.4</ele>
        <time>2021-02-28T13:24:50Z</time>
      </trkpt>
      <trkpt lat="45.01265" lon="6.50346">
        <ele>2564.6</ele>
        <time>2021-02-28T13:24:51Z</time>
      </trkpt>
      <trkpt lat="45.01255" lon="6.5036">
        <ele>2561.8</ele>
        <time>2021-02-28T13:24:52Z</time>
      </trkpt>
      <trkpt lat="45.01253" lon="6.50365">
        <ele>2558.4</ele>
        <time>2021-02-28T13:24:53Z</time>
      </trkpt>
      <trkpt lat="45.01249" lon="6.50376">
        <ele>2555.8</ele>
        <time>2021-02-28T13:24:54Z</time>
      </trkpt>
      <trkpt lat="45.01247" lon="6.50386">
        <ele>2553.8</ele>
        <time>2021-02-28T13:24:55Z</time>
      </trkpt>
      <trkpt lat="45.01245" lon="6.50395">
        <ele>2552.2</ele>
        <time>2021-02-28T13:24:56Z</time>
      </trkpt>
      <trkpt lat="45.01243" lon="6.50403">
        <ele>2550.8</ele>
        <time>2021-02-28T13:24:57Z</time>
      </trkpt>
      <trkpt lat="45.01241" lon="6.50411">
        <ele>2549.2</ele>
        <time>2021-02-28T13:24:58Z</time>
      </trkpt>
      <trkpt lat="45.01241" lon="6.50411">
        <ele>2548.4</ele>
        <time>2021-02-28T13:24:59Z</time>
      </trkpt>
      <trkpt lat="45.01232" lon="6.50413">
        <ele>2547</ele>
        <time>2021-02-28T13:25:00Z</time>
      </trkpt>
      <trkpt lat="45.01226" lon="6.50411">
        <ele>2545</ele>
        <time>2021-02-28T13:25:01Z</time>
      </trkpt>
      <trkpt lat="45.0122" lon="6.50409">
        <ele>2542</ele>
        <time>2021-02-28T13:25:02Z</time>
      </trkpt>
      <trkpt lat="45.01216" lon="6.50409">
        <ele>2540.2</ele>
        <time>2021-02-28T13:25:03Z</time>
      </trkpt>
      <trkpt lat="45.01212" lon="6.50409">
        <ele>2537.8</ele>
        <time>2021-02-28T13:25:04Z</time>
      </trkpt>
      <trkpt lat="45.012" lon="6.50406">
        <ele>2534.2</ele>
        <time>2021-02-28T13:25:05Z</time>
      </trkpt>
      <trkpt lat="45.01197" lon="6.50403">
        <ele>2531.2</ele>
        <time>2021-02-28T13:25:06Z</time>
      </trkpt>
      <trkpt lat="45.01188" lon="6.50402">
        <ele>2528.4</ele>
        <time>2021-02-28T13:25:07Z</time>
      </trkpt>
      <trkpt lat="45.01186" lon="6.50407">
        <ele>2525.4</ele>
        <time>2021-02-28T13:25:08Z</time>
      </trkpt>
      <trkpt lat="45.01174" lon="6.50417">
        <ele>2522</ele>
        <time>2021-02-28T13:25:09Z</time>
      </trkpt>
      <trkpt lat="45.01168" lon="6.50418">
        <ele>2518.6</ele>
        <time>2021-02-28T13:25:10Z</time>
      </trkpt>
      <trkpt lat="45.01149" lon="6.5042">
        <ele>2515.8</ele>
        <time>2021-02-28T13:25:11Z</time>
      </trkpt>
      <trkpt lat="45.01144" lon="6.50419">
        <ele>2512.6</ele>
        <time>2021-02-28T13:25:12Z</time>
      </trkpt>
      <trkpt lat="45.01132" lon="6.50417">
        <ele>2509.6</ele>
        <time>2021-02-28T13:25:13Z</time>
      </trkpt>
      <trkpt lat="45.01123" lon="6.50413">
        <ele>2506.8</ele>
        <time>2021-02-28T13:25:14Z</time>
      </trkpt>
      <trkpt lat="45.01114" lon="6.5041">
        <ele>2504.6</ele>
        <time>2021-02-28T13:25:15Z</time>
      </trkpt>
      <trkpt lat="45.01114" lon="6.5041">
        <ele>2502.6</ele>
        <time>2021-02-28T13:25:16Z</time>
      </trkpt>
      <trkpt lat="45.01098" lon="6.50408">
        <ele>2499.8</ele>
        <time>2021-02-28T13:25:17Z</time>
      </trkpt>
      <trkpt lat="45.01095" lon="6.50409">
        <ele>2498.6</ele>
        <time>2021-02-28T13:25:18Z</time>
      </trkpt>
      <trkpt lat="45.01092" lon="6.50409">
        <ele>2496.8</ele>
        <time>2021-02-28T13:25:19Z</time>
      </trkpt>
      <trkpt lat="45.01085" lon="6.50413">
        <ele>2496</ele>
        <time>2021-02-28T13:25:20Z</time>
      </trkpt>
      <trkpt lat="45.01082" lon="6.50416">
        <ele>2494.6</ele>
        <time>2021-02-28T13:25:21Z</time>
      </trkpt>
      <trkpt lat="45.01076" lon="6.50418">
        <ele>2493.4</ele>
        <time>2021-02-28T13:25:22Z</time>
      </trkpt>
      <trkpt lat="45.01073" lon="6.50415">
        <ele>2492.2</ele>
        <time>2021-02-28T13:25:23Z</time>
      </trkpt>
      <trkpt lat="45.01068" lon="6.50407">
        <ele>2491.4</ele>
        <time>2021-02-28T13:25:24Z</time>
      </trkpt>
      <trkpt lat="45.01067" lon="6.50404">
        <ele>2490.2</ele>
        <time>2021-02-28T13:25:25Z</time>
      </trkpt>
      <trkpt lat="45.01066" lon="6.50402">
        <ele>2488</ele>
        <time>2021-02-28T13:25:26Z</time>
      </trkpt>
      <trkpt lat="45.01063" lon="6.5039">
        <ele>2487.2</ele>
        <time>2021-02-28T13:25:27Z</time>
      </trkpt>
      <trkpt lat="45.01062" lon="6.50386">
        <ele>2486.4</ele>
        <time>2021-02-28T13:25:28Z</time>
      </trkpt>
      <trkpt lat="45.01058" lon="6.50378">
        <ele>2485</ele>
        <time>2021-02-28T13:25:29Z</time>
      </trkpt>
      <trkpt lat="45.01056" lon="6.50378">
        <ele>2484.4</ele>
        <time>2021-02-28T13:25:30Z</time>
      </trkpt>
      <trkpt lat="45.01054" lon="6.50379">
        <ele>2483.2</ele>
        <time>2021-02-28T13:25:31Z</time>
      </trkpt>
      <trkpt lat="45.01046" lon="6.50383">
        <ele>2481.6</ele>
        <time>2021-02-28T13:25:32Z</time>
      </trkpt>
      <trkpt lat="45.01044" lon="6.50385">
        <ele>2480.4</ele>
        <time>2021-02-28T13:25:33Z</time>
      </trkpt>
      <trkpt lat="45.01043" lon="6.50387">
        <ele>2478.8</ele>
        <time>2021-02-28T13:25:34Z</time>
      </trkpt>
      <trkpt lat="45.01036" lon="6.50398">
        <ele>2476.6</ele>
        <time>2021-02-28T13:25:35Z</time>
      </trkpt>
      <trkpt lat="45.01034" lon="6.50402">
        <ele>2474.4</ele>
        <time>2021-02-28T13:25:36Z</time>
      </trkpt>
      <trkpt lat="45.01027" lon="6.50414">
        <ele>2472.4</ele>
        <time>2021-02-28T13:25:37Z</time>
      </trkpt>
      <trkpt lat="45.01025" lon="6.50418">
        <ele>2470.2</ele>
        <time>2021-02-28T13:25:38Z</time>
      </trkpt>
      <trkpt lat="45.01018" lon="6.50428">
        <ele>2468.2</ele>
        <time>2021-02-28T13:25:39Z</time>
      </trkpt>
      <trkpt lat="45.01015" lon="6.50432">
        <ele>2465.8</ele>
        <time>2021-02-28T13:25:40Z</time>
      </trkpt>
      <trkpt lat="45.01008" lon="6.50441">
        <ele>2463.4</ele>
        <time>2021-02-28T13:25:41Z</time>
      </trkpt>
      <trkpt lat="45.01006" lon="6.50443">
        <ele>2461.6</ele>
        <time>2021-02-28T13:25:42Z</time>
      </trkpt>
      <trkpt lat="45.01" lon="6.50452">
        <ele>2459.6</ele>
        <time>2021-02-28T13:25:43Z</time>
      </trkpt>
      <trkpt lat="45.00998" lon="6.50456">
        <ele>2457</ele>
        <time>2021-02-28T13:25:44Z</time>
      </trkpt>
      <trkpt lat="45.00992" lon="6.50467">
        <ele>2455.2</ele>
        <time>2021-02-28T13:25:45Z</time>
      </trkpt>
      <trkpt lat="45.00989" lon="6.50469">
        <ele>2453</ele>
        <time>2021-02-28T13:25:46Z</time>
      </trkpt>
      <trkpt lat="45.00982" lon="6.50477">
        <ele>2451</ele>
        <time>2021-02-28T13:25:47Z</time>
      </trkpt>
      <trkpt lat="45.00979" lon="6.50479">
        <ele>2449.4</ele>
        <time>2021-02-28T13:25:48Z</time>
      </trkpt>
      <trkpt lat="45.00972" lon="6.50487">
        <ele>2447.6</ele>
        <time>2021-02-28T13:25:49Z</time>
      </trkpt>
      <trkpt lat="45.00969" lon="6.50488">
        <ele>2445.4</ele>
        <time>2021-02-28T13:25:50Z</time>
      </trkpt>
      <trkpt lat="45.0096" lon="6.50493">
        <ele>2443.8</ele>
        <time>2021-02-28T13:25:51Z</time>
      </trkpt>
      <trkpt lat="45.00956" lon="6.50494">
        <ele>2442</ele>
        <time>2021-02-28T13:25:52Z</time>
      </trkpt>
      <trkpt lat="45.00944" lon="6.505">
        <ele>2440</ele>
        <time>2021-02-28T13:25:53Z</time>
      </trkpt>
      <trkpt lat="45.00938" lon="6.50503">
        <ele>2438</ele>
        <time>2021-02-28T13:25:54Z</time>
      </trkpt>
      <trkpt lat="45.00923" lon="6.5051">
        <ele>2436</ele>
        <time>2021-02-28T13:25:55Z</time>
      </trkpt>
      <trkpt lat="45.00919" lon="6.5051">
        <ele>2434.2</ele>
        <time>2021-02-28T13:25:56Z</time>
      </trkpt>
      <trkpt lat="45.00912" lon="6.50511">
        <ele>2433</ele>
        <time>2021-02-28T13:25:57Z</time>
      </trkpt>
      <trkpt lat="45.00909" lon="6.5051">
        <ele>2431.8</ele>
        <time>2021-02-28T13:25:58Z</time>
      </trkpt>
      <trkpt lat="45.00905" lon="6.50509">
        <ele>2430.4</ele>
        <time>2021-02-28T13:25:59Z</time>
      </trkpt>
      <trkpt lat="45.00895" lon="6.50508">
        <ele>2429.4</ele>
        <time>2021-02-28T13:26:00Z</time>
      </trkpt>
      <trkpt lat="45.00891" lon="6.50508">
        <ele>2428</ele>
        <time>2021-02-28T13:26:01Z</time>
      </trkpt>
      <trkpt lat="45.00883" lon="6.5051">
        <ele>2426.8</ele>
        <time>2021-02-28T13:26:02Z</time>
      </trkpt>
      <trkpt lat="45.00881" lon="6.50511">
        <ele>2425.6</ele>
        <time>2021-02-28T13:26:03Z</time>
      </trkpt>
      <trkpt lat="45.00876" lon="6.50512">
        <ele>2424.8</ele>
        <time>2021-02-28T13:26:04Z</time>
      </trkpt>
      <trkpt lat="45.00876" lon="6.50512">
        <ele>2424.8</ele>
        <time>2021-02-28T13:26:05Z</time>
      </trkpt>
      <trkpt lat="45.00876" lon="6.50512">
        <ele>2423.6</ele>
        <time>2021-02-28T13:26:06Z</time>
      </trkpt>
      <trkpt lat="45.00875" lon="6.50513">
        <ele>2423.4</ele>
        <time>2021-02-28T13:26:07Z</time>
      </trkpt>
      <trkpt lat="45.00873" lon="6.50514">
        <ele>2422.6</ele>
        <time>2021-02-28T13:26:08Z</time>
      </trkpt>
      <trkpt lat="45.00871" lon="6.50515">
        <ele>2422.4</ele>
        <time>2021-02-28T13:26:09Z</time>
      </trkpt>
      <trkpt lat="45.0087" lon="6.50517">
        <ele>2422</ele>
        <time>2021-02-28T13:26:10Z</time>
      </trkpt>
      <trkpt lat="45.00868" lon="6.50518">
        <ele>2421.4</ele>
        <time>2021-02-28T13:26:11Z</time>
      </trkpt>
      <trkpt lat="45.00868" lon="6.50518">
        <ele>2421</ele>
        <time>2021-02-28T13:26:12Z</time>
      </trkpt>
      <trkpt lat="45.00868" lon="6.50518">
        <ele>2420.8</ele>
        <time>2021-02-28T13:26:13Z</time>
      </trkpt>
      <trkpt lat="45.00868" lon="6.50518">
        <ele>2420.6</ele>
        <time>2021-02-28T13:26:14Z</time>
      </trkpt>
      <trkpt lat="45.00868" lon="6.50518">
        <ele>2421.2</ele>
        <time>2021-02-28T13:26:15Z</time>
      </trkpt>
      <trkpt lat="45.00868" lon="6.50518">
        <ele>2421.2</ele>
        <time>2021-02-28T13:26:16Z</time>
      </trkpt>
      <trkpt lat="45.00867" lon="6.50518">
        <ele>2421.2</ele>
        <time>2021-02-28T13:26:17Z</time>
      </trkpt>
      <trkpt lat="45.00867" lon="6.50518">
        <ele>2421.4</ele>
        <time>2021-02-28T13:26:18Z</time>
      </trkpt>
      <trkpt lat="45.00867" lon="6.50518">
        <ele>2421.4</ele>
        <time>2021-02-28T13:26:19Z</time>
      </trkpt>
      <trkpt lat="45.00867" lon="6.50518">
        <ele>2421.4</ele>
        <time>2021-02-28T13:26:20Z</time>
      </trkpt>
      <trkpt lat="45.00867" lon="6.50518">
        <ele>2421.4</ele>
        <time>2021-02-28T13:26:21Z</time>
      </trkpt>
      <trkpt lat="45.00867" lon="6.50518">
        <ele>2421.4</ele>
        <time>2021-02-28T13:26:22Z</time>
      </trkpt>
      <trkpt lat="45.00867" lon="6.50518">
        <ele>2421.4</ele>
        <time>2021-02-28T13:26:23Z</time>
      </trkpt>
      <trkpt lat="45.00867" lon="6.50518">
        <ele>2421.4</ele>
        <time>2021-02-28T13:26:24Z</time>
      </trkpt>
      <trkpt lat="45.00867" lon="6.50518">
        <ele>2421.6</ele>
        <time>2021-02-28T13:26:25Z</time>
      </trkpt>
      <trkpt lat="45.00866" lon="6.50518">
        <ele>2421.8</ele>
        <time>2021-02-28T13:26:26Z</time>
      </trkpt>
      <trkpt lat="45.00866" lon="6.50518">
        <ele>2422</ele>
        <time>2021-02-28T13:26:27Z</time>
      </trkpt>
      <trkpt lat="45.00866" lon="6.50518">
        <ele>2421.6</ele>
        <time>2021-02-28T13:26:28Z</time>
      </trkpt>
      <trkpt lat="45.00866" lon="6.50518">
        <ele>2421.4</ele>
        <time>2021-02-28T13:26:29Z</time>
      </trkpt>
      <trkpt lat="45.00866" lon="6.50518">
        <ele>2421.4</ele>
        <time>2021-02-28T13:26:30Z</time>
      </trkpt>
      <trkpt lat="45.00866" lon="6.50519">
        <ele>2421.4</ele>
        <time>2021-02-28T13:26:31Z</time>
      </trkpt>
      <trkpt lat="45.00866" lon="6.50519">
        <ele>2421.4</ele>
        <time>2021-02-28T13:26:32Z</time>
      </trkpt>
      <trkpt lat="45.00866" lon="6.50519">
        <ele>2421.2</ele>
        <time>2021-02-28T13:26:33Z</time>
      </trkpt>
      <trkpt lat="45.00866" lon="6.50519">
        <ele>2421.2</ele>
        <time>2021-02-28T13:26:34Z</time>
      </trkpt>
      <trkpt lat="45.00865" lon="6.50519">
        <ele>2421.2</ele>
        <time>2021-02-28T13:26:35Z</time>
      </trkpt>
      <trkpt lat="45.00865" lon="6.50519">
        <ele>2421.4</ele>
        <time>2021-02-28T13:26:36Z</time>
      </trkpt>
      <trkpt lat="45.00865" lon="6.50519">
        <ele>2421.6</ele>
        <time>2021-02-28T13:26:37Z</time>
      </trkpt>
      <trkpt lat="45.00865" lon="6.50519">
        <ele>2421.6</ele>
        <time>2021-02-28T13:26:38Z</time>
      </trkpt>
      <trkpt lat="45.00865" lon="6.50519">
        <ele>2421.6</ele>
        <time>2021-02-28T13:26:39Z</time>
      </trkpt>
      <trkpt lat="45.00865" lon="6.50519">
        <ele>2421.4</ele>
        <time>2021-02-28T13:26:40Z</time>
      </trkpt>
      <trkpt lat="45.00865" lon="6.50519">
        <ele>2421.6</ele>
        <time>2021-02-28T13:26:41Z</time>
      </trkpt>
      <trkpt lat="45.00865" lon="6.50519">
        <ele>2421.4</ele>
        <time>2021-02-28T13:26:42Z</time>
      </trkpt>
      <trkpt lat="45.00865" lon="6.50519">
        <ele>2421.2</ele>
        <time>2021-02-28T13:26:43Z</time>
      </trkpt>
      <trkpt lat="45.00864" lon="6.50519">
        <ele>2421.4</ele>
        <time>2021-02-28T13:26:44Z</time>
      </trkpt>
      <trkpt lat="45.00864" lon="6.50519">
        <ele>2421.2</ele>
        <time>2021-02-28T13:26:45Z</time>
      </trkpt>
      <trkpt lat="45.00864" lon="6.50519">
        <ele>2421.2</ele>
        <time>2021-02-28T13:26:46Z</time>
      </trkpt>
      <trkpt lat="45.00864" lon="6.50519">
        <ele>2421.2</ele>
        <time>2021-02-28T13:26:47Z</time>
      </trkpt>
      <trkpt lat="45.00864" lon="6.50519">
        <ele>2421.4</ele>
        <time>2021-02-28T13:26:48Z</time>
      </trkpt>
      <trkpt lat="45.00864" lon="6.50519">
        <ele>2420.8</ele>
        <time>2021-02-28T13:26:49Z</time>
      </trkpt>
      <trkpt lat="45.00864" lon="6.50519">
        <ele>2419.8</ele>
        <time>2021-02-28T13:26:50Z</time>
      </trkpt>
      <trkpt lat="45.00852" lon="6.50528">
        <ele>2419</ele>
        <time>2021-02-28T13:26:51Z</time>
      </trkpt>
      <trkpt lat="45.00851" lon="6.50529">
        <ele>2418.2</ele>
        <time>2021-02-28T13:26:52Z</time>
      </trkpt>
      <trkpt lat="45.00849" lon="6.50529">
        <ele>2417.4</ele>
        <time>2021-02-28T13:26:53Z</time>
      </trkpt>
      <trkpt lat="45.00838" lon="6.50529">
        <ele>2415.6</ele>
        <time>2021-02-28T13:26:54Z</time>
      </trkpt>
      <trkpt lat="45.00831" lon="6.50528">
        <ele>2414</ele>
        <time>2021-02-28T13:26:55Z</time>
      </trkpt>
      <trkpt lat="45.00827" lon="6.50528">
        <ele>2412.8</ele>
        <time>2021-02-28T13:26:56Z</time>
      </trkpt>
      <trkpt lat="45.00823" lon="6.50527">
        <ele>2410.6</ele>
        <time>2021-02-28T13:26:57Z</time>
      </trkpt>
      <trkpt lat="45.0081" lon="6.50526">
        <ele>2408.6</ele>
        <time>2021-02-28T13:26:58Z</time>
      </trkpt>
      <trkpt lat="45.00806" lon="6.50527">
        <ele>2406.2</ele>
        <time>2021-02-28T13:26:59Z</time>
      </trkpt>
      <trkpt lat="45.00794" lon="6.50527">
        <ele>2403.6</ele>
        <time>2021-02-28T13:27:00Z</time>
      </trkpt>
      <trkpt lat="45.0079" lon="6.50528">
        <ele>2401.6</ele>
        <time>2021-02-28T13:27:01Z</time>
      </trkpt>
      <trkpt lat="45.00779" lon="6.5053">
        <ele>2399.2</ele>
        <time>2021-02-28T13:27:02Z</time>
      </trkpt>
      <trkpt lat="45.00775" lon="6.50531">
        <ele>2397.6</ele>
        <time>2021-02-28T13:27:03Z</time>
      </trkpt>
      <trkpt lat="45.00764" lon="6.50534">
        <ele>2395</ele>
        <time>2021-02-28T13:27:04Z</time>
      </trkpt>
      <trkpt lat="45.00761" lon="6.50535">
        <ele>2393</ele>
        <time>2021-02-28T13:27:05Z</time>
      </trkpt>
      <trkpt lat="45.0075" lon="6.50538">
        <ele>2391.4</ele>
        <time>2021-02-28T13:27:06Z</time>
      </trkpt>
      <trkpt lat="45.00746" lon="6.50538">
        <ele>2390</ele>
        <time>2021-02-28T13:27:07Z</time>
      </trkpt>
      <trkpt lat="45.00735" lon="6.50541">
        <ele>2388</ele>
        <time>2021-02-28T13:27:08Z</time>
      </trkpt>
      <trkpt lat="45.00732" lon="6.50542">
        <ele>2386.4</ele>
        <time>2021-02-28T13:27:09Z</time>
      </trkpt>
      <trkpt lat="45.00722" lon="6.50545">
        <ele>2384.6</ele>
        <time>2021-02-28T13:27:10Z</time>
      </trkpt>
      <trkpt lat="45.00719" lon="6.50545">
        <ele>2382.6</ele>
        <time>2021-02-28T13:27:11Z</time>
      </trkpt>
      <trkpt lat="45.00713" lon="6.50547">
        <ele>2381.6</ele>
        <time>2021-02-28T13:27:12Z</time>
      </trkpt>
      <trkpt lat="45.00713" lon="6.50547">
        <ele>2380</ele>
        <time>2021-02-28T13:27:13Z</time>
      </trkpt>
      <trkpt lat="45.00711" lon="6.50546">
        <ele>2379.8</ele>
        <time>2021-02-28T13:27:14Z</time>
      </trkpt>
      <trkpt lat="45.00709" lon="6.50545">
        <ele>2379.2</ele>
        <time>2021-02-28T13:27:15Z</time>
      </trkpt>
      <trkpt lat="45.00706" lon="6.50544">
        <ele>2379</ele>
        <time>2021-02-28T13:27:16Z</time>
      </trkpt>
      <trkpt lat="45.00704" lon="6.50544">
        <ele>2378.2</ele>
        <time>2021-02-28T13:27:17Z</time>
      </trkpt>
      <trkpt lat="45.00702" lon="6.50543">
        <ele>2377.8</ele>
        <time>2021-02-28T13:27:18Z</time>
      </trkpt>
      <trkpt lat="45.007" lon="6.50542">
        <ele>2377.6</ele>
        <time>2021-02-28T13:27:19Z</time>
      </trkpt>
      <trkpt lat="45.00697" lon="6.50541">
        <ele>2376.8</ele>
        <time>2021-02-28T13:27:20Z</time>
      </trkpt>
      <trkpt lat="45.00695" lon="6.50541">
        <ele>2376.2</ele>
        <time>2021-02-28T13:27:21Z</time>
      </trkpt>
      <trkpt lat="45.00693" lon="6.5054">
        <ele>2375.8</ele>
        <time>2021-02-28T13:27:22Z</time>
      </trkpt>
      <trkpt lat="45.00686" lon="6.50539">
        <ele>2375.2</ele>
        <time>2021-02-28T13:27:23Z</time>
      </trkpt>
      <trkpt lat="45.00679" lon="6.50539">
        <ele>2374</ele>
        <time>2021-02-28T13:27:24Z</time>
      </trkpt>
      <trkpt lat="45.00672" lon="6.50539">
        <ele>2373</ele>
        <time>2021-02-28T13:27:25Z</time>
      </trkpt>
      <trkpt lat="45.00664" lon="6.50539">
        <ele>2372</ele>
        <time>2021-02-28T13:27:26Z</time>
      </trkpt>
      <trkpt lat="45.00657" lon="6.50538">
        <ele>2370.8</ele>
        <time>2021-02-28T13:27:27Z</time>
      </trkpt>
      <trkpt lat="45.00651" lon="6.50538">
        <ele>2369.8</ele>
        <time>2021-02-28T13:27:28Z</time>
      </trkpt>
      <trkpt lat="45.00644" lon="6.50538">
        <ele>2368.8</ele>
        <time>2021-02-28T13:27:29Z</time>
      </trkpt>
      <trkpt lat="45.00644" lon="6.50538">
        <ele>2368.2</ele>
        <time>2021-02-28T13:27:30Z</time>
      </trkpt>
      <trkpt lat="45.00632" lon="6.50538">
        <ele>2367.6</ele>
        <time>2021-02-28T13:27:31Z</time>
      </trkpt>
      <trkpt lat="45.0063" lon="6.50537">
        <ele>2366.6</ele>
        <time>2021-02-28T13:27:32Z</time>
      </trkpt>
      <trkpt lat="45.00627" lon="6.50537">
        <ele>2365.6</ele>
        <time>2021-02-28T13:27:33Z</time>
      </trkpt>
      <trkpt lat="45.00623" lon="6.50536">
        <ele>2365.6</ele>
        <time>2021-02-28T13:27:34Z</time>
      </trkpt>
      <trkpt lat="45.00623" lon="6.50536">
        <ele>2365.8</ele>
        <time>2021-02-28T13:27:35Z</time>
      </trkpt>
      <trkpt lat="45.00613" lon="6.50535">
        <ele>2365.6</ele>
        <time>2021-02-28T13:27:36Z</time>
      </trkpt>
      <trkpt lat="45.00613" lon="6.50535">
        <ele>2365.4</ele>
        <time>2021-02-28T13:27:37Z</time>
      </trkpt>
      <trkpt lat="45.00613" lon="6.50535">
        <ele>2365</ele>
        <time>2021-02-28T13:27:38Z</time>
      </trkpt>
      <trkpt lat="45.00608" lon="6.50534">
        <ele>2364.8</ele>
        <time>2021-02-28T13:27:39Z</time>
      </trkpt>
      <trkpt lat="45.00603" lon="6.50532">
        <ele>2365</ele>
        <time>2021-02-28T13:27:40Z</time>
      </trkpt>
      <trkpt lat="45.00597" lon="6.50531">
        <ele>2364.6</ele>
        <time>2021-02-28T13:27:41Z</time>
      </trkpt>
      <trkpt lat="45.00592" lon="6.5053">
        <ele>2364.2</ele>
        <time>2021-02-28T13:27:42Z</time>
      </trkpt>
      <trkpt lat="45.00587" lon="6.5053">
        <ele>2363.8</ele>
        <time>2021-02-28T13:27:43Z</time>
      </trkpt>
      <trkpt lat="45.00581" lon="6.50529">
        <ele>2363.2</ele>
        <time>2021-02-28T13:27:44Z</time>
      </trkpt>
      <trkpt lat="45.00576" lon="6.50528">
        <ele>2362.6</ele>
        <time>2021-02-28T13:27:45Z</time>
      </trkpt>
      <trkpt lat="45.0057" lon="6.50527">
        <ele>2361.8</ele>
        <time>2021-02-28T13:27:46Z</time>
      </trkpt>
      <trkpt lat="45.00564" lon="6.50526">
        <ele>2361.6</ele>
        <time>2021-02-28T13:27:47Z</time>
      </trkpt>
      <trkpt lat="45.00559" lon="6.50525">
        <ele>2361</ele>
        <time>2021-02-28T13:27:48Z</time>
      </trkpt>
      <trkpt lat="45.00559" lon="6.50525">
        <ele>2360.4</ele>
        <time>2021-02-28T13:27:49Z</time>
      </trkpt>
      <trkpt lat="45.00548" lon="6.5052">
        <ele>2359.8</ele>
        <time>2021-02-28T13:27:50Z</time>
      </trkpt>
      <trkpt lat="45.00542" lon="6.50514">
        <ele>2359</ele>
        <time>2021-02-28T13:27:51Z</time>
      </trkpt>
      <trkpt lat="45.0054" lon="6.50512">
        <ele>2358.4</ele>
        <time>2021-02-28T13:27:52Z</time>
      </trkpt>
      <trkpt lat="45.00536" lon="6.50508">
        <ele>2358</ele>
        <time>2021-02-28T13:27:53Z</time>
      </trkpt>
      <trkpt lat="45.00532" lon="6.50505">
        <ele>2357.6</ele>
        <time>2021-02-28T13:27:54Z</time>
      </trkpt>
      <trkpt lat="45.00528" lon="6.50503">
        <ele>2357</ele>
        <time>2021-02-28T13:27:55Z</time>
      </trkpt>
      <trkpt lat="45.00523" lon="6.50502">
        <ele>2356.8</ele>
        <time>2021-02-28T13:27:56Z</time>
      </trkpt>
      <trkpt lat="45.00518" lon="6.50503">
        <ele>2356</ele>
        <time>2021-02-28T13:27:57Z</time>
      </trkpt>
      <trkpt lat="45.00512" lon="6.50505">
        <ele>2355.2</ele>
        <time>2021-02-28T13:27:58Z</time>
      </trkpt>
      <trkpt lat="45.00505" lon="6.50506">
        <ele>2354.6</ele>
        <time>2021-02-28T13:27:59Z</time>
      </trkpt>
      <trkpt lat="45.00497" lon="6.50507">
        <ele>2353.8</ele>
        <time>2021-02-28T13:28:00Z</time>
      </trkpt>
      <trkpt lat="45.0049" lon="6.50508">
        <ele>2352.8</ele>
        <time>2021-02-28T13:28:01Z</time>
      </trkpt>
      <trkpt lat="45.00483" lon="6.50508">
        <ele>2351.8</ele>
        <time>2021-02-28T13:28:02Z</time>
      </trkpt>
      <trkpt lat="45.00476" lon="6.50508">
        <ele>2350.6</ele>
        <time>2021-02-28T13:28:03Z</time>
      </trkpt>
      <trkpt lat="45.00469" lon="6.50507">
        <ele>2349.6</ele>
        <time>2021-02-28T13:28:04Z</time>
      </trkpt>
      <trkpt lat="45.00462" lon="6.50506">
        <ele>2348.6</ele>
        <time>2021-02-28T13:28:05Z</time>
      </trkpt>
      <trkpt lat="45.00456" lon="6.50504">
        <ele>2347.4</ele>
        <time>2021-02-28T13:28:06Z</time>
      </trkpt>
      <trkpt lat="45.00451" lon="6.50501">
        <ele>2346.6</ele>
        <time>2021-02-28T13:28:07Z</time>
      </trkpt>
      <trkpt lat="45.00445" lon="6.50499">
        <ele>2345.6</ele>
        <time>2021-02-28T13:28:08Z</time>
      </trkpt>
      <trkpt lat="45.00439" lon="6.50496">
        <ele>2345</ele>
        <time>2021-02-28T13:28:09Z</time>
      </trkpt>
      <trkpt lat="45.00432" lon="6.50494">
        <ele>2343.8</ele>
        <time>2021-02-28T13:28:10Z</time>
      </trkpt>
      <trkpt lat="45.00426" lon="6.50492">
        <ele>2342.8</ele>
        <time>2021-02-28T13:28:11Z</time>
      </trkpt>
      <trkpt lat="45.00419" lon="6.50492">
        <ele>2342</ele>
        <time>2021-02-28T13:28:12Z</time>
      </trkpt>
      <trkpt lat="45.00412" lon="6.50491">
        <ele>2341.2</ele>
        <time>2021-02-28T13:28:13Z</time>
      </trkpt>
      <trkpt lat="45.00405" lon="6.50489">
        <ele>2340.6</ele>
        <time>2021-02-28T13:28:14Z</time>
      </trkpt>
      <trkpt lat="45.004" lon="6.50487">
        <ele>2339.6</ele>
        <time>2021-02-28T13:28:15Z</time>
      </trkpt>
      <trkpt lat="45.00394" lon="6.50485">
        <ele>2339</ele>
        <time>2021-02-28T13:28:16Z</time>
      </trkpt>
      <trkpt lat="45.00389" lon="6.50482">
        <ele>2338.4</ele>
        <time>2021-02-28T13:28:17Z</time>
      </trkpt>
      <trkpt lat="45.00385" lon="6.50481">
        <ele>2338.2</ele>
        <time>2021-02-28T13:28:18Z</time>
      </trkpt>
      <trkpt lat="45.00382" lon="6.50479">
        <ele>2337</ele>
        <time>2021-02-28T13:28:19Z</time>
      </trkpt>
      <trkpt lat="45.00378" lon="6.50477">
        <ele>2337</ele>
        <time>2021-02-28T13:28:20Z</time>
      </trkpt>
      <trkpt lat="45.00374" lon="6.50475">
        <ele>2336.6</ele>
        <time>2021-02-28T13:28:21Z</time>
      </trkpt>
      <trkpt lat="45.0037" lon="6.50474">
        <ele>2336.4</ele>
        <time>2021-02-28T13:28:22Z</time>
      </trkpt>
      <trkpt lat="45.00367" lon="6.50472">
        <ele>2336.2</ele>
        <time>2021-02-28T13:28:23Z</time>
      </trkpt>
      <trkpt lat="45.00364" lon="6.5047">
        <ele>2336</ele>
        <time>2021-02-28T13:28:24Z</time>
      </trkpt>
      <trkpt lat="45.0036" lon="6.50468">
        <ele>2335.4</ele>
        <time>2021-02-28T13:28:25Z</time>
      </trkpt>
      <trkpt lat="45.00357" lon="6.50466">
        <ele>2335.4</ele>
        <time>2021-02-28T13:28:26Z</time>
      </trkpt>
      <trkpt lat="45.00354" lon="6.50465">
        <ele>2334.8</ele>
        <time>2021-02-28T13:28:27Z</time>
      </trkpt>
      <trkpt lat="45.00354" lon="6.50465">
        <ele>2334.2</ele>
        <time>2021-02-28T13:28:28Z</time>
      </trkpt>
      <trkpt lat="45.00354" lon="6.50465">
        <ele>2335.8</ele>
        <time>2021-02-28T13:28:29Z</time>
      </trkpt>
      <trkpt lat="45.00339" lon="6.50457">
        <ele>2335.6</ele>
        <time>2021-02-28T13:28:30Z</time>
      </trkpt>
      <trkpt lat="45.00336" lon="6.50456">
        <ele>2334.6</ele>
        <time>2021-02-28T13:28:31Z</time>
      </trkpt>
      <trkpt lat="45.00333" lon="6.50455">
        <ele>2335</ele>
        <time>2021-02-28T13:28:32Z</time>
      </trkpt>
      <trkpt lat="45.00329" lon="6.50453">
        <ele>2334.6</ele>
        <time>2021-02-28T13:28:33Z</time>
      </trkpt>
      <trkpt lat="45.00324" lon="6.50451">
        <ele>2334.2</ele>
        <time>2021-02-28T13:28:34Z</time>
      </trkpt>
      <trkpt lat="45.00319" lon="6.50449">
        <ele>2333.4</ele>
        <time>2021-02-28T13:28:35Z</time>
      </trkpt>
      <trkpt lat="45.00314" lon="6.50447">
        <ele>2332.8</ele>
        <time>2021-02-28T13:28:36Z</time>
      </trkpt>
      <trkpt lat="45.00309" lon="6.50445">
        <ele>2332</ele>
        <time>2021-02-28T13:28:37Z</time>
      </trkpt>
      <trkpt lat="45.00304" lon="6.50444">
        <ele>2331.4</ele>
        <time>2021-02-28T13:28:38Z</time>
      </trkpt>
      <trkpt lat="45.00299" lon="6.50442">
        <ele>2331</ele>
        <time>2021-02-28T13:28:39Z</time>
      </trkpt>
      <trkpt lat="45.00293" lon="6.5044">
        <ele>2330.4</ele>
        <time>2021-02-28T13:28:40Z</time>
      </trkpt>
      <trkpt lat="45.00287" lon="6.50437">
        <ele>2329.8</ele>
        <time>2021-02-28T13:28:41Z</time>
      </trkpt>
      <trkpt lat="45.00281" lon="6.50435">
        <ele>2329</ele>
        <time>2021-02-28T13:28:42Z</time>
      </trkpt>
      <trkpt lat="45.00275" lon="6.50432">
        <ele>2328.2</ele>
        <time>2021-02-28T13:28:43Z</time>
      </trkpt>
      <trkpt lat="45.00269" lon="6.50429">
        <ele>2327.4</ele>
        <time>2021-02-28T13:28:44Z</time>
      </trkpt>
      <trkpt lat="45.00263" lon="6.50425">
        <ele>2326.8</ele>
        <time>2021-02-28T13:28:45Z</time>
      </trkpt>
      <trkpt lat="45.00256" lon="6.50422">
        <ele>2325.8</ele>
        <time>2021-02-28T13:28:46Z</time>
      </trkpt>
      <trkpt lat="45.00249" lon="6.50418">
        <ele>2324.6</ele>
        <time>2021-02-28T13:28:47Z</time>
      </trkpt>
      <trkpt lat="45.00242" lon="6.50414">
        <ele>2323.8</ele>
        <time>2021-02-28T13:28:48Z</time>
      </trkpt>
      <trkpt lat="45.00235" lon="6.5041">
        <ele>2322.6</ele>
        <time>2021-02-28T13:28:49Z</time>
      </trkpt>
      <trkpt lat="45.00227" lon="6.50405">
        <ele>2321.6</ele>
        <time>2021-02-28T13:28:50Z</time>
      </trkpt>
      <trkpt lat="45.0022" lon="6.50401">
        <ele>2320.6</ele>
        <time>2021-02-28T13:28:51Z</time>
      </trkpt>
      <trkpt lat="45.00213" lon="6.50396">
        <ele>2319.2</ele>
        <time>2021-02-28T13:28:52Z</time>
      </trkpt>
      <trkpt lat="45.00205" lon="6.50391">
        <ele>2318.2</ele>
        <time>2021-02-28T13:28:53Z</time>
      </trkpt>
      <trkpt lat="45.00197" lon="6.50387">
        <ele>2317.2</ele>
        <time>2021-02-28T13:28:54Z</time>
      </trkpt>
      <trkpt lat="45.00189" lon="6.50382">
        <ele>2316.6</ele>
        <time>2021-02-28T13:28:55Z</time>
      </trkpt>
      <trkpt lat="45.00182" lon="6.50377">
        <ele>2315.4</ele>
        <time>2021-02-28T13:28:56Z</time>
      </trkpt>
      <trkpt lat="45.00173" lon="6.50372">
        <ele>2314</ele>
        <time>2021-02-28T13:28:57Z</time>
      </trkpt>
      <trkpt lat="45.00165" lon="6.50368">
        <ele>2312.4</ele>
        <time>2021-02-28T13:28:58Z</time>
      </trkpt>
      <trkpt lat="45.00157" lon="6.50364">
        <ele>2311.2</ele>
        <time>2021-02-28T13:28:59Z</time>
      </trkpt>
      <trkpt lat="45.00149" lon="6.5036">
        <ele>2309.6</ele>
        <time>2021-02-28T13:29:00Z</time>
      </trkpt>
      <trkpt lat="45.00142" lon="6.50355">
        <ele>2308.6</ele>
        <time>2021-02-28T13:29:01Z</time>
      </trkpt>
      <trkpt lat="45.00136" lon="6.5035">
        <ele>2307.8</ele>
        <time>2021-02-28T13:29:02Z</time>
      </trkpt>
      <trkpt lat="45.0013" lon="6.50345">
        <ele>2306.4</ele>
        <time>2021-02-28T13:29:03Z</time>
      </trkpt>
      <trkpt lat="45.00125" lon="6.5034">
        <ele>2305.8</ele>
        <time>2021-02-28T13:29:04Z</time>
      </trkpt>
      <trkpt lat="45.00119" lon="6.50335">
        <ele>2304.8</ele>
        <time>2021-02-28T13:29:05Z</time>
      </trkpt>
      <trkpt lat="45.00114" lon="6.5033">
        <ele>2304.2</ele>
        <time>2021-02-28T13:29:06Z</time>
      </trkpt>
      <trkpt lat="45.0011" lon="6.50325">
        <ele>2303.4</ele>
        <time>2021-02-28T13:29:07Z</time>
      </trkpt>
      <trkpt lat="45.00106" lon="6.50321">
        <ele>2302.4</ele>
        <time>2021-02-28T13:29:08Z</time>
      </trkpt>
      <trkpt lat="45.00103" lon="6.50317">
        <ele>2302</ele>
        <time>2021-02-28T13:29:09Z</time>
      </trkpt>
      <trkpt lat="45.00103" lon="6.50317">
        <ele>2301.4</ele>
        <time>2021-02-28T13:29:10Z</time>
      </trkpt>
      <trkpt lat="45.00098" lon="6.50308">
        <ele>2302</ele>
        <time>2021-02-28T13:29:11Z</time>
      </trkpt>
      <trkpt lat="45.00094" lon="6.50304">
        <ele>2302</ele>
        <time>2021-02-28T13:29:12Z</time>
      </trkpt>
      <trkpt lat="45.00093" lon="6.50303">
        <ele>2301.4</ele>
        <time>2021-02-28T13:29:13Z</time>
      </trkpt>
      <trkpt lat="45.0009" lon="6.50301">
        <ele>2301.4</ele>
        <time>2021-02-28T13:29:14Z</time>
      </trkpt>
      <trkpt lat="45.00089" lon="6.50299">
        <ele>2301.2</ele>
        <time>2021-02-28T13:29:15Z</time>
      </trkpt>
      <trkpt lat="45.00087" lon="6.50297">
        <ele>2301.6</ele>
        <time>2021-02-28T13:29:16Z</time>
      </trkpt>
      <trkpt lat="45.00086" lon="6.50294">
        <ele>2301.4</ele>
        <time>2021-02-28T13:29:17Z</time>
      </trkpt>
      <trkpt lat="45.00084" lon="6.50292">
        <ele>2301</ele>
        <time>2021-02-28T13:29:18Z</time>
      </trkpt>
      <trkpt lat="45.00082" lon="6.50289">
        <ele>2301.2</ele>
        <time>2021-02-28T13:29:19Z</time>
      </trkpt>
      <trkpt lat="45.00081" lon="6.50287">
        <ele>2301.4</ele>
        <time>2021-02-28T13:29:20Z</time>
      </trkpt>
      <trkpt lat="45.00081" lon="6.50287">
        <ele>2301</ele>
        <time>2021-02-28T13:29:21Z</time>
      </trkpt>
      <trkpt lat="45.00078" lon="6.50284">
        <ele>2301.4</ele>
        <time>2021-02-28T13:29:22Z</time>
      </trkpt>
      <trkpt lat="45.00078" lon="6.50284">
        <ele>2300.8</ele>
        <time>2021-02-28T13:29:23Z</time>
      </trkpt>
      <trkpt lat="45.00076" lon="6.50281">
        <ele>2300.8</ele>
        <time>2021-02-28T13:29:24Z</time>
      </trkpt>
      <trkpt lat="45.00076" lon="6.50281">
        <ele>2301</ele>
        <time>2021-02-28T13:29:25Z</time>
      </trkpt>
      <trkpt lat="45.00075" lon="6.50278">
        <ele>2301.2</ele>
        <time>2021-02-28T13:29:26Z</time>
      </trkpt>
      <trkpt lat="45.00075" lon="6.50278">
        <ele>2301.2</ele>
        <time>2021-02-28T13:29:27Z</time>
      </trkpt>
      <trkpt lat="45.00075" lon="6.50278">
        <ele>2300.6</ele>
        <time>2021-02-28T13:29:28Z</time>
      </trkpt>
      <trkpt lat="45.00075" lon="6.50278">
        <ele>2300.2</ele>
        <time>2021-02-28T13:29:29Z</time>
      </trkpt>
      <trkpt lat="45.00075" lon="6.50278">
        <ele>2300.4</ele>
        <time>2021-02-28T13:29:30Z</time>
      </trkpt>
      <trkpt lat="45.00075" lon="6.50278">
        <ele>2299.8</ele>
        <time>2021-02-28T13:29:31Z</time>
      </trkpt>
      <trkpt lat="45.00075" lon="6.50278">
        <ele>2299.6</ele>
        <time>2021-02-28T13:29:32Z</time>
      </trkpt>
      <trkpt lat="45.00075" lon="6.50278">
        <ele>2298.8</ele>
        <time>2021-02-28T13:29:33Z</time>
      </trkpt>
      <trkpt lat="45.00075" lon="6.50278">
        <ele>2298.8</ele>
        <time>2021-02-28T13:29:34Z</time>
      </trkpt>
      <trkpt lat="45.00075" lon="6.50278">
        <ele>2298.8</ele>
        <time>2021-02-28T13:29:35Z</time>
      </trkpt>
      <trkpt lat="45.00075" lon="6.50278">
        <ele>2298.8</ele>
        <time>2021-02-28T13:29:36Z</time>
      </trkpt>
      <trkpt lat="45.00075" lon="6.50278">
        <ele>2299</ele>
        <time>2021-02-28T13:29:37Z</time>
      </trkpt>
      <trkpt lat="45.00075" lon="6.50278">
        <ele>2299</ele>
        <time>2021-02-28T13:29:38Z</time>
      </trkpt>
      <trkpt lat="45.00075" lon="6.50278">
        <ele>2299.2</ele>
        <time>2021-02-28T13:29:39Z</time>
      </trkpt>
      <trkpt lat="45.00075" lon="6.50278">
        <ele>2299</ele>
        <time>2021-02-28T13:29:40Z</time>
      </trkpt>
      <trkpt lat="45.00075" lon="6.50278">
        <ele>2299</ele>
        <time>2021-02-28T13:29:41Z</time>
      </trkpt>
      <trkpt lat="45.00075" lon="6.50278">
        <ele>2299</ele>
        <time>2021-02-28T13:29:42Z</time>
      </trkpt>
      <trkpt lat="45.00075" lon="6.50278">
        <ele>2298.4</ele>
        <time>2021-02-28T13:29:43Z</time>
      </trkpt>
      <trkpt lat="45.00074" lon="6.50276">
        <ele>2298.8</ele>
        <time>2021-02-28T13:29:44Z</time>
      </trkpt>
      <trkpt lat="45.00074" lon="6.50276">
        <ele>2299.8</ele>
        <time>2021-02-28T13:29:45Z</time>
      </trkpt>
      <trkpt lat="45.00074" lon="6.50276">
        <ele>2299.6</ele>
        <time>2021-02-28T13:29:46Z</time>
      </trkpt>
      <trkpt lat="45.00073" lon="6.50273">
        <ele>2299.2</ele>
        <time>2021-02-28T13:29:47Z</time>
      </trkpt>
      <trkpt lat="45.00073" lon="6.50273">
        <ele>2299.4</ele>
        <time>2021-02-28T13:29:48Z</time>
      </trkpt>
      <trkpt lat="45.00073" lon="6.50273">
        <ele>2299.4</ele>
        <time>2021-02-28T13:29:49Z</time>
      </trkpt>
      <trkpt lat="45.00071" lon="6.50271">
        <ele>2299.4</ele>
        <time>2021-02-28T13:29:50Z</time>
      </trkpt>
      <trkpt lat="45.00071" lon="6.50271">
        <ele>2299.4</ele>
        <time>2021-02-28T13:29:51Z</time>
      </trkpt>
      <trkpt lat="45.0007" lon="6.50269">
        <ele>2299.4</ele>
        <time>2021-02-28T13:29:52Z</time>
      </trkpt>
      <trkpt lat="45.0007" lon="6.50269">
        <ele>2299.4</ele>
        <time>2021-02-28T13:29:53Z</time>
      </trkpt>
      <trkpt lat="45.0007" lon="6.50269">
        <ele>2299.6</ele>
        <time>2021-02-28T13:29:54Z</time>
      </trkpt>
      <trkpt lat="45.00068" lon="6.50267">
        <ele>2299.4</ele>
        <time>2021-02-28T13:29:55Z</time>
      </trkpt>
      <trkpt lat="45.00068" lon="6.50267">
        <ele>2299</ele>
        <time>2021-02-28T13:29:56Z</time>
      </trkpt>
      <trkpt lat="45.00068" lon="6.50267">
        <ele>2299</ele>
        <time>2021-02-28T13:29:57Z</time>
      </trkpt>
      <trkpt lat="45.00068" lon="6.50267">
        <ele>2298.8</ele>
        <time>2021-02-28T13:29:58Z</time>
      </trkpt>
      <trkpt lat="45.00067" lon="6.50264">
        <ele>2298.8</ele>
        <time>2021-02-28T13:29:59Z</time>
      </trkpt>
      <trkpt lat="45.00067" lon="6.50264">
        <ele>2299.2</ele>
        <time>2021-02-28T13:30:00Z</time>
      </trkpt>
      <trkpt lat="45.00065" lon="6.50262">
        <ele>2299.4</ele>
        <time>2021-02-28T13:30:01Z</time>
      </trkpt>
      <trkpt lat="45.00065" lon="6.50262">
        <ele>2299.2</ele>
        <time>2021-02-28T13:30:02Z</time>
      </trkpt>
      <trkpt lat="45.00062" lon="6.50259">
        <ele>2299</ele>
        <time>2021-02-28T13:30:03Z</time>
      </trkpt>
      <trkpt lat="45.00062" lon="6.50259">
        <ele>2298.8</ele>
        <time>2021-02-28T13:30:04Z</time>
      </trkpt>
      <trkpt lat="45.00061" lon="6.50257">
        <ele>2298.6</ele>
        <time>2021-02-28T13:30:05Z</time>
      </trkpt>
      <trkpt lat="45.00061" lon="6.50257">
        <ele>2298.4</ele>
        <time>2021-02-28T13:30:06Z</time>
      </trkpt>
      <trkpt lat="45.00059" lon="6.50255">
        <ele>2298.8</ele>
        <time>2021-02-28T13:30:07Z</time>
      </trkpt>
      <trkpt lat="45.00059" lon="6.50255">
        <ele>2298.8</ele>
        <time>2021-02-28T13:30:08Z</time>
      </trkpt>
      <trkpt lat="45.00057" lon="6.50252">
        <ele>2299</ele>
        <time>2021-02-28T13:30:09Z</time>
      </trkpt>
      <trkpt lat="45.00057" lon="6.50252">
        <ele>2298.8</ele>
        <time>2021-02-28T13:30:10Z</time>
      </trkpt>
      <trkpt lat="45.00056" lon="6.50249">
        <ele>2298.6</ele>
        <time>2021-02-28T13:30:11Z</time>
      </trkpt>
      <trkpt lat="45.00056" lon="6.50249">
        <ele>2298.2</ele>
        <time>2021-02-28T13:30:12Z</time>
      </trkpt>
      <trkpt lat="45.00054" lon="6.50247">
        <ele>2298.4</ele>
        <time>2021-02-28T13:30:13Z</time>
      </trkpt>
      <trkpt lat="45.00054" lon="6.50247">
        <ele>2298.2</ele>
        <time>2021-02-28T13:30:14Z</time>
      </trkpt>
      <trkpt lat="45.00052" lon="6.50245">
        <ele>2298.4</ele>
        <time>2021-02-28T13:30:15Z</time>
      </trkpt>
      <trkpt lat="45.00052" lon="6.50245">
        <ele>2298.4</ele>
        <time>2021-02-28T13:30:16Z</time>
      </trkpt>
      <trkpt lat="45.00051" lon="6.50243">
        <ele>2298.2</ele>
        <time>2021-02-28T13:30:17Z</time>
      </trkpt>
      <trkpt lat="45.00051" lon="6.50243">
        <ele>2298.2</ele>
        <time>2021-02-28T13:30:18Z</time>
      </trkpt>
      <trkpt lat="45.0005" lon="6.5024">
        <ele>2298.6</ele>
        <time>2021-02-28T13:30:19Z</time>
      </trkpt>
      <trkpt lat="45.0005" lon="6.5024">
        <ele>2299</ele>
        <time>2021-02-28T13:30:20Z</time>
      </trkpt>
      <trkpt lat="45.00048" lon="6.50238">
        <ele>2298.6</ele>
        <time>2021-02-28T13:30:21Z</time>
      </trkpt>
      <trkpt lat="45.00048" lon="6.50238">
        <ele>2298.4</ele>
        <time>2021-02-28T13:30:22Z</time>
      </trkpt>
      <trkpt lat="45.00047" lon="6.50236">
        <ele>2298.4</ele>
        <time>2021-02-28T13:30:23Z</time>
      </trkpt>
      <trkpt lat="45.00047" lon="6.50236">
        <ele>2298.4</ele>
        <time>2021-02-28T13:30:24Z</time>
      </trkpt>
      <trkpt lat="45.00045" lon="6.50234">
        <ele>2298.6</ele>
        <time>2021-02-28T13:30:25Z</time>
      </trkpt>
      <trkpt lat="45.00045" lon="6.50234">
        <ele>2299</ele>
        <time>2021-02-28T13:30:26Z</time>
      </trkpt>
      <trkpt lat="45.00044" lon="6.50232">
        <ele>2299</ele>
        <time>2021-02-28T13:30:27Z</time>
      </trkpt>
      <trkpt lat="45.00044" lon="6.50232">
        <ele>2298.8</ele>
        <time>2021-02-28T13:30:28Z</time>
      </trkpt>
      <trkpt lat="45.00042" lon="6.50231">
        <ele>2298.6</ele>
        <time>2021-02-28T13:30:29Z</time>
      </trkpt>
      <trkpt lat="45.00042" lon="6.50231">
        <ele>2298.4</ele>
        <time>2021-02-28T13:30:30Z</time>
      </trkpt>
      <trkpt lat="45.00042" lon="6.50231">
        <ele>2298.6</ele>
        <time>2021-02-28T13:30:31Z</time>
      </trkpt>
      <trkpt lat="45.0004" lon="6.50231">
        <ele>2298.6</ele>
        <time>2021-02-28T13:30:32Z</time>
      </trkpt>
      <trkpt lat="45.0004" lon="6.50231">
        <ele>2298.4</ele>
        <time>2021-02-28T13:30:33Z</time>
      </trkpt>
      <trkpt lat="45.0004" lon="6.50231">
        <ele>2298.6</ele>
        <time>2021-02-28T13:30:34Z</time>
      </trkpt>
      <trkpt lat="45.0004" lon="6.50231">
        <ele>2298.4</ele>
        <time>2021-02-28T13:30:35Z</time>
      </trkpt>
      <trkpt lat="45.0004" lon="6.50231">
        <ele>2298.4</ele>
        <time>2021-02-28T13:30:36Z</time>
      </trkpt>
      <trkpt lat="45.0004" lon="6.50231">
        <ele>2298.4</ele>
        <time>2021-02-28T13:30:37Z</time>
      </trkpt>
      <trkpt lat="45.0004" lon="6.50231">
        <ele>2298.2</ele>
        <time>2021-02-28T13:30:38Z</time>
      </trkpt>
      <trkpt lat="45.0004" lon="6.50231">
        <ele>2298.2</ele>
        <time>2021-02-28T13:30:39Z</time>
      </trkpt>
      <trkpt lat="45.0004" lon="6.50231">
        <ele>2298</ele>
        <time>2021-02-28T13:30:40Z</time>
      </trkpt>
      <trkpt lat="45.0004" lon="6.50231">
        <ele>2298.2</ele>
        <time>2021-02-28T13:30:41Z</time>
      </trkpt>
      <trkpt lat="45.0004" lon="6.50231">
        <ele>2298.2</ele>
        <time>2021-02-28T13:30:42Z</time>
      </trkpt>
      <trkpt lat="45.0004" lon="6.50231">
        <ele>2298.2</ele>
        <time>2021-02-28T13:30:43Z</time>
      </trkpt>
      <trkpt lat="45.0004" lon="6.50231">
        <ele>2298.4</ele>
        <time>2021-02-28T13:30:44Z</time>
      </trkpt>
      <trkpt lat="45.0004" lon="6.50231">
        <ele>2298.4</ele>
        <time>2021-02-28T13:30:45Z</time>
      </trkpt>
      <trkpt lat="45.0004" lon="6.50231">
        <ele>2298.8</ele>
        <time>2021-02-28T13:30:46Z</time>
      </trkpt>
      <trkpt lat="45.0004" lon="6.50231">
        <ele>2298.8</ele>
        <time>2021-02-28T13:30:47Z</time>
      </trkpt>
      <trkpt lat="45.0004" lon="6.50231">
        <ele>2298.8</ele>
        <time>2021-02-28T13:30:48Z</time>
      </trkpt>
      <trkpt lat="45.0004" lon="6.50231">
        <ele>2298.8</ele>
        <time>2021-02-28T13:30:49Z</time>
      </trkpt>
      <trkpt lat="45.0004" lon="6.50231">
        <ele>2298.8</ele>
        <time>2021-02-28T13:30:50Z</time>
      </trkpt>
      <trkpt lat="45.0004" lon="6.50231">
        <ele>2298.6</ele>
        <time>2021-02-28T13:30:51Z</time>
      </trkpt>
      <trkpt lat="45.0004" lon="6.50231">
        <ele>2298.6</ele>
        <time>2021-02-28T13:30:52Z</time>
      </trkpt>
      <trkpt lat="45.0004" lon="6.50231">
        <ele>2298.4</ele>
        <time>2021-02-28T13:30:53Z</time>
      </trkpt>
      <trkpt lat="45.0004" lon="6.50231">
        <ele>2298.4</ele>
        <time>2021-02-28T13:30:54Z</time>
      </trkpt>
      <trkpt lat="45.0004" lon="6.50231">
        <ele>2298.6</ele>
        <time>2021-02-28T13:30:55Z</time>
      </trkpt>
      <trkpt lat="45.0004" lon="6.50231">
        <ele>2298.8</ele>
        <time>2021-02-28T13:30:56Z</time>
      </trkpt>
      <trkpt lat="45.0004" lon="6.50231">
        <ele>2298.8</ele>
        <time>2021-02-28T13:30:57Z</time>
      </trkpt>
      <trkpt lat="45.0004" lon="6.50231">
        <ele>2298.6</ele>
        <time>2021-02-28T13:30:58Z</time>
      </trkpt>
      <trkpt lat="45.0004" lon="6.50231">
        <ele>2298.6</ele>
        <time>2021-02-28T13:30:59Z</time>
      </trkpt>
      <trkpt lat="45.0004" lon="6.50231">
        <ele>2298.6</ele>
        <time>2021-02-28T13:31:00Z</time>
      </trkpt>
      <trkpt lat="45.0004" lon="6.50231">
        <ele>2298.6</ele>
        <time>2021-02-28T13:31:01Z</time>
      </trkpt>
      <trkpt lat="45.0004" lon="6.50231">
        <ele>2298.8</ele>
        <time>2021-02-28T13:31:02Z</time>
      </trkpt>
      <trkpt lat="45.0004" lon="6.50231">
        <ele>2298.8</ele>
        <time>2021-02-28T13:31:03Z</time>
      </trkpt>
      <trkpt lat="45.0004" lon="6.50231">
        <ele>2299</ele>
        <time>2021-02-28T13:31:04Z</time>
      </trkpt>
      <trkpt lat="45.0004" lon="6.50231">
        <ele>2299</ele>
        <time>2021-02-28T13:31:05Z</time>
      </trkpt>
      <trkpt lat="45.0004" lon="6.50231">
        <ele>2299</ele>
        <time>2021-02-28T13:31:06Z</time>
      </trkpt>
      <trkpt lat="45.0004" lon="6.50231">
        <ele>2298.8</ele>
        <time>2021-02-28T13:31:07Z</time>
      </trkpt>
      <trkpt lat="45.0004" lon="6.50231">
        <ele>2298.8</ele>
        <time>2021-02-28T13:31:08Z</time>
      </trkpt>
      <trkpt lat="45.0004" lon="6.50231">
        <ele>2298.8</ele>
        <time>2021-02-28T13:31:09Z</time>
      </trkpt>
      <trkpt lat="45.0004" lon="6.50231">
        <ele>2298.6</ele>
        <time>2021-02-28T13:31:10Z</time>
      </trkpt>
      <trkpt lat="45.0004" lon="6.50231">
        <ele>2299</ele>
        <time>2021-02-28T13:31:11Z</time>
      </trkpt>
      <trkpt lat="45.0004" lon="6.50231">
        <ele>2299.6</ele>
        <time>2021-02-28T13:31:12Z</time>
      </trkpt>
      <trkpt lat="45.0004" lon="6.50231">
        <ele>2300</ele>
        <time>2021-02-28T13:31:13Z</time>
      </trkpt>
      <trkpt lat="45.0004" lon="6.50231">
        <ele>2299.8</ele>
        <time>2021-02-28T13:31:14Z</time>
      </trkpt>
      <trkpt lat="45.0004" lon="6.50231">
        <ele>2299.8</ele>
        <time>2021-02-28T13:31:15Z</time>
      </trkpt>
      <trkpt lat="45.0004" lon="6.50231">
        <ele>2299.4</ele>
        <time>2021-02-28T13:31:16Z</time>
      </trkpt>
      <trkpt lat="45.0004" lon="6.50231">
        <ele>2299.8</ele>
        <time>2021-02-28T13:31:17Z</time>
      </trkpt>
      <trkpt lat="45.0004" lon="6.50231">
        <ele>2299.8</ele>
        <time>2021-02-28T13:31:18Z</time>
      </trkpt>
      <trkpt lat="45.0004" lon="6.50231">
        <ele>2300</ele>
        <time>2021-02-28T13:31:19Z</time>
      </trkpt>
      <trkpt lat="45.0004" lon="6.50231">
        <ele>2299.8</ele>
        <time>2021-02-28T13:31:20Z</time>
      </trkpt>
      <trkpt lat="45.0004" lon="6.50231">
        <ele>2299.8</ele>
        <time>2021-02-28T13:31:21Z</time>
      </trkpt>
      <trkpt lat="45.0004" lon="6.50231">
        <ele>2300</ele>
        <time>2021-02-28T13:31:22Z</time>
      </trkpt>
      <trkpt lat="45.0004" lon="6.50231">
        <ele>2299.8</ele>
        <time>2021-02-28T13:31:23Z</time>
      </trkpt>
      <trkpt lat="45.0004" lon="6.50231">
        <ele>2299.8</ele>
        <time>2021-02-28T13:31:24Z</time>
      </trkpt>
      <trkpt lat="45.0004" lon="6.50231">
        <ele>2299.8</ele>
        <time>2021-02-28T13:31:25Z</time>
      </trkpt>
      <trkpt lat="45.0004" lon="6.50231">
        <ele>2300</ele>
        <time>2021-02-28T13:31:26Z</time>
      </trkpt>
      <trkpt lat="45.0004" lon="6.50231">
        <ele>2300</ele>
        <time>2021-02-28T13:31:27Z</time>
      </trkpt>
      <trkpt lat="45.0004" lon="6.50231">
        <ele>2299.8</ele>
        <time>2021-02-28T13:31:28Z</time>
      </trkpt>
      <trkpt lat="45.0004" lon="6.50231">
        <ele>2300</ele>
        <time>2021-02-28T13:31:29Z</time>
      </trkpt>
      <trkpt lat="45.0004" lon="6.50231">
        <ele>2299.8</ele>
        <time>2021-02-28T13:31:30Z</time>
      </trkpt>
      <trkpt lat="45.0004" lon="6.50231">
        <ele>2300</ele>
        <time>2021-02-28T13:31:31Z</time>
      </trkpt>
      <trkpt lat="45.0004" lon="6.50231">
        <ele>2299.8</ele>
        <time>2021-02-28T13:31:32Z</time>
      </trkpt>
      <trkpt lat="45.0004" lon="6.50231">
        <ele>2299.8</ele>
        <time>2021-02-28T13:31:33Z</time>
      </trkpt>
      <trkpt lat="45.0004" lon="6.50231">
        <ele>2300.2</ele>
        <time>2021-02-28T13:31:34Z</time>
      </trkpt>
      <trkpt lat="45.0004" lon="6.50231">
        <ele>2300</ele>
        <time>2021-02-28T13:31:35Z</time>
      </trkpt>
      <trkpt lat="45.0004" lon="6.50231">
        <ele>2300</ele>
        <time>2021-02-28T13:31:36Z</time>
      </trkpt>
      <trkpt lat="45.0004" lon="6.50231">
        <ele>2300</ele>
        <time>2021-02-28T13:31:37Z</time>
      </trkpt>
      <trkpt lat="45.0004" lon="6.50231">
        <ele>2300</ele>
        <time>2021-02-28T13:31:38Z</time>
      </trkpt>
      <trkpt lat="45.0004" lon="6.50231">
        <ele>2299.8</ele>
        <time>2021-02-28T13:31:39Z</time>
      </trkpt>
      <trkpt lat="45.0004" lon="6.50231">
        <ele>2299.2</ele>
        <time>2021-02-28T13:31:40Z</time>
      </trkpt>
      <trkpt lat="45.0004" lon="6.50231">
        <ele>2299.2</ele>
        <time>2021-02-28T13:31:41Z</time>
      </trkpt>
      <trkpt lat="45.0004" lon="6.50231">
        <ele>2300</ele>
        <time>2021-02-28T13:31:42Z</time>
      </trkpt>
      <trkpt lat="45.0004" lon="6.50231">
        <ele>2299.8</ele>
        <time>2021-02-28T13:31:43Z</time>
      </trkpt>
      <trkpt lat="45.0004" lon="6.50231">
        <ele>2300</ele>
        <time>2021-02-28T13:31:44Z</time>
      </trkpt>
      <trkpt lat="45.0004" lon="6.50231">
        <ele>2300</ele>
        <time>2021-02-28T13:31:45Z</time>
      </trkpt>
      <trkpt lat="45.0004" lon="6.50231">
        <ele>2300</ele>
        <time>2021-02-28T13:31:46Z</time>
      </trkpt>
      <trkpt lat="45.0004" lon="6.50231">
        <ele>2300</ele>
        <time>2021-02-28T13:31:47Z</time>
      </trkpt>
      <trkpt lat="45.0004" lon="6.50231">
        <ele>2300</ele>
        <time>2021-02-28T13:31:48Z</time>
      </trkpt>
      <trkpt lat="45.0004" lon="6.50231">
        <ele>2300.2</ele>
        <time>2021-02-28T13:31:49Z</time>
      </trkpt>
      <trkpt lat="45.0004" lon="6.50231">
        <ele>2300.2</ele>
        <time>2021-02-28T13:31:50Z</time>
      </trkpt>
      <trkpt lat="45.0004" lon="6.50231">
        <ele>2300.2</ele>
        <time>2021-02-28T13:31:51Z</time>
      </trkpt>
      <trkpt lat="45.0004" lon="6.50231">
        <ele>2300.2</ele>
        <time>2021-02-28T13:31:52Z</time>
      </trkpt>
      <trkpt lat="45.0004" lon="6.50231">
        <ele>2300.2</ele>
        <time>2021-02-28T13:31:53Z</time>
      </trkpt>
      <trkpt lat="45.0004" lon="6.50231">
        <ele>2300</ele>
        <time>2021-02-28T13:31:54Z</time>
      </trkpt>
      <trkpt lat="45.0004" lon="6.50231">
        <ele>2300</ele>
        <time>2021-02-28T13:31:55Z</time>
      </trkpt>
      <trkpt lat="45.0004" lon="6.50231">
        <ele>2299.8</ele>
        <time>2021-02-28T13:31:56Z</time>
      </trkpt>
      <trkpt lat="45.0004" lon="6.50231">
        <ele>2299.6</ele>
        <time>2021-02-28T13:31:57Z</time>
      </trkpt>
      <trkpt lat="45.0004" lon="6.50231">
        <ele>2299.8</ele>
        <time>2021-02-28T13:31:58Z</time>
      </trkpt>
      <trkpt lat="45.0004" lon="6.50231">
        <ele>2299.8</ele>
        <time>2021-02-28T13:31:59Z</time>
      </trkpt>
      <trkpt lat="45.0004" lon="6.50231">
        <ele>2299.8</ele>
        <time>2021-02-28T13:32:00Z</time>
      </trkpt>
      <trkpt lat="45.0004" lon="6.50231">
        <ele>2299.8</ele>
        <time>2021-02-28T13:32:01Z</time>
      </trkpt>
      <trkpt lat="45.0004" lon="6.50231">
        <ele>2299.8</ele>
        <time>2021-02-28T13:32:02Z</time>
      </trkpt>
      <trkpt lat="45.0004" lon="6.50231">
        <ele>2299.8</ele>
        <time>2021-02-28T13:32:03Z</time>
      </trkpt>
      <trkpt lat="45.0004" lon="6.50231">
        <ele>2299.8</ele>
        <time>2021-02-28T13:32:04Z</time>
      </trkpt>
      <trkpt lat="45.0004" lon="6.50231">
        <ele>2300</ele>
        <time>2021-02-28T13:32:05Z</time>
      </trkpt>
      <trkpt lat="45.0004" lon="6.50231">
        <ele>2299.8</ele>
        <time>2021-02-28T13:32:06Z</time>
      </trkpt>
      <trkpt lat="45.0004" lon="6.50231">
        <ele>2300</ele>
        <time>2021-02-28T13:32:07Z</time>
      </trkpt>
      <trkpt lat="45.0004" lon="6.50231">
        <ele>2299.8</ele>
        <time>2021-02-28T13:32:08Z</time>
      </trkpt>
      <trkpt lat="45.0004" lon="6.50231">
        <ele>2299.8</ele>
        <time>2021-02-28T13:32:09Z</time>
      </trkpt>
      <trkpt lat="45.0004" lon="6.50231">
        <ele>2299.6</ele>
        <time>2021-02-28T13:32:10Z</time>
      </trkpt>
      <trkpt lat="45.0004" lon="6.50231">
        <ele>2299.8</ele>
        <time>2021-02-28T13:32:11Z</time>
      </trkpt>
      <trkpt lat="45.0004" lon="6.50231">
        <ele>2299.8</ele>
        <time>2021-02-28T13:32:12Z</time>
      </trkpt>
      <trkpt lat="45.0004" lon="6.50231">
        <ele>2299.6</ele>
        <time>2021-02-28T13:32:13Z</time>
      </trkpt>
      <trkpt lat="45.0004" lon="6.50231">
        <ele>2299.8</ele>
        <time>2021-02-28T13:32:14Z</time>
      </trkpt>
      <trkpt lat="45.0004" lon="6.50231">
        <ele>2299.8</ele>
        <time>2021-02-28T13:32:15Z</time>
      </trkpt>
      <trkpt lat="45.0004" lon="6.50231">
        <ele>2299.6</ele>
        <time>2021-02-28T13:32:16Z</time>
      </trkpt>
      <trkpt lat="45.0004" lon="6.50231">
        <ele>2299.6</ele>
        <time>2021-02-28T13:32:17Z</time>
      </trkpt>
      <trkpt lat="45.0004" lon="6.50231">
        <ele>2299.8</ele>
        <time>2021-02-28T13:32:18Z</time>
      </trkpt>
      <trkpt lat="45.0004" lon="6.50231">
        <ele>2299.6</ele>
        <time>2021-02-28T13:32:19Z</time>
      </trkpt>
      <trkpt lat="45.0004" lon="6.50231">
        <ele>2299.6</ele>
        <time>2021-02-28T13:32:20Z</time>
      </trkpt>
      <trkpt lat="45.0004" lon="6.50231">
        <ele>2299.6</ele>
        <time>2021-02-28T13:32:21Z</time>
      </trkpt>
      <trkpt lat="45.0004" lon="6.50231">
        <ele>2299.6</ele>
        <time>2021-02-28T13:32:22Z</time>
      </trkpt>
      <trkpt lat="45.0004" lon="6.50231">
        <ele>2299.8</ele>
        <time>2021-02-28T13:32:23Z</time>
      </trkpt>
      <trkpt lat="45.0004" lon="6.50231">
        <ele>2300</ele>
        <time>2021-02-28T13:32:24Z</time>
      </trkpt>
      <trkpt lat="45.0004" lon="6.50231">
        <ele>2300</ele>
        <time>2021-02-28T13:32:25Z</time>
      </trkpt>
      <trkpt lat="45.0004" lon="6.50231">
        <ele>2299.6</ele>
        <time>2021-02-28T13:32:26Z</time>
      </trkpt>
      <trkpt lat="45.0004" lon="6.50231">
        <ele>2298.8</ele>
        <time>2021-02-28T13:32:27Z</time>
      </trkpt>
      <trkpt lat="45.0004" lon="6.50231">
        <ele>2298.8</ele>
        <time>2021-02-28T13:32:28Z</time>
      </trkpt>
      <trkpt lat="45.0004" lon="6.50231">
        <ele>2298.8</ele>
        <time>2021-02-28T13:32:29Z</time>
      </trkpt>
      <trkpt lat="45.0004" lon="6.50231">
        <ele>2298.6</ele>
        <time>2021-02-28T13:32:30Z</time>
      </trkpt>
      <trkpt lat="45.0004" lon="6.50231">
        <ele>2298.6</ele>
        <time>2021-02-28T13:32:31Z</time>
      </trkpt>
      <trkpt lat="45.0004" lon="6.50231">
        <ele>2299</ele>
        <time>2021-02-28T13:32:32Z</time>
      </trkpt>
      <trkpt lat="45.0004" lon="6.50234">
        <ele>2299.4</ele>
        <time>2021-02-28T13:32:33Z</time>
      </trkpt>
      <trkpt lat="45.0004" lon="6.50234">
        <ele>2299.4</ele>
        <time>2021-02-28T13:32:34Z</time>
      </trkpt>
      <trkpt lat="45.00038" lon="6.50234">
        <ele>2299.2</ele>
        <time>2021-02-28T13:32:35Z</time>
      </trkpt>
      <trkpt lat="45.00038" lon="6.50234">
        <ele>2299</ele>
        <time>2021-02-28T13:32:36Z</time>
      </trkpt>
      <trkpt lat="45.00038" lon="6.50234">
        <ele>2298.8</ele>
        <time>2021-02-28T13:32:37Z</time>
      </trkpt>
      <trkpt lat="45.00036" lon="6.50237">
        <ele>2299</ele>
        <time>2021-02-28T13:32:38Z</time>
      </trkpt>
      <trkpt lat="45.00036" lon="6.50237">
        <ele>2299</ele>
        <time>2021-02-28T13:32:39Z</time>
      </trkpt>
      <trkpt lat="45.00036" lon="6.50237">
        <ele>2299</ele>
        <time>2021-02-28T13:32:40Z</time>
      </trkpt>
      <trkpt lat="45.00036" lon="6.50237">
        <ele>2299.2</ele>
        <time>2021-02-28T13:32:41Z</time>
      </trkpt>
      <trkpt lat="45.00036" lon="6.50237">
        <ele>2298.8</ele>
        <time>2021-02-28T13:32:42Z</time>
      </trkpt>
      <trkpt lat="45.00036" lon="6.50237">
        <ele>2298.8</ele>
        <time>2021-02-28T13:32:43Z</time>
      </trkpt>
      <trkpt lat="45.00036" lon="6.50237">
        <ele>2298.8</ele>
        <time>2021-02-28T13:32:44Z</time>
      </trkpt>
      <trkpt lat="45.00036" lon="6.50237">
        <ele>2298.6</ele>
        <time>2021-02-28T13:32:45Z</time>
      </trkpt>
      <trkpt lat="45.00036" lon="6.50237">
        <ele>2298.6</ele>
        <time>2021-02-28T13:32:46Z</time>
      </trkpt>
      <trkpt lat="45.00036" lon="6.50237">
        <ele>2298.8</ele>
        <time>2021-02-28T13:32:47Z</time>
      </trkpt>
      <trkpt lat="45.00036" lon="6.50237">
        <ele>2298.8</ele>
        <time>2021-02-28T13:32:48Z</time>
      </trkpt>
      <trkpt lat="45.00036" lon="6.50237">
        <ele>2299</ele>
        <time>2021-02-28T13:32:49Z</time>
      </trkpt>
      <trkpt lat="45.00036" lon="6.50237">
        <ele>2299</ele>
        <time>2021-02-28T13:32:50Z</time>
      </trkpt>
      <trkpt lat="45.00036" lon="6.50237">
        <ele>2298.8</ele>
        <time>2021-02-28T13:32:51Z</time>
      </trkpt>
      <trkpt lat="45.00036" lon="6.50237">
        <ele>2298.8</ele>
        <time>2021-02-28T13:32:52Z</time>
      </trkpt>
      <trkpt lat="45.00036" lon="6.50237">
        <ele>2299.2</ele>
        <time>2021-02-28T13:32:53Z</time>
      </trkpt>
      <trkpt lat="45.00036" lon="6.50237">
        <ele>2299</ele>
        <time>2021-02-28T13:32:54Z</time>
      </trkpt>
      <trkpt lat="45.00035" lon="6.50239">
        <ele>2298.8</ele>
        <time>2021-02-28T13:32:55Z</time>
      </trkpt>
      <trkpt lat="45.00035" lon="6.50239">
        <ele>2299</ele>
        <time>2021-02-28T13:32:56Z</time>
      </trkpt>
      <trkpt lat="45.00032" lon="6.5024">
        <ele>2299</ele>
        <time>2021-02-28T13:32:57Z</time>
      </trkpt>
      <trkpt lat="45.00032" lon="6.5024">
        <ele>2299.2</ele>
        <time>2021-02-28T13:32:58Z</time>
      </trkpt>
      <trkpt lat="45.0003" lon="6.50241">
        <ele>2298.8</ele>
        <time>2021-02-28T13:32:59Z</time>
      </trkpt>
      <trkpt lat="45.0003" lon="6.50241">
        <ele>2298.6</ele>
        <time>2021-02-28T13:33:00Z</time>
      </trkpt>
      <trkpt lat="45.00027" lon="6.50242">
        <ele>2298.4</ele>
        <time>2021-02-28T13:33:01Z</time>
      </trkpt>
      <trkpt lat="45.00027" lon="6.50242">
        <ele>2297.8</ele>
        <time>2021-02-28T13:33:02Z</time>
      </trkpt>
      <trkpt lat="45.00024" lon="6.50243">
        <ele>2297</ele>
        <time>2021-02-28T13:33:03Z</time>
      </trkpt>
      <trkpt lat="45.00022" lon="6.50243">
        <ele>2296.8</ele>
        <time>2021-02-28T13:33:04Z</time>
      </trkpt>
      <trkpt lat="45.0002" lon="6.50244">
        <ele>2296.6</ele>
        <time>2021-02-28T13:33:05Z</time>
      </trkpt>
      <trkpt lat="45.00018" lon="6.50244">
        <ele>2296.2</ele>
        <time>2021-02-28T13:33:06Z</time>
      </trkpt>
      <trkpt lat="45.00016" lon="6.50245">
        <ele>2295.4</ele>
        <time>2021-02-28T13:33:07Z</time>
      </trkpt>
      <trkpt lat="45.00014" lon="6.50246">
        <ele>2295.2</ele>
        <time>2021-02-28T13:33:08Z</time>
      </trkpt>
      <trkpt lat="45.00014" lon="6.50246">
        <ele>2294.8</ele>
        <time>2021-02-28T13:33:09Z</time>
      </trkpt>
      <trkpt lat="45.00011" lon="6.50248">
        <ele>2294.4</ele>
        <time>2021-02-28T13:33:10Z</time>
      </trkpt>
      <trkpt lat="45.00011" lon="6.50248">
        <ele>2294.2</ele>
        <time>2021-02-28T13:33:11Z</time>
      </trkpt>
      <trkpt lat="45.00008" lon="6.5025">
        <ele>2294</ele>
        <time>2021-02-28T13:33:12Z</time>
      </trkpt>
      <trkpt lat="45.00008" lon="6.5025">
        <ele>2293.6</ele>
        <time>2021-02-28T13:33:13Z</time>
      </trkpt>
      <trkpt lat="45.00005" lon="6.5025">
        <ele>2293.4</ele>
        <time>2021-02-28T13:33:14Z</time>
      </trkpt>
      <trkpt lat="45.00005" lon="6.5025">
        <ele>2293.2</ele>
        <time>2021-02-28T13:33:15Z</time>
      </trkpt>
      <trkpt lat="45.00003" lon="6.50251">
        <ele>2292.4</ele>
        <time>2021-02-28T13:33:16Z</time>
      </trkpt>
      <trkpt lat="45.00003" lon="6.50251">
        <ele>2292.4</ele>
        <time>2021-02-28T13:33:17Z</time>
      </trkpt>
      <trkpt lat="45.00003" lon="6.50251">
        <ele>2292.6</ele>
        <time>2021-02-28T13:33:18Z</time>
      </trkpt>
      <trkpt lat="45.00001" lon="6.50253">
        <ele>2292.6</ele>
        <time>2021-02-28T13:33:19Z</time>
      </trkpt>
      <trkpt lat="45.00001" lon="6.50253">
        <ele>2292.6</ele>
        <time>2021-02-28T13:33:20Z</time>
      </trkpt>
      <trkpt lat="44.99999" lon="6.50254">
        <ele>2292.6</ele>
        <time>2021-02-28T13:33:21Z</time>
      </trkpt>
      <trkpt lat="44.99999" lon="6.50254">
        <ele>2292.4</ele>
        <time>2021-02-28T13:33:22Z</time>
      </trkpt>
      <trkpt lat="44.99997" lon="6.50255">
        <ele>2292.6</ele>
        <time>2021-02-28T13:33:23Z</time>
      </trkpt>
      <trkpt lat="44.99997" lon="6.50255">
        <ele>2292.8</ele>
        <time>2021-02-28T13:33:24Z</time>
      </trkpt>
      <trkpt lat="44.99995" lon="6.50258">
        <ele>2292.4</ele>
        <time>2021-02-28T13:33:25Z</time>
      </trkpt>
      <trkpt lat="44.99995" lon="6.50258">
        <ele>2292.4</ele>
        <time>2021-02-28T13:33:26Z</time>
      </trkpt>
      <trkpt lat="44.99993" lon="6.50259">
        <ele>2292.8</ele>
        <time>2021-02-28T13:33:27Z</time>
      </trkpt>
      <trkpt lat="44.99991" lon="6.5026">
        <ele>2292.8</ele>
        <time>2021-02-28T13:33:28Z</time>
      </trkpt>
      <trkpt lat="44.99989" lon="6.50261">
        <ele>2292.6</ele>
        <time>2021-02-28T13:33:29Z</time>
      </trkpt>
      <trkpt lat="44.99989" lon="6.50261">
        <ele>2292.2</ele>
        <time>2021-02-28T13:33:30Z</time>
      </trkpt>
      <trkpt lat="44.99986" lon="6.50262">
        <ele>2291.8</ele>
        <time>2021-02-28T13:33:31Z</time>
      </trkpt>
      <trkpt lat="44.99986" lon="6.50262">
        <ele>2291.6</ele>
        <time>2021-02-28T13:33:32Z</time>
      </trkpt>
      <trkpt lat="44.99984" lon="6.50264">
        <ele>2291.8</ele>
        <time>2021-02-28T13:33:33Z</time>
      </trkpt>
      <trkpt lat="44.99984" lon="6.50264">
        <ele>2291.4</ele>
        <time>2021-02-28T13:33:34Z</time>
      </trkpt>
      <trkpt lat="44.99982" lon="6.50266">
        <ele>2291.4</ele>
        <time>2021-02-28T13:33:35Z</time>
      </trkpt>
      <trkpt lat="44.99982" lon="6.50266">
        <ele>2291.6</ele>
        <time>2021-02-28T13:33:36Z</time>
      </trkpt>
      <trkpt lat="44.99979" lon="6.50267">
        <ele>2291.6</ele>
        <time>2021-02-28T13:33:37Z</time>
      </trkpt>
      <trkpt lat="44.99979" lon="6.50267">
        <ele>2291.2</ele>
        <time>2021-02-28T13:33:38Z</time>
      </trkpt>
      <trkpt lat="44.99977" lon="6.50269">
        <ele>2291.4</ele>
        <time>2021-02-28T13:33:39Z</time>
      </trkpt>
      <trkpt lat="44.99977" lon="6.50269">
        <ele>2291.6</ele>
        <time>2021-02-28T13:33:40Z</time>
      </trkpt>
      <trkpt lat="44.99973" lon="6.5027">
        <ele>2291.6</ele>
        <time>2021-02-28T13:33:41Z</time>
      </trkpt>
      <trkpt lat="44.99973" lon="6.5027">
        <ele>2291.4</ele>
        <time>2021-02-28T13:33:42Z</time>
      </trkpt>
      <trkpt lat="44.99971" lon="6.50271">
        <ele>2290.8</ele>
        <time>2021-02-28T13:33:43Z</time>
      </trkpt>
      <trkpt lat="44.99971" lon="6.50271">
        <ele>2290.4</ele>
        <time>2021-02-28T13:33:44Z</time>
      </trkpt>
      <trkpt lat="44.99969" lon="6.50273">
        <ele>2290.6</ele>
        <time>2021-02-28T13:33:45Z</time>
      </trkpt>
      <trkpt lat="44.99969" lon="6.50273">
        <ele>2290.6</ele>
        <time>2021-02-28T13:33:46Z</time>
      </trkpt>
      <trkpt lat="44.99968" lon="6.50274">
        <ele>2290.2</ele>
        <time>2021-02-28T13:33:47Z</time>
      </trkpt>
      <trkpt lat="44.99968" lon="6.50274">
        <ele>2290.6</ele>
        <time>2021-02-28T13:33:48Z</time>
      </trkpt>
      <trkpt lat="44.99966" lon="6.50276">
        <ele>2290.4</ele>
        <time>2021-02-28T13:33:49Z</time>
      </trkpt>
      <trkpt lat="44.99966" lon="6.50276">
        <ele>2290</ele>
        <time>2021-02-28T13:33:50Z</time>
      </trkpt>
      <trkpt lat="44.99963" lon="6.50277">
        <ele>2290</ele>
        <time>2021-02-28T13:33:51Z</time>
      </trkpt>
      <trkpt lat="44.99963" lon="6.50277">
        <ele>2290.2</ele>
        <time>2021-02-28T13:33:52Z</time>
      </trkpt>
      <trkpt lat="44.99961" lon="6.50279">
        <ele>2290</ele>
        <time>2021-02-28T13:33:53Z</time>
      </trkpt>
      <trkpt lat="44.99961" lon="6.50279">
        <ele>2290</ele>
        <time>2021-02-28T13:33:54Z</time>
      </trkpt>
      <trkpt lat="44.9996" lon="6.50281">
        <ele>2290</ele>
        <time>2021-02-28T13:33:55Z</time>
      </trkpt>
      <trkpt lat="44.9996" lon="6.50281">
        <ele>2289.8</ele>
        <time>2021-02-28T13:33:56Z</time>
      </trkpt>
      <trkpt lat="44.99958" lon="6.50283">
        <ele>2290</ele>
        <time>2021-02-28T13:33:57Z</time>
      </trkpt>
      <trkpt lat="44.99958" lon="6.50283">
        <ele>2290.4</ele>
        <time>2021-02-28T13:33:58Z</time>
      </trkpt>
      <trkpt lat="44.99956" lon="6.50285">
        <ele>2290.6</ele>
        <time>2021-02-28T13:33:59Z</time>
      </trkpt>
      <trkpt lat="44.99956" lon="6.50285">
        <ele>2290.4</ele>
        <time>2021-02-28T13:34:00Z</time>
      </trkpt>
      <trkpt lat="44.99954" lon="6.50287">
        <ele>2290.2</ele>
        <time>2021-02-28T13:34:01Z</time>
      </trkpt>
      <trkpt lat="44.99954" lon="6.50287">
        <ele>2289.8</ele>
        <time>2021-02-28T13:34:02Z</time>
      </trkpt>
      <trkpt lat="44.99951" lon="6.50289">
        <ele>2289.8</ele>
        <time>2021-02-28T13:34:03Z</time>
      </trkpt>
      <trkpt lat="44.99951" lon="6.50289">
        <ele>2289.6</ele>
        <time>2021-02-28T13:34:04Z</time>
      </trkpt>
      <trkpt lat="44.99949" lon="6.50291">
        <ele>2289.6</ele>
        <time>2021-02-28T13:34:05Z</time>
      </trkpt>
      <trkpt lat="44.99949" lon="6.50291">
        <ele>2289.2</ele>
        <time>2021-02-28T13:34:06Z</time>
      </trkpt>
      <trkpt lat="44.99947" lon="6.50293">
        <ele>2289.4</ele>
        <time>2021-02-28T13:34:07Z</time>
      </trkpt>
      <trkpt lat="44.99947" lon="6.50293">
        <ele>2289.4</ele>
        <time>2021-02-28T13:34:08Z</time>
      </trkpt>
      <trkpt lat="44.99946" lon="6.50296">
        <ele>2289.6</ele>
        <time>2021-02-28T13:34:09Z</time>
      </trkpt>
      <trkpt lat="44.99946" lon="6.50296">
        <ele>2289.6</ele>
        <time>2021-02-28T13:34:10Z</time>
      </trkpt>
      <trkpt lat="44.99946" lon="6.50296">
        <ele>2289.2</ele>
        <time>2021-02-28T13:34:11Z</time>
      </trkpt>
      <trkpt lat="44.99945" lon="6.50299">
        <ele>2289</ele>
        <time>2021-02-28T13:34:12Z</time>
      </trkpt>
      <trkpt lat="44.99945" lon="6.50299">
        <ele>2288.6</ele>
        <time>2021-02-28T13:34:13Z</time>
      </trkpt>
      <trkpt lat="44.99945" lon="6.50299">
        <ele>2288.4</ele>
        <time>2021-02-28T13:34:14Z</time>
      </trkpt>
      <trkpt lat="44.99945" lon="6.50299">
        <ele>2288.4</ele>
        <time>2021-02-28T13:34:15Z</time>
      </trkpt>
      <trkpt lat="44.99945" lon="6.50299">
        <ele>2288.6</ele>
        <time>2021-02-28T13:34:16Z</time>
      </trkpt>
      <trkpt lat="44.99945" lon="6.50302">
        <ele>2288.8</ele>
        <time>2021-02-28T13:34:17Z</time>
      </trkpt>
      <trkpt lat="44.99945" lon="6.50302">
        <ele>2288.8</ele>
        <time>2021-02-28T13:34:18Z</time>
      </trkpt>
      <trkpt lat="44.99943" lon="6.50305">
        <ele>2288.4</ele>
        <time>2021-02-28T13:34:19Z</time>
      </trkpt>
      <trkpt lat="44.99943" lon="6.50305">
        <ele>2288.6</ele>
        <time>2021-02-28T13:34:20Z</time>
      </trkpt>
      <trkpt lat="44.99941" lon="6.50307">
        <ele>2288.6</ele>
        <time>2021-02-28T13:34:21Z</time>
      </trkpt>
      <trkpt lat="44.99941" lon="6.50307">
        <ele>2288.8</ele>
        <time>2021-02-28T13:34:22Z</time>
      </trkpt>
      <trkpt lat="44.99939" lon="6.50309">
        <ele>2289</ele>
        <time>2021-02-28T13:34:23Z</time>
      </trkpt>
      <trkpt lat="44.99939" lon="6.50309">
        <ele>2289.2</ele>
        <time>2021-02-28T13:34:24Z</time>
      </trkpt>
      <trkpt lat="44.99937" lon="6.50311">
        <ele>2289.2</ele>
        <time>2021-02-28T13:34:25Z</time>
      </trkpt>
      <trkpt lat="44.99937" lon="6.50311">
        <ele>2289</ele>
        <time>2021-02-28T13:34:26Z</time>
      </trkpt>
      <trkpt lat="44.99936" lon="6.50313">
        <ele>2289.4</ele>
        <time>2021-02-28T13:34:27Z</time>
      </trkpt>
      <trkpt lat="44.99936" lon="6.50313">
        <ele>2289</ele>
        <time>2021-02-28T13:34:28Z</time>
      </trkpt>
      <trkpt lat="44.99934" lon="6.50314">
        <ele>2288.8</ele>
        <time>2021-02-28T13:34:29Z</time>
      </trkpt>
      <trkpt lat="44.99934" lon="6.50314">
        <ele>2289</ele>
        <time>2021-02-28T13:34:30Z</time>
      </trkpt>
      <trkpt lat="44.99934" lon="6.50314">
        <ele>2288.6</ele>
        <time>2021-02-28T13:34:31Z</time>
      </trkpt>
      <trkpt lat="44.99934" lon="6.50314">
        <ele>2288.6</ele>
        <time>2021-02-28T13:34:32Z</time>
      </trkpt>
      <trkpt lat="44.99934" lon="6.50314">
        <ele>2288.8</ele>
        <time>2021-02-28T13:34:33Z</time>
      </trkpt>
      <trkpt lat="44.99934" lon="6.50314">
        <ele>2288.8</ele>
        <time>2021-02-28T13:34:34Z</time>
      </trkpt>
      <trkpt lat="44.99934" lon="6.50314">
        <ele>2288.6</ele>
        <time>2021-02-28T13:34:35Z</time>
      </trkpt>
      <trkpt lat="44.99934" lon="6.50314">
        <ele>2288.6</ele>
        <time>2021-02-28T13:34:36Z</time>
      </trkpt>
      <trkpt lat="44.99934" lon="6.50314">
        <ele>2289</ele>
        <time>2021-02-28T13:34:37Z</time>
      </trkpt>
      <trkpt lat="44.99934" lon="6.50314">
        <ele>2289</ele>
        <time>2021-02-28T13:34:38Z</time>
      </trkpt>
      <trkpt lat="44.99934" lon="6.50314">
        <ele>2289</ele>
        <time>2021-02-28T13:34:39Z</time>
      </trkpt>
      <trkpt lat="44.99934" lon="6.50314">
        <ele>2289.2</ele>
        <time>2021-02-28T13:34:40Z</time>
      </trkpt>
      <trkpt lat="44.99934" lon="6.50314">
        <ele>2288.8</ele>
        <time>2021-02-28T13:34:41Z</time>
      </trkpt>
      <trkpt lat="44.99934" lon="6.50314">
        <ele>2288.8</ele>
        <time>2021-02-28T13:34:42Z</time>
      </trkpt>
      <trkpt lat="44.99934" lon="6.50314">
        <ele>2288.6</ele>
        <time>2021-02-28T13:34:43Z</time>
      </trkpt>
      <trkpt lat="44.99934" lon="6.50314">
        <ele>2289</ele>
        <time>2021-02-28T13:34:44Z</time>
      </trkpt>
      <trkpt lat="44.99934" lon="6.50314">
        <ele>2289.2</ele>
        <time>2021-02-28T13:34:45Z</time>
      </trkpt>
      <trkpt lat="44.99934" lon="6.50314">
        <ele>2289.2</ele>
        <time>2021-02-28T13:34:46Z</time>
      </trkpt>
      <trkpt lat="44.99934" lon="6.50314">
        <ele>2287.4</ele>
        <time>2021-02-28T13:34:47Z</time>
      </trkpt>
      <trkpt lat="44.99934" lon="6.50314">
        <ele>2287.8</ele>
        <time>2021-02-28T13:34:48Z</time>
      </trkpt>
      <trkpt lat="44.99934" lon="6.50314">
        <ele>2288.6</ele>
        <time>2021-02-28T13:34:49Z</time>
      </trkpt>
      <trkpt lat="44.99934" lon="6.50314">
        <ele>2289</ele>
        <time>2021-02-28T13:34:50Z</time>
      </trkpt>
      <trkpt lat="44.99934" lon="6.50314">
        <ele>2289.4</ele>
        <time>2021-02-28T13:34:51Z</time>
      </trkpt>
      <trkpt lat="44.99934" lon="6.50314">
        <ele>2289.6</ele>
        <time>2021-02-28T13:34:52Z</time>
      </trkpt>
      <trkpt lat="44.99934" lon="6.50314">
        <ele>2290</ele>
        <time>2021-02-28T13:34:53Z</time>
      </trkpt>
      <trkpt lat="44.99934" lon="6.50314">
        <ele>2290</ele>
        <time>2021-02-28T13:34:54Z</time>
      </trkpt>
      <trkpt lat="44.99934" lon="6.50314">
        <ele>2289.8</ele>
        <time>2021-02-28T13:34:55Z</time>
      </trkpt>
      <trkpt lat="44.99933" lon="6.50318">
        <ele>2289.4</ele>
        <time>2021-02-28T13:34:56Z</time>
      </trkpt>
      <trkpt lat="44.99933" lon="6.50318">
        <ele>2289.2</ele>
        <time>2021-02-28T13:34:57Z</time>
      </trkpt>
      <trkpt lat="44.99933" lon="6.50318">
        <ele>2288.4</ele>
        <time>2021-02-28T13:34:58Z</time>
      </trkpt>
      <trkpt lat="44.99933" lon="6.50318">
        <ele>2288</ele>
        <time>2021-02-28T13:34:59Z</time>
      </trkpt>
      <trkpt lat="44.99933" lon="6.50318">
        <ele>2288</ele>
        <time>2021-02-28T13:35:00Z</time>
      </trkpt>
      <trkpt lat="44.99933" lon="6.50318">
        <ele>2288.4</ele>
        <time>2021-02-28T13:35:01Z</time>
      </trkpt>
      <trkpt lat="44.99933" lon="6.50318">
        <ele>2288.2</ele>
        <time>2021-02-28T13:35:02Z</time>
      </trkpt>
      <trkpt lat="44.99933" lon="6.50318">
        <ele>2288.6</ele>
        <time>2021-02-28T13:35:03Z</time>
      </trkpt>
      <trkpt lat="44.99933" lon="6.50318">
        <ele>2288.4</ele>
        <time>2021-02-28T13:35:04Z</time>
      </trkpt>
      <trkpt lat="44.99933" lon="6.50318">
        <ele>2288.4</ele>
        <time>2021-02-28T13:35:05Z</time>
      </trkpt>
      <trkpt lat="44.99933" lon="6.50318">
        <ele>2288.6</ele>
        <time>2021-02-28T13:35:06Z</time>
      </trkpt>
      <trkpt lat="44.99933" lon="6.50318">
        <ele>2289</ele>
        <time>2021-02-28T13:35:07Z</time>
      </trkpt>
      <trkpt lat="44.99933" lon="6.50318">
        <ele>2289.2</ele>
        <time>2021-02-28T13:35:08Z</time>
      </trkpt>
      <trkpt lat="44.99933" lon="6.50318">
        <ele>2289.4</ele>
        <time>2021-02-28T13:35:09Z</time>
      </trkpt>
      <trkpt lat="44.99933" lon="6.50318">
        <ele>2289.2</ele>
        <time>2021-02-28T13:35:10Z</time>
      </trkpt>
      <trkpt lat="44.99933" lon="6.50318">
        <ele>2289.6</ele>
        <time>2021-02-28T13:35:11Z</time>
      </trkpt>
      <trkpt lat="44.99933" lon="6.50318">
        <ele>2288.8</ele>
        <time>2021-02-28T13:35:12Z</time>
      </trkpt>
      <trkpt lat="44.99933" lon="6.50318">
        <ele>2289</ele>
        <time>2021-02-28T13:35:13Z</time>
      </trkpt>
      <trkpt lat="44.99933" lon="6.50318">
        <ele>2289.4</ele>
        <time>2021-02-28T13:35:14Z</time>
      </trkpt>
      <trkpt lat="44.99933" lon="6.50318">
        <ele>2288.6</ele>
        <time>2021-02-28T13:35:15Z</time>
      </trkpt>
      <trkpt lat="44.99933" lon="6.50318">
        <ele>2288.6</ele>
        <time>2021-02-28T13:35:16Z</time>
      </trkpt>
      <trkpt lat="44.99933" lon="6.50318">
        <ele>2286.2</ele>
        <time>2021-02-28T13:35:17Z</time>
      </trkpt>
      <trkpt lat="44.99933" lon="6.50318">
        <ele>2286.2</ele>
        <time>2021-02-28T13:35:18Z</time>
      </trkpt>
      <trkpt lat="44.99933" lon="6.50318">
        <ele>2287.4</ele>
        <time>2021-02-28T13:35:19Z</time>
      </trkpt>
      <trkpt lat="44.99933" lon="6.50318">
        <ele>2288.4</ele>
        <time>2021-02-28T13:35:20Z</time>
      </trkpt>
      <trkpt lat="44.99933" lon="6.50318">
        <ele>2289.8</ele>
        <time>2021-02-28T13:35:21Z</time>
      </trkpt>
      <trkpt lat="44.99933" lon="6.50318">
        <ele>2289.8</ele>
        <time>2021-02-28T13:35:22Z</time>
      </trkpt>
      <trkpt lat="44.99933" lon="6.50318">
        <ele>2289.8</ele>
        <time>2021-02-28T13:35:23Z</time>
      </trkpt>
      <trkpt lat="44.9993" lon="6.5032">
        <ele>2289.6</ele>
        <time>2021-02-28T13:35:24Z</time>
      </trkpt>
      <trkpt lat="44.9993" lon="6.5032">
        <ele>2289.4</ele>
        <time>2021-02-28T13:35:25Z</time>
      </trkpt>
      <trkpt lat="44.99929" lon="6.50323">
        <ele>2289.4</ele>
        <time>2021-02-28T13:35:26Z</time>
      </trkpt>
      <trkpt lat="44.99929" lon="6.50323">
        <ele>2289</ele>
        <time>2021-02-28T13:35:27Z</time>
      </trkpt>
      <trkpt lat="44.99928" lon="6.50326">
        <ele>2289</ele>
        <time>2021-02-28T13:35:28Z</time>
      </trkpt>
      <trkpt lat="44.99928" lon="6.50326">
        <ele>2289</ele>
        <time>2021-02-28T13:35:29Z</time>
      </trkpt>
      <trkpt lat="44.99927" lon="6.50329">
        <ele>2288.6</ele>
        <time>2021-02-28T13:35:30Z</time>
      </trkpt>
      <trkpt lat="44.99927" lon="6.50329">
        <ele>2288.8</ele>
        <time>2021-02-28T13:35:31Z</time>
      </trkpt>
      <trkpt lat="44.99926" lon="6.50332">
        <ele>2289</ele>
        <time>2021-02-28T13:35:32Z</time>
      </trkpt>
      <trkpt lat="44.99926" lon="6.50332">
        <ele>2288.8</ele>
        <time>2021-02-28T13:35:33Z</time>
      </trkpt>
      <trkpt lat="44.99924" lon="6.50334">
        <ele>2289</ele>
        <time>2021-02-28T13:35:34Z</time>
      </trkpt>
      <trkpt lat="44.99924" lon="6.50334">
        <ele>2288.2</ele>
        <time>2021-02-28T13:35:35Z</time>
      </trkpt>
      <trkpt lat="44.99921" lon="6.50336">
        <ele>2288</ele>
        <time>2021-02-28T13:35:36Z</time>
      </trkpt>
      <trkpt lat="44.99921" lon="6.50336">
        <ele>2288</ele>
        <time>2021-02-28T13:35:37Z</time>
      </trkpt>
      <trkpt lat="44.99919" lon="6.50339">
        <ele>2287.8</ele>
        <time>2021-02-28T13:35:38Z</time>
      </trkpt>
      <trkpt lat="44.99919" lon="6.50339">
        <ele>2287.2</ele>
        <time>2021-02-28T13:35:39Z</time>
      </trkpt>
      <trkpt lat="44.99917" lon="6.50341">
        <ele>2287.6</ele>
        <time>2021-02-28T13:35:40Z</time>
      </trkpt>
      <trkpt lat="44.99917" lon="6.50341">
        <ele>2287.4</ele>
        <time>2021-02-28T13:35:41Z</time>
      </trkpt>
      <trkpt lat="44.99915" lon="6.50343">
        <ele>2287.2</ele>
        <time>2021-02-28T13:35:42Z</time>
      </trkpt>
      <trkpt lat="44.99915" lon="6.50343">
        <ele>2287.2</ele>
        <time>2021-02-28T13:35:43Z</time>
      </trkpt>
      <trkpt lat="44.99913" lon="6.50346">
        <ele>2287.2</ele>
        <time>2021-02-28T13:35:44Z</time>
      </trkpt>
      <trkpt lat="44.99913" lon="6.50346">
        <ele>2287.4</ele>
        <time>2021-02-28T13:35:45Z</time>
      </trkpt>
      <trkpt lat="44.99911" lon="6.50349">
        <ele>2286.8</ele>
        <time>2021-02-28T13:35:46Z</time>
      </trkpt>
      <trkpt lat="44.99911" lon="6.50349">
        <ele>2286.8</ele>
        <time>2021-02-28T13:35:47Z</time>
      </trkpt>
      <trkpt lat="44.99908" lon="6.50351">
        <ele>2286.6</ele>
        <time>2021-02-28T13:35:48Z</time>
      </trkpt>
      <trkpt lat="44.99908" lon="6.50351">
        <ele>2286.8</ele>
        <time>2021-02-28T13:35:49Z</time>
      </trkpt>
      <trkpt lat="44.99906" lon="6.50355">
        <ele>2286.4</ele>
        <time>2021-02-28T13:35:50Z</time>
      </trkpt>
      <trkpt lat="44.99906" lon="6.50355">
        <ele>2286.2</ele>
        <time>2021-02-28T13:35:51Z</time>
      </trkpt>
      <trkpt lat="44.99905" lon="6.50357">
        <ele>2285.6</ele>
        <time>2021-02-28T13:35:52Z</time>
      </trkpt>
      <trkpt lat="44.99905" lon="6.50357">
        <ele>2285.6</ele>
        <time>2021-02-28T13:35:53Z</time>
      </trkpt>
      <trkpt lat="44.99903" lon="6.5036">
        <ele>2285.6</ele>
        <time>2021-02-28T13:35:54Z</time>
      </trkpt>
      <trkpt lat="44.99903" lon="6.5036">
        <ele>2285.8</ele>
        <time>2021-02-28T13:35:55Z</time>
      </trkpt>
      <trkpt lat="44.99901" lon="6.50362">
        <ele>2286</ele>
        <time>2021-02-28T13:35:56Z</time>
      </trkpt>
      <trkpt lat="44.99901" lon="6.50362">
        <ele>2286</ele>
        <time>2021-02-28T13:35:57Z</time>
      </trkpt>
      <trkpt lat="44.99899" lon="6.50364">
        <ele>2285.8</ele>
        <time>2021-02-28T13:35:58Z</time>
      </trkpt>
      <trkpt lat="44.99899" lon="6.50364">
        <ele>2285.6</ele>
        <time>2021-02-28T13:35:59Z</time>
      </trkpt>
      <trkpt lat="44.99896" lon="6.50366">
        <ele>2285.4</ele>
        <time>2021-02-28T13:36:00Z</time>
      </trkpt>
      <trkpt lat="44.99896" lon="6.50366">
        <ele>2285.2</ele>
        <time>2021-02-28T13:36:01Z</time>
      </trkpt>
      <trkpt lat="44.99894" lon="6.50368">
        <ele>2284.6</ele>
        <time>2021-02-28T13:36:02Z</time>
      </trkpt>
      <trkpt lat="44.99894" lon="6.50368">
        <ele>2284.4</ele>
        <time>2021-02-28T13:36:03Z</time>
      </trkpt>
      <trkpt lat="44.99892" lon="6.50369">
        <ele>2284.2</ele>
        <time>2021-02-28T13:36:04Z</time>
      </trkpt>
      <trkpt lat="44.99892" lon="6.50369">
        <ele>2284.2</ele>
        <time>2021-02-28T13:36:05Z</time>
      </trkpt>
      <trkpt lat="44.9989" lon="6.5037">
        <ele>2284.2</ele>
        <time>2021-02-28T13:36:06Z</time>
      </trkpt>
      <trkpt lat="44.9989" lon="6.5037">
        <ele>2284.2</ele>
        <time>2021-02-28T13:36:07Z</time>
      </trkpt>
      <trkpt lat="44.99888" lon="6.50371">
        <ele>2283.8</ele>
        <time>2021-02-28T13:36:08Z</time>
      </trkpt>
      <trkpt lat="44.99888" lon="6.50371">
        <ele>2284</ele>
        <time>2021-02-28T13:36:09Z</time>
      </trkpt>
      <trkpt lat="44.99885" lon="6.50372">
        <ele>2283.8</ele>
        <time>2021-02-28T13:36:10Z</time>
      </trkpt>
      <trkpt lat="44.99885" lon="6.50372">
        <ele>2283.6</ele>
        <time>2021-02-28T13:36:11Z</time>
      </trkpt>
      <trkpt lat="44.99882" lon="6.50373">
        <ele>2283.8</ele>
        <time>2021-02-28T13:36:12Z</time>
      </trkpt>
      <trkpt lat="44.99882" lon="6.50373">
        <ele>2283.6</ele>
        <time>2021-02-28T13:36:13Z</time>
      </trkpt>
      <trkpt lat="44.9988" lon="6.50374">
        <ele>2282.6</ele>
        <time>2021-02-28T13:36:14Z</time>
      </trkpt>
      <trkpt lat="44.9988" lon="6.50374">
        <ele>2282.2</ele>
        <time>2021-02-28T13:36:15Z</time>
      </trkpt>
      <trkpt lat="44.99878" lon="6.50377">
        <ele>2281.8</ele>
        <time>2021-02-28T13:36:16Z</time>
      </trkpt>
      <trkpt lat="44.99878" lon="6.50377">
        <ele>2281.6</ele>
        <time>2021-02-28T13:36:17Z</time>
      </trkpt>
      <trkpt lat="44.99877" lon="6.50379">
        <ele>2281.6</ele>
        <time>2021-02-28T13:36:18Z</time>
      </trkpt>
      <trkpt lat="44.99877" lon="6.50379">
        <ele>2281.8</ele>
        <time>2021-02-28T13:36:19Z</time>
      </trkpt>
      <trkpt lat="44.99875" lon="6.50381">
        <ele>2282.2</ele>
        <time>2021-02-28T13:36:20Z</time>
      </trkpt>
      <trkpt lat="44.99875" lon="6.50381">
        <ele>2282.2</ele>
        <time>2021-02-28T13:36:21Z</time>
      </trkpt>
      <trkpt lat="44.99872" lon="6.50384">
        <ele>2282</ele>
        <time>2021-02-28T13:36:22Z</time>
      </trkpt>
      <trkpt lat="44.99872" lon="6.50384">
        <ele>2281.8</ele>
        <time>2021-02-28T13:36:23Z</time>
      </trkpt>
      <trkpt lat="44.9987" lon="6.50386">
        <ele>2282</ele>
        <time>2021-02-28T13:36:24Z</time>
      </trkpt>
      <trkpt lat="44.9987" lon="6.50386">
        <ele>2282.2</ele>
        <time>2021-02-28T13:36:25Z</time>
      </trkpt>
      <trkpt lat="44.99869" lon="6.50388">
        <ele>2281.8</ele>
        <time>2021-02-28T13:36:26Z</time>
      </trkpt>
      <trkpt lat="44.99869" lon="6.50388">
        <ele>2282</ele>
        <time>2021-02-28T13:36:27Z</time>
      </trkpt>
      <trkpt lat="44.99868" lon="6.5039">
        <ele>2282</ele>
        <time>2021-02-28T13:36:28Z</time>
      </trkpt>
      <trkpt lat="44.99868" lon="6.5039">
        <ele>2282.2</ele>
        <time>2021-02-28T13:36:29Z</time>
      </trkpt>
      <trkpt lat="44.99866" lon="6.50392">
        <ele>2281.8</ele>
        <time>2021-02-28T13:36:30Z</time>
      </trkpt>
      <trkpt lat="44.99866" lon="6.50392">
        <ele>2281.6</ele>
        <time>2021-02-28T13:36:31Z</time>
      </trkpt>
      <trkpt lat="44.99863" lon="6.50393">
        <ele>2281.2</ele>
        <time>2021-02-28T13:36:32Z</time>
      </trkpt>
      <trkpt lat="44.99863" lon="6.50393">
        <ele>2281.2</ele>
        <time>2021-02-28T13:36:33Z</time>
      </trkpt>
      <trkpt lat="44.99861" lon="6.50395">
        <ele>2281.4</ele>
        <time>2021-02-28T13:36:34Z</time>
      </trkpt>
      <trkpt lat="44.99861" lon="6.50395">
        <ele>2281.4</ele>
        <time>2021-02-28T13:36:35Z</time>
      </trkpt>
      <trkpt lat="44.99861" lon="6.50395">
        <ele>2281.2</ele>
        <time>2021-02-28T13:36:36Z</time>
      </trkpt>
      <trkpt lat="44.99861" lon="6.50395">
        <ele>2281</ele>
        <time>2021-02-28T13:36:37Z</time>
      </trkpt>
      <trkpt lat="44.99861" lon="6.50395">
        <ele>2280.6</ele>
        <time>2021-02-28T13:36:38Z</time>
      </trkpt>
      <trkpt lat="44.99861" lon="6.50395">
        <ele>2280.2</ele>
        <time>2021-02-28T13:36:39Z</time>
      </trkpt>
      <trkpt lat="44.99859" lon="6.50395">
        <ele>2280.2</ele>
        <time>2021-02-28T13:36:40Z</time>
      </trkpt>
      <trkpt lat="44.99859" lon="6.50395">
        <ele>2280.2</ele>
        <time>2021-02-28T13:36:41Z</time>
      </trkpt>
      <trkpt lat="44.99859" lon="6.50395">
        <ele>2280.2</ele>
        <time>2021-02-28T13:36:42Z</time>
      </trkpt>
      <trkpt lat="44.99859" lon="6.50395">
        <ele>2279.8</ele>
        <time>2021-02-28T13:36:43Z</time>
      </trkpt>
      <trkpt lat="44.99859" lon="6.50395">
        <ele>2279.6</ele>
        <time>2021-02-28T13:36:44Z</time>
      </trkpt>
      <trkpt lat="44.99859" lon="6.50395">
        <ele>2279.8</ele>
        <time>2021-02-28T13:36:45Z</time>
      </trkpt>
      <trkpt lat="44.99859" lon="6.50395">
        <ele>2279.6</ele>
        <time>2021-02-28T13:36:46Z</time>
      </trkpt>
      <trkpt lat="44.99859" lon="6.50395">
        <ele>2279.6</ele>
        <time>2021-02-28T13:36:47Z</time>
      </trkpt>
      <trkpt lat="44.99859" lon="6.50395">
        <ele>2279.8</ele>
        <time>2021-02-28T13:36:48Z</time>
      </trkpt>
      <trkpt lat="44.99859" lon="6.50395">
        <ele>2279.8</ele>
        <time>2021-02-28T13:36:49Z</time>
      </trkpt>
      <trkpt lat="44.99859" lon="6.50395">
        <ele>2279.6</ele>
        <time>2021-02-28T13:36:50Z</time>
      </trkpt>
      <trkpt lat="44.99859" lon="6.50395">
        <ele>2279.6</ele>
        <time>2021-02-28T13:36:51Z</time>
      </trkpt>
      <trkpt lat="44.99859" lon="6.50395">
        <ele>2280</ele>
        <time>2021-02-28T13:36:52Z</time>
      </trkpt>
      <trkpt lat="44.99859" lon="6.50395">
        <ele>2280.2</ele>
        <time>2021-02-28T13:36:53Z</time>
      </trkpt>
      <trkpt lat="44.99859" lon="6.50395">
        <ele>2280</ele>
        <time>2021-02-28T13:36:54Z</time>
      </trkpt>
      <trkpt lat="44.99859" lon="6.50395">
        <ele>2279.8</ele>
        <time>2021-02-28T13:36:55Z</time>
      </trkpt>
      <trkpt lat="44.99859" lon="6.50395">
        <ele>2279.8</ele>
        <time>2021-02-28T13:36:56Z</time>
      </trkpt>
      <trkpt lat="44.99859" lon="6.50395">
        <ele>2279.8</ele>
        <time>2021-02-28T13:36:57Z</time>
      </trkpt>
      <trkpt lat="44.99859" lon="6.50395">
        <ele>2279.4</ele>
        <time>2021-02-28T13:36:58Z</time>
      </trkpt>
      <trkpt lat="44.99859" lon="6.50395">
        <ele>2279.4</ele>
        <time>2021-02-28T13:36:59Z</time>
      </trkpt>
      <trkpt lat="44.99859" lon="6.50395">
        <ele>2279.2</ele>
        <time>2021-02-28T13:37:00Z</time>
      </trkpt>
      <trkpt lat="44.99859" lon="6.50395">
        <ele>2279.2</ele>
        <time>2021-02-28T13:37:01Z</time>
      </trkpt>
      <trkpt lat="44.99859" lon="6.50395">
        <ele>2279.2</ele>
        <time>2021-02-28T13:37:02Z</time>
      </trkpt>
      <trkpt lat="44.99859" lon="6.50395">
        <ele>2279</ele>
        <time>2021-02-28T13:37:03Z</time>
      </trkpt>
      <trkpt lat="44.99859" lon="6.50395">
        <ele>2279</ele>
        <time>2021-02-28T13:37:04Z</time>
      </trkpt>
      <trkpt lat="44.99859" lon="6.50395">
        <ele>2279.4</ele>
        <time>2021-02-28T13:37:05Z</time>
      </trkpt>
      <trkpt lat="44.99859" lon="6.50395">
        <ele>2279.4</ele>
        <time>2021-02-28T13:37:06Z</time>
      </trkpt>
      <trkpt lat="44.99859" lon="6.50395">
        <ele>2279.6</ele>
        <time>2021-02-28T13:37:07Z</time>
      </trkpt>
      <trkpt lat="44.99859" lon="6.50395">
        <ele>2279.8</ele>
        <time>2021-02-28T13:37:08Z</time>
      </trkpt>
      <trkpt lat="44.99859" lon="6.50395">
        <ele>2279.8</ele>
        <time>2021-02-28T13:37:09Z</time>
      </trkpt>
      <trkpt lat="44.99859" lon="6.50395">
        <ele>2279.6</ele>
        <time>2021-02-28T13:37:10Z</time>
      </trkpt>
      <trkpt lat="44.99859" lon="6.50395">
        <ele>2279.6</ele>
        <time>2021-02-28T13:37:11Z</time>
      </trkpt>
      <trkpt lat="44.99859" lon="6.50395">
        <ele>2279.6</ele>
        <time>2021-02-28T13:37:12Z</time>
      </trkpt>
      <trkpt lat="44.99859" lon="6.50395">
        <ele>2279.6</ele>
        <time>2021-02-28T13:37:13Z</time>
      </trkpt>
      <trkpt lat="44.99859" lon="6.50395">
        <ele>2279.6</ele>
        <time>2021-02-28T13:37:14Z</time>
      </trkpt>
      <trkpt lat="44.99859" lon="6.50395">
        <ele>2279.6</ele>
        <time>2021-02-28T13:37:15Z</time>
      </trkpt>
      <trkpt lat="44.99859" lon="6.50395">
        <ele>2280</ele>
        <time>2021-02-28T13:37:16Z</time>
      </trkpt>
      <trkpt lat="44.99859" lon="6.50395">
        <ele>2279.4</ele>
        <time>2021-02-28T13:37:17Z</time>
      </trkpt>
      <trkpt lat="44.99859" lon="6.50395">
        <ele>2279.8</ele>
        <time>2021-02-28T13:37:18Z</time>
      </trkpt>
      <trkpt lat="44.99859" lon="6.50395">
        <ele>2279.2</ele>
        <time>2021-02-28T13:37:19Z</time>
      </trkpt>
      <trkpt lat="44.99859" lon="6.50395">
        <ele>2279.6</ele>
        <time>2021-02-28T13:37:20Z</time>
      </trkpt>
      <trkpt lat="44.99859" lon="6.50395">
        <ele>2279.8</ele>
        <time>2021-02-28T13:37:21Z</time>
      </trkpt>
      <trkpt lat="44.99859" lon="6.50395">
        <ele>2279.8</ele>
        <time>2021-02-28T13:37:22Z</time>
      </trkpt>
      <trkpt lat="44.99859" lon="6.50395">
        <ele>2279.8</ele>
        <time>2021-02-28T13:37:23Z</time>
      </trkpt>
      <trkpt lat="44.99859" lon="6.50395">
        <ele>2279.2</ele>
        <time>2021-02-28T13:37:24Z</time>
      </trkpt>
      <trkpt lat="44.99859" lon="6.50395">
        <ele>2279.4</ele>
        <time>2021-02-28T13:37:25Z</time>
      </trkpt>
      <trkpt lat="44.99859" lon="6.50395">
        <ele>2279.6</ele>
        <time>2021-02-28T13:37:26Z</time>
      </trkpt>
      <trkpt lat="44.99859" lon="6.50395">
        <ele>2279.8</ele>
        <time>2021-02-28T13:37:27Z</time>
      </trkpt>
      <trkpt lat="44.99859" lon="6.50395">
        <ele>2280</ele>
        <time>2021-02-28T13:37:28Z</time>
      </trkpt>
      <trkpt lat="44.99859" lon="6.50395">
        <ele>2280.4</ele>
        <time>2021-02-28T13:37:29Z</time>
      </trkpt>
      <trkpt lat="44.99859" lon="6.50395">
        <ele>2280.6</ele>
        <time>2021-02-28T13:37:30Z</time>
      </trkpt>
      <trkpt lat="44.99859" lon="6.50395">
        <ele>2280.2</ele>
        <time>2021-02-28T13:37:31Z</time>
      </trkpt>
      <trkpt lat="44.99859" lon="6.50395">
        <ele>2280</ele>
        <time>2021-02-28T13:37:32Z</time>
      </trkpt>
      <trkpt lat="44.99859" lon="6.50395">
        <ele>2280</ele>
        <time>2021-02-28T13:37:33Z</time>
      </trkpt>
      <trkpt lat="44.99859" lon="6.50395">
        <ele>2280.4</ele>
        <time>2021-02-28T13:37:34Z</time>
      </trkpt>
      <trkpt lat="44.99859" lon="6.50395">
        <ele>2280.8</ele>
        <time>2021-02-28T13:37:35Z</time>
      </trkpt>
      <trkpt lat="44.99859" lon="6.50395">
        <ele>2280.8</ele>
        <time>2021-02-28T13:37:36Z</time>
      </trkpt>
      <trkpt lat="44.99859" lon="6.50395">
        <ele>2280.8</ele>
        <time>2021-02-28T13:37:37Z</time>
      </trkpt>
      <trkpt lat="44.99859" lon="6.50395">
        <ele>2281</ele>
        <time>2021-02-28T13:37:38Z</time>
      </trkpt>
      <trkpt lat="44.99859" lon="6.50395">
        <ele>2281</ele>
        <time>2021-02-28T13:37:39Z</time>
      </trkpt>
      <trkpt lat="44.99859" lon="6.50395">
        <ele>2281.2</ele>
        <time>2021-02-28T13:37:40Z</time>
      </trkpt>
      <trkpt lat="44.99859" lon="6.50395">
        <ele>2280.8</ele>
        <time>2021-02-28T13:37:41Z</time>
      </trkpt>
      <trkpt lat="44.99859" lon="6.50395">
        <ele>2281</ele>
        <time>2021-02-28T13:37:42Z</time>
      </trkpt>
      <trkpt lat="44.99859" lon="6.50395">
        <ele>2281</ele>
        <time>2021-02-28T13:37:43Z</time>
      </trkpt>
      <trkpt lat="44.99859" lon="6.50395">
        <ele>2281.2</ele>
        <time>2021-02-28T13:37:44Z</time>
      </trkpt>
      <trkpt lat="44.99859" lon="6.50395">
        <ele>2281.2</ele>
        <time>2021-02-28T13:37:45Z</time>
      </trkpt>
      <trkpt lat="44.99859" lon="6.50395">
        <ele>2280.8</ele>
        <time>2021-02-28T13:37:46Z</time>
      </trkpt>
      <trkpt lat="44.99859" lon="6.50395">
        <ele>2281</ele>
        <time>2021-02-28T13:37:47Z</time>
      </trkpt>
      <trkpt lat="44.99859" lon="6.50395">
        <ele>2280.8</ele>
        <time>2021-02-28T13:37:48Z</time>
      </trkpt>
      <trkpt lat="44.99859" lon="6.50395">
        <ele>2281</ele>
        <time>2021-02-28T13:37:49Z</time>
      </trkpt>
      <trkpt lat="44.99859" lon="6.50395">
        <ele>2280.8</ele>
        <time>2021-02-28T13:37:50Z</time>
      </trkpt>
      <trkpt lat="44.99859" lon="6.50395">
        <ele>2281</ele>
        <time>2021-02-28T13:37:51Z</time>
      </trkpt>
      <trkpt lat="44.99859" lon="6.50395">
        <ele>2280.8</ele>
        <time>2021-02-28T13:37:52Z</time>
      </trkpt>
      <trkpt lat="44.99859" lon="6.50395">
        <ele>2280.6</ele>
        <time>2021-02-28T13:37:53Z</time>
      </trkpt>
      <trkpt lat="44.99859" lon="6.50395">
        <ele>2280.4</ele>
        <time>2021-02-28T13:37:54Z</time>
      </trkpt>
      <trkpt lat="44.99859" lon="6.50395">
        <ele>2280.4</ele>
        <time>2021-02-28T13:37:55Z</time>
      </trkpt>
      <trkpt lat="44.99859" lon="6.50395">
        <ele>2280.6</ele>
        <time>2021-02-28T13:37:56Z</time>
      </trkpt>
      <trkpt lat="44.99859" lon="6.50395">
        <ele>2280.8</ele>
        <time>2021-02-28T13:37:57Z</time>
      </trkpt>
      <trkpt lat="44.99859" lon="6.50395">
        <ele>2280.6</ele>
        <time>2021-02-28T13:37:58Z</time>
      </trkpt>
      <trkpt lat="44.99859" lon="6.50395">
        <ele>2279.8</ele>
        <time>2021-02-28T13:37:59Z</time>
      </trkpt>
      <trkpt lat="44.99859" lon="6.50395">
        <ele>2280</ele>
        <time>2021-02-28T13:38:00Z</time>
      </trkpt>
      <trkpt lat="44.99859" lon="6.50395">
        <ele>2280</ele>
        <time>2021-02-28T13:38:01Z</time>
      </trkpt>
      <trkpt lat="44.99859" lon="6.50395">
        <ele>2280.6</ele>
        <time>2021-02-28T13:38:02Z</time>
      </trkpt>
      <trkpt lat="44.99859" lon="6.50395">
        <ele>2280.6</ele>
        <time>2021-02-28T13:38:03Z</time>
      </trkpt>
      <trkpt lat="44.99859" lon="6.50395">
        <ele>2280.8</ele>
        <time>2021-02-28T13:38:04Z</time>
      </trkpt>
      <trkpt lat="44.99859" lon="6.50395">
        <ele>2280.6</ele>
        <time>2021-02-28T13:38:05Z</time>
      </trkpt>
      <trkpt lat="44.99859" lon="6.50395">
        <ele>2280.4</ele>
        <time>2021-02-28T13:38:06Z</time>
      </trkpt>
      <trkpt lat="44.99859" lon="6.50395">
        <ele>2280.4</ele>
        <time>2021-02-28T13:38:07Z</time>
      </trkpt>
      <trkpt lat="44.99859" lon="6.50395">
        <ele>2280.2</ele>
        <time>2021-02-28T13:38:08Z</time>
      </trkpt>
      <trkpt lat="44.99859" lon="6.50395">
        <ele>2280.4</ele>
        <time>2021-02-28T13:38:09Z</time>
      </trkpt>
      <trkpt lat="44.99859" lon="6.50395">
        <ele>2280.6</ele>
        <time>2021-02-28T13:38:10Z</time>
      </trkpt>
      <trkpt lat="44.99859" lon="6.50395">
        <ele>2280.4</ele>
        <time>2021-02-28T13:38:11Z</time>
      </trkpt>
      <trkpt lat="44.99859" lon="6.50395">
        <ele>2280</ele>
        <time>2021-02-28T13:38:12Z</time>
      </trkpt>
      <trkpt lat="44.99859" lon="6.50395">
        <ele>2280</ele>
        <time>2021-02-28T13:38:13Z</time>
      </trkpt>
      <trkpt lat="44.99859" lon="6.50395">
        <ele>2279.8</ele>
        <time>2021-02-28T13:38:14Z</time>
      </trkpt>
      <trkpt lat="44.99859" lon="6.50395">
        <ele>2279.6</ele>
        <time>2021-02-28T13:38:15Z</time>
      </trkpt>
      <trkpt lat="44.99859" lon="6.50395">
        <ele>2279.4</ele>
        <time>2021-02-28T13:38:16Z</time>
      </trkpt>
      <trkpt lat="44.99859" lon="6.50395">
        <ele>2279.4</ele>
        <time>2021-02-28T13:38:17Z</time>
      </trkpt>
      <trkpt lat="44.99859" lon="6.50395">
        <ele>2279.6</ele>
        <time>2021-02-28T13:38:18Z</time>
      </trkpt>
      <trkpt lat="44.99859" lon="6.50395">
        <ele>2278.2</ele>
        <time>2021-02-28T13:38:19Z</time>
      </trkpt>
      <trkpt lat="44.99859" lon="6.50395">
        <ele>2278.8</ele>
        <time>2021-02-28T13:38:20Z</time>
      </trkpt>
      <trkpt lat="44.99859" lon="6.50395">
        <ele>2279.4</ele>
        <time>2021-02-28T13:38:21Z</time>
      </trkpt>
      <trkpt lat="44.99859" lon="6.50395">
        <ele>2279.8</ele>
        <time>2021-02-28T13:38:22Z</time>
      </trkpt>
      <trkpt lat="44.99859" lon="6.50395">
        <ele>2280</ele>
        <time>2021-02-28T13:38:23Z</time>
      </trkpt>
      <trkpt lat="44.99859" lon="6.50395">
        <ele>2280.4</ele>
        <time>2021-02-28T13:38:24Z</time>
      </trkpt>
      <trkpt lat="44.99859" lon="6.50395">
        <ele>2280.6</ele>
        <time>2021-02-28T13:38:25Z</time>
      </trkpt>
      <trkpt lat="44.99859" lon="6.50395">
        <ele>2280.6</ele>
        <time>2021-02-28T13:38:26Z</time>
      </trkpt>
      <trkpt lat="44.99859" lon="6.50395">
        <ele>2280.8</ele>
        <time>2021-02-28T13:38:27Z</time>
      </trkpt>
      <trkpt lat="44.99859" lon="6.50395">
        <ele>2281</ele>
        <time>2021-02-28T13:38:28Z</time>
      </trkpt>
      <trkpt lat="44.99859" lon="6.50395">
        <ele>2280.8</ele>
        <time>2021-02-28T13:38:29Z</time>
      </trkpt>
      <trkpt lat="44.99859" lon="6.50395">
        <ele>2280</ele>
        <time>2021-02-28T13:38:30Z</time>
      </trkpt>
      <trkpt lat="44.99859" lon="6.50395">
        <ele>2280.4</ele>
        <time>2021-02-28T13:38:31Z</time>
      </trkpt>
      <trkpt lat="44.99859" lon="6.50395">
        <ele>2280.8</ele>
        <time>2021-02-28T13:38:32Z</time>
      </trkpt>
      <trkpt lat="44.99859" lon="6.50395">
        <ele>2280</ele>
        <time>2021-02-28T13:38:33Z</time>
      </trkpt>
      <trkpt lat="44.99859" lon="6.50395">
        <ele>2280</ele>
        <time>2021-02-28T13:38:34Z</time>
      </trkpt>
      <trkpt lat="44.99859" lon="6.50395">
        <ele>2280.4</ele>
        <time>2021-02-28T13:38:35Z</time>
      </trkpt>
      <trkpt lat="44.99859" lon="6.50395">
        <ele>2280.2</ele>
        <time>2021-02-28T13:38:36Z</time>
      </trkpt>
      <trkpt lat="44.99859" lon="6.50395">
        <ele>2280.6</ele>
        <time>2021-02-28T13:38:37Z</time>
      </trkpt>
      <trkpt lat="44.99859" lon="6.50395">
        <ele>2280.6</ele>
        <time>2021-02-28T13:38:38Z</time>
      </trkpt>
      <trkpt lat="44.99859" lon="6.50395">
        <ele>2280.4</ele>
        <time>2021-02-28T13:38:39Z</time>
      </trkpt>
      <trkpt lat="44.99859" lon="6.50395">
        <ele>2280.4</ele>
        <time>2021-02-28T13:38:40Z</time>
      </trkpt>
      <trkpt lat="44.99859" lon="6.50395">
        <ele>2280.8</ele>
        <time>2021-02-28T13:38:41Z</time>
      </trkpt>
      <trkpt lat="44.99859" lon="6.50395">
        <ele>2280.6</ele>
        <time>2021-02-28T13:38:42Z</time>
      </trkpt>
      <trkpt lat="44.99859" lon="6.50395">
        <ele>2280.2</ele>
        <time>2021-02-28T13:38:43Z</time>
      </trkpt>
      <trkpt lat="44.99859" lon="6.50395">
        <ele>2280</ele>
        <time>2021-02-28T13:38:44Z</time>
      </trkpt>
      <trkpt lat="44.99859" lon="6.50395">
        <ele>2280</ele>
        <time>2021-02-28T13:38:45Z</time>
      </trkpt>
      <trkpt lat="44.99859" lon="6.50395">
        <ele>2279.8</ele>
        <time>2021-02-28T13:38:46Z</time>
      </trkpt>
      <trkpt lat="44.99859" lon="6.50395">
        <ele>2279.4</ele>
        <time>2021-02-28T13:38:47Z</time>
      </trkpt>
      <trkpt lat="44.99859" lon="6.50395">
        <ele>2279.2</ele>
        <time>2021-02-28T13:38:48Z</time>
      </trkpt>
      <trkpt lat="44.99859" lon="6.50395">
        <ele>2279</ele>
        <time>2021-02-28T13:38:49Z</time>
      </trkpt>
      <trkpt lat="44.99859" lon="6.50395">
        <ele>2279.2</ele>
        <time>2021-02-28T13:38:50Z</time>
      </trkpt>
      <trkpt lat="44.99859" lon="6.50395">
        <ele>2279.4</ele>
        <time>2021-02-28T13:38:51Z</time>
      </trkpt>
      <trkpt lat="44.99859" lon="6.50395">
        <ele>2279.2</ele>
        <time>2021-02-28T13:38:52Z</time>
      </trkpt>
      <trkpt lat="44.99857" lon="6.50397">
        <ele>2278.8</ele>
        <time>2021-02-28T13:38:53Z</time>
      </trkpt>
      <trkpt lat="44.99857" lon="6.50397">
        <ele>2278.8</ele>
        <time>2021-02-28T13:38:54Z</time>
      </trkpt>
      <trkpt lat="44.99857" lon="6.50397">
        <ele>2279</ele>
        <time>2021-02-28T13:38:55Z</time>
      </trkpt>
      <trkpt lat="44.99855" lon="6.50399">
        <ele>2279</ele>
        <time>2021-02-28T13:38:56Z</time>
      </trkpt>
      <trkpt lat="44.99855" lon="6.50399">
        <ele>2279</ele>
        <time>2021-02-28T13:38:57Z</time>
      </trkpt>
      <trkpt lat="44.99855" lon="6.50399">
        <ele>2278.6</ele>
        <time>2021-02-28T13:38:58Z</time>
      </trkpt>
      <trkpt lat="44.99855" lon="6.50399">
        <ele>2278.6</ele>
        <time>2021-02-28T13:38:59Z</time>
      </trkpt>
      <trkpt lat="44.99855" lon="6.50399">
        <ele>2278.4</ele>
        <time>2021-02-28T13:39:00Z</time>
      </trkpt>
      <trkpt lat="44.99855" lon="6.50399">
        <ele>2278.6</ele>
        <time>2021-02-28T13:39:01Z</time>
      </trkpt>
      <trkpt lat="44.99855" lon="6.50399">
        <ele>2278.8</ele>
        <time>2021-02-28T13:39:02Z</time>
      </trkpt>
      <trkpt lat="44.99855" lon="6.50399">
        <ele>2278</ele>
        <time>2021-02-28T13:39:03Z</time>
      </trkpt>
      <trkpt lat="44.99855" lon="6.50399">
        <ele>2278.2</ele>
        <time>2021-02-28T13:39:04Z</time>
      </trkpt>
      <trkpt lat="44.99855" lon="6.50399">
        <ele>2278.4</ele>
        <time>2021-02-28T13:39:05Z</time>
      </trkpt>
      <trkpt lat="44.99855" lon="6.50401">
        <ele>2278.6</ele>
        <time>2021-02-28T13:39:06Z</time>
      </trkpt>
      <trkpt lat="44.99855" lon="6.50401">
        <ele>2279</ele>
        <time>2021-02-28T13:39:07Z</time>
      </trkpt>
      <trkpt lat="44.99855" lon="6.50401">
        <ele>2279.4</ele>
        <time>2021-02-28T13:39:08Z</time>
      </trkpt>
      <trkpt lat="44.99856" lon="6.50404">
        <ele>2279.8</ele>
        <time>2021-02-28T13:39:09Z</time>
      </trkpt>
      <trkpt lat="44.99856" lon="6.50404">
        <ele>2279.8</ele>
        <time>2021-02-28T13:39:10Z</time>
      </trkpt>
      <trkpt lat="44.99856" lon="6.50404">
        <ele>2279.8</ele>
        <time>2021-02-28T13:39:11Z</time>
      </trkpt>
      <trkpt lat="44.99856" lon="6.50404">
        <ele>2279.6</ele>
        <time>2021-02-28T13:39:12Z</time>
      </trkpt>
      <trkpt lat="44.99856" lon="6.50404">
        <ele>2280</ele>
        <time>2021-02-28T13:39:13Z</time>
      </trkpt>
      <trkpt lat="44.99856" lon="6.50404">
        <ele>2280.4</ele>
        <time>2021-02-28T13:39:14Z</time>
      </trkpt>
      <trkpt lat="44.99856" lon="6.50404">
        <ele>2280.4</ele>
        <time>2021-02-28T13:39:15Z</time>
      </trkpt>
      <trkpt lat="44.99856" lon="6.50404">
        <ele>2280.6</ele>
        <time>2021-02-28T13:39:16Z</time>
      </trkpt>
      <trkpt lat="44.99856" lon="6.50404">
        <ele>2280.4</ele>
        <time>2021-02-28T13:39:17Z</time>
      </trkpt>
      <trkpt lat="44.99856" lon="6.50404">
        <ele>2280.2</ele>
        <time>2021-02-28T13:39:18Z</time>
      </trkpt>
      <trkpt lat="44.99856" lon="6.50404">
        <ele>2279.6</ele>
        <time>2021-02-28T13:39:19Z</time>
      </trkpt>
      <trkpt lat="44.99856" lon="6.50404">
        <ele>2279.4</ele>
        <time>2021-02-28T13:39:20Z</time>
      </trkpt>
      <trkpt lat="44.99856" lon="6.50404">
        <ele>2279.4</ele>
        <time>2021-02-28T13:39:21Z</time>
      </trkpt>
      <trkpt lat="44.99856" lon="6.50404">
        <ele>2279.2</ele>
        <time>2021-02-28T13:39:22Z</time>
      </trkpt>
      <trkpt lat="44.99856" lon="6.50404">
        <ele>2279.2</ele>
        <time>2021-02-28T13:39:23Z</time>
      </trkpt>
      <trkpt lat="44.99856" lon="6.50404">
        <ele>2279.6</ele>
        <time>2021-02-28T13:39:24Z</time>
      </trkpt>
      <trkpt lat="44.99856" lon="6.50404">
        <ele>2279.6</ele>
        <time>2021-02-28T13:39:25Z</time>
      </trkpt>
      <trkpt lat="44.99856" lon="6.50404">
        <ele>2279.4</ele>
        <time>2021-02-28T13:39:26Z</time>
      </trkpt>
      <trkpt lat="44.99856" lon="6.50404">
        <ele>2279.4</ele>
        <time>2021-02-28T13:39:27Z</time>
      </trkpt>
      <trkpt lat="44.99856" lon="6.50404">
        <ele>2279.6</ele>
        <time>2021-02-28T13:39:28Z</time>
      </trkpt>
      <trkpt lat="44.99856" lon="6.50404">
        <ele>2279.6</ele>
        <time>2021-02-28T13:39:29Z</time>
      </trkpt>
      <trkpt lat="44.99856" lon="6.50404">
        <ele>2279.8</ele>
        <time>2021-02-28T13:39:30Z</time>
      </trkpt>
      <trkpt lat="44.99856" lon="6.50404">
        <ele>2279.8</ele>
        <time>2021-02-28T13:39:31Z</time>
      </trkpt>
      <trkpt lat="44.99856" lon="6.50404">
        <ele>2278.8</ele>
        <time>2021-02-28T13:39:32Z</time>
      </trkpt>
      <trkpt lat="44.99856" lon="6.50404">
        <ele>2278.6</ele>
        <time>2021-02-28T13:39:33Z</time>
      </trkpt>
      <trkpt lat="44.99856" lon="6.50404">
        <ele>2278.8</ele>
        <time>2021-02-28T13:39:34Z</time>
      </trkpt>
      <trkpt lat="44.99856" lon="6.50404">
        <ele>2279.4</ele>
        <time>2021-02-28T13:39:35Z</time>
      </trkpt>
      <trkpt lat="44.99856" lon="6.50404">
        <ele>2280.2</ele>
        <time>2021-02-28T13:39:36Z</time>
      </trkpt>
      <trkpt lat="44.99856" lon="6.50404">
        <ele>2279.8</ele>
        <time>2021-02-28T13:39:37Z</time>
      </trkpt>
      <trkpt lat="44.99856" lon="6.50404">
        <ele>2279.6</ele>
        <time>2021-02-28T13:39:38Z</time>
      </trkpt>
      <trkpt lat="44.99856" lon="6.50404">
        <ele>2279.4</ele>
        <time>2021-02-28T13:39:39Z</time>
      </trkpt>
      <trkpt lat="44.99856" lon="6.50404">
        <ele>2279.2</ele>
        <time>2021-02-28T13:39:40Z</time>
      </trkpt>
      <trkpt lat="44.99856" lon="6.50404">
        <ele>2279.2</ele>
        <time>2021-02-28T13:39:41Z</time>
      </trkpt>
      <trkpt lat="44.99856" lon="6.50404">
        <ele>2279.2</ele>
        <time>2021-02-28T13:39:42Z</time>
      </trkpt>
      <trkpt lat="44.99856" lon="6.50404">
        <ele>2279.2</ele>
        <time>2021-02-28T13:39:43Z</time>
      </trkpt>
      <trkpt lat="44.99856" lon="6.50404">
        <ele>2279.2</ele>
        <time>2021-02-28T13:39:44Z</time>
      </trkpt>
      <trkpt lat="44.99856" lon="6.50404">
        <ele>2279.2</ele>
        <time>2021-02-28T13:39:45Z</time>
      </trkpt>
      <trkpt lat="44.99856" lon="6.50404">
        <ele>2279.4</ele>
        <time>2021-02-28T13:39:46Z</time>
      </trkpt>
      <trkpt lat="44.99856" lon="6.50404">
        <ele>2279.6</ele>
        <time>2021-02-28T13:39:47Z</time>
      </trkpt>
      <trkpt lat="44.99856" lon="6.50404">
        <ele>2279.4</ele>
        <time>2021-02-28T13:39:48Z</time>
      </trkpt>
      <trkpt lat="44.99856" lon="6.50404">
        <ele>2280</ele>
        <time>2021-02-28T13:39:49Z</time>
      </trkpt>
      <trkpt lat="44.99856" lon="6.50404">
        <ele>2280.6</ele>
        <time>2021-02-28T13:39:50Z</time>
      </trkpt>
      <trkpt lat="44.99856" lon="6.50404">
        <ele>2280.6</ele>
        <time>2021-02-28T13:39:51Z</time>
      </trkpt>
      <trkpt lat="44.99856" lon="6.50404">
        <ele>2280.4</ele>
        <time>2021-02-28T13:39:52Z</time>
      </trkpt>
      <trkpt lat="44.99856" lon="6.50404">
        <ele>2280.6</ele>
        <time>2021-02-28T13:39:53Z</time>
      </trkpt>
      <trkpt lat="44.99856" lon="6.50404">
        <ele>2280.4</ele>
        <time>2021-02-28T13:39:54Z</time>
      </trkpt>
      <trkpt lat="44.99855" lon="6.50406">
        <ele>2280.4</ele>
        <time>2021-02-28T13:39:55Z</time>
      </trkpt>
      <trkpt lat="44.99855" lon="6.50406">
        <ele>2280.4</ele>
        <time>2021-02-28T13:39:56Z</time>
      </trkpt>
      <trkpt lat="44.99855" lon="6.50406">
        <ele>2280.8</ele>
        <time>2021-02-28T13:39:57Z</time>
      </trkpt>
      <trkpt lat="44.99854" lon="6.50408">
        <ele>2281.2</ele>
        <time>2021-02-28T13:39:58Z</time>
      </trkpt>
      <trkpt lat="44.99854" lon="6.50408">
        <ele>2281</ele>
        <time>2021-02-28T13:39:59Z</time>
      </trkpt>
      <trkpt lat="44.99852" lon="6.5041">
        <ele>2281.2</ele>
        <time>2021-02-28T13:40:00Z</time>
      </trkpt>
      <trkpt lat="44.99852" lon="6.5041">
        <ele>2280.4</ele>
        <time>2021-02-28T13:40:01Z</time>
      </trkpt>
      <trkpt lat="44.9985" lon="6.50413">
        <ele>2280.6</ele>
        <time>2021-02-28T13:40:02Z</time>
      </trkpt>
      <trkpt lat="44.9985" lon="6.50413">
        <ele>2280.4</ele>
        <time>2021-02-28T13:40:03Z</time>
      </trkpt>
      <trkpt lat="44.99848" lon="6.50415">
        <ele>2280.6</ele>
        <time>2021-02-28T13:40:04Z</time>
      </trkpt>
      <trkpt lat="44.99848" lon="6.50415">
        <ele>2280.2</ele>
        <time>2021-02-28T13:40:05Z</time>
      </trkpt>
      <trkpt lat="44.99845" lon="6.50419">
        <ele>2280.6</ele>
        <time>2021-02-28T13:40:06Z</time>
      </trkpt>
      <trkpt lat="44.99844" lon="6.50422">
        <ele>2280.2</ele>
        <time>2021-02-28T13:40:07Z</time>
      </trkpt>
      <trkpt lat="44.99843" lon="6.50424">
        <ele>2279</ele>
        <time>2021-02-28T13:40:08Z</time>
      </trkpt>
      <trkpt lat="44.99841" lon="6.50427">
        <ele>2279.2</ele>
        <time>2021-02-28T13:40:09Z</time>
      </trkpt>
      <trkpt lat="44.99839" lon="6.5043">
        <ele>2279.2</ele>
        <time>2021-02-28T13:40:10Z</time>
      </trkpt>
      <trkpt lat="44.99838" lon="6.50432">
        <ele>2278.6</ele>
        <time>2021-02-28T13:40:11Z</time>
      </trkpt>
      <trkpt lat="44.99838" lon="6.50432">
        <ele>2278.8</ele>
        <time>2021-02-28T13:40:12Z</time>
      </trkpt>
      <trkpt lat="44.99836" lon="6.50436">
        <ele>2278.6</ele>
        <time>2021-02-28T13:40:13Z</time>
      </trkpt>
      <trkpt lat="44.99835" lon="6.50439">
        <ele>2278.6</ele>
        <time>2021-02-28T13:40:14Z</time>
      </trkpt>
      <trkpt lat="44.99834" lon="6.50441">
        <ele>2278.4</ele>
        <time>2021-02-28T13:40:15Z</time>
      </trkpt>
      <trkpt lat="44.99832" lon="6.50443">
        <ele>2278</ele>
        <time>2021-02-28T13:40:16Z</time>
      </trkpt>
      <trkpt lat="44.99832" lon="6.50443">
        <ele>2277.4</ele>
        <time>2021-02-28T13:40:17Z</time>
      </trkpt>
      <trkpt lat="44.9983" lon="6.50447">
        <ele>2277.6</ele>
        <time>2021-02-28T13:40:18Z</time>
      </trkpt>
      <trkpt lat="44.9983" lon="6.50447">
        <ele>2278</ele>
        <time>2021-02-28T13:40:19Z</time>
      </trkpt>
      <trkpt lat="44.99827" lon="6.50452">
        <ele>2277.8</ele>
        <time>2021-02-28T13:40:20Z</time>
      </trkpt>
      <trkpt lat="44.99826" lon="6.50454">
        <ele>2277.2</ele>
        <time>2021-02-28T13:40:21Z</time>
      </trkpt>
      <trkpt lat="44.99824" lon="6.50456">
        <ele>2278</ele>
        <time>2021-02-28T13:40:22Z</time>
      </trkpt>
      <trkpt lat="44.99823" lon="6.50459">
        <ele>2277.8</ele>
        <time>2021-02-28T13:40:23Z</time>
      </trkpt>
      <trkpt lat="44.99821" lon="6.50462">
        <ele>2277.8</ele>
        <time>2021-02-28T13:40:24Z</time>
      </trkpt>
      <trkpt lat="44.99819" lon="6.50464">
        <ele>2277.2</ele>
        <time>2021-02-28T13:40:25Z</time>
      </trkpt>
      <trkpt lat="44.99818" lon="6.50467">
        <ele>2276</ele>
        <time>2021-02-28T13:40:26Z</time>
      </trkpt>
      <trkpt lat="44.99817" lon="6.5047">
        <ele>2276.6</ele>
        <time>2021-02-28T13:40:27Z</time>
      </trkpt>
      <trkpt lat="44.99816" lon="6.50472">
        <ele>2277</ele>
        <time>2021-02-28T13:40:28Z</time>
      </trkpt>
      <trkpt lat="44.99815" lon="6.50475">
        <ele>2277</ele>
        <time>2021-02-28T13:40:29Z</time>
      </trkpt>
      <trkpt lat="44.99813" lon="6.50479">
        <ele>2276.2</ele>
        <time>2021-02-28T13:40:30Z</time>
      </trkpt>
      <trkpt lat="44.99812" lon="6.50481">
        <ele>2276</ele>
        <time>2021-02-28T13:40:31Z</time>
      </trkpt>
      <trkpt lat="44.99811" lon="6.50484">
        <ele>2275.8</ele>
        <time>2021-02-28T13:40:32Z</time>
      </trkpt>
      <trkpt lat="44.9981" lon="6.50487">
        <ele>2275.4</ele>
        <time>2021-02-28T13:40:33Z</time>
      </trkpt>
      <trkpt lat="44.99809" lon="6.5049">
        <ele>2275.4</ele>
        <time>2021-02-28T13:40:34Z</time>
      </trkpt>
      <trkpt lat="44.99808" lon="6.50493">
        <ele>2275.2</ele>
        <time>2021-02-28T13:40:35Z</time>
      </trkpt>
      <trkpt lat="44.99807" lon="6.50495">
        <ele>2275.4</ele>
        <time>2021-02-28T13:40:36Z</time>
      </trkpt>
      <trkpt lat="44.99807" lon="6.50495">
        <ele>2275.2</ele>
        <time>2021-02-28T13:40:37Z</time>
      </trkpt>
      <trkpt lat="44.99807" lon="6.50499">
        <ele>2274.8</ele>
        <time>2021-02-28T13:40:38Z</time>
      </trkpt>
      <trkpt lat="44.99807" lon="6.50499">
        <ele>2275.4</ele>
        <time>2021-02-28T13:40:39Z</time>
      </trkpt>
      <trkpt lat="44.99806" lon="6.50503">
        <ele>2275.4</ele>
        <time>2021-02-28T13:40:40Z</time>
      </trkpt>
      <trkpt lat="44.99806" lon="6.50503">
        <ele>2275.6</ele>
        <time>2021-02-28T13:40:41Z</time>
      </trkpt>
      <trkpt lat="44.99806" lon="6.50507">
        <ele>2274.6</ele>
        <time>2021-02-28T13:40:42Z</time>
      </trkpt>
      <trkpt lat="44.99806" lon="6.50507">
        <ele>2274.2</ele>
        <time>2021-02-28T13:40:43Z</time>
      </trkpt>
      <trkpt lat="44.99806" lon="6.50507">
        <ele>2274.4</ele>
        <time>2021-02-28T13:40:44Z</time>
      </trkpt>
      <trkpt lat="44.99804" lon="6.50509">
        <ele>2274.6</ele>
        <time>2021-02-28T13:40:45Z</time>
      </trkpt>
      <trkpt lat="44.99804" lon="6.50509">
        <ele>2274.6</ele>
        <time>2021-02-28T13:40:46Z</time>
      </trkpt>
      <trkpt lat="44.99802" lon="6.50513">
        <ele>2274.8</ele>
        <time>2021-02-28T13:40:47Z</time>
      </trkpt>
      <trkpt lat="44.99801" lon="6.50515">
        <ele>2274</ele>
        <time>2021-02-28T13:40:48Z</time>
      </trkpt>
      <trkpt lat="44.99801" lon="6.50515">
        <ele>2274.2</ele>
        <time>2021-02-28T13:40:49Z</time>
      </trkpt>
      <trkpt lat="44.998" lon="6.50519">
        <ele>2274.4</ele>
        <time>2021-02-28T13:40:50Z</time>
      </trkpt>
      <trkpt lat="44.998" lon="6.50519">
        <ele>2274</ele>
        <time>2021-02-28T13:40:51Z</time>
      </trkpt>
      <trkpt lat="44.99798" lon="6.50522">
        <ele>2273.8</ele>
        <time>2021-02-28T13:40:52Z</time>
      </trkpt>
      <trkpt lat="44.99798" lon="6.50522">
        <ele>2273.8</ele>
        <time>2021-02-28T13:40:53Z</time>
      </trkpt>
      <trkpt lat="44.99796" lon="6.50527">
        <ele>2274</ele>
        <time>2021-02-28T13:40:54Z</time>
      </trkpt>
      <trkpt lat="44.99795" lon="6.50529">
        <ele>2273.8</ele>
        <time>2021-02-28T13:40:55Z</time>
      </trkpt>
      <trkpt lat="44.99794" lon="6.50531">
        <ele>2273.8</ele>
        <time>2021-02-28T13:40:56Z</time>
      </trkpt>
      <trkpt lat="44.99793" lon="6.50534">
        <ele>2273.4</ele>
        <time>2021-02-28T13:40:57Z</time>
      </trkpt>
      <trkpt lat="44.99792" lon="6.50537">
        <ele>2273.4</ele>
        <time>2021-02-28T13:40:58Z</time>
      </trkpt>
      <trkpt lat="44.9979" lon="6.5054">
        <ele>2273</ele>
        <time>2021-02-28T13:40:59Z</time>
      </trkpt>
      <trkpt lat="44.99789" lon="6.50543">
        <ele>2272.8</ele>
        <time>2021-02-28T13:41:00Z</time>
      </trkpt>
      <trkpt lat="44.99788" lon="6.50546">
        <ele>2272.6</ele>
        <time>2021-02-28T13:41:01Z</time>
      </trkpt>
      <trkpt lat="44.99787" lon="6.5055">
        <ele>2272.4</ele>
        <time>2021-02-28T13:41:02Z</time>
      </trkpt>
      <trkpt lat="44.99786" lon="6.50553">
        <ele>2272</ele>
        <time>2021-02-28T13:41:03Z</time>
      </trkpt>
      <trkpt lat="44.99784" lon="6.50557">
        <ele>2272</ele>
        <time>2021-02-28T13:41:04Z</time>
      </trkpt>
      <trkpt lat="44.99783" lon="6.5056">
        <ele>2271.8</ele>
        <time>2021-02-28T13:41:05Z</time>
      </trkpt>
      <trkpt lat="44.99783" lon="6.50563">
        <ele>2271</ele>
        <time>2021-02-28T13:41:06Z</time>
      </trkpt>
      <trkpt lat="44.99782" lon="6.50567">
        <ele>2270.8</ele>
        <time>2021-02-28T13:41:07Z</time>
      </trkpt>
      <trkpt lat="44.9978" lon="6.50571">
        <ele>2271</ele>
        <time>2021-02-28T13:41:08Z</time>
      </trkpt>
      <trkpt lat="44.9978" lon="6.50574">
        <ele>2270.6</ele>
        <time>2021-02-28T13:41:09Z</time>
      </trkpt>
      <trkpt lat="44.99779" lon="6.50577">
        <ele>2270.8</ele>
        <time>2021-02-28T13:41:10Z</time>
      </trkpt>
      <trkpt lat="44.99777" lon="6.5058">
        <ele>2270.2</ele>
        <time>2021-02-28T13:41:11Z</time>
      </trkpt>
      <trkpt lat="44.99776" lon="6.50583">
        <ele>2270</ele>
        <time>2021-02-28T13:41:12Z</time>
      </trkpt>
      <trkpt lat="44.99774" lon="6.50587">
        <ele>2269.6</ele>
        <time>2021-02-28T13:41:13Z</time>
      </trkpt>
      <trkpt lat="44.99772" lon="6.50591">
        <ele>2269.4</ele>
        <time>2021-02-28T13:41:14Z</time>
      </trkpt>
      <trkpt lat="44.9977" lon="6.50595">
        <ele>2268.8</ele>
        <time>2021-02-28T13:41:15Z</time>
      </trkpt>
      <trkpt lat="44.99768" lon="6.50599">
        <ele>2268.4</ele>
        <time>2021-02-28T13:41:16Z</time>
      </trkpt>
      <trkpt lat="44.99766" lon="6.50603">
        <ele>2268.2</ele>
        <time>2021-02-28T13:41:17Z</time>
      </trkpt>
      <trkpt lat="44.99763" lon="6.50607">
        <ele>2267.8</ele>
        <time>2021-02-28T13:41:18Z</time>
      </trkpt>
      <trkpt lat="44.99761" lon="6.50612">
        <ele>2267.2</ele>
        <time>2021-02-28T13:41:19Z</time>
      </trkpt>
      <trkpt lat="44.99758" lon="6.50617">
        <ele>2266.2</ele>
        <time>2021-02-28T13:41:20Z</time>
      </trkpt>
      <trkpt lat="44.99756" lon="6.50622">
        <ele>2265.8</ele>
        <time>2021-02-28T13:41:21Z</time>
      </trkpt>
      <trkpt lat="44.99755" lon="6.50627">
        <ele>2265.2</ele>
        <time>2021-02-28T13:41:22Z</time>
      </trkpt>
      <trkpt lat="44.99752" lon="6.50632">
        <ele>2265</ele>
        <time>2021-02-28T13:41:23Z</time>
      </trkpt>
      <trkpt lat="44.99748" lon="6.50636">
        <ele>2264.4</ele>
        <time>2021-02-28T13:41:24Z</time>
      </trkpt>
      <trkpt lat="44.99744" lon="6.50635">
        <ele>2263.8</ele>
        <time>2021-02-28T13:41:25Z</time>
      </trkpt>
      <trkpt lat="44.99739" lon="6.50632">
        <ele>2263.4</ele>
        <time>2021-02-28T13:41:26Z</time>
      </trkpt>
      <trkpt lat="44.99734" lon="6.50634">
        <ele>2262.2</ele>
        <time>2021-02-28T13:41:27Z</time>
      </trkpt>
      <trkpt lat="44.99729" lon="6.50637">
        <ele>2260.4</ele>
        <time>2021-02-28T13:41:28Z</time>
      </trkpt>
      <trkpt lat="44.99724" lon="6.50635">
        <ele>2258.8</ele>
        <time>2021-02-28T13:41:29Z</time>
      </trkpt>
      <trkpt lat="44.99718" lon="6.50632">
        <ele>2257.4</ele>
        <time>2021-02-28T13:41:30Z</time>
      </trkpt>
      <trkpt lat="44.99715" lon="6.50635">
        <ele>2255.6</ele>
        <time>2021-02-28T13:41:31Z</time>
      </trkpt>
      <trkpt lat="44.99713" lon="6.50641">
        <ele>2253.2</ele>
        <time>2021-02-28T13:41:32Z</time>
      </trkpt>
      <trkpt lat="44.99713" lon="6.50645">
        <ele>2251.2</ele>
        <time>2021-02-28T13:41:33Z</time>
      </trkpt>
      <trkpt lat="44.99713" lon="6.50645">
        <ele>2249.6</ele>
        <time>2021-02-28T13:41:34Z</time>
      </trkpt>
      <trkpt lat="44.99715" lon="6.50646">
        <ele>2249.4</ele>
        <time>2021-02-28T13:41:35Z</time>
      </trkpt>
      <trkpt lat="44.99715" lon="6.50646">
        <ele>2249</ele>
        <time>2021-02-28T13:41:36Z</time>
      </trkpt>
      <trkpt lat="44.99715" lon="6.50646">
        <ele>2249</ele>
        <time>2021-02-28T13:41:37Z</time>
      </trkpt>
      <trkpt lat="44.99715" lon="6.50646">
        <ele>2249</ele>
        <time>2021-02-28T13:41:38Z</time>
      </trkpt>
      <trkpt lat="44.99715" lon="6.50646">
        <ele>2249</ele>
        <time>2021-02-28T13:41:39Z</time>
      </trkpt>
      <trkpt lat="44.99715" lon="6.50646">
        <ele>2249</ele>
        <time>2021-02-28T13:41:40Z</time>
      </trkpt>
      <trkpt lat="44.99715" lon="6.50646">
        <ele>2248.8</ele>
        <time>2021-02-28T13:41:41Z</time>
      </trkpt>
      <trkpt lat="44.99715" lon="6.50646">
        <ele>2248.6</ele>
        <time>2021-02-28T13:41:42Z</time>
      </trkpt>
      <trkpt lat="44.99715" lon="6.50646">
        <ele>2248.6</ele>
        <time>2021-02-28T13:41:43Z</time>
      </trkpt>
      <trkpt lat="44.99715" lon="6.50646">
        <ele>2248.2</ele>
        <time>2021-02-28T13:41:44Z</time>
      </trkpt>
      <trkpt lat="44.99715" lon="6.50646">
        <ele>2248.4</ele>
        <time>2021-02-28T13:41:45Z</time>
      </trkpt>
      <trkpt lat="44.99715" lon="6.50646">
        <ele>2248.4</ele>
        <time>2021-02-28T13:41:46Z</time>
      </trkpt>
      <trkpt lat="44.99715" lon="6.50646">
        <ele>2248.4</ele>
        <time>2021-02-28T13:41:47Z</time>
      </trkpt>
      <trkpt lat="44.99715" lon="6.50646">
        <ele>2248.6</ele>
        <time>2021-02-28T13:41:48Z</time>
      </trkpt>
      <trkpt lat="44.99715" lon="6.50646">
        <ele>2248.4</ele>
        <time>2021-02-28T13:41:49Z</time>
      </trkpt>
      <trkpt lat="44.99715" lon="6.50646">
        <ele>2248.4</ele>
        <time>2021-02-28T13:41:50Z</time>
      </trkpt>
      <trkpt lat="44.99715" lon="6.50646">
        <ele>2248.2</ele>
        <time>2021-02-28T13:41:51Z</time>
      </trkpt>
      <trkpt lat="44.99715" lon="6.50646">
        <ele>2248.2</ele>
        <time>2021-02-28T13:41:52Z</time>
      </trkpt>
      <trkpt lat="44.99715" lon="6.50646">
        <ele>2248.2</ele>
        <time>2021-02-28T13:41:53Z</time>
      </trkpt>
      <trkpt lat="44.99715" lon="6.50646">
        <ele>2248.2</ele>
        <time>2021-02-28T13:41:54Z</time>
      </trkpt>
      <trkpt lat="44.99715" lon="6.50646">
        <ele>2248.2</ele>
        <time>2021-02-28T13:41:55Z</time>
      </trkpt>
      <trkpt lat="44.99715" lon="6.50646">
        <ele>2248.2</ele>
        <time>2021-02-28T13:41:56Z</time>
      </trkpt>
      <trkpt lat="44.99715" lon="6.50646">
        <ele>2248.2</ele>
        <time>2021-02-28T13:41:57Z</time>
      </trkpt>
      <trkpt lat="44.99715" lon="6.50646">
        <ele>2248.4</ele>
        <time>2021-02-28T13:41:58Z</time>
      </trkpt>
      <trkpt lat="44.99715" lon="6.50646">
        <ele>2248.2</ele>
        <time>2021-02-28T13:41:59Z</time>
      </trkpt>
      <trkpt lat="44.99715" lon="6.50646">
        <ele>2248.2</ele>
        <time>2021-02-28T13:42:00Z</time>
      </trkpt>
      <trkpt lat="44.99715" lon="6.50646">
        <ele>2248.2</ele>
        <time>2021-02-28T13:42:01Z</time>
      </trkpt>
      <trkpt lat="44.99715" lon="6.50646">
        <ele>2248</ele>
        <time>2021-02-28T13:42:02Z</time>
      </trkpt>
      <trkpt lat="44.99715" lon="6.50646">
        <ele>2248</ele>
        <time>2021-02-28T13:42:03Z</time>
      </trkpt>
      <trkpt lat="44.99715" lon="6.50646">
        <ele>2248</ele>
        <time>2021-02-28T13:42:04Z</time>
      </trkpt>
      <trkpt lat="44.99715" lon="6.50646">
        <ele>2247.8</ele>
        <time>2021-02-28T13:42:05Z</time>
      </trkpt>
      <trkpt lat="44.99715" lon="6.50646">
        <ele>2247.8</ele>
        <time>2021-02-28T13:42:06Z</time>
      </trkpt>
      <trkpt lat="44.99715" lon="6.50646">
        <ele>2247.8</ele>
        <time>2021-02-28T13:42:07Z</time>
      </trkpt>
      <trkpt lat="44.99715" lon="6.50646">
        <ele>2248</ele>
        <time>2021-02-28T13:42:08Z</time>
      </trkpt>
      <trkpt lat="44.99715" lon="6.50646">
        <ele>2248</ele>
        <time>2021-02-28T13:42:09Z</time>
      </trkpt>
      <trkpt lat="44.99715" lon="6.50646">
        <ele>2248</ele>
        <time>2021-02-28T13:42:10Z</time>
      </trkpt>
      <trkpt lat="44.99715" lon="6.50646">
        <ele>2247.8</ele>
        <time>2021-02-28T13:42:11Z</time>
      </trkpt>
      <trkpt lat="44.99715" lon="6.50646">
        <ele>2247.8</ele>
        <time>2021-02-28T13:42:12Z</time>
      </trkpt>
      <trkpt lat="44.99715" lon="6.50646">
        <ele>2247.8</ele>
        <time>2021-02-28T13:42:13Z</time>
      </trkpt>
      <trkpt lat="44.99715" lon="6.50646">
        <ele>2247.8</ele>
        <time>2021-02-28T13:42:14Z</time>
      </trkpt>
      <trkpt lat="44.99715" lon="6.50646">
        <ele>2248</ele>
        <time>2021-02-28T13:42:15Z</time>
      </trkpt>
      <trkpt lat="44.99715" lon="6.50648">
        <ele>2248.2</ele>
        <time>2021-02-28T13:42:16Z</time>
      </trkpt>
      <trkpt lat="44.99713" lon="6.5065">
        <ele>2247.8</ele>
        <time>2021-02-28T13:42:17Z</time>
      </trkpt>
      <trkpt lat="44.9971" lon="6.50655">
        <ele>2247.6</ele>
        <time>2021-02-28T13:42:18Z</time>
      </trkpt>
      <trkpt lat="44.99709" lon="6.50661">
        <ele>2245.8</ele>
        <time>2021-02-28T13:42:19Z</time>
      </trkpt>
      <trkpt lat="44.99709" lon="6.5067">
        <ele>2244.6</ele>
        <time>2021-02-28T13:42:20Z</time>
      </trkpt>
      <trkpt lat="44.99708" lon="6.50681">
        <ele>2243</ele>
        <time>2021-02-28T13:42:21Z</time>
      </trkpt>
      <trkpt lat="44.99706" lon="6.50694">
        <ele>2241.4</ele>
        <time>2021-02-28T13:42:22Z</time>
      </trkpt>
      <trkpt lat="44.99704" lon="6.50708">
        <ele>2238.2</ele>
        <time>2021-02-28T13:42:23Z</time>
      </trkpt>
      <trkpt lat="44.99702" lon="6.50722">
        <ele>2236.2</ele>
        <time>2021-02-28T13:42:24Z</time>
      </trkpt>
      <trkpt lat="44.99699" lon="6.50735">
        <ele>2233.8</ele>
        <time>2021-02-28T13:42:25Z</time>
      </trkpt>
      <trkpt lat="44.99696" lon="6.50746">
        <ele>2231</ele>
        <time>2021-02-28T13:42:26Z</time>
      </trkpt>
      <trkpt lat="44.99692" lon="6.50758">
        <ele>2228.6</ele>
        <time>2021-02-28T13:42:27Z</time>
      </trkpt>
      <trkpt lat="44.9969" lon="6.50769">
        <ele>2227.2</ele>
        <time>2021-02-28T13:42:28Z</time>
      </trkpt>
      <trkpt lat="44.9969" lon="6.50769">
        <ele>2226</ele>
        <time>2021-02-28T13:42:29Z</time>
      </trkpt>
      <trkpt lat="44.99681" lon="6.50782">
        <ele>2225</ele>
        <time>2021-02-28T13:42:30Z</time>
      </trkpt>
      <trkpt lat="44.99676" lon="6.50789">
        <ele>2224.8</ele>
        <time>2021-02-28T13:42:31Z</time>
      </trkpt>
      <trkpt lat="44.99675" lon="6.5079">
        <ele>2224</ele>
        <time>2021-02-28T13:42:32Z</time>
      </trkpt>
      <trkpt lat="44.99673" lon="6.50794">
        <ele>2223</ele>
        <time>2021-02-28T13:42:33Z</time>
      </trkpt>
      <trkpt lat="44.99669" lon="6.50813">
        <ele>2222</ele>
        <time>2021-02-28T13:42:34Z</time>
      </trkpt>
      <trkpt lat="44.99668" lon="6.5082">
        <ele>2221</ele>
        <time>2021-02-28T13:42:35Z</time>
      </trkpt>
      <trkpt lat="44.99667" lon="6.50827">
        <ele>2219.6</ele>
        <time>2021-02-28T13:42:36Z</time>
      </trkpt>
      <trkpt lat="44.99663" lon="6.50846">
        <ele>2218</ele>
        <time>2021-02-28T13:42:37Z</time>
      </trkpt>
      <trkpt lat="44.99661" lon="6.50851">
        <ele>2217.2</ele>
        <time>2021-02-28T13:42:38Z</time>
      </trkpt>
      <trkpt lat="44.99659" lon="6.50862">
        <ele>2215.8</ele>
        <time>2021-02-28T13:42:39Z</time>
      </trkpt>
      <trkpt lat="44.99655" lon="6.50874">
        <ele>2214</ele>
        <time>2021-02-28T13:42:40Z</time>
      </trkpt>
      <trkpt lat="44.99651" lon="6.50886">
        <ele>2211.4</ele>
        <time>2021-02-28T13:42:41Z</time>
      </trkpt>
      <trkpt lat="44.99648" lon="6.50897">
        <ele>2209.6</ele>
        <time>2021-02-28T13:42:42Z</time>
      </trkpt>
      <trkpt lat="44.99648" lon="6.50897">
        <ele>2207.2</ele>
        <time>2021-02-28T13:42:43Z</time>
      </trkpt>
      <trkpt lat="44.99642" lon="6.50915">
        <ele>2205.4</ele>
        <time>2021-02-28T13:42:44Z</time>
      </trkpt>
      <trkpt lat="44.9964" lon="6.50918">
        <ele>2204</ele>
        <time>2021-02-28T13:42:45Z</time>
      </trkpt>
      <trkpt lat="44.99639" lon="6.50922">
        <ele>2202.8</ele>
        <time>2021-02-28T13:42:46Z</time>
      </trkpt>
      <trkpt lat="44.99632" lon="6.50934">
        <ele>2201.2</ele>
        <time>2021-02-28T13:42:47Z</time>
      </trkpt>
      <trkpt lat="44.99627" lon="6.5094">
        <ele>2199.8</ele>
        <time>2021-02-28T13:42:48Z</time>
      </trkpt>
      <trkpt lat="44.99617" lon="6.50955">
        <ele>2197.6</ele>
        <time>2021-02-28T13:42:49Z</time>
      </trkpt>
      <trkpt lat="44.99616" lon="6.50957">
        <ele>2195.2</ele>
        <time>2021-02-28T13:42:50Z</time>
      </trkpt>
      <trkpt lat="44.99612" lon="6.50961">
        <ele>2193.4</ele>
        <time>2021-02-28T13:42:51Z</time>
      </trkpt>
      <trkpt lat="44.99599" lon="6.50973">
        <ele>2191.4</ele>
        <time>2021-02-28T13:42:52Z</time>
      </trkpt>
      <trkpt lat="44.99597" lon="6.50974">
        <ele>2188.8</ele>
        <time>2021-02-28T13:42:53Z</time>
      </trkpt>
      <trkpt lat="44.99595" lon="6.50976">
        <ele>2187.8</ele>
        <time>2021-02-28T13:42:54Z</time>
      </trkpt>
      <trkpt lat="44.99591" lon="6.5098">
        <ele>2186.2</ele>
        <time>2021-02-28T13:42:55Z</time>
      </trkpt>
      <trkpt lat="44.99591" lon="6.5098">
        <ele>2185.6</ele>
        <time>2021-02-28T13:42:56Z</time>
      </trkpt>
      <trkpt lat="44.99584" lon="6.50992">
        <ele>2184.8</ele>
        <time>2021-02-28T13:42:57Z</time>
      </trkpt>
      <trkpt lat="44.99584" lon="6.50992">
        <ele>2184</ele>
        <time>2021-02-28T13:42:58Z</time>
      </trkpt>
      <trkpt lat="44.99584" lon="6.50992">
        <ele>2183.6</ele>
        <time>2021-02-28T13:42:59Z</time>
      </trkpt>
      <trkpt lat="44.99584" lon="6.50992">
        <ele>2183.4</ele>
        <time>2021-02-28T13:43:00Z</time>
      </trkpt>
      <trkpt lat="44.99584" lon="6.50993">
        <ele>2183.2</ele>
        <time>2021-02-28T13:43:01Z</time>
      </trkpt>
      <trkpt lat="44.99585" lon="6.50993">
        <ele>2182.8</ele>
        <time>2021-02-28T13:43:02Z</time>
      </trkpt>
      <trkpt lat="44.99585" lon="6.50993">
        <ele>2183.6</ele>
        <time>2021-02-28T13:43:03Z</time>
      </trkpt>
      <trkpt lat="44.99586" lon="6.50994">
        <ele>2182.4</ele>
        <time>2021-02-28T13:43:04Z</time>
      </trkpt>
      <trkpt lat="44.99586" lon="6.50994">
        <ele>2182.6</ele>
        <time>2021-02-28T13:43:05Z</time>
      </trkpt>
      <trkpt lat="44.99587" lon="6.50994">
        <ele>2183</ele>
        <time>2021-02-28T13:43:06Z</time>
      </trkpt>
      <trkpt lat="44.99587" lon="6.50995">
        <ele>2183</ele>
        <time>2021-02-28T13:43:07Z</time>
      </trkpt>
      <trkpt lat="44.99588" lon="6.50995">
        <ele>2182.8</ele>
        <time>2021-02-28T13:43:08Z</time>
      </trkpt>
      <trkpt lat="44.99588" lon="6.50995">
        <ele>2182.6</ele>
        <time>2021-02-28T13:43:09Z</time>
      </trkpt>
      <trkpt lat="44.99588" lon="6.50996">
        <ele>2182.8</ele>
        <time>2021-02-28T13:43:10Z</time>
      </trkpt>
      <trkpt lat="44.99589" lon="6.50996">
        <ele>2183</ele>
        <time>2021-02-28T13:43:11Z</time>
      </trkpt>
      <trkpt lat="44.99589" lon="6.50996">
        <ele>2183</ele>
        <time>2021-02-28T13:43:12Z</time>
      </trkpt>
      <trkpt lat="44.99589" lon="6.50995">
        <ele>2183</ele>
        <time>2021-02-28T13:43:13Z</time>
      </trkpt>
      <trkpt lat="44.9959" lon="6.50995">
        <ele>2183</ele>
        <time>2021-02-28T13:43:14Z</time>
      </trkpt>
      <trkpt lat="44.9959" lon="6.50995">
        <ele>2183</ele>
        <time>2021-02-28T13:43:15Z</time>
      </trkpt>
      <trkpt lat="44.9959" lon="6.50995">
        <ele>2183.2</ele>
        <time>2021-02-28T13:43:16Z</time>
      </trkpt>
      <trkpt lat="44.9959" lon="6.50994">
        <ele>2183.2</ele>
        <time>2021-02-28T13:43:17Z</time>
      </trkpt>
      <trkpt lat="44.99591" lon="6.50994">
        <ele>2183.2</ele>
        <time>2021-02-28T13:43:18Z</time>
      </trkpt>
      <trkpt lat="44.99591" lon="6.50994">
        <ele>2183</ele>
        <time>2021-02-28T13:43:19Z</time>
      </trkpt>
      <trkpt lat="44.99591" lon="6.50993">
        <ele>2183</ele>
        <time>2021-02-28T13:43:20Z</time>
      </trkpt>
      <trkpt lat="44.99591" lon="6.50993">
        <ele>2182.8</ele>
        <time>2021-02-28T13:43:21Z</time>
      </trkpt>
      <trkpt lat="44.99592" lon="6.50993">
        <ele>2182.8</ele>
        <time>2021-02-28T13:43:22Z</time>
      </trkpt>
      <trkpt lat="44.99592" lon="6.50993">
        <ele>2183</ele>
        <time>2021-02-28T13:43:23Z</time>
      </trkpt>
      <trkpt lat="44.99592" lon="6.50992">
        <ele>2183</ele>
        <time>2021-02-28T13:43:24Z</time>
      </trkpt>
      <trkpt lat="44.99592" lon="6.50992">
        <ele>2182.8</ele>
        <time>2021-02-28T13:43:25Z</time>
      </trkpt>
      <trkpt lat="44.99593" lon="6.50992">
        <ele>2182.6</ele>
        <time>2021-02-28T13:43:26Z</time>
      </trkpt>
      <trkpt lat="44.99593" lon="6.50992">
        <ele>2182.4</ele>
        <time>2021-02-28T13:43:27Z</time>
      </trkpt>
      <trkpt lat="44.99593" lon="6.50991">
        <ele>2182.6</ele>
        <time>2021-02-28T13:43:28Z</time>
      </trkpt>
      <trkpt lat="44.99594" lon="6.50991">
        <ele>2182.6</ele>
        <time>2021-02-28T13:43:29Z</time>
      </trkpt>
      <trkpt lat="44.99594" lon="6.50991">
        <ele>2182.4</ele>
        <time>2021-02-28T13:43:30Z</time>
      </trkpt>
      <trkpt lat="44.99594" lon="6.50991">
        <ele>2182.6</ele>
        <time>2021-02-28T13:43:31Z</time>
      </trkpt>
      <trkpt lat="44.99594" lon="6.5099">
        <ele>2182.6</ele>
        <time>2021-02-28T13:43:32Z</time>
      </trkpt>
      <trkpt lat="44.99595" lon="6.5099">
        <ele>2182.4</ele>
        <time>2021-02-28T13:43:33Z</time>
      </trkpt>
      <trkpt lat="44.99595" lon="6.5099">
        <ele>2182.4</ele>
        <time>2021-02-28T13:43:34Z</time>
      </trkpt>
      <trkpt lat="44.99595" lon="6.5099">
        <ele>2182.4</ele>
        <time>2021-02-28T13:43:35Z</time>
      </trkpt>
      <trkpt lat="44.99595" lon="6.50989">
        <ele>2182.4</ele>
        <time>2021-02-28T13:43:36Z</time>
      </trkpt>
      <trkpt lat="44.99596" lon="6.50989">
        <ele>2182.6</ele>
        <time>2021-02-28T13:43:37Z</time>
      </trkpt>
      <trkpt lat="44.99596" lon="6.50989">
        <ele>2182.4</ele>
        <time>2021-02-28T13:43:38Z</time>
      </trkpt>
      <trkpt lat="44.99596" lon="6.50988">
        <ele>2182.6</ele>
        <time>2021-02-28T13:43:39Z</time>
      </trkpt>
      <trkpt lat="44.99596" lon="6.50988">
        <ele>2183</ele>
        <time>2021-02-28T13:43:40Z</time>
      </trkpt>
      <trkpt lat="44.99597" lon="6.50988">
        <ele>2183.2</ele>
        <time>2021-02-28T13:43:41Z</time>
      </trkpt>
      <trkpt lat="44.99597" lon="6.50988">
        <ele>2183.4</ele>
        <time>2021-02-28T13:43:42Z</time>
      </trkpt>
      <trkpt lat="44.99597" lon="6.50988">
        <ele>2183.2</ele>
        <time>2021-02-28T13:43:43Z</time>
      </trkpt>
      <trkpt lat="44.99597" lon="6.50988">
        <ele>2183.2</ele>
        <time>2021-02-28T13:43:44Z</time>
      </trkpt>
      <trkpt lat="44.99597" lon="6.50985">
        <ele>2182.4</ele>
        <time>2021-02-28T13:43:45Z</time>
      </trkpt>
      <trkpt lat="44.99597" lon="6.50985">
        <ele>2182.6</ele>
        <time>2021-02-28T13:43:46Z</time>
      </trkpt>
      <trkpt lat="44.99597" lon="6.50985">
        <ele>2182.4</ele>
        <time>2021-02-28T13:43:47Z</time>
      </trkpt>
      <trkpt lat="44.99597" lon="6.50985">
        <ele>2182</ele>
        <time>2021-02-28T13:43:48Z</time>
      </trkpt>
      <trkpt lat="44.99597" lon="6.50985">
        <ele>2181.8</ele>
        <time>2021-02-28T13:43:49Z</time>
      </trkpt>
      <trkpt lat="44.99597" lon="6.50985">
        <ele>2181.6</ele>
        <time>2021-02-28T13:43:50Z</time>
      </trkpt>
      <trkpt lat="44.99597" lon="6.50985">
        <ele>2181.4</ele>
        <time>2021-02-28T13:43:51Z</time>
      </trkpt>
      <trkpt lat="44.99597" lon="6.50985">
        <ele>2182</ele>
        <time>2021-02-28T13:43:52Z</time>
      </trkpt>
      <trkpt lat="44.99597" lon="6.50985">
        <ele>2182.4</ele>
        <time>2021-02-28T13:43:53Z</time>
      </trkpt>
      <trkpt lat="44.99597" lon="6.50985">
        <ele>2182.6</ele>
        <time>2021-02-28T13:43:54Z</time>
      </trkpt>
      <trkpt lat="44.99597" lon="6.50985">
        <ele>2183</ele>
        <time>2021-02-28T13:43:55Z</time>
      </trkpt>
      <trkpt lat="44.99597" lon="6.50985">
        <ele>2183.2</ele>
        <time>2021-02-28T13:43:56Z</time>
      </trkpt>
      <trkpt lat="44.99597" lon="6.50985">
        <ele>2183.2</ele>
        <time>2021-02-28T13:43:57Z</time>
      </trkpt>
      <trkpt lat="44.99597" lon="6.50985">
        <ele>2183.6</ele>
        <time>2021-02-28T13:43:58Z</time>
      </trkpt>
      <trkpt lat="44.99597" lon="6.50985">
        <ele>2183.4</ele>
        <time>2021-02-28T13:43:59Z</time>
      </trkpt>
      <trkpt lat="44.99597" lon="6.50985">
        <ele>2183.6</ele>
        <time>2021-02-28T13:44:00Z</time>
      </trkpt>
      <trkpt lat="44.99597" lon="6.50985">
        <ele>2183.6</ele>
        <time>2021-02-28T13:44:01Z</time>
      </trkpt>
      <trkpt lat="44.99597" lon="6.50985">
        <ele>2183.6</ele>
        <time>2021-02-28T13:44:02Z</time>
      </trkpt>
      <trkpt lat="44.99597" lon="6.50985">
        <ele>2183.4</ele>
        <time>2021-02-28T13:44:03Z</time>
      </trkpt>
      <trkpt lat="44.99597" lon="6.50985">
        <ele>2183.2</ele>
        <time>2021-02-28T13:44:04Z</time>
      </trkpt>
      <trkpt lat="44.99597" lon="6.50985">
        <ele>2183.2</ele>
        <time>2021-02-28T13:44:05Z</time>
      </trkpt>
      <trkpt lat="44.99597" lon="6.50985">
        <ele>2183.6</ele>
        <time>2021-02-28T13:44:06Z</time>
      </trkpt>
      <trkpt lat="44.99597" lon="6.50985">
        <ele>2183.6</ele>
        <time>2021-02-28T13:44:07Z</time>
      </trkpt>
      <trkpt lat="44.99597" lon="6.50985">
        <ele>2183.8</ele>
        <time>2021-02-28T13:44:08Z</time>
      </trkpt>
      <trkpt lat="44.99597" lon="6.50985">
        <ele>2183.6</ele>
        <time>2021-02-28T13:44:09Z</time>
      </trkpt>
      <trkpt lat="44.99597" lon="6.50985">
        <ele>2183.6</ele>
        <time>2021-02-28T13:44:10Z</time>
      </trkpt>
      <trkpt lat="44.99597" lon="6.50985">
        <ele>2183.6</ele>
        <time>2021-02-28T13:44:11Z</time>
      </trkpt>
      <trkpt lat="44.99597" lon="6.50985">
        <ele>2183.6</ele>
        <time>2021-02-28T13:44:12Z</time>
      </trkpt>
      <trkpt lat="44.99597" lon="6.50985">
        <ele>2183.6</ele>
        <time>2021-02-28T13:44:13Z</time>
      </trkpt>
      <trkpt lat="44.99597" lon="6.50985">
        <ele>2183.4</ele>
        <time>2021-02-28T13:44:14Z</time>
      </trkpt>
      <trkpt lat="44.99597" lon="6.50985">
        <ele>2183.4</ele>
        <time>2021-02-28T13:44:15Z</time>
      </trkpt>
      <trkpt lat="44.99597" lon="6.50985">
        <ele>2183.4</ele>
        <time>2021-02-28T13:44:16Z</time>
      </trkpt>
      <trkpt lat="44.99597" lon="6.50985">
        <ele>2183.4</ele>
        <time>2021-02-28T13:44:17Z</time>
      </trkpt>
      <trkpt lat="44.99597" lon="6.50985">
        <ele>2183.4</ele>
        <time>2021-02-28T13:44:18Z</time>
      </trkpt>
      <trkpt lat="44.99597" lon="6.50985">
        <ele>2183.4</ele>
        <time>2021-02-28T13:44:19Z</time>
      </trkpt>
      <trkpt lat="44.99597" lon="6.50985">
        <ele>2183.4</ele>
        <time>2021-02-28T13:44:20Z</time>
      </trkpt>
      <trkpt lat="44.99597" lon="6.50985">
        <ele>2183.4</ele>
        <time>2021-02-28T13:44:21Z</time>
      </trkpt>
      <trkpt lat="44.99597" lon="6.50985">
        <ele>2183.2</ele>
        <time>2021-02-28T13:44:22Z</time>
      </trkpt>
      <trkpt lat="44.99597" lon="6.50985">
        <ele>2183.4</ele>
        <time>2021-02-28T13:44:23Z</time>
      </trkpt>
      <trkpt lat="44.99597" lon="6.50985">
        <ele>2183.4</ele>
        <time>2021-02-28T13:44:24Z</time>
      </trkpt>
      <trkpt lat="44.99597" lon="6.50985">
        <ele>2183.4</ele>
        <time>2021-02-28T13:44:25Z</time>
      </trkpt>
      <trkpt lat="44.99597" lon="6.50985">
        <ele>2183.4</ele>
        <time>2021-02-28T13:44:26Z</time>
      </trkpt>
      <trkpt lat="44.99597" lon="6.50985">
        <ele>2183.4</ele>
        <time>2021-02-28T13:44:27Z</time>
      </trkpt>
      <trkpt lat="44.99597" lon="6.50985">
        <ele>2183.4</ele>
        <time>2021-02-28T13:44:28Z</time>
      </trkpt>
      <trkpt lat="44.99597" lon="6.50985">
        <ele>2183.2</ele>
        <time>2021-02-28T13:44:29Z</time>
      </trkpt>
      <trkpt lat="44.99597" lon="6.50985">
        <ele>2182.8</ele>
        <time>2021-02-28T13:44:30Z</time>
      </trkpt>
      <trkpt lat="44.99597" lon="6.50985">
        <ele>2182.6</ele>
        <time>2021-02-28T13:44:31Z</time>
      </trkpt>
      <trkpt lat="44.99597" lon="6.50985">
        <ele>2182.2</ele>
        <time>2021-02-28T13:44:32Z</time>
      </trkpt>
      <trkpt lat="44.99597" lon="6.50985">
        <ele>2182.4</ele>
        <time>2021-02-28T13:44:33Z</time>
      </trkpt>
      <trkpt lat="44.99597" lon="6.50985">
        <ele>2182.4</ele>
        <time>2021-02-28T13:44:34Z</time>
      </trkpt>
      <trkpt lat="44.99597" lon="6.50985">
        <ele>2182.6</ele>
        <time>2021-02-28T13:44:35Z</time>
      </trkpt>
      <trkpt lat="44.99597" lon="6.50985">
        <ele>2183</ele>
        <time>2021-02-28T13:44:36Z</time>
      </trkpt>
      <trkpt lat="44.99597" lon="6.50985">
        <ele>2182.8</ele>
        <time>2021-02-28T13:44:37Z</time>
      </trkpt>
      <trkpt lat="44.99599" lon="6.50987">
        <ele>2182.4</ele>
        <time>2021-02-28T13:44:38Z</time>
      </trkpt>
      <trkpt lat="44.99599" lon="6.50987">
        <ele>2182.6</ele>
        <time>2021-02-28T13:44:39Z</time>
      </trkpt>
      <trkpt lat="44.99599" lon="6.50987">
        <ele>2182.4</ele>
        <time>2021-02-28T13:44:40Z</time>
      </trkpt>
      <trkpt lat="44.99599" lon="6.50987">
        <ele>2182.4</ele>
        <time>2021-02-28T13:44:41Z</time>
      </trkpt>
      <trkpt lat="44.99599" lon="6.50987">
        <ele>2182.8</ele>
        <time>2021-02-28T13:44:42Z</time>
      </trkpt>
      <trkpt lat="44.99599" lon="6.50987">
        <ele>2182.8</ele>
        <time>2021-02-28T13:44:43Z</time>
      </trkpt>
      <trkpt lat="44.99599" lon="6.50987">
        <ele>2182.8</ele>
        <time>2021-02-28T13:44:44Z</time>
      </trkpt>
      <trkpt lat="44.99599" lon="6.50987">
        <ele>2183</ele>
        <time>2021-02-28T13:44:45Z</time>
      </trkpt>
      <trkpt lat="44.99599" lon="6.50987">
        <ele>2182.8</ele>
        <time>2021-02-28T13:44:46Z</time>
      </trkpt>
      <trkpt lat="44.99599" lon="6.50987">
        <ele>2183</ele>
        <time>2021-02-28T13:44:47Z</time>
      </trkpt>
      <trkpt lat="44.99599" lon="6.50987">
        <ele>2183.2</ele>
        <time>2021-02-28T13:44:48Z</time>
      </trkpt>
      <trkpt lat="44.99599" lon="6.50987">
        <ele>2183.2</ele>
        <time>2021-02-28T13:44:49Z</time>
      </trkpt>
      <trkpt lat="44.99598" lon="6.5099">
        <ele>2182.8</ele>
        <time>2021-02-28T13:44:50Z</time>
      </trkpt>
      <trkpt lat="44.99598" lon="6.5099">
        <ele>2182.6</ele>
        <time>2021-02-28T13:44:51Z</time>
      </trkpt>
      <trkpt lat="44.99596" lon="6.50993">
        <ele>2182.2</ele>
        <time>2021-02-28T13:44:52Z</time>
      </trkpt>
      <trkpt lat="44.99596" lon="6.50993">
        <ele>2182</ele>
        <time>2021-02-28T13:44:53Z</time>
      </trkpt>
      <trkpt lat="44.99596" lon="6.50993">
        <ele>2181.6</ele>
        <time>2021-02-28T13:44:54Z</time>
      </trkpt>
      <trkpt lat="44.99588" lon="6.51005">
        <ele>2181.2</ele>
        <time>2021-02-28T13:44:55Z</time>
      </trkpt>
      <trkpt lat="44.99586" lon="6.51008">
        <ele>2180.6</ele>
        <time>2021-02-28T13:44:56Z</time>
      </trkpt>
      <trkpt lat="44.99584" lon="6.5101">
        <ele>2180.2</ele>
        <time>2021-02-28T13:44:57Z</time>
      </trkpt>
      <trkpt lat="44.99582" lon="6.51014">
        <ele>2180</ele>
        <time>2021-02-28T13:44:58Z</time>
      </trkpt>
      <trkpt lat="44.9958" lon="6.51016">
        <ele>2180</ele>
        <time>2021-02-28T13:44:59Z</time>
      </trkpt>
      <trkpt lat="44.9958" lon="6.51016">
        <ele>2180.2</ele>
        <time>2021-02-28T13:45:00Z</time>
      </trkpt>
      <trkpt lat="44.9958" lon="6.51016">
        <ele>2180.2</ele>
        <time>2021-02-28T13:45:01Z</time>
      </trkpt>
      <trkpt lat="44.9958" lon="6.51016">
        <ele>2180.4</ele>
        <time>2021-02-28T13:45:02Z</time>
      </trkpt>
      <trkpt lat="44.9958" lon="6.51016">
        <ele>2180.4</ele>
        <time>2021-02-28T13:45:03Z</time>
      </trkpt>
      <trkpt lat="44.9958" lon="6.51016">
        <ele>2180.4</ele>
        <time>2021-02-28T13:45:04Z</time>
      </trkpt>
      <trkpt lat="44.9958" lon="6.51016">
        <ele>2180.4</ele>
        <time>2021-02-28T13:45:05Z</time>
      </trkpt>
      <trkpt lat="44.99579" lon="6.51018">
        <ele>2180.4</ele>
        <time>2021-02-28T13:45:06Z</time>
      </trkpt>
      <trkpt lat="44.99579" lon="6.51018">
        <ele>2180.6</ele>
        <time>2021-02-28T13:45:07Z</time>
      </trkpt>
      <trkpt lat="44.99579" lon="6.51018">
        <ele>2180.6</ele>
        <time>2021-02-28T13:45:08Z</time>
      </trkpt>
      <trkpt lat="44.99579" lon="6.51018">
        <ele>2180.8</ele>
        <time>2021-02-28T13:45:09Z</time>
      </trkpt>
      <trkpt lat="44.99579" lon="6.51018">
        <ele>2180.6</ele>
        <time>2021-02-28T13:45:10Z</time>
      </trkpt>
      <trkpt lat="44.99579" lon="6.51018">
        <ele>2180.4</ele>
        <time>2021-02-28T13:45:11Z</time>
      </trkpt>
      <trkpt lat="44.99577" lon="6.5102">
        <ele>2179.8</ele>
        <time>2021-02-28T13:45:12Z</time>
      </trkpt>
      <trkpt lat="44.99577" lon="6.5102">
        <ele>2179.2</ele>
        <time>2021-02-28T13:45:13Z</time>
      </trkpt>
      <trkpt lat="44.99577" lon="6.5102">
        <ele>2179.6</ele>
        <time>2021-02-28T13:45:14Z</time>
      </trkpt>
      <trkpt lat="44.99577" lon="6.5102">
        <ele>2179.4</ele>
        <time>2021-02-28T13:45:15Z</time>
      </trkpt>
      <trkpt lat="44.99577" lon="6.5102">
        <ele>2180</ele>
        <time>2021-02-28T13:45:16Z</time>
      </trkpt>
      <trkpt lat="44.99577" lon="6.5102">
        <ele>2180.2</ele>
        <time>2021-02-28T13:45:17Z</time>
      </trkpt>
      <trkpt lat="44.99577" lon="6.5102">
        <ele>2180.2</ele>
        <time>2021-02-28T13:45:18Z</time>
      </trkpt>
      <trkpt lat="44.99577" lon="6.5102">
        <ele>2180.2</ele>
        <time>2021-02-28T13:45:19Z</time>
      </trkpt>
      <trkpt lat="44.99577" lon="6.5102">
        <ele>2180</ele>
        <time>2021-02-28T13:45:20Z</time>
      </trkpt>
      <trkpt lat="44.99577" lon="6.5102">
        <ele>2180.2</ele>
        <time>2021-02-28T13:45:21Z</time>
      </trkpt>
      <trkpt lat="44.99577" lon="6.5102">
        <ele>2180.2</ele>
        <time>2021-02-28T13:45:22Z</time>
      </trkpt>
      <trkpt lat="44.99577" lon="6.5102">
        <ele>2180</ele>
        <time>2021-02-28T13:45:23Z</time>
      </trkpt>
      <trkpt lat="44.99577" lon="6.5102">
        <ele>2180.2</ele>
        <time>2021-02-28T13:45:24Z</time>
      </trkpt>
      <trkpt lat="44.99577" lon="6.5102">
        <ele>2179.8</ele>
        <time>2021-02-28T13:45:25Z</time>
      </trkpt>
      <trkpt lat="44.99577" lon="6.5102">
        <ele>2179.6</ele>
        <time>2021-02-28T13:45:26Z</time>
      </trkpt>
      <trkpt lat="44.99577" lon="6.5102">
        <ele>2179.6</ele>
        <time>2021-02-28T13:45:27Z</time>
      </trkpt>
      <trkpt lat="44.99577" lon="6.5102">
        <ele>2179.6</ele>
        <time>2021-02-28T13:45:28Z</time>
      </trkpt>
      <trkpt lat="44.99577" lon="6.5102">
        <ele>2179.8</ele>
        <time>2021-02-28T13:45:29Z</time>
      </trkpt>
      <trkpt lat="44.99578" lon="6.51023">
        <ele>2179.8</ele>
        <time>2021-02-28T13:45:30Z</time>
      </trkpt>
      <trkpt lat="44.99578" lon="6.51023">
        <ele>2179.6</ele>
        <time>2021-02-28T13:45:31Z</time>
      </trkpt>
      <trkpt lat="44.99578" lon="6.51023">
        <ele>2179.8</ele>
        <time>2021-02-28T13:45:32Z</time>
      </trkpt>
      <trkpt lat="44.99578" lon="6.51024">
        <ele>2180</ele>
        <time>2021-02-28T13:45:33Z</time>
      </trkpt>
      <trkpt lat="44.99578" lon="6.51024">
        <ele>2180</ele>
        <time>2021-02-28T13:45:34Z</time>
      </trkpt>
      <trkpt lat="44.99579" lon="6.51024">
        <ele>2179.8</ele>
        <time>2021-02-28T13:45:35Z</time>
      </trkpt>
      <trkpt lat="44.99579" lon="6.51025">
        <ele>2179.8</ele>
        <time>2021-02-28T13:45:36Z</time>
      </trkpt>
      <trkpt lat="44.99579" lon="6.51025">
        <ele>2179.8</ele>
        <time>2021-02-28T13:45:37Z</time>
      </trkpt>
      <trkpt lat="44.99579" lon="6.51026">
        <ele>2179.6</ele>
        <time>2021-02-28T13:45:38Z</time>
      </trkpt>
      <trkpt lat="44.9958" lon="6.51026">
        <ele>2179.8</ele>
        <time>2021-02-28T13:45:39Z</time>
      </trkpt>
      <trkpt lat="44.9958" lon="6.51026">
        <ele>2179.8</ele>
        <time>2021-02-28T13:45:40Z</time>
      </trkpt>
      <trkpt lat="44.9958" lon="6.51027">
        <ele>2179.6</ele>
        <time>2021-02-28T13:45:41Z</time>
      </trkpt>
      <trkpt lat="44.9958" lon="6.51027">
        <ele>2179.6</ele>
        <time>2021-02-28T13:45:42Z</time>
      </trkpt>
      <trkpt lat="44.99581" lon="6.51028">
        <ele>2179.6</ele>
        <time>2021-02-28T13:45:43Z</time>
      </trkpt>
      <trkpt lat="44.99581" lon="6.51028">
        <ele>2179.2</ele>
        <time>2021-02-28T13:45:44Z</time>
      </trkpt>
      <trkpt lat="44.99581" lon="6.51028">
        <ele>2179.4</ele>
        <time>2021-02-28T13:45:45Z</time>
      </trkpt>
      <trkpt lat="44.99581" lon="6.51029">
        <ele>2179.4</ele>
        <time>2021-02-28T13:45:46Z</time>
      </trkpt>
      <trkpt lat="44.99582" lon="6.51029">
        <ele>2179.2</ele>
        <time>2021-02-28T13:45:47Z</time>
      </trkpt>
      <trkpt lat="44.99582" lon="6.5103">
        <ele>2179.2</ele>
        <time>2021-02-28T13:45:48Z</time>
      </trkpt>
      <trkpt lat="44.99582" lon="6.5103">
        <ele>2179.4</ele>
        <time>2021-02-28T13:45:49Z</time>
      </trkpt>
      <trkpt lat="44.99582" lon="6.5103">
        <ele>2179.2</ele>
        <time>2021-02-28T13:45:50Z</time>
      </trkpt>
      <trkpt lat="44.99582" lon="6.5103">
        <ele>2179.2</ele>
        <time>2021-02-28T13:45:51Z</time>
      </trkpt>
      <trkpt lat="44.99582" lon="6.5103">
        <ele>2179.2</ele>
        <time>2021-02-28T13:45:52Z</time>
      </trkpt>
      <trkpt lat="44.99582" lon="6.5103">
        <ele>2179.2</ele>
        <time>2021-02-28T13:45:53Z</time>
      </trkpt>
      <trkpt lat="44.99582" lon="6.5103">
        <ele>2179.2</ele>
        <time>2021-02-28T13:45:54Z</time>
      </trkpt>
      <trkpt lat="44.99582" lon="6.5103">
        <ele>2179.2</ele>
        <time>2021-02-28T13:45:55Z</time>
      </trkpt>
      <trkpt lat="44.99582" lon="6.5103">
        <ele>2179.2</ele>
        <time>2021-02-28T13:45:56Z</time>
      </trkpt>
      <trkpt lat="44.99582" lon="6.5103">
        <ele>2179.2</ele>
        <time>2021-02-28T13:45:57Z</time>
      </trkpt>
      <trkpt lat="44.99582" lon="6.5103">
        <ele>2179.6</ele>
        <time>2021-02-28T13:45:58Z</time>
      </trkpt>
      <trkpt lat="44.99582" lon="6.5103">
        <ele>2179.6</ele>
        <time>2021-02-28T13:45:59Z</time>
      </trkpt>
      <trkpt lat="44.99582" lon="6.5103">
        <ele>2179.6</ele>
        <time>2021-02-28T13:46:00Z</time>
      </trkpt>
      <trkpt lat="44.99582" lon="6.5103">
        <ele>2179.6</ele>
        <time>2021-02-28T13:46:01Z</time>
      </trkpt>
      <trkpt lat="44.99582" lon="6.5103">
        <ele>2179.2</ele>
        <time>2021-02-28T13:46:02Z</time>
      </trkpt>
      <trkpt lat="44.99582" lon="6.5103">
        <ele>2179.4</ele>
        <time>2021-02-28T13:46:03Z</time>
      </trkpt>
      <trkpt lat="44.9958" lon="6.5103">
        <ele>2179.4</ele>
        <time>2021-02-28T13:46:04Z</time>
      </trkpt>
      <trkpt lat="44.9958" lon="6.5103">
        <ele>2179.4</ele>
        <time>2021-02-28T13:46:05Z</time>
      </trkpt>
      <trkpt lat="44.9958" lon="6.5103">
        <ele>2179.4</ele>
        <time>2021-02-28T13:46:06Z</time>
      </trkpt>
      <trkpt lat="44.9958" lon="6.5103">
        <ele>2179.4</ele>
        <time>2021-02-28T13:46:07Z</time>
      </trkpt>
      <trkpt lat="44.9958" lon="6.5103">
        <ele>2179.2</ele>
        <time>2021-02-28T13:46:08Z</time>
      </trkpt>
      <trkpt lat="44.9958" lon="6.5103">
        <ele>2179.4</ele>
        <time>2021-02-28T13:46:09Z</time>
      </trkpt>
      <trkpt lat="44.9958" lon="6.5103">
        <ele>2179.4</ele>
        <time>2021-02-28T13:46:10Z</time>
      </trkpt>
      <trkpt lat="44.9958" lon="6.5103">
        <ele>2179.2</ele>
        <time>2021-02-28T13:46:11Z</time>
      </trkpt>
      <trkpt lat="44.9958" lon="6.5103">
        <ele>2179</ele>
        <time>2021-02-28T13:46:12Z</time>
      </trkpt>
      <trkpt lat="44.9958" lon="6.5103">
        <ele>2178.8</ele>
        <time>2021-02-28T13:46:13Z</time>
      </trkpt>
      <trkpt lat="44.9958" lon="6.5103">
        <ele>2178.8</ele>
        <time>2021-02-28T13:46:14Z</time>
      </trkpt>
      <trkpt lat="44.9958" lon="6.5103">
        <ele>2179</ele>
        <time>2021-02-28T13:46:15Z</time>
      </trkpt>
      <trkpt lat="44.9958" lon="6.5103">
        <ele>2179.2</ele>
        <time>2021-02-28T13:46:16Z</time>
      </trkpt>
      <trkpt lat="44.9958" lon="6.5103">
        <ele>2179.2</ele>
        <time>2021-02-28T13:46:17Z</time>
      </trkpt>
      <trkpt lat="44.9958" lon="6.5103">
        <ele>2179.2</ele>
        <time>2021-02-28T13:46:18Z</time>
      </trkpt>
      <trkpt lat="44.9958" lon="6.5103">
        <ele>2179</ele>
        <time>2021-02-28T13:46:19Z</time>
      </trkpt>
      <trkpt lat="44.9958" lon="6.5103">
        <ele>2179.2</ele>
        <time>2021-02-28T13:46:20Z</time>
      </trkpt>
      <trkpt lat="44.9958" lon="6.5103">
        <ele>2179</ele>
        <time>2021-02-28T13:46:21Z</time>
      </trkpt>
      <trkpt lat="44.9958" lon="6.5103">
        <ele>2178.8</ele>
        <time>2021-02-28T13:46:22Z</time>
      </trkpt>
      <trkpt lat="44.9958" lon="6.5103">
        <ele>2178.8</ele>
        <time>2021-02-28T13:46:23Z</time>
      </trkpt>
      <trkpt lat="44.9958" lon="6.5103">
        <ele>2178.8</ele>
        <time>2021-02-28T13:46:24Z</time>
      </trkpt>
      <trkpt lat="44.9958" lon="6.5103">
        <ele>2178.6</ele>
        <time>2021-02-28T13:46:25Z</time>
      </trkpt>
      <trkpt lat="44.9958" lon="6.51027">
        <ele>2178.6</ele>
        <time>2021-02-28T13:46:26Z</time>
      </trkpt>
      <trkpt lat="44.9958" lon="6.51027">
        <ele>2178.4</ele>
        <time>2021-02-28T13:46:27Z</time>
      </trkpt>
      <trkpt lat="44.9958" lon="6.51027">
        <ele>2178.6</ele>
        <time>2021-02-28T13:46:28Z</time>
      </trkpt>
      <trkpt lat="44.9958" lon="6.51027">
        <ele>2178.4</ele>
        <time>2021-02-28T13:46:29Z</time>
      </trkpt>
      <trkpt lat="44.9958" lon="6.51027">
        <ele>2178.4</ele>
        <time>2021-02-28T13:46:30Z</time>
      </trkpt>
      <trkpt lat="44.9958" lon="6.51027">
        <ele>2178.6</ele>
        <time>2021-02-28T13:46:31Z</time>
      </trkpt>
      <trkpt lat="44.9958" lon="6.51027">
        <ele>2178.6</ele>
        <time>2021-02-28T13:46:32Z</time>
      </trkpt>
      <trkpt lat="44.9958" lon="6.51027">
        <ele>2178.6</ele>
        <time>2021-02-28T13:46:33Z</time>
      </trkpt>
      <trkpt lat="44.9958" lon="6.51027">
        <ele>2178.6</ele>
        <time>2021-02-28T13:46:34Z</time>
      </trkpt>
      <trkpt lat="44.9958" lon="6.51027">
        <ele>2178.8</ele>
        <time>2021-02-28T13:46:35Z</time>
      </trkpt>
      <trkpt lat="44.9958" lon="6.51027">
        <ele>2178.8</ele>
        <time>2021-02-28T13:46:36Z</time>
      </trkpt>
      <trkpt lat="44.9958" lon="6.51027">
        <ele>2178.6</ele>
        <time>2021-02-28T13:46:37Z</time>
      </trkpt>
      <trkpt lat="44.9958" lon="6.51027">
        <ele>2178.6</ele>
        <time>2021-02-28T13:46:38Z</time>
      </trkpt>
      <trkpt lat="44.9958" lon="6.51027">
        <ele>2178.8</ele>
        <time>2021-02-28T13:46:39Z</time>
      </trkpt>
      <trkpt lat="44.9958" lon="6.51027">
        <ele>2178.8</ele>
        <time>2021-02-28T13:46:40Z</time>
      </trkpt>
      <trkpt lat="44.9958" lon="6.51027">
        <ele>2178.8</ele>
        <time>2021-02-28T13:46:41Z</time>
      </trkpt>
      <trkpt lat="44.9958" lon="6.51027">
        <ele>2178.8</ele>
        <time>2021-02-28T13:46:42Z</time>
      </trkpt>
      <trkpt lat="44.9958" lon="6.51027">
        <ele>2178.8</ele>
        <time>2021-02-28T13:46:43Z</time>
      </trkpt>
      <trkpt lat="44.9958" lon="6.51027">
        <ele>2178.8</ele>
        <time>2021-02-28T13:46:44Z</time>
      </trkpt>
      <trkpt lat="44.9958" lon="6.51027">
        <ele>2178.6</ele>
        <time>2021-02-28T13:46:45Z</time>
      </trkpt>
      <trkpt lat="44.9958" lon="6.51027">
        <ele>2178.6</ele>
        <time>2021-02-28T13:46:46Z</time>
      </trkpt>
      <trkpt lat="44.9958" lon="6.51027">
        <ele>2178.8</ele>
        <time>2021-02-28T13:46:47Z</time>
      </trkpt>
      <trkpt lat="44.9958" lon="6.51027">
        <ele>2179</ele>
        <time>2021-02-28T13:46:48Z</time>
      </trkpt>
      <trkpt lat="44.9958" lon="6.51027">
        <ele>2179.4</ele>
        <time>2021-02-28T13:46:49Z</time>
      </trkpt>
      <trkpt lat="44.9958" lon="6.51027">
        <ele>2179.2</ele>
        <time>2021-02-28T13:46:50Z</time>
      </trkpt>
      <trkpt lat="44.9958" lon="6.51027">
        <ele>2179.2</ele>
        <time>2021-02-28T13:46:51Z</time>
      </trkpt>
      <trkpt lat="44.9958" lon="6.51027">
        <ele>2179</ele>
        <time>2021-02-28T13:46:52Z</time>
      </trkpt>
      <trkpt lat="44.9958" lon="6.51027">
        <ele>2178.8</ele>
        <time>2021-02-28T13:46:53Z</time>
      </trkpt>
      <trkpt lat="44.9958" lon="6.51027">
        <ele>2179</ele>
        <time>2021-02-28T13:46:54Z</time>
      </trkpt>
      <trkpt lat="44.99577" lon="6.51025">
        <ele>2178.8</ele>
        <time>2021-02-28T13:46:55Z</time>
      </trkpt>
      <trkpt lat="44.99577" lon="6.51025">
        <ele>2178.8</ele>
        <time>2021-02-28T13:46:56Z</time>
      </trkpt>
      <trkpt lat="44.99575" lon="6.51028">
        <ele>2178.4</ele>
        <time>2021-02-28T13:46:57Z</time>
      </trkpt>
      <trkpt lat="44.99572" lon="6.5103">
        <ele>2178</ele>
        <time>2021-02-28T13:46:58Z</time>
      </trkpt>
      <trkpt lat="44.99568" lon="6.51031">
        <ele>2177.6</ele>
        <time>2021-02-28T13:46:59Z</time>
      </trkpt>
      <trkpt lat="44.99562" lon="6.51032">
        <ele>2176.6</ele>
        <time>2021-02-28T13:47:00Z</time>
      </trkpt>
      <trkpt lat="44.99556" lon="6.51036">
        <ele>2175</ele>
        <time>2021-02-28T13:47:01Z</time>
      </trkpt>
      <trkpt lat="44.99551" lon="6.51043">
        <ele>2173.4</ele>
        <time>2021-02-28T13:47:02Z</time>
      </trkpt>
      <trkpt lat="44.99547" lon="6.51051">
        <ele>2171.8</ele>
        <time>2021-02-28T13:47:03Z</time>
      </trkpt>
      <trkpt lat="44.99544" lon="6.51058">
        <ele>2169.8</ele>
        <time>2021-02-28T13:47:04Z</time>
      </trkpt>
      <trkpt lat="44.99542" lon="6.51065">
        <ele>2167.2</ele>
        <time>2021-02-28T13:47:05Z</time>
      </trkpt>
      <trkpt lat="44.9954" lon="6.5107">
        <ele>2166.2</ele>
        <time>2021-02-28T13:47:06Z</time>
      </trkpt>
      <trkpt lat="44.99538" lon="6.5107">
        <ele>2164.8</ele>
        <time>2021-02-28T13:47:07Z</time>
      </trkpt>
      <trkpt lat="44.99536" lon="6.51066">
        <ele>2164.4</ele>
        <time>2021-02-28T13:47:08Z</time>
      </trkpt>
      <trkpt lat="44.99532" lon="6.51064">
        <ele>2164</ele>
        <time>2021-02-28T13:47:09Z</time>
      </trkpt>
      <trkpt lat="44.99528" lon="6.51062">
        <ele>2163</ele>
        <time>2021-02-28T13:47:10Z</time>
      </trkpt>
      <trkpt lat="44.99521" lon="6.51061">
        <ele>2162</ele>
        <time>2021-02-28T13:47:11Z</time>
      </trkpt>
      <trkpt lat="44.99513" lon="6.51063">
        <ele>2160.2</ele>
        <time>2021-02-28T13:47:12Z</time>
      </trkpt>
      <trkpt lat="44.99513" lon="6.51063">
        <ele>2157.6</ele>
        <time>2021-02-28T13:47:13Z</time>
      </trkpt>
      <trkpt lat="44.99502" lon="6.51077">
        <ele>2154.8</ele>
        <time>2021-02-28T13:47:14Z</time>
      </trkpt>
      <trkpt lat="44.995" lon="6.51082">
        <ele>2152.4</ele>
        <time>2021-02-28T13:47:15Z</time>
      </trkpt>
      <trkpt lat="44.99498" lon="6.51086">
        <ele>2150.2</ele>
        <time>2021-02-28T13:47:16Z</time>
      </trkpt>
      <trkpt lat="44.9949" lon="6.51096">
        <ele>2148</ele>
        <time>2021-02-28T13:47:17Z</time>
      </trkpt>
      <trkpt lat="44.99487" lon="6.51097">
        <ele>2146.8</ele>
        <time>2021-02-28T13:47:18Z</time>
      </trkpt>
      <trkpt lat="44.99478" lon="6.511">
        <ele>2145.8</ele>
        <time>2021-02-28T13:47:19Z</time>
      </trkpt>
      <trkpt lat="44.99475" lon="6.51102">
        <ele>2144.2</ele>
        <time>2021-02-28T13:47:20Z</time>
      </trkpt>
      <trkpt lat="44.99469" lon="6.51105">
        <ele>2142.6</ele>
        <time>2021-02-28T13:47:21Z</time>
      </trkpt>
      <trkpt lat="44.99468" lon="6.51106">
        <ele>2142</ele>
        <time>2021-02-28T13:47:22Z</time>
      </trkpt>
      <trkpt lat="44.99468" lon="6.51106">
        <ele>2141.2</ele>
        <time>2021-02-28T13:47:23Z</time>
      </trkpt>
      <trkpt lat="44.99468" lon="6.51106">
        <ele>2141</ele>
        <time>2021-02-28T13:47:24Z</time>
      </trkpt>
      <trkpt lat="44.99468" lon="6.51106">
        <ele>2140.6</ele>
        <time>2021-02-28T13:47:25Z</time>
      </trkpt>
      <trkpt lat="44.99468" lon="6.51106">
        <ele>2140.4</ele>
        <time>2021-02-28T13:47:26Z</time>
      </trkpt>
      <trkpt lat="44.99468" lon="6.51106">
        <ele>2140.2</ele>
        <time>2021-02-28T13:47:27Z</time>
      </trkpt>
      <trkpt lat="44.99468" lon="6.51106">
        <ele>2140</ele>
        <time>2021-02-28T13:47:28Z</time>
      </trkpt>
      <trkpt lat="44.99468" lon="6.51106">
        <ele>2139.6</ele>
        <time>2021-02-28T13:47:29Z</time>
      </trkpt>
      <trkpt lat="44.99468" lon="6.51106">
        <ele>2139.4</ele>
        <time>2021-02-28T13:47:30Z</time>
      </trkpt>
      <trkpt lat="44.99468" lon="6.51106">
        <ele>2139.2</ele>
        <time>2021-02-28T13:47:31Z</time>
      </trkpt>
      <trkpt lat="44.99467" lon="6.51103">
        <ele>2139.4</ele>
        <time>2021-02-28T13:47:32Z</time>
      </trkpt>
      <trkpt lat="44.99467" lon="6.51103">
        <ele>2138.6</ele>
        <time>2021-02-28T13:47:33Z</time>
      </trkpt>
      <trkpt lat="44.99464" lon="6.51103">
        <ele>2137.8</ele>
        <time>2021-02-28T13:47:34Z</time>
      </trkpt>
      <trkpt lat="44.99464" lon="6.51103">
        <ele>2137.4</ele>
        <time>2021-02-28T13:47:35Z</time>
      </trkpt>
      <trkpt lat="44.99464" lon="6.51103">
        <ele>2136.8</ele>
        <time>2021-02-28T13:47:36Z</time>
      </trkpt>
      <trkpt lat="44.99455" lon="6.51111">
        <ele>2136</ele>
        <time>2021-02-28T13:47:37Z</time>
      </trkpt>
      <trkpt lat="44.99455" lon="6.51111">
        <ele>2135.2</ele>
        <time>2021-02-28T13:47:38Z</time>
      </trkpt>
      <trkpt lat="44.99455" lon="6.51111">
        <ele>2134.4</ele>
        <time>2021-02-28T13:47:39Z</time>
      </trkpt>
      <trkpt lat="44.99456" lon="6.51114">
        <ele>2134</ele>
        <time>2021-02-28T13:47:40Z</time>
      </trkpt>
      <trkpt lat="44.99456" lon="6.51116">
        <ele>2133.4</ele>
        <time>2021-02-28T13:47:41Z</time>
      </trkpt>
      <trkpt lat="44.99456" lon="6.51118">
        <ele>2133.4</ele>
        <time>2021-02-28T13:47:42Z</time>
      </trkpt>
      <trkpt lat="44.99457" lon="6.51121">
        <ele>2134</ele>
        <time>2021-02-28T13:47:43Z</time>
      </trkpt>
      <trkpt lat="44.99457" lon="6.51123">
        <ele>2133.8</ele>
        <time>2021-02-28T13:47:44Z</time>
      </trkpt>
      <trkpt lat="44.99458" lon="6.51126">
        <ele>2133.4</ele>
        <time>2021-02-28T13:47:45Z</time>
      </trkpt>
      <trkpt lat="44.99457" lon="6.51127">
        <ele>2133.6</ele>
        <time>2021-02-28T13:47:46Z</time>
      </trkpt>
      <trkpt lat="44.99457" lon="6.51129">
        <ele>2133.6</ele>
        <time>2021-02-28T13:47:47Z</time>
      </trkpt>
      <trkpt lat="44.99457" lon="6.51131">
        <ele>2133.6</ele>
        <time>2021-02-28T13:47:48Z</time>
      </trkpt>
      <trkpt lat="44.99457" lon="6.51133">
        <ele>2133.2</ele>
        <time>2021-02-28T13:47:49Z</time>
      </trkpt>
      <trkpt lat="44.99457" lon="6.51135">
        <ele>2132.8</ele>
        <time>2021-02-28T13:47:50Z</time>
      </trkpt>
      <trkpt lat="44.99457" lon="6.51137">
        <ele>2131.8</ele>
        <time>2021-02-28T13:47:51Z</time>
      </trkpt>
      <trkpt lat="44.99457" lon="6.51138">
        <ele>2132.2</ele>
        <time>2021-02-28T13:47:52Z</time>
      </trkpt>
      <trkpt lat="44.99452" lon="6.51135">
        <ele>2132.6</ele>
        <time>2021-02-28T13:47:53Z</time>
      </trkpt>
      <trkpt lat="44.99452" lon="6.51133">
        <ele>2132.4</ele>
        <time>2021-02-28T13:47:54Z</time>
      </trkpt>
      <trkpt lat="44.99452" lon="6.5113">
        <ele>2132.6</ele>
        <time>2021-02-28T13:47:55Z</time>
      </trkpt>
      <trkpt lat="44.99451" lon="6.51128">
        <ele>2132.4</ele>
        <time>2021-02-28T13:47:56Z</time>
      </trkpt>
      <trkpt lat="44.99451" lon="6.51128">
        <ele>2132.4</ele>
        <time>2021-02-28T13:47:57Z</time>
      </trkpt>
      <trkpt lat="44.9945" lon="6.51125">
        <ele>2132.2</ele>
        <time>2021-02-28T13:47:58Z</time>
      </trkpt>
      <trkpt lat="44.9945" lon="6.51125">
        <ele>2132.4</ele>
        <time>2021-02-28T13:47:59Z</time>
      </trkpt>
      <trkpt lat="44.9945" lon="6.51125">
        <ele>2132</ele>
        <time>2021-02-28T13:48:00Z</time>
      </trkpt>
      <trkpt lat="44.99449" lon="6.51119">
        <ele>2130.4</ele>
        <time>2021-02-28T13:48:01Z</time>
      </trkpt>
      <trkpt lat="44.99448" lon="6.51114">
        <ele>2130.2</ele>
        <time>2021-02-28T13:48:02Z</time>
      </trkpt>
      <trkpt lat="44.99448" lon="6.51108">
        <ele>2129.4</ele>
        <time>2021-02-28T13:48:03Z</time>
      </trkpt>
      <trkpt lat="44.99447" lon="6.51103">
        <ele>2129.2</ele>
        <time>2021-02-28T13:48:04Z</time>
      </trkpt>
      <trkpt lat="44.99447" lon="6.51096">
        <ele>2128.6</ele>
        <time>2021-02-28T13:48:05Z</time>
      </trkpt>
      <trkpt lat="44.99447" lon="6.51096">
        <ele>2128.4</ele>
        <time>2021-02-28T13:48:06Z</time>
      </trkpt>
      <trkpt lat="44.99447" lon="6.51096">
        <ele>2128</ele>
        <time>2021-02-28T13:48:07Z</time>
      </trkpt>
      <trkpt lat="44.99446" lon="6.51095">
        <ele>2127.6</ele>
        <time>2021-02-28T13:48:08Z</time>
      </trkpt>
      <trkpt lat="44.99445" lon="6.51094">
        <ele>2127</ele>
        <time>2021-02-28T13:48:09Z</time>
      </trkpt>
      <trkpt lat="44.99444" lon="6.51094">
        <ele>2126.6</ele>
        <time>2021-02-28T13:48:10Z</time>
      </trkpt>
      <trkpt lat="44.99443" lon="6.51093">
        <ele>2125.2</ele>
        <time>2021-02-28T13:48:11Z</time>
      </trkpt>
      <trkpt lat="44.99442" lon="6.51092">
        <ele>2124.2</ele>
        <time>2021-02-28T13:48:12Z</time>
      </trkpt>
      <trkpt lat="44.99441" lon="6.51092">
        <ele>2122.8</ele>
        <time>2021-02-28T13:48:13Z</time>
      </trkpt>
      <trkpt lat="44.9944" lon="6.51091">
        <ele>2121.4</ele>
        <time>2021-02-28T13:48:14Z</time>
      </trkpt>
      <trkpt lat="44.99439" lon="6.5109">
        <ele>2120.4</ele>
        <time>2021-02-28T13:48:15Z</time>
      </trkpt>
      <trkpt lat="44.99438" lon="6.5109">
        <ele>2119</ele>
        <time>2021-02-28T13:48:16Z</time>
      </trkpt>
      <trkpt lat="44.99435" lon="6.51087">
        <ele>2117.4</ele>
        <time>2021-02-28T13:48:17Z</time>
      </trkpt>
      <trkpt lat="44.99432" lon="6.51085">
        <ele>2116</ele>
        <time>2021-02-28T13:48:18Z</time>
      </trkpt>
      <trkpt lat="44.99429" lon="6.51082">
        <ele>2114.6</ele>
        <time>2021-02-28T13:48:19Z</time>
      </trkpt>
      <trkpt lat="44.99426" lon="6.5108">
        <ele>2113</ele>
        <time>2021-02-28T13:48:20Z</time>
      </trkpt>
      <trkpt lat="44.99423" lon="6.51074">
        <ele>2111.8</ele>
        <time>2021-02-28T13:48:21Z</time>
      </trkpt>
      <trkpt lat="44.99423" lon="6.51074">
        <ele>2110.8</ele>
        <time>2021-02-28T13:48:22Z</time>
      </trkpt>
      <trkpt lat="44.99423" lon="6.51074">
        <ele>2108.4</ele>
        <time>2021-02-28T13:48:23Z</time>
      </trkpt>
      <trkpt lat="44.99423" lon="6.51056">
        <ele>2107.4</ele>
        <time>2021-02-28T13:48:24Z</time>
      </trkpt>
      <trkpt lat="44.99423" lon="6.51056">
        <ele>2106.6</ele>
        <time>2021-02-28T13:48:25Z</time>
      </trkpt>
      <trkpt lat="44.99423" lon="6.51056">
        <ele>2106.2</ele>
        <time>2021-02-28T13:48:26Z</time>
      </trkpt>
      <trkpt lat="44.99423" lon="6.51054">
        <ele>2105.8</ele>
        <time>2021-02-28T13:48:27Z</time>
      </trkpt>
      <trkpt lat="44.99423" lon="6.51051">
        <ele>2106</ele>
        <time>2021-02-28T13:48:28Z</time>
      </trkpt>
      <trkpt lat="44.99423" lon="6.51049">
        <ele>2105.8</ele>
        <time>2021-02-28T13:48:29Z</time>
      </trkpt>
      <trkpt lat="44.99423" lon="6.51047">
        <ele>2105.6</ele>
        <time>2021-02-28T13:48:30Z</time>
      </trkpt>
      <trkpt lat="44.99423" lon="6.51044">
        <ele>2105.4</ele>
        <time>2021-02-28T13:48:31Z</time>
      </trkpt>
      <trkpt lat="44.99423" lon="6.51042">
        <ele>2104.8</ele>
        <time>2021-02-28T13:48:32Z</time>
      </trkpt>
      <trkpt lat="44.99423" lon="6.51039">
        <ele>2104.4</ele>
        <time>2021-02-28T13:48:33Z</time>
      </trkpt>
      <trkpt lat="44.99422" lon="6.51037">
        <ele>2103.2</ele>
        <time>2021-02-28T13:48:34Z</time>
      </trkpt>
      <trkpt lat="44.99422" lon="6.51034">
        <ele>2102.6</ele>
        <time>2021-02-28T13:48:35Z</time>
      </trkpt>
      <trkpt lat="44.99423" lon="6.51028">
        <ele>2102.2</ele>
        <time>2021-02-28T13:48:36Z</time>
      </trkpt>
      <trkpt lat="44.99423" lon="6.51028">
        <ele>2102.2</ele>
        <time>2021-02-28T13:48:37Z</time>
      </trkpt>
      <trkpt lat="44.99423" lon="6.51028">
        <ele>2101.8</ele>
        <time>2021-02-28T13:48:38Z</time>
      </trkpt>
      <trkpt lat="44.99423" lon="6.51028">
        <ele>2102.2</ele>
        <time>2021-02-28T13:48:39Z</time>
      </trkpt>
      <trkpt lat="44.99423" lon="6.51028">
        <ele>2101.8</ele>
        <time>2021-02-28T13:48:40Z</time>
      </trkpt>
      <trkpt lat="44.99423" lon="6.51028">
        <ele>2101.4</ele>
        <time>2021-02-28T13:48:41Z</time>
      </trkpt>
      <trkpt lat="44.99423" lon="6.51028">
        <ele>2100.8</ele>
        <time>2021-02-28T13:48:42Z</time>
      </trkpt>
      <trkpt lat="44.99423" lon="6.51028">
        <ele>2100.8</ele>
        <time>2021-02-28T13:48:43Z</time>
      </trkpt>
      <trkpt lat="44.99423" lon="6.51028">
        <ele>2100.4</ele>
        <time>2021-02-28T13:48:44Z</time>
      </trkpt>
      <trkpt lat="44.99423" lon="6.51028">
        <ele>2100.2</ele>
        <time>2021-02-28T13:48:45Z</time>
      </trkpt>
      <trkpt lat="44.99423" lon="6.51028">
        <ele>2099.6</ele>
        <time>2021-02-28T13:48:46Z</time>
      </trkpt>
      <trkpt lat="44.99423" lon="6.51028">
        <ele>2099.6</ele>
        <time>2021-02-28T13:48:47Z</time>
      </trkpt>
      <trkpt lat="44.99423" lon="6.51028">
        <ele>2099.6</ele>
        <time>2021-02-28T13:48:48Z</time>
      </trkpt>
      <trkpt lat="44.99423" lon="6.51028">
        <ele>2100</ele>
        <time>2021-02-28T13:48:49Z</time>
      </trkpt>
      <trkpt lat="44.99423" lon="6.51028">
        <ele>2100</ele>
        <time>2021-02-28T13:48:50Z</time>
      </trkpt>
      <trkpt lat="44.99423" lon="6.51028">
        <ele>2099.8</ele>
        <time>2021-02-28T13:48:51Z</time>
      </trkpt>
      <trkpt lat="44.99423" lon="6.51028">
        <ele>2098.8</ele>
        <time>2021-02-28T13:48:52Z</time>
      </trkpt>
      <trkpt lat="44.99423" lon="6.51028">
        <ele>2099</ele>
        <time>2021-02-28T13:48:53Z</time>
      </trkpt>
      <trkpt lat="44.99421" lon="6.51031">
        <ele>2099.4</ele>
        <time>2021-02-28T13:48:54Z</time>
      </trkpt>
      <trkpt lat="44.99421" lon="6.51031">
        <ele>2099.6</ele>
        <time>2021-02-28T13:48:55Z</time>
      </trkpt>
      <trkpt lat="44.99421" lon="6.51031">
        <ele>2099.8</ele>
        <time>2021-02-28T13:48:56Z</time>
      </trkpt>
      <trkpt lat="44.99421" lon="6.51031">
        <ele>2099.6</ele>
        <time>2021-02-28T13:48:57Z</time>
      </trkpt>
      <trkpt lat="44.99421" lon="6.51031">
        <ele>2099.4</ele>
        <time>2021-02-28T13:48:58Z</time>
      </trkpt>
      <trkpt lat="44.99421" lon="6.51031">
        <ele>2099.4</ele>
        <time>2021-02-28T13:48:59Z</time>
      </trkpt>
      <trkpt lat="44.99421" lon="6.51031">
        <ele>2099</ele>
        <time>2021-02-28T13:49:00Z</time>
      </trkpt>
      <trkpt lat="44.99421" lon="6.51031">
        <ele>2098.8</ele>
        <time>2021-02-28T13:49:01Z</time>
      </trkpt>
      <trkpt lat="44.99421" lon="6.51031">
        <ele>2099.2</ele>
        <time>2021-02-28T13:49:02Z</time>
      </trkpt>
      <trkpt lat="44.9942" lon="6.5103">
        <ele>2099.2</ele>
        <time>2021-02-28T13:49:03Z</time>
      </trkpt>
      <trkpt lat="44.9942" lon="6.5103">
        <ele>2098.8</ele>
        <time>2021-02-28T13:49:04Z</time>
      </trkpt>
      <trkpt lat="44.9942" lon="6.5103">
        <ele>2098.8</ele>
        <time>2021-02-28T13:49:05Z</time>
      </trkpt>
      <trkpt lat="44.9942" lon="6.5103">
        <ele>2099</ele>
        <time>2021-02-28T13:49:06Z</time>
      </trkpt>
      <trkpt lat="44.99418" lon="6.51027">
        <ele>2099.2</ele>
        <time>2021-02-28T13:49:07Z</time>
      </trkpt>
      <trkpt lat="44.99418" lon="6.51027">
        <ele>2098.8</ele>
        <time>2021-02-28T13:49:08Z</time>
      </trkpt>
      <trkpt lat="44.99418" lon="6.51027">
        <ele>2098.6</ele>
        <time>2021-02-28T13:49:09Z</time>
      </trkpt>
      <trkpt lat="44.99418" lon="6.51027">
        <ele>2098.8</ele>
        <time>2021-02-28T13:49:10Z</time>
      </trkpt>
      <trkpt lat="44.99418" lon="6.51027">
        <ele>2098.4</ele>
        <time>2021-02-28T13:49:11Z</time>
      </trkpt>
      <trkpt lat="44.99418" lon="6.51027">
        <ele>2098.8</ele>
        <time>2021-02-28T13:49:12Z</time>
      </trkpt>
      <trkpt lat="44.99418" lon="6.51027">
        <ele>2098</ele>
        <time>2021-02-28T13:49:13Z</time>
      </trkpt>
      <trkpt lat="44.99418" lon="6.51027">
        <ele>2097.4</ele>
        <time>2021-02-28T13:49:14Z</time>
      </trkpt>
      <trkpt lat="44.99418" lon="6.51027">
        <ele>2097.2</ele>
        <time>2021-02-28T13:49:15Z</time>
      </trkpt>
      <trkpt lat="44.99418" lon="6.51027">
        <ele>2097</ele>
        <time>2021-02-28T13:49:16Z</time>
      </trkpt>
      <trkpt lat="44.99418" lon="6.51027">
        <ele>2096.8</ele>
        <time>2021-02-28T13:49:17Z</time>
      </trkpt>
      <trkpt lat="44.99418" lon="6.51027">
        <ele>2096.6</ele>
        <time>2021-02-28T13:49:18Z</time>
      </trkpt>
      <trkpt lat="44.99418" lon="6.51027">
        <ele>2096.6</ele>
        <time>2021-02-28T13:49:19Z</time>
      </trkpt>
      <trkpt lat="44.99418" lon="6.51027">
        <ele>2096</ele>
        <time>2021-02-28T13:49:20Z</time>
      </trkpt>
      <trkpt lat="44.99418" lon="6.51027">
        <ele>2096.2</ele>
        <time>2021-02-28T13:49:21Z</time>
      </trkpt>
      <trkpt lat="44.99418" lon="6.51027">
        <ele>2096</ele>
        <time>2021-02-28T13:49:22Z</time>
      </trkpt>
      <trkpt lat="44.99418" lon="6.51027">
        <ele>2095.2</ele>
        <time>2021-02-28T13:49:23Z</time>
      </trkpt>
      <trkpt lat="44.99418" lon="6.51027">
        <ele>2095.8</ele>
        <time>2021-02-28T13:49:24Z</time>
      </trkpt>
      <trkpt lat="44.99418" lon="6.51027">
        <ele>2095.8</ele>
        <time>2021-02-28T13:49:25Z</time>
      </trkpt>
      <trkpt lat="44.99418" lon="6.51027">
        <ele>2096.4</ele>
        <time>2021-02-28T13:49:26Z</time>
      </trkpt>
      <trkpt lat="44.99418" lon="6.51027">
        <ele>2096.4</ele>
        <time>2021-02-28T13:49:27Z</time>
      </trkpt>
      <trkpt lat="44.99418" lon="6.51027">
        <ele>2096.2</ele>
        <time>2021-02-28T13:49:28Z</time>
      </trkpt>
      <trkpt lat="44.99418" lon="6.5103">
        <ele>2096.2</ele>
        <time>2021-02-28T13:49:29Z</time>
      </trkpt>
      <trkpt lat="44.99418" lon="6.5103">
        <ele>2096.2</ele>
        <time>2021-02-28T13:49:30Z</time>
      </trkpt>
      <trkpt lat="44.99418" lon="6.5103">
        <ele>2096.6</ele>
        <time>2021-02-28T13:49:31Z</time>
      </trkpt>
      <trkpt lat="44.99418" lon="6.5103">
        <ele>2096.8</ele>
        <time>2021-02-28T13:49:32Z</time>
      </trkpt>
      <trkpt lat="44.99418" lon="6.5103">
        <ele>2096.6</ele>
        <time>2021-02-28T13:49:33Z</time>
      </trkpt>
      <trkpt lat="44.99418" lon="6.5103">
        <ele>2096.4</ele>
        <time>2021-02-28T13:49:34Z</time>
      </trkpt>
      <trkpt lat="44.99418" lon="6.5103">
        <ele>2096.4</ele>
        <time>2021-02-28T13:49:35Z</time>
      </trkpt>
      <trkpt lat="44.99418" lon="6.5103">
        <ele>2096.4</ele>
        <time>2021-02-28T13:49:36Z</time>
      </trkpt>
      <trkpt lat="44.99418" lon="6.5103">
        <ele>2096</ele>
        <time>2021-02-28T13:49:37Z</time>
      </trkpt>
      <trkpt lat="44.99418" lon="6.5103">
        <ele>2095.8</ele>
        <time>2021-02-28T13:49:38Z</time>
      </trkpt>
      <trkpt lat="44.99418" lon="6.5103">
        <ele>2095.8</ele>
        <time>2021-02-28T13:49:39Z</time>
      </trkpt>
      <trkpt lat="44.99418" lon="6.5103">
        <ele>2095.8</ele>
        <time>2021-02-28T13:49:40Z</time>
      </trkpt>
      <trkpt lat="44.99415" lon="6.51031">
        <ele>2096</ele>
        <time>2021-02-28T13:49:41Z</time>
      </trkpt>
      <trkpt lat="44.99415" lon="6.51031">
        <ele>2096</ele>
        <time>2021-02-28T13:49:42Z</time>
      </trkpt>
      <trkpt lat="44.99415" lon="6.51031">
        <ele>2095.2</ele>
        <time>2021-02-28T13:49:43Z</time>
      </trkpt>
      <trkpt lat="44.99415" lon="6.51029">
        <ele>2094.8</ele>
        <time>2021-02-28T13:49:44Z</time>
      </trkpt>
      <trkpt lat="44.99416" lon="6.51026">
        <ele>2094.4</ele>
        <time>2021-02-28T13:49:45Z</time>
      </trkpt>
      <trkpt lat="44.99416" lon="6.51024">
        <ele>2094</ele>
        <time>2021-02-28T13:49:46Z</time>
      </trkpt>
      <trkpt lat="44.99416" lon="6.51021">
        <ele>2093.4</ele>
        <time>2021-02-28T13:49:47Z</time>
      </trkpt>
      <trkpt lat="44.99417" lon="6.51018">
        <ele>2092.6</ele>
        <time>2021-02-28T13:49:48Z</time>
      </trkpt>
      <trkpt lat="44.99417" lon="6.51016">
        <ele>2092.2</ele>
        <time>2021-02-28T13:49:49Z</time>
      </trkpt>
      <trkpt lat="44.99417" lon="6.51013">
        <ele>2090.8</ele>
        <time>2021-02-28T13:49:50Z</time>
      </trkpt>
      <trkpt lat="44.99418" lon="6.5101">
        <ele>2090.2</ele>
        <time>2021-02-28T13:49:51Z</time>
      </trkpt>
      <trkpt lat="44.99418" lon="6.51007">
        <ele>2090.4</ele>
        <time>2021-02-28T13:49:52Z</time>
      </trkpt>
      <trkpt lat="44.99419" lon="6.51004">
        <ele>2090</ele>
        <time>2021-02-28T13:49:53Z</time>
      </trkpt>
      <trkpt lat="44.99418" lon="6.50998">
        <ele>2089.8</ele>
        <time>2021-02-28T13:49:54Z</time>
      </trkpt>
      <trkpt lat="44.99417" lon="6.50993">
        <ele>2089.4</ele>
        <time>2021-02-28T13:49:55Z</time>
      </trkpt>
      <trkpt lat="44.99416" lon="6.50987">
        <ele>2089.2</ele>
        <time>2021-02-28T13:49:56Z</time>
      </trkpt>
      <trkpt lat="44.99415" lon="6.50982">
        <ele>2088.8</ele>
        <time>2021-02-28T13:49:57Z</time>
      </trkpt>
      <trkpt lat="44.99412" lon="6.50968">
        <ele>2088.2</ele>
        <time>2021-02-28T13:49:58Z</time>
      </trkpt>
      <trkpt lat="44.9941" lon="6.5096">
        <ele>2087.4</ele>
        <time>2021-02-28T13:49:59Z</time>
      </trkpt>
      <trkpt lat="44.99409" lon="6.50957">
        <ele>2087</ele>
        <time>2021-02-28T13:50:00Z</time>
      </trkpt>
      <trkpt lat="44.99408" lon="6.50953">
        <ele>2086.4</ele>
        <time>2021-02-28T13:50:01Z</time>
      </trkpt>
      <trkpt lat="44.99406" lon="6.50942">
        <ele>2085.6</ele>
        <time>2021-02-28T13:50:02Z</time>
      </trkpt>
      <trkpt lat="44.99405" lon="6.50938">
        <ele>2084.8</ele>
        <time>2021-02-28T13:50:03Z</time>
      </trkpt>
      <trkpt lat="44.99402" lon="6.50927">
        <ele>2084.4</ele>
        <time>2021-02-28T13:50:04Z</time>
      </trkpt>
      <trkpt lat="44.99402" lon="6.50923">
        <ele>2083.8</ele>
        <time>2021-02-28T13:50:05Z</time>
      </trkpt>
      <trkpt lat="44.994" lon="6.50914">
        <ele>2082.8</ele>
        <time>2021-02-28T13:50:06Z</time>
      </trkpt>
      <trkpt lat="44.994" lon="6.50914">
        <ele>2082.6</ele>
        <time>2021-02-28T13:50:07Z</time>
      </trkpt>
      <trkpt lat="44.994" lon="6.50914">
        <ele>2083</ele>
        <time>2021-02-28T13:50:08Z</time>
      </trkpt>
      <trkpt lat="44.994" lon="6.50914">
        <ele>2082.8</ele>
        <time>2021-02-28T13:50:09Z</time>
      </trkpt>
      <trkpt lat="44.994" lon="6.50914">
        <ele>2082.6</ele>
        <time>2021-02-28T13:50:10Z</time>
      </trkpt>
      <trkpt lat="44.994" lon="6.50914">
        <ele>2082.2</ele>
        <time>2021-02-28T13:50:11Z</time>
      </trkpt>
      <trkpt lat="44.994" lon="6.50914">
        <ele>2082.6</ele>
        <time>2021-02-28T13:50:12Z</time>
      </trkpt>
      <trkpt lat="44.99396" lon="6.50913">
        <ele>2082.6</ele>
        <time>2021-02-28T13:50:13Z</time>
      </trkpt>
      <trkpt lat="44.99396" lon="6.50913">
        <ele>2082.4</ele>
        <time>2021-02-28T13:50:14Z</time>
      </trkpt>
      <trkpt lat="44.99396" lon="6.50913">
        <ele>2082.4</ele>
        <time>2021-02-28T13:50:15Z</time>
      </trkpt>
      <trkpt lat="44.99396" lon="6.50913">
        <ele>2082.6</ele>
        <time>2021-02-28T13:50:16Z</time>
      </trkpt>
      <trkpt lat="44.99396" lon="6.50913">
        <ele>2082.6</ele>
        <time>2021-02-28T13:50:17Z</time>
      </trkpt>
      <trkpt lat="44.99396" lon="6.50913">
        <ele>2082.8</ele>
        <time>2021-02-28T13:50:18Z</time>
      </trkpt>
      <trkpt lat="44.99395" lon="6.50913">
        <ele>2083.2</ele>
        <time>2021-02-28T13:50:19Z</time>
      </trkpt>
      <trkpt lat="44.99395" lon="6.50912">
        <ele>2083.2</ele>
        <time>2021-02-28T13:50:20Z</time>
      </trkpt>
      <trkpt lat="44.99395" lon="6.50912">
        <ele>2083.2</ele>
        <time>2021-02-28T13:50:21Z</time>
      </trkpt>
      <trkpt lat="44.99395" lon="6.50912">
        <ele>2083.4</ele>
        <time>2021-02-28T13:50:22Z</time>
      </trkpt>
      <trkpt lat="44.99394" lon="6.50912">
        <ele>2083.2</ele>
        <time>2021-02-28T13:50:23Z</time>
      </trkpt>
      <trkpt lat="44.99394" lon="6.50911">
        <ele>2083.2</ele>
        <time>2021-02-28T13:50:24Z</time>
      </trkpt>
      <trkpt lat="44.99394" lon="6.50911">
        <ele>2083</ele>
        <time>2021-02-28T13:50:25Z</time>
      </trkpt>
      <trkpt lat="44.99394" lon="6.50911">
        <ele>2082.8</ele>
        <time>2021-02-28T13:50:26Z</time>
      </trkpt>
      <trkpt lat="44.99393" lon="6.50911">
        <ele>2082.8</ele>
        <time>2021-02-28T13:50:27Z</time>
      </trkpt>
      <trkpt lat="44.99393" lon="6.50911">
        <ele>2082.8</ele>
        <time>2021-02-28T13:50:28Z</time>
      </trkpt>
      <trkpt lat="44.99393" lon="6.5091">
        <ele>2082.8</ele>
        <time>2021-02-28T13:50:29Z</time>
      </trkpt>
      <trkpt lat="44.99393" lon="6.5091">
        <ele>2082.8</ele>
        <time>2021-02-28T13:50:30Z</time>
      </trkpt>
      <trkpt lat="44.99393" lon="6.5091">
        <ele>2082.8</ele>
        <time>2021-02-28T13:50:31Z</time>
      </trkpt>
      <trkpt lat="44.99392" lon="6.5091">
        <ele>2082.8</ele>
        <time>2021-02-28T13:50:32Z</time>
      </trkpt>
      <trkpt lat="44.99392" lon="6.5091">
        <ele>2083</ele>
        <time>2021-02-28T13:50:33Z</time>
      </trkpt>
      <trkpt lat="44.99392" lon="6.50909">
        <ele>2083</ele>
        <time>2021-02-28T13:50:34Z</time>
      </trkpt>
      <trkpt lat="44.99392" lon="6.50909">
        <ele>2082.8</ele>
        <time>2021-02-28T13:50:35Z</time>
      </trkpt>
      <trkpt lat="44.99391" lon="6.50909">
        <ele>2082.6</ele>
        <time>2021-02-28T13:50:36Z</time>
      </trkpt>
      <trkpt lat="44.99391" lon="6.50909">
        <ele>2082.6</ele>
        <time>2021-02-28T13:50:37Z</time>
      </trkpt>
      <trkpt lat="44.99391" lon="6.50908">
        <ele>2082.8</ele>
        <time>2021-02-28T13:50:38Z</time>
      </trkpt>
      <trkpt lat="44.99391" lon="6.50908">
        <ele>2082.8</ele>
        <time>2021-02-28T13:50:39Z</time>
      </trkpt>
      <trkpt lat="44.99391" lon="6.50908">
        <ele>2082.6</ele>
        <time>2021-02-28T13:50:40Z</time>
      </trkpt>
      <trkpt lat="44.9939" lon="6.50908">
        <ele>2082.8</ele>
        <time>2021-02-28T13:50:41Z</time>
      </trkpt>
      <trkpt lat="44.9939" lon="6.50908">
        <ele>2082.8</ele>
        <time>2021-02-28T13:50:42Z</time>
      </trkpt>
      <trkpt lat="44.9939" lon="6.50907">
        <ele>2082.8</ele>
        <time>2021-02-28T13:50:43Z</time>
      </trkpt>
      <trkpt lat="44.9939" lon="6.50907">
        <ele>2082.6</ele>
        <time>2021-02-28T13:50:44Z</time>
      </trkpt>
      <trkpt lat="44.99389" lon="6.50907">
        <ele>2082.4</ele>
        <time>2021-02-28T13:50:45Z</time>
      </trkpt>
      <trkpt lat="44.99389" lon="6.50907">
        <ele>2082.4</ele>
        <time>2021-02-28T13:50:46Z</time>
      </trkpt>
      <trkpt lat="44.99389" lon="6.50906">
        <ele>2082.4</ele>
        <time>2021-02-28T13:50:47Z</time>
      </trkpt>
      <trkpt lat="44.99389" lon="6.50906">
        <ele>2082.4</ele>
        <time>2021-02-28T13:50:48Z</time>
      </trkpt>
      <trkpt lat="44.99388" lon="6.50906">
        <ele>2083.2</ele>
        <time>2021-02-28T13:50:49Z</time>
      </trkpt>
      <trkpt lat="44.99388" lon="6.50906">
        <ele>2083.6</ele>
        <time>2021-02-28T13:50:50Z</time>
      </trkpt>
      <trkpt lat="44.99388" lon="6.50906">
        <ele>2082.8</ele>
        <time>2021-02-28T13:50:51Z</time>
      </trkpt>
      <trkpt lat="44.99388" lon="6.50905">
        <ele>2082.2</ele>
        <time>2021-02-28T13:50:52Z</time>
      </trkpt>
      <trkpt lat="44.99388" lon="6.50905">
        <ele>2081.4</ele>
        <time>2021-02-28T13:50:53Z</time>
      </trkpt>
      <trkpt lat="44.99387" lon="6.50905">
        <ele>2080.6</ele>
        <time>2021-02-28T13:50:54Z</time>
      </trkpt>
      <trkpt lat="44.99387" lon="6.50905">
        <ele>2080.2</ele>
        <time>2021-02-28T13:50:55Z</time>
      </trkpt>
      <trkpt lat="44.99385" lon="6.50903">
        <ele>2079.6</ele>
        <time>2021-02-28T13:50:56Z</time>
      </trkpt>
      <trkpt lat="44.99384" lon="6.50901">
        <ele>2079.4</ele>
        <time>2021-02-28T13:50:57Z</time>
      </trkpt>
      <trkpt lat="44.99382" lon="6.50899">
        <ele>2079.2</ele>
        <time>2021-02-28T13:50:58Z</time>
      </trkpt>
      <trkpt lat="44.99381" lon="6.50897">
        <ele>2078.8</ele>
        <time>2021-02-28T13:50:59Z</time>
      </trkpt>
      <trkpt lat="44.99379" lon="6.50896">
        <ele>2078.2</ele>
        <time>2021-02-28T13:51:00Z</time>
      </trkpt>
      <trkpt lat="44.99377" lon="6.50889">
        <ele>2078</ele>
        <time>2021-02-28T13:51:01Z</time>
      </trkpt>
      <trkpt lat="44.99376" lon="6.50883">
        <ele>2077.6</ele>
        <time>2021-02-28T13:51:02Z</time>
      </trkpt>
      <trkpt lat="44.99374" lon="6.50877">
        <ele>2076.8</ele>
        <time>2021-02-28T13:51:03Z</time>
      </trkpt>
      <trkpt lat="44.99372" lon="6.5087">
        <ele>2076.4</ele>
        <time>2021-02-28T13:51:04Z</time>
      </trkpt>
      <trkpt lat="44.99369" lon="6.50863">
        <ele>2075.8</ele>
        <time>2021-02-28T13:51:05Z</time>
      </trkpt>
      <trkpt lat="44.99369" lon="6.50863">
        <ele>2075.2</ele>
        <time>2021-02-28T13:51:06Z</time>
      </trkpt>
      <trkpt lat="44.99369" lon="6.50863">
        <ele>2074.8</ele>
        <time>2021-02-28T13:51:07Z</time>
      </trkpt>
      <trkpt lat="44.99367" lon="6.5086">
        <ele>2074.2</ele>
        <time>2021-02-28T13:51:08Z</time>
      </trkpt>
      <trkpt lat="44.99365" lon="6.50858">
        <ele>2074.2</ele>
        <time>2021-02-28T13:51:09Z</time>
      </trkpt>
      <trkpt lat="44.99364" lon="6.50856">
        <ele>2073.8</ele>
        <time>2021-02-28T13:51:10Z</time>
      </trkpt>
      <trkpt lat="44.99362" lon="6.50854">
        <ele>2073.4</ele>
        <time>2021-02-28T13:51:11Z</time>
      </trkpt>
      <trkpt lat="44.99352" lon="6.50858">
        <ele>2072.4</ele>
        <time>2021-02-28T13:51:12Z</time>
      </trkpt>
      <trkpt lat="44.99351" lon="6.50857">
        <ele>2071.2</ele>
        <time>2021-02-28T13:51:13Z</time>
      </trkpt>
      <trkpt lat="44.9935" lon="6.50855">
        <ele>2069.8</ele>
        <time>2021-02-28T13:51:14Z</time>
      </trkpt>
      <trkpt lat="44.9935" lon="6.50855">
        <ele>2069.2</ele>
        <time>2021-02-28T13:51:15Z</time>
      </trkpt>
      <trkpt lat="44.99348" lon="6.50855">
        <ele>2069</ele>
        <time>2021-02-28T13:51:16Z</time>
      </trkpt>
      <trkpt lat="44.99348" lon="6.50855">
        <ele>2068.6</ele>
        <time>2021-02-28T13:51:17Z</time>
      </trkpt>
      <trkpt lat="44.99348" lon="6.50855">
        <ele>2068</ele>
        <time>2021-02-28T13:51:18Z</time>
      </trkpt>
      <trkpt lat="44.99347" lon="6.50856">
        <ele>2067.4</ele>
        <time>2021-02-28T13:51:19Z</time>
      </trkpt>
      <trkpt lat="44.99347" lon="6.50856">
        <ele>2067.4</ele>
        <time>2021-02-28T13:51:20Z</time>
      </trkpt>
      <trkpt lat="44.99347" lon="6.50856">
        <ele>2067</ele>
        <time>2021-02-28T13:51:21Z</time>
      </trkpt>
      <trkpt lat="44.99347" lon="6.50856">
        <ele>2066.8</ele>
        <time>2021-02-28T13:51:22Z</time>
      </trkpt>
      <trkpt lat="44.99346" lon="6.50857">
        <ele>2066.8</ele>
        <time>2021-02-28T13:51:23Z</time>
      </trkpt>
      <trkpt lat="44.99346" lon="6.50857">
        <ele>2066.6</ele>
        <time>2021-02-28T13:51:24Z</time>
      </trkpt>
      <trkpt lat="44.99346" lon="6.50857">
        <ele>2066.6</ele>
        <time>2021-02-28T13:51:25Z</time>
      </trkpt>
      <trkpt lat="44.99345" lon="6.50857">
        <ele>2066.6</ele>
        <time>2021-02-28T13:51:26Z</time>
      </trkpt>
      <trkpt lat="44.99345" lon="6.50858">
        <ele>2067</ele>
        <time>2021-02-28T13:51:27Z</time>
      </trkpt>
      <trkpt lat="44.99345" lon="6.50858">
        <ele>2066.8</ele>
        <time>2021-02-28T13:51:28Z</time>
      </trkpt>
      <trkpt lat="44.99345" lon="6.50858">
        <ele>2066.8</ele>
        <time>2021-02-28T13:51:29Z</time>
      </trkpt>
      <trkpt lat="44.99344" lon="6.50858">
        <ele>2066.8</ele>
        <time>2021-02-28T13:51:30Z</time>
      </trkpt>
      <trkpt lat="44.99344" lon="6.50859">
        <ele>2066.4</ele>
        <time>2021-02-28T13:51:31Z</time>
      </trkpt>
      <trkpt lat="44.99344" lon="6.50859">
        <ele>2066.6</ele>
        <time>2021-02-28T13:51:32Z</time>
      </trkpt>
      <trkpt lat="44.99344" lon="6.50859">
        <ele>2066.4</ele>
        <time>2021-02-28T13:51:33Z</time>
      </trkpt>
      <trkpt lat="44.99346" lon="6.50856">
        <ele>2066.4</ele>
        <time>2021-02-28T13:51:34Z</time>
      </trkpt>
      <trkpt lat="44.99346" lon="6.50856">
        <ele>2066.6</ele>
        <time>2021-02-28T13:51:35Z</time>
      </trkpt>
      <trkpt lat="44.99347" lon="6.50852">
        <ele>2066.2</ele>
        <time>2021-02-28T13:51:36Z</time>
      </trkpt>
      <trkpt lat="44.99347" lon="6.50852">
        <ele>2066.4</ele>
        <time>2021-02-28T13:51:37Z</time>
      </trkpt>
      <trkpt lat="44.99349" lon="6.50849">
        <ele>2066.6</ele>
        <time>2021-02-28T13:51:38Z</time>
      </trkpt>
      <trkpt lat="44.99349" lon="6.50849">
        <ele>2066.4</ele>
        <time>2021-02-28T13:51:39Z</time>
      </trkpt>
      <trkpt lat="44.99349" lon="6.50846">
        <ele>2066.6</ele>
        <time>2021-02-28T13:51:40Z</time>
      </trkpt>
      <trkpt lat="44.99349" lon="6.50846">
        <ele>2066.8</ele>
        <time>2021-02-28T13:51:41Z</time>
      </trkpt>
      <trkpt lat="44.9935" lon="6.50843">
        <ele>2066.6</ele>
        <time>2021-02-28T13:51:42Z</time>
      </trkpt>
      <trkpt lat="44.9935" lon="6.50843">
        <ele>2066.6</ele>
        <time>2021-02-28T13:51:43Z</time>
      </trkpt>
      <trkpt lat="44.99351" lon="6.50839">
        <ele>2066.2</ele>
        <time>2021-02-28T13:51:44Z</time>
      </trkpt>
      <trkpt lat="44.99351" lon="6.50839">
        <ele>2066.2</ele>
        <time>2021-02-28T13:51:45Z</time>
      </trkpt>
      <trkpt lat="44.99351" lon="6.50836">
        <ele>2066</ele>
        <time>2021-02-28T13:51:46Z</time>
      </trkpt>
      <trkpt lat="44.99351" lon="6.50836">
        <ele>2066.2</ele>
        <time>2021-02-28T13:51:47Z</time>
      </trkpt>
      <trkpt lat="44.99351" lon="6.50836">
        <ele>2066.6</ele>
        <time>2021-02-28T13:51:48Z</time>
      </trkpt>
      <trkpt lat="44.99351" lon="6.50836">
        <ele>2066.4</ele>
        <time>2021-02-28T13:51:49Z</time>
      </trkpt>
      <trkpt lat="44.9935" lon="6.50834">
        <ele>2066.6</ele>
        <time>2021-02-28T13:51:50Z</time>
      </trkpt>
      <trkpt lat="44.9935" lon="6.50834">
        <ele>2066.6</ele>
        <time>2021-02-28T13:51:51Z</time>
      </trkpt>
      <trkpt lat="44.9935" lon="6.50834">
        <ele>2066.6</ele>
        <time>2021-02-28T13:51:52Z</time>
      </trkpt>
      <trkpt lat="44.9935" lon="6.50834">
        <ele>2066.4</ele>
        <time>2021-02-28T13:51:53Z</time>
      </trkpt>
      <trkpt lat="44.9935" lon="6.50831">
        <ele>2066.2</ele>
        <time>2021-02-28T13:51:54Z</time>
      </trkpt>
      <trkpt lat="44.9935" lon="6.50831">
        <ele>2066</ele>
        <time>2021-02-28T13:51:55Z</time>
      </trkpt>
      <trkpt lat="44.9935" lon="6.50831">
        <ele>2066.6</ele>
        <time>2021-02-28T13:51:56Z</time>
      </trkpt>
      <trkpt lat="44.9935" lon="6.50831">
        <ele>2066.4</ele>
        <time>2021-02-28T13:51:57Z</time>
      </trkpt>
      <trkpt lat="44.9935" lon="6.50831">
        <ele>2066.4</ele>
        <time>2021-02-28T13:51:58Z</time>
      </trkpt>
      <trkpt lat="44.9935" lon="6.50831">
        <ele>2066.6</ele>
        <time>2021-02-28T13:51:59Z</time>
      </trkpt>
      <trkpt lat="44.99348" lon="6.50828">
        <ele>2066.6</ele>
        <time>2021-02-28T13:52:00Z</time>
      </trkpt>
      <trkpt lat="44.99348" lon="6.50828">
        <ele>2066.2</ele>
        <time>2021-02-28T13:52:01Z</time>
      </trkpt>
      <trkpt lat="44.99348" lon="6.50828">
        <ele>2066</ele>
        <time>2021-02-28T13:52:02Z</time>
      </trkpt>
      <trkpt lat="44.99348" lon="6.50825">
        <ele>2066</ele>
        <time>2021-02-28T13:52:03Z</time>
      </trkpt>
      <trkpt lat="44.99348" lon="6.50825">
        <ele>2066.2</ele>
        <time>2021-02-28T13:52:04Z</time>
      </trkpt>
      <trkpt lat="44.99347" lon="6.50822">
        <ele>2066.4</ele>
        <time>2021-02-28T13:52:05Z</time>
      </trkpt>
      <trkpt lat="44.99347" lon="6.50822">
        <ele>2066.2</ele>
        <time>2021-02-28T13:52:06Z</time>
      </trkpt>
      <trkpt lat="44.99347" lon="6.50817">
        <ele>2066.4</ele>
        <time>2021-02-28T13:52:07Z</time>
      </trkpt>
      <trkpt lat="44.99346" lon="6.50814">
        <ele>2066.4</ele>
        <time>2021-02-28T13:52:08Z</time>
      </trkpt>
      <trkpt lat="44.99346" lon="6.50814">
        <ele>2065.8</ele>
        <time>2021-02-28T13:52:09Z</time>
      </trkpt>
      <trkpt lat="44.99347" lon="6.50811">
        <ele>2066</ele>
        <time>2021-02-28T13:52:10Z</time>
      </trkpt>
      <trkpt lat="44.99347" lon="6.50811">
        <ele>2065.4</ele>
        <time>2021-02-28T13:52:11Z</time>
      </trkpt>
      <trkpt lat="44.99347" lon="6.50811">
        <ele>2065.4</ele>
        <time>2021-02-28T13:52:12Z</time>
      </trkpt>
      <trkpt lat="44.99347" lon="6.50809">
        <ele>2065.2</ele>
        <time>2021-02-28T13:52:13Z</time>
      </trkpt>
      <trkpt lat="44.99347" lon="6.50806">
        <ele>2065.6</ele>
        <time>2021-02-28T13:52:14Z</time>
      </trkpt>
      <trkpt lat="44.99347" lon="6.50804">
        <ele>2065.8</ele>
        <time>2021-02-28T13:52:15Z</time>
      </trkpt>
      <trkpt lat="44.99347" lon="6.50801">
        <ele>2065.8</ele>
        <time>2021-02-28T13:52:16Z</time>
      </trkpt>
      <trkpt lat="44.99347" lon="6.50799">
        <ele>2065.8</ele>
        <time>2021-02-28T13:52:17Z</time>
      </trkpt>
      <trkpt lat="44.99347" lon="6.50799">
        <ele>2065.6</ele>
        <time>2021-02-28T13:52:18Z</time>
      </trkpt>
      <trkpt lat="44.99348" lon="6.50796">
        <ele>2065.6</ele>
        <time>2021-02-28T13:52:19Z</time>
      </trkpt>
      <trkpt lat="44.99348" lon="6.50796">
        <ele>2065.4</ele>
        <time>2021-02-28T13:52:20Z</time>
      </trkpt>
      <trkpt lat="44.99347" lon="6.50791">
        <ele>2065.6</ele>
        <time>2021-02-28T13:52:21Z</time>
      </trkpt>
      <trkpt lat="44.99347" lon="6.50788">
        <ele>2065.6</ele>
        <time>2021-02-28T13:52:22Z</time>
      </trkpt>
      <trkpt lat="44.99348" lon="6.50783">
        <ele>2065.2</ele>
        <time>2021-02-28T13:52:23Z</time>
      </trkpt>
      <trkpt lat="44.99348" lon="6.50778">
        <ele>2064.2</ele>
        <time>2021-02-28T13:52:24Z</time>
      </trkpt>
      <trkpt lat="44.99349" lon="6.50773">
        <ele>2063.8</ele>
        <time>2021-02-28T13:52:25Z</time>
      </trkpt>
      <trkpt lat="44.99349" lon="6.50769">
        <ele>2063.2</ele>
        <time>2021-02-28T13:52:26Z</time>
      </trkpt>
      <trkpt lat="44.99349" lon="6.50769">
        <ele>2062.8</ele>
        <time>2021-02-28T13:52:27Z</time>
      </trkpt>
      <trkpt lat="44.99349" lon="6.50769">
        <ele>2062.2</ele>
        <time>2021-02-28T13:52:28Z</time>
      </trkpt>
      <trkpt lat="44.99345" lon="6.50753">
        <ele>2061.4</ele>
        <time>2021-02-28T13:52:29Z</time>
      </trkpt>
      <trkpt lat="44.99345" lon="6.5075">
        <ele>2060.6</ele>
        <time>2021-02-28T13:52:30Z</time>
      </trkpt>
      <trkpt lat="44.99344" lon="6.50748">
        <ele>2059.6</ele>
        <time>2021-02-28T13:52:31Z</time>
      </trkpt>
      <trkpt lat="44.99344" lon="6.50746">
        <ele>2059.4</ele>
        <time>2021-02-28T13:52:32Z</time>
      </trkpt>
      <trkpt lat="44.99344" lon="6.50746">
        <ele>2059.6</ele>
        <time>2021-02-28T13:52:33Z</time>
      </trkpt>
      <trkpt lat="44.99343" lon="6.50745">
        <ele>2059.4</ele>
        <time>2021-02-28T13:52:34Z</time>
      </trkpt>
      <trkpt lat="44.99342" lon="6.50744">
        <ele>2059.2</ele>
        <time>2021-02-28T13:52:35Z</time>
      </trkpt>
      <trkpt lat="44.99341" lon="6.50743">
        <ele>2059.6</ele>
        <time>2021-02-28T13:52:36Z</time>
      </trkpt>
      <trkpt lat="44.9934" lon="6.50742">
        <ele>2060.2</ele>
        <time>2021-02-28T13:52:37Z</time>
      </trkpt>
      <trkpt lat="44.9934" lon="6.50742">
        <ele>2060.6</ele>
        <time>2021-02-28T13:52:38Z</time>
      </trkpt>
      <trkpt lat="44.9934" lon="6.50742">
        <ele>2060.2</ele>
        <time>2021-02-28T13:52:39Z</time>
      </trkpt>
      <trkpt lat="44.99338" lon="6.50742">
        <ele>2060.4</ele>
        <time>2021-02-28T13:52:40Z</time>
      </trkpt>
      <trkpt lat="44.99338" lon="6.50742">
        <ele>2060.4</ele>
        <time>2021-02-28T13:52:41Z</time>
      </trkpt>
      <trkpt lat="44.99338" lon="6.50742">
        <ele>2060</ele>
        <time>2021-02-28T13:52:42Z</time>
      </trkpt>
      <trkpt lat="44.99338" lon="6.50742">
        <ele>2060</ele>
        <time>2021-02-28T13:52:43Z</time>
      </trkpt>
      <trkpt lat="44.99338" lon="6.50742">
        <ele>2060</ele>
        <time>2021-02-28T13:52:44Z</time>
      </trkpt>
      <trkpt lat="44.99338" lon="6.50742">
        <ele>2060</ele>
        <time>2021-02-28T13:52:45Z</time>
      </trkpt>
      <trkpt lat="44.99338" lon="6.50742">
        <ele>2060.2</ele>
        <time>2021-02-28T13:52:46Z</time>
      </trkpt>
      <trkpt lat="44.99338" lon="6.50742">
        <ele>2060</ele>
        <time>2021-02-28T13:52:47Z</time>
      </trkpt>
      <trkpt lat="44.99338" lon="6.50742">
        <ele>2060</ele>
        <time>2021-02-28T13:52:48Z</time>
      </trkpt>
      <trkpt lat="44.99338" lon="6.50742">
        <ele>2060.2</ele>
        <time>2021-02-28T13:52:49Z</time>
      </trkpt>
      <trkpt lat="44.99338" lon="6.50742">
        <ele>2060.2</ele>
        <time>2021-02-28T13:52:50Z</time>
      </trkpt>
      <trkpt lat="44.99338" lon="6.50742">
        <ele>2060.2</ele>
        <time>2021-02-28T13:52:51Z</time>
      </trkpt>
      <trkpt lat="44.99338" lon="6.50742">
        <ele>2060.2</ele>
        <time>2021-02-28T13:52:52Z</time>
      </trkpt>
      <trkpt lat="44.99338" lon="6.50742">
        <ele>2060.4</ele>
        <time>2021-02-28T13:52:53Z</time>
      </trkpt>
      <trkpt lat="44.99338" lon="6.50742">
        <ele>2060.6</ele>
        <time>2021-02-28T13:52:54Z</time>
      </trkpt>
      <trkpt lat="44.99341" lon="6.50742">
        <ele>2060.8</ele>
        <time>2021-02-28T13:52:55Z</time>
      </trkpt>
      <trkpt lat="44.99341" lon="6.50742">
        <ele>2060.8</ele>
        <time>2021-02-28T13:52:56Z</time>
      </trkpt>
      <trkpt lat="44.99341" lon="6.50742">
        <ele>2060.6</ele>
        <time>2021-02-28T13:52:57Z</time>
      </trkpt>
      <trkpt lat="44.9934" lon="6.50744">
        <ele>2060.8</ele>
        <time>2021-02-28T13:52:58Z</time>
      </trkpt>
      <trkpt lat="44.99339" lon="6.50746">
        <ele>2060.4</ele>
        <time>2021-02-28T13:52:59Z</time>
      </trkpt>
      <trkpt lat="44.99338" lon="6.50749">
        <ele>2060.6</ele>
        <time>2021-02-28T13:53:00Z</time>
      </trkpt>
      <trkpt lat="44.99337" lon="6.50751">
        <ele>2060.2</ele>
        <time>2021-02-28T13:53:01Z</time>
      </trkpt>
      <trkpt lat="44.99336" lon="6.50754">
        <ele>2060.2</ele>
        <time>2021-02-28T13:53:02Z</time>
      </trkpt>
      <trkpt lat="44.99336" lon="6.50756">
        <ele>2060</ele>
        <time>2021-02-28T13:53:03Z</time>
      </trkpt>
      <trkpt lat="44.99332" lon="6.50762">
        <ele>2059</ele>
        <time>2021-02-28T13:53:04Z</time>
      </trkpt>
      <trkpt lat="44.99327" lon="6.50766">
        <ele>2057.2</ele>
        <time>2021-02-28T13:53:05Z</time>
      </trkpt>
      <trkpt lat="44.99322" lon="6.5077">
        <ele>2056</ele>
        <time>2021-02-28T13:53:06Z</time>
      </trkpt>
      <trkpt lat="44.99322" lon="6.5077">
        <ele>2054</ele>
        <time>2021-02-28T13:53:07Z</time>
      </trkpt>
      <trkpt lat="44.99316" lon="6.50784">
        <ele>2051.8</ele>
        <time>2021-02-28T13:53:08Z</time>
      </trkpt>
      <trkpt lat="44.99314" lon="6.50785">
        <ele>2050.2</ele>
        <time>2021-02-28T13:53:09Z</time>
      </trkpt>
      <trkpt lat="44.99311" lon="6.50787">
        <ele>2049.2</ele>
        <time>2021-02-28T13:53:10Z</time>
      </trkpt>
      <trkpt lat="44.99305" lon="6.5079">
        <ele>2048.4</ele>
        <time>2021-02-28T13:53:11Z</time>
      </trkpt>
      <trkpt lat="44.99305" lon="6.5079">
        <ele>2047.4</ele>
        <time>2021-02-28T13:53:12Z</time>
      </trkpt>
      <trkpt lat="44.99305" lon="6.5079">
        <ele>2046.2</ele>
        <time>2021-02-28T13:53:13Z</time>
      </trkpt>
      <trkpt lat="44.99304" lon="6.50795">
        <ele>2045.4</ele>
        <time>2021-02-28T13:53:14Z</time>
      </trkpt>
      <trkpt lat="44.99302" lon="6.508">
        <ele>2044.8</ele>
        <time>2021-02-28T13:53:15Z</time>
      </trkpt>
      <trkpt lat="44.993" lon="6.50805">
        <ele>2043.4</ele>
        <time>2021-02-28T13:53:16Z</time>
      </trkpt>
      <trkpt lat="44.99299" lon="6.5081">
        <ele>2042.4</ele>
        <time>2021-02-28T13:53:17Z</time>
      </trkpt>
      <trkpt lat="44.99299" lon="6.50818">
        <ele>2040.4</ele>
        <time>2021-02-28T13:53:18Z</time>
      </trkpt>
      <trkpt lat="44.99299" lon="6.50818">
        <ele>2039.8</ele>
        <time>2021-02-28T13:53:19Z</time>
      </trkpt>
      <trkpt lat="44.99299" lon="6.50818">
        <ele>2038.6</ele>
        <time>2021-02-28T13:53:20Z</time>
      </trkpt>
      <trkpt lat="44.99297" lon="6.5082">
        <ele>2037.4</ele>
        <time>2021-02-28T13:53:21Z</time>
      </trkpt>
      <trkpt lat="44.99296" lon="6.50823">
        <ele>2036.4</ele>
        <time>2021-02-28T13:53:22Z</time>
      </trkpt>
      <trkpt lat="44.99294" lon="6.50825">
        <ele>2035.6</ele>
        <time>2021-02-28T13:53:23Z</time>
      </trkpt>
      <trkpt lat="44.99293" lon="6.50827">
        <ele>2034.6</ele>
        <time>2021-02-28T13:53:24Z</time>
      </trkpt>
      <trkpt lat="44.99291" lon="6.50829">
        <ele>2033.4</ele>
        <time>2021-02-28T13:53:25Z</time>
      </trkpt>
      <trkpt lat="44.99289" lon="6.50832">
        <ele>2032.8</ele>
        <time>2021-02-28T13:53:26Z</time>
      </trkpt>
      <trkpt lat="44.99287" lon="6.50835">
        <ele>2031.6</ele>
        <time>2021-02-28T13:53:27Z</time>
      </trkpt>
      <trkpt lat="44.99285" lon="6.50838">
        <ele>2030.4</ele>
        <time>2021-02-28T13:53:28Z</time>
      </trkpt>
      <trkpt lat="44.99284" lon="6.50841">
        <ele>2029.2</ele>
        <time>2021-02-28T13:53:29Z</time>
      </trkpt>
      <trkpt lat="44.99282" lon="6.50846">
        <ele>2028.4</ele>
        <time>2021-02-28T13:53:30Z</time>
      </trkpt>
      <trkpt lat="44.99281" lon="6.50851">
        <ele>2026.6</ele>
        <time>2021-02-28T13:53:31Z</time>
      </trkpt>
      <trkpt lat="44.99279" lon="6.50857">
        <ele>2025.2</ele>
        <time>2021-02-28T13:53:32Z</time>
      </trkpt>
      <trkpt lat="44.99278" lon="6.50862">
        <ele>2023.8</ele>
        <time>2021-02-28T13:53:33Z</time>
      </trkpt>
      <trkpt lat="44.99278" lon="6.50869">
        <ele>2022.8</ele>
        <time>2021-02-28T13:53:34Z</time>
      </trkpt>
      <trkpt lat="44.99278" lon="6.50869">
        <ele>2021</ele>
        <time>2021-02-28T13:53:35Z</time>
      </trkpt>
      <trkpt lat="44.99278" lon="6.50869">
        <ele>2020.2</ele>
        <time>2021-02-28T13:53:36Z</time>
      </trkpt>
      <trkpt lat="44.99279" lon="6.5087">
        <ele>2020</ele>
        <time>2021-02-28T13:53:37Z</time>
      </trkpt>
      <trkpt lat="44.9928" lon="6.50871">
        <ele>2019.6</ele>
        <time>2021-02-28T13:53:38Z</time>
      </trkpt>
      <trkpt lat="44.99281" lon="6.50872">
        <ele>2019.6</ele>
        <time>2021-02-28T13:53:39Z</time>
      </trkpt>
      <trkpt lat="44.99282" lon="6.50873">
        <ele>2019.6</ele>
        <time>2021-02-28T13:53:40Z</time>
      </trkpt>
      <trkpt lat="44.99283" lon="6.50874">
        <ele>2019.2</ele>
        <time>2021-02-28T13:53:41Z</time>
      </trkpt>
      <trkpt lat="44.99283" lon="6.50875">
        <ele>2019.2</ele>
        <time>2021-02-28T13:53:42Z</time>
      </trkpt>
      <trkpt lat="44.99284" lon="6.50876">
        <ele>2018.4</ele>
        <time>2021-02-28T13:53:43Z</time>
      </trkpt>
      <trkpt lat="44.99285" lon="6.50877">
        <ele>2017.8</ele>
        <time>2021-02-28T13:53:44Z</time>
      </trkpt>
      <trkpt lat="44.99284" lon="6.50895">
        <ele>2017.2</ele>
        <time>2021-02-28T13:53:45Z</time>
      </trkpt>
      <trkpt lat="44.99284" lon="6.50898">
        <ele>2016.6</ele>
        <time>2021-02-28T13:53:46Z</time>
      </trkpt>
      <trkpt lat="44.99284" lon="6.509">
        <ele>2016.2</ele>
        <time>2021-02-28T13:53:47Z</time>
      </trkpt>
      <trkpt lat="44.99283" lon="6.50912">
        <ele>2014.8</ele>
        <time>2021-02-28T13:53:48Z</time>
      </trkpt>
      <trkpt lat="44.99283" lon="6.50914">
        <ele>2013.8</ele>
        <time>2021-02-28T13:53:49Z</time>
      </trkpt>
      <trkpt lat="44.99283" lon="6.50916">
        <ele>2013</ele>
        <time>2021-02-28T13:53:50Z</time>
      </trkpt>
      <trkpt lat="44.99282" lon="6.50924">
        <ele>2012.2</ele>
        <time>2021-02-28T13:53:51Z</time>
      </trkpt>
      <trkpt lat="44.99282" lon="6.50924">
        <ele>2012.2</ele>
        <time>2021-02-28T13:53:52Z</time>
      </trkpt>
      <trkpt lat="44.99282" lon="6.50937">
        <ele>2011.6</ele>
        <time>2021-02-28T13:53:53Z</time>
      </trkpt>
      <trkpt lat="44.99282" lon="6.50937">
        <ele>2011.2</ele>
        <time>2021-02-28T13:53:54Z</time>
      </trkpt>
      <trkpt lat="44.99282" lon="6.50937">
        <ele>2011.4</ele>
        <time>2021-02-28T13:53:55Z</time>
      </trkpt>
      <trkpt lat="44.99282" lon="6.50937">
        <ele>2010.8</ele>
        <time>2021-02-28T13:53:56Z</time>
      </trkpt>
      <trkpt lat="44.99282" lon="6.50937">
        <ele>2009.6</ele>
        <time>2021-02-28T13:53:57Z</time>
      </trkpt>
      <trkpt lat="44.99282" lon="6.50937">
        <ele>2010</ele>
        <time>2021-02-28T13:53:58Z</time>
      </trkpt>
      <trkpt lat="44.99282" lon="6.50937">
        <ele>2010.4</ele>
        <time>2021-02-28T13:53:59Z</time>
      </trkpt>
      <trkpt lat="44.99283" lon="6.5094">
        <ele>2010.6</ele>
        <time>2021-02-28T13:54:00Z</time>
      </trkpt>
      <trkpt lat="44.99283" lon="6.5094">
        <ele>2010.2</ele>
        <time>2021-02-28T13:54:01Z</time>
      </trkpt>
      <trkpt lat="44.99283" lon="6.5094">
        <ele>2010.4</ele>
        <time>2021-02-28T13:54:02Z</time>
      </trkpt>
      <trkpt lat="44.99283" lon="6.50941">
        <ele>2010.6</ele>
        <time>2021-02-28T13:54:03Z</time>
      </trkpt>
      <trkpt lat="44.99283" lon="6.50942">
        <ele>2011</ele>
        <time>2021-02-28T13:54:04Z</time>
      </trkpt>
      <trkpt lat="44.99283" lon="6.50943">
        <ele>2010.6</ele>
        <time>2021-02-28T13:54:05Z</time>
      </trkpt>
      <trkpt lat="44.99282" lon="6.50945">
        <ele>2010.2</ele>
        <time>2021-02-28T13:54:06Z</time>
      </trkpt>
      <trkpt lat="44.99282" lon="6.50946">
        <ele>2010</ele>
        <time>2021-02-28T13:54:07Z</time>
      </trkpt>
      <trkpt lat="44.99282" lon="6.50947">
        <ele>2009.4</ele>
        <time>2021-02-28T13:54:08Z</time>
      </trkpt>
      <trkpt lat="44.99282" lon="6.50948">
        <ele>2010</ele>
        <time>2021-02-28T13:54:09Z</time>
      </trkpt>
      <trkpt lat="44.99282" lon="6.50949">
        <ele>2009.6</ele>
        <time>2021-02-28T13:54:10Z</time>
      </trkpt>
      <trkpt lat="44.99281" lon="6.50951">
        <ele>2009.6</ele>
        <time>2021-02-28T13:54:11Z</time>
      </trkpt>
      <trkpt lat="44.99281" lon="6.50952">
        <ele>2009.2</ele>
        <time>2021-02-28T13:54:12Z</time>
      </trkpt>
      <trkpt lat="44.99281" lon="6.50953">
        <ele>2008.6</ele>
        <time>2021-02-28T13:54:13Z</time>
      </trkpt>
      <trkpt lat="44.99281" lon="6.50956">
        <ele>2008.4</ele>
        <time>2021-02-28T13:54:14Z</time>
      </trkpt>
      <trkpt lat="44.99281" lon="6.50958">
        <ele>2008.2</ele>
        <time>2021-02-28T13:54:15Z</time>
      </trkpt>
      <trkpt lat="44.99282" lon="6.50961">
        <ele>2008.2</ele>
        <time>2021-02-28T13:54:16Z</time>
      </trkpt>
      <trkpt lat="44.99282" lon="6.50964">
        <ele>2008</ele>
        <time>2021-02-28T13:54:17Z</time>
      </trkpt>
      <trkpt lat="44.99282" lon="6.50966">
        <ele>2008</ele>
        <time>2021-02-28T13:54:18Z</time>
      </trkpt>
      <trkpt lat="44.99283" lon="6.50967">
        <ele>2008.2</ele>
        <time>2021-02-28T13:54:19Z</time>
      </trkpt>
      <trkpt lat="44.99283" lon="6.50968">
        <ele>2008.2</ele>
        <time>2021-02-28T13:54:20Z</time>
      </trkpt>
      <trkpt lat="44.99284" lon="6.50969">
        <ele>2008.6</ele>
        <time>2021-02-28T13:54:21Z</time>
      </trkpt>
      <trkpt lat="44.99284" lon="6.5097">
        <ele>2008.6</ele>
        <time>2021-02-28T13:54:22Z</time>
      </trkpt>
      <trkpt lat="44.99285" lon="6.50971">
        <ele>2008.6</ele>
        <time>2021-02-28T13:54:23Z</time>
      </trkpt>
      <trkpt lat="44.99286" lon="6.50972">
        <ele>2008.6</ele>
        <time>2021-02-28T13:54:24Z</time>
      </trkpt>
      <trkpt lat="44.99286" lon="6.50973">
        <ele>2008.6</ele>
        <time>2021-02-28T13:54:25Z</time>
      </trkpt>
      <trkpt lat="44.99287" lon="6.50973">
        <ele>2008.8</ele>
        <time>2021-02-28T13:54:26Z</time>
      </trkpt>
      <trkpt lat="44.99287" lon="6.50974">
        <ele>2008.4</ele>
        <time>2021-02-28T13:54:27Z</time>
      </trkpt>
      <trkpt lat="44.99288" lon="6.50975">
        <ele>2007.8</ele>
        <time>2021-02-28T13:54:28Z</time>
      </trkpt>
      <trkpt lat="44.99288" lon="6.50976">
        <ele>2007.6</ele>
        <time>2021-02-28T13:54:29Z</time>
      </trkpt>
      <trkpt lat="44.99288" lon="6.50979">
        <ele>2007.6</ele>
        <time>2021-02-28T13:54:30Z</time>
      </trkpt>
      <trkpt lat="44.99287" lon="6.50983">
        <ele>2007.2</ele>
        <time>2021-02-28T13:54:31Z</time>
      </trkpt>
      <trkpt lat="44.99286" lon="6.50986">
        <ele>2007</ele>
        <time>2021-02-28T13:54:32Z</time>
      </trkpt>
      <trkpt lat="44.99285" lon="6.50989">
        <ele>2006.8</ele>
        <time>2021-02-28T13:54:33Z</time>
      </trkpt>
      <trkpt lat="44.99285" lon="6.5099">
        <ele>2007</ele>
        <time>2021-02-28T13:54:34Z</time>
      </trkpt>
      <trkpt lat="44.99285" lon="6.50991">
        <ele>2006.4</ele>
        <time>2021-02-28T13:54:35Z</time>
      </trkpt>
      <trkpt lat="44.99285" lon="6.50991">
        <ele>2006.8</ele>
        <time>2021-02-28T13:54:36Z</time>
      </trkpt>
      <trkpt lat="44.99284" lon="6.50992">
        <ele>2007.2</ele>
        <time>2021-02-28T13:54:37Z</time>
      </trkpt>
      <trkpt lat="44.99284" lon="6.50992">
        <ele>2007</ele>
        <time>2021-02-28T13:54:38Z</time>
      </trkpt>
      <trkpt lat="44.99284" lon="6.50993">
        <ele>2007.4</ele>
        <time>2021-02-28T13:54:39Z</time>
      </trkpt>
      <trkpt lat="44.99283" lon="6.50994">
        <ele>2007</ele>
        <time>2021-02-28T13:54:40Z</time>
      </trkpt>
      <trkpt lat="44.99283" lon="6.50994">
        <ele>2006.6</ele>
        <time>2021-02-28T13:54:41Z</time>
      </trkpt>
      <trkpt lat="44.99283" lon="6.50995">
        <ele>2006.6</ele>
        <time>2021-02-28T13:54:42Z</time>
      </trkpt>
      <trkpt lat="44.99283" lon="6.50995">
        <ele>2006.8</ele>
        <time>2021-02-28T13:54:43Z</time>
      </trkpt>
      <trkpt lat="44.99282" lon="6.50996">
        <ele>2007</ele>
        <time>2021-02-28T13:54:44Z</time>
      </trkpt>
      <trkpt lat="44.99282" lon="6.50997">
        <ele>2007</ele>
        <time>2021-02-28T13:54:45Z</time>
      </trkpt>
      <trkpt lat="44.99282" lon="6.50997">
        <ele>2007</ele>
        <time>2021-02-28T13:54:46Z</time>
      </trkpt>
      <trkpt lat="44.99282" lon="6.50998">
        <ele>2007.2</ele>
        <time>2021-02-28T13:54:47Z</time>
      </trkpt>
      <trkpt lat="44.99281" lon="6.50999">
        <ele>2007.4</ele>
        <time>2021-02-28T13:54:48Z</time>
      </trkpt>
      <trkpt lat="44.99281" lon="6.50999">
        <ele>2007.4</ele>
        <time>2021-02-28T13:54:49Z</time>
      </trkpt>
      <trkpt lat="44.99281" lon="6.51">
        <ele>2007</ele>
        <time>2021-02-28T13:54:50Z</time>
      </trkpt>
      <trkpt lat="44.9928" lon="6.51">
        <ele>2007</ele>
        <time>2021-02-28T13:54:51Z</time>
      </trkpt>
      <trkpt lat="44.9928" lon="6.51001">
        <ele>2007</ele>
        <time>2021-02-28T13:54:52Z</time>
      </trkpt>
      <trkpt lat="44.9928" lon="6.51002">
        <ele>2007.2</ele>
        <time>2021-02-28T13:54:53Z</time>
      </trkpt>
      <trkpt lat="44.9928" lon="6.51002">
        <ele>2007</ele>
        <time>2021-02-28T13:54:54Z</time>
      </trkpt>
      <trkpt lat="44.9928" lon="6.51002">
        <ele>2007.2</ele>
        <time>2021-02-28T13:54:55Z</time>
      </trkpt>
      <trkpt lat="44.9928" lon="6.51002">
        <ele>2007.4</ele>
        <time>2021-02-28T13:54:56Z</time>
      </trkpt>
      <trkpt lat="44.9928" lon="6.51002">
        <ele>2007.6</ele>
        <time>2021-02-28T13:54:57Z</time>
      </trkpt>
      <trkpt lat="44.9928" lon="6.51002">
        <ele>2007.4</ele>
        <time>2021-02-28T13:54:58Z</time>
      </trkpt>
      <trkpt lat="44.9928" lon="6.51002">
        <ele>2007.4</ele>
        <time>2021-02-28T13:54:59Z</time>
      </trkpt>
      <trkpt lat="44.9928" lon="6.51001">
        <ele>2007.2</ele>
        <time>2021-02-28T13:55:00Z</time>
      </trkpt>
      <trkpt lat="44.99281" lon="6.51001">
        <ele>2006.6</ele>
        <time>2021-02-28T13:55:01Z</time>
      </trkpt>
      <trkpt lat="44.99281" lon="6.51001">
        <ele>2006.6</ele>
        <time>2021-02-28T13:55:02Z</time>
      </trkpt>
      <trkpt lat="44.99281" lon="6.51001">
        <ele>2006.6</ele>
        <time>2021-02-28T13:55:03Z</time>
      </trkpt>
      <trkpt lat="44.99281" lon="6.51001">
        <ele>2004.8</ele>
        <time>2021-02-28T13:55:04Z</time>
      </trkpt>
      <trkpt lat="44.99281" lon="6.51001">
        <ele>2005.6</ele>
        <time>2021-02-28T13:55:05Z</time>
      </trkpt>
      <trkpt lat="44.99281" lon="6.51001">
        <ele>2006</ele>
        <time>2021-02-28T13:55:06Z</time>
      </trkpt>
      <trkpt lat="44.99281" lon="6.51">
        <ele>2006.4</ele>
        <time>2021-02-28T13:55:07Z</time>
      </trkpt>
      <trkpt lat="44.99281" lon="6.51">
        <ele>2006.4</ele>
        <time>2021-02-28T13:55:08Z</time>
      </trkpt>
      <trkpt lat="44.99282" lon="6.51">
        <ele>2006.4</ele>
        <time>2021-02-28T13:55:09Z</time>
      </trkpt>
      <trkpt lat="44.99282" lon="6.51">
        <ele>2007.2</ele>
        <time>2021-02-28T13:55:10Z</time>
      </trkpt>
      <trkpt lat="44.99282" lon="6.51">
        <ele>2007.6</ele>
        <time>2021-02-28T13:55:11Z</time>
      </trkpt>
      <trkpt lat="44.99282" lon="6.51">
        <ele>2007</ele>
        <time>2021-02-28T13:55:12Z</time>
      </trkpt>
      <trkpt lat="44.99282" lon="6.51">
        <ele>2007</ele>
        <time>2021-02-28T13:55:13Z</time>
      </trkpt>
      <trkpt lat="44.99282" lon="6.50999">
        <ele>2006.8</ele>
        <time>2021-02-28T13:55:14Z</time>
      </trkpt>
      <trkpt lat="44.99282" lon="6.50999">
        <ele>2006.4</ele>
        <time>2021-02-28T13:55:15Z</time>
      </trkpt>
      <trkpt lat="44.99282" lon="6.50999">
        <ele>2006.6</ele>
        <time>2021-02-28T13:55:16Z</time>
      </trkpt>
      <trkpt lat="44.99283" lon="6.50999">
        <ele>2006.4</ele>
        <time>2021-02-28T13:55:17Z</time>
      </trkpt>
      <trkpt lat="44.99283" lon="6.50999">
        <ele>2006.6</ele>
        <time>2021-02-28T13:55:18Z</time>
      </trkpt>
      <trkpt lat="44.99283" lon="6.50999">
        <ele>2006.6</ele>
        <time>2021-02-28T13:55:19Z</time>
      </trkpt>
      <trkpt lat="44.99283" lon="6.50999">
        <ele>2007</ele>
        <time>2021-02-28T13:55:20Z</time>
      </trkpt>
      <trkpt lat="44.99283" lon="6.50998">
        <ele>2007</ele>
        <time>2021-02-28T13:55:21Z</time>
      </trkpt>
      <trkpt lat="44.99283" lon="6.50998">
        <ele>2007</ele>
        <time>2021-02-28T13:55:22Z</time>
      </trkpt>
      <trkpt lat="44.99283" lon="6.50998">
        <ele>2007.2</ele>
        <time>2021-02-28T13:55:23Z</time>
      </trkpt>
      <trkpt lat="44.99283" lon="6.50998">
        <ele>2007</ele>
        <time>2021-02-28T13:55:24Z</time>
      </trkpt>
      <trkpt lat="44.99284" lon="6.50998">
        <ele>2007</ele>
        <time>2021-02-28T13:55:25Z</time>
      </trkpt>
      <trkpt lat="44.99284" lon="6.50998">
        <ele>2007.2</ele>
        <time>2021-02-28T13:55:26Z</time>
      </trkpt>
      <trkpt lat="44.99284" lon="6.50998">
        <ele>2007.2</ele>
        <time>2021-02-28T13:55:27Z</time>
      </trkpt>
      <trkpt lat="44.99284" lon="6.50997">
        <ele>2007</ele>
        <time>2021-02-28T13:55:28Z</time>
      </trkpt>
      <trkpt lat="44.99284" lon="6.50997">
        <ele>2006.6</ele>
        <time>2021-02-28T13:55:29Z</time>
      </trkpt>
      <trkpt lat="44.99284" lon="6.50997">
        <ele>2006.8</ele>
        <time>2021-02-28T13:55:30Z</time>
      </trkpt>
      <trkpt lat="44.99284" lon="6.50997">
        <ele>2006.8</ele>
        <time>2021-02-28T13:55:31Z</time>
      </trkpt>
      <trkpt lat="44.99284" lon="6.50997">
        <ele>2007</ele>
        <time>2021-02-28T13:55:32Z</time>
      </trkpt>
      <trkpt lat="44.99285" lon="6.50997">
        <ele>2007</ele>
        <time>2021-02-28T13:55:33Z</time>
      </trkpt>
      <trkpt lat="44.99285" lon="6.50997">
        <ele>2006.8</ele>
        <time>2021-02-28T13:55:34Z</time>
      </trkpt>
      <trkpt lat="44.99285" lon="6.50996">
        <ele>2006.8</ele>
        <time>2021-02-28T13:55:35Z</time>
      </trkpt>
      <trkpt lat="44.99285" lon="6.50996">
        <ele>2006.8</ele>
        <time>2021-02-28T13:55:36Z</time>
      </trkpt>
      <trkpt lat="44.99285" lon="6.50996">
        <ele>2007</ele>
        <time>2021-02-28T13:55:37Z</time>
      </trkpt>
      <trkpt lat="44.99285" lon="6.50996">
        <ele>2007.2</ele>
        <time>2021-02-28T13:55:38Z</time>
      </trkpt>
      <trkpt lat="44.99285" lon="6.50996">
        <ele>2007</ele>
        <time>2021-02-28T13:55:39Z</time>
      </trkpt>
      <trkpt lat="44.99285" lon="6.50996">
        <ele>2007.2</ele>
        <time>2021-02-28T13:55:40Z</time>
      </trkpt>
      <trkpt lat="44.99286" lon="6.50996">
        <ele>2007.2</ele>
        <time>2021-02-28T13:55:41Z</time>
      </trkpt>
      <trkpt lat="44.99286" lon="6.50996">
        <ele>2007.2</ele>
        <time>2021-02-28T13:55:42Z</time>
      </trkpt>
      <trkpt lat="44.99286" lon="6.50995">
        <ele>2007</ele>
        <time>2021-02-28T13:55:43Z</time>
      </trkpt>
      <trkpt lat="44.99286" lon="6.50995">
        <ele>2007.4</ele>
        <time>2021-02-28T13:55:44Z</time>
      </trkpt>
      <trkpt lat="44.99286" lon="6.50995">
        <ele>2007.2</ele>
        <time>2021-02-28T13:55:45Z</time>
      </trkpt>
      <trkpt lat="44.99286" lon="6.50995">
        <ele>2007.2</ele>
        <time>2021-02-28T13:55:46Z</time>
      </trkpt>
      <trkpt lat="44.99286" lon="6.50995">
        <ele>2007.2</ele>
        <time>2021-02-28T13:55:47Z</time>
      </trkpt>
      <trkpt lat="44.99286" lon="6.50995">
        <ele>2007.6</ele>
        <time>2021-02-28T13:55:48Z</time>
      </trkpt>
      <trkpt lat="44.99287" lon="6.50995">
        <ele>2007.6</ele>
        <time>2021-02-28T13:55:49Z</time>
      </trkpt>
      <trkpt lat="44.99287" lon="6.50994">
        <ele>2007.6</ele>
        <time>2021-02-28T13:55:50Z</time>
      </trkpt>
      <trkpt lat="44.99287" lon="6.50994">
        <ele>2007.4</ele>
        <time>2021-02-28T13:55:51Z</time>
      </trkpt>
      <trkpt lat="44.99287" lon="6.50994">
        <ele>2007.6</ele>
        <time>2021-02-28T13:55:52Z</time>
      </trkpt>
      <trkpt lat="44.99287" lon="6.50994">
        <ele>2007.4</ele>
        <time>2021-02-28T13:55:53Z</time>
      </trkpt>
      <trkpt lat="44.99287" lon="6.50994">
        <ele>2007</ele>
        <time>2021-02-28T13:55:54Z</time>
      </trkpt>
      <trkpt lat="44.99287" lon="6.50994">
        <ele>2007.2</ele>
        <time>2021-02-28T13:55:55Z</time>
      </trkpt>
      <trkpt lat="44.99287" lon="6.50994">
        <ele>2007.6</ele>
        <time>2021-02-28T13:55:56Z</time>
      </trkpt>
      <trkpt lat="44.99289" lon="6.50995">
        <ele>2007.6</ele>
        <time>2021-02-28T13:55:57Z</time>
      </trkpt>
      <trkpt lat="44.9929" lon="6.50997">
        <ele>2007.4</ele>
        <time>2021-02-28T13:55:58Z</time>
      </trkpt>
      <trkpt lat="44.99291" lon="6.50999">
        <ele>2007.4</ele>
        <time>2021-02-28T13:55:59Z</time>
      </trkpt>
      <trkpt lat="44.99292" lon="6.51001">
        <ele>2007.4</ele>
        <time>2021-02-28T13:56:00Z</time>
      </trkpt>
      <trkpt lat="44.99293" lon="6.51003">
        <ele>2007</ele>
        <time>2021-02-28T13:56:01Z</time>
      </trkpt>
      <trkpt lat="44.99294" lon="6.51004">
        <ele>2007</ele>
        <time>2021-02-28T13:56:02Z</time>
      </trkpt>
      <trkpt lat="44.99295" lon="6.51008">
        <ele>2006.8</ele>
        <time>2021-02-28T13:56:03Z</time>
      </trkpt>
      <trkpt lat="44.99296" lon="6.51012">
        <ele>2006.8</ele>
        <time>2021-02-28T13:56:04Z</time>
      </trkpt>
      <trkpt lat="44.99297" lon="6.51016">
        <ele>2006.6</ele>
        <time>2021-02-28T13:56:05Z</time>
      </trkpt>
      <trkpt lat="44.99298" lon="6.5102">
        <ele>2006.6</ele>
        <time>2021-02-28T13:56:06Z</time>
      </trkpt>
      <trkpt lat="44.99299" lon="6.51024">
        <ele>2006.2</ele>
        <time>2021-02-28T13:56:07Z</time>
      </trkpt>
      <trkpt lat="44.993" lon="6.51027">
        <ele>2006.2</ele>
        <time>2021-02-28T13:56:08Z</time>
      </trkpt>
      <trkpt lat="44.993" lon="6.51038">
        <ele>2006</ele>
        <time>2021-02-28T13:56:09Z</time>
      </trkpt>
      <trkpt lat="44.99299" lon="6.51041">
        <ele>2005.6</ele>
        <time>2021-02-28T13:56:10Z</time>
      </trkpt>
      <trkpt lat="44.99299" lon="6.51043">
        <ele>2005.4</ele>
        <time>2021-02-28T13:56:11Z</time>
      </trkpt>
      <trkpt lat="44.99296" lon="6.51054">
        <ele>2005</ele>
        <time>2021-02-28T13:56:12Z</time>
      </trkpt>
      <trkpt lat="44.99294" lon="6.51057">
        <ele>2004.8</ele>
        <time>2021-02-28T13:56:13Z</time>
      </trkpt>
      <trkpt lat="44.9929" lon="6.51066">
        <ele>2004</ele>
        <time>2021-02-28T13:56:14Z</time>
      </trkpt>
      <trkpt lat="44.99288" lon="6.51069">
        <ele>2003.6</ele>
        <time>2021-02-28T13:56:15Z</time>
      </trkpt>
      <trkpt lat="44.99285" lon="6.51075">
        <ele>2003.8</ele>
        <time>2021-02-28T13:56:16Z</time>
      </trkpt>
      <trkpt lat="44.99285" lon="6.51075">
        <ele>2004</ele>
        <time>2021-02-28T13:56:17Z</time>
      </trkpt>
      <trkpt lat="44.99277" lon="6.51083">
        <ele>2004.6</ele>
        <time>2021-02-28T13:56:18Z</time>
      </trkpt>
      <trkpt lat="44.99277" lon="6.51083">
        <ele>2004.6</ele>
        <time>2021-02-28T13:56:19Z</time>
      </trkpt>
      <trkpt lat="44.99277" lon="6.51083">
        <ele>2004.2</ele>
        <time>2021-02-28T13:56:20Z</time>
      </trkpt>
      <trkpt lat="44.99275" lon="6.51084">
        <ele>2004</ele>
        <time>2021-02-28T13:56:21Z</time>
      </trkpt>
      <trkpt lat="44.99273" lon="6.51085">
        <ele>2004</ele>
        <time>2021-02-28T13:56:22Z</time>
      </trkpt>
      <trkpt lat="44.99271" lon="6.51086">
        <ele>2003.8</ele>
        <time>2021-02-28T13:56:23Z</time>
      </trkpt>
      <trkpt lat="44.99268" lon="6.51087">
        <ele>2004.4</ele>
        <time>2021-02-28T13:56:24Z</time>
      </trkpt>
      <trkpt lat="44.99266" lon="6.51088">
        <ele>2004.6</ele>
        <time>2021-02-28T13:56:25Z</time>
      </trkpt>
      <trkpt lat="44.99264" lon="6.5109">
        <ele>2004.4</ele>
        <time>2021-02-28T13:56:26Z</time>
      </trkpt>
      <trkpt lat="44.99262" lon="6.51091">
        <ele>2004.6</ele>
        <time>2021-02-28T13:56:27Z</time>
      </trkpt>
      <trkpt lat="44.99259" lon="6.51092">
        <ele>2004.4</ele>
        <time>2021-02-28T13:56:28Z</time>
      </trkpt>
      <trkpt lat="44.99258" lon="6.51094">
        <ele>2004.4</ele>
        <time>2021-02-28T13:56:29Z</time>
      </trkpt>
      <trkpt lat="44.99256" lon="6.51097">
        <ele>2004.6</ele>
        <time>2021-02-28T13:56:30Z</time>
      </trkpt>
      <trkpt lat="44.99254" lon="6.51099">
        <ele>2004</ele>
        <time>2021-02-28T13:56:31Z</time>
      </trkpt>
      <trkpt lat="44.99253" lon="6.51102">
        <ele>2004</ele>
        <time>2021-02-28T13:56:32Z</time>
      </trkpt>
      <trkpt lat="44.99251" lon="6.51104">
        <ele>2004</ele>
        <time>2021-02-28T13:56:33Z</time>
      </trkpt>
      <trkpt lat="44.9925" lon="6.51105">
        <ele>2003.8</ele>
        <time>2021-02-28T13:56:34Z</time>
      </trkpt>
      <trkpt lat="44.99249" lon="6.51107">
        <ele>2003.8</ele>
        <time>2021-02-28T13:56:35Z</time>
      </trkpt>
      <trkpt lat="44.99247" lon="6.51109">
        <ele>2003.6</ele>
        <time>2021-02-28T13:56:36Z</time>
      </trkpt>
      <trkpt lat="44.99246" lon="6.51111">
        <ele>2004</ele>
        <time>2021-02-28T13:56:37Z</time>
      </trkpt>
      <trkpt lat="44.99245" lon="6.51112">
        <ele>2004</ele>
        <time>2021-02-28T13:56:38Z</time>
      </trkpt>
      <trkpt lat="44.99243" lon="6.51114">
        <ele>2004</ele>
        <time>2021-02-28T13:56:39Z</time>
      </trkpt>
      <trkpt lat="44.99242" lon="6.51115">
        <ele>2004.4</ele>
        <time>2021-02-28T13:56:40Z</time>
      </trkpt>
      <trkpt lat="44.99241" lon="6.51117">
        <ele>2004.2</ele>
        <time>2021-02-28T13:56:41Z</time>
      </trkpt>
      <trkpt lat="44.99239" lon="6.51118">
        <ele>2004.4</ele>
        <time>2021-02-28T13:56:42Z</time>
      </trkpt>
      <trkpt lat="44.99238" lon="6.5112">
        <ele>2004.2</ele>
        <time>2021-02-28T13:56:43Z</time>
      </trkpt>
      <trkpt lat="44.99238" lon="6.51123">
        <ele>2004.4</ele>
        <time>2021-02-28T13:56:44Z</time>
      </trkpt>
      <trkpt lat="44.99238" lon="6.51127">
        <ele>2004.4</ele>
        <time>2021-02-28T13:56:45Z</time>
      </trkpt>
      <trkpt lat="44.99239" lon="6.51131">
        <ele>2004.2</ele>
        <time>2021-02-28T13:56:46Z</time>
      </trkpt>
      <trkpt lat="44.99239" lon="6.51134">
        <ele>2004</ele>
        <time>2021-02-28T13:56:47Z</time>
      </trkpt>
      <trkpt lat="44.99239" lon="6.51138">
        <ele>2003.8</ele>
        <time>2021-02-28T13:56:48Z</time>
      </trkpt>
      <trkpt lat="44.99239" lon="6.51142">
        <ele>2003.8</ele>
        <time>2021-02-28T13:56:49Z</time>
      </trkpt>
      <trkpt lat="44.9924" lon="6.51144">
        <ele>2003.4</ele>
        <time>2021-02-28T13:56:50Z</time>
      </trkpt>
      <trkpt lat="44.9924" lon="6.51146">
        <ele>2003.4</ele>
        <time>2021-02-28T13:56:51Z</time>
      </trkpt>
      <trkpt lat="44.9924" lon="6.51146">
        <ele>2003.6</ele>
        <time>2021-02-28T13:56:52Z</time>
      </trkpt>
      <trkpt lat="44.99242" lon="6.51145">
        <ele>2003.6</ele>
        <time>2021-02-28T13:56:53Z</time>
      </trkpt>
      <trkpt lat="44.99242" lon="6.51145">
        <ele>2003.8</ele>
        <time>2021-02-28T13:56:54Z</time>
      </trkpt>
      <trkpt lat="44.99242" lon="6.51145">
        <ele>2003.6</ele>
        <time>2021-02-28T13:56:55Z</time>
      </trkpt>
      <trkpt lat="44.99241" lon="6.5115">
        <ele>2003.4</ele>
        <time>2021-02-28T13:56:56Z</time>
      </trkpt>
      <trkpt lat="44.99241" lon="6.51154">
        <ele>2003.2</ele>
        <time>2021-02-28T13:56:57Z</time>
      </trkpt>
      <trkpt lat="44.9924" lon="6.5116">
        <ele>2003.2</ele>
        <time>2021-02-28T13:56:58Z</time>
      </trkpt>
      <trkpt lat="44.99239" lon="6.51165">
        <ele>2003</ele>
        <time>2021-02-28T13:56:59Z</time>
      </trkpt>
      <trkpt lat="44.99236" lon="6.51171">
        <ele>2002.6</ele>
        <time>2021-02-28T13:57:00Z</time>
      </trkpt>
      <trkpt lat="44.99233" lon="6.51174">
        <ele>2001.8</ele>
        <time>2021-02-28T13:57:01Z</time>
      </trkpt>
      <trkpt lat="44.99228" lon="6.51173">
        <ele>2001.4</ele>
        <time>2021-02-28T13:57:02Z</time>
      </trkpt>
      <trkpt lat="44.99224" lon="6.51171">
        <ele>2000.2</ele>
        <time>2021-02-28T13:57:03Z</time>
      </trkpt>
      <trkpt lat="44.9922" lon="6.51172">
        <ele>1999.8</ele>
        <time>2021-02-28T13:57:04Z</time>
      </trkpt>
      <trkpt lat="44.99217" lon="6.51173">
        <ele>1998.8</ele>
        <time>2021-02-28T13:57:05Z</time>
      </trkpt>
      <trkpt lat="44.99215" lon="6.51174">
        <ele>1998</ele>
        <time>2021-02-28T13:57:06Z</time>
      </trkpt>
      <trkpt lat="44.99215" lon="6.51174">
        <ele>1997.2</ele>
        <time>2021-02-28T13:57:07Z</time>
      </trkpt>
      <trkpt lat="44.99212" lon="6.51173">
        <ele>1996.4</ele>
        <time>2021-02-28T13:57:08Z</time>
      </trkpt>
      <trkpt lat="44.99212" lon="6.51173">
        <ele>1996</ele>
        <time>2021-02-28T13:57:09Z</time>
      </trkpt>
      <trkpt lat="44.99212" lon="6.51173">
        <ele>1995.6</ele>
        <time>2021-02-28T13:57:10Z</time>
      </trkpt>
      <trkpt lat="44.99212" lon="6.51173">
        <ele>1995</ele>
        <time>2021-02-28T13:57:11Z</time>
      </trkpt>
      <trkpt lat="44.99212" lon="6.51173">
        <ele>1994.4</ele>
        <time>2021-02-28T13:57:12Z</time>
      </trkpt>
      <trkpt lat="44.99212" lon="6.51173">
        <ele>1994</ele>
        <time>2021-02-28T13:57:13Z</time>
      </trkpt>
      <trkpt lat="44.99212" lon="6.51173">
        <ele>1993.6</ele>
        <time>2021-02-28T13:57:14Z</time>
      </trkpt>
      <trkpt lat="44.99212" lon="6.51173">
        <ele>1993.6</ele>
        <time>2021-02-28T13:57:15Z</time>
      </trkpt>
      <trkpt lat="44.99214" lon="6.51172">
        <ele>1993.6</ele>
        <time>2021-02-28T13:57:16Z</time>
      </trkpt>
      <trkpt lat="44.99214" lon="6.51172">
        <ele>1993.2</ele>
        <time>2021-02-28T13:57:17Z</time>
      </trkpt>
      <trkpt lat="44.99214" lon="6.51172">
        <ele>1992.8</ele>
        <time>2021-02-28T13:57:18Z</time>
      </trkpt>
      <trkpt lat="44.99214" lon="6.51172">
        <ele>1993</ele>
        <time>2021-02-28T13:57:19Z</time>
      </trkpt>
      <trkpt lat="44.99214" lon="6.51172">
        <ele>1993.4</ele>
        <time>2021-02-28T13:57:20Z</time>
      </trkpt>
      <trkpt lat="44.99215" lon="6.5117">
        <ele>1993.4</ele>
        <time>2021-02-28T13:57:21Z</time>
      </trkpt>
      <trkpt lat="44.99215" lon="6.5117">
        <ele>1993.4</ele>
        <time>2021-02-28T13:57:22Z</time>
      </trkpt>
      <trkpt lat="44.99215" lon="6.5117">
        <ele>1993.6</ele>
        <time>2021-02-28T13:57:23Z</time>
      </trkpt>
      <trkpt lat="44.99215" lon="6.5117">
        <ele>1993.8</ele>
        <time>2021-02-28T13:57:24Z</time>
      </trkpt>
      <trkpt lat="44.99215" lon="6.5117">
        <ele>1993.6</ele>
        <time>2021-02-28T13:57:25Z</time>
      </trkpt>
      <trkpt lat="44.99215" lon="6.5117">
        <ele>1993.8</ele>
        <time>2021-02-28T13:57:26Z</time>
      </trkpt>
      <trkpt lat="44.99215" lon="6.5117">
        <ele>1994.4</ele>
        <time>2021-02-28T13:57:27Z</time>
      </trkpt>
      <trkpt lat="44.99215" lon="6.5117">
        <ele>1994.4</ele>
        <time>2021-02-28T13:57:28Z</time>
      </trkpt>
      <trkpt lat="44.99215" lon="6.5117">
        <ele>1994.6</ele>
        <time>2021-02-28T13:57:29Z</time>
      </trkpt>
      <trkpt lat="44.99215" lon="6.5117">
        <ele>1994.8</ele>
        <time>2021-02-28T13:57:30Z</time>
      </trkpt>
      <trkpt lat="44.99215" lon="6.5117">
        <ele>1995</ele>
        <time>2021-02-28T13:57:31Z</time>
      </trkpt>
      <trkpt lat="44.99215" lon="6.5117">
        <ele>1995</ele>
        <time>2021-02-28T13:57:32Z</time>
      </trkpt>
      <trkpt lat="44.99215" lon="6.5117">
        <ele>1995.4</ele>
        <time>2021-02-28T13:57:33Z</time>
      </trkpt>
      <trkpt lat="44.99215" lon="6.5117">
        <ele>1995.2</ele>
        <time>2021-02-28T13:57:34Z</time>
      </trkpt>
      <trkpt lat="44.99215" lon="6.5117">
        <ele>1994.8</ele>
        <time>2021-02-28T13:57:35Z</time>
      </trkpt>
      <trkpt lat="44.99215" lon="6.5117">
        <ele>1994.6</ele>
        <time>2021-02-28T13:57:36Z</time>
      </trkpt>
      <trkpt lat="44.99214" lon="6.51169">
        <ele>1994.4</ele>
        <time>2021-02-28T13:57:37Z</time>
      </trkpt>
      <trkpt lat="44.99211" lon="6.51168">
        <ele>1994.2</ele>
        <time>2021-02-28T13:57:38Z</time>
      </trkpt>
      <trkpt lat="44.99209" lon="6.51168">
        <ele>1994</ele>
        <time>2021-02-28T13:57:39Z</time>
      </trkpt>
      <trkpt lat="44.99209" lon="6.51168">
        <ele>1993.4</ele>
        <time>2021-02-28T13:57:40Z</time>
      </trkpt>
      <trkpt lat="44.99206" lon="6.51169">
        <ele>1992.8</ele>
        <time>2021-02-28T13:57:41Z</time>
      </trkpt>
      <trkpt lat="44.99206" lon="6.51169">
        <ele>1992.6</ele>
        <time>2021-02-28T13:57:42Z</time>
      </trkpt>
      <trkpt lat="44.99203" lon="6.51169">
        <ele>1992.6</ele>
        <time>2021-02-28T13:57:43Z</time>
      </trkpt>
      <trkpt lat="44.99203" lon="6.51169">
        <ele>1992.6</ele>
        <time>2021-02-28T13:57:44Z</time>
      </trkpt>
      <trkpt lat="44.99201" lon="6.51171">
        <ele>1992.8</ele>
        <time>2021-02-28T13:57:45Z</time>
      </trkpt>
      <trkpt lat="44.99201" lon="6.51171">
        <ele>1992.6</ele>
        <time>2021-02-28T13:57:46Z</time>
      </trkpt>
      <trkpt lat="44.99199" lon="6.51173">
        <ele>1992.4</ele>
        <time>2021-02-28T13:57:47Z</time>
      </trkpt>
      <trkpt lat="44.99199" lon="6.51173">
        <ele>1992</ele>
        <time>2021-02-28T13:57:48Z</time>
      </trkpt>
      <trkpt lat="44.99199" lon="6.51173">
        <ele>1991.8</ele>
        <time>2021-02-28T13:57:49Z</time>
      </trkpt>
      <trkpt lat="44.99199" lon="6.51177">
        <ele>1991.8</ele>
        <time>2021-02-28T13:57:50Z</time>
      </trkpt>
      <trkpt lat="44.99199" lon="6.51177">
        <ele>1991.8</ele>
        <time>2021-02-28T13:57:51Z</time>
      </trkpt>
      <trkpt lat="44.99199" lon="6.51177">
        <ele>1991.6</ele>
        <time>2021-02-28T13:57:52Z</time>
      </trkpt>
      <trkpt lat="44.992" lon="6.5118">
        <ele>1991.4</ele>
        <time>2021-02-28T13:57:53Z</time>
      </trkpt>
      <trkpt lat="44.992" lon="6.5118">
        <ele>1991.6</ele>
        <time>2021-02-28T13:57:54Z</time>
      </trkpt>
      <trkpt lat="44.992" lon="6.51183">
        <ele>1991.4</ele>
        <time>2021-02-28T13:57:55Z</time>
      </trkpt>
      <trkpt lat="44.992" lon="6.51183">
        <ele>1991.4</ele>
        <time>2021-02-28T13:57:56Z</time>
      </trkpt>
      <trkpt lat="44.992" lon="6.51183">
        <ele>1991.8</ele>
        <time>2021-02-28T13:57:57Z</time>
      </trkpt>
      <trkpt lat="44.992" lon="6.51186">
        <ele>1992</ele>
        <time>2021-02-28T13:57:58Z</time>
      </trkpt>
      <trkpt lat="44.992" lon="6.51186">
        <ele>1992</ele>
        <time>2021-02-28T13:57:59Z</time>
      </trkpt>
      <trkpt lat="44.99201" lon="6.51188">
        <ele>1992.2</ele>
        <time>2021-02-28T13:58:00Z</time>
      </trkpt>
      <trkpt lat="44.99201" lon="6.51188">
        <ele>1992.2</ele>
        <time>2021-02-28T13:58:01Z</time>
      </trkpt>
      <trkpt lat="44.99199" lon="6.51191">
        <ele>1992</ele>
        <time>2021-02-28T13:58:02Z</time>
      </trkpt>
      <trkpt lat="44.99199" lon="6.51191">
        <ele>1992</ele>
        <time>2021-02-28T13:58:03Z</time>
      </trkpt>
      <trkpt lat="44.99198" lon="6.51192">
        <ele>1991.8</ele>
        <time>2021-02-28T13:58:04Z</time>
      </trkpt>
      <trkpt lat="44.99198" lon="6.51192">
        <ele>1991.8</ele>
        <time>2021-02-28T13:58:05Z</time>
      </trkpt>
      <trkpt lat="44.99198" lon="6.51192">
        <ele>1991.6</ele>
        <time>2021-02-28T13:58:06Z</time>
      </trkpt>
      <trkpt lat="44.99196" lon="6.51194">
        <ele>1991.6</ele>
        <time>2021-02-28T13:58:07Z</time>
      </trkpt>
      <trkpt lat="44.99196" lon="6.51194">
        <ele>1991.4</ele>
        <time>2021-02-28T13:58:08Z</time>
      </trkpt>
      <trkpt lat="44.99196" lon="6.51194">
        <ele>1991.2</ele>
        <time>2021-02-28T13:58:09Z</time>
      </trkpt>
      <trkpt lat="44.99194" lon="6.51195">
        <ele>1991</ele>
        <time>2021-02-28T13:58:10Z</time>
      </trkpt>
      <trkpt lat="44.99194" lon="6.51195">
        <ele>1991</ele>
        <time>2021-02-28T13:58:11Z</time>
      </trkpt>
      <trkpt lat="44.99194" lon="6.51195">
        <ele>1990.6</ele>
        <time>2021-02-28T13:58:12Z</time>
      </trkpt>
      <trkpt lat="44.99192" lon="6.51196">
        <ele>1990.4</ele>
        <time>2021-02-28T13:58:13Z</time>
      </trkpt>
      <trkpt lat="44.99192" lon="6.51196">
        <ele>1990</ele>
        <time>2021-02-28T13:58:14Z</time>
      </trkpt>
      <trkpt lat="44.99192" lon="6.51196">
        <ele>1989.8</ele>
        <time>2021-02-28T13:58:15Z</time>
      </trkpt>
      <trkpt lat="44.99192" lon="6.51193">
        <ele>1989.6</ele>
        <time>2021-02-28T13:58:16Z</time>
      </trkpt>
      <trkpt lat="44.99192" lon="6.51193">
        <ele>1989.8</ele>
        <time>2021-02-28T13:58:17Z</time>
      </trkpt>
      <trkpt lat="44.99192" lon="6.51193">
        <ele>1989.8</ele>
        <time>2021-02-28T13:58:18Z</time>
      </trkpt>
      <trkpt lat="44.99192" lon="6.51193">
        <ele>1989.6</ele>
        <time>2021-02-28T13:58:19Z</time>
      </trkpt>
      <trkpt lat="44.99192" lon="6.51193">
        <ele>1989.8</ele>
        <time>2021-02-28T13:58:20Z</time>
      </trkpt>
      <trkpt lat="44.99192" lon="6.51193">
        <ele>1989.8</ele>
        <time>2021-02-28T13:58:21Z</time>
      </trkpt>
      <trkpt lat="44.99192" lon="6.51193">
        <ele>1989.4</ele>
        <time>2021-02-28T13:58:22Z</time>
      </trkpt>
      <trkpt lat="44.99192" lon="6.51193">
        <ele>1989.2</ele>
        <time>2021-02-28T13:58:23Z</time>
      </trkpt>
      <trkpt lat="44.99192" lon="6.51193">
        <ele>1988.8</ele>
        <time>2021-02-28T13:58:24Z</time>
      </trkpt>
      <trkpt lat="44.99192" lon="6.51193">
        <ele>1988.8</ele>
        <time>2021-02-28T13:58:25Z</time>
      </trkpt>
      <trkpt lat="44.99192" lon="6.51193">
        <ele>1988.6</ele>
        <time>2021-02-28T13:58:26Z</time>
      </trkpt>
      <trkpt lat="44.99192" lon="6.51193">
        <ele>1988.4</ele>
        <time>2021-02-28T13:58:27Z</time>
      </trkpt>
      <trkpt lat="44.99192" lon="6.51193">
        <ele>1988.4</ele>
        <time>2021-02-28T13:58:28Z</time>
      </trkpt>
      <trkpt lat="44.99192" lon="6.51193">
        <ele>1988.4</ele>
        <time>2021-02-28T13:58:29Z</time>
      </trkpt>
      <trkpt lat="44.99192" lon="6.51193">
        <ele>1988.4</ele>
        <time>2021-02-28T13:58:30Z</time>
      </trkpt>
      <trkpt lat="44.99192" lon="6.51193">
        <ele>1988.6</ele>
        <time>2021-02-28T13:58:31Z</time>
      </trkpt>
      <trkpt lat="44.99192" lon="6.51193">
        <ele>1988.4</ele>
        <time>2021-02-28T13:58:32Z</time>
      </trkpt>
      <trkpt lat="44.99192" lon="6.51193">
        <ele>1988.6</ele>
        <time>2021-02-28T13:58:33Z</time>
      </trkpt>
      <trkpt lat="44.99192" lon="6.51193">
        <ele>1988.6</ele>
        <time>2021-02-28T13:58:34Z</time>
      </trkpt>
      <trkpt lat="44.99192" lon="6.51193">
        <ele>1988.4</ele>
        <time>2021-02-28T13:58:35Z</time>
      </trkpt>
      <trkpt lat="44.99193" lon="6.51196">
        <ele>1988.4</ele>
        <time>2021-02-28T13:58:36Z</time>
      </trkpt>
      <trkpt lat="44.99193" lon="6.51196">
        <ele>1988.2</ele>
        <time>2021-02-28T13:58:37Z</time>
      </trkpt>
      <trkpt lat="44.99193" lon="6.51196">
        <ele>1988.2</ele>
        <time>2021-02-28T13:58:38Z</time>
      </trkpt>
      <trkpt lat="44.99193" lon="6.51196">
        <ele>1988.2</ele>
        <time>2021-02-28T13:58:39Z</time>
      </trkpt>
      <trkpt lat="44.99193" lon="6.51196">
        <ele>1988.2</ele>
        <time>2021-02-28T13:58:40Z</time>
      </trkpt>
      <trkpt lat="44.99193" lon="6.51196">
        <ele>1988.4</ele>
        <time>2021-02-28T13:58:41Z</time>
      </trkpt>
      <trkpt lat="44.99193" lon="6.51196">
        <ele>1988.4</ele>
        <time>2021-02-28T13:58:42Z</time>
      </trkpt>
      <trkpt lat="44.99193" lon="6.51196">
        <ele>1988.4</ele>
        <time>2021-02-28T13:58:43Z</time>
      </trkpt>
      <trkpt lat="44.99193" lon="6.51196">
        <ele>1988</ele>
        <time>2021-02-28T13:58:44Z</time>
      </trkpt>
      <trkpt lat="44.99193" lon="6.51196">
        <ele>1988</ele>
        <time>2021-02-28T13:58:45Z</time>
      </trkpt>
      <trkpt lat="44.99193" lon="6.51196">
        <ele>1988</ele>
        <time>2021-02-28T13:58:46Z</time>
      </trkpt>
      <trkpt lat="44.99193" lon="6.51196">
        <ele>1988</ele>
        <time>2021-02-28T13:58:47Z</time>
      </trkpt>
      <trkpt lat="44.99193" lon="6.51196">
        <ele>1988</ele>
        <time>2021-02-28T13:58:48Z</time>
      </trkpt>
      <trkpt lat="44.99193" lon="6.51196">
        <ele>1988</ele>
        <time>2021-02-28T13:58:49Z</time>
      </trkpt>
      <trkpt lat="44.99193" lon="6.51196">
        <ele>1988</ele>
        <time>2021-02-28T13:58:50Z</time>
      </trkpt>
      <trkpt lat="44.99193" lon="6.51196">
        <ele>1988</ele>
        <time>2021-02-28T13:58:51Z</time>
      </trkpt>
      <trkpt lat="44.99195" lon="6.51197">
        <ele>1988</ele>
        <time>2021-02-28T13:58:52Z</time>
      </trkpt>
      <trkpt lat="44.99195" lon="6.51197">
        <ele>1988.2</ele>
        <time>2021-02-28T13:58:53Z</time>
      </trkpt>
      <trkpt lat="44.99195" lon="6.51197">
        <ele>1988.2</ele>
        <time>2021-02-28T13:58:54Z</time>
      </trkpt>
      <trkpt lat="44.99195" lon="6.51197">
        <ele>1988.4</ele>
        <time>2021-02-28T13:58:55Z</time>
      </trkpt>
      <trkpt lat="44.99195" lon="6.51197">
        <ele>1988.6</ele>
        <time>2021-02-28T13:58:56Z</time>
      </trkpt>
      <trkpt lat="44.99195" lon="6.51197">
        <ele>1988.8</ele>
        <time>2021-02-28T13:58:57Z</time>
      </trkpt>
      <trkpt lat="44.99192" lon="6.51196">
        <ele>1989.2</ele>
        <time>2021-02-28T13:58:58Z</time>
      </trkpt>
      <trkpt lat="44.99192" lon="6.51196">
        <ele>1989.2</ele>
        <time>2021-02-28T13:58:59Z</time>
      </trkpt>
      <trkpt lat="44.99192" lon="6.51196">
        <ele>1989.2</ele>
        <time>2021-02-28T13:59:00Z</time>
      </trkpt>
      <trkpt lat="44.99192" lon="6.51196">
        <ele>1989.2</ele>
        <time>2021-02-28T13:59:01Z</time>
      </trkpt>
      <trkpt lat="44.99192" lon="6.51196">
        <ele>1989.6</ele>
        <time>2021-02-28T13:59:02Z</time>
      </trkpt>
      <trkpt lat="44.99192" lon="6.51196">
        <ele>1989.8</ele>
        <time>2021-02-28T13:59:03Z</time>
      </trkpt>
      <trkpt lat="44.99192" lon="6.51196">
        <ele>1990</ele>
        <time>2021-02-28T13:59:04Z</time>
      </trkpt>
      <trkpt lat="44.9919" lon="6.51198">
        <ele>1990</ele>
        <time>2021-02-28T13:59:05Z</time>
      </trkpt>
      <trkpt lat="44.9919" lon="6.51198">
        <ele>1990.2</ele>
        <time>2021-02-28T13:59:06Z</time>
      </trkpt>
      <trkpt lat="44.99187" lon="6.512">
        <ele>1990</ele>
        <time>2021-02-28T13:59:07Z</time>
      </trkpt>
      <trkpt lat="44.99184" lon="6.51201">
        <ele>1989.8</ele>
        <time>2021-02-28T13:59:08Z</time>
      </trkpt>
      <trkpt lat="44.99183" lon="6.51202">
        <ele>1989.6</ele>
        <time>2021-02-28T13:59:09Z</time>
      </trkpt>
      <trkpt lat="44.9918" lon="6.51203">
        <ele>1989.4</ele>
        <time>2021-02-28T13:59:10Z</time>
      </trkpt>
      <trkpt lat="44.99177" lon="6.51205">
        <ele>1989</ele>
        <time>2021-02-28T13:59:11Z</time>
      </trkpt>
      <trkpt lat="44.99177" lon="6.51205">
        <ele>1988.6</ele>
        <time>2021-02-28T13:59:12Z</time>
      </trkpt>
      <trkpt lat="44.99177" lon="6.51205">
        <ele>1988.4</ele>
        <time>2021-02-28T13:59:13Z</time>
      </trkpt>
      <trkpt lat="44.99164" lon="6.51208">
        <ele>1988.2</ele>
        <time>2021-02-28T13:59:14Z</time>
      </trkpt>
      <trkpt lat="44.99162" lon="6.51208">
        <ele>1987.8</ele>
        <time>2021-02-28T13:59:15Z</time>
      </trkpt>
      <trkpt lat="44.9916" lon="6.51209">
        <ele>1987.2</ele>
        <time>2021-02-28T13:59:16Z</time>
      </trkpt>
      <trkpt lat="44.99151" lon="6.51213">
        <ele>1986.6</ele>
        <time>2021-02-28T13:59:17Z</time>
      </trkpt>
      <trkpt lat="44.99148" lon="6.51215">
        <ele>1986.4</ele>
        <time>2021-02-28T13:59:18Z</time>
      </trkpt>
      <trkpt lat="44.99142" lon="6.5122">
        <ele>1985.4</ele>
        <time>2021-02-28T13:59:19Z</time>
      </trkpt>
      <trkpt lat="44.99142" lon="6.5122">
        <ele>1984.8</ele>
        <time>2021-02-28T13:59:20Z</time>
      </trkpt>
      <trkpt lat="44.99142" lon="6.5122">
        <ele>1984.6</ele>
        <time>2021-02-28T13:59:21Z</time>
      </trkpt>
      <trkpt lat="44.99142" lon="6.5122">
        <ele>1984.4</ele>
        <time>2021-02-28T13:59:22Z</time>
      </trkpt>
      <trkpt lat="44.99142" lon="6.5122">
        <ele>1984.2</ele>
        <time>2021-02-28T13:59:23Z</time>
      </trkpt>
      <trkpt lat="44.99142" lon="6.5122">
        <ele>1983.8</ele>
        <time>2021-02-28T13:59:24Z</time>
      </trkpt>
      <trkpt lat="44.99142" lon="6.5122">
        <ele>1983.6</ele>
        <time>2021-02-28T13:59:25Z</time>
      </trkpt>
      <trkpt lat="44.9914" lon="6.51223">
        <ele>1983.4</ele>
        <time>2021-02-28T13:59:26Z</time>
      </trkpt>
      <trkpt lat="44.99138" lon="6.51225">
        <ele>1983.2</ele>
        <time>2021-02-28T13:59:27Z</time>
      </trkpt>
      <trkpt lat="44.99134" lon="6.51226">
        <ele>1982.8</ele>
        <time>2021-02-28T13:59:28Z</time>
      </trkpt>
      <trkpt lat="44.9913" lon="6.51226">
        <ele>1982.4</ele>
        <time>2021-02-28T13:59:29Z</time>
      </trkpt>
      <trkpt lat="44.99126" lon="6.51226">
        <ele>1981.8</ele>
        <time>2021-02-28T13:59:30Z</time>
      </trkpt>
      <trkpt lat="44.99123" lon="6.51229">
        <ele>1980.8</ele>
        <time>2021-02-28T13:59:31Z</time>
      </trkpt>
      <trkpt lat="44.99118" lon="6.51233">
        <ele>1980</ele>
        <time>2021-02-28T13:59:32Z</time>
      </trkpt>
      <trkpt lat="44.99113" lon="6.51236">
        <ele>1979</ele>
        <time>2021-02-28T13:59:33Z</time>
      </trkpt>
      <trkpt lat="44.99108" lon="6.51237">
        <ele>1977.8</ele>
        <time>2021-02-28T13:59:34Z</time>
      </trkpt>
      <trkpt lat="44.99108" lon="6.51237">
        <ele>1977.4</ele>
        <time>2021-02-28T13:59:35Z</time>
      </trkpt>
      <trkpt lat="44.99098" lon="6.5124">
        <ele>1977</ele>
        <time>2021-02-28T13:59:36Z</time>
      </trkpt>
      <trkpt lat="44.99093" lon="6.51241">
        <ele>1975.8</ele>
        <time>2021-02-28T13:59:37Z</time>
      </trkpt>
      <trkpt lat="44.99089" lon="6.51243">
        <ele>1974.6</ele>
        <time>2021-02-28T13:59:38Z</time>
      </trkpt>
      <trkpt lat="44.99089" lon="6.51243">
        <ele>1973.4</ele>
        <time>2021-02-28T13:59:39Z</time>
      </trkpt>
      <trkpt lat="44.99089" lon="6.51243">
        <ele>1972.2</ele>
        <time>2021-02-28T13:59:40Z</time>
      </trkpt>
      <trkpt lat="44.99077" lon="6.51241">
        <ele>1971.4</ele>
        <time>2021-02-28T13:59:41Z</time>
      </trkpt>
      <trkpt lat="44.99075" lon="6.51241">
        <ele>1970.6</ele>
        <time>2021-02-28T13:59:42Z</time>
      </trkpt>
      <trkpt lat="44.99073" lon="6.5124">
        <ele>1970</ele>
        <time>2021-02-28T13:59:43Z</time>
      </trkpt>
      <trkpt lat="44.99066" lon="6.5124">
        <ele>1969.4</ele>
        <time>2021-02-28T13:59:44Z</time>
      </trkpt>
      <trkpt lat="44.99064" lon="6.5124">
        <ele>1968.6</ele>
        <time>2021-02-28T13:59:45Z</time>
      </trkpt>
      <trkpt lat="44.99062" lon="6.5124">
        <ele>1967.8</ele>
        <time>2021-02-28T13:59:46Z</time>
      </trkpt>
      <trkpt lat="44.99054" lon="6.51241">
        <ele>1966.8</ele>
        <time>2021-02-28T13:59:47Z</time>
      </trkpt>
      <trkpt lat="44.99053" lon="6.51241">
        <ele>1966.2</ele>
        <time>2021-02-28T13:59:48Z</time>
      </trkpt>
      <trkpt lat="44.99051" lon="6.51241">
        <ele>1965.6</ele>
        <time>2021-02-28T13:59:49Z</time>
      </trkpt>
      <trkpt lat="44.99046" lon="6.51242">
        <ele>1964.8</ele>
        <time>2021-02-28T13:59:50Z</time>
      </trkpt>
      <trkpt lat="44.99046" lon="6.51242">
        <ele>1964.6</ele>
        <time>2021-02-28T13:59:51Z</time>
      </trkpt>
      <trkpt lat="44.99032" lon="6.51237">
        <ele>1964</ele>
        <time>2021-02-28T13:59:52Z</time>
      </trkpt>
      <trkpt lat="44.99031" lon="6.51236">
        <ele>1963.2</ele>
        <time>2021-02-28T13:59:53Z</time>
      </trkpt>
      <trkpt lat="44.99029" lon="6.51235">
        <ele>1962.8</ele>
        <time>2021-02-28T13:59:54Z</time>
      </trkpt>
      <trkpt lat="44.99025" lon="6.51231">
        <ele>1962.2</ele>
        <time>2021-02-28T13:59:55Z</time>
      </trkpt>
      <trkpt lat="44.99025" lon="6.51231">
        <ele>1962</ele>
        <time>2021-02-28T13:59:56Z</time>
      </trkpt>
      <trkpt lat="44.99025" lon="6.51231">
        <ele>1961.6</ele>
        <time>2021-02-28T13:59:57Z</time>
      </trkpt>
      <trkpt lat="44.99025" lon="6.51231">
        <ele>1961.2</ele>
        <time>2021-02-28T13:59:58Z</time>
      </trkpt>
      <trkpt lat="44.99025" lon="6.51231">
        <ele>1961</ele>
        <time>2021-02-28T13:59:59Z</time>
      </trkpt>
      <trkpt lat="44.99025" lon="6.51231">
        <ele>1960.8</ele>
        <time>2021-02-28T14:00:00Z</time>
      </trkpt>
      <trkpt lat="44.99024" lon="6.5123">
        <ele>1960.6</ele>
        <time>2021-02-28T14:00:01Z</time>
      </trkpt>
      <trkpt lat="44.99024" lon="6.5123">
        <ele>1960.6</ele>
        <time>2021-02-28T14:00:02Z</time>
      </trkpt>
      <trkpt lat="44.99021" lon="6.51228">
        <ele>1960.4</ele>
        <time>2021-02-28T14:00:03Z</time>
      </trkpt>
      <trkpt lat="44.99018" lon="6.51227">
        <ele>1960.4</ele>
        <time>2021-02-28T14:00:04Z</time>
      </trkpt>
      <trkpt lat="44.99015" lon="6.51225">
        <ele>1959.8</ele>
        <time>2021-02-28T14:00:05Z</time>
      </trkpt>
      <trkpt lat="44.99012" lon="6.51224">
        <ele>1959</ele>
        <time>2021-02-28T14:00:06Z</time>
      </trkpt>
      <trkpt lat="44.99008" lon="6.51223">
        <ele>1958.8</ele>
        <time>2021-02-28T14:00:07Z</time>
      </trkpt>
      <trkpt lat="44.99004" lon="6.51223">
        <ele>1958.4</ele>
        <time>2021-02-28T14:00:08Z</time>
      </trkpt>
      <trkpt lat="44.99004" lon="6.51223">
        <ele>1957.8</ele>
        <time>2021-02-28T14:00:09Z</time>
      </trkpt>
      <trkpt lat="44.99004" lon="6.51223">
        <ele>1957.6</ele>
        <time>2021-02-28T14:00:10Z</time>
      </trkpt>
      <trkpt lat="44.99004" lon="6.51223">
        <ele>1957.8</ele>
        <time>2021-02-28T14:00:11Z</time>
      </trkpt>
      <trkpt lat="44.99003" lon="6.51221">
        <ele>1957.2</ele>
        <time>2021-02-28T14:00:12Z</time>
      </trkpt>
      <trkpt lat="44.99003" lon="6.51221">
        <ele>1957</ele>
        <time>2021-02-28T14:00:13Z</time>
      </trkpt>
      <trkpt lat="44.99003" lon="6.51221">
        <ele>1956.4</ele>
        <time>2021-02-28T14:00:14Z</time>
      </trkpt>
      <trkpt lat="44.99003" lon="6.51221">
        <ele>1956.2</ele>
        <time>2021-02-28T14:00:15Z</time>
      </trkpt>
      <trkpt lat="44.99003" lon="6.51221">
        <ele>1956</ele>
        <time>2021-02-28T14:00:16Z</time>
      </trkpt>
      <trkpt lat="44.99003" lon="6.51221">
        <ele>1956.2</ele>
        <time>2021-02-28T14:00:17Z</time>
      </trkpt>
      <trkpt lat="44.99003" lon="6.51221">
        <ele>1956.4</ele>
        <time>2021-02-28T14:00:18Z</time>
      </trkpt>
      <trkpt lat="44.99003" lon="6.51221">
        <ele>1956.4</ele>
        <time>2021-02-28T14:00:19Z</time>
      </trkpt>
      <trkpt lat="44.99003" lon="6.51221">
        <ele>1956.6</ele>
        <time>2021-02-28T14:00:20Z</time>
      </trkpt>
      <trkpt lat="44.99" lon="6.51221">
        <ele>1956.2</ele>
        <time>2021-02-28T14:00:21Z</time>
      </trkpt>
      <trkpt lat="44.98998" lon="6.51221">
        <ele>1956.2</ele>
        <time>2021-02-28T14:00:22Z</time>
      </trkpt>
      <trkpt lat="44.98998" lon="6.51221">
        <ele>1956</ele>
        <time>2021-02-28T14:00:23Z</time>
      </trkpt>
      <trkpt lat="44.9899" lon="6.51223">
        <ele>1955.2</ele>
        <time>2021-02-28T14:00:24Z</time>
      </trkpt>
      <trkpt lat="44.9899" lon="6.51223">
        <ele>1954.8</ele>
        <time>2021-02-28T14:00:25Z</time>
      </trkpt>
      <trkpt lat="44.9899" lon="6.51223">
        <ele>1954.2</ele>
        <time>2021-02-28T14:00:26Z</time>
      </trkpt>
      <trkpt lat="44.98989" lon="6.51224">
        <ele>1953.6</ele>
        <time>2021-02-28T14:00:27Z</time>
      </trkpt>
      <trkpt lat="44.98988" lon="6.51225">
        <ele>1953</ele>
        <time>2021-02-28T14:00:28Z</time>
      </trkpt>
      <trkpt lat="44.98987" lon="6.51226">
        <ele>1952.6</ele>
        <time>2021-02-28T14:00:29Z</time>
      </trkpt>
      <trkpt lat="44.98987" lon="6.51227">
        <ele>1952.2</ele>
        <time>2021-02-28T14:00:30Z</time>
      </trkpt>
      <trkpt lat="44.98986" lon="6.51228">
        <ele>1951.8</ele>
        <time>2021-02-28T14:00:31Z</time>
      </trkpt>
      <trkpt lat="44.98985" lon="6.51229">
        <ele>1952</ele>
        <time>2021-02-28T14:00:32Z</time>
      </trkpt>
      <trkpt lat="44.98984" lon="6.5123">
        <ele>1952</ele>
        <time>2021-02-28T14:00:33Z</time>
      </trkpt>
      <trkpt lat="44.98983" lon="6.51231">
        <ele>1952</ele>
        <time>2021-02-28T14:00:34Z</time>
      </trkpt>
      <trkpt lat="44.98983" lon="6.51232">
        <ele>1951.8</ele>
        <time>2021-02-28T14:00:35Z</time>
      </trkpt>
      <trkpt lat="44.98983" lon="6.51232">
        <ele>1951.8</ele>
        <time>2021-02-28T14:00:36Z</time>
      </trkpt>
      <trkpt lat="44.98983" lon="6.51232">
        <ele>1951.8</ele>
        <time>2021-02-28T14:00:37Z</time>
      </trkpt>
      <trkpt lat="44.98983" lon="6.51232">
        <ele>1951.8</ele>
        <time>2021-02-28T14:00:38Z</time>
      </trkpt>
      <trkpt lat="44.98983" lon="6.51232">
        <ele>1951.6</ele>
        <time>2021-02-28T14:00:39Z</time>
      </trkpt>
      <trkpt lat="44.98983" lon="6.51232">
        <ele>1951.2</ele>
        <time>2021-02-28T14:00:40Z</time>
      </trkpt>
      <trkpt lat="44.98983" lon="6.51232">
        <ele>1951</ele>
        <time>2021-02-28T14:00:41Z</time>
      </trkpt>
      <trkpt lat="44.98983" lon="6.51232">
        <ele>1950.8</ele>
        <time>2021-02-28T14:00:42Z</time>
      </trkpt>
      <trkpt lat="44.98983" lon="6.51232">
        <ele>1950.8</ele>
        <time>2021-02-28T14:00:43Z</time>
      </trkpt>
      <trkpt lat="44.98983" lon="6.51232">
        <ele>1950.6</ele>
        <time>2021-02-28T14:00:44Z</time>
      </trkpt>
      <trkpt lat="44.98981" lon="6.5123">
        <ele>1950.4</ele>
        <time>2021-02-28T14:00:45Z</time>
      </trkpt>
      <trkpt lat="44.98981" lon="6.5123">
        <ele>1950.4</ele>
        <time>2021-02-28T14:00:46Z</time>
      </trkpt>
      <trkpt lat="44.98981" lon="6.5123">
        <ele>1950.4</ele>
        <time>2021-02-28T14:00:47Z</time>
      </trkpt>
      <trkpt lat="44.98981" lon="6.5123">
        <ele>1950.6</ele>
        <time>2021-02-28T14:00:48Z</time>
      </trkpt>
      <trkpt lat="44.9898" lon="6.51231">
        <ele>1951</ele>
        <time>2021-02-28T14:00:49Z</time>
      </trkpt>
      <trkpt lat="44.98979" lon="6.51231">
        <ele>1951.2</ele>
        <time>2021-02-28T14:00:50Z</time>
      </trkpt>
      <trkpt lat="44.98979" lon="6.51231">
        <ele>1951</ele>
        <time>2021-02-28T14:00:51Z</time>
      </trkpt>
      <trkpt lat="44.98978" lon="6.51232">
        <ele>1950.6</ele>
        <time>2021-02-28T14:00:52Z</time>
      </trkpt>
      <trkpt lat="44.98978" lon="6.51232">
        <ele>1950.4</ele>
        <time>2021-02-28T14:00:53Z</time>
      </trkpt>
      <trkpt lat="44.98977" lon="6.51232">
        <ele>1950.4</ele>
        <time>2021-02-28T14:00:54Z</time>
      </trkpt>
      <trkpt lat="44.98977" lon="6.51232">
        <ele>1950.2</ele>
        <time>2021-02-28T14:00:55Z</time>
      </trkpt>
      <trkpt lat="44.98976" lon="6.51233">
        <ele>1950.4</ele>
        <time>2021-02-28T14:00:56Z</time>
      </trkpt>
      <trkpt lat="44.98976" lon="6.51233">
        <ele>1950.2</ele>
        <time>2021-02-28T14:00:57Z</time>
      </trkpt>
      <trkpt lat="44.98975" lon="6.51233">
        <ele>1950</ele>
        <time>2021-02-28T14:00:58Z</time>
      </trkpt>
      <trkpt lat="44.98975" lon="6.51233">
        <ele>1950</ele>
        <time>2021-02-28T14:00:59Z</time>
      </trkpt>
      <trkpt lat="44.98974" lon="6.51234">
        <ele>1949.8</ele>
        <time>2021-02-28T14:01:00Z</time>
      </trkpt>
      <trkpt lat="44.98973" lon="6.51234">
        <ele>1949.4</ele>
        <time>2021-02-28T14:01:01Z</time>
      </trkpt>
      <trkpt lat="44.98973" lon="6.51234">
        <ele>1949</ele>
        <time>2021-02-28T14:01:02Z</time>
      </trkpt>
      <trkpt lat="44.98972" lon="6.51235">
        <ele>1948.6</ele>
        <time>2021-02-28T14:01:03Z</time>
      </trkpt>
      <trkpt lat="44.98971" lon="6.51235">
        <ele>1948.6</ele>
        <time>2021-02-28T14:01:04Z</time>
      </trkpt>
      <trkpt lat="44.98969" lon="6.51236">
        <ele>1948.2</ele>
        <time>2021-02-28T14:01:05Z</time>
      </trkpt>
      <trkpt lat="44.98968" lon="6.51236">
        <ele>1948</ele>
        <time>2021-02-28T14:01:06Z</time>
      </trkpt>
      <trkpt lat="44.98966" lon="6.51237">
        <ele>1947.8</ele>
        <time>2021-02-28T14:01:07Z</time>
      </trkpt>
      <trkpt lat="44.98965" lon="6.51237">
        <ele>1947.8</ele>
        <time>2021-02-28T14:01:08Z</time>
      </trkpt>
      <trkpt lat="44.98963" lon="6.51238">
        <ele>1947.6</ele>
        <time>2021-02-28T14:01:09Z</time>
      </trkpt>
      <trkpt lat="44.98962" lon="6.51238">
        <ele>1947.6</ele>
        <time>2021-02-28T14:01:10Z</time>
      </trkpt>
      <trkpt lat="44.9896" lon="6.51239">
        <ele>1947.6</ele>
        <time>2021-02-28T14:01:11Z</time>
      </trkpt>
      <trkpt lat="44.98958" lon="6.5124">
        <ele>1947.8</ele>
        <time>2021-02-28T14:01:12Z</time>
      </trkpt>
      <trkpt lat="44.98958" lon="6.5124">
        <ele>1947.6</ele>
        <time>2021-02-28T14:01:13Z</time>
      </trkpt>
      <trkpt lat="44.98958" lon="6.5124">
        <ele>1947.6</ele>
        <time>2021-02-28T14:01:14Z</time>
      </trkpt>
      <trkpt lat="44.98957" lon="6.51241">
        <ele>1947.4</ele>
        <time>2021-02-28T14:01:15Z</time>
      </trkpt>
      <trkpt lat="44.98957" lon="6.51242">
        <ele>1947.2</ele>
        <time>2021-02-28T14:01:16Z</time>
      </trkpt>
      <trkpt lat="44.98956" lon="6.51243">
        <ele>1947</ele>
        <time>2021-02-28T14:01:17Z</time>
      </trkpt>
      <trkpt lat="44.98956" lon="6.51243">
        <ele>1946.8</ele>
        <time>2021-02-28T14:01:18Z</time>
      </trkpt>
      <trkpt lat="44.98955" lon="6.51244">
        <ele>1947</ele>
        <time>2021-02-28T14:01:19Z</time>
      </trkpt>
      <trkpt lat="44.98955" lon="6.51245">
        <ele>1947.2</ele>
        <time>2021-02-28T14:01:20Z</time>
      </trkpt>
      <trkpt lat="44.98955" lon="6.51245">
        <ele>1947.4</ele>
        <time>2021-02-28T14:01:21Z</time>
      </trkpt>
      <trkpt lat="44.98955" lon="6.51245">
        <ele>1947.6</ele>
        <time>2021-02-28T14:01:22Z</time>
      </trkpt>
      <trkpt lat="44.98955" lon="6.51245">
        <ele>1947.4</ele>
        <time>2021-02-28T14:01:23Z</time>
      </trkpt>
      <trkpt lat="44.98953" lon="6.51247">
        <ele>1947.4</ele>
        <time>2021-02-28T14:01:24Z</time>
      </trkpt>
      <trkpt lat="44.98953" lon="6.51247">
        <ele>1947.4</ele>
        <time>2021-02-28T14:01:25Z</time>
      </trkpt>
      <trkpt lat="44.98953" lon="6.51249">
        <ele>1947</ele>
        <time>2021-02-28T14:01:26Z</time>
      </trkpt>
      <trkpt lat="44.98953" lon="6.51249">
        <ele>1946.6</ele>
        <time>2021-02-28T14:01:27Z</time>
      </trkpt>
      <trkpt lat="44.98953" lon="6.51249">
        <ele>1946.6</ele>
        <time>2021-02-28T14:01:28Z</time>
      </trkpt>
      <trkpt lat="44.98952" lon="6.51253">
        <ele>1946.4</ele>
        <time>2021-02-28T14:01:29Z</time>
      </trkpt>
      <trkpt lat="44.98952" lon="6.51253">
        <ele>1946.2</ele>
        <time>2021-02-28T14:01:30Z</time>
      </trkpt>
      <trkpt lat="44.98952" lon="6.51253">
        <ele>1946.2</ele>
        <time>2021-02-28T14:01:31Z</time>
      </trkpt>
      <trkpt lat="44.98952" lon="6.51254">
        <ele>1946</ele>
        <time>2021-02-28T14:01:32Z</time>
      </trkpt>
      <trkpt lat="44.98952" lon="6.51256">
        <ele>1945.8</ele>
        <time>2021-02-28T14:01:33Z</time>
      </trkpt>
      <trkpt lat="44.98952" lon="6.51257">
        <ele>1945.4</ele>
        <time>2021-02-28T14:01:34Z</time>
      </trkpt>
      <trkpt lat="44.98953" lon="6.51259">
        <ele>1945.4</ele>
        <time>2021-02-28T14:01:35Z</time>
      </trkpt>
      <trkpt lat="44.98953" lon="6.5126">
        <ele>1945</ele>
        <time>2021-02-28T14:01:36Z</time>
      </trkpt>
      <trkpt lat="44.98953" lon="6.51262">
        <ele>1944.8</ele>
        <time>2021-02-28T14:01:37Z</time>
      </trkpt>
      <trkpt lat="44.98954" lon="6.51263">
        <ele>1944.4</ele>
        <time>2021-02-28T14:01:38Z</time>
      </trkpt>
      <trkpt lat="44.98954" lon="6.51265">
        <ele>1944.2</ele>
        <time>2021-02-28T14:01:39Z</time>
      </trkpt>
      <trkpt lat="44.98954" lon="6.51266">
        <ele>1944.2</ele>
        <time>2021-02-28T14:01:40Z</time>
      </trkpt>
      <trkpt lat="44.98955" lon="6.51268">
        <ele>1944.4</ele>
        <time>2021-02-28T14:01:41Z</time>
      </trkpt>
      <trkpt lat="44.98955" lon="6.51269">
        <ele>1944.2</ele>
        <time>2021-02-28T14:01:42Z</time>
      </trkpt>
      <trkpt lat="44.98955" lon="6.51271">
        <ele>1944.2</ele>
        <time>2021-02-28T14:01:43Z</time>
      </trkpt>
      <trkpt lat="44.98956" lon="6.51272">
        <ele>1944.2</ele>
        <time>2021-02-28T14:01:44Z</time>
      </trkpt>
      <trkpt lat="44.98956" lon="6.51274">
        <ele>1944.2</ele>
        <time>2021-02-28T14:01:45Z</time>
      </trkpt>
      <trkpt lat="44.98956" lon="6.51275">
        <ele>1944.2</ele>
        <time>2021-02-28T14:01:46Z</time>
      </trkpt>
      <trkpt lat="44.98957" lon="6.51277">
        <ele>1944.2</ele>
        <time>2021-02-28T14:01:47Z</time>
      </trkpt>
      <trkpt lat="44.98957" lon="6.51279">
        <ele>1944.6</ele>
        <time>2021-02-28T14:01:48Z</time>
      </trkpt>
      <trkpt lat="44.98956" lon="6.51279">
        <ele>1944.6</ele>
        <time>2021-02-28T14:01:49Z</time>
      </trkpt>
      <trkpt lat="44.98956" lon="6.5128">
        <ele>1944.2</ele>
        <time>2021-02-28T14:01:50Z</time>
      </trkpt>
      <trkpt lat="44.98955" lon="6.5128">
        <ele>1943.8</ele>
        <time>2021-02-28T14:01:51Z</time>
      </trkpt>
      <trkpt lat="44.98955" lon="6.51281">
        <ele>1943.6</ele>
        <time>2021-02-28T14:01:52Z</time>
      </trkpt>
      <trkpt lat="44.98954" lon="6.51281">
        <ele>1943.6</ele>
        <time>2021-02-28T14:01:53Z</time>
      </trkpt>
      <trkpt lat="44.98954" lon="6.51282">
        <ele>1943.4</ele>
        <time>2021-02-28T14:01:54Z</time>
      </trkpt>
      <trkpt lat="44.98953" lon="6.51282">
        <ele>1943.4</ele>
        <time>2021-02-28T14:01:55Z</time>
      </trkpt>
      <trkpt lat="44.98953" lon="6.51283">
        <ele>1943.4</ele>
        <time>2021-02-28T14:01:56Z</time>
      </trkpt>
      <trkpt lat="44.98952" lon="6.51283">
        <ele>1943.2</ele>
        <time>2021-02-28T14:01:57Z</time>
      </trkpt>
      <trkpt lat="44.98952" lon="6.51284">
        <ele>1943.2</ele>
        <time>2021-02-28T14:01:58Z</time>
      </trkpt>
      <trkpt lat="44.98952" lon="6.51284">
        <ele>1943.2</ele>
        <time>2021-02-28T14:01:59Z</time>
      </trkpt>
      <trkpt lat="44.98951" lon="6.51285">
        <ele>1943.2</ele>
        <time>2021-02-28T14:02:00Z</time>
      </trkpt>
      <trkpt lat="44.98951" lon="6.51285">
        <ele>1943.4</ele>
        <time>2021-02-28T14:02:01Z</time>
      </trkpt>
      <trkpt lat="44.98951" lon="6.51285">
        <ele>1943.2</ele>
        <time>2021-02-28T14:02:02Z</time>
      </trkpt>
      <trkpt lat="44.98951" lon="6.51285">
        <ele>1943.2</ele>
        <time>2021-02-28T14:02:03Z</time>
      </trkpt>
      <trkpt lat="44.98951" lon="6.51285">
        <ele>1943</ele>
        <time>2021-02-28T14:02:04Z</time>
      </trkpt>
      <trkpt lat="44.98951" lon="6.51285">
        <ele>1942.8</ele>
        <time>2021-02-28T14:02:05Z</time>
      </trkpt>
      <trkpt lat="44.98951" lon="6.51285">
        <ele>1943</ele>
        <time>2021-02-28T14:02:06Z</time>
      </trkpt>
      <trkpt lat="44.98951" lon="6.51285">
        <ele>1942.8</ele>
        <time>2021-02-28T14:02:07Z</time>
      </trkpt>
      <trkpt lat="44.98951" lon="6.51285">
        <ele>1943</ele>
        <time>2021-02-28T14:02:08Z</time>
      </trkpt>
      <trkpt lat="44.98951" lon="6.51285">
        <ele>1943</ele>
        <time>2021-02-28T14:02:09Z</time>
      </trkpt>
      <trkpt lat="44.98951" lon="6.51285">
        <ele>1943.2</ele>
        <time>2021-02-28T14:02:10Z</time>
      </trkpt>
      <trkpt lat="44.98951" lon="6.51285">
        <ele>1943.4</ele>
        <time>2021-02-28T14:02:11Z</time>
      </trkpt>
      <trkpt lat="44.98951" lon="6.51285">
        <ele>1943.2</ele>
        <time>2021-02-28T14:02:12Z</time>
      </trkpt>
      <trkpt lat="44.98948" lon="6.51287">
        <ele>1943.6</ele>
        <time>2021-02-28T14:02:13Z</time>
      </trkpt>
      <trkpt lat="44.98948" lon="6.51287">
        <ele>1943.8</ele>
        <time>2021-02-28T14:02:14Z</time>
      </trkpt>
      <trkpt lat="44.98948" lon="6.51287">
        <ele>1944</ele>
        <time>2021-02-28T14:02:15Z</time>
      </trkpt>
      <trkpt lat="44.98948" lon="6.51287">
        <ele>1944.2</ele>
        <time>2021-02-28T14:02:16Z</time>
      </trkpt>
      <trkpt lat="44.98948" lon="6.51287">
        <ele>1944.4</ele>
        <time>2021-02-28T14:02:17Z</time>
      </trkpt>
      <trkpt lat="44.98948" lon="6.51287">
        <ele>1944.4</ele>
        <time>2021-02-28T14:02:18Z</time>
      </trkpt>
      <trkpt lat="44.98948" lon="6.51287">
        <ele>1944.8</ele>
        <time>2021-02-28T14:02:19Z</time>
      </trkpt>
      <trkpt lat="44.98948" lon="6.51287">
        <ele>1944.8</ele>
        <time>2021-02-28T14:02:20Z</time>
      </trkpt>
      <trkpt lat="44.98948" lon="6.51287">
        <ele>1944.8</ele>
        <time>2021-02-28T14:02:21Z</time>
      </trkpt>
      <trkpt lat="44.98945" lon="6.51285">
        <ele>1944.6</ele>
        <time>2021-02-28T14:02:22Z</time>
      </trkpt>
      <trkpt lat="44.98942" lon="6.51285">
        <ele>1944.4</ele>
        <time>2021-02-28T14:02:23Z</time>
      </trkpt>
      <trkpt lat="44.98942" lon="6.51285">
        <ele>1943.8</ele>
        <time>2021-02-28T14:02:24Z</time>
      </trkpt>
      <trkpt lat="44.98942" lon="6.51285">
        <ele>1943.2</ele>
        <time>2021-02-28T14:02:25Z</time>
      </trkpt>
      <trkpt lat="44.9894" lon="6.51272">
        <ele>1942.2</ele>
        <time>2021-02-28T14:02:26Z</time>
      </trkpt>
      <trkpt lat="44.98941" lon="6.51269">
        <ele>1941.6</ele>
        <time>2021-02-28T14:02:27Z</time>
      </trkpt>
      <trkpt lat="44.98942" lon="6.51265">
        <ele>1941</ele>
        <time>2021-02-28T14:02:28Z</time>
      </trkpt>
      <trkpt lat="44.98942" lon="6.51265">
        <ele>1940.2</ele>
        <time>2021-02-28T14:02:29Z</time>
      </trkpt>
      <trkpt lat="44.98942" lon="6.51262">
        <ele>1939.8</ele>
        <time>2021-02-28T14:02:30Z</time>
      </trkpt>
      <trkpt lat="44.98942" lon="6.51262">
        <ele>1939.4</ele>
        <time>2021-02-28T14:02:31Z</time>
      </trkpt>
      <trkpt lat="44.98942" lon="6.51262">
        <ele>1939.2</ele>
        <time>2021-02-28T14:02:32Z</time>
      </trkpt>
      <trkpt lat="44.98942" lon="6.51262">
        <ele>1939.2</ele>
        <time>2021-02-28T14:02:33Z</time>
      </trkpt>
      <trkpt lat="44.98942" lon="6.51262">
        <ele>1939</ele>
        <time>2021-02-28T14:02:34Z</time>
      </trkpt>
      <trkpt lat="44.98942" lon="6.51262">
        <ele>1938.8</ele>
        <time>2021-02-28T14:02:35Z</time>
      </trkpt>
      <trkpt lat="44.98942" lon="6.51262">
        <ele>1938.4</ele>
        <time>2021-02-28T14:02:36Z</time>
      </trkpt>
      <trkpt lat="44.9894" lon="6.5126">
        <ele>1938.6</ele>
        <time>2021-02-28T14:02:37Z</time>
      </trkpt>
      <trkpt lat="44.98938" lon="6.5126">
        <ele>1938.8</ele>
        <time>2021-02-28T14:02:38Z</time>
      </trkpt>
      <trkpt lat="44.98935" lon="6.5126">
        <ele>1938.4</ele>
        <time>2021-02-28T14:02:39Z</time>
      </trkpt>
      <trkpt lat="44.9893" lon="6.51261">
        <ele>1937.6</ele>
        <time>2021-02-28T14:02:40Z</time>
      </trkpt>
      <trkpt lat="44.9893" lon="6.51261">
        <ele>1937</ele>
        <time>2021-02-28T14:02:41Z</time>
      </trkpt>
      <trkpt lat="44.9893" lon="6.51261">
        <ele>1936.4</ele>
        <time>2021-02-28T14:02:42Z</time>
      </trkpt>
      <trkpt lat="44.98929" lon="6.51259">
        <ele>1935.4</ele>
        <time>2021-02-28T14:02:43Z</time>
      </trkpt>
      <trkpt lat="44.98927" lon="6.51256">
        <ele>1934.6</ele>
        <time>2021-02-28T14:02:44Z</time>
      </trkpt>
      <trkpt lat="44.98925" lon="6.51254">
        <ele>1933.8</ele>
        <time>2021-02-28T14:02:45Z</time>
      </trkpt>
      <trkpt lat="44.98923" lon="6.51251">
        <ele>1933</ele>
        <time>2021-02-28T14:02:46Z</time>
      </trkpt>
      <trkpt lat="44.98917" lon="6.51243">
        <ele>1931.8</ele>
        <time>2021-02-28T14:02:47Z</time>
      </trkpt>
      <trkpt lat="44.98917" lon="6.51243">
        <ele>1930.4</ele>
        <time>2021-02-28T14:02:48Z</time>
      </trkpt>
      <trkpt lat="44.98917" lon="6.51243">
        <ele>1929.4</ele>
        <time>2021-02-28T14:02:49Z</time>
      </trkpt>
      <trkpt lat="44.98916" lon="6.51238">
        <ele>1928.6</ele>
        <time>2021-02-28T14:02:50Z</time>
      </trkpt>
      <trkpt lat="44.98916" lon="6.51238">
        <ele>1927.8</ele>
        <time>2021-02-28T14:02:51Z</time>
      </trkpt>
      <trkpt lat="44.98912" lon="6.51236">
        <ele>1927.4</ele>
        <time>2021-02-28T14:02:52Z</time>
      </trkpt>
      <trkpt lat="44.98908" lon="6.51236">
        <ele>1926.4</ele>
        <time>2021-02-28T14:02:53Z</time>
      </trkpt>
      <trkpt lat="44.98908" lon="6.51236">
        <ele>1925.6</ele>
        <time>2021-02-28T14:02:54Z</time>
      </trkpt>
      <trkpt lat="44.98908" lon="6.51236">
        <ele>1924.4</ele>
        <time>2021-02-28T14:02:55Z</time>
      </trkpt>
      <trkpt lat="44.98908" lon="6.51236">
        <ele>1923.4</ele>
        <time>2021-02-28T14:02:56Z</time>
      </trkpt>
      <trkpt lat="44.98907" lon="6.51237">
        <ele>1923.2</ele>
        <time>2021-02-28T14:02:57Z</time>
      </trkpt>
      <trkpt lat="44.98906" lon="6.51237">
        <ele>1922.4</ele>
        <time>2021-02-28T14:02:58Z</time>
      </trkpt>
      <trkpt lat="44.98905" lon="6.51238">
        <ele>1922.2</ele>
        <time>2021-02-28T14:02:59Z</time>
      </trkpt>
      <trkpt lat="44.98904" lon="6.51238">
        <ele>1921.8</ele>
        <time>2021-02-28T14:03:00Z</time>
      </trkpt>
      <trkpt lat="44.98903" lon="6.51239">
        <ele>1921.2</ele>
        <time>2021-02-28T14:03:01Z</time>
      </trkpt>
      <trkpt lat="44.98903" lon="6.51239">
        <ele>1920.8</ele>
        <time>2021-02-28T14:03:02Z</time>
      </trkpt>
      <trkpt lat="44.98903" lon="6.51239">
        <ele>1920.6</ele>
        <time>2021-02-28T14:03:03Z</time>
      </trkpt>
      <trkpt lat="44.98902" lon="6.51239">
        <ele>1920.4</ele>
        <time>2021-02-28T14:03:04Z</time>
      </trkpt>
      <trkpt lat="44.98902" lon="6.5124">
        <ele>1920.2</ele>
        <time>2021-02-28T14:03:05Z</time>
      </trkpt>
      <trkpt lat="44.98902" lon="6.5124">
        <ele>1920.2</ele>
        <time>2021-02-28T14:03:06Z</time>
      </trkpt>
      <trkpt lat="44.98902" lon="6.5124">
        <ele>1920</ele>
        <time>2021-02-28T14:03:07Z</time>
      </trkpt>
      <trkpt lat="44.98901" lon="6.5124">
        <ele>1920</ele>
        <time>2021-02-28T14:03:08Z</time>
      </trkpt>
      <trkpt lat="44.98901" lon="6.5124">
        <ele>1920</ele>
        <time>2021-02-28T14:03:09Z</time>
      </trkpt>
      <trkpt lat="44.98901" lon="6.5124">
        <ele>1919.8</ele>
        <time>2021-02-28T14:03:10Z</time>
      </trkpt>
      <trkpt lat="44.989" lon="6.51241">
        <ele>1920</ele>
        <time>2021-02-28T14:03:11Z</time>
      </trkpt>
      <trkpt lat="44.989" lon="6.51241">
        <ele>1920</ele>
        <time>2021-02-28T14:03:12Z</time>
      </trkpt>
      <trkpt lat="44.989" lon="6.51241">
        <ele>1920.2</ele>
        <time>2021-02-28T14:03:13Z</time>
      </trkpt>
      <trkpt lat="44.98899" lon="6.51241">
        <ele>1920.2</ele>
        <time>2021-02-28T14:03:14Z</time>
      </trkpt>
      <trkpt lat="44.98899" lon="6.51241">
        <ele>1920</ele>
        <time>2021-02-28T14:03:15Z</time>
      </trkpt>
      <trkpt lat="44.98899" lon="6.51242">
        <ele>1920</ele>
        <time>2021-02-28T14:03:16Z</time>
      </trkpt>
      <trkpt lat="44.98897" lon="6.51243">
        <ele>1919.6</ele>
        <time>2021-02-28T14:03:17Z</time>
      </trkpt>
      <trkpt lat="44.98896" lon="6.51244">
        <ele>1919.2</ele>
        <time>2021-02-28T14:03:18Z</time>
      </trkpt>
      <trkpt lat="44.98895" lon="6.51245">
        <ele>1919</ele>
        <time>2021-02-28T14:03:19Z</time>
      </trkpt>
      <trkpt lat="44.98893" lon="6.51246">
        <ele>1918.6</ele>
        <time>2021-02-28T14:03:20Z</time>
      </trkpt>
      <trkpt lat="44.98892" lon="6.51247">
        <ele>1918.2</ele>
        <time>2021-02-28T14:03:21Z</time>
      </trkpt>
      <trkpt lat="44.98891" lon="6.51248">
        <ele>1917.8</ele>
        <time>2021-02-28T14:03:22Z</time>
      </trkpt>
      <trkpt lat="44.98889" lon="6.51249">
        <ele>1917.6</ele>
        <time>2021-02-28T14:03:23Z</time>
      </trkpt>
      <trkpt lat="44.98888" lon="6.5125">
        <ele>1917.2</ele>
        <time>2021-02-28T14:03:24Z</time>
      </trkpt>
      <trkpt lat="44.98888" lon="6.5125">
        <ele>1916.8</ele>
        <time>2021-02-28T14:03:25Z</time>
      </trkpt>
      <trkpt lat="44.98888" lon="6.5125">
        <ele>1916.6</ele>
        <time>2021-02-28T14:03:26Z</time>
      </trkpt>
      <trkpt lat="44.98888" lon="6.5125">
        <ele>1916.4</ele>
        <time>2021-02-28T14:03:27Z</time>
      </trkpt>
      <trkpt lat="44.98888" lon="6.5125">
        <ele>1916</ele>
        <time>2021-02-28T14:03:28Z</time>
      </trkpt>
      <trkpt lat="44.98888" lon="6.51247">
        <ele>1915.6</ele>
        <time>2021-02-28T14:03:29Z</time>
      </trkpt>
      <trkpt lat="44.98888" lon="6.51247">
        <ele>1915.4</ele>
        <time>2021-02-28T14:03:30Z</time>
      </trkpt>
      <trkpt lat="44.98888" lon="6.51247">
        <ele>1915.6</ele>
        <time>2021-02-28T14:03:31Z</time>
      </trkpt>
      <trkpt lat="44.98888" lon="6.51247">
        <ele>1915.8</ele>
        <time>2021-02-28T14:03:32Z</time>
      </trkpt>
      <trkpt lat="44.98888" lon="6.51247">
        <ele>1916</ele>
        <time>2021-02-28T14:03:33Z</time>
      </trkpt>
      <trkpt lat="44.98888" lon="6.51247">
        <ele>1916.2</ele>
        <time>2021-02-28T14:03:34Z</time>
      </trkpt>
      <trkpt lat="44.98888" lon="6.51247">
        <ele>1916.2</ele>
        <time>2021-02-28T14:03:35Z</time>
      </trkpt>
      <trkpt lat="44.98888" lon="6.51244">
        <ele>1916.4</ele>
        <time>2021-02-28T14:03:36Z</time>
      </trkpt>
      <trkpt lat="44.98888" lon="6.51244">
        <ele>1916.8</ele>
        <time>2021-02-28T14:03:37Z</time>
      </trkpt>
      <trkpt lat="44.98888" lon="6.51244">
        <ele>1916.4</ele>
        <time>2021-02-28T14:03:38Z</time>
      </trkpt>
      <trkpt lat="44.98888" lon="6.51244">
        <ele>1916.2</ele>
        <time>2021-02-28T14:03:39Z</time>
      </trkpt>
      <trkpt lat="44.98888" lon="6.51244">
        <ele>1916.2</ele>
        <time>2021-02-28T14:03:40Z</time>
      </trkpt>
      <trkpt lat="44.98888" lon="6.51244">
        <ele>1916.2</ele>
        <time>2021-02-28T14:03:41Z</time>
      </trkpt>
      <trkpt lat="44.98888" lon="6.51244">
        <ele>1916</ele>
        <time>2021-02-28T14:03:42Z</time>
      </trkpt>
      <trkpt lat="44.98888" lon="6.51244">
        <ele>1916</ele>
        <time>2021-02-28T14:03:43Z</time>
      </trkpt>
      <trkpt lat="44.98888" lon="6.51244">
        <ele>1916</ele>
        <time>2021-02-28T14:03:44Z</time>
      </trkpt>
      <trkpt lat="44.98888" lon="6.51244">
        <ele>1915.6</ele>
        <time>2021-02-28T14:03:45Z</time>
      </trkpt>
      <trkpt lat="44.9889" lon="6.51244">
        <ele>1915.4</ele>
        <time>2021-02-28T14:03:46Z</time>
      </trkpt>
      <trkpt lat="44.9889" lon="6.51244">
        <ele>1915.2</ele>
        <time>2021-02-28T14:03:47Z</time>
      </trkpt>
      <trkpt lat="44.9889" lon="6.51244">
        <ele>1915.2</ele>
        <time>2021-02-28T14:03:48Z</time>
      </trkpt>
      <trkpt lat="44.9889" lon="6.51244">
        <ele>1915</ele>
        <time>2021-02-28T14:03:49Z</time>
      </trkpt>
      <trkpt lat="44.9889" lon="6.51244">
        <ele>1915</ele>
        <time>2021-02-28T14:03:50Z</time>
      </trkpt>
      <trkpt lat="44.9889" lon="6.51244">
        <ele>1915</ele>
        <time>2021-02-28T14:03:51Z</time>
      </trkpt>
      <trkpt lat="44.9889" lon="6.51244">
        <ele>1915.4</ele>
        <time>2021-02-28T14:03:52Z</time>
      </trkpt>
      <trkpt lat="44.9889" lon="6.51244">
        <ele>1915.6</ele>
        <time>2021-02-28T14:03:53Z</time>
      </trkpt>
      <trkpt lat="44.9889" lon="6.51244">
        <ele>1916</ele>
        <time>2021-02-28T14:03:54Z</time>
      </trkpt>
      <trkpt lat="44.98887" lon="6.51246">
        <ele>1916.4</ele>
        <time>2021-02-28T14:03:55Z</time>
      </trkpt>
      <trkpt lat="44.98884" lon="6.51247">
        <ele>1916.2</ele>
        <time>2021-02-28T14:03:56Z</time>
      </trkpt>
      <trkpt lat="44.98881" lon="6.51249">
        <ele>1916</ele>
        <time>2021-02-28T14:03:57Z</time>
      </trkpt>
      <trkpt lat="44.98878" lon="6.51252">
        <ele>1916</ele>
        <time>2021-02-28T14:03:58Z</time>
      </trkpt>
      <trkpt lat="44.98874" lon="6.51255">
        <ele>1916</ele>
        <time>2021-02-28T14:03:59Z</time>
      </trkpt>
      <trkpt lat="44.98871" lon="6.51259">
        <ele>1915.8</ele>
        <time>2021-02-28T14:04:00Z</time>
      </trkpt>
      <trkpt lat="44.98868" lon="6.51264">
        <ele>1915.6</ele>
        <time>2021-02-28T14:04:01Z</time>
      </trkpt>
      <trkpt lat="44.98868" lon="6.51264">
        <ele>1914.6</ele>
        <time>2021-02-28T14:04:02Z</time>
      </trkpt>
      <trkpt lat="44.9886" lon="6.51274">
        <ele>1913.6</ele>
        <time>2021-02-28T14:04:03Z</time>
      </trkpt>
      <trkpt lat="44.98855" lon="6.51278">
        <ele>1912.6</ele>
        <time>2021-02-28T14:04:04Z</time>
      </trkpt>
      <trkpt lat="44.9885" lon="6.51282">
        <ele>1911.4</ele>
        <time>2021-02-28T14:04:05Z</time>
      </trkpt>
      <trkpt lat="44.98847" lon="6.51285">
        <ele>1910.2</ele>
        <time>2021-02-28T14:04:06Z</time>
      </trkpt>
      <trkpt lat="44.98845" lon="6.51288">
        <ele>1909.4</ele>
        <time>2021-02-28T14:04:07Z</time>
      </trkpt>
      <trkpt lat="44.98837" lon="6.51294">
        <ele>1908.4</ele>
        <time>2021-02-28T14:04:08Z</time>
      </trkpt>
      <trkpt lat="44.98835" lon="6.51296">
        <ele>1907.8</ele>
        <time>2021-02-28T14:04:09Z</time>
      </trkpt>
      <trkpt lat="44.9883" lon="6.51298">
        <ele>1907</ele>
        <time>2021-02-28T14:04:10Z</time>
      </trkpt>
      <trkpt lat="44.9883" lon="6.51298">
        <ele>1906.2</ele>
        <time>2021-02-28T14:04:11Z</time>
      </trkpt>
      <trkpt lat="44.98831" lon="6.51296">
        <ele>1905.6</ele>
        <time>2021-02-28T14:04:12Z</time>
      </trkpt>
      <trkpt lat="44.98832" lon="6.51294">
        <ele>1905.2</ele>
        <time>2021-02-28T14:04:13Z</time>
      </trkpt>
      <trkpt lat="44.98832" lon="6.51292">
        <ele>1904.8</ele>
        <time>2021-02-28T14:04:14Z</time>
      </trkpt>
      <trkpt lat="44.98833" lon="6.5129">
        <ele>1904.8</ele>
        <time>2021-02-28T14:04:15Z</time>
      </trkpt>
      <trkpt lat="44.98833" lon="6.51288">
        <ele>1904.4</ele>
        <time>2021-02-28T14:04:16Z</time>
      </trkpt>
      <trkpt lat="44.98834" lon="6.51286">
        <ele>1904.4</ele>
        <time>2021-02-28T14:04:17Z</time>
      </trkpt>
      <trkpt lat="44.98835" lon="6.51284">
        <ele>1904.6</ele>
        <time>2021-02-28T14:04:18Z</time>
      </trkpt>
      <trkpt lat="44.98835" lon="6.51284">
        <ele>1904.6</ele>
        <time>2021-02-28T14:04:19Z</time>
      </trkpt>
      <trkpt lat="44.98836" lon="6.51281">
        <ele>1904.6</ele>
        <time>2021-02-28T14:04:20Z</time>
      </trkpt>
      <trkpt lat="44.98837" lon="6.51279">
        <ele>1904.4</ele>
        <time>2021-02-28T14:04:21Z</time>
      </trkpt>
      <trkpt lat="44.98837" lon="6.51279">
        <ele>1904</ele>
        <time>2021-02-28T14:04:22Z</time>
      </trkpt>
      <trkpt lat="44.98837" lon="6.51275">
        <ele>1903.8</ele>
        <time>2021-02-28T14:04:23Z</time>
      </trkpt>
      <trkpt lat="44.98835" lon="6.51273">
        <ele>1903.6</ele>
        <time>2021-02-28T14:04:24Z</time>
      </trkpt>
      <trkpt lat="44.98835" lon="6.51273">
        <ele>1902.8</ele>
        <time>2021-02-28T14:04:25Z</time>
      </trkpt>
      <trkpt lat="44.98836" lon="6.51268">
        <ele>1901.8</ele>
        <time>2021-02-28T14:04:26Z</time>
      </trkpt>
      <trkpt lat="44.98836" lon="6.51268">
        <ele>1901</ele>
        <time>2021-02-28T14:04:27Z</time>
      </trkpt>
      <trkpt lat="44.98836" lon="6.51268">
        <ele>1900.2</ele>
        <time>2021-02-28T14:04:28Z</time>
      </trkpt>
      <trkpt lat="44.98836" lon="6.51268">
        <ele>1900</ele>
        <time>2021-02-28T14:04:29Z</time>
      </trkpt>
      <trkpt lat="44.98837" lon="6.51267">
        <ele>1899.4</ele>
        <time>2021-02-28T14:04:30Z</time>
      </trkpt>
      <trkpt lat="44.98837" lon="6.51267">
        <ele>1899.4</ele>
        <time>2021-02-28T14:04:31Z</time>
      </trkpt>
      <trkpt lat="44.98837" lon="6.51266">
        <ele>1899.2</ele>
        <time>2021-02-28T14:04:32Z</time>
      </trkpt>
      <trkpt lat="44.98838" lon="6.51266">
        <ele>1899</ele>
        <time>2021-02-28T14:04:33Z</time>
      </trkpt>
      <trkpt lat="44.98838" lon="6.51265">
        <ele>1898.8</ele>
        <time>2021-02-28T14:04:34Z</time>
      </trkpt>
      <trkpt lat="44.98838" lon="6.51265">
        <ele>1898.8</ele>
        <time>2021-02-28T14:04:35Z</time>
      </trkpt>
      <trkpt lat="44.98838" lon="6.51264">
        <ele>1898.6</ele>
        <time>2021-02-28T14:04:36Z</time>
      </trkpt>
      <trkpt lat="44.98839" lon="6.51264">
        <ele>1898.6</ele>
        <time>2021-02-28T14:04:37Z</time>
      </trkpt>
      <trkpt lat="44.98839" lon="6.51263">
        <ele>1898.6</ele>
        <time>2021-02-28T14:04:38Z</time>
      </trkpt>
      <trkpt lat="44.98839" lon="6.51263">
        <ele>1898.4</ele>
        <time>2021-02-28T14:04:39Z</time>
      </trkpt>
      <trkpt lat="44.9884" lon="6.51262">
        <ele>1898.2</ele>
        <time>2021-02-28T14:04:40Z</time>
      </trkpt>
      <trkpt lat="44.9884" lon="6.51262">
        <ele>1898.2</ele>
        <time>2021-02-28T14:04:41Z</time>
      </trkpt>
      <trkpt lat="44.9884" lon="6.51262">
        <ele>1898.2</ele>
        <time>2021-02-28T14:04:42Z</time>
      </trkpt>
      <trkpt lat="44.9884" lon="6.51262">
        <ele>1898.4</ele>
        <time>2021-02-28T14:04:43Z</time>
      </trkpt>
      <trkpt lat="44.9884" lon="6.51262">
        <ele>1898.2</ele>
        <time>2021-02-28T14:04:44Z</time>
      </trkpt>
      <trkpt lat="44.9884" lon="6.51262">
        <ele>1898.2</ele>
        <time>2021-02-28T14:04:45Z</time>
      </trkpt>
      <trkpt lat="44.9884" lon="6.51262">
        <ele>1898.2</ele>
        <time>2021-02-28T14:04:46Z</time>
      </trkpt>
      <trkpt lat="44.9884" lon="6.51262">
        <ele>1898.2</ele>
        <time>2021-02-28T14:04:47Z</time>
      </trkpt>
      <trkpt lat="44.9884" lon="6.51262">
        <ele>1898.2</ele>
        <time>2021-02-28T14:04:48Z</time>
      </trkpt>
      <trkpt lat="44.9884" lon="6.51262">
        <ele>1898</ele>
        <time>2021-02-28T14:04:49Z</time>
      </trkpt>
      <trkpt lat="44.9884" lon="6.51262">
        <ele>1898</ele>
        <time>2021-02-28T14:04:50Z</time>
      </trkpt>
      <trkpt lat="44.9884" lon="6.51262">
        <ele>1898</ele>
        <time>2021-02-28T14:04:51Z</time>
      </trkpt>
      <trkpt lat="44.9884" lon="6.51262">
        <ele>1898</ele>
        <time>2021-02-28T14:04:52Z</time>
      </trkpt>
      <trkpt lat="44.9884" lon="6.51262">
        <ele>1898</ele>
        <time>2021-02-28T14:04:53Z</time>
      </trkpt>
      <trkpt lat="44.9884" lon="6.51262">
        <ele>1898</ele>
        <time>2021-02-28T14:04:54Z</time>
      </trkpt>
      <trkpt lat="44.9884" lon="6.51262">
        <ele>1897.8</ele>
        <time>2021-02-28T14:04:55Z</time>
      </trkpt>
      <trkpt lat="44.9884" lon="6.51262">
        <ele>1897.8</ele>
        <time>2021-02-28T14:04:56Z</time>
      </trkpt>
      <trkpt lat="44.9884" lon="6.51262">
        <ele>1897.8</ele>
        <time>2021-02-28T14:04:57Z</time>
      </trkpt>
      <trkpt lat="44.9884" lon="6.51262">
        <ele>1897.6</ele>
        <time>2021-02-28T14:04:58Z</time>
      </trkpt>
      <trkpt lat="44.9884" lon="6.51262">
        <ele>1897.4</ele>
        <time>2021-02-28T14:04:59Z</time>
      </trkpt>
      <trkpt lat="44.9884" lon="6.51262">
        <ele>1897.6</ele>
        <time>2021-02-28T14:05:00Z</time>
      </trkpt>
      <trkpt lat="44.9884" lon="6.51262">
        <ele>1897.6</ele>
        <time>2021-02-28T14:05:01Z</time>
      </trkpt>
      <trkpt lat="44.9884" lon="6.51262">
        <ele>1897.6</ele>
        <time>2021-02-28T14:05:02Z</time>
      </trkpt>
      <trkpt lat="44.9884" lon="6.51262">
        <ele>1897.6</ele>
        <time>2021-02-28T14:05:03Z</time>
      </trkpt>
      <trkpt lat="44.9884" lon="6.51262">
        <ele>1897.6</ele>
        <time>2021-02-28T14:05:04Z</time>
      </trkpt>
      <trkpt lat="44.9884" lon="6.51262">
        <ele>1897.6</ele>
        <time>2021-02-28T14:05:05Z</time>
      </trkpt>
      <trkpt lat="44.9884" lon="6.51262">
        <ele>1897.4</ele>
        <time>2021-02-28T14:05:06Z</time>
      </trkpt>
      <trkpt lat="44.9884" lon="6.51262">
        <ele>1897.4</ele>
        <time>2021-02-28T14:05:07Z</time>
      </trkpt>
      <trkpt lat="44.9884" lon="6.51262">
        <ele>1897.4</ele>
        <time>2021-02-28T14:05:08Z</time>
      </trkpt>
      <trkpt lat="44.9884" lon="6.51262">
        <ele>1897.6</ele>
        <time>2021-02-28T14:05:09Z</time>
      </trkpt>
      <trkpt lat="44.9884" lon="6.51262">
        <ele>1897.6</ele>
        <time>2021-02-28T14:05:10Z</time>
      </trkpt>
      <trkpt lat="44.9884" lon="6.51262">
        <ele>1897.8</ele>
        <time>2021-02-28T14:05:11Z</time>
      </trkpt>
      <trkpt lat="44.9884" lon="6.51262">
        <ele>1897.8</ele>
        <time>2021-02-28T14:05:12Z</time>
      </trkpt>
      <trkpt lat="44.98841" lon="6.51259">
        <ele>1897.8</ele>
        <time>2021-02-28T14:05:13Z</time>
      </trkpt>
      <trkpt lat="44.98841" lon="6.51259">
        <ele>1897.8</ele>
        <time>2021-02-28T14:05:14Z</time>
      </trkpt>
      <trkpt lat="44.98841" lon="6.51259">
        <ele>1897.6</ele>
        <time>2021-02-28T14:05:15Z</time>
      </trkpt>
      <trkpt lat="44.98841" lon="6.51259">
        <ele>1897.6</ele>
        <time>2021-02-28T14:05:16Z</time>
      </trkpt>
      <trkpt lat="44.98844" lon="6.51255">
        <ele>1897.4</ele>
        <time>2021-02-28T14:05:17Z</time>
      </trkpt>
      <trkpt lat="44.98846" lon="6.51254">
        <ele>1897.2</ele>
        <time>2021-02-28T14:05:18Z</time>
      </trkpt>
      <trkpt lat="44.98846" lon="6.51254">
        <ele>1897</ele>
        <time>2021-02-28T14:05:19Z</time>
      </trkpt>
      <trkpt lat="44.98843" lon="6.51253">
        <ele>1896.6</ele>
        <time>2021-02-28T14:05:20Z</time>
      </trkpt>
      <trkpt lat="44.98843" lon="6.51253">
        <ele>1895.8</ele>
        <time>2021-02-28T14:05:21Z</time>
      </trkpt>
      <trkpt lat="44.98843" lon="6.51253">
        <ele>1895</ele>
        <time>2021-02-28T14:05:22Z</time>
      </trkpt>
      <trkpt lat="44.98841" lon="6.51254">
        <ele>1894.2</ele>
        <time>2021-02-28T14:05:23Z</time>
      </trkpt>
      <trkpt lat="44.98839" lon="6.51254">
        <ele>1893.4</ele>
        <time>2021-02-28T14:05:24Z</time>
      </trkpt>
      <trkpt lat="44.98836" lon="6.51254">
        <ele>1892.4</ele>
        <time>2021-02-28T14:05:25Z</time>
      </trkpt>
      <trkpt lat="44.98834" lon="6.51254">
        <ele>1891.4</ele>
        <time>2021-02-28T14:05:26Z</time>
      </trkpt>
      <trkpt lat="44.98835" lon="6.51252">
        <ele>1890.4</ele>
        <time>2021-02-28T14:05:27Z</time>
      </trkpt>
      <trkpt lat="44.98836" lon="6.51249">
        <ele>1889.6</ele>
        <time>2021-02-28T14:05:28Z</time>
      </trkpt>
      <trkpt lat="44.98838" lon="6.51247">
        <ele>1888.8</ele>
        <time>2021-02-28T14:05:29Z</time>
      </trkpt>
      <trkpt lat="44.98839" lon="6.51244">
        <ele>1888.2</ele>
        <time>2021-02-28T14:05:30Z</time>
      </trkpt>
      <trkpt lat="44.9884" lon="6.51241">
        <ele>1887.6</ele>
        <time>2021-02-28T14:05:31Z</time>
      </trkpt>
      <trkpt lat="44.9884" lon="6.5124">
        <ele>1887.2</ele>
        <time>2021-02-28T14:05:32Z</time>
      </trkpt>
      <trkpt lat="44.9884" lon="6.51239">
        <ele>1886.8</ele>
        <time>2021-02-28T14:05:33Z</time>
      </trkpt>
      <trkpt lat="44.98839" lon="6.51238">
        <ele>1886.2</ele>
        <time>2021-02-28T14:05:34Z</time>
      </trkpt>
      <trkpt lat="44.98839" lon="6.51237">
        <ele>1886</ele>
        <time>2021-02-28T14:05:35Z</time>
      </trkpt>
      <trkpt lat="44.98838" lon="6.51236">
        <ele>1885.8</ele>
        <time>2021-02-28T14:05:36Z</time>
      </trkpt>
      <trkpt lat="44.98838" lon="6.51234">
        <ele>1885.6</ele>
        <time>2021-02-28T14:05:37Z</time>
      </trkpt>
      <trkpt lat="44.98837" lon="6.51232">
        <ele>1885</ele>
        <time>2021-02-28T14:05:38Z</time>
      </trkpt>
      <trkpt lat="44.98837" lon="6.51232">
        <ele>1884.8</ele>
        <time>2021-02-28T14:05:39Z</time>
      </trkpt>
      <trkpt lat="44.98837" lon="6.51228">
        <ele>1884.4</ele>
        <time>2021-02-28T14:05:40Z</time>
      </trkpt>
      <trkpt lat="44.98837" lon="6.51228">
        <ele>1884</ele>
        <time>2021-02-28T14:05:41Z</time>
      </trkpt>
      <trkpt lat="44.98837" lon="6.51226">
        <ele>1883.6</ele>
        <time>2021-02-28T14:05:42Z</time>
      </trkpt>
      <trkpt lat="44.98837" lon="6.51226">
        <ele>1883.4</ele>
        <time>2021-02-28T14:05:43Z</time>
      </trkpt>
      <trkpt lat="44.98838" lon="6.51223">
        <ele>1883.2</ele>
        <time>2021-02-28T14:05:44Z</time>
      </trkpt>
      <trkpt lat="44.98838" lon="6.51223">
        <ele>1882.8</ele>
        <time>2021-02-28T14:05:45Z</time>
      </trkpt>
      <trkpt lat="44.98837" lon="6.51221">
        <ele>1882.8</ele>
        <time>2021-02-28T14:05:46Z</time>
      </trkpt>
      <trkpt lat="44.98837" lon="6.51217">
        <ele>1882.6</ele>
        <time>2021-02-28T14:05:47Z</time>
      </trkpt>
      <trkpt lat="44.98837" lon="6.51213">
        <ele>1882.2</ele>
        <time>2021-02-28T14:05:48Z</time>
      </trkpt>
      <trkpt lat="44.98837" lon="6.51213">
        <ele>1881.8</ele>
        <time>2021-02-28T14:05:49Z</time>
      </trkpt>
      <trkpt lat="44.98837" lon="6.51213">
        <ele>1881.2</ele>
        <time>2021-02-28T14:05:50Z</time>
      </trkpt>
      <trkpt lat="44.98837" lon="6.51213">
        <ele>1880.6</ele>
        <time>2021-02-28T14:05:51Z</time>
      </trkpt>
      <trkpt lat="44.98837" lon="6.51213">
        <ele>1880.4</ele>
        <time>2021-02-28T14:05:52Z</time>
      </trkpt>
      <trkpt lat="44.98834" lon="6.51213">
        <ele>1879.8</ele>
        <time>2021-02-28T14:05:53Z</time>
      </trkpt>
      <trkpt lat="44.98834" lon="6.51213">
        <ele>1879</ele>
        <time>2021-02-28T14:05:54Z</time>
      </trkpt>
      <trkpt lat="44.98834" lon="6.51213">
        <ele>1878.2</ele>
        <time>2021-02-28T14:05:55Z</time>
      </trkpt>
      <trkpt lat="44.98831" lon="6.51215">
        <ele>1877.4</ele>
        <time>2021-02-28T14:05:56Z</time>
      </trkpt>
      <trkpt lat="44.98827" lon="6.51217">
        <ele>1877</ele>
        <time>2021-02-28T14:05:57Z</time>
      </trkpt>
      <trkpt lat="44.98824" lon="6.51219">
        <ele>1876.4</ele>
        <time>2021-02-28T14:05:58Z</time>
      </trkpt>
      <trkpt lat="44.98821" lon="6.51222">
        <ele>1875.8</ele>
        <time>2021-02-28T14:05:59Z</time>
      </trkpt>
      <trkpt lat="44.98817" lon="6.51224">
        <ele>1875.2</ele>
        <time>2021-02-28T14:06:00Z</time>
      </trkpt>
      <trkpt lat="44.98812" lon="6.51229">
        <ele>1875</ele>
        <time>2021-02-28T14:06:01Z</time>
      </trkpt>
      <trkpt lat="44.98812" lon="6.51229">
        <ele>1874.4</ele>
        <time>2021-02-28T14:06:02Z</time>
      </trkpt>
      <trkpt lat="44.98812" lon="6.51229">
        <ele>1874</ele>
        <time>2021-02-28T14:06:03Z</time>
      </trkpt>
      <trkpt lat="44.98811" lon="6.51225">
        <ele>1873.6</ele>
        <time>2021-02-28T14:06:04Z</time>
      </trkpt>
      <trkpt lat="44.9881" lon="6.51221">
        <ele>1873</ele>
        <time>2021-02-28T14:06:05Z</time>
      </trkpt>
      <trkpt lat="44.98809" lon="6.51218">
        <ele>1872.4</ele>
        <time>2021-02-28T14:06:06Z</time>
      </trkpt>
      <trkpt lat="44.98808" lon="6.51214">
        <ele>1872</ele>
        <time>2021-02-28T14:06:07Z</time>
      </trkpt>
      <trkpt lat="44.98807" lon="6.5121">
        <ele>1871.8</ele>
        <time>2021-02-28T14:06:08Z</time>
      </trkpt>
      <trkpt lat="44.98806" lon="6.51206">
        <ele>1871.4</ele>
        <time>2021-02-28T14:06:09Z</time>
      </trkpt>
      <trkpt lat="44.98805" lon="6.51203">
        <ele>1870.6</ele>
        <time>2021-02-28T14:06:10Z</time>
      </trkpt>
      <trkpt lat="44.98805" lon="6.51203">
        <ele>1870</ele>
        <time>2021-02-28T14:06:11Z</time>
      </trkpt>
      <trkpt lat="44.98805" lon="6.51203">
        <ele>1869.2</ele>
        <time>2021-02-28T14:06:12Z</time>
      </trkpt>
      <trkpt lat="44.98807" lon="6.51186">
        <ele>1868</ele>
        <time>2021-02-28T14:06:13Z</time>
      </trkpt>
      <trkpt lat="44.98807" lon="6.51185">
        <ele>1867</ele>
        <time>2021-02-28T14:06:14Z</time>
      </trkpt>
      <trkpt lat="44.98808" lon="6.51184">
        <ele>1866</ele>
        <time>2021-02-28T14:06:15Z</time>
      </trkpt>
      <trkpt lat="44.98809" lon="6.51183">
        <ele>1865</ele>
        <time>2021-02-28T14:06:16Z</time>
      </trkpt>
      <trkpt lat="44.98809" lon="6.51183">
        <ele>1864.4</ele>
        <time>2021-02-28T14:06:17Z</time>
      </trkpt>
      <trkpt lat="44.98809" lon="6.51183">
        <ele>1864</ele>
        <time>2021-02-28T14:06:18Z</time>
      </trkpt>
      <trkpt lat="44.98808" lon="6.51179">
        <ele>1863.8</ele>
        <time>2021-02-28T14:06:19Z</time>
      </trkpt>
      <trkpt lat="44.98808" lon="6.51179">
        <ele>1863.6</ele>
        <time>2021-02-28T14:06:20Z</time>
      </trkpt>
      <trkpt lat="44.98808" lon="6.51179">
        <ele>1863.4</ele>
        <time>2021-02-28T14:06:21Z</time>
      </trkpt>
      <trkpt lat="44.98808" lon="6.51179">
        <ele>1863</ele>
        <time>2021-02-28T14:06:22Z</time>
      </trkpt>
      <trkpt lat="44.98808" lon="6.51179">
        <ele>1863</ele>
        <time>2021-02-28T14:06:23Z</time>
      </trkpt>
      <trkpt lat="44.98808" lon="6.51179">
        <ele>1863</ele>
        <time>2021-02-28T14:06:24Z</time>
      </trkpt>
      <trkpt lat="44.98808" lon="6.51179">
        <ele>1862.6</ele>
        <time>2021-02-28T14:06:25Z</time>
      </trkpt>
      <trkpt lat="44.98808" lon="6.51179">
        <ele>1862.4</ele>
        <time>2021-02-28T14:06:26Z</time>
      </trkpt>
      <trkpt lat="44.98808" lon="6.51179">
        <ele>1862.4</ele>
        <time>2021-02-28T14:06:27Z</time>
      </trkpt>
      <trkpt lat="44.98805" lon="6.5118">
        <ele>1862.6</ele>
        <time>2021-02-28T14:06:28Z</time>
      </trkpt>
      <trkpt lat="44.98805" lon="6.5118">
        <ele>1862.6</ele>
        <time>2021-02-28T14:06:29Z</time>
      </trkpt>
      <trkpt lat="44.98805" lon="6.5118">
        <ele>1862.6</ele>
        <time>2021-02-28T14:06:30Z</time>
      </trkpt>
      <trkpt lat="44.98805" lon="6.5118">
        <ele>1862.4</ele>
        <time>2021-02-28T14:06:31Z</time>
      </trkpt>
      <trkpt lat="44.98803" lon="6.51178">
        <ele>1862.4</ele>
        <time>2021-02-28T14:06:32Z</time>
      </trkpt>
      <trkpt lat="44.98803" lon="6.51178">
        <ele>1862.4</ele>
        <time>2021-02-28T14:06:33Z</time>
      </trkpt>
      <trkpt lat="44.98803" lon="6.51178">
        <ele>1862</ele>
        <time>2021-02-28T14:06:34Z</time>
      </trkpt>
      <trkpt lat="44.98803" lon="6.51178">
        <ele>1862</ele>
        <time>2021-02-28T14:06:35Z</time>
      </trkpt>
      <trkpt lat="44.98806" lon="6.51176">
        <ele>1862</ele>
        <time>2021-02-28T14:06:36Z</time>
      </trkpt>
      <trkpt lat="44.98806" lon="6.51176">
        <ele>1861.8</ele>
        <time>2021-02-28T14:06:37Z</time>
      </trkpt>
      <trkpt lat="44.98806" lon="6.51176">
        <ele>1861.8</ele>
        <time>2021-02-28T14:06:38Z</time>
      </trkpt>
      <trkpt lat="44.98809" lon="6.51175">
        <ele>1861.8</ele>
        <time>2021-02-28T14:06:39Z</time>
      </trkpt>
      <trkpt lat="44.98809" lon="6.51175">
        <ele>1862</ele>
        <time>2021-02-28T14:06:40Z</time>
      </trkpt>
      <trkpt lat="44.98809" lon="6.51175">
        <ele>1861.8</ele>
        <time>2021-02-28T14:06:41Z</time>
      </trkpt>
      <trkpt lat="44.98812" lon="6.51172">
        <ele>1861.6</ele>
        <time>2021-02-28T14:06:42Z</time>
      </trkpt>
      <trkpt lat="44.98812" lon="6.51172">
        <ele>1861.4</ele>
        <time>2021-02-28T14:06:43Z</time>
      </trkpt>
      <trkpt lat="44.98812" lon="6.51172">
        <ele>1861</ele>
        <time>2021-02-28T14:06:44Z</time>
      </trkpt>
      <trkpt lat="44.98814" lon="6.51172">
        <ele>1861</ele>
        <time>2021-02-28T14:06:45Z</time>
      </trkpt>
      <trkpt lat="44.98814" lon="6.51172">
        <ele>1861</ele>
        <time>2021-02-28T14:06:46Z</time>
      </trkpt>
      <trkpt lat="44.98816" lon="6.51171">
        <ele>1861</ele>
        <time>2021-02-28T14:06:47Z</time>
      </trkpt>
      <trkpt lat="44.98816" lon="6.51171">
        <ele>1860.8</ele>
        <time>2021-02-28T14:06:48Z</time>
      </trkpt>
      <trkpt lat="44.9882" lon="6.5117">
        <ele>1860.4</ele>
        <time>2021-02-28T14:06:49Z</time>
      </trkpt>
      <trkpt lat="44.9882" lon="6.5117">
        <ele>1860</ele>
        <time>2021-02-28T14:06:50Z</time>
      </trkpt>
      <trkpt lat="44.9882" lon="6.5117">
        <ele>1859.4</ele>
        <time>2021-02-28T14:06:51Z</time>
      </trkpt>
      <trkpt lat="44.9882" lon="6.51166">
        <ele>1858.4</ele>
        <time>2021-02-28T14:06:52Z</time>
      </trkpt>
      <trkpt lat="44.98819" lon="6.51163">
        <ele>1857.2</ele>
        <time>2021-02-28T14:06:53Z</time>
      </trkpt>
      <trkpt lat="44.98818" lon="6.51159">
        <ele>1856</ele>
        <time>2021-02-28T14:06:54Z</time>
      </trkpt>
      <trkpt lat="44.98817" lon="6.51156">
        <ele>1855</ele>
        <time>2021-02-28T14:06:55Z</time>
      </trkpt>
      <trkpt lat="44.98818" lon="6.51153">
        <ele>1854.2</ele>
        <time>2021-02-28T14:06:56Z</time>
      </trkpt>
      <trkpt lat="44.98818" lon="6.51149">
        <ele>1853.8</ele>
        <time>2021-02-28T14:06:57Z</time>
      </trkpt>
      <trkpt lat="44.98818" lon="6.51146">
        <ele>1853.2</ele>
        <time>2021-02-28T14:06:58Z</time>
      </trkpt>
      <trkpt lat="44.98819" lon="6.51143">
        <ele>1852.6</ele>
        <time>2021-02-28T14:06:59Z</time>
      </trkpt>
      <trkpt lat="44.98819" lon="6.5114">
        <ele>1852</ele>
        <time>2021-02-28T14:07:00Z</time>
      </trkpt>
      <trkpt lat="44.98816" lon="6.51137">
        <ele>1851.2</ele>
        <time>2021-02-28T14:07:01Z</time>
      </trkpt>
      <trkpt lat="44.98812" lon="6.51134">
        <ele>1850.2</ele>
        <time>2021-02-28T14:07:02Z</time>
      </trkpt>
      <trkpt lat="44.98809" lon="6.51132">
        <ele>1848.6</ele>
        <time>2021-02-28T14:07:03Z</time>
      </trkpt>
      <trkpt lat="44.98805" lon="6.51129">
        <ele>1847</ele>
        <time>2021-02-28T14:07:04Z</time>
      </trkpt>
      <trkpt lat="44.98801" lon="6.51126">
        <ele>1846</ele>
        <time>2021-02-28T14:07:05Z</time>
      </trkpt>
      <trkpt lat="44.98801" lon="6.51126">
        <ele>1845</ele>
        <time>2021-02-28T14:07:06Z</time>
      </trkpt>
      <trkpt lat="44.98801" lon="6.51126">
        <ele>1844.8</ele>
        <time>2021-02-28T14:07:07Z</time>
      </trkpt>
      <trkpt lat="44.98801" lon="6.51126">
        <ele>1844.2</ele>
        <time>2021-02-28T14:07:08Z</time>
      </trkpt>
      <trkpt lat="44.98799" lon="6.51122">
        <ele>1843.6</ele>
        <time>2021-02-28T14:07:09Z</time>
      </trkpt>
      <trkpt lat="44.98799" lon="6.51122">
        <ele>1843.2</ele>
        <time>2021-02-28T14:07:10Z</time>
      </trkpt>
      <trkpt lat="44.98799" lon="6.51122">
        <ele>1842.8</ele>
        <time>2021-02-28T14:07:11Z</time>
      </trkpt>
      <trkpt lat="44.98799" lon="6.51122">
        <ele>1842.6</ele>
        <time>2021-02-28T14:07:12Z</time>
      </trkpt>
      <trkpt lat="44.98799" lon="6.51122">
        <ele>1842.6</ele>
        <time>2021-02-28T14:07:13Z</time>
      </trkpt>
      <trkpt lat="44.98796" lon="6.51121">
        <ele>1842.4</ele>
        <time>2021-02-28T14:07:14Z</time>
      </trkpt>
      <trkpt lat="44.98796" lon="6.51121">
        <ele>1842.2</ele>
        <time>2021-02-28T14:07:15Z</time>
      </trkpt>
      <trkpt lat="44.98796" lon="6.51121">
        <ele>1842.2</ele>
        <time>2021-02-28T14:07:16Z</time>
      </trkpt>
      <trkpt lat="44.98792" lon="6.51119">
        <ele>1842.2</ele>
        <time>2021-02-28T14:07:17Z</time>
      </trkpt>
      <trkpt lat="44.98791" lon="6.51119">
        <ele>1842.2</ele>
        <time>2021-02-28T14:07:18Z</time>
      </trkpt>
      <trkpt lat="44.98791" lon="6.51119">
        <ele>1842.2</ele>
        <time>2021-02-28T14:07:19Z</time>
      </trkpt>
      <trkpt lat="44.98788" lon="6.51118">
        <ele>1841.8</ele>
        <time>2021-02-28T14:07:20Z</time>
      </trkpt>
      <trkpt lat="44.98788" lon="6.51118">
        <ele>1841.6</ele>
        <time>2021-02-28T14:07:21Z</time>
      </trkpt>
      <trkpt lat="44.98788" lon="6.51118">
        <ele>1841.2</ele>
        <time>2021-02-28T14:07:22Z</time>
      </trkpt>
      <trkpt lat="44.98788" lon="6.51118">
        <ele>1841.2</ele>
        <time>2021-02-28T14:07:23Z</time>
      </trkpt>
      <trkpt lat="44.98785" lon="6.51117">
        <ele>1841</ele>
        <time>2021-02-28T14:07:24Z</time>
      </trkpt>
      <trkpt lat="44.98785" lon="6.51117">
        <ele>1840.6</ele>
        <time>2021-02-28T14:07:25Z</time>
      </trkpt>
      <trkpt lat="44.98785" lon="6.51117">
        <ele>1840.4</ele>
        <time>2021-02-28T14:07:26Z</time>
      </trkpt>
      <trkpt lat="44.98783" lon="6.51116">
        <ele>1839.8</ele>
        <time>2021-02-28T14:07:27Z</time>
      </trkpt>
      <trkpt lat="44.98781" lon="6.51114">
        <ele>1839.2</ele>
        <time>2021-02-28T14:07:28Z</time>
      </trkpt>
      <trkpt lat="44.98778" lon="6.51113">
        <ele>1838.8</ele>
        <time>2021-02-28T14:07:29Z</time>
      </trkpt>
      <trkpt lat="44.98776" lon="6.51111">
        <ele>1838.2</ele>
        <time>2021-02-28T14:07:30Z</time>
      </trkpt>
      <trkpt lat="44.98774" lon="6.5111">
        <ele>1838</ele>
        <time>2021-02-28T14:07:31Z</time>
      </trkpt>
      <trkpt lat="44.98772" lon="6.51109">
        <ele>1837.8</ele>
        <time>2021-02-28T14:07:32Z</time>
      </trkpt>
      <trkpt lat="44.98772" lon="6.51109">
        <ele>1838</ele>
        <time>2021-02-28T14:07:33Z</time>
      </trkpt>
      <trkpt lat="44.9877" lon="6.51105">
        <ele>1837.8</ele>
        <time>2021-02-28T14:07:34Z</time>
      </trkpt>
      <trkpt lat="44.9877" lon="6.51105">
        <ele>1837.6</ele>
        <time>2021-02-28T14:07:35Z</time>
      </trkpt>
      <trkpt lat="44.9877" lon="6.51105">
        <ele>1837.4</ele>
        <time>2021-02-28T14:07:36Z</time>
      </trkpt>
      <trkpt lat="44.98768" lon="6.51104">
        <ele>1836.6</ele>
        <time>2021-02-28T14:07:37Z</time>
      </trkpt>
      <trkpt lat="44.98766" lon="6.51102">
        <ele>1836.2</ele>
        <time>2021-02-28T14:07:38Z</time>
      </trkpt>
      <trkpt lat="44.98764" lon="6.51101">
        <ele>1835.6</ele>
        <time>2021-02-28T14:07:39Z</time>
      </trkpt>
      <trkpt lat="44.98762" lon="6.511">
        <ele>1834.6</ele>
        <time>2021-02-28T14:07:40Z</time>
      </trkpt>
      <trkpt lat="44.9876" lon="6.51099">
        <ele>1834.4</ele>
        <time>2021-02-28T14:07:41Z</time>
      </trkpt>
      <trkpt lat="44.98761" lon="6.51098">
        <ele>1834.4</ele>
        <time>2021-02-28T14:07:42Z</time>
      </trkpt>
      <trkpt lat="44.98761" lon="6.51098">
        <ele>1834</ele>
        <time>2021-02-28T14:07:43Z</time>
      </trkpt>
      <trkpt lat="44.98762" lon="6.51097">
        <ele>1833.8</ele>
        <time>2021-02-28T14:07:44Z</time>
      </trkpt>
      <trkpt lat="44.98762" lon="6.51097">
        <ele>1833.8</ele>
        <time>2021-02-28T14:07:45Z</time>
      </trkpt>
      <trkpt lat="44.98763" lon="6.51096">
        <ele>1833.6</ele>
        <time>2021-02-28T14:07:46Z</time>
      </trkpt>
      <trkpt lat="44.98763" lon="6.51095">
        <ele>1833.4</ele>
        <time>2021-02-28T14:07:47Z</time>
      </trkpt>
      <trkpt lat="44.98766" lon="6.51091">
        <ele>1833.2</ele>
        <time>2021-02-28T14:07:48Z</time>
      </trkpt>
      <trkpt lat="44.98767" lon="6.51088">
        <ele>1833.4</ele>
        <time>2021-02-28T14:07:49Z</time>
      </trkpt>
      <trkpt lat="44.98769" lon="6.51087">
        <ele>1833.2</ele>
        <time>2021-02-28T14:07:50Z</time>
      </trkpt>
      <trkpt lat="44.9877" lon="6.51085">
        <ele>1833.2</ele>
        <time>2021-02-28T14:07:51Z</time>
      </trkpt>
      <trkpt lat="44.98773" lon="6.51083">
        <ele>1833</ele>
        <time>2021-02-28T14:07:52Z</time>
      </trkpt>
      <trkpt lat="44.98776" lon="6.51082">
        <ele>1832.6</ele>
        <time>2021-02-28T14:07:53Z</time>
      </trkpt>
      <trkpt lat="44.98779" lon="6.5108">
        <ele>1832.2</ele>
        <time>2021-02-28T14:07:54Z</time>
      </trkpt>
      <trkpt lat="44.98783" lon="6.51079">
        <ele>1832.2</ele>
        <time>2021-02-28T14:07:55Z</time>
      </trkpt>
      <trkpt lat="44.98787" lon="6.51077">
        <ele>1831.6</ele>
        <time>2021-02-28T14:07:56Z</time>
      </trkpt>
      <trkpt lat="44.9879" lon="6.51075">
        <ele>1831</ele>
        <time>2021-02-28T14:07:57Z</time>
      </trkpt>
      <trkpt lat="44.98793" lon="6.51073">
        <ele>1830.2</ele>
        <time>2021-02-28T14:07:58Z</time>
      </trkpt>
      <trkpt lat="44.98793" lon="6.51073">
        <ele>1829.6</ele>
        <time>2021-02-28T14:07:59Z</time>
      </trkpt>
      <trkpt lat="44.98793" lon="6.51073">
        <ele>1829</ele>
        <time>2021-02-28T14:08:00Z</time>
      </trkpt>
      <trkpt lat="44.98793" lon="6.51073">
        <ele>1828.6</ele>
        <time>2021-02-28T14:08:01Z</time>
      </trkpt>
      <trkpt lat="44.98796" lon="6.51064">
        <ele>1828.2</ele>
        <time>2021-02-28T14:08:02Z</time>
      </trkpt>
      <trkpt lat="44.98796" lon="6.51063">
        <ele>1828</ele>
        <time>2021-02-28T14:08:03Z</time>
      </trkpt>
      <trkpt lat="44.98796" lon="6.51062">
        <ele>1827.6</ele>
        <time>2021-02-28T14:08:04Z</time>
      </trkpt>
      <trkpt lat="44.98796" lon="6.51062">
        <ele>1827</ele>
        <time>2021-02-28T14:08:05Z</time>
      </trkpt>
      <trkpt lat="44.98798" lon="6.5106">
        <ele>1826.6</ele>
        <time>2021-02-28T14:08:06Z</time>
      </trkpt>
      <trkpt lat="44.98801" lon="6.51057">
        <ele>1826.2</ele>
        <time>2021-02-28T14:08:07Z</time>
      </trkpt>
      <trkpt lat="44.98803" lon="6.51054">
        <ele>1825.8</ele>
        <time>2021-02-28T14:08:08Z</time>
      </trkpt>
      <trkpt lat="44.98805" lon="6.51051">
        <ele>1825.4</ele>
        <time>2021-02-28T14:08:09Z</time>
      </trkpt>
      <trkpt lat="44.98808" lon="6.51049">
        <ele>1824.4</ele>
        <time>2021-02-28T14:08:10Z</time>
      </trkpt>
      <trkpt lat="44.9881" lon="6.51046">
        <ele>1824</ele>
        <time>2021-02-28T14:08:11Z</time>
      </trkpt>
      <trkpt lat="44.98821" lon="6.51038">
        <ele>1823.2</ele>
        <time>2021-02-28T14:08:12Z</time>
      </trkpt>
      <trkpt lat="44.98827" lon="6.51034">
        <ele>1822.8</ele>
        <time>2021-02-28T14:08:13Z</time>
      </trkpt>
      <trkpt lat="44.98833" lon="6.5103">
        <ele>1822</ele>
        <time>2021-02-28T14:08:14Z</time>
      </trkpt>
      <trkpt lat="44.9884" lon="6.51023">
        <ele>1821.2</ele>
        <time>2021-02-28T14:08:15Z</time>
      </trkpt>
      <trkpt lat="44.98841" lon="6.51021">
        <ele>1820.6</ele>
        <time>2021-02-28T14:08:16Z</time>
      </trkpt>
      <trkpt lat="44.98845" lon="6.51015">
        <ele>1819.8</ele>
        <time>2021-02-28T14:08:17Z</time>
      </trkpt>
      <trkpt lat="44.98845" lon="6.51015">
        <ele>1818.8</ele>
        <time>2021-02-28T14:08:18Z</time>
      </trkpt>
      <trkpt lat="44.98845" lon="6.51015">
        <ele>1817.8</ele>
        <time>2021-02-28T14:08:19Z</time>
      </trkpt>
      <trkpt lat="44.98845" lon="6.51015">
        <ele>1817</ele>
        <time>2021-02-28T14:08:20Z</time>
      </trkpt>
      <trkpt lat="44.98847" lon="6.51003">
        <ele>1816.2</ele>
        <time>2021-02-28T14:08:21Z</time>
      </trkpt>
      <trkpt lat="44.98847" lon="6.51003">
        <ele>1816</ele>
        <time>2021-02-28T14:08:22Z</time>
      </trkpt>
      <trkpt lat="44.98847" lon="6.51003">
        <ele>1815.6</ele>
        <time>2021-02-28T14:08:23Z</time>
      </trkpt>
      <trkpt lat="44.98847" lon="6.51003">
        <ele>1815.2</ele>
        <time>2021-02-28T14:08:24Z</time>
      </trkpt>
      <trkpt lat="44.98845" lon="6.51003">
        <ele>1814.8</ele>
        <time>2021-02-28T14:08:25Z</time>
      </trkpt>
      <trkpt lat="44.98845" lon="6.51003">
        <ele>1814.2</ele>
        <time>2021-02-28T14:08:26Z</time>
      </trkpt>
      <trkpt lat="44.98845" lon="6.51003">
        <ele>1813</ele>
        <time>2021-02-28T14:08:27Z</time>
      </trkpt>
      <trkpt lat="44.98843" lon="6.50998">
        <ele>1812.4</ele>
        <time>2021-02-28T14:08:28Z</time>
      </trkpt>
      <trkpt lat="44.98843" lon="6.50998">
        <ele>1812</ele>
        <time>2021-02-28T14:08:29Z</time>
      </trkpt>
      <trkpt lat="44.98843" lon="6.50998">
        <ele>1811.4</ele>
        <time>2021-02-28T14:08:30Z</time>
      </trkpt>
      <trkpt lat="44.98843" lon="6.50998">
        <ele>1811</ele>
        <time>2021-02-28T14:08:31Z</time>
      </trkpt>
      <trkpt lat="44.9884" lon="6.50998">
        <ele>1810.4</ele>
        <time>2021-02-28T14:08:32Z</time>
      </trkpt>
      <trkpt lat="44.9884" lon="6.50998">
        <ele>1810.2</ele>
        <time>2021-02-28T14:08:33Z</time>
      </trkpt>
      <trkpt lat="44.9884" lon="6.50998">
        <ele>1809.4</ele>
        <time>2021-02-28T14:08:34Z</time>
      </trkpt>
      <trkpt lat="44.9883" lon="6.50991">
        <ele>1808.2</ele>
        <time>2021-02-28T14:08:35Z</time>
      </trkpt>
      <trkpt lat="44.98828" lon="6.50991">
        <ele>1807.8</ele>
        <time>2021-02-28T14:08:36Z</time>
      </trkpt>
      <trkpt lat="44.98826" lon="6.50992">
        <ele>1807.2</ele>
        <time>2021-02-28T14:08:37Z</time>
      </trkpt>
      <trkpt lat="44.98824" lon="6.50993">
        <ele>1806.6</ele>
        <time>2021-02-28T14:08:38Z</time>
      </trkpt>
      <trkpt lat="44.98817" lon="6.50996">
        <ele>1806</ele>
        <time>2021-02-28T14:08:39Z</time>
      </trkpt>
      <trkpt lat="44.98815" lon="6.50997">
        <ele>1805.6</ele>
        <time>2021-02-28T14:08:40Z</time>
      </trkpt>
      <trkpt lat="44.98814" lon="6.50998">
        <ele>1805.2</ele>
        <time>2021-02-28T14:08:41Z</time>
      </trkpt>
      <trkpt lat="44.98809" lon="6.51001">
        <ele>1804.6</ele>
        <time>2021-02-28T14:08:42Z</time>
      </trkpt>
      <trkpt lat="44.98809" lon="6.51001">
        <ele>1804.2</ele>
        <time>2021-02-28T14:08:43Z</time>
      </trkpt>
      <trkpt lat="44.98809" lon="6.51001">
        <ele>1803.2</ele>
        <time>2021-02-28T14:08:44Z</time>
      </trkpt>
      <trkpt lat="44.98808" lon="6.51001">
        <ele>1802.4</ele>
        <time>2021-02-28T14:08:45Z</time>
      </trkpt>
      <trkpt lat="44.98806" lon="6.51002">
        <ele>1802</ele>
        <time>2021-02-28T14:08:46Z</time>
      </trkpt>
      <trkpt lat="44.98804" lon="6.51002">
        <ele>1801.6</ele>
        <time>2021-02-28T14:08:47Z</time>
      </trkpt>
      <trkpt lat="44.98802" lon="6.51003">
        <ele>1801.2</ele>
        <time>2021-02-28T14:08:48Z</time>
      </trkpt>
      <trkpt lat="44.98801" lon="6.51003">
        <ele>1801</ele>
        <time>2021-02-28T14:08:49Z</time>
      </trkpt>
      <trkpt lat="44.988" lon="6.51002">
        <ele>1800.8</ele>
        <time>2021-02-28T14:08:50Z</time>
      </trkpt>
      <trkpt lat="44.98799" lon="6.51001">
        <ele>1800.6</ele>
        <time>2021-02-28T14:08:51Z</time>
      </trkpt>
      <trkpt lat="44.98798" lon="6.50999">
        <ele>1799.6</ele>
        <time>2021-02-28T14:08:52Z</time>
      </trkpt>
      <trkpt lat="44.98797" lon="6.50998">
        <ele>1799</ele>
        <time>2021-02-28T14:08:53Z</time>
      </trkpt>
      <trkpt lat="44.98797" lon="6.50997">
        <ele>1798.4</ele>
        <time>2021-02-28T14:08:54Z</time>
      </trkpt>
      <trkpt lat="44.98796" lon="6.50996">
        <ele>1797.8</ele>
        <time>2021-02-28T14:08:55Z</time>
      </trkpt>
      <trkpt lat="44.98795" lon="6.50994">
        <ele>1797.4</ele>
        <time>2021-02-28T14:08:56Z</time>
      </trkpt>
      <trkpt lat="44.98794" lon="6.50993">
        <ele>1797</ele>
        <time>2021-02-28T14:08:57Z</time>
      </trkpt>
      <trkpt lat="44.98795" lon="6.50991">
        <ele>1796.8</ele>
        <time>2021-02-28T14:08:58Z</time>
      </trkpt>
      <trkpt lat="44.98796" lon="6.50988">
        <ele>1796.8</ele>
        <time>2021-02-28T14:08:59Z</time>
      </trkpt>
      <trkpt lat="44.98796" lon="6.50985">
        <ele>1796.6</ele>
        <time>2021-02-28T14:09:00Z</time>
      </trkpt>
      <trkpt lat="44.98797" lon="6.50982">
        <ele>1796.8</ele>
        <time>2021-02-28T14:09:01Z</time>
      </trkpt>
      <trkpt lat="44.98798" lon="6.5098">
        <ele>1797</ele>
        <time>2021-02-28T14:09:02Z</time>
      </trkpt>
      <trkpt lat="44.98798" lon="6.5098">
        <ele>1796.8</ele>
        <time>2021-02-28T14:09:03Z</time>
      </trkpt>
      <trkpt lat="44.98799" lon="6.50981">
        <ele>1797</ele>
        <time>2021-02-28T14:09:04Z</time>
      </trkpt>
      <trkpt lat="44.98799" lon="6.50981">
        <ele>1796.8</ele>
        <time>2021-02-28T14:09:05Z</time>
      </trkpt>
      <trkpt lat="44.98799" lon="6.50981">
        <ele>1797.2</ele>
        <time>2021-02-28T14:09:06Z</time>
      </trkpt>
      <trkpt lat="44.98798" lon="6.50984">
        <ele>1797.6</ele>
        <time>2021-02-28T14:09:07Z</time>
      </trkpt>
      <trkpt lat="44.98798" lon="6.50984">
        <ele>1797.4</ele>
        <time>2021-02-28T14:09:08Z</time>
      </trkpt>
      <trkpt lat="44.98798" lon="6.50984">
        <ele>1797.4</ele>
        <time>2021-02-28T14:09:09Z</time>
      </trkpt>
      <trkpt lat="44.98798" lon="6.50984">
        <ele>1797.6</ele>
        <time>2021-02-28T14:09:10Z</time>
      </trkpt>
      <trkpt lat="44.98798" lon="6.50983">
        <ele>1797.8</ele>
        <time>2021-02-28T14:09:11Z</time>
      </trkpt>
      <trkpt lat="44.98798" lon="6.50983">
        <ele>1797.6</ele>
        <time>2021-02-28T14:09:12Z</time>
      </trkpt>
      <trkpt lat="44.98798" lon="6.50982">
        <ele>1797.6</ele>
        <time>2021-02-28T14:09:13Z</time>
      </trkpt>
      <trkpt lat="44.98798" lon="6.50981">
        <ele>1797.6</ele>
        <time>2021-02-28T14:09:14Z</time>
      </trkpt>
      <trkpt lat="44.98798" lon="6.5098">
        <ele>1797.2</ele>
        <time>2021-02-28T14:09:15Z</time>
      </trkpt>
      <trkpt lat="44.98798" lon="6.5098">
        <ele>1797.4</ele>
        <time>2021-02-28T14:09:16Z</time>
      </trkpt>
      <trkpt lat="44.98798" lon="6.50979">
        <ele>1797.2</ele>
        <time>2021-02-28T14:09:17Z</time>
      </trkpt>
      <trkpt lat="44.98798" lon="6.50978">
        <ele>1797.2</ele>
        <time>2021-02-28T14:09:18Z</time>
      </trkpt>
      <trkpt lat="44.98797" lon="6.50976">
        <ele>1797.6</ele>
        <time>2021-02-28T14:09:19Z</time>
      </trkpt>
      <trkpt lat="44.98797" lon="6.50976">
        <ele>1797.6</ele>
        <time>2021-02-28T14:09:20Z</time>
      </trkpt>
      <trkpt lat="44.98797" lon="6.50976">
        <ele>1797.6</ele>
        <time>2021-02-28T14:09:21Z</time>
      </trkpt>
      <trkpt lat="44.98797" lon="6.50976">
        <ele>1797.8</ele>
        <time>2021-02-28T14:09:22Z</time>
      </trkpt>
      <trkpt lat="44.98797" lon="6.50976">
        <ele>1797.8</ele>
        <time>2021-02-28T14:09:23Z</time>
      </trkpt>
      <trkpt lat="44.98797" lon="6.50976">
        <ele>1797.8</ele>
        <time>2021-02-28T14:09:24Z</time>
      </trkpt>
      <trkpt lat="44.98794" lon="6.50974">
        <ele>1798.2</ele>
        <time>2021-02-28T14:09:25Z</time>
      </trkpt>
      <trkpt lat="44.98794" lon="6.50974">
        <ele>1798.4</ele>
        <time>2021-02-28T14:09:26Z</time>
      </trkpt>
      <trkpt lat="44.98794" lon="6.50974">
        <ele>1798.2</ele>
        <time>2021-02-28T14:09:27Z</time>
      </trkpt>
      <trkpt lat="44.98794" lon="6.50974">
        <ele>1798.4</ele>
        <time>2021-02-28T14:09:28Z</time>
      </trkpt>
      <trkpt lat="44.98793" lon="6.50972">
        <ele>1798.6</ele>
        <time>2021-02-28T14:09:29Z</time>
      </trkpt>
      <trkpt lat="44.98793" lon="6.50972">
        <ele>1798.6</ele>
        <time>2021-02-28T14:09:30Z</time>
      </trkpt>
      <trkpt lat="44.98793" lon="6.50972">
        <ele>1799</ele>
        <time>2021-02-28T14:09:31Z</time>
      </trkpt>
      <trkpt lat="44.98793" lon="6.50972">
        <ele>1799.2</ele>
        <time>2021-02-28T14:09:32Z</time>
      </trkpt>
      <trkpt lat="44.98793" lon="6.50972">
        <ele>1799.4</ele>
        <time>2021-02-28T14:09:33Z</time>
      </trkpt>
      <trkpt lat="44.98791" lon="6.50973">
        <ele>1799.4</ele>
        <time>2021-02-28T14:09:34Z</time>
      </trkpt>
      <trkpt lat="44.98791" lon="6.50973">
        <ele>1799</ele>
        <time>2021-02-28T14:09:35Z</time>
      </trkpt>
      <trkpt lat="44.98791" lon="6.50973">
        <ele>1798.4</ele>
        <time>2021-02-28T14:09:36Z</time>
      </trkpt>
      <trkpt lat="44.98791" lon="6.50973">
        <ele>1797.6</ele>
        <time>2021-02-28T14:09:37Z</time>
      </trkpt>
      <trkpt lat="44.98778" lon="6.5097">
        <ele>1797</ele>
        <time>2021-02-28T14:09:38Z</time>
      </trkpt>
      <trkpt lat="44.98776" lon="6.50969">
        <ele>1796.2</ele>
        <time>2021-02-28T14:09:39Z</time>
      </trkpt>
      <trkpt lat="44.98773" lon="6.50968">
        <ele>1795.8</ele>
        <time>2021-02-28T14:09:40Z</time>
      </trkpt>
      <trkpt lat="44.9877" lon="6.50967">
        <ele>1795.4</ele>
        <time>2021-02-28T14:09:41Z</time>
      </trkpt>
      <trkpt lat="44.98768" lon="6.50965">
        <ele>1795</ele>
        <time>2021-02-28T14:09:42Z</time>
      </trkpt>
      <trkpt lat="44.98765" lon="6.50964">
        <ele>1794.8</ele>
        <time>2021-02-28T14:09:43Z</time>
      </trkpt>
      <trkpt lat="44.98762" lon="6.50962">
        <ele>1794.2</ele>
        <time>2021-02-28T14:09:44Z</time>
      </trkpt>
      <trkpt lat="44.98756" lon="6.5096">
        <ele>1793.2</ele>
        <time>2021-02-28T14:09:45Z</time>
      </trkpt>
      <trkpt lat="44.9875" lon="6.50958">
        <ele>1792.6</ele>
        <time>2021-02-28T14:09:46Z</time>
      </trkpt>
      <trkpt lat="44.98744" lon="6.50959">
        <ele>1791.6</ele>
        <time>2021-02-28T14:09:47Z</time>
      </trkpt>
      <trkpt lat="44.98739" lon="6.5096">
        <ele>1790.8</ele>
        <time>2021-02-28T14:09:48Z</time>
      </trkpt>
      <trkpt lat="44.98734" lon="6.50961">
        <ele>1790.2</ele>
        <time>2021-02-28T14:09:49Z</time>
      </trkpt>
      <trkpt lat="44.98725" lon="6.50962">
        <ele>1790</ele>
        <time>2021-02-28T14:09:50Z</time>
      </trkpt>
      <trkpt lat="44.98722" lon="6.50963">
        <ele>1789.2</ele>
        <time>2021-02-28T14:09:51Z</time>
      </trkpt>
      <trkpt lat="44.98712" lon="6.50965">
        <ele>1788.2</ele>
        <time>2021-02-28T14:09:52Z</time>
      </trkpt>
      <trkpt lat="44.98708" lon="6.50966">
        <ele>1787.6</ele>
        <time>2021-02-28T14:09:53Z</time>
      </trkpt>
      <trkpt lat="44.987" lon="6.50969">
        <ele>1787</ele>
        <time>2021-02-28T14:09:54Z</time>
      </trkpt>
      <trkpt lat="44.98697" lon="6.50971">
        <ele>1786</ele>
        <time>2021-02-28T14:09:55Z</time>
      </trkpt>
      <trkpt lat="44.98689" lon="6.50975">
        <ele>1785.4</ele>
        <time>2021-02-28T14:09:56Z</time>
      </trkpt>
      <trkpt lat="44.98685" lon="6.50978">
        <ele>1785.2</ele>
        <time>2021-02-28T14:09:57Z</time>
      </trkpt>
      <trkpt lat="44.98678" lon="6.50982">
        <ele>1784.6</ele>
        <time>2021-02-28T14:09:58Z</time>
      </trkpt>
      <trkpt lat="44.98678" lon="6.50982">
        <ele>1784.2</ele>
        <time>2021-02-28T14:09:59Z</time>
      </trkpt>
      <trkpt lat="44.98666" lon="6.50989">
        <ele>1783.8</ele>
        <time>2021-02-28T14:10:00Z</time>
      </trkpt>
      <trkpt lat="44.98666" lon="6.50989">
        <ele>1783.2</ele>
        <time>2021-02-28T14:10:01Z</time>
      </trkpt>
      <trkpt lat="44.98662" lon="6.5099">
        <ele>1783</ele>
        <time>2021-02-28T14:10:02Z</time>
      </trkpt>
      <trkpt lat="44.98659" lon="6.50991">
        <ele>1782.2</ele>
        <time>2021-02-28T14:10:03Z</time>
      </trkpt>
      <trkpt lat="44.98646" lon="6.50994">
        <ele>1781.6</ele>
        <time>2021-02-28T14:10:04Z</time>
      </trkpt>
      <trkpt lat="44.9864" lon="6.50996">
        <ele>1781</ele>
        <time>2021-02-28T14:10:05Z</time>
      </trkpt>
      <trkpt lat="44.98635" lon="6.50997">
        <ele>1780.4</ele>
        <time>2021-02-28T14:10:06Z</time>
      </trkpt>
      <trkpt lat="44.98633" lon="6.50999">
        <ele>1780.4</ele>
        <time>2021-02-28T14:10:07Z</time>
      </trkpt>
      <trkpt lat="44.98632" lon="6.51001">
        <ele>1780</ele>
        <time>2021-02-28T14:10:08Z</time>
      </trkpt>
      <trkpt lat="44.98628" lon="6.51005">
        <ele>1780</ele>
        <time>2021-02-28T14:10:09Z</time>
      </trkpt>
      <trkpt lat="44.98628" lon="6.51005">
        <ele>1780</ele>
        <time>2021-02-28T14:10:10Z</time>
      </trkpt>
      <trkpt lat="44.98628" lon="6.51005">
        <ele>1780.2</ele>
        <time>2021-02-28T14:10:11Z</time>
      </trkpt>
      <trkpt lat="44.98628" lon="6.51005">
        <ele>1780.4</ele>
        <time>2021-02-28T14:10:12Z</time>
      </trkpt>
      <trkpt lat="44.98627" lon="6.51006">
        <ele>1780.2</ele>
        <time>2021-02-28T14:10:13Z</time>
      </trkpt>
      <trkpt lat="44.98627" lon="6.51006">
        <ele>1780.6</ele>
        <time>2021-02-28T14:10:14Z</time>
      </trkpt>
      <trkpt lat="44.98626" lon="6.51007">
        <ele>1780.4</ele>
        <time>2021-02-28T14:10:15Z</time>
      </trkpt>
      <trkpt lat="44.98625" lon="6.51008">
        <ele>1780.8</ele>
        <time>2021-02-28T14:10:16Z</time>
      </trkpt>
      <trkpt lat="44.98625" lon="6.51008">
        <ele>1781</ele>
        <time>2021-02-28T14:10:17Z</time>
      </trkpt>
      <trkpt lat="44.98624" lon="6.51009">
        <ele>1780.8</ele>
        <time>2021-02-28T14:10:18Z</time>
      </trkpt>
      <trkpt lat="44.98624" lon="6.5101">
        <ele>1780.8</ele>
        <time>2021-02-28T14:10:19Z</time>
      </trkpt>
      <trkpt lat="44.98623" lon="6.5101">
        <ele>1781</ele>
        <time>2021-02-28T14:10:20Z</time>
      </trkpt>
      <trkpt lat="44.98623" lon="6.51011">
        <ele>1781.2</ele>
        <time>2021-02-28T14:10:21Z</time>
      </trkpt>
      <trkpt lat="44.98622" lon="6.51012">
        <ele>1781.2</ele>
        <time>2021-02-28T14:10:22Z</time>
      </trkpt>
      <trkpt lat="44.98621" lon="6.51012">
        <ele>1781.4</ele>
        <time>2021-02-28T14:10:23Z</time>
      </trkpt>
      <trkpt lat="44.98621" lon="6.51013">
        <ele>1781.2</ele>
        <time>2021-02-28T14:10:24Z</time>
      </trkpt>
      <trkpt lat="44.98619" lon="6.51013">
        <ele>1781</ele>
        <time>2021-02-28T14:10:25Z</time>
      </trkpt>
      <trkpt lat="44.98618" lon="6.51013">
        <ele>1780.8</ele>
        <time>2021-02-28T14:10:26Z</time>
      </trkpt>
      <trkpt lat="44.98617" lon="6.51013">
        <ele>1780.8</ele>
        <time>2021-02-28T14:10:27Z</time>
      </trkpt>
      <trkpt lat="44.98616" lon="6.51013">
        <ele>1780.8</ele>
        <time>2021-02-28T14:10:28Z</time>
      </trkpt>
      <trkpt lat="44.98614" lon="6.51013">
        <ele>1780.6</ele>
        <time>2021-02-28T14:10:29Z</time>
      </trkpt>
      <trkpt lat="44.98612" lon="6.51012">
        <ele>1780.4</ele>
        <time>2021-02-28T14:10:30Z</time>
      </trkpt>
      <trkpt lat="44.9861" lon="6.51011">
        <ele>1780.4</ele>
        <time>2021-02-28T14:10:31Z</time>
      </trkpt>
      <trkpt lat="44.98608" lon="6.51009">
        <ele>1780.2</ele>
        <time>2021-02-28T14:10:32Z</time>
      </trkpt>
      <trkpt lat="44.98606" lon="6.51008">
        <ele>1780</ele>
        <time>2021-02-28T14:10:33Z</time>
      </trkpt>
      <trkpt lat="44.98604" lon="6.51007">
        <ele>1779.8</ele>
        <time>2021-02-28T14:10:34Z</time>
      </trkpt>
      <trkpt lat="44.98602" lon="6.51006">
        <ele>1779.4</ele>
        <time>2021-02-28T14:10:35Z</time>
      </trkpt>
      <trkpt lat="44.986" lon="6.51005">
        <ele>1779</ele>
        <time>2021-02-28T14:10:36Z</time>
      </trkpt>
      <trkpt lat="44.98598" lon="6.51004">
        <ele>1778.6</ele>
        <time>2021-02-28T14:10:37Z</time>
      </trkpt>
      <trkpt lat="44.98589" lon="6.50997">
        <ele>1778.2</ele>
        <time>2021-02-28T14:10:38Z</time>
      </trkpt>
      <trkpt lat="44.98585" lon="6.50994">
        <ele>1778</ele>
        <time>2021-02-28T14:10:39Z</time>
      </trkpt>
      <trkpt lat="44.98581" lon="6.5099">
        <ele>1777.8</ele>
        <time>2021-02-28T14:10:40Z</time>
      </trkpt>
      <trkpt lat="44.98577" lon="6.50986">
        <ele>1777.2</ele>
        <time>2021-02-28T14:10:41Z</time>
      </trkpt>
      <trkpt lat="44.98577" lon="6.50986">
        <ele>1776.8</ele>
        <time>2021-02-28T14:10:42Z</time>
      </trkpt>
      <trkpt lat="44.98567" lon="6.50981">
        <ele>1776</ele>
        <time>2021-02-28T14:10:43Z</time>
      </trkpt>
      <trkpt lat="44.98567" lon="6.50981">
        <ele>1775.6</ele>
        <time>2021-02-28T14:10:44Z</time>
      </trkpt>
      <trkpt lat="44.98557" lon="6.50976">
        <ele>1774.6</ele>
        <time>2021-02-28T14:10:45Z</time>
      </trkpt>
      <trkpt lat="44.98556" lon="6.50975">
        <ele>1773.6</ele>
        <time>2021-02-28T14:10:46Z</time>
      </trkpt>
      <trkpt lat="44.98553" lon="6.50972">
        <ele>1773.4</ele>
        <time>2021-02-28T14:10:47Z</time>
      </trkpt>
      <trkpt lat="44.98553" lon="6.50972">
        <ele>1772.8</ele>
        <time>2021-02-28T14:10:48Z</time>
      </trkpt>
      <trkpt lat="44.98553" lon="6.50972">
        <ele>1772.6</ele>
        <time>2021-02-28T14:10:49Z</time>
      </trkpt>
      <trkpt lat="44.98553" lon="6.50972">
        <ele>1772.2</ele>
        <time>2021-02-28T14:10:50Z</time>
      </trkpt>
      <trkpt lat="44.98553" lon="6.50971">
        <ele>1771.8</ele>
        <time>2021-02-28T14:10:51Z</time>
      </trkpt>
      <trkpt lat="44.98553" lon="6.50969">
        <ele>1771.6</ele>
        <time>2021-02-28T14:10:52Z</time>
      </trkpt>
      <trkpt lat="44.98553" lon="6.50968">
        <ele>1771.2</ele>
        <time>2021-02-28T14:10:53Z</time>
      </trkpt>
      <trkpt lat="44.98553" lon="6.50967">
        <ele>1771</ele>
        <time>2021-02-28T14:10:54Z</time>
      </trkpt>
      <trkpt lat="44.98553" lon="6.50965">
        <ele>1770.8</ele>
        <time>2021-02-28T14:10:55Z</time>
      </trkpt>
      <trkpt lat="44.98553" lon="6.50964">
        <ele>1770.8</ele>
        <time>2021-02-28T14:10:56Z</time>
      </trkpt>
      <trkpt lat="44.98553" lon="6.50963">
        <ele>1770.8</ele>
        <time>2021-02-28T14:10:57Z</time>
      </trkpt>
      <trkpt lat="44.98553" lon="6.50963">
        <ele>1770.6</ele>
        <time>2021-02-28T14:10:58Z</time>
      </trkpt>
      <trkpt lat="44.98553" lon="6.50963">
        <ele>1770.4</ele>
        <time>2021-02-28T14:10:59Z</time>
      </trkpt>
      <trkpt lat="44.98553" lon="6.50963">
        <ele>1770.4</ele>
        <time>2021-02-28T14:11:00Z</time>
      </trkpt>
      <trkpt lat="44.98553" lon="6.50963">
        <ele>1770.4</ele>
        <time>2021-02-28T14:11:01Z</time>
      </trkpt>
      <trkpt lat="44.98553" lon="6.50963">
        <ele>1770.4</ele>
        <time>2021-02-28T14:11:02Z</time>
      </trkpt>
      <trkpt lat="44.9855" lon="6.50964">
        <ele>1770.4</ele>
        <time>2021-02-28T14:11:03Z</time>
      </trkpt>
      <trkpt lat="44.9855" lon="6.50964">
        <ele>1770.4</ele>
        <time>2021-02-28T14:11:04Z</time>
      </trkpt>
      <trkpt lat="44.98548" lon="6.50964">
        <ele>1770.4</ele>
        <time>2021-02-28T14:11:05Z</time>
      </trkpt>
      <trkpt lat="44.98548" lon="6.50964">
        <ele>1770.4</ele>
        <time>2021-02-28T14:11:06Z</time>
      </trkpt>
      <trkpt lat="44.98545" lon="6.50964">
        <ele>1770.2</ele>
        <time>2021-02-28T14:11:07Z</time>
      </trkpt>
      <trkpt lat="44.98545" lon="6.50964">
        <ele>1769.8</ele>
        <time>2021-02-28T14:11:08Z</time>
      </trkpt>
      <trkpt lat="44.98545" lon="6.50964">
        <ele>1769.8</ele>
        <time>2021-02-28T14:11:09Z</time>
      </trkpt>
      <trkpt lat="44.98545" lon="6.50964">
        <ele>1769.4</ele>
        <time>2021-02-28T14:11:10Z</time>
      </trkpt>
      <trkpt lat="44.98543" lon="6.50965">
        <ele>1769.2</ele>
        <time>2021-02-28T14:11:11Z</time>
      </trkpt>
      <trkpt lat="44.98541" lon="6.50965">
        <ele>1769</ele>
        <time>2021-02-28T14:11:12Z</time>
      </trkpt>
      <trkpt lat="44.9854" lon="6.50966">
        <ele>1769.2</ele>
        <time>2021-02-28T14:11:13Z</time>
      </trkpt>
      <trkpt lat="44.98538" lon="6.50966">
        <ele>1769.4</ele>
        <time>2021-02-28T14:11:14Z</time>
      </trkpt>
      <trkpt lat="44.98536" lon="6.50967">
        <ele>1769.4</ele>
        <time>2021-02-28T14:11:15Z</time>
      </trkpt>
      <trkpt lat="44.98536" lon="6.50967">
        <ele>1769.4</ele>
        <time>2021-02-28T14:11:16Z</time>
      </trkpt>
      <trkpt lat="44.98536" lon="6.50967">
        <ele>1769.2</ele>
        <time>2021-02-28T14:11:17Z</time>
      </trkpt>
      <trkpt lat="44.98534" lon="6.50966">
        <ele>1768.8</ele>
        <time>2021-02-28T14:11:18Z</time>
      </trkpt>
      <trkpt lat="44.98531" lon="6.50966">
        <ele>1768.6</ele>
        <time>2021-02-28T14:11:19Z</time>
      </trkpt>
      <trkpt lat="44.98529" lon="6.50965">
        <ele>1768.2</ele>
        <time>2021-02-28T14:11:20Z</time>
      </trkpt>
      <trkpt lat="44.98526" lon="6.50965">
        <ele>1767.6</ele>
        <time>2021-02-28T14:11:21Z</time>
      </trkpt>
      <trkpt lat="44.98524" lon="6.50965">
        <ele>1767</ele>
        <time>2021-02-28T14:11:22Z</time>
      </trkpt>
      <trkpt lat="44.98521" lon="6.50964">
        <ele>1766.4</ele>
        <time>2021-02-28T14:11:23Z</time>
      </trkpt>
      <trkpt lat="44.98514" lon="6.5096">
        <ele>1766</ele>
        <time>2021-02-28T14:11:24Z</time>
      </trkpt>
      <trkpt lat="44.98513" lon="6.50958">
        <ele>1765.4</ele>
        <time>2021-02-28T14:11:25Z</time>
      </trkpt>
      <trkpt lat="44.98511" lon="6.50957">
        <ele>1765</ele>
        <time>2021-02-28T14:11:26Z</time>
      </trkpt>
      <trkpt lat="44.98507" lon="6.50952">
        <ele>1764.2</ele>
        <time>2021-02-28T14:11:27Z</time>
      </trkpt>
      <trkpt lat="44.98507" lon="6.50952">
        <ele>1763.8</ele>
        <time>2021-02-28T14:11:28Z</time>
      </trkpt>
      <trkpt lat="44.98507" lon="6.50952">
        <ele>1763.2</ele>
        <time>2021-02-28T14:11:29Z</time>
      </trkpt>
      <trkpt lat="44.98505" lon="6.5095">
        <ele>1762.8</ele>
        <time>2021-02-28T14:11:30Z</time>
      </trkpt>
      <trkpt lat="44.98504" lon="6.50949">
        <ele>1762.6</ele>
        <time>2021-02-28T14:11:31Z</time>
      </trkpt>
      <trkpt lat="44.98503" lon="6.50947">
        <ele>1762</ele>
        <time>2021-02-28T14:11:32Z</time>
      </trkpt>
      <trkpt lat="44.98501" lon="6.50945">
        <ele>1762.2</ele>
        <time>2021-02-28T14:11:33Z</time>
      </trkpt>
      <trkpt lat="44.985" lon="6.50944">
        <ele>1762.2</ele>
        <time>2021-02-28T14:11:34Z</time>
      </trkpt>
      <trkpt lat="44.98501" lon="6.50941">
        <ele>1762</ele>
        <time>2021-02-28T14:11:35Z</time>
      </trkpt>
      <trkpt lat="44.98501" lon="6.50941">
        <ele>1761.6</ele>
        <time>2021-02-28T14:11:36Z</time>
      </trkpt>
      <trkpt lat="44.98501" lon="6.50941">
        <ele>1761.4</ele>
        <time>2021-02-28T14:11:37Z</time>
      </trkpt>
      <trkpt lat="44.98501" lon="6.50941">
        <ele>1761.2</ele>
        <time>2021-02-28T14:11:38Z</time>
      </trkpt>
      <trkpt lat="44.98501" lon="6.50941">
        <ele>1761.4</ele>
        <time>2021-02-28T14:11:39Z</time>
      </trkpt>
      <trkpt lat="44.98501" lon="6.50941">
        <ele>1761.2</ele>
        <time>2021-02-28T14:11:40Z</time>
      </trkpt>
      <trkpt lat="44.98501" lon="6.50941">
        <ele>1761</ele>
        <time>2021-02-28T14:11:41Z</time>
      </trkpt>
      <trkpt lat="44.98501" lon="6.50941">
        <ele>1760.8</ele>
        <time>2021-02-28T14:11:42Z</time>
      </trkpt>
      <trkpt lat="44.98501" lon="6.50941">
        <ele>1760.6</ele>
        <time>2021-02-28T14:11:43Z</time>
      </trkpt>
      <trkpt lat="44.98501" lon="6.50941">
        <ele>1760.6</ele>
        <time>2021-02-28T14:11:44Z</time>
      </trkpt>
      <trkpt lat="44.98499" lon="6.5094">
        <ele>1760.4</ele>
        <time>2021-02-28T14:11:45Z</time>
      </trkpt>
      <trkpt lat="44.98499" lon="6.5094">
        <ele>1760.4</ele>
        <time>2021-02-28T14:11:46Z</time>
      </trkpt>
      <trkpt lat="44.98499" lon="6.5094">
        <ele>1760.4</ele>
        <time>2021-02-28T14:11:47Z</time>
      </trkpt>
      <trkpt lat="44.98497" lon="6.50941">
        <ele>1760.4</ele>
        <time>2021-02-28T14:11:48Z</time>
      </trkpt>
      <trkpt lat="44.98497" lon="6.50941">
        <ele>1760.4</ele>
        <time>2021-02-28T14:11:49Z</time>
      </trkpt>
      <trkpt lat="44.98497" lon="6.50941">
        <ele>1760</ele>
        <time>2021-02-28T14:11:50Z</time>
      </trkpt>
      <trkpt lat="44.98494" lon="6.50942">
        <ele>1759.8</ele>
        <time>2021-02-28T14:11:51Z</time>
      </trkpt>
      <trkpt lat="44.98494" lon="6.50942">
        <ele>1759.8</ele>
        <time>2021-02-28T14:11:52Z</time>
      </trkpt>
      <trkpt lat="44.98494" lon="6.50942">
        <ele>1759.8</ele>
        <time>2021-02-28T14:11:53Z</time>
      </trkpt>
      <trkpt lat="44.98492" lon="6.50944">
        <ele>1759.6</ele>
        <time>2021-02-28T14:11:54Z</time>
      </trkpt>
      <trkpt lat="44.98492" lon="6.50944">
        <ele>1759.6</ele>
        <time>2021-02-28T14:11:55Z</time>
      </trkpt>
      <trkpt lat="44.98492" lon="6.50944">
        <ele>1759.6</ele>
        <time>2021-02-28T14:11:56Z</time>
      </trkpt>
      <trkpt lat="44.98492" lon="6.50944">
        <ele>1759.6</ele>
        <time>2021-02-28T14:11:57Z</time>
      </trkpt>
      <trkpt lat="44.98492" lon="6.50944">
        <ele>1759.6</ele>
        <time>2021-02-28T14:11:58Z</time>
      </trkpt>
      <trkpt lat="44.98491" lon="6.50945">
        <ele>1759.4</ele>
        <time>2021-02-28T14:11:59Z</time>
      </trkpt>
      <trkpt lat="44.98491" lon="6.50945">
        <ele>1759.4</ele>
        <time>2021-02-28T14:12:00Z</time>
      </trkpt>
      <trkpt lat="44.98491" lon="6.50945">
        <ele>1759.4</ele>
        <time>2021-02-28T14:12:01Z</time>
      </trkpt>
      <trkpt lat="44.98489" lon="6.50947">
        <ele>1759</ele>
        <time>2021-02-28T14:12:02Z</time>
      </trkpt>
      <trkpt lat="44.98489" lon="6.50947">
        <ele>1758.8</ele>
        <time>2021-02-28T14:12:03Z</time>
      </trkpt>
      <trkpt lat="44.98487" lon="6.50949">
        <ele>1759</ele>
        <time>2021-02-28T14:12:04Z</time>
      </trkpt>
      <trkpt lat="44.98487" lon="6.50949">
        <ele>1758.6</ele>
        <time>2021-02-28T14:12:05Z</time>
      </trkpt>
      <trkpt lat="44.98486" lon="6.50946">
        <ele>1758.2</ele>
        <time>2021-02-28T14:12:06Z</time>
      </trkpt>
      <trkpt lat="44.98488" lon="6.50943">
        <ele>1757.8</ele>
        <time>2021-02-28T14:12:07Z</time>
      </trkpt>
      <trkpt lat="44.98488" lon="6.50943">
        <ele>1757.6</ele>
        <time>2021-02-28T14:12:08Z</time>
      </trkpt>
      <trkpt lat="44.98493" lon="6.50938">
        <ele>1757.6</ele>
        <time>2021-02-28T14:12:09Z</time>
      </trkpt>
      <trkpt lat="44.98496" lon="6.50938">
        <ele>1757</ele>
        <time>2021-02-28T14:12:10Z</time>
      </trkpt>
      <trkpt lat="44.98499" lon="6.50937">
        <ele>1756.8</ele>
        <time>2021-02-28T14:12:11Z</time>
      </trkpt>
      <trkpt lat="44.98499" lon="6.50937">
        <ele>1756.4</ele>
        <time>2021-02-28T14:12:12Z</time>
      </trkpt>
      <trkpt lat="44.98505" lon="6.50939">
        <ele>1756.2</ele>
        <time>2021-02-28T14:12:13Z</time>
      </trkpt>
      <trkpt lat="44.98509" lon="6.5094">
        <ele>1755.8</ele>
        <time>2021-02-28T14:12:14Z</time>
      </trkpt>
      <trkpt lat="44.98516" lon="6.50941">
        <ele>1755.6</ele>
        <time>2021-02-28T14:12:15Z</time>
      </trkpt>
      <trkpt lat="44.98518" lon="6.50942">
        <ele>1755.2</ele>
        <time>2021-02-28T14:12:16Z</time>
      </trkpt>
      <trkpt lat="44.98522" lon="6.50942">
        <ele>1754.8</ele>
        <time>2021-02-28T14:12:17Z</time>
      </trkpt>
      <trkpt lat="44.98526" lon="6.50942">
        <ele>1754.2</ele>
        <time>2021-02-28T14:12:18Z</time>
      </trkpt>
      <trkpt lat="44.98528" lon="6.50941">
        <ele>1753.8</ele>
        <time>2021-02-28T14:12:19Z</time>
      </trkpt>
      <trkpt lat="44.9853" lon="6.50941">
        <ele>1753.2</ele>
        <time>2021-02-28T14:12:20Z</time>
      </trkpt>
      <trkpt lat="44.9853" lon="6.50941">
        <ele>1752.8</ele>
        <time>2021-02-28T14:12:21Z</time>
      </trkpt>
      <trkpt lat="44.9853" lon="6.50941">
        <ele>1752.8</ele>
        <time>2021-02-28T14:12:22Z</time>
      </trkpt>
      <trkpt lat="44.9853" lon="6.50941">
        <ele>1752.6</ele>
        <time>2021-02-28T14:12:23Z</time>
      </trkpt>
      <trkpt lat="44.98531" lon="6.50939">
        <ele>1752.6</ele>
        <time>2021-02-28T14:12:24Z</time>
      </trkpt>
      <trkpt lat="44.98531" lon="6.50939">
        <ele>1752.4</ele>
        <time>2021-02-28T14:12:25Z</time>
      </trkpt>
      <trkpt lat="44.98531" lon="6.50939">
        <ele>1752.2</ele>
        <time>2021-02-28T14:12:26Z</time>
      </trkpt>
      <trkpt lat="44.98531" lon="6.50939">
        <ele>1752.2</ele>
        <time>2021-02-28T14:12:27Z</time>
      </trkpt>
      <trkpt lat="44.98531" lon="6.5094">
        <ele>1752.4</ele>
        <time>2021-02-28T14:12:28Z</time>
      </trkpt>
      <trkpt lat="44.98531" lon="6.50941">
        <ele>1752.4</ele>
        <time>2021-02-28T14:12:29Z</time>
      </trkpt>
      <trkpt lat="44.9853" lon="6.50942">
        <ele>1752.4</ele>
        <time>2021-02-28T14:12:30Z</time>
      </trkpt>
      <trkpt lat="44.9853" lon="6.50943">
        <ele>1752.6</ele>
        <time>2021-02-28T14:12:31Z</time>
      </trkpt>
      <trkpt lat="44.9853" lon="6.50943">
        <ele>1752.4</ele>
        <time>2021-02-28T14:12:32Z</time>
      </trkpt>
      <trkpt lat="44.98529" lon="6.50944">
        <ele>1752.4</ele>
        <time>2021-02-28T14:12:33Z</time>
      </trkpt>
      <trkpt lat="44.98529" lon="6.50945">
        <ele>1752.6</ele>
        <time>2021-02-28T14:12:34Z</time>
      </trkpt>
      <trkpt lat="44.98527" lon="6.50947">
        <ele>1752.6</ele>
        <time>2021-02-28T14:12:35Z</time>
      </trkpt>
      <trkpt lat="44.98527" lon="6.50947">
        <ele>1752.6</ele>
        <time>2021-02-28T14:12:36Z</time>
      </trkpt>
      <trkpt lat="44.98527" lon="6.50947">
        <ele>1752.4</ele>
        <time>2021-02-28T14:12:37Z</time>
      </trkpt>
      <trkpt lat="44.98524" lon="6.50947">
        <ele>1752.2</ele>
        <time>2021-02-28T14:12:38Z</time>
      </trkpt>
      <trkpt lat="44.98524" lon="6.50947">
        <ele>1752</ele>
        <time>2021-02-28T14:12:39Z</time>
      </trkpt>
      <trkpt lat="44.98522" lon="6.50947">
        <ele>1752</ele>
        <time>2021-02-28T14:12:40Z</time>
      </trkpt>
      <trkpt lat="44.98522" lon="6.50947">
        <ele>1751.8</ele>
        <time>2021-02-28T14:12:41Z</time>
      </trkpt>
      <trkpt lat="44.98522" lon="6.50947">
        <ele>1751.8</ele>
        <time>2021-02-28T14:12:42Z</time>
      </trkpt>
      <trkpt lat="44.98522" lon="6.50947">
        <ele>1752</ele>
        <time>2021-02-28T14:12:43Z</time>
      </trkpt>
      <trkpt lat="44.98522" lon="6.50947">
        <ele>1752.2</ele>
        <time>2021-02-28T14:12:44Z</time>
      </trkpt>
      <trkpt lat="44.98522" lon="6.50947">
        <ele>1752</ele>
        <time>2021-02-28T14:12:45Z</time>
      </trkpt>
      <trkpt lat="44.98521" lon="6.50945">
        <ele>1752.2</ele>
        <time>2021-02-28T14:12:46Z</time>
      </trkpt>
      <trkpt lat="44.98521" lon="6.50945">
        <ele>1751.8</ele>
        <time>2021-02-28T14:12:47Z</time>
      </trkpt>
      <trkpt lat="44.98519" lon="6.50942">
        <ele>1751.6</ele>
        <time>2021-02-28T14:12:48Z</time>
      </trkpt>
      <trkpt lat="44.98521" lon="6.50938">
        <ele>1750.8</ele>
        <time>2021-02-28T14:12:49Z</time>
      </trkpt>
      <trkpt lat="44.98521" lon="6.50938">
        <ele>1750</ele>
        <time>2021-02-28T14:12:50Z</time>
      </trkpt>
      <trkpt lat="44.98523" lon="6.50936">
        <ele>1749.4</ele>
        <time>2021-02-28T14:12:51Z</time>
      </trkpt>
      <trkpt lat="44.98523" lon="6.50936">
        <ele>1749</ele>
        <time>2021-02-28T14:12:52Z</time>
      </trkpt>
      <trkpt lat="44.98523" lon="6.50936">
        <ele>1748.4</ele>
        <time>2021-02-28T14:12:53Z</time>
      </trkpt>
      <trkpt lat="44.98523" lon="6.50936">
        <ele>1748</ele>
        <time>2021-02-28T14:12:54Z</time>
      </trkpt>
      <trkpt lat="44.98523" lon="6.50936">
        <ele>1747.6</ele>
        <time>2021-02-28T14:12:55Z</time>
      </trkpt>
      <trkpt lat="44.98523" lon="6.50933">
        <ele>1747.4</ele>
        <time>2021-02-28T14:12:56Z</time>
      </trkpt>
      <trkpt lat="44.98523" lon="6.50933">
        <ele>1747.2</ele>
        <time>2021-02-28T14:12:57Z</time>
      </trkpt>
      <trkpt lat="44.98523" lon="6.50933">
        <ele>1747.2</ele>
        <time>2021-02-28T14:12:58Z</time>
      </trkpt>
      <trkpt lat="44.98523" lon="6.50933">
        <ele>1747.2</ele>
        <time>2021-02-28T14:12:59Z</time>
      </trkpt>
      <trkpt lat="44.98521" lon="6.50933">
        <ele>1747.2</ele>
        <time>2021-02-28T14:13:00Z</time>
      </trkpt>
      <trkpt lat="44.98521" lon="6.50933">
        <ele>1747.2</ele>
        <time>2021-02-28T14:13:01Z</time>
      </trkpt>
      <trkpt lat="44.98521" lon="6.50933">
        <ele>1747.4</ele>
        <time>2021-02-28T14:13:02Z</time>
      </trkpt>
      <trkpt lat="44.98521" lon="6.50933">
        <ele>1747.2</ele>
        <time>2021-02-28T14:13:03Z</time>
      </trkpt>
      <trkpt lat="44.9852" lon="6.50929">
        <ele>1747</ele>
        <time>2021-02-28T14:13:04Z</time>
      </trkpt>
      <trkpt lat="44.9852" lon="6.50929">
        <ele>1746.8</ele>
        <time>2021-02-28T14:13:05Z</time>
      </trkpt>
      <trkpt lat="44.98519" lon="6.50927">
        <ele>1746.4</ele>
        <time>2021-02-28T14:13:06Z</time>
      </trkpt>
      <trkpt lat="44.98519" lon="6.50927">
        <ele>1746</ele>
        <time>2021-02-28T14:13:07Z</time>
      </trkpt>
      <trkpt lat="44.98519" lon="6.50927">
        <ele>1745.6</ele>
        <time>2021-02-28T14:13:08Z</time>
      </trkpt>
      <trkpt lat="44.98519" lon="6.50927">
        <ele>1745.2</ele>
        <time>2021-02-28T14:13:09Z</time>
      </trkpt>
      <trkpt lat="44.98519" lon="6.50927">
        <ele>1744.8</ele>
        <time>2021-02-28T14:13:10Z</time>
      </trkpt>
      <trkpt lat="44.98518" lon="6.50924">
        <ele>1744.6</ele>
        <time>2021-02-28T14:13:11Z</time>
      </trkpt>
      <trkpt lat="44.98518" lon="6.50924">
        <ele>1744.2</ele>
        <time>2021-02-28T14:13:12Z</time>
      </trkpt>
      <trkpt lat="44.98518" lon="6.50924">
        <ele>1744</ele>
        <time>2021-02-28T14:13:13Z</time>
      </trkpt>
      <trkpt lat="44.98518" lon="6.50924">
        <ele>1743.6</ele>
        <time>2021-02-28T14:13:14Z</time>
      </trkpt>
      <trkpt lat="44.98518" lon="6.50924">
        <ele>1743.6</ele>
        <time>2021-02-28T14:13:15Z</time>
      </trkpt>
      <trkpt lat="44.98518" lon="6.50922">
        <ele>1743.2</ele>
        <time>2021-02-28T14:13:16Z</time>
      </trkpt>
      <trkpt lat="44.98518" lon="6.50922">
        <ele>1742.8</ele>
        <time>2021-02-28T14:13:17Z</time>
      </trkpt>
      <trkpt lat="44.98518" lon="6.50922">
        <ele>1742.6</ele>
        <time>2021-02-28T14:13:18Z</time>
      </trkpt>
      <trkpt lat="44.9852" lon="6.5092">
        <ele>1742</ele>
        <time>2021-02-28T14:13:19Z</time>
      </trkpt>
      <trkpt lat="44.9852" lon="6.5092">
        <ele>1741.6</ele>
        <time>2021-02-28T14:13:20Z</time>
      </trkpt>
      <trkpt lat="44.9852" lon="6.5092">
        <ele>1741</ele>
        <time>2021-02-28T14:13:21Z</time>
      </trkpt>
      <trkpt lat="44.98522" lon="6.50919">
        <ele>1740.8</ele>
        <time>2021-02-28T14:13:22Z</time>
      </trkpt>
      <trkpt lat="44.98522" lon="6.50919">
        <ele>1740.6</ele>
        <time>2021-02-28T14:13:23Z</time>
      </trkpt>
      <trkpt lat="44.98522" lon="6.50919">
        <ele>1740.4</ele>
        <time>2021-02-28T14:13:24Z</time>
      </trkpt>
      <trkpt lat="44.98522" lon="6.50919">
        <ele>1740.2</ele>
        <time>2021-02-28T14:13:25Z</time>
      </trkpt>
      <trkpt lat="44.98522" lon="6.50919">
        <ele>1740.2</ele>
        <time>2021-02-28T14:13:26Z</time>
      </trkpt>
      <trkpt lat="44.98522" lon="6.50919">
        <ele>1740.2</ele>
        <time>2021-02-28T14:13:27Z</time>
      </trkpt>
      <trkpt lat="44.98522" lon="6.50919">
        <ele>1740.6</ele>
        <time>2021-02-28T14:13:28Z</time>
      </trkpt>
      <trkpt lat="44.98522" lon="6.50919">
        <ele>1740.4</ele>
        <time>2021-02-28T14:13:29Z</time>
      </trkpt>
      <trkpt lat="44.98521" lon="6.50917">
        <ele>1740.2</ele>
        <time>2021-02-28T14:13:30Z</time>
      </trkpt>
      <trkpt lat="44.98521" lon="6.50917">
        <ele>1739.8</ele>
        <time>2021-02-28T14:13:31Z</time>
      </trkpt>
      <trkpt lat="44.98521" lon="6.50917">
        <ele>1739.4</ele>
        <time>2021-02-28T14:13:32Z</time>
      </trkpt>
      <trkpt lat="44.98521" lon="6.50917">
        <ele>1739</ele>
        <time>2021-02-28T14:13:33Z</time>
      </trkpt>
      <trkpt lat="44.98521" lon="6.50917">
        <ele>1738.8</ele>
        <time>2021-02-28T14:13:34Z</time>
      </trkpt>
      <trkpt lat="44.98521" lon="6.50917">
        <ele>1738.8</ele>
        <time>2021-02-28T14:13:35Z</time>
      </trkpt>
      <trkpt lat="44.98521" lon="6.50917">
        <ele>1738.8</ele>
        <time>2021-02-28T14:13:36Z</time>
      </trkpt>
      <trkpt lat="44.98521" lon="6.50917">
        <ele>1738.8</ele>
        <time>2021-02-28T14:13:37Z</time>
      </trkpt>
      <trkpt lat="44.98521" lon="6.50917">
        <ele>1739.2</ele>
        <time>2021-02-28T14:13:38Z</time>
      </trkpt>
      <trkpt lat="44.98521" lon="6.50917">
        <ele>1739</ele>
        <time>2021-02-28T14:13:39Z</time>
      </trkpt>
      <trkpt lat="44.98521" lon="6.50917">
        <ele>1738.6</ele>
        <time>2021-02-28T14:13:40Z</time>
      </trkpt>
      <trkpt lat="44.98521" lon="6.50917">
        <ele>1738.2</ele>
        <time>2021-02-28T14:13:41Z</time>
      </trkpt>
      <trkpt lat="44.98521" lon="6.50917">
        <ele>1738.2</ele>
        <time>2021-02-28T14:13:42Z</time>
      </trkpt>
      <trkpt lat="44.98521" lon="6.50917">
        <ele>1738.2</ele>
        <time>2021-02-28T14:13:43Z</time>
      </trkpt>
      <trkpt lat="44.98521" lon="6.50917">
        <ele>1738</ele>
        <time>2021-02-28T14:13:44Z</time>
      </trkpt>
      <trkpt lat="44.98521" lon="6.50917">
        <ele>1737.6</ele>
        <time>2021-02-28T14:13:45Z</time>
      </trkpt>
      <trkpt lat="44.98521" lon="6.50917">
        <ele>1737.4</ele>
        <time>2021-02-28T14:13:46Z</time>
      </trkpt>
      <trkpt lat="44.98521" lon="6.50917">
        <ele>1737.2</ele>
        <time>2021-02-28T14:13:47Z</time>
      </trkpt>
      <trkpt lat="44.98523" lon="6.50915">
        <ele>1737</ele>
        <time>2021-02-28T14:13:48Z</time>
      </trkpt>
      <trkpt lat="44.98523" lon="6.50915">
        <ele>1736.8</ele>
        <time>2021-02-28T14:13:49Z</time>
      </trkpt>
      <trkpt lat="44.98523" lon="6.50915">
        <ele>1736.6</ele>
        <time>2021-02-28T14:13:50Z</time>
      </trkpt>
      <trkpt lat="44.98523" lon="6.50915">
        <ele>1736</ele>
        <time>2021-02-28T14:13:51Z</time>
      </trkpt>
      <trkpt lat="44.98523" lon="6.50915">
        <ele>1735.6</ele>
        <time>2021-02-28T14:13:52Z</time>
      </trkpt>
      <trkpt lat="44.98523" lon="6.50915">
        <ele>1735.4</ele>
        <time>2021-02-28T14:13:53Z</time>
      </trkpt>
      <trkpt lat="44.98523" lon="6.50915">
        <ele>1735.2</ele>
        <time>2021-02-28T14:13:54Z</time>
      </trkpt>
      <trkpt lat="44.98523" lon="6.50913">
        <ele>1735</ele>
        <time>2021-02-28T14:13:55Z</time>
      </trkpt>
      <trkpt lat="44.98523" lon="6.50913">
        <ele>1734.8</ele>
        <time>2021-02-28T14:13:56Z</time>
      </trkpt>
      <trkpt lat="44.98523" lon="6.50913">
        <ele>1734.6</ele>
        <time>2021-02-28T14:13:57Z</time>
      </trkpt>
      <trkpt lat="44.98523" lon="6.50913">
        <ele>1734.8</ele>
        <time>2021-02-28T14:13:58Z</time>
      </trkpt>
      <trkpt lat="44.98523" lon="6.50913">
        <ele>1734.8</ele>
        <time>2021-02-28T14:13:59Z</time>
      </trkpt>
      <trkpt lat="44.98524" lon="6.50909">
        <ele>1734.6</ele>
        <time>2021-02-28T14:14:00Z</time>
      </trkpt>
      <trkpt lat="44.98524" lon="6.50906">
        <ele>1734.6</ele>
        <time>2021-02-28T14:14:01Z</time>
      </trkpt>
      <trkpt lat="44.98524" lon="6.50906">
        <ele>1734.4</ele>
        <time>2021-02-28T14:14:02Z</time>
      </trkpt>
      <trkpt lat="44.98524" lon="6.50906">
        <ele>1734.2</ele>
        <time>2021-02-28T14:14:03Z</time>
      </trkpt>
      <trkpt lat="44.98524" lon="6.50906">
        <ele>1733.8</ele>
        <time>2021-02-28T14:14:04Z</time>
      </trkpt>
      <trkpt lat="44.98524" lon="6.50906">
        <ele>1733.6</ele>
        <time>2021-02-28T14:14:05Z</time>
      </trkpt>
      <trkpt lat="44.98524" lon="6.50906">
        <ele>1733.2</ele>
        <time>2021-02-28T14:14:06Z</time>
      </trkpt>
      <trkpt lat="44.98522" lon="6.50903">
        <ele>1733.2</ele>
        <time>2021-02-28T14:14:07Z</time>
      </trkpt>
      <trkpt lat="44.98522" lon="6.50903">
        <ele>1733.2</ele>
        <time>2021-02-28T14:14:08Z</time>
      </trkpt>
      <trkpt lat="44.98522" lon="6.50903">
        <ele>1733.2</ele>
        <time>2021-02-28T14:14:09Z</time>
      </trkpt>
      <trkpt lat="44.98522" lon="6.50903">
        <ele>1733.2</ele>
        <time>2021-02-28T14:14:10Z</time>
      </trkpt>
      <trkpt lat="44.98522" lon="6.50903">
        <ele>1733</ele>
        <time>2021-02-28T14:14:11Z</time>
      </trkpt>
      <trkpt lat="44.98522" lon="6.50903">
        <ele>1732.8</ele>
        <time>2021-02-28T14:14:12Z</time>
      </trkpt>
      <trkpt lat="44.98522" lon="6.50903">
        <ele>1732.4</ele>
        <time>2021-02-28T14:14:13Z</time>
      </trkpt>
      <trkpt lat="44.98522" lon="6.50903">
        <ele>1732.2</ele>
        <time>2021-02-28T14:14:14Z</time>
      </trkpt>
      <trkpt lat="44.98524" lon="6.50904">
        <ele>1732</ele>
        <time>2021-02-28T14:14:15Z</time>
      </trkpt>
      <trkpt lat="44.98524" lon="6.50904">
        <ele>1731.4</ele>
        <time>2021-02-28T14:14:16Z</time>
      </trkpt>
      <trkpt lat="44.98524" lon="6.50904">
        <ele>1731.4</ele>
        <time>2021-02-28T14:14:17Z</time>
      </trkpt>
      <trkpt lat="44.98524" lon="6.50904">
        <ele>1731.2</ele>
        <time>2021-02-28T14:14:18Z</time>
      </trkpt>
      <trkpt lat="44.98526" lon="6.50904">
        <ele>1731</ele>
        <time>2021-02-28T14:14:19Z</time>
      </trkpt>
      <trkpt lat="44.98526" lon="6.50904">
        <ele>1731.2</ele>
        <time>2021-02-28T14:14:20Z</time>
      </trkpt>
      <trkpt lat="44.98526" lon="6.50904">
        <ele>1731.2</ele>
        <time>2021-02-28T14:14:21Z</time>
      </trkpt>
      <trkpt lat="44.98526" lon="6.50904">
        <ele>1731</ele>
        <time>2021-02-28T14:14:22Z</time>
      </trkpt>
      <trkpt lat="44.98527" lon="6.50904">
        <ele>1731</ele>
        <time>2021-02-28T14:14:23Z</time>
      </trkpt>
      <trkpt lat="44.98527" lon="6.50904">
        <ele>1731</ele>
        <time>2021-02-28T14:14:24Z</time>
      </trkpt>
      <trkpt lat="44.98528" lon="6.50903">
        <ele>1730.6</ele>
        <time>2021-02-28T14:14:25Z</time>
      </trkpt>
      <trkpt lat="44.98528" lon="6.50903">
        <ele>1729.8</ele>
        <time>2021-02-28T14:14:26Z</time>
      </trkpt>
      <trkpt lat="44.98529" lon="6.50903">
        <ele>1729.2</ele>
        <time>2021-02-28T14:14:27Z</time>
      </trkpt>
      <trkpt lat="44.98529" lon="6.50902">
        <ele>1729.2</ele>
        <time>2021-02-28T14:14:28Z</time>
      </trkpt>
      <trkpt lat="44.9853" lon="6.50902">
        <ele>1728.8</ele>
        <time>2021-02-28T14:14:29Z</time>
      </trkpt>
      <trkpt lat="44.98531" lon="6.50902">
        <ele>1728.8</ele>
        <time>2021-02-28T14:14:30Z</time>
      </trkpt>
      <trkpt lat="44.98531" lon="6.50901">
        <ele>1728.4</ele>
        <time>2021-02-28T14:14:31Z</time>
      </trkpt>
      <trkpt lat="44.98532" lon="6.50901">
        <ele>1728</ele>
        <time>2021-02-28T14:14:32Z</time>
      </trkpt>
      <trkpt lat="44.98532" lon="6.50901">
        <ele>1727.6</ele>
        <time>2021-02-28T14:14:33Z</time>
      </trkpt>
      <trkpt lat="44.98529" lon="6.50898">
        <ele>1727.4</ele>
        <time>2021-02-28T14:14:34Z</time>
      </trkpt>
      <trkpt lat="44.98525" lon="6.50895">
        <ele>1727</ele>
        <time>2021-02-28T14:14:35Z</time>
      </trkpt>
      <trkpt lat="44.98522" lon="6.50893">
        <ele>1726.4</ele>
        <time>2021-02-28T14:14:36Z</time>
      </trkpt>
      <trkpt lat="44.98518" lon="6.5089">
        <ele>1726</ele>
        <time>2021-02-28T14:14:37Z</time>
      </trkpt>
      <trkpt lat="44.98515" lon="6.50887">
        <ele>1725.6</ele>
        <time>2021-02-28T14:14:38Z</time>
      </trkpt>
      <trkpt lat="44.9851" lon="6.50885">
        <ele>1725.4</ele>
        <time>2021-02-28T14:14:39Z</time>
      </trkpt>
      <trkpt lat="44.98506" lon="6.50884">
        <ele>1725</ele>
        <time>2021-02-28T14:14:40Z</time>
      </trkpt>
      <trkpt lat="44.98501" lon="6.50882">
        <ele>1724.6</ele>
        <time>2021-02-28T14:14:41Z</time>
      </trkpt>
      <trkpt lat="44.98496" lon="6.50879">
        <ele>1723.8</ele>
        <time>2021-02-28T14:14:42Z</time>
      </trkpt>
      <trkpt lat="44.98496" lon="6.50879">
        <ele>1723.2</ele>
        <time>2021-02-28T14:14:43Z</time>
      </trkpt>
      <trkpt lat="44.98486" lon="6.50873">
        <ele>1722.8</ele>
        <time>2021-02-28T14:14:44Z</time>
      </trkpt>
      <trkpt lat="44.98486" lon="6.50873">
        <ele>1722.2</ele>
        <time>2021-02-28T14:14:45Z</time>
      </trkpt>
      <trkpt lat="44.98468" lon="6.50873">
        <ele>1721.4</ele>
        <time>2021-02-28T14:14:46Z</time>
      </trkpt>
      <trkpt lat="44.98465" lon="6.50874">
        <ele>1720.6</ele>
        <time>2021-02-28T14:14:47Z</time>
      </trkpt>
      <trkpt lat="44.98456" lon="6.50876">
        <ele>1720</ele>
        <time>2021-02-28T14:14:48Z</time>
      </trkpt>
      <trkpt lat="44.98454" lon="6.50877">
        <ele>1719.2</ele>
        <time>2021-02-28T14:14:49Z</time>
      </trkpt>
      <trkpt lat="44.98447" lon="6.50881">
        <ele>1718.6</ele>
        <time>2021-02-28T14:14:50Z</time>
      </trkpt>
      <trkpt lat="44.98445" lon="6.50882">
        <ele>1718</ele>
        <time>2021-02-28T14:14:51Z</time>
      </trkpt>
      <trkpt lat="44.9844" lon="6.50885">
        <ele>1717.6</ele>
        <time>2021-02-28T14:14:52Z</time>
      </trkpt>
      <trkpt lat="44.9844" lon="6.50885">
        <ele>1716.8</ele>
        <time>2021-02-28T14:14:53Z</time>
      </trkpt>
      <trkpt lat="44.98435" lon="6.50891">
        <ele>1716.2</ele>
        <time>2021-02-28T14:14:54Z</time>
      </trkpt>
      <trkpt lat="44.98429" lon="6.50897">
        <ele>1715.4</ele>
        <time>2021-02-28T14:14:55Z</time>
      </trkpt>
      <trkpt lat="44.98429" lon="6.50897">
        <ele>1714.6</ele>
        <time>2021-02-28T14:14:56Z</time>
      </trkpt>
      <trkpt lat="44.98429" lon="6.50897">
        <ele>1713.6</ele>
        <time>2021-02-28T14:14:57Z</time>
      </trkpt>
      <trkpt lat="44.98429" lon="6.50897">
        <ele>1713</ele>
        <time>2021-02-28T14:14:58Z</time>
      </trkpt>
      <trkpt lat="44.9843" lon="6.50892">
        <ele>1712</ele>
        <time>2021-02-28T14:14:59Z</time>
      </trkpt>
      <trkpt lat="44.98432" lon="6.50887">
        <ele>1711.2</ele>
        <time>2021-02-28T14:15:00Z</time>
      </trkpt>
      <trkpt lat="44.98433" lon="6.50882">
        <ele>1710.8</ele>
        <time>2021-02-28T14:15:01Z</time>
      </trkpt>
      <trkpt lat="44.98434" lon="6.50877">
        <ele>1710.8</ele>
        <time>2021-02-28T14:15:02Z</time>
      </trkpt>
      <trkpt lat="44.98435" lon="6.50872">
        <ele>1710</ele>
        <time>2021-02-28T14:15:03Z</time>
      </trkpt>
      <trkpt lat="44.98438" lon="6.50857">
        <ele>1709.2</ele>
        <time>2021-02-28T14:15:04Z</time>
      </trkpt>
      <trkpt lat="44.98438" lon="6.50857">
        <ele>1708.2</ele>
        <time>2021-02-28T14:15:05Z</time>
      </trkpt>
      <trkpt lat="44.98443" lon="6.50843">
        <ele>1707.8</ele>
        <time>2021-02-28T14:15:06Z</time>
      </trkpt>
      <trkpt lat="44.98443" lon="6.50843">
        <ele>1706.6</ele>
        <time>2021-02-28T14:15:07Z</time>
      </trkpt>
      <trkpt lat="44.98451" lon="6.5083">
        <ele>1705.6</ele>
        <time>2021-02-28T14:15:08Z</time>
      </trkpt>
      <trkpt lat="44.98451" lon="6.5083">
        <ele>1704.8</ele>
        <time>2021-02-28T14:15:09Z</time>
      </trkpt>
      <trkpt lat="44.98451" lon="6.5083">
        <ele>1704.2</ele>
        <time>2021-02-28T14:15:10Z</time>
      </trkpt>
      <trkpt lat="44.98451" lon="6.5083">
        <ele>1703.8</ele>
        <time>2021-02-28T14:15:11Z</time>
      </trkpt>
      <trkpt lat="44.98449" lon="6.50831">
        <ele>1703.2</ele>
        <time>2021-02-28T14:15:12Z</time>
      </trkpt>
      <trkpt lat="44.98447" lon="6.50832">
        <ele>1702.6</ele>
        <time>2021-02-28T14:15:13Z</time>
      </trkpt>
      <trkpt lat="44.98446" lon="6.50833">
        <ele>1702</ele>
        <time>2021-02-28T14:15:14Z</time>
      </trkpt>
      <trkpt lat="44.98444" lon="6.50834">
        <ele>1701.4</ele>
        <time>2021-02-28T14:15:15Z</time>
      </trkpt>
      <trkpt lat="44.98443" lon="6.50835">
        <ele>1701</ele>
        <time>2021-02-28T14:15:16Z</time>
      </trkpt>
      <trkpt lat="44.98441" lon="6.50836">
        <ele>1700.6</ele>
        <time>2021-02-28T14:15:17Z</time>
      </trkpt>
      <trkpt lat="44.98439" lon="6.50837">
        <ele>1700</ele>
        <time>2021-02-28T14:15:18Z</time>
      </trkpt>
      <trkpt lat="44.98438" lon="6.50838">
        <ele>1699.6</ele>
        <time>2021-02-28T14:15:19Z</time>
      </trkpt>
      <trkpt lat="44.98436" lon="6.50839">
        <ele>1699</ele>
        <time>2021-02-28T14:15:20Z</time>
      </trkpt>
      <trkpt lat="44.9843" lon="6.50848">
        <ele>1698.8</ele>
        <time>2021-02-28T14:15:21Z</time>
      </trkpt>
      <trkpt lat="44.98428" lon="6.50851">
        <ele>1698.2</ele>
        <time>2021-02-28T14:15:22Z</time>
      </trkpt>
      <trkpt lat="44.98425" lon="6.50855">
        <ele>1697.8</ele>
        <time>2021-02-28T14:15:23Z</time>
      </trkpt>
      <trkpt lat="44.98425" lon="6.50855">
        <ele>1697.2</ele>
        <time>2021-02-28T14:15:24Z</time>
      </trkpt>
      <trkpt lat="44.98425" lon="6.50855">
        <ele>1697.2</ele>
        <time>2021-02-28T14:15:25Z</time>
      </trkpt>
      <trkpt lat="44.98425" lon="6.50855">
        <ele>1697</ele>
        <time>2021-02-28T14:15:26Z</time>
      </trkpt>
      <trkpt lat="44.98425" lon="6.50856">
        <ele>1696.8</ele>
        <time>2021-02-28T14:15:27Z</time>
      </trkpt>
      <trkpt lat="44.98424" lon="6.50857">
        <ele>1696.4</ele>
        <time>2021-02-28T14:15:28Z</time>
      </trkpt>
      <trkpt lat="44.98424" lon="6.50858">
        <ele>1695.8</ele>
        <time>2021-02-28T14:15:29Z</time>
      </trkpt>
      <trkpt lat="44.98424" lon="6.50859">
        <ele>1695.4</ele>
        <time>2021-02-28T14:15:30Z</time>
      </trkpt>
      <trkpt lat="44.98423" lon="6.5086">
        <ele>1694.8</ele>
        <time>2021-02-28T14:15:31Z</time>
      </trkpt>
      <trkpt lat="44.98423" lon="6.50861">
        <ele>1694.8</ele>
        <time>2021-02-28T14:15:32Z</time>
      </trkpt>
      <trkpt lat="44.98422" lon="6.50861">
        <ele>1694.8</ele>
        <time>2021-02-28T14:15:33Z</time>
      </trkpt>
      <trkpt lat="44.98422" lon="6.50862">
        <ele>1694.6</ele>
        <time>2021-02-28T14:15:34Z</time>
      </trkpt>
      <trkpt lat="44.98422" lon="6.50863">
        <ele>1694.8</ele>
        <time>2021-02-28T14:15:35Z</time>
      </trkpt>
      <trkpt lat="44.98421" lon="6.50864">
        <ele>1694.6</ele>
        <time>2021-02-28T14:15:36Z</time>
      </trkpt>
      <trkpt lat="44.98421" lon="6.50865">
        <ele>1694.6</ele>
        <time>2021-02-28T14:15:37Z</time>
      </trkpt>
      <trkpt lat="44.98421" lon="6.50866">
        <ele>1695</ele>
        <time>2021-02-28T14:15:38Z</time>
      </trkpt>
      <trkpt lat="44.9842" lon="6.50867">
        <ele>1695.2</ele>
        <time>2021-02-28T14:15:39Z</time>
      </trkpt>
      <trkpt lat="44.9842" lon="6.50868">
        <ele>1695.4</ele>
        <time>2021-02-28T14:15:40Z</time>
      </trkpt>
      <trkpt lat="44.98419" lon="6.50869">
        <ele>1695.4</ele>
        <time>2021-02-28T14:15:41Z</time>
      </trkpt>
      <trkpt lat="44.98419" lon="6.5087">
        <ele>1695.4</ele>
        <time>2021-02-28T14:15:42Z</time>
      </trkpt>
      <trkpt lat="44.98419" lon="6.5087">
        <ele>1695.2</ele>
        <time>2021-02-28T14:15:43Z</time>
      </trkpt>
      <trkpt lat="44.98419" lon="6.5087">
        <ele>1694.8</ele>
        <time>2021-02-28T14:15:44Z</time>
      </trkpt>
      <trkpt lat="44.9842" lon="6.50868">
        <ele>1694.4</ele>
        <time>2021-02-28T14:15:45Z</time>
      </trkpt>
      <trkpt lat="44.9842" lon="6.50868">
        <ele>1694.8</ele>
        <time>2021-02-28T14:15:46Z</time>
      </trkpt>
      <trkpt lat="44.9842" lon="6.50868">
        <ele>1694.8</ele>
        <time>2021-02-28T14:15:47Z</time>
      </trkpt>
      <trkpt lat="44.9842" lon="6.50868">
        <ele>1695</ele>
        <time>2021-02-28T14:15:48Z</time>
      </trkpt>
      <trkpt lat="44.9842" lon="6.50868">
        <ele>1695.2</ele>
        <time>2021-02-28T14:15:49Z</time>
      </trkpt>
      <trkpt lat="44.98419" lon="6.50864">
        <ele>1695</ele>
        <time>2021-02-28T14:15:50Z</time>
      </trkpt>
      <trkpt lat="44.98419" lon="6.50864">
        <ele>1694.8</ele>
        <time>2021-02-28T14:15:51Z</time>
      </trkpt>
      <trkpt lat="44.98419" lon="6.50864">
        <ele>1694.4</ele>
        <time>2021-02-28T14:15:52Z</time>
      </trkpt>
      <trkpt lat="44.98419" lon="6.50864">
        <ele>1694</ele>
        <time>2021-02-28T14:15:53Z</time>
      </trkpt>
      <trkpt lat="44.9842" lon="6.50864">
        <ele>1693.8</ele>
        <time>2021-02-28T14:15:54Z</time>
      </trkpt>
      <trkpt lat="44.9842" lon="6.50864">
        <ele>1693.4</ele>
        <time>2021-02-28T14:15:55Z</time>
      </trkpt>
      <trkpt lat="44.9842" lon="6.50864">
        <ele>1693.2</ele>
        <time>2021-02-28T14:15:56Z</time>
      </trkpt>
      <trkpt lat="44.9842" lon="6.50864">
        <ele>1693.2</ele>
        <time>2021-02-28T14:15:57Z</time>
      </trkpt>
      <trkpt lat="44.98421" lon="6.50864">
        <ele>1693</ele>
        <time>2021-02-28T14:15:58Z</time>
      </trkpt>
      <trkpt lat="44.98421" lon="6.50864">
        <ele>1692.8</ele>
        <time>2021-02-28T14:15:59Z</time>
      </trkpt>
      <trkpt lat="44.98421" lon="6.50864">
        <ele>1692.6</ele>
        <time>2021-02-28T14:16:00Z</time>
      </trkpt>
      <trkpt lat="44.98421" lon="6.50864">
        <ele>1692.6</ele>
        <time>2021-02-28T14:16:01Z</time>
      </trkpt>
      <trkpt lat="44.98422" lon="6.50864">
        <ele>1692.8</ele>
        <time>2021-02-28T14:16:02Z</time>
      </trkpt>
      <trkpt lat="44.98422" lon="6.50864">
        <ele>1693.2</ele>
        <time>2021-02-28T14:16:03Z</time>
      </trkpt>
      <trkpt lat="44.98422" lon="6.50864">
        <ele>1693.4</ele>
        <time>2021-02-28T14:16:04Z</time>
      </trkpt>
      <trkpt lat="44.98422" lon="6.50864">
        <ele>1693.8</ele>
        <time>2021-02-28T14:16:05Z</time>
      </trkpt>
      <trkpt lat="44.98423" lon="6.50864">
        <ele>1694</ele>
        <time>2021-02-28T14:16:06Z</time>
      </trkpt>
      <trkpt lat="44.98423" lon="6.50864">
        <ele>1694</ele>
        <time>2021-02-28T14:16:07Z</time>
      </trkpt>
      <trkpt lat="44.98423" lon="6.50864">
        <ele>1694.2</ele>
        <time>2021-02-28T14:16:08Z</time>
      </trkpt>
      <trkpt lat="44.98423" lon="6.50864">
        <ele>1694.4</ele>
        <time>2021-02-28T14:16:09Z</time>
      </trkpt>
      <trkpt lat="44.98424" lon="6.50865">
        <ele>1694.4</ele>
        <time>2021-02-28T14:16:10Z</time>
      </trkpt>
      <trkpt lat="44.98424" lon="6.50865">
        <ele>1694.2</ele>
        <time>2021-02-28T14:16:11Z</time>
      </trkpt>
      <trkpt lat="44.98424" lon="6.50865">
        <ele>1694.2</ele>
        <time>2021-02-28T14:16:12Z</time>
      </trkpt>
      <trkpt lat="44.98424" lon="6.50865">
        <ele>1694</ele>
        <time>2021-02-28T14:16:13Z</time>
      </trkpt>
      <trkpt lat="44.98425" lon="6.50865">
        <ele>1694</ele>
        <time>2021-02-28T14:16:14Z</time>
      </trkpt>
      <trkpt lat="44.98425" lon="6.50865">
        <ele>1694.2</ele>
        <time>2021-02-28T14:16:15Z</time>
      </trkpt>
      <trkpt lat="44.98425" lon="6.50865">
        <ele>1694</ele>
        <time>2021-02-28T14:16:16Z</time>
      </trkpt>
      <trkpt lat="44.98425" lon="6.50865">
        <ele>1694.2</ele>
        <time>2021-02-28T14:16:17Z</time>
      </trkpt>
      <trkpt lat="44.98425" lon="6.50865">
        <ele>1694.2</ele>
        <time>2021-02-28T14:16:18Z</time>
      </trkpt>
      <trkpt lat="44.98425" lon="6.50865">
        <ele>1694.2</ele>
        <time>2021-02-28T14:16:19Z</time>
      </trkpt>
      <trkpt lat="44.98425" lon="6.50865">
        <ele>1694.2</ele>
        <time>2021-02-28T14:16:20Z</time>
      </trkpt>
      <trkpt lat="44.98425" lon="6.50865">
        <ele>1694.4</ele>
        <time>2021-02-28T14:16:21Z</time>
      </trkpt>
      <trkpt lat="44.98425" lon="6.50865">
        <ele>1694.6</ele>
        <time>2021-02-28T14:16:22Z</time>
      </trkpt>
      <trkpt lat="44.98425" lon="6.50865">
        <ele>1694.4</ele>
        <time>2021-02-28T14:16:23Z</time>
      </trkpt>
      <trkpt lat="44.98425" lon="6.50865">
        <ele>1694.2</ele>
        <time>2021-02-28T14:16:24Z</time>
      </trkpt>
      <trkpt lat="44.98424" lon="6.50862">
        <ele>1694</ele>
        <time>2021-02-28T14:16:25Z</time>
      </trkpt>
      <trkpt lat="44.98424" lon="6.50862">
        <ele>1693.8</ele>
        <time>2021-02-28T14:16:26Z</time>
      </trkpt>
      <trkpt lat="44.98424" lon="6.50862">
        <ele>1693.6</ele>
        <time>2021-02-28T14:16:27Z</time>
      </trkpt>
      <trkpt lat="44.98424" lon="6.50862">
        <ele>1693.6</ele>
        <time>2021-02-28T14:16:28Z</time>
      </trkpt>
      <trkpt lat="44.98424" lon="6.50862">
        <ele>1694</ele>
        <time>2021-02-28T14:16:29Z</time>
      </trkpt>
      <trkpt lat="44.98424" lon="6.50862">
        <ele>1694</ele>
        <time>2021-02-28T14:16:30Z</time>
      </trkpt>
      <trkpt lat="44.98424" lon="6.50862">
        <ele>1693.8</ele>
        <time>2021-02-28T14:16:31Z</time>
      </trkpt>
      <trkpt lat="44.98424" lon="6.50862">
        <ele>1693.4</ele>
        <time>2021-02-28T14:16:32Z</time>
      </trkpt>
      <trkpt lat="44.98424" lon="6.50862">
        <ele>1693.4</ele>
        <time>2021-02-28T14:16:33Z</time>
      </trkpt>
      <trkpt lat="44.98424" lon="6.50862">
        <ele>1693.2</ele>
        <time>2021-02-28T14:16:34Z</time>
      </trkpt>
      <trkpt lat="44.98424" lon="6.50862">
        <ele>1693</ele>
        <time>2021-02-28T14:16:35Z</time>
      </trkpt>
      <trkpt lat="44.98424" lon="6.50862">
        <ele>1692.6</ele>
        <time>2021-02-28T14:16:36Z</time>
      </trkpt>
      <trkpt lat="44.98424" lon="6.50862">
        <ele>1692.6</ele>
        <time>2021-02-28T14:16:37Z</time>
      </trkpt>
      <trkpt lat="44.98424" lon="6.50862">
        <ele>1692.8</ele>
        <time>2021-02-28T14:16:38Z</time>
      </trkpt>
      <trkpt lat="44.98424" lon="6.50862">
        <ele>1692.8</ele>
        <time>2021-02-28T14:16:39Z</time>
      </trkpt>
      <trkpt lat="44.98424" lon="6.50862">
        <ele>1692.8</ele>
        <time>2021-02-28T14:16:40Z</time>
      </trkpt>
      <trkpt lat="44.98424" lon="6.50862">
        <ele>1693.2</ele>
        <time>2021-02-28T14:16:41Z</time>
      </trkpt>
      <trkpt lat="44.98424" lon="6.50862">
        <ele>1693.4</ele>
        <time>2021-02-28T14:16:42Z</time>
      </trkpt>
      <trkpt lat="44.98424" lon="6.50862">
        <ele>1693.6</ele>
        <time>2021-02-28T14:16:43Z</time>
      </trkpt>
      <trkpt lat="44.98424" lon="6.50862">
        <ele>1694</ele>
        <time>2021-02-28T14:16:44Z</time>
      </trkpt>
      <trkpt lat="44.98425" lon="6.50857">
        <ele>1693.8</ele>
        <time>2021-02-28T14:16:45Z</time>
      </trkpt>
      <trkpt lat="44.98425" lon="6.50857">
        <ele>1693.2</ele>
        <time>2021-02-28T14:16:46Z</time>
      </trkpt>
      <trkpt lat="44.98425" lon="6.50857">
        <ele>1693.2</ele>
        <time>2021-02-28T14:16:47Z</time>
      </trkpt>
      <trkpt lat="44.98425" lon="6.50857">
        <ele>1693.2</ele>
        <time>2021-02-28T14:16:48Z</time>
      </trkpt>
      <trkpt lat="44.98424" lon="6.50859">
        <ele>1693</ele>
        <time>2021-02-28T14:16:49Z</time>
      </trkpt>
      <trkpt lat="44.98423" lon="6.50861">
        <ele>1692.8</ele>
        <time>2021-02-28T14:16:50Z</time>
      </trkpt>
      <trkpt lat="44.98422" lon="6.50863">
        <ele>1692.6</ele>
        <time>2021-02-28T14:16:51Z</time>
      </trkpt>
      <trkpt lat="44.9842" lon="6.50865">
        <ele>1692.4</ele>
        <time>2021-02-28T14:16:52Z</time>
      </trkpt>
      <trkpt lat="44.98419" lon="6.50867">
        <ele>1692.6</ele>
        <time>2021-02-28T14:16:53Z</time>
      </trkpt>
      <trkpt lat="44.98418" lon="6.50868">
        <ele>1692.2</ele>
        <time>2021-02-28T14:16:54Z</time>
      </trkpt>
      <trkpt lat="44.98417" lon="6.5087">
        <ele>1692</ele>
        <time>2021-02-28T14:16:55Z</time>
      </trkpt>
      <trkpt lat="44.98416" lon="6.50871">
        <ele>1691.8</ele>
        <time>2021-02-28T14:16:56Z</time>
      </trkpt>
      <trkpt lat="44.98415" lon="6.50872">
        <ele>1691.8</ele>
        <time>2021-02-28T14:16:57Z</time>
      </trkpt>
      <trkpt lat="44.98414" lon="6.50874">
        <ele>1691.8</ele>
        <time>2021-02-28T14:16:58Z</time>
      </trkpt>
      <trkpt lat="44.98413" lon="6.50875">
        <ele>1691.6</ele>
        <time>2021-02-28T14:16:59Z</time>
      </trkpt>
      <trkpt lat="44.98412" lon="6.50877">
        <ele>1691.2</ele>
        <time>2021-02-28T14:17:00Z</time>
      </trkpt>
      <trkpt lat="44.9841" lon="6.50878">
        <ele>1691</ele>
        <time>2021-02-28T14:17:01Z</time>
      </trkpt>
      <trkpt lat="44.98408" lon="6.5088">
        <ele>1690.8</ele>
        <time>2021-02-28T14:17:02Z</time>
      </trkpt>
      <trkpt lat="44.98407" lon="6.50882">
        <ele>1690.6</ele>
        <time>2021-02-28T14:17:03Z</time>
      </trkpt>
      <trkpt lat="44.98405" lon="6.50884">
        <ele>1690.2</ele>
        <time>2021-02-28T14:17:04Z</time>
      </trkpt>
      <trkpt lat="44.98403" lon="6.50886">
        <ele>1690</ele>
        <time>2021-02-28T14:17:05Z</time>
      </trkpt>
      <trkpt lat="44.98402" lon="6.50887">
        <ele>1689.8</ele>
        <time>2021-02-28T14:17:06Z</time>
      </trkpt>
      <trkpt lat="44.984" lon="6.50888">
        <ele>1689.6</ele>
        <time>2021-02-28T14:17:07Z</time>
      </trkpt>
      <trkpt lat="44.98398" lon="6.50889">
        <ele>1689.6</ele>
        <time>2021-02-28T14:17:08Z</time>
      </trkpt>
      <trkpt lat="44.98397" lon="6.5089">
        <ele>1689.2</ele>
        <time>2021-02-28T14:17:09Z</time>
      </trkpt>
      <trkpt lat="44.98395" lon="6.5089">
        <ele>1689</ele>
        <time>2021-02-28T14:17:10Z</time>
      </trkpt>
      <trkpt lat="44.98394" lon="6.50891">
        <ele>1689</ele>
        <time>2021-02-28T14:17:11Z</time>
      </trkpt>
      <trkpt lat="44.98393" lon="6.50892">
        <ele>1688.6</ele>
        <time>2021-02-28T14:17:12Z</time>
      </trkpt>
      <trkpt lat="44.98391" lon="6.50894">
        <ele>1688.6</ele>
        <time>2021-02-28T14:17:13Z</time>
      </trkpt>
      <trkpt lat="44.9839" lon="6.50895">
        <ele>1688.8</ele>
        <time>2021-02-28T14:17:14Z</time>
      </trkpt>
      <trkpt lat="44.98389" lon="6.50896">
        <ele>1688.6</ele>
        <time>2021-02-28T14:17:15Z</time>
      </trkpt>
      <trkpt lat="44.98387" lon="6.50897">
        <ele>1688.4</ele>
        <time>2021-02-28T14:17:16Z</time>
      </trkpt>
      <trkpt lat="44.98386" lon="6.50899">
        <ele>1688.4</ele>
        <time>2021-02-28T14:17:17Z</time>
      </trkpt>
      <trkpt lat="44.98386" lon="6.509">
        <ele>1688.2</ele>
        <time>2021-02-28T14:17:18Z</time>
      </trkpt>
      <trkpt lat="44.98385" lon="6.50902">
        <ele>1687.8</ele>
        <time>2021-02-28T14:17:19Z</time>
      </trkpt>
      <trkpt lat="44.98385" lon="6.50903">
        <ele>1687.6</ele>
        <time>2021-02-28T14:17:20Z</time>
      </trkpt>
      <trkpt lat="44.98384" lon="6.50905">
        <ele>1687.2</ele>
        <time>2021-02-28T14:17:21Z</time>
      </trkpt>
      <trkpt lat="44.98384" lon="6.50906">
        <ele>1687</ele>
        <time>2021-02-28T14:17:22Z</time>
      </trkpt>
      <trkpt lat="44.98383" lon="6.50908">
        <ele>1687</ele>
        <time>2021-02-28T14:17:23Z</time>
      </trkpt>
      <trkpt lat="44.98382" lon="6.50909">
        <ele>1687</ele>
        <time>2021-02-28T14:17:24Z</time>
      </trkpt>
      <trkpt lat="44.98382" lon="6.50911">
        <ele>1687</ele>
        <time>2021-02-28T14:17:25Z</time>
      </trkpt>
      <trkpt lat="44.98381" lon="6.50912">
        <ele>1686.6</ele>
        <time>2021-02-28T14:17:26Z</time>
      </trkpt>
      <trkpt lat="44.9838" lon="6.50913">
        <ele>1686.4</ele>
        <time>2021-02-28T14:17:27Z</time>
      </trkpt>
      <trkpt lat="44.98379" lon="6.50914">
        <ele>1685.8</ele>
        <time>2021-02-28T14:17:28Z</time>
      </trkpt>
      <trkpt lat="44.98378" lon="6.50915">
        <ele>1685.6</ele>
        <time>2021-02-28T14:17:29Z</time>
      </trkpt>
      <trkpt lat="44.98377" lon="6.50916">
        <ele>1685.6</ele>
        <time>2021-02-28T14:17:30Z</time>
      </trkpt>
      <trkpt lat="44.98376" lon="6.50917">
        <ele>1685.6</ele>
        <time>2021-02-28T14:17:31Z</time>
      </trkpt>
      <trkpt lat="44.98375" lon="6.50918">
        <ele>1685.6</ele>
        <time>2021-02-28T14:17:32Z</time>
      </trkpt>
      <trkpt lat="44.98374" lon="6.50919">
        <ele>1685.4</ele>
        <time>2021-02-28T14:17:33Z</time>
      </trkpt>
      <trkpt lat="44.98372" lon="6.50919">
        <ele>1685.2</ele>
        <time>2021-02-28T14:17:34Z</time>
      </trkpt>
      <trkpt lat="44.98371" lon="6.50918">
        <ele>1685</ele>
        <time>2021-02-28T14:17:35Z</time>
      </trkpt>
      <trkpt lat="44.9837" lon="6.50918">
        <ele>1685</ele>
        <time>2021-02-28T14:17:36Z</time>
      </trkpt>
      <trkpt lat="44.98369" lon="6.50918">
        <ele>1685</ele>
        <time>2021-02-28T14:17:37Z</time>
      </trkpt>
      <trkpt lat="44.98368" lon="6.50918">
        <ele>1685</ele>
        <time>2021-02-28T14:17:38Z</time>
      </trkpt>
      <trkpt lat="44.98367" lon="6.50917">
        <ele>1684.8</ele>
        <time>2021-02-28T14:17:39Z</time>
      </trkpt>
      <trkpt lat="44.98365" lon="6.50917">
        <ele>1684.6</ele>
        <time>2021-02-28T14:17:40Z</time>
      </trkpt>
      <trkpt lat="44.98366" lon="6.50915">
        <ele>1684.6</ele>
        <time>2021-02-28T14:17:41Z</time>
      </trkpt>
      <trkpt lat="44.98366" lon="6.50915">
        <ele>1684</ele>
        <time>2021-02-28T14:17:42Z</time>
      </trkpt>
      <trkpt lat="44.98368" lon="6.5091">
        <ele>1683.6</ele>
        <time>2021-02-28T14:17:43Z</time>
      </trkpt>
      <trkpt lat="44.98369" lon="6.50908">
        <ele>1683.2</ele>
        <time>2021-02-28T14:17:44Z</time>
      </trkpt>
      <trkpt lat="44.98369" lon="6.50908">
        <ele>1683</ele>
        <time>2021-02-28T14:17:45Z</time>
      </trkpt>
      <trkpt lat="44.9837" lon="6.50904">
        <ele>1682.8</ele>
        <time>2021-02-28T14:17:46Z</time>
      </trkpt>
      <trkpt lat="44.9837" lon="6.50904">
        <ele>1682.6</ele>
        <time>2021-02-28T14:17:47Z</time>
      </trkpt>
      <trkpt lat="44.98371" lon="6.50899">
        <ele>1682.2</ele>
        <time>2021-02-28T14:17:48Z</time>
      </trkpt>
      <trkpt lat="44.98371" lon="6.50899">
        <ele>1682</ele>
        <time>2021-02-28T14:17:49Z</time>
      </trkpt>
      <trkpt lat="44.98371" lon="6.50895">
        <ele>1682</ele>
        <time>2021-02-28T14:17:50Z</time>
      </trkpt>
      <trkpt lat="44.98371" lon="6.50895">
        <ele>1681.6</ele>
        <time>2021-02-28T14:17:51Z</time>
      </trkpt>
      <trkpt lat="44.98372" lon="6.50891">
        <ele>1681.2</ele>
        <time>2021-02-28T14:17:52Z</time>
      </trkpt>
      <trkpt lat="44.98372" lon="6.50891">
        <ele>1681</ele>
        <time>2021-02-28T14:17:53Z</time>
      </trkpt>
      <trkpt lat="44.98372" lon="6.50891">
        <ele>1680.6</ele>
        <time>2021-02-28T14:17:54Z</time>
      </trkpt>
      <trkpt lat="44.98372" lon="6.50891">
        <ele>1680.4</ele>
        <time>2021-02-28T14:17:55Z</time>
      </trkpt>
      <trkpt lat="44.98372" lon="6.50889">
        <ele>1680.4</ele>
        <time>2021-02-28T14:17:56Z</time>
      </trkpt>
      <trkpt lat="44.98372" lon="6.50887">
        <ele>1680.4</ele>
        <time>2021-02-28T14:17:57Z</time>
      </trkpt>
      <trkpt lat="44.98372" lon="6.50885">
        <ele>1680.4</ele>
        <time>2021-02-28T14:17:58Z</time>
      </trkpt>
      <trkpt lat="44.98372" lon="6.50882">
        <ele>1680.2</ele>
        <time>2021-02-28T14:17:59Z</time>
      </trkpt>
      <trkpt lat="44.98373" lon="6.5088">
        <ele>1679.8</ele>
        <time>2021-02-28T14:18:00Z</time>
      </trkpt>
      <trkpt lat="44.98373" lon="6.50878">
        <ele>1679.8</ele>
        <time>2021-02-28T14:18:01Z</time>
      </trkpt>
      <trkpt lat="44.98375" lon="6.50876">
        <ele>1679.6</ele>
        <time>2021-02-28T14:18:02Z</time>
      </trkpt>
      <trkpt lat="44.98377" lon="6.50874">
        <ele>1679.4</ele>
        <time>2021-02-28T14:18:03Z</time>
      </trkpt>
      <trkpt lat="44.9838" lon="6.50871">
        <ele>1679.4</ele>
        <time>2021-02-28T14:18:04Z</time>
      </trkpt>
      <trkpt lat="44.98382" lon="6.50869">
        <ele>1679.2</ele>
        <time>2021-02-28T14:18:05Z</time>
      </trkpt>
      <trkpt lat="44.98384" lon="6.50866">
        <ele>1679</ele>
        <time>2021-02-28T14:18:06Z</time>
      </trkpt>
      <trkpt lat="44.98385" lon="6.50865">
        <ele>1678.8</ele>
        <time>2021-02-28T14:18:07Z</time>
      </trkpt>
      <trkpt lat="44.98388" lon="6.50862">
        <ele>1678.8</ele>
        <time>2021-02-28T14:18:08Z</time>
      </trkpt>
      <trkpt lat="44.98388" lon="6.50862">
        <ele>1678.4</ele>
        <time>2021-02-28T14:18:09Z</time>
      </trkpt>
      <trkpt lat="44.9839" lon="6.50858">
        <ele>1677.8</ele>
        <time>2021-02-28T14:18:10Z</time>
      </trkpt>
      <trkpt lat="44.9839" lon="6.50858">
        <ele>1677.6</ele>
        <time>2021-02-28T14:18:11Z</time>
      </trkpt>
      <trkpt lat="44.98391" lon="6.50855">
        <ele>1677.4</ele>
        <time>2021-02-28T14:18:12Z</time>
      </trkpt>
      <trkpt lat="44.98391" lon="6.50855">
        <ele>1677</ele>
        <time>2021-02-28T14:18:13Z</time>
      </trkpt>
      <trkpt lat="44.98392" lon="6.50853">
        <ele>1676.8</ele>
        <time>2021-02-28T14:18:14Z</time>
      </trkpt>
      <trkpt lat="44.98392" lon="6.50853">
        <ele>1676.8</ele>
        <time>2021-02-28T14:18:15Z</time>
      </trkpt>
      <trkpt lat="44.98392" lon="6.50853">
        <ele>1676.6</ele>
        <time>2021-02-28T14:18:16Z</time>
      </trkpt>
      <trkpt lat="44.98394" lon="6.50851">
        <ele>1676.6</ele>
        <time>2021-02-28T14:18:17Z</time>
      </trkpt>
      <trkpt lat="44.98394" lon="6.50851">
        <ele>1676.2</ele>
        <time>2021-02-28T14:18:18Z</time>
      </trkpt>
      <trkpt lat="44.98396" lon="6.5085">
        <ele>1676</ele>
        <time>2021-02-28T14:18:19Z</time>
      </trkpt>
      <trkpt lat="44.98396" lon="6.5085">
        <ele>1675.6</ele>
        <time>2021-02-28T14:18:20Z</time>
      </trkpt>
      <trkpt lat="44.98398" lon="6.50847">
        <ele>1675.4</ele>
        <time>2021-02-28T14:18:21Z</time>
      </trkpt>
      <trkpt lat="44.98398" lon="6.50847">
        <ele>1675.2</ele>
        <time>2021-02-28T14:18:22Z</time>
      </trkpt>
      <trkpt lat="44.98399" lon="6.50844">
        <ele>1675</ele>
        <time>2021-02-28T14:18:23Z</time>
      </trkpt>
      <trkpt lat="44.98399" lon="6.50844">
        <ele>1674.8</ele>
        <time>2021-02-28T14:18:24Z</time>
      </trkpt>
      <trkpt lat="44.984" lon="6.50841">
        <ele>1674.4</ele>
        <time>2021-02-28T14:18:25Z</time>
      </trkpt>
      <trkpt lat="44.984" lon="6.50841">
        <ele>1674.2</ele>
        <time>2021-02-28T14:18:26Z</time>
      </trkpt>
      <trkpt lat="44.98402" lon="6.50838">
        <ele>1674.2</ele>
        <time>2021-02-28T14:18:27Z</time>
      </trkpt>
      <trkpt lat="44.98402" lon="6.50838">
        <ele>1673.8</ele>
        <time>2021-02-28T14:18:28Z</time>
      </trkpt>
      <trkpt lat="44.98404" lon="6.50834">
        <ele>1673.4</ele>
        <time>2021-02-28T14:18:29Z</time>
      </trkpt>
      <trkpt lat="44.98404" lon="6.50834">
        <ele>1673.4</ele>
        <time>2021-02-28T14:18:30Z</time>
      </trkpt>
      <trkpt lat="44.98404" lon="6.5083">
        <ele>1673</ele>
        <time>2021-02-28T14:18:31Z</time>
      </trkpt>
      <trkpt lat="44.98404" lon="6.5083">
        <ele>1672.6</ele>
        <time>2021-02-28T14:18:32Z</time>
      </trkpt>
      <trkpt lat="44.98404" lon="6.50827">
        <ele>1672.4</ele>
        <time>2021-02-28T14:18:33Z</time>
      </trkpt>
      <trkpt lat="44.98404" lon="6.50827">
        <ele>1672.4</ele>
        <time>2021-02-28T14:18:34Z</time>
      </trkpt>
      <trkpt lat="44.98404" lon="6.50823">
        <ele>1672.4</ele>
        <time>2021-02-28T14:18:35Z</time>
      </trkpt>
      <trkpt lat="44.98404" lon="6.50823">
        <ele>1672.2</ele>
        <time>2021-02-28T14:18:36Z</time>
      </trkpt>
      <trkpt lat="44.98405" lon="6.50821">
        <ele>1671.8</ele>
        <time>2021-02-28T14:18:37Z</time>
      </trkpt>
      <trkpt lat="44.98405" lon="6.50821">
        <ele>1671.4</ele>
        <time>2021-02-28T14:18:38Z</time>
      </trkpt>
      <trkpt lat="44.98406" lon="6.50818">
        <ele>1671.4</ele>
        <time>2021-02-28T14:18:39Z</time>
      </trkpt>
      <trkpt lat="44.98406" lon="6.50818">
        <ele>1671</ele>
        <time>2021-02-28T14:18:40Z</time>
      </trkpt>
      <trkpt lat="44.98408" lon="6.50816">
        <ele>1670.8</ele>
        <time>2021-02-28T14:18:41Z</time>
      </trkpt>
      <trkpt lat="44.98408" lon="6.50816">
        <ele>1670.8</ele>
        <time>2021-02-28T14:18:42Z</time>
      </trkpt>
      <trkpt lat="44.9841" lon="6.50814">
        <ele>1670.6</ele>
        <time>2021-02-28T14:18:43Z</time>
      </trkpt>
      <trkpt lat="44.9841" lon="6.50814">
        <ele>1670.4</ele>
        <time>2021-02-28T14:18:44Z</time>
      </trkpt>
      <trkpt lat="44.98412" lon="6.5081">
        <ele>1670.2</ele>
        <time>2021-02-28T14:18:45Z</time>
      </trkpt>
      <trkpt lat="44.98412" lon="6.5081">
        <ele>1670.2</ele>
        <time>2021-02-28T14:18:46Z</time>
      </trkpt>
      <trkpt lat="44.98414" lon="6.50807">
        <ele>1670</ele>
        <time>2021-02-28T14:18:47Z</time>
      </trkpt>
      <trkpt lat="44.98414" lon="6.50807">
        <ele>1669.6</ele>
        <time>2021-02-28T14:18:48Z</time>
      </trkpt>
      <trkpt lat="44.98415" lon="6.50803">
        <ele>1669.2</ele>
        <time>2021-02-28T14:18:49Z</time>
      </trkpt>
      <trkpt lat="44.98415" lon="6.50803">
        <ele>1668.8</ele>
        <time>2021-02-28T14:18:50Z</time>
      </trkpt>
      <trkpt lat="44.98417" lon="6.50802">
        <ele>1668.6</ele>
        <time>2021-02-28T14:18:51Z</time>
      </trkpt>
      <trkpt lat="44.98417" lon="6.50802">
        <ele>1668.2</ele>
        <time>2021-02-28T14:18:52Z</time>
      </trkpt>
      <trkpt lat="44.98417" lon="6.50802">
        <ele>1668.2</ele>
        <time>2021-02-28T14:18:53Z</time>
      </trkpt>
      <trkpt lat="44.98417" lon="6.50798">
        <ele>1668.2</ele>
        <time>2021-02-28T14:18:54Z</time>
      </trkpt>
      <trkpt lat="44.98417" lon="6.50798">
        <ele>1667.8</ele>
        <time>2021-02-28T14:18:55Z</time>
      </trkpt>
      <trkpt lat="44.98417" lon="6.50794">
        <ele>1667.6</ele>
        <time>2021-02-28T14:18:56Z</time>
      </trkpt>
      <trkpt lat="44.98417" lon="6.50794">
        <ele>1667.2</ele>
        <time>2021-02-28T14:18:57Z</time>
      </trkpt>
      <trkpt lat="44.98417" lon="6.50794">
        <ele>1667</ele>
        <time>2021-02-28T14:18:58Z</time>
      </trkpt>
      <trkpt lat="44.9842" lon="6.50786">
        <ele>1666.8</ele>
        <time>2021-02-28T14:18:59Z</time>
      </trkpt>
      <trkpt lat="44.98421" lon="6.50782">
        <ele>1667</ele>
        <time>2021-02-28T14:19:00Z</time>
      </trkpt>
      <trkpt lat="44.98421" lon="6.50781">
        <ele>1666.6</ele>
        <time>2021-02-28T14:19:01Z</time>
      </trkpt>
      <trkpt lat="44.98422" lon="6.5078">
        <ele>1666.8</ele>
        <time>2021-02-28T14:19:02Z</time>
      </trkpt>
      <trkpt lat="44.98422" lon="6.50776">
        <ele>1666.8</ele>
        <time>2021-02-28T14:19:03Z</time>
      </trkpt>
      <trkpt lat="44.98422" lon="6.50776">
        <ele>1666.4</ele>
        <time>2021-02-28T14:19:04Z</time>
      </trkpt>
      <trkpt lat="44.98423" lon="6.50773">
        <ele>1666.2</ele>
        <time>2021-02-28T14:19:05Z</time>
      </trkpt>
      <trkpt lat="44.98423" lon="6.50773">
        <ele>1665.8</ele>
        <time>2021-02-28T14:19:06Z</time>
      </trkpt>
      <trkpt lat="44.98426" lon="6.5077">
        <ele>1665.8</ele>
        <time>2021-02-28T14:19:07Z</time>
      </trkpt>
      <trkpt lat="44.98426" lon="6.5077">
        <ele>1665.4</ele>
        <time>2021-02-28T14:19:08Z</time>
      </trkpt>
      <trkpt lat="44.98426" lon="6.5077">
        <ele>1665.2</ele>
        <time>2021-02-28T14:19:09Z</time>
      </trkpt>
      <trkpt lat="44.98427" lon="6.50766">
        <ele>1664.8</ele>
        <time>2021-02-28T14:19:10Z</time>
      </trkpt>
      <trkpt lat="44.98427" lon="6.50766">
        <ele>1665</ele>
        <time>2021-02-28T14:19:11Z</time>
      </trkpt>
      <trkpt lat="44.98429" lon="6.50762">
        <ele>1664.6</ele>
        <time>2021-02-28T14:19:12Z</time>
      </trkpt>
      <trkpt lat="44.98429" lon="6.50762">
        <ele>1664.6</ele>
        <time>2021-02-28T14:19:13Z</time>
      </trkpt>
      <trkpt lat="44.98431" lon="6.50759">
        <ele>1664.4</ele>
        <time>2021-02-28T14:19:14Z</time>
      </trkpt>
      <trkpt lat="44.98431" lon="6.50759">
        <ele>1664.4</ele>
        <time>2021-02-28T14:19:15Z</time>
      </trkpt>
      <trkpt lat="44.98432" lon="6.50755">
        <ele>1664.2</ele>
        <time>2021-02-28T14:19:16Z</time>
      </trkpt>
      <trkpt lat="44.98432" lon="6.50755">
        <ele>1664.2</ele>
        <time>2021-02-28T14:19:17Z</time>
      </trkpt>
      <trkpt lat="44.98434" lon="6.50753">
        <ele>1663.6</ele>
        <time>2021-02-28T14:19:18Z</time>
      </trkpt>
      <trkpt lat="44.98434" lon="6.50753">
        <ele>1663.4</ele>
        <time>2021-02-28T14:19:19Z</time>
      </trkpt>
      <trkpt lat="44.98436" lon="6.50751">
        <ele>1663.4</ele>
        <time>2021-02-28T14:19:20Z</time>
      </trkpt>
      <trkpt lat="44.98436" lon="6.50751">
        <ele>1663</ele>
        <time>2021-02-28T14:19:21Z</time>
      </trkpt>
      <trkpt lat="44.98439" lon="6.5075">
        <ele>1663.4</ele>
        <time>2021-02-28T14:19:22Z</time>
      </trkpt>
      <trkpt lat="44.98439" lon="6.5075">
        <ele>1663</ele>
        <time>2021-02-28T14:19:23Z</time>
      </trkpt>
      <trkpt lat="44.98441" lon="6.50748">
        <ele>1662.8</ele>
        <time>2021-02-28T14:19:24Z</time>
      </trkpt>
      <trkpt lat="44.98441" lon="6.50748">
        <ele>1662.6</ele>
        <time>2021-02-28T14:19:25Z</time>
      </trkpt>
      <trkpt lat="44.98443" lon="6.50748">
        <ele>1662.6</ele>
        <time>2021-02-28T14:19:26Z</time>
      </trkpt>
      <trkpt lat="44.98443" lon="6.50748">
        <ele>1662.2</ele>
        <time>2021-02-28T14:19:27Z</time>
      </trkpt>
      <trkpt lat="44.98444" lon="6.50746">
        <ele>1661.8</ele>
        <time>2021-02-28T14:19:28Z</time>
      </trkpt>
      <trkpt lat="44.98444" lon="6.50746">
        <ele>1661.8</ele>
        <time>2021-02-28T14:19:29Z</time>
      </trkpt>
      <trkpt lat="44.98446" lon="6.50745">
        <ele>1661.6</ele>
        <time>2021-02-28T14:19:30Z</time>
      </trkpt>
      <trkpt lat="44.98446" lon="6.50745">
        <ele>1661.6</ele>
        <time>2021-02-28T14:19:31Z</time>
      </trkpt>
      <trkpt lat="44.98446" lon="6.50745">
        <ele>1661.2</ele>
        <time>2021-02-28T14:19:32Z</time>
      </trkpt>
      <trkpt lat="44.98446" lon="6.50745">
        <ele>1660.6</ele>
        <time>2021-02-28T14:19:33Z</time>
      </trkpt>
      <trkpt lat="44.98448" lon="6.50745">
        <ele>1660.2</ele>
        <time>2021-02-28T14:19:34Z</time>
      </trkpt>
      <trkpt lat="44.9845" lon="6.50744">
        <ele>1659.8</ele>
        <time>2021-02-28T14:19:35Z</time>
      </trkpt>
      <trkpt lat="44.98452" lon="6.50744">
        <ele>1660</ele>
        <time>2021-02-28T14:19:36Z</time>
      </trkpt>
      <trkpt lat="44.98454" lon="6.50744">
        <ele>1659.2</ele>
        <time>2021-02-28T14:19:37Z</time>
      </trkpt>
      <trkpt lat="44.98455" lon="6.50744">
        <ele>1658.8</ele>
        <time>2021-02-28T14:19:38Z</time>
      </trkpt>
      <trkpt lat="44.98457" lon="6.50744">
        <ele>1658.6</ele>
        <time>2021-02-28T14:19:39Z</time>
      </trkpt>
      <trkpt lat="44.98459" lon="6.50743">
        <ele>1658.2</ele>
        <time>2021-02-28T14:19:40Z</time>
      </trkpt>
      <trkpt lat="44.98461" lon="6.50743">
        <ele>1658</ele>
        <time>2021-02-28T14:19:41Z</time>
      </trkpt>
      <trkpt lat="44.98463" lon="6.50743">
        <ele>1658</ele>
        <time>2021-02-28T14:19:42Z</time>
      </trkpt>
      <trkpt lat="44.98465" lon="6.50743">
        <ele>1657.8</ele>
        <time>2021-02-28T14:19:43Z</time>
      </trkpt>
      <trkpt lat="44.98466" lon="6.50743">
        <ele>1657.6</ele>
        <time>2021-02-28T14:19:44Z</time>
      </trkpt>
      <trkpt lat="44.98468" lon="6.50742">
        <ele>1657.4</ele>
        <time>2021-02-28T14:19:45Z</time>
      </trkpt>
      <trkpt lat="44.9847" lon="6.50742">
        <ele>1657</ele>
        <time>2021-02-28T14:19:46Z</time>
      </trkpt>
      <trkpt lat="44.9847" lon="6.50742">
        <ele>1656.6</ele>
        <time>2021-02-28T14:19:47Z</time>
      </trkpt>
      <trkpt lat="44.9847" lon="6.50742">
        <ele>1656.2</ele>
        <time>2021-02-28T14:19:48Z</time>
      </trkpt>
      <trkpt lat="44.9847" lon="6.50742">
        <ele>1655.8</ele>
        <time>2021-02-28T14:19:49Z</time>
      </trkpt>
      <trkpt lat="44.98472" lon="6.50742">
        <ele>1656</ele>
        <time>2021-02-28T14:19:50Z</time>
      </trkpt>
      <trkpt lat="44.98474" lon="6.50741">
        <ele>1655.6</ele>
        <time>2021-02-28T14:19:51Z</time>
      </trkpt>
      <trkpt lat="44.98475" lon="6.50741">
        <ele>1655.2</ele>
        <time>2021-02-28T14:19:52Z</time>
      </trkpt>
      <trkpt lat="44.98477" lon="6.50741">
        <ele>1654.8</ele>
        <time>2021-02-28T14:19:53Z</time>
      </trkpt>
      <trkpt lat="44.98478" lon="6.5074">
        <ele>1654.2</ele>
        <time>2021-02-28T14:19:54Z</time>
      </trkpt>
      <trkpt lat="44.9848" lon="6.5074">
        <ele>1653.8</ele>
        <time>2021-02-28T14:19:55Z</time>
      </trkpt>
      <trkpt lat="44.9848" lon="6.5074">
        <ele>1653.4</ele>
        <time>2021-02-28T14:19:56Z</time>
      </trkpt>
      <trkpt lat="44.98479" lon="6.50739">
        <ele>1653.2</ele>
        <time>2021-02-28T14:19:57Z</time>
      </trkpt>
      <trkpt lat="44.98479" lon="6.50739">
        <ele>1653.2</ele>
        <time>2021-02-28T14:19:58Z</time>
      </trkpt>
      <trkpt lat="44.98479" lon="6.50739">
        <ele>1653.2</ele>
        <time>2021-02-28T14:19:59Z</time>
      </trkpt>
      <trkpt lat="44.98479" lon="6.50739">
        <ele>1653.2</ele>
        <time>2021-02-28T14:20:00Z</time>
      </trkpt>
      <trkpt lat="44.98478" lon="6.50739">
        <ele>1653.2</ele>
        <time>2021-02-28T14:20:01Z</time>
      </trkpt>
      <trkpt lat="44.98478" lon="6.50739">
        <ele>1653</ele>
        <time>2021-02-28T14:20:02Z</time>
      </trkpt>
      <trkpt lat="44.98478" lon="6.50738">
        <ele>1653</ele>
        <time>2021-02-28T14:20:03Z</time>
      </trkpt>
      <trkpt lat="44.98478" lon="6.50738">
        <ele>1653</ele>
        <time>2021-02-28T14:20:04Z</time>
      </trkpt>
      <trkpt lat="44.98477" lon="6.50738">
        <ele>1653</ele>
        <time>2021-02-28T14:20:05Z</time>
      </trkpt>
      <trkpt lat="44.98477" lon="6.50738">
        <ele>1652.8</ele>
        <time>2021-02-28T14:20:06Z</time>
      </trkpt>
      <trkpt lat="44.98477" lon="6.50738">
        <ele>1652.8</ele>
        <time>2021-02-28T14:20:07Z</time>
      </trkpt>
      <trkpt lat="44.98476" lon="6.50737">
        <ele>1652.6</ele>
        <time>2021-02-28T14:20:08Z</time>
      </trkpt>
      <trkpt lat="44.98476" lon="6.50737">
        <ele>1652.8</ele>
        <time>2021-02-28T14:20:09Z</time>
      </trkpt>
      <trkpt lat="44.98476" lon="6.50737">
        <ele>1652.8</ele>
        <time>2021-02-28T14:20:10Z</time>
      </trkpt>
      <trkpt lat="44.98476" lon="6.50737">
        <ele>1652.8</ele>
        <time>2021-02-28T14:20:11Z</time>
      </trkpt>
      <trkpt lat="44.98475" lon="6.50737">
        <ele>1652.6</ele>
        <time>2021-02-28T14:20:12Z</time>
      </trkpt>
      <trkpt lat="44.98475" lon="6.50736">
        <ele>1652.4</ele>
        <time>2021-02-28T14:20:13Z</time>
      </trkpt>
      <trkpt lat="44.98475" lon="6.50736">
        <ele>1652.2</ele>
        <time>2021-02-28T14:20:14Z</time>
      </trkpt>
      <trkpt lat="44.98474" lon="6.50736">
        <ele>1652</ele>
        <time>2021-02-28T14:20:15Z</time>
      </trkpt>
      <trkpt lat="44.98474" lon="6.50736">
        <ele>1651.6</ele>
        <time>2021-02-28T14:20:16Z</time>
      </trkpt>
      <trkpt lat="44.98474" lon="6.50736">
        <ele>1651.6</ele>
        <time>2021-02-28T14:20:17Z</time>
      </trkpt>
      <trkpt lat="44.98474" lon="6.50736">
        <ele>1651.6</ele>
        <time>2021-02-28T14:20:18Z</time>
      </trkpt>
      <trkpt lat="44.98473" lon="6.50735">
        <ele>1651.4</ele>
        <time>2021-02-28T14:20:19Z</time>
      </trkpt>
      <trkpt lat="44.98473" lon="6.50735">
        <ele>1651.4</ele>
        <time>2021-02-28T14:20:20Z</time>
      </trkpt>
      <trkpt lat="44.98473" lon="6.50735">
        <ele>1651.2</ele>
        <time>2021-02-28T14:20:21Z</time>
      </trkpt>
      <trkpt lat="44.98472" lon="6.50735">
        <ele>1651</ele>
        <time>2021-02-28T14:20:22Z</time>
      </trkpt>
      <trkpt lat="44.98472" lon="6.50735">
        <ele>1650.8</ele>
        <time>2021-02-28T14:20:23Z</time>
      </trkpt>
      <trkpt lat="44.98472" lon="6.50734">
        <ele>1650.6</ele>
        <time>2021-02-28T14:20:24Z</time>
      </trkpt>
      <trkpt lat="44.98472" lon="6.50734">
        <ele>1650.6</ele>
        <time>2021-02-28T14:20:25Z</time>
      </trkpt>
      <trkpt lat="44.98471" lon="6.50734">
        <ele>1650.6</ele>
        <time>2021-02-28T14:20:26Z</time>
      </trkpt>
      <trkpt lat="44.98471" lon="6.50734">
        <ele>1650.4</ele>
        <time>2021-02-28T14:20:27Z</time>
      </trkpt>
      <trkpt lat="44.98471" lon="6.50734">
        <ele>1650.4</ele>
        <time>2021-02-28T14:20:28Z</time>
      </trkpt>
      <trkpt lat="44.98471" lon="6.50734">
        <ele>1650.6</ele>
        <time>2021-02-28T14:20:29Z</time>
      </trkpt>
      <trkpt lat="44.98471" lon="6.50734">
        <ele>1650.6</ele>
        <time>2021-02-28T14:20:30Z</time>
      </trkpt>
      <trkpt lat="44.98471" lon="6.50734">
        <ele>1650.6</ele>
        <time>2021-02-28T14:20:31Z</time>
      </trkpt>
      <trkpt lat="44.98473" lon="6.50731">
        <ele>1650.6</ele>
        <time>2021-02-28T14:20:32Z</time>
      </trkpt>
      <trkpt lat="44.98473" lon="6.50731">
        <ele>1650.8</ele>
        <time>2021-02-28T14:20:33Z</time>
      </trkpt>
      <trkpt lat="44.98473" lon="6.50731">
        <ele>1651.2</ele>
        <time>2021-02-28T14:20:34Z</time>
      </trkpt>
      <trkpt lat="44.98473" lon="6.50731">
        <ele>1651</ele>
        <time>2021-02-28T14:20:35Z</time>
      </trkpt>
      <trkpt lat="44.98473" lon="6.50731">
        <ele>1650.8</ele>
        <time>2021-02-28T14:20:36Z</time>
      </trkpt>
      <trkpt lat="44.98473" lon="6.50731">
        <ele>1650.6</ele>
        <time>2021-02-28T14:20:37Z</time>
      </trkpt>
      <trkpt lat="44.98473" lon="6.50731">
        <ele>1650.4</ele>
        <time>2021-02-28T14:20:38Z</time>
      </trkpt>
      <trkpt lat="44.98473" lon="6.50731">
        <ele>1650.2</ele>
        <time>2021-02-28T14:20:39Z</time>
      </trkpt>
      <trkpt lat="44.98475" lon="6.50731">
        <ele>1649.8</ele>
        <time>2021-02-28T14:20:40Z</time>
      </trkpt>
      <trkpt lat="44.98475" lon="6.50731">
        <ele>1649.6</ele>
        <time>2021-02-28T14:20:41Z</time>
      </trkpt>
      <trkpt lat="44.98475" lon="6.50731">
        <ele>1649.4</ele>
        <time>2021-02-28T14:20:42Z</time>
      </trkpt>
      <trkpt lat="44.98475" lon="6.50731">
        <ele>1649.4</ele>
        <time>2021-02-28T14:20:43Z</time>
      </trkpt>
      <trkpt lat="44.98475" lon="6.50731">
        <ele>1649.4</ele>
        <time>2021-02-28T14:20:44Z</time>
      </trkpt>
      <trkpt lat="44.98475" lon="6.5073">
        <ele>1649.4</ele>
        <time>2021-02-28T14:20:45Z</time>
      </trkpt>
      <trkpt lat="44.98475" lon="6.5073">
        <ele>1649.2</ele>
        <time>2021-02-28T14:20:46Z</time>
      </trkpt>
      <trkpt lat="44.98475" lon="6.5073">
        <ele>1649.4</ele>
        <time>2021-02-28T14:20:47Z</time>
      </trkpt>
      <trkpt lat="44.98475" lon="6.50729">
        <ele>1649.4</ele>
        <time>2021-02-28T14:20:48Z</time>
      </trkpt>
      <trkpt lat="44.98475" lon="6.50729">
        <ele>1649.2</ele>
        <time>2021-02-28T14:20:49Z</time>
      </trkpt>
      <trkpt lat="44.98475" lon="6.50728">
        <ele>1649.2</ele>
        <time>2021-02-28T14:20:50Z</time>
      </trkpt>
      <trkpt lat="44.98475" lon="6.50728">
        <ele>1649</ele>
        <time>2021-02-28T14:20:51Z</time>
      </trkpt>
      <trkpt lat="44.98475" lon="6.50728">
        <ele>1649.2</ele>
        <time>2021-02-28T14:20:52Z</time>
      </trkpt>
      <trkpt lat="44.98475" lon="6.50727">
        <ele>1649</ele>
        <time>2021-02-28T14:20:53Z</time>
      </trkpt>
      <trkpt lat="44.98475" lon="6.50727">
        <ele>1649</ele>
        <time>2021-02-28T14:20:54Z</time>
      </trkpt>
      <trkpt lat="44.98475" lon="6.50727">
        <ele>1649.2</ele>
        <time>2021-02-28T14:20:55Z</time>
      </trkpt>
      <trkpt lat="44.98475" lon="6.50726">
        <ele>1649.2</ele>
        <time>2021-02-28T14:20:56Z</time>
      </trkpt>
      <trkpt lat="44.98475" lon="6.50726">
        <ele>1649.2</ele>
        <time>2021-02-28T14:20:57Z</time>
      </trkpt>
      <trkpt lat="44.98475" lon="6.50725">
        <ele>1649.4</ele>
        <time>2021-02-28T14:20:58Z</time>
      </trkpt>
      <trkpt lat="44.98475" lon="6.50725">
        <ele>1649.6</ele>
        <time>2021-02-28T14:20:59Z</time>
      </trkpt>
      <trkpt lat="44.98475" lon="6.50725">
        <ele>1649.8</ele>
        <time>2021-02-28T14:21:00Z</time>
      </trkpt>
      <trkpt lat="44.98475" lon="6.50725">
        <ele>1649.8</ele>
        <time>2021-02-28T14:21:01Z</time>
      </trkpt>
      <trkpt lat="44.98475" lon="6.50725">
        <ele>1649.8</ele>
        <time>2021-02-28T14:21:02Z</time>
      </trkpt>
      <trkpt lat="44.98475" lon="6.50725">
        <ele>1650</ele>
        <time>2021-02-28T14:21:03Z</time>
      </trkpt>
      <trkpt lat="44.98475" lon="6.50725">
        <ele>1650.4</ele>
        <time>2021-02-28T14:21:04Z</time>
      </trkpt>
      <trkpt lat="44.98475" lon="6.50722">
        <ele>1650.8</ele>
        <time>2021-02-28T14:21:05Z</time>
      </trkpt>
      <trkpt lat="44.98475" lon="6.50722">
        <ele>1651</ele>
        <time>2021-02-28T14:21:06Z</time>
      </trkpt>
      <trkpt lat="44.98475" lon="6.50722">
        <ele>1651</ele>
        <time>2021-02-28T14:21:07Z</time>
      </trkpt>
      <trkpt lat="44.98475" lon="6.50722">
        <ele>1651.2</ele>
        <time>2021-02-28T14:21:08Z</time>
      </trkpt>
      <trkpt lat="44.98475" lon="6.50722">
        <ele>1651</ele>
        <time>2021-02-28T14:21:09Z</time>
      </trkpt>
      <trkpt lat="44.98475" lon="6.50722">
        <ele>1651.2</ele>
        <time>2021-02-28T14:21:10Z</time>
      </trkpt>
      <trkpt lat="44.98475" lon="6.50722">
        <ele>1651.2</ele>
        <time>2021-02-28T14:21:11Z</time>
      </trkpt>
      <trkpt lat="44.98477" lon="6.50719">
        <ele>1651.2</ele>
        <time>2021-02-28T14:21:12Z</time>
      </trkpt>
      <trkpt lat="44.9848" lon="6.50718">
        <ele>1650.8</ele>
        <time>2021-02-28T14:21:13Z</time>
      </trkpt>
      <trkpt lat="44.98482" lon="6.50718">
        <ele>1649.6</ele>
        <time>2021-02-28T14:21:14Z</time>
      </trkpt>
      <trkpt lat="44.98482" lon="6.50718">
        <ele>1649</ele>
        <time>2021-02-28T14:21:15Z</time>
      </trkpt>
      <trkpt lat="44.98485" lon="6.50716">
        <ele>1648.4</ele>
        <time>2021-02-28T14:21:16Z</time>
      </trkpt>
      <trkpt lat="44.98485" lon="6.50716">
        <ele>1648.4</ele>
        <time>2021-02-28T14:21:17Z</time>
      </trkpt>
      <trkpt lat="44.98485" lon="6.50716">
        <ele>1647.6</ele>
        <time>2021-02-28T14:21:18Z</time>
      </trkpt>
      <trkpt lat="44.98485" lon="6.50716">
        <ele>1646.4</ele>
        <time>2021-02-28T14:21:19Z</time>
      </trkpt>
      <trkpt lat="44.98485" lon="6.50714">
        <ele>1645.2</ele>
        <time>2021-02-28T14:21:20Z</time>
      </trkpt>
      <trkpt lat="44.98485" lon="6.50712">
        <ele>1644</ele>
        <time>2021-02-28T14:21:21Z</time>
      </trkpt>
      <trkpt lat="44.98485" lon="6.50709">
        <ele>1643</ele>
        <time>2021-02-28T14:21:22Z</time>
      </trkpt>
      <trkpt lat="44.98486" lon="6.50707">
        <ele>1642.2</ele>
        <time>2021-02-28T14:21:23Z</time>
      </trkpt>
      <trkpt lat="44.98486" lon="6.50705">
        <ele>1640.6</ele>
        <time>2021-02-28T14:21:24Z</time>
      </trkpt>
      <trkpt lat="44.98486" lon="6.50702">
        <ele>1639.2</ele>
        <time>2021-02-28T14:21:25Z</time>
      </trkpt>
      <trkpt lat="44.98482" lon="6.50689">
        <ele>1638</ele>
        <time>2021-02-28T14:21:26Z</time>
      </trkpt>
      <trkpt lat="44.98482" lon="6.50689">
        <ele>1637</ele>
        <time>2021-02-28T14:21:27Z</time>
      </trkpt>
      <trkpt lat="44.98482" lon="6.50689">
        <ele>1635.6</ele>
        <time>2021-02-28T14:21:28Z</time>
      </trkpt>
      <trkpt lat="44.98482" lon="6.50689">
        <ele>1634</ele>
        <time>2021-02-28T14:21:29Z</time>
      </trkpt>
      <trkpt lat="44.98485" lon="6.50673">
        <ele>1632.8</ele>
        <time>2021-02-28T14:21:30Z</time>
      </trkpt>
      <trkpt lat="44.98485" lon="6.50672">
        <ele>1632.2</ele>
        <time>2021-02-28T14:21:31Z</time>
      </trkpt>
      <trkpt lat="44.98486" lon="6.50671">
        <ele>1631.6</ele>
        <time>2021-02-28T14:21:32Z</time>
      </trkpt>
      <trkpt lat="44.98486" lon="6.50671">
        <ele>1631</ele>
        <time>2021-02-28T14:21:33Z</time>
      </trkpt>
      <trkpt lat="44.98487" lon="6.50668">
        <ele>1630.4</ele>
        <time>2021-02-28T14:21:34Z</time>
      </trkpt>
      <trkpt lat="44.98487" lon="6.50668">
        <ele>1630</ele>
        <time>2021-02-28T14:21:35Z</time>
      </trkpt>
      <trkpt lat="44.98487" lon="6.50668">
        <ele>1629.8</ele>
        <time>2021-02-28T14:21:36Z</time>
      </trkpt>
      <trkpt lat="44.98486" lon="6.50668">
        <ele>1629.6</ele>
        <time>2021-02-28T14:21:37Z</time>
      </trkpt>
      <trkpt lat="44.98485" lon="6.50667">
        <ele>1629.2</ele>
        <time>2021-02-28T14:21:38Z</time>
      </trkpt>
      <trkpt lat="44.98485" lon="6.50666">
        <ele>1628.6</ele>
        <time>2021-02-28T14:21:39Z</time>
      </trkpt>
      <trkpt lat="44.98484" lon="6.50665">
        <ele>1628</ele>
        <time>2021-02-28T14:21:40Z</time>
      </trkpt>
      <trkpt lat="44.98484" lon="6.50664">
        <ele>1626.8</ele>
        <time>2021-02-28T14:21:41Z</time>
      </trkpt>
      <trkpt lat="44.98483" lon="6.50663">
        <ele>1626</ele>
        <time>2021-02-28T14:21:42Z</time>
      </trkpt>
      <trkpt lat="44.98483" lon="6.50662">
        <ele>1625.6</ele>
        <time>2021-02-28T14:21:43Z</time>
      </trkpt>
      <trkpt lat="44.98482" lon="6.50662">
        <ele>1625.2</ele>
        <time>2021-02-28T14:21:44Z</time>
      </trkpt>
      <trkpt lat="44.98481" lon="6.50661">
        <ele>1624.6</ele>
        <time>2021-02-28T14:21:45Z</time>
      </trkpt>
      <trkpt lat="44.98481" lon="6.5066">
        <ele>1624.6</ele>
        <time>2021-02-28T14:21:46Z</time>
      </trkpt>
      <trkpt lat="44.9848" lon="6.5066">
        <ele>1624.4</ele>
        <time>2021-02-28T14:21:47Z</time>
      </trkpt>
      <trkpt lat="44.9848" lon="6.5066">
        <ele>1624.2</ele>
        <time>2021-02-28T14:21:48Z</time>
      </trkpt>
      <trkpt lat="44.98479" lon="6.5066">
        <ele>1624</ele>
        <time>2021-02-28T14:21:49Z</time>
      </trkpt>
      <trkpt lat="44.98479" lon="6.5066">
        <ele>1624.2</ele>
        <time>2021-02-28T14:21:50Z</time>
      </trkpt>
      <trkpt lat="44.98478" lon="6.5066">
        <ele>1624</ele>
        <time>2021-02-28T14:21:51Z</time>
      </trkpt>
      <trkpt lat="44.98478" lon="6.5066">
        <ele>1623.8</ele>
        <time>2021-02-28T14:21:52Z</time>
      </trkpt>
      <trkpt lat="44.98477" lon="6.5066">
        <ele>1623.4</ele>
        <time>2021-02-28T14:21:53Z</time>
      </trkpt>
      <trkpt lat="44.98477" lon="6.5066">
        <ele>1623.2</ele>
        <time>2021-02-28T14:21:54Z</time>
      </trkpt>
      <trkpt lat="44.98476" lon="6.5066">
        <ele>1623</ele>
        <time>2021-02-28T14:21:55Z</time>
      </trkpt>
      <trkpt lat="44.98476" lon="6.5066">
        <ele>1622.6</ele>
        <time>2021-02-28T14:21:56Z</time>
      </trkpt>
      <trkpt lat="44.98475" lon="6.5066">
        <ele>1622.2</ele>
        <time>2021-02-28T14:21:57Z</time>
      </trkpt>
      <trkpt lat="44.98475" lon="6.5066">
        <ele>1621.8</ele>
        <time>2021-02-28T14:21:58Z</time>
      </trkpt>
      <trkpt lat="44.98474" lon="6.5066">
        <ele>1621.8</ele>
        <time>2021-02-28T14:21:59Z</time>
      </trkpt>
      <trkpt lat="44.98474" lon="6.5066">
        <ele>1621.2</ele>
        <time>2021-02-28T14:22:00Z</time>
      </trkpt>
      <trkpt lat="44.98473" lon="6.5066">
        <ele>1621.4</ele>
        <time>2021-02-28T14:22:01Z</time>
      </trkpt>
      <trkpt lat="44.98473" lon="6.5066">
        <ele>1621</ele>
        <time>2021-02-28T14:22:02Z</time>
      </trkpt>
      <trkpt lat="44.98472" lon="6.5066">
        <ele>1621</ele>
        <time>2021-02-28T14:22:03Z</time>
      </trkpt>
      <trkpt lat="44.98472" lon="6.5066">
        <ele>1620</ele>
        <time>2021-02-28T14:22:04Z</time>
      </trkpt>
      <trkpt lat="44.98471" lon="6.50658">
        <ele>1619.4</ele>
        <time>2021-02-28T14:22:05Z</time>
      </trkpt>
      <trkpt lat="44.9847" lon="6.50657">
        <ele>1619</ele>
        <time>2021-02-28T14:22:06Z</time>
      </trkpt>
      <trkpt lat="44.9847" lon="6.50655">
        <ele>1618.6</ele>
        <time>2021-02-28T14:22:07Z</time>
      </trkpt>
      <trkpt lat="44.98469" lon="6.50653">
        <ele>1618.4</ele>
        <time>2021-02-28T14:22:08Z</time>
      </trkpt>
      <trkpt lat="44.98469" lon="6.50651">
        <ele>1618.2</ele>
        <time>2021-02-28T14:22:09Z</time>
      </trkpt>
      <trkpt lat="44.98468" lon="6.50649">
        <ele>1617.8</ele>
        <time>2021-02-28T14:22:10Z</time>
      </trkpt>
      <trkpt lat="44.98468" lon="6.50649">
        <ele>1617.8</ele>
        <time>2021-02-28T14:22:11Z</time>
      </trkpt>
      <trkpt lat="44.98468" lon="6.50649">
        <ele>1617.4</ele>
        <time>2021-02-28T14:22:12Z</time>
      </trkpt>
      <trkpt lat="44.98467" lon="6.50646">
        <ele>1617.6</ele>
        <time>2021-02-28T14:22:13Z</time>
      </trkpt>
      <trkpt lat="44.98467" lon="6.50646">
        <ele>1617.4</ele>
        <time>2021-02-28T14:22:14Z</time>
      </trkpt>
      <trkpt lat="44.98467" lon="6.5065">
        <ele>1617.4</ele>
        <time>2021-02-28T14:22:15Z</time>
      </trkpt>
      <trkpt lat="44.98467" lon="6.5065">
        <ele>1617</ele>
        <time>2021-02-28T14:22:16Z</time>
      </trkpt>
      <trkpt lat="44.98467" lon="6.50655">
        <ele>1617.2</ele>
        <time>2021-02-28T14:22:17Z</time>
      </trkpt>
      <trkpt lat="44.98467" lon="6.50655">
        <ele>1616.8</ele>
        <time>2021-02-28T14:22:18Z</time>
      </trkpt>
      <trkpt lat="44.98467" lon="6.50655">
        <ele>1616.8</ele>
        <time>2021-02-28T14:22:19Z</time>
      </trkpt>
      <trkpt lat="44.98466" lon="6.50657">
        <ele>1616.4</ele>
        <time>2021-02-28T14:22:20Z</time>
      </trkpt>
      <trkpt lat="44.98466" lon="6.50657">
        <ele>1616.2</ele>
        <time>2021-02-28T14:22:21Z</time>
      </trkpt>
      <trkpt lat="44.98466" lon="6.50657">
        <ele>1615.8</ele>
        <time>2021-02-28T14:22:22Z</time>
      </trkpt>
      <trkpt lat="44.98466" lon="6.50657">
        <ele>1615.8</ele>
        <time>2021-02-28T14:22:23Z</time>
      </trkpt>
      <trkpt lat="44.98465" lon="6.50657">
        <ele>1615.6</ele>
        <time>2021-02-28T14:22:24Z</time>
      </trkpt>
      <trkpt lat="44.98464" lon="6.50657">
        <ele>1615.4</ele>
        <time>2021-02-28T14:22:25Z</time>
      </trkpt>
      <trkpt lat="44.98463" lon="6.50657">
        <ele>1615.4</ele>
        <time>2021-02-28T14:22:26Z</time>
      </trkpt>
      <trkpt lat="44.98462" lon="6.50657">
        <ele>1615.2</ele>
        <time>2021-02-28T14:22:27Z</time>
      </trkpt>
      <trkpt lat="44.98461" lon="6.50657">
        <ele>1615.4</ele>
        <time>2021-02-28T14:22:28Z</time>
      </trkpt>
      <trkpt lat="44.98461" lon="6.50658">
        <ele>1615.2</ele>
        <time>2021-02-28T14:22:29Z</time>
      </trkpt>
      <trkpt lat="44.9846" lon="6.50658">
        <ele>1615.2</ele>
        <time>2021-02-28T14:22:30Z</time>
      </trkpt>
      <trkpt lat="44.9846" lon="6.50659">
        <ele>1615.4</ele>
        <time>2021-02-28T14:22:31Z</time>
      </trkpt>
      <trkpt lat="44.98459" lon="6.50659">
        <ele>1615.4</ele>
        <time>2021-02-28T14:22:32Z</time>
      </trkpt>
      <trkpt lat="44.98459" lon="6.50659">
        <ele>1615.6</ele>
        <time>2021-02-28T14:22:33Z</time>
      </trkpt>
      <trkpt lat="44.98458" lon="6.5066">
        <ele>1615.4</ele>
        <time>2021-02-28T14:22:34Z</time>
      </trkpt>
      <trkpt lat="44.98458" lon="6.5066">
        <ele>1615.4</ele>
        <time>2021-02-28T14:22:35Z</time>
      </trkpt>
      <trkpt lat="44.98457" lon="6.50661">
        <ele>1615.4</ele>
        <time>2021-02-28T14:22:36Z</time>
      </trkpt>
      <trkpt lat="44.98457" lon="6.50661">
        <ele>1615.4</ele>
        <time>2021-02-28T14:22:37Z</time>
      </trkpt>
      <trkpt lat="44.98457" lon="6.50661">
        <ele>1615.2</ele>
        <time>2021-02-28T14:22:38Z</time>
      </trkpt>
      <trkpt lat="44.98456" lon="6.50662">
        <ele>1615</ele>
        <time>2021-02-28T14:22:39Z</time>
      </trkpt>
      <trkpt lat="44.98456" lon="6.50662">
        <ele>1614.8</ele>
        <time>2021-02-28T14:22:40Z</time>
      </trkpt>
      <trkpt lat="44.98456" lon="6.50662">
        <ele>1614.6</ele>
        <time>2021-02-28T14:22:41Z</time>
      </trkpt>
      <trkpt lat="44.98456" lon="6.50662">
        <ele>1614.6</ele>
        <time>2021-02-28T14:22:42Z</time>
      </trkpt>
      <trkpt lat="44.98456" lon="6.50662">
        <ele>1614</ele>
        <time>2021-02-28T14:22:43Z</time>
      </trkpt>
      <trkpt lat="44.98456" lon="6.50662">
        <ele>1613.6</ele>
        <time>2021-02-28T14:22:44Z</time>
      </trkpt>
      <trkpt lat="44.98456" lon="6.50662">
        <ele>1613.2</ele>
        <time>2021-02-28T14:22:45Z</time>
      </trkpt>
      <trkpt lat="44.98456" lon="6.50662">
        <ele>1612.8</ele>
        <time>2021-02-28T14:22:46Z</time>
      </trkpt>
      <trkpt lat="44.98456" lon="6.50662">
        <ele>1612.8</ele>
        <time>2021-02-28T14:22:47Z</time>
      </trkpt>
      <trkpt lat="44.98456" lon="6.50662">
        <ele>1612.6</ele>
        <time>2021-02-28T14:22:48Z</time>
      </trkpt>
      <trkpt lat="44.98456" lon="6.50662">
        <ele>1612.6</ele>
        <time>2021-02-28T14:22:49Z</time>
      </trkpt>
      <trkpt lat="44.98456" lon="6.50662">
        <ele>1612.4</ele>
        <time>2021-02-28T14:22:50Z</time>
      </trkpt>
      <trkpt lat="44.98456" lon="6.50662">
        <ele>1612.6</ele>
        <time>2021-02-28T14:22:51Z</time>
      </trkpt>
      <trkpt lat="44.98456" lon="6.50662">
        <ele>1612.8</ele>
        <time>2021-02-28T14:22:52Z</time>
      </trkpt>
      <trkpt lat="44.98456" lon="6.50662">
        <ele>1612.8</ele>
        <time>2021-02-28T14:22:53Z</time>
      </trkpt>
      <trkpt lat="44.98456" lon="6.50662">
        <ele>1613</ele>
        <time>2021-02-28T14:22:54Z</time>
      </trkpt>
      <trkpt lat="44.98456" lon="6.50662">
        <ele>1613</ele>
        <time>2021-02-28T14:22:55Z</time>
      </trkpt>
      <trkpt lat="44.98456" lon="6.50662">
        <ele>1613.2</ele>
        <time>2021-02-28T14:22:56Z</time>
      </trkpt>
      <trkpt lat="44.98456" lon="6.50662">
        <ele>1613.4</ele>
        <time>2021-02-28T14:22:57Z</time>
      </trkpt>
      <trkpt lat="44.98456" lon="6.50662">
        <ele>1613.4</ele>
        <time>2021-02-28T14:22:58Z</time>
      </trkpt>
      <trkpt lat="44.98456" lon="6.50662">
        <ele>1613.6</ele>
        <time>2021-02-28T14:22:59Z</time>
      </trkpt>
      <trkpt lat="44.98456" lon="6.50662">
        <ele>1613.6</ele>
        <time>2021-02-28T14:23:00Z</time>
      </trkpt>
      <trkpt lat="44.98456" lon="6.50662">
        <ele>1613.8</ele>
        <time>2021-02-28T14:23:01Z</time>
      </trkpt>
      <trkpt lat="44.98456" lon="6.50662">
        <ele>1613.6</ele>
        <time>2021-02-28T14:23:02Z</time>
      </trkpt>
      <trkpt lat="44.98456" lon="6.50662">
        <ele>1613.4</ele>
        <time>2021-02-28T14:23:03Z</time>
      </trkpt>
      <trkpt lat="44.98456" lon="6.50662">
        <ele>1613.2</ele>
        <time>2021-02-28T14:23:04Z</time>
      </trkpt>
      <trkpt lat="44.98456" lon="6.50662">
        <ele>1613.2</ele>
        <time>2021-02-28T14:23:05Z</time>
      </trkpt>
      <trkpt lat="44.98456" lon="6.50662">
        <ele>1613.4</ele>
        <time>2021-02-28T14:23:06Z</time>
      </trkpt>
      <trkpt lat="44.98456" lon="6.50662">
        <ele>1613.6</ele>
        <time>2021-02-28T14:23:07Z</time>
      </trkpt>
      <trkpt lat="44.98456" lon="6.50662">
        <ele>1613.6</ele>
        <time>2021-02-28T14:23:08Z</time>
      </trkpt>
      <trkpt lat="44.98456" lon="6.50662">
        <ele>1613.8</ele>
        <time>2021-02-28T14:23:09Z</time>
      </trkpt>
      <trkpt lat="44.98456" lon="6.50662">
        <ele>1613.8</ele>
        <time>2021-02-28T14:23:10Z</time>
      </trkpt>
      <trkpt lat="44.98456" lon="6.50662">
        <ele>1614.2</ele>
        <time>2021-02-28T14:23:11Z</time>
      </trkpt>
      <trkpt lat="44.98456" lon="6.50662">
        <ele>1614.2</ele>
        <time>2021-02-28T14:23:12Z</time>
      </trkpt>
      <trkpt lat="44.98455" lon="6.50659">
        <ele>1613.8</ele>
        <time>2021-02-28T14:23:13Z</time>
      </trkpt>
      <trkpt lat="44.98455" lon="6.50659">
        <ele>1613.8</ele>
        <time>2021-02-28T14:23:14Z</time>
      </trkpt>
      <trkpt lat="44.98455" lon="6.50659">
        <ele>1613.6</ele>
        <time>2021-02-28T14:23:15Z</time>
      </trkpt>
      <trkpt lat="44.98455" lon="6.50659">
        <ele>1613.4</ele>
        <time>2021-02-28T14:23:16Z</time>
      </trkpt>
      <trkpt lat="44.98455" lon="6.50659">
        <ele>1613</ele>
        <time>2021-02-28T14:23:17Z</time>
      </trkpt>
      <trkpt lat="44.98455" lon="6.50659">
        <ele>1612.8</ele>
        <time>2021-02-28T14:23:18Z</time>
      </trkpt>
      <trkpt lat="44.98455" lon="6.50659">
        <ele>1612.8</ele>
        <time>2021-02-28T14:23:19Z</time>
      </trkpt>
      <trkpt lat="44.98455" lon="6.50659">
        <ele>1612.6</ele>
        <time>2021-02-28T14:23:20Z</time>
      </trkpt>
      <trkpt lat="44.98455" lon="6.50659">
        <ele>1612.8</ele>
        <time>2021-02-28T14:23:21Z</time>
      </trkpt>
      <trkpt lat="44.98455" lon="6.50659">
        <ele>1613</ele>
        <time>2021-02-28T14:23:22Z</time>
      </trkpt>
      <trkpt lat="44.98458" lon="6.50657">
        <ele>1613.2</ele>
        <time>2021-02-28T14:23:23Z</time>
      </trkpt>
      <trkpt lat="44.98458" lon="6.50657">
        <ele>1613.2</ele>
        <time>2021-02-28T14:23:24Z</time>
      </trkpt>
      <trkpt lat="44.98458" lon="6.50657">
        <ele>1613</ele>
        <time>2021-02-28T14:23:25Z</time>
      </trkpt>
      <trkpt lat="44.98458" lon="6.50657">
        <ele>1613.4</ele>
        <time>2021-02-28T14:23:26Z</time>
      </trkpt>
      <trkpt lat="44.98457" lon="6.50657">
        <ele>1613.4</ele>
        <time>2021-02-28T14:23:27Z</time>
      </trkpt>
      <trkpt lat="44.98457" lon="6.50657">
        <ele>1613.2</ele>
        <time>2021-02-28T14:23:28Z</time>
      </trkpt>
      <trkpt lat="44.98456" lon="6.50657">
        <ele>1613</ele>
        <time>2021-02-28T14:23:29Z</time>
      </trkpt>
      <trkpt lat="44.98455" lon="6.50657">
        <ele>1612.8</ele>
        <time>2021-02-28T14:23:30Z</time>
      </trkpt>
      <trkpt lat="44.98454" lon="6.50657">
        <ele>1612.6</ele>
        <time>2021-02-28T14:23:31Z</time>
      </trkpt>
      <trkpt lat="44.98453" lon="6.50657">
        <ele>1612.2</ele>
        <time>2021-02-28T14:23:32Z</time>
      </trkpt>
      <trkpt lat="44.98452" lon="6.50657">
        <ele>1611.8</ele>
        <time>2021-02-28T14:23:33Z</time>
      </trkpt>
      <trkpt lat="44.98452" lon="6.50657">
        <ele>1611.8</ele>
        <time>2021-02-28T14:23:34Z</time>
      </trkpt>
      <trkpt lat="44.98451" lon="6.50657">
        <ele>1611.2</ele>
        <time>2021-02-28T14:23:35Z</time>
      </trkpt>
      <trkpt lat="44.9845" lon="6.50657">
        <ele>1610.8</ele>
        <time>2021-02-28T14:23:36Z</time>
      </trkpt>
      <trkpt lat="44.98449" lon="6.50657">
        <ele>1610.6</ele>
        <time>2021-02-28T14:23:37Z</time>
      </trkpt>
      <trkpt lat="44.98448" lon="6.50657">
        <ele>1610.2</ele>
        <time>2021-02-28T14:23:38Z</time>
      </trkpt>
      <trkpt lat="44.98447" lon="6.50656">
        <ele>1609.8</ele>
        <time>2021-02-28T14:23:39Z</time>
      </trkpt>
      <trkpt lat="44.98445" lon="6.50655">
        <ele>1609.4</ele>
        <time>2021-02-28T14:23:40Z</time>
      </trkpt>
      <trkpt lat="44.98444" lon="6.50655">
        <ele>1609.6</ele>
        <time>2021-02-28T14:23:41Z</time>
      </trkpt>
      <trkpt lat="44.98442" lon="6.50654">
        <ele>1609</ele>
        <time>2021-02-28T14:23:42Z</time>
      </trkpt>
      <trkpt lat="44.98441" lon="6.50653">
        <ele>1608.6</ele>
        <time>2021-02-28T14:23:43Z</time>
      </trkpt>
      <trkpt lat="44.98439" lon="6.50652">
        <ele>1608.4</ele>
        <time>2021-02-28T14:23:44Z</time>
      </trkpt>
      <trkpt lat="44.98438" lon="6.50652">
        <ele>1608</ele>
        <time>2021-02-28T14:23:45Z</time>
      </trkpt>
      <trkpt lat="44.98438" lon="6.50647">
        <ele>1607.6</ele>
        <time>2021-02-28T14:23:46Z</time>
      </trkpt>
      <trkpt lat="44.98439" lon="6.50647">
        <ele>1607.2</ele>
        <time>2021-02-28T14:23:47Z</time>
      </trkpt>
      <trkpt lat="44.98439" lon="6.50646">
        <ele>1607</ele>
        <time>2021-02-28T14:23:48Z</time>
      </trkpt>
      <trkpt lat="44.9844" lon="6.50646">
        <ele>1606.4</ele>
        <time>2021-02-28T14:23:49Z</time>
      </trkpt>
      <trkpt lat="44.98442" lon="6.50643">
        <ele>1606</ele>
        <time>2021-02-28T14:23:50Z</time>
      </trkpt>
      <trkpt lat="44.98442" lon="6.50643">
        <ele>1605.8</ele>
        <time>2021-02-28T14:23:51Z</time>
      </trkpt>
      <trkpt lat="44.98442" lon="6.50643">
        <ele>1605.6</ele>
        <time>2021-02-28T14:23:52Z</time>
      </trkpt>
      <trkpt lat="44.98442" lon="6.50643">
        <ele>1605.2</ele>
        <time>2021-02-28T14:23:53Z</time>
      </trkpt>
      <trkpt lat="44.98446" lon="6.50633">
        <ele>1605.2</ele>
        <time>2021-02-28T14:23:54Z</time>
      </trkpt>
      <trkpt lat="44.98446" lon="6.50632">
        <ele>1604.8</ele>
        <time>2021-02-28T14:23:55Z</time>
      </trkpt>
      <trkpt lat="44.98447" lon="6.50631">
        <ele>1604.6</ele>
        <time>2021-02-28T14:23:56Z</time>
      </trkpt>
      <trkpt lat="44.98447" lon="6.5063">
        <ele>1604.4</ele>
        <time>2021-02-28T14:23:57Z</time>
      </trkpt>
      <trkpt lat="44.98448" lon="6.50626">
        <ele>1604.2</ele>
        <time>2021-02-28T14:23:58Z</time>
      </trkpt>
      <trkpt lat="44.98448" lon="6.50626">
        <ele>1604.2</ele>
        <time>2021-02-28T14:23:59Z</time>
      </trkpt>
      <trkpt lat="44.98448" lon="6.50623">
        <ele>1604.2</ele>
        <time>2021-02-28T14:24:00Z</time>
      </trkpt>
      <trkpt lat="44.98448" lon="6.50623">
        <ele>1604.2</ele>
        <time>2021-02-28T14:24:01Z</time>
      </trkpt>
      <trkpt lat="44.98449" lon="6.5062">
        <ele>1604</ele>
        <time>2021-02-28T14:24:02Z</time>
      </trkpt>
      <trkpt lat="44.98449" lon="6.5062">
        <ele>1604</ele>
        <time>2021-02-28T14:24:03Z</time>
      </trkpt>
      <trkpt lat="44.98449" lon="6.5062">
        <ele>1604</ele>
        <time>2021-02-28T14:24:04Z</time>
      </trkpt>
      <trkpt lat="44.98449" lon="6.5062">
        <ele>1603.8</ele>
        <time>2021-02-28T14:24:05Z</time>
      </trkpt>
      <trkpt lat="44.98449" lon="6.5062">
        <ele>1603.6</ele>
        <time>2021-02-28T14:24:06Z</time>
      </trkpt>
      <trkpt lat="44.98449" lon="6.5062">
        <ele>1603.2</ele>
        <time>2021-02-28T14:24:07Z</time>
      </trkpt>
      <trkpt lat="44.98449" lon="6.5062">
        <ele>1603</ele>
        <time>2021-02-28T14:24:08Z</time>
      </trkpt>
      <trkpt lat="44.98449" lon="6.5062">
        <ele>1602.8</ele>
        <time>2021-02-28T14:24:09Z</time>
      </trkpt>
      <trkpt lat="44.98449" lon="6.5062">
        <ele>1602.6</ele>
        <time>2021-02-28T14:24:10Z</time>
      </trkpt>
      <trkpt lat="44.98449" lon="6.5062">
        <ele>1602.6</ele>
        <time>2021-02-28T14:24:11Z</time>
      </trkpt>
      <trkpt lat="44.98449" lon="6.5062">
        <ele>1602.4</ele>
        <time>2021-02-28T14:24:12Z</time>
      </trkpt>
      <trkpt lat="44.98449" lon="6.5062">
        <ele>1602.4</ele>
        <time>2021-02-28T14:24:13Z</time>
      </trkpt>
      <trkpt lat="44.98449" lon="6.5062">
        <ele>1602.2</ele>
        <time>2021-02-28T14:24:14Z</time>
      </trkpt>
      <trkpt lat="44.98449" lon="6.5062">
        <ele>1602.2</ele>
        <time>2021-02-28T14:24:15Z</time>
      </trkpt>
      <trkpt lat="44.98449" lon="6.5062">
        <ele>1602.2</ele>
        <time>2021-02-28T14:24:16Z</time>
      </trkpt>
      <trkpt lat="44.98449" lon="6.5062">
        <ele>1602.2</ele>
        <time>2021-02-28T14:24:17Z</time>
      </trkpt>
      <trkpt lat="44.98449" lon="6.5062">
        <ele>1602</ele>
        <time>2021-02-28T14:24:18Z</time>
      </trkpt>
      <trkpt lat="44.98449" lon="6.5062">
        <ele>1602</ele>
        <time>2021-02-28T14:24:19Z</time>
      </trkpt>
      <trkpt lat="44.98449" lon="6.5062">
        <ele>1602</ele>
        <time>2021-02-28T14:24:20Z</time>
      </trkpt>
      <trkpt lat="44.98447" lon="6.50619">
        <ele>1601.8</ele>
        <time>2021-02-28T14:24:21Z</time>
      </trkpt>
      <trkpt lat="44.98447" lon="6.50619">
        <ele>1602.2</ele>
        <time>2021-02-28T14:24:22Z</time>
      </trkpt>
      <trkpt lat="44.98446" lon="6.50616">
        <ele>1602.2</ele>
        <time>2021-02-28T14:24:23Z</time>
      </trkpt>
      <trkpt lat="44.98446" lon="6.50616">
        <ele>1601.8</ele>
        <time>2021-02-28T14:24:24Z</time>
      </trkpt>
      <trkpt lat="44.98443" lon="6.50614">
        <ele>1601.6</ele>
        <time>2021-02-28T14:24:25Z</time>
      </trkpt>
      <trkpt lat="44.98443" lon="6.50614">
        <ele>1601.8</ele>
        <time>2021-02-28T14:24:26Z</time>
      </trkpt>
      <trkpt lat="44.98441" lon="6.50612">
        <ele>1601.6</ele>
        <time>2021-02-28T14:24:27Z</time>
      </trkpt>
      <trkpt lat="44.98441" lon="6.50612">
        <ele>1601</ele>
        <time>2021-02-28T14:24:28Z</time>
      </trkpt>
      <trkpt lat="44.98441" lon="6.50612">
        <ele>1600.2</ele>
        <time>2021-02-28T14:24:29Z</time>
      </trkpt>
      <trkpt lat="44.98441" lon="6.50612">
        <ele>1599.8</ele>
        <time>2021-02-28T14:24:30Z</time>
      </trkpt>
      <trkpt lat="44.98439" lon="6.5061">
        <ele>1599.6</ele>
        <time>2021-02-28T14:24:31Z</time>
      </trkpt>
      <trkpt lat="44.98438" lon="6.50609">
        <ele>1599.6</ele>
        <time>2021-02-28T14:24:32Z</time>
      </trkpt>
      <trkpt lat="44.98437" lon="6.50608">
        <ele>1599.2</ele>
        <time>2021-02-28T14:24:33Z</time>
      </trkpt>
      <trkpt lat="44.98436" lon="6.50606">
        <ele>1598.8</ele>
        <time>2021-02-28T14:24:34Z</time>
      </trkpt>
      <trkpt lat="44.98434" lon="6.50605">
        <ele>1598.4</ele>
        <time>2021-02-28T14:24:35Z</time>
      </trkpt>
      <trkpt lat="44.98431" lon="6.50605">
        <ele>1598</ele>
        <time>2021-02-28T14:24:36Z</time>
      </trkpt>
      <trkpt lat="44.98431" lon="6.50605">
        <ele>1597.8</ele>
        <time>2021-02-28T14:24:37Z</time>
      </trkpt>
      <trkpt lat="44.98428" lon="6.50605">
        <ele>1597.6</ele>
        <time>2021-02-28T14:24:38Z</time>
      </trkpt>
      <trkpt lat="44.98428" lon="6.50605">
        <ele>1597.2</ele>
        <time>2021-02-28T14:24:39Z</time>
      </trkpt>
      <trkpt lat="44.98426" lon="6.50604">
        <ele>1596.8</ele>
        <time>2021-02-28T14:24:40Z</time>
      </trkpt>
      <trkpt lat="44.98426" lon="6.50604">
        <ele>1596.4</ele>
        <time>2021-02-28T14:24:41Z</time>
      </trkpt>
      <trkpt lat="44.98422" lon="6.50604">
        <ele>1596.2</ele>
        <time>2021-02-28T14:24:42Z</time>
      </trkpt>
      <trkpt lat="44.98421" lon="6.50603">
        <ele>1595.8</ele>
        <time>2021-02-28T14:24:43Z</time>
      </trkpt>
      <trkpt lat="44.98421" lon="6.50603">
        <ele>1595.4</ele>
        <time>2021-02-28T14:24:44Z</time>
      </trkpt>
      <trkpt lat="44.98418" lon="6.506">
        <ele>1595</ele>
        <time>2021-02-28T14:24:45Z</time>
      </trkpt>
      <trkpt lat="44.98418" lon="6.506">
        <ele>1594.8</ele>
        <time>2021-02-28T14:24:46Z</time>
      </trkpt>
      <trkpt lat="44.98416" lon="6.50598">
        <ele>1594.6</ele>
        <time>2021-02-28T14:24:47Z</time>
      </trkpt>
      <trkpt lat="44.98416" lon="6.50598">
        <ele>1594</ele>
        <time>2021-02-28T14:24:48Z</time>
      </trkpt>
      <trkpt lat="44.98414" lon="6.50596">
        <ele>1593.8</ele>
        <time>2021-02-28T14:24:49Z</time>
      </trkpt>
      <trkpt lat="44.98414" lon="6.50596">
        <ele>1593.4</ele>
        <time>2021-02-28T14:24:50Z</time>
      </trkpt>
      <trkpt lat="44.98411" lon="6.50594">
        <ele>1593</ele>
        <time>2021-02-28T14:24:51Z</time>
      </trkpt>
      <trkpt lat="44.98411" lon="6.50594">
        <ele>1592.8</ele>
        <time>2021-02-28T14:24:52Z</time>
      </trkpt>
      <trkpt lat="44.98409" lon="6.5059">
        <ele>1592.6</ele>
        <time>2021-02-28T14:24:53Z</time>
      </trkpt>
      <trkpt lat="44.98409" lon="6.5059">
        <ele>1592.4</ele>
        <time>2021-02-28T14:24:54Z</time>
      </trkpt>
      <trkpt lat="44.98407" lon="6.50587">
        <ele>1591.8</ele>
        <time>2021-02-28T14:24:55Z</time>
      </trkpt>
      <trkpt lat="44.98407" lon="6.50587">
        <ele>1591.4</ele>
        <time>2021-02-28T14:24:56Z</time>
      </trkpt>
      <trkpt lat="44.98407" lon="6.50583">
        <ele>1591.2</ele>
        <time>2021-02-28T14:24:57Z</time>
      </trkpt>
      <trkpt lat="44.98407" lon="6.50583">
        <ele>1591</ele>
        <time>2021-02-28T14:24:58Z</time>
      </trkpt>
      <trkpt lat="44.98408" lon="6.50578">
        <ele>1590.8</ele>
        <time>2021-02-28T14:24:59Z</time>
      </trkpt>
      <trkpt lat="44.98408" lon="6.50578">
        <ele>1590.8</ele>
        <time>2021-02-28T14:25:00Z</time>
      </trkpt>
      <trkpt lat="44.98408" lon="6.50573">
        <ele>1590.8</ele>
        <time>2021-02-28T14:25:01Z</time>
      </trkpt>
      <trkpt lat="44.98408" lon="6.50573">
        <ele>1590.4</ele>
        <time>2021-02-28T14:25:02Z</time>
      </trkpt>
      <trkpt lat="44.98409" lon="6.5057">
        <ele>1590.4</ele>
        <time>2021-02-28T14:25:03Z</time>
      </trkpt>
      <trkpt lat="44.98409" lon="6.5057">
        <ele>1590.2</ele>
        <time>2021-02-28T14:25:04Z</time>
      </trkpt>
      <trkpt lat="44.98409" lon="6.50565">
        <ele>1589.8</ele>
        <time>2021-02-28T14:25:05Z</time>
      </trkpt>
      <trkpt lat="44.98407" lon="6.50563">
        <ele>1589.6</ele>
        <time>2021-02-28T14:25:06Z</time>
      </trkpt>
      <trkpt lat="44.98406" lon="6.50561">
        <ele>1588.8</ele>
        <time>2021-02-28T14:25:07Z</time>
      </trkpt>
      <trkpt lat="44.98404" lon="6.50559">
        <ele>1588.4</ele>
        <time>2021-02-28T14:25:08Z</time>
      </trkpt>
      <trkpt lat="44.98402" lon="6.50558">
        <ele>1588</ele>
        <time>2021-02-28T14:25:09Z</time>
      </trkpt>
      <trkpt lat="44.984" lon="6.50557">
        <ele>1587.4</ele>
        <time>2021-02-28T14:25:10Z</time>
      </trkpt>
      <trkpt lat="44.98398" lon="6.50555">
        <ele>1586.6</ele>
        <time>2021-02-28T14:25:11Z</time>
      </trkpt>
      <trkpt lat="44.98397" lon="6.50554">
        <ele>1586</ele>
        <time>2021-02-28T14:25:12Z</time>
      </trkpt>
      <trkpt lat="44.98395" lon="6.50553">
        <ele>1585.8</ele>
        <time>2021-02-28T14:25:13Z</time>
      </trkpt>
      <trkpt lat="44.98393" lon="6.50552">
        <ele>1585.2</ele>
        <time>2021-02-28T14:25:14Z</time>
      </trkpt>
      <trkpt lat="44.98393" lon="6.50552">
        <ele>1584.8</ele>
        <time>2021-02-28T14:25:15Z</time>
      </trkpt>
      <trkpt lat="44.98389" lon="6.50552">
        <ele>1584.2</ele>
        <time>2021-02-28T14:25:16Z</time>
      </trkpt>
      <trkpt lat="44.98389" lon="6.50552">
        <ele>1583.8</ele>
        <time>2021-02-28T14:25:17Z</time>
      </trkpt>
      <trkpt lat="44.98386" lon="6.50552">
        <ele>1583.4</ele>
        <time>2021-02-28T14:25:18Z</time>
      </trkpt>
      <trkpt lat="44.98386" lon="6.50552">
        <ele>1583.2</ele>
        <time>2021-02-28T14:25:19Z</time>
      </trkpt>
      <trkpt lat="44.98383" lon="6.50553">
        <ele>1582.6</ele>
        <time>2021-02-28T14:25:20Z</time>
      </trkpt>
      <trkpt lat="44.98383" lon="6.50553">
        <ele>1582.2</ele>
        <time>2021-02-28T14:25:21Z</time>
      </trkpt>
      <trkpt lat="44.9838" lon="6.50552">
        <ele>1581.8</ele>
        <time>2021-02-28T14:25:22Z</time>
      </trkpt>
      <trkpt lat="44.9838" lon="6.50552">
        <ele>1581.8</ele>
        <time>2021-02-28T14:25:23Z</time>
      </trkpt>
      <trkpt lat="44.98377" lon="6.5055">
        <ele>1581.8</ele>
        <time>2021-02-28T14:25:24Z</time>
      </trkpt>
      <trkpt lat="44.98377" lon="6.5055">
        <ele>1581.2</ele>
        <time>2021-02-28T14:25:25Z</time>
      </trkpt>
      <trkpt lat="44.98375" lon="6.50549">
        <ele>1580.8</ele>
        <time>2021-02-28T14:25:26Z</time>
      </trkpt>
      <trkpt lat="44.98375" lon="6.50549">
        <ele>1580.2</ele>
        <time>2021-02-28T14:25:27Z</time>
      </trkpt>
      <trkpt lat="44.98371" lon="6.50548">
        <ele>1580</ele>
        <time>2021-02-28T14:25:28Z</time>
      </trkpt>
      <trkpt lat="44.98371" lon="6.50548">
        <ele>1579.4</ele>
        <time>2021-02-28T14:25:29Z</time>
      </trkpt>
      <trkpt lat="44.98369" lon="6.50548">
        <ele>1579</ele>
        <time>2021-02-28T14:25:30Z</time>
      </trkpt>
      <trkpt lat="44.98369" lon="6.50548">
        <ele>1578.6</ele>
        <time>2021-02-28T14:25:31Z</time>
      </trkpt>
      <trkpt lat="44.98366" lon="6.50547">
        <ele>1577.8</ele>
        <time>2021-02-28T14:25:32Z</time>
      </trkpt>
      <trkpt lat="44.98366" lon="6.50547">
        <ele>1577.4</ele>
        <time>2021-02-28T14:25:33Z</time>
      </trkpt>
      <trkpt lat="44.98363" lon="6.50547">
        <ele>1577.2</ele>
        <time>2021-02-28T14:25:34Z</time>
      </trkpt>
      <trkpt lat="44.98363" lon="6.50547">
        <ele>1577</ele>
        <time>2021-02-28T14:25:35Z</time>
      </trkpt>
      <trkpt lat="44.98361" lon="6.50545">
        <ele>1576.6</ele>
        <time>2021-02-28T14:25:36Z</time>
      </trkpt>
      <trkpt lat="44.98361" lon="6.50545">
        <ele>1576.4</ele>
        <time>2021-02-28T14:25:37Z</time>
      </trkpt>
      <trkpt lat="44.98359" lon="6.50543">
        <ele>1576</ele>
        <time>2021-02-28T14:25:38Z</time>
      </trkpt>
      <trkpt lat="44.98359" lon="6.50543">
        <ele>1575.8</ele>
        <time>2021-02-28T14:25:39Z</time>
      </trkpt>
      <trkpt lat="44.98357" lon="6.5054">
        <ele>1575.6</ele>
        <time>2021-02-28T14:25:40Z</time>
      </trkpt>
      <trkpt lat="44.98357" lon="6.5054">
        <ele>1575.2</ele>
        <time>2021-02-28T14:25:41Z</time>
      </trkpt>
      <trkpt lat="44.98355" lon="6.50535">
        <ele>1575</ele>
        <time>2021-02-28T14:25:42Z</time>
      </trkpt>
      <trkpt lat="44.98355" lon="6.50535">
        <ele>1574.4</ele>
        <time>2021-02-28T14:25:43Z</time>
      </trkpt>
      <trkpt lat="44.98354" lon="6.50531">
        <ele>1574</ele>
        <time>2021-02-28T14:25:44Z</time>
      </trkpt>
      <trkpt lat="44.98354" lon="6.50531">
        <ele>1574</ele>
        <time>2021-02-28T14:25:45Z</time>
      </trkpt>
      <trkpt lat="44.98353" lon="6.50526">
        <ele>1573.6</ele>
        <time>2021-02-28T14:25:46Z</time>
      </trkpt>
      <trkpt lat="44.98353" lon="6.50526">
        <ele>1573.6</ele>
        <time>2021-02-28T14:25:47Z</time>
      </trkpt>
      <trkpt lat="44.98352" lon="6.50523">
        <ele>1573</ele>
        <time>2021-02-28T14:25:48Z</time>
      </trkpt>
      <trkpt lat="44.98352" lon="6.50523">
        <ele>1572.8</ele>
        <time>2021-02-28T14:25:49Z</time>
      </trkpt>
      <trkpt lat="44.98352" lon="6.50523">
        <ele>1572.4</ele>
        <time>2021-02-28T14:25:50Z</time>
      </trkpt>
      <trkpt lat="44.98352" lon="6.50523">
        <ele>1572</ele>
        <time>2021-02-28T14:25:51Z</time>
      </trkpt>
      <trkpt lat="44.98352" lon="6.50523">
        <ele>1572</ele>
        <time>2021-02-28T14:25:52Z</time>
      </trkpt>
      <trkpt lat="44.98352" lon="6.50523">
        <ele>1571.8</ele>
        <time>2021-02-28T14:25:53Z</time>
      </trkpt>
      <trkpt lat="44.98352" lon="6.50523">
        <ele>1571.8</ele>
        <time>2021-02-28T14:25:54Z</time>
      </trkpt>
      <trkpt lat="44.98352" lon="6.50523">
        <ele>1571.6</ele>
        <time>2021-02-28T14:25:55Z</time>
      </trkpt>
      <trkpt lat="44.98352" lon="6.50523">
        <ele>1571.4</ele>
        <time>2021-02-28T14:25:56Z</time>
      </trkpt>
      <trkpt lat="44.98352" lon="6.50523">
        <ele>1571.4</ele>
        <time>2021-02-28T14:25:57Z</time>
      </trkpt>
      <trkpt lat="44.98352" lon="6.50523">
        <ele>1571.4</ele>
        <time>2021-02-28T14:25:58Z</time>
      </trkpt>
      <trkpt lat="44.98352" lon="6.50523">
        <ele>1571.2</ele>
        <time>2021-02-28T14:25:59Z</time>
      </trkpt>
      <trkpt lat="44.98352" lon="6.50523">
        <ele>1571.2</ele>
        <time>2021-02-28T14:26:00Z</time>
      </trkpt>
      <trkpt lat="44.98352" lon="6.5052">
        <ele>1571</ele>
        <time>2021-02-28T14:26:01Z</time>
      </trkpt>
      <trkpt lat="44.98352" lon="6.5052">
        <ele>1571.2</ele>
        <time>2021-02-28T14:26:02Z</time>
      </trkpt>
      <trkpt lat="44.98352" lon="6.5052">
        <ele>1571.4</ele>
        <time>2021-02-28T14:26:03Z</time>
      </trkpt>
      <trkpt lat="44.98352" lon="6.50516">
        <ele>1571.2</ele>
        <time>2021-02-28T14:26:04Z</time>
      </trkpt>
      <trkpt lat="44.98352" lon="6.50516">
        <ele>1571</ele>
        <time>2021-02-28T14:26:05Z</time>
      </trkpt>
      <trkpt lat="44.98351" lon="6.50514">
        <ele>1570.8</ele>
        <time>2021-02-28T14:26:06Z</time>
      </trkpt>
      <trkpt lat="44.98351" lon="6.50514">
        <ele>1570.6</ele>
        <time>2021-02-28T14:26:07Z</time>
      </trkpt>
      <trkpt lat="44.98349" lon="6.50512">
        <ele>1570.4</ele>
        <time>2021-02-28T14:26:08Z</time>
      </trkpt>
      <trkpt lat="44.98349" lon="6.50512">
        <ele>1570.4</ele>
        <time>2021-02-28T14:26:09Z</time>
      </trkpt>
      <trkpt lat="44.98349" lon="6.50512">
        <ele>1570</ele>
        <time>2021-02-28T14:26:10Z</time>
      </trkpt>
      <trkpt lat="44.98349" lon="6.50512">
        <ele>1569.8</ele>
        <time>2021-02-28T14:26:11Z</time>
      </trkpt>
      <trkpt lat="44.98348" lon="6.50511">
        <ele>1569.8</ele>
        <time>2021-02-28T14:26:12Z</time>
      </trkpt>
      <trkpt lat="44.98348" lon="6.50511">
        <ele>1569.6</ele>
        <time>2021-02-28T14:26:13Z</time>
      </trkpt>
      <trkpt lat="44.98348" lon="6.50511">
        <ele>1569.4</ele>
        <time>2021-02-28T14:26:14Z</time>
      </trkpt>
      <trkpt lat="44.98348" lon="6.50511">
        <ele>1569.6</ele>
        <time>2021-02-28T14:26:15Z</time>
      </trkpt>
      <trkpt lat="44.98348" lon="6.50511">
        <ele>1569.4</ele>
        <time>2021-02-28T14:26:16Z</time>
      </trkpt>
      <trkpt lat="44.98348" lon="6.50511">
        <ele>1569.2</ele>
        <time>2021-02-28T14:26:17Z</time>
      </trkpt>
      <trkpt lat="44.98348" lon="6.50511">
        <ele>1569</ele>
        <time>2021-02-28T14:26:18Z</time>
      </trkpt>
      <trkpt lat="44.98348" lon="6.50511">
        <ele>1569</ele>
        <time>2021-02-28T14:26:19Z</time>
      </trkpt>
      <trkpt lat="44.98348" lon="6.50511">
        <ele>1569.2</ele>
        <time>2021-02-28T14:26:20Z</time>
      </trkpt>
      <trkpt lat="44.98348" lon="6.50511">
        <ele>1569.2</ele>
        <time>2021-02-28T14:26:21Z</time>
      </trkpt>
      <trkpt lat="44.98348" lon="6.50511">
        <ele>1569</ele>
        <time>2021-02-28T14:26:22Z</time>
      </trkpt>
      <trkpt lat="44.98348" lon="6.50511">
        <ele>1568.8</ele>
        <time>2021-02-28T14:26:23Z</time>
      </trkpt>
      <trkpt lat="44.98348" lon="6.50511">
        <ele>1568.8</ele>
        <time>2021-02-28T14:26:24Z</time>
      </trkpt>
      <trkpt lat="44.98348" lon="6.50511">
        <ele>1568.8</ele>
        <time>2021-02-28T14:26:25Z</time>
      </trkpt>
      <trkpt lat="44.98348" lon="6.50511">
        <ele>1568.8</ele>
        <time>2021-02-28T14:26:26Z</time>
      </trkpt>
      <trkpt lat="44.98348" lon="6.50511">
        <ele>1569</ele>
        <time>2021-02-28T14:26:27Z</time>
      </trkpt>
      <trkpt lat="44.98348" lon="6.50511">
        <ele>1568.8</ele>
        <time>2021-02-28T14:26:28Z</time>
      </trkpt>
      <trkpt lat="44.98348" lon="6.50511">
        <ele>1568.8</ele>
        <time>2021-02-28T14:26:29Z</time>
      </trkpt>
      <trkpt lat="44.98348" lon="6.50511">
        <ele>1568.8</ele>
        <time>2021-02-28T14:26:30Z</time>
      </trkpt>
      <trkpt lat="44.98348" lon="6.50511">
        <ele>1568.6</ele>
        <time>2021-02-28T14:26:31Z</time>
      </trkpt>
      <trkpt lat="44.98348" lon="6.50511">
        <ele>1568.8</ele>
        <time>2021-02-28T14:26:32Z</time>
      </trkpt>
      <trkpt lat="44.98348" lon="6.50511">
        <ele>1569</ele>
        <time>2021-02-28T14:26:33Z</time>
      </trkpt>
      <trkpt lat="44.98348" lon="6.50511">
        <ele>1568.8</ele>
        <time>2021-02-28T14:26:34Z</time>
      </trkpt>
      <trkpt lat="44.98348" lon="6.50511">
        <ele>1568.8</ele>
        <time>2021-02-28T14:26:35Z</time>
      </trkpt>
      <trkpt lat="44.98348" lon="6.50511">
        <ele>1569</ele>
        <time>2021-02-28T14:26:36Z</time>
      </trkpt>
      <trkpt lat="44.98348" lon="6.50511">
        <ele>1568.8</ele>
        <time>2021-02-28T14:26:37Z</time>
      </trkpt>
      <trkpt lat="44.98348" lon="6.50511">
        <ele>1568.8</ele>
        <time>2021-02-28T14:26:38Z</time>
      </trkpt>
      <trkpt lat="44.98348" lon="6.50511">
        <ele>1568.6</ele>
        <time>2021-02-28T14:26:39Z</time>
      </trkpt>
      <trkpt lat="44.98348" lon="6.50511">
        <ele>1568.6</ele>
        <time>2021-02-28T14:26:40Z</time>
      </trkpt>
      <trkpt lat="44.98348" lon="6.50511">
        <ele>1569</ele>
        <time>2021-02-28T14:26:41Z</time>
      </trkpt>
      <trkpt lat="44.98347" lon="6.50507">
        <ele>1568.6</ele>
        <time>2021-02-28T14:26:42Z</time>
      </trkpt>
      <trkpt lat="44.98347" lon="6.50507">
        <ele>1568.6</ele>
        <time>2021-02-28T14:26:43Z</time>
      </trkpt>
      <trkpt lat="44.98346" lon="6.50506">
        <ele>1568.4</ele>
        <time>2021-02-28T14:26:44Z</time>
      </trkpt>
      <trkpt lat="44.98346" lon="6.50506">
        <ele>1568.2</ele>
        <time>2021-02-28T14:26:45Z</time>
      </trkpt>
      <trkpt lat="44.98346" lon="6.50506">
        <ele>1568</ele>
        <time>2021-02-28T14:26:46Z</time>
      </trkpt>
      <trkpt lat="44.98344" lon="6.50504">
        <ele>1567.8</ele>
        <time>2021-02-28T14:26:47Z</time>
      </trkpt>
      <trkpt lat="44.98344" lon="6.50504">
        <ele>1567.6</ele>
        <time>2021-02-28T14:26:48Z</time>
      </trkpt>
      <trkpt lat="44.98344" lon="6.50504">
        <ele>1567.4</ele>
        <time>2021-02-28T14:26:49Z</time>
      </trkpt>
      <trkpt lat="44.98344" lon="6.50504">
        <ele>1567.6</ele>
        <time>2021-02-28T14:26:50Z</time>
      </trkpt>
      <trkpt lat="44.98344" lon="6.50504">
        <ele>1567.4</ele>
        <time>2021-02-28T14:26:51Z</time>
      </trkpt>
      <trkpt lat="44.98344" lon="6.50504">
        <ele>1567.2</ele>
        <time>2021-02-28T14:26:52Z</time>
      </trkpt>
      <trkpt lat="44.98344" lon="6.50504">
        <ele>1567</ele>
        <time>2021-02-28T14:26:53Z</time>
      </trkpt>
      <trkpt lat="44.98344" lon="6.50504">
        <ele>1567.2</ele>
        <time>2021-02-28T14:26:54Z</time>
      </trkpt>
      <trkpt lat="44.98344" lon="6.50504">
        <ele>1567.2</ele>
        <time>2021-02-28T14:26:55Z</time>
      </trkpt>
      <trkpt lat="44.98344" lon="6.50504">
        <ele>1567.2</ele>
        <time>2021-02-28T14:26:56Z</time>
      </trkpt>
      <trkpt lat="44.98344" lon="6.50504">
        <ele>1567</ele>
        <time>2021-02-28T14:26:57Z</time>
      </trkpt>
      <trkpt lat="44.98344" lon="6.50504">
        <ele>1567</ele>
        <time>2021-02-28T14:26:58Z</time>
      </trkpt>
      <trkpt lat="44.98344" lon="6.50504">
        <ele>1567</ele>
        <time>2021-02-28T14:26:59Z</time>
      </trkpt>
      <trkpt lat="44.98342" lon="6.50504">
        <ele>1566.6</ele>
        <time>2021-02-28T14:27:00Z</time>
      </trkpt>
      <trkpt lat="44.98342" lon="6.50504">
        <ele>1566.4</ele>
        <time>2021-02-28T14:27:01Z</time>
      </trkpt>
      <trkpt lat="44.98342" lon="6.50504">
        <ele>1566.4</ele>
        <time>2021-02-28T14:27:02Z</time>
      </trkpt>
      <trkpt lat="44.9834" lon="6.50503">
        <ele>1566.4</ele>
        <time>2021-02-28T14:27:03Z</time>
      </trkpt>
      <trkpt lat="44.9834" lon="6.50503">
        <ele>1566.2</ele>
        <time>2021-02-28T14:27:04Z</time>
      </trkpt>
      <trkpt lat="44.98338" lon="6.50502">
        <ele>1566</ele>
        <time>2021-02-28T14:27:05Z</time>
      </trkpt>
      <trkpt lat="44.98338" lon="6.50502">
        <ele>1565.4</ele>
        <time>2021-02-28T14:27:06Z</time>
      </trkpt>
      <trkpt lat="44.98338" lon="6.50502">
        <ele>1565.4</ele>
        <time>2021-02-28T14:27:07Z</time>
      </trkpt>
      <trkpt lat="44.98336" lon="6.505">
        <ele>1565</ele>
        <time>2021-02-28T14:27:08Z</time>
      </trkpt>
      <trkpt lat="44.98336" lon="6.505">
        <ele>1564.8</ele>
        <time>2021-02-28T14:27:09Z</time>
      </trkpt>
      <trkpt lat="44.98334" lon="6.505">
        <ele>1564.6</ele>
        <time>2021-02-28T14:27:10Z</time>
      </trkpt>
      <trkpt lat="44.98334" lon="6.505">
        <ele>1564.2</ele>
        <time>2021-02-28T14:27:11Z</time>
      </trkpt>
      <trkpt lat="44.98334" lon="6.505">
        <ele>1564</ele>
        <time>2021-02-28T14:27:12Z</time>
      </trkpt>
      <trkpt lat="44.98334" lon="6.505">
        <ele>1563.6</ele>
        <time>2021-02-28T14:27:13Z</time>
      </trkpt>
      <trkpt lat="44.98332" lon="6.50501">
        <ele>1563.2</ele>
        <time>2021-02-28T14:27:14Z</time>
      </trkpt>
      <trkpt lat="44.9833" lon="6.50501">
        <ele>1563.2</ele>
        <time>2021-02-28T14:27:15Z</time>
      </trkpt>
      <trkpt lat="44.98329" lon="6.50502">
        <ele>1563</ele>
        <time>2021-02-28T14:27:16Z</time>
      </trkpt>
      <trkpt lat="44.98327" lon="6.50502">
        <ele>1563</ele>
        <time>2021-02-28T14:27:17Z</time>
      </trkpt>
      <trkpt lat="44.98325" lon="6.50503">
        <ele>1562.6</ele>
        <time>2021-02-28T14:27:18Z</time>
      </trkpt>
      <trkpt lat="44.98324" lon="6.50503">
        <ele>1562.4</ele>
        <time>2021-02-28T14:27:19Z</time>
      </trkpt>
      <trkpt lat="44.98322" lon="6.50504">
        <ele>1562.2</ele>
        <time>2021-02-28T14:27:20Z</time>
      </trkpt>
      <trkpt lat="44.9832" lon="6.50505">
        <ele>1561.8</ele>
        <time>2021-02-28T14:27:21Z</time>
      </trkpt>
      <trkpt lat="44.9832" lon="6.50505">
        <ele>1561.6</ele>
        <time>2021-02-28T14:27:22Z</time>
      </trkpt>
      <trkpt lat="44.98317" lon="6.50506">
        <ele>1561.2</ele>
        <time>2021-02-28T14:27:23Z</time>
      </trkpt>
      <trkpt lat="44.98317" lon="6.50506">
        <ele>1561</ele>
        <time>2021-02-28T14:27:24Z</time>
      </trkpt>
      <trkpt lat="44.98315" lon="6.50508">
        <ele>1561</ele>
        <time>2021-02-28T14:27:25Z</time>
      </trkpt>
      <trkpt lat="44.98315" lon="6.50508">
        <ele>1560.8</ele>
        <time>2021-02-28T14:27:26Z</time>
      </trkpt>
      <trkpt lat="44.98315" lon="6.50508">
        <ele>1560.4</ele>
        <time>2021-02-28T14:27:27Z</time>
      </trkpt>
      <trkpt lat="44.98315" lon="6.50508">
        <ele>1560.2</ele>
        <time>2021-02-28T14:27:28Z</time>
      </trkpt>
      <trkpt lat="44.98313" lon="6.50509">
        <ele>1560</ele>
        <time>2021-02-28T14:27:29Z</time>
      </trkpt>
      <trkpt lat="44.98312" lon="6.5051">
        <ele>1559.4</ele>
        <time>2021-02-28T14:27:30Z</time>
      </trkpt>
      <trkpt lat="44.9831" lon="6.50511">
        <ele>1559.4</ele>
        <time>2021-02-28T14:27:31Z</time>
      </trkpt>
      <trkpt lat="44.98309" lon="6.50512">
        <ele>1558.8</ele>
        <time>2021-02-28T14:27:32Z</time>
      </trkpt>
      <trkpt lat="44.98307" lon="6.50513">
        <ele>1558.8</ele>
        <time>2021-02-28T14:27:33Z</time>
      </trkpt>
      <trkpt lat="44.98305" lon="6.50513">
        <ele>1558.8</ele>
        <time>2021-02-28T14:27:34Z</time>
      </trkpt>
      <trkpt lat="44.98304" lon="6.50514">
        <ele>1558.4</ele>
        <time>2021-02-28T14:27:35Z</time>
      </trkpt>
      <trkpt lat="44.98301" lon="6.50517">
        <ele>1558</ele>
        <time>2021-02-28T14:27:36Z</time>
      </trkpt>
      <trkpt lat="44.98301" lon="6.50517">
        <ele>1557.8</ele>
        <time>2021-02-28T14:27:37Z</time>
      </trkpt>
      <trkpt lat="44.98299" lon="6.50518">
        <ele>1557.6</ele>
        <time>2021-02-28T14:27:38Z</time>
      </trkpt>
      <trkpt lat="44.98299" lon="6.50518">
        <ele>1557.4</ele>
        <time>2021-02-28T14:27:39Z</time>
      </trkpt>
      <trkpt lat="44.98299" lon="6.50518">
        <ele>1557.2</ele>
        <time>2021-02-28T14:27:40Z</time>
      </trkpt>
      <trkpt lat="44.98299" lon="6.50518">
        <ele>1557.2</ele>
        <time>2021-02-28T14:27:41Z</time>
      </trkpt>
      <trkpt lat="44.98298" lon="6.50518">
        <ele>1557</ele>
        <time>2021-02-28T14:27:42Z</time>
      </trkpt>
      <trkpt lat="44.98297" lon="6.50519">
        <ele>1556.8</ele>
        <time>2021-02-28T14:27:43Z</time>
      </trkpt>
      <trkpt lat="44.98296" lon="6.50519">
        <ele>1556.8</ele>
        <time>2021-02-28T14:27:44Z</time>
      </trkpt>
      <trkpt lat="44.98295" lon="6.50519">
        <ele>1556.6</ele>
        <time>2021-02-28T14:27:45Z</time>
      </trkpt>
      <trkpt lat="44.98293" lon="6.5052">
        <ele>1556.4</ele>
        <time>2021-02-28T14:27:46Z</time>
      </trkpt>
      <trkpt lat="44.98292" lon="6.5052">
        <ele>1556.2</ele>
        <time>2021-02-28T14:27:47Z</time>
      </trkpt>
      <trkpt lat="44.98291" lon="6.50521">
        <ele>1556</ele>
        <time>2021-02-28T14:27:48Z</time>
      </trkpt>
      <trkpt lat="44.9829" lon="6.50521">
        <ele>1556</ele>
        <time>2021-02-28T14:27:49Z</time>
      </trkpt>
      <trkpt lat="44.98289" lon="6.50521">
        <ele>1555.8</ele>
        <time>2021-02-28T14:27:50Z</time>
      </trkpt>
      <trkpt lat="44.98287" lon="6.50521">
        <ele>1555.6</ele>
        <time>2021-02-28T14:27:51Z</time>
      </trkpt>
      <trkpt lat="44.98286" lon="6.50521">
        <ele>1555.2</ele>
        <time>2021-02-28T14:27:52Z</time>
      </trkpt>
      <trkpt lat="44.98285" lon="6.50521">
        <ele>1555</ele>
        <time>2021-02-28T14:27:53Z</time>
      </trkpt>
      <trkpt lat="44.98283" lon="6.50521">
        <ele>1554.6</ele>
        <time>2021-02-28T14:27:54Z</time>
      </trkpt>
      <trkpt lat="44.98282" lon="6.50521">
        <ele>1554.4</ele>
        <time>2021-02-28T14:27:55Z</time>
      </trkpt>
      <trkpt lat="44.9828" lon="6.50521">
        <ele>1554</ele>
        <time>2021-02-28T14:27:56Z</time>
      </trkpt>
      <trkpt lat="44.98279" lon="6.50521">
        <ele>1553.8</ele>
        <time>2021-02-28T14:27:57Z</time>
      </trkpt>
      <trkpt lat="44.98277" lon="6.50522">
        <ele>1553.6</ele>
        <time>2021-02-28T14:27:58Z</time>
      </trkpt>
      <trkpt lat="44.98276" lon="6.50522">
        <ele>1553.4</ele>
        <time>2021-02-28T14:27:59Z</time>
      </trkpt>
      <trkpt lat="44.98274" lon="6.50522">
        <ele>1553.4</ele>
        <time>2021-02-28T14:28:00Z</time>
      </trkpt>
      <trkpt lat="44.98273" lon="6.50522">
        <ele>1553.4</ele>
        <time>2021-02-28T14:28:01Z</time>
      </trkpt>
      <trkpt lat="44.98271" lon="6.50522">
        <ele>1553</ele>
        <time>2021-02-28T14:28:02Z</time>
      </trkpt>
      <trkpt lat="44.9827" lon="6.50523">
        <ele>1552.8</ele>
        <time>2021-02-28T14:28:03Z</time>
      </trkpt>
      <trkpt lat="44.98268" lon="6.50523">
        <ele>1552.4</ele>
        <time>2021-02-28T14:28:04Z</time>
      </trkpt>
      <trkpt lat="44.98267" lon="6.50523">
        <ele>1551.8</ele>
        <time>2021-02-28T14:28:05Z</time>
      </trkpt>
      <trkpt lat="44.98265" lon="6.50523">
        <ele>1551.6</ele>
        <time>2021-02-28T14:28:06Z</time>
      </trkpt>
      <trkpt lat="44.98264" lon="6.50524">
        <ele>1551.4</ele>
        <time>2021-02-28T14:28:07Z</time>
      </trkpt>
      <trkpt lat="44.98262" lon="6.50524">
        <ele>1551</ele>
        <time>2021-02-28T14:28:08Z</time>
      </trkpt>
      <trkpt lat="44.98261" lon="6.50525">
        <ele>1550.6</ele>
        <time>2021-02-28T14:28:09Z</time>
      </trkpt>
      <trkpt lat="44.9826" lon="6.50526">
        <ele>1550</ele>
        <time>2021-02-28T14:28:10Z</time>
      </trkpt>
      <trkpt lat="44.98258" lon="6.50526">
        <ele>1549.8</ele>
        <time>2021-02-28T14:28:11Z</time>
      </trkpt>
      <trkpt lat="44.98257" lon="6.50527">
        <ele>1549.8</ele>
        <time>2021-02-28T14:28:12Z</time>
      </trkpt>
      <trkpt lat="44.98256" lon="6.50528">
        <ele>1549.4</ele>
        <time>2021-02-28T14:28:13Z</time>
      </trkpt>
      <trkpt lat="44.98255" lon="6.50529">
        <ele>1549.2</ele>
        <time>2021-02-28T14:28:14Z</time>
      </trkpt>
      <trkpt lat="44.98253" lon="6.5053">
        <ele>1549.2</ele>
        <time>2021-02-28T14:28:15Z</time>
      </trkpt>
      <trkpt lat="44.98251" lon="6.50532">
        <ele>1549.2</ele>
        <time>2021-02-28T14:28:16Z</time>
      </trkpt>
      <trkpt lat="44.9825" lon="6.50533">
        <ele>1548.8</ele>
        <time>2021-02-28T14:28:17Z</time>
      </trkpt>
      <trkpt lat="44.98248" lon="6.50535">
        <ele>1548.8</ele>
        <time>2021-02-28T14:28:18Z</time>
      </trkpt>
      <trkpt lat="44.98247" lon="6.50536">
        <ele>1548.6</ele>
        <time>2021-02-28T14:28:19Z</time>
      </trkpt>
      <trkpt lat="44.98245" lon="6.50538">
        <ele>1548.4</ele>
        <time>2021-02-28T14:28:20Z</time>
      </trkpt>
      <trkpt lat="44.98243" lon="6.50539">
        <ele>1548.2</ele>
        <time>2021-02-28T14:28:21Z</time>
      </trkpt>
      <trkpt lat="44.98243" lon="6.50539">
        <ele>1547.8</ele>
        <time>2021-02-28T14:28:22Z</time>
      </trkpt>
      <trkpt lat="44.98243" lon="6.50539">
        <ele>1547.4</ele>
        <time>2021-02-28T14:28:23Z</time>
      </trkpt>
      <trkpt lat="44.98243" lon="6.50539">
        <ele>1547.2</ele>
        <time>2021-02-28T14:28:24Z</time>
      </trkpt>
      <trkpt lat="44.98241" lon="6.5054">
        <ele>1547.2</ele>
        <time>2021-02-28T14:28:25Z</time>
      </trkpt>
      <trkpt lat="44.9824" lon="6.5054">
        <ele>1547</ele>
        <time>2021-02-28T14:28:26Z</time>
      </trkpt>
      <trkpt lat="44.98238" lon="6.5054">
        <ele>1547.2</ele>
        <time>2021-02-28T14:28:27Z</time>
      </trkpt>
      <trkpt lat="44.98237" lon="6.50541">
        <ele>1546.8</ele>
        <time>2021-02-28T14:28:28Z</time>
      </trkpt>
      <trkpt lat="44.98236" lon="6.50541">
        <ele>1546.6</ele>
        <time>2021-02-28T14:28:29Z</time>
      </trkpt>
      <trkpt lat="44.98234" lon="6.50542">
        <ele>1546</ele>
        <time>2021-02-28T14:28:30Z</time>
      </trkpt>
      <trkpt lat="44.98233" lon="6.50542">
        <ele>1545.6</ele>
        <time>2021-02-28T14:28:31Z</time>
      </trkpt>
      <trkpt lat="44.98232" lon="6.50542">
        <ele>1545.4</ele>
        <time>2021-02-28T14:28:32Z</time>
      </trkpt>
      <trkpt lat="44.9823" lon="6.50542">
        <ele>1545</ele>
        <time>2021-02-28T14:28:33Z</time>
      </trkpt>
      <trkpt lat="44.98229" lon="6.50543">
        <ele>1544.6</ele>
        <time>2021-02-28T14:28:34Z</time>
      </trkpt>
      <trkpt lat="44.98228" lon="6.50543">
        <ele>1544.4</ele>
        <time>2021-02-28T14:28:35Z</time>
      </trkpt>
      <trkpt lat="44.98226" lon="6.50543">
        <ele>1544.4</ele>
        <time>2021-02-28T14:28:36Z</time>
      </trkpt>
      <trkpt lat="44.98225" lon="6.50543">
        <ele>1544</ele>
        <time>2021-02-28T14:28:37Z</time>
      </trkpt>
      <trkpt lat="44.98224" lon="6.50544">
        <ele>1543.4</ele>
        <time>2021-02-28T14:28:38Z</time>
      </trkpt>
      <trkpt lat="44.98222" lon="6.50543">
        <ele>1543</ele>
        <time>2021-02-28T14:28:39Z</time>
      </trkpt>
      <trkpt lat="44.98221" lon="6.50543">
        <ele>1542.8</ele>
        <time>2021-02-28T14:28:40Z</time>
      </trkpt>
      <trkpt lat="44.9822" lon="6.50542">
        <ele>1542.4</ele>
        <time>2021-02-28T14:28:41Z</time>
      </trkpt>
      <trkpt lat="44.98219" lon="6.50542">
        <ele>1542.2</ele>
        <time>2021-02-28T14:28:42Z</time>
      </trkpt>
      <trkpt lat="44.98217" lon="6.50542">
        <ele>1541.8</ele>
        <time>2021-02-28T14:28:43Z</time>
      </trkpt>
      <trkpt lat="44.98216" lon="6.50541">
        <ele>1541.6</ele>
        <time>2021-02-28T14:28:44Z</time>
      </trkpt>
      <trkpt lat="44.98215" lon="6.50541">
        <ele>1541.4</ele>
        <time>2021-02-28T14:28:45Z</time>
      </trkpt>
      <trkpt lat="44.98214" lon="6.50541">
        <ele>1541</ele>
        <time>2021-02-28T14:28:46Z</time>
      </trkpt>
      <trkpt lat="44.98213" lon="6.5054">
        <ele>1541</ele>
        <time>2021-02-28T14:28:47Z</time>
      </trkpt>
      <trkpt lat="44.98212" lon="6.5054">
        <ele>1540.8</ele>
        <time>2021-02-28T14:28:48Z</time>
      </trkpt>
      <trkpt lat="44.98211" lon="6.5054">
        <ele>1540.2</ele>
        <time>2021-02-28T14:28:49Z</time>
      </trkpt>
      <trkpt lat="44.9821" lon="6.5054">
        <ele>1539.8</ele>
        <time>2021-02-28T14:28:50Z</time>
      </trkpt>
      <trkpt lat="44.98209" lon="6.50539">
        <ele>1539.4</ele>
        <time>2021-02-28T14:28:51Z</time>
      </trkpt>
      <trkpt lat="44.98209" lon="6.50539">
        <ele>1538.8</ele>
        <time>2021-02-28T14:28:52Z</time>
      </trkpt>
      <trkpt lat="44.98208" lon="6.50539">
        <ele>1538.6</ele>
        <time>2021-02-28T14:28:53Z</time>
      </trkpt>
      <trkpt lat="44.98207" lon="6.50539">
        <ele>1538.6</ele>
        <time>2021-02-28T14:28:54Z</time>
      </trkpt>
      <trkpt lat="44.98206" lon="6.50539">
        <ele>1538.2</ele>
        <time>2021-02-28T14:28:55Z</time>
      </trkpt>
      <trkpt lat="44.98205" lon="6.50538">
        <ele>1537.8</ele>
        <time>2021-02-28T14:28:56Z</time>
      </trkpt>
      <trkpt lat="44.98204" lon="6.50538">
        <ele>1537.6</ele>
        <time>2021-02-28T14:28:57Z</time>
      </trkpt>
      <trkpt lat="44.98203" lon="6.50538">
        <ele>1537.4</ele>
        <time>2021-02-28T14:28:58Z</time>
      </trkpt>
      <trkpt lat="44.98202" lon="6.50539">
        <ele>1537.2</ele>
        <time>2021-02-28T14:28:59Z</time>
      </trkpt>
      <trkpt lat="44.982" lon="6.50539">
        <ele>1537</ele>
        <time>2021-02-28T14:29:00Z</time>
      </trkpt>
      <trkpt lat="44.98199" lon="6.50539">
        <ele>1537</ele>
        <time>2021-02-28T14:29:01Z</time>
      </trkpt>
      <trkpt lat="44.98197" lon="6.5054">
        <ele>1536.8</ele>
        <time>2021-02-28T14:29:02Z</time>
      </trkpt>
      <trkpt lat="44.98196" lon="6.5054">
        <ele>1536.8</ele>
        <time>2021-02-28T14:29:03Z</time>
      </trkpt>
      <trkpt lat="44.98194" lon="6.50541">
        <ele>1536.4</ele>
        <time>2021-02-28T14:29:04Z</time>
      </trkpt>
      <trkpt lat="44.98192" lon="6.50542">
        <ele>1536</ele>
        <time>2021-02-28T14:29:05Z</time>
      </trkpt>
      <trkpt lat="44.9819" lon="6.50543">
        <ele>1535.8</ele>
        <time>2021-02-28T14:29:06Z</time>
      </trkpt>
      <trkpt lat="44.98189" lon="6.50544">
        <ele>1535.6</ele>
        <time>2021-02-28T14:29:07Z</time>
      </trkpt>
      <trkpt lat="44.98187" lon="6.50545">
        <ele>1535.4</ele>
        <time>2021-02-28T14:29:08Z</time>
      </trkpt>
      <trkpt lat="44.98185" lon="6.50546">
        <ele>1535.2</ele>
        <time>2021-02-28T14:29:09Z</time>
      </trkpt>
      <trkpt lat="44.98183" lon="6.50547">
        <ele>1535</ele>
        <time>2021-02-28T14:29:10Z</time>
      </trkpt>
      <trkpt lat="44.98183" lon="6.50547">
        <ele>1534.6</ele>
        <time>2021-02-28T14:29:11Z</time>
      </trkpt>
      <trkpt lat="44.98182" lon="6.50548">
        <ele>1534.4</ele>
        <time>2021-02-28T14:29:12Z</time>
      </trkpt>
      <trkpt lat="44.98182" lon="6.50548">
        <ele>1534.2</ele>
        <time>2021-02-28T14:29:13Z</time>
      </trkpt>
      <trkpt lat="44.98179" lon="6.5055">
        <ele>1534</ele>
        <time>2021-02-28T14:29:14Z</time>
      </trkpt>
      <trkpt lat="44.98179" lon="6.5055">
        <ele>1534</ele>
        <time>2021-02-28T14:29:15Z</time>
      </trkpt>
      <trkpt lat="44.98179" lon="6.5055">
        <ele>1534</ele>
        <time>2021-02-28T14:29:16Z</time>
      </trkpt>
      <trkpt lat="44.98179" lon="6.5055">
        <ele>1533.6</ele>
        <time>2021-02-28T14:29:17Z</time>
      </trkpt>
      <trkpt lat="44.98178" lon="6.50552">
        <ele>1533.4</ele>
        <time>2021-02-28T14:29:18Z</time>
      </trkpt>
      <trkpt lat="44.98176" lon="6.50554">
        <ele>1533</ele>
        <time>2021-02-28T14:29:19Z</time>
      </trkpt>
      <trkpt lat="44.98175" lon="6.50555">
        <ele>1533</ele>
        <time>2021-02-28T14:29:20Z</time>
      </trkpt>
      <trkpt lat="44.98173" lon="6.50557">
        <ele>1532.8</ele>
        <time>2021-02-28T14:29:21Z</time>
      </trkpt>
      <trkpt lat="44.98172" lon="6.50559">
        <ele>1532.6</ele>
        <time>2021-02-28T14:29:22Z</time>
      </trkpt>
      <trkpt lat="44.98171" lon="6.5056">
        <ele>1532.6</ele>
        <time>2021-02-28T14:29:23Z</time>
      </trkpt>
      <trkpt lat="44.9817" lon="6.50561">
        <ele>1532.6</ele>
        <time>2021-02-28T14:29:24Z</time>
      </trkpt>
      <trkpt lat="44.98169" lon="6.50562">
        <ele>1532.2</ele>
        <time>2021-02-28T14:29:25Z</time>
      </trkpt>
      <trkpt lat="44.98166" lon="6.50564">
        <ele>1532</ele>
        <time>2021-02-28T14:29:26Z</time>
      </trkpt>
      <trkpt lat="44.98166" lon="6.50564">
        <ele>1531.8</ele>
        <time>2021-02-28T14:29:27Z</time>
      </trkpt>
      <trkpt lat="44.98164" lon="6.50565">
        <ele>1531.6</ele>
        <time>2021-02-28T14:29:28Z</time>
      </trkpt>
      <trkpt lat="44.98164" lon="6.50565">
        <ele>1531.2</ele>
        <time>2021-02-28T14:29:29Z</time>
      </trkpt>
      <trkpt lat="44.98162" lon="6.50566">
        <ele>1531.2</ele>
        <time>2021-02-28T14:29:30Z</time>
      </trkpt>
      <trkpt lat="44.98162" lon="6.50566">
        <ele>1531</ele>
        <time>2021-02-28T14:29:31Z</time>
      </trkpt>
      <trkpt lat="44.9816" lon="6.50566">
        <ele>1531</ele>
        <time>2021-02-28T14:29:32Z</time>
      </trkpt>
      <trkpt lat="44.9816" lon="6.50566">
        <ele>1530.8</ele>
        <time>2021-02-28T14:29:33Z</time>
      </trkpt>
      <trkpt lat="44.98158" lon="6.50565">
        <ele>1530.6</ele>
        <time>2021-02-28T14:29:34Z</time>
      </trkpt>
      <trkpt lat="44.98158" lon="6.50565">
        <ele>1530.6</ele>
        <time>2021-02-28T14:29:35Z</time>
      </trkpt>
      <trkpt lat="44.98156" lon="6.50565">
        <ele>1530.2</ele>
        <time>2021-02-28T14:29:36Z</time>
      </trkpt>
      <trkpt lat="44.98156" lon="6.50565">
        <ele>1529.8</ele>
        <time>2021-02-28T14:29:37Z</time>
      </trkpt>
      <trkpt lat="44.98153" lon="6.50565">
        <ele>1529.6</ele>
        <time>2021-02-28T14:29:38Z</time>
      </trkpt>
      <trkpt lat="44.98153" lon="6.50565">
        <ele>1529.4</ele>
        <time>2021-02-28T14:29:39Z</time>
      </trkpt>
      <trkpt lat="44.98152" lon="6.50564">
        <ele>1529.2</ele>
        <time>2021-02-28T14:29:40Z</time>
      </trkpt>
      <trkpt lat="44.98152" lon="6.50564">
        <ele>1528.8</ele>
        <time>2021-02-28T14:29:41Z</time>
      </trkpt>
      <trkpt lat="44.98149" lon="6.50563">
        <ele>1528.4</ele>
        <time>2021-02-28T14:29:42Z</time>
      </trkpt>
      <trkpt lat="44.98149" lon="6.50563">
        <ele>1528.4</ele>
        <time>2021-02-28T14:29:43Z</time>
      </trkpt>
      <trkpt lat="44.98146" lon="6.50562">
        <ele>1528.4</ele>
        <time>2021-02-28T14:29:44Z</time>
      </trkpt>
      <trkpt lat="44.98146" lon="6.50562">
        <ele>1528</ele>
        <time>2021-02-28T14:29:45Z</time>
      </trkpt>
      <trkpt lat="44.98144" lon="6.50561">
        <ele>1527.2</ele>
        <time>2021-02-28T14:29:46Z</time>
      </trkpt>
      <trkpt lat="44.98144" lon="6.50561">
        <ele>1526.8</ele>
        <time>2021-02-28T14:29:47Z</time>
      </trkpt>
      <trkpt lat="44.98141" lon="6.50561">
        <ele>1526.6</ele>
        <time>2021-02-28T14:29:48Z</time>
      </trkpt>
      <trkpt lat="44.98141" lon="6.50561">
        <ele>1526.4</ele>
        <time>2021-02-28T14:29:49Z</time>
      </trkpt>
      <trkpt lat="44.98138" lon="6.50561">
        <ele>1526</ele>
        <time>2021-02-28T14:29:50Z</time>
      </trkpt>
      <trkpt lat="44.98138" lon="6.50561">
        <ele>1525.2</ele>
        <time>2021-02-28T14:29:51Z</time>
      </trkpt>
      <trkpt lat="44.98138" lon="6.50561">
        <ele>1525.2</ele>
        <time>2021-02-28T14:29:52Z</time>
      </trkpt>
      <trkpt lat="44.98138" lon="6.50561">
        <ele>1525</ele>
        <time>2021-02-28T14:29:53Z</time>
      </trkpt>
      <trkpt lat="44.98137" lon="6.50561">
        <ele>1524.4</ele>
        <time>2021-02-28T14:29:54Z</time>
      </trkpt>
      <trkpt lat="44.98135" lon="6.5056">
        <ele>1524</ele>
        <time>2021-02-28T14:29:55Z</time>
      </trkpt>
      <trkpt lat="44.98134" lon="6.5056">
        <ele>1523.8</ele>
        <time>2021-02-28T14:29:56Z</time>
      </trkpt>
      <trkpt lat="44.98133" lon="6.5056">
        <ele>1523.4</ele>
        <time>2021-02-28T14:29:57Z</time>
      </trkpt>
      <trkpt lat="44.98132" lon="6.5056">
        <ele>1523.2</ele>
        <time>2021-02-28T14:29:58Z</time>
      </trkpt>
      <trkpt lat="44.98131" lon="6.5056">
        <ele>1523</ele>
        <time>2021-02-28T14:29:59Z</time>
      </trkpt>
      <trkpt lat="44.98129" lon="6.5056">
        <ele>1522.4</ele>
        <time>2021-02-28T14:30:00Z</time>
      </trkpt>
      <trkpt lat="44.98128" lon="6.5056">
        <ele>1522.4</ele>
        <time>2021-02-28T14:30:01Z</time>
      </trkpt>
      <trkpt lat="44.98127" lon="6.50561">
        <ele>1522.2</ele>
        <time>2021-02-28T14:30:02Z</time>
      </trkpt>
      <trkpt lat="44.98126" lon="6.50561">
        <ele>1522</ele>
        <time>2021-02-28T14:30:03Z</time>
      </trkpt>
      <trkpt lat="44.98125" lon="6.50562">
        <ele>1521.8</ele>
        <time>2021-02-28T14:30:04Z</time>
      </trkpt>
      <trkpt lat="44.98124" lon="6.50562">
        <ele>1521.6</ele>
        <time>2021-02-28T14:30:05Z</time>
      </trkpt>
      <trkpt lat="44.98124" lon="6.50563">
        <ele>1521.4</ele>
        <time>2021-02-28T14:30:06Z</time>
      </trkpt>
      <trkpt lat="44.98123" lon="6.50564">
        <ele>1521</ele>
        <time>2021-02-28T14:30:07Z</time>
      </trkpt>
      <trkpt lat="44.98122" lon="6.50564">
        <ele>1520.6</ele>
        <time>2021-02-28T14:30:08Z</time>
      </trkpt>
      <trkpt lat="44.98121" lon="6.50565">
        <ele>1520.4</ele>
        <time>2021-02-28T14:30:09Z</time>
      </trkpt>
      <trkpt lat="44.9812" lon="6.50565">
        <ele>1520.2</ele>
        <time>2021-02-28T14:30:10Z</time>
      </trkpt>
      <trkpt lat="44.98119" lon="6.50566">
        <ele>1519.8</ele>
        <time>2021-02-28T14:30:11Z</time>
      </trkpt>
      <trkpt lat="44.98117" lon="6.50566">
        <ele>1519.4</ele>
        <time>2021-02-28T14:30:12Z</time>
      </trkpt>
      <trkpt lat="44.98115" lon="6.50567">
        <ele>1519</ele>
        <time>2021-02-28T14:30:13Z</time>
      </trkpt>
      <trkpt lat="44.98113" lon="6.50568">
        <ele>1518.8</ele>
        <time>2021-02-28T14:30:14Z</time>
      </trkpt>
      <trkpt lat="44.98111" lon="6.50568">
        <ele>1518.4</ele>
        <time>2021-02-28T14:30:15Z</time>
      </trkpt>
      <trkpt lat="44.98109" lon="6.50569">
        <ele>1518.4</ele>
        <time>2021-02-28T14:30:16Z</time>
      </trkpt>
      <trkpt lat="44.98107" lon="6.50569">
        <ele>1518.2</ele>
        <time>2021-02-28T14:30:17Z</time>
      </trkpt>
      <trkpt lat="44.98104" lon="6.5057">
        <ele>1518</ele>
        <time>2021-02-28T14:30:18Z</time>
      </trkpt>
      <trkpt lat="44.98104" lon="6.5057">
        <ele>1517.6</ele>
        <time>2021-02-28T14:30:19Z</time>
      </trkpt>
      <trkpt lat="44.981" lon="6.5057">
        <ele>1517.4</ele>
        <time>2021-02-28T14:30:20Z</time>
      </trkpt>
      <trkpt lat="44.981" lon="6.5057">
        <ele>1517.2</ele>
        <time>2021-02-28T14:30:21Z</time>
      </trkpt>
      <trkpt lat="44.98098" lon="6.5057">
        <ele>1516.8</ele>
        <time>2021-02-28T14:30:22Z</time>
      </trkpt>
      <trkpt lat="44.98098" lon="6.5057">
        <ele>1516.8</ele>
        <time>2021-02-28T14:30:23Z</time>
      </trkpt>
      <trkpt lat="44.98096" lon="6.50571">
        <ele>1516.4</ele>
        <time>2021-02-28T14:30:24Z</time>
      </trkpt>
      <trkpt lat="44.98096" lon="6.50571">
        <ele>1516.6</ele>
        <time>2021-02-28T14:30:25Z</time>
      </trkpt>
      <trkpt lat="44.98093" lon="6.50572">
        <ele>1516.2</ele>
        <time>2021-02-28T14:30:26Z</time>
      </trkpt>
      <trkpt lat="44.98093" lon="6.50572">
        <ele>1516.2</ele>
        <time>2021-02-28T14:30:27Z</time>
      </trkpt>
      <trkpt lat="44.9809" lon="6.50573">
        <ele>1515.6</ele>
        <time>2021-02-28T14:30:28Z</time>
      </trkpt>
      <trkpt lat="44.9809" lon="6.50573">
        <ele>1515.2</ele>
        <time>2021-02-28T14:30:29Z</time>
      </trkpt>
      <trkpt lat="44.9809" lon="6.50573">
        <ele>1514.8</ele>
        <time>2021-02-28T14:30:30Z</time>
      </trkpt>
      <trkpt lat="44.98086" lon="6.50576">
        <ele>1514.6</ele>
        <time>2021-02-28T14:30:31Z</time>
      </trkpt>
      <trkpt lat="44.98085" lon="6.50578">
        <ele>1514.2</ele>
        <time>2021-02-28T14:30:32Z</time>
      </trkpt>
      <trkpt lat="44.98085" lon="6.50579">
        <ele>1514.2</ele>
        <time>2021-02-28T14:30:33Z</time>
      </trkpt>
      <trkpt lat="44.98084" lon="6.5058">
        <ele>1513.8</ele>
        <time>2021-02-28T14:30:34Z</time>
      </trkpt>
      <trkpt lat="44.98082" lon="6.50583">
        <ele>1513.4</ele>
        <time>2021-02-28T14:30:35Z</time>
      </trkpt>
      <trkpt lat="44.98082" lon="6.50583">
        <ele>1513.2</ele>
        <time>2021-02-28T14:30:36Z</time>
      </trkpt>
      <trkpt lat="44.9808" lon="6.50585">
        <ele>1513</ele>
        <time>2021-02-28T14:30:37Z</time>
      </trkpt>
      <trkpt lat="44.9808" lon="6.50585">
        <ele>1512.8</ele>
        <time>2021-02-28T14:30:38Z</time>
      </trkpt>
      <trkpt lat="44.98077" lon="6.50587">
        <ele>1512.6</ele>
        <time>2021-02-28T14:30:39Z</time>
      </trkpt>
      <trkpt lat="44.98077" lon="6.50587">
        <ele>1512.2</ele>
        <time>2021-02-28T14:30:40Z</time>
      </trkpt>
      <trkpt lat="44.98075" lon="6.50589">
        <ele>1512</ele>
        <time>2021-02-28T14:30:41Z</time>
      </trkpt>
      <trkpt lat="44.98075" lon="6.50589">
        <ele>1511.8</ele>
        <time>2021-02-28T14:30:42Z</time>
      </trkpt>
      <trkpt lat="44.98073" lon="6.50591">
        <ele>1511.6</ele>
        <time>2021-02-28T14:30:43Z</time>
      </trkpt>
      <trkpt lat="44.98073" lon="6.50591">
        <ele>1511.4</ele>
        <time>2021-02-28T14:30:44Z</time>
      </trkpt>
      <trkpt lat="44.98071" lon="6.50593">
        <ele>1511.2</ele>
        <time>2021-02-28T14:30:45Z</time>
      </trkpt>
      <trkpt lat="44.98071" lon="6.50593">
        <ele>1511</ele>
        <time>2021-02-28T14:30:46Z</time>
      </trkpt>
      <trkpt lat="44.98071" lon="6.50593">
        <ele>1510.6</ele>
        <time>2021-02-28T14:30:47Z</time>
      </trkpt>
      <trkpt lat="44.98071" lon="6.50593">
        <ele>1510.2</ele>
        <time>2021-02-28T14:30:48Z</time>
      </trkpt>
      <trkpt lat="44.98069" lon="6.50592">
        <ele>1510</ele>
        <time>2021-02-28T14:30:49Z</time>
      </trkpt>
      <trkpt lat="44.98069" lon="6.50592">
        <ele>1509.8</ele>
        <time>2021-02-28T14:30:50Z</time>
      </trkpt>
      <trkpt lat="44.98067" lon="6.50594">
        <ele>1509.6</ele>
        <time>2021-02-28T14:30:51Z</time>
      </trkpt>
      <trkpt lat="44.98067" lon="6.50594">
        <ele>1509.4</ele>
        <time>2021-02-28T14:30:52Z</time>
      </trkpt>
      <trkpt lat="44.98065" lon="6.50594">
        <ele>1509</ele>
        <time>2021-02-28T14:30:53Z</time>
      </trkpt>
      <trkpt lat="44.98065" lon="6.50594">
        <ele>1509</ele>
        <time>2021-02-28T14:30:54Z</time>
      </trkpt>
      <trkpt lat="44.98063" lon="6.50595">
        <ele>1508.8</ele>
        <time>2021-02-28T14:30:55Z</time>
      </trkpt>
      <trkpt lat="44.98063" lon="6.50595">
        <ele>1508.8</ele>
        <time>2021-02-28T14:30:56Z</time>
      </trkpt>
      <trkpt lat="44.98061" lon="6.50596">
        <ele>1508.6</ele>
        <time>2021-02-28T14:30:57Z</time>
      </trkpt>
      <trkpt lat="44.98061" lon="6.50596">
        <ele>1508.2</ele>
        <time>2021-02-28T14:30:58Z</time>
      </trkpt>
      <trkpt lat="44.98059" lon="6.50597">
        <ele>1508.2</ele>
        <time>2021-02-28T14:30:59Z</time>
      </trkpt>
      <trkpt lat="44.98059" lon="6.50597">
        <ele>1508</ele>
        <time>2021-02-28T14:31:00Z</time>
      </trkpt>
      <trkpt lat="44.98057" lon="6.50598">
        <ele>1507.8</ele>
        <time>2021-02-28T14:31:01Z</time>
      </trkpt>
      <trkpt lat="44.98057" lon="6.50598">
        <ele>1507.6</ele>
        <time>2021-02-28T14:31:02Z</time>
      </trkpt>
      <trkpt lat="44.98055" lon="6.50599">
        <ele>1507.4</ele>
        <time>2021-02-28T14:31:03Z</time>
      </trkpt>
      <trkpt lat="44.98055" lon="6.50599">
        <ele>1507.2</ele>
        <time>2021-02-28T14:31:04Z</time>
      </trkpt>
      <trkpt lat="44.98055" lon="6.50599">
        <ele>1507</ele>
        <time>2021-02-28T14:31:05Z</time>
      </trkpt>
      <trkpt lat="44.98054" lon="6.50601">
        <ele>1507</ele>
        <time>2021-02-28T14:31:06Z</time>
      </trkpt>
      <trkpt lat="44.98054" lon="6.50601">
        <ele>1506.6</ele>
        <time>2021-02-28T14:31:07Z</time>
      </trkpt>
      <trkpt lat="44.98054" lon="6.50601">
        <ele>1506.4</ele>
        <time>2021-02-28T14:31:08Z</time>
      </trkpt>
      <trkpt lat="44.98052" lon="6.50602">
        <ele>1506.2</ele>
        <time>2021-02-28T14:31:09Z</time>
      </trkpt>
      <trkpt lat="44.98052" lon="6.50602">
        <ele>1506.2</ele>
        <time>2021-02-28T14:31:10Z</time>
      </trkpt>
      <trkpt lat="44.9805" lon="6.50604">
        <ele>1506.2</ele>
        <time>2021-02-28T14:31:11Z</time>
      </trkpt>
      <trkpt lat="44.9805" lon="6.50604">
        <ele>1505.8</ele>
        <time>2021-02-28T14:31:12Z</time>
      </trkpt>
      <trkpt lat="44.98049" lon="6.50604">
        <ele>1505.6</ele>
        <time>2021-02-28T14:31:13Z</time>
      </trkpt>
      <trkpt lat="44.98049" lon="6.50604">
        <ele>1505.4</ele>
        <time>2021-02-28T14:31:14Z</time>
      </trkpt>
      <trkpt lat="44.98046" lon="6.50605">
        <ele>1505.2</ele>
        <time>2021-02-28T14:31:15Z</time>
      </trkpt>
      <trkpt lat="44.98046" lon="6.50605">
        <ele>1505</ele>
        <time>2021-02-28T14:31:16Z</time>
      </trkpt>
      <trkpt lat="44.98046" lon="6.50605">
        <ele>1504.8</ele>
        <time>2021-02-28T14:31:17Z</time>
      </trkpt>
      <trkpt lat="44.98044" lon="6.50606">
        <ele>1504.8</ele>
        <time>2021-02-28T14:31:18Z</time>
      </trkpt>
      <trkpt lat="44.98044" lon="6.50606">
        <ele>1504.6</ele>
        <time>2021-02-28T14:31:19Z</time>
      </trkpt>
      <trkpt lat="44.98043" lon="6.50608">
        <ele>1504.6</ele>
        <time>2021-02-28T14:31:20Z</time>
      </trkpt>
      <trkpt lat="44.98043" lon="6.50608">
        <ele>1504.4</ele>
        <time>2021-02-28T14:31:21Z</time>
      </trkpt>
      <trkpt lat="44.98042" lon="6.50611">
        <ele>1504</ele>
        <time>2021-02-28T14:31:22Z</time>
      </trkpt>
      <trkpt lat="44.98042" lon="6.50611">
        <ele>1504</ele>
        <time>2021-02-28T14:31:23Z</time>
      </trkpt>
      <trkpt lat="44.9804" lon="6.50613">
        <ele>1504</ele>
        <time>2021-02-28T14:31:24Z</time>
      </trkpt>
      <trkpt lat="44.9804" lon="6.50613">
        <ele>1503.8</ele>
        <time>2021-02-28T14:31:25Z</time>
      </trkpt>
      <trkpt lat="44.98039" lon="6.50616">
        <ele>1503.6</ele>
        <time>2021-02-28T14:31:26Z</time>
      </trkpt>
      <trkpt lat="44.98039" lon="6.50616">
        <ele>1503.4</ele>
        <time>2021-02-28T14:31:27Z</time>
      </trkpt>
      <trkpt lat="44.98038" lon="6.50618">
        <ele>1503.2</ele>
        <time>2021-02-28T14:31:28Z</time>
      </trkpt>
      <trkpt lat="44.98038" lon="6.50618">
        <ele>1503</ele>
        <time>2021-02-28T14:31:29Z</time>
      </trkpt>
      <trkpt lat="44.98036" lon="6.50621">
        <ele>1502.6</ele>
        <time>2021-02-28T14:31:30Z</time>
      </trkpt>
      <trkpt lat="44.98036" lon="6.50621">
        <ele>1502.2</ele>
        <time>2021-02-28T14:31:31Z</time>
      </trkpt>
      <trkpt lat="44.98034" lon="6.50623">
        <ele>1502</ele>
        <time>2021-02-28T14:31:32Z</time>
      </trkpt>
      <trkpt lat="44.98034" lon="6.50623">
        <ele>1502</ele>
        <time>2021-02-28T14:31:33Z</time>
      </trkpt>
      <trkpt lat="44.98033" lon="6.50626">
        <ele>1501.8</ele>
        <time>2021-02-28T14:31:34Z</time>
      </trkpt>
      <trkpt lat="44.98033" lon="6.50626">
        <ele>1501.6</ele>
        <time>2021-02-28T14:31:35Z</time>
      </trkpt>
      <trkpt lat="44.9803" lon="6.50628">
        <ele>1501.6</ele>
        <time>2021-02-28T14:31:36Z</time>
      </trkpt>
      <trkpt lat="44.9803" lon="6.50628">
        <ele>1501.2</ele>
        <time>2021-02-28T14:31:37Z</time>
      </trkpt>
      <trkpt lat="44.98028" lon="6.50631">
        <ele>1501</ele>
        <time>2021-02-28T14:31:38Z</time>
      </trkpt>
      <trkpt lat="44.98028" lon="6.50631">
        <ele>1501</ele>
        <time>2021-02-28T14:31:39Z</time>
      </trkpt>
      <trkpt lat="44.98026" lon="6.50634">
        <ele>1500.6</ele>
        <time>2021-02-28T14:31:40Z</time>
      </trkpt>
      <trkpt lat="44.98026" lon="6.50634">
        <ele>1500.6</ele>
        <time>2021-02-28T14:31:41Z</time>
      </trkpt>
      <trkpt lat="44.98025" lon="6.50636">
        <ele>1500.4</ele>
        <time>2021-02-28T14:31:42Z</time>
      </trkpt>
      <trkpt lat="44.98025" lon="6.50636">
        <ele>1500</ele>
        <time>2021-02-28T14:31:43Z</time>
      </trkpt>
      <trkpt lat="44.98022" lon="6.50638">
        <ele>1500</ele>
        <time>2021-02-28T14:31:44Z</time>
      </trkpt>
      <trkpt lat="44.98022" lon="6.50638">
        <ele>1499.4</ele>
        <time>2021-02-28T14:31:45Z</time>
      </trkpt>
      <trkpt lat="44.9802" lon="6.5064">
        <ele>1499</ele>
        <time>2021-02-28T14:31:46Z</time>
      </trkpt>
      <trkpt lat="44.9802" lon="6.5064">
        <ele>1498.6</ele>
        <time>2021-02-28T14:31:47Z</time>
      </trkpt>
      <trkpt lat="44.98018" lon="6.50641">
        <ele>1498.6</ele>
        <time>2021-02-28T14:31:48Z</time>
      </trkpt>
      <trkpt lat="44.98018" lon="6.50641">
        <ele>1498.4</ele>
        <time>2021-02-28T14:31:49Z</time>
      </trkpt>
      <trkpt lat="44.98016" lon="6.50643">
        <ele>1498</ele>
        <time>2021-02-28T14:31:50Z</time>
      </trkpt>
      <trkpt lat="44.98016" lon="6.50643">
        <ele>1497.8</ele>
        <time>2021-02-28T14:31:51Z</time>
      </trkpt>
      <trkpt lat="44.98016" lon="6.50643">
        <ele>1497.6</ele>
        <time>2021-02-28T14:31:52Z</time>
      </trkpt>
      <trkpt lat="44.98016" lon="6.50643">
        <ele>1497.4</ele>
        <time>2021-02-28T14:31:53Z</time>
      </trkpt>
      <trkpt lat="44.98011" lon="6.50647">
        <ele>1496.8</ele>
        <time>2021-02-28T14:31:54Z</time>
      </trkpt>
      <trkpt lat="44.98011" lon="6.50648">
        <ele>1496.4</ele>
        <time>2021-02-28T14:31:55Z</time>
      </trkpt>
      <trkpt lat="44.9801" lon="6.50649">
        <ele>1496.2</ele>
        <time>2021-02-28T14:31:56Z</time>
      </trkpt>
      <trkpt lat="44.98009" lon="6.50649">
        <ele>1496</ele>
        <time>2021-02-28T14:31:57Z</time>
      </trkpt>
      <trkpt lat="44.98009" lon="6.50649">
        <ele>1495.8</ele>
        <time>2021-02-28T14:31:58Z</time>
      </trkpt>
      <trkpt lat="44.98009" lon="6.50649">
        <ele>1495.8</ele>
        <time>2021-02-28T14:31:59Z</time>
      </trkpt>
      <trkpt lat="44.98004" lon="6.50653">
        <ele>1495.8</ele>
        <time>2021-02-28T14:32:00Z</time>
      </trkpt>
      <trkpt lat="44.98003" lon="6.50653">
        <ele>1495.4</ele>
        <time>2021-02-28T14:32:01Z</time>
      </trkpt>
      <trkpt lat="44.98002" lon="6.50653">
        <ele>1495</ele>
        <time>2021-02-28T14:32:02Z</time>
      </trkpt>
      <trkpt lat="44.98001" lon="6.50654">
        <ele>1494.4</ele>
        <time>2021-02-28T14:32:03Z</time>
      </trkpt>
      <trkpt lat="44.98001" lon="6.50654">
        <ele>1494</ele>
        <time>2021-02-28T14:32:04Z</time>
      </trkpt>
      <trkpt lat="44.97999" lon="6.50655">
        <ele>1493.8</ele>
        <time>2021-02-28T14:32:05Z</time>
      </trkpt>
      <trkpt lat="44.97999" lon="6.50655">
        <ele>1493.8</ele>
        <time>2021-02-28T14:32:06Z</time>
      </trkpt>
      <trkpt lat="44.97996" lon="6.50656">
        <ele>1493.6</ele>
        <time>2021-02-28T14:32:07Z</time>
      </trkpt>
      <trkpt lat="44.97996" lon="6.50656">
        <ele>1493.6</ele>
        <time>2021-02-28T14:32:08Z</time>
      </trkpt>
      <trkpt lat="44.97993" lon="6.50657">
        <ele>1493.4</ele>
        <time>2021-02-28T14:32:09Z</time>
      </trkpt>
      <trkpt lat="44.97993" lon="6.50657">
        <ele>1492.8</ele>
        <time>2021-02-28T14:32:10Z</time>
      </trkpt>
      <trkpt lat="44.9799" lon="6.50658">
        <ele>1492.6</ele>
        <time>2021-02-28T14:32:11Z</time>
      </trkpt>
      <trkpt lat="44.9799" lon="6.50658">
        <ele>1492.2</ele>
        <time>2021-02-28T14:32:12Z</time>
      </trkpt>
      <trkpt lat="44.97988" lon="6.50658">
        <ele>1492</ele>
        <time>2021-02-28T14:32:13Z</time>
      </trkpt>
      <trkpt lat="44.97988" lon="6.50658">
        <ele>1491.8</ele>
        <time>2021-02-28T14:32:14Z</time>
      </trkpt>
      <trkpt lat="44.97985" lon="6.50659">
        <ele>1491.8</ele>
        <time>2021-02-28T14:32:15Z</time>
      </trkpt>
      <trkpt lat="44.97985" lon="6.50659">
        <ele>1491.6</ele>
        <time>2021-02-28T14:32:16Z</time>
      </trkpt>
      <trkpt lat="44.97981" lon="6.5066">
        <ele>1491.4</ele>
        <time>2021-02-28T14:32:17Z</time>
      </trkpt>
      <trkpt lat="44.97981" lon="6.5066">
        <ele>1491.2</ele>
        <time>2021-02-28T14:32:18Z</time>
      </trkpt>
      <trkpt lat="44.97978" lon="6.50661">
        <ele>1491.2</ele>
        <time>2021-02-28T14:32:19Z</time>
      </trkpt>
      <trkpt lat="44.97978" lon="6.50661">
        <ele>1490.8</ele>
        <time>2021-02-28T14:32:20Z</time>
      </trkpt>
      <trkpt lat="44.97974" lon="6.50662">
        <ele>1490.6</ele>
        <time>2021-02-28T14:32:21Z</time>
      </trkpt>
      <trkpt lat="44.97974" lon="6.50662">
        <ele>1490.4</ele>
        <time>2021-02-28T14:32:22Z</time>
      </trkpt>
      <trkpt lat="44.97972" lon="6.50662">
        <ele>1490.2</ele>
        <time>2021-02-28T14:32:23Z</time>
      </trkpt>
      <trkpt lat="44.97972" lon="6.50662">
        <ele>1490</ele>
        <time>2021-02-28T14:32:24Z</time>
      </trkpt>
      <trkpt lat="44.97969" lon="6.50663">
        <ele>1490</ele>
        <time>2021-02-28T14:32:25Z</time>
      </trkpt>
      <trkpt lat="44.97969" lon="6.50663">
        <ele>1489.8</ele>
        <time>2021-02-28T14:32:26Z</time>
      </trkpt>
      <trkpt lat="44.97967" lon="6.50663">
        <ele>1489.6</ele>
        <time>2021-02-28T14:32:27Z</time>
      </trkpt>
      <trkpt lat="44.97967" lon="6.50663">
        <ele>1489.2</ele>
        <time>2021-02-28T14:32:28Z</time>
      </trkpt>
      <trkpt lat="44.97964" lon="6.50664">
        <ele>1488.6</ele>
        <time>2021-02-28T14:32:29Z</time>
      </trkpt>
      <trkpt lat="44.97964" lon="6.50664">
        <ele>1488.4</ele>
        <time>2021-02-28T14:32:30Z</time>
      </trkpt>
      <trkpt lat="44.97961" lon="6.50664">
        <ele>1488.2</ele>
        <time>2021-02-28T14:32:31Z</time>
      </trkpt>
      <trkpt lat="44.97961" lon="6.50664">
        <ele>1488</ele>
        <time>2021-02-28T14:32:32Z</time>
      </trkpt>
      <trkpt lat="44.97958" lon="6.50664">
        <ele>1487.8</ele>
        <time>2021-02-28T14:32:33Z</time>
      </trkpt>
      <trkpt lat="44.97958" lon="6.50664">
        <ele>1487.6</ele>
        <time>2021-02-28T14:32:34Z</time>
      </trkpt>
      <trkpt lat="44.97956" lon="6.50665">
        <ele>1487.2</ele>
        <time>2021-02-28T14:32:35Z</time>
      </trkpt>
      <trkpt lat="44.97956" lon="6.50665">
        <ele>1487.2</ele>
        <time>2021-02-28T14:32:36Z</time>
      </trkpt>
      <trkpt lat="44.97953" lon="6.50666">
        <ele>1486.8</ele>
        <time>2021-02-28T14:32:37Z</time>
      </trkpt>
      <trkpt lat="44.97953" lon="6.50666">
        <ele>1486.4</ele>
        <time>2021-02-28T14:32:38Z</time>
      </trkpt>
      <trkpt lat="44.97951" lon="6.50666">
        <ele>1486</ele>
        <time>2021-02-28T14:32:39Z</time>
      </trkpt>
      <trkpt lat="44.97951" lon="6.50666">
        <ele>1486</ele>
        <time>2021-02-28T14:32:40Z</time>
      </trkpt>
      <trkpt lat="44.97949" lon="6.50667">
        <ele>1486</ele>
        <time>2021-02-28T14:32:41Z</time>
      </trkpt>
      <trkpt lat="44.97949" lon="6.50667">
        <ele>1486</ele>
        <time>2021-02-28T14:32:42Z</time>
      </trkpt>
      <trkpt lat="44.97949" lon="6.50667">
        <ele>1485.8</ele>
        <time>2021-02-28T14:32:43Z</time>
      </trkpt>
      <trkpt lat="44.97949" lon="6.50667">
        <ele>1485.6</ele>
        <time>2021-02-28T14:32:44Z</time>
      </trkpt>
      <trkpt lat="44.97948" lon="6.50667">
        <ele>1485.2</ele>
        <time>2021-02-28T14:32:45Z</time>
      </trkpt>
      <trkpt lat="44.97946" lon="6.50668">
        <ele>1485</ele>
        <time>2021-02-28T14:32:46Z</time>
      </trkpt>
      <trkpt lat="44.97945" lon="6.50668">
        <ele>1484.6</ele>
        <time>2021-02-28T14:32:47Z</time>
      </trkpt>
      <trkpt lat="44.97944" lon="6.50668">
        <ele>1484.4</ele>
        <time>2021-02-28T14:32:48Z</time>
      </trkpt>
      <trkpt lat="44.97943" lon="6.50669">
        <ele>1484.4</ele>
        <time>2021-02-28T14:32:49Z</time>
      </trkpt>
      <trkpt lat="44.97942" lon="6.50669">
        <ele>1484.2</ele>
        <time>2021-02-28T14:32:50Z</time>
      </trkpt>
      <trkpt lat="44.9794" lon="6.5067">
        <ele>1484</ele>
        <time>2021-02-28T14:32:51Z</time>
      </trkpt>
      <trkpt lat="44.97939" lon="6.5067">
        <ele>1483.8</ele>
        <time>2021-02-28T14:32:52Z</time>
      </trkpt>
      <trkpt lat="44.97937" lon="6.50671">
        <ele>1483.6</ele>
        <time>2021-02-28T14:32:53Z</time>
      </trkpt>
      <trkpt lat="44.97936" lon="6.50671">
        <ele>1483.6</ele>
        <time>2021-02-28T14:32:54Z</time>
      </trkpt>
      <trkpt lat="44.97935" lon="6.50671">
        <ele>1483.4</ele>
        <time>2021-02-28T14:32:55Z</time>
      </trkpt>
      <trkpt lat="44.97933" lon="6.50672">
        <ele>1483.2</ele>
        <time>2021-02-28T14:32:56Z</time>
      </trkpt>
      <trkpt lat="44.97932" lon="6.50672">
        <ele>1483.2</ele>
        <time>2021-02-28T14:32:57Z</time>
      </trkpt>
      <trkpt lat="44.97931" lon="6.50672">
        <ele>1482.8</ele>
        <time>2021-02-28T14:32:58Z</time>
      </trkpt>
      <trkpt lat="44.9793" lon="6.50672">
        <ele>1482.6</ele>
        <time>2021-02-28T14:32:59Z</time>
      </trkpt>
      <trkpt lat="44.97929" lon="6.50672">
        <ele>1482.4</ele>
        <time>2021-02-28T14:33:00Z</time>
      </trkpt>
      <trkpt lat="44.97928" lon="6.50672">
        <ele>1482.2</ele>
        <time>2021-02-28T14:33:01Z</time>
      </trkpt>
      <trkpt lat="44.97927" lon="6.50672">
        <ele>1481.8</ele>
        <time>2021-02-28T14:33:02Z</time>
      </trkpt>
      <trkpt lat="44.97926" lon="6.50672">
        <ele>1481.8</ele>
        <time>2021-02-28T14:33:03Z</time>
      </trkpt>
      <trkpt lat="44.97924" lon="6.50673">
        <ele>1481.4</ele>
        <time>2021-02-28T14:33:04Z</time>
      </trkpt>
      <trkpt lat="44.97923" lon="6.50674">
        <ele>1481</ele>
        <time>2021-02-28T14:33:05Z</time>
      </trkpt>
      <trkpt lat="44.97922" lon="6.50675">
        <ele>1480.6</ele>
        <time>2021-02-28T14:33:06Z</time>
      </trkpt>
      <trkpt lat="44.97921" lon="6.50675">
        <ele>1480.4</ele>
        <time>2021-02-28T14:33:07Z</time>
      </trkpt>
      <trkpt lat="44.9792" lon="6.50676">
        <ele>1480</ele>
        <time>2021-02-28T14:33:08Z</time>
      </trkpt>
      <trkpt lat="44.97918" lon="6.50677">
        <ele>1479.8</ele>
        <time>2021-02-28T14:33:09Z</time>
      </trkpt>
      <trkpt lat="44.97917" lon="6.50678">
        <ele>1479.8</ele>
        <time>2021-02-28T14:33:10Z</time>
      </trkpt>
      <trkpt lat="44.97916" lon="6.50678">
        <ele>1479.8</ele>
        <time>2021-02-28T14:33:11Z</time>
      </trkpt>
      <trkpt lat="44.97915" lon="6.50678">
        <ele>1479.6</ele>
        <time>2021-02-28T14:33:12Z</time>
      </trkpt>
      <trkpt lat="44.97914" lon="6.50678">
        <ele>1479.4</ele>
        <time>2021-02-28T14:33:13Z</time>
      </trkpt>
      <trkpt lat="44.97912" lon="6.50679">
        <ele>1479.2</ele>
        <time>2021-02-28T14:33:14Z</time>
      </trkpt>
      <trkpt lat="44.97911" lon="6.50679">
        <ele>1479</ele>
        <time>2021-02-28T14:33:15Z</time>
      </trkpt>
      <trkpt lat="44.9791" lon="6.50679">
        <ele>1479</ele>
        <time>2021-02-28T14:33:16Z</time>
      </trkpt>
      <trkpt lat="44.97909" lon="6.50679">
        <ele>1478.8</ele>
        <time>2021-02-28T14:33:17Z</time>
      </trkpt>
      <trkpt lat="44.97908" lon="6.5068">
        <ele>1478.6</ele>
        <time>2021-02-28T14:33:18Z</time>
      </trkpt>
      <trkpt lat="44.97907" lon="6.5068">
        <ele>1478.2</ele>
        <time>2021-02-28T14:33:19Z</time>
      </trkpt>
      <trkpt lat="44.97906" lon="6.5068">
        <ele>1477.8</ele>
        <time>2021-02-28T14:33:20Z</time>
      </trkpt>
      <trkpt lat="44.97905" lon="6.5068">
        <ele>1477.8</ele>
        <time>2021-02-28T14:33:21Z</time>
      </trkpt>
      <trkpt lat="44.97903" lon="6.5068">
        <ele>1477.8</ele>
        <time>2021-02-28T14:33:22Z</time>
      </trkpt>
      <trkpt lat="44.97902" lon="6.50681">
        <ele>1477.6</ele>
        <time>2021-02-28T14:33:23Z</time>
      </trkpt>
      <trkpt lat="44.97901" lon="6.50681">
        <ele>1477.4</ele>
        <time>2021-02-28T14:33:24Z</time>
      </trkpt>
      <trkpt lat="44.979" lon="6.50681">
        <ele>1477.2</ele>
        <time>2021-02-28T14:33:25Z</time>
      </trkpt>
      <trkpt lat="44.97899" lon="6.50681">
        <ele>1476.6</ele>
        <time>2021-02-28T14:33:26Z</time>
      </trkpt>
      <trkpt lat="44.97898" lon="6.50681">
        <ele>1476.4</ele>
        <time>2021-02-28T14:33:27Z</time>
      </trkpt>
      <trkpt lat="44.97897" lon="6.50682">
        <ele>1476.2</ele>
        <time>2021-02-28T14:33:28Z</time>
      </trkpt>
      <trkpt lat="44.97896" lon="6.50682">
        <ele>1476.2</ele>
        <time>2021-02-28T14:33:29Z</time>
      </trkpt>
      <trkpt lat="44.97894" lon="6.50683">
        <ele>1475.8</ele>
        <time>2021-02-28T14:33:30Z</time>
      </trkpt>
      <trkpt lat="44.97893" lon="6.50683">
        <ele>1475.4</ele>
        <time>2021-02-28T14:33:31Z</time>
      </trkpt>
      <trkpt lat="44.97891" lon="6.50684">
        <ele>1475.2</ele>
        <time>2021-02-28T14:33:32Z</time>
      </trkpt>
      <trkpt lat="44.9789" lon="6.50684">
        <ele>1475.2</ele>
        <time>2021-02-28T14:33:33Z</time>
      </trkpt>
      <trkpt lat="44.97889" lon="6.50685">
        <ele>1475</ele>
        <time>2021-02-28T14:33:34Z</time>
      </trkpt>
      <trkpt lat="44.97887" lon="6.50686">
        <ele>1474.8</ele>
        <time>2021-02-28T14:33:35Z</time>
      </trkpt>
      <trkpt lat="44.97885" lon="6.50686">
        <ele>1474.4</ele>
        <time>2021-02-28T14:33:36Z</time>
      </trkpt>
      <trkpt lat="44.97884" lon="6.50687">
        <ele>1474.2</ele>
        <time>2021-02-28T14:33:37Z</time>
      </trkpt>
      <trkpt lat="44.97882" lon="6.50687">
        <ele>1474.2</ele>
        <time>2021-02-28T14:33:38Z</time>
      </trkpt>
      <trkpt lat="44.9788" lon="6.50688">
        <ele>1474</ele>
        <time>2021-02-28T14:33:39Z</time>
      </trkpt>
      <trkpt lat="44.97878" lon="6.50688">
        <ele>1473.8</ele>
        <time>2021-02-28T14:33:40Z</time>
      </trkpt>
      <trkpt lat="44.97878" lon="6.50687">
        <ele>1473.8</ele>
        <time>2021-02-28T14:33:41Z</time>
      </trkpt>
      <trkpt lat="44.97877" lon="6.50685">
        <ele>1473.4</ele>
        <time>2021-02-28T14:33:42Z</time>
      </trkpt>
      <trkpt lat="44.97876" lon="6.50683">
        <ele>1473.4</ele>
        <time>2021-02-28T14:33:43Z</time>
      </trkpt>
      <trkpt lat="44.97875" lon="6.50681">
        <ele>1473.2</ele>
        <time>2021-02-28T14:33:44Z</time>
      </trkpt>
      <trkpt lat="44.97875" lon="6.5068">
        <ele>1472.8</ele>
        <time>2021-02-28T14:33:45Z</time>
      </trkpt>
      <trkpt lat="44.97874" lon="6.50678">
        <ele>1472.6</ele>
        <time>2021-02-28T14:33:46Z</time>
      </trkpt>
      <trkpt lat="44.97873" lon="6.50676">
        <ele>1472.4</ele>
        <time>2021-02-28T14:33:47Z</time>
      </trkpt>
      <trkpt lat="44.97873" lon="6.50675">
        <ele>1472.4</ele>
        <time>2021-02-28T14:33:48Z</time>
      </trkpt>
      <trkpt lat="44.97873" lon="6.50675">
        <ele>1472.2</ele>
        <time>2021-02-28T14:33:49Z</time>
      </trkpt>
      <trkpt lat="44.97873" lon="6.50675">
        <ele>1472.2</ele>
        <time>2021-02-28T14:33:50Z</time>
      </trkpt>
      <trkpt lat="44.97873" lon="6.50675">
        <ele>1472</ele>
        <time>2021-02-28T14:33:51Z</time>
      </trkpt>
      <trkpt lat="44.97873" lon="6.50675">
        <ele>1472</ele>
        <time>2021-02-28T14:33:52Z</time>
      </trkpt>
      <trkpt lat="44.97873" lon="6.50676">
        <ele>1471.8</ele>
        <time>2021-02-28T14:33:53Z</time>
      </trkpt>
      <trkpt lat="44.97873" lon="6.50676">
        <ele>1472</ele>
        <time>2021-02-28T14:33:54Z</time>
      </trkpt>
      <trkpt lat="44.97873" lon="6.50676">
        <ele>1472</ele>
        <time>2021-02-28T14:33:55Z</time>
      </trkpt>
      <trkpt lat="44.97873" lon="6.50677">
        <ele>1472</ele>
        <time>2021-02-28T14:33:56Z</time>
      </trkpt>
      <trkpt lat="44.97873" lon="6.50677">
        <ele>1471.8</ele>
        <time>2021-02-28T14:33:57Z</time>
      </trkpt>
      <trkpt lat="44.97873" lon="6.50678">
        <ele>1471.8</ele>
        <time>2021-02-28T14:33:58Z</time>
      </trkpt>
      <trkpt lat="44.97873" lon="6.50678">
        <ele>1471.6</ele>
        <time>2021-02-28T14:33:59Z</time>
      </trkpt>
      <trkpt lat="44.97873" lon="6.50678">
        <ele>1471.8</ele>
        <time>2021-02-28T14:34:00Z</time>
      </trkpt>
      <trkpt lat="44.97873" lon="6.50679">
        <ele>1471.8</ele>
        <time>2021-02-28T14:34:01Z</time>
      </trkpt>
      <trkpt lat="44.97874" lon="6.50679">
        <ele>1471.8</ele>
        <time>2021-02-28T14:34:02Z</time>
      </trkpt>
      <trkpt lat="44.97874" lon="6.5068">
        <ele>1471.8</ele>
        <time>2021-02-28T14:34:03Z</time>
      </trkpt>
      <trkpt lat="44.97874" lon="6.5068">
        <ele>1471.8</ele>
        <time>2021-02-28T14:34:04Z</time>
      </trkpt>
      <trkpt lat="44.97874" lon="6.5068">
        <ele>1471.6</ele>
        <time>2021-02-28T14:34:05Z</time>
      </trkpt>
      <trkpt lat="44.97874" lon="6.50681">
        <ele>1471.6</ele>
        <time>2021-02-28T14:34:06Z</time>
      </trkpt>
      <trkpt lat="44.97874" lon="6.50681">
        <ele>1471.4</ele>
        <time>2021-02-28T14:34:07Z</time>
      </trkpt>
      <trkpt lat="44.97874" lon="6.50682">
        <ele>1471.4</ele>
        <time>2021-02-28T14:34:08Z</time>
      </trkpt>
      <trkpt lat="44.97874" lon="6.50682">
        <ele>1471.2</ele>
        <time>2021-02-28T14:34:09Z</time>
      </trkpt>
      <trkpt lat="44.97874" lon="6.50682">
        <ele>1471.4</ele>
        <time>2021-02-28T14:34:10Z</time>
      </trkpt>
      <trkpt lat="44.97874" lon="6.50683">
        <ele>1471.2</ele>
        <time>2021-02-28T14:34:11Z</time>
      </trkpt>
      <trkpt lat="44.97874" lon="6.50683">
        <ele>1471</ele>
        <time>2021-02-28T14:34:12Z</time>
      </trkpt>
      <trkpt lat="44.97874" lon="6.50683">
        <ele>1471</ele>
        <time>2021-02-28T14:34:13Z</time>
      </trkpt>
      <trkpt lat="44.97875" lon="6.50684">
        <ele>1471.2</ele>
        <time>2021-02-28T14:34:14Z</time>
      </trkpt>
      <trkpt lat="44.97875" lon="6.50684">
        <ele>1471</ele>
        <time>2021-02-28T14:34:15Z</time>
      </trkpt>
      <trkpt lat="44.97875" lon="6.50685">
        <ele>1471.6</ele>
        <time>2021-02-28T14:34:16Z</time>
      </trkpt>
      <trkpt lat="44.97875" lon="6.50685">
        <ele>1471.6</ele>
        <time>2021-02-28T14:34:17Z</time>
      </trkpt>
      <trkpt lat="44.97875" lon="6.50685">
        <ele>1471.4</ele>
        <time>2021-02-28T14:34:18Z</time>
      </trkpt>
      <trkpt lat="44.97875" lon="6.50686">
        <ele>1471.2</ele>
        <time>2021-02-28T14:34:19Z</time>
      </trkpt>
      <trkpt lat="44.97875" lon="6.50686">
        <ele>1471.2</ele>
        <time>2021-02-28T14:34:20Z</time>
      </trkpt>
      <trkpt lat="44.97875" lon="6.50687">
        <ele>1471</ele>
        <time>2021-02-28T14:34:21Z</time>
      </trkpt>
      <trkpt lat="44.97875" lon="6.50687">
        <ele>1471.2</ele>
        <time>2021-02-28T14:34:22Z</time>
      </trkpt>
      <trkpt lat="44.97875" lon="6.50687">
        <ele>1471.2</ele>
        <time>2021-02-28T14:34:23Z</time>
      </trkpt>
      <trkpt lat="44.97875" lon="6.50688">
        <ele>1471</ele>
        <time>2021-02-28T14:34:24Z</time>
      </trkpt>
      <trkpt lat="44.97875" lon="6.50689">
        <ele>1470.8</ele>
        <time>2021-02-28T14:34:25Z</time>
      </trkpt>
      <trkpt lat="44.97874" lon="6.50689">
        <ele>1470.4</ele>
        <time>2021-02-28T14:34:26Z</time>
      </trkpt>
      <trkpt lat="44.97874" lon="6.5069">
        <ele>1470.2</ele>
        <time>2021-02-28T14:34:27Z</time>
      </trkpt>
      <trkpt lat="44.97873" lon="6.50691">
        <ele>1470.2</ele>
        <time>2021-02-28T14:34:28Z</time>
      </trkpt>
      <trkpt lat="44.97872" lon="6.50692">
        <ele>1470.2</ele>
        <time>2021-02-28T14:34:29Z</time>
      </trkpt>
      <trkpt lat="44.97872" lon="6.50693">
        <ele>1470.2</ele>
        <time>2021-02-28T14:34:30Z</time>
      </trkpt>
      <trkpt lat="44.97871" lon="6.50693">
        <ele>1470</ele>
        <time>2021-02-28T14:34:31Z</time>
      </trkpt>
      <trkpt lat="44.9787" lon="6.50694">
        <ele>1469.8</ele>
        <time>2021-02-28T14:34:32Z</time>
      </trkpt>
      <trkpt lat="44.9787" lon="6.50695">
        <ele>1469.8</ele>
        <time>2021-02-28T14:34:33Z</time>
      </trkpt>
      <trkpt lat="44.97869" lon="6.50696">
        <ele>1469.4</ele>
        <time>2021-02-28T14:34:34Z</time>
      </trkpt>
      <trkpt lat="44.97869" lon="6.50696">
        <ele>1469.2</ele>
        <time>2021-02-28T14:34:35Z</time>
      </trkpt>
      <trkpt lat="44.97868" lon="6.50697">
        <ele>1468.6</ele>
        <time>2021-02-28T14:34:36Z</time>
      </trkpt>
      <trkpt lat="44.97867" lon="6.50698">
        <ele>1468.6</ele>
        <time>2021-02-28T14:34:37Z</time>
      </trkpt>
      <trkpt lat="44.97866" lon="6.50699">
        <ele>1468.6</ele>
        <time>2021-02-28T14:34:38Z</time>
      </trkpt>
      <trkpt lat="44.97864" lon="6.50701">
        <ele>1468</ele>
        <time>2021-02-28T14:34:39Z</time>
      </trkpt>
      <trkpt lat="44.97862" lon="6.50702">
        <ele>1467.6</ele>
        <time>2021-02-28T14:34:40Z</time>
      </trkpt>
      <trkpt lat="44.9786" lon="6.50703">
        <ele>1467</ele>
        <time>2021-02-28T14:34:41Z</time>
      </trkpt>
      <trkpt lat="44.97858" lon="6.50704">
        <ele>1467.2</ele>
        <time>2021-02-28T14:34:42Z</time>
      </trkpt>
      <trkpt lat="44.97857" lon="6.50706">
        <ele>1467</ele>
        <time>2021-02-28T14:34:43Z</time>
      </trkpt>
      <trkpt lat="44.97856" lon="6.50707">
        <ele>1466.8</ele>
        <time>2021-02-28T14:34:44Z</time>
      </trkpt>
      <trkpt lat="44.97855" lon="6.50708">
        <ele>1466.8</ele>
        <time>2021-02-28T14:34:45Z</time>
      </trkpt>
      <trkpt lat="44.97853" lon="6.5071">
        <ele>1466.8</ele>
        <time>2021-02-28T14:34:46Z</time>
      </trkpt>
      <trkpt lat="44.97852" lon="6.50711">
        <ele>1466.4</ele>
        <time>2021-02-28T14:34:47Z</time>
      </trkpt>
      <trkpt lat="44.97851" lon="6.50712">
        <ele>1466.4</ele>
        <time>2021-02-28T14:34:48Z</time>
      </trkpt>
      <trkpt lat="44.9785" lon="6.50713">
        <ele>1466.2</ele>
        <time>2021-02-28T14:34:49Z</time>
      </trkpt>
      <trkpt lat="44.97849" lon="6.50713">
        <ele>1465.8</ele>
        <time>2021-02-28T14:34:50Z</time>
      </trkpt>
      <trkpt lat="44.97848" lon="6.50713">
        <ele>1465.6</ele>
        <time>2021-02-28T14:34:51Z</time>
      </trkpt>
      <trkpt lat="44.97847" lon="6.50714">
        <ele>1465.4</ele>
        <time>2021-02-28T14:34:52Z</time>
      </trkpt>
      <trkpt lat="44.97846" lon="6.50714">
        <ele>1465.4</ele>
        <time>2021-02-28T14:34:53Z</time>
      </trkpt>
      <trkpt lat="44.97845" lon="6.50714">
        <ele>1465.2</ele>
        <time>2021-02-28T14:34:54Z</time>
      </trkpt>
      <trkpt lat="44.97844" lon="6.50715">
        <ele>1465</ele>
        <time>2021-02-28T14:34:55Z</time>
      </trkpt>
      <trkpt lat="44.97843" lon="6.50715">
        <ele>1465</ele>
        <time>2021-02-28T14:34:56Z</time>
      </trkpt>
      <trkpt lat="44.97842" lon="6.50716">
        <ele>1464.6</ele>
        <time>2021-02-28T14:34:57Z</time>
      </trkpt>
      <trkpt lat="44.9784" lon="6.50716">
        <ele>1464.6</ele>
        <time>2021-02-28T14:34:58Z</time>
      </trkpt>
      <trkpt lat="44.97838" lon="6.50717">
        <ele>1464.6</ele>
        <time>2021-02-28T14:34:59Z</time>
      </trkpt>
      <trkpt lat="44.97836" lon="6.50717">
        <ele>1464.4</ele>
        <time>2021-02-28T14:35:00Z</time>
      </trkpt>
      <trkpt lat="44.97834" lon="6.50718">
        <ele>1464.4</ele>
        <time>2021-02-28T14:35:01Z</time>
      </trkpt>
      <trkpt lat="44.97832" lon="6.50718">
        <ele>1464.4</ele>
        <time>2021-02-28T14:35:02Z</time>
      </trkpt>
      <trkpt lat="44.9783" lon="6.50719">
        <ele>1464</ele>
        <time>2021-02-28T14:35:03Z</time>
      </trkpt>
      <trkpt lat="44.97828" lon="6.50719">
        <ele>1463.6</ele>
        <time>2021-02-28T14:35:04Z</time>
      </trkpt>
      <trkpt lat="44.97828" lon="6.50719">
        <ele>1463.4</ele>
        <time>2021-02-28T14:35:05Z</time>
      </trkpt>
      <trkpt lat="44.97828" lon="6.50719">
        <ele>1463.2</ele>
        <time>2021-02-28T14:35:06Z</time>
      </trkpt>
      <trkpt lat="44.97828" lon="6.50719">
        <ele>1463</ele>
        <time>2021-02-28T14:35:07Z</time>
      </trkpt>
      <trkpt lat="44.97827" lon="6.5072">
        <ele>1462.6</ele>
        <time>2021-02-28T14:35:08Z</time>
      </trkpt>
      <trkpt lat="44.97826" lon="6.50721">
        <ele>1462.4</ele>
        <time>2021-02-28T14:35:09Z</time>
      </trkpt>
      <trkpt lat="44.97825" lon="6.50721">
        <ele>1462.2</ele>
        <time>2021-02-28T14:35:10Z</time>
      </trkpt>
      <trkpt lat="44.97824" lon="6.50722">
        <ele>1462.2</ele>
        <time>2021-02-28T14:35:11Z</time>
      </trkpt>
      <trkpt lat="44.97823" lon="6.50723">
        <ele>1462</ele>
        <time>2021-02-28T14:35:12Z</time>
      </trkpt>
      <trkpt lat="44.97822" lon="6.50723">
        <ele>1462</ele>
        <time>2021-02-28T14:35:13Z</time>
      </trkpt>
      <trkpt lat="44.97821" lon="6.50724">
        <ele>1462</ele>
        <time>2021-02-28T14:35:14Z</time>
      </trkpt>
      <trkpt lat="44.9782" lon="6.50725">
        <ele>1461.8</ele>
        <time>2021-02-28T14:35:15Z</time>
      </trkpt>
      <trkpt lat="44.97818" lon="6.50725">
        <ele>1461.4</ele>
        <time>2021-02-28T14:35:16Z</time>
      </trkpt>
      <trkpt lat="44.97817" lon="6.50726">
        <ele>1461.4</ele>
        <time>2021-02-28T14:35:17Z</time>
      </trkpt>
      <trkpt lat="44.97815" lon="6.50727">
        <ele>1461.4</ele>
        <time>2021-02-28T14:35:18Z</time>
      </trkpt>
      <trkpt lat="44.97814" lon="6.50727">
        <ele>1461.2</ele>
        <time>2021-02-28T14:35:19Z</time>
      </trkpt>
      <trkpt lat="44.97812" lon="6.50728">
        <ele>1461</ele>
        <time>2021-02-28T14:35:20Z</time>
      </trkpt>
      <trkpt lat="44.97809" lon="6.5073">
        <ele>1460.8</ele>
        <time>2021-02-28T14:35:21Z</time>
      </trkpt>
      <trkpt lat="44.97809" lon="6.5073">
        <ele>1460.6</ele>
        <time>2021-02-28T14:35:22Z</time>
      </trkpt>
      <trkpt lat="44.97807" lon="6.50732">
        <ele>1460.6</ele>
        <time>2021-02-28T14:35:23Z</time>
      </trkpt>
      <trkpt lat="44.97807" lon="6.50732">
        <ele>1460.2</ele>
        <time>2021-02-28T14:35:24Z</time>
      </trkpt>
      <trkpt lat="44.97804" lon="6.50734">
        <ele>1460</ele>
        <time>2021-02-28T14:35:25Z</time>
      </trkpt>
      <trkpt lat="44.97804" lon="6.50734">
        <ele>1460</ele>
        <time>2021-02-28T14:35:26Z</time>
      </trkpt>
      <trkpt lat="44.97801" lon="6.50735">
        <ele>1459.8</ele>
        <time>2021-02-28T14:35:27Z</time>
      </trkpt>
      <trkpt lat="44.97801" lon="6.50735">
        <ele>1459.6</ele>
        <time>2021-02-28T14:35:28Z</time>
      </trkpt>
      <trkpt lat="44.97801" lon="6.50735">
        <ele>1459.4</ele>
        <time>2021-02-28T14:35:29Z</time>
      </trkpt>
      <trkpt lat="44.97796" lon="6.50738">
        <ele>1459</ele>
        <time>2021-02-28T14:35:30Z</time>
      </trkpt>
      <trkpt lat="44.97795" lon="6.50739">
        <ele>1459</ele>
        <time>2021-02-28T14:35:31Z</time>
      </trkpt>
      <trkpt lat="44.97794" lon="6.50739">
        <ele>1459.2</ele>
        <time>2021-02-28T14:35:32Z</time>
      </trkpt>
      <trkpt lat="44.97793" lon="6.50739">
        <ele>1459</ele>
        <time>2021-02-28T14:35:33Z</time>
      </trkpt>
      <trkpt lat="44.97791" lon="6.50739">
        <ele>1458.8</ele>
        <time>2021-02-28T14:35:34Z</time>
      </trkpt>
      <trkpt lat="44.97791" lon="6.50739">
        <ele>1458.4</ele>
        <time>2021-02-28T14:35:35Z</time>
      </trkpt>
      <trkpt lat="44.97788" lon="6.50739">
        <ele>1458.2</ele>
        <time>2021-02-28T14:35:36Z</time>
      </trkpt>
      <trkpt lat="44.97788" lon="6.50739">
        <ele>1458.2</ele>
        <time>2021-02-28T14:35:37Z</time>
      </trkpt>
      <trkpt lat="44.97788" lon="6.50739">
        <ele>1458.2</ele>
        <time>2021-02-28T14:35:38Z</time>
      </trkpt>
      <trkpt lat="44.97784" lon="6.5074">
        <ele>1458</ele>
        <time>2021-02-28T14:35:39Z</time>
      </trkpt>
      <trkpt lat="44.97784" lon="6.5074">
        <ele>1457.8</ele>
        <time>2021-02-28T14:35:40Z</time>
      </trkpt>
      <trkpt lat="44.97784" lon="6.5074">
        <ele>1457.6</ele>
        <time>2021-02-28T14:35:41Z</time>
      </trkpt>
      <trkpt lat="44.97784" lon="6.5074">
        <ele>1457.6</ele>
        <time>2021-02-28T14:35:42Z</time>
      </trkpt>
      <trkpt lat="44.97784" lon="6.5074">
        <ele>1457.6</ele>
        <time>2021-02-28T14:35:43Z</time>
      </trkpt>
      <trkpt lat="44.97784" lon="6.5074">
        <ele>1457.6</ele>
        <time>2021-02-28T14:35:44Z</time>
      </trkpt>
      <trkpt lat="44.97784" lon="6.5074">
        <ele>1457.8</ele>
        <time>2021-02-28T14:35:45Z</time>
      </trkpt>
      <trkpt lat="44.97784" lon="6.5074">
        <ele>1457.8</ele>
        <time>2021-02-28T14:35:46Z</time>
      </trkpt>
      <trkpt lat="44.97784" lon="6.5074">
        <ele>1458</ele>
        <time>2021-02-28T14:35:47Z</time>
      </trkpt>
      <trkpt lat="44.97782" lon="6.50739">
        <ele>1458</ele>
        <time>2021-02-28T14:35:48Z</time>
      </trkpt>
      <trkpt lat="44.97782" lon="6.50739">
        <ele>1458.2</ele>
        <time>2021-02-28T14:35:49Z</time>
      </trkpt>
      <trkpt lat="44.97779" lon="6.5074">
        <ele>1458.2</ele>
        <time>2021-02-28T14:35:50Z</time>
      </trkpt>
      <trkpt lat="44.97779" lon="6.5074">
        <ele>1458.2</ele>
        <time>2021-02-28T14:35:51Z</time>
      </trkpt>
      <trkpt lat="44.97777" lon="6.5074">
        <ele>1458</ele>
        <time>2021-02-28T14:35:52Z</time>
      </trkpt>
      <trkpt lat="44.97777" lon="6.5074">
        <ele>1457.6</ele>
        <time>2021-02-28T14:35:53Z</time>
      </trkpt>
      <trkpt lat="44.97775" lon="6.50741">
        <ele>1457.2</ele>
        <time>2021-02-28T14:35:54Z</time>
      </trkpt>
      <trkpt lat="44.97775" lon="6.50741">
        <ele>1457.2</ele>
        <time>2021-02-28T14:35:55Z</time>
      </trkpt>
      <trkpt lat="44.97772" lon="6.50741">
        <ele>1457</ele>
        <time>2021-02-28T14:35:56Z</time>
      </trkpt>
      <trkpt lat="44.97772" lon="6.50741">
        <ele>1456.8</ele>
        <time>2021-02-28T14:35:57Z</time>
      </trkpt>
      <trkpt lat="44.97772" lon="6.50741">
        <ele>1456.4</ele>
        <time>2021-02-28T14:35:58Z</time>
      </trkpt>
      <trkpt lat="44.97772" lon="6.50741">
        <ele>1456.2</ele>
        <time>2021-02-28T14:35:59Z</time>
      </trkpt>
      <trkpt lat="44.97771" lon="6.50741">
        <ele>1456.2</ele>
        <time>2021-02-28T14:36:00Z</time>
      </trkpt>
      <trkpt lat="44.9777" lon="6.5074">
        <ele>1456</ele>
        <time>2021-02-28T14:36:01Z</time>
      </trkpt>
      <trkpt lat="44.97769" lon="6.5074">
        <ele>1456.2</ele>
        <time>2021-02-28T14:36:02Z</time>
      </trkpt>
      <trkpt lat="44.97768" lon="6.5074">
        <ele>1456.2</ele>
        <time>2021-02-28T14:36:03Z</time>
      </trkpt>
      <trkpt lat="44.97766" lon="6.50739">
        <ele>1456</ele>
        <time>2021-02-28T14:36:04Z</time>
      </trkpt>
      <trkpt lat="44.97765" lon="6.50739">
        <ele>1456</ele>
        <time>2021-02-28T14:36:05Z</time>
      </trkpt>
      <trkpt lat="44.97764" lon="6.50739">
        <ele>1456.2</ele>
        <time>2021-02-28T14:36:06Z</time>
      </trkpt>
      <trkpt lat="44.97763" lon="6.50738">
        <ele>1456.2</ele>
        <time>2021-02-28T14:36:07Z</time>
      </trkpt>
      <trkpt lat="44.97762" lon="6.50736">
        <ele>1455.8</ele>
        <time>2021-02-28T14:36:08Z</time>
      </trkpt>
      <trkpt lat="44.97762" lon="6.50734">
        <ele>1455.6</ele>
        <time>2021-02-28T14:36:09Z</time>
      </trkpt>
      <trkpt lat="44.97761" lon="6.50732">
        <ele>1455.8</ele>
        <time>2021-02-28T14:36:10Z</time>
      </trkpt>
      <trkpt lat="44.9776" lon="6.5073">
        <ele>1455.6</ele>
        <time>2021-02-28T14:36:11Z</time>
      </trkpt>
      <trkpt lat="44.97759" lon="6.50729">
        <ele>1455.6</ele>
        <time>2021-02-28T14:36:12Z</time>
      </trkpt>
      <trkpt lat="44.97759" lon="6.50727">
        <ele>1455.4</ele>
        <time>2021-02-28T14:36:13Z</time>
      </trkpt>
      <trkpt lat="44.97758" lon="6.50726">
        <ele>1455.4</ele>
        <time>2021-02-28T14:36:14Z</time>
      </trkpt>
      <trkpt lat="44.97758" lon="6.50725">
        <ele>1455.4</ele>
        <time>2021-02-28T14:36:15Z</time>
      </trkpt>
      <trkpt lat="44.97757" lon="6.50724">
        <ele>1455.4</ele>
        <time>2021-02-28T14:36:16Z</time>
      </trkpt>
      <trkpt lat="44.97757" lon="6.50724">
        <ele>1455.6</ele>
        <time>2021-02-28T14:36:17Z</time>
      </trkpt>
      <trkpt lat="44.97756" lon="6.50723">
        <ele>1455.4</ele>
        <time>2021-02-28T14:36:18Z</time>
      </trkpt>
      <trkpt lat="44.97756" lon="6.50722">
        <ele>1455.6</ele>
        <time>2021-02-28T14:36:19Z</time>
      </trkpt>
      <trkpt lat="44.97755" lon="6.50721">
        <ele>1455.6</ele>
        <time>2021-02-28T14:36:20Z</time>
      </trkpt>
      <trkpt lat="44.97755" lon="6.5072">
        <ele>1455.6</ele>
        <time>2021-02-28T14:36:21Z</time>
      </trkpt>
      <trkpt lat="44.97754" lon="6.5072">
        <ele>1455.4</ele>
        <time>2021-02-28T14:36:22Z</time>
      </trkpt>
      <trkpt lat="44.97754" lon="6.50719">
        <ele>1455.2</ele>
        <time>2021-02-28T14:36:23Z</time>
      </trkpt>
      <trkpt lat="44.97754" lon="6.50718">
        <ele>1455</ele>
        <time>2021-02-28T14:36:24Z</time>
      </trkpt>
      <trkpt lat="44.97753" lon="6.50717">
        <ele>1454.6</ele>
        <time>2021-02-28T14:36:25Z</time>
      </trkpt>
      <trkpt lat="44.97753" lon="6.50717">
        <ele>1454.2</ele>
        <time>2021-02-28T14:36:26Z</time>
      </trkpt>
      <trkpt lat="44.9775" lon="6.50716">
        <ele>1454</ele>
        <time>2021-02-28T14:36:27Z</time>
      </trkpt>
      <trkpt lat="44.97747" lon="6.50714">
        <ele>1454</ele>
        <time>2021-02-28T14:36:28Z</time>
      </trkpt>
      <trkpt lat="44.97745" lon="6.50713">
        <ele>1453.6</ele>
        <time>2021-02-28T14:36:29Z</time>
      </trkpt>
      <trkpt lat="44.97742" lon="6.50712">
        <ele>1453.4</ele>
        <time>2021-02-28T14:36:30Z</time>
      </trkpt>
      <trkpt lat="44.97739" lon="6.50711">
        <ele>1453.2</ele>
        <time>2021-02-28T14:36:31Z</time>
      </trkpt>
      <trkpt lat="44.97737" lon="6.5071">
        <ele>1453.2</ele>
        <time>2021-02-28T14:36:32Z</time>
      </trkpt>
      <trkpt lat="44.97732" lon="6.50708">
        <ele>1453.4</ele>
        <time>2021-02-28T14:36:33Z</time>
      </trkpt>
      <trkpt lat="44.97732" lon="6.50708">
        <ele>1453.6</ele>
        <time>2021-02-28T14:36:34Z</time>
      </trkpt>
      <trkpt lat="44.97732" lon="6.50708">
        <ele>1453.6</ele>
        <time>2021-02-28T14:36:35Z</time>
      </trkpt>
      <trkpt lat="44.97732" lon="6.50708">
        <ele>1453.8</ele>
        <time>2021-02-28T14:36:36Z</time>
      </trkpt>
      <trkpt lat="44.97731" lon="6.50706">
        <ele>1453.8</ele>
        <time>2021-02-28T14:36:37Z</time>
      </trkpt>
      <trkpt lat="44.97731" lon="6.50705">
        <ele>1453.6</ele>
        <time>2021-02-28T14:36:38Z</time>
      </trkpt>
      <trkpt lat="44.9773" lon="6.50703">
        <ele>1453.8</ele>
        <time>2021-02-28T14:36:39Z</time>
      </trkpt>
      <trkpt lat="44.9773" lon="6.50701">
        <ele>1454</ele>
        <time>2021-02-28T14:36:40Z</time>
      </trkpt>
      <trkpt lat="44.97729" lon="6.507">
        <ele>1454</ele>
        <time>2021-02-28T14:36:41Z</time>
      </trkpt>
      <trkpt lat="44.97729" lon="6.50698">
        <ele>1454</ele>
        <time>2021-02-28T14:36:42Z</time>
      </trkpt>
      <trkpt lat="44.97729" lon="6.50696">
        <ele>1454</ele>
        <time>2021-02-28T14:36:43Z</time>
      </trkpt>
      <trkpt lat="44.97728" lon="6.50695">
        <ele>1454</ele>
        <time>2021-02-28T14:36:44Z</time>
      </trkpt>
      <trkpt lat="44.97728" lon="6.50694">
        <ele>1454</ele>
        <time>2021-02-28T14:36:45Z</time>
      </trkpt>
      <trkpt lat="44.97728" lon="6.50692">
        <ele>1453.8</ele>
        <time>2021-02-28T14:36:46Z</time>
      </trkpt>
      <trkpt lat="44.97728" lon="6.50691">
        <ele>1453.6</ele>
        <time>2021-02-28T14:36:47Z</time>
      </trkpt>
      <trkpt lat="44.97728" lon="6.5069">
        <ele>1453.8</ele>
        <time>2021-02-28T14:36:48Z</time>
      </trkpt>
      <trkpt lat="44.97728" lon="6.50689">
        <ele>1453.8</ele>
        <time>2021-02-28T14:36:49Z</time>
      </trkpt>
      <trkpt lat="44.97728" lon="6.50688">
        <ele>1453.6</ele>
        <time>2021-02-28T14:36:50Z</time>
      </trkpt>
      <trkpt lat="44.97728" lon="6.50686">
        <ele>1453.8</ele>
        <time>2021-02-28T14:36:51Z</time>
      </trkpt>
      <trkpt lat="44.97728" lon="6.50685">
        <ele>1453.8</ele>
        <time>2021-02-28T14:36:52Z</time>
      </trkpt>
      <trkpt lat="44.97728" lon="6.50684">
        <ele>1454</ele>
        <time>2021-02-28T14:36:53Z</time>
      </trkpt>
      <trkpt lat="44.97728" lon="6.50683">
        <ele>1453.8</ele>
        <time>2021-02-28T14:36:54Z</time>
      </trkpt>
      <trkpt lat="44.97727" lon="6.50682">
        <ele>1454</ele>
        <time>2021-02-28T14:36:55Z</time>
      </trkpt>
      <trkpt lat="44.97728" lon="6.50681">
        <ele>1454</ele>
        <time>2021-02-28T14:36:56Z</time>
      </trkpt>
      <trkpt lat="44.97729" lon="6.5068">
        <ele>1454</ele>
        <time>2021-02-28T14:36:57Z</time>
      </trkpt>
      <trkpt lat="44.9773" lon="6.50679">
        <ele>1453.8</ele>
        <time>2021-02-28T14:36:58Z</time>
      </trkpt>
      <trkpt lat="44.9773" lon="6.50678">
        <ele>1454</ele>
        <time>2021-02-28T14:36:59Z</time>
      </trkpt>
      <trkpt lat="44.97731" lon="6.50677">
        <ele>1454.2</ele>
        <time>2021-02-28T14:37:00Z</time>
      </trkpt>
      <trkpt lat="44.97732" lon="6.50676">
        <ele>1454.2</ele>
        <time>2021-02-28T14:37:01Z</time>
      </trkpt>
      <trkpt lat="44.97732" lon="6.50675">
        <ele>1454</ele>
        <time>2021-02-28T14:37:02Z</time>
      </trkpt>
      <trkpt lat="44.97733" lon="6.50674">
        <ele>1454.4</ele>
        <time>2021-02-28T14:37:03Z</time>
      </trkpt>
      <trkpt lat="44.97734" lon="6.50674">
        <ele>1454.2</ele>
        <time>2021-02-28T14:37:04Z</time>
      </trkpt>
      <trkpt lat="44.97734" lon="6.50673">
        <ele>1454</ele>
        <time>2021-02-28T14:37:05Z</time>
      </trkpt>
      <trkpt lat="44.97735" lon="6.50672">
        <ele>1453.8</ele>
        <time>2021-02-28T14:37:06Z</time>
      </trkpt>
      <trkpt lat="44.97736" lon="6.5067">
        <ele>1453.6</ele>
        <time>2021-02-28T14:37:07Z</time>
      </trkpt>
      <trkpt lat="44.97737" lon="6.50669">
        <ele>1453.8</ele>
        <time>2021-02-28T14:37:08Z</time>
      </trkpt>
      <trkpt lat="44.97738" lon="6.50667">
        <ele>1453.8</ele>
        <time>2021-02-28T14:37:09Z</time>
      </trkpt>
      <trkpt lat="44.97739" lon="6.50666">
        <ele>1454</ele>
        <time>2021-02-28T14:37:10Z</time>
      </trkpt>
      <trkpt lat="44.9774" lon="6.50664">
        <ele>1453.8</ele>
        <time>2021-02-28T14:37:11Z</time>
      </trkpt>
      <trkpt lat="44.9774" lon="6.50663">
        <ele>1454</ele>
        <time>2021-02-28T14:37:12Z</time>
      </trkpt>
      <trkpt lat="44.97741" lon="6.50661">
        <ele>1453.8</ele>
        <time>2021-02-28T14:37:13Z</time>
      </trkpt>
      <trkpt lat="44.97742" lon="6.5066">
        <ele>1454</ele>
        <time>2021-02-28T14:37:14Z</time>
      </trkpt>
      <trkpt lat="44.97744" lon="6.50659">
        <ele>1454</ele>
        <time>2021-02-28T14:37:15Z</time>
      </trkpt>
      <trkpt lat="44.97745" lon="6.50658">
        <ele>1454</ele>
        <time>2021-02-28T14:37:16Z</time>
      </trkpt>
      <trkpt lat="44.97746" lon="6.50657">
        <ele>1454</ele>
        <time>2021-02-28T14:37:17Z</time>
      </trkpt>
      <trkpt lat="44.97747" lon="6.50656">
        <ele>1454.2</ele>
        <time>2021-02-28T14:37:18Z</time>
      </trkpt>
      <trkpt lat="44.97748" lon="6.50655">
        <ele>1454</ele>
        <time>2021-02-28T14:37:19Z</time>
      </trkpt>
      <trkpt lat="44.97749" lon="6.50654">
        <ele>1454.2</ele>
        <time>2021-02-28T14:37:20Z</time>
      </trkpt>
      <trkpt lat="44.9775" lon="6.50653">
        <ele>1454</ele>
        <time>2021-02-28T14:37:21Z</time>
      </trkpt>
      <trkpt lat="44.97752" lon="6.50653">
        <ele>1454.2</ele>
        <time>2021-02-28T14:37:22Z</time>
      </trkpt>
      <trkpt lat="44.97753" lon="6.50653">
        <ele>1454.2</ele>
        <time>2021-02-28T14:37:23Z</time>
      </trkpt>
      <trkpt lat="44.97754" lon="6.50652">
        <ele>1454.2</ele>
        <time>2021-02-28T14:37:24Z</time>
      </trkpt>
      <trkpt lat="44.97756" lon="6.50652">
        <ele>1454.6</ele>
        <time>2021-02-28T14:37:25Z</time>
      </trkpt>
      <trkpt lat="44.97757" lon="6.50652">
        <ele>1454.6</ele>
        <time>2021-02-28T14:37:26Z</time>
      </trkpt>
      <trkpt lat="44.97758" lon="6.50651">
        <ele>1454.6</ele>
        <time>2021-02-28T14:37:27Z</time>
      </trkpt>
      <trkpt lat="44.97759" lon="6.50651">
        <ele>1454.6</ele>
        <time>2021-02-28T14:37:28Z</time>
      </trkpt>
      <trkpt lat="44.9776" lon="6.5065">
        <ele>1454.8</ele>
        <time>2021-02-28T14:37:29Z</time>
      </trkpt>
      <trkpt lat="44.97761" lon="6.50649">
        <ele>1454.8</ele>
        <time>2021-02-28T14:37:30Z</time>
      </trkpt>
      <trkpt lat="44.97762" lon="6.50648">
        <ele>1454.8</ele>
        <time>2021-02-28T14:37:31Z</time>
      </trkpt>
      <trkpt lat="44.97763" lon="6.50648">
        <ele>1455</ele>
        <time>2021-02-28T14:37:32Z</time>
      </trkpt>
      <trkpt lat="44.97764" lon="6.50647">
        <ele>1455</ele>
        <time>2021-02-28T14:37:33Z</time>
      </trkpt>
      <trkpt lat="44.97765" lon="6.50646">
        <ele>1455</ele>
        <time>2021-02-28T14:37:34Z</time>
      </trkpt>
      <trkpt lat="44.97765" lon="6.50645">
        <ele>1455.2</ele>
        <time>2021-02-28T14:37:35Z</time>
      </trkpt>
      <trkpt lat="44.97766" lon="6.50645">
        <ele>1455.2</ele>
        <time>2021-02-28T14:37:36Z</time>
      </trkpt>
      <trkpt lat="44.97767" lon="6.50644">
        <ele>1455.4</ele>
        <time>2021-02-28T14:37:37Z</time>
      </trkpt>
      <trkpt lat="44.97767" lon="6.50644">
        <ele>1455.4</ele>
        <time>2021-02-28T14:37:38Z</time>
      </trkpt>
      <trkpt lat="44.9777" lon="6.50641">
        <ele>1455.6</ele>
        <time>2021-02-28T14:37:39Z</time>
      </trkpt>
      <trkpt lat="44.9777" lon="6.50641">
        <ele>1455.8</ele>
        <time>2021-02-28T14:37:40Z</time>
      </trkpt>
      <trkpt lat="44.9777" lon="6.50641">
        <ele>1456</ele>
        <time>2021-02-28T14:37:41Z</time>
      </trkpt>
      <trkpt lat="44.9777" lon="6.50641">
        <ele>1456.2</ele>
        <time>2021-02-28T14:37:42Z</time>
      </trkpt>
      <trkpt lat="44.9777" lon="6.50639">
        <ele>1456</ele>
        <time>2021-02-28T14:37:43Z</time>
      </trkpt>
      <trkpt lat="44.9777" lon="6.50638">
        <ele>1456</ele>
        <time>2021-02-28T14:37:44Z</time>
      </trkpt>
      <trkpt lat="44.97771" lon="6.50636">
        <ele>1455.8</ele>
        <time>2021-02-28T14:37:45Z</time>
      </trkpt>
      <trkpt lat="44.97771" lon="6.50635">
        <ele>1456</ele>
        <time>2021-02-28T14:37:46Z</time>
      </trkpt>
      <trkpt lat="44.97772" lon="6.50633">
        <ele>1456.2</ele>
        <time>2021-02-28T14:37:47Z</time>
      </trkpt>
      <trkpt lat="44.97772" lon="6.50631">
        <ele>1456.2</ele>
        <time>2021-02-28T14:37:48Z</time>
      </trkpt>
      <trkpt lat="44.97772" lon="6.5063">
        <ele>1456.4</ele>
        <time>2021-02-28T14:37:49Z</time>
      </trkpt>
      <trkpt lat="44.97773" lon="6.50628">
        <ele>1456.4</ele>
        <time>2021-02-28T14:37:50Z</time>
      </trkpt>
      <trkpt lat="44.97773" lon="6.50626">
        <ele>1456.4</ele>
        <time>2021-02-28T14:37:51Z</time>
      </trkpt>
      <trkpt lat="44.97773" lon="6.50624">
        <ele>1456.4</ele>
        <time>2021-02-28T14:37:52Z</time>
      </trkpt>
      <trkpt lat="44.97773" lon="6.50621">
        <ele>1456.4</ele>
        <time>2021-02-28T14:37:53Z</time>
      </trkpt>
      <trkpt lat="44.97773" lon="6.50619">
        <ele>1456.6</ele>
        <time>2021-02-28T14:37:54Z</time>
      </trkpt>
      <trkpt lat="44.97774" lon="6.50617">
        <ele>1457</ele>
        <time>2021-02-28T14:37:55Z</time>
      </trkpt>
      <trkpt lat="44.97774" lon="6.50615">
        <ele>1457</ele>
        <time>2021-02-28T14:37:56Z</time>
      </trkpt>
      <trkpt lat="44.97774" lon="6.50612">
        <ele>1457.2</ele>
        <time>2021-02-28T14:37:57Z</time>
      </trkpt>
      <trkpt lat="44.97774" lon="6.5061">
        <ele>1457.2</ele>
        <time>2021-02-28T14:37:58Z</time>
      </trkpt>
      <trkpt lat="44.97775" lon="6.50608">
        <ele>1457.2</ele>
        <time>2021-02-28T14:37:59Z</time>
      </trkpt>
      <trkpt lat="44.97775" lon="6.50605">
        <ele>1457.4</ele>
        <time>2021-02-28T14:38:00Z</time>
      </trkpt>
      <trkpt lat="44.97775" lon="6.50603">
        <ele>1457.6</ele>
        <time>2021-02-28T14:38:01Z</time>
      </trkpt>
      <trkpt lat="44.97775" lon="6.50601">
        <ele>1457.8</ele>
        <time>2021-02-28T14:38:02Z</time>
      </trkpt>
      <trkpt lat="44.97775" lon="6.50601">
        <ele>1458</ele>
        <time>2021-02-28T14:38:03Z</time>
      </trkpt>
      <trkpt lat="44.97775" lon="6.50601">
        <ele>1458</ele>
        <time>2021-02-28T14:38:04Z</time>
      </trkpt>
      <trkpt lat="44.97776" lon="6.50596">
        <ele>1458.4</ele>
        <time>2021-02-28T14:38:05Z</time>
      </trkpt>
      <trkpt lat="44.97776" lon="6.50596">
        <ele>1458.4</ele>
        <time>2021-02-28T14:38:06Z</time>
      </trkpt>
      <trkpt lat="44.97776" lon="6.50596">
        <ele>1458.6</ele>
        <time>2021-02-28T14:38:07Z</time>
      </trkpt>
      <trkpt lat="44.97776" lon="6.50596">
        <ele>1458.6</ele>
        <time>2021-02-28T14:38:08Z</time>
      </trkpt>
      <trkpt lat="44.97776" lon="6.50594">
        <ele>1458.8</ele>
        <time>2021-02-28T14:38:09Z</time>
      </trkpt>
      <trkpt lat="44.97775" lon="6.50593">
        <ele>1458.6</ele>
        <time>2021-02-28T14:38:10Z</time>
      </trkpt>
      <trkpt lat="44.97775" lon="6.50592">
        <ele>1458.8</ele>
        <time>2021-02-28T14:38:11Z</time>
      </trkpt>
      <trkpt lat="44.97775" lon="6.5059">
        <ele>1459</ele>
        <time>2021-02-28T14:38:12Z</time>
      </trkpt>
      <trkpt lat="44.97775" lon="6.50589">
        <ele>1458.8</ele>
        <time>2021-02-28T14:38:13Z</time>
      </trkpt>
      <trkpt lat="44.97774" lon="6.50587">
        <ele>1458.8</ele>
        <time>2021-02-28T14:38:14Z</time>
      </trkpt>
      <trkpt lat="44.97774" lon="6.50586">
        <ele>1458.8</ele>
        <time>2021-02-28T14:38:15Z</time>
      </trkpt>
      <trkpt lat="44.97774" lon="6.50585">
        <ele>1458.6</ele>
        <time>2021-02-28T14:38:16Z</time>
      </trkpt>
      <trkpt lat="44.97774" lon="6.50583">
        <ele>1458.6</ele>
        <time>2021-02-28T14:38:17Z</time>
      </trkpt>
      <trkpt lat="44.97773" lon="6.50582">
        <ele>1458.4</ele>
        <time>2021-02-28T14:38:18Z</time>
      </trkpt>
      <trkpt lat="44.97773" lon="6.50575">
        <ele>1458.6</ele>
        <time>2021-02-28T14:38:19Z</time>
      </trkpt>
      <trkpt lat="44.97773" lon="6.50575">
        <ele>1458.4</ele>
        <time>2021-02-28T14:38:20Z</time>
      </trkpt>
      <trkpt lat="44.97773" lon="6.50575">
        <ele>1458.4</ele>
        <time>2021-02-28T14:38:21Z</time>
      </trkpt>
      <trkpt lat="44.97773" lon="6.50575">
        <ele>1458</ele>
        <time>2021-02-28T14:38:22Z</time>
      </trkpt>
      <trkpt lat="44.97773" lon="6.50567">
        <ele>1457.8</ele>
        <time>2021-02-28T14:38:23Z</time>
      </trkpt>
      <trkpt lat="44.97773" lon="6.50567">
        <ele>1457.4</ele>
        <time>2021-02-28T14:38:24Z</time>
      </trkpt>
      <trkpt lat="44.97773" lon="6.50567">
        <ele>1457</ele>
        <time>2021-02-28T14:38:25Z</time>
      </trkpt>
      <trkpt lat="44.97773" lon="6.50567">
        <ele>1457</ele>
        <time>2021-02-28T14:38:26Z</time>
      </trkpt>
      <trkpt lat="44.97773" lon="6.50566">
        <ele>1456.8</ele>
        <time>2021-02-28T14:38:27Z</time>
      </trkpt>
      <trkpt lat="44.97773" lon="6.50564">
        <ele>1456.8</ele>
        <time>2021-02-28T14:38:28Z</time>
      </trkpt>
      <trkpt lat="44.97772" lon="6.50562">
        <ele>1457</ele>
        <time>2021-02-28T14:38:29Z</time>
      </trkpt>
      <trkpt lat="44.97772" lon="6.5056">
        <ele>1457</ele>
        <time>2021-02-28T14:38:30Z</time>
      </trkpt>
      <trkpt lat="44.97772" lon="6.50559">
        <ele>1457</ele>
        <time>2021-02-28T14:38:31Z</time>
      </trkpt>
      <trkpt lat="44.97771" lon="6.50557">
        <ele>1457.2</ele>
        <time>2021-02-28T14:38:32Z</time>
      </trkpt>
      <trkpt lat="44.97771" lon="6.50555">
        <ele>1457</ele>
        <time>2021-02-28T14:38:33Z</time>
      </trkpt>
      <trkpt lat="44.97771" lon="6.50553">
        <ele>1457.2</ele>
        <time>2021-02-28T14:38:34Z</time>
      </trkpt>
      <trkpt lat="44.9777" lon="6.50551">
        <ele>1457</ele>
        <time>2021-02-28T14:38:35Z</time>
      </trkpt>
      <trkpt lat="44.9777" lon="6.50549">
        <ele>1456.8</ele>
        <time>2021-02-28T14:38:36Z</time>
      </trkpt>
      <trkpt lat="44.97769" lon="6.50547">
        <ele>1456.8</ele>
        <time>2021-02-28T14:38:37Z</time>
      </trkpt>
      <trkpt lat="44.97769" lon="6.50545">
        <ele>1456.6</ele>
        <time>2021-02-28T14:38:38Z</time>
      </trkpt>
      <trkpt lat="44.97768" lon="6.50543">
        <ele>1456.6</ele>
        <time>2021-02-28T14:38:39Z</time>
      </trkpt>
      <trkpt lat="44.97771" lon="6.5054">
        <ele>1456.4</ele>
        <time>2021-02-28T14:38:40Z</time>
      </trkpt>
      <trkpt lat="44.97771" lon="6.5054">
        <ele>1456.2</ele>
        <time>2021-02-28T14:38:41Z</time>
      </trkpt>
      <trkpt lat="44.97771" lon="6.5054">
        <ele>1456.2</ele>
        <time>2021-02-28T14:38:42Z</time>
      </trkpt>
      <trkpt lat="44.97771" lon="6.5054">
        <ele>1456.2</ele>
        <time>2021-02-28T14:38:43Z</time>
      </trkpt>
      <trkpt lat="44.97771" lon="6.5054">
        <ele>1456</ele>
        <time>2021-02-28T14:38:44Z</time>
      </trkpt>
      <trkpt lat="44.97771" lon="6.5054">
        <ele>1456</ele>
        <time>2021-02-28T14:38:45Z</time>
      </trkpt>
      <trkpt lat="44.97771" lon="6.5054">
        <ele>1456.2</ele>
        <time>2021-02-28T14:38:46Z</time>
      </trkpt>
      <trkpt lat="44.97771" lon="6.5054">
        <ele>1456.4</ele>
        <time>2021-02-28T14:38:47Z</time>
      </trkpt>
      <trkpt lat="44.97771" lon="6.5054">
        <ele>1456.2</ele>
        <time>2021-02-28T14:38:48Z</time>
      </trkpt>
      <trkpt lat="44.97771" lon="6.5054">
        <ele>1456</ele>
        <time>2021-02-28T14:38:49Z</time>
      </trkpt>
      <trkpt lat="44.97771" lon="6.5054">
        <ele>1456</ele>
        <time>2021-02-28T14:38:50Z</time>
      </trkpt>
    </trkseg>
  </trk>
</gpx>